<?xml version="1.0" encoding="UTF-8" standalone="no" ?>
<gpx xmlns="http://www.topografix.com/GPX/1/1" xmlns:xsi="http://www.w3.org/2001/XMLSchema-instance" xsi:schemaLocation="http://www.topografix.com/GPX/1/1 http://www.topografix.com/GPX/1/1/gpx.xsd" version="1.1" creator="VisuGPX - https://www.visugpx.com">
  <metadata>
    <name>Sortie à vélo le midi</name>
  </metadata>
  <trk>
    <name><![CDATA[Sortie à vélo le midi_1]]></name>
    <trkseg>
      <trkpt lat="45.7965" lon="1.13513">
        <ele>220</ele>
        <time>2022-04-03T09:41:49Z</time>
      </trkpt>
      <trkpt lat="45.7965" lon="1.13516">
        <ele>224.2</ele>
        <time>2022-04-03T09:41:50Z</time>
      </trkpt>
      <trkpt lat="45.79651" lon="1.13519">
        <ele>224.2</ele>
        <time>2022-04-03T09:41:51Z</time>
      </trkpt>
      <trkpt lat="45.79651" lon="1.13523">
        <ele>224.2</ele>
        <time>2022-04-03T09:41:52Z</time>
      </trkpt>
      <trkpt lat="45.79652" lon="1.13526">
        <ele>224.2</ele>
        <time>2022-04-03T09:41:53Z</time>
      </trkpt>
      <trkpt lat="45.79652" lon="1.1353">
        <ele>223.4</ele>
        <time>2022-04-03T09:41:54Z</time>
      </trkpt>
      <trkpt lat="45.79653" lon="1.13534">
        <ele>223.4</ele>
        <time>2022-04-03T09:41:55Z</time>
      </trkpt>
      <trkpt lat="45.79654" lon="1.13539">
        <ele>223.2</ele>
        <time>2022-04-03T09:41:56Z</time>
      </trkpt>
      <trkpt lat="45.79654" lon="1.13543">
        <ele>223.2</ele>
        <time>2022-04-03T09:41:57Z</time>
      </trkpt>
      <trkpt lat="45.79655" lon="1.13547">
        <ele>223.4</ele>
        <time>2022-04-03T09:41:58Z</time>
      </trkpt>
      <trkpt lat="45.79656" lon="1.13551">
        <ele>223.8</ele>
        <time>2022-04-03T09:41:59Z</time>
      </trkpt>
      <trkpt lat="45.79657" lon="1.13556">
        <ele>223.8</ele>
        <time>2022-04-03T09:42:00Z</time>
      </trkpt>
      <trkpt lat="45.79658" lon="1.1356">
        <ele>223.8</ele>
        <time>2022-04-03T09:42:01Z</time>
      </trkpt>
      <trkpt lat="45.79659" lon="1.13565">
        <ele>224</ele>
        <time>2022-04-03T09:42:02Z</time>
      </trkpt>
      <trkpt lat="45.7966" lon="1.13569">
        <ele>224</ele>
        <time>2022-04-03T09:42:03Z</time>
      </trkpt>
      <trkpt lat="45.79661" lon="1.13574">
        <ele>223.8</ele>
        <time>2022-04-03T09:42:04Z</time>
      </trkpt>
      <trkpt lat="45.79661" lon="1.13579">
        <ele>223.8</ele>
        <time>2022-04-03T09:42:05Z</time>
      </trkpt>
      <trkpt lat="45.79662" lon="1.13583">
        <ele>223.6</ele>
        <time>2022-04-03T09:42:06Z</time>
      </trkpt>
      <trkpt lat="45.79662" lon="1.13588">
        <ele>223.2</ele>
        <time>2022-04-03T09:42:07Z</time>
      </trkpt>
      <trkpt lat="45.79663" lon="1.13593">
        <ele>223.6</ele>
        <time>2022-04-03T09:42:08Z</time>
      </trkpt>
      <trkpt lat="45.79664" lon="1.13598">
        <ele>223.6</ele>
        <time>2022-04-03T09:42:09Z</time>
      </trkpt>
      <trkpt lat="45.79665" lon="1.13602">
        <ele>223.6</ele>
        <time>2022-04-03T09:42:10Z</time>
      </trkpt>
      <trkpt lat="45.79665" lon="1.13607">
        <ele>223.8</ele>
        <time>2022-04-03T09:42:11Z</time>
      </trkpt>
      <trkpt lat="45.79666" lon="1.13611">
        <ele>223.8</ele>
        <time>2022-04-03T09:42:12Z</time>
      </trkpt>
      <trkpt lat="45.79667" lon="1.13616">
        <ele>223.8</ele>
        <time>2022-04-03T09:42:13Z</time>
      </trkpt>
      <trkpt lat="45.79667" lon="1.1362">
        <ele>223.8</ele>
        <time>2022-04-03T09:42:14Z</time>
      </trkpt>
      <trkpt lat="45.79668" lon="1.13625">
        <ele>223.8</ele>
        <time>2022-04-03T09:42:15Z</time>
      </trkpt>
      <trkpt lat="45.79669" lon="1.13629">
        <ele>224</ele>
        <time>2022-04-03T09:42:16Z</time>
      </trkpt>
      <trkpt lat="45.79669" lon="1.13634">
        <ele>224</ele>
        <time>2022-04-03T09:42:17Z</time>
      </trkpt>
      <trkpt lat="45.7967" lon="1.13638">
        <ele>224</ele>
        <time>2022-04-03T09:42:18Z</time>
      </trkpt>
      <trkpt lat="45.79671" lon="1.13642">
        <ele>224</ele>
        <time>2022-04-03T09:42:19Z</time>
      </trkpt>
      <trkpt lat="45.79672" lon="1.13646">
        <ele>223.8</ele>
        <time>2022-04-03T09:42:20Z</time>
      </trkpt>
      <trkpt lat="45.79673" lon="1.13649">
        <ele>223.8</ele>
        <time>2022-04-03T09:42:21Z</time>
      </trkpt>
      <trkpt lat="45.79674" lon="1.13651">
        <ele>223.8</ele>
        <time>2022-04-03T09:42:22Z</time>
      </trkpt>
      <trkpt lat="45.79674" lon="1.13653">
        <ele>223.8</ele>
        <time>2022-04-03T09:42:23Z</time>
      </trkpt>
      <trkpt lat="45.79675" lon="1.13654">
        <ele>223.8</ele>
        <time>2022-04-03T09:42:24Z</time>
      </trkpt>
      <trkpt lat="45.79673" lon="1.13662">
        <ele>223.8</ele>
        <time>2022-04-03T09:42:42Z</time>
      </trkpt>
      <trkpt lat="45.79672" lon="1.13663">
        <ele>223.8</ele>
        <time>2022-04-03T09:42:43Z</time>
      </trkpt>
      <trkpt lat="45.79669" lon="1.13666">
        <ele>223.4</ele>
        <time>2022-04-03T09:42:45Z</time>
      </trkpt>
      <trkpt lat="45.79667" lon="1.13668">
        <ele>223.2</ele>
        <time>2022-04-03T09:42:46Z</time>
      </trkpt>
      <trkpt lat="45.79665" lon="1.13669">
        <ele>223.2</ele>
        <time>2022-04-03T09:42:47Z</time>
      </trkpt>
      <trkpt lat="45.79663" lon="1.1367">
        <ele>223.2</ele>
        <time>2022-04-03T09:42:48Z</time>
      </trkpt>
      <trkpt lat="45.7966" lon="1.13671">
        <ele>223.4</ele>
        <time>2022-04-03T09:42:49Z</time>
      </trkpt>
      <trkpt lat="45.79657" lon="1.13672">
        <ele>223.2</ele>
        <time>2022-04-03T09:42:50Z</time>
      </trkpt>
      <trkpt lat="45.79655" lon="1.13672">
        <ele>223.2</ele>
        <time>2022-04-03T09:42:51Z</time>
      </trkpt>
      <trkpt lat="45.79652" lon="1.13673">
        <ele>223.2</ele>
        <time>2022-04-03T09:42:52Z</time>
      </trkpt>
      <trkpt lat="45.79649" lon="1.13673">
        <ele>223.2</ele>
        <time>2022-04-03T09:42:53Z</time>
      </trkpt>
      <trkpt lat="45.79646" lon="1.13673">
        <ele>223.2</ele>
        <time>2022-04-03T09:42:54Z</time>
      </trkpt>
      <trkpt lat="45.79644" lon="1.13673">
        <ele>223.2</ele>
        <time>2022-04-03T09:42:55Z</time>
      </trkpt>
      <trkpt lat="45.7964" lon="1.13674">
        <ele>223.2</ele>
        <time>2022-04-03T09:42:56Z</time>
      </trkpt>
      <trkpt lat="45.79637" lon="1.13674">
        <ele>223.2</ele>
        <time>2022-04-03T09:42:57Z</time>
      </trkpt>
      <trkpt lat="45.79634" lon="1.13675">
        <ele>223.4</ele>
        <time>2022-04-03T09:42:58Z</time>
      </trkpt>
      <trkpt lat="45.79631" lon="1.13675">
        <ele>223.4</ele>
        <time>2022-04-03T09:42:59Z</time>
      </trkpt>
      <trkpt lat="45.79628" lon="1.13675">
        <ele>223.4</ele>
        <time>2022-04-03T09:43:00Z</time>
      </trkpt>
      <trkpt lat="45.79625" lon="1.13675">
        <ele>223.6</ele>
        <time>2022-04-03T09:43:01Z</time>
      </trkpt>
      <trkpt lat="45.79622" lon="1.13674">
        <ele>223.6</ele>
        <time>2022-04-03T09:43:02Z</time>
      </trkpt>
      <trkpt lat="45.79619" lon="1.13674">
        <ele>223.6</ele>
        <time>2022-04-03T09:43:03Z</time>
      </trkpt>
      <trkpt lat="45.79616" lon="1.13673">
        <ele>223.8</ele>
        <time>2022-04-03T09:43:04Z</time>
      </trkpt>
      <trkpt lat="45.79612" lon="1.13672">
        <ele>223.8</ele>
        <time>2022-04-03T09:43:05Z</time>
      </trkpt>
      <trkpt lat="45.79609" lon="1.13672">
        <ele>223.8</ele>
        <time>2022-04-03T09:43:06Z</time>
      </trkpt>
      <trkpt lat="45.79607" lon="1.13672">
        <ele>224</ele>
        <time>2022-04-03T09:43:07Z</time>
      </trkpt>
      <trkpt lat="45.79604" lon="1.13673">
        <ele>224.2</ele>
        <time>2022-04-03T09:43:08Z</time>
      </trkpt>
      <trkpt lat="45.79601" lon="1.13674">
        <ele>224.2</ele>
        <time>2022-04-03T09:43:09Z</time>
      </trkpt>
      <trkpt lat="45.79598" lon="1.13675">
        <ele>224.6</ele>
        <time>2022-04-03T09:43:10Z</time>
      </trkpt>
      <trkpt lat="45.79595" lon="1.13675">
        <ele>224.8</ele>
        <time>2022-04-03T09:43:11Z</time>
      </trkpt>
      <trkpt lat="45.79592" lon="1.13675">
        <ele>224.8</ele>
        <time>2022-04-03T09:43:12Z</time>
      </trkpt>
      <trkpt lat="45.79589" lon="1.13675">
        <ele>225</ele>
        <time>2022-04-03T09:43:13Z</time>
      </trkpt>
      <trkpt lat="45.79586" lon="1.13674">
        <ele>225.2</ele>
        <time>2022-04-03T09:43:14Z</time>
      </trkpt>
      <trkpt lat="45.79583" lon="1.13672">
        <ele>225.4</ele>
        <time>2022-04-03T09:43:15Z</time>
      </trkpt>
      <trkpt lat="45.7958" lon="1.1367">
        <ele>225.4</ele>
        <time>2022-04-03T09:43:16Z</time>
      </trkpt>
      <trkpt lat="45.79577" lon="1.13669">
        <ele>225.6</ele>
        <time>2022-04-03T09:43:17Z</time>
      </trkpt>
      <trkpt lat="45.79574" lon="1.13668">
        <ele>225.6</ele>
        <time>2022-04-03T09:43:18Z</time>
      </trkpt>
      <trkpt lat="45.79572" lon="1.13667">
        <ele>226</ele>
        <time>2022-04-03T09:43:19Z</time>
      </trkpt>
      <trkpt lat="45.79569" lon="1.13666">
        <ele>226</ele>
        <time>2022-04-03T09:43:20Z</time>
      </trkpt>
      <trkpt lat="45.79566" lon="1.13665">
        <ele>226.2</ele>
        <time>2022-04-03T09:43:21Z</time>
      </trkpt>
      <trkpt lat="45.79563" lon="1.13664">
        <ele>226.4</ele>
        <time>2022-04-03T09:43:22Z</time>
      </trkpt>
      <trkpt lat="45.7956" lon="1.13663">
        <ele>226.2</ele>
        <time>2022-04-03T09:43:23Z</time>
      </trkpt>
      <trkpt lat="45.79558" lon="1.13663">
        <ele>226.2</ele>
        <time>2022-04-03T09:43:24Z</time>
      </trkpt>
      <trkpt lat="45.79555" lon="1.13662">
        <ele>226.4</ele>
        <time>2022-04-03T09:43:25Z</time>
      </trkpt>
      <trkpt lat="45.79552" lon="1.13662">
        <ele>226.4</ele>
        <time>2022-04-03T09:43:26Z</time>
      </trkpt>
      <trkpt lat="45.79549" lon="1.13661">
        <ele>226.4</ele>
        <time>2022-04-03T09:43:27Z</time>
      </trkpt>
      <trkpt lat="45.79546" lon="1.13661">
        <ele>226.4</ele>
        <time>2022-04-03T09:43:28Z</time>
      </trkpt>
      <trkpt lat="45.79544" lon="1.1366">
        <ele>226.8</ele>
        <time>2022-04-03T09:43:29Z</time>
      </trkpt>
      <trkpt lat="45.79541" lon="1.1366">
        <ele>226.6</ele>
        <time>2022-04-03T09:43:30Z</time>
      </trkpt>
      <trkpt lat="45.79539" lon="1.1366">
        <ele>226.8</ele>
        <time>2022-04-03T09:43:31Z</time>
      </trkpt>
      <trkpt lat="45.79536" lon="1.13659">
        <ele>227</ele>
        <time>2022-04-03T09:43:32Z</time>
      </trkpt>
      <trkpt lat="45.79534" lon="1.13659">
        <ele>227</ele>
        <time>2022-04-03T09:43:33Z</time>
      </trkpt>
      <trkpt lat="45.79531" lon="1.13659">
        <ele>227.2</ele>
        <time>2022-04-03T09:43:34Z</time>
      </trkpt>
      <trkpt lat="45.79528" lon="1.13659">
        <ele>227.2</ele>
        <time>2022-04-03T09:43:35Z</time>
      </trkpt>
      <trkpt lat="45.79525" lon="1.13659">
        <ele>227.4</ele>
        <time>2022-04-03T09:43:36Z</time>
      </trkpt>
      <trkpt lat="45.79522" lon="1.13659">
        <ele>227.6</ele>
        <time>2022-04-03T09:43:37Z</time>
      </trkpt>
      <trkpt lat="45.7952" lon="1.13659">
        <ele>227.8</ele>
        <time>2022-04-03T09:43:38Z</time>
      </trkpt>
      <trkpt lat="45.79517" lon="1.13659">
        <ele>227.6</ele>
        <time>2022-04-03T09:43:39Z</time>
      </trkpt>
      <trkpt lat="45.79513" lon="1.13659">
        <ele>227.8</ele>
        <time>2022-04-03T09:43:40Z</time>
      </trkpt>
      <trkpt lat="45.7951" lon="1.1366">
        <ele>227.8</ele>
        <time>2022-04-03T09:43:41Z</time>
      </trkpt>
      <trkpt lat="45.79506" lon="1.13661">
        <ele>227.8</ele>
        <time>2022-04-03T09:43:42Z</time>
      </trkpt>
      <trkpt lat="45.79503" lon="1.13662">
        <ele>227.6</ele>
        <time>2022-04-03T09:43:43Z</time>
      </trkpt>
      <trkpt lat="45.795" lon="1.13664">
        <ele>227.6</ele>
        <time>2022-04-03T09:43:44Z</time>
      </trkpt>
      <trkpt lat="45.79497" lon="1.13666">
        <ele>227.8</ele>
        <time>2022-04-03T09:43:45Z</time>
      </trkpt>
      <trkpt lat="45.79493" lon="1.13667">
        <ele>227.6</ele>
        <time>2022-04-03T09:43:46Z</time>
      </trkpt>
      <trkpt lat="45.79489" lon="1.13669">
        <ele>227.8</ele>
        <time>2022-04-03T09:43:47Z</time>
      </trkpt>
      <trkpt lat="45.79485" lon="1.1367">
        <ele>227.8</ele>
        <time>2022-04-03T09:43:48Z</time>
      </trkpt>
      <trkpt lat="45.7948" lon="1.13671">
        <ele>227.8</ele>
        <time>2022-04-03T09:43:49Z</time>
      </trkpt>
      <trkpt lat="45.79476" lon="1.13672">
        <ele>227.8</ele>
        <time>2022-04-03T09:43:50Z</time>
      </trkpt>
      <trkpt lat="45.79471" lon="1.13674">
        <ele>227.4</ele>
        <time>2022-04-03T09:43:51Z</time>
      </trkpt>
      <trkpt lat="45.79467" lon="1.13676">
        <ele>227.2</ele>
        <time>2022-04-03T09:43:52Z</time>
      </trkpt>
      <trkpt lat="45.79462" lon="1.13678">
        <ele>227.2</ele>
        <time>2022-04-03T09:43:53Z</time>
      </trkpt>
      <trkpt lat="45.79458" lon="1.13681">
        <ele>227</ele>
        <time>2022-04-03T09:43:54Z</time>
      </trkpt>
      <trkpt lat="45.79454" lon="1.13684">
        <ele>226.8</ele>
        <time>2022-04-03T09:43:55Z</time>
      </trkpt>
      <trkpt lat="45.79451" lon="1.13686">
        <ele>226.8</ele>
        <time>2022-04-03T09:43:56Z</time>
      </trkpt>
      <trkpt lat="45.79447" lon="1.13688">
        <ele>226.6</ele>
        <time>2022-04-03T09:43:57Z</time>
      </trkpt>
      <trkpt lat="45.79444" lon="1.1369">
        <ele>226.6</ele>
        <time>2022-04-03T09:43:58Z</time>
      </trkpt>
      <trkpt lat="45.7944" lon="1.13692">
        <ele>226.8</ele>
        <time>2022-04-03T09:43:59Z</time>
      </trkpt>
      <trkpt lat="45.79437" lon="1.13694">
        <ele>226.6</ele>
        <time>2022-04-03T09:44:00Z</time>
      </trkpt>
      <trkpt lat="45.79433" lon="1.13695">
        <ele>226.6</ele>
        <time>2022-04-03T09:44:01Z</time>
      </trkpt>
      <trkpt lat="45.79428" lon="1.13696">
        <ele>226.6</ele>
        <time>2022-04-03T09:44:02Z</time>
      </trkpt>
      <trkpt lat="45.79425" lon="1.13698">
        <ele>226.6</ele>
        <time>2022-04-03T09:44:03Z</time>
      </trkpt>
      <trkpt lat="45.79421" lon="1.137">
        <ele>226.6</ele>
        <time>2022-04-03T09:44:04Z</time>
      </trkpt>
      <trkpt lat="45.79418" lon="1.13702">
        <ele>226.6</ele>
        <time>2022-04-03T09:44:05Z</time>
      </trkpt>
      <trkpt lat="45.79415" lon="1.13704">
        <ele>226.6</ele>
        <time>2022-04-03T09:44:06Z</time>
      </trkpt>
      <trkpt lat="45.79411" lon="1.13705">
        <ele>226.6</ele>
        <time>2022-04-03T09:44:07Z</time>
      </trkpt>
      <trkpt lat="45.79408" lon="1.13707">
        <ele>226.6</ele>
        <time>2022-04-03T09:44:08Z</time>
      </trkpt>
      <trkpt lat="45.79405" lon="1.13708">
        <ele>226.6</ele>
        <time>2022-04-03T09:44:09Z</time>
      </trkpt>
      <trkpt lat="45.79402" lon="1.13708">
        <ele>226.8</ele>
        <time>2022-04-03T09:44:10Z</time>
      </trkpt>
      <trkpt lat="45.79398" lon="1.13708">
        <ele>226.8</ele>
        <time>2022-04-03T09:44:11Z</time>
      </trkpt>
      <trkpt lat="45.79395" lon="1.13708">
        <ele>226.6</ele>
        <time>2022-04-03T09:44:12Z</time>
      </trkpt>
      <trkpt lat="45.79391" lon="1.13708">
        <ele>226.8</ele>
        <time>2022-04-03T09:44:13Z</time>
      </trkpt>
      <trkpt lat="45.79387" lon="1.13708">
        <ele>226.8</ele>
        <time>2022-04-03T09:44:14Z</time>
      </trkpt>
      <trkpt lat="45.79384" lon="1.13707">
        <ele>227.2</ele>
        <time>2022-04-03T09:44:15Z</time>
      </trkpt>
      <trkpt lat="45.79381" lon="1.13707">
        <ele>227.4</ele>
        <time>2022-04-03T09:44:16Z</time>
      </trkpt>
      <trkpt lat="45.79378" lon="1.13707">
        <ele>227.6</ele>
        <time>2022-04-03T09:44:17Z</time>
      </trkpt>
      <trkpt lat="45.79375" lon="1.13707">
        <ele>227.8</ele>
        <time>2022-04-03T09:44:18Z</time>
      </trkpt>
      <trkpt lat="45.79371" lon="1.13706">
        <ele>227.8</ele>
        <time>2022-04-03T09:44:19Z</time>
      </trkpt>
      <trkpt lat="45.79368" lon="1.13706">
        <ele>228.2</ele>
        <time>2022-04-03T09:44:20Z</time>
      </trkpt>
      <trkpt lat="45.79365" lon="1.13706">
        <ele>228.2</ele>
        <time>2022-04-03T09:44:21Z</time>
      </trkpt>
      <trkpt lat="45.79362" lon="1.13705">
        <ele>228.8</ele>
        <time>2022-04-03T09:44:22Z</time>
      </trkpt>
      <trkpt lat="45.79359" lon="1.13705">
        <ele>229.2</ele>
        <time>2022-04-03T09:44:23Z</time>
      </trkpt>
      <trkpt lat="45.79357" lon="1.13705">
        <ele>229.4</ele>
        <time>2022-04-03T09:44:24Z</time>
      </trkpt>
      <trkpt lat="45.79354" lon="1.13705">
        <ele>229.4</ele>
        <time>2022-04-03T09:44:25Z</time>
      </trkpt>
      <trkpt lat="45.79351" lon="1.13705">
        <ele>229.4</ele>
        <time>2022-04-03T09:44:26Z</time>
      </trkpt>
      <trkpt lat="45.79348" lon="1.13704">
        <ele>229.6</ele>
        <time>2022-04-03T09:44:27Z</time>
      </trkpt>
      <trkpt lat="45.79346" lon="1.13704">
        <ele>229.8</ele>
        <time>2022-04-03T09:44:28Z</time>
      </trkpt>
      <trkpt lat="45.79343" lon="1.13704">
        <ele>230</ele>
        <time>2022-04-03T09:44:29Z</time>
      </trkpt>
      <trkpt lat="45.79341" lon="1.13704">
        <ele>230.2</ele>
        <time>2022-04-03T09:44:30Z</time>
      </trkpt>
      <trkpt lat="45.79338" lon="1.13703">
        <ele>230.4</ele>
        <time>2022-04-03T09:44:31Z</time>
      </trkpt>
      <trkpt lat="45.79336" lon="1.13703">
        <ele>230.6</ele>
        <time>2022-04-03T09:44:32Z</time>
      </trkpt>
      <trkpt lat="45.79334" lon="1.13703">
        <ele>230.8</ele>
        <time>2022-04-03T09:44:33Z</time>
      </trkpt>
      <trkpt lat="45.79331" lon="1.13702">
        <ele>231</ele>
        <time>2022-04-03T09:44:34Z</time>
      </trkpt>
      <trkpt lat="45.79329" lon="1.13702">
        <ele>231.4</ele>
        <time>2022-04-03T09:44:35Z</time>
      </trkpt>
      <trkpt lat="45.79327" lon="1.13701">
        <ele>231.8</ele>
        <time>2022-04-03T09:44:36Z</time>
      </trkpt>
      <trkpt lat="45.79325" lon="1.13701">
        <ele>232</ele>
        <time>2022-04-03T09:44:37Z</time>
      </trkpt>
      <trkpt lat="45.79323" lon="1.137">
        <ele>232</ele>
        <time>2022-04-03T09:44:38Z</time>
      </trkpt>
      <trkpt lat="45.7932" lon="1.13699">
        <ele>232.2</ele>
        <time>2022-04-03T09:44:39Z</time>
      </trkpt>
      <trkpt lat="45.79318" lon="1.13698">
        <ele>232.4</ele>
        <time>2022-04-03T09:44:40Z</time>
      </trkpt>
      <trkpt lat="45.79316" lon="1.13697">
        <ele>232.6</ele>
        <time>2022-04-03T09:44:41Z</time>
      </trkpt>
      <trkpt lat="45.79313" lon="1.13697">
        <ele>232.8</ele>
        <time>2022-04-03T09:44:42Z</time>
      </trkpt>
      <trkpt lat="45.79311" lon="1.13696">
        <ele>233</ele>
        <time>2022-04-03T09:44:43Z</time>
      </trkpt>
      <trkpt lat="45.79309" lon="1.13695">
        <ele>233</ele>
        <time>2022-04-03T09:44:44Z</time>
      </trkpt>
      <trkpt lat="45.79306" lon="1.13694">
        <ele>233</ele>
        <time>2022-04-03T09:44:45Z</time>
      </trkpt>
      <trkpt lat="45.79304" lon="1.13692">
        <ele>233.4</ele>
        <time>2022-04-03T09:44:46Z</time>
      </trkpt>
      <trkpt lat="45.79302" lon="1.13691">
        <ele>233.4</ele>
        <time>2022-04-03T09:44:47Z</time>
      </trkpt>
      <trkpt lat="45.79299" lon="1.1369">
        <ele>233.8</ele>
        <time>2022-04-03T09:44:48Z</time>
      </trkpt>
      <trkpt lat="45.79297" lon="1.13689">
        <ele>234</ele>
        <time>2022-04-03T09:44:49Z</time>
      </trkpt>
      <trkpt lat="45.79295" lon="1.13688">
        <ele>234.2</ele>
        <time>2022-04-03T09:44:50Z</time>
      </trkpt>
      <trkpt lat="45.79293" lon="1.13687">
        <ele>234.2</ele>
        <time>2022-04-03T09:44:51Z</time>
      </trkpt>
      <trkpt lat="45.79291" lon="1.13687">
        <ele>234.4</ele>
        <time>2022-04-03T09:44:52Z</time>
      </trkpt>
      <trkpt lat="45.79289" lon="1.13686">
        <ele>234.8</ele>
        <time>2022-04-03T09:44:53Z</time>
      </trkpt>
      <trkpt lat="45.79286" lon="1.13685">
        <ele>234.8</ele>
        <time>2022-04-03T09:44:54Z</time>
      </trkpt>
      <trkpt lat="45.79284" lon="1.13684">
        <ele>235</ele>
        <time>2022-04-03T09:44:55Z</time>
      </trkpt>
      <trkpt lat="45.79282" lon="1.13683">
        <ele>235</ele>
        <time>2022-04-03T09:44:56Z</time>
      </trkpt>
      <trkpt lat="45.7928" lon="1.13682">
        <ele>235.2</ele>
        <time>2022-04-03T09:44:57Z</time>
      </trkpt>
      <trkpt lat="45.79278" lon="1.13681">
        <ele>235.4</ele>
        <time>2022-04-03T09:44:58Z</time>
      </trkpt>
      <trkpt lat="45.79276" lon="1.1368">
        <ele>235.6</ele>
        <time>2022-04-03T09:44:59Z</time>
      </trkpt>
      <trkpt lat="45.79274" lon="1.1368">
        <ele>235.8</ele>
        <time>2022-04-03T09:45:00Z</time>
      </trkpt>
      <trkpt lat="45.79272" lon="1.13679">
        <ele>236</ele>
        <time>2022-04-03T09:45:01Z</time>
      </trkpt>
      <trkpt lat="45.7927" lon="1.13678">
        <ele>236.2</ele>
        <time>2022-04-03T09:45:02Z</time>
      </trkpt>
      <trkpt lat="45.79268" lon="1.13677">
        <ele>236.2</ele>
        <time>2022-04-03T09:45:03Z</time>
      </trkpt>
      <trkpt lat="45.79266" lon="1.13676">
        <ele>236.4</ele>
        <time>2022-04-03T09:45:04Z</time>
      </trkpt>
      <trkpt lat="45.79264" lon="1.13675">
        <ele>236.4</ele>
        <time>2022-04-03T09:45:05Z</time>
      </trkpt>
      <trkpt lat="45.79262" lon="1.13674">
        <ele>236.8</ele>
        <time>2022-04-03T09:45:06Z</time>
      </trkpt>
      <trkpt lat="45.7926" lon="1.13673">
        <ele>236.8</ele>
        <time>2022-04-03T09:45:07Z</time>
      </trkpt>
      <trkpt lat="45.79258" lon="1.13672">
        <ele>237</ele>
        <time>2022-04-03T09:45:08Z</time>
      </trkpt>
      <trkpt lat="45.79256" lon="1.13671">
        <ele>237.4</ele>
        <time>2022-04-03T09:45:09Z</time>
      </trkpt>
      <trkpt lat="45.79254" lon="1.1367">
        <ele>237.4</ele>
        <time>2022-04-03T09:45:10Z</time>
      </trkpt>
      <trkpt lat="45.79252" lon="1.1367">
        <ele>237.2</ele>
        <time>2022-04-03T09:45:11Z</time>
      </trkpt>
      <trkpt lat="45.7925" lon="1.13669">
        <ele>237.6</ele>
        <time>2022-04-03T09:45:12Z</time>
      </trkpt>
      <trkpt lat="45.79248" lon="1.13668">
        <ele>238</ele>
        <time>2022-04-03T09:45:13Z</time>
      </trkpt>
      <trkpt lat="45.79246" lon="1.13667">
        <ele>238</ele>
        <time>2022-04-03T09:45:14Z</time>
      </trkpt>
      <trkpt lat="45.79244" lon="1.13666">
        <ele>238</ele>
        <time>2022-04-03T09:45:15Z</time>
      </trkpt>
      <trkpt lat="45.79242" lon="1.13665">
        <ele>238.2</ele>
        <time>2022-04-03T09:45:16Z</time>
      </trkpt>
      <trkpt lat="45.7924" lon="1.13664">
        <ele>238.4</ele>
        <time>2022-04-03T09:45:17Z</time>
      </trkpt>
      <trkpt lat="45.79238" lon="1.13663">
        <ele>238.4</ele>
        <time>2022-04-03T09:45:18Z</time>
      </trkpt>
      <trkpt lat="45.79236" lon="1.13662">
        <ele>238.4</ele>
        <time>2022-04-03T09:45:19Z</time>
      </trkpt>
      <trkpt lat="45.79234" lon="1.13661">
        <ele>238.6</ele>
        <time>2022-04-03T09:45:20Z</time>
      </trkpt>
      <trkpt lat="45.79232" lon="1.1366">
        <ele>238.8</ele>
        <time>2022-04-03T09:45:21Z</time>
      </trkpt>
      <trkpt lat="45.79229" lon="1.1366">
        <ele>238.8</ele>
        <time>2022-04-03T09:45:22Z</time>
      </trkpt>
      <trkpt lat="45.79227" lon="1.13659">
        <ele>239</ele>
        <time>2022-04-03T09:45:23Z</time>
      </trkpt>
      <trkpt lat="45.79225" lon="1.13658">
        <ele>239.2</ele>
        <time>2022-04-03T09:45:24Z</time>
      </trkpt>
      <trkpt lat="45.79224" lon="1.13657">
        <ele>239.4</ele>
        <time>2022-04-03T09:45:25Z</time>
      </trkpt>
      <trkpt lat="45.79221" lon="1.13656">
        <ele>239.4</ele>
        <time>2022-04-03T09:45:26Z</time>
      </trkpt>
      <trkpt lat="45.79219" lon="1.13656">
        <ele>239.6</ele>
        <time>2022-04-03T09:45:27Z</time>
      </trkpt>
      <trkpt lat="45.79217" lon="1.13655">
        <ele>239.6</ele>
        <time>2022-04-03T09:45:28Z</time>
      </trkpt>
      <trkpt lat="45.79215" lon="1.13654">
        <ele>239.8</ele>
        <time>2022-04-03T09:45:29Z</time>
      </trkpt>
      <trkpt lat="45.79213" lon="1.13653">
        <ele>240.2</ele>
        <time>2022-04-03T09:45:30Z</time>
      </trkpt>
      <trkpt lat="45.79211" lon="1.13652">
        <ele>240.4</ele>
        <time>2022-04-03T09:45:31Z</time>
      </trkpt>
      <trkpt lat="45.79209" lon="1.13651">
        <ele>240.4</ele>
        <time>2022-04-03T09:45:32Z</time>
      </trkpt>
      <trkpt lat="45.79207" lon="1.13649">
        <ele>240.6</ele>
        <time>2022-04-03T09:45:33Z</time>
      </trkpt>
      <trkpt lat="45.79204" lon="1.13649">
        <ele>240.6</ele>
        <time>2022-04-03T09:45:34Z</time>
      </trkpt>
      <trkpt lat="45.79202" lon="1.13648">
        <ele>241</ele>
        <time>2022-04-03T09:45:35Z</time>
      </trkpt>
      <trkpt lat="45.792" lon="1.13647">
        <ele>241.2</ele>
        <time>2022-04-03T09:45:36Z</time>
      </trkpt>
      <trkpt lat="45.79198" lon="1.13646">
        <ele>241.2</ele>
        <time>2022-04-03T09:45:37Z</time>
      </trkpt>
      <trkpt lat="45.79196" lon="1.13645">
        <ele>241.2</ele>
        <time>2022-04-03T09:45:38Z</time>
      </trkpt>
      <trkpt lat="45.79194" lon="1.13644">
        <ele>241.2</ele>
        <time>2022-04-03T09:45:39Z</time>
      </trkpt>
      <trkpt lat="45.79192" lon="1.13643">
        <ele>241.4</ele>
        <time>2022-04-03T09:45:40Z</time>
      </trkpt>
      <trkpt lat="45.7919" lon="1.13642">
        <ele>241.6</ele>
        <time>2022-04-03T09:45:41Z</time>
      </trkpt>
      <trkpt lat="45.79187" lon="1.13641">
        <ele>241.6</ele>
        <time>2022-04-03T09:45:42Z</time>
      </trkpt>
      <trkpt lat="45.79185" lon="1.13641">
        <ele>241.8</ele>
        <time>2022-04-03T09:45:43Z</time>
      </trkpt>
      <trkpt lat="45.79183" lon="1.1364">
        <ele>242</ele>
        <time>2022-04-03T09:45:44Z</time>
      </trkpt>
      <trkpt lat="45.79181" lon="1.13639">
        <ele>242.2</ele>
        <time>2022-04-03T09:45:45Z</time>
      </trkpt>
      <trkpt lat="45.79178" lon="1.13638">
        <ele>242.4</ele>
        <time>2022-04-03T09:45:46Z</time>
      </trkpt>
      <trkpt lat="45.79176" lon="1.13637">
        <ele>242.6</ele>
        <time>2022-04-03T09:45:47Z</time>
      </trkpt>
      <trkpt lat="45.79174" lon="1.13636">
        <ele>242.8</ele>
        <time>2022-04-03T09:45:48Z</time>
      </trkpt>
      <trkpt lat="45.79172" lon="1.13634">
        <ele>243</ele>
        <time>2022-04-03T09:45:49Z</time>
      </trkpt>
      <trkpt lat="45.7917" lon="1.13633">
        <ele>243</ele>
        <time>2022-04-03T09:45:50Z</time>
      </trkpt>
      <trkpt lat="45.79167" lon="1.13632">
        <ele>243.2</ele>
        <time>2022-04-03T09:45:51Z</time>
      </trkpt>
      <trkpt lat="45.79165" lon="1.13631">
        <ele>243.2</ele>
        <time>2022-04-03T09:45:52Z</time>
      </trkpt>
      <trkpt lat="45.79163" lon="1.1363">
        <ele>243.4</ele>
        <time>2022-04-03T09:45:53Z</time>
      </trkpt>
      <trkpt lat="45.7916" lon="1.13629">
        <ele>243.4</ele>
        <time>2022-04-03T09:45:54Z</time>
      </trkpt>
      <trkpt lat="45.79158" lon="1.13628">
        <ele>243.6</ele>
        <time>2022-04-03T09:45:55Z</time>
      </trkpt>
      <trkpt lat="45.79156" lon="1.13627">
        <ele>243.6</ele>
        <time>2022-04-03T09:45:56Z</time>
      </trkpt>
      <trkpt lat="45.79153" lon="1.13626">
        <ele>243.8</ele>
        <time>2022-04-03T09:45:57Z</time>
      </trkpt>
      <trkpt lat="45.79151" lon="1.13625">
        <ele>244</ele>
        <time>2022-04-03T09:45:58Z</time>
      </trkpt>
      <trkpt lat="45.79149" lon="1.13624">
        <ele>244</ele>
        <time>2022-04-03T09:45:59Z</time>
      </trkpt>
      <trkpt lat="45.79146" lon="1.13622">
        <ele>244.2</ele>
        <time>2022-04-03T09:46:00Z</time>
      </trkpt>
      <trkpt lat="45.79144" lon="1.13621">
        <ele>244.2</ele>
        <time>2022-04-03T09:46:01Z</time>
      </trkpt>
      <trkpt lat="45.79141" lon="1.13619">
        <ele>244.2</ele>
        <time>2022-04-03T09:46:02Z</time>
      </trkpt>
      <trkpt lat="45.79139" lon="1.13617">
        <ele>244.2</ele>
        <time>2022-04-03T09:46:03Z</time>
      </trkpt>
      <trkpt lat="45.79136" lon="1.13615">
        <ele>244.4</ele>
        <time>2022-04-03T09:46:04Z</time>
      </trkpt>
      <trkpt lat="45.79133" lon="1.13613">
        <ele>244.4</ele>
        <time>2022-04-03T09:46:05Z</time>
      </trkpt>
      <trkpt lat="45.7913" lon="1.13611">
        <ele>244.6</ele>
        <time>2022-04-03T09:46:06Z</time>
      </trkpt>
      <trkpt lat="45.79128" lon="1.13609">
        <ele>244.6</ele>
        <time>2022-04-03T09:46:07Z</time>
      </trkpt>
      <trkpt lat="45.79125" lon="1.13607">
        <ele>244.6</ele>
        <time>2022-04-03T09:46:08Z</time>
      </trkpt>
      <trkpt lat="45.79123" lon="1.13604">
        <ele>244.8</ele>
        <time>2022-04-03T09:46:09Z</time>
      </trkpt>
      <trkpt lat="45.7912" lon="1.13602">
        <ele>245</ele>
        <time>2022-04-03T09:46:10Z</time>
      </trkpt>
      <trkpt lat="45.79118" lon="1.13599">
        <ele>245</ele>
        <time>2022-04-03T09:46:11Z</time>
      </trkpt>
      <trkpt lat="45.79116" lon="1.13596">
        <ele>245.2</ele>
        <time>2022-04-03T09:46:12Z</time>
      </trkpt>
      <trkpt lat="45.79113" lon="1.13593">
        <ele>245.2</ele>
        <time>2022-04-03T09:46:13Z</time>
      </trkpt>
      <trkpt lat="45.79111" lon="1.1359">
        <ele>245.2</ele>
        <time>2022-04-03T09:46:14Z</time>
      </trkpt>
      <trkpt lat="45.79109" lon="1.13587">
        <ele>245.2</ele>
        <time>2022-04-03T09:46:15Z</time>
      </trkpt>
      <trkpt lat="45.79107" lon="1.13584">
        <ele>245.4</ele>
        <time>2022-04-03T09:46:16Z</time>
      </trkpt>
      <trkpt lat="45.79105" lon="1.13581">
        <ele>245.4</ele>
        <time>2022-04-03T09:46:17Z</time>
      </trkpt>
      <trkpt lat="45.79104" lon="1.13578">
        <ele>245.4</ele>
        <time>2022-04-03T09:46:18Z</time>
      </trkpt>
      <trkpt lat="45.79102" lon="1.13574">
        <ele>245.4</ele>
        <time>2022-04-03T09:46:19Z</time>
      </trkpt>
      <trkpt lat="45.79101" lon="1.13571">
        <ele>245.6</ele>
        <time>2022-04-03T09:46:20Z</time>
      </trkpt>
      <trkpt lat="45.79099" lon="1.13567">
        <ele>245.6</ele>
        <time>2022-04-03T09:46:21Z</time>
      </trkpt>
      <trkpt lat="45.79098" lon="1.13564">
        <ele>245.6</ele>
        <time>2022-04-03T09:46:22Z</time>
      </trkpt>
      <trkpt lat="45.79096" lon="1.1356">
        <ele>245.6</ele>
        <time>2022-04-03T09:46:23Z</time>
      </trkpt>
      <trkpt lat="45.79095" lon="1.13557">
        <ele>245.8</ele>
        <time>2022-04-03T09:46:24Z</time>
      </trkpt>
      <trkpt lat="45.79094" lon="1.13553">
        <ele>246</ele>
        <time>2022-04-03T09:46:25Z</time>
      </trkpt>
      <trkpt lat="45.79093" lon="1.13549">
        <ele>246.4</ele>
        <time>2022-04-03T09:46:26Z</time>
      </trkpt>
      <trkpt lat="45.79091" lon="1.13545">
        <ele>246.6</ele>
        <time>2022-04-03T09:46:27Z</time>
      </trkpt>
      <trkpt lat="45.7909" lon="1.13541">
        <ele>246.6</ele>
        <time>2022-04-03T09:46:28Z</time>
      </trkpt>
      <trkpt lat="45.79089" lon="1.13537">
        <ele>246.6</ele>
        <time>2022-04-03T09:46:29Z</time>
      </trkpt>
      <trkpt lat="45.79088" lon="1.13533">
        <ele>246.6</ele>
        <time>2022-04-03T09:46:30Z</time>
      </trkpt>
      <trkpt lat="45.79086" lon="1.13529">
        <ele>246.8</ele>
        <time>2022-04-03T09:46:31Z</time>
      </trkpt>
      <trkpt lat="45.79085" lon="1.13525">
        <ele>246.8</ele>
        <time>2022-04-03T09:46:32Z</time>
      </trkpt>
      <trkpt lat="45.79084" lon="1.1352">
        <ele>247</ele>
        <time>2022-04-03T09:46:33Z</time>
      </trkpt>
      <trkpt lat="45.79082" lon="1.13516">
        <ele>247</ele>
        <time>2022-04-03T09:46:34Z</time>
      </trkpt>
      <trkpt lat="45.79081" lon="1.13511">
        <ele>247</ele>
        <time>2022-04-03T09:46:35Z</time>
      </trkpt>
      <trkpt lat="45.79079" lon="1.13506">
        <ele>247.2</ele>
        <time>2022-04-03T09:46:36Z</time>
      </trkpt>
      <trkpt lat="45.79078" lon="1.13501">
        <ele>247</ele>
        <time>2022-04-03T09:46:37Z</time>
      </trkpt>
      <trkpt lat="45.79077" lon="1.13496">
        <ele>247</ele>
        <time>2022-04-03T09:46:38Z</time>
      </trkpt>
      <trkpt lat="45.79075" lon="1.13491">
        <ele>247.2</ele>
        <time>2022-04-03T09:46:39Z</time>
      </trkpt>
      <trkpt lat="45.79074" lon="1.13486">
        <ele>247</ele>
        <time>2022-04-03T09:46:40Z</time>
      </trkpt>
      <trkpt lat="45.79072" lon="1.1348">
        <ele>247</ele>
        <time>2022-04-03T09:46:41Z</time>
      </trkpt>
      <trkpt lat="45.7907" lon="1.13475">
        <ele>247</ele>
        <time>2022-04-03T09:46:42Z</time>
      </trkpt>
      <trkpt lat="45.79069" lon="1.13469">
        <ele>247</ele>
        <time>2022-04-03T09:46:43Z</time>
      </trkpt>
      <trkpt lat="45.79067" lon="1.13464">
        <ele>247.2</ele>
        <time>2022-04-03T09:46:44Z</time>
      </trkpt>
      <trkpt lat="45.79065" lon="1.13458">
        <ele>247.2</ele>
        <time>2022-04-03T09:46:45Z</time>
      </trkpt>
      <trkpt lat="45.79064" lon="1.13452">
        <ele>247.2</ele>
        <time>2022-04-03T09:46:46Z</time>
      </trkpt>
      <trkpt lat="45.79063" lon="1.13447">
        <ele>247</ele>
        <time>2022-04-03T09:46:47Z</time>
      </trkpt>
      <trkpt lat="45.79061" lon="1.13441">
        <ele>246.8</ele>
        <time>2022-04-03T09:46:48Z</time>
      </trkpt>
      <trkpt lat="45.79059" lon="1.13435">
        <ele>246.8</ele>
        <time>2022-04-03T09:46:49Z</time>
      </trkpt>
      <trkpt lat="45.79058" lon="1.13429">
        <ele>246.8</ele>
        <time>2022-04-03T09:46:50Z</time>
      </trkpt>
      <trkpt lat="45.79056" lon="1.13423">
        <ele>246.8</ele>
        <time>2022-04-03T09:46:51Z</time>
      </trkpt>
      <trkpt lat="45.79054" lon="1.13417">
        <ele>246.6</ele>
        <time>2022-04-03T09:46:52Z</time>
      </trkpt>
      <trkpt lat="45.79052" lon="1.13412">
        <ele>246.6</ele>
        <time>2022-04-03T09:46:53Z</time>
      </trkpt>
      <trkpt lat="45.7905" lon="1.13406">
        <ele>246.4</ele>
        <time>2022-04-03T09:46:54Z</time>
      </trkpt>
      <trkpt lat="45.79048" lon="1.13401">
        <ele>246.4</ele>
        <time>2022-04-03T09:46:55Z</time>
      </trkpt>
      <trkpt lat="45.79046" lon="1.13396">
        <ele>246.2</ele>
        <time>2022-04-03T09:46:56Z</time>
      </trkpt>
      <trkpt lat="45.79044" lon="1.13391">
        <ele>246.2</ele>
        <time>2022-04-03T09:46:57Z</time>
      </trkpt>
      <trkpt lat="45.79042" lon="1.13386">
        <ele>246.2</ele>
        <time>2022-04-03T09:46:58Z</time>
      </trkpt>
      <trkpt lat="45.7904" lon="1.13381">
        <ele>246.2</ele>
        <time>2022-04-03T09:46:59Z</time>
      </trkpt>
      <trkpt lat="45.79037" lon="1.13376">
        <ele>246.2</ele>
        <time>2022-04-03T09:47:00Z</time>
      </trkpt>
      <trkpt lat="45.79035" lon="1.13372">
        <ele>246</ele>
        <time>2022-04-03T09:47:01Z</time>
      </trkpt>
      <trkpt lat="45.79032" lon="1.13367">
        <ele>246</ele>
        <time>2022-04-03T09:47:02Z</time>
      </trkpt>
      <trkpt lat="45.79029" lon="1.13362">
        <ele>246</ele>
        <time>2022-04-03T09:47:03Z</time>
      </trkpt>
      <trkpt lat="45.79026" lon="1.13357">
        <ele>245.8</ele>
        <time>2022-04-03T09:47:04Z</time>
      </trkpt>
      <trkpt lat="45.79024" lon="1.13352">
        <ele>245.8</ele>
        <time>2022-04-03T09:47:05Z</time>
      </trkpt>
      <trkpt lat="45.79021" lon="1.13347">
        <ele>245.8</ele>
        <time>2022-04-03T09:47:06Z</time>
      </trkpt>
      <trkpt lat="45.79018" lon="1.13342">
        <ele>245.8</ele>
        <time>2022-04-03T09:47:07Z</time>
      </trkpt>
      <trkpt lat="45.79015" lon="1.13337">
        <ele>245.8</ele>
        <time>2022-04-03T09:47:08Z</time>
      </trkpt>
      <trkpt lat="45.79012" lon="1.13333">
        <ele>245.6</ele>
        <time>2022-04-03T09:47:09Z</time>
      </trkpt>
      <trkpt lat="45.79009" lon="1.13328">
        <ele>245.8</ele>
        <time>2022-04-03T09:47:10Z</time>
      </trkpt>
      <trkpt lat="45.79006" lon="1.13323">
        <ele>245.8</ele>
        <time>2022-04-03T09:47:11Z</time>
      </trkpt>
      <trkpt lat="45.79004" lon="1.13319">
        <ele>245.8</ele>
        <time>2022-04-03T09:47:12Z</time>
      </trkpt>
      <trkpt lat="45.79001" lon="1.13314">
        <ele>245.8</ele>
        <time>2022-04-03T09:47:13Z</time>
      </trkpt>
      <trkpt lat="45.78999" lon="1.13309">
        <ele>245.8</ele>
        <time>2022-04-03T09:47:14Z</time>
      </trkpt>
      <trkpt lat="45.78996" lon="1.13305">
        <ele>245.8</ele>
        <time>2022-04-03T09:47:15Z</time>
      </trkpt>
      <trkpt lat="45.78993" lon="1.133">
        <ele>245.8</ele>
        <time>2022-04-03T09:47:16Z</time>
      </trkpt>
      <trkpt lat="45.78991" lon="1.13296">
        <ele>245.8</ele>
        <time>2022-04-03T09:47:17Z</time>
      </trkpt>
      <trkpt lat="45.78989" lon="1.13292">
        <ele>245.8</ele>
        <time>2022-04-03T09:47:18Z</time>
      </trkpt>
      <trkpt lat="45.78986" lon="1.13288">
        <ele>245.8</ele>
        <time>2022-04-03T09:47:19Z</time>
      </trkpt>
      <trkpt lat="45.78984" lon="1.13284">
        <ele>245.8</ele>
        <time>2022-04-03T09:47:20Z</time>
      </trkpt>
      <trkpt lat="45.78982" lon="1.13281">
        <ele>246</ele>
        <time>2022-04-03T09:47:21Z</time>
      </trkpt>
      <trkpt lat="45.7898" lon="1.13277">
        <ele>246</ele>
        <time>2022-04-03T09:47:22Z</time>
      </trkpt>
      <trkpt lat="45.78978" lon="1.13273">
        <ele>246</ele>
        <time>2022-04-03T09:47:23Z</time>
      </trkpt>
      <trkpt lat="45.78975" lon="1.1327">
        <ele>246</ele>
        <time>2022-04-03T09:47:24Z</time>
      </trkpt>
      <trkpt lat="45.78973" lon="1.13267">
        <ele>246</ele>
        <time>2022-04-03T09:47:25Z</time>
      </trkpt>
      <trkpt lat="45.78971" lon="1.13263">
        <ele>246</ele>
        <time>2022-04-03T09:47:26Z</time>
      </trkpt>
      <trkpt lat="45.7897" lon="1.1326">
        <ele>246</ele>
        <time>2022-04-03T09:47:27Z</time>
      </trkpt>
      <trkpt lat="45.78968" lon="1.13257">
        <ele>246.4</ele>
        <time>2022-04-03T09:47:28Z</time>
      </trkpt>
      <trkpt lat="45.78966" lon="1.13254">
        <ele>246.8</ele>
        <time>2022-04-03T09:47:29Z</time>
      </trkpt>
      <trkpt lat="45.78964" lon="1.13251">
        <ele>247</ele>
        <time>2022-04-03T09:47:30Z</time>
      </trkpt>
      <trkpt lat="45.78963" lon="1.13248">
        <ele>247.2</ele>
        <time>2022-04-03T09:47:31Z</time>
      </trkpt>
      <trkpt lat="45.78961" lon="1.13245">
        <ele>247.2</ele>
        <time>2022-04-03T09:47:32Z</time>
      </trkpt>
      <trkpt lat="45.78959" lon="1.13242">
        <ele>247.6</ele>
        <time>2022-04-03T09:47:33Z</time>
      </trkpt>
      <trkpt lat="45.78958" lon="1.1324">
        <ele>247.8</ele>
        <time>2022-04-03T09:47:34Z</time>
      </trkpt>
      <trkpt lat="45.78956" lon="1.13237">
        <ele>248.2</ele>
        <time>2022-04-03T09:47:35Z</time>
      </trkpt>
      <trkpt lat="45.78954" lon="1.13234">
        <ele>248.4</ele>
        <time>2022-04-03T09:47:36Z</time>
      </trkpt>
      <trkpt lat="45.78953" lon="1.13231">
        <ele>248.4</ele>
        <time>2022-04-03T09:47:37Z</time>
      </trkpt>
      <trkpt lat="45.78951" lon="1.13228">
        <ele>248.6</ele>
        <time>2022-04-03T09:47:38Z</time>
      </trkpt>
      <trkpt lat="45.78949" lon="1.13225">
        <ele>248.8</ele>
        <time>2022-04-03T09:47:39Z</time>
      </trkpt>
      <trkpt lat="45.78948" lon="1.13222">
        <ele>249</ele>
        <time>2022-04-03T09:47:40Z</time>
      </trkpt>
      <trkpt lat="45.78946" lon="1.13219">
        <ele>249.2</ele>
        <time>2022-04-03T09:47:41Z</time>
      </trkpt>
      <trkpt lat="45.78945" lon="1.13217">
        <ele>249.4</ele>
        <time>2022-04-03T09:47:42Z</time>
      </trkpt>
      <trkpt lat="45.78943" lon="1.13214">
        <ele>249.6</ele>
        <time>2022-04-03T09:47:43Z</time>
      </trkpt>
      <trkpt lat="45.78941" lon="1.13211">
        <ele>249.8</ele>
        <time>2022-04-03T09:47:44Z</time>
      </trkpt>
      <trkpt lat="45.78939" lon="1.13208">
        <ele>249.8</ele>
        <time>2022-04-03T09:47:45Z</time>
      </trkpt>
      <trkpt lat="45.78938" lon="1.13205">
        <ele>249.8</ele>
        <time>2022-04-03T09:47:46Z</time>
      </trkpt>
      <trkpt lat="45.78936" lon="1.13202">
        <ele>250</ele>
        <time>2022-04-03T09:47:47Z</time>
      </trkpt>
      <trkpt lat="45.78934" lon="1.132">
        <ele>250</ele>
        <time>2022-04-03T09:47:48Z</time>
      </trkpt>
      <trkpt lat="45.78932" lon="1.13197">
        <ele>250.2</ele>
        <time>2022-04-03T09:47:49Z</time>
      </trkpt>
      <trkpt lat="45.78931" lon="1.13194">
        <ele>250.4</ele>
        <time>2022-04-03T09:47:50Z</time>
      </trkpt>
      <trkpt lat="45.78929" lon="1.13191">
        <ele>250.6</ele>
        <time>2022-04-03T09:47:51Z</time>
      </trkpt>
      <trkpt lat="45.78927" lon="1.13188">
        <ele>250.6</ele>
        <time>2022-04-03T09:47:52Z</time>
      </trkpt>
      <trkpt lat="45.78926" lon="1.13185">
        <ele>250.8</ele>
        <time>2022-04-03T09:47:53Z</time>
      </trkpt>
      <trkpt lat="45.78924" lon="1.13183">
        <ele>250.8</ele>
        <time>2022-04-03T09:47:54Z</time>
      </trkpt>
      <trkpt lat="45.78922" lon="1.1318">
        <ele>250.6</ele>
        <time>2022-04-03T09:47:55Z</time>
      </trkpt>
      <trkpt lat="45.78921" lon="1.13177">
        <ele>250.8</ele>
        <time>2022-04-03T09:47:56Z</time>
      </trkpt>
      <trkpt lat="45.78919" lon="1.13174">
        <ele>251</ele>
        <time>2022-04-03T09:47:57Z</time>
      </trkpt>
      <trkpt lat="45.78917" lon="1.13171">
        <ele>251</ele>
        <time>2022-04-03T09:47:58Z</time>
      </trkpt>
      <trkpt lat="45.78915" lon="1.13169">
        <ele>251.4</ele>
        <time>2022-04-03T09:47:59Z</time>
      </trkpt>
      <trkpt lat="45.78914" lon="1.13166">
        <ele>251.2</ele>
        <time>2022-04-03T09:48:00Z</time>
      </trkpt>
      <trkpt lat="45.78912" lon="1.13163">
        <ele>251.6</ele>
        <time>2022-04-03T09:48:01Z</time>
      </trkpt>
      <trkpt lat="45.7891" lon="1.1316">
        <ele>251.8</ele>
        <time>2022-04-03T09:48:02Z</time>
      </trkpt>
      <trkpt lat="45.78909" lon="1.13157">
        <ele>251.8</ele>
        <time>2022-04-03T09:48:03Z</time>
      </trkpt>
      <trkpt lat="45.78907" lon="1.13154">
        <ele>252</ele>
        <time>2022-04-03T09:48:04Z</time>
      </trkpt>
      <trkpt lat="45.78905" lon="1.13151">
        <ele>252.2</ele>
        <time>2022-04-03T09:48:05Z</time>
      </trkpt>
      <trkpt lat="45.78904" lon="1.13149">
        <ele>252.4</ele>
        <time>2022-04-03T09:48:06Z</time>
      </trkpt>
      <trkpt lat="45.78902" lon="1.13146">
        <ele>252.6</ele>
        <time>2022-04-03T09:48:07Z</time>
      </trkpt>
      <trkpt lat="45.78901" lon="1.13143">
        <ele>252.6</ele>
        <time>2022-04-03T09:48:08Z</time>
      </trkpt>
      <trkpt lat="45.78899" lon="1.13141">
        <ele>252.6</ele>
        <time>2022-04-03T09:48:09Z</time>
      </trkpt>
      <trkpt lat="45.78897" lon="1.13138">
        <ele>252.8</ele>
        <time>2022-04-03T09:48:10Z</time>
      </trkpt>
      <trkpt lat="45.78896" lon="1.13135">
        <ele>252.8</ele>
        <time>2022-04-03T09:48:11Z</time>
      </trkpt>
      <trkpt lat="45.78894" lon="1.13133">
        <ele>253</ele>
        <time>2022-04-03T09:48:12Z</time>
      </trkpt>
      <trkpt lat="45.78892" lon="1.1313">
        <ele>253</ele>
        <time>2022-04-03T09:48:13Z</time>
      </trkpt>
      <trkpt lat="45.78891" lon="1.13127">
        <ele>253</ele>
        <time>2022-04-03T09:48:14Z</time>
      </trkpt>
      <trkpt lat="45.78889" lon="1.13125">
        <ele>253</ele>
        <time>2022-04-03T09:48:15Z</time>
      </trkpt>
      <trkpt lat="45.78888" lon="1.13122">
        <ele>253.2</ele>
        <time>2022-04-03T09:48:16Z</time>
      </trkpt>
      <trkpt lat="45.78886" lon="1.13119">
        <ele>253.4</ele>
        <time>2022-04-03T09:48:17Z</time>
      </trkpt>
      <trkpt lat="45.78884" lon="1.13116">
        <ele>253.8</ele>
        <time>2022-04-03T09:48:18Z</time>
      </trkpt>
      <trkpt lat="45.78883" lon="1.13113">
        <ele>253.8</ele>
        <time>2022-04-03T09:48:19Z</time>
      </trkpt>
      <trkpt lat="45.78881" lon="1.13111">
        <ele>254</ele>
        <time>2022-04-03T09:48:20Z</time>
      </trkpt>
      <trkpt lat="45.78879" lon="1.13108">
        <ele>254.2</ele>
        <time>2022-04-03T09:48:21Z</time>
      </trkpt>
      <trkpt lat="45.78877" lon="1.13105">
        <ele>254.2</ele>
        <time>2022-04-03T09:48:22Z</time>
      </trkpt>
      <trkpt lat="45.78875" lon="1.13102">
        <ele>254.2</ele>
        <time>2022-04-03T09:48:23Z</time>
      </trkpt>
      <trkpt lat="45.78874" lon="1.13099">
        <ele>254.4</ele>
        <time>2022-04-03T09:48:24Z</time>
      </trkpt>
      <trkpt lat="45.78872" lon="1.13096">
        <ele>254.6</ele>
        <time>2022-04-03T09:48:25Z</time>
      </trkpt>
      <trkpt lat="45.7887" lon="1.13093">
        <ele>254.8</ele>
        <time>2022-04-03T09:48:26Z</time>
      </trkpt>
      <trkpt lat="45.78869" lon="1.1309">
        <ele>254.8</ele>
        <time>2022-04-03T09:48:27Z</time>
      </trkpt>
      <trkpt lat="45.78867" lon="1.13086">
        <ele>254.8</ele>
        <time>2022-04-03T09:48:28Z</time>
      </trkpt>
      <trkpt lat="45.78865" lon="1.13083">
        <ele>255</ele>
        <time>2022-04-03T09:48:29Z</time>
      </trkpt>
      <trkpt lat="45.78863" lon="1.1308">
        <ele>255</ele>
        <time>2022-04-03T09:48:30Z</time>
      </trkpt>
      <trkpt lat="45.78861" lon="1.13077">
        <ele>255.2</ele>
        <time>2022-04-03T09:48:31Z</time>
      </trkpt>
      <trkpt lat="45.78859" lon="1.13074">
        <ele>255.4</ele>
        <time>2022-04-03T09:48:32Z</time>
      </trkpt>
      <trkpt lat="45.78858" lon="1.13071">
        <ele>255.6</ele>
        <time>2022-04-03T09:48:33Z</time>
      </trkpt>
      <trkpt lat="45.78856" lon="1.13068">
        <ele>255.4</ele>
        <time>2022-04-03T09:48:34Z</time>
      </trkpt>
      <trkpt lat="45.78854" lon="1.13064">
        <ele>255.6</ele>
        <time>2022-04-03T09:48:35Z</time>
      </trkpt>
      <trkpt lat="45.78852" lon="1.13061">
        <ele>255.6</ele>
        <time>2022-04-03T09:48:36Z</time>
      </trkpt>
      <trkpt lat="45.7885" lon="1.13058">
        <ele>255.8</ele>
        <time>2022-04-03T09:48:37Z</time>
      </trkpt>
      <trkpt lat="45.78848" lon="1.13055">
        <ele>255.8</ele>
        <time>2022-04-03T09:48:38Z</time>
      </trkpt>
      <trkpt lat="45.78847" lon="1.13051">
        <ele>256</ele>
        <time>2022-04-03T09:48:39Z</time>
      </trkpt>
      <trkpt lat="45.78845" lon="1.13048">
        <ele>256.2</ele>
        <time>2022-04-03T09:48:40Z</time>
      </trkpt>
      <trkpt lat="45.78843" lon="1.13045">
        <ele>256.2</ele>
        <time>2022-04-03T09:48:41Z</time>
      </trkpt>
      <trkpt lat="45.78841" lon="1.13041">
        <ele>256.2</ele>
        <time>2022-04-03T09:48:42Z</time>
      </trkpt>
      <trkpt lat="45.78839" lon="1.13038">
        <ele>256.4</ele>
        <time>2022-04-03T09:48:43Z</time>
      </trkpt>
      <trkpt lat="45.78837" lon="1.13035">
        <ele>256.4</ele>
        <time>2022-04-03T09:48:44Z</time>
      </trkpt>
      <trkpt lat="45.78835" lon="1.13032">
        <ele>256.6</ele>
        <time>2022-04-03T09:48:45Z</time>
      </trkpt>
      <trkpt lat="45.78833" lon="1.13029">
        <ele>256.6</ele>
        <time>2022-04-03T09:48:46Z</time>
      </trkpt>
      <trkpt lat="45.78831" lon="1.13026">
        <ele>256.6</ele>
        <time>2022-04-03T09:48:47Z</time>
      </trkpt>
      <trkpt lat="45.78829" lon="1.13023">
        <ele>256.8</ele>
        <time>2022-04-03T09:48:48Z</time>
      </trkpt>
      <trkpt lat="45.78827" lon="1.13019">
        <ele>256.8</ele>
        <time>2022-04-03T09:48:49Z</time>
      </trkpt>
      <trkpt lat="45.78825" lon="1.13016">
        <ele>256.8</ele>
        <time>2022-04-03T09:48:50Z</time>
      </trkpt>
      <trkpt lat="45.78823" lon="1.13012">
        <ele>257</ele>
        <time>2022-04-03T09:48:51Z</time>
      </trkpt>
      <trkpt lat="45.78821" lon="1.13009">
        <ele>257.2</ele>
        <time>2022-04-03T09:48:52Z</time>
      </trkpt>
      <trkpt lat="45.78819" lon="1.13005">
        <ele>257</ele>
        <time>2022-04-03T09:48:53Z</time>
      </trkpt>
      <trkpt lat="45.78817" lon="1.13002">
        <ele>257.2</ele>
        <time>2022-04-03T09:48:54Z</time>
      </trkpt>
      <trkpt lat="45.78815" lon="1.12998">
        <ele>257.4</ele>
        <time>2022-04-03T09:48:55Z</time>
      </trkpt>
      <trkpt lat="45.78813" lon="1.12995">
        <ele>257.4</ele>
        <time>2022-04-03T09:48:56Z</time>
      </trkpt>
      <trkpt lat="45.78811" lon="1.12991">
        <ele>257.4</ele>
        <time>2022-04-03T09:48:57Z</time>
      </trkpt>
      <trkpt lat="45.78809" lon="1.12987">
        <ele>257.4</ele>
        <time>2022-04-03T09:48:58Z</time>
      </trkpt>
      <trkpt lat="45.78806" lon="1.12984">
        <ele>257.4</ele>
        <time>2022-04-03T09:48:59Z</time>
      </trkpt>
      <trkpt lat="45.78804" lon="1.1298">
        <ele>257.4</ele>
        <time>2022-04-03T09:49:00Z</time>
      </trkpt>
      <trkpt lat="45.78802" lon="1.12976">
        <ele>257.4</ele>
        <time>2022-04-03T09:49:01Z</time>
      </trkpt>
      <trkpt lat="45.788" lon="1.12973">
        <ele>257.4</ele>
        <time>2022-04-03T09:49:02Z</time>
      </trkpt>
      <trkpt lat="45.78798" lon="1.12969">
        <ele>257.6</ele>
        <time>2022-04-03T09:49:03Z</time>
      </trkpt>
      <trkpt lat="45.78796" lon="1.12966">
        <ele>257.4</ele>
        <time>2022-04-03T09:49:04Z</time>
      </trkpt>
      <trkpt lat="45.78794" lon="1.12962">
        <ele>257.4</ele>
        <time>2022-04-03T09:49:05Z</time>
      </trkpt>
      <trkpt lat="45.78791" lon="1.12958">
        <ele>257.6</ele>
        <time>2022-04-03T09:49:06Z</time>
      </trkpt>
      <trkpt lat="45.78789" lon="1.12954">
        <ele>257.8</ele>
        <time>2022-04-03T09:49:07Z</time>
      </trkpt>
      <trkpt lat="45.78787" lon="1.1295">
        <ele>257.6</ele>
        <time>2022-04-03T09:49:08Z</time>
      </trkpt>
      <trkpt lat="45.78785" lon="1.12947">
        <ele>257.8</ele>
        <time>2022-04-03T09:49:09Z</time>
      </trkpt>
      <trkpt lat="45.78782" lon="1.12943">
        <ele>258</ele>
        <time>2022-04-03T09:49:10Z</time>
      </trkpt>
      <trkpt lat="45.7878" lon="1.12939">
        <ele>257.8</ele>
        <time>2022-04-03T09:49:11Z</time>
      </trkpt>
      <trkpt lat="45.78778" lon="1.12935">
        <ele>258</ele>
        <time>2022-04-03T09:49:12Z</time>
      </trkpt>
      <trkpt lat="45.78775" lon="1.12932">
        <ele>257.8</ele>
        <time>2022-04-03T09:49:13Z</time>
      </trkpt>
      <trkpt lat="45.78773" lon="1.12928">
        <ele>258</ele>
        <time>2022-04-03T09:49:14Z</time>
      </trkpt>
      <trkpt lat="45.78771" lon="1.12924">
        <ele>258</ele>
        <time>2022-04-03T09:49:15Z</time>
      </trkpt>
      <trkpt lat="45.78769" lon="1.1292">
        <ele>258</ele>
        <time>2022-04-03T09:49:16Z</time>
      </trkpt>
      <trkpt lat="45.78766" lon="1.12917">
        <ele>258</ele>
        <time>2022-04-03T09:49:17Z</time>
      </trkpt>
      <trkpt lat="45.78764" lon="1.12913">
        <ele>258</ele>
        <time>2022-04-03T09:49:18Z</time>
      </trkpt>
      <trkpt lat="45.78761" lon="1.12909">
        <ele>258.2</ele>
        <time>2022-04-03T09:49:19Z</time>
      </trkpt>
      <trkpt lat="45.78759" lon="1.12906">
        <ele>258.2</ele>
        <time>2022-04-03T09:49:20Z</time>
      </trkpt>
      <trkpt lat="45.78757" lon="1.12902">
        <ele>258.2</ele>
        <time>2022-04-03T09:49:21Z</time>
      </trkpt>
      <trkpt lat="45.78754" lon="1.12897">
        <ele>258.2</ele>
        <time>2022-04-03T09:49:22Z</time>
      </trkpt>
      <trkpt lat="45.78752" lon="1.12894">
        <ele>258.2</ele>
        <time>2022-04-03T09:49:23Z</time>
      </trkpt>
      <trkpt lat="45.78749" lon="1.1289">
        <ele>258.4</ele>
        <time>2022-04-03T09:49:24Z</time>
      </trkpt>
      <trkpt lat="45.78747" lon="1.12886">
        <ele>258.4</ele>
        <time>2022-04-03T09:49:25Z</time>
      </trkpt>
      <trkpt lat="45.78744" lon="1.12882">
        <ele>258.4</ele>
        <time>2022-04-03T09:49:26Z</time>
      </trkpt>
      <trkpt lat="45.78742" lon="1.12878">
        <ele>258.6</ele>
        <time>2022-04-03T09:49:27Z</time>
      </trkpt>
      <trkpt lat="45.7874" lon="1.12875">
        <ele>258.6</ele>
        <time>2022-04-03T09:49:28Z</time>
      </trkpt>
      <trkpt lat="45.78738" lon="1.12871">
        <ele>258.8</ele>
        <time>2022-04-03T09:49:29Z</time>
      </trkpt>
      <trkpt lat="45.78735" lon="1.12867">
        <ele>258.6</ele>
        <time>2022-04-03T09:49:30Z</time>
      </trkpt>
      <trkpt lat="45.78733" lon="1.12863">
        <ele>258.8</ele>
        <time>2022-04-03T09:49:31Z</time>
      </trkpt>
      <trkpt lat="45.78731" lon="1.12859">
        <ele>258.6</ele>
        <time>2022-04-03T09:49:32Z</time>
      </trkpt>
      <trkpt lat="45.78729" lon="1.12855">
        <ele>258.6</ele>
        <time>2022-04-03T09:49:33Z</time>
      </trkpt>
      <trkpt lat="45.78726" lon="1.12852">
        <ele>258.8</ele>
        <time>2022-04-03T09:49:34Z</time>
      </trkpt>
      <trkpt lat="45.78724" lon="1.12848">
        <ele>258.8</ele>
        <time>2022-04-03T09:49:35Z</time>
      </trkpt>
      <trkpt lat="45.78722" lon="1.12844">
        <ele>258.8</ele>
        <time>2022-04-03T09:49:36Z</time>
      </trkpt>
      <trkpt lat="45.7872" lon="1.1284">
        <ele>258.8</ele>
        <time>2022-04-03T09:49:37Z</time>
      </trkpt>
      <trkpt lat="45.78717" lon="1.12836">
        <ele>258.8</ele>
        <time>2022-04-03T09:49:38Z</time>
      </trkpt>
      <trkpt lat="45.78715" lon="1.12832">
        <ele>258.8</ele>
        <time>2022-04-03T09:49:39Z</time>
      </trkpt>
      <trkpt lat="45.78713" lon="1.12829">
        <ele>258.8</ele>
        <time>2022-04-03T09:49:40Z</time>
      </trkpt>
      <trkpt lat="45.78711" lon="1.12825">
        <ele>258.8</ele>
        <time>2022-04-03T09:49:41Z</time>
      </trkpt>
      <trkpt lat="45.78708" lon="1.12821">
        <ele>259</ele>
        <time>2022-04-03T09:49:42Z</time>
      </trkpt>
      <trkpt lat="45.78706" lon="1.12818">
        <ele>259</ele>
        <time>2022-04-03T09:49:43Z</time>
      </trkpt>
      <trkpt lat="45.78704" lon="1.12814">
        <ele>259</ele>
        <time>2022-04-03T09:49:44Z</time>
      </trkpt>
      <trkpt lat="45.78702" lon="1.1281">
        <ele>259.2</ele>
        <time>2022-04-03T09:49:45Z</time>
      </trkpt>
      <trkpt lat="45.78699" lon="1.12807">
        <ele>259.2</ele>
        <time>2022-04-03T09:49:46Z</time>
      </trkpt>
      <trkpt lat="45.78697" lon="1.12803">
        <ele>259.4</ele>
        <time>2022-04-03T09:49:47Z</time>
      </trkpt>
      <trkpt lat="45.78695" lon="1.12799">
        <ele>259.4</ele>
        <time>2022-04-03T09:49:48Z</time>
      </trkpt>
      <trkpt lat="45.78693" lon="1.12796">
        <ele>259.4</ele>
        <time>2022-04-03T09:49:49Z</time>
      </trkpt>
      <trkpt lat="45.78691" lon="1.12792">
        <ele>259.6</ele>
        <time>2022-04-03T09:49:50Z</time>
      </trkpt>
      <trkpt lat="45.78689" lon="1.12788">
        <ele>259.6</ele>
        <time>2022-04-03T09:49:51Z</time>
      </trkpt>
      <trkpt lat="45.78686" lon="1.12784">
        <ele>259.8</ele>
        <time>2022-04-03T09:49:52Z</time>
      </trkpt>
      <trkpt lat="45.78684" lon="1.12781">
        <ele>260</ele>
        <time>2022-04-03T09:49:53Z</time>
      </trkpt>
      <trkpt lat="45.78682" lon="1.12777">
        <ele>260</ele>
        <time>2022-04-03T09:49:54Z</time>
      </trkpt>
      <trkpt lat="45.7868" lon="1.12773">
        <ele>260.4</ele>
        <time>2022-04-03T09:49:55Z</time>
      </trkpt>
      <trkpt lat="45.78677" lon="1.12769">
        <ele>260.4</ele>
        <time>2022-04-03T09:49:56Z</time>
      </trkpt>
      <trkpt lat="45.78675" lon="1.12765">
        <ele>260.4</ele>
        <time>2022-04-03T09:49:57Z</time>
      </trkpt>
      <trkpt lat="45.78673" lon="1.12762">
        <ele>260.6</ele>
        <time>2022-04-03T09:49:58Z</time>
      </trkpt>
      <trkpt lat="45.78671" lon="1.12758">
        <ele>260.8</ele>
        <time>2022-04-03T09:49:59Z</time>
      </trkpt>
      <trkpt lat="45.78669" lon="1.12754">
        <ele>260.8</ele>
        <time>2022-04-03T09:50:00Z</time>
      </trkpt>
      <trkpt lat="45.78667" lon="1.12751">
        <ele>261</ele>
        <time>2022-04-03T09:50:01Z</time>
      </trkpt>
      <trkpt lat="45.78664" lon="1.12747">
        <ele>261.2</ele>
        <time>2022-04-03T09:50:02Z</time>
      </trkpt>
      <trkpt lat="45.78662" lon="1.12743">
        <ele>261.4</ele>
        <time>2022-04-03T09:50:03Z</time>
      </trkpt>
      <trkpt lat="45.7866" lon="1.1274">
        <ele>261.4</ele>
        <time>2022-04-03T09:50:04Z</time>
      </trkpt>
      <trkpt lat="45.78658" lon="1.12736">
        <ele>261.6</ele>
        <time>2022-04-03T09:50:05Z</time>
      </trkpt>
      <trkpt lat="45.78656" lon="1.12732">
        <ele>261.6</ele>
        <time>2022-04-03T09:50:06Z</time>
      </trkpt>
      <trkpt lat="45.78653" lon="1.12728">
        <ele>261.8</ele>
        <time>2022-04-03T09:50:07Z</time>
      </trkpt>
      <trkpt lat="45.78651" lon="1.12725">
        <ele>261.8</ele>
        <time>2022-04-03T09:50:08Z</time>
      </trkpt>
      <trkpt lat="45.78649" lon="1.12721">
        <ele>262</ele>
        <time>2022-04-03T09:50:09Z</time>
      </trkpt>
      <trkpt lat="45.78647" lon="1.12718">
        <ele>262.2</ele>
        <time>2022-04-03T09:50:10Z</time>
      </trkpt>
      <trkpt lat="45.78645" lon="1.12714">
        <ele>262.4</ele>
        <time>2022-04-03T09:50:11Z</time>
      </trkpt>
      <trkpt lat="45.78643" lon="1.1271">
        <ele>262.4</ele>
        <time>2022-04-03T09:50:12Z</time>
      </trkpt>
      <trkpt lat="45.78641" lon="1.12707">
        <ele>262.4</ele>
        <time>2022-04-03T09:50:13Z</time>
      </trkpt>
      <trkpt lat="45.78639" lon="1.12703">
        <ele>262.6</ele>
        <time>2022-04-03T09:50:14Z</time>
      </trkpt>
      <trkpt lat="45.78636" lon="1.12699">
        <ele>262.6</ele>
        <time>2022-04-03T09:50:15Z</time>
      </trkpt>
      <trkpt lat="45.78634" lon="1.12696">
        <ele>262.6</ele>
        <time>2022-04-03T09:50:16Z</time>
      </trkpt>
      <trkpt lat="45.78632" lon="1.12692">
        <ele>262.6</ele>
        <time>2022-04-03T09:50:17Z</time>
      </trkpt>
      <trkpt lat="45.7863" lon="1.12689">
        <ele>262.6</ele>
        <time>2022-04-03T09:50:18Z</time>
      </trkpt>
      <trkpt lat="45.78628" lon="1.12685">
        <ele>262.8</ele>
        <time>2022-04-03T09:50:19Z</time>
      </trkpt>
      <trkpt lat="45.78626" lon="1.12682">
        <ele>262.8</ele>
        <time>2022-04-03T09:50:20Z</time>
      </trkpt>
      <trkpt lat="45.78624" lon="1.12678">
        <ele>263</ele>
        <time>2022-04-03T09:50:21Z</time>
      </trkpt>
      <trkpt lat="45.78622" lon="1.12675">
        <ele>263.2</ele>
        <time>2022-04-03T09:50:22Z</time>
      </trkpt>
      <trkpt lat="45.7862" lon="1.12671">
        <ele>263.2</ele>
        <time>2022-04-03T09:50:23Z</time>
      </trkpt>
      <trkpt lat="45.78618" lon="1.12667">
        <ele>263.4</ele>
        <time>2022-04-03T09:50:24Z</time>
      </trkpt>
      <trkpt lat="45.78616" lon="1.12664">
        <ele>263.4</ele>
        <time>2022-04-03T09:50:25Z</time>
      </trkpt>
      <trkpt lat="45.78614" lon="1.1266">
        <ele>263.6</ele>
        <time>2022-04-03T09:50:26Z</time>
      </trkpt>
      <trkpt lat="45.78612" lon="1.12657">
        <ele>263.6</ele>
        <time>2022-04-03T09:50:27Z</time>
      </trkpt>
      <trkpt lat="45.7861" lon="1.12653">
        <ele>263.6</ele>
        <time>2022-04-03T09:50:28Z</time>
      </trkpt>
      <trkpt lat="45.78608" lon="1.1265">
        <ele>263.8</ele>
        <time>2022-04-03T09:50:29Z</time>
      </trkpt>
      <trkpt lat="45.78606" lon="1.12647">
        <ele>264</ele>
        <time>2022-04-03T09:50:30Z</time>
      </trkpt>
      <trkpt lat="45.78604" lon="1.12643">
        <ele>264.2</ele>
        <time>2022-04-03T09:50:31Z</time>
      </trkpt>
      <trkpt lat="45.78602" lon="1.1264">
        <ele>264.2</ele>
        <time>2022-04-03T09:50:32Z</time>
      </trkpt>
      <trkpt lat="45.786" lon="1.12637">
        <ele>264.4</ele>
        <time>2022-04-03T09:50:33Z</time>
      </trkpt>
      <trkpt lat="45.78598" lon="1.12633">
        <ele>264.4</ele>
        <time>2022-04-03T09:50:34Z</time>
      </trkpt>
      <trkpt lat="45.78596" lon="1.1263">
        <ele>264.2</ele>
        <time>2022-04-03T09:50:35Z</time>
      </trkpt>
      <trkpt lat="45.78594" lon="1.12627">
        <ele>264.4</ele>
        <time>2022-04-03T09:50:36Z</time>
      </trkpt>
      <trkpt lat="45.78592" lon="1.12623">
        <ele>264.4</ele>
        <time>2022-04-03T09:50:37Z</time>
      </trkpt>
      <trkpt lat="45.7859" lon="1.1262">
        <ele>264.6</ele>
        <time>2022-04-03T09:50:38Z</time>
      </trkpt>
      <trkpt lat="45.78588" lon="1.12617">
        <ele>264.6</ele>
        <time>2022-04-03T09:50:39Z</time>
      </trkpt>
      <trkpt lat="45.78586" lon="1.12614">
        <ele>264.6</ele>
        <time>2022-04-03T09:50:40Z</time>
      </trkpt>
      <trkpt lat="45.78584" lon="1.12611">
        <ele>264.6</ele>
        <time>2022-04-03T09:50:41Z</time>
      </trkpt>
      <trkpt lat="45.78582" lon="1.12608">
        <ele>264.8</ele>
        <time>2022-04-03T09:50:42Z</time>
      </trkpt>
      <trkpt lat="45.7858" lon="1.12604">
        <ele>264.8</ele>
        <time>2022-04-03T09:50:43Z</time>
      </trkpt>
      <trkpt lat="45.78579" lon="1.12601">
        <ele>265</ele>
        <time>2022-04-03T09:50:44Z</time>
      </trkpt>
      <trkpt lat="45.78577" lon="1.12599">
        <ele>265.2</ele>
        <time>2022-04-03T09:50:45Z</time>
      </trkpt>
      <trkpt lat="45.78575" lon="1.12596">
        <ele>265.4</ele>
        <time>2022-04-03T09:50:46Z</time>
      </trkpt>
      <trkpt lat="45.78573" lon="1.12592">
        <ele>265.6</ele>
        <time>2022-04-03T09:50:47Z</time>
      </trkpt>
      <trkpt lat="45.78571" lon="1.12589">
        <ele>265.8</ele>
        <time>2022-04-03T09:50:48Z</time>
      </trkpt>
      <trkpt lat="45.7857" lon="1.12587">
        <ele>266</ele>
        <time>2022-04-03T09:50:49Z</time>
      </trkpt>
      <trkpt lat="45.78568" lon="1.12584">
        <ele>266.2</ele>
        <time>2022-04-03T09:50:50Z</time>
      </trkpt>
      <trkpt lat="45.78566" lon="1.12581">
        <ele>266.4</ele>
        <time>2022-04-03T09:50:51Z</time>
      </trkpt>
      <trkpt lat="45.78564" lon="1.12578">
        <ele>266.4</ele>
        <time>2022-04-03T09:50:52Z</time>
      </trkpt>
      <trkpt lat="45.78563" lon="1.12575">
        <ele>266.6</ele>
        <time>2022-04-03T09:50:53Z</time>
      </trkpt>
      <trkpt lat="45.78561" lon="1.12572">
        <ele>266.6</ele>
        <time>2022-04-03T09:50:54Z</time>
      </trkpt>
      <trkpt lat="45.78559" lon="1.12569">
        <ele>266.6</ele>
        <time>2022-04-03T09:50:55Z</time>
      </trkpt>
      <trkpt lat="45.78557" lon="1.12567">
        <ele>266.8</ele>
        <time>2022-04-03T09:50:56Z</time>
      </trkpt>
      <trkpt lat="45.78556" lon="1.12564">
        <ele>267</ele>
        <time>2022-04-03T09:50:57Z</time>
      </trkpt>
      <trkpt lat="45.78554" lon="1.12562">
        <ele>267</ele>
        <time>2022-04-03T09:50:58Z</time>
      </trkpt>
      <trkpt lat="45.78553" lon="1.12559">
        <ele>267.4</ele>
        <time>2022-04-03T09:50:59Z</time>
      </trkpt>
      <trkpt lat="45.78552" lon="1.12557">
        <ele>267.6</ele>
        <time>2022-04-03T09:51:00Z</time>
      </trkpt>
      <trkpt lat="45.7855" lon="1.12554">
        <ele>267.6</ele>
        <time>2022-04-03T09:51:01Z</time>
      </trkpt>
      <trkpt lat="45.78549" lon="1.12551">
        <ele>267.8</ele>
        <time>2022-04-03T09:51:02Z</time>
      </trkpt>
      <trkpt lat="45.78547" lon="1.12549">
        <ele>267.8</ele>
        <time>2022-04-03T09:51:03Z</time>
      </trkpt>
      <trkpt lat="45.78545" lon="1.12547">
        <ele>268</ele>
        <time>2022-04-03T09:51:04Z</time>
      </trkpt>
      <trkpt lat="45.78544" lon="1.12545">
        <ele>268</ele>
        <time>2022-04-03T09:51:05Z</time>
      </trkpt>
      <trkpt lat="45.78543" lon="1.12543">
        <ele>268.4</ele>
        <time>2022-04-03T09:51:06Z</time>
      </trkpt>
      <trkpt lat="45.78542" lon="1.1254">
        <ele>268.6</ele>
        <time>2022-04-03T09:51:07Z</time>
      </trkpt>
      <trkpt lat="45.7854" lon="1.12538">
        <ele>268.6</ele>
        <time>2022-04-03T09:51:08Z</time>
      </trkpt>
      <trkpt lat="45.78539" lon="1.12536">
        <ele>268.8</ele>
        <time>2022-04-03T09:51:09Z</time>
      </trkpt>
      <trkpt lat="45.78538" lon="1.12533">
        <ele>269</ele>
        <time>2022-04-03T09:51:10Z</time>
      </trkpt>
      <trkpt lat="45.78536" lon="1.12531">
        <ele>269</ele>
        <time>2022-04-03T09:51:11Z</time>
      </trkpt>
      <trkpt lat="45.78535" lon="1.12528">
        <ele>269.2</ele>
        <time>2022-04-03T09:51:12Z</time>
      </trkpt>
      <trkpt lat="45.78533" lon="1.12526">
        <ele>269.4</ele>
        <time>2022-04-03T09:51:13Z</time>
      </trkpt>
      <trkpt lat="45.78532" lon="1.12524">
        <ele>269.8</ele>
        <time>2022-04-03T09:51:14Z</time>
      </trkpt>
      <trkpt lat="45.78531" lon="1.12521">
        <ele>270.2</ele>
        <time>2022-04-03T09:51:15Z</time>
      </trkpt>
      <trkpt lat="45.7853" lon="1.12519">
        <ele>270.2</ele>
        <time>2022-04-03T09:51:16Z</time>
      </trkpt>
      <trkpt lat="45.78527" lon="1.12514">
        <ele>270.4</ele>
        <time>2022-04-03T09:51:17Z</time>
      </trkpt>
      <trkpt lat="45.78527" lon="1.12514">
        <ele>270.6</ele>
        <time>2022-04-03T09:51:18Z</time>
      </trkpt>
      <trkpt lat="45.78526" lon="1.12512">
        <ele>270.6</ele>
        <time>2022-04-03T09:51:19Z</time>
      </trkpt>
      <trkpt lat="45.78524" lon="1.1251">
        <ele>271</ele>
        <time>2022-04-03T09:51:20Z</time>
      </trkpt>
      <trkpt lat="45.78523" lon="1.12508">
        <ele>271</ele>
        <time>2022-04-03T09:51:21Z</time>
      </trkpt>
      <trkpt lat="45.78522" lon="1.12506">
        <ele>271.2</ele>
        <time>2022-04-03T09:51:22Z</time>
      </trkpt>
      <trkpt lat="45.7852" lon="1.12503">
        <ele>271.2</ele>
        <time>2022-04-03T09:51:23Z</time>
      </trkpt>
      <trkpt lat="45.78519" lon="1.12501">
        <ele>271.2</ele>
        <time>2022-04-03T09:51:24Z</time>
      </trkpt>
      <trkpt lat="45.78517" lon="1.12499">
        <ele>271.4</ele>
        <time>2022-04-03T09:51:25Z</time>
      </trkpt>
      <trkpt lat="45.78516" lon="1.12496">
        <ele>271.4</ele>
        <time>2022-04-03T09:51:26Z</time>
      </trkpt>
      <trkpt lat="45.78514" lon="1.12493">
        <ele>271.4</ele>
        <time>2022-04-03T09:51:27Z</time>
      </trkpt>
      <trkpt lat="45.78513" lon="1.12491">
        <ele>271.8</ele>
        <time>2022-04-03T09:51:28Z</time>
      </trkpt>
      <trkpt lat="45.78512" lon="1.12488">
        <ele>272</ele>
        <time>2022-04-03T09:51:29Z</time>
      </trkpt>
      <trkpt lat="45.78511" lon="1.12486">
        <ele>272.2</ele>
        <time>2022-04-03T09:51:30Z</time>
      </trkpt>
      <trkpt lat="45.78509" lon="1.12483">
        <ele>272.4</ele>
        <time>2022-04-03T09:51:31Z</time>
      </trkpt>
      <trkpt lat="45.78508" lon="1.1248">
        <ele>272.8</ele>
        <time>2022-04-03T09:51:32Z</time>
      </trkpt>
      <trkpt lat="45.78506" lon="1.12478">
        <ele>272.8</ele>
        <time>2022-04-03T09:51:33Z</time>
      </trkpt>
      <trkpt lat="45.78504" lon="1.12476">
        <ele>273</ele>
        <time>2022-04-03T09:51:34Z</time>
      </trkpt>
      <trkpt lat="45.78503" lon="1.12473">
        <ele>273.2</ele>
        <time>2022-04-03T09:51:35Z</time>
      </trkpt>
      <trkpt lat="45.78502" lon="1.12471">
        <ele>273.4</ele>
        <time>2022-04-03T09:51:36Z</time>
      </trkpt>
      <trkpt lat="45.78501" lon="1.12469">
        <ele>273.4</ele>
        <time>2022-04-03T09:51:37Z</time>
      </trkpt>
      <trkpt lat="45.785" lon="1.12466">
        <ele>273.8</ele>
        <time>2022-04-03T09:51:38Z</time>
      </trkpt>
      <trkpt lat="45.78499" lon="1.12464">
        <ele>273.8</ele>
        <time>2022-04-03T09:51:39Z</time>
      </trkpt>
      <trkpt lat="45.78498" lon="1.12461">
        <ele>274</ele>
        <time>2022-04-03T09:51:40Z</time>
      </trkpt>
      <trkpt lat="45.78497" lon="1.12458">
        <ele>274.2</ele>
        <time>2022-04-03T09:51:41Z</time>
      </trkpt>
      <trkpt lat="45.78496" lon="1.12456">
        <ele>274.2</ele>
        <time>2022-04-03T09:51:42Z</time>
      </trkpt>
      <trkpt lat="45.78495" lon="1.12453">
        <ele>274.2</ele>
        <time>2022-04-03T09:51:43Z</time>
      </trkpt>
      <trkpt lat="45.78494" lon="1.1245">
        <ele>274.4</ele>
        <time>2022-04-03T09:51:44Z</time>
      </trkpt>
      <trkpt lat="45.78493" lon="1.12448">
        <ele>274.8</ele>
        <time>2022-04-03T09:51:45Z</time>
      </trkpt>
      <trkpt lat="45.78492" lon="1.12445">
        <ele>275</ele>
        <time>2022-04-03T09:51:46Z</time>
      </trkpt>
      <trkpt lat="45.78491" lon="1.12443">
        <ele>275</ele>
        <time>2022-04-03T09:51:47Z</time>
      </trkpt>
      <trkpt lat="45.7849" lon="1.1244">
        <ele>275.2</ele>
        <time>2022-04-03T09:51:48Z</time>
      </trkpt>
      <trkpt lat="45.78489" lon="1.12438">
        <ele>275.2</ele>
        <time>2022-04-03T09:51:49Z</time>
      </trkpt>
      <trkpt lat="45.78488" lon="1.12435">
        <ele>275.4</ele>
        <time>2022-04-03T09:51:50Z</time>
      </trkpt>
      <trkpt lat="45.78487" lon="1.12432">
        <ele>275.8</ele>
        <time>2022-04-03T09:51:51Z</time>
      </trkpt>
      <trkpt lat="45.78486" lon="1.12429">
        <ele>275.8</ele>
        <time>2022-04-03T09:51:52Z</time>
      </trkpt>
      <trkpt lat="45.78485" lon="1.12426">
        <ele>276</ele>
        <time>2022-04-03T09:51:53Z</time>
      </trkpt>
      <trkpt lat="45.78484" lon="1.12424">
        <ele>276</ele>
        <time>2022-04-03T09:51:54Z</time>
      </trkpt>
      <trkpt lat="45.78483" lon="1.1242">
        <ele>276.2</ele>
        <time>2022-04-03T09:51:55Z</time>
      </trkpt>
      <trkpt lat="45.78482" lon="1.12417">
        <ele>276.4</ele>
        <time>2022-04-03T09:51:56Z</time>
      </trkpt>
      <trkpt lat="45.78482" lon="1.12414">
        <ele>276.6</ele>
        <time>2022-04-03T09:51:57Z</time>
      </trkpt>
      <trkpt lat="45.78481" lon="1.12411">
        <ele>276.8</ele>
        <time>2022-04-03T09:51:58Z</time>
      </trkpt>
      <trkpt lat="45.7848" lon="1.12408">
        <ele>277</ele>
        <time>2022-04-03T09:51:59Z</time>
      </trkpt>
      <trkpt lat="45.78479" lon="1.12405">
        <ele>277.2</ele>
        <time>2022-04-03T09:52:00Z</time>
      </trkpt>
      <trkpt lat="45.78477" lon="1.12402">
        <ele>277.2</ele>
        <time>2022-04-03T09:52:01Z</time>
      </trkpt>
      <trkpt lat="45.78476" lon="1.12398">
        <ele>277.2</ele>
        <time>2022-04-03T09:52:02Z</time>
      </trkpt>
      <trkpt lat="45.78475" lon="1.12395">
        <ele>277.4</ele>
        <time>2022-04-03T09:52:03Z</time>
      </trkpt>
      <trkpt lat="45.78474" lon="1.12392">
        <ele>277.4</ele>
        <time>2022-04-03T09:52:04Z</time>
      </trkpt>
      <trkpt lat="45.78472" lon="1.12389">
        <ele>277.6</ele>
        <time>2022-04-03T09:52:05Z</time>
      </trkpt>
      <trkpt lat="45.78471" lon="1.12386">
        <ele>277.6</ele>
        <time>2022-04-03T09:52:06Z</time>
      </trkpt>
      <trkpt lat="45.7847" lon="1.12382">
        <ele>277.8</ele>
        <time>2022-04-03T09:52:07Z</time>
      </trkpt>
      <trkpt lat="45.78469" lon="1.12379">
        <ele>277.8</ele>
        <time>2022-04-03T09:52:08Z</time>
      </trkpt>
      <trkpt lat="45.78468" lon="1.12376">
        <ele>278</ele>
        <time>2022-04-03T09:52:09Z</time>
      </trkpt>
      <trkpt lat="45.78467" lon="1.12373">
        <ele>278.2</ele>
        <time>2022-04-03T09:52:10Z</time>
      </trkpt>
      <trkpt lat="45.78466" lon="1.1237">
        <ele>278.4</ele>
        <time>2022-04-03T09:52:11Z</time>
      </trkpt>
      <trkpt lat="45.78465" lon="1.12367">
        <ele>278.6</ele>
        <time>2022-04-03T09:52:12Z</time>
      </trkpt>
      <trkpt lat="45.78464" lon="1.12364">
        <ele>278.8</ele>
        <time>2022-04-03T09:52:13Z</time>
      </trkpt>
      <trkpt lat="45.78463" lon="1.1236">
        <ele>279</ele>
        <time>2022-04-03T09:52:14Z</time>
      </trkpt>
      <trkpt lat="45.78462" lon="1.12357">
        <ele>279</ele>
        <time>2022-04-03T09:52:15Z</time>
      </trkpt>
      <trkpt lat="45.78461" lon="1.12354">
        <ele>279.2</ele>
        <time>2022-04-03T09:52:16Z</time>
      </trkpt>
      <trkpt lat="45.7846" lon="1.12351">
        <ele>279.2</ele>
        <time>2022-04-03T09:52:17Z</time>
      </trkpt>
      <trkpt lat="45.78459" lon="1.12348">
        <ele>279.8</ele>
        <time>2022-04-03T09:52:18Z</time>
      </trkpt>
      <trkpt lat="45.78458" lon="1.12345">
        <ele>279.8</ele>
        <time>2022-04-03T09:52:19Z</time>
      </trkpt>
      <trkpt lat="45.78458" lon="1.12342">
        <ele>279.8</ele>
        <time>2022-04-03T09:52:20Z</time>
      </trkpt>
      <trkpt lat="45.78457" lon="1.12339">
        <ele>280</ele>
        <time>2022-04-03T09:52:21Z</time>
      </trkpt>
      <trkpt lat="45.78456" lon="1.12336">
        <ele>280.2</ele>
        <time>2022-04-03T09:52:22Z</time>
      </trkpt>
      <trkpt lat="45.78455" lon="1.12333">
        <ele>280.2</ele>
        <time>2022-04-03T09:52:23Z</time>
      </trkpt>
      <trkpt lat="45.78453" lon="1.12329">
        <ele>280.4</ele>
        <time>2022-04-03T09:52:24Z</time>
      </trkpt>
      <trkpt lat="45.78452" lon="1.12326">
        <ele>280.6</ele>
        <time>2022-04-03T09:52:25Z</time>
      </trkpt>
      <trkpt lat="45.78451" lon="1.12323">
        <ele>280.8</ele>
        <time>2022-04-03T09:52:26Z</time>
      </trkpt>
      <trkpt lat="45.7845" lon="1.1232">
        <ele>280.6</ele>
        <time>2022-04-03T09:52:27Z</time>
      </trkpt>
      <trkpt lat="45.78449" lon="1.12317">
        <ele>281</ele>
        <time>2022-04-03T09:52:28Z</time>
      </trkpt>
      <trkpt lat="45.78448" lon="1.12314">
        <ele>281</ele>
        <time>2022-04-03T09:52:29Z</time>
      </trkpt>
      <trkpt lat="45.78447" lon="1.12311">
        <ele>281.2</ele>
        <time>2022-04-03T09:52:30Z</time>
      </trkpt>
      <trkpt lat="45.78446" lon="1.12308">
        <ele>281.4</ele>
        <time>2022-04-03T09:52:31Z</time>
      </trkpt>
      <trkpt lat="45.78445" lon="1.12305">
        <ele>281.6</ele>
        <time>2022-04-03T09:52:32Z</time>
      </trkpt>
      <trkpt lat="45.78444" lon="1.12301">
        <ele>281.6</ele>
        <time>2022-04-03T09:52:33Z</time>
      </trkpt>
      <trkpt lat="45.78443" lon="1.12298">
        <ele>282</ele>
        <time>2022-04-03T09:52:34Z</time>
      </trkpt>
      <trkpt lat="45.78442" lon="1.12295">
        <ele>282.2</ele>
        <time>2022-04-03T09:52:35Z</time>
      </trkpt>
      <trkpt lat="45.78441" lon="1.12292">
        <ele>282.4</ele>
        <time>2022-04-03T09:52:36Z</time>
      </trkpt>
      <trkpt lat="45.7844" lon="1.12289">
        <ele>282.6</ele>
        <time>2022-04-03T09:52:37Z</time>
      </trkpt>
      <trkpt lat="45.78439" lon="1.12286">
        <ele>282.8</ele>
        <time>2022-04-03T09:52:38Z</time>
      </trkpt>
      <trkpt lat="45.78438" lon="1.12284">
        <ele>282.8</ele>
        <time>2022-04-03T09:52:39Z</time>
      </trkpt>
      <trkpt lat="45.78437" lon="1.12281">
        <ele>283</ele>
        <time>2022-04-03T09:52:40Z</time>
      </trkpt>
      <trkpt lat="45.78437" lon="1.12278">
        <ele>283.2</ele>
        <time>2022-04-03T09:52:41Z</time>
      </trkpt>
      <trkpt lat="45.78436" lon="1.12275">
        <ele>283.4</ele>
        <time>2022-04-03T09:52:42Z</time>
      </trkpt>
      <trkpt lat="45.78435" lon="1.12272">
        <ele>283.4</ele>
        <time>2022-04-03T09:52:43Z</time>
      </trkpt>
      <trkpt lat="45.78434" lon="1.12269">
        <ele>283.6</ele>
        <time>2022-04-03T09:52:44Z</time>
      </trkpt>
      <trkpt lat="45.78433" lon="1.12265">
        <ele>283.8</ele>
        <time>2022-04-03T09:52:45Z</time>
      </trkpt>
      <trkpt lat="45.78432" lon="1.12262">
        <ele>283.8</ele>
        <time>2022-04-03T09:52:46Z</time>
      </trkpt>
      <trkpt lat="45.78431" lon="1.12259">
        <ele>283.8</ele>
        <time>2022-04-03T09:52:47Z</time>
      </trkpt>
      <trkpt lat="45.7843" lon="1.12256">
        <ele>284.2</ele>
        <time>2022-04-03T09:52:48Z</time>
      </trkpt>
      <trkpt lat="45.78429" lon="1.12253">
        <ele>284.4</ele>
        <time>2022-04-03T09:52:49Z</time>
      </trkpt>
      <trkpt lat="45.78428" lon="1.12249">
        <ele>284.6</ele>
        <time>2022-04-03T09:52:50Z</time>
      </trkpt>
      <trkpt lat="45.78427" lon="1.12246">
        <ele>284.8</ele>
        <time>2022-04-03T09:52:51Z</time>
      </trkpt>
      <trkpt lat="45.78426" lon="1.12243">
        <ele>285</ele>
        <time>2022-04-03T09:52:52Z</time>
      </trkpt>
      <trkpt lat="45.78425" lon="1.1224">
        <ele>285</ele>
        <time>2022-04-03T09:52:53Z</time>
      </trkpt>
      <trkpt lat="45.78424" lon="1.12237">
        <ele>285.2</ele>
        <time>2022-04-03T09:52:54Z</time>
      </trkpt>
      <trkpt lat="45.78423" lon="1.12234">
        <ele>285</ele>
        <time>2022-04-03T09:52:55Z</time>
      </trkpt>
      <trkpt lat="45.78422" lon="1.12231">
        <ele>285.2</ele>
        <time>2022-04-03T09:52:56Z</time>
      </trkpt>
      <trkpt lat="45.78422" lon="1.12228">
        <ele>285.4</ele>
        <time>2022-04-03T09:52:57Z</time>
      </trkpt>
      <trkpt lat="45.78421" lon="1.12224">
        <ele>285.4</ele>
        <time>2022-04-03T09:52:58Z</time>
      </trkpt>
      <trkpt lat="45.7842" lon="1.12221">
        <ele>285.6</ele>
        <time>2022-04-03T09:52:59Z</time>
      </trkpt>
      <trkpt lat="45.78419" lon="1.12218">
        <ele>285.8</ele>
        <time>2022-04-03T09:53:00Z</time>
      </trkpt>
      <trkpt lat="45.78417" lon="1.12215">
        <ele>286</ele>
        <time>2022-04-03T09:53:01Z</time>
      </trkpt>
      <trkpt lat="45.78416" lon="1.12212">
        <ele>286.2</ele>
        <time>2022-04-03T09:53:02Z</time>
      </trkpt>
      <trkpt lat="45.78415" lon="1.12209">
        <ele>286.4</ele>
        <time>2022-04-03T09:53:03Z</time>
      </trkpt>
      <trkpt lat="45.78414" lon="1.12206">
        <ele>286.6</ele>
        <time>2022-04-03T09:53:04Z</time>
      </trkpt>
      <trkpt lat="45.78413" lon="1.12202">
        <ele>286.6</ele>
        <time>2022-04-03T09:53:05Z</time>
      </trkpt>
      <trkpt lat="45.78412" lon="1.12199">
        <ele>286.8</ele>
        <time>2022-04-03T09:53:06Z</time>
      </trkpt>
      <trkpt lat="45.78411" lon="1.12196">
        <ele>287</ele>
        <time>2022-04-03T09:53:07Z</time>
      </trkpt>
      <trkpt lat="45.7841" lon="1.12193">
        <ele>287</ele>
        <time>2022-04-03T09:53:08Z</time>
      </trkpt>
      <trkpt lat="45.78409" lon="1.12189">
        <ele>287.2</ele>
        <time>2022-04-03T09:53:09Z</time>
      </trkpt>
      <trkpt lat="45.78408" lon="1.12186">
        <ele>287.4</ele>
        <time>2022-04-03T09:53:10Z</time>
      </trkpt>
      <trkpt lat="45.78407" lon="1.12182">
        <ele>287.4</ele>
        <time>2022-04-03T09:53:11Z</time>
      </trkpt>
      <trkpt lat="45.78406" lon="1.12179">
        <ele>287.4</ele>
        <time>2022-04-03T09:53:12Z</time>
      </trkpt>
      <trkpt lat="45.78405" lon="1.12176">
        <ele>287.6</ele>
        <time>2022-04-03T09:53:13Z</time>
      </trkpt>
      <trkpt lat="45.78404" lon="1.12172">
        <ele>287.8</ele>
        <time>2022-04-03T09:53:14Z</time>
      </trkpt>
      <trkpt lat="45.78403" lon="1.12169">
        <ele>288</ele>
        <time>2022-04-03T09:53:15Z</time>
      </trkpt>
      <trkpt lat="45.78402" lon="1.12165">
        <ele>288.2</ele>
        <time>2022-04-03T09:53:16Z</time>
      </trkpt>
      <trkpt lat="45.78401" lon="1.12162">
        <ele>288.2</ele>
        <time>2022-04-03T09:53:17Z</time>
      </trkpt>
      <trkpt lat="45.78399" lon="1.12159">
        <ele>288.2</ele>
        <time>2022-04-03T09:53:18Z</time>
      </trkpt>
      <trkpt lat="45.78398" lon="1.12156">
        <ele>288.2</ele>
        <time>2022-04-03T09:53:19Z</time>
      </trkpt>
      <trkpt lat="45.78397" lon="1.12152">
        <ele>288.4</ele>
        <time>2022-04-03T09:53:20Z</time>
      </trkpt>
      <trkpt lat="45.78396" lon="1.12149">
        <ele>288.4</ele>
        <time>2022-04-03T09:53:21Z</time>
      </trkpt>
      <trkpt lat="45.78395" lon="1.12145">
        <ele>288.6</ele>
        <time>2022-04-03T09:53:22Z</time>
      </trkpt>
      <trkpt lat="45.78394" lon="1.12142">
        <ele>288.6</ele>
        <time>2022-04-03T09:53:23Z</time>
      </trkpt>
      <trkpt lat="45.78393" lon="1.12139">
        <ele>288.8</ele>
        <time>2022-04-03T09:53:24Z</time>
      </trkpt>
      <trkpt lat="45.78392" lon="1.12135">
        <ele>288.8</ele>
        <time>2022-04-03T09:53:25Z</time>
      </trkpt>
      <trkpt lat="45.78391" lon="1.12132">
        <ele>289</ele>
        <time>2022-04-03T09:53:26Z</time>
      </trkpt>
      <trkpt lat="45.7839" lon="1.12129">
        <ele>289.2</ele>
        <time>2022-04-03T09:53:27Z</time>
      </trkpt>
      <trkpt lat="45.78389" lon="1.12125">
        <ele>289.4</ele>
        <time>2022-04-03T09:53:28Z</time>
      </trkpt>
      <trkpt lat="45.78388" lon="1.12122">
        <ele>289.4</ele>
        <time>2022-04-03T09:53:29Z</time>
      </trkpt>
      <trkpt lat="45.78387" lon="1.12118">
        <ele>289.6</ele>
        <time>2022-04-03T09:53:30Z</time>
      </trkpt>
      <trkpt lat="45.78386" lon="1.12114">
        <ele>289.4</ele>
        <time>2022-04-03T09:53:31Z</time>
      </trkpt>
      <trkpt lat="45.78384" lon="1.12111">
        <ele>289.6</ele>
        <time>2022-04-03T09:53:32Z</time>
      </trkpt>
      <trkpt lat="45.78383" lon="1.12107">
        <ele>289.8</ele>
        <time>2022-04-03T09:53:33Z</time>
      </trkpt>
      <trkpt lat="45.78382" lon="1.12104">
        <ele>289.8</ele>
        <time>2022-04-03T09:53:34Z</time>
      </trkpt>
      <trkpt lat="45.78381" lon="1.121">
        <ele>290</ele>
        <time>2022-04-03T09:53:35Z</time>
      </trkpt>
      <trkpt lat="45.7838" lon="1.12096">
        <ele>290</ele>
        <time>2022-04-03T09:53:36Z</time>
      </trkpt>
      <trkpt lat="45.78379" lon="1.12093">
        <ele>290.2</ele>
        <time>2022-04-03T09:53:37Z</time>
      </trkpt>
      <trkpt lat="45.78377" lon="1.12089">
        <ele>290.2</ele>
        <time>2022-04-03T09:53:38Z</time>
      </trkpt>
      <trkpt lat="45.78376" lon="1.12085">
        <ele>290.2</ele>
        <time>2022-04-03T09:53:39Z</time>
      </trkpt>
      <trkpt lat="45.78375" lon="1.12082">
        <ele>290.4</ele>
        <time>2022-04-03T09:53:40Z</time>
      </trkpt>
      <trkpt lat="45.78374" lon="1.12078">
        <ele>290.6</ele>
        <time>2022-04-03T09:53:41Z</time>
      </trkpt>
      <trkpt lat="45.78372" lon="1.12074">
        <ele>291</ele>
        <time>2022-04-03T09:53:42Z</time>
      </trkpt>
      <trkpt lat="45.78371" lon="1.12071">
        <ele>291</ele>
        <time>2022-04-03T09:53:43Z</time>
      </trkpt>
      <trkpt lat="45.7837" lon="1.12067">
        <ele>291.2</ele>
        <time>2022-04-03T09:53:44Z</time>
      </trkpt>
      <trkpt lat="45.78369" lon="1.12063">
        <ele>291.2</ele>
        <time>2022-04-03T09:53:45Z</time>
      </trkpt>
      <trkpt lat="45.78368" lon="1.12059">
        <ele>291.4</ele>
        <time>2022-04-03T09:53:46Z</time>
      </trkpt>
      <trkpt lat="45.78366" lon="1.12056">
        <ele>291.2</ele>
        <time>2022-04-03T09:53:47Z</time>
      </trkpt>
      <trkpt lat="45.78365" lon="1.12052">
        <ele>291.2</ele>
        <time>2022-04-03T09:53:48Z</time>
      </trkpt>
      <trkpt lat="45.78363" lon="1.12048">
        <ele>291.4</ele>
        <time>2022-04-03T09:53:49Z</time>
      </trkpt>
      <trkpt lat="45.78362" lon="1.12045">
        <ele>291.6</ele>
        <time>2022-04-03T09:53:50Z</time>
      </trkpt>
      <trkpt lat="45.7836" lon="1.12041">
        <ele>291.6</ele>
        <time>2022-04-03T09:53:51Z</time>
      </trkpt>
      <trkpt lat="45.78358" lon="1.12037">
        <ele>291.8</ele>
        <time>2022-04-03T09:53:52Z</time>
      </trkpt>
      <trkpt lat="45.78357" lon="1.12034">
        <ele>291.8</ele>
        <time>2022-04-03T09:53:53Z</time>
      </trkpt>
      <trkpt lat="45.78355" lon="1.1203">
        <ele>292</ele>
        <time>2022-04-03T09:53:54Z</time>
      </trkpt>
      <trkpt lat="45.78353" lon="1.12027">
        <ele>292</ele>
        <time>2022-04-03T09:53:55Z</time>
      </trkpt>
      <trkpt lat="45.78351" lon="1.12024">
        <ele>292.2</ele>
        <time>2022-04-03T09:53:56Z</time>
      </trkpt>
      <trkpt lat="45.78348" lon="1.1202">
        <ele>292.4</ele>
        <time>2022-04-03T09:53:57Z</time>
      </trkpt>
      <trkpt lat="45.78346" lon="1.12017">
        <ele>292.6</ele>
        <time>2022-04-03T09:53:58Z</time>
      </trkpt>
      <trkpt lat="45.78344" lon="1.12014">
        <ele>292.6</ele>
        <time>2022-04-03T09:53:59Z</time>
      </trkpt>
      <trkpt lat="45.78342" lon="1.12011">
        <ele>292.8</ele>
        <time>2022-04-03T09:54:00Z</time>
      </trkpt>
      <trkpt lat="45.78339" lon="1.12008">
        <ele>292.8</ele>
        <time>2022-04-03T09:54:01Z</time>
      </trkpt>
      <trkpt lat="45.78337" lon="1.12005">
        <ele>292.8</ele>
        <time>2022-04-03T09:54:02Z</time>
      </trkpt>
      <trkpt lat="45.78335" lon="1.12002">
        <ele>293</ele>
        <time>2022-04-03T09:54:03Z</time>
      </trkpt>
      <trkpt lat="45.78332" lon="1.12">
        <ele>293</ele>
        <time>2022-04-03T09:54:04Z</time>
      </trkpt>
      <trkpt lat="45.7833" lon="1.11997">
        <ele>293.2</ele>
        <time>2022-04-03T09:54:05Z</time>
      </trkpt>
      <trkpt lat="45.78328" lon="1.11994">
        <ele>293.2</ele>
        <time>2022-04-03T09:54:06Z</time>
      </trkpt>
      <trkpt lat="45.78325" lon="1.11992">
        <ele>293.4</ele>
        <time>2022-04-03T09:54:07Z</time>
      </trkpt>
      <trkpt lat="45.78323" lon="1.11989">
        <ele>293.4</ele>
        <time>2022-04-03T09:54:08Z</time>
      </trkpt>
      <trkpt lat="45.7832" lon="1.11987">
        <ele>293.6</ele>
        <time>2022-04-03T09:54:09Z</time>
      </trkpt>
      <trkpt lat="45.78317" lon="1.11985">
        <ele>293.8</ele>
        <time>2022-04-03T09:54:10Z</time>
      </trkpt>
      <trkpt lat="45.78315" lon="1.11983">
        <ele>294</ele>
        <time>2022-04-03T09:54:11Z</time>
      </trkpt>
      <trkpt lat="45.78312" lon="1.11981">
        <ele>294.2</ele>
        <time>2022-04-03T09:54:12Z</time>
      </trkpt>
      <trkpt lat="45.78309" lon="1.11979">
        <ele>294.2</ele>
        <time>2022-04-03T09:54:13Z</time>
      </trkpt>
      <trkpt lat="45.78307" lon="1.11978">
        <ele>294.2</ele>
        <time>2022-04-03T09:54:14Z</time>
      </trkpt>
      <trkpt lat="45.78304" lon="1.11976">
        <ele>294.4</ele>
        <time>2022-04-03T09:54:15Z</time>
      </trkpt>
      <trkpt lat="45.78301" lon="1.11974">
        <ele>294.4</ele>
        <time>2022-04-03T09:54:16Z</time>
      </trkpt>
      <trkpt lat="45.78299" lon="1.11973">
        <ele>294.8</ele>
        <time>2022-04-03T09:54:17Z</time>
      </trkpt>
      <trkpt lat="45.78296" lon="1.11971">
        <ele>295</ele>
        <time>2022-04-03T09:54:18Z</time>
      </trkpt>
      <trkpt lat="45.78293" lon="1.1197">
        <ele>295.2</ele>
        <time>2022-04-03T09:54:19Z</time>
      </trkpt>
      <trkpt lat="45.7829" lon="1.11969">
        <ele>295.4</ele>
        <time>2022-04-03T09:54:20Z</time>
      </trkpt>
      <trkpt lat="45.78287" lon="1.11967">
        <ele>295.4</ele>
        <time>2022-04-03T09:54:21Z</time>
      </trkpt>
      <trkpt lat="45.78284" lon="1.11966">
        <ele>295.4</ele>
        <time>2022-04-03T09:54:22Z</time>
      </trkpt>
      <trkpt lat="45.78281" lon="1.11965">
        <ele>295.6</ele>
        <time>2022-04-03T09:54:23Z</time>
      </trkpt>
      <trkpt lat="45.78278" lon="1.11964">
        <ele>295.6</ele>
        <time>2022-04-03T09:54:24Z</time>
      </trkpt>
      <trkpt lat="45.78276" lon="1.11962">
        <ele>295.8</ele>
        <time>2022-04-03T09:54:25Z</time>
      </trkpt>
      <trkpt lat="45.78273" lon="1.11961">
        <ele>296.2</ele>
        <time>2022-04-03T09:54:26Z</time>
      </trkpt>
      <trkpt lat="45.7827" lon="1.1196">
        <ele>296.4</ele>
        <time>2022-04-03T09:54:27Z</time>
      </trkpt>
      <trkpt lat="45.78266" lon="1.11959">
        <ele>296.4</ele>
        <time>2022-04-03T09:54:28Z</time>
      </trkpt>
      <trkpt lat="45.78263" lon="1.11957">
        <ele>296.6</ele>
        <time>2022-04-03T09:54:29Z</time>
      </trkpt>
      <trkpt lat="45.7826" lon="1.11956">
        <ele>296.8</ele>
        <time>2022-04-03T09:54:30Z</time>
      </trkpt>
      <trkpt lat="45.78257" lon="1.11955">
        <ele>296.8</ele>
        <time>2022-04-03T09:54:31Z</time>
      </trkpt>
      <trkpt lat="45.78254" lon="1.11953">
        <ele>297</ele>
        <time>2022-04-03T09:54:32Z</time>
      </trkpt>
      <trkpt lat="45.7825" lon="1.11952">
        <ele>297</ele>
        <time>2022-04-03T09:54:33Z</time>
      </trkpt>
      <trkpt lat="45.78247" lon="1.1195">
        <ele>297.2</ele>
        <time>2022-04-03T09:54:34Z</time>
      </trkpt>
      <trkpt lat="45.78243" lon="1.11949">
        <ele>297.4</ele>
        <time>2022-04-03T09:54:35Z</time>
      </trkpt>
      <trkpt lat="45.7824" lon="1.11947">
        <ele>297.4</ele>
        <time>2022-04-03T09:54:36Z</time>
      </trkpt>
      <trkpt lat="45.78236" lon="1.11946">
        <ele>297.6</ele>
        <time>2022-04-03T09:54:37Z</time>
      </trkpt>
      <trkpt lat="45.78233" lon="1.11944">
        <ele>297.6</ele>
        <time>2022-04-03T09:54:38Z</time>
      </trkpt>
      <trkpt lat="45.78229" lon="1.11943">
        <ele>297.4</ele>
        <time>2022-04-03T09:54:39Z</time>
      </trkpt>
      <trkpt lat="45.78225" lon="1.11941">
        <ele>297.6</ele>
        <time>2022-04-03T09:54:40Z</time>
      </trkpt>
      <trkpt lat="45.78222" lon="1.1194">
        <ele>297.8</ele>
        <time>2022-04-03T09:54:41Z</time>
      </trkpt>
      <trkpt lat="45.78218" lon="1.11938">
        <ele>297.6</ele>
        <time>2022-04-03T09:54:42Z</time>
      </trkpt>
      <trkpt lat="45.78215" lon="1.11937">
        <ele>297.8</ele>
        <time>2022-04-03T09:54:43Z</time>
      </trkpt>
      <trkpt lat="45.78211" lon="1.11935">
        <ele>297.6</ele>
        <time>2022-04-03T09:54:44Z</time>
      </trkpt>
      <trkpt lat="45.78207" lon="1.11934">
        <ele>297.8</ele>
        <time>2022-04-03T09:54:45Z</time>
      </trkpt>
      <trkpt lat="45.78204" lon="1.11932">
        <ele>297.8</ele>
        <time>2022-04-03T09:54:46Z</time>
      </trkpt>
      <trkpt lat="45.782" lon="1.1193">
        <ele>297.8</ele>
        <time>2022-04-03T09:54:47Z</time>
      </trkpt>
      <trkpt lat="45.78196" lon="1.11929">
        <ele>298</ele>
        <time>2022-04-03T09:54:48Z</time>
      </trkpt>
      <trkpt lat="45.78193" lon="1.11927">
        <ele>298</ele>
        <time>2022-04-03T09:54:49Z</time>
      </trkpt>
      <trkpt lat="45.78189" lon="1.11926">
        <ele>298</ele>
        <time>2022-04-03T09:54:50Z</time>
      </trkpt>
      <trkpt lat="45.78185" lon="1.11924">
        <ele>298</ele>
        <time>2022-04-03T09:54:51Z</time>
      </trkpt>
      <trkpt lat="45.78182" lon="1.11923">
        <ele>298</ele>
        <time>2022-04-03T09:54:52Z</time>
      </trkpt>
      <trkpt lat="45.78178" lon="1.11921">
        <ele>298</ele>
        <time>2022-04-03T09:54:53Z</time>
      </trkpt>
      <trkpt lat="45.78174" lon="1.1192">
        <ele>298</ele>
        <time>2022-04-03T09:54:54Z</time>
      </trkpt>
      <trkpt lat="45.78171" lon="1.11918">
        <ele>298.2</ele>
        <time>2022-04-03T09:54:55Z</time>
      </trkpt>
      <trkpt lat="45.78167" lon="1.11917">
        <ele>298.2</ele>
        <time>2022-04-03T09:54:56Z</time>
      </trkpt>
      <trkpt lat="45.78164" lon="1.11915">
        <ele>298.2</ele>
        <time>2022-04-03T09:54:57Z</time>
      </trkpt>
      <trkpt lat="45.7816" lon="1.11914">
        <ele>298.2</ele>
        <time>2022-04-03T09:54:58Z</time>
      </trkpt>
      <trkpt lat="45.78157" lon="1.11912">
        <ele>298.4</ele>
        <time>2022-04-03T09:54:59Z</time>
      </trkpt>
      <trkpt lat="45.78154" lon="1.11911">
        <ele>298.4</ele>
        <time>2022-04-03T09:55:00Z</time>
      </trkpt>
      <trkpt lat="45.7815" lon="1.1191">
        <ele>298.4</ele>
        <time>2022-04-03T09:55:01Z</time>
      </trkpt>
      <trkpt lat="45.78147" lon="1.11908">
        <ele>298.6</ele>
        <time>2022-04-03T09:55:02Z</time>
      </trkpt>
      <trkpt lat="45.78144" lon="1.11907">
        <ele>298.6</ele>
        <time>2022-04-03T09:55:03Z</time>
      </trkpt>
      <trkpt lat="45.78141" lon="1.11905">
        <ele>298.6</ele>
        <time>2022-04-03T09:55:04Z</time>
      </trkpt>
      <trkpt lat="45.78138" lon="1.11904">
        <ele>298.6</ele>
        <time>2022-04-03T09:55:05Z</time>
      </trkpt>
      <trkpt lat="45.78134" lon="1.11903">
        <ele>298.6</ele>
        <time>2022-04-03T09:55:06Z</time>
      </trkpt>
      <trkpt lat="45.78131" lon="1.11901">
        <ele>298.8</ele>
        <time>2022-04-03T09:55:07Z</time>
      </trkpt>
      <trkpt lat="45.78128" lon="1.119">
        <ele>298.8</ele>
        <time>2022-04-03T09:55:08Z</time>
      </trkpt>
      <trkpt lat="45.78125" lon="1.11899">
        <ele>299</ele>
        <time>2022-04-03T09:55:09Z</time>
      </trkpt>
      <trkpt lat="45.78122" lon="1.11898">
        <ele>299</ele>
        <time>2022-04-03T09:55:10Z</time>
      </trkpt>
      <trkpt lat="45.78119" lon="1.11896">
        <ele>299.2</ele>
        <time>2022-04-03T09:55:11Z</time>
      </trkpt>
      <trkpt lat="45.78116" lon="1.11895">
        <ele>299.2</ele>
        <time>2022-04-03T09:55:12Z</time>
      </trkpt>
      <trkpt lat="45.78113" lon="1.11894">
        <ele>299.4</ele>
        <time>2022-04-03T09:55:13Z</time>
      </trkpt>
      <trkpt lat="45.7811" lon="1.11893">
        <ele>299.6</ele>
        <time>2022-04-03T09:55:14Z</time>
      </trkpt>
      <trkpt lat="45.78107" lon="1.11891">
        <ele>299.8</ele>
        <time>2022-04-03T09:55:15Z</time>
      </trkpt>
      <trkpt lat="45.78104" lon="1.1189">
        <ele>299.8</ele>
        <time>2022-04-03T09:55:16Z</time>
      </trkpt>
      <trkpt lat="45.78101" lon="1.11888">
        <ele>300</ele>
        <time>2022-04-03T09:55:17Z</time>
      </trkpt>
      <trkpt lat="45.78098" lon="1.11887">
        <ele>300.2</ele>
        <time>2022-04-03T09:55:18Z</time>
      </trkpt>
      <trkpt lat="45.78095" lon="1.11886">
        <ele>300.2</ele>
        <time>2022-04-03T09:55:19Z</time>
      </trkpt>
      <trkpt lat="45.78092" lon="1.11885">
        <ele>300.2</ele>
        <time>2022-04-03T09:55:20Z</time>
      </trkpt>
      <trkpt lat="45.78089" lon="1.11884">
        <ele>300.4</ele>
        <time>2022-04-03T09:55:21Z</time>
      </trkpt>
      <trkpt lat="45.78086" lon="1.11883">
        <ele>300.4</ele>
        <time>2022-04-03T09:55:22Z</time>
      </trkpt>
      <trkpt lat="45.78083" lon="1.11881">
        <ele>300.6</ele>
        <time>2022-04-03T09:55:23Z</time>
      </trkpt>
      <trkpt lat="45.7808" lon="1.1188">
        <ele>300.6</ele>
        <time>2022-04-03T09:55:24Z</time>
      </trkpt>
      <trkpt lat="45.78077" lon="1.11878">
        <ele>300.8</ele>
        <time>2022-04-03T09:55:25Z</time>
      </trkpt>
      <trkpt lat="45.78074" lon="1.11877">
        <ele>300.8</ele>
        <time>2022-04-03T09:55:26Z</time>
      </trkpt>
      <trkpt lat="45.78071" lon="1.11876">
        <ele>301</ele>
        <time>2022-04-03T09:55:27Z</time>
      </trkpt>
      <trkpt lat="45.78068" lon="1.11875">
        <ele>301</ele>
        <time>2022-04-03T09:55:28Z</time>
      </trkpt>
      <trkpt lat="45.78065" lon="1.11873">
        <ele>301</ele>
        <time>2022-04-03T09:55:29Z</time>
      </trkpt>
      <trkpt lat="45.78062" lon="1.11872">
        <ele>301.2</ele>
        <time>2022-04-03T09:55:30Z</time>
      </trkpt>
      <trkpt lat="45.78059" lon="1.11871">
        <ele>301.4</ele>
        <time>2022-04-03T09:55:31Z</time>
      </trkpt>
      <trkpt lat="45.78056" lon="1.1187">
        <ele>301.4</ele>
        <time>2022-04-03T09:55:32Z</time>
      </trkpt>
      <trkpt lat="45.78053" lon="1.11868">
        <ele>301.6</ele>
        <time>2022-04-03T09:55:33Z</time>
      </trkpt>
      <trkpt lat="45.7805" lon="1.11867">
        <ele>301.8</ele>
        <time>2022-04-03T09:55:34Z</time>
      </trkpt>
      <trkpt lat="45.78047" lon="1.11866">
        <ele>302</ele>
        <time>2022-04-03T09:55:35Z</time>
      </trkpt>
      <trkpt lat="45.78043" lon="1.11864">
        <ele>302</ele>
        <time>2022-04-03T09:55:36Z</time>
      </trkpt>
      <trkpt lat="45.7804" lon="1.11863">
        <ele>302</ele>
        <time>2022-04-03T09:55:37Z</time>
      </trkpt>
      <trkpt lat="45.78037" lon="1.11862">
        <ele>302.2</ele>
        <time>2022-04-03T09:55:38Z</time>
      </trkpt>
      <trkpt lat="45.78034" lon="1.1186">
        <ele>302.4</ele>
        <time>2022-04-03T09:55:39Z</time>
      </trkpt>
      <trkpt lat="45.78031" lon="1.11859">
        <ele>302.4</ele>
        <time>2022-04-03T09:55:40Z</time>
      </trkpt>
      <trkpt lat="45.78028" lon="1.11858">
        <ele>302.6</ele>
        <time>2022-04-03T09:55:41Z</time>
      </trkpt>
      <trkpt lat="45.78025" lon="1.11856">
        <ele>302.6</ele>
        <time>2022-04-03T09:55:42Z</time>
      </trkpt>
      <trkpt lat="45.78022" lon="1.11855">
        <ele>302.8</ele>
        <time>2022-04-03T09:55:43Z</time>
      </trkpt>
      <trkpt lat="45.78018" lon="1.11853">
        <ele>303</ele>
        <time>2022-04-03T09:55:44Z</time>
      </trkpt>
      <trkpt lat="45.78015" lon="1.11852">
        <ele>303.2</ele>
        <time>2022-04-03T09:55:45Z</time>
      </trkpt>
      <trkpt lat="45.78012" lon="1.1185">
        <ele>303.4</ele>
        <time>2022-04-03T09:55:46Z</time>
      </trkpt>
      <trkpt lat="45.78008" lon="1.11849">
        <ele>303.4</ele>
        <time>2022-04-03T09:55:47Z</time>
      </trkpt>
      <trkpt lat="45.78005" lon="1.11848">
        <ele>303.4</ele>
        <time>2022-04-03T09:55:48Z</time>
      </trkpt>
      <trkpt lat="45.78002" lon="1.11846">
        <ele>303.6</ele>
        <time>2022-04-03T09:55:49Z</time>
      </trkpt>
      <trkpt lat="45.77998" lon="1.11845">
        <ele>303.6</ele>
        <time>2022-04-03T09:55:50Z</time>
      </trkpt>
      <trkpt lat="45.77995" lon="1.11843">
        <ele>303.6</ele>
        <time>2022-04-03T09:55:51Z</time>
      </trkpt>
      <trkpt lat="45.77991" lon="1.11842">
        <ele>303.8</ele>
        <time>2022-04-03T09:55:52Z</time>
      </trkpt>
      <trkpt lat="45.77988" lon="1.1184">
        <ele>304</ele>
        <time>2022-04-03T09:55:53Z</time>
      </trkpt>
      <trkpt lat="45.77984" lon="1.11839">
        <ele>304</ele>
        <time>2022-04-03T09:55:54Z</time>
      </trkpt>
      <trkpt lat="45.7798" lon="1.11837">
        <ele>304.2</ele>
        <time>2022-04-03T09:55:55Z</time>
      </trkpt>
      <trkpt lat="45.77977" lon="1.11836">
        <ele>304.2</ele>
        <time>2022-04-03T09:55:56Z</time>
      </trkpt>
      <trkpt lat="45.77973" lon="1.11834">
        <ele>304.4</ele>
        <time>2022-04-03T09:55:57Z</time>
      </trkpt>
      <trkpt lat="45.7797" lon="1.11833">
        <ele>304.4</ele>
        <time>2022-04-03T09:55:58Z</time>
      </trkpt>
      <trkpt lat="45.77966" lon="1.11831">
        <ele>304.4</ele>
        <time>2022-04-03T09:55:59Z</time>
      </trkpt>
      <trkpt lat="45.77963" lon="1.1183">
        <ele>304.4</ele>
        <time>2022-04-03T09:56:00Z</time>
      </trkpt>
      <trkpt lat="45.77959" lon="1.11829">
        <ele>304.6</ele>
        <time>2022-04-03T09:56:01Z</time>
      </trkpt>
      <trkpt lat="45.77956" lon="1.11827">
        <ele>304.8</ele>
        <time>2022-04-03T09:56:02Z</time>
      </trkpt>
      <trkpt lat="45.77952" lon="1.11826">
        <ele>304.6</ele>
        <time>2022-04-03T09:56:03Z</time>
      </trkpt>
      <trkpt lat="45.77949" lon="1.11824">
        <ele>304.8</ele>
        <time>2022-04-03T09:56:04Z</time>
      </trkpt>
      <trkpt lat="45.77945" lon="1.11823">
        <ele>305</ele>
        <time>2022-04-03T09:56:05Z</time>
      </trkpt>
      <trkpt lat="45.77942" lon="1.11821">
        <ele>305.2</ele>
        <time>2022-04-03T09:56:06Z</time>
      </trkpt>
      <trkpt lat="45.77938" lon="1.1182">
        <ele>305.2</ele>
        <time>2022-04-03T09:56:07Z</time>
      </trkpt>
      <trkpt lat="45.77935" lon="1.11818">
        <ele>305.2</ele>
        <time>2022-04-03T09:56:08Z</time>
      </trkpt>
      <trkpt lat="45.77931" lon="1.11817">
        <ele>305.4</ele>
        <time>2022-04-03T09:56:09Z</time>
      </trkpt>
      <trkpt lat="45.77928" lon="1.11815">
        <ele>305.4</ele>
        <time>2022-04-03T09:56:10Z</time>
      </trkpt>
      <trkpt lat="45.77924" lon="1.11814">
        <ele>305.6</ele>
        <time>2022-04-03T09:56:11Z</time>
      </trkpt>
      <trkpt lat="45.77921" lon="1.11812">
        <ele>305.6</ele>
        <time>2022-04-03T09:56:12Z</time>
      </trkpt>
      <trkpt lat="45.77917" lon="1.11811">
        <ele>305.8</ele>
        <time>2022-04-03T09:56:13Z</time>
      </trkpt>
      <trkpt lat="45.77914" lon="1.11809">
        <ele>305.8</ele>
        <time>2022-04-03T09:56:14Z</time>
      </trkpt>
      <trkpt lat="45.7791" lon="1.11808">
        <ele>305.8</ele>
        <time>2022-04-03T09:56:15Z</time>
      </trkpt>
      <trkpt lat="45.77906" lon="1.11806">
        <ele>305.8</ele>
        <time>2022-04-03T09:56:16Z</time>
      </trkpt>
      <trkpt lat="45.77903" lon="1.11804">
        <ele>305.8</ele>
        <time>2022-04-03T09:56:17Z</time>
      </trkpt>
      <trkpt lat="45.77899" lon="1.11803">
        <ele>305.8</ele>
        <time>2022-04-03T09:56:18Z</time>
      </trkpt>
      <trkpt lat="45.77896" lon="1.11801">
        <ele>306</ele>
        <time>2022-04-03T09:56:19Z</time>
      </trkpt>
      <trkpt lat="45.77892" lon="1.118">
        <ele>306</ele>
        <time>2022-04-03T09:56:20Z</time>
      </trkpt>
      <trkpt lat="45.77888" lon="1.11798">
        <ele>306.2</ele>
        <time>2022-04-03T09:56:21Z</time>
      </trkpt>
      <trkpt lat="45.77884" lon="1.11796">
        <ele>306.2</ele>
        <time>2022-04-03T09:56:22Z</time>
      </trkpt>
      <trkpt lat="45.7788" lon="1.11795">
        <ele>306.2</ele>
        <time>2022-04-03T09:56:23Z</time>
      </trkpt>
      <trkpt lat="45.77877" lon="1.11793">
        <ele>306.4</ele>
        <time>2022-04-03T09:56:24Z</time>
      </trkpt>
      <trkpt lat="45.77873" lon="1.11792">
        <ele>306.4</ele>
        <time>2022-04-03T09:56:25Z</time>
      </trkpt>
      <trkpt lat="45.77869" lon="1.1179">
        <ele>306.4</ele>
        <time>2022-04-03T09:56:26Z</time>
      </trkpt>
      <trkpt lat="45.77865" lon="1.11788">
        <ele>306.4</ele>
        <time>2022-04-03T09:56:27Z</time>
      </trkpt>
      <trkpt lat="45.77861" lon="1.11786">
        <ele>306.8</ele>
        <time>2022-04-03T09:56:28Z</time>
      </trkpt>
      <trkpt lat="45.77858" lon="1.11785">
        <ele>306.6</ele>
        <time>2022-04-03T09:56:29Z</time>
      </trkpt>
      <trkpt lat="45.77854" lon="1.11783">
        <ele>306.6</ele>
        <time>2022-04-03T09:56:30Z</time>
      </trkpt>
      <trkpt lat="45.7785" lon="1.11782">
        <ele>306.6</ele>
        <time>2022-04-03T09:56:31Z</time>
      </trkpt>
      <trkpt lat="45.77846" lon="1.1178">
        <ele>306.6</ele>
        <time>2022-04-03T09:56:32Z</time>
      </trkpt>
      <trkpt lat="45.77842" lon="1.11778">
        <ele>306.6</ele>
        <time>2022-04-03T09:56:33Z</time>
      </trkpt>
      <trkpt lat="45.77838" lon="1.11777">
        <ele>306.8</ele>
        <time>2022-04-03T09:56:34Z</time>
      </trkpt>
      <trkpt lat="45.77834" lon="1.11775">
        <ele>306.8</ele>
        <time>2022-04-03T09:56:35Z</time>
      </trkpt>
      <trkpt lat="45.7783" lon="1.11773">
        <ele>306.6</ele>
        <time>2022-04-03T09:56:36Z</time>
      </trkpt>
      <trkpt lat="45.77826" lon="1.11771">
        <ele>306.8</ele>
        <time>2022-04-03T09:56:37Z</time>
      </trkpt>
      <trkpt lat="45.77822" lon="1.1177">
        <ele>306.8</ele>
        <time>2022-04-03T09:56:38Z</time>
      </trkpt>
      <trkpt lat="45.77818" lon="1.11768">
        <ele>306.8</ele>
        <time>2022-04-03T09:56:39Z</time>
      </trkpt>
      <trkpt lat="45.77814" lon="1.11766">
        <ele>306.8</ele>
        <time>2022-04-03T09:56:40Z</time>
      </trkpt>
      <trkpt lat="45.7781" lon="1.11764">
        <ele>307</ele>
        <time>2022-04-03T09:56:41Z</time>
      </trkpt>
      <trkpt lat="45.77806" lon="1.11762">
        <ele>307</ele>
        <time>2022-04-03T09:56:42Z</time>
      </trkpt>
      <trkpt lat="45.77802" lon="1.11761">
        <ele>307.2</ele>
        <time>2022-04-03T09:56:43Z</time>
      </trkpt>
      <trkpt lat="45.77798" lon="1.11759">
        <ele>307.2</ele>
        <time>2022-04-03T09:56:44Z</time>
      </trkpt>
      <trkpt lat="45.77794" lon="1.11757">
        <ele>307.2</ele>
        <time>2022-04-03T09:56:45Z</time>
      </trkpt>
      <trkpt lat="45.7779" lon="1.11756">
        <ele>307</ele>
        <time>2022-04-03T09:56:46Z</time>
      </trkpt>
      <trkpt lat="45.77785" lon="1.11754">
        <ele>307.2</ele>
        <time>2022-04-03T09:56:47Z</time>
      </trkpt>
      <trkpt lat="45.77781" lon="1.11752">
        <ele>307</ele>
        <time>2022-04-03T09:56:48Z</time>
      </trkpt>
      <trkpt lat="45.77776" lon="1.1175">
        <ele>307.2</ele>
        <time>2022-04-03T09:56:49Z</time>
      </trkpt>
      <trkpt lat="45.77772" lon="1.11748">
        <ele>307.2</ele>
        <time>2022-04-03T09:56:50Z</time>
      </trkpt>
      <trkpt lat="45.77767" lon="1.11746">
        <ele>307.2</ele>
        <time>2022-04-03T09:56:51Z</time>
      </trkpt>
      <trkpt lat="45.77762" lon="1.11744">
        <ele>307.4</ele>
        <time>2022-04-03T09:56:52Z</time>
      </trkpt>
      <trkpt lat="45.77757" lon="1.11742">
        <ele>307.4</ele>
        <time>2022-04-03T09:56:53Z</time>
      </trkpt>
      <trkpt lat="45.77752" lon="1.1174">
        <ele>307.4</ele>
        <time>2022-04-03T09:56:54Z</time>
      </trkpt>
      <trkpt lat="45.77747" lon="1.11738">
        <ele>307.4</ele>
        <time>2022-04-03T09:56:55Z</time>
      </trkpt>
      <trkpt lat="45.77741" lon="1.11736">
        <ele>307.4</ele>
        <time>2022-04-03T09:56:56Z</time>
      </trkpt>
      <trkpt lat="45.77736" lon="1.11734">
        <ele>307.2</ele>
        <time>2022-04-03T09:56:57Z</time>
      </trkpt>
      <trkpt lat="45.7773" lon="1.11731">
        <ele>307.2</ele>
        <time>2022-04-03T09:56:58Z</time>
      </trkpt>
      <trkpt lat="45.77725" lon="1.11729">
        <ele>307.4</ele>
        <time>2022-04-03T09:56:59Z</time>
      </trkpt>
      <trkpt lat="45.77719" lon="1.11727">
        <ele>307.4</ele>
        <time>2022-04-03T09:57:00Z</time>
      </trkpt>
      <trkpt lat="45.77713" lon="1.11724">
        <ele>307.2</ele>
        <time>2022-04-03T09:57:01Z</time>
      </trkpt>
      <trkpt lat="45.77707" lon="1.11722">
        <ele>307.2</ele>
        <time>2022-04-03T09:57:02Z</time>
      </trkpt>
      <trkpt lat="45.77701" lon="1.11719">
        <ele>306.8</ele>
        <time>2022-04-03T09:57:03Z</time>
      </trkpt>
      <trkpt lat="45.77695" lon="1.11716">
        <ele>306.8</ele>
        <time>2022-04-03T09:57:04Z</time>
      </trkpt>
      <trkpt lat="45.77688" lon="1.11713">
        <ele>306.8</ele>
        <time>2022-04-03T09:57:05Z</time>
      </trkpt>
      <trkpt lat="45.77682" lon="1.11711">
        <ele>306.6</ele>
        <time>2022-04-03T09:57:06Z</time>
      </trkpt>
      <trkpt lat="45.77676" lon="1.11708">
        <ele>306.4</ele>
        <time>2022-04-03T09:57:07Z</time>
      </trkpt>
      <trkpt lat="45.77669" lon="1.11705">
        <ele>306.2</ele>
        <time>2022-04-03T09:57:08Z</time>
      </trkpt>
      <trkpt lat="45.77663" lon="1.11702">
        <ele>306.2</ele>
        <time>2022-04-03T09:57:09Z</time>
      </trkpt>
      <trkpt lat="45.77656" lon="1.11699">
        <ele>305.8</ele>
        <time>2022-04-03T09:57:10Z</time>
      </trkpt>
      <trkpt lat="45.77649" lon="1.11697">
        <ele>305.4</ele>
        <time>2022-04-03T09:57:11Z</time>
      </trkpt>
      <trkpt lat="45.77643" lon="1.11694">
        <ele>305.2</ele>
        <time>2022-04-03T09:57:12Z</time>
      </trkpt>
      <trkpt lat="45.77636" lon="1.11691">
        <ele>305</ele>
        <time>2022-04-03T09:57:13Z</time>
      </trkpt>
      <trkpt lat="45.77629" lon="1.11688">
        <ele>304.8</ele>
        <time>2022-04-03T09:57:14Z</time>
      </trkpt>
      <trkpt lat="45.77623" lon="1.11685">
        <ele>304.6</ele>
        <time>2022-04-03T09:57:15Z</time>
      </trkpt>
      <trkpt lat="45.77616" lon="1.11682">
        <ele>304.4</ele>
        <time>2022-04-03T09:57:16Z</time>
      </trkpt>
      <trkpt lat="45.77609" lon="1.1168">
        <ele>304.2</ele>
        <time>2022-04-03T09:57:17Z</time>
      </trkpt>
      <trkpt lat="45.77602" lon="1.11677">
        <ele>303.6</ele>
        <time>2022-04-03T09:57:18Z</time>
      </trkpt>
      <trkpt lat="45.77595" lon="1.11674">
        <ele>303.6</ele>
        <time>2022-04-03T09:57:19Z</time>
      </trkpt>
      <trkpt lat="45.77588" lon="1.11671">
        <ele>303.4</ele>
        <time>2022-04-03T09:57:20Z</time>
      </trkpt>
      <trkpt lat="45.77581" lon="1.11667">
        <ele>303.2</ele>
        <time>2022-04-03T09:57:21Z</time>
      </trkpt>
      <trkpt lat="45.77574" lon="1.11664">
        <ele>303.2</ele>
        <time>2022-04-03T09:57:22Z</time>
      </trkpt>
      <trkpt lat="45.77567" lon="1.11661">
        <ele>303.2</ele>
        <time>2022-04-03T09:57:23Z</time>
      </trkpt>
      <trkpt lat="45.7756" lon="1.11658">
        <ele>303</ele>
        <time>2022-04-03T09:57:24Z</time>
      </trkpt>
      <trkpt lat="45.77553" lon="1.11655">
        <ele>302.8</ele>
        <time>2022-04-03T09:57:25Z</time>
      </trkpt>
      <trkpt lat="45.77546" lon="1.11652">
        <ele>302.8</ele>
        <time>2022-04-03T09:57:26Z</time>
      </trkpt>
      <trkpt lat="45.77539" lon="1.11649">
        <ele>302.8</ele>
        <time>2022-04-03T09:57:27Z</time>
      </trkpt>
      <trkpt lat="45.77532" lon="1.11646">
        <ele>302.8</ele>
        <time>2022-04-03T09:57:28Z</time>
      </trkpt>
      <trkpt lat="45.77524" lon="1.11643">
        <ele>302.6</ele>
        <time>2022-04-03T09:57:29Z</time>
      </trkpt>
      <trkpt lat="45.77517" lon="1.1164">
        <ele>302.6</ele>
        <time>2022-04-03T09:57:30Z</time>
      </trkpt>
      <trkpt lat="45.7751" lon="1.11637">
        <ele>302.4</ele>
        <time>2022-04-03T09:57:31Z</time>
      </trkpt>
      <trkpt lat="45.77503" lon="1.11634">
        <ele>302.4</ele>
        <time>2022-04-03T09:57:32Z</time>
      </trkpt>
      <trkpt lat="45.77496" lon="1.11631">
        <ele>302.2</ele>
        <time>2022-04-03T09:57:33Z</time>
      </trkpt>
      <trkpt lat="45.77489" lon="1.11628">
        <ele>301.8</ele>
        <time>2022-04-03T09:57:34Z</time>
      </trkpt>
      <trkpt lat="45.77482" lon="1.11625">
        <ele>301.8</ele>
        <time>2022-04-03T09:57:35Z</time>
      </trkpt>
      <trkpt lat="45.77474" lon="1.11622">
        <ele>301.6</ele>
        <time>2022-04-03T09:57:36Z</time>
      </trkpt>
      <trkpt lat="45.77467" lon="1.1162">
        <ele>301.2</ele>
        <time>2022-04-03T09:57:37Z</time>
      </trkpt>
      <trkpt lat="45.7746" lon="1.11617">
        <ele>301.2</ele>
        <time>2022-04-03T09:57:38Z</time>
      </trkpt>
      <trkpt lat="45.77453" lon="1.11613">
        <ele>301</ele>
        <time>2022-04-03T09:57:39Z</time>
      </trkpt>
      <trkpt lat="45.77446" lon="1.1161">
        <ele>300.8</ele>
        <time>2022-04-03T09:57:40Z</time>
      </trkpt>
      <trkpt lat="45.77439" lon="1.11607">
        <ele>300.8</ele>
        <time>2022-04-03T09:57:41Z</time>
      </trkpt>
      <trkpt lat="45.77431" lon="1.11604">
        <ele>300.8</ele>
        <time>2022-04-03T09:57:42Z</time>
      </trkpt>
      <trkpt lat="45.77424" lon="1.11601">
        <ele>300.8</ele>
        <time>2022-04-03T09:57:43Z</time>
      </trkpt>
      <trkpt lat="45.77417" lon="1.11598">
        <ele>300.8</ele>
        <time>2022-04-03T09:57:44Z</time>
      </trkpt>
      <trkpt lat="45.7741" lon="1.11595">
        <ele>300.6</ele>
        <time>2022-04-03T09:57:45Z</time>
      </trkpt>
      <trkpt lat="45.77403" lon="1.11592">
        <ele>300.6</ele>
        <time>2022-04-03T09:57:46Z</time>
      </trkpt>
      <trkpt lat="45.77397" lon="1.11589">
        <ele>300.6</ele>
        <time>2022-04-03T09:57:47Z</time>
      </trkpt>
      <trkpt lat="45.7739" lon="1.11586">
        <ele>300.6</ele>
        <time>2022-04-03T09:57:48Z</time>
      </trkpt>
      <trkpt lat="45.77383" lon="1.11584">
        <ele>300.6</ele>
        <time>2022-04-03T09:57:49Z</time>
      </trkpt>
      <trkpt lat="45.77377" lon="1.11581">
        <ele>300.6</ele>
        <time>2022-04-03T09:57:50Z</time>
      </trkpt>
      <trkpt lat="45.7737" lon="1.11578">
        <ele>300.6</ele>
        <time>2022-04-03T09:57:51Z</time>
      </trkpt>
      <trkpt lat="45.77364" lon="1.11575">
        <ele>300.4</ele>
        <time>2022-04-03T09:57:52Z</time>
      </trkpt>
      <trkpt lat="45.77358" lon="1.11573">
        <ele>300.6</ele>
        <time>2022-04-03T09:57:53Z</time>
      </trkpt>
      <trkpt lat="45.77352" lon="1.1157">
        <ele>300.6</ele>
        <time>2022-04-03T09:57:54Z</time>
      </trkpt>
      <trkpt lat="45.77345" lon="1.11567">
        <ele>300.6</ele>
        <time>2022-04-03T09:57:55Z</time>
      </trkpt>
      <trkpt lat="45.77339" lon="1.11565">
        <ele>300.6</ele>
        <time>2022-04-03T09:57:56Z</time>
      </trkpt>
      <trkpt lat="45.77333" lon="1.11562">
        <ele>300.6</ele>
        <time>2022-04-03T09:57:57Z</time>
      </trkpt>
      <trkpt lat="45.77327" lon="1.1156">
        <ele>300.6</ele>
        <time>2022-04-03T09:57:58Z</time>
      </trkpt>
      <trkpt lat="45.77322" lon="1.11558">
        <ele>300.6</ele>
        <time>2022-04-03T09:57:59Z</time>
      </trkpt>
      <trkpt lat="45.77316" lon="1.11556">
        <ele>300.8</ele>
        <time>2022-04-03T09:58:00Z</time>
      </trkpt>
      <trkpt lat="45.77311" lon="1.11553">
        <ele>300.8</ele>
        <time>2022-04-03T09:58:01Z</time>
      </trkpt>
      <trkpt lat="45.77305" lon="1.11551">
        <ele>301</ele>
        <time>2022-04-03T09:58:02Z</time>
      </trkpt>
      <trkpt lat="45.773" lon="1.11548">
        <ele>300.8</ele>
        <time>2022-04-03T09:58:03Z</time>
      </trkpt>
      <trkpt lat="45.77294" lon="1.11546">
        <ele>300.8</ele>
        <time>2022-04-03T09:58:04Z</time>
      </trkpt>
      <trkpt lat="45.77289" lon="1.11543">
        <ele>301</ele>
        <time>2022-04-03T09:58:05Z</time>
      </trkpt>
      <trkpt lat="45.77283" lon="1.11541">
        <ele>301</ele>
        <time>2022-04-03T09:58:06Z</time>
      </trkpt>
      <trkpt lat="45.77278" lon="1.11539">
        <ele>301</ele>
        <time>2022-04-03T09:58:07Z</time>
      </trkpt>
      <trkpt lat="45.77273" lon="1.11536">
        <ele>301</ele>
        <time>2022-04-03T09:58:08Z</time>
      </trkpt>
      <trkpt lat="45.77268" lon="1.11534">
        <ele>301.4</ele>
        <time>2022-04-03T09:58:09Z</time>
      </trkpt>
      <trkpt lat="45.77263" lon="1.11532">
        <ele>301.6</ele>
        <time>2022-04-03T09:58:10Z</time>
      </trkpt>
      <trkpt lat="45.77258" lon="1.11531">
        <ele>301.6</ele>
        <time>2022-04-03T09:58:11Z</time>
      </trkpt>
      <trkpt lat="45.77253" lon="1.11529">
        <ele>301.8</ele>
        <time>2022-04-03T09:58:12Z</time>
      </trkpt>
      <trkpt lat="45.77248" lon="1.11526">
        <ele>302</ele>
        <time>2022-04-03T09:58:13Z</time>
      </trkpt>
      <trkpt lat="45.77243" lon="1.11524">
        <ele>302</ele>
        <time>2022-04-03T09:58:14Z</time>
      </trkpt>
      <trkpt lat="45.77239" lon="1.11521">
        <ele>302.2</ele>
        <time>2022-04-03T09:58:15Z</time>
      </trkpt>
      <trkpt lat="45.77234" lon="1.11518">
        <ele>302.2</ele>
        <time>2022-04-03T09:58:16Z</time>
      </trkpt>
      <trkpt lat="45.77231" lon="1.11513">
        <ele>302.2</ele>
        <time>2022-04-03T09:58:17Z</time>
      </trkpt>
      <trkpt lat="45.77229" lon="1.11506">
        <ele>302.2</ele>
        <time>2022-04-03T09:58:18Z</time>
      </trkpt>
      <trkpt lat="45.77229" lon="1.11499">
        <ele>302.2</ele>
        <time>2022-04-03T09:58:19Z</time>
      </trkpt>
      <trkpt lat="45.7723" lon="1.1149">
        <ele>302.2</ele>
        <time>2022-04-03T09:58:20Z</time>
      </trkpt>
      <trkpt lat="45.77231" lon="1.11482">
        <ele>302.2</ele>
        <time>2022-04-03T09:58:21Z</time>
      </trkpt>
      <trkpt lat="45.77233" lon="1.11473">
        <ele>302.2</ele>
        <time>2022-04-03T09:58:22Z</time>
      </trkpt>
      <trkpt lat="45.77235" lon="1.11464">
        <ele>302.2</ele>
        <time>2022-04-03T09:58:23Z</time>
      </trkpt>
      <trkpt lat="45.77238" lon="1.11454">
        <ele>302.2</ele>
        <time>2022-04-03T09:58:24Z</time>
      </trkpt>
      <trkpt lat="45.7724" lon="1.11443">
        <ele>302.2</ele>
        <time>2022-04-03T09:58:25Z</time>
      </trkpt>
      <trkpt lat="45.77243" lon="1.11433">
        <ele>302.2</ele>
        <time>2022-04-03T09:58:26Z</time>
      </trkpt>
      <trkpt lat="45.77245" lon="1.11422">
        <ele>302.2</ele>
        <time>2022-04-03T09:58:27Z</time>
      </trkpt>
      <trkpt lat="45.77248" lon="1.1141">
        <ele>301.8</ele>
        <time>2022-04-03T09:58:28Z</time>
      </trkpt>
      <trkpt lat="45.77251" lon="1.11399">
        <ele>301.4</ele>
        <time>2022-04-03T09:58:29Z</time>
      </trkpt>
      <trkpt lat="45.77254" lon="1.11387">
        <ele>301</ele>
        <time>2022-04-03T09:58:30Z</time>
      </trkpt>
      <trkpt lat="45.77256" lon="1.11375">
        <ele>300.4</ele>
        <time>2022-04-03T09:58:31Z</time>
      </trkpt>
      <trkpt lat="45.77259" lon="1.11363">
        <ele>299.6</ele>
        <time>2022-04-03T09:58:32Z</time>
      </trkpt>
      <trkpt lat="45.77262" lon="1.11351">
        <ele>298.6</ele>
        <time>2022-04-03T09:58:33Z</time>
      </trkpt>
      <trkpt lat="45.77265" lon="1.11339">
        <ele>297.4</ele>
        <time>2022-04-03T09:58:34Z</time>
      </trkpt>
      <trkpt lat="45.77267" lon="1.11327">
        <ele>296.8</ele>
        <time>2022-04-03T09:58:35Z</time>
      </trkpt>
      <trkpt lat="45.7727" lon="1.11314">
        <ele>296</ele>
        <time>2022-04-03T09:58:36Z</time>
      </trkpt>
      <trkpt lat="45.77273" lon="1.11302">
        <ele>295.4</ele>
        <time>2022-04-03T09:58:37Z</time>
      </trkpt>
      <trkpt lat="45.77276" lon="1.11289">
        <ele>294</ele>
        <time>2022-04-03T09:58:38Z</time>
      </trkpt>
      <trkpt lat="45.77279" lon="1.11277">
        <ele>294</ele>
        <time>2022-04-03T09:58:39Z</time>
      </trkpt>
      <trkpt lat="45.77282" lon="1.11264">
        <ele>293</ele>
        <time>2022-04-03T09:58:40Z</time>
      </trkpt>
      <trkpt lat="45.77285" lon="1.11251">
        <ele>292.6</ele>
        <time>2022-04-03T09:58:41Z</time>
      </trkpt>
      <trkpt lat="45.77287" lon="1.11238">
        <ele>291.8</ele>
        <time>2022-04-03T09:58:42Z</time>
      </trkpt>
      <trkpt lat="45.7729" lon="1.11225">
        <ele>290.8</ele>
        <time>2022-04-03T09:58:43Z</time>
      </trkpt>
      <trkpt lat="45.77294" lon="1.11212">
        <ele>290.2</ele>
        <time>2022-04-03T09:58:44Z</time>
      </trkpt>
      <trkpt lat="45.77297" lon="1.11199">
        <ele>289.8</ele>
        <time>2022-04-03T09:58:45Z</time>
      </trkpt>
      <trkpt lat="45.773" lon="1.11186">
        <ele>289.2</ele>
        <time>2022-04-03T09:58:46Z</time>
      </trkpt>
      <trkpt lat="45.77302" lon="1.11173">
        <ele>289</ele>
        <time>2022-04-03T09:58:47Z</time>
      </trkpt>
      <trkpt lat="45.77305" lon="1.11159">
        <ele>288.6</ele>
        <time>2022-04-03T09:58:48Z</time>
      </trkpt>
      <trkpt lat="45.77308" lon="1.11146">
        <ele>287.2</ele>
        <time>2022-04-03T09:58:49Z</time>
      </trkpt>
      <trkpt lat="45.77312" lon="1.11133">
        <ele>286</ele>
        <time>2022-04-03T09:58:50Z</time>
      </trkpt>
      <trkpt lat="45.77315" lon="1.11119">
        <ele>284.8</ele>
        <time>2022-04-03T09:58:51Z</time>
      </trkpt>
      <trkpt lat="45.77317" lon="1.11106">
        <ele>284.4</ele>
        <time>2022-04-03T09:58:52Z</time>
      </trkpt>
      <trkpt lat="45.77318" lon="1.11092">
        <ele>283.6</ele>
        <time>2022-04-03T09:58:53Z</time>
      </trkpt>
      <trkpt lat="45.77318" lon="1.11078">
        <ele>282.6</ele>
        <time>2022-04-03T09:58:54Z</time>
      </trkpt>
      <trkpt lat="45.77317" lon="1.11064">
        <ele>281.8</ele>
        <time>2022-04-03T09:58:55Z</time>
      </trkpt>
      <trkpt lat="45.77315" lon="1.11051">
        <ele>281.2</ele>
        <time>2022-04-03T09:58:56Z</time>
      </trkpt>
      <trkpt lat="45.77312" lon="1.11038">
        <ele>281</ele>
        <time>2022-04-03T09:58:57Z</time>
      </trkpt>
      <trkpt lat="45.77309" lon="1.11026">
        <ele>281</ele>
        <time>2022-04-03T09:58:58Z</time>
      </trkpt>
      <trkpt lat="45.77305" lon="1.11013">
        <ele>280.2</ele>
        <time>2022-04-03T09:58:59Z</time>
      </trkpt>
      <trkpt lat="45.77302" lon="1.11">
        <ele>279.4</ele>
        <time>2022-04-03T09:59:00Z</time>
      </trkpt>
      <trkpt lat="45.77299" lon="1.10988">
        <ele>278.8</ele>
        <time>2022-04-03T09:59:01Z</time>
      </trkpt>
      <trkpt lat="45.77296" lon="1.10975">
        <ele>278.2</ele>
        <time>2022-04-03T09:59:02Z</time>
      </trkpt>
      <trkpt lat="45.77293" lon="1.10961">
        <ele>277.8</ele>
        <time>2022-04-03T09:59:03Z</time>
      </trkpt>
      <trkpt lat="45.77291" lon="1.10948">
        <ele>277.8</ele>
        <time>2022-04-03T09:59:04Z</time>
      </trkpt>
      <trkpt lat="45.7729" lon="1.10934">
        <ele>277.6</ele>
        <time>2022-04-03T09:59:05Z</time>
      </trkpt>
      <trkpt lat="45.77288" lon="1.1092">
        <ele>277.2</ele>
        <time>2022-04-03T09:59:06Z</time>
      </trkpt>
      <trkpt lat="45.77286" lon="1.10906">
        <ele>276.6</ele>
        <time>2022-04-03T09:59:07Z</time>
      </trkpt>
      <trkpt lat="45.77284" lon="1.10893">
        <ele>276.2</ele>
        <time>2022-04-03T09:59:08Z</time>
      </trkpt>
      <trkpt lat="45.77281" lon="1.10879">
        <ele>276</ele>
        <time>2022-04-03T09:59:09Z</time>
      </trkpt>
      <trkpt lat="45.77277" lon="1.10866">
        <ele>275.6</ele>
        <time>2022-04-03T09:59:10Z</time>
      </trkpt>
      <trkpt lat="45.77272" lon="1.10854">
        <ele>275.2</ele>
        <time>2022-04-03T09:59:11Z</time>
      </trkpt>
      <trkpt lat="45.77266" lon="1.10844">
        <ele>274.4</ele>
        <time>2022-04-03T09:59:12Z</time>
      </trkpt>
      <trkpt lat="45.7726" lon="1.10835">
        <ele>273.8</ele>
        <time>2022-04-03T09:59:13Z</time>
      </trkpt>
      <trkpt lat="45.77252" lon="1.10828">
        <ele>273.2</ele>
        <time>2022-04-03T09:59:14Z</time>
      </trkpt>
      <trkpt lat="45.77245" lon="1.10822">
        <ele>272.6</ele>
        <time>2022-04-03T09:59:15Z</time>
      </trkpt>
      <trkpt lat="45.77237" lon="1.10817">
        <ele>272.6</ele>
        <time>2022-04-03T09:59:16Z</time>
      </trkpt>
      <trkpt lat="45.7723" lon="1.10812">
        <ele>272.6</ele>
        <time>2022-04-03T09:59:17Z</time>
      </trkpt>
      <trkpt lat="45.77223" lon="1.10806">
        <ele>272.2</ele>
        <time>2022-04-03T09:59:18Z</time>
      </trkpt>
      <trkpt lat="45.77217" lon="1.108">
        <ele>272</ele>
        <time>2022-04-03T09:59:19Z</time>
      </trkpt>
      <trkpt lat="45.77211" lon="1.10793">
        <ele>271.6</ele>
        <time>2022-04-03T09:59:20Z</time>
      </trkpt>
      <trkpt lat="45.77206" lon="1.10786">
        <ele>271.6</ele>
        <time>2022-04-03T09:59:21Z</time>
      </trkpt>
      <trkpt lat="45.772" lon="1.10779">
        <ele>271.4</ele>
        <time>2022-04-03T09:59:22Z</time>
      </trkpt>
      <trkpt lat="45.77195" lon="1.10772">
        <ele>271.4</ele>
        <time>2022-04-03T09:59:23Z</time>
      </trkpt>
      <trkpt lat="45.7719" lon="1.10764">
        <ele>271.4</ele>
        <time>2022-04-03T09:59:24Z</time>
      </trkpt>
      <trkpt lat="45.77184" lon="1.10757">
        <ele>271.4</ele>
        <time>2022-04-03T09:59:25Z</time>
      </trkpt>
      <trkpt lat="45.77179" lon="1.10749">
        <ele>271.4</ele>
        <time>2022-04-03T09:59:26Z</time>
      </trkpt>
      <trkpt lat="45.77173" lon="1.10741">
        <ele>271.4</ele>
        <time>2022-04-03T09:59:27Z</time>
      </trkpt>
      <trkpt lat="45.77168" lon="1.10734">
        <ele>271.2</ele>
        <time>2022-04-03T09:59:28Z</time>
      </trkpt>
      <trkpt lat="45.77162" lon="1.10726">
        <ele>271.4</ele>
        <time>2022-04-03T09:59:29Z</time>
      </trkpt>
      <trkpt lat="45.77157" lon="1.10718">
        <ele>271.4</ele>
        <time>2022-04-03T09:59:30Z</time>
      </trkpt>
      <trkpt lat="45.77152" lon="1.1071">
        <ele>271.4</ele>
        <time>2022-04-03T09:59:31Z</time>
      </trkpt>
      <trkpt lat="45.77146" lon="1.10702">
        <ele>271.4</ele>
        <time>2022-04-03T09:59:32Z</time>
      </trkpt>
      <trkpt lat="45.77141" lon="1.10693">
        <ele>271.4</ele>
        <time>2022-04-03T09:59:33Z</time>
      </trkpt>
      <trkpt lat="45.77135" lon="1.10685">
        <ele>271.2</ele>
        <time>2022-04-03T09:59:34Z</time>
      </trkpt>
      <trkpt lat="45.7713" lon="1.10676">
        <ele>271</ele>
        <time>2022-04-03T09:59:35Z</time>
      </trkpt>
      <trkpt lat="45.77125" lon="1.10666">
        <ele>271</ele>
        <time>2022-04-03T09:59:36Z</time>
      </trkpt>
      <trkpt lat="45.7712" lon="1.10657">
        <ele>270.8</ele>
        <time>2022-04-03T09:59:37Z</time>
      </trkpt>
      <trkpt lat="45.77115" lon="1.10647">
        <ele>270.4</ele>
        <time>2022-04-03T09:59:38Z</time>
      </trkpt>
      <trkpt lat="45.77111" lon="1.10637">
        <ele>270.2</ele>
        <time>2022-04-03T09:59:39Z</time>
      </trkpt>
      <trkpt lat="45.77106" lon="1.10628">
        <ele>269.4</ele>
        <time>2022-04-03T09:59:40Z</time>
      </trkpt>
      <trkpt lat="45.77101" lon="1.10619">
        <ele>269</ele>
        <time>2022-04-03T09:59:41Z</time>
      </trkpt>
      <trkpt lat="45.77096" lon="1.1061">
        <ele>268.6</ele>
        <time>2022-04-03T09:59:42Z</time>
      </trkpt>
      <trkpt lat="45.77091" lon="1.10602">
        <ele>268.4</ele>
        <time>2022-04-03T09:59:43Z</time>
      </trkpt>
      <trkpt lat="45.77085" lon="1.10594">
        <ele>268.2</ele>
        <time>2022-04-03T09:59:44Z</time>
      </trkpt>
      <trkpt lat="45.77079" lon="1.10587">
        <ele>268.2</ele>
        <time>2022-04-03T09:59:45Z</time>
      </trkpt>
      <trkpt lat="45.77073" lon="1.10581">
        <ele>267.8</ele>
        <time>2022-04-03T09:59:46Z</time>
      </trkpt>
      <trkpt lat="45.77067" lon="1.10575">
        <ele>267.4</ele>
        <time>2022-04-03T09:59:47Z</time>
      </trkpt>
      <trkpt lat="45.77061" lon="1.10568">
        <ele>267.2</ele>
        <time>2022-04-03T09:59:48Z</time>
      </trkpt>
      <trkpt lat="45.77055" lon="1.10562">
        <ele>267</ele>
        <time>2022-04-03T09:59:49Z</time>
      </trkpt>
      <trkpt lat="45.77049" lon="1.10556">
        <ele>267</ele>
        <time>2022-04-03T09:59:50Z</time>
      </trkpt>
      <trkpt lat="45.77043" lon="1.1055">
        <ele>266.8</ele>
        <time>2022-04-03T09:59:51Z</time>
      </trkpt>
      <trkpt lat="45.77038" lon="1.10544">
        <ele>266.8</ele>
        <time>2022-04-03T09:59:52Z</time>
      </trkpt>
      <trkpt lat="45.77032" lon="1.10536">
        <ele>266.8</ele>
        <time>2022-04-03T09:59:53Z</time>
      </trkpt>
      <trkpt lat="45.77028" lon="1.10528">
        <ele>266.6</ele>
        <time>2022-04-03T09:59:54Z</time>
      </trkpt>
      <trkpt lat="45.77024" lon="1.1052">
        <ele>266.6</ele>
        <time>2022-04-03T09:59:55Z</time>
      </trkpt>
      <trkpt lat="45.77021" lon="1.1051">
        <ele>266.8</ele>
        <time>2022-04-03T09:59:56Z</time>
      </trkpt>
      <trkpt lat="45.77017" lon="1.10501">
        <ele>266.6</ele>
        <time>2022-04-03T09:59:57Z</time>
      </trkpt>
      <trkpt lat="45.77014" lon="1.10492">
        <ele>266.6</ele>
        <time>2022-04-03T09:59:58Z</time>
      </trkpt>
      <trkpt lat="45.77011" lon="1.10483">
        <ele>266.6</ele>
        <time>2022-04-03T09:59:59Z</time>
      </trkpt>
      <trkpt lat="45.77008" lon="1.10476">
        <ele>266.8</ele>
        <time>2022-04-03T10:00:00Z</time>
      </trkpt>
      <trkpt lat="45.77004" lon="1.10469">
        <ele>267</ele>
        <time>2022-04-03T10:00:01Z</time>
      </trkpt>
      <trkpt lat="45.77" lon="1.10464">
        <ele>266.8</ele>
        <time>2022-04-03T10:00:02Z</time>
      </trkpt>
      <trkpt lat="45.76996" lon="1.10459">
        <ele>266.8</ele>
        <time>2022-04-03T10:00:03Z</time>
      </trkpt>
      <trkpt lat="45.76992" lon="1.10455">
        <ele>267</ele>
        <time>2022-04-03T10:00:04Z</time>
      </trkpt>
      <trkpt lat="45.76988" lon="1.10453">
        <ele>267</ele>
        <time>2022-04-03T10:00:05Z</time>
      </trkpt>
      <trkpt lat="45.76985" lon="1.1045">
        <ele>266.8</ele>
        <time>2022-04-03T10:00:06Z</time>
      </trkpt>
      <trkpt lat="45.76981" lon="1.10449">
        <ele>267</ele>
        <time>2022-04-03T10:00:07Z</time>
      </trkpt>
      <trkpt lat="45.76978" lon="1.10447">
        <ele>267</ele>
        <time>2022-04-03T10:00:08Z</time>
      </trkpt>
      <trkpt lat="45.76975" lon="1.10446">
        <ele>267.4</ele>
        <time>2022-04-03T10:00:09Z</time>
      </trkpt>
      <trkpt lat="45.76973" lon="1.10445">
        <ele>267.8</ele>
        <time>2022-04-03T10:00:10Z</time>
      </trkpt>
      <trkpt lat="45.7697" lon="1.10445">
        <ele>268</ele>
        <time>2022-04-03T10:00:11Z</time>
      </trkpt>
      <trkpt lat="45.76968" lon="1.10444">
        <ele>268.6</ele>
        <time>2022-04-03T10:00:12Z</time>
      </trkpt>
      <trkpt lat="45.76965" lon="1.10444">
        <ele>269</ele>
        <time>2022-04-03T10:00:13Z</time>
      </trkpt>
      <trkpt lat="45.76963" lon="1.10443">
        <ele>269</ele>
        <time>2022-04-03T10:00:14Z</time>
      </trkpt>
      <trkpt lat="45.7696" lon="1.10442">
        <ele>269.4</ele>
        <time>2022-04-03T10:00:15Z</time>
      </trkpt>
      <trkpt lat="45.76957" lon="1.10442">
        <ele>269.8</ele>
        <time>2022-04-03T10:00:16Z</time>
      </trkpt>
      <trkpt lat="45.76955" lon="1.10441">
        <ele>270.4</ele>
        <time>2022-04-03T10:00:17Z</time>
      </trkpt>
      <trkpt lat="45.76952" lon="1.1044">
        <ele>270.6</ele>
        <time>2022-04-03T10:00:18Z</time>
      </trkpt>
      <trkpt lat="45.7695" lon="1.10439">
        <ele>270.8</ele>
        <time>2022-04-03T10:00:19Z</time>
      </trkpt>
      <trkpt lat="45.76948" lon="1.10437">
        <ele>271.2</ele>
        <time>2022-04-03T10:00:20Z</time>
      </trkpt>
      <trkpt lat="45.76946" lon="1.10435">
        <ele>271.2</ele>
        <time>2022-04-03T10:00:21Z</time>
      </trkpt>
      <trkpt lat="45.76943" lon="1.10433">
        <ele>271.4</ele>
        <time>2022-04-03T10:00:22Z</time>
      </trkpt>
      <trkpt lat="45.76941" lon="1.10432">
        <ele>271.4</ele>
        <time>2022-04-03T10:00:23Z</time>
      </trkpt>
      <trkpt lat="45.76939" lon="1.1043">
        <ele>271.6</ele>
        <time>2022-04-03T10:00:24Z</time>
      </trkpt>
      <trkpt lat="45.76937" lon="1.10428">
        <ele>271.6</ele>
        <time>2022-04-03T10:00:25Z</time>
      </trkpt>
      <trkpt lat="45.76936" lon="1.10426">
        <ele>271.8</ele>
        <time>2022-04-03T10:00:26Z</time>
      </trkpt>
      <trkpt lat="45.76934" lon="1.10423">
        <ele>271.8</ele>
        <time>2022-04-03T10:00:27Z</time>
      </trkpt>
      <trkpt lat="45.76933" lon="1.10421">
        <ele>272.2</ele>
        <time>2022-04-03T10:00:28Z</time>
      </trkpt>
      <trkpt lat="45.76931" lon="1.10419">
        <ele>272.2</ele>
        <time>2022-04-03T10:00:29Z</time>
      </trkpt>
      <trkpt lat="45.7693" lon="1.10416">
        <ele>272.4</ele>
        <time>2022-04-03T10:00:30Z</time>
      </trkpt>
      <trkpt lat="45.76928" lon="1.10414">
        <ele>272.6</ele>
        <time>2022-04-03T10:00:31Z</time>
      </trkpt>
      <trkpt lat="45.76927" lon="1.10412">
        <ele>272.8</ele>
        <time>2022-04-03T10:00:32Z</time>
      </trkpt>
      <trkpt lat="45.76925" lon="1.10409">
        <ele>272.8</ele>
        <time>2022-04-03T10:00:33Z</time>
      </trkpt>
      <trkpt lat="45.76924" lon="1.10407">
        <ele>273.2</ele>
        <time>2022-04-03T10:00:34Z</time>
      </trkpt>
      <trkpt lat="45.76923" lon="1.10404">
        <ele>273.2</ele>
        <time>2022-04-03T10:00:35Z</time>
      </trkpt>
      <trkpt lat="45.76922" lon="1.10401">
        <ele>273.4</ele>
        <time>2022-04-03T10:00:36Z</time>
      </trkpt>
      <trkpt lat="45.7692" lon="1.10398">
        <ele>273.6</ele>
        <time>2022-04-03T10:00:37Z</time>
      </trkpt>
      <trkpt lat="45.76919" lon="1.10395">
        <ele>273.8</ele>
        <time>2022-04-03T10:00:38Z</time>
      </trkpt>
      <trkpt lat="45.76917" lon="1.10393">
        <ele>274</ele>
        <time>2022-04-03T10:00:39Z</time>
      </trkpt>
      <trkpt lat="45.76916" lon="1.10389">
        <ele>274.2</ele>
        <time>2022-04-03T10:00:40Z</time>
      </trkpt>
      <trkpt lat="45.76915" lon="1.10386">
        <ele>274.4</ele>
        <time>2022-04-03T10:00:41Z</time>
      </trkpt>
      <trkpt lat="45.76913" lon="1.10383">
        <ele>274.6</ele>
        <time>2022-04-03T10:00:42Z</time>
      </trkpt>
      <trkpt lat="45.76912" lon="1.1038">
        <ele>274.8</ele>
        <time>2022-04-03T10:00:43Z</time>
      </trkpt>
      <trkpt lat="45.76911" lon="1.10377">
        <ele>275</ele>
        <time>2022-04-03T10:00:44Z</time>
      </trkpt>
      <trkpt lat="45.7691" lon="1.10374">
        <ele>275</ele>
        <time>2022-04-03T10:00:45Z</time>
      </trkpt>
      <trkpt lat="45.76908" lon="1.10371">
        <ele>275</ele>
        <time>2022-04-03T10:00:46Z</time>
      </trkpt>
      <trkpt lat="45.76907" lon="1.10369">
        <ele>275</ele>
        <time>2022-04-03T10:00:47Z</time>
      </trkpt>
      <trkpt lat="45.76905" lon="1.10366">
        <ele>275.2</ele>
        <time>2022-04-03T10:00:48Z</time>
      </trkpt>
      <trkpt lat="45.76904" lon="1.10363">
        <ele>275.2</ele>
        <time>2022-04-03T10:00:49Z</time>
      </trkpt>
      <trkpt lat="45.76902" lon="1.1036">
        <ele>275.4</ele>
        <time>2022-04-03T10:00:50Z</time>
      </trkpt>
      <trkpt lat="45.76901" lon="1.10357">
        <ele>275.6</ele>
        <time>2022-04-03T10:00:51Z</time>
      </trkpt>
      <trkpt lat="45.76899" lon="1.10354">
        <ele>275.6</ele>
        <time>2022-04-03T10:00:52Z</time>
      </trkpt>
      <trkpt lat="45.76898" lon="1.10351">
        <ele>275.6</ele>
        <time>2022-04-03T10:00:53Z</time>
      </trkpt>
      <trkpt lat="45.76896" lon="1.10348">
        <ele>275.8</ele>
        <time>2022-04-03T10:00:54Z</time>
      </trkpt>
      <trkpt lat="45.76895" lon="1.10345">
        <ele>275.8</ele>
        <time>2022-04-03T10:00:55Z</time>
      </trkpt>
      <trkpt lat="45.76893" lon="1.10342">
        <ele>276</ele>
        <time>2022-04-03T10:00:56Z</time>
      </trkpt>
      <trkpt lat="45.76892" lon="1.10339">
        <ele>276.2</ele>
        <time>2022-04-03T10:00:57Z</time>
      </trkpt>
      <trkpt lat="45.7689" lon="1.10335">
        <ele>276.2</ele>
        <time>2022-04-03T10:00:58Z</time>
      </trkpt>
      <trkpt lat="45.76888" lon="1.10332">
        <ele>276.4</ele>
        <time>2022-04-03T10:00:59Z</time>
      </trkpt>
      <trkpt lat="45.76887" lon="1.10329">
        <ele>276.4</ele>
        <time>2022-04-03T10:01:00Z</time>
      </trkpt>
      <trkpt lat="45.76885" lon="1.10326">
        <ele>276.6</ele>
        <time>2022-04-03T10:01:01Z</time>
      </trkpt>
      <trkpt lat="45.76884" lon="1.10323">
        <ele>276.8</ele>
        <time>2022-04-03T10:01:02Z</time>
      </trkpt>
      <trkpt lat="45.76882" lon="1.1032">
        <ele>276.8</ele>
        <time>2022-04-03T10:01:03Z</time>
      </trkpt>
      <trkpt lat="45.76881" lon="1.10317">
        <ele>277</ele>
        <time>2022-04-03T10:01:04Z</time>
      </trkpt>
      <trkpt lat="45.76879" lon="1.10314">
        <ele>277</ele>
        <time>2022-04-03T10:01:05Z</time>
      </trkpt>
      <trkpt lat="45.76878" lon="1.10311">
        <ele>277.4</ele>
        <time>2022-04-03T10:01:06Z</time>
      </trkpt>
      <trkpt lat="45.76876" lon="1.10308">
        <ele>277.4</ele>
        <time>2022-04-03T10:01:07Z</time>
      </trkpt>
      <trkpt lat="45.76874" lon="1.10305">
        <ele>277.4</ele>
        <time>2022-04-03T10:01:08Z</time>
      </trkpt>
      <trkpt lat="45.76873" lon="1.10302">
        <ele>277.4</ele>
        <time>2022-04-03T10:01:09Z</time>
      </trkpt>
      <trkpt lat="45.76871" lon="1.10298">
        <ele>277.6</ele>
        <time>2022-04-03T10:01:10Z</time>
      </trkpt>
      <trkpt lat="45.7687" lon="1.10295">
        <ele>277.6</ele>
        <time>2022-04-03T10:01:11Z</time>
      </trkpt>
      <trkpt lat="45.76868" lon="1.10291">
        <ele>277.8</ele>
        <time>2022-04-03T10:01:12Z</time>
      </trkpt>
      <trkpt lat="45.76866" lon="1.10288">
        <ele>277.6</ele>
        <time>2022-04-03T10:01:13Z</time>
      </trkpt>
      <trkpt lat="45.76865" lon="1.10284">
        <ele>277.8</ele>
        <time>2022-04-03T10:01:14Z</time>
      </trkpt>
      <trkpt lat="45.76863" lon="1.10281">
        <ele>277.8</ele>
        <time>2022-04-03T10:01:15Z</time>
      </trkpt>
      <trkpt lat="45.76861" lon="1.10278">
        <ele>277.8</ele>
        <time>2022-04-03T10:01:16Z</time>
      </trkpt>
      <trkpt lat="45.7686" lon="1.10275">
        <ele>278</ele>
        <time>2022-04-03T10:01:17Z</time>
      </trkpt>
      <trkpt lat="45.76858" lon="1.10272">
        <ele>278.2</ele>
        <time>2022-04-03T10:01:18Z</time>
      </trkpt>
      <trkpt lat="45.76857" lon="1.10268">
        <ele>278.2</ele>
        <time>2022-04-03T10:01:19Z</time>
      </trkpt>
      <trkpt lat="45.76855" lon="1.10265">
        <ele>278.4</ele>
        <time>2022-04-03T10:01:20Z</time>
      </trkpt>
      <trkpt lat="45.76853" lon="1.10262">
        <ele>278.4</ele>
        <time>2022-04-03T10:01:21Z</time>
      </trkpt>
      <trkpt lat="45.76852" lon="1.10259">
        <ele>278.6</ele>
        <time>2022-04-03T10:01:22Z</time>
      </trkpt>
      <trkpt lat="45.76851" lon="1.10256">
        <ele>278.6</ele>
        <time>2022-04-03T10:01:23Z</time>
      </trkpt>
      <trkpt lat="45.76849" lon="1.10252">
        <ele>278.6</ele>
        <time>2022-04-03T10:01:24Z</time>
      </trkpt>
      <trkpt lat="45.76847" lon="1.10249">
        <ele>278.6</ele>
        <time>2022-04-03T10:01:25Z</time>
      </trkpt>
      <trkpt lat="45.76846" lon="1.10246">
        <ele>279</ele>
        <time>2022-04-03T10:01:26Z</time>
      </trkpt>
      <trkpt lat="45.76844" lon="1.10243">
        <ele>279</ele>
        <time>2022-04-03T10:01:27Z</time>
      </trkpt>
      <trkpt lat="45.76842" lon="1.10239">
        <ele>279.2</ele>
        <time>2022-04-03T10:01:28Z</time>
      </trkpt>
      <trkpt lat="45.7684" lon="1.10236">
        <ele>279.2</ele>
        <time>2022-04-03T10:01:29Z</time>
      </trkpt>
      <trkpt lat="45.76839" lon="1.10233">
        <ele>279.2</ele>
        <time>2022-04-03T10:01:30Z</time>
      </trkpt>
      <trkpt lat="45.76837" lon="1.1023">
        <ele>279.6</ele>
        <time>2022-04-03T10:01:31Z</time>
      </trkpt>
      <trkpt lat="45.76835" lon="1.10226">
        <ele>279.6</ele>
        <time>2022-04-03T10:01:32Z</time>
      </trkpt>
      <trkpt lat="45.76834" lon="1.10223">
        <ele>279.8</ele>
        <time>2022-04-03T10:01:33Z</time>
      </trkpt>
      <trkpt lat="45.76832" lon="1.1022">
        <ele>279.8</ele>
        <time>2022-04-03T10:01:34Z</time>
      </trkpt>
      <trkpt lat="45.7683" lon="1.10217">
        <ele>280</ele>
        <time>2022-04-03T10:01:35Z</time>
      </trkpt>
      <trkpt lat="45.76829" lon="1.10214">
        <ele>280</ele>
        <time>2022-04-03T10:01:36Z</time>
      </trkpt>
      <trkpt lat="45.76827" lon="1.10211">
        <ele>280</ele>
        <time>2022-04-03T10:01:37Z</time>
      </trkpt>
      <trkpt lat="45.76825" lon="1.10208">
        <ele>280.2</ele>
        <time>2022-04-03T10:01:38Z</time>
      </trkpt>
      <trkpt lat="45.76823" lon="1.10204">
        <ele>280.4</ele>
        <time>2022-04-03T10:01:39Z</time>
      </trkpt>
      <trkpt lat="45.76822" lon="1.10202">
        <ele>280.6</ele>
        <time>2022-04-03T10:01:40Z</time>
      </trkpt>
      <trkpt lat="45.7682" lon="1.10199">
        <ele>280.6</ele>
        <time>2022-04-03T10:01:41Z</time>
      </trkpt>
      <trkpt lat="45.76818" lon="1.10196">
        <ele>280.8</ele>
        <time>2022-04-03T10:01:42Z</time>
      </trkpt>
      <trkpt lat="45.76816" lon="1.10193">
        <ele>280.8</ele>
        <time>2022-04-03T10:01:43Z</time>
      </trkpt>
      <trkpt lat="45.76814" lon="1.1019">
        <ele>281</ele>
        <time>2022-04-03T10:01:44Z</time>
      </trkpt>
      <trkpt lat="45.76812" lon="1.10188">
        <ele>280.8</ele>
        <time>2022-04-03T10:01:45Z</time>
      </trkpt>
      <trkpt lat="45.7681" lon="1.10185">
        <ele>281</ele>
        <time>2022-04-03T10:01:46Z</time>
      </trkpt>
      <trkpt lat="45.76808" lon="1.10183">
        <ele>281.2</ele>
        <time>2022-04-03T10:01:47Z</time>
      </trkpt>
      <trkpt lat="45.76805" lon="1.1018">
        <ele>281.4</ele>
        <time>2022-04-03T10:01:48Z</time>
      </trkpt>
      <trkpt lat="45.76803" lon="1.10178">
        <ele>281.4</ele>
        <time>2022-04-03T10:01:49Z</time>
      </trkpt>
      <trkpt lat="45.76801" lon="1.10175">
        <ele>281.4</ele>
        <time>2022-04-03T10:01:50Z</time>
      </trkpt>
      <trkpt lat="45.76798" lon="1.10173">
        <ele>281.4</ele>
        <time>2022-04-03T10:01:51Z</time>
      </trkpt>
      <trkpt lat="45.76796" lon="1.10171">
        <ele>281.8</ele>
        <time>2022-04-03T10:01:52Z</time>
      </trkpt>
      <trkpt lat="45.76794" lon="1.10168">
        <ele>281.8</ele>
        <time>2022-04-03T10:01:53Z</time>
      </trkpt>
      <trkpt lat="45.76791" lon="1.10166">
        <ele>282</ele>
        <time>2022-04-03T10:01:54Z</time>
      </trkpt>
      <trkpt lat="45.76789" lon="1.10164">
        <ele>282</ele>
        <time>2022-04-03T10:01:55Z</time>
      </trkpt>
      <trkpt lat="45.76786" lon="1.10161">
        <ele>282.2</ele>
        <time>2022-04-03T10:01:56Z</time>
      </trkpt>
      <trkpt lat="45.76784" lon="1.10159">
        <ele>282.2</ele>
        <time>2022-04-03T10:01:57Z</time>
      </trkpt>
      <trkpt lat="45.76782" lon="1.10157">
        <ele>282.2</ele>
        <time>2022-04-03T10:01:58Z</time>
      </trkpt>
      <trkpt lat="45.76779" lon="1.10155">
        <ele>282.4</ele>
        <time>2022-04-03T10:01:59Z</time>
      </trkpt>
      <trkpt lat="45.76777" lon="1.10152">
        <ele>282.4</ele>
        <time>2022-04-03T10:02:00Z</time>
      </trkpt>
      <trkpt lat="45.76775" lon="1.1015">
        <ele>282.2</ele>
        <time>2022-04-03T10:02:01Z</time>
      </trkpt>
      <trkpt lat="45.76772" lon="1.10147">
        <ele>282.4</ele>
        <time>2022-04-03T10:02:02Z</time>
      </trkpt>
      <trkpt lat="45.7677" lon="1.10145">
        <ele>282.4</ele>
        <time>2022-04-03T10:02:03Z</time>
      </trkpt>
      <trkpt lat="45.76768" lon="1.10142">
        <ele>282.6</ele>
        <time>2022-04-03T10:02:04Z</time>
      </trkpt>
      <trkpt lat="45.76766" lon="1.10139">
        <ele>282.4</ele>
        <time>2022-04-03T10:02:05Z</time>
      </trkpt>
      <trkpt lat="45.76764" lon="1.10136">
        <ele>282.4</ele>
        <time>2022-04-03T10:02:06Z</time>
      </trkpt>
      <trkpt lat="45.76763" lon="1.10133">
        <ele>282.4</ele>
        <time>2022-04-03T10:02:07Z</time>
      </trkpt>
      <trkpt lat="45.76761" lon="1.10129">
        <ele>282.4</ele>
        <time>2022-04-03T10:02:08Z</time>
      </trkpt>
      <trkpt lat="45.7676" lon="1.10126">
        <ele>282.6</ele>
        <time>2022-04-03T10:02:09Z</time>
      </trkpt>
      <trkpt lat="45.76759" lon="1.10122">
        <ele>282.6</ele>
        <time>2022-04-03T10:02:10Z</time>
      </trkpt>
      <trkpt lat="45.76759" lon="1.10119">
        <ele>282.6</ele>
        <time>2022-04-03T10:02:11Z</time>
      </trkpt>
      <trkpt lat="45.76758" lon="1.10115">
        <ele>282.6</ele>
        <time>2022-04-03T10:02:12Z</time>
      </trkpt>
      <trkpt lat="45.76757" lon="1.10111">
        <ele>282.8</ele>
        <time>2022-04-03T10:02:13Z</time>
      </trkpt>
      <trkpt lat="45.76756" lon="1.10107">
        <ele>282.8</ele>
        <time>2022-04-03T10:02:14Z</time>
      </trkpt>
      <trkpt lat="45.76756" lon="1.10103">
        <ele>282.6</ele>
        <time>2022-04-03T10:02:15Z</time>
      </trkpt>
      <trkpt lat="45.76756" lon="1.10099">
        <ele>282.8</ele>
        <time>2022-04-03T10:02:16Z</time>
      </trkpt>
      <trkpt lat="45.76756" lon="1.10095">
        <ele>282.8</ele>
        <time>2022-04-03T10:02:17Z</time>
      </trkpt>
      <trkpt lat="45.76755" lon="1.10091">
        <ele>282.8</ele>
        <time>2022-04-03T10:02:18Z</time>
      </trkpt>
      <trkpt lat="45.76755" lon="1.10087">
        <ele>283</ele>
        <time>2022-04-03T10:02:19Z</time>
      </trkpt>
      <trkpt lat="45.76755" lon="1.10083">
        <ele>283</ele>
        <time>2022-04-03T10:02:20Z</time>
      </trkpt>
      <trkpt lat="45.76755" lon="1.10079">
        <ele>283.2</ele>
        <time>2022-04-03T10:02:21Z</time>
      </trkpt>
      <trkpt lat="45.76756" lon="1.10075">
        <ele>283.4</ele>
        <time>2022-04-03T10:02:22Z</time>
      </trkpt>
      <trkpt lat="45.76756" lon="1.10071">
        <ele>283.6</ele>
        <time>2022-04-03T10:02:23Z</time>
      </trkpt>
      <trkpt lat="45.76756" lon="1.10067">
        <ele>283.6</ele>
        <time>2022-04-03T10:02:24Z</time>
      </trkpt>
      <trkpt lat="45.76757" lon="1.10062">
        <ele>283.8</ele>
        <time>2022-04-03T10:02:25Z</time>
      </trkpt>
      <trkpt lat="45.76757" lon="1.10058">
        <ele>283.8</ele>
        <time>2022-04-03T10:02:26Z</time>
      </trkpt>
      <trkpt lat="45.76757" lon="1.10054">
        <ele>283.8</ele>
        <time>2022-04-03T10:02:27Z</time>
      </trkpt>
      <trkpt lat="45.76757" lon="1.1005">
        <ele>284</ele>
        <time>2022-04-03T10:02:28Z</time>
      </trkpt>
      <trkpt lat="45.76757" lon="1.10046">
        <ele>284.2</ele>
        <time>2022-04-03T10:02:29Z</time>
      </trkpt>
      <trkpt lat="45.76758" lon="1.10042">
        <ele>284</ele>
        <time>2022-04-03T10:02:30Z</time>
      </trkpt>
      <trkpt lat="45.76758" lon="1.10038">
        <ele>284.4</ele>
        <time>2022-04-03T10:02:31Z</time>
      </trkpt>
      <trkpt lat="45.76758" lon="1.10034">
        <ele>284.2</ele>
        <time>2022-04-03T10:02:32Z</time>
      </trkpt>
      <trkpt lat="45.76758" lon="1.1003">
        <ele>284.4</ele>
        <time>2022-04-03T10:02:33Z</time>
      </trkpt>
      <trkpt lat="45.76759" lon="1.10026">
        <ele>284.6</ele>
        <time>2022-04-03T10:02:34Z</time>
      </trkpt>
      <trkpt lat="45.76759" lon="1.10022">
        <ele>284.6</ele>
        <time>2022-04-03T10:02:35Z</time>
      </trkpt>
      <trkpt lat="45.7676" lon="1.10018">
        <ele>284.8</ele>
        <time>2022-04-03T10:02:36Z</time>
      </trkpt>
      <trkpt lat="45.7676" lon="1.10014">
        <ele>284.8</ele>
        <time>2022-04-03T10:02:37Z</time>
      </trkpt>
      <trkpt lat="45.7676" lon="1.1001">
        <ele>285</ele>
        <time>2022-04-03T10:02:38Z</time>
      </trkpt>
      <trkpt lat="45.7676" lon="1.10006">
        <ele>285</ele>
        <time>2022-04-03T10:02:39Z</time>
      </trkpt>
      <trkpt lat="45.7676" lon="1.10002">
        <ele>285.2</ele>
        <time>2022-04-03T10:02:40Z</time>
      </trkpt>
      <trkpt lat="45.7676" lon="1.09998">
        <ele>285.4</ele>
        <time>2022-04-03T10:02:41Z</time>
      </trkpt>
      <trkpt lat="45.7676" lon="1.09994">
        <ele>285.2</ele>
        <time>2022-04-03T10:02:42Z</time>
      </trkpt>
      <trkpt lat="45.7676" lon="1.0999">
        <ele>285.6</ele>
        <time>2022-04-03T10:02:43Z</time>
      </trkpt>
      <trkpt lat="45.7676" lon="1.09986">
        <ele>285.8</ele>
        <time>2022-04-03T10:02:44Z</time>
      </trkpt>
      <trkpt lat="45.7676" lon="1.09982">
        <ele>286</ele>
        <time>2022-04-03T10:02:45Z</time>
      </trkpt>
      <trkpt lat="45.7676" lon="1.09978">
        <ele>286</ele>
        <time>2022-04-03T10:02:46Z</time>
      </trkpt>
      <trkpt lat="45.76759" lon="1.09974">
        <ele>286.2</ele>
        <time>2022-04-03T10:02:47Z</time>
      </trkpt>
      <trkpt lat="45.76759" lon="1.0997">
        <ele>286.2</ele>
        <time>2022-04-03T10:02:48Z</time>
      </trkpt>
      <trkpt lat="45.76758" lon="1.09966">
        <ele>286.4</ele>
        <time>2022-04-03T10:02:49Z</time>
      </trkpt>
      <trkpt lat="45.76758" lon="1.09962">
        <ele>286.6</ele>
        <time>2022-04-03T10:02:50Z</time>
      </trkpt>
      <trkpt lat="45.76758" lon="1.09958">
        <ele>286.6</ele>
        <time>2022-04-03T10:02:51Z</time>
      </trkpt>
      <trkpt lat="45.76757" lon="1.09954">
        <ele>286.8</ele>
        <time>2022-04-03T10:02:52Z</time>
      </trkpt>
      <trkpt lat="45.76757" lon="1.0995">
        <ele>286.8</ele>
        <time>2022-04-03T10:02:53Z</time>
      </trkpt>
      <trkpt lat="45.76756" lon="1.09946">
        <ele>287</ele>
        <time>2022-04-03T10:02:54Z</time>
      </trkpt>
      <trkpt lat="45.76756" lon="1.09942">
        <ele>287.4</ele>
        <time>2022-04-03T10:02:55Z</time>
      </trkpt>
      <trkpt lat="45.76755" lon="1.09938">
        <ele>287.4</ele>
        <time>2022-04-03T10:02:56Z</time>
      </trkpt>
      <trkpt lat="45.76754" lon="1.09934">
        <ele>287.6</ele>
        <time>2022-04-03T10:02:57Z</time>
      </trkpt>
      <trkpt lat="45.76754" lon="1.0993">
        <ele>287.6</ele>
        <time>2022-04-03T10:02:58Z</time>
      </trkpt>
      <trkpt lat="45.76753" lon="1.09926">
        <ele>287.4</ele>
        <time>2022-04-03T10:02:59Z</time>
      </trkpt>
      <trkpt lat="45.76752" lon="1.09922">
        <ele>287.6</ele>
        <time>2022-04-03T10:03:00Z</time>
      </trkpt>
      <trkpt lat="45.76752" lon="1.09918">
        <ele>287.8</ele>
        <time>2022-04-03T10:03:01Z</time>
      </trkpt>
      <trkpt lat="45.76751" lon="1.09914">
        <ele>287.8</ele>
        <time>2022-04-03T10:03:02Z</time>
      </trkpt>
      <trkpt lat="45.7675" lon="1.0991">
        <ele>287.8</ele>
        <time>2022-04-03T10:03:03Z</time>
      </trkpt>
      <trkpt lat="45.7675" lon="1.09906">
        <ele>288</ele>
        <time>2022-04-03T10:03:04Z</time>
      </trkpt>
      <trkpt lat="45.76749" lon="1.09902">
        <ele>288</ele>
        <time>2022-04-03T10:03:05Z</time>
      </trkpt>
      <trkpt lat="45.76748" lon="1.09898">
        <ele>288.2</ele>
        <time>2022-04-03T10:03:06Z</time>
      </trkpt>
      <trkpt lat="45.76748" lon="1.09894">
        <ele>288</ele>
        <time>2022-04-03T10:03:07Z</time>
      </trkpt>
      <trkpt lat="45.76747" lon="1.0989">
        <ele>288.2</ele>
        <time>2022-04-03T10:03:08Z</time>
      </trkpt>
      <trkpt lat="45.76746" lon="1.09886">
        <ele>288.4</ele>
        <time>2022-04-03T10:03:09Z</time>
      </trkpt>
      <trkpt lat="45.76746" lon="1.09882">
        <ele>288.4</ele>
        <time>2022-04-03T10:03:10Z</time>
      </trkpt>
      <trkpt lat="45.76745" lon="1.09878">
        <ele>288.4</ele>
        <time>2022-04-03T10:03:11Z</time>
      </trkpt>
      <trkpt lat="45.76744" lon="1.09874">
        <ele>288.6</ele>
        <time>2022-04-03T10:03:12Z</time>
      </trkpt>
      <trkpt lat="45.76744" lon="1.0987">
        <ele>288.8</ele>
        <time>2022-04-03T10:03:13Z</time>
      </trkpt>
      <trkpt lat="45.76743" lon="1.09866">
        <ele>288.8</ele>
        <time>2022-04-03T10:03:14Z</time>
      </trkpt>
      <trkpt lat="45.76742" lon="1.09862">
        <ele>289</ele>
        <time>2022-04-03T10:03:15Z</time>
      </trkpt>
      <trkpt lat="45.76741" lon="1.09858">
        <ele>289</ele>
        <time>2022-04-03T10:03:16Z</time>
      </trkpt>
      <trkpt lat="45.76741" lon="1.09854">
        <ele>289.2</ele>
        <time>2022-04-03T10:03:17Z</time>
      </trkpt>
      <trkpt lat="45.7674" lon="1.0985">
        <ele>289.4</ele>
        <time>2022-04-03T10:03:18Z</time>
      </trkpt>
      <trkpt lat="45.76739" lon="1.09846">
        <ele>289.4</ele>
        <time>2022-04-03T10:03:19Z</time>
      </trkpt>
      <trkpt lat="45.76739" lon="1.09842">
        <ele>289.4</ele>
        <time>2022-04-03T10:03:20Z</time>
      </trkpt>
      <trkpt lat="45.76738" lon="1.09838">
        <ele>289.6</ele>
        <time>2022-04-03T10:03:21Z</time>
      </trkpt>
      <trkpt lat="45.76738" lon="1.09835">
        <ele>289.6</ele>
        <time>2022-04-03T10:03:22Z</time>
      </trkpt>
      <trkpt lat="45.76737" lon="1.09831">
        <ele>289.8</ele>
        <time>2022-04-03T10:03:23Z</time>
      </trkpt>
      <trkpt lat="45.76736" lon="1.09827">
        <ele>289.8</ele>
        <time>2022-04-03T10:03:24Z</time>
      </trkpt>
      <trkpt lat="45.76736" lon="1.09823">
        <ele>289.8</ele>
        <time>2022-04-03T10:03:25Z</time>
      </trkpt>
      <trkpt lat="45.76735" lon="1.0982">
        <ele>289.8</ele>
        <time>2022-04-03T10:03:26Z</time>
      </trkpt>
      <trkpt lat="45.76734" lon="1.09816">
        <ele>290</ele>
        <time>2022-04-03T10:03:27Z</time>
      </trkpt>
      <trkpt lat="45.76733" lon="1.09812">
        <ele>290.2</ele>
        <time>2022-04-03T10:03:28Z</time>
      </trkpt>
      <trkpt lat="45.76732" lon="1.09809">
        <ele>290</ele>
        <time>2022-04-03T10:03:29Z</time>
      </trkpt>
      <trkpt lat="45.76731" lon="1.09805">
        <ele>290.2</ele>
        <time>2022-04-03T10:03:30Z</time>
      </trkpt>
      <trkpt lat="45.7673" lon="1.09801">
        <ele>290.2</ele>
        <time>2022-04-03T10:03:31Z</time>
      </trkpt>
      <trkpt lat="45.76729" lon="1.09797">
        <ele>290.4</ele>
        <time>2022-04-03T10:03:32Z</time>
      </trkpt>
      <trkpt lat="45.76728" lon="1.09794">
        <ele>290.4</ele>
        <time>2022-04-03T10:03:33Z</time>
      </trkpt>
      <trkpt lat="45.76727" lon="1.0979">
        <ele>290.4</ele>
        <time>2022-04-03T10:03:34Z</time>
      </trkpt>
      <trkpt lat="45.76726" lon="1.09787">
        <ele>290.8</ele>
        <time>2022-04-03T10:03:35Z</time>
      </trkpt>
      <trkpt lat="45.76724" lon="1.09783">
        <ele>291</ele>
        <time>2022-04-03T10:03:36Z</time>
      </trkpt>
      <trkpt lat="45.76723" lon="1.0978">
        <ele>291</ele>
        <time>2022-04-03T10:03:37Z</time>
      </trkpt>
      <trkpt lat="45.76722" lon="1.09777">
        <ele>291.2</ele>
        <time>2022-04-03T10:03:38Z</time>
      </trkpt>
      <trkpt lat="45.7672" lon="1.09773">
        <ele>291.4</ele>
        <time>2022-04-03T10:03:39Z</time>
      </trkpt>
      <trkpt lat="45.76718" lon="1.09771">
        <ele>291.4</ele>
        <time>2022-04-03T10:03:40Z</time>
      </trkpt>
      <trkpt lat="45.76716" lon="1.09768">
        <ele>291.6</ele>
        <time>2022-04-03T10:03:41Z</time>
      </trkpt>
      <trkpt lat="45.76714" lon="1.09765">
        <ele>291.6</ele>
        <time>2022-04-03T10:03:42Z</time>
      </trkpt>
      <trkpt lat="45.76712" lon="1.09762">
        <ele>291.6</ele>
        <time>2022-04-03T10:03:43Z</time>
      </trkpt>
      <trkpt lat="45.7671" lon="1.0976">
        <ele>291.8</ele>
        <time>2022-04-03T10:03:44Z</time>
      </trkpt>
      <trkpt lat="45.76708" lon="1.09757">
        <ele>292</ele>
        <time>2022-04-03T10:03:45Z</time>
      </trkpt>
      <trkpt lat="45.76706" lon="1.09754">
        <ele>292.2</ele>
        <time>2022-04-03T10:03:46Z</time>
      </trkpt>
      <trkpt lat="45.76704" lon="1.09752">
        <ele>292</ele>
        <time>2022-04-03T10:03:47Z</time>
      </trkpt>
      <trkpt lat="45.76702" lon="1.09749">
        <ele>292.4</ele>
        <time>2022-04-03T10:03:48Z</time>
      </trkpt>
      <trkpt lat="45.76699" lon="1.09747">
        <ele>292.4</ele>
        <time>2022-04-03T10:03:49Z</time>
      </trkpt>
      <trkpt lat="45.76697" lon="1.09744">
        <ele>292.4</ele>
        <time>2022-04-03T10:03:50Z</time>
      </trkpt>
      <trkpt lat="45.76695" lon="1.09742">
        <ele>292.8</ele>
        <time>2022-04-03T10:03:51Z</time>
      </trkpt>
      <trkpt lat="45.76692" lon="1.09739">
        <ele>292.8</ele>
        <time>2022-04-03T10:03:52Z</time>
      </trkpt>
      <trkpt lat="45.7669" lon="1.09736">
        <ele>293</ele>
        <time>2022-04-03T10:03:53Z</time>
      </trkpt>
      <trkpt lat="45.76688" lon="1.09733">
        <ele>293</ele>
        <time>2022-04-03T10:03:54Z</time>
      </trkpt>
      <trkpt lat="45.76686" lon="1.0973">
        <ele>293</ele>
        <time>2022-04-03T10:03:55Z</time>
      </trkpt>
      <trkpt lat="45.76684" lon="1.09727">
        <ele>293</ele>
        <time>2022-04-03T10:03:56Z</time>
      </trkpt>
      <trkpt lat="45.76682" lon="1.09724">
        <ele>293</ele>
        <time>2022-04-03T10:03:57Z</time>
      </trkpt>
      <trkpt lat="45.7668" lon="1.09721">
        <ele>293.2</ele>
        <time>2022-04-03T10:03:58Z</time>
      </trkpt>
      <trkpt lat="45.76678" lon="1.09717">
        <ele>293.4</ele>
        <time>2022-04-03T10:03:59Z</time>
      </trkpt>
      <trkpt lat="45.76676" lon="1.09714">
        <ele>293.4</ele>
        <time>2022-04-03T10:04:00Z</time>
      </trkpt>
      <trkpt lat="45.76675" lon="1.0971">
        <ele>293.4</ele>
        <time>2022-04-03T10:04:01Z</time>
      </trkpt>
      <trkpt lat="45.76673" lon="1.09707">
        <ele>293.4</ele>
        <time>2022-04-03T10:04:02Z</time>
      </trkpt>
      <trkpt lat="45.76672" lon="1.09703">
        <ele>293.4</ele>
        <time>2022-04-03T10:04:03Z</time>
      </trkpt>
      <trkpt lat="45.7667" lon="1.097">
        <ele>293.6</ele>
        <time>2022-04-03T10:04:04Z</time>
      </trkpt>
      <trkpt lat="45.76669" lon="1.09696">
        <ele>293.6</ele>
        <time>2022-04-03T10:04:05Z</time>
      </trkpt>
      <trkpt lat="45.76668" lon="1.09692">
        <ele>293.8</ele>
        <time>2022-04-03T10:04:06Z</time>
      </trkpt>
      <trkpt lat="45.76666" lon="1.09688">
        <ele>293.6</ele>
        <time>2022-04-03T10:04:07Z</time>
      </trkpt>
      <trkpt lat="45.76665" lon="1.09685">
        <ele>293.8</ele>
        <time>2022-04-03T10:04:08Z</time>
      </trkpt>
      <trkpt lat="45.76664" lon="1.09681">
        <ele>293.8</ele>
        <time>2022-04-03T10:04:09Z</time>
      </trkpt>
      <trkpt lat="45.76662" lon="1.09677">
        <ele>293.8</ele>
        <time>2022-04-03T10:04:10Z</time>
      </trkpt>
      <trkpt lat="45.76661" lon="1.09674">
        <ele>294</ele>
        <time>2022-04-03T10:04:11Z</time>
      </trkpt>
      <trkpt lat="45.7666" lon="1.0967">
        <ele>294</ele>
        <time>2022-04-03T10:04:12Z</time>
      </trkpt>
      <trkpt lat="45.76659" lon="1.09666">
        <ele>294.2</ele>
        <time>2022-04-03T10:04:13Z</time>
      </trkpt>
      <trkpt lat="45.76658" lon="1.09662">
        <ele>294.2</ele>
        <time>2022-04-03T10:04:14Z</time>
      </trkpt>
      <trkpt lat="45.76657" lon="1.09659">
        <ele>294.4</ele>
        <time>2022-04-03T10:04:15Z</time>
      </trkpt>
      <trkpt lat="45.76655" lon="1.09655">
        <ele>294.4</ele>
        <time>2022-04-03T10:04:16Z</time>
      </trkpt>
      <trkpt lat="45.76654" lon="1.09651">
        <ele>294.6</ele>
        <time>2022-04-03T10:04:17Z</time>
      </trkpt>
      <trkpt lat="45.76653" lon="1.09647">
        <ele>294.6</ele>
        <time>2022-04-03T10:04:18Z</time>
      </trkpt>
      <trkpt lat="45.76652" lon="1.09644">
        <ele>294.8</ele>
        <time>2022-04-03T10:04:19Z</time>
      </trkpt>
      <trkpt lat="45.76651" lon="1.0964">
        <ele>295</ele>
        <time>2022-04-03T10:04:20Z</time>
      </trkpt>
      <trkpt lat="45.7665" lon="1.09636">
        <ele>295</ele>
        <time>2022-04-03T10:04:21Z</time>
      </trkpt>
      <trkpt lat="45.76649" lon="1.09632">
        <ele>295.2</ele>
        <time>2022-04-03T10:04:22Z</time>
      </trkpt>
      <trkpt lat="45.76648" lon="1.09628">
        <ele>295</ele>
        <time>2022-04-03T10:04:23Z</time>
      </trkpt>
      <trkpt lat="45.76647" lon="1.09625">
        <ele>295.2</ele>
        <time>2022-04-03T10:04:24Z</time>
      </trkpt>
      <trkpt lat="45.76646" lon="1.09621">
        <ele>295.2</ele>
        <time>2022-04-03T10:04:25Z</time>
      </trkpt>
      <trkpt lat="45.76645" lon="1.09617">
        <ele>295.2</ele>
        <time>2022-04-03T10:04:26Z</time>
      </trkpt>
      <trkpt lat="45.76644" lon="1.09614">
        <ele>295.4</ele>
        <time>2022-04-03T10:04:27Z</time>
      </trkpt>
      <trkpt lat="45.76644" lon="1.0961">
        <ele>295.4</ele>
        <time>2022-04-03T10:04:28Z</time>
      </trkpt>
      <trkpt lat="45.76643" lon="1.09606">
        <ele>295.6</ele>
        <time>2022-04-03T10:04:29Z</time>
      </trkpt>
      <trkpt lat="45.76642" lon="1.09602">
        <ele>295.8</ele>
        <time>2022-04-03T10:04:30Z</time>
      </trkpt>
      <trkpt lat="45.76641" lon="1.09599">
        <ele>295.8</ele>
        <time>2022-04-03T10:04:31Z</time>
      </trkpt>
      <trkpt lat="45.76641" lon="1.09595">
        <ele>295.8</ele>
        <time>2022-04-03T10:04:32Z</time>
      </trkpt>
      <trkpt lat="45.7664" lon="1.09591">
        <ele>296</ele>
        <time>2022-04-03T10:04:33Z</time>
      </trkpt>
      <trkpt lat="45.76639" lon="1.09587">
        <ele>296.2</ele>
        <time>2022-04-03T10:04:34Z</time>
      </trkpt>
      <trkpt lat="45.76639" lon="1.09584">
        <ele>296.4</ele>
        <time>2022-04-03T10:04:35Z</time>
      </trkpt>
      <trkpt lat="45.76638" lon="1.0958">
        <ele>296.4</ele>
        <time>2022-04-03T10:04:36Z</time>
      </trkpt>
      <trkpt lat="45.76638" lon="1.09576">
        <ele>296.6</ele>
        <time>2022-04-03T10:04:37Z</time>
      </trkpt>
      <trkpt lat="45.76637" lon="1.09573">
        <ele>296.8</ele>
        <time>2022-04-03T10:04:38Z</time>
      </trkpt>
      <trkpt lat="45.76637" lon="1.09569">
        <ele>297</ele>
        <time>2022-04-03T10:04:39Z</time>
      </trkpt>
      <trkpt lat="45.76637" lon="1.09566">
        <ele>297</ele>
        <time>2022-04-03T10:04:40Z</time>
      </trkpt>
      <trkpt lat="45.76636" lon="1.09562">
        <ele>297.2</ele>
        <time>2022-04-03T10:04:41Z</time>
      </trkpt>
      <trkpt lat="45.76636" lon="1.09559">
        <ele>297.2</ele>
        <time>2022-04-03T10:04:42Z</time>
      </trkpt>
      <trkpt lat="45.76635" lon="1.09555">
        <ele>297.6</ele>
        <time>2022-04-03T10:04:43Z</time>
      </trkpt>
      <trkpt lat="45.76635" lon="1.09552">
        <ele>297.8</ele>
        <time>2022-04-03T10:04:44Z</time>
      </trkpt>
      <trkpt lat="45.76634" lon="1.09549">
        <ele>297.8</ele>
        <time>2022-04-03T10:04:45Z</time>
      </trkpt>
      <trkpt lat="45.76634" lon="1.09546">
        <ele>297.8</ele>
        <time>2022-04-03T10:04:46Z</time>
      </trkpt>
      <trkpt lat="45.76633" lon="1.09543">
        <ele>298</ele>
        <time>2022-04-03T10:04:47Z</time>
      </trkpt>
      <trkpt lat="45.76633" lon="1.0954">
        <ele>298</ele>
        <time>2022-04-03T10:04:48Z</time>
      </trkpt>
      <trkpt lat="45.76633" lon="1.09537">
        <ele>298.2</ele>
        <time>2022-04-03T10:04:49Z</time>
      </trkpt>
      <trkpt lat="45.76632" lon="1.09534">
        <ele>298.4</ele>
        <time>2022-04-03T10:04:50Z</time>
      </trkpt>
      <trkpt lat="45.76632" lon="1.09531">
        <ele>298.6</ele>
        <time>2022-04-03T10:04:51Z</time>
      </trkpt>
      <trkpt lat="45.76631" lon="1.09527">
        <ele>298.8</ele>
        <time>2022-04-03T10:04:52Z</time>
      </trkpt>
      <trkpt lat="45.76631" lon="1.09524">
        <ele>299</ele>
        <time>2022-04-03T10:04:53Z</time>
      </trkpt>
      <trkpt lat="45.7663" lon="1.09521">
        <ele>299.2</ele>
        <time>2022-04-03T10:04:54Z</time>
      </trkpt>
      <trkpt lat="45.76629" lon="1.09518">
        <ele>299.4</ele>
        <time>2022-04-03T10:04:55Z</time>
      </trkpt>
      <trkpt lat="45.76629" lon="1.09514">
        <ele>299.6</ele>
        <time>2022-04-03T10:04:56Z</time>
      </trkpt>
      <trkpt lat="45.76628" lon="1.09511">
        <ele>299.8</ele>
        <time>2022-04-03T10:04:57Z</time>
      </trkpt>
      <trkpt lat="45.76627" lon="1.09508">
        <ele>300</ele>
        <time>2022-04-03T10:04:58Z</time>
      </trkpt>
      <trkpt lat="45.76627" lon="1.09505">
        <ele>300</ele>
        <time>2022-04-03T10:04:59Z</time>
      </trkpt>
      <trkpt lat="45.76626" lon="1.09501">
        <ele>300.2</ele>
        <time>2022-04-03T10:05:00Z</time>
      </trkpt>
      <trkpt lat="45.76625" lon="1.09498">
        <ele>300.2</ele>
        <time>2022-04-03T10:05:01Z</time>
      </trkpt>
      <trkpt lat="45.76624" lon="1.09495">
        <ele>300.6</ele>
        <time>2022-04-03T10:05:02Z</time>
      </trkpt>
      <trkpt lat="45.76623" lon="1.09492">
        <ele>300.6</ele>
        <time>2022-04-03T10:05:03Z</time>
      </trkpt>
      <trkpt lat="45.76623" lon="1.09489">
        <ele>300.8</ele>
        <time>2022-04-03T10:05:04Z</time>
      </trkpt>
      <trkpt lat="45.76622" lon="1.09486">
        <ele>300.8</ele>
        <time>2022-04-03T10:05:05Z</time>
      </trkpt>
      <trkpt lat="45.76621" lon="1.09483">
        <ele>301</ele>
        <time>2022-04-03T10:05:06Z</time>
      </trkpt>
      <trkpt lat="45.7662" lon="1.0948">
        <ele>301.2</ele>
        <time>2022-04-03T10:05:07Z</time>
      </trkpt>
      <trkpt lat="45.76619" lon="1.09477">
        <ele>301.4</ele>
        <time>2022-04-03T10:05:08Z</time>
      </trkpt>
      <trkpt lat="45.76618" lon="1.09474">
        <ele>301.8</ele>
        <time>2022-04-03T10:05:09Z</time>
      </trkpt>
      <trkpt lat="45.76617" lon="1.09471">
        <ele>302</ele>
        <time>2022-04-03T10:05:10Z</time>
      </trkpt>
      <trkpt lat="45.76616" lon="1.09469">
        <ele>302</ele>
        <time>2022-04-03T10:05:11Z</time>
      </trkpt>
      <trkpt lat="45.76615" lon="1.09466">
        <ele>302.4</ele>
        <time>2022-04-03T10:05:12Z</time>
      </trkpt>
      <trkpt lat="45.76614" lon="1.09463">
        <ele>302.4</ele>
        <time>2022-04-03T10:05:13Z</time>
      </trkpt>
      <trkpt lat="45.76613" lon="1.0946">
        <ele>302.6</ele>
        <time>2022-04-03T10:05:14Z</time>
      </trkpt>
      <trkpt lat="45.76612" lon="1.09457">
        <ele>302.8</ele>
        <time>2022-04-03T10:05:15Z</time>
      </trkpt>
      <trkpt lat="45.76611" lon="1.09454">
        <ele>303</ele>
        <time>2022-04-03T10:05:16Z</time>
      </trkpt>
      <trkpt lat="45.7661" lon="1.09451">
        <ele>303.2</ele>
        <time>2022-04-03T10:05:17Z</time>
      </trkpt>
      <trkpt lat="45.76609" lon="1.09448">
        <ele>303.2</ele>
        <time>2022-04-03T10:05:18Z</time>
      </trkpt>
      <trkpt lat="45.76607" lon="1.09445">
        <ele>303.4</ele>
        <time>2022-04-03T10:05:19Z</time>
      </trkpt>
      <trkpt lat="45.76606" lon="1.09443">
        <ele>303.6</ele>
        <time>2022-04-03T10:05:20Z</time>
      </trkpt>
      <trkpt lat="45.76605" lon="1.0944">
        <ele>303.8</ele>
        <time>2022-04-03T10:05:21Z</time>
      </trkpt>
      <trkpt lat="45.76604" lon="1.09437">
        <ele>304</ele>
        <time>2022-04-03T10:05:22Z</time>
      </trkpt>
      <trkpt lat="45.76603" lon="1.09433">
        <ele>304.2</ele>
        <time>2022-04-03T10:05:23Z</time>
      </trkpt>
      <trkpt lat="45.76602" lon="1.0943">
        <ele>304.4</ele>
        <time>2022-04-03T10:05:24Z</time>
      </trkpt>
      <trkpt lat="45.76601" lon="1.09427">
        <ele>304.4</ele>
        <time>2022-04-03T10:05:25Z</time>
      </trkpt>
      <trkpt lat="45.766" lon="1.09425">
        <ele>304.6</ele>
        <time>2022-04-03T10:05:26Z</time>
      </trkpt>
      <trkpt lat="45.76599" lon="1.09422">
        <ele>304.8</ele>
        <time>2022-04-03T10:05:27Z</time>
      </trkpt>
      <trkpt lat="45.76598" lon="1.09419">
        <ele>305</ele>
        <time>2022-04-03T10:05:28Z</time>
      </trkpt>
      <trkpt lat="45.76597" lon="1.09416">
        <ele>305.2</ele>
        <time>2022-04-03T10:05:29Z</time>
      </trkpt>
      <trkpt lat="45.76596" lon="1.09414">
        <ele>305.2</ele>
        <time>2022-04-03T10:05:30Z</time>
      </trkpt>
      <trkpt lat="45.76595" lon="1.09411">
        <ele>305.6</ele>
        <time>2022-04-03T10:05:31Z</time>
      </trkpt>
      <trkpt lat="45.76594" lon="1.09409">
        <ele>305.6</ele>
        <time>2022-04-03T10:05:32Z</time>
      </trkpt>
      <trkpt lat="45.76593" lon="1.09406">
        <ele>305.8</ele>
        <time>2022-04-03T10:05:33Z</time>
      </trkpt>
      <trkpt lat="45.76592" lon="1.09403">
        <ele>306</ele>
        <time>2022-04-03T10:05:34Z</time>
      </trkpt>
      <trkpt lat="45.7659" lon="1.094">
        <ele>306</ele>
        <time>2022-04-03T10:05:35Z</time>
      </trkpt>
      <trkpt lat="45.76589" lon="1.09398">
        <ele>306.2</ele>
        <time>2022-04-03T10:05:36Z</time>
      </trkpt>
      <trkpt lat="45.76588" lon="1.09395">
        <ele>306.2</ele>
        <time>2022-04-03T10:05:37Z</time>
      </trkpt>
      <trkpt lat="45.76587" lon="1.09392">
        <ele>306.4</ele>
        <time>2022-04-03T10:05:38Z</time>
      </trkpt>
      <trkpt lat="45.76586" lon="1.09389">
        <ele>306.6</ele>
        <time>2022-04-03T10:05:39Z</time>
      </trkpt>
      <trkpt lat="45.76585" lon="1.09387">
        <ele>306.8</ele>
        <time>2022-04-03T10:05:40Z</time>
      </trkpt>
      <trkpt lat="45.76584" lon="1.09384">
        <ele>306.8</ele>
        <time>2022-04-03T10:05:41Z</time>
      </trkpt>
      <trkpt lat="45.76583" lon="1.09381">
        <ele>306.8</ele>
        <time>2022-04-03T10:05:42Z</time>
      </trkpt>
      <trkpt lat="45.76582" lon="1.09378">
        <ele>307</ele>
        <time>2022-04-03T10:05:43Z</time>
      </trkpt>
      <trkpt lat="45.76581" lon="1.09375">
        <ele>307</ele>
        <time>2022-04-03T10:05:44Z</time>
      </trkpt>
      <trkpt lat="45.7658" lon="1.09373">
        <ele>307</ele>
        <time>2022-04-03T10:05:45Z</time>
      </trkpt>
      <trkpt lat="45.76578" lon="1.0937">
        <ele>307.2</ele>
        <time>2022-04-03T10:05:46Z</time>
      </trkpt>
      <trkpt lat="45.76577" lon="1.09367">
        <ele>307.4</ele>
        <time>2022-04-03T10:05:47Z</time>
      </trkpt>
      <trkpt lat="45.76577" lon="1.09364">
        <ele>307.4</ele>
        <time>2022-04-03T10:05:48Z</time>
      </trkpt>
      <trkpt lat="45.76576" lon="1.09362">
        <ele>307.6</ele>
        <time>2022-04-03T10:05:49Z</time>
      </trkpt>
      <trkpt lat="45.76575" lon="1.09359">
        <ele>307.6</ele>
        <time>2022-04-03T10:05:50Z</time>
      </trkpt>
      <trkpt lat="45.76574" lon="1.09356">
        <ele>307.8</ele>
        <time>2022-04-03T10:05:51Z</time>
      </trkpt>
      <trkpt lat="45.76573" lon="1.09353">
        <ele>308</ele>
        <time>2022-04-03T10:05:52Z</time>
      </trkpt>
      <trkpt lat="45.76571" lon="1.0935">
        <ele>308.2</ele>
        <time>2022-04-03T10:05:53Z</time>
      </trkpt>
      <trkpt lat="45.7657" lon="1.09348">
        <ele>308.2</ele>
        <time>2022-04-03T10:05:54Z</time>
      </trkpt>
      <trkpt lat="45.76569" lon="1.09345">
        <ele>308.2</ele>
        <time>2022-04-03T10:05:55Z</time>
      </trkpt>
      <trkpt lat="45.76568" lon="1.09342">
        <ele>308.4</ele>
        <time>2022-04-03T10:05:56Z</time>
      </trkpt>
      <trkpt lat="45.76567" lon="1.09339">
        <ele>308.6</ele>
        <time>2022-04-03T10:05:57Z</time>
      </trkpt>
      <trkpt lat="45.76566" lon="1.09336">
        <ele>308.8</ele>
        <time>2022-04-03T10:05:58Z</time>
      </trkpt>
      <trkpt lat="45.76565" lon="1.09334">
        <ele>308.8</ele>
        <time>2022-04-03T10:05:59Z</time>
      </trkpt>
      <trkpt lat="45.76563" lon="1.0933">
        <ele>309.2</ele>
        <time>2022-04-03T10:06:00Z</time>
      </trkpt>
      <trkpt lat="45.76562" lon="1.09327">
        <ele>309.2</ele>
        <time>2022-04-03T10:06:01Z</time>
      </trkpt>
      <trkpt lat="45.76561" lon="1.09323">
        <ele>309.2</ele>
        <time>2022-04-03T10:06:02Z</time>
      </trkpt>
      <trkpt lat="45.7656" lon="1.0932">
        <ele>309.4</ele>
        <time>2022-04-03T10:06:03Z</time>
      </trkpt>
      <trkpt lat="45.76558" lon="1.09316">
        <ele>309.6</ele>
        <time>2022-04-03T10:06:04Z</time>
      </trkpt>
      <trkpt lat="45.76557" lon="1.09312">
        <ele>309.6</ele>
        <time>2022-04-03T10:06:05Z</time>
      </trkpt>
      <trkpt lat="45.76555" lon="1.09309">
        <ele>309.6</ele>
        <time>2022-04-03T10:06:06Z</time>
      </trkpt>
      <trkpt lat="45.76554" lon="1.09305">
        <ele>309.8</ele>
        <time>2022-04-03T10:06:07Z</time>
      </trkpt>
      <trkpt lat="45.76553" lon="1.09301">
        <ele>309.8</ele>
        <time>2022-04-03T10:06:08Z</time>
      </trkpt>
      <trkpt lat="45.76552" lon="1.09297">
        <ele>309.8</ele>
        <time>2022-04-03T10:06:09Z</time>
      </trkpt>
      <trkpt lat="45.76551" lon="1.09293">
        <ele>310</ele>
        <time>2022-04-03T10:06:10Z</time>
      </trkpt>
      <trkpt lat="45.7655" lon="1.09288">
        <ele>310</ele>
        <time>2022-04-03T10:06:11Z</time>
      </trkpt>
      <trkpt lat="45.76549" lon="1.09284">
        <ele>310</ele>
        <time>2022-04-03T10:06:12Z</time>
      </trkpt>
      <trkpt lat="45.76548" lon="1.09279">
        <ele>310.2</ele>
        <time>2022-04-03T10:06:13Z</time>
      </trkpt>
      <trkpt lat="45.76547" lon="1.09275">
        <ele>310.2</ele>
        <time>2022-04-03T10:06:14Z</time>
      </trkpt>
      <trkpt lat="45.76546" lon="1.0927">
        <ele>310.2</ele>
        <time>2022-04-03T10:06:15Z</time>
      </trkpt>
      <trkpt lat="45.76545" lon="1.09265">
        <ele>310.4</ele>
        <time>2022-04-03T10:06:16Z</time>
      </trkpt>
      <trkpt lat="45.76545" lon="1.0926">
        <ele>310.4</ele>
        <time>2022-04-03T10:06:17Z</time>
      </trkpt>
      <trkpt lat="45.76544" lon="1.09255">
        <ele>310.2</ele>
        <time>2022-04-03T10:06:18Z</time>
      </trkpt>
      <trkpt lat="45.76544" lon="1.0925">
        <ele>310.4</ele>
        <time>2022-04-03T10:06:19Z</time>
      </trkpt>
      <trkpt lat="45.76543" lon="1.09245">
        <ele>310.4</ele>
        <time>2022-04-03T10:06:20Z</time>
      </trkpt>
      <trkpt lat="45.76543" lon="1.09239">
        <ele>310.4</ele>
        <time>2022-04-03T10:06:21Z</time>
      </trkpt>
      <trkpt lat="45.76542" lon="1.09234">
        <ele>310.6</ele>
        <time>2022-04-03T10:06:22Z</time>
      </trkpt>
      <trkpt lat="45.76542" lon="1.09229">
        <ele>310.4</ele>
        <time>2022-04-03T10:06:23Z</time>
      </trkpt>
      <trkpt lat="45.76542" lon="1.09224">
        <ele>310.4</ele>
        <time>2022-04-03T10:06:24Z</time>
      </trkpt>
      <trkpt lat="45.76542" lon="1.09218">
        <ele>310.4</ele>
        <time>2022-04-03T10:06:25Z</time>
      </trkpt>
      <trkpt lat="45.76541" lon="1.09213">
        <ele>310.4</ele>
        <time>2022-04-03T10:06:26Z</time>
      </trkpt>
      <trkpt lat="45.76541" lon="1.09207">
        <ele>310.4</ele>
        <time>2022-04-03T10:06:27Z</time>
      </trkpt>
      <trkpt lat="45.76541" lon="1.09202">
        <ele>310.4</ele>
        <time>2022-04-03T10:06:28Z</time>
      </trkpt>
      <trkpt lat="45.76541" lon="1.09196">
        <ele>310.4</ele>
        <time>2022-04-03T10:06:29Z</time>
      </trkpt>
      <trkpt lat="45.76541" lon="1.0919">
        <ele>310.4</ele>
        <time>2022-04-03T10:06:30Z</time>
      </trkpt>
      <trkpt lat="45.7654" lon="1.09184">
        <ele>310.4</ele>
        <time>2022-04-03T10:06:31Z</time>
      </trkpt>
      <trkpt lat="45.7654" lon="1.09178">
        <ele>310.2</ele>
        <time>2022-04-03T10:06:32Z</time>
      </trkpt>
      <trkpt lat="45.7654" lon="1.09172">
        <ele>310.2</ele>
        <time>2022-04-03T10:06:33Z</time>
      </trkpt>
      <trkpt lat="45.76539" lon="1.09167">
        <ele>310.2</ele>
        <time>2022-04-03T10:06:34Z</time>
      </trkpt>
      <trkpt lat="45.76539" lon="1.09161">
        <ele>310.2</ele>
        <time>2022-04-03T10:06:35Z</time>
      </trkpt>
      <trkpt lat="45.76539" lon="1.09155">
        <ele>310.2</ele>
        <time>2022-04-03T10:06:36Z</time>
      </trkpt>
      <trkpt lat="45.76539" lon="1.0915">
        <ele>310.2</ele>
        <time>2022-04-03T10:06:37Z</time>
      </trkpt>
      <trkpt lat="45.76538" lon="1.09144">
        <ele>310.2</ele>
        <time>2022-04-03T10:06:38Z</time>
      </trkpt>
      <trkpt lat="45.76538" lon="1.09139">
        <ele>310.2</ele>
        <time>2022-04-03T10:06:39Z</time>
      </trkpt>
      <trkpt lat="45.76538" lon="1.09133">
        <ele>310.4</ele>
        <time>2022-04-03T10:06:40Z</time>
      </trkpt>
      <trkpt lat="45.76538" lon="1.09128">
        <ele>310.2</ele>
        <time>2022-04-03T10:06:41Z</time>
      </trkpt>
      <trkpt lat="45.76538" lon="1.09123">
        <ele>310.2</ele>
        <time>2022-04-03T10:06:42Z</time>
      </trkpt>
      <trkpt lat="45.76538" lon="1.09118">
        <ele>310.2</ele>
        <time>2022-04-03T10:06:43Z</time>
      </trkpt>
      <trkpt lat="45.76538" lon="1.09113">
        <ele>310.4</ele>
        <time>2022-04-03T10:06:44Z</time>
      </trkpt>
      <trkpt lat="45.76537" lon="1.09108">
        <ele>310.2</ele>
        <time>2022-04-03T10:06:45Z</time>
      </trkpt>
      <trkpt lat="45.76537" lon="1.09103">
        <ele>310.4</ele>
        <time>2022-04-03T10:06:46Z</time>
      </trkpt>
      <trkpt lat="45.76537" lon="1.09099">
        <ele>310.4</ele>
        <time>2022-04-03T10:06:47Z</time>
      </trkpt>
      <trkpt lat="45.76537" lon="1.09094">
        <ele>310.4</ele>
        <time>2022-04-03T10:06:48Z</time>
      </trkpt>
      <trkpt lat="45.76537" lon="1.0909">
        <ele>310.4</ele>
        <time>2022-04-03T10:06:49Z</time>
      </trkpt>
      <trkpt lat="45.76537" lon="1.09085">
        <ele>310.6</ele>
        <time>2022-04-03T10:06:50Z</time>
      </trkpt>
      <trkpt lat="45.76537" lon="1.09081">
        <ele>310.6</ele>
        <time>2022-04-03T10:06:51Z</time>
      </trkpt>
      <trkpt lat="45.76536" lon="1.09076">
        <ele>310.8</ele>
        <time>2022-04-03T10:06:52Z</time>
      </trkpt>
      <trkpt lat="45.76536" lon="1.09072">
        <ele>310.8</ele>
        <time>2022-04-03T10:06:53Z</time>
      </trkpt>
      <trkpt lat="45.76536" lon="1.09068">
        <ele>310.8</ele>
        <time>2022-04-03T10:06:54Z</time>
      </trkpt>
      <trkpt lat="45.76536" lon="1.09063">
        <ele>311</ele>
        <time>2022-04-03T10:06:55Z</time>
      </trkpt>
      <trkpt lat="45.76535" lon="1.09059">
        <ele>311.2</ele>
        <time>2022-04-03T10:06:56Z</time>
      </trkpt>
      <trkpt lat="45.76535" lon="1.09055">
        <ele>311.4</ele>
        <time>2022-04-03T10:06:57Z</time>
      </trkpt>
      <trkpt lat="45.76534" lon="1.09051">
        <ele>311.6</ele>
        <time>2022-04-03T10:06:58Z</time>
      </trkpt>
      <trkpt lat="45.76534" lon="1.09047">
        <ele>312</ele>
        <time>2022-04-03T10:06:59Z</time>
      </trkpt>
      <trkpt lat="45.76533" lon="1.09042">
        <ele>312</ele>
        <time>2022-04-03T10:07:00Z</time>
      </trkpt>
      <trkpt lat="45.76533" lon="1.09038">
        <ele>312</ele>
        <time>2022-04-03T10:07:01Z</time>
      </trkpt>
      <trkpt lat="45.76532" lon="1.09034">
        <ele>312.2</ele>
        <time>2022-04-03T10:07:02Z</time>
      </trkpt>
      <trkpt lat="45.76531" lon="1.0903">
        <ele>312.6</ele>
        <time>2022-04-03T10:07:03Z</time>
      </trkpt>
      <trkpt lat="45.76531" lon="1.09026">
        <ele>312.8</ele>
        <time>2022-04-03T10:07:04Z</time>
      </trkpt>
      <trkpt lat="45.7653" lon="1.09022">
        <ele>312.8</ele>
        <time>2022-04-03T10:07:05Z</time>
      </trkpt>
      <trkpt lat="45.76529" lon="1.09018">
        <ele>313</ele>
        <time>2022-04-03T10:07:06Z</time>
      </trkpt>
      <trkpt lat="45.76529" lon="1.09014">
        <ele>313.2</ele>
        <time>2022-04-03T10:07:07Z</time>
      </trkpt>
      <trkpt lat="45.76528" lon="1.09009">
        <ele>313.4</ele>
        <time>2022-04-03T10:07:08Z</time>
      </trkpt>
      <trkpt lat="45.76527" lon="1.09005">
        <ele>313.2</ele>
        <time>2022-04-03T10:07:09Z</time>
      </trkpt>
      <trkpt lat="45.76525" lon="1.09001">
        <ele>313.6</ele>
        <time>2022-04-03T10:07:10Z</time>
      </trkpt>
      <trkpt lat="45.76524" lon="1.08997">
        <ele>313.8</ele>
        <time>2022-04-03T10:07:11Z</time>
      </trkpt>
      <trkpt lat="45.76523" lon="1.08993">
        <ele>313.8</ele>
        <time>2022-04-03T10:07:12Z</time>
      </trkpt>
      <trkpt lat="45.76522" lon="1.08989">
        <ele>314</ele>
        <time>2022-04-03T10:07:13Z</time>
      </trkpt>
      <trkpt lat="45.76522" lon="1.08985">
        <ele>314</ele>
        <time>2022-04-03T10:07:14Z</time>
      </trkpt>
      <trkpt lat="45.76521" lon="1.08981">
        <ele>314.2</ele>
        <time>2022-04-03T10:07:15Z</time>
      </trkpt>
      <trkpt lat="45.7652" lon="1.08977">
        <ele>314.4</ele>
        <time>2022-04-03T10:07:16Z</time>
      </trkpt>
      <trkpt lat="45.76519" lon="1.08973">
        <ele>314.6</ele>
        <time>2022-04-03T10:07:17Z</time>
      </trkpt>
      <trkpt lat="45.76519" lon="1.08968">
        <ele>314.6</ele>
        <time>2022-04-03T10:07:18Z</time>
      </trkpt>
      <trkpt lat="45.76518" lon="1.08964">
        <ele>314.6</ele>
        <time>2022-04-03T10:07:19Z</time>
      </trkpt>
      <trkpt lat="45.76518" lon="1.0896">
        <ele>314.8</ele>
        <time>2022-04-03T10:07:20Z</time>
      </trkpt>
      <trkpt lat="45.76518" lon="1.08955">
        <ele>314.6</ele>
        <time>2022-04-03T10:07:21Z</time>
      </trkpt>
      <trkpt lat="45.76518" lon="1.08951">
        <ele>314.8</ele>
        <time>2022-04-03T10:07:22Z</time>
      </trkpt>
      <trkpt lat="45.76518" lon="1.08946">
        <ele>314.8</ele>
        <time>2022-04-03T10:07:23Z</time>
      </trkpt>
      <trkpt lat="45.76518" lon="1.08942">
        <ele>314.8</ele>
        <time>2022-04-03T10:07:24Z</time>
      </trkpt>
      <trkpt lat="45.76519" lon="1.08938">
        <ele>315.2</ele>
        <time>2022-04-03T10:07:25Z</time>
      </trkpt>
      <trkpt lat="45.76519" lon="1.08934">
        <ele>315.6</ele>
        <time>2022-04-03T10:07:26Z</time>
      </trkpt>
      <trkpt lat="45.7652" lon="1.08929">
        <ele>315.8</ele>
        <time>2022-04-03T10:07:27Z</time>
      </trkpt>
      <trkpt lat="45.76521" lon="1.08925">
        <ele>316</ele>
        <time>2022-04-03T10:07:28Z</time>
      </trkpt>
      <trkpt lat="45.76522" lon="1.08921">
        <ele>316</ele>
        <time>2022-04-03T10:07:29Z</time>
      </trkpt>
      <trkpt lat="45.76523" lon="1.08917">
        <ele>316.2</ele>
        <time>2022-04-03T10:07:30Z</time>
      </trkpt>
      <trkpt lat="45.76524" lon="1.08913">
        <ele>316.2</ele>
        <time>2022-04-03T10:07:31Z</time>
      </trkpt>
      <trkpt lat="45.76525" lon="1.08908">
        <ele>316.2</ele>
        <time>2022-04-03T10:07:32Z</time>
      </trkpt>
      <trkpt lat="45.76527" lon="1.08904">
        <ele>316.4</ele>
        <time>2022-04-03T10:07:33Z</time>
      </trkpt>
      <trkpt lat="45.76528" lon="1.089">
        <ele>316.4</ele>
        <time>2022-04-03T10:07:34Z</time>
      </trkpt>
      <trkpt lat="45.76529" lon="1.08896">
        <ele>316.6</ele>
        <time>2022-04-03T10:07:35Z</time>
      </trkpt>
      <trkpt lat="45.76531" lon="1.08892">
        <ele>316.6</ele>
        <time>2022-04-03T10:07:36Z</time>
      </trkpt>
      <trkpt lat="45.76532" lon="1.08887">
        <ele>316.8</ele>
        <time>2022-04-03T10:07:37Z</time>
      </trkpt>
      <trkpt lat="45.76534" lon="1.08883">
        <ele>316.6</ele>
        <time>2022-04-03T10:07:38Z</time>
      </trkpt>
      <trkpt lat="45.76535" lon="1.08879">
        <ele>317</ele>
        <time>2022-04-03T10:07:39Z</time>
      </trkpt>
      <trkpt lat="45.76537" lon="1.08874">
        <ele>317.2</ele>
        <time>2022-04-03T10:07:40Z</time>
      </trkpt>
      <trkpt lat="45.76539" lon="1.0887">
        <ele>317.2</ele>
        <time>2022-04-03T10:07:41Z</time>
      </trkpt>
      <trkpt lat="45.7654" lon="1.08866">
        <ele>317.2</ele>
        <time>2022-04-03T10:07:42Z</time>
      </trkpt>
      <trkpt lat="45.76542" lon="1.08861">
        <ele>317.4</ele>
        <time>2022-04-03T10:07:43Z</time>
      </trkpt>
      <trkpt lat="45.76543" lon="1.08857">
        <ele>317.4</ele>
        <time>2022-04-03T10:07:44Z</time>
      </trkpt>
      <trkpt lat="45.76545" lon="1.08853">
        <ele>317.4</ele>
        <time>2022-04-03T10:07:45Z</time>
      </trkpt>
      <trkpt lat="45.76547" lon="1.08849">
        <ele>317.6</ele>
        <time>2022-04-03T10:07:46Z</time>
      </trkpt>
      <trkpt lat="45.76548" lon="1.08844">
        <ele>317.6</ele>
        <time>2022-04-03T10:07:47Z</time>
      </trkpt>
      <trkpt lat="45.7655" lon="1.0884">
        <ele>317.6</ele>
        <time>2022-04-03T10:07:48Z</time>
      </trkpt>
      <trkpt lat="45.76551" lon="1.08836">
        <ele>317.8</ele>
        <time>2022-04-03T10:07:49Z</time>
      </trkpt>
      <trkpt lat="45.76553" lon="1.08832">
        <ele>317.8</ele>
        <time>2022-04-03T10:07:50Z</time>
      </trkpt>
      <trkpt lat="45.76554" lon="1.08827">
        <ele>317.8</ele>
        <time>2022-04-03T10:07:51Z</time>
      </trkpt>
      <trkpt lat="45.76556" lon="1.08823">
        <ele>318</ele>
        <time>2022-04-03T10:07:52Z</time>
      </trkpt>
      <trkpt lat="45.76558" lon="1.08819">
        <ele>318</ele>
        <time>2022-04-03T10:07:53Z</time>
      </trkpt>
      <trkpt lat="45.76559" lon="1.08815">
        <ele>318</ele>
        <time>2022-04-03T10:07:54Z</time>
      </trkpt>
      <trkpt lat="45.76561" lon="1.08811">
        <ele>318.2</ele>
        <time>2022-04-03T10:07:55Z</time>
      </trkpt>
      <trkpt lat="45.76562" lon="1.08808">
        <ele>318.4</ele>
        <time>2022-04-03T10:07:56Z</time>
      </trkpt>
      <trkpt lat="45.76564" lon="1.08804">
        <ele>318.4</ele>
        <time>2022-04-03T10:07:57Z</time>
      </trkpt>
      <trkpt lat="45.76566" lon="1.088">
        <ele>318.4</ele>
        <time>2022-04-03T10:07:58Z</time>
      </trkpt>
      <trkpt lat="45.76567" lon="1.08796">
        <ele>318.6</ele>
        <time>2022-04-03T10:07:59Z</time>
      </trkpt>
      <trkpt lat="45.76569" lon="1.08792">
        <ele>318.6</ele>
        <time>2022-04-03T10:08:00Z</time>
      </trkpt>
      <trkpt lat="45.76571" lon="1.08788">
        <ele>318.8</ele>
        <time>2022-04-03T10:08:01Z</time>
      </trkpt>
      <trkpt lat="45.76573" lon="1.08784">
        <ele>318.8</ele>
        <time>2022-04-03T10:08:02Z</time>
      </trkpt>
      <trkpt lat="45.76575" lon="1.0878">
        <ele>318.8</ele>
        <time>2022-04-03T10:08:03Z</time>
      </trkpt>
      <trkpt lat="45.76578" lon="1.08776">
        <ele>319</ele>
        <time>2022-04-03T10:08:04Z</time>
      </trkpt>
      <trkpt lat="45.7658" lon="1.08773">
        <ele>319</ele>
        <time>2022-04-03T10:08:05Z</time>
      </trkpt>
      <trkpt lat="45.76582" lon="1.08769">
        <ele>319.2</ele>
        <time>2022-04-03T10:08:06Z</time>
      </trkpt>
      <trkpt lat="45.76585" lon="1.08765">
        <ele>319.4</ele>
        <time>2022-04-03T10:08:07Z</time>
      </trkpt>
      <trkpt lat="45.76587" lon="1.08761">
        <ele>319.6</ele>
        <time>2022-04-03T10:08:08Z</time>
      </trkpt>
      <trkpt lat="45.76589" lon="1.08757">
        <ele>319.6</ele>
        <time>2022-04-03T10:08:09Z</time>
      </trkpt>
      <trkpt lat="45.76591" lon="1.08753">
        <ele>319.8</ele>
        <time>2022-04-03T10:08:10Z</time>
      </trkpt>
      <trkpt lat="45.76593" lon="1.08749">
        <ele>319.8</ele>
        <time>2022-04-03T10:08:11Z</time>
      </trkpt>
      <trkpt lat="45.76595" lon="1.08745">
        <ele>319.8</ele>
        <time>2022-04-03T10:08:12Z</time>
      </trkpt>
      <trkpt lat="45.76598" lon="1.08741">
        <ele>320</ele>
        <time>2022-04-03T10:08:13Z</time>
      </trkpt>
      <trkpt lat="45.766" lon="1.08737">
        <ele>320</ele>
        <time>2022-04-03T10:08:14Z</time>
      </trkpt>
      <trkpt lat="45.76602" lon="1.08734">
        <ele>320</ele>
        <time>2022-04-03T10:08:15Z</time>
      </trkpt>
      <trkpt lat="45.76605" lon="1.0873">
        <ele>320</ele>
        <time>2022-04-03T10:08:16Z</time>
      </trkpt>
      <trkpt lat="45.76607" lon="1.08726">
        <ele>320.2</ele>
        <time>2022-04-03T10:08:17Z</time>
      </trkpt>
      <trkpt lat="45.7661" lon="1.08723">
        <ele>320.2</ele>
        <time>2022-04-03T10:08:18Z</time>
      </trkpt>
      <trkpt lat="45.76613" lon="1.0872">
        <ele>320.2</ele>
        <time>2022-04-03T10:08:19Z</time>
      </trkpt>
      <trkpt lat="45.76616" lon="1.08717">
        <ele>320.2</ele>
        <time>2022-04-03T10:08:20Z</time>
      </trkpt>
      <trkpt lat="45.76619" lon="1.08715">
        <ele>320.4</ele>
        <time>2022-04-03T10:08:21Z</time>
      </trkpt>
      <trkpt lat="45.76622" lon="1.08712">
        <ele>320.2</ele>
        <time>2022-04-03T10:08:22Z</time>
      </trkpt>
      <trkpt lat="45.76625" lon="1.08709">
        <ele>320.4</ele>
        <time>2022-04-03T10:08:23Z</time>
      </trkpt>
      <trkpt lat="45.76629" lon="1.08706">
        <ele>320.6</ele>
        <time>2022-04-03T10:08:24Z</time>
      </trkpt>
      <trkpt lat="45.76632" lon="1.08702">
        <ele>320.6</ele>
        <time>2022-04-03T10:08:25Z</time>
      </trkpt>
      <trkpt lat="45.76634" lon="1.08699">
        <ele>320.6</ele>
        <time>2022-04-03T10:08:26Z</time>
      </trkpt>
      <trkpt lat="45.76637" lon="1.08695">
        <ele>320.6</ele>
        <time>2022-04-03T10:08:27Z</time>
      </trkpt>
      <trkpt lat="45.7664" lon="1.08691">
        <ele>320.6</ele>
        <time>2022-04-03T10:08:28Z</time>
      </trkpt>
      <trkpt lat="45.76642" lon="1.08687">
        <ele>320.8</ele>
        <time>2022-04-03T10:08:29Z</time>
      </trkpt>
      <trkpt lat="45.76644" lon="1.08683">
        <ele>320.8</ele>
        <time>2022-04-03T10:08:30Z</time>
      </trkpt>
      <trkpt lat="45.76646" lon="1.08679">
        <ele>320.6</ele>
        <time>2022-04-03T10:08:31Z</time>
      </trkpt>
      <trkpt lat="45.76648" lon="1.08674">
        <ele>320.8</ele>
        <time>2022-04-03T10:08:32Z</time>
      </trkpt>
      <trkpt lat="45.76649" lon="1.0867">
        <ele>320.8</ele>
        <time>2022-04-03T10:08:33Z</time>
      </trkpt>
      <trkpt lat="45.76651" lon="1.08665">
        <ele>321</ele>
        <time>2022-04-03T10:08:34Z</time>
      </trkpt>
      <trkpt lat="45.76652" lon="1.08661">
        <ele>321</ele>
        <time>2022-04-03T10:08:35Z</time>
      </trkpt>
      <trkpt lat="45.76653" lon="1.08656">
        <ele>321</ele>
        <time>2022-04-03T10:08:36Z</time>
      </trkpt>
      <trkpt lat="45.76654" lon="1.08651">
        <ele>321</ele>
        <time>2022-04-03T10:08:37Z</time>
      </trkpt>
      <trkpt lat="45.76655" lon="1.08646">
        <ele>321</ele>
        <time>2022-04-03T10:08:38Z</time>
      </trkpt>
      <trkpt lat="45.76655" lon="1.08642">
        <ele>321</ele>
        <time>2022-04-03T10:08:39Z</time>
      </trkpt>
      <trkpt lat="45.76656" lon="1.08637">
        <ele>320.8</ele>
        <time>2022-04-03T10:08:40Z</time>
      </trkpt>
      <trkpt lat="45.76657" lon="1.08632">
        <ele>320.8</ele>
        <time>2022-04-03T10:08:41Z</time>
      </trkpt>
      <trkpt lat="45.76657" lon="1.08627">
        <ele>321</ele>
        <time>2022-04-03T10:08:42Z</time>
      </trkpt>
      <trkpt lat="45.76657" lon="1.08622">
        <ele>321</ele>
        <time>2022-04-03T10:08:43Z</time>
      </trkpt>
      <trkpt lat="45.76658" lon="1.08617">
        <ele>321</ele>
        <time>2022-04-03T10:08:44Z</time>
      </trkpt>
      <trkpt lat="45.76658" lon="1.08612">
        <ele>321</ele>
        <time>2022-04-03T10:08:45Z</time>
      </trkpt>
      <trkpt lat="45.76658" lon="1.08606">
        <ele>320.8</ele>
        <time>2022-04-03T10:08:46Z</time>
      </trkpt>
      <trkpt lat="45.76658" lon="1.08601">
        <ele>321.2</ele>
        <time>2022-04-03T10:08:47Z</time>
      </trkpt>
      <trkpt lat="45.76659" lon="1.08596">
        <ele>321.2</ele>
        <time>2022-04-03T10:08:48Z</time>
      </trkpt>
      <trkpt lat="45.76659" lon="1.08591">
        <ele>321.2</ele>
        <time>2022-04-03T10:08:49Z</time>
      </trkpt>
      <trkpt lat="45.76659" lon="1.08586">
        <ele>321.6</ele>
        <time>2022-04-03T10:08:50Z</time>
      </trkpt>
      <trkpt lat="45.7666" lon="1.08581">
        <ele>321.6</ele>
        <time>2022-04-03T10:08:51Z</time>
      </trkpt>
      <trkpt lat="45.7666" lon="1.08576">
        <ele>321.8</ele>
        <time>2022-04-03T10:08:52Z</time>
      </trkpt>
      <trkpt lat="45.7666" lon="1.08571">
        <ele>322</ele>
        <time>2022-04-03T10:08:53Z</time>
      </trkpt>
      <trkpt lat="45.76661" lon="1.08566">
        <ele>322</ele>
        <time>2022-04-03T10:08:54Z</time>
      </trkpt>
      <trkpt lat="45.76662" lon="1.08561">
        <ele>322</ele>
        <time>2022-04-03T10:08:55Z</time>
      </trkpt>
      <trkpt lat="45.76663" lon="1.08557">
        <ele>322.2</ele>
        <time>2022-04-03T10:08:56Z</time>
      </trkpt>
      <trkpt lat="45.76664" lon="1.08552">
        <ele>322.2</ele>
        <time>2022-04-03T10:08:57Z</time>
      </trkpt>
      <trkpt lat="45.76665" lon="1.08548">
        <ele>322.2</ele>
        <time>2022-04-03T10:08:58Z</time>
      </trkpt>
      <trkpt lat="45.76666" lon="1.08543">
        <ele>322.4</ele>
        <time>2022-04-03T10:08:59Z</time>
      </trkpt>
      <trkpt lat="45.76666" lon="1.08538">
        <ele>322.4</ele>
        <time>2022-04-03T10:09:00Z</time>
      </trkpt>
      <trkpt lat="45.76667" lon="1.08533">
        <ele>322.6</ele>
        <time>2022-04-03T10:09:01Z</time>
      </trkpt>
      <trkpt lat="45.76668" lon="1.08528">
        <ele>322.4</ele>
        <time>2022-04-03T10:09:02Z</time>
      </trkpt>
      <trkpt lat="45.76669" lon="1.08523">
        <ele>322.6</ele>
        <time>2022-04-03T10:09:03Z</time>
      </trkpt>
      <trkpt lat="45.76669" lon="1.08518">
        <ele>323</ele>
        <time>2022-04-03T10:09:04Z</time>
      </trkpt>
      <trkpt lat="45.76671" lon="1.08513">
        <ele>323.2</ele>
        <time>2022-04-03T10:09:05Z</time>
      </trkpt>
      <trkpt lat="45.76671" lon="1.08508">
        <ele>323.4</ele>
        <time>2022-04-03T10:09:06Z</time>
      </trkpt>
      <trkpt lat="45.76672" lon="1.08503">
        <ele>323.6</ele>
        <time>2022-04-03T10:09:07Z</time>
      </trkpt>
      <trkpt lat="45.76673" lon="1.08498">
        <ele>323.6</ele>
        <time>2022-04-03T10:09:08Z</time>
      </trkpt>
      <trkpt lat="45.76674" lon="1.08493">
        <ele>323.8</ele>
        <time>2022-04-03T10:09:09Z</time>
      </trkpt>
      <trkpt lat="45.76675" lon="1.08488">
        <ele>324</ele>
        <time>2022-04-03T10:09:10Z</time>
      </trkpt>
      <trkpt lat="45.76676" lon="1.08483">
        <ele>324.2</ele>
        <time>2022-04-03T10:09:11Z</time>
      </trkpt>
      <trkpt lat="45.76677" lon="1.08478">
        <ele>324.2</ele>
        <time>2022-04-03T10:09:12Z</time>
      </trkpt>
      <trkpt lat="45.76677" lon="1.08473">
        <ele>324.4</ele>
        <time>2022-04-03T10:09:13Z</time>
      </trkpt>
      <trkpt lat="45.76679" lon="1.08469">
        <ele>324.4</ele>
        <time>2022-04-03T10:09:14Z</time>
      </trkpt>
      <trkpt lat="45.7668" lon="1.08465">
        <ele>324.4</ele>
        <time>2022-04-03T10:09:15Z</time>
      </trkpt>
      <trkpt lat="45.76681" lon="1.0846">
        <ele>324.6</ele>
        <time>2022-04-03T10:09:16Z</time>
      </trkpt>
      <trkpt lat="45.76681" lon="1.08456">
        <ele>324.4</ele>
        <time>2022-04-03T10:09:17Z</time>
      </trkpt>
      <trkpt lat="45.76682" lon="1.08451">
        <ele>324.6</ele>
        <time>2022-04-03T10:09:18Z</time>
      </trkpt>
      <trkpt lat="45.76683" lon="1.08446">
        <ele>324.6</ele>
        <time>2022-04-03T10:09:19Z</time>
      </trkpt>
      <trkpt lat="45.76684" lon="1.08441">
        <ele>324.6</ele>
        <time>2022-04-03T10:09:20Z</time>
      </trkpt>
      <trkpt lat="45.76684" lon="1.08437">
        <ele>324.8</ele>
        <time>2022-04-03T10:09:21Z</time>
      </trkpt>
      <trkpt lat="45.76685" lon="1.08432">
        <ele>324.8</ele>
        <time>2022-04-03T10:09:22Z</time>
      </trkpt>
      <trkpt lat="45.76686" lon="1.08427">
        <ele>324.8</ele>
        <time>2022-04-03T10:09:23Z</time>
      </trkpt>
      <trkpt lat="45.76687" lon="1.08422">
        <ele>324.8</ele>
        <time>2022-04-03T10:09:24Z</time>
      </trkpt>
      <trkpt lat="45.76689" lon="1.08417">
        <ele>325</ele>
        <time>2022-04-03T10:09:25Z</time>
      </trkpt>
      <trkpt lat="45.76689" lon="1.08412">
        <ele>325</ele>
        <time>2022-04-03T10:09:26Z</time>
      </trkpt>
      <trkpt lat="45.7669" lon="1.08407">
        <ele>325</ele>
        <time>2022-04-03T10:09:27Z</time>
      </trkpt>
      <trkpt lat="45.76691" lon="1.08402">
        <ele>325.2</ele>
        <time>2022-04-03T10:09:28Z</time>
      </trkpt>
      <trkpt lat="45.76692" lon="1.08397">
        <ele>325</ele>
        <time>2022-04-03T10:09:29Z</time>
      </trkpt>
      <trkpt lat="45.76693" lon="1.08392">
        <ele>325.2</ele>
        <time>2022-04-03T10:09:30Z</time>
      </trkpt>
      <trkpt lat="45.76694" lon="1.08387">
        <ele>325.2</ele>
        <time>2022-04-03T10:09:31Z</time>
      </trkpt>
      <trkpt lat="45.76695" lon="1.08382">
        <ele>325.2</ele>
        <time>2022-04-03T10:09:32Z</time>
      </trkpt>
      <trkpt lat="45.76696" lon="1.08377">
        <ele>325.4</ele>
        <time>2022-04-03T10:09:33Z</time>
      </trkpt>
      <trkpt lat="45.76697" lon="1.08372">
        <ele>325.4</ele>
        <time>2022-04-03T10:09:34Z</time>
      </trkpt>
      <trkpt lat="45.76698" lon="1.08367">
        <ele>325.6</ele>
        <time>2022-04-03T10:09:35Z</time>
      </trkpt>
      <trkpt lat="45.76698" lon="1.08362">
        <ele>325.6</ele>
        <time>2022-04-03T10:09:36Z</time>
      </trkpt>
      <trkpt lat="45.76699" lon="1.08357">
        <ele>325.6</ele>
        <time>2022-04-03T10:09:37Z</time>
      </trkpt>
      <trkpt lat="45.767" lon="1.08352">
        <ele>325.8</ele>
        <time>2022-04-03T10:09:38Z</time>
      </trkpt>
      <trkpt lat="45.76702" lon="1.08347">
        <ele>325.8</ele>
        <time>2022-04-03T10:09:39Z</time>
      </trkpt>
      <trkpt lat="45.76703" lon="1.08342">
        <ele>326</ele>
        <time>2022-04-03T10:09:40Z</time>
      </trkpt>
      <trkpt lat="45.76703" lon="1.08337">
        <ele>326</ele>
        <time>2022-04-03T10:09:41Z</time>
      </trkpt>
      <trkpt lat="45.76704" lon="1.08331">
        <ele>325.8</ele>
        <time>2022-04-03T10:09:42Z</time>
      </trkpt>
      <trkpt lat="45.76705" lon="1.08326">
        <ele>326</ele>
        <time>2022-04-03T10:09:43Z</time>
      </trkpt>
      <trkpt lat="45.76706" lon="1.08321">
        <ele>326</ele>
        <time>2022-04-03T10:09:44Z</time>
      </trkpt>
      <trkpt lat="45.76707" lon="1.08316">
        <ele>326.2</ele>
        <time>2022-04-03T10:09:45Z</time>
      </trkpt>
      <trkpt lat="45.76708" lon="1.08311">
        <ele>326.2</ele>
        <time>2022-04-03T10:09:46Z</time>
      </trkpt>
      <trkpt lat="45.76709" lon="1.08306">
        <ele>326.2</ele>
        <time>2022-04-03T10:09:47Z</time>
      </trkpt>
      <trkpt lat="45.7671" lon="1.08301">
        <ele>326.2</ele>
        <time>2022-04-03T10:09:48Z</time>
      </trkpt>
      <trkpt lat="45.76711" lon="1.08296">
        <ele>326.4</ele>
        <time>2022-04-03T10:09:49Z</time>
      </trkpt>
      <trkpt lat="45.76712" lon="1.08291">
        <ele>326.2</ele>
        <time>2022-04-03T10:09:50Z</time>
      </trkpt>
      <trkpt lat="45.76713" lon="1.08286">
        <ele>326.4</ele>
        <time>2022-04-03T10:09:51Z</time>
      </trkpt>
      <trkpt lat="45.76714" lon="1.08281">
        <ele>326.4</ele>
        <time>2022-04-03T10:09:52Z</time>
      </trkpt>
      <trkpt lat="45.76714" lon="1.08276">
        <ele>326.2</ele>
        <time>2022-04-03T10:09:53Z</time>
      </trkpt>
      <trkpt lat="45.76714" lon="1.0827">
        <ele>326.4</ele>
        <time>2022-04-03T10:09:54Z</time>
      </trkpt>
      <trkpt lat="45.76715" lon="1.08265">
        <ele>326.4</ele>
        <time>2022-04-03T10:09:55Z</time>
      </trkpt>
      <trkpt lat="45.76715" lon="1.0826">
        <ele>326.6</ele>
        <time>2022-04-03T10:09:56Z</time>
      </trkpt>
      <trkpt lat="45.76715" lon="1.08254">
        <ele>326.6</ele>
        <time>2022-04-03T10:09:57Z</time>
      </trkpt>
      <trkpt lat="45.76715" lon="1.08249">
        <ele>326.6</ele>
        <time>2022-04-03T10:09:58Z</time>
      </trkpt>
      <trkpt lat="45.76715" lon="1.08243">
        <ele>326.6</ele>
        <time>2022-04-03T10:09:59Z</time>
      </trkpt>
      <trkpt lat="45.76715" lon="1.08238">
        <ele>326.4</ele>
        <time>2022-04-03T10:10:00Z</time>
      </trkpt>
      <trkpt lat="45.76715" lon="1.08232">
        <ele>326.4</ele>
        <time>2022-04-03T10:10:01Z</time>
      </trkpt>
      <trkpt lat="45.76715" lon="1.08226">
        <ele>326.2</ele>
        <time>2022-04-03T10:10:02Z</time>
      </trkpt>
      <trkpt lat="45.76714" lon="1.0822">
        <ele>326.4</ele>
        <time>2022-04-03T10:10:03Z</time>
      </trkpt>
      <trkpt lat="45.76714" lon="1.08215">
        <ele>326.4</ele>
        <time>2022-04-03T10:10:04Z</time>
      </trkpt>
      <trkpt lat="45.76714" lon="1.08209">
        <ele>326.4</ele>
        <time>2022-04-03T10:10:05Z</time>
      </trkpt>
      <trkpt lat="45.76714" lon="1.08203">
        <ele>326.2</ele>
        <time>2022-04-03T10:10:06Z</time>
      </trkpt>
      <trkpt lat="45.76714" lon="1.08198">
        <ele>326.2</ele>
        <time>2022-04-03T10:10:07Z</time>
      </trkpt>
      <trkpt lat="45.76714" lon="1.08192">
        <ele>326.4</ele>
        <time>2022-04-03T10:10:08Z</time>
      </trkpt>
      <trkpt lat="45.76714" lon="1.08186">
        <ele>326.4</ele>
        <time>2022-04-03T10:10:09Z</time>
      </trkpt>
      <trkpt lat="45.76714" lon="1.08181">
        <ele>326.4</ele>
        <time>2022-04-03T10:10:10Z</time>
      </trkpt>
      <trkpt lat="45.76714" lon="1.08175">
        <ele>326.6</ele>
        <time>2022-04-03T10:10:11Z</time>
      </trkpt>
      <trkpt lat="45.76714" lon="1.08169">
        <ele>326.4</ele>
        <time>2022-04-03T10:10:12Z</time>
      </trkpt>
      <trkpt lat="45.76714" lon="1.08163">
        <ele>326.6</ele>
        <time>2022-04-03T10:10:13Z</time>
      </trkpt>
      <trkpt lat="45.76715" lon="1.08158">
        <ele>326.6</ele>
        <time>2022-04-03T10:10:14Z</time>
      </trkpt>
      <trkpt lat="45.76715" lon="1.08152">
        <ele>326.6</ele>
        <time>2022-04-03T10:10:15Z</time>
      </trkpt>
      <trkpt lat="45.76715" lon="1.08147">
        <ele>326.6</ele>
        <time>2022-04-03T10:10:16Z</time>
      </trkpt>
      <trkpt lat="45.76715" lon="1.08142">
        <ele>326.8</ele>
        <time>2022-04-03T10:10:17Z</time>
      </trkpt>
      <trkpt lat="45.76717" lon="1.08137">
        <ele>326.8</ele>
        <time>2022-04-03T10:10:18Z</time>
      </trkpt>
      <trkpt lat="45.76718" lon="1.08132">
        <ele>327</ele>
        <time>2022-04-03T10:10:19Z</time>
      </trkpt>
      <trkpt lat="45.76719" lon="1.08127">
        <ele>327</ele>
        <time>2022-04-03T10:10:20Z</time>
      </trkpt>
      <trkpt lat="45.76721" lon="1.08122">
        <ele>327</ele>
        <time>2022-04-03T10:10:21Z</time>
      </trkpt>
      <trkpt lat="45.76722" lon="1.08117">
        <ele>327</ele>
        <time>2022-04-03T10:10:22Z</time>
      </trkpt>
      <trkpt lat="45.76723" lon="1.08112">
        <ele>327</ele>
        <time>2022-04-03T10:10:23Z</time>
      </trkpt>
      <trkpt lat="45.76724" lon="1.08107">
        <ele>327</ele>
        <time>2022-04-03T10:10:24Z</time>
      </trkpt>
      <trkpt lat="45.76725" lon="1.08102">
        <ele>327</ele>
        <time>2022-04-03T10:10:25Z</time>
      </trkpt>
      <trkpt lat="45.76726" lon="1.08097">
        <ele>327</ele>
        <time>2022-04-03T10:10:26Z</time>
      </trkpt>
      <trkpt lat="45.76728" lon="1.08092">
        <ele>327</ele>
        <time>2022-04-03T10:10:27Z</time>
      </trkpt>
      <trkpt lat="45.76729" lon="1.08087">
        <ele>327</ele>
        <time>2022-04-03T10:10:28Z</time>
      </trkpt>
      <trkpt lat="45.7673" lon="1.08082">
        <ele>326.8</ele>
        <time>2022-04-03T10:10:29Z</time>
      </trkpt>
      <trkpt lat="45.76732" lon="1.08077">
        <ele>326.8</ele>
        <time>2022-04-03T10:10:30Z</time>
      </trkpt>
      <trkpt lat="45.76733" lon="1.08072">
        <ele>327</ele>
        <time>2022-04-03T10:10:31Z</time>
      </trkpt>
      <trkpt lat="45.76734" lon="1.08067">
        <ele>326.8</ele>
        <time>2022-04-03T10:10:32Z</time>
      </trkpt>
      <trkpt lat="45.76735" lon="1.08062">
        <ele>326.8</ele>
        <time>2022-04-03T10:10:33Z</time>
      </trkpt>
      <trkpt lat="45.76736" lon="1.08057">
        <ele>327</ele>
        <time>2022-04-03T10:10:34Z</time>
      </trkpt>
      <trkpt lat="45.76736" lon="1.08053">
        <ele>327</ele>
        <time>2022-04-03T10:10:35Z</time>
      </trkpt>
      <trkpt lat="45.76736" lon="1.08048">
        <ele>327</ele>
        <time>2022-04-03T10:10:36Z</time>
      </trkpt>
      <trkpt lat="45.76736" lon="1.08044">
        <ele>326.8</ele>
        <time>2022-04-03T10:10:37Z</time>
      </trkpt>
      <trkpt lat="45.76734" lon="1.0804">
        <ele>326.8</ele>
        <time>2022-04-03T10:10:38Z</time>
      </trkpt>
      <trkpt lat="45.76731" lon="1.08036">
        <ele>327</ele>
        <time>2022-04-03T10:10:39Z</time>
      </trkpt>
      <trkpt lat="45.76728" lon="1.08033">
        <ele>327</ele>
        <time>2022-04-03T10:10:40Z</time>
      </trkpt>
      <trkpt lat="45.76725" lon="1.0803">
        <ele>326.8</ele>
        <time>2022-04-03T10:10:41Z</time>
      </trkpt>
      <trkpt lat="45.76721" lon="1.08026">
        <ele>326.8</ele>
        <time>2022-04-03T10:10:42Z</time>
      </trkpt>
      <trkpt lat="45.76716" lon="1.08022">
        <ele>326.8</ele>
        <time>2022-04-03T10:10:43Z</time>
      </trkpt>
      <trkpt lat="45.76712" lon="1.08018">
        <ele>326.8</ele>
        <time>2022-04-03T10:10:44Z</time>
      </trkpt>
      <trkpt lat="45.76707" lon="1.08014">
        <ele>326.8</ele>
        <time>2022-04-03T10:10:45Z</time>
      </trkpt>
      <trkpt lat="45.76701" lon="1.08009">
        <ele>326.8</ele>
        <time>2022-04-03T10:10:46Z</time>
      </trkpt>
      <trkpt lat="45.76696" lon="1.08004">
        <ele>326.6</ele>
        <time>2022-04-03T10:10:47Z</time>
      </trkpt>
      <trkpt lat="45.7669" lon="1.08">
        <ele>326.6</ele>
        <time>2022-04-03T10:10:48Z</time>
      </trkpt>
      <trkpt lat="45.76684" lon="1.07996">
        <ele>326.6</ele>
        <time>2022-04-03T10:10:49Z</time>
      </trkpt>
      <trkpt lat="45.76678" lon="1.07991">
        <ele>326.6</ele>
        <time>2022-04-03T10:10:50Z</time>
      </trkpt>
      <trkpt lat="45.76672" lon="1.07986">
        <ele>326.4</ele>
        <time>2022-04-03T10:10:51Z</time>
      </trkpt>
      <trkpt lat="45.76666" lon="1.07981">
        <ele>326.2</ele>
        <time>2022-04-03T10:10:52Z</time>
      </trkpt>
      <trkpt lat="45.7666" lon="1.07976">
        <ele>326</ele>
        <time>2022-04-03T10:10:53Z</time>
      </trkpt>
      <trkpt lat="45.76653" lon="1.07971">
        <ele>325.6</ele>
        <time>2022-04-03T10:10:54Z</time>
      </trkpt>
      <trkpt lat="45.76647" lon="1.07966">
        <ele>325.2</ele>
        <time>2022-04-03T10:10:55Z</time>
      </trkpt>
      <trkpt lat="45.7664" lon="1.0796">
        <ele>324.8</ele>
        <time>2022-04-03T10:10:56Z</time>
      </trkpt>
      <trkpt lat="45.76633" lon="1.07955">
        <ele>324.6</ele>
        <time>2022-04-03T10:10:57Z</time>
      </trkpt>
      <trkpt lat="45.76626" lon="1.07949">
        <ele>324.2</ele>
        <time>2022-04-03T10:10:58Z</time>
      </trkpt>
      <trkpt lat="45.76619" lon="1.07944">
        <ele>323.4</ele>
        <time>2022-04-03T10:10:59Z</time>
      </trkpt>
      <trkpt lat="45.76613" lon="1.07939">
        <ele>323.2</ele>
        <time>2022-04-03T10:11:00Z</time>
      </trkpt>
      <trkpt lat="45.76606" lon="1.07934">
        <ele>322.4</ele>
        <time>2022-04-03T10:11:01Z</time>
      </trkpt>
      <trkpt lat="45.76601" lon="1.07929">
        <ele>322.4</ele>
        <time>2022-04-03T10:11:02Z</time>
      </trkpt>
      <trkpt lat="45.76595" lon="1.07924">
        <ele>322.2</ele>
        <time>2022-04-03T10:11:03Z</time>
      </trkpt>
      <trkpt lat="45.76589" lon="1.07919">
        <ele>321.8</ele>
        <time>2022-04-03T10:11:04Z</time>
      </trkpt>
      <trkpt lat="45.76583" lon="1.07914">
        <ele>321.8</ele>
        <time>2022-04-03T10:11:05Z</time>
      </trkpt>
      <trkpt lat="45.76577" lon="1.07909">
        <ele>321.4</ele>
        <time>2022-04-03T10:11:06Z</time>
      </trkpt>
      <trkpt lat="45.76571" lon="1.07904">
        <ele>321.2</ele>
        <time>2022-04-03T10:11:07Z</time>
      </trkpt>
      <trkpt lat="45.76564" lon="1.07899">
        <ele>320.6</ele>
        <time>2022-04-03T10:11:08Z</time>
      </trkpt>
      <trkpt lat="45.76558" lon="1.07894">
        <ele>320.4</ele>
        <time>2022-04-03T10:11:09Z</time>
      </trkpt>
      <trkpt lat="45.76552" lon="1.07889">
        <ele>320</ele>
        <time>2022-04-03T10:11:10Z</time>
      </trkpt>
      <trkpt lat="45.76546" lon="1.07884">
        <ele>319.8</ele>
        <time>2022-04-03T10:11:11Z</time>
      </trkpt>
      <trkpt lat="45.7654" lon="1.07879">
        <ele>319.6</ele>
        <time>2022-04-03T10:11:12Z</time>
      </trkpt>
      <trkpt lat="45.76534" lon="1.07874">
        <ele>319.4</ele>
        <time>2022-04-03T10:11:13Z</time>
      </trkpt>
      <trkpt lat="45.76528" lon="1.07868">
        <ele>319</ele>
        <time>2022-04-03T10:11:14Z</time>
      </trkpt>
      <trkpt lat="45.76522" lon="1.07863">
        <ele>318.4</ele>
        <time>2022-04-03T10:11:15Z</time>
      </trkpt>
      <trkpt lat="45.76516" lon="1.07859">
        <ele>318.2</ele>
        <time>2022-04-03T10:11:16Z</time>
      </trkpt>
      <trkpt lat="45.7651" lon="1.07855">
        <ele>317.8</ele>
        <time>2022-04-03T10:11:17Z</time>
      </trkpt>
      <trkpt lat="45.76505" lon="1.07851">
        <ele>317.4</ele>
        <time>2022-04-03T10:11:18Z</time>
      </trkpt>
      <trkpt lat="45.76502" lon="1.07846">
        <ele>317</ele>
        <time>2022-04-03T10:11:19Z</time>
      </trkpt>
      <trkpt lat="45.76501" lon="1.0784">
        <ele>316.6</ele>
        <time>2022-04-03T10:11:20Z</time>
      </trkpt>
      <trkpt lat="45.76501" lon="1.07833">
        <ele>316.6</ele>
        <time>2022-04-03T10:11:21Z</time>
      </trkpt>
      <trkpt lat="45.76503" lon="1.07827">
        <ele>316.2</ele>
        <time>2022-04-03T10:11:22Z</time>
      </trkpt>
      <trkpt lat="45.76505" lon="1.0782">
        <ele>315.6</ele>
        <time>2022-04-03T10:11:23Z</time>
      </trkpt>
      <trkpt lat="45.76507" lon="1.07814">
        <ele>315.2</ele>
        <time>2022-04-03T10:11:24Z</time>
      </trkpt>
      <trkpt lat="45.76509" lon="1.07808">
        <ele>314.8</ele>
        <time>2022-04-03T10:11:25Z</time>
      </trkpt>
      <trkpt lat="45.76511" lon="1.07802">
        <ele>314.4</ele>
        <time>2022-04-03T10:11:26Z</time>
      </trkpt>
      <trkpt lat="45.76512" lon="1.07796">
        <ele>314.2</ele>
        <time>2022-04-03T10:11:27Z</time>
      </trkpt>
      <trkpt lat="45.76514" lon="1.0779">
        <ele>314.2</ele>
        <time>2022-04-03T10:11:28Z</time>
      </trkpt>
      <trkpt lat="45.76516" lon="1.07785">
        <ele>314</ele>
        <time>2022-04-03T10:11:29Z</time>
      </trkpt>
      <trkpt lat="45.76518" lon="1.07779">
        <ele>314</ele>
        <time>2022-04-03T10:11:30Z</time>
      </trkpt>
      <trkpt lat="45.7652" lon="1.07774">
        <ele>314</ele>
        <time>2022-04-03T10:11:31Z</time>
      </trkpt>
      <trkpt lat="45.76521" lon="1.07768">
        <ele>314</ele>
        <time>2022-04-03T10:11:32Z</time>
      </trkpt>
      <trkpt lat="45.76523" lon="1.07762">
        <ele>313.8</ele>
        <time>2022-04-03T10:11:33Z</time>
      </trkpt>
      <trkpt lat="45.76525" lon="1.07757">
        <ele>313.8</ele>
        <time>2022-04-03T10:11:34Z</time>
      </trkpt>
      <trkpt lat="45.76527" lon="1.07752">
        <ele>313.8</ele>
        <time>2022-04-03T10:11:35Z</time>
      </trkpt>
      <trkpt lat="45.76528" lon="1.07747">
        <ele>313.8</ele>
        <time>2022-04-03T10:11:36Z</time>
      </trkpt>
      <trkpt lat="45.7653" lon="1.07742">
        <ele>314</ele>
        <time>2022-04-03T10:11:37Z</time>
      </trkpt>
      <trkpt lat="45.76531" lon="1.07736">
        <ele>313.8</ele>
        <time>2022-04-03T10:11:38Z</time>
      </trkpt>
      <trkpt lat="45.76533" lon="1.07731">
        <ele>313.8</ele>
        <time>2022-04-03T10:11:39Z</time>
      </trkpt>
      <trkpt lat="45.76534" lon="1.07726">
        <ele>313.8</ele>
        <time>2022-04-03T10:11:40Z</time>
      </trkpt>
      <trkpt lat="45.76536" lon="1.0772">
        <ele>313.8</ele>
        <time>2022-04-03T10:11:41Z</time>
      </trkpt>
      <trkpt lat="45.76537" lon="1.07715">
        <ele>313.8</ele>
        <time>2022-04-03T10:11:42Z</time>
      </trkpt>
      <trkpt lat="45.76538" lon="1.07709">
        <ele>314</ele>
        <time>2022-04-03T10:11:43Z</time>
      </trkpt>
      <trkpt lat="45.7654" lon="1.07703">
        <ele>314</ele>
        <time>2022-04-03T10:11:44Z</time>
      </trkpt>
      <trkpt lat="45.76541" lon="1.07698">
        <ele>314</ele>
        <time>2022-04-03T10:11:45Z</time>
      </trkpt>
      <trkpt lat="45.76543" lon="1.07692">
        <ele>313.8</ele>
        <time>2022-04-03T10:11:46Z</time>
      </trkpt>
      <trkpt lat="45.76544" lon="1.07686">
        <ele>314</ele>
        <time>2022-04-03T10:11:47Z</time>
      </trkpt>
      <trkpt lat="45.76546" lon="1.0768">
        <ele>314</ele>
        <time>2022-04-03T10:11:48Z</time>
      </trkpt>
      <trkpt lat="45.76547" lon="1.07674">
        <ele>314</ele>
        <time>2022-04-03T10:11:49Z</time>
      </trkpt>
      <trkpt lat="45.76549" lon="1.07668">
        <ele>313.8</ele>
        <time>2022-04-03T10:11:50Z</time>
      </trkpt>
      <trkpt lat="45.7655" lon="1.07662">
        <ele>314</ele>
        <time>2022-04-03T10:11:51Z</time>
      </trkpt>
      <trkpt lat="45.76551" lon="1.07657">
        <ele>314</ele>
        <time>2022-04-03T10:11:52Z</time>
      </trkpt>
      <trkpt lat="45.76553" lon="1.07651">
        <ele>314</ele>
        <time>2022-04-03T10:11:53Z</time>
      </trkpt>
      <trkpt lat="45.76554" lon="1.07645">
        <ele>314</ele>
        <time>2022-04-03T10:11:54Z</time>
      </trkpt>
      <trkpt lat="45.76556" lon="1.0764">
        <ele>313.8</ele>
        <time>2022-04-03T10:11:55Z</time>
      </trkpt>
      <trkpt lat="45.76557" lon="1.07634">
        <ele>314</ele>
        <time>2022-04-03T10:11:56Z</time>
      </trkpt>
      <trkpt lat="45.76558" lon="1.07629">
        <ele>314</ele>
        <time>2022-04-03T10:11:57Z</time>
      </trkpt>
      <trkpt lat="45.76559" lon="1.07623">
        <ele>314</ele>
        <time>2022-04-03T10:11:58Z</time>
      </trkpt>
      <trkpt lat="45.76561" lon="1.07618">
        <ele>313.8</ele>
        <time>2022-04-03T10:11:59Z</time>
      </trkpt>
      <trkpt lat="45.76562" lon="1.07612">
        <ele>314</ele>
        <time>2022-04-03T10:12:00Z</time>
      </trkpt>
      <trkpt lat="45.76563" lon="1.07607">
        <ele>314</ele>
        <time>2022-04-03T10:12:01Z</time>
      </trkpt>
      <trkpt lat="45.76565" lon="1.07601">
        <ele>314</ele>
        <time>2022-04-03T10:12:02Z</time>
      </trkpt>
      <trkpt lat="45.76566" lon="1.07596">
        <ele>314.2</ele>
        <time>2022-04-03T10:12:03Z</time>
      </trkpt>
      <trkpt lat="45.76567" lon="1.0759">
        <ele>314.2</ele>
        <time>2022-04-03T10:12:04Z</time>
      </trkpt>
      <trkpt lat="45.76569" lon="1.07585">
        <ele>314.2</ele>
        <time>2022-04-03T10:12:05Z</time>
      </trkpt>
      <trkpt lat="45.7657" lon="1.0758">
        <ele>314.4</ele>
        <time>2022-04-03T10:12:06Z</time>
      </trkpt>
      <trkpt lat="45.76571" lon="1.07574">
        <ele>314.6</ele>
        <time>2022-04-03T10:12:07Z</time>
      </trkpt>
      <trkpt lat="45.76572" lon="1.07569">
        <ele>314.6</ele>
        <time>2022-04-03T10:12:08Z</time>
      </trkpt>
      <trkpt lat="45.76574" lon="1.07563">
        <ele>314.8</ele>
        <time>2022-04-03T10:12:09Z</time>
      </trkpt>
      <trkpt lat="45.76575" lon="1.07558">
        <ele>314.8</ele>
        <time>2022-04-03T10:12:10Z</time>
      </trkpt>
      <trkpt lat="45.76576" lon="1.07553">
        <ele>315</ele>
        <time>2022-04-03T10:12:11Z</time>
      </trkpt>
      <trkpt lat="45.76577" lon="1.07548">
        <ele>315</ele>
        <time>2022-04-03T10:12:12Z</time>
      </trkpt>
      <trkpt lat="45.76578" lon="1.07543">
        <ele>315.2</ele>
        <time>2022-04-03T10:12:13Z</time>
      </trkpt>
      <trkpt lat="45.76579" lon="1.07538">
        <ele>315.2</ele>
        <time>2022-04-03T10:12:14Z</time>
      </trkpt>
      <trkpt lat="45.7658" lon="1.07533">
        <ele>315.2</ele>
        <time>2022-04-03T10:12:15Z</time>
      </trkpt>
      <trkpt lat="45.76582" lon="1.07528">
        <ele>315.2</ele>
        <time>2022-04-03T10:12:16Z</time>
      </trkpt>
      <trkpt lat="45.76583" lon="1.07523">
        <ele>315.2</ele>
        <time>2022-04-03T10:12:17Z</time>
      </trkpt>
      <trkpt lat="45.76584" lon="1.07518">
        <ele>315.6</ele>
        <time>2022-04-03T10:12:18Z</time>
      </trkpt>
      <trkpt lat="45.76585" lon="1.07513">
        <ele>315.4</ele>
        <time>2022-04-03T10:12:19Z</time>
      </trkpt>
      <trkpt lat="45.76586" lon="1.07509">
        <ele>315.6</ele>
        <time>2022-04-03T10:12:20Z</time>
      </trkpt>
      <trkpt lat="45.76586" lon="1.07504">
        <ele>315.8</ele>
        <time>2022-04-03T10:12:21Z</time>
      </trkpt>
      <trkpt lat="45.76587" lon="1.07499">
        <ele>315.8</ele>
        <time>2022-04-03T10:12:22Z</time>
      </trkpt>
      <trkpt lat="45.76588" lon="1.07494">
        <ele>316</ele>
        <time>2022-04-03T10:12:23Z</time>
      </trkpt>
      <trkpt lat="45.76588" lon="1.07489">
        <ele>316</ele>
        <time>2022-04-03T10:12:24Z</time>
      </trkpt>
      <trkpt lat="45.76589" lon="1.07485">
        <ele>316.2</ele>
        <time>2022-04-03T10:12:25Z</time>
      </trkpt>
      <trkpt lat="45.76589" lon="1.0748">
        <ele>316.4</ele>
        <time>2022-04-03T10:12:26Z</time>
      </trkpt>
      <trkpt lat="45.76589" lon="1.07475">
        <ele>316.2</ele>
        <time>2022-04-03T10:12:27Z</time>
      </trkpt>
      <trkpt lat="45.76589" lon="1.0747">
        <ele>316.4</ele>
        <time>2022-04-03T10:12:28Z</time>
      </trkpt>
      <trkpt lat="45.76589" lon="1.07466">
        <ele>316.4</ele>
        <time>2022-04-03T10:12:29Z</time>
      </trkpt>
      <trkpt lat="45.76589" lon="1.07461">
        <ele>316.6</ele>
        <time>2022-04-03T10:12:30Z</time>
      </trkpt>
      <trkpt lat="45.76589" lon="1.07456">
        <ele>316.8</ele>
        <time>2022-04-03T10:12:31Z</time>
      </trkpt>
      <trkpt lat="45.76589" lon="1.07452">
        <ele>316.8</ele>
        <time>2022-04-03T10:12:32Z</time>
      </trkpt>
      <trkpt lat="45.76589" lon="1.07447">
        <ele>317</ele>
        <time>2022-04-03T10:12:33Z</time>
      </trkpt>
      <trkpt lat="45.76588" lon="1.07442">
        <ele>317.4</ele>
        <time>2022-04-03T10:12:34Z</time>
      </trkpt>
      <trkpt lat="45.76588" lon="1.07438">
        <ele>317.4</ele>
        <time>2022-04-03T10:12:35Z</time>
      </trkpt>
      <trkpt lat="45.76587" lon="1.07434">
        <ele>317.6</ele>
        <time>2022-04-03T10:12:36Z</time>
      </trkpt>
      <trkpt lat="45.76587" lon="1.07429">
        <ele>317.6</ele>
        <time>2022-04-03T10:12:37Z</time>
      </trkpt>
      <trkpt lat="45.76586" lon="1.07425">
        <ele>317.6</ele>
        <time>2022-04-03T10:12:38Z</time>
      </trkpt>
      <trkpt lat="45.76586" lon="1.0742">
        <ele>317.6</ele>
        <time>2022-04-03T10:12:39Z</time>
      </trkpt>
      <trkpt lat="45.76585" lon="1.07415">
        <ele>317.6</ele>
        <time>2022-04-03T10:12:40Z</time>
      </trkpt>
      <trkpt lat="45.76585" lon="1.07411">
        <ele>317.8</ele>
        <time>2022-04-03T10:12:41Z</time>
      </trkpt>
      <trkpt lat="45.76585" lon="1.07406">
        <ele>317.6</ele>
        <time>2022-04-03T10:12:42Z</time>
      </trkpt>
      <trkpt lat="45.76584" lon="1.07402">
        <ele>317.6</ele>
        <time>2022-04-03T10:12:43Z</time>
      </trkpt>
      <trkpt lat="45.76584" lon="1.07397">
        <ele>317.8</ele>
        <time>2022-04-03T10:12:44Z</time>
      </trkpt>
      <trkpt lat="45.76583" lon="1.07393">
        <ele>317.6</ele>
        <time>2022-04-03T10:12:45Z</time>
      </trkpt>
      <trkpt lat="45.76583" lon="1.07389">
        <ele>317.6</ele>
        <time>2022-04-03T10:12:46Z</time>
      </trkpt>
      <trkpt lat="45.76582" lon="1.07384">
        <ele>317.6</ele>
        <time>2022-04-03T10:12:47Z</time>
      </trkpt>
      <trkpt lat="45.76582" lon="1.0738">
        <ele>317.8</ele>
        <time>2022-04-03T10:12:48Z</time>
      </trkpt>
      <trkpt lat="45.76582" lon="1.07376">
        <ele>317.6</ele>
        <time>2022-04-03T10:12:49Z</time>
      </trkpt>
      <trkpt lat="45.76582" lon="1.07372">
        <ele>317.6</ele>
        <time>2022-04-03T10:12:50Z</time>
      </trkpt>
      <trkpt lat="45.76581" lon="1.07368">
        <ele>317.6</ele>
        <time>2022-04-03T10:12:51Z</time>
      </trkpt>
      <trkpt lat="45.76581" lon="1.07364">
        <ele>317.4</ele>
        <time>2022-04-03T10:12:52Z</time>
      </trkpt>
      <trkpt lat="45.7658" lon="1.0736">
        <ele>317.4</ele>
        <time>2022-04-03T10:12:53Z</time>
      </trkpt>
      <trkpt lat="45.76579" lon="1.07356">
        <ele>317.4</ele>
        <time>2022-04-03T10:12:54Z</time>
      </trkpt>
      <trkpt lat="45.76579" lon="1.07352">
        <ele>317.2</ele>
        <time>2022-04-03T10:12:55Z</time>
      </trkpt>
      <trkpt lat="45.76578" lon="1.07348">
        <ele>317.2</ele>
        <time>2022-04-03T10:12:56Z</time>
      </trkpt>
      <trkpt lat="45.76578" lon="1.07344">
        <ele>317.2</ele>
        <time>2022-04-03T10:12:57Z</time>
      </trkpt>
      <trkpt lat="45.76578" lon="1.0734">
        <ele>317.2</ele>
        <time>2022-04-03T10:12:58Z</time>
      </trkpt>
      <trkpt lat="45.76578" lon="1.07336">
        <ele>317.2</ele>
        <time>2022-04-03T10:12:59Z</time>
      </trkpt>
      <trkpt lat="45.76577" lon="1.07332">
        <ele>317.2</ele>
        <time>2022-04-03T10:13:00Z</time>
      </trkpt>
      <trkpt lat="45.76577" lon="1.07328">
        <ele>317.2</ele>
        <time>2022-04-03T10:13:01Z</time>
      </trkpt>
      <trkpt lat="45.76577" lon="1.07324">
        <ele>317</ele>
        <time>2022-04-03T10:13:02Z</time>
      </trkpt>
      <trkpt lat="45.76577" lon="1.07319">
        <ele>317.2</ele>
        <time>2022-04-03T10:13:03Z</time>
      </trkpt>
      <trkpt lat="45.76576" lon="1.07315">
        <ele>317.2</ele>
        <time>2022-04-03T10:13:04Z</time>
      </trkpt>
      <trkpt lat="45.76576" lon="1.07311">
        <ele>317.2</ele>
        <time>2022-04-03T10:13:05Z</time>
      </trkpt>
      <trkpt lat="45.76576" lon="1.07307">
        <ele>317.2</ele>
        <time>2022-04-03T10:13:06Z</time>
      </trkpt>
      <trkpt lat="45.76576" lon="1.07303">
        <ele>317.2</ele>
        <time>2022-04-03T10:13:07Z</time>
      </trkpt>
      <trkpt lat="45.76575" lon="1.07298">
        <ele>317.2</ele>
        <time>2022-04-03T10:13:08Z</time>
      </trkpt>
      <trkpt lat="45.76575" lon="1.07294">
        <ele>317</ele>
        <time>2022-04-03T10:13:09Z</time>
      </trkpt>
      <trkpt lat="45.76575" lon="1.07289">
        <ele>317.2</ele>
        <time>2022-04-03T10:13:10Z</time>
      </trkpt>
      <trkpt lat="45.76575" lon="1.07285">
        <ele>317.2</ele>
        <time>2022-04-03T10:13:11Z</time>
      </trkpt>
      <trkpt lat="45.76574" lon="1.07281">
        <ele>317.2</ele>
        <time>2022-04-03T10:13:12Z</time>
      </trkpt>
      <trkpt lat="45.76574" lon="1.07276">
        <ele>317.2</ele>
        <time>2022-04-03T10:13:13Z</time>
      </trkpt>
      <trkpt lat="45.76574" lon="1.07272">
        <ele>317.2</ele>
        <time>2022-04-03T10:13:14Z</time>
      </trkpt>
      <trkpt lat="45.76573" lon="1.07267">
        <ele>317.2</ele>
        <time>2022-04-03T10:13:15Z</time>
      </trkpt>
      <trkpt lat="45.76573" lon="1.07262">
        <ele>317.4</ele>
        <time>2022-04-03T10:13:16Z</time>
      </trkpt>
      <trkpt lat="45.76572" lon="1.07257">
        <ele>317.4</ele>
        <time>2022-04-03T10:13:17Z</time>
      </trkpt>
      <trkpt lat="45.76572" lon="1.07252">
        <ele>317.4</ele>
        <time>2022-04-03T10:13:18Z</time>
      </trkpt>
      <trkpt lat="45.76572" lon="1.07248">
        <ele>317.4</ele>
        <time>2022-04-03T10:13:19Z</time>
      </trkpt>
      <trkpt lat="45.76572" lon="1.07244">
        <ele>317.4</ele>
        <time>2022-04-03T10:13:20Z</time>
      </trkpt>
      <trkpt lat="45.76571" lon="1.07239">
        <ele>317.4</ele>
        <time>2022-04-03T10:13:21Z</time>
      </trkpt>
      <trkpt lat="45.76571" lon="1.07235">
        <ele>317.4</ele>
        <time>2022-04-03T10:13:22Z</time>
      </trkpt>
      <trkpt lat="45.76571" lon="1.0723">
        <ele>317.6</ele>
        <time>2022-04-03T10:13:23Z</time>
      </trkpt>
      <trkpt lat="45.7657" lon="1.07226">
        <ele>317.6</ele>
        <time>2022-04-03T10:13:24Z</time>
      </trkpt>
      <trkpt lat="45.76571" lon="1.07221">
        <ele>317.6</ele>
        <time>2022-04-03T10:13:25Z</time>
      </trkpt>
      <trkpt lat="45.76571" lon="1.07216">
        <ele>317.6</ele>
        <time>2022-04-03T10:13:26Z</time>
      </trkpt>
      <trkpt lat="45.76571" lon="1.07211">
        <ele>317.8</ele>
        <time>2022-04-03T10:13:27Z</time>
      </trkpt>
      <trkpt lat="45.76571" lon="1.07206">
        <ele>317.8</ele>
        <time>2022-04-03T10:13:28Z</time>
      </trkpt>
      <trkpt lat="45.76571" lon="1.07201">
        <ele>317.8</ele>
        <time>2022-04-03T10:13:29Z</time>
      </trkpt>
      <trkpt lat="45.76571" lon="1.07196">
        <ele>318</ele>
        <time>2022-04-03T10:13:30Z</time>
      </trkpt>
      <trkpt lat="45.76572" lon="1.07191">
        <ele>318</ele>
        <time>2022-04-03T10:13:31Z</time>
      </trkpt>
      <trkpt lat="45.76572" lon="1.07186">
        <ele>318</ele>
        <time>2022-04-03T10:13:32Z</time>
      </trkpt>
      <trkpt lat="45.76573" lon="1.07182">
        <ele>318</ele>
        <time>2022-04-03T10:13:33Z</time>
      </trkpt>
      <trkpt lat="45.76573" lon="1.07177">
        <ele>318.2</ele>
        <time>2022-04-03T10:13:34Z</time>
      </trkpt>
      <trkpt lat="45.76574" lon="1.07172">
        <ele>318.2</ele>
        <time>2022-04-03T10:13:35Z</time>
      </trkpt>
      <trkpt lat="45.76575" lon="1.07167">
        <ele>318.2</ele>
        <time>2022-04-03T10:13:36Z</time>
      </trkpt>
      <trkpt lat="45.76575" lon="1.07162">
        <ele>318.2</ele>
        <time>2022-04-03T10:13:37Z</time>
      </trkpt>
      <trkpt lat="45.76575" lon="1.07157">
        <ele>318.4</ele>
        <time>2022-04-03T10:13:38Z</time>
      </trkpt>
      <trkpt lat="45.76576" lon="1.07152">
        <ele>318.6</ele>
        <time>2022-04-03T10:13:39Z</time>
      </trkpt>
      <trkpt lat="45.76577" lon="1.07147">
        <ele>318.6</ele>
        <time>2022-04-03T10:13:40Z</time>
      </trkpt>
      <trkpt lat="45.76578" lon="1.07142">
        <ele>318.8</ele>
        <time>2022-04-03T10:13:41Z</time>
      </trkpt>
      <trkpt lat="45.76578" lon="1.07137">
        <ele>318.8</ele>
        <time>2022-04-03T10:13:42Z</time>
      </trkpt>
      <trkpt lat="45.76579" lon="1.07132">
        <ele>318.8</ele>
        <time>2022-04-03T10:13:43Z</time>
      </trkpt>
      <trkpt lat="45.76579" lon="1.07127">
        <ele>318.8</ele>
        <time>2022-04-03T10:13:44Z</time>
      </trkpt>
      <trkpt lat="45.7658" lon="1.07122">
        <ele>318.8</ele>
        <time>2022-04-03T10:13:45Z</time>
      </trkpt>
      <trkpt lat="45.76581" lon="1.07117">
        <ele>318.8</ele>
        <time>2022-04-03T10:13:46Z</time>
      </trkpt>
      <trkpt lat="45.76581" lon="1.07112">
        <ele>318.8</ele>
        <time>2022-04-03T10:13:47Z</time>
      </trkpt>
      <trkpt lat="45.76582" lon="1.07107">
        <ele>319</ele>
        <time>2022-04-03T10:13:48Z</time>
      </trkpt>
      <trkpt lat="45.76583" lon="1.07102">
        <ele>318.8</ele>
        <time>2022-04-03T10:13:49Z</time>
      </trkpt>
      <trkpt lat="45.76583" lon="1.07097">
        <ele>318.8</ele>
        <time>2022-04-03T10:13:50Z</time>
      </trkpt>
      <trkpt lat="45.76584" lon="1.07092">
        <ele>319</ele>
        <time>2022-04-03T10:13:51Z</time>
      </trkpt>
      <trkpt lat="45.76585" lon="1.07087">
        <ele>319</ele>
        <time>2022-04-03T10:13:52Z</time>
      </trkpt>
      <trkpt lat="45.76586" lon="1.07083">
        <ele>319</ele>
        <time>2022-04-03T10:13:53Z</time>
      </trkpt>
      <trkpt lat="45.76586" lon="1.07078">
        <ele>319</ele>
        <time>2022-04-03T10:13:54Z</time>
      </trkpt>
      <trkpt lat="45.76587" lon="1.07073">
        <ele>319</ele>
        <time>2022-04-03T10:13:55Z</time>
      </trkpt>
      <trkpt lat="45.76588" lon="1.07068">
        <ele>319</ele>
        <time>2022-04-03T10:13:56Z</time>
      </trkpt>
      <trkpt lat="45.76588" lon="1.07064">
        <ele>319</ele>
        <time>2022-04-03T10:13:57Z</time>
      </trkpt>
      <trkpt lat="45.76589" lon="1.07059">
        <ele>319</ele>
        <time>2022-04-03T10:13:58Z</time>
      </trkpt>
      <trkpt lat="45.76589" lon="1.07054">
        <ele>319</ele>
        <time>2022-04-03T10:13:59Z</time>
      </trkpt>
      <trkpt lat="45.7659" lon="1.0705">
        <ele>319</ele>
        <time>2022-04-03T10:14:00Z</time>
      </trkpt>
      <trkpt lat="45.76591" lon="1.07046">
        <ele>319.2</ele>
        <time>2022-04-03T10:14:01Z</time>
      </trkpt>
      <trkpt lat="45.76591" lon="1.07041">
        <ele>319.4</ele>
        <time>2022-04-03T10:14:02Z</time>
      </trkpt>
      <trkpt lat="45.76592" lon="1.07037">
        <ele>319.8</ele>
        <time>2022-04-03T10:14:03Z</time>
      </trkpt>
      <trkpt lat="45.76592" lon="1.07032">
        <ele>320</ele>
        <time>2022-04-03T10:14:04Z</time>
      </trkpt>
      <trkpt lat="45.76593" lon="1.07027">
        <ele>320.2</ele>
        <time>2022-04-03T10:14:05Z</time>
      </trkpt>
      <trkpt lat="45.76594" lon="1.07023">
        <ele>320.4</ele>
        <time>2022-04-03T10:14:06Z</time>
      </trkpt>
      <trkpt lat="45.76594" lon="1.07018">
        <ele>320.8</ele>
        <time>2022-04-03T10:14:07Z</time>
      </trkpt>
      <trkpt lat="45.76595" lon="1.07014">
        <ele>320.8</ele>
        <time>2022-04-03T10:14:08Z</time>
      </trkpt>
      <trkpt lat="45.76595" lon="1.07009">
        <ele>321.2</ele>
        <time>2022-04-03T10:14:09Z</time>
      </trkpt>
      <trkpt lat="45.76596" lon="1.07005">
        <ele>321.2</ele>
        <time>2022-04-03T10:14:10Z</time>
      </trkpt>
      <trkpt lat="45.76596" lon="1.07">
        <ele>321.2</ele>
        <time>2022-04-03T10:14:11Z</time>
      </trkpt>
      <trkpt lat="45.76597" lon="1.06996">
        <ele>321.2</ele>
        <time>2022-04-03T10:14:12Z</time>
      </trkpt>
      <trkpt lat="45.76598" lon="1.06991">
        <ele>321.2</ele>
        <time>2022-04-03T10:14:13Z</time>
      </trkpt>
      <trkpt lat="45.76598" lon="1.06986">
        <ele>321.4</ele>
        <time>2022-04-03T10:14:14Z</time>
      </trkpt>
      <trkpt lat="45.76599" lon="1.06981">
        <ele>321.4</ele>
        <time>2022-04-03T10:14:15Z</time>
      </trkpt>
      <trkpt lat="45.766" lon="1.06976">
        <ele>321.4</ele>
        <time>2022-04-03T10:14:16Z</time>
      </trkpt>
      <trkpt lat="45.766" lon="1.06971">
        <ele>321.4</ele>
        <time>2022-04-03T10:14:17Z</time>
      </trkpt>
      <trkpt lat="45.76601" lon="1.06966">
        <ele>321.4</ele>
        <time>2022-04-03T10:14:18Z</time>
      </trkpt>
      <trkpt lat="45.76602" lon="1.06962">
        <ele>321.4</ele>
        <time>2022-04-03T10:14:19Z</time>
      </trkpt>
      <trkpt lat="45.76602" lon="1.06957">
        <ele>321.6</ele>
        <time>2022-04-03T10:14:20Z</time>
      </trkpt>
      <trkpt lat="45.76603" lon="1.06952">
        <ele>321.4</ele>
        <time>2022-04-03T10:14:21Z</time>
      </trkpt>
      <trkpt lat="45.76604" lon="1.06947">
        <ele>321.4</ele>
        <time>2022-04-03T10:14:22Z</time>
      </trkpt>
      <trkpt lat="45.76604" lon="1.06942">
        <ele>321.6</ele>
        <time>2022-04-03T10:14:23Z</time>
      </trkpt>
      <trkpt lat="45.76604" lon="1.06938">
        <ele>321.6</ele>
        <time>2022-04-03T10:14:24Z</time>
      </trkpt>
      <trkpt lat="45.76605" lon="1.06933">
        <ele>321.6</ele>
        <time>2022-04-03T10:14:25Z</time>
      </trkpt>
      <trkpt lat="45.76605" lon="1.06928">
        <ele>321.8</ele>
        <time>2022-04-03T10:14:26Z</time>
      </trkpt>
      <trkpt lat="45.76606" lon="1.06924">
        <ele>322</ele>
        <time>2022-04-03T10:14:27Z</time>
      </trkpt>
      <trkpt lat="45.76607" lon="1.06919">
        <ele>321.8</ele>
        <time>2022-04-03T10:14:28Z</time>
      </trkpt>
      <trkpt lat="45.76607" lon="1.06914">
        <ele>321.8</ele>
        <time>2022-04-03T10:14:29Z</time>
      </trkpt>
      <trkpt lat="45.76608" lon="1.06909">
        <ele>322</ele>
        <time>2022-04-03T10:14:30Z</time>
      </trkpt>
      <trkpt lat="45.76609" lon="1.06904">
        <ele>322</ele>
        <time>2022-04-03T10:14:31Z</time>
      </trkpt>
      <trkpt lat="45.7661" lon="1.06899">
        <ele>322</ele>
        <time>2022-04-03T10:14:32Z</time>
      </trkpt>
      <trkpt lat="45.76611" lon="1.06893">
        <ele>322</ele>
        <time>2022-04-03T10:14:33Z</time>
      </trkpt>
      <trkpt lat="45.76611" lon="1.06888">
        <ele>322</ele>
        <time>2022-04-03T10:14:34Z</time>
      </trkpt>
      <trkpt lat="45.76612" lon="1.06883">
        <ele>322</ele>
        <time>2022-04-03T10:14:35Z</time>
      </trkpt>
      <trkpt lat="45.76613" lon="1.06878">
        <ele>322</ele>
        <time>2022-04-03T10:14:36Z</time>
      </trkpt>
      <trkpt lat="45.76613" lon="1.06873">
        <ele>322</ele>
        <time>2022-04-03T10:14:37Z</time>
      </trkpt>
      <trkpt lat="45.76614" lon="1.06868">
        <ele>322</ele>
        <time>2022-04-03T10:14:38Z</time>
      </trkpt>
      <trkpt lat="45.76615" lon="1.06862">
        <ele>322</ele>
        <time>2022-04-03T10:14:39Z</time>
      </trkpt>
      <trkpt lat="45.76615" lon="1.06857">
        <ele>322</ele>
        <time>2022-04-03T10:14:40Z</time>
      </trkpt>
      <trkpt lat="45.76616" lon="1.06852">
        <ele>322</ele>
        <time>2022-04-03T10:14:41Z</time>
      </trkpt>
      <trkpt lat="45.76617" lon="1.06846">
        <ele>321.8</ele>
        <time>2022-04-03T10:14:42Z</time>
      </trkpt>
      <trkpt lat="45.76617" lon="1.06841">
        <ele>321.8</ele>
        <time>2022-04-03T10:14:43Z</time>
      </trkpt>
      <trkpt lat="45.76618" lon="1.06836">
        <ele>321.6</ele>
        <time>2022-04-03T10:14:44Z</time>
      </trkpt>
      <trkpt lat="45.76619" lon="1.0683">
        <ele>321.4</ele>
        <time>2022-04-03T10:14:45Z</time>
      </trkpt>
      <trkpt lat="45.7662" lon="1.06825">
        <ele>321.4</ele>
        <time>2022-04-03T10:14:46Z</time>
      </trkpt>
      <trkpt lat="45.76621" lon="1.06819">
        <ele>321.6</ele>
        <time>2022-04-03T10:14:47Z</time>
      </trkpt>
      <trkpt lat="45.76621" lon="1.06814">
        <ele>321.6</ele>
        <time>2022-04-03T10:14:48Z</time>
      </trkpt>
      <trkpt lat="45.76622" lon="1.06809">
        <ele>321.4</ele>
        <time>2022-04-03T10:14:49Z</time>
      </trkpt>
      <trkpt lat="45.76623" lon="1.06803">
        <ele>321.4</ele>
        <time>2022-04-03T10:14:50Z</time>
      </trkpt>
      <trkpt lat="45.76624" lon="1.06798">
        <ele>321.6</ele>
        <time>2022-04-03T10:14:51Z</time>
      </trkpt>
      <trkpt lat="45.76624" lon="1.06792">
        <ele>321.4</ele>
        <time>2022-04-03T10:14:52Z</time>
      </trkpt>
      <trkpt lat="45.76625" lon="1.06787">
        <ele>321.6</ele>
        <time>2022-04-03T10:14:53Z</time>
      </trkpt>
      <trkpt lat="45.76626" lon="1.06781">
        <ele>321.4</ele>
        <time>2022-04-03T10:14:54Z</time>
      </trkpt>
      <trkpt lat="45.76627" lon="1.06775">
        <ele>321.4</ele>
        <time>2022-04-03T10:14:55Z</time>
      </trkpt>
      <trkpt lat="45.76628" lon="1.06769">
        <ele>321.4</ele>
        <time>2022-04-03T10:14:56Z</time>
      </trkpt>
      <trkpt lat="45.76628" lon="1.06763">
        <ele>321.4</ele>
        <time>2022-04-03T10:14:57Z</time>
      </trkpt>
      <trkpt lat="45.76629" lon="1.06757">
        <ele>321.4</ele>
        <time>2022-04-03T10:14:58Z</time>
      </trkpt>
      <trkpt lat="45.7663" lon="1.0675">
        <ele>321.4</ele>
        <time>2022-04-03T10:14:59Z</time>
      </trkpt>
      <trkpt lat="45.7663" lon="1.06744">
        <ele>321.4</ele>
        <time>2022-04-03T10:15:00Z</time>
      </trkpt>
      <trkpt lat="45.76631" lon="1.06737">
        <ele>321.4</ele>
        <time>2022-04-03T10:15:01Z</time>
      </trkpt>
      <trkpt lat="45.76632" lon="1.0673">
        <ele>321</ele>
        <time>2022-04-03T10:15:02Z</time>
      </trkpt>
      <trkpt lat="45.76633" lon="1.06723">
        <ele>321.2</ele>
        <time>2022-04-03T10:15:03Z</time>
      </trkpt>
      <trkpt lat="45.76634" lon="1.06716">
        <ele>321.2</ele>
        <time>2022-04-03T10:15:04Z</time>
      </trkpt>
      <trkpt lat="45.76635" lon="1.06708">
        <ele>321</ele>
        <time>2022-04-03T10:15:05Z</time>
      </trkpt>
      <trkpt lat="45.76636" lon="1.06701">
        <ele>320.8</ele>
        <time>2022-04-03T10:15:06Z</time>
      </trkpt>
      <trkpt lat="45.76637" lon="1.06694">
        <ele>320.4</ele>
        <time>2022-04-03T10:15:07Z</time>
      </trkpt>
      <trkpt lat="45.76638" lon="1.06686">
        <ele>320.2</ele>
        <time>2022-04-03T10:15:08Z</time>
      </trkpt>
      <trkpt lat="45.76639" lon="1.06679">
        <ele>320.2</ele>
        <time>2022-04-03T10:15:09Z</time>
      </trkpt>
      <trkpt lat="45.7664" lon="1.06671">
        <ele>319.8</ele>
        <time>2022-04-03T10:15:10Z</time>
      </trkpt>
      <trkpt lat="45.76641" lon="1.06663">
        <ele>319.4</ele>
        <time>2022-04-03T10:15:11Z</time>
      </trkpt>
      <trkpt lat="45.76642" lon="1.06654">
        <ele>319</ele>
        <time>2022-04-03T10:15:12Z</time>
      </trkpt>
      <trkpt lat="45.76643" lon="1.06646">
        <ele>319</ele>
        <time>2022-04-03T10:15:13Z</time>
      </trkpt>
      <trkpt lat="45.76644" lon="1.06637">
        <ele>319</ele>
        <time>2022-04-03T10:15:14Z</time>
      </trkpt>
      <trkpt lat="45.76645" lon="1.06628">
        <ele>318.8</ele>
        <time>2022-04-03T10:15:15Z</time>
      </trkpt>
      <trkpt lat="45.76646" lon="1.06619">
        <ele>318.6</ele>
        <time>2022-04-03T10:15:16Z</time>
      </trkpt>
      <trkpt lat="45.76648" lon="1.0661">
        <ele>318.8</ele>
        <time>2022-04-03T10:15:17Z</time>
      </trkpt>
      <trkpt lat="45.76649" lon="1.066">
        <ele>318.4</ele>
        <time>2022-04-03T10:15:18Z</time>
      </trkpt>
      <trkpt lat="45.7665" lon="1.0659">
        <ele>318.6</ele>
        <time>2022-04-03T10:15:19Z</time>
      </trkpt>
      <trkpt lat="45.76651" lon="1.06581">
        <ele>318.4</ele>
        <time>2022-04-03T10:15:20Z</time>
      </trkpt>
      <trkpt lat="45.76653" lon="1.06571">
        <ele>318.2</ele>
        <time>2022-04-03T10:15:21Z</time>
      </trkpt>
      <trkpt lat="45.76654" lon="1.06561">
        <ele>318</ele>
        <time>2022-04-03T10:15:22Z</time>
      </trkpt>
      <trkpt lat="45.76655" lon="1.06551">
        <ele>317.8</ele>
        <time>2022-04-03T10:15:23Z</time>
      </trkpt>
      <trkpt lat="45.76656" lon="1.06541">
        <ele>317.6</ele>
        <time>2022-04-03T10:15:24Z</time>
      </trkpt>
      <trkpt lat="45.76657" lon="1.06531">
        <ele>317.2</ele>
        <time>2022-04-03T10:15:25Z</time>
      </trkpt>
      <trkpt lat="45.76659" lon="1.06522">
        <ele>316.8</ele>
        <time>2022-04-03T10:15:26Z</time>
      </trkpt>
      <trkpt lat="45.7666" lon="1.06512">
        <ele>316.6</ele>
        <time>2022-04-03T10:15:27Z</time>
      </trkpt>
      <trkpt lat="45.76661" lon="1.06502">
        <ele>316.2</ele>
        <time>2022-04-03T10:15:28Z</time>
      </trkpt>
      <trkpt lat="45.76663" lon="1.06492">
        <ele>316.2</ele>
        <time>2022-04-03T10:15:29Z</time>
      </trkpt>
      <trkpt lat="45.76664" lon="1.06482">
        <ele>315.4</ele>
        <time>2022-04-03T10:15:30Z</time>
      </trkpt>
      <trkpt lat="45.76665" lon="1.06472">
        <ele>314.8</ele>
        <time>2022-04-03T10:15:31Z</time>
      </trkpt>
      <trkpt lat="45.76666" lon="1.06463">
        <ele>314.4</ele>
        <time>2022-04-03T10:15:32Z</time>
      </trkpt>
      <trkpt lat="45.76668" lon="1.06454">
        <ele>314.4</ele>
        <time>2022-04-03T10:15:33Z</time>
      </trkpt>
      <trkpt lat="45.7667" lon="1.06446">
        <ele>314.2</ele>
        <time>2022-04-03T10:15:34Z</time>
      </trkpt>
      <trkpt lat="45.76671" lon="1.06438">
        <ele>313.8</ele>
        <time>2022-04-03T10:15:35Z</time>
      </trkpt>
      <trkpt lat="45.76673" lon="1.06431">
        <ele>313.8</ele>
        <time>2022-04-03T10:15:36Z</time>
      </trkpt>
      <trkpt lat="45.76674" lon="1.06425">
        <ele>313.6</ele>
        <time>2022-04-03T10:15:37Z</time>
      </trkpt>
      <trkpt lat="45.76675" lon="1.06419">
        <ele>313.4</ele>
        <time>2022-04-03T10:15:38Z</time>
      </trkpt>
      <trkpt lat="45.76677" lon="1.06414">
        <ele>313.4</ele>
        <time>2022-04-03T10:15:39Z</time>
      </trkpt>
      <trkpt lat="45.76678" lon="1.06408">
        <ele>313.4</ele>
        <time>2022-04-03T10:15:40Z</time>
      </trkpt>
      <trkpt lat="45.76679" lon="1.06403">
        <ele>313.6</ele>
        <time>2022-04-03T10:15:41Z</time>
      </trkpt>
      <trkpt lat="45.76681" lon="1.06399">
        <ele>313.4</ele>
        <time>2022-04-03T10:15:42Z</time>
      </trkpt>
      <trkpt lat="45.76682" lon="1.06394">
        <ele>313.6</ele>
        <time>2022-04-03T10:15:43Z</time>
      </trkpt>
      <trkpt lat="45.76684" lon="1.0639">
        <ele>313.4</ele>
        <time>2022-04-03T10:15:44Z</time>
      </trkpt>
      <trkpt lat="45.76685" lon="1.06385">
        <ele>313.6</ele>
        <time>2022-04-03T10:15:45Z</time>
      </trkpt>
      <trkpt lat="45.76687" lon="1.06381">
        <ele>313.8</ele>
        <time>2022-04-03T10:15:46Z</time>
      </trkpt>
      <trkpt lat="45.76688" lon="1.06377">
        <ele>314.4</ele>
        <time>2022-04-03T10:15:47Z</time>
      </trkpt>
      <trkpt lat="45.76689" lon="1.06372">
        <ele>314.4</ele>
        <time>2022-04-03T10:15:48Z</time>
      </trkpt>
      <trkpt lat="45.76691" lon="1.06368">
        <ele>314.6</ele>
        <time>2022-04-03T10:15:49Z</time>
      </trkpt>
      <trkpt lat="45.76692" lon="1.06364">
        <ele>315</ele>
        <time>2022-04-03T10:15:50Z</time>
      </trkpt>
      <trkpt lat="45.76693" lon="1.0636">
        <ele>315.4</ele>
        <time>2022-04-03T10:15:51Z</time>
      </trkpt>
      <trkpt lat="45.76694" lon="1.06356">
        <ele>315.8</ele>
        <time>2022-04-03T10:15:52Z</time>
      </trkpt>
      <trkpt lat="45.76696" lon="1.06352">
        <ele>316.2</ele>
        <time>2022-04-03T10:15:53Z</time>
      </trkpt>
      <trkpt lat="45.76697" lon="1.06348">
        <ele>316.4</ele>
        <time>2022-04-03T10:15:54Z</time>
      </trkpt>
      <trkpt lat="45.76698" lon="1.06345">
        <ele>316.4</ele>
        <time>2022-04-03T10:15:55Z</time>
      </trkpt>
      <trkpt lat="45.76699" lon="1.06341">
        <ele>316.4</ele>
        <time>2022-04-03T10:15:56Z</time>
      </trkpt>
      <trkpt lat="45.767" lon="1.06337">
        <ele>316.8</ele>
        <time>2022-04-03T10:15:57Z</time>
      </trkpt>
      <trkpt lat="45.76702" lon="1.06333">
        <ele>316.8</ele>
        <time>2022-04-03T10:15:58Z</time>
      </trkpt>
      <trkpt lat="45.76703" lon="1.06329">
        <ele>316.8</ele>
        <time>2022-04-03T10:15:59Z</time>
      </trkpt>
      <trkpt lat="45.76704" lon="1.06325">
        <ele>316.8</ele>
        <time>2022-04-03T10:16:00Z</time>
      </trkpt>
      <trkpt lat="45.76705" lon="1.06321">
        <ele>317</ele>
        <time>2022-04-03T10:16:01Z</time>
      </trkpt>
      <trkpt lat="45.76706" lon="1.06317">
        <ele>317.2</ele>
        <time>2022-04-03T10:16:02Z</time>
      </trkpt>
      <trkpt lat="45.76708" lon="1.06313">
        <ele>317.6</ele>
        <time>2022-04-03T10:16:03Z</time>
      </trkpt>
      <trkpt lat="45.76709" lon="1.06309">
        <ele>317.8</ele>
        <time>2022-04-03T10:16:04Z</time>
      </trkpt>
      <trkpt lat="45.7671" lon="1.06305">
        <ele>318.2</ele>
        <time>2022-04-03T10:16:05Z</time>
      </trkpt>
      <trkpt lat="45.76711" lon="1.063">
        <ele>318.4</ele>
        <time>2022-04-03T10:16:06Z</time>
      </trkpt>
      <trkpt lat="45.76713" lon="1.06296">
        <ele>318.2</ele>
        <time>2022-04-03T10:16:07Z</time>
      </trkpt>
      <trkpt lat="45.76714" lon="1.06292">
        <ele>318.2</ele>
        <time>2022-04-03T10:16:08Z</time>
      </trkpt>
      <trkpt lat="45.76715" lon="1.06288">
        <ele>318.4</ele>
        <time>2022-04-03T10:16:09Z</time>
      </trkpt>
      <trkpt lat="45.76716" lon="1.06284">
        <ele>318.6</ele>
        <time>2022-04-03T10:16:10Z</time>
      </trkpt>
      <trkpt lat="45.76718" lon="1.0628">
        <ele>318.6</ele>
        <time>2022-04-03T10:16:11Z</time>
      </trkpt>
      <trkpt lat="45.76719" lon="1.06276">
        <ele>318.8</ele>
        <time>2022-04-03T10:16:12Z</time>
      </trkpt>
      <trkpt lat="45.7672" lon="1.06272">
        <ele>319</ele>
        <time>2022-04-03T10:16:13Z</time>
      </trkpt>
      <trkpt lat="45.76722" lon="1.06267">
        <ele>319.2</ele>
        <time>2022-04-03T10:16:14Z</time>
      </trkpt>
      <trkpt lat="45.76723" lon="1.06263">
        <ele>319.4</ele>
        <time>2022-04-03T10:16:15Z</time>
      </trkpt>
      <trkpt lat="45.76724" lon="1.06259">
        <ele>319.4</ele>
        <time>2022-04-03T10:16:16Z</time>
      </trkpt>
      <trkpt lat="45.76726" lon="1.06255">
        <ele>319.6</ele>
        <time>2022-04-03T10:16:17Z</time>
      </trkpt>
      <trkpt lat="45.76727" lon="1.06251">
        <ele>319.8</ele>
        <time>2022-04-03T10:16:18Z</time>
      </trkpt>
      <trkpt lat="45.76728" lon="1.06246">
        <ele>320</ele>
        <time>2022-04-03T10:16:19Z</time>
      </trkpt>
      <trkpt lat="45.76729" lon="1.06242">
        <ele>320</ele>
        <time>2022-04-03T10:16:20Z</time>
      </trkpt>
      <trkpt lat="45.76731" lon="1.06238">
        <ele>320.2</ele>
        <time>2022-04-03T10:16:21Z</time>
      </trkpt>
      <trkpt lat="45.76732" lon="1.06233">
        <ele>320.2</ele>
        <time>2022-04-03T10:16:22Z</time>
      </trkpt>
      <trkpt lat="45.76733" lon="1.06229">
        <ele>320.4</ele>
        <time>2022-04-03T10:16:23Z</time>
      </trkpt>
      <trkpt lat="45.76735" lon="1.06225">
        <ele>320.4</ele>
        <time>2022-04-03T10:16:24Z</time>
      </trkpt>
      <trkpt lat="45.76736" lon="1.0622">
        <ele>320.4</ele>
        <time>2022-04-03T10:16:25Z</time>
      </trkpt>
      <trkpt lat="45.76737" lon="1.06216">
        <ele>320.4</ele>
        <time>2022-04-03T10:16:26Z</time>
      </trkpt>
      <trkpt lat="45.76738" lon="1.06212">
        <ele>320.4</ele>
        <time>2022-04-03T10:16:27Z</time>
      </trkpt>
      <trkpt lat="45.7674" lon="1.06207">
        <ele>320.6</ele>
        <time>2022-04-03T10:16:28Z</time>
      </trkpt>
      <trkpt lat="45.76741" lon="1.06203">
        <ele>320.8</ele>
        <time>2022-04-03T10:16:29Z</time>
      </trkpt>
      <trkpt lat="45.76742" lon="1.06199">
        <ele>321</ele>
        <time>2022-04-03T10:16:30Z</time>
      </trkpt>
      <trkpt lat="45.76744" lon="1.06195">
        <ele>321.4</ele>
        <time>2022-04-03T10:16:31Z</time>
      </trkpt>
      <trkpt lat="45.76745" lon="1.06191">
        <ele>321.4</ele>
        <time>2022-04-03T10:16:32Z</time>
      </trkpt>
      <trkpt lat="45.76746" lon="1.06187">
        <ele>321.6</ele>
        <time>2022-04-03T10:16:33Z</time>
      </trkpt>
      <trkpt lat="45.76748" lon="1.06182">
        <ele>321.4</ele>
        <time>2022-04-03T10:16:34Z</time>
      </trkpt>
      <trkpt lat="45.76749" lon="1.06178">
        <ele>321.4</ele>
        <time>2022-04-03T10:16:35Z</time>
      </trkpt>
      <trkpt lat="45.7675" lon="1.06174">
        <ele>321.6</ele>
        <time>2022-04-03T10:16:36Z</time>
      </trkpt>
      <trkpt lat="45.76751" lon="1.0617">
        <ele>321.8</ele>
        <time>2022-04-03T10:16:37Z</time>
      </trkpt>
      <trkpt lat="45.76753" lon="1.06166">
        <ele>321.6</ele>
        <time>2022-04-03T10:16:38Z</time>
      </trkpt>
      <trkpt lat="45.76754" lon="1.06162">
        <ele>321.6</ele>
        <time>2022-04-03T10:16:39Z</time>
      </trkpt>
      <trkpt lat="45.76755" lon="1.06158">
        <ele>322</ele>
        <time>2022-04-03T10:16:40Z</time>
      </trkpt>
      <trkpt lat="45.76756" lon="1.06154">
        <ele>322</ele>
        <time>2022-04-03T10:16:41Z</time>
      </trkpt>
      <trkpt lat="45.76758" lon="1.0615">
        <ele>322.2</ele>
        <time>2022-04-03T10:16:42Z</time>
      </trkpt>
      <trkpt lat="45.76759" lon="1.06145">
        <ele>322.2</ele>
        <time>2022-04-03T10:16:43Z</time>
      </trkpt>
      <trkpt lat="45.7676" lon="1.06141">
        <ele>322.2</ele>
        <time>2022-04-03T10:16:44Z</time>
      </trkpt>
      <trkpt lat="45.76761" lon="1.06137">
        <ele>322.2</ele>
        <time>2022-04-03T10:16:45Z</time>
      </trkpt>
      <trkpt lat="45.76763" lon="1.06133">
        <ele>322.4</ele>
        <time>2022-04-03T10:16:46Z</time>
      </trkpt>
      <trkpt lat="45.76764" lon="1.06129">
        <ele>322.6</ele>
        <time>2022-04-03T10:16:47Z</time>
      </trkpt>
      <trkpt lat="45.76765" lon="1.06125">
        <ele>322.8</ele>
        <time>2022-04-03T10:16:48Z</time>
      </trkpt>
      <trkpt lat="45.76766" lon="1.06121">
        <ele>323</ele>
        <time>2022-04-03T10:16:49Z</time>
      </trkpt>
      <trkpt lat="45.76767" lon="1.06117">
        <ele>323.2</ele>
        <time>2022-04-03T10:16:50Z</time>
      </trkpt>
      <trkpt lat="45.76769" lon="1.06113">
        <ele>323.4</ele>
        <time>2022-04-03T10:16:51Z</time>
      </trkpt>
      <trkpt lat="45.7677" lon="1.06108">
        <ele>323.8</ele>
        <time>2022-04-03T10:16:52Z</time>
      </trkpt>
      <trkpt lat="45.76771" lon="1.06104">
        <ele>324.2</ele>
        <time>2022-04-03T10:16:53Z</time>
      </trkpt>
      <trkpt lat="45.76772" lon="1.061">
        <ele>324.6</ele>
        <time>2022-04-03T10:16:54Z</time>
      </trkpt>
      <trkpt lat="45.76774" lon="1.06096">
        <ele>324.6</ele>
        <time>2022-04-03T10:16:55Z</time>
      </trkpt>
      <trkpt lat="45.76775" lon="1.06092">
        <ele>324.8</ele>
        <time>2022-04-03T10:16:56Z</time>
      </trkpt>
      <trkpt lat="45.76776" lon="1.06088">
        <ele>324.8</ele>
        <time>2022-04-03T10:16:57Z</time>
      </trkpt>
      <trkpt lat="45.76777" lon="1.06085">
        <ele>325</ele>
        <time>2022-04-03T10:16:58Z</time>
      </trkpt>
      <trkpt lat="45.76778" lon="1.06081">
        <ele>325</ele>
        <time>2022-04-03T10:16:59Z</time>
      </trkpt>
      <trkpt lat="45.7678" lon="1.06077">
        <ele>325</ele>
        <time>2022-04-03T10:17:00Z</time>
      </trkpt>
      <trkpt lat="45.76781" lon="1.06073">
        <ele>325.2</ele>
        <time>2022-04-03T10:17:01Z</time>
      </trkpt>
      <trkpt lat="45.76782" lon="1.06069">
        <ele>325.4</ele>
        <time>2022-04-03T10:17:02Z</time>
      </trkpt>
      <trkpt lat="45.76783" lon="1.06065">
        <ele>325.4</ele>
        <time>2022-04-03T10:17:03Z</time>
      </trkpt>
      <trkpt lat="45.76785" lon="1.06061">
        <ele>325.4</ele>
        <time>2022-04-03T10:17:04Z</time>
      </trkpt>
      <trkpt lat="45.76786" lon="1.06057">
        <ele>325.6</ele>
        <time>2022-04-03T10:17:05Z</time>
      </trkpt>
      <trkpt lat="45.76787" lon="1.06053">
        <ele>325.8</ele>
        <time>2022-04-03T10:17:06Z</time>
      </trkpt>
      <trkpt lat="45.76788" lon="1.0605">
        <ele>326</ele>
        <time>2022-04-03T10:17:07Z</time>
      </trkpt>
      <trkpt lat="45.7679" lon="1.06046">
        <ele>326</ele>
        <time>2022-04-03T10:17:08Z</time>
      </trkpt>
      <trkpt lat="45.76791" lon="1.06042">
        <ele>326</ele>
        <time>2022-04-03T10:17:09Z</time>
      </trkpt>
      <trkpt lat="45.76792" lon="1.06038">
        <ele>326</ele>
        <time>2022-04-03T10:17:10Z</time>
      </trkpt>
      <trkpt lat="45.76793" lon="1.06034">
        <ele>326</ele>
        <time>2022-04-03T10:17:11Z</time>
      </trkpt>
      <trkpt lat="45.76794" lon="1.0603">
        <ele>326.4</ele>
        <time>2022-04-03T10:17:12Z</time>
      </trkpt>
      <trkpt lat="45.76796" lon="1.06026">
        <ele>326.6</ele>
        <time>2022-04-03T10:17:13Z</time>
      </trkpt>
      <trkpt lat="45.76797" lon="1.06021">
        <ele>327</ele>
        <time>2022-04-03T10:17:14Z</time>
      </trkpt>
      <trkpt lat="45.76798" lon="1.06017">
        <ele>327</ele>
        <time>2022-04-03T10:17:15Z</time>
      </trkpt>
      <trkpt lat="45.76799" lon="1.06013">
        <ele>327</ele>
        <time>2022-04-03T10:17:16Z</time>
      </trkpt>
      <trkpt lat="45.768" lon="1.06009">
        <ele>327.4</ele>
        <time>2022-04-03T10:17:17Z</time>
      </trkpt>
      <trkpt lat="45.76802" lon="1.06005">
        <ele>327.4</ele>
        <time>2022-04-03T10:17:18Z</time>
      </trkpt>
      <trkpt lat="45.76803" lon="1.06001">
        <ele>327.6</ele>
        <time>2022-04-03T10:17:19Z</time>
      </trkpt>
      <trkpt lat="45.76804" lon="1.05997">
        <ele>328</ele>
        <time>2022-04-03T10:17:20Z</time>
      </trkpt>
      <trkpt lat="45.76805" lon="1.05993">
        <ele>328.2</ele>
        <time>2022-04-03T10:17:21Z</time>
      </trkpt>
      <trkpt lat="45.76806" lon="1.05989">
        <ele>328.2</ele>
        <time>2022-04-03T10:17:22Z</time>
      </trkpt>
      <trkpt lat="45.76808" lon="1.05985">
        <ele>328.4</ele>
        <time>2022-04-03T10:17:23Z</time>
      </trkpt>
      <trkpt lat="45.76809" lon="1.05981">
        <ele>328.4</ele>
        <time>2022-04-03T10:17:24Z</time>
      </trkpt>
      <trkpt lat="45.7681" lon="1.05977">
        <ele>328.4</ele>
        <time>2022-04-03T10:17:25Z</time>
      </trkpt>
      <trkpt lat="45.76811" lon="1.05972">
        <ele>328.6</ele>
        <time>2022-04-03T10:17:26Z</time>
      </trkpt>
      <trkpt lat="45.76813" lon="1.05968">
        <ele>328.6</ele>
        <time>2022-04-03T10:17:27Z</time>
      </trkpt>
      <trkpt lat="45.76814" lon="1.05964">
        <ele>328.6</ele>
        <time>2022-04-03T10:17:28Z</time>
      </trkpt>
      <trkpt lat="45.76815" lon="1.0596">
        <ele>328.8</ele>
        <time>2022-04-03T10:17:29Z</time>
      </trkpt>
      <trkpt lat="45.76816" lon="1.05956">
        <ele>328.8</ele>
        <time>2022-04-03T10:17:30Z</time>
      </trkpt>
      <trkpt lat="45.76818" lon="1.05951">
        <ele>328.8</ele>
        <time>2022-04-03T10:17:31Z</time>
      </trkpt>
      <trkpt lat="45.76819" lon="1.05947">
        <ele>329</ele>
        <time>2022-04-03T10:17:32Z</time>
      </trkpt>
      <trkpt lat="45.7682" lon="1.05942">
        <ele>329.2</ele>
        <time>2022-04-03T10:17:33Z</time>
      </trkpt>
      <trkpt lat="45.76822" lon="1.05937">
        <ele>329.6</ele>
        <time>2022-04-03T10:17:34Z</time>
      </trkpt>
      <trkpt lat="45.76823" lon="1.05932">
        <ele>329.8</ele>
        <time>2022-04-03T10:17:35Z</time>
      </trkpt>
      <trkpt lat="45.76825" lon="1.05927">
        <ele>330</ele>
        <time>2022-04-03T10:17:36Z</time>
      </trkpt>
      <trkpt lat="45.76826" lon="1.05922">
        <ele>330.2</ele>
        <time>2022-04-03T10:17:37Z</time>
      </trkpt>
      <trkpt lat="45.76828" lon="1.05917">
        <ele>330.2</ele>
        <time>2022-04-03T10:17:38Z</time>
      </trkpt>
      <trkpt lat="45.76829" lon="1.05912">
        <ele>330.2</ele>
        <time>2022-04-03T10:17:39Z</time>
      </trkpt>
      <trkpt lat="45.7683" lon="1.05907">
        <ele>330.2</ele>
        <time>2022-04-03T10:17:40Z</time>
      </trkpt>
      <trkpt lat="45.76832" lon="1.05901">
        <ele>330.2</ele>
        <time>2022-04-03T10:17:41Z</time>
      </trkpt>
      <trkpt lat="45.76833" lon="1.05896">
        <ele>330.2</ele>
        <time>2022-04-03T10:17:42Z</time>
      </trkpt>
      <trkpt lat="45.76835" lon="1.05891">
        <ele>330.2</ele>
        <time>2022-04-03T10:17:43Z</time>
      </trkpt>
      <trkpt lat="45.76837" lon="1.05886">
        <ele>330.2</ele>
        <time>2022-04-03T10:17:44Z</time>
      </trkpt>
      <trkpt lat="45.76838" lon="1.05881">
        <ele>330.2</ele>
        <time>2022-04-03T10:17:45Z</time>
      </trkpt>
      <trkpt lat="45.7684" lon="1.05876">
        <ele>330.2</ele>
        <time>2022-04-03T10:17:46Z</time>
      </trkpt>
      <trkpt lat="45.76841" lon="1.05871">
        <ele>330.2</ele>
        <time>2022-04-03T10:17:47Z</time>
      </trkpt>
      <trkpt lat="45.76843" lon="1.05866">
        <ele>330</ele>
        <time>2022-04-03T10:17:48Z</time>
      </trkpt>
      <trkpt lat="45.76844" lon="1.05861">
        <ele>330</ele>
        <time>2022-04-03T10:17:49Z</time>
      </trkpt>
      <trkpt lat="45.76845" lon="1.05857">
        <ele>330.2</ele>
        <time>2022-04-03T10:17:50Z</time>
      </trkpt>
      <trkpt lat="45.76847" lon="1.05852">
        <ele>330.2</ele>
        <time>2022-04-03T10:17:51Z</time>
      </trkpt>
      <trkpt lat="45.76848" lon="1.05847">
        <ele>330</ele>
        <time>2022-04-03T10:17:52Z</time>
      </trkpt>
      <trkpt lat="45.7685" lon="1.05842">
        <ele>330.2</ele>
        <time>2022-04-03T10:17:53Z</time>
      </trkpt>
      <trkpt lat="45.76851" lon="1.05837">
        <ele>330.2</ele>
        <time>2022-04-03T10:17:54Z</time>
      </trkpt>
      <trkpt lat="45.76853" lon="1.05833">
        <ele>330.2</ele>
        <time>2022-04-03T10:17:55Z</time>
      </trkpt>
      <trkpt lat="45.76854" lon="1.05828">
        <ele>330.4</ele>
        <time>2022-04-03T10:17:56Z</time>
      </trkpt>
      <trkpt lat="45.76855" lon="1.05823">
        <ele>330.6</ele>
        <time>2022-04-03T10:17:57Z</time>
      </trkpt>
      <trkpt lat="45.76857" lon="1.05818">
        <ele>330.6</ele>
        <time>2022-04-03T10:17:58Z</time>
      </trkpt>
      <trkpt lat="45.76858" lon="1.05814">
        <ele>330.6</ele>
        <time>2022-04-03T10:17:59Z</time>
      </trkpt>
      <trkpt lat="45.76859" lon="1.05809">
        <ele>330.8</ele>
        <time>2022-04-03T10:18:00Z</time>
      </trkpt>
      <trkpt lat="45.76861" lon="1.05805">
        <ele>330.8</ele>
        <time>2022-04-03T10:18:01Z</time>
      </trkpt>
      <trkpt lat="45.76862" lon="1.058">
        <ele>331</ele>
        <time>2022-04-03T10:18:02Z</time>
      </trkpt>
      <trkpt lat="45.76864" lon="1.05796">
        <ele>331</ele>
        <time>2022-04-03T10:18:03Z</time>
      </trkpt>
      <trkpt lat="45.76865" lon="1.05792">
        <ele>331.2</ele>
        <time>2022-04-03T10:18:04Z</time>
      </trkpt>
      <trkpt lat="45.76866" lon="1.05787">
        <ele>331.2</ele>
        <time>2022-04-03T10:18:05Z</time>
      </trkpt>
      <trkpt lat="45.76867" lon="1.05783">
        <ele>331.4</ele>
        <time>2022-04-03T10:18:06Z</time>
      </trkpt>
      <trkpt lat="45.76869" lon="1.05778">
        <ele>331.6</ele>
        <time>2022-04-03T10:18:07Z</time>
      </trkpt>
      <trkpt lat="45.7687" lon="1.05774">
        <ele>331.8</ele>
        <time>2022-04-03T10:18:08Z</time>
      </trkpt>
      <trkpt lat="45.76871" lon="1.0577">
        <ele>332</ele>
        <time>2022-04-03T10:18:09Z</time>
      </trkpt>
      <trkpt lat="45.76872" lon="1.05766">
        <ele>332.2</ele>
        <time>2022-04-03T10:18:10Z</time>
      </trkpt>
      <trkpt lat="45.76873" lon="1.05761">
        <ele>332.2</ele>
        <time>2022-04-03T10:18:11Z</time>
      </trkpt>
      <trkpt lat="45.76874" lon="1.05757">
        <ele>332.6</ele>
        <time>2022-04-03T10:18:12Z</time>
      </trkpt>
      <trkpt lat="45.76875" lon="1.05753">
        <ele>332.6</ele>
        <time>2022-04-03T10:18:13Z</time>
      </trkpt>
      <trkpt lat="45.76876" lon="1.05748">
        <ele>332.6</ele>
        <time>2022-04-03T10:18:14Z</time>
      </trkpt>
      <trkpt lat="45.76877" lon="1.05744">
        <ele>333</ele>
        <time>2022-04-03T10:18:15Z</time>
      </trkpt>
      <trkpt lat="45.76878" lon="1.05739">
        <ele>333</ele>
        <time>2022-04-03T10:18:16Z</time>
      </trkpt>
      <trkpt lat="45.76879" lon="1.05735">
        <ele>333.4</ele>
        <time>2022-04-03T10:18:17Z</time>
      </trkpt>
      <trkpt lat="45.7688" lon="1.0573">
        <ele>333.6</ele>
        <time>2022-04-03T10:18:18Z</time>
      </trkpt>
      <trkpt lat="45.76881" lon="1.05725">
        <ele>333.6</ele>
        <time>2022-04-03T10:18:19Z</time>
      </trkpt>
      <trkpt lat="45.76882" lon="1.0572">
        <ele>333.8</ele>
        <time>2022-04-03T10:18:20Z</time>
      </trkpt>
      <trkpt lat="45.76883" lon="1.05716">
        <ele>333.8</ele>
        <time>2022-04-03T10:18:21Z</time>
      </trkpt>
      <trkpt lat="45.76884" lon="1.05711">
        <ele>334</ele>
        <time>2022-04-03T10:18:22Z</time>
      </trkpt>
      <trkpt lat="45.76885" lon="1.05706">
        <ele>334</ele>
        <time>2022-04-03T10:18:23Z</time>
      </trkpt>
      <trkpt lat="45.76885" lon="1.05701">
        <ele>334</ele>
        <time>2022-04-03T10:18:24Z</time>
      </trkpt>
      <trkpt lat="45.76886" lon="1.05696">
        <ele>334</ele>
        <time>2022-04-03T10:18:25Z</time>
      </trkpt>
      <trkpt lat="45.76887" lon="1.05691">
        <ele>334</ele>
        <time>2022-04-03T10:18:26Z</time>
      </trkpt>
      <trkpt lat="45.76888" lon="1.05685">
        <ele>334</ele>
        <time>2022-04-03T10:18:27Z</time>
      </trkpt>
      <trkpt lat="45.76888" lon="1.0568">
        <ele>334</ele>
        <time>2022-04-03T10:18:28Z</time>
      </trkpt>
      <trkpt lat="45.76889" lon="1.05674">
        <ele>334.2</ele>
        <time>2022-04-03T10:18:29Z</time>
      </trkpt>
      <trkpt lat="45.7689" lon="1.05668">
        <ele>334.2</ele>
        <time>2022-04-03T10:18:30Z</time>
      </trkpt>
      <trkpt lat="45.76891" lon="1.05662">
        <ele>334.2</ele>
        <time>2022-04-03T10:18:31Z</time>
      </trkpt>
      <trkpt lat="45.76891" lon="1.05656">
        <ele>334.2</ele>
        <time>2022-04-03T10:18:32Z</time>
      </trkpt>
      <trkpt lat="45.76892" lon="1.0565">
        <ele>334.2</ele>
        <time>2022-04-03T10:18:33Z</time>
      </trkpt>
      <trkpt lat="45.76893" lon="1.05643">
        <ele>334.4</ele>
        <time>2022-04-03T10:18:34Z</time>
      </trkpt>
      <trkpt lat="45.76893" lon="1.05636">
        <ele>334.2</ele>
        <time>2022-04-03T10:18:35Z</time>
      </trkpt>
      <trkpt lat="45.76894" lon="1.0563">
        <ele>334.2</ele>
        <time>2022-04-03T10:18:36Z</time>
      </trkpt>
      <trkpt lat="45.76895" lon="1.05623">
        <ele>334.2</ele>
        <time>2022-04-03T10:18:37Z</time>
      </trkpt>
      <trkpt lat="45.76895" lon="1.05617">
        <ele>334.2</ele>
        <time>2022-04-03T10:18:38Z</time>
      </trkpt>
      <trkpt lat="45.76896" lon="1.0561">
        <ele>334.2</ele>
        <time>2022-04-03T10:18:39Z</time>
      </trkpt>
      <trkpt lat="45.76897" lon="1.05604">
        <ele>334.2</ele>
        <time>2022-04-03T10:18:40Z</time>
      </trkpt>
      <trkpt lat="45.76898" lon="1.05598">
        <ele>334</ele>
        <time>2022-04-03T10:18:41Z</time>
      </trkpt>
      <trkpt lat="45.76899" lon="1.05591">
        <ele>334</ele>
        <time>2022-04-03T10:18:42Z</time>
      </trkpt>
      <trkpt lat="45.769" lon="1.05585">
        <ele>334</ele>
        <time>2022-04-03T10:18:43Z</time>
      </trkpt>
      <trkpt lat="45.76901" lon="1.05579">
        <ele>334</ele>
        <time>2022-04-03T10:18:44Z</time>
      </trkpt>
      <trkpt lat="45.76902" lon="1.05573">
        <ele>334</ele>
        <time>2022-04-03T10:18:45Z</time>
      </trkpt>
      <trkpt lat="45.76903" lon="1.05568">
        <ele>334</ele>
        <time>2022-04-03T10:18:46Z</time>
      </trkpt>
      <trkpt lat="45.76904" lon="1.05562">
        <ele>334</ele>
        <time>2022-04-03T10:18:47Z</time>
      </trkpt>
      <trkpt lat="45.76905" lon="1.05556">
        <ele>334</ele>
        <time>2022-04-03T10:18:48Z</time>
      </trkpt>
      <trkpt lat="45.76907" lon="1.0555">
        <ele>333.8</ele>
        <time>2022-04-03T10:18:49Z</time>
      </trkpt>
      <trkpt lat="45.76908" lon="1.05544">
        <ele>333.8</ele>
        <time>2022-04-03T10:18:50Z</time>
      </trkpt>
      <trkpt lat="45.76909" lon="1.05539">
        <ele>334</ele>
        <time>2022-04-03T10:18:51Z</time>
      </trkpt>
      <trkpt lat="45.76911" lon="1.05533">
        <ele>334</ele>
        <time>2022-04-03T10:18:52Z</time>
      </trkpt>
      <trkpt lat="45.76912" lon="1.05528">
        <ele>333.8</ele>
        <time>2022-04-03T10:18:53Z</time>
      </trkpt>
      <trkpt lat="45.76914" lon="1.05523">
        <ele>333.8</ele>
        <time>2022-04-03T10:18:54Z</time>
      </trkpt>
      <trkpt lat="45.76915" lon="1.05518">
        <ele>334</ele>
        <time>2022-04-03T10:18:55Z</time>
      </trkpt>
      <trkpt lat="45.76917" lon="1.05514">
        <ele>334</ele>
        <time>2022-04-03T10:18:56Z</time>
      </trkpt>
      <trkpt lat="45.76918" lon="1.05509">
        <ele>333.8</ele>
        <time>2022-04-03T10:18:57Z</time>
      </trkpt>
      <trkpt lat="45.76919" lon="1.05504">
        <ele>334</ele>
        <time>2022-04-03T10:18:58Z</time>
      </trkpt>
      <trkpt lat="45.76921" lon="1.055">
        <ele>334.4</ele>
        <time>2022-04-03T10:18:59Z</time>
      </trkpt>
      <trkpt lat="45.76923" lon="1.05496">
        <ele>334.6</ele>
        <time>2022-04-03T10:19:00Z</time>
      </trkpt>
      <trkpt lat="45.76924" lon="1.05491">
        <ele>334.6</ele>
        <time>2022-04-03T10:19:01Z</time>
      </trkpt>
      <trkpt lat="45.76926" lon="1.05487">
        <ele>334.6</ele>
        <time>2022-04-03T10:19:02Z</time>
      </trkpt>
      <trkpt lat="45.76927" lon="1.05483">
        <ele>334.8</ele>
        <time>2022-04-03T10:19:03Z</time>
      </trkpt>
      <trkpt lat="45.76929" lon="1.05479">
        <ele>335</ele>
        <time>2022-04-03T10:19:04Z</time>
      </trkpt>
      <trkpt lat="45.76931" lon="1.05475">
        <ele>335.4</ele>
        <time>2022-04-03T10:19:05Z</time>
      </trkpt>
      <trkpt lat="45.76932" lon="1.05471">
        <ele>336</ele>
        <time>2022-04-03T10:19:06Z</time>
      </trkpt>
      <trkpt lat="45.76934" lon="1.05467">
        <ele>336.2</ele>
        <time>2022-04-03T10:19:07Z</time>
      </trkpt>
      <trkpt lat="45.76936" lon="1.05464">
        <ele>336.2</ele>
        <time>2022-04-03T10:19:08Z</time>
      </trkpt>
      <trkpt lat="45.76937" lon="1.0546">
        <ele>336.6</ele>
        <time>2022-04-03T10:19:09Z</time>
      </trkpt>
      <trkpt lat="45.76939" lon="1.05457">
        <ele>336.8</ele>
        <time>2022-04-03T10:19:10Z</time>
      </trkpt>
      <trkpt lat="45.76941" lon="1.05453">
        <ele>337</ele>
        <time>2022-04-03T10:19:11Z</time>
      </trkpt>
      <trkpt lat="45.76942" lon="1.0545">
        <ele>337.4</ele>
        <time>2022-04-03T10:19:12Z</time>
      </trkpt>
      <trkpt lat="45.76944" lon="1.05446">
        <ele>337.6</ele>
        <time>2022-04-03T10:19:13Z</time>
      </trkpt>
      <trkpt lat="45.76946" lon="1.05443">
        <ele>337.8</ele>
        <time>2022-04-03T10:19:14Z</time>
      </trkpt>
      <trkpt lat="45.76948" lon="1.0544">
        <ele>338</ele>
        <time>2022-04-03T10:19:15Z</time>
      </trkpt>
      <trkpt lat="45.76949" lon="1.05436">
        <ele>338.2</ele>
        <time>2022-04-03T10:19:16Z</time>
      </trkpt>
      <trkpt lat="45.76951" lon="1.05433">
        <ele>338.4</ele>
        <time>2022-04-03T10:19:17Z</time>
      </trkpt>
      <trkpt lat="45.76953" lon="1.0543">
        <ele>338.4</ele>
        <time>2022-04-03T10:19:18Z</time>
      </trkpt>
      <trkpt lat="45.76954" lon="1.05427">
        <ele>338.6</ele>
        <time>2022-04-03T10:19:19Z</time>
      </trkpt>
      <trkpt lat="45.76956" lon="1.05423">
        <ele>338.6</ele>
        <time>2022-04-03T10:19:20Z</time>
      </trkpt>
      <trkpt lat="45.76958" lon="1.0542">
        <ele>338.6</ele>
        <time>2022-04-03T10:19:21Z</time>
      </trkpt>
      <trkpt lat="45.76959" lon="1.05417">
        <ele>338.4</ele>
        <time>2022-04-03T10:19:22Z</time>
      </trkpt>
      <trkpt lat="45.76961" lon="1.05413">
        <ele>338.6</ele>
        <time>2022-04-03T10:19:23Z</time>
      </trkpt>
      <trkpt lat="45.76963" lon="1.0541">
        <ele>338.6</ele>
        <time>2022-04-03T10:19:24Z</time>
      </trkpt>
      <trkpt lat="45.76965" lon="1.05407">
        <ele>338.8</ele>
        <time>2022-04-03T10:19:25Z</time>
      </trkpt>
      <trkpt lat="45.76967" lon="1.05403">
        <ele>338.8</ele>
        <time>2022-04-03T10:19:26Z</time>
      </trkpt>
      <trkpt lat="45.76968" lon="1.054">
        <ele>339</ele>
        <time>2022-04-03T10:19:27Z</time>
      </trkpt>
      <trkpt lat="45.7697" lon="1.05397">
        <ele>339.2</ele>
        <time>2022-04-03T10:19:28Z</time>
      </trkpt>
      <trkpt lat="45.76972" lon="1.05393">
        <ele>339.4</ele>
        <time>2022-04-03T10:19:29Z</time>
      </trkpt>
      <trkpt lat="45.76974" lon="1.0539">
        <ele>339.8</ele>
        <time>2022-04-03T10:19:30Z</time>
      </trkpt>
      <trkpt lat="45.76976" lon="1.05386">
        <ele>339.8</ele>
        <time>2022-04-03T10:19:31Z</time>
      </trkpt>
      <trkpt lat="45.76978" lon="1.05382">
        <ele>340.2</ele>
        <time>2022-04-03T10:19:32Z</time>
      </trkpt>
      <trkpt lat="45.7698" lon="1.05379">
        <ele>340.2</ele>
        <time>2022-04-03T10:19:33Z</time>
      </trkpt>
      <trkpt lat="45.76982" lon="1.05375">
        <ele>340.2</ele>
        <time>2022-04-03T10:19:34Z</time>
      </trkpt>
      <trkpt lat="45.76983" lon="1.05371">
        <ele>340.4</ele>
        <time>2022-04-03T10:19:35Z</time>
      </trkpt>
      <trkpt lat="45.76985" lon="1.05368">
        <ele>340.4</ele>
        <time>2022-04-03T10:19:36Z</time>
      </trkpt>
      <trkpt lat="45.76987" lon="1.05364">
        <ele>340.4</ele>
        <time>2022-04-03T10:19:37Z</time>
      </trkpt>
      <trkpt lat="45.76989" lon="1.0536">
        <ele>340.6</ele>
        <time>2022-04-03T10:19:38Z</time>
      </trkpt>
      <trkpt lat="45.76991" lon="1.05356">
        <ele>340.6</ele>
        <time>2022-04-03T10:19:39Z</time>
      </trkpt>
      <trkpt lat="45.76993" lon="1.05352">
        <ele>340.6</ele>
        <time>2022-04-03T10:19:40Z</time>
      </trkpt>
      <trkpt lat="45.76994" lon="1.05348">
        <ele>340.6</ele>
        <time>2022-04-03T10:19:41Z</time>
      </trkpt>
      <trkpt lat="45.76996" lon="1.05344">
        <ele>340.8</ele>
        <time>2022-04-03T10:19:42Z</time>
      </trkpt>
      <trkpt lat="45.76998" lon="1.0534">
        <ele>341</ele>
        <time>2022-04-03T10:19:43Z</time>
      </trkpt>
      <trkpt lat="45.76999" lon="1.05336">
        <ele>341</ele>
        <time>2022-04-03T10:19:44Z</time>
      </trkpt>
      <trkpt lat="45.77001" lon="1.05332">
        <ele>341</ele>
        <time>2022-04-03T10:19:45Z</time>
      </trkpt>
      <trkpt lat="45.77002" lon="1.05327">
        <ele>341</ele>
        <time>2022-04-03T10:19:46Z</time>
      </trkpt>
      <trkpt lat="45.77004" lon="1.05323">
        <ele>341</ele>
        <time>2022-04-03T10:19:47Z</time>
      </trkpt>
      <trkpt lat="45.77005" lon="1.05318">
        <ele>341</ele>
        <time>2022-04-03T10:19:48Z</time>
      </trkpt>
      <trkpt lat="45.77007" lon="1.05314">
        <ele>341.2</ele>
        <time>2022-04-03T10:19:49Z</time>
      </trkpt>
      <trkpt lat="45.77008" lon="1.05309">
        <ele>341</ele>
        <time>2022-04-03T10:19:50Z</time>
      </trkpt>
      <trkpt lat="45.7701" lon="1.05304">
        <ele>341</ele>
        <time>2022-04-03T10:19:51Z</time>
      </trkpt>
      <trkpt lat="45.77011" lon="1.053">
        <ele>341</ele>
        <time>2022-04-03T10:19:52Z</time>
      </trkpt>
      <trkpt lat="45.77013" lon="1.05295">
        <ele>341</ele>
        <time>2022-04-03T10:19:53Z</time>
      </trkpt>
      <trkpt lat="45.77015" lon="1.0529">
        <ele>341</ele>
        <time>2022-04-03T10:19:54Z</time>
      </trkpt>
      <trkpt lat="45.77016" lon="1.05285">
        <ele>341</ele>
        <time>2022-04-03T10:19:55Z</time>
      </trkpt>
      <trkpt lat="45.77017" lon="1.0528">
        <ele>341.2</ele>
        <time>2022-04-03T10:19:56Z</time>
      </trkpt>
      <trkpt lat="45.77019" lon="1.05275">
        <ele>341</ele>
        <time>2022-04-03T10:19:57Z</time>
      </trkpt>
      <trkpt lat="45.77021" lon="1.05271">
        <ele>341</ele>
        <time>2022-04-03T10:19:58Z</time>
      </trkpt>
      <trkpt lat="45.77022" lon="1.05265">
        <ele>341</ele>
        <time>2022-04-03T10:19:59Z</time>
      </trkpt>
      <trkpt lat="45.77023" lon="1.0526">
        <ele>341.2</ele>
        <time>2022-04-03T10:20:00Z</time>
      </trkpt>
      <trkpt lat="45.77024" lon="1.05255">
        <ele>341.4</ele>
        <time>2022-04-03T10:20:01Z</time>
      </trkpt>
      <trkpt lat="45.77026" lon="1.05251">
        <ele>341.2</ele>
        <time>2022-04-03T10:20:02Z</time>
      </trkpt>
      <trkpt lat="45.77027" lon="1.05246">
        <ele>341.2</ele>
        <time>2022-04-03T10:20:03Z</time>
      </trkpt>
      <trkpt lat="45.77029" lon="1.05241">
        <ele>341.4</ele>
        <time>2022-04-03T10:20:04Z</time>
      </trkpt>
      <trkpt lat="45.7703" lon="1.05236">
        <ele>341.2</ele>
        <time>2022-04-03T10:20:05Z</time>
      </trkpt>
      <trkpt lat="45.77032" lon="1.05231">
        <ele>341.2</ele>
        <time>2022-04-03T10:20:06Z</time>
      </trkpt>
      <trkpt lat="45.77033" lon="1.05226">
        <ele>341.4</ele>
        <time>2022-04-03T10:20:07Z</time>
      </trkpt>
      <trkpt lat="45.77035" lon="1.05222">
        <ele>341.4</ele>
        <time>2022-04-03T10:20:08Z</time>
      </trkpt>
      <trkpt lat="45.77036" lon="1.05217">
        <ele>341.4</ele>
        <time>2022-04-03T10:20:09Z</time>
      </trkpt>
      <trkpt lat="45.77038" lon="1.05212">
        <ele>341.4</ele>
        <time>2022-04-03T10:20:10Z</time>
      </trkpt>
      <trkpt lat="45.77039" lon="1.05208">
        <ele>341.6</ele>
        <time>2022-04-03T10:20:11Z</time>
      </trkpt>
      <trkpt lat="45.7704" lon="1.05203">
        <ele>341.6</ele>
        <time>2022-04-03T10:20:12Z</time>
      </trkpt>
      <trkpt lat="45.77042" lon="1.05198">
        <ele>341.8</ele>
        <time>2022-04-03T10:20:13Z</time>
      </trkpt>
      <trkpt lat="45.77043" lon="1.05194">
        <ele>341.6</ele>
        <time>2022-04-03T10:20:14Z</time>
      </trkpt>
      <trkpt lat="45.77045" lon="1.0519">
        <ele>341.8</ele>
        <time>2022-04-03T10:20:15Z</time>
      </trkpt>
      <trkpt lat="45.77046" lon="1.05185">
        <ele>342</ele>
        <time>2022-04-03T10:20:16Z</time>
      </trkpt>
      <trkpt lat="45.77047" lon="1.05181">
        <ele>342.2</ele>
        <time>2022-04-03T10:20:17Z</time>
      </trkpt>
      <trkpt lat="45.77048" lon="1.05177">
        <ele>342.2</ele>
        <time>2022-04-03T10:20:18Z</time>
      </trkpt>
      <trkpt lat="45.77049" lon="1.05173">
        <ele>342.2</ele>
        <time>2022-04-03T10:20:19Z</time>
      </trkpt>
      <trkpt lat="45.77051" lon="1.05169">
        <ele>342.4</ele>
        <time>2022-04-03T10:20:20Z</time>
      </trkpt>
      <trkpt lat="45.77052" lon="1.05165">
        <ele>342.6</ele>
        <time>2022-04-03T10:20:21Z</time>
      </trkpt>
      <trkpt lat="45.77053" lon="1.05161">
        <ele>342.6</ele>
        <time>2022-04-03T10:20:22Z</time>
      </trkpt>
      <trkpt lat="45.77054" lon="1.05156">
        <ele>342.8</ele>
        <time>2022-04-03T10:20:23Z</time>
      </trkpt>
      <trkpt lat="45.77056" lon="1.05152">
        <ele>342.8</ele>
        <time>2022-04-03T10:20:24Z</time>
      </trkpt>
      <trkpt lat="45.77057" lon="1.05148">
        <ele>343</ele>
        <time>2022-04-03T10:20:25Z</time>
      </trkpt>
      <trkpt lat="45.77058" lon="1.05144">
        <ele>343.2</ele>
        <time>2022-04-03T10:20:26Z</time>
      </trkpt>
      <trkpt lat="45.77059" lon="1.0514">
        <ele>343.2</ele>
        <time>2022-04-03T10:20:27Z</time>
      </trkpt>
      <trkpt lat="45.77061" lon="1.05136">
        <ele>343.4</ele>
        <time>2022-04-03T10:20:28Z</time>
      </trkpt>
      <trkpt lat="45.77062" lon="1.05132">
        <ele>343.4</ele>
        <time>2022-04-03T10:20:29Z</time>
      </trkpt>
      <trkpt lat="45.77063" lon="1.05128">
        <ele>343.6</ele>
        <time>2022-04-03T10:20:30Z</time>
      </trkpt>
      <trkpt lat="45.77065" lon="1.05123">
        <ele>343.6</ele>
        <time>2022-04-03T10:20:31Z</time>
      </trkpt>
      <trkpt lat="45.77066" lon="1.05119">
        <ele>343.8</ele>
        <time>2022-04-03T10:20:32Z</time>
      </trkpt>
      <trkpt lat="45.77067" lon="1.05115">
        <ele>344</ele>
        <time>2022-04-03T10:20:33Z</time>
      </trkpt>
      <trkpt lat="45.77068" lon="1.05111">
        <ele>344</ele>
        <time>2022-04-03T10:20:34Z</time>
      </trkpt>
      <trkpt lat="45.7707" lon="1.05107">
        <ele>344.4</ele>
        <time>2022-04-03T10:20:35Z</time>
      </trkpt>
      <trkpt lat="45.77071" lon="1.05103">
        <ele>344.4</ele>
        <time>2022-04-03T10:20:36Z</time>
      </trkpt>
      <trkpt lat="45.77072" lon="1.05099">
        <ele>344.6</ele>
        <time>2022-04-03T10:20:37Z</time>
      </trkpt>
      <trkpt lat="45.77073" lon="1.05095">
        <ele>344.6</ele>
        <time>2022-04-03T10:20:38Z</time>
      </trkpt>
      <trkpt lat="45.77075" lon="1.05091">
        <ele>344.8</ele>
        <time>2022-04-03T10:20:39Z</time>
      </trkpt>
      <trkpt lat="45.77076" lon="1.05087">
        <ele>344.8</ele>
        <time>2022-04-03T10:20:40Z</time>
      </trkpt>
      <trkpt lat="45.77077" lon="1.05083">
        <ele>345</ele>
        <time>2022-04-03T10:20:41Z</time>
      </trkpt>
      <trkpt lat="45.77078" lon="1.05079">
        <ele>345.2</ele>
        <time>2022-04-03T10:20:42Z</time>
      </trkpt>
      <trkpt lat="45.77079" lon="1.05076">
        <ele>345.2</ele>
        <time>2022-04-03T10:20:43Z</time>
      </trkpt>
      <trkpt lat="45.77081" lon="1.05072">
        <ele>345.2</ele>
        <time>2022-04-03T10:20:44Z</time>
      </trkpt>
      <trkpt lat="45.77082" lon="1.05068">
        <ele>345.4</ele>
        <time>2022-04-03T10:20:45Z</time>
      </trkpt>
      <trkpt lat="45.77083" lon="1.05064">
        <ele>345.4</ele>
        <time>2022-04-03T10:20:46Z</time>
      </trkpt>
      <trkpt lat="45.77084" lon="1.0506">
        <ele>345.6</ele>
        <time>2022-04-03T10:20:47Z</time>
      </trkpt>
      <trkpt lat="45.77085" lon="1.05056">
        <ele>346</ele>
        <time>2022-04-03T10:20:48Z</time>
      </trkpt>
      <trkpt lat="45.77087" lon="1.05052">
        <ele>346</ele>
        <time>2022-04-03T10:20:49Z</time>
      </trkpt>
      <trkpt lat="45.77088" lon="1.05047">
        <ele>346.2</ele>
        <time>2022-04-03T10:20:50Z</time>
      </trkpt>
      <trkpt lat="45.77089" lon="1.05044">
        <ele>346.2</ele>
        <time>2022-04-03T10:20:51Z</time>
      </trkpt>
      <trkpt lat="45.7709" lon="1.0504">
        <ele>346.4</ele>
        <time>2022-04-03T10:20:52Z</time>
      </trkpt>
      <trkpt lat="45.77092" lon="1.05036">
        <ele>346.4</ele>
        <time>2022-04-03T10:20:53Z</time>
      </trkpt>
      <trkpt lat="45.77093" lon="1.05032">
        <ele>346.6</ele>
        <time>2022-04-03T10:20:54Z</time>
      </trkpt>
      <trkpt lat="45.77094" lon="1.05028">
        <ele>346.6</ele>
        <time>2022-04-03T10:20:55Z</time>
      </trkpt>
      <trkpt lat="45.77096" lon="1.05023">
        <ele>346.8</ele>
        <time>2022-04-03T10:20:56Z</time>
      </trkpt>
      <trkpt lat="45.77097" lon="1.05019">
        <ele>346.8</ele>
        <time>2022-04-03T10:20:57Z</time>
      </trkpt>
      <trkpt lat="45.77098" lon="1.05015">
        <ele>346.8</ele>
        <time>2022-04-03T10:20:58Z</time>
      </trkpt>
      <trkpt lat="45.77099" lon="1.05011">
        <ele>347.2</ele>
        <time>2022-04-03T10:20:59Z</time>
      </trkpt>
      <trkpt lat="45.771" lon="1.05007">
        <ele>347.2</ele>
        <time>2022-04-03T10:21:00Z</time>
      </trkpt>
      <trkpt lat="45.77102" lon="1.05003">
        <ele>347.4</ele>
        <time>2022-04-03T10:21:01Z</time>
      </trkpt>
      <trkpt lat="45.77103" lon="1.04998">
        <ele>347.6</ele>
        <time>2022-04-03T10:21:02Z</time>
      </trkpt>
      <trkpt lat="45.77104" lon="1.04994">
        <ele>347.8</ele>
        <time>2022-04-03T10:21:03Z</time>
      </trkpt>
      <trkpt lat="45.77106" lon="1.0499">
        <ele>347.8</ele>
        <time>2022-04-03T10:21:04Z</time>
      </trkpt>
      <trkpt lat="45.77107" lon="1.04985">
        <ele>348</ele>
        <time>2022-04-03T10:21:05Z</time>
      </trkpt>
      <trkpt lat="45.77109" lon="1.04981">
        <ele>348</ele>
        <time>2022-04-03T10:21:06Z</time>
      </trkpt>
      <trkpt lat="45.7711" lon="1.04976">
        <ele>348</ele>
        <time>2022-04-03T10:21:07Z</time>
      </trkpt>
      <trkpt lat="45.77112" lon="1.04972">
        <ele>348.2</ele>
        <time>2022-04-03T10:21:08Z</time>
      </trkpt>
      <trkpt lat="45.77113" lon="1.04967">
        <ele>348.2</ele>
        <time>2022-04-03T10:21:09Z</time>
      </trkpt>
      <trkpt lat="45.77114" lon="1.04962">
        <ele>348.2</ele>
        <time>2022-04-03T10:21:10Z</time>
      </trkpt>
      <trkpt lat="45.77116" lon="1.04957">
        <ele>348.2</ele>
        <time>2022-04-03T10:21:11Z</time>
      </trkpt>
      <trkpt lat="45.77117" lon="1.04952">
        <ele>348.2</ele>
        <time>2022-04-03T10:21:12Z</time>
      </trkpt>
      <trkpt lat="45.77118" lon="1.04947">
        <ele>348.4</ele>
        <time>2022-04-03T10:21:13Z</time>
      </trkpt>
      <trkpt lat="45.7712" lon="1.04942">
        <ele>348.4</ele>
        <time>2022-04-03T10:21:14Z</time>
      </trkpt>
      <trkpt lat="45.77122" lon="1.04937">
        <ele>348.4</ele>
        <time>2022-04-03T10:21:15Z</time>
      </trkpt>
      <trkpt lat="45.77123" lon="1.04932">
        <ele>348.4</ele>
        <time>2022-04-03T10:21:16Z</time>
      </trkpt>
      <trkpt lat="45.77125" lon="1.04927">
        <ele>348.2</ele>
        <time>2022-04-03T10:21:17Z</time>
      </trkpt>
      <trkpt lat="45.77127" lon="1.04921">
        <ele>348.4</ele>
        <time>2022-04-03T10:21:18Z</time>
      </trkpt>
      <trkpt lat="45.77128" lon="1.04916">
        <ele>348.4</ele>
        <time>2022-04-03T10:21:19Z</time>
      </trkpt>
      <trkpt lat="45.7713" lon="1.0491">
        <ele>348.4</ele>
        <time>2022-04-03T10:21:20Z</time>
      </trkpt>
      <trkpt lat="45.77131" lon="1.04904">
        <ele>348.4</ele>
        <time>2022-04-03T10:21:21Z</time>
      </trkpt>
      <trkpt lat="45.77133" lon="1.04898">
        <ele>348.2</ele>
        <time>2022-04-03T10:21:22Z</time>
      </trkpt>
      <trkpt lat="45.77134" lon="1.04892">
        <ele>348.2</ele>
        <time>2022-04-03T10:21:23Z</time>
      </trkpt>
      <trkpt lat="45.77136" lon="1.04886">
        <ele>348.2</ele>
        <time>2022-04-03T10:21:24Z</time>
      </trkpt>
      <trkpt lat="45.77138" lon="1.04879">
        <ele>348.2</ele>
        <time>2022-04-03T10:21:25Z</time>
      </trkpt>
      <trkpt lat="45.77139" lon="1.04873">
        <ele>348.2</ele>
        <time>2022-04-03T10:21:26Z</time>
      </trkpt>
      <trkpt lat="45.77141" lon="1.04866">
        <ele>348.2</ele>
        <time>2022-04-03T10:21:27Z</time>
      </trkpt>
      <trkpt lat="45.77143" lon="1.0486">
        <ele>347.8</ele>
        <time>2022-04-03T10:21:28Z</time>
      </trkpt>
      <trkpt lat="45.77145" lon="1.04853">
        <ele>348</ele>
        <time>2022-04-03T10:21:29Z</time>
      </trkpt>
      <trkpt lat="45.77146" lon="1.04847">
        <ele>347.8</ele>
        <time>2022-04-03T10:21:30Z</time>
      </trkpt>
      <trkpt lat="45.77148" lon="1.0484">
        <ele>347.8</ele>
        <time>2022-04-03T10:21:31Z</time>
      </trkpt>
      <trkpt lat="45.7715" lon="1.04834">
        <ele>347.4</ele>
        <time>2022-04-03T10:21:32Z</time>
      </trkpt>
      <trkpt lat="45.77152" lon="1.04827">
        <ele>347.6</ele>
        <time>2022-04-03T10:21:33Z</time>
      </trkpt>
      <trkpt lat="45.77153" lon="1.04821">
        <ele>347.6</ele>
        <time>2022-04-03T10:21:34Z</time>
      </trkpt>
      <trkpt lat="45.77155" lon="1.04814">
        <ele>347.6</ele>
        <time>2022-04-03T10:21:35Z</time>
      </trkpt>
      <trkpt lat="45.77157" lon="1.04808">
        <ele>347.4</ele>
        <time>2022-04-03T10:21:36Z</time>
      </trkpt>
      <trkpt lat="45.77159" lon="1.04801">
        <ele>347.4</ele>
        <time>2022-04-03T10:21:37Z</time>
      </trkpt>
      <trkpt lat="45.77161" lon="1.04795">
        <ele>347.2</ele>
        <time>2022-04-03T10:21:38Z</time>
      </trkpt>
      <trkpt lat="45.77163" lon="1.04788">
        <ele>347.2</ele>
        <time>2022-04-03T10:21:39Z</time>
      </trkpt>
      <trkpt lat="45.77165" lon="1.04782">
        <ele>347.2</ele>
        <time>2022-04-03T10:21:40Z</time>
      </trkpt>
      <trkpt lat="45.77167" lon="1.04776">
        <ele>347.2</ele>
        <time>2022-04-03T10:21:41Z</time>
      </trkpt>
      <trkpt lat="45.77169" lon="1.0477">
        <ele>347.2</ele>
        <time>2022-04-03T10:21:42Z</time>
      </trkpt>
      <trkpt lat="45.77171" lon="1.04764">
        <ele>347.2</ele>
        <time>2022-04-03T10:21:43Z</time>
      </trkpt>
      <trkpt lat="45.77173" lon="1.04758">
        <ele>347.2</ele>
        <time>2022-04-03T10:21:44Z</time>
      </trkpt>
      <trkpt lat="45.77175" lon="1.04752">
        <ele>347.2</ele>
        <time>2022-04-03T10:21:45Z</time>
      </trkpt>
      <trkpt lat="45.77177" lon="1.04746">
        <ele>347.2</ele>
        <time>2022-04-03T10:21:46Z</time>
      </trkpt>
      <trkpt lat="45.77178" lon="1.0474">
        <ele>347.2</ele>
        <time>2022-04-03T10:21:47Z</time>
      </trkpt>
      <trkpt lat="45.7718" lon="1.04734">
        <ele>347.4</ele>
        <time>2022-04-03T10:21:48Z</time>
      </trkpt>
      <trkpt lat="45.77182" lon="1.04729">
        <ele>347.4</ele>
        <time>2022-04-03T10:21:49Z</time>
      </trkpt>
      <trkpt lat="45.77183" lon="1.04723">
        <ele>347.4</ele>
        <time>2022-04-03T10:21:50Z</time>
      </trkpt>
      <trkpt lat="45.77185" lon="1.04718">
        <ele>347.6</ele>
        <time>2022-04-03T10:21:51Z</time>
      </trkpt>
      <trkpt lat="45.77187" lon="1.04712">
        <ele>347.6</ele>
        <time>2022-04-03T10:21:52Z</time>
      </trkpt>
      <trkpt lat="45.77189" lon="1.04707">
        <ele>347.8</ele>
        <time>2022-04-03T10:21:53Z</time>
      </trkpt>
      <trkpt lat="45.77191" lon="1.04702">
        <ele>347.8</ele>
        <time>2022-04-03T10:21:54Z</time>
      </trkpt>
      <trkpt lat="45.77192" lon="1.04697">
        <ele>347.8</ele>
        <time>2022-04-03T10:21:55Z</time>
      </trkpt>
      <trkpt lat="45.77194" lon="1.04691">
        <ele>348</ele>
        <time>2022-04-03T10:21:56Z</time>
      </trkpt>
      <trkpt lat="45.77195" lon="1.04686">
        <ele>348</ele>
        <time>2022-04-03T10:21:57Z</time>
      </trkpt>
      <trkpt lat="45.77197" lon="1.04681">
        <ele>348</ele>
        <time>2022-04-03T10:21:58Z</time>
      </trkpt>
      <trkpt lat="45.77198" lon="1.04675">
        <ele>348</ele>
        <time>2022-04-03T10:21:59Z</time>
      </trkpt>
      <trkpt lat="45.77199" lon="1.04669">
        <ele>348</ele>
        <time>2022-04-03T10:22:00Z</time>
      </trkpt>
      <trkpt lat="45.772" lon="1.04663">
        <ele>348</ele>
        <time>2022-04-03T10:22:01Z</time>
      </trkpt>
      <trkpt lat="45.77201" lon="1.04657">
        <ele>348.2</ele>
        <time>2022-04-03T10:22:02Z</time>
      </trkpt>
      <trkpt lat="45.77202" lon="1.04651">
        <ele>348.2</ele>
        <time>2022-04-03T10:22:03Z</time>
      </trkpt>
      <trkpt lat="45.77204" lon="1.04645">
        <ele>348.6</ele>
        <time>2022-04-03T10:22:04Z</time>
      </trkpt>
      <trkpt lat="45.77205" lon="1.04639">
        <ele>348.6</ele>
        <time>2022-04-03T10:22:05Z</time>
      </trkpt>
      <trkpt lat="45.77205" lon="1.04633">
        <ele>348.6</ele>
        <time>2022-04-03T10:22:06Z</time>
      </trkpt>
      <trkpt lat="45.77206" lon="1.04627">
        <ele>348.8</ele>
        <time>2022-04-03T10:22:07Z</time>
      </trkpt>
      <trkpt lat="45.77206" lon="1.04622">
        <ele>348.8</ele>
        <time>2022-04-03T10:22:08Z</time>
      </trkpt>
      <trkpt lat="45.77206" lon="1.04616">
        <ele>348.8</ele>
        <time>2022-04-03T10:22:09Z</time>
      </trkpt>
      <trkpt lat="45.77206" lon="1.0461">
        <ele>348.8</ele>
        <time>2022-04-03T10:22:10Z</time>
      </trkpt>
      <trkpt lat="45.77206" lon="1.04605">
        <ele>348.8</ele>
        <time>2022-04-03T10:22:11Z</time>
      </trkpt>
      <trkpt lat="45.77206" lon="1.04599">
        <ele>348.8</ele>
        <time>2022-04-03T10:22:12Z</time>
      </trkpt>
      <trkpt lat="45.77206" lon="1.04593">
        <ele>348.8</ele>
        <time>2022-04-03T10:22:13Z</time>
      </trkpt>
      <trkpt lat="45.77206" lon="1.04587">
        <ele>348.8</ele>
        <time>2022-04-03T10:22:14Z</time>
      </trkpt>
      <trkpt lat="45.77206" lon="1.04581">
        <ele>348.8</ele>
        <time>2022-04-03T10:22:15Z</time>
      </trkpt>
      <trkpt lat="45.77206" lon="1.04575">
        <ele>348.8</ele>
        <time>2022-04-03T10:22:16Z</time>
      </trkpt>
      <trkpt lat="45.77206" lon="1.04569">
        <ele>348.6</ele>
        <time>2022-04-03T10:22:17Z</time>
      </trkpt>
      <trkpt lat="45.77206" lon="1.04563">
        <ele>348.6</ele>
        <time>2022-04-03T10:22:18Z</time>
      </trkpt>
      <trkpt lat="45.77206" lon="1.04557">
        <ele>348.4</ele>
        <time>2022-04-03T10:22:19Z</time>
      </trkpt>
      <trkpt lat="45.77205" lon="1.04551">
        <ele>348.4</ele>
        <time>2022-04-03T10:22:20Z</time>
      </trkpt>
      <trkpt lat="45.77205" lon="1.04545">
        <ele>348.6</ele>
        <time>2022-04-03T10:22:21Z</time>
      </trkpt>
      <trkpt lat="45.77205" lon="1.04539">
        <ele>348.4</ele>
        <time>2022-04-03T10:22:22Z</time>
      </trkpt>
      <trkpt lat="45.77205" lon="1.04533">
        <ele>348.4</ele>
        <time>2022-04-03T10:22:23Z</time>
      </trkpt>
      <trkpt lat="45.77205" lon="1.04528">
        <ele>348.4</ele>
        <time>2022-04-03T10:22:24Z</time>
      </trkpt>
      <trkpt lat="45.77205" lon="1.04522">
        <ele>348.4</ele>
        <time>2022-04-03T10:22:25Z</time>
      </trkpt>
      <trkpt lat="45.77205" lon="1.04517">
        <ele>348.4</ele>
        <time>2022-04-03T10:22:26Z</time>
      </trkpt>
      <trkpt lat="45.77205" lon="1.04512">
        <ele>348.4</ele>
        <time>2022-04-03T10:22:27Z</time>
      </trkpt>
      <trkpt lat="45.77205" lon="1.04506">
        <ele>348.4</ele>
        <time>2022-04-03T10:22:28Z</time>
      </trkpt>
      <trkpt lat="45.77205" lon="1.04501">
        <ele>348.4</ele>
        <time>2022-04-03T10:22:29Z</time>
      </trkpt>
      <trkpt lat="45.77205" lon="1.04496">
        <ele>348.2</ele>
        <time>2022-04-03T10:22:30Z</time>
      </trkpt>
      <trkpt lat="45.77204" lon="1.04491">
        <ele>348.2</ele>
        <time>2022-04-03T10:22:31Z</time>
      </trkpt>
      <trkpt lat="45.77204" lon="1.04485">
        <ele>348.4</ele>
        <time>2022-04-03T10:22:32Z</time>
      </trkpt>
      <trkpt lat="45.77204" lon="1.0448">
        <ele>348.4</ele>
        <time>2022-04-03T10:22:33Z</time>
      </trkpt>
      <trkpt lat="45.77204" lon="1.04476">
        <ele>348.4</ele>
        <time>2022-04-03T10:22:34Z</time>
      </trkpt>
      <trkpt lat="45.77204" lon="1.04471">
        <ele>348.4</ele>
        <time>2022-04-03T10:22:35Z</time>
      </trkpt>
      <trkpt lat="45.77204" lon="1.04466">
        <ele>348.4</ele>
        <time>2022-04-03T10:22:36Z</time>
      </trkpt>
      <trkpt lat="45.77204" lon="1.04461">
        <ele>348.8</ele>
        <time>2022-04-03T10:22:37Z</time>
      </trkpt>
      <trkpt lat="45.77203" lon="1.04457">
        <ele>349</ele>
        <time>2022-04-03T10:22:38Z</time>
      </trkpt>
      <trkpt lat="45.77203" lon="1.04453">
        <ele>349.2</ele>
        <time>2022-04-03T10:22:39Z</time>
      </trkpt>
      <trkpt lat="45.77203" lon="1.04448">
        <ele>349.4</ele>
        <time>2022-04-03T10:22:40Z</time>
      </trkpt>
      <trkpt lat="45.77203" lon="1.04444">
        <ele>349.6</ele>
        <time>2022-04-03T10:22:41Z</time>
      </trkpt>
      <trkpt lat="45.77203" lon="1.0444">
        <ele>349.6</ele>
        <time>2022-04-03T10:22:42Z</time>
      </trkpt>
      <trkpt lat="45.77203" lon="1.04436">
        <ele>349.6</ele>
        <time>2022-04-03T10:22:43Z</time>
      </trkpt>
      <trkpt lat="45.77203" lon="1.04432">
        <ele>349.8</ele>
        <time>2022-04-03T10:22:44Z</time>
      </trkpt>
      <trkpt lat="45.77203" lon="1.04428">
        <ele>350</ele>
        <time>2022-04-03T10:22:45Z</time>
      </trkpt>
      <trkpt lat="45.77203" lon="1.04425">
        <ele>350</ele>
        <time>2022-04-03T10:22:46Z</time>
      </trkpt>
      <trkpt lat="45.77203" lon="1.04421">
        <ele>350.2</ele>
        <time>2022-04-03T10:22:47Z</time>
      </trkpt>
      <trkpt lat="45.77203" lon="1.04417">
        <ele>350.2</ele>
        <time>2022-04-03T10:22:48Z</time>
      </trkpt>
      <trkpt lat="45.77203" lon="1.04414">
        <ele>350.6</ele>
        <time>2022-04-03T10:22:49Z</time>
      </trkpt>
      <trkpt lat="45.77202" lon="1.0441">
        <ele>350.8</ele>
        <time>2022-04-03T10:22:50Z</time>
      </trkpt>
      <trkpt lat="45.77202" lon="1.04406">
        <ele>350.8</ele>
        <time>2022-04-03T10:22:51Z</time>
      </trkpt>
      <trkpt lat="45.77203" lon="1.04403">
        <ele>350.8</ele>
        <time>2022-04-03T10:22:52Z</time>
      </trkpt>
      <trkpt lat="45.77203" lon="1.04399">
        <ele>351</ele>
        <time>2022-04-03T10:22:53Z</time>
      </trkpt>
      <trkpt lat="45.77203" lon="1.04396">
        <ele>351</ele>
        <time>2022-04-03T10:22:54Z</time>
      </trkpt>
      <trkpt lat="45.77203" lon="1.04392">
        <ele>351.2</ele>
        <time>2022-04-03T10:22:55Z</time>
      </trkpt>
      <trkpt lat="45.77203" lon="1.04388">
        <ele>351.4</ele>
        <time>2022-04-03T10:22:56Z</time>
      </trkpt>
      <trkpt lat="45.77203" lon="1.04385">
        <ele>351.6</ele>
        <time>2022-04-03T10:22:57Z</time>
      </trkpt>
      <trkpt lat="45.77203" lon="1.04381">
        <ele>351.6</ele>
        <time>2022-04-03T10:22:58Z</time>
      </trkpt>
      <trkpt lat="45.77203" lon="1.04377">
        <ele>351.8</ele>
        <time>2022-04-03T10:22:59Z</time>
      </trkpt>
      <trkpt lat="45.77203" lon="1.04373">
        <ele>352</ele>
        <time>2022-04-03T10:23:00Z</time>
      </trkpt>
      <trkpt lat="45.77203" lon="1.0437">
        <ele>352.2</ele>
        <time>2022-04-03T10:23:01Z</time>
      </trkpt>
      <trkpt lat="45.77203" lon="1.04366">
        <ele>352.4</ele>
        <time>2022-04-03T10:23:02Z</time>
      </trkpt>
      <trkpt lat="45.77204" lon="1.04363">
        <ele>352.4</ele>
        <time>2022-04-03T10:23:03Z</time>
      </trkpt>
      <trkpt lat="45.77204" lon="1.04359">
        <ele>352.6</ele>
        <time>2022-04-03T10:23:04Z</time>
      </trkpt>
      <trkpt lat="45.77204" lon="1.04355">
        <ele>352.6</ele>
        <time>2022-04-03T10:23:05Z</time>
      </trkpt>
      <trkpt lat="45.77204" lon="1.04352">
        <ele>352.8</ele>
        <time>2022-04-03T10:23:06Z</time>
      </trkpt>
      <trkpt lat="45.77204" lon="1.04348">
        <ele>352.6</ele>
        <time>2022-04-03T10:23:07Z</time>
      </trkpt>
      <trkpt lat="45.77203" lon="1.04344">
        <ele>352.8</ele>
        <time>2022-04-03T10:23:08Z</time>
      </trkpt>
      <trkpt lat="45.77203" lon="1.0434">
        <ele>353</ele>
        <time>2022-04-03T10:23:09Z</time>
      </trkpt>
      <trkpt lat="45.77203" lon="1.04337">
        <ele>353.2</ele>
        <time>2022-04-03T10:23:10Z</time>
      </trkpt>
      <trkpt lat="45.77203" lon="1.04333">
        <ele>353.2</ele>
        <time>2022-04-03T10:23:11Z</time>
      </trkpt>
      <trkpt lat="45.77203" lon="1.04329">
        <ele>353.4</ele>
        <time>2022-04-03T10:23:12Z</time>
      </trkpt>
      <trkpt lat="45.77203" lon="1.04325">
        <ele>353.4</ele>
        <time>2022-04-03T10:23:13Z</time>
      </trkpt>
      <trkpt lat="45.77203" lon="1.04322">
        <ele>353.4</ele>
        <time>2022-04-03T10:23:14Z</time>
      </trkpt>
      <trkpt lat="45.77203" lon="1.04318">
        <ele>353.6</ele>
        <time>2022-04-03T10:23:15Z</time>
      </trkpt>
      <trkpt lat="45.77203" lon="1.04314">
        <ele>353.6</ele>
        <time>2022-04-03T10:23:16Z</time>
      </trkpt>
      <trkpt lat="45.77203" lon="1.04311">
        <ele>353.6</ele>
        <time>2022-04-03T10:23:17Z</time>
      </trkpt>
      <trkpt lat="45.77203" lon="1.04307">
        <ele>354</ele>
        <time>2022-04-03T10:23:18Z</time>
      </trkpt>
      <trkpt lat="45.77203" lon="1.04303">
        <ele>354</ele>
        <time>2022-04-03T10:23:19Z</time>
      </trkpt>
      <trkpt lat="45.77202" lon="1.04299">
        <ele>354.2</ele>
        <time>2022-04-03T10:23:20Z</time>
      </trkpt>
      <trkpt lat="45.77202" lon="1.04296">
        <ele>354.4</ele>
        <time>2022-04-03T10:23:21Z</time>
      </trkpt>
      <trkpt lat="45.77202" lon="1.04292">
        <ele>354.6</ele>
        <time>2022-04-03T10:23:22Z</time>
      </trkpt>
      <trkpt lat="45.77202" lon="1.04288">
        <ele>354.8</ele>
        <time>2022-04-03T10:23:23Z</time>
      </trkpt>
      <trkpt lat="45.77202" lon="1.04284">
        <ele>354.8</ele>
        <time>2022-04-03T10:23:24Z</time>
      </trkpt>
      <trkpt lat="45.77202" lon="1.04281">
        <ele>355</ele>
        <time>2022-04-03T10:23:25Z</time>
      </trkpt>
      <trkpt lat="45.77202" lon="1.04277">
        <ele>355.2</ele>
        <time>2022-04-03T10:23:26Z</time>
      </trkpt>
      <trkpt lat="45.77203" lon="1.04273">
        <ele>355.2</ele>
        <time>2022-04-03T10:23:27Z</time>
      </trkpt>
      <trkpt lat="45.77203" lon="1.04269">
        <ele>355.4</ele>
        <time>2022-04-03T10:23:28Z</time>
      </trkpt>
      <trkpt lat="45.77202" lon="1.04266">
        <ele>355.6</ele>
        <time>2022-04-03T10:23:29Z</time>
      </trkpt>
      <trkpt lat="45.77202" lon="1.04262">
        <ele>355.8</ele>
        <time>2022-04-03T10:23:30Z</time>
      </trkpt>
      <trkpt lat="45.77202" lon="1.04258">
        <ele>356</ele>
        <time>2022-04-03T10:23:31Z</time>
      </trkpt>
      <trkpt lat="45.77202" lon="1.04254">
        <ele>356</ele>
        <time>2022-04-03T10:23:32Z</time>
      </trkpt>
      <trkpt lat="45.77201" lon="1.0425">
        <ele>356</ele>
        <time>2022-04-03T10:23:33Z</time>
      </trkpt>
      <trkpt lat="45.77201" lon="1.04247">
        <ele>356.4</ele>
        <time>2022-04-03T10:23:34Z</time>
      </trkpt>
      <trkpt lat="45.77201" lon="1.04243">
        <ele>356.4</ele>
        <time>2022-04-03T10:23:35Z</time>
      </trkpt>
      <trkpt lat="45.77201" lon="1.0424">
        <ele>356.8</ele>
        <time>2022-04-03T10:23:36Z</time>
      </trkpt>
      <trkpt lat="45.77201" lon="1.04236">
        <ele>356.8</ele>
        <time>2022-04-03T10:23:37Z</time>
      </trkpt>
      <trkpt lat="45.77201" lon="1.04233">
        <ele>357</ele>
        <time>2022-04-03T10:23:38Z</time>
      </trkpt>
      <trkpt lat="45.77201" lon="1.04229">
        <ele>357</ele>
        <time>2022-04-03T10:23:39Z</time>
      </trkpt>
      <trkpt lat="45.77201" lon="1.04225">
        <ele>357.2</ele>
        <time>2022-04-03T10:23:40Z</time>
      </trkpt>
      <trkpt lat="45.77201" lon="1.04221">
        <ele>357</ele>
        <time>2022-04-03T10:23:41Z</time>
      </trkpt>
      <trkpt lat="45.77201" lon="1.04218">
        <ele>357.2</ele>
        <time>2022-04-03T10:23:42Z</time>
      </trkpt>
      <trkpt lat="45.772" lon="1.04214">
        <ele>357.6</ele>
        <time>2022-04-03T10:23:43Z</time>
      </trkpt>
      <trkpt lat="45.772" lon="1.0421">
        <ele>357.6</ele>
        <time>2022-04-03T10:23:44Z</time>
      </trkpt>
      <trkpt lat="45.772" lon="1.04207">
        <ele>357.8</ele>
        <time>2022-04-03T10:23:45Z</time>
      </trkpt>
      <trkpt lat="45.772" lon="1.04204">
        <ele>358</ele>
        <time>2022-04-03T10:23:46Z</time>
      </trkpt>
      <trkpt lat="45.772" lon="1.042">
        <ele>358.2</ele>
        <time>2022-04-03T10:23:47Z</time>
      </trkpt>
      <trkpt lat="45.772" lon="1.04197">
        <ele>358</ele>
        <time>2022-04-03T10:23:48Z</time>
      </trkpt>
      <trkpt lat="45.772" lon="1.04194">
        <ele>358.2</ele>
        <time>2022-04-03T10:23:49Z</time>
      </trkpt>
      <trkpt lat="45.772" lon="1.04191">
        <ele>358.4</ele>
        <time>2022-04-03T10:23:50Z</time>
      </trkpt>
      <trkpt lat="45.772" lon="1.04188">
        <ele>358.4</ele>
        <time>2022-04-03T10:23:51Z</time>
      </trkpt>
      <trkpt lat="45.772" lon="1.04184">
        <ele>358.4</ele>
        <time>2022-04-03T10:23:52Z</time>
      </trkpt>
      <trkpt lat="45.772" lon="1.04181">
        <ele>358.6</ele>
        <time>2022-04-03T10:23:53Z</time>
      </trkpt>
      <trkpt lat="45.772" lon="1.04178">
        <ele>358.8</ele>
        <time>2022-04-03T10:23:54Z</time>
      </trkpt>
      <trkpt lat="45.772" lon="1.04175">
        <ele>359.2</ele>
        <time>2022-04-03T10:23:55Z</time>
      </trkpt>
      <trkpt lat="45.772" lon="1.04171">
        <ele>359.4</ele>
        <time>2022-04-03T10:23:56Z</time>
      </trkpt>
      <trkpt lat="45.772" lon="1.04168">
        <ele>359.6</ele>
        <time>2022-04-03T10:23:57Z</time>
      </trkpt>
      <trkpt lat="45.772" lon="1.04165">
        <ele>360.2</ele>
        <time>2022-04-03T10:23:58Z</time>
      </trkpt>
      <trkpt lat="45.772" lon="1.04162">
        <ele>360.4</ele>
        <time>2022-04-03T10:23:59Z</time>
      </trkpt>
      <trkpt lat="45.772" lon="1.04158">
        <ele>360.6</ele>
        <time>2022-04-03T10:24:00Z</time>
      </trkpt>
      <trkpt lat="45.772" lon="1.04155">
        <ele>360.6</ele>
        <time>2022-04-03T10:24:01Z</time>
      </trkpt>
      <trkpt lat="45.772" lon="1.04152">
        <ele>360.8</ele>
        <time>2022-04-03T10:24:02Z</time>
      </trkpt>
      <trkpt lat="45.772" lon="1.04149">
        <ele>361</ele>
        <time>2022-04-03T10:24:03Z</time>
      </trkpt>
      <trkpt lat="45.77199" lon="1.04146">
        <ele>361.2</ele>
        <time>2022-04-03T10:24:04Z</time>
      </trkpt>
      <trkpt lat="45.77199" lon="1.04143">
        <ele>361.2</ele>
        <time>2022-04-03T10:24:05Z</time>
      </trkpt>
      <trkpt lat="45.77199" lon="1.04139">
        <ele>361.4</ele>
        <time>2022-04-03T10:24:06Z</time>
      </trkpt>
      <trkpt lat="45.77199" lon="1.04136">
        <ele>361.2</ele>
        <time>2022-04-03T10:24:07Z</time>
      </trkpt>
      <trkpt lat="45.77199" lon="1.04133">
        <ele>361.4</ele>
        <time>2022-04-03T10:24:08Z</time>
      </trkpt>
      <trkpt lat="45.77199" lon="1.0413">
        <ele>361.4</ele>
        <time>2022-04-03T10:24:09Z</time>
      </trkpt>
      <trkpt lat="45.77199" lon="1.04126">
        <ele>361.4</ele>
        <time>2022-04-03T10:24:10Z</time>
      </trkpt>
      <trkpt lat="45.77199" lon="1.04123">
        <ele>361.6</ele>
        <time>2022-04-03T10:24:11Z</time>
      </trkpt>
      <trkpt lat="45.77199" lon="1.0412">
        <ele>361.6</ele>
        <time>2022-04-03T10:24:12Z</time>
      </trkpt>
      <trkpt lat="45.77199" lon="1.04117">
        <ele>361.6</ele>
        <time>2022-04-03T10:24:13Z</time>
      </trkpt>
      <trkpt lat="45.77199" lon="1.04114">
        <ele>361.8</ele>
        <time>2022-04-03T10:24:14Z</time>
      </trkpt>
      <trkpt lat="45.77199" lon="1.0411">
        <ele>361.8</ele>
        <time>2022-04-03T10:24:15Z</time>
      </trkpt>
      <trkpt lat="45.77198" lon="1.04107">
        <ele>361.8</ele>
        <time>2022-04-03T10:24:16Z</time>
      </trkpt>
      <trkpt lat="45.77198" lon="1.04104">
        <ele>362</ele>
        <time>2022-04-03T10:24:17Z</time>
      </trkpt>
      <trkpt lat="45.77198" lon="1.04101">
        <ele>362.4</ele>
        <time>2022-04-03T10:24:18Z</time>
      </trkpt>
      <trkpt lat="45.77199" lon="1.04098">
        <ele>362.6</ele>
        <time>2022-04-03T10:24:19Z</time>
      </trkpt>
      <trkpt lat="45.77199" lon="1.04095">
        <ele>362.8</ele>
        <time>2022-04-03T10:24:20Z</time>
      </trkpt>
      <trkpt lat="45.77199" lon="1.04092">
        <ele>363</ele>
        <time>2022-04-03T10:24:21Z</time>
      </trkpt>
      <trkpt lat="45.77198" lon="1.04088">
        <ele>363.2</ele>
        <time>2022-04-03T10:24:22Z</time>
      </trkpt>
      <trkpt lat="45.77198" lon="1.04085">
        <ele>363.2</ele>
        <time>2022-04-03T10:24:23Z</time>
      </trkpt>
      <trkpt lat="45.77198" lon="1.04082">
        <ele>363.6</ele>
        <time>2022-04-03T10:24:24Z</time>
      </trkpt>
      <trkpt lat="45.77198" lon="1.04079">
        <ele>363.6</ele>
        <time>2022-04-03T10:24:25Z</time>
      </trkpt>
      <trkpt lat="45.77198" lon="1.04076">
        <ele>363.8</ele>
        <time>2022-04-03T10:24:26Z</time>
      </trkpt>
      <trkpt lat="45.77198" lon="1.04073">
        <ele>364</ele>
        <time>2022-04-03T10:24:27Z</time>
      </trkpt>
      <trkpt lat="45.77198" lon="1.0407">
        <ele>364</ele>
        <time>2022-04-03T10:24:28Z</time>
      </trkpt>
      <trkpt lat="45.77198" lon="1.04066">
        <ele>364</ele>
        <time>2022-04-03T10:24:29Z</time>
      </trkpt>
      <trkpt lat="45.77198" lon="1.04063">
        <ele>364.2</ele>
        <time>2022-04-03T10:24:30Z</time>
      </trkpt>
      <trkpt lat="45.77198" lon="1.0406">
        <ele>364.2</ele>
        <time>2022-04-03T10:24:31Z</time>
      </trkpt>
      <trkpt lat="45.77198" lon="1.04057">
        <ele>364.6</ele>
        <time>2022-04-03T10:24:32Z</time>
      </trkpt>
      <trkpt lat="45.77198" lon="1.04054">
        <ele>364.8</ele>
        <time>2022-04-03T10:24:33Z</time>
      </trkpt>
      <trkpt lat="45.77198" lon="1.04051">
        <ele>365.2</ele>
        <time>2022-04-03T10:24:34Z</time>
      </trkpt>
      <trkpt lat="45.77198" lon="1.04048">
        <ele>365.4</ele>
        <time>2022-04-03T10:24:35Z</time>
      </trkpt>
      <trkpt lat="45.77198" lon="1.04045">
        <ele>365.6</ele>
        <time>2022-04-03T10:24:36Z</time>
      </trkpt>
      <trkpt lat="45.77198" lon="1.04042">
        <ele>365.6</ele>
        <time>2022-04-03T10:24:37Z</time>
      </trkpt>
      <trkpt lat="45.77198" lon="1.04039">
        <ele>365.6</ele>
        <time>2022-04-03T10:24:38Z</time>
      </trkpt>
      <trkpt lat="45.77198" lon="1.04035">
        <ele>365.8</ele>
        <time>2022-04-03T10:24:39Z</time>
      </trkpt>
      <trkpt lat="45.77197" lon="1.04032">
        <ele>365.8</ele>
        <time>2022-04-03T10:24:40Z</time>
      </trkpt>
      <trkpt lat="45.77197" lon="1.04029">
        <ele>366</ele>
        <time>2022-04-03T10:24:41Z</time>
      </trkpt>
      <trkpt lat="45.77197" lon="1.04025">
        <ele>366</ele>
        <time>2022-04-03T10:24:42Z</time>
      </trkpt>
      <trkpt lat="45.77197" lon="1.04022">
        <ele>366.4</ele>
        <time>2022-04-03T10:24:43Z</time>
      </trkpt>
      <trkpt lat="45.77197" lon="1.04018">
        <ele>366.6</ele>
        <time>2022-04-03T10:24:44Z</time>
      </trkpt>
      <trkpt lat="45.77197" lon="1.04015">
        <ele>366.6</ele>
        <time>2022-04-03T10:24:45Z</time>
      </trkpt>
      <trkpt lat="45.77197" lon="1.04011">
        <ele>367</ele>
        <time>2022-04-03T10:24:46Z</time>
      </trkpt>
      <trkpt lat="45.77196" lon="1.04007">
        <ele>367</ele>
        <time>2022-04-03T10:24:47Z</time>
      </trkpt>
      <trkpt lat="45.77196" lon="1.04004">
        <ele>367</ele>
        <time>2022-04-03T10:24:48Z</time>
      </trkpt>
      <trkpt lat="45.77196" lon="1.04">
        <ele>367.2</ele>
        <time>2022-04-03T10:24:49Z</time>
      </trkpt>
      <trkpt lat="45.77196" lon="1.03997">
        <ele>367.4</ele>
        <time>2022-04-03T10:24:50Z</time>
      </trkpt>
      <trkpt lat="45.77196" lon="1.03993">
        <ele>367.6</ele>
        <time>2022-04-03T10:24:51Z</time>
      </trkpt>
      <trkpt lat="45.77196" lon="1.0399">
        <ele>367.8</ele>
        <time>2022-04-03T10:24:52Z</time>
      </trkpt>
      <trkpt lat="45.77196" lon="1.03986">
        <ele>367.6</ele>
        <time>2022-04-03T10:24:53Z</time>
      </trkpt>
      <trkpt lat="45.77196" lon="1.03982">
        <ele>367.8</ele>
        <time>2022-04-03T10:24:54Z</time>
      </trkpt>
      <trkpt lat="45.77196" lon="1.03979">
        <ele>368</ele>
        <time>2022-04-03T10:24:55Z</time>
      </trkpt>
      <trkpt lat="45.77196" lon="1.03975">
        <ele>368</ele>
        <time>2022-04-03T10:24:56Z</time>
      </trkpt>
      <trkpt lat="45.77196" lon="1.03971">
        <ele>368.2</ele>
        <time>2022-04-03T10:24:57Z</time>
      </trkpt>
      <trkpt lat="45.77196" lon="1.03968">
        <ele>368.2</ele>
        <time>2022-04-03T10:24:58Z</time>
      </trkpt>
      <trkpt lat="45.77195" lon="1.03964">
        <ele>368.4</ele>
        <time>2022-04-03T10:24:59Z</time>
      </trkpt>
      <trkpt lat="45.77195" lon="1.0396">
        <ele>368.4</ele>
        <time>2022-04-03T10:25:00Z</time>
      </trkpt>
      <trkpt lat="45.77195" lon="1.03957">
        <ele>368.6</ele>
        <time>2022-04-03T10:25:01Z</time>
      </trkpt>
      <trkpt lat="45.77195" lon="1.03953">
        <ele>368.6</ele>
        <time>2022-04-03T10:25:02Z</time>
      </trkpt>
      <trkpt lat="45.77195" lon="1.03949">
        <ele>368.6</ele>
        <time>2022-04-03T10:25:03Z</time>
      </trkpt>
      <trkpt lat="45.77195" lon="1.03945">
        <ele>368.6</ele>
        <time>2022-04-03T10:25:04Z</time>
      </trkpt>
      <trkpt lat="45.77195" lon="1.03941">
        <ele>368.8</ele>
        <time>2022-04-03T10:25:05Z</time>
      </trkpt>
      <trkpt lat="45.77195" lon="1.03938">
        <ele>368.8</ele>
        <time>2022-04-03T10:25:06Z</time>
      </trkpt>
      <trkpt lat="45.77195" lon="1.03934">
        <ele>368.8</ele>
        <time>2022-04-03T10:25:07Z</time>
      </trkpt>
      <trkpt lat="45.77195" lon="1.0393">
        <ele>368.8</ele>
        <time>2022-04-03T10:25:08Z</time>
      </trkpt>
      <trkpt lat="45.77195" lon="1.03926">
        <ele>369</ele>
        <time>2022-04-03T10:25:09Z</time>
      </trkpt>
      <trkpt lat="45.77195" lon="1.03923">
        <ele>369.2</ele>
        <time>2022-04-03T10:25:10Z</time>
      </trkpt>
      <trkpt lat="45.77194" lon="1.03919">
        <ele>369.4</ele>
        <time>2022-04-03T10:25:11Z</time>
      </trkpt>
      <trkpt lat="45.77194" lon="1.03915">
        <ele>369.6</ele>
        <time>2022-04-03T10:25:12Z</time>
      </trkpt>
      <trkpt lat="45.77194" lon="1.03911">
        <ele>369.6</ele>
        <time>2022-04-03T10:25:13Z</time>
      </trkpt>
      <trkpt lat="45.77194" lon="1.03907">
        <ele>369.6</ele>
        <time>2022-04-03T10:25:14Z</time>
      </trkpt>
      <trkpt lat="45.77194" lon="1.03903">
        <ele>369.8</ele>
        <time>2022-04-03T10:25:15Z</time>
      </trkpt>
      <trkpt lat="45.77194" lon="1.03899">
        <ele>370</ele>
        <time>2022-04-03T10:25:16Z</time>
      </trkpt>
      <trkpt lat="45.77194" lon="1.03895">
        <ele>370.2</ele>
        <time>2022-04-03T10:25:17Z</time>
      </trkpt>
      <trkpt lat="45.77194" lon="1.03891">
        <ele>370.4</ele>
        <time>2022-04-03T10:25:18Z</time>
      </trkpt>
      <trkpt lat="45.77194" lon="1.03888">
        <ele>370.4</ele>
        <time>2022-04-03T10:25:19Z</time>
      </trkpt>
      <trkpt lat="45.77194" lon="1.03884">
        <ele>370.6</ele>
        <time>2022-04-03T10:25:20Z</time>
      </trkpt>
      <trkpt lat="45.77194" lon="1.0388">
        <ele>370.8</ele>
        <time>2022-04-03T10:25:21Z</time>
      </trkpt>
      <trkpt lat="45.77193" lon="1.03876">
        <ele>370.8</ele>
        <time>2022-04-03T10:25:22Z</time>
      </trkpt>
      <trkpt lat="45.77193" lon="1.03872">
        <ele>371</ele>
        <time>2022-04-03T10:25:23Z</time>
      </trkpt>
      <trkpt lat="45.77193" lon="1.03868">
        <ele>371</ele>
        <time>2022-04-03T10:25:24Z</time>
      </trkpt>
      <trkpt lat="45.77193" lon="1.03864">
        <ele>371.2</ele>
        <time>2022-04-03T10:25:25Z</time>
      </trkpt>
      <trkpt lat="45.77193" lon="1.0386">
        <ele>371.2</ele>
        <time>2022-04-03T10:25:26Z</time>
      </trkpt>
      <trkpt lat="45.77193" lon="1.03856">
        <ele>371.2</ele>
        <time>2022-04-03T10:25:27Z</time>
      </trkpt>
      <trkpt lat="45.77193" lon="1.03852">
        <ele>371.2</ele>
        <time>2022-04-03T10:25:28Z</time>
      </trkpt>
      <trkpt lat="45.77193" lon="1.03848">
        <ele>371.2</ele>
        <time>2022-04-03T10:25:29Z</time>
      </trkpt>
      <trkpt lat="45.77193" lon="1.03844">
        <ele>371.2</ele>
        <time>2022-04-03T10:25:30Z</time>
      </trkpt>
      <trkpt lat="45.77193" lon="1.0384">
        <ele>371.2</ele>
        <time>2022-04-03T10:25:31Z</time>
      </trkpt>
      <trkpt lat="45.77192" lon="1.03836">
        <ele>371.2</ele>
        <time>2022-04-03T10:25:32Z</time>
      </trkpt>
      <trkpt lat="45.77192" lon="1.03832">
        <ele>371.2</ele>
        <time>2022-04-03T10:25:33Z</time>
      </trkpt>
      <trkpt lat="45.77192" lon="1.03828">
        <ele>371.2</ele>
        <time>2022-04-03T10:25:34Z</time>
      </trkpt>
      <trkpt lat="45.77192" lon="1.03824">
        <ele>371.4</ele>
        <time>2022-04-03T10:25:35Z</time>
      </trkpt>
      <trkpt lat="45.77192" lon="1.0382">
        <ele>371.4</ele>
        <time>2022-04-03T10:25:36Z</time>
      </trkpt>
      <trkpt lat="45.77192" lon="1.03816">
        <ele>371.6</ele>
        <time>2022-04-03T10:25:37Z</time>
      </trkpt>
      <trkpt lat="45.77192" lon="1.03812">
        <ele>371.6</ele>
        <time>2022-04-03T10:25:38Z</time>
      </trkpt>
      <trkpt lat="45.77192" lon="1.03808">
        <ele>371.6</ele>
        <time>2022-04-03T10:25:39Z</time>
      </trkpt>
      <trkpt lat="45.77192" lon="1.03804">
        <ele>371.4</ele>
        <time>2022-04-03T10:25:40Z</time>
      </trkpt>
      <trkpt lat="45.77191" lon="1.038">
        <ele>371.6</ele>
        <time>2022-04-03T10:25:41Z</time>
      </trkpt>
      <trkpt lat="45.77191" lon="1.03795">
        <ele>371.6</ele>
        <time>2022-04-03T10:25:42Z</time>
      </trkpt>
      <trkpt lat="45.77191" lon="1.03791">
        <ele>371.8</ele>
        <time>2022-04-03T10:25:43Z</time>
      </trkpt>
      <trkpt lat="45.77191" lon="1.03787">
        <ele>371.6</ele>
        <time>2022-04-03T10:25:44Z</time>
      </trkpt>
      <trkpt lat="45.77191" lon="1.03783">
        <ele>371.8</ele>
        <time>2022-04-03T10:25:45Z</time>
      </trkpt>
      <trkpt lat="45.77191" lon="1.03779">
        <ele>371.8</ele>
        <time>2022-04-03T10:25:46Z</time>
      </trkpt>
      <trkpt lat="45.77191" lon="1.03775">
        <ele>371.8</ele>
        <time>2022-04-03T10:25:47Z</time>
      </trkpt>
      <trkpt lat="45.77191" lon="1.03771">
        <ele>371.8</ele>
        <time>2022-04-03T10:25:48Z</time>
      </trkpt>
      <trkpt lat="45.77191" lon="1.03767">
        <ele>371.8</ele>
        <time>2022-04-03T10:25:49Z</time>
      </trkpt>
      <trkpt lat="45.7719" lon="1.03763">
        <ele>372</ele>
        <time>2022-04-03T10:25:50Z</time>
      </trkpt>
      <trkpt lat="45.7719" lon="1.03759">
        <ele>371.8</ele>
        <time>2022-04-03T10:25:51Z</time>
      </trkpt>
      <trkpt lat="45.7719" lon="1.03755">
        <ele>372</ele>
        <time>2022-04-03T10:25:52Z</time>
      </trkpt>
      <trkpt lat="45.77191" lon="1.0375">
        <ele>372.2</ele>
        <time>2022-04-03T10:25:53Z</time>
      </trkpt>
      <trkpt lat="45.77191" lon="1.03746">
        <ele>372</ele>
        <time>2022-04-03T10:25:54Z</time>
      </trkpt>
      <trkpt lat="45.7719" lon="1.03742">
        <ele>372.2</ele>
        <time>2022-04-03T10:25:55Z</time>
      </trkpt>
      <trkpt lat="45.7719" lon="1.03738">
        <ele>372.2</ele>
        <time>2022-04-03T10:25:56Z</time>
      </trkpt>
      <trkpt lat="45.7719" lon="1.03734">
        <ele>372.2</ele>
        <time>2022-04-03T10:25:57Z</time>
      </trkpt>
      <trkpt lat="45.7719" lon="1.0373">
        <ele>372.4</ele>
        <time>2022-04-03T10:25:58Z</time>
      </trkpt>
      <trkpt lat="45.7719" lon="1.03726">
        <ele>372.4</ele>
        <time>2022-04-03T10:25:59Z</time>
      </trkpt>
      <trkpt lat="45.7719" lon="1.03722">
        <ele>372.6</ele>
        <time>2022-04-03T10:26:00Z</time>
      </trkpt>
      <trkpt lat="45.7719" lon="1.03718">
        <ele>372.6</ele>
        <time>2022-04-03T10:26:01Z</time>
      </trkpt>
      <trkpt lat="45.77191" lon="1.03714">
        <ele>372.8</ele>
        <time>2022-04-03T10:26:02Z</time>
      </trkpt>
      <trkpt lat="45.77191" lon="1.0371">
        <ele>373</ele>
        <time>2022-04-03T10:26:03Z</time>
      </trkpt>
      <trkpt lat="45.77191" lon="1.03705">
        <ele>372.8</ele>
        <time>2022-04-03T10:26:04Z</time>
      </trkpt>
      <trkpt lat="45.77191" lon="1.03701">
        <ele>372.8</ele>
        <time>2022-04-03T10:26:05Z</time>
      </trkpt>
      <trkpt lat="45.77191" lon="1.03697">
        <ele>373</ele>
        <time>2022-04-03T10:26:06Z</time>
      </trkpt>
      <trkpt lat="45.77192" lon="1.03694">
        <ele>373</ele>
        <time>2022-04-03T10:26:07Z</time>
      </trkpt>
      <trkpt lat="45.77192" lon="1.0369">
        <ele>373.2</ele>
        <time>2022-04-03T10:26:08Z</time>
      </trkpt>
      <trkpt lat="45.77192" lon="1.03686">
        <ele>373.4</ele>
        <time>2022-04-03T10:26:09Z</time>
      </trkpt>
      <trkpt lat="45.77192" lon="1.03682">
        <ele>373.4</ele>
        <time>2022-04-03T10:26:10Z</time>
      </trkpt>
      <trkpt lat="45.77193" lon="1.03678">
        <ele>373.4</ele>
        <time>2022-04-03T10:26:11Z</time>
      </trkpt>
      <trkpt lat="45.77193" lon="1.03674">
        <ele>373.4</ele>
        <time>2022-04-03T10:26:12Z</time>
      </trkpt>
      <trkpt lat="45.77194" lon="1.0367">
        <ele>373.6</ele>
        <time>2022-04-03T10:26:13Z</time>
      </trkpt>
      <trkpt lat="45.77195" lon="1.03666">
        <ele>373.6</ele>
        <time>2022-04-03T10:26:14Z</time>
      </trkpt>
      <trkpt lat="45.77195" lon="1.03662">
        <ele>373.6</ele>
        <time>2022-04-03T10:26:15Z</time>
      </trkpt>
      <trkpt lat="45.77196" lon="1.03659">
        <ele>373.8</ele>
        <time>2022-04-03T10:26:16Z</time>
      </trkpt>
      <trkpt lat="45.77196" lon="1.03655">
        <ele>373.8</ele>
        <time>2022-04-03T10:26:17Z</time>
      </trkpt>
      <trkpt lat="45.77197" lon="1.03651">
        <ele>374</ele>
        <time>2022-04-03T10:26:18Z</time>
      </trkpt>
      <trkpt lat="45.77197" lon="1.03647">
        <ele>374.2</ele>
        <time>2022-04-03T10:26:19Z</time>
      </trkpt>
      <trkpt lat="45.77198" lon="1.03644">
        <ele>374.2</ele>
        <time>2022-04-03T10:26:20Z</time>
      </trkpt>
      <trkpt lat="45.77199" lon="1.0364">
        <ele>374.4</ele>
        <time>2022-04-03T10:26:21Z</time>
      </trkpt>
      <trkpt lat="45.772" lon="1.03637">
        <ele>374.4</ele>
        <time>2022-04-03T10:26:22Z</time>
      </trkpt>
      <trkpt lat="45.77201" lon="1.03633">
        <ele>374.6</ele>
        <time>2022-04-03T10:26:23Z</time>
      </trkpt>
      <trkpt lat="45.77201" lon="1.0363">
        <ele>374.6</ele>
        <time>2022-04-03T10:26:24Z</time>
      </trkpt>
      <trkpt lat="45.77202" lon="1.03627">
        <ele>374.8</ele>
        <time>2022-04-03T10:26:25Z</time>
      </trkpt>
      <trkpt lat="45.77203" lon="1.03623">
        <ele>375</ele>
        <time>2022-04-03T10:26:26Z</time>
      </trkpt>
      <trkpt lat="45.77204" lon="1.0362">
        <ele>375.2</ele>
        <time>2022-04-03T10:26:27Z</time>
      </trkpt>
      <trkpt lat="45.77205" lon="1.03616">
        <ele>375.2</ele>
        <time>2022-04-03T10:26:28Z</time>
      </trkpt>
      <trkpt lat="45.77205" lon="1.03613">
        <ele>375.4</ele>
        <time>2022-04-03T10:26:29Z</time>
      </trkpt>
      <trkpt lat="45.77206" lon="1.0361">
        <ele>375.4</ele>
        <time>2022-04-03T10:26:30Z</time>
      </trkpt>
      <trkpt lat="45.77207" lon="1.03607">
        <ele>375.6</ele>
        <time>2022-04-03T10:26:31Z</time>
      </trkpt>
      <trkpt lat="45.77208" lon="1.03603">
        <ele>375.8</ele>
        <time>2022-04-03T10:26:32Z</time>
      </trkpt>
      <trkpt lat="45.77209" lon="1.036">
        <ele>375.8</ele>
        <time>2022-04-03T10:26:33Z</time>
      </trkpt>
      <trkpt lat="45.7721" lon="1.03597">
        <ele>375.8</ele>
        <time>2022-04-03T10:26:34Z</time>
      </trkpt>
      <trkpt lat="45.77211" lon="1.03594">
        <ele>375.8</ele>
        <time>2022-04-03T10:26:35Z</time>
      </trkpt>
      <trkpt lat="45.77212" lon="1.03591">
        <ele>376</ele>
        <time>2022-04-03T10:26:36Z</time>
      </trkpt>
      <trkpt lat="45.77214" lon="1.03588">
        <ele>376.2</ele>
        <time>2022-04-03T10:26:37Z</time>
      </trkpt>
      <trkpt lat="45.77215" lon="1.03586">
        <ele>376.2</ele>
        <time>2022-04-03T10:26:38Z</time>
      </trkpt>
      <trkpt lat="45.77216" lon="1.03583">
        <ele>376.2</ele>
        <time>2022-04-03T10:26:39Z</time>
      </trkpt>
      <trkpt lat="45.77217" lon="1.0358">
        <ele>376.4</ele>
        <time>2022-04-03T10:26:40Z</time>
      </trkpt>
      <trkpt lat="45.77218" lon="1.03577">
        <ele>376.4</ele>
        <time>2022-04-03T10:26:41Z</time>
      </trkpt>
      <trkpt lat="45.77219" lon="1.03575">
        <ele>376.6</ele>
        <time>2022-04-03T10:26:42Z</time>
      </trkpt>
      <trkpt lat="45.7722" lon="1.03572">
        <ele>376.6</ele>
        <time>2022-04-03T10:26:43Z</time>
      </trkpt>
      <trkpt lat="45.77221" lon="1.03569">
        <ele>376.6</ele>
        <time>2022-04-03T10:26:44Z</time>
      </trkpt>
      <trkpt lat="45.77222" lon="1.03567">
        <ele>377</ele>
        <time>2022-04-03T10:26:45Z</time>
      </trkpt>
      <trkpt lat="45.77223" lon="1.03564">
        <ele>377.4</ele>
        <time>2022-04-03T10:26:46Z</time>
      </trkpt>
      <trkpt lat="45.77224" lon="1.03561">
        <ele>377.6</ele>
        <time>2022-04-03T10:26:47Z</time>
      </trkpt>
      <trkpt lat="45.77225" lon="1.03559">
        <ele>378</ele>
        <time>2022-04-03T10:26:48Z</time>
      </trkpt>
      <trkpt lat="45.77227" lon="1.03556">
        <ele>378</ele>
        <time>2022-04-03T10:26:49Z</time>
      </trkpt>
      <trkpt lat="45.77228" lon="1.03554">
        <ele>378.2</ele>
        <time>2022-04-03T10:26:50Z</time>
      </trkpt>
      <trkpt lat="45.77229" lon="1.03551">
        <ele>378.4</ele>
        <time>2022-04-03T10:26:51Z</time>
      </trkpt>
      <trkpt lat="45.7723" lon="1.03549">
        <ele>378.6</ele>
        <time>2022-04-03T10:26:52Z</time>
      </trkpt>
      <trkpt lat="45.77231" lon="1.03546">
        <ele>378.6</ele>
        <time>2022-04-03T10:26:53Z</time>
      </trkpt>
      <trkpt lat="45.77233" lon="1.03544">
        <ele>378.8</ele>
        <time>2022-04-03T10:26:54Z</time>
      </trkpt>
      <trkpt lat="45.77234" lon="1.03542">
        <ele>379</ele>
        <time>2022-04-03T10:26:55Z</time>
      </trkpt>
      <trkpt lat="45.77235" lon="1.03539">
        <ele>379</ele>
        <time>2022-04-03T10:26:56Z</time>
      </trkpt>
      <trkpt lat="45.77236" lon="1.03537">
        <ele>379.2</ele>
        <time>2022-04-03T10:26:57Z</time>
      </trkpt>
      <trkpt lat="45.77238" lon="1.03535">
        <ele>379.2</ele>
        <time>2022-04-03T10:26:58Z</time>
      </trkpt>
      <trkpt lat="45.77239" lon="1.03532">
        <ele>379.4</ele>
        <time>2022-04-03T10:26:59Z</time>
      </trkpt>
      <trkpt lat="45.7724" lon="1.0353">
        <ele>379.4</ele>
        <time>2022-04-03T10:27:00Z</time>
      </trkpt>
      <trkpt lat="45.77241" lon="1.03528">
        <ele>379.4</ele>
        <time>2022-04-03T10:27:01Z</time>
      </trkpt>
      <trkpt lat="45.77242" lon="1.03525">
        <ele>379.4</ele>
        <time>2022-04-03T10:27:02Z</time>
      </trkpt>
      <trkpt lat="45.77244" lon="1.03523">
        <ele>379.6</ele>
        <time>2022-04-03T10:27:03Z</time>
      </trkpt>
      <trkpt lat="45.77245" lon="1.03521">
        <ele>380</ele>
        <time>2022-04-03T10:27:04Z</time>
      </trkpt>
      <trkpt lat="45.77246" lon="1.03519">
        <ele>380.4</ele>
        <time>2022-04-03T10:27:05Z</time>
      </trkpt>
      <trkpt lat="45.77247" lon="1.03517">
        <ele>380.6</ele>
        <time>2022-04-03T10:27:06Z</time>
      </trkpt>
      <trkpt lat="45.77248" lon="1.03515">
        <ele>380.6</ele>
        <time>2022-04-03T10:27:07Z</time>
      </trkpt>
      <trkpt lat="45.7725" lon="1.03513">
        <ele>380.8</ele>
        <time>2022-04-03T10:27:08Z</time>
      </trkpt>
      <trkpt lat="45.77251" lon="1.0351">
        <ele>380.8</ele>
        <time>2022-04-03T10:27:09Z</time>
      </trkpt>
      <trkpt lat="45.77253" lon="1.03508">
        <ele>380.8</ele>
        <time>2022-04-03T10:27:10Z</time>
      </trkpt>
      <trkpt lat="45.77254" lon="1.03506">
        <ele>381</ele>
        <time>2022-04-03T10:27:11Z</time>
      </trkpt>
      <trkpt lat="45.77256" lon="1.03504">
        <ele>381.2</ele>
        <time>2022-04-03T10:27:12Z</time>
      </trkpt>
      <trkpt lat="45.77257" lon="1.03501">
        <ele>381.2</ele>
        <time>2022-04-03T10:27:13Z</time>
      </trkpt>
      <trkpt lat="45.77258" lon="1.03499">
        <ele>381.4</ele>
        <time>2022-04-03T10:27:14Z</time>
      </trkpt>
      <trkpt lat="45.7726" lon="1.03496">
        <ele>381.6</ele>
        <time>2022-04-03T10:27:15Z</time>
      </trkpt>
      <trkpt lat="45.77261" lon="1.03494">
        <ele>382</ele>
        <time>2022-04-03T10:27:16Z</time>
      </trkpt>
      <trkpt lat="45.77263" lon="1.03492">
        <ele>382</ele>
        <time>2022-04-03T10:27:17Z</time>
      </trkpt>
      <trkpt lat="45.77264" lon="1.03489">
        <ele>382.2</ele>
        <time>2022-04-03T10:27:18Z</time>
      </trkpt>
      <trkpt lat="45.77265" lon="1.03487">
        <ele>382.4</ele>
        <time>2022-04-03T10:27:19Z</time>
      </trkpt>
      <trkpt lat="45.77267" lon="1.03485">
        <ele>382.4</ele>
        <time>2022-04-03T10:27:20Z</time>
      </trkpt>
      <trkpt lat="45.77268" lon="1.03482">
        <ele>382.4</ele>
        <time>2022-04-03T10:27:21Z</time>
      </trkpt>
      <trkpt lat="45.7727" lon="1.0348">
        <ele>382.6</ele>
        <time>2022-04-03T10:27:22Z</time>
      </trkpt>
      <trkpt lat="45.77271" lon="1.03478">
        <ele>382.8</ele>
        <time>2022-04-03T10:27:23Z</time>
      </trkpt>
      <trkpt lat="45.77273" lon="1.03475">
        <ele>383.4</ele>
        <time>2022-04-03T10:27:24Z</time>
      </trkpt>
      <trkpt lat="45.77274" lon="1.03473">
        <ele>383.4</ele>
        <time>2022-04-03T10:27:25Z</time>
      </trkpt>
      <trkpt lat="45.77276" lon="1.03471">
        <ele>383.6</ele>
        <time>2022-04-03T10:27:26Z</time>
      </trkpt>
      <trkpt lat="45.77277" lon="1.03469">
        <ele>383.6</ele>
        <time>2022-04-03T10:27:27Z</time>
      </trkpt>
      <trkpt lat="45.77279" lon="1.03466">
        <ele>384</ele>
        <time>2022-04-03T10:27:28Z</time>
      </trkpt>
      <trkpt lat="45.77281" lon="1.03464">
        <ele>384.2</ele>
        <time>2022-04-03T10:27:29Z</time>
      </trkpt>
      <trkpt lat="45.77282" lon="1.03461">
        <ele>384.4</ele>
        <time>2022-04-03T10:27:30Z</time>
      </trkpt>
      <trkpt lat="45.77284" lon="1.03459">
        <ele>384.6</ele>
        <time>2022-04-03T10:27:31Z</time>
      </trkpt>
      <trkpt lat="45.77285" lon="1.03457">
        <ele>384.8</ele>
        <time>2022-04-03T10:27:32Z</time>
      </trkpt>
      <trkpt lat="45.77286" lon="1.03454">
        <ele>384.8</ele>
        <time>2022-04-03T10:27:33Z</time>
      </trkpt>
      <trkpt lat="45.77288" lon="1.03452">
        <ele>385</ele>
        <time>2022-04-03T10:27:34Z</time>
      </trkpt>
      <trkpt lat="45.77289" lon="1.03449">
        <ele>385</ele>
        <time>2022-04-03T10:27:35Z</time>
      </trkpt>
      <trkpt lat="45.77291" lon="1.03447">
        <ele>385</ele>
        <time>2022-04-03T10:27:36Z</time>
      </trkpt>
      <trkpt lat="45.77292" lon="1.03444">
        <ele>385.2</ele>
        <time>2022-04-03T10:27:37Z</time>
      </trkpt>
      <trkpt lat="45.77294" lon="1.03442">
        <ele>385.4</ele>
        <time>2022-04-03T10:27:38Z</time>
      </trkpt>
      <trkpt lat="45.77295" lon="1.03439">
        <ele>385.6</ele>
        <time>2022-04-03T10:27:39Z</time>
      </trkpt>
      <trkpt lat="45.77296" lon="1.03437">
        <ele>385.6</ele>
        <time>2022-04-03T10:27:40Z</time>
      </trkpt>
      <trkpt lat="45.77298" lon="1.03434">
        <ele>385.8</ele>
        <time>2022-04-03T10:27:41Z</time>
      </trkpt>
      <trkpt lat="45.77299" lon="1.03432">
        <ele>386</ele>
        <time>2022-04-03T10:27:42Z</time>
      </trkpt>
      <trkpt lat="45.77301" lon="1.03429">
        <ele>386</ele>
        <time>2022-04-03T10:27:43Z</time>
      </trkpt>
      <trkpt lat="45.77302" lon="1.03427">
        <ele>386.2</ele>
        <time>2022-04-03T10:27:44Z</time>
      </trkpt>
      <trkpt lat="45.77303" lon="1.03424">
        <ele>386.2</ele>
        <time>2022-04-03T10:27:45Z</time>
      </trkpt>
      <trkpt lat="45.77304" lon="1.03422">
        <ele>386.4</ele>
        <time>2022-04-03T10:27:46Z</time>
      </trkpt>
      <trkpt lat="45.77306" lon="1.03419">
        <ele>386.6</ele>
        <time>2022-04-03T10:27:47Z</time>
      </trkpt>
      <trkpt lat="45.77307" lon="1.03417">
        <ele>386.8</ele>
        <time>2022-04-03T10:27:48Z</time>
      </trkpt>
      <trkpt lat="45.77308" lon="1.03414">
        <ele>387</ele>
        <time>2022-04-03T10:27:49Z</time>
      </trkpt>
      <trkpt lat="45.7731" lon="1.03412">
        <ele>387</ele>
        <time>2022-04-03T10:27:50Z</time>
      </trkpt>
      <trkpt lat="45.77311" lon="1.0341">
        <ele>387.2</ele>
        <time>2022-04-03T10:27:51Z</time>
      </trkpt>
      <trkpt lat="45.77313" lon="1.03408">
        <ele>387.6</ele>
        <time>2022-04-03T10:27:52Z</time>
      </trkpt>
      <trkpt lat="45.77314" lon="1.03406">
        <ele>387.8</ele>
        <time>2022-04-03T10:27:53Z</time>
      </trkpt>
      <trkpt lat="45.77316" lon="1.03403">
        <ele>388</ele>
        <time>2022-04-03T10:27:54Z</time>
      </trkpt>
      <trkpt lat="45.77317" lon="1.03401">
        <ele>388.2</ele>
        <time>2022-04-03T10:27:55Z</time>
      </trkpt>
      <trkpt lat="45.77318" lon="1.03399">
        <ele>388.2</ele>
        <time>2022-04-03T10:27:56Z</time>
      </trkpt>
      <trkpt lat="45.77319" lon="1.03396">
        <ele>388.6</ele>
        <time>2022-04-03T10:27:57Z</time>
      </trkpt>
      <trkpt lat="45.7732" lon="1.03394">
        <ele>389</ele>
        <time>2022-04-03T10:27:58Z</time>
      </trkpt>
      <trkpt lat="45.77321" lon="1.03391">
        <ele>389</ele>
        <time>2022-04-03T10:27:59Z</time>
      </trkpt>
      <trkpt lat="45.77322" lon="1.03388">
        <ele>389</ele>
        <time>2022-04-03T10:28:00Z</time>
      </trkpt>
      <trkpt lat="45.77323" lon="1.03386">
        <ele>389</ele>
        <time>2022-04-03T10:28:01Z</time>
      </trkpt>
      <trkpt lat="45.77324" lon="1.03383">
        <ele>389.2</ele>
        <time>2022-04-03T10:28:02Z</time>
      </trkpt>
      <trkpt lat="45.77325" lon="1.03381">
        <ele>389.6</ele>
        <time>2022-04-03T10:28:03Z</time>
      </trkpt>
      <trkpt lat="45.77326" lon="1.03378">
        <ele>389.6</ele>
        <time>2022-04-03T10:28:04Z</time>
      </trkpt>
      <trkpt lat="45.77327" lon="1.03376">
        <ele>389.8</ele>
        <time>2022-04-03T10:28:05Z</time>
      </trkpt>
      <trkpt lat="45.77328" lon="1.03374">
        <ele>389.8</ele>
        <time>2022-04-03T10:28:06Z</time>
      </trkpt>
      <trkpt lat="45.77329" lon="1.03371">
        <ele>390</ele>
        <time>2022-04-03T10:28:07Z</time>
      </trkpt>
      <trkpt lat="45.7733" lon="1.03369">
        <ele>390.2</ele>
        <time>2022-04-03T10:28:08Z</time>
      </trkpt>
      <trkpt lat="45.77331" lon="1.03366">
        <ele>390.2</ele>
        <time>2022-04-03T10:28:09Z</time>
      </trkpt>
      <trkpt lat="45.77331" lon="1.03363">
        <ele>390.4</ele>
        <time>2022-04-03T10:28:10Z</time>
      </trkpt>
      <trkpt lat="45.77332" lon="1.03361">
        <ele>390.6</ele>
        <time>2022-04-03T10:28:11Z</time>
      </trkpt>
      <trkpt lat="45.77333" lon="1.03358">
        <ele>390.8</ele>
        <time>2022-04-03T10:28:12Z</time>
      </trkpt>
      <trkpt lat="45.77334" lon="1.03355">
        <ele>391</ele>
        <time>2022-04-03T10:28:13Z</time>
      </trkpt>
      <trkpt lat="45.77335" lon="1.03353">
        <ele>391</ele>
        <time>2022-04-03T10:28:14Z</time>
      </trkpt>
      <trkpt lat="45.77336" lon="1.0335">
        <ele>391.2</ele>
        <time>2022-04-03T10:28:15Z</time>
      </trkpt>
      <trkpt lat="45.77337" lon="1.03348">
        <ele>391.4</ele>
        <time>2022-04-03T10:28:16Z</time>
      </trkpt>
      <trkpt lat="45.77337" lon="1.03345">
        <ele>391.4</ele>
        <time>2022-04-03T10:28:17Z</time>
      </trkpt>
      <trkpt lat="45.77338" lon="1.03342">
        <ele>391.6</ele>
        <time>2022-04-03T10:28:18Z</time>
      </trkpt>
      <trkpt lat="45.77339" lon="1.03339">
        <ele>391.8</ele>
        <time>2022-04-03T10:28:19Z</time>
      </trkpt>
      <trkpt lat="45.7734" lon="1.03337">
        <ele>392</ele>
        <time>2022-04-03T10:28:20Z</time>
      </trkpt>
      <trkpt lat="45.7734" lon="1.03334">
        <ele>392.2</ele>
        <time>2022-04-03T10:28:21Z</time>
      </trkpt>
      <trkpt lat="45.77341" lon="1.03332">
        <ele>392.2</ele>
        <time>2022-04-03T10:28:22Z</time>
      </trkpt>
      <trkpt lat="45.77342" lon="1.03329">
        <ele>392.6</ele>
        <time>2022-04-03T10:28:23Z</time>
      </trkpt>
      <trkpt lat="45.77342" lon="1.03326">
        <ele>392.8</ele>
        <time>2022-04-03T10:28:24Z</time>
      </trkpt>
      <trkpt lat="45.77343" lon="1.03323">
        <ele>392.8</ele>
        <time>2022-04-03T10:28:25Z</time>
      </trkpt>
      <trkpt lat="45.77343" lon="1.03321">
        <ele>393.2</ele>
        <time>2022-04-03T10:28:26Z</time>
      </trkpt>
      <trkpt lat="45.77344" lon="1.03318">
        <ele>393.2</ele>
        <time>2022-04-03T10:28:27Z</time>
      </trkpt>
      <trkpt lat="45.77344" lon="1.03316">
        <ele>393.6</ele>
        <time>2022-04-03T10:28:28Z</time>
      </trkpt>
      <trkpt lat="45.77345" lon="1.03313">
        <ele>393.6</ele>
        <time>2022-04-03T10:28:29Z</time>
      </trkpt>
      <trkpt lat="45.77345" lon="1.03311">
        <ele>393.8</ele>
        <time>2022-04-03T10:28:30Z</time>
      </trkpt>
      <trkpt lat="45.77346" lon="1.03308">
        <ele>394</ele>
        <time>2022-04-03T10:28:31Z</time>
      </trkpt>
      <trkpt lat="45.77347" lon="1.03306">
        <ele>394.2</ele>
        <time>2022-04-03T10:28:32Z</time>
      </trkpt>
      <trkpt lat="45.77347" lon="1.03303">
        <ele>394.6</ele>
        <time>2022-04-03T10:28:33Z</time>
      </trkpt>
      <trkpt lat="45.77348" lon="1.033">
        <ele>394.6</ele>
        <time>2022-04-03T10:28:34Z</time>
      </trkpt>
      <trkpt lat="45.77348" lon="1.03298">
        <ele>394.8</ele>
        <time>2022-04-03T10:28:35Z</time>
      </trkpt>
      <trkpt lat="45.77349" lon="1.03296">
        <ele>394.6</ele>
        <time>2022-04-03T10:28:36Z</time>
      </trkpt>
      <trkpt lat="45.77349" lon="1.03293">
        <ele>394.6</ele>
        <time>2022-04-03T10:28:37Z</time>
      </trkpt>
      <trkpt lat="45.7735" lon="1.03291">
        <ele>395</ele>
        <time>2022-04-03T10:28:38Z</time>
      </trkpt>
      <trkpt lat="45.77351" lon="1.03288">
        <ele>395.2</ele>
        <time>2022-04-03T10:28:39Z</time>
      </trkpt>
      <trkpt lat="45.77351" lon="1.03286">
        <ele>395.4</ele>
        <time>2022-04-03T10:28:40Z</time>
      </trkpt>
      <trkpt lat="45.77352" lon="1.03283">
        <ele>395.6</ele>
        <time>2022-04-03T10:28:41Z</time>
      </trkpt>
      <trkpt lat="45.77352" lon="1.03281">
        <ele>395.8</ele>
        <time>2022-04-03T10:28:42Z</time>
      </trkpt>
      <trkpt lat="45.77353" lon="1.03278">
        <ele>396</ele>
        <time>2022-04-03T10:28:43Z</time>
      </trkpt>
      <trkpt lat="45.77353" lon="1.03275">
        <ele>396.2</ele>
        <time>2022-04-03T10:28:44Z</time>
      </trkpt>
      <trkpt lat="45.77354" lon="1.03273">
        <ele>396.4</ele>
        <time>2022-04-03T10:28:45Z</time>
      </trkpt>
      <trkpt lat="45.77354" lon="1.03271">
        <ele>396.6</ele>
        <time>2022-04-03T10:28:46Z</time>
      </trkpt>
      <trkpt lat="45.77355" lon="1.03268">
        <ele>396.8</ele>
        <time>2022-04-03T10:28:47Z</time>
      </trkpt>
      <trkpt lat="45.77356" lon="1.03266">
        <ele>397</ele>
        <time>2022-04-03T10:28:48Z</time>
      </trkpt>
      <trkpt lat="45.77355" lon="1.03264">
        <ele>397.2</ele>
        <time>2022-04-03T10:28:49Z</time>
      </trkpt>
      <trkpt lat="45.77355" lon="1.03261">
        <ele>397.2</ele>
        <time>2022-04-03T10:28:50Z</time>
      </trkpt>
      <trkpt lat="45.77356" lon="1.03259">
        <ele>397.2</ele>
        <time>2022-04-03T10:28:51Z</time>
      </trkpt>
      <trkpt lat="45.77356" lon="1.03256">
        <ele>397.4</ele>
        <time>2022-04-03T10:28:52Z</time>
      </trkpt>
      <trkpt lat="45.77357" lon="1.03253">
        <ele>397.6</ele>
        <time>2022-04-03T10:28:53Z</time>
      </trkpt>
      <trkpt lat="45.77357" lon="1.03251">
        <ele>397.8</ele>
        <time>2022-04-03T10:28:54Z</time>
      </trkpt>
      <trkpt lat="45.77358" lon="1.03248">
        <ele>398</ele>
        <time>2022-04-03T10:28:55Z</time>
      </trkpt>
      <trkpt lat="45.77358" lon="1.03246">
        <ele>398</ele>
        <time>2022-04-03T10:28:56Z</time>
      </trkpt>
      <trkpt lat="45.77359" lon="1.03243">
        <ele>398</ele>
        <time>2022-04-03T10:28:57Z</time>
      </trkpt>
      <trkpt lat="45.7736" lon="1.03241">
        <ele>398</ele>
        <time>2022-04-03T10:28:58Z</time>
      </trkpt>
      <trkpt lat="45.7736" lon="1.03238">
        <ele>398.2</ele>
        <time>2022-04-03T10:28:59Z</time>
      </trkpt>
      <trkpt lat="45.77361" lon="1.03236">
        <ele>398.4</ele>
        <time>2022-04-03T10:29:00Z</time>
      </trkpt>
      <trkpt lat="45.77361" lon="1.03233">
        <ele>398.8</ele>
        <time>2022-04-03T10:29:01Z</time>
      </trkpt>
      <trkpt lat="45.77362" lon="1.03231">
        <ele>399</ele>
        <time>2022-04-03T10:29:02Z</time>
      </trkpt>
      <trkpt lat="45.77362" lon="1.03229">
        <ele>399.2</ele>
        <time>2022-04-03T10:29:03Z</time>
      </trkpt>
      <trkpt lat="45.77363" lon="1.03227">
        <ele>399.2</ele>
        <time>2022-04-03T10:29:04Z</time>
      </trkpt>
      <trkpt lat="45.77364" lon="1.03225">
        <ele>399.4</ele>
        <time>2022-04-03T10:29:05Z</time>
      </trkpt>
      <trkpt lat="45.77364" lon="1.03222">
        <ele>399.8</ele>
        <time>2022-04-03T10:29:06Z</time>
      </trkpt>
      <trkpt lat="45.77364" lon="1.03219">
        <ele>399.8</ele>
        <time>2022-04-03T10:29:07Z</time>
      </trkpt>
      <trkpt lat="45.77365" lon="1.03217">
        <ele>400</ele>
        <time>2022-04-03T10:29:08Z</time>
      </trkpt>
      <trkpt lat="45.77365" lon="1.03214">
        <ele>400.4</ele>
        <time>2022-04-03T10:29:09Z</time>
      </trkpt>
      <trkpt lat="45.77365" lon="1.03212">
        <ele>400.4</ele>
        <time>2022-04-03T10:29:10Z</time>
      </trkpt>
      <trkpt lat="45.77366" lon="1.03209">
        <ele>400.6</ele>
        <time>2022-04-03T10:29:11Z</time>
      </trkpt>
      <trkpt lat="45.77366" lon="1.03207">
        <ele>400.8</ele>
        <time>2022-04-03T10:29:12Z</time>
      </trkpt>
      <trkpt lat="45.77367" lon="1.03204">
        <ele>401</ele>
        <time>2022-04-03T10:29:13Z</time>
      </trkpt>
      <trkpt lat="45.77367" lon="1.03201">
        <ele>401</ele>
        <time>2022-04-03T10:29:14Z</time>
      </trkpt>
      <trkpt lat="45.77368" lon="1.03199">
        <ele>401</ele>
        <time>2022-04-03T10:29:15Z</time>
      </trkpt>
      <trkpt lat="45.77368" lon="1.03196">
        <ele>401.4</ele>
        <time>2022-04-03T10:29:16Z</time>
      </trkpt>
      <trkpt lat="45.77369" lon="1.03193">
        <ele>401.6</ele>
        <time>2022-04-03T10:29:17Z</time>
      </trkpt>
      <trkpt lat="45.77369" lon="1.0319">
        <ele>401.8</ele>
        <time>2022-04-03T10:29:18Z</time>
      </trkpt>
      <trkpt lat="45.7737" lon="1.03187">
        <ele>402</ele>
        <time>2022-04-03T10:29:19Z</time>
      </trkpt>
      <trkpt lat="45.7737" lon="1.03185">
        <ele>402.2</ele>
        <time>2022-04-03T10:29:20Z</time>
      </trkpt>
      <trkpt lat="45.77371" lon="1.03182">
        <ele>402.4</ele>
        <time>2022-04-03T10:29:21Z</time>
      </trkpt>
      <trkpt lat="45.77371" lon="1.0318">
        <ele>402.6</ele>
        <time>2022-04-03T10:29:22Z</time>
      </trkpt>
      <trkpt lat="45.77372" lon="1.03177">
        <ele>402.8</ele>
        <time>2022-04-03T10:29:23Z</time>
      </trkpt>
      <trkpt lat="45.77373" lon="1.03174">
        <ele>402.8</ele>
        <time>2022-04-03T10:29:24Z</time>
      </trkpt>
      <trkpt lat="45.77373" lon="1.03172">
        <ele>403.2</ele>
        <time>2022-04-03T10:29:25Z</time>
      </trkpt>
      <trkpt lat="45.77374" lon="1.03169">
        <ele>403.2</ele>
        <time>2022-04-03T10:29:26Z</time>
      </trkpt>
      <trkpt lat="45.77375" lon="1.03166">
        <ele>403.4</ele>
        <time>2022-04-03T10:29:27Z</time>
      </trkpt>
      <trkpt lat="45.77375" lon="1.03164">
        <ele>403.6</ele>
        <time>2022-04-03T10:29:28Z</time>
      </trkpt>
      <trkpt lat="45.77376" lon="1.03161">
        <ele>403.6</ele>
        <time>2022-04-03T10:29:29Z</time>
      </trkpt>
      <trkpt lat="45.77377" lon="1.03158">
        <ele>403.8</ele>
        <time>2022-04-03T10:29:30Z</time>
      </trkpt>
      <trkpt lat="45.77377" lon="1.03155">
        <ele>404</ele>
        <time>2022-04-03T10:29:31Z</time>
      </trkpt>
      <trkpt lat="45.77378" lon="1.03152">
        <ele>404</ele>
        <time>2022-04-03T10:29:32Z</time>
      </trkpt>
      <trkpt lat="45.77378" lon="1.03149">
        <ele>404.2</ele>
        <time>2022-04-03T10:29:33Z</time>
      </trkpt>
      <trkpt lat="45.77379" lon="1.03147">
        <ele>404.2</ele>
        <time>2022-04-03T10:29:34Z</time>
      </trkpt>
      <trkpt lat="45.77379" lon="1.03144">
        <ele>404.4</ele>
        <time>2022-04-03T10:29:35Z</time>
      </trkpt>
      <trkpt lat="45.77379" lon="1.03141">
        <ele>404.8</ele>
        <time>2022-04-03T10:29:36Z</time>
      </trkpt>
      <trkpt lat="45.7738" lon="1.03138">
        <ele>404.8</ele>
        <time>2022-04-03T10:29:37Z</time>
      </trkpt>
      <trkpt lat="45.7738" lon="1.03136">
        <ele>405.2</ele>
        <time>2022-04-03T10:29:38Z</time>
      </trkpt>
      <trkpt lat="45.7738" lon="1.03134">
        <ele>405.2</ele>
        <time>2022-04-03T10:29:39Z</time>
      </trkpt>
      <trkpt lat="45.77381" lon="1.03131">
        <ele>405.4</ele>
        <time>2022-04-03T10:29:40Z</time>
      </trkpt>
      <trkpt lat="45.77381" lon="1.03128">
        <ele>405.6</ele>
        <time>2022-04-03T10:29:41Z</time>
      </trkpt>
      <trkpt lat="45.77382" lon="1.03125">
        <ele>405.8</ele>
        <time>2022-04-03T10:29:42Z</time>
      </trkpt>
      <trkpt lat="45.77383" lon="1.03122">
        <ele>405.8</ele>
        <time>2022-04-03T10:29:43Z</time>
      </trkpt>
      <trkpt lat="45.77384" lon="1.03119">
        <ele>406</ele>
        <time>2022-04-03T10:29:44Z</time>
      </trkpt>
      <trkpt lat="45.77385" lon="1.03116">
        <ele>406</ele>
        <time>2022-04-03T10:29:45Z</time>
      </trkpt>
      <trkpt lat="45.77385" lon="1.03112">
        <ele>406.4</ele>
        <time>2022-04-03T10:29:46Z</time>
      </trkpt>
      <trkpt lat="45.77385" lon="1.03109">
        <ele>406.4</ele>
        <time>2022-04-03T10:29:47Z</time>
      </trkpt>
      <trkpt lat="45.77385" lon="1.03106">
        <ele>406.4</ele>
        <time>2022-04-03T10:29:48Z</time>
      </trkpt>
      <trkpt lat="45.77385" lon="1.03103">
        <ele>406.4</ele>
        <time>2022-04-03T10:29:49Z</time>
      </trkpt>
      <trkpt lat="45.77385" lon="1.03101">
        <ele>406.6</ele>
        <time>2022-04-03T10:29:50Z</time>
      </trkpt>
      <trkpt lat="45.77386" lon="1.03099">
        <ele>406.8</ele>
        <time>2022-04-03T10:29:51Z</time>
      </trkpt>
      <trkpt lat="45.77387" lon="1.03096">
        <ele>406.6</ele>
        <time>2022-04-03T10:29:52Z</time>
      </trkpt>
      <trkpt lat="45.77388" lon="1.03093">
        <ele>406.6</ele>
        <time>2022-04-03T10:29:53Z</time>
      </trkpt>
      <trkpt lat="45.77388" lon="1.03089">
        <ele>406.8</ele>
        <time>2022-04-03T10:29:54Z</time>
      </trkpt>
      <trkpt lat="45.77389" lon="1.03086">
        <ele>406.8</ele>
        <time>2022-04-03T10:29:55Z</time>
      </trkpt>
      <trkpt lat="45.77389" lon="1.03083">
        <ele>406.6</ele>
        <time>2022-04-03T10:29:56Z</time>
      </trkpt>
      <trkpt lat="45.77389" lon="1.0308">
        <ele>406.8</ele>
        <time>2022-04-03T10:29:57Z</time>
      </trkpt>
      <trkpt lat="45.77388" lon="1.03076">
        <ele>406.8</ele>
        <time>2022-04-03T10:29:58Z</time>
      </trkpt>
      <trkpt lat="45.77389" lon="1.03073">
        <ele>406.8</ele>
        <time>2022-04-03T10:29:59Z</time>
      </trkpt>
      <trkpt lat="45.77389" lon="1.03069">
        <ele>407</ele>
        <time>2022-04-03T10:30:00Z</time>
      </trkpt>
      <trkpt lat="45.77389" lon="1.03065">
        <ele>406.8</ele>
        <time>2022-04-03T10:30:01Z</time>
      </trkpt>
      <trkpt lat="45.77389" lon="1.0306">
        <ele>407</ele>
        <time>2022-04-03T10:30:02Z</time>
      </trkpt>
      <trkpt lat="45.7739" lon="1.03056">
        <ele>406.8</ele>
        <time>2022-04-03T10:30:03Z</time>
      </trkpt>
      <trkpt lat="45.77391" lon="1.03051">
        <ele>406.8</ele>
        <time>2022-04-03T10:30:04Z</time>
      </trkpt>
      <trkpt lat="45.77391" lon="1.03046">
        <ele>407</ele>
        <time>2022-04-03T10:30:05Z</time>
      </trkpt>
      <trkpt lat="45.77391" lon="1.0304">
        <ele>406.8</ele>
        <time>2022-04-03T10:30:06Z</time>
      </trkpt>
      <trkpt lat="45.77391" lon="1.03034">
        <ele>406.8</ele>
        <time>2022-04-03T10:30:07Z</time>
      </trkpt>
      <trkpt lat="45.77391" lon="1.03028">
        <ele>406.8</ele>
        <time>2022-04-03T10:30:08Z</time>
      </trkpt>
      <trkpt lat="45.77391" lon="1.03021">
        <ele>406.6</ele>
        <time>2022-04-03T10:30:09Z</time>
      </trkpt>
      <trkpt lat="45.77391" lon="1.03013">
        <ele>406.6</ele>
        <time>2022-04-03T10:30:10Z</time>
      </trkpt>
      <trkpt lat="45.77392" lon="1.03006">
        <ele>406.4</ele>
        <time>2022-04-03T10:30:11Z</time>
      </trkpt>
      <trkpt lat="45.77392" lon="1.02997">
        <ele>406.4</ele>
        <time>2022-04-03T10:30:12Z</time>
      </trkpt>
      <trkpt lat="45.77392" lon="1.02989">
        <ele>406.6</ele>
        <time>2022-04-03T10:30:13Z</time>
      </trkpt>
      <trkpt lat="45.77392" lon="1.0298">
        <ele>406.2</ele>
        <time>2022-04-03T10:30:14Z</time>
      </trkpt>
      <trkpt lat="45.77393" lon="1.02971">
        <ele>405.8</ele>
        <time>2022-04-03T10:30:15Z</time>
      </trkpt>
      <trkpt lat="45.77393" lon="1.02961">
        <ele>405.6</ele>
        <time>2022-04-03T10:30:16Z</time>
      </trkpt>
      <trkpt lat="45.77393" lon="1.02952">
        <ele>405.4</ele>
        <time>2022-04-03T10:30:17Z</time>
      </trkpt>
      <trkpt lat="45.77393" lon="1.02941">
        <ele>405.2</ele>
        <time>2022-04-03T10:30:18Z</time>
      </trkpt>
      <trkpt lat="45.77393" lon="1.02931">
        <ele>404.8</ele>
        <time>2022-04-03T10:30:19Z</time>
      </trkpt>
      <trkpt lat="45.77394" lon="1.0292">
        <ele>404.6</ele>
        <time>2022-04-03T10:30:20Z</time>
      </trkpt>
      <trkpt lat="45.77394" lon="1.02908">
        <ele>404</ele>
        <time>2022-04-03T10:30:21Z</time>
      </trkpt>
      <trkpt lat="45.77394" lon="1.02897">
        <ele>403.6</ele>
        <time>2022-04-03T10:30:22Z</time>
      </trkpt>
      <trkpt lat="45.77394" lon="1.02885">
        <ele>403.4</ele>
        <time>2022-04-03T10:30:23Z</time>
      </trkpt>
      <trkpt lat="45.77395" lon="1.02873">
        <ele>403</ele>
        <time>2022-04-03T10:30:24Z</time>
      </trkpt>
      <trkpt lat="45.77395" lon="1.0286">
        <ele>402.4</ele>
        <time>2022-04-03T10:30:25Z</time>
      </trkpt>
      <trkpt lat="45.77395" lon="1.02848">
        <ele>401.8</ele>
        <time>2022-04-03T10:30:26Z</time>
      </trkpt>
      <trkpt lat="45.77395" lon="1.02835">
        <ele>401.4</ele>
        <time>2022-04-03T10:30:27Z</time>
      </trkpt>
      <trkpt lat="45.77396" lon="1.02822">
        <ele>400.8</ele>
        <time>2022-04-03T10:30:28Z</time>
      </trkpt>
      <trkpt lat="45.77396" lon="1.02809">
        <ele>400</ele>
        <time>2022-04-03T10:30:29Z</time>
      </trkpt>
      <trkpt lat="45.77396" lon="1.02797">
        <ele>399.6</ele>
        <time>2022-04-03T10:30:30Z</time>
      </trkpt>
      <trkpt lat="45.77396" lon="1.02785">
        <ele>399.6</ele>
        <time>2022-04-03T10:30:31Z</time>
      </trkpt>
      <trkpt lat="45.77397" lon="1.02776">
        <ele>398.8</ele>
        <time>2022-04-03T10:30:32Z</time>
      </trkpt>
      <trkpt lat="45.77397" lon="1.02768">
        <ele>397.8</ele>
        <time>2022-04-03T10:30:33Z</time>
      </trkpt>
      <trkpt lat="45.77397" lon="1.02761">
        <ele>397.2</ele>
        <time>2022-04-03T10:30:34Z</time>
      </trkpt>
      <trkpt lat="45.77397" lon="1.02755">
        <ele>396.4</ele>
        <time>2022-04-03T10:30:35Z</time>
      </trkpt>
      <trkpt lat="45.77397" lon="1.0275">
        <ele>396</ele>
        <time>2022-04-03T10:30:36Z</time>
      </trkpt>
      <trkpt lat="45.77397" lon="1.02746">
        <ele>395.6</ele>
        <time>2022-04-03T10:30:37Z</time>
      </trkpt>
      <trkpt lat="45.77397" lon="1.02743">
        <ele>394.8</ele>
        <time>2022-04-03T10:30:38Z</time>
      </trkpt>
      <trkpt lat="45.77397" lon="1.0274">
        <ele>394.6</ele>
        <time>2022-04-03T10:30:39Z</time>
      </trkpt>
      <trkpt lat="45.77397" lon="1.02739">
        <ele>394.2</ele>
        <time>2022-04-03T10:30:40Z</time>
      </trkpt>
      <trkpt lat="45.77397" lon="1.02741">
        <ele>393.2</ele>
        <time>2022-04-03T10:34:20Z</time>
      </trkpt>
      <trkpt lat="45.77397" lon="1.02741">
        <ele>393.2</ele>
        <time>2022-04-03T10:34:21Z</time>
      </trkpt>
      <trkpt lat="45.77397" lon="1.02736">
        <ele>393.8</ele>
        <time>2022-04-03T10:37:18Z</time>
      </trkpt>
      <trkpt lat="45.77396" lon="1.02732">
        <ele>393.8</ele>
        <time>2022-04-03T10:37:19Z</time>
      </trkpt>
      <trkpt lat="45.77396" lon="1.02727">
        <ele>393.8</ele>
        <time>2022-04-03T10:37:20Z</time>
      </trkpt>
      <trkpt lat="45.77396" lon="1.02721">
        <ele>393.8</ele>
        <time>2022-04-03T10:37:21Z</time>
      </trkpt>
      <trkpt lat="45.77395" lon="1.02714">
        <ele>393.8</ele>
        <time>2022-04-03T10:37:22Z</time>
      </trkpt>
      <trkpt lat="45.77394" lon="1.02706">
        <ele>393.8</ele>
        <time>2022-04-03T10:37:23Z</time>
      </trkpt>
      <trkpt lat="45.77392" lon="1.02698">
        <ele>393.6</ele>
        <time>2022-04-03T10:37:24Z</time>
      </trkpt>
      <trkpt lat="45.77391" lon="1.02689">
        <ele>393.8</ele>
        <time>2022-04-03T10:37:25Z</time>
      </trkpt>
      <trkpt lat="45.77389" lon="1.02678">
        <ele>393.4</ele>
        <time>2022-04-03T10:37:26Z</time>
      </trkpt>
      <trkpt lat="45.77386" lon="1.02668">
        <ele>393.2</ele>
        <time>2022-04-03T10:37:27Z</time>
      </trkpt>
      <trkpt lat="45.77384" lon="1.02656">
        <ele>393.2</ele>
        <time>2022-04-03T10:37:28Z</time>
      </trkpt>
      <trkpt lat="45.77381" lon="1.02644">
        <ele>392.8</ele>
        <time>2022-04-03T10:37:29Z</time>
      </trkpt>
      <trkpt lat="45.77378" lon="1.02632">
        <ele>392.2</ele>
        <time>2022-04-03T10:37:30Z</time>
      </trkpt>
      <trkpt lat="45.77374" lon="1.0262">
        <ele>391.6</ele>
        <time>2022-04-03T10:37:31Z</time>
      </trkpt>
      <trkpt lat="45.77371" lon="1.02607">
        <ele>391.2</ele>
        <time>2022-04-03T10:37:32Z</time>
      </trkpt>
      <trkpt lat="45.77366" lon="1.02594">
        <ele>390.4</ele>
        <time>2022-04-03T10:37:33Z</time>
      </trkpt>
      <trkpt lat="45.77361" lon="1.02581">
        <ele>389</ele>
        <time>2022-04-03T10:37:34Z</time>
      </trkpt>
      <trkpt lat="45.77356" lon="1.02568">
        <ele>387.6</ele>
        <time>2022-04-03T10:37:35Z</time>
      </trkpt>
      <trkpt lat="45.7735" lon="1.02555">
        <ele>386.6</ele>
        <time>2022-04-03T10:37:36Z</time>
      </trkpt>
      <trkpt lat="45.77345" lon="1.02541">
        <ele>385.8</ele>
        <time>2022-04-03T10:37:37Z</time>
      </trkpt>
      <trkpt lat="45.7734" lon="1.02527">
        <ele>384.8</ele>
        <time>2022-04-03T10:37:38Z</time>
      </trkpt>
      <trkpt lat="45.77334" lon="1.02513">
        <ele>383</ele>
        <time>2022-04-03T10:37:39Z</time>
      </trkpt>
      <trkpt lat="45.77329" lon="1.02499">
        <ele>381.6</ele>
        <time>2022-04-03T10:37:40Z</time>
      </trkpt>
      <trkpt lat="45.77323" lon="1.02485">
        <ele>380.6</ele>
        <time>2022-04-03T10:37:41Z</time>
      </trkpt>
      <trkpt lat="45.77317" lon="1.02471">
        <ele>379.8</ele>
        <time>2022-04-03T10:37:42Z</time>
      </trkpt>
      <trkpt lat="45.77311" lon="1.02457">
        <ele>379</ele>
        <time>2022-04-03T10:37:43Z</time>
      </trkpt>
      <trkpt lat="45.77306" lon="1.02443">
        <ele>378.4</ele>
        <time>2022-04-03T10:37:44Z</time>
      </trkpt>
      <trkpt lat="45.773" lon="1.02428">
        <ele>377.4</ele>
        <time>2022-04-03T10:37:45Z</time>
      </trkpt>
      <trkpt lat="45.77295" lon="1.02414">
        <ele>376</ele>
        <time>2022-04-03T10:37:46Z</time>
      </trkpt>
      <trkpt lat="45.77289" lon="1.02399">
        <ele>376</ele>
        <time>2022-04-03T10:37:47Z</time>
      </trkpt>
      <trkpt lat="45.77283" lon="1.02385">
        <ele>375.2</ele>
        <time>2022-04-03T10:37:48Z</time>
      </trkpt>
      <trkpt lat="45.77278" lon="1.0237">
        <ele>374.6</ele>
        <time>2022-04-03T10:37:49Z</time>
      </trkpt>
      <trkpt lat="45.77273" lon="1.02356">
        <ele>373.6</ele>
        <time>2022-04-03T10:37:50Z</time>
      </trkpt>
      <trkpt lat="45.77269" lon="1.02341">
        <ele>372.8</ele>
        <time>2022-04-03T10:37:51Z</time>
      </trkpt>
      <trkpt lat="45.77266" lon="1.02326">
        <ele>371.6</ele>
        <time>2022-04-03T10:37:52Z</time>
      </trkpt>
      <trkpt lat="45.77263" lon="1.02311">
        <ele>370.8</ele>
        <time>2022-04-03T10:37:53Z</time>
      </trkpt>
      <trkpt lat="45.77261" lon="1.02297">
        <ele>370.2</ele>
        <time>2022-04-03T10:37:54Z</time>
      </trkpt>
      <trkpt lat="45.77259" lon="1.02282">
        <ele>369.8</ele>
        <time>2022-04-03T10:37:55Z</time>
      </trkpt>
      <trkpt lat="45.77258" lon="1.02268">
        <ele>369.2</ele>
        <time>2022-04-03T10:37:56Z</time>
      </trkpt>
      <trkpt lat="45.77258" lon="1.02254">
        <ele>368.6</ele>
        <time>2022-04-03T10:37:57Z</time>
      </trkpt>
      <trkpt lat="45.77258" lon="1.02241">
        <ele>368.2</ele>
        <time>2022-04-03T10:37:58Z</time>
      </trkpt>
      <trkpt lat="45.77259" lon="1.02227">
        <ele>368</ele>
        <time>2022-04-03T10:37:59Z</time>
      </trkpt>
      <trkpt lat="45.7726" lon="1.02214">
        <ele>367.4</ele>
        <time>2022-04-03T10:38:00Z</time>
      </trkpt>
      <trkpt lat="45.77261" lon="1.02201">
        <ele>367</ele>
        <time>2022-04-03T10:38:01Z</time>
      </trkpt>
      <trkpt lat="45.77263" lon="1.02189">
        <ele>366.8</ele>
        <time>2022-04-03T10:38:02Z</time>
      </trkpt>
      <trkpt lat="45.77265" lon="1.02177">
        <ele>366.8</ele>
        <time>2022-04-03T10:38:03Z</time>
      </trkpt>
      <trkpt lat="45.77268" lon="1.02165">
        <ele>366.6</ele>
        <time>2022-04-03T10:38:04Z</time>
      </trkpt>
      <trkpt lat="45.77271" lon="1.02154">
        <ele>366.6</ele>
        <time>2022-04-03T10:38:05Z</time>
      </trkpt>
      <trkpt lat="45.77275" lon="1.02144">
        <ele>366.6</ele>
        <time>2022-04-03T10:38:06Z</time>
      </trkpt>
      <trkpt lat="45.77278" lon="1.02133">
        <ele>366.4</ele>
        <time>2022-04-03T10:38:07Z</time>
      </trkpt>
      <trkpt lat="45.77282" lon="1.02123">
        <ele>366.4</ele>
        <time>2022-04-03T10:38:08Z</time>
      </trkpt>
      <trkpt lat="45.77285" lon="1.02112">
        <ele>366.4</ele>
        <time>2022-04-03T10:38:09Z</time>
      </trkpt>
      <trkpt lat="45.77289" lon="1.02102">
        <ele>366.4</ele>
        <time>2022-04-03T10:38:10Z</time>
      </trkpt>
      <trkpt lat="45.77293" lon="1.02091">
        <ele>366.2</ele>
        <time>2022-04-03T10:38:11Z</time>
      </trkpt>
      <trkpt lat="45.77297" lon="1.0208">
        <ele>366</ele>
        <time>2022-04-03T10:38:12Z</time>
      </trkpt>
      <trkpt lat="45.77301" lon="1.02069">
        <ele>366</ele>
        <time>2022-04-03T10:38:13Z</time>
      </trkpt>
      <trkpt lat="45.77305" lon="1.02058">
        <ele>366</ele>
        <time>2022-04-03T10:38:14Z</time>
      </trkpt>
      <trkpt lat="45.77309" lon="1.02046">
        <ele>366</ele>
        <time>2022-04-03T10:38:15Z</time>
      </trkpt>
      <trkpt lat="45.77313" lon="1.02034">
        <ele>366.2</ele>
        <time>2022-04-03T10:38:16Z</time>
      </trkpt>
      <trkpt lat="45.77317" lon="1.02022">
        <ele>366</ele>
        <time>2022-04-03T10:38:17Z</time>
      </trkpt>
      <trkpt lat="45.77322" lon="1.0201">
        <ele>365.8</ele>
        <time>2022-04-03T10:38:18Z</time>
      </trkpt>
      <trkpt lat="45.77326" lon="1.01998">
        <ele>365.2</ele>
        <time>2022-04-03T10:38:19Z</time>
      </trkpt>
      <trkpt lat="45.7733" lon="1.01985">
        <ele>364.8</ele>
        <time>2022-04-03T10:38:20Z</time>
      </trkpt>
      <trkpt lat="45.77334" lon="1.01973">
        <ele>364</ele>
        <time>2022-04-03T10:38:21Z</time>
      </trkpt>
      <trkpt lat="45.77339" lon="1.0196">
        <ele>363.2</ele>
        <time>2022-04-03T10:38:22Z</time>
      </trkpt>
      <trkpt lat="45.77344" lon="1.01947">
        <ele>362.4</ele>
        <time>2022-04-03T10:38:23Z</time>
      </trkpt>
      <trkpt lat="45.77348" lon="1.01934">
        <ele>361.4</ele>
        <time>2022-04-03T10:38:24Z</time>
      </trkpt>
      <trkpt lat="45.77353" lon="1.01921">
        <ele>361.4</ele>
        <time>2022-04-03T10:38:25Z</time>
      </trkpt>
      <trkpt lat="45.77357" lon="1.01908">
        <ele>361.2</ele>
        <time>2022-04-03T10:38:26Z</time>
      </trkpt>
      <trkpt lat="45.77362" lon="1.01895">
        <ele>360.6</ele>
        <time>2022-04-03T10:38:27Z</time>
      </trkpt>
      <trkpt lat="45.77366" lon="1.01882">
        <ele>360</ele>
        <time>2022-04-03T10:38:28Z</time>
      </trkpt>
      <trkpt lat="45.7737" lon="1.01869">
        <ele>359.2</ele>
        <time>2022-04-03T10:38:29Z</time>
      </trkpt>
      <trkpt lat="45.77375" lon="1.01856">
        <ele>357.8</ele>
        <time>2022-04-03T10:38:30Z</time>
      </trkpt>
      <trkpt lat="45.77379" lon="1.01843">
        <ele>356.8</ele>
        <time>2022-04-03T10:38:31Z</time>
      </trkpt>
      <trkpt lat="45.77384" lon="1.0183">
        <ele>355.6</ele>
        <time>2022-04-03T10:38:32Z</time>
      </trkpt>
      <trkpt lat="45.77388" lon="1.01817">
        <ele>354.2</ele>
        <time>2022-04-03T10:38:33Z</time>
      </trkpt>
      <trkpt lat="45.77393" lon="1.01804">
        <ele>352.4</ele>
        <time>2022-04-03T10:38:34Z</time>
      </trkpt>
      <trkpt lat="45.77398" lon="1.01791">
        <ele>351.6</ele>
        <time>2022-04-03T10:38:35Z</time>
      </trkpt>
      <trkpt lat="45.77402" lon="1.01777">
        <ele>351</ele>
        <time>2022-04-03T10:38:36Z</time>
      </trkpt>
      <trkpt lat="45.77407" lon="1.01764">
        <ele>350.8</ele>
        <time>2022-04-03T10:38:37Z</time>
      </trkpt>
      <trkpt lat="45.77412" lon="1.01751">
        <ele>350.4</ele>
        <time>2022-04-03T10:38:38Z</time>
      </trkpt>
      <trkpt lat="45.77416" lon="1.01737">
        <ele>350.2</ele>
        <time>2022-04-03T10:38:39Z</time>
      </trkpt>
      <trkpt lat="45.77421" lon="1.01723">
        <ele>350</ele>
        <time>2022-04-03T10:38:40Z</time>
      </trkpt>
      <trkpt lat="45.77425" lon="1.0171">
        <ele>350</ele>
        <time>2022-04-03T10:38:41Z</time>
      </trkpt>
      <trkpt lat="45.7743" lon="1.01696">
        <ele>349.2</ele>
        <time>2022-04-03T10:38:42Z</time>
      </trkpt>
      <trkpt lat="45.77435" lon="1.01683">
        <ele>349.2</ele>
        <time>2022-04-03T10:38:43Z</time>
      </trkpt>
      <trkpt lat="45.7744" lon="1.01669">
        <ele>348.6</ele>
        <time>2022-04-03T10:38:44Z</time>
      </trkpt>
      <trkpt lat="45.77445" lon="1.01656">
        <ele>347.6</ele>
        <time>2022-04-03T10:38:45Z</time>
      </trkpt>
      <trkpt lat="45.7745" lon="1.01642">
        <ele>347.2</ele>
        <time>2022-04-03T10:38:46Z</time>
      </trkpt>
      <trkpt lat="45.77454" lon="1.01628">
        <ele>346.6</ele>
        <time>2022-04-03T10:38:47Z</time>
      </trkpt>
      <trkpt lat="45.77459" lon="1.01614">
        <ele>346.2</ele>
        <time>2022-04-03T10:38:48Z</time>
      </trkpt>
      <trkpt lat="45.77464" lon="1.01601">
        <ele>346</ele>
        <time>2022-04-03T10:38:49Z</time>
      </trkpt>
      <trkpt lat="45.77469" lon="1.01587">
        <ele>345</ele>
        <time>2022-04-03T10:38:50Z</time>
      </trkpt>
      <trkpt lat="45.77475" lon="1.01573">
        <ele>344.4</ele>
        <time>2022-04-03T10:38:51Z</time>
      </trkpt>
      <trkpt lat="45.7748" lon="1.01559">
        <ele>343.6</ele>
        <time>2022-04-03T10:38:52Z</time>
      </trkpt>
      <trkpt lat="45.77484" lon="1.01545">
        <ele>342.8</ele>
        <time>2022-04-03T10:38:53Z</time>
      </trkpt>
      <trkpt lat="45.77489" lon="1.01531">
        <ele>342.4</ele>
        <time>2022-04-03T10:38:54Z</time>
      </trkpt>
      <trkpt lat="45.77492" lon="1.01517">
        <ele>341.8</ele>
        <time>2022-04-03T10:38:55Z</time>
      </trkpt>
      <trkpt lat="45.77495" lon="1.01502">
        <ele>341.4</ele>
        <time>2022-04-03T10:38:56Z</time>
      </trkpt>
      <trkpt lat="45.77497" lon="1.01488">
        <ele>340.6</ele>
        <time>2022-04-03T10:38:57Z</time>
      </trkpt>
      <trkpt lat="45.77498" lon="1.01474">
        <ele>340</ele>
        <time>2022-04-03T10:38:58Z</time>
      </trkpt>
      <trkpt lat="45.77498" lon="1.0146">
        <ele>338.6</ele>
        <time>2022-04-03T10:38:59Z</time>
      </trkpt>
      <trkpt lat="45.77498" lon="1.01447">
        <ele>337.6</ele>
        <time>2022-04-03T10:39:00Z</time>
      </trkpt>
      <trkpt lat="45.77497" lon="1.01434">
        <ele>336.8</ele>
        <time>2022-04-03T10:39:01Z</time>
      </trkpt>
      <trkpt lat="45.77496" lon="1.01421">
        <ele>336.8</ele>
        <time>2022-04-03T10:39:02Z</time>
      </trkpt>
      <trkpt lat="45.77494" lon="1.01409">
        <ele>336.6</ele>
        <time>2022-04-03T10:39:03Z</time>
      </trkpt>
      <trkpt lat="45.77492" lon="1.01397">
        <ele>336.4</ele>
        <time>2022-04-03T10:39:04Z</time>
      </trkpt>
      <trkpt lat="45.77491" lon="1.01384">
        <ele>336.2</ele>
        <time>2022-04-03T10:39:05Z</time>
      </trkpt>
      <trkpt lat="45.77489" lon="1.01372">
        <ele>335.8</ele>
        <time>2022-04-03T10:39:06Z</time>
      </trkpt>
      <trkpt lat="45.77488" lon="1.01361">
        <ele>335.4</ele>
        <time>2022-04-03T10:39:07Z</time>
      </trkpt>
      <trkpt lat="45.77486" lon="1.01349">
        <ele>335.4</ele>
        <time>2022-04-03T10:39:08Z</time>
      </trkpt>
      <trkpt lat="45.77484" lon="1.01337">
        <ele>335.2</ele>
        <time>2022-04-03T10:39:09Z</time>
      </trkpt>
      <trkpt lat="45.77483" lon="1.01325">
        <ele>335</ele>
        <time>2022-04-03T10:39:10Z</time>
      </trkpt>
      <trkpt lat="45.77481" lon="1.01313">
        <ele>335</ele>
        <time>2022-04-03T10:39:11Z</time>
      </trkpt>
      <trkpt lat="45.77479" lon="1.01301">
        <ele>334.8</ele>
        <time>2022-04-03T10:39:12Z</time>
      </trkpt>
      <trkpt lat="45.77478" lon="1.01288">
        <ele>334.8</ele>
        <time>2022-04-03T10:39:13Z</time>
      </trkpt>
      <trkpt lat="45.77476" lon="1.01276">
        <ele>334.6</ele>
        <time>2022-04-03T10:39:14Z</time>
      </trkpt>
      <trkpt lat="45.77474" lon="1.01263">
        <ele>334.6</ele>
        <time>2022-04-03T10:39:15Z</time>
      </trkpt>
      <trkpt lat="45.77472" lon="1.0125">
        <ele>334.4</ele>
        <time>2022-04-03T10:39:16Z</time>
      </trkpt>
      <trkpt lat="45.7747" lon="1.01236">
        <ele>334.4</ele>
        <time>2022-04-03T10:39:17Z</time>
      </trkpt>
      <trkpt lat="45.77469" lon="1.01223">
        <ele>334.6</ele>
        <time>2022-04-03T10:39:18Z</time>
      </trkpt>
      <trkpt lat="45.77467" lon="1.01209">
        <ele>333.6</ele>
        <time>2022-04-03T10:39:19Z</time>
      </trkpt>
      <trkpt lat="45.77465" lon="1.01195">
        <ele>333</ele>
        <time>2022-04-03T10:39:20Z</time>
      </trkpt>
      <trkpt lat="45.77463" lon="1.01181">
        <ele>333</ele>
        <time>2022-04-03T10:39:21Z</time>
      </trkpt>
      <trkpt lat="45.77461" lon="1.01167">
        <ele>332.6</ele>
        <time>2022-04-03T10:39:22Z</time>
      </trkpt>
      <trkpt lat="45.77459" lon="1.01153">
        <ele>332.2</ele>
        <time>2022-04-03T10:39:23Z</time>
      </trkpt>
      <trkpt lat="45.77457" lon="1.01139">
        <ele>332</ele>
        <time>2022-04-03T10:39:24Z</time>
      </trkpt>
      <trkpt lat="45.77455" lon="1.01125">
        <ele>331.4</ele>
        <time>2022-04-03T10:39:25Z</time>
      </trkpt>
      <trkpt lat="45.77453" lon="1.0111">
        <ele>331</ele>
        <time>2022-04-03T10:39:26Z</time>
      </trkpt>
      <trkpt lat="45.77452" lon="1.01096">
        <ele>330.2</ele>
        <time>2022-04-03T10:39:27Z</time>
      </trkpt>
      <trkpt lat="45.7745" lon="1.01083">
        <ele>329.4</ele>
        <time>2022-04-03T10:39:28Z</time>
      </trkpt>
      <trkpt lat="45.77449" lon="1.01071">
        <ele>328.4</ele>
        <time>2022-04-03T10:39:29Z</time>
      </trkpt>
      <trkpt lat="45.77447" lon="1.01059">
        <ele>328</ele>
        <time>2022-04-03T10:39:30Z</time>
      </trkpt>
      <trkpt lat="45.77446" lon="1.01048">
        <ele>327.4</ele>
        <time>2022-04-03T10:39:31Z</time>
      </trkpt>
      <trkpt lat="45.77444" lon="1.01039">
        <ele>327.4</ele>
        <time>2022-04-03T10:39:32Z</time>
      </trkpt>
      <trkpt lat="45.77443" lon="1.0103">
        <ele>327.4</ele>
        <time>2022-04-03T10:39:33Z</time>
      </trkpt>
      <trkpt lat="45.77442" lon="1.01022">
        <ele>327.2</ele>
        <time>2022-04-03T10:39:34Z</time>
      </trkpt>
      <trkpt lat="45.77441" lon="1.01014">
        <ele>327.2</ele>
        <time>2022-04-03T10:39:35Z</time>
      </trkpt>
      <trkpt lat="45.7744" lon="1.01008">
        <ele>327.2</ele>
        <time>2022-04-03T10:39:36Z</time>
      </trkpt>
      <trkpt lat="45.77439" lon="1.01003">
        <ele>327.2</ele>
        <time>2022-04-03T10:39:37Z</time>
      </trkpt>
      <trkpt lat="45.77438" lon="1.00998">
        <ele>327.2</ele>
        <time>2022-04-03T10:39:38Z</time>
      </trkpt>
      <trkpt lat="45.77438" lon="1.00993">
        <ele>327.2</ele>
        <time>2022-04-03T10:39:39Z</time>
      </trkpt>
      <trkpt lat="45.77437" lon="1.00989">
        <ele>327.2</ele>
        <time>2022-04-03T10:39:40Z</time>
      </trkpt>
      <trkpt lat="45.77437" lon="1.00985">
        <ele>327.4</ele>
        <time>2022-04-03T10:39:41Z</time>
      </trkpt>
      <trkpt lat="45.77436" lon="1.00981">
        <ele>327.8</ele>
        <time>2022-04-03T10:39:42Z</time>
      </trkpt>
      <trkpt lat="45.77436" lon="1.00977">
        <ele>328.4</ele>
        <time>2022-04-03T10:39:43Z</time>
      </trkpt>
      <trkpt lat="45.77435" lon="1.00974">
        <ele>329</ele>
        <time>2022-04-03T10:39:44Z</time>
      </trkpt>
      <trkpt lat="45.77435" lon="1.0097">
        <ele>329.6</ele>
        <time>2022-04-03T10:39:45Z</time>
      </trkpt>
      <trkpt lat="45.77435" lon="1.00967">
        <ele>330</ele>
        <time>2022-04-03T10:39:46Z</time>
      </trkpt>
      <trkpt lat="45.77434" lon="1.00963">
        <ele>330.6</ele>
        <time>2022-04-03T10:39:47Z</time>
      </trkpt>
      <trkpt lat="45.77434" lon="1.0096">
        <ele>331</ele>
        <time>2022-04-03T10:39:48Z</time>
      </trkpt>
      <trkpt lat="45.77433" lon="1.00957">
        <ele>331.4</ele>
        <time>2022-04-03T10:39:49Z</time>
      </trkpt>
      <trkpt lat="45.77433" lon="1.00954">
        <ele>331.4</ele>
        <time>2022-04-03T10:39:50Z</time>
      </trkpt>
      <trkpt lat="45.77433" lon="1.00951">
        <ele>331.8</ele>
        <time>2022-04-03T10:39:51Z</time>
      </trkpt>
      <trkpt lat="45.77432" lon="1.00947">
        <ele>332</ele>
        <time>2022-04-03T10:39:52Z</time>
      </trkpt>
      <trkpt lat="45.77432" lon="1.00944">
        <ele>332.2</ele>
        <time>2022-04-03T10:39:53Z</time>
      </trkpt>
      <trkpt lat="45.77431" lon="1.00941">
        <ele>332.6</ele>
        <time>2022-04-03T10:39:54Z</time>
      </trkpt>
      <trkpt lat="45.77431" lon="1.00937">
        <ele>332.6</ele>
        <time>2022-04-03T10:39:55Z</time>
      </trkpt>
      <trkpt lat="45.77431" lon="1.00934">
        <ele>332.8</ele>
        <time>2022-04-03T10:39:56Z</time>
      </trkpt>
      <trkpt lat="45.7743" lon="1.00931">
        <ele>333</ele>
        <time>2022-04-03T10:39:57Z</time>
      </trkpt>
      <trkpt lat="45.7743" lon="1.00928">
        <ele>333.2</ele>
        <time>2022-04-03T10:39:58Z</time>
      </trkpt>
      <trkpt lat="45.77429" lon="1.00924">
        <ele>333.2</ele>
        <time>2022-04-03T10:39:59Z</time>
      </trkpt>
      <trkpt lat="45.77429" lon="1.00921">
        <ele>333.2</ele>
        <time>2022-04-03T10:40:00Z</time>
      </trkpt>
      <trkpt lat="45.77428" lon="1.00918">
        <ele>333.4</ele>
        <time>2022-04-03T10:40:01Z</time>
      </trkpt>
      <trkpt lat="45.77428" lon="1.00915">
        <ele>333.4</ele>
        <time>2022-04-03T10:40:02Z</time>
      </trkpt>
      <trkpt lat="45.77427" lon="1.00911">
        <ele>333.6</ele>
        <time>2022-04-03T10:40:03Z</time>
      </trkpt>
      <trkpt lat="45.77427" lon="1.00908">
        <ele>333.8</ele>
        <time>2022-04-03T10:40:04Z</time>
      </trkpt>
      <trkpt lat="45.77427" lon="1.00905">
        <ele>334</ele>
        <time>2022-04-03T10:40:05Z</time>
      </trkpt>
      <trkpt lat="45.77426" lon="1.00901">
        <ele>334.2</ele>
        <time>2022-04-03T10:40:06Z</time>
      </trkpt>
      <trkpt lat="45.77426" lon="1.00898">
        <ele>334.4</ele>
        <time>2022-04-03T10:40:07Z</time>
      </trkpt>
      <trkpt lat="45.77426" lon="1.00895">
        <ele>334.6</ele>
        <time>2022-04-03T10:40:08Z</time>
      </trkpt>
      <trkpt lat="45.77425" lon="1.00891">
        <ele>334.8</ele>
        <time>2022-04-03T10:40:09Z</time>
      </trkpt>
      <trkpt lat="45.77424" lon="1.00888">
        <ele>334.8</ele>
        <time>2022-04-03T10:40:10Z</time>
      </trkpt>
      <trkpt lat="45.77424" lon="1.00884">
        <ele>335.2</ele>
        <time>2022-04-03T10:40:11Z</time>
      </trkpt>
      <trkpt lat="45.77423" lon="1.00881">
        <ele>335</ele>
        <time>2022-04-03T10:40:12Z</time>
      </trkpt>
      <trkpt lat="45.77423" lon="1.00878">
        <ele>335.4</ele>
        <time>2022-04-03T10:40:13Z</time>
      </trkpt>
      <trkpt lat="45.77423" lon="1.00874">
        <ele>335.6</ele>
        <time>2022-04-03T10:40:14Z</time>
      </trkpt>
      <trkpt lat="45.77422" lon="1.00871">
        <ele>335.8</ele>
        <time>2022-04-03T10:40:15Z</time>
      </trkpt>
      <trkpt lat="45.77422" lon="1.00867">
        <ele>336.2</ele>
        <time>2022-04-03T10:40:16Z</time>
      </trkpt>
      <trkpt lat="45.77421" lon="1.00864">
        <ele>336.2</ele>
        <time>2022-04-03T10:40:17Z</time>
      </trkpt>
      <trkpt lat="45.77421" lon="1.00861">
        <ele>336.2</ele>
        <time>2022-04-03T10:40:18Z</time>
      </trkpt>
      <trkpt lat="45.7742" lon="1.00857">
        <ele>336.4</ele>
        <time>2022-04-03T10:40:19Z</time>
      </trkpt>
      <trkpt lat="45.7742" lon="1.00854">
        <ele>336.6</ele>
        <time>2022-04-03T10:40:20Z</time>
      </trkpt>
      <trkpt lat="45.77419" lon="1.0085">
        <ele>336.8</ele>
        <time>2022-04-03T10:40:21Z</time>
      </trkpt>
      <trkpt lat="45.77418" lon="1.00847">
        <ele>336.8</ele>
        <time>2022-04-03T10:40:22Z</time>
      </trkpt>
      <trkpt lat="45.77418" lon="1.00844">
        <ele>337.2</ele>
        <time>2022-04-03T10:40:23Z</time>
      </trkpt>
      <trkpt lat="45.77417" lon="1.0084">
        <ele>337.4</ele>
        <time>2022-04-03T10:40:24Z</time>
      </trkpt>
      <trkpt lat="45.77417" lon="1.00837">
        <ele>337.4</ele>
        <time>2022-04-03T10:40:25Z</time>
      </trkpt>
      <trkpt lat="45.77417" lon="1.00833">
        <ele>337.6</ele>
        <time>2022-04-03T10:40:26Z</time>
      </trkpt>
      <trkpt lat="45.77416" lon="1.0083">
        <ele>337.8</ele>
        <time>2022-04-03T10:40:27Z</time>
      </trkpt>
      <trkpt lat="45.77416" lon="1.00826">
        <ele>337.8</ele>
        <time>2022-04-03T10:40:28Z</time>
      </trkpt>
      <trkpt lat="45.77415" lon="1.00823">
        <ele>338</ele>
        <time>2022-04-03T10:40:29Z</time>
      </trkpt>
      <trkpt lat="45.77415" lon="1.00819">
        <ele>338.2</ele>
        <time>2022-04-03T10:40:30Z</time>
      </trkpt>
      <trkpt lat="45.77414" lon="1.00816">
        <ele>338.4</ele>
        <time>2022-04-03T10:40:31Z</time>
      </trkpt>
      <trkpt lat="45.77414" lon="1.00812">
        <ele>338.6</ele>
        <time>2022-04-03T10:40:32Z</time>
      </trkpt>
      <trkpt lat="45.77414" lon="1.00809">
        <ele>338.6</ele>
        <time>2022-04-03T10:40:33Z</time>
      </trkpt>
      <trkpt lat="45.77413" lon="1.00805">
        <ele>338.8</ele>
        <time>2022-04-03T10:40:34Z</time>
      </trkpt>
      <trkpt lat="45.77413" lon="1.00802">
        <ele>338.8</ele>
        <time>2022-04-03T10:40:35Z</time>
      </trkpt>
      <trkpt lat="45.77412" lon="1.00798">
        <ele>339</ele>
        <time>2022-04-03T10:40:36Z</time>
      </trkpt>
      <trkpt lat="45.77412" lon="1.00794">
        <ele>339</ele>
        <time>2022-04-03T10:40:37Z</time>
      </trkpt>
      <trkpt lat="45.77412" lon="1.00791">
        <ele>339.2</ele>
        <time>2022-04-03T10:40:38Z</time>
      </trkpt>
      <trkpt lat="45.77411" lon="1.00787">
        <ele>339.4</ele>
        <time>2022-04-03T10:40:39Z</time>
      </trkpt>
      <trkpt lat="45.77411" lon="1.00783">
        <ele>339.2</ele>
        <time>2022-04-03T10:40:40Z</time>
      </trkpt>
      <trkpt lat="45.7741" lon="1.00779">
        <ele>339.4</ele>
        <time>2022-04-03T10:40:41Z</time>
      </trkpt>
      <trkpt lat="45.77409" lon="1.00775">
        <ele>339.6</ele>
        <time>2022-04-03T10:40:42Z</time>
      </trkpt>
      <trkpt lat="45.77409" lon="1.00771">
        <ele>339.6</ele>
        <time>2022-04-03T10:40:43Z</time>
      </trkpt>
      <trkpt lat="45.77409" lon="1.00767">
        <ele>339.4</ele>
        <time>2022-04-03T10:40:44Z</time>
      </trkpt>
      <trkpt lat="45.77408" lon="1.00763">
        <ele>339.6</ele>
        <time>2022-04-03T10:40:45Z</time>
      </trkpt>
      <trkpt lat="45.77407" lon="1.00759">
        <ele>339.6</ele>
        <time>2022-04-03T10:40:46Z</time>
      </trkpt>
      <trkpt lat="45.77407" lon="1.00755">
        <ele>339.6</ele>
        <time>2022-04-03T10:40:47Z</time>
      </trkpt>
      <trkpt lat="45.77406" lon="1.00751">
        <ele>339.8</ele>
        <time>2022-04-03T10:40:48Z</time>
      </trkpt>
      <trkpt lat="45.77405" lon="1.00747">
        <ele>339.8</ele>
        <time>2022-04-03T10:40:49Z</time>
      </trkpt>
      <trkpt lat="45.77405" lon="1.00743">
        <ele>339.8</ele>
        <time>2022-04-03T10:40:50Z</time>
      </trkpt>
      <trkpt lat="45.77405" lon="1.00738">
        <ele>339.8</ele>
        <time>2022-04-03T10:40:51Z</time>
      </trkpt>
      <trkpt lat="45.77404" lon="1.00734">
        <ele>339.8</ele>
        <time>2022-04-03T10:40:52Z</time>
      </trkpt>
      <trkpt lat="45.77404" lon="1.0073">
        <ele>340</ele>
        <time>2022-04-03T10:40:53Z</time>
      </trkpt>
      <trkpt lat="45.77403" lon="1.00725">
        <ele>340.2</ele>
        <time>2022-04-03T10:40:54Z</time>
      </trkpt>
      <trkpt lat="45.77402" lon="1.00721">
        <ele>340.4</ele>
        <time>2022-04-03T10:40:55Z</time>
      </trkpt>
      <trkpt lat="45.77402" lon="1.00716">
        <ele>340.4</ele>
        <time>2022-04-03T10:40:56Z</time>
      </trkpt>
      <trkpt lat="45.77401" lon="1.00712">
        <ele>340.4</ele>
        <time>2022-04-03T10:40:57Z</time>
      </trkpt>
      <trkpt lat="45.77401" lon="1.00707">
        <ele>340.6</ele>
        <time>2022-04-03T10:40:58Z</time>
      </trkpt>
      <trkpt lat="45.774" lon="1.00703">
        <ele>340.6</ele>
        <time>2022-04-03T10:40:59Z</time>
      </trkpt>
      <trkpt lat="45.77399" lon="1.00698">
        <ele>340.6</ele>
        <time>2022-04-03T10:41:00Z</time>
      </trkpt>
      <trkpt lat="45.77399" lon="1.00694">
        <ele>340.6</ele>
        <time>2022-04-03T10:41:01Z</time>
      </trkpt>
      <trkpt lat="45.77398" lon="1.00689">
        <ele>340.6</ele>
        <time>2022-04-03T10:41:02Z</time>
      </trkpt>
      <trkpt lat="45.77398" lon="1.00685">
        <ele>340.8</ele>
        <time>2022-04-03T10:41:03Z</time>
      </trkpt>
      <trkpt lat="45.77397" lon="1.0068">
        <ele>340.8</ele>
        <time>2022-04-03T10:41:04Z</time>
      </trkpt>
      <trkpt lat="45.77396" lon="1.00675">
        <ele>340.8</ele>
        <time>2022-04-03T10:41:05Z</time>
      </trkpt>
      <trkpt lat="45.77395" lon="1.00671">
        <ele>340.8</ele>
        <time>2022-04-03T10:41:06Z</time>
      </trkpt>
      <trkpt lat="45.77395" lon="1.00666">
        <ele>340.8</ele>
        <time>2022-04-03T10:41:07Z</time>
      </trkpt>
      <trkpt lat="45.77394" lon="1.00661">
        <ele>341</ele>
        <time>2022-04-03T10:41:08Z</time>
      </trkpt>
      <trkpt lat="45.77394" lon="1.00656">
        <ele>341</ele>
        <time>2022-04-03T10:41:09Z</time>
      </trkpt>
      <trkpt lat="45.77393" lon="1.00651">
        <ele>341</ele>
        <time>2022-04-03T10:41:10Z</time>
      </trkpt>
      <trkpt lat="45.77392" lon="1.00647">
        <ele>341</ele>
        <time>2022-04-03T10:41:11Z</time>
      </trkpt>
      <trkpt lat="45.77392" lon="1.00642">
        <ele>341</ele>
        <time>2022-04-03T10:41:12Z</time>
      </trkpt>
      <trkpt lat="45.77391" lon="1.00637">
        <ele>341</ele>
        <time>2022-04-03T10:41:13Z</time>
      </trkpt>
      <trkpt lat="45.77391" lon="1.00632">
        <ele>341.2</ele>
        <time>2022-04-03T10:41:14Z</time>
      </trkpt>
      <trkpt lat="45.7739" lon="1.00626">
        <ele>341.2</ele>
        <time>2022-04-03T10:41:15Z</time>
      </trkpt>
      <trkpt lat="45.77389" lon="1.00621">
        <ele>341</ele>
        <time>2022-04-03T10:41:16Z</time>
      </trkpt>
      <trkpt lat="45.77389" lon="1.00616">
        <ele>341</ele>
        <time>2022-04-03T10:41:17Z</time>
      </trkpt>
      <trkpt lat="45.77388" lon="1.0061">
        <ele>341</ele>
        <time>2022-04-03T10:41:18Z</time>
      </trkpt>
      <trkpt lat="45.77387" lon="1.00604">
        <ele>341</ele>
        <time>2022-04-03T10:41:19Z</time>
      </trkpt>
      <trkpt lat="45.77386" lon="1.00599">
        <ele>341.2</ele>
        <time>2022-04-03T10:41:20Z</time>
      </trkpt>
      <trkpt lat="45.77385" lon="1.00593">
        <ele>341.2</ele>
        <time>2022-04-03T10:41:21Z</time>
      </trkpt>
      <trkpt lat="45.77385" lon="1.00587">
        <ele>341.2</ele>
        <time>2022-04-03T10:41:22Z</time>
      </trkpt>
      <trkpt lat="45.77384" lon="1.00581">
        <ele>341.2</ele>
        <time>2022-04-03T10:41:23Z</time>
      </trkpt>
      <trkpt lat="45.77383" lon="1.00575">
        <ele>341.2</ele>
        <time>2022-04-03T10:41:24Z</time>
      </trkpt>
      <trkpt lat="45.77382" lon="1.00569">
        <ele>341.4</ele>
        <time>2022-04-03T10:41:25Z</time>
      </trkpt>
      <trkpt lat="45.77381" lon="1.00563">
        <ele>341.4</ele>
        <time>2022-04-03T10:41:26Z</time>
      </trkpt>
      <trkpt lat="45.77381" lon="1.00557">
        <ele>341.4</ele>
        <time>2022-04-03T10:41:27Z</time>
      </trkpt>
      <trkpt lat="45.7738" lon="1.00551">
        <ele>341.6</ele>
        <time>2022-04-03T10:41:28Z</time>
      </trkpt>
      <trkpt lat="45.77379" lon="1.00545">
        <ele>341.4</ele>
        <time>2022-04-03T10:41:29Z</time>
      </trkpt>
      <trkpt lat="45.77378" lon="1.00539">
        <ele>341.6</ele>
        <time>2022-04-03T10:41:30Z</time>
      </trkpt>
      <trkpt lat="45.77377" lon="1.00533">
        <ele>341.6</ele>
        <time>2022-04-03T10:41:31Z</time>
      </trkpt>
      <trkpt lat="45.77376" lon="1.00527">
        <ele>341.8</ele>
        <time>2022-04-03T10:41:32Z</time>
      </trkpt>
      <trkpt lat="45.77375" lon="1.00521">
        <ele>342</ele>
        <time>2022-04-03T10:41:33Z</time>
      </trkpt>
      <trkpt lat="45.77375" lon="1.00515">
        <ele>342</ele>
        <time>2022-04-03T10:41:34Z</time>
      </trkpt>
      <trkpt lat="45.77374" lon="1.00509">
        <ele>342</ele>
        <time>2022-04-03T10:41:35Z</time>
      </trkpt>
      <trkpt lat="45.77373" lon="1.00502">
        <ele>342</ele>
        <time>2022-04-03T10:41:36Z</time>
      </trkpt>
      <trkpt lat="45.77372" lon="1.00496">
        <ele>342</ele>
        <time>2022-04-03T10:41:37Z</time>
      </trkpt>
      <trkpt lat="45.77371" lon="1.0049">
        <ele>342.2</ele>
        <time>2022-04-03T10:41:38Z</time>
      </trkpt>
      <trkpt lat="45.77371" lon="1.00484">
        <ele>342</ele>
        <time>2022-04-03T10:41:39Z</time>
      </trkpt>
      <trkpt lat="45.7737" lon="1.00478">
        <ele>342.2</ele>
        <time>2022-04-03T10:41:40Z</time>
      </trkpt>
      <trkpt lat="45.77369" lon="1.00472">
        <ele>342.4</ele>
        <time>2022-04-03T10:41:41Z</time>
      </trkpt>
      <trkpt lat="45.77368" lon="1.00466">
        <ele>342.2</ele>
        <time>2022-04-03T10:41:42Z</time>
      </trkpt>
      <trkpt lat="45.77367" lon="1.0046">
        <ele>342.4</ele>
        <time>2022-04-03T10:41:43Z</time>
      </trkpt>
      <trkpt lat="45.77366" lon="1.00454">
        <ele>342.2</ele>
        <time>2022-04-03T10:41:44Z</time>
      </trkpt>
      <trkpt lat="45.77366" lon="1.00448">
        <ele>342.4</ele>
        <time>2022-04-03T10:41:45Z</time>
      </trkpt>
      <trkpt lat="45.77365" lon="1.00442">
        <ele>342.4</ele>
        <time>2022-04-03T10:41:46Z</time>
      </trkpt>
      <trkpt lat="45.77364" lon="1.00436">
        <ele>342.4</ele>
        <time>2022-04-03T10:41:47Z</time>
      </trkpt>
      <trkpt lat="45.77363" lon="1.0043">
        <ele>342.6</ele>
        <time>2022-04-03T10:41:48Z</time>
      </trkpt>
      <trkpt lat="45.77362" lon="1.00423">
        <ele>342.6</ele>
        <time>2022-04-03T10:41:49Z</time>
      </trkpt>
      <trkpt lat="45.77361" lon="1.00417">
        <ele>342.8</ele>
        <time>2022-04-03T10:41:50Z</time>
      </trkpt>
      <trkpt lat="45.7736" lon="1.00411">
        <ele>342.8</ele>
        <time>2022-04-03T10:41:51Z</time>
      </trkpt>
      <trkpt lat="45.7736" lon="1.00404">
        <ele>342.8</ele>
        <time>2022-04-03T10:41:52Z</time>
      </trkpt>
      <trkpt lat="45.77359" lon="1.00397">
        <ele>343</ele>
        <time>2022-04-03T10:41:53Z</time>
      </trkpt>
      <trkpt lat="45.77358" lon="1.00391">
        <ele>343</ele>
        <time>2022-04-03T10:41:54Z</time>
      </trkpt>
      <trkpt lat="45.77357" lon="1.00384">
        <ele>343.2</ele>
        <time>2022-04-03T10:41:55Z</time>
      </trkpt>
      <trkpt lat="45.77356" lon="1.00377">
        <ele>343.2</ele>
        <time>2022-04-03T10:41:56Z</time>
      </trkpt>
      <trkpt lat="45.77355" lon="1.00369">
        <ele>343.2</ele>
        <time>2022-04-03T10:41:57Z</time>
      </trkpt>
      <trkpt lat="45.77354" lon="1.00362">
        <ele>343.2</ele>
        <time>2022-04-03T10:41:58Z</time>
      </trkpt>
      <trkpt lat="45.77353" lon="1.00355">
        <ele>343.4</ele>
        <time>2022-04-03T10:41:59Z</time>
      </trkpt>
      <trkpt lat="45.77352" lon="1.00347">
        <ele>343.2</ele>
        <time>2022-04-03T10:42:00Z</time>
      </trkpt>
      <trkpt lat="45.77351" lon="1.0034">
        <ele>343.2</ele>
        <time>2022-04-03T10:42:01Z</time>
      </trkpt>
      <trkpt lat="45.7735" lon="1.00333">
        <ele>343.2</ele>
        <time>2022-04-03T10:42:02Z</time>
      </trkpt>
      <trkpt lat="45.77349" lon="1.00326">
        <ele>343.4</ele>
        <time>2022-04-03T10:42:03Z</time>
      </trkpt>
      <trkpt lat="45.77348" lon="1.00318">
        <ele>343.4</ele>
        <time>2022-04-03T10:42:04Z</time>
      </trkpt>
      <trkpt lat="45.77346" lon="1.00311">
        <ele>343.4</ele>
        <time>2022-04-03T10:42:05Z</time>
      </trkpt>
      <trkpt lat="45.77344" lon="1.00304">
        <ele>343.6</ele>
        <time>2022-04-03T10:42:06Z</time>
      </trkpt>
      <trkpt lat="45.77343" lon="1.00298">
        <ele>343.4</ele>
        <time>2022-04-03T10:42:07Z</time>
      </trkpt>
      <trkpt lat="45.77341" lon="1.00291">
        <ele>343.6</ele>
        <time>2022-04-03T10:42:08Z</time>
      </trkpt>
      <trkpt lat="45.77339" lon="1.00284">
        <ele>343.4</ele>
        <time>2022-04-03T10:42:09Z</time>
      </trkpt>
      <trkpt lat="45.77336" lon="1.00278">
        <ele>343.4</ele>
        <time>2022-04-03T10:42:10Z</time>
      </trkpt>
      <trkpt lat="45.77334" lon="1.00271">
        <ele>343.4</ele>
        <time>2022-04-03T10:42:11Z</time>
      </trkpt>
      <trkpt lat="45.77332" lon="1.00264">
        <ele>343.4</ele>
        <time>2022-04-03T10:42:12Z</time>
      </trkpt>
      <trkpt lat="45.7733" lon="1.00257">
        <ele>343.2</ele>
        <time>2022-04-03T10:42:13Z</time>
      </trkpt>
      <trkpt lat="45.77328" lon="1.0025">
        <ele>343.2</ele>
        <time>2022-04-03T10:42:14Z</time>
      </trkpt>
      <trkpt lat="45.77326" lon="1.00243">
        <ele>343.2</ele>
        <time>2022-04-03T10:42:15Z</time>
      </trkpt>
      <trkpt lat="45.77325" lon="1.00236">
        <ele>343.2</ele>
        <time>2022-04-03T10:42:16Z</time>
      </trkpt>
      <trkpt lat="45.77323" lon="1.00229">
        <ele>343.2</ele>
        <time>2022-04-03T10:42:17Z</time>
      </trkpt>
      <trkpt lat="45.77322" lon="1.00222">
        <ele>343</ele>
        <time>2022-04-03T10:42:18Z</time>
      </trkpt>
      <trkpt lat="45.7732" lon="1.00215">
        <ele>342.8</ele>
        <time>2022-04-03T10:42:19Z</time>
      </trkpt>
      <trkpt lat="45.77318" lon="1.00207">
        <ele>342.6</ele>
        <time>2022-04-03T10:42:20Z</time>
      </trkpt>
      <trkpt lat="45.77317" lon="1.002">
        <ele>342.6</ele>
        <time>2022-04-03T10:42:21Z</time>
      </trkpt>
      <trkpt lat="45.77316" lon="1.00193">
        <ele>342.4</ele>
        <time>2022-04-03T10:42:22Z</time>
      </trkpt>
      <trkpt lat="45.77316" lon="1.00185">
        <ele>342.4</ele>
        <time>2022-04-03T10:42:23Z</time>
      </trkpt>
      <trkpt lat="45.77315" lon="1.00177">
        <ele>342.4</ele>
        <time>2022-04-03T10:42:24Z</time>
      </trkpt>
      <trkpt lat="45.77314" lon="1.0017">
        <ele>342.2</ele>
        <time>2022-04-03T10:42:25Z</time>
      </trkpt>
      <trkpt lat="45.77313" lon="1.00162">
        <ele>342.2</ele>
        <time>2022-04-03T10:42:26Z</time>
      </trkpt>
      <trkpt lat="45.77312" lon="1.00154">
        <ele>342.2</ele>
        <time>2022-04-03T10:42:27Z</time>
      </trkpt>
      <trkpt lat="45.77311" lon="1.00145">
        <ele>342</ele>
        <time>2022-04-03T10:42:28Z</time>
      </trkpt>
      <trkpt lat="45.77311" lon="1.00137">
        <ele>342</ele>
        <time>2022-04-03T10:42:29Z</time>
      </trkpt>
      <trkpt lat="45.7731" lon="1.00129">
        <ele>342</ele>
        <time>2022-04-03T10:42:30Z</time>
      </trkpt>
      <trkpt lat="45.7731" lon="1.0012">
        <ele>341.8</ele>
        <time>2022-04-03T10:42:31Z</time>
      </trkpt>
      <trkpt lat="45.77309" lon="1.00111">
        <ele>341.8</ele>
        <time>2022-04-03T10:42:32Z</time>
      </trkpt>
      <trkpt lat="45.77308" lon="1.00102">
        <ele>341.6</ele>
        <time>2022-04-03T10:42:33Z</time>
      </trkpt>
      <trkpt lat="45.77307" lon="1.00094">
        <ele>341.6</ele>
        <time>2022-04-03T10:42:34Z</time>
      </trkpt>
      <trkpt lat="45.77306" lon="1.00085">
        <ele>341.4</ele>
        <time>2022-04-03T10:42:35Z</time>
      </trkpt>
      <trkpt lat="45.77305" lon="1.00076">
        <ele>341.2</ele>
        <time>2022-04-03T10:42:36Z</time>
      </trkpt>
      <trkpt lat="45.77304" lon="1.00067">
        <ele>341.2</ele>
        <time>2022-04-03T10:42:37Z</time>
      </trkpt>
      <trkpt lat="45.77302" lon="1.0005">
        <ele>340.8</ele>
        <time>2022-04-03T10:42:39Z</time>
      </trkpt>
      <trkpt lat="45.77301" lon="1.00041">
        <ele>340.4</ele>
        <time>2022-04-03T10:42:40Z</time>
      </trkpt>
      <trkpt lat="45.773" lon="1.00032">
        <ele>339.8</ele>
        <time>2022-04-03T10:42:41Z</time>
      </trkpt>
      <trkpt lat="45.77299" lon="1.00023">
        <ele>339.4</ele>
        <time>2022-04-03T10:42:42Z</time>
      </trkpt>
      <trkpt lat="45.77298" lon="1.00014">
        <ele>339</ele>
        <time>2022-04-03T10:42:43Z</time>
      </trkpt>
      <trkpt lat="45.77297" lon="1.00005">
        <ele>338.8</ele>
        <time>2022-04-03T10:42:44Z</time>
      </trkpt>
      <trkpt lat="45.77297" lon="0.99996">
        <ele>338.6</ele>
        <time>2022-04-03T10:42:45Z</time>
      </trkpt>
      <trkpt lat="45.77296" lon="0.99987">
        <ele>338.4</ele>
        <time>2022-04-03T10:42:46Z</time>
      </trkpt>
      <trkpt lat="45.77295" lon="0.99977">
        <ele>338.2</ele>
        <time>2022-04-03T10:42:47Z</time>
      </trkpt>
      <trkpt lat="45.77294" lon="0.99968">
        <ele>337.8</ele>
        <time>2022-04-03T10:42:48Z</time>
      </trkpt>
      <trkpt lat="45.77293" lon="0.99959">
        <ele>337.8</ele>
        <time>2022-04-03T10:42:49Z</time>
      </trkpt>
      <trkpt lat="45.77292" lon="0.9995">
        <ele>337.6</ele>
        <time>2022-04-03T10:42:50Z</time>
      </trkpt>
      <trkpt lat="45.77291" lon="0.99941">
        <ele>337.4</ele>
        <time>2022-04-03T10:42:51Z</time>
      </trkpt>
      <trkpt lat="45.7729" lon="0.99931">
        <ele>337.4</ele>
        <time>2022-04-03T10:42:52Z</time>
      </trkpt>
      <trkpt lat="45.77289" lon="0.99922">
        <ele>337</ele>
        <time>2022-04-03T10:42:53Z</time>
      </trkpt>
      <trkpt lat="45.77287" lon="0.99912">
        <ele>337</ele>
        <time>2022-04-03T10:42:54Z</time>
      </trkpt>
      <trkpt lat="45.77287" lon="0.99903">
        <ele>337</ele>
        <time>2022-04-03T10:42:55Z</time>
      </trkpt>
      <trkpt lat="45.77286" lon="0.99894">
        <ele>336.6</ele>
        <time>2022-04-03T10:42:56Z</time>
      </trkpt>
      <trkpt lat="45.77285" lon="0.99885">
        <ele>336.4</ele>
        <time>2022-04-03T10:42:57Z</time>
      </trkpt>
      <trkpt lat="45.77283" lon="0.99876">
        <ele>336.4</ele>
        <time>2022-04-03T10:42:58Z</time>
      </trkpt>
      <trkpt lat="45.77282" lon="0.99867">
        <ele>336.2</ele>
        <time>2022-04-03T10:42:59Z</time>
      </trkpt>
      <trkpt lat="45.77282" lon="0.99858">
        <ele>336</ele>
        <time>2022-04-03T10:43:00Z</time>
      </trkpt>
      <trkpt lat="45.77281" lon="0.9985">
        <ele>335.8</ele>
        <time>2022-04-03T10:43:01Z</time>
      </trkpt>
      <trkpt lat="45.7728" lon="0.99841">
        <ele>335.6</ele>
        <time>2022-04-03T10:43:02Z</time>
      </trkpt>
      <trkpt lat="45.77279" lon="0.99833">
        <ele>335.4</ele>
        <time>2022-04-03T10:43:03Z</time>
      </trkpt>
      <trkpt lat="45.77278" lon="0.99825">
        <ele>335.2</ele>
        <time>2022-04-03T10:43:04Z</time>
      </trkpt>
      <trkpt lat="45.77277" lon="0.99816">
        <ele>335.2</ele>
        <time>2022-04-03T10:43:05Z</time>
      </trkpt>
      <trkpt lat="45.77276" lon="0.99808">
        <ele>335</ele>
        <time>2022-04-03T10:43:06Z</time>
      </trkpt>
      <trkpt lat="45.77275" lon="0.99801">
        <ele>335</ele>
        <time>2022-04-03T10:43:07Z</time>
      </trkpt>
      <trkpt lat="45.77275" lon="0.99793">
        <ele>335</ele>
        <time>2022-04-03T10:43:08Z</time>
      </trkpt>
      <trkpt lat="45.77274" lon="0.99786">
        <ele>334.8</ele>
        <time>2022-04-03T10:43:09Z</time>
      </trkpt>
      <trkpt lat="45.77273" lon="0.99778">
        <ele>334.8</ele>
        <time>2022-04-03T10:43:10Z</time>
      </trkpt>
      <trkpt lat="45.77272" lon="0.99771">
        <ele>334.8</ele>
        <time>2022-04-03T10:43:11Z</time>
      </trkpt>
      <trkpt lat="45.77271" lon="0.99764">
        <ele>335</ele>
        <time>2022-04-03T10:43:12Z</time>
      </trkpt>
      <trkpt lat="45.77271" lon="0.99756">
        <ele>334.8</ele>
        <time>2022-04-03T10:43:13Z</time>
      </trkpt>
      <trkpt lat="45.7727" lon="0.99749">
        <ele>334.6</ele>
        <time>2022-04-03T10:43:14Z</time>
      </trkpt>
      <trkpt lat="45.77269" lon="0.99742">
        <ele>334.8</ele>
        <time>2022-04-03T10:43:15Z</time>
      </trkpt>
      <trkpt lat="45.77268" lon="0.99735">
        <ele>334.6</ele>
        <time>2022-04-03T10:43:16Z</time>
      </trkpt>
      <trkpt lat="45.77267" lon="0.99727">
        <ele>334.8</ele>
        <time>2022-04-03T10:43:17Z</time>
      </trkpt>
      <trkpt lat="45.77266" lon="0.9972">
        <ele>334.8</ele>
        <time>2022-04-03T10:43:18Z</time>
      </trkpt>
      <trkpt lat="45.77264" lon="0.99712">
        <ele>334.6</ele>
        <time>2022-04-03T10:43:19Z</time>
      </trkpt>
      <trkpt lat="45.77263" lon="0.99704">
        <ele>334.8</ele>
        <time>2022-04-03T10:43:20Z</time>
      </trkpt>
      <trkpt lat="45.77261" lon="0.99697">
        <ele>334.8</ele>
        <time>2022-04-03T10:43:21Z</time>
      </trkpt>
      <trkpt lat="45.7726" lon="0.99689">
        <ele>334.8</ele>
        <time>2022-04-03T10:43:22Z</time>
      </trkpt>
      <trkpt lat="45.77258" lon="0.99681">
        <ele>335</ele>
        <time>2022-04-03T10:43:23Z</time>
      </trkpt>
      <trkpt lat="45.77255" lon="0.99672">
        <ele>334.8</ele>
        <time>2022-04-03T10:43:24Z</time>
      </trkpt>
      <trkpt lat="45.77252" lon="0.99664">
        <ele>335</ele>
        <time>2022-04-03T10:43:25Z</time>
      </trkpt>
      <trkpt lat="45.77249" lon="0.99655">
        <ele>334.8</ele>
        <time>2022-04-03T10:43:26Z</time>
      </trkpt>
      <trkpt lat="45.77245" lon="0.99646">
        <ele>334.8</ele>
        <time>2022-04-03T10:43:27Z</time>
      </trkpt>
      <trkpt lat="45.77242" lon="0.99636">
        <ele>334.8</ele>
        <time>2022-04-03T10:43:28Z</time>
      </trkpt>
      <trkpt lat="45.77238" lon="0.99625">
        <ele>334.8</ele>
        <time>2022-04-03T10:43:29Z</time>
      </trkpt>
      <trkpt lat="45.77234" lon="0.99615">
        <ele>334.8</ele>
        <time>2022-04-03T10:43:30Z</time>
      </trkpt>
      <trkpt lat="45.7723" lon="0.99604">
        <ele>334.8</ele>
        <time>2022-04-03T10:43:31Z</time>
      </trkpt>
      <trkpt lat="45.77226" lon="0.99593">
        <ele>334.6</ele>
        <time>2022-04-03T10:43:32Z</time>
      </trkpt>
      <trkpt lat="45.77222" lon="0.99582">
        <ele>334</ele>
        <time>2022-04-03T10:43:33Z</time>
      </trkpt>
      <trkpt lat="45.77217" lon="0.99571">
        <ele>333.8</ele>
        <time>2022-04-03T10:43:34Z</time>
      </trkpt>
      <trkpt lat="45.77213" lon="0.99559">
        <ele>333.4</ele>
        <time>2022-04-03T10:43:35Z</time>
      </trkpt>
      <trkpt lat="45.77208" lon="0.99547">
        <ele>332.6</ele>
        <time>2022-04-03T10:43:36Z</time>
      </trkpt>
      <trkpt lat="45.77204" lon="0.99535">
        <ele>331.6</ele>
        <time>2022-04-03T10:43:37Z</time>
      </trkpt>
      <trkpt lat="45.77199" lon="0.99523">
        <ele>331</ele>
        <time>2022-04-03T10:43:38Z</time>
      </trkpt>
      <trkpt lat="45.77194" lon="0.99511">
        <ele>330.4</ele>
        <time>2022-04-03T10:43:39Z</time>
      </trkpt>
      <trkpt lat="45.7719" lon="0.99499">
        <ele>330</ele>
        <time>2022-04-03T10:43:40Z</time>
      </trkpt>
      <trkpt lat="45.77185" lon="0.99486">
        <ele>329.4</ele>
        <time>2022-04-03T10:43:41Z</time>
      </trkpt>
      <trkpt lat="45.7718" lon="0.99474">
        <ele>328.4</ele>
        <time>2022-04-03T10:43:42Z</time>
      </trkpt>
      <trkpt lat="45.77175" lon="0.99461">
        <ele>327.8</ele>
        <time>2022-04-03T10:43:43Z</time>
      </trkpt>
      <trkpt lat="45.7717" lon="0.99448">
        <ele>327.2</ele>
        <time>2022-04-03T10:43:44Z</time>
      </trkpt>
      <trkpt lat="45.77165" lon="0.99434">
        <ele>326.8</ele>
        <time>2022-04-03T10:43:45Z</time>
      </trkpt>
      <trkpt lat="45.7716" lon="0.99421">
        <ele>326.8</ele>
        <time>2022-04-03T10:43:46Z</time>
      </trkpt>
      <trkpt lat="45.77155" lon="0.99408">
        <ele>326.2</ele>
        <time>2022-04-03T10:43:47Z</time>
      </trkpt>
      <trkpt lat="45.7715" lon="0.99395">
        <ele>324.8</ele>
        <time>2022-04-03T10:43:48Z</time>
      </trkpt>
      <trkpt lat="45.77145" lon="0.99381">
        <ele>323.8</ele>
        <time>2022-04-03T10:43:49Z</time>
      </trkpt>
      <trkpt lat="45.77139" lon="0.99368">
        <ele>323.4</ele>
        <time>2022-04-03T10:43:50Z</time>
      </trkpt>
      <trkpt lat="45.77134" lon="0.99354">
        <ele>322.2</ele>
        <time>2022-04-03T10:43:51Z</time>
      </trkpt>
      <trkpt lat="45.77129" lon="0.9934">
        <ele>321.2</ele>
        <time>2022-04-03T10:43:52Z</time>
      </trkpt>
      <trkpt lat="45.77123" lon="0.99327">
        <ele>319.8</ele>
        <time>2022-04-03T10:43:53Z</time>
      </trkpt>
      <trkpt lat="45.77118" lon="0.99314">
        <ele>319</ele>
        <time>2022-04-03T10:43:54Z</time>
      </trkpt>
      <trkpt lat="45.77114" lon="0.99301">
        <ele>318.6</ele>
        <time>2022-04-03T10:43:55Z</time>
      </trkpt>
      <trkpt lat="45.77109" lon="0.99288">
        <ele>318</ele>
        <time>2022-04-03T10:43:56Z</time>
      </trkpt>
      <trkpt lat="45.77104" lon="0.99276">
        <ele>317.2</ele>
        <time>2022-04-03T10:43:57Z</time>
      </trkpt>
      <trkpt lat="45.77099" lon="0.99263">
        <ele>316.8</ele>
        <time>2022-04-03T10:43:58Z</time>
      </trkpt>
      <trkpt lat="45.77094" lon="0.99251">
        <ele>316.2</ele>
        <time>2022-04-03T10:43:59Z</time>
      </trkpt>
      <trkpt lat="45.7709" lon="0.99239">
        <ele>315.4</ele>
        <time>2022-04-03T10:44:00Z</time>
      </trkpt>
      <trkpt lat="45.77087" lon="0.99227">
        <ele>315</ele>
        <time>2022-04-03T10:44:01Z</time>
      </trkpt>
      <trkpt lat="45.77084" lon="0.99214">
        <ele>314.8</ele>
        <time>2022-04-03T10:44:02Z</time>
      </trkpt>
      <trkpt lat="45.77081" lon="0.99202">
        <ele>314.4</ele>
        <time>2022-04-03T10:44:03Z</time>
      </trkpt>
      <trkpt lat="45.77078" lon="0.9919">
        <ele>314</ele>
        <time>2022-04-03T10:44:04Z</time>
      </trkpt>
      <trkpt lat="45.77076" lon="0.99177">
        <ele>314</ele>
        <time>2022-04-03T10:44:05Z</time>
      </trkpt>
      <trkpt lat="45.77075" lon="0.99165">
        <ele>314</ele>
        <time>2022-04-03T10:44:06Z</time>
      </trkpt>
      <trkpt lat="45.77073" lon="0.99153">
        <ele>313.8</ele>
        <time>2022-04-03T10:44:07Z</time>
      </trkpt>
      <trkpt lat="45.77072" lon="0.9914">
        <ele>314</ele>
        <time>2022-04-03T10:44:08Z</time>
      </trkpt>
      <trkpt lat="45.77071" lon="0.99128">
        <ele>313.8</ele>
        <time>2022-04-03T10:44:09Z</time>
      </trkpt>
      <trkpt lat="45.7707" lon="0.99116">
        <ele>313.8</ele>
        <time>2022-04-03T10:44:10Z</time>
      </trkpt>
      <trkpt lat="45.77069" lon="0.99104">
        <ele>313.6</ele>
        <time>2022-04-03T10:44:11Z</time>
      </trkpt>
      <trkpt lat="45.77067" lon="0.99092">
        <ele>313.8</ele>
        <time>2022-04-03T10:44:12Z</time>
      </trkpt>
      <trkpt lat="45.77066" lon="0.9908">
        <ele>313.8</ele>
        <time>2022-04-03T10:44:13Z</time>
      </trkpt>
      <trkpt lat="45.77065" lon="0.99069">
        <ele>313.8</ele>
        <time>2022-04-03T10:44:14Z</time>
      </trkpt>
      <trkpt lat="45.77064" lon="0.99057">
        <ele>313.8</ele>
        <time>2022-04-03T10:44:15Z</time>
      </trkpt>
      <trkpt lat="45.77063" lon="0.99045">
        <ele>313.8</ele>
        <time>2022-04-03T10:44:16Z</time>
      </trkpt>
      <trkpt lat="45.77062" lon="0.99034">
        <ele>313.8</ele>
        <time>2022-04-03T10:44:17Z</time>
      </trkpt>
      <trkpt lat="45.77062" lon="0.99022">
        <ele>313.8</ele>
        <time>2022-04-03T10:44:18Z</time>
      </trkpt>
      <trkpt lat="45.77061" lon="0.99011">
        <ele>313.8</ele>
        <time>2022-04-03T10:44:19Z</time>
      </trkpt>
      <trkpt lat="45.7706" lon="0.98999">
        <ele>313.8</ele>
        <time>2022-04-03T10:44:20Z</time>
      </trkpt>
      <trkpt lat="45.77059" lon="0.98988">
        <ele>313.8</ele>
        <time>2022-04-03T10:44:21Z</time>
      </trkpt>
      <trkpt lat="45.77058" lon="0.98976">
        <ele>313.8</ele>
        <time>2022-04-03T10:44:22Z</time>
      </trkpt>
      <trkpt lat="45.77057" lon="0.98965">
        <ele>313.6</ele>
        <time>2022-04-03T10:44:23Z</time>
      </trkpt>
      <trkpt lat="45.77056" lon="0.98954">
        <ele>313.6</ele>
        <time>2022-04-03T10:44:24Z</time>
      </trkpt>
      <trkpt lat="45.77055" lon="0.98944">
        <ele>313.8</ele>
        <time>2022-04-03T10:44:25Z</time>
      </trkpt>
      <trkpt lat="45.77054" lon="0.98933">
        <ele>313.8</ele>
        <time>2022-04-03T10:44:26Z</time>
      </trkpt>
      <trkpt lat="45.77053" lon="0.98923">
        <ele>313.8</ele>
        <time>2022-04-03T10:44:27Z</time>
      </trkpt>
      <trkpt lat="45.77052" lon="0.98912">
        <ele>313.8</ele>
        <time>2022-04-03T10:44:28Z</time>
      </trkpt>
      <trkpt lat="45.77051" lon="0.98902">
        <ele>314</ele>
        <time>2022-04-03T10:44:29Z</time>
      </trkpt>
      <trkpt lat="45.7705" lon="0.98892">
        <ele>314</ele>
        <time>2022-04-03T10:44:30Z</time>
      </trkpt>
      <trkpt lat="45.77049" lon="0.98882">
        <ele>314</ele>
        <time>2022-04-03T10:44:31Z</time>
      </trkpt>
      <trkpt lat="45.77048" lon="0.98872">
        <ele>314.2</ele>
        <time>2022-04-03T10:44:32Z</time>
      </trkpt>
      <trkpt lat="45.77047" lon="0.98861">
        <ele>314.2</ele>
        <time>2022-04-03T10:44:33Z</time>
      </trkpt>
      <trkpt lat="45.77046" lon="0.98851">
        <ele>314</ele>
        <time>2022-04-03T10:44:34Z</time>
      </trkpt>
      <trkpt lat="45.77045" lon="0.98841">
        <ele>314</ele>
        <time>2022-04-03T10:44:35Z</time>
      </trkpt>
      <trkpt lat="45.77044" lon="0.9883">
        <ele>314.2</ele>
        <time>2022-04-03T10:44:36Z</time>
      </trkpt>
      <trkpt lat="45.77043" lon="0.9882">
        <ele>313.8</ele>
        <time>2022-04-03T10:44:37Z</time>
      </trkpt>
      <trkpt lat="45.77043" lon="0.98809">
        <ele>313.8</ele>
        <time>2022-04-03T10:44:38Z</time>
      </trkpt>
      <trkpt lat="45.77042" lon="0.98799">
        <ele>313.8</ele>
        <time>2022-04-03T10:44:39Z</time>
      </trkpt>
      <trkpt lat="45.77041" lon="0.98788">
        <ele>314</ele>
        <time>2022-04-03T10:44:40Z</time>
      </trkpt>
      <trkpt lat="45.7704" lon="0.98778">
        <ele>313.8</ele>
        <time>2022-04-03T10:44:41Z</time>
      </trkpt>
      <trkpt lat="45.77039" lon="0.98768">
        <ele>313.8</ele>
        <time>2022-04-03T10:44:42Z</time>
      </trkpt>
      <trkpt lat="45.77038" lon="0.98758">
        <ele>313.8</ele>
        <time>2022-04-03T10:44:43Z</time>
      </trkpt>
      <trkpt lat="45.77037" lon="0.98747">
        <ele>313.6</ele>
        <time>2022-04-03T10:44:44Z</time>
      </trkpt>
      <trkpt lat="45.77036" lon="0.98737">
        <ele>313.8</ele>
        <time>2022-04-03T10:44:45Z</time>
      </trkpt>
      <trkpt lat="45.77035" lon="0.98727">
        <ele>314.2</ele>
        <time>2022-04-03T10:44:46Z</time>
      </trkpt>
      <trkpt lat="45.77034" lon="0.98717">
        <ele>314</ele>
        <time>2022-04-03T10:44:47Z</time>
      </trkpt>
      <trkpt lat="45.77033" lon="0.98707">
        <ele>314</ele>
        <time>2022-04-03T10:44:48Z</time>
      </trkpt>
      <trkpt lat="45.77032" lon="0.98697">
        <ele>314</ele>
        <time>2022-04-03T10:44:49Z</time>
      </trkpt>
      <trkpt lat="45.77031" lon="0.98688">
        <ele>314</ele>
        <time>2022-04-03T10:44:50Z</time>
      </trkpt>
      <trkpt lat="45.7703" lon="0.98678">
        <ele>314</ele>
        <time>2022-04-03T10:44:51Z</time>
      </trkpt>
      <trkpt lat="45.77029" lon="0.98668">
        <ele>314</ele>
        <time>2022-04-03T10:44:52Z</time>
      </trkpt>
      <trkpt lat="45.77029" lon="0.98658">
        <ele>313.8</ele>
        <time>2022-04-03T10:44:53Z</time>
      </trkpt>
      <trkpt lat="45.77028" lon="0.98649">
        <ele>313.8</ele>
        <time>2022-04-03T10:44:54Z</time>
      </trkpt>
      <trkpt lat="45.77027" lon="0.98639">
        <ele>314</ele>
        <time>2022-04-03T10:44:55Z</time>
      </trkpt>
      <trkpt lat="45.77027" lon="0.9863">
        <ele>313.8</ele>
        <time>2022-04-03T10:44:56Z</time>
      </trkpt>
      <trkpt lat="45.77026" lon="0.9862">
        <ele>313.8</ele>
        <time>2022-04-03T10:44:57Z</time>
      </trkpt>
      <trkpt lat="45.77025" lon="0.98611">
        <ele>314</ele>
        <time>2022-04-03T10:44:58Z</time>
      </trkpt>
      <trkpt lat="45.77024" lon="0.98602">
        <ele>314.2</ele>
        <time>2022-04-03T10:44:59Z</time>
      </trkpt>
      <trkpt lat="45.77023" lon="0.98593">
        <ele>314.6</ele>
        <time>2022-04-03T10:45:00Z</time>
      </trkpt>
      <trkpt lat="45.77023" lon="0.98583">
        <ele>314.6</ele>
        <time>2022-04-03T10:45:01Z</time>
      </trkpt>
      <trkpt lat="45.77022" lon="0.98574">
        <ele>314.4</ele>
        <time>2022-04-03T10:45:02Z</time>
      </trkpt>
      <trkpt lat="45.77021" lon="0.98564">
        <ele>314.6</ele>
        <time>2022-04-03T10:45:03Z</time>
      </trkpt>
      <trkpt lat="45.7702" lon="0.98555">
        <ele>314.8</ele>
        <time>2022-04-03T10:45:04Z</time>
      </trkpt>
      <trkpt lat="45.77019" lon="0.98545">
        <ele>314.6</ele>
        <time>2022-04-03T10:45:05Z</time>
      </trkpt>
      <trkpt lat="45.77018" lon="0.98535">
        <ele>314.8</ele>
        <time>2022-04-03T10:45:06Z</time>
      </trkpt>
      <trkpt lat="45.77016" lon="0.98525">
        <ele>314.8</ele>
        <time>2022-04-03T10:45:07Z</time>
      </trkpt>
      <trkpt lat="45.77015" lon="0.98515">
        <ele>314.8</ele>
        <time>2022-04-03T10:45:08Z</time>
      </trkpt>
      <trkpt lat="45.77012" lon="0.98505">
        <ele>314.8</ele>
        <time>2022-04-03T10:45:09Z</time>
      </trkpt>
      <trkpt lat="45.7701" lon="0.98496">
        <ele>314.8</ele>
        <time>2022-04-03T10:45:10Z</time>
      </trkpt>
      <trkpt lat="45.77007" lon="0.98486">
        <ele>314.6</ele>
        <time>2022-04-03T10:45:11Z</time>
      </trkpt>
      <trkpt lat="45.77003" lon="0.98477">
        <ele>314.6</ele>
        <time>2022-04-03T10:45:12Z</time>
      </trkpt>
      <trkpt lat="45.76999" lon="0.98468">
        <ele>314.6</ele>
        <time>2022-04-03T10:45:13Z</time>
      </trkpt>
      <trkpt lat="45.76994" lon="0.98459">
        <ele>314.6</ele>
        <time>2022-04-03T10:45:14Z</time>
      </trkpt>
      <trkpt lat="45.7699" lon="0.98451">
        <ele>314.4</ele>
        <time>2022-04-03T10:45:15Z</time>
      </trkpt>
      <trkpt lat="45.76985" lon="0.98443">
        <ele>314</ele>
        <time>2022-04-03T10:45:16Z</time>
      </trkpt>
      <trkpt lat="45.7698" lon="0.98434">
        <ele>313.6</ele>
        <time>2022-04-03T10:45:17Z</time>
      </trkpt>
      <trkpt lat="45.76975" lon="0.98426">
        <ele>313.2</ele>
        <time>2022-04-03T10:45:18Z</time>
      </trkpt>
      <trkpt lat="45.76971" lon="0.98418">
        <ele>313</ele>
        <time>2022-04-03T10:45:19Z</time>
      </trkpt>
      <trkpt lat="45.76966" lon="0.98409">
        <ele>313</ele>
        <time>2022-04-03T10:45:20Z</time>
      </trkpt>
      <trkpt lat="45.76962" lon="0.98401">
        <ele>312.6</ele>
        <time>2022-04-03T10:45:21Z</time>
      </trkpt>
      <trkpt lat="45.76957" lon="0.98392">
        <ele>312.6</ele>
        <time>2022-04-03T10:45:22Z</time>
      </trkpt>
      <trkpt lat="45.76953" lon="0.98383">
        <ele>312.6</ele>
        <time>2022-04-03T10:45:23Z</time>
      </trkpt>
      <trkpt lat="45.76948" lon="0.98375">
        <ele>312.2</ele>
        <time>2022-04-03T10:45:24Z</time>
      </trkpt>
      <trkpt lat="45.76943" lon="0.98366">
        <ele>312.2</ele>
        <time>2022-04-03T10:45:25Z</time>
      </trkpt>
      <trkpt lat="45.76938" lon="0.98357">
        <ele>312</ele>
        <time>2022-04-03T10:45:26Z</time>
      </trkpt>
      <trkpt lat="45.76933" lon="0.98348">
        <ele>312.2</ele>
        <time>2022-04-03T10:45:27Z</time>
      </trkpt>
      <trkpt lat="45.76928" lon="0.9834">
        <ele>312</ele>
        <time>2022-04-03T10:45:28Z</time>
      </trkpt>
      <trkpt lat="45.76923" lon="0.98331">
        <ele>312</ele>
        <time>2022-04-03T10:45:29Z</time>
      </trkpt>
      <trkpt lat="45.76919" lon="0.98322">
        <ele>312</ele>
        <time>2022-04-03T10:45:30Z</time>
      </trkpt>
      <trkpt lat="45.76913" lon="0.98313">
        <ele>311.8</ele>
        <time>2022-04-03T10:45:31Z</time>
      </trkpt>
      <trkpt lat="45.76908" lon="0.98304">
        <ele>311.6</ele>
        <time>2022-04-03T10:45:32Z</time>
      </trkpt>
      <trkpt lat="45.76903" lon="0.98295">
        <ele>311.4</ele>
        <time>2022-04-03T10:45:33Z</time>
      </trkpt>
      <trkpt lat="45.76898" lon="0.98286">
        <ele>311.2</ele>
        <time>2022-04-03T10:45:34Z</time>
      </trkpt>
      <trkpt lat="45.76893" lon="0.98277">
        <ele>311.2</ele>
        <time>2022-04-03T10:45:35Z</time>
      </trkpt>
      <trkpt lat="45.76888" lon="0.98268">
        <ele>311</ele>
        <time>2022-04-03T10:45:36Z</time>
      </trkpt>
      <trkpt lat="45.76884" lon="0.98259">
        <ele>310.8</ele>
        <time>2022-04-03T10:45:37Z</time>
      </trkpt>
      <trkpt lat="45.76879" lon="0.9825">
        <ele>310.6</ele>
        <time>2022-04-03T10:45:38Z</time>
      </trkpt>
      <trkpt lat="45.76874" lon="0.98241">
        <ele>310.6</ele>
        <time>2022-04-03T10:45:39Z</time>
      </trkpt>
      <trkpt lat="45.7687" lon="0.98232">
        <ele>310.6</ele>
        <time>2022-04-03T10:45:40Z</time>
      </trkpt>
      <trkpt lat="45.76865" lon="0.98222">
        <ele>310.4</ele>
        <time>2022-04-03T10:45:41Z</time>
      </trkpt>
      <trkpt lat="45.76861" lon="0.98211">
        <ele>310</ele>
        <time>2022-04-03T10:45:42Z</time>
      </trkpt>
      <trkpt lat="45.76857" lon="0.982">
        <ele>309.4</ele>
        <time>2022-04-03T10:45:43Z</time>
      </trkpt>
      <trkpt lat="45.76854" lon="0.98188">
        <ele>309</ele>
        <time>2022-04-03T10:45:44Z</time>
      </trkpt>
      <trkpt lat="45.76851" lon="0.98175">
        <ele>308.8</ele>
        <time>2022-04-03T10:45:45Z</time>
      </trkpt>
      <trkpt lat="45.76849" lon="0.98162">
        <ele>308.8</ele>
        <time>2022-04-03T10:45:46Z</time>
      </trkpt>
      <trkpt lat="45.76847" lon="0.98149">
        <ele>308.2</ele>
        <time>2022-04-03T10:45:47Z</time>
      </trkpt>
      <trkpt lat="45.76845" lon="0.98135">
        <ele>308</ele>
        <time>2022-04-03T10:45:48Z</time>
      </trkpt>
      <trkpt lat="45.76844" lon="0.98121">
        <ele>307.6</ele>
        <time>2022-04-03T10:45:49Z</time>
      </trkpt>
      <trkpt lat="45.76843" lon="0.98107">
        <ele>307.2</ele>
        <time>2022-04-03T10:45:50Z</time>
      </trkpt>
      <trkpt lat="45.76842" lon="0.98093">
        <ele>306.8</ele>
        <time>2022-04-03T10:45:51Z</time>
      </trkpt>
      <trkpt lat="45.76841" lon="0.98078">
        <ele>306</ele>
        <time>2022-04-03T10:45:52Z</time>
      </trkpt>
      <trkpt lat="45.7684" lon="0.98064">
        <ele>305.2</ele>
        <time>2022-04-03T10:45:53Z</time>
      </trkpt>
      <trkpt lat="45.76839" lon="0.98049">
        <ele>304.8</ele>
        <time>2022-04-03T10:45:54Z</time>
      </trkpt>
      <trkpt lat="45.76838" lon="0.98034">
        <ele>304.2</ele>
        <time>2022-04-03T10:45:55Z</time>
      </trkpt>
      <trkpt lat="45.76837" lon="0.98019">
        <ele>303.4</ele>
        <time>2022-04-03T10:45:56Z</time>
      </trkpt>
      <trkpt lat="45.76836" lon="0.98004">
        <ele>302.8</ele>
        <time>2022-04-03T10:45:57Z</time>
      </trkpt>
      <trkpt lat="45.76835" lon="0.97988">
        <ele>301.8</ele>
        <time>2022-04-03T10:45:58Z</time>
      </trkpt>
      <trkpt lat="45.76834" lon="0.97973">
        <ele>301.8</ele>
        <time>2022-04-03T10:45:59Z</time>
      </trkpt>
      <trkpt lat="45.76833" lon="0.97958">
        <ele>301</ele>
        <time>2022-04-03T10:46:00Z</time>
      </trkpt>
      <trkpt lat="45.76832" lon="0.97942">
        <ele>300.4</ele>
        <time>2022-04-03T10:46:01Z</time>
      </trkpt>
      <trkpt lat="45.76831" lon="0.97926">
        <ele>300.2</ele>
        <time>2022-04-03T10:46:02Z</time>
      </trkpt>
      <trkpt lat="45.7683" lon="0.97911">
        <ele>299.6</ele>
        <time>2022-04-03T10:46:03Z</time>
      </trkpt>
      <trkpt lat="45.76829" lon="0.97895">
        <ele>299</ele>
        <time>2022-04-03T10:46:04Z</time>
      </trkpt>
      <trkpt lat="45.76828" lon="0.9788">
        <ele>298.6</ele>
        <time>2022-04-03T10:46:05Z</time>
      </trkpt>
      <trkpt lat="45.76827" lon="0.97864">
        <ele>298</ele>
        <time>2022-04-03T10:46:06Z</time>
      </trkpt>
      <trkpt lat="45.76826" lon="0.97848">
        <ele>297.4</ele>
        <time>2022-04-03T10:46:07Z</time>
      </trkpt>
      <trkpt lat="45.76825" lon="0.97833">
        <ele>296.6</ele>
        <time>2022-04-03T10:46:08Z</time>
      </trkpt>
      <trkpt lat="45.76824" lon="0.97818">
        <ele>295.2</ele>
        <time>2022-04-03T10:46:09Z</time>
      </trkpt>
      <trkpt lat="45.76823" lon="0.97803">
        <ele>294</ele>
        <time>2022-04-03T10:46:10Z</time>
      </trkpt>
      <trkpt lat="45.76822" lon="0.9779">
        <ele>292.8</ele>
        <time>2022-04-03T10:46:11Z</time>
      </trkpt>
      <trkpt lat="45.76821" lon="0.97776">
        <ele>292</ele>
        <time>2022-04-03T10:46:12Z</time>
      </trkpt>
      <trkpt lat="45.7682" lon="0.97763">
        <ele>291.6</ele>
        <time>2022-04-03T10:46:13Z</time>
      </trkpt>
      <trkpt lat="45.7682" lon="0.97751">
        <ele>291.4</ele>
        <time>2022-04-03T10:46:14Z</time>
      </trkpt>
      <trkpt lat="45.76819" lon="0.97738">
        <ele>290.8</ele>
        <time>2022-04-03T10:46:15Z</time>
      </trkpt>
      <trkpt lat="45.76818" lon="0.97726">
        <ele>290.6</ele>
        <time>2022-04-03T10:46:16Z</time>
      </trkpt>
      <trkpt lat="45.76817" lon="0.97714">
        <ele>290.6</ele>
        <time>2022-04-03T10:46:17Z</time>
      </trkpt>
      <trkpt lat="45.76817" lon="0.97702">
        <ele>290.6</ele>
        <time>2022-04-03T10:46:18Z</time>
      </trkpt>
      <trkpt lat="45.76816" lon="0.97691">
        <ele>290.6</ele>
        <time>2022-04-03T10:46:19Z</time>
      </trkpt>
      <trkpt lat="45.76816" lon="0.97679">
        <ele>290.6</ele>
        <time>2022-04-03T10:46:20Z</time>
      </trkpt>
      <trkpt lat="45.76815" lon="0.97668">
        <ele>290.6</ele>
        <time>2022-04-03T10:46:21Z</time>
      </trkpt>
      <trkpt lat="45.76815" lon="0.97657">
        <ele>290.4</ele>
        <time>2022-04-03T10:46:22Z</time>
      </trkpt>
      <trkpt lat="45.76815" lon="0.97645">
        <ele>290.4</ele>
        <time>2022-04-03T10:46:23Z</time>
      </trkpt>
      <trkpt lat="45.76815" lon="0.97634">
        <ele>290.2</ele>
        <time>2022-04-03T10:46:24Z</time>
      </trkpt>
      <trkpt lat="45.76815" lon="0.97622">
        <ele>290.2</ele>
        <time>2022-04-03T10:46:25Z</time>
      </trkpt>
      <trkpt lat="45.76816" lon="0.97611">
        <ele>290</ele>
        <time>2022-04-03T10:46:26Z</time>
      </trkpt>
      <trkpt lat="45.76817" lon="0.97599">
        <ele>290.2</ele>
        <time>2022-04-03T10:46:27Z</time>
      </trkpt>
      <trkpt lat="45.76818" lon="0.97588">
        <ele>290</ele>
        <time>2022-04-03T10:46:28Z</time>
      </trkpt>
      <trkpt lat="45.76819" lon="0.97576">
        <ele>290.2</ele>
        <time>2022-04-03T10:46:29Z</time>
      </trkpt>
      <trkpt lat="45.76821" lon="0.97564">
        <ele>290</ele>
        <time>2022-04-03T10:46:30Z</time>
      </trkpt>
      <trkpt lat="45.76823" lon="0.97552">
        <ele>290</ele>
        <time>2022-04-03T10:46:31Z</time>
      </trkpt>
      <trkpt lat="45.76825" lon="0.9754">
        <ele>290</ele>
        <time>2022-04-03T10:46:32Z</time>
      </trkpt>
      <trkpt lat="45.76828" lon="0.97529">
        <ele>290</ele>
        <time>2022-04-03T10:46:33Z</time>
      </trkpt>
      <trkpt lat="45.7683" lon="0.97517">
        <ele>289.8</ele>
        <time>2022-04-03T10:46:34Z</time>
      </trkpt>
      <trkpt lat="45.76832" lon="0.97505">
        <ele>289.6</ele>
        <time>2022-04-03T10:46:35Z</time>
      </trkpt>
      <trkpt lat="45.76834" lon="0.97492">
        <ele>289.6</ele>
        <time>2022-04-03T10:46:36Z</time>
      </trkpt>
      <trkpt lat="45.76837" lon="0.9748">
        <ele>289.2</ele>
        <time>2022-04-03T10:46:37Z</time>
      </trkpt>
      <trkpt lat="45.76838" lon="0.97467">
        <ele>289</ele>
        <time>2022-04-03T10:46:38Z</time>
      </trkpt>
      <trkpt lat="45.7684" lon="0.97454">
        <ele>288.6</ele>
        <time>2022-04-03T10:46:39Z</time>
      </trkpt>
      <trkpt lat="45.76841" lon="0.97441">
        <ele>288.2</ele>
        <time>2022-04-03T10:46:40Z</time>
      </trkpt>
      <trkpt lat="45.76842" lon="0.97427">
        <ele>287.8</ele>
        <time>2022-04-03T10:46:41Z</time>
      </trkpt>
      <trkpt lat="45.76842" lon="0.97414">
        <ele>287.6</ele>
        <time>2022-04-03T10:46:42Z</time>
      </trkpt>
      <trkpt lat="45.76843" lon="0.974">
        <ele>287.4</ele>
        <time>2022-04-03T10:46:43Z</time>
      </trkpt>
      <trkpt lat="45.76842" lon="0.97386">
        <ele>286.8</ele>
        <time>2022-04-03T10:46:44Z</time>
      </trkpt>
      <trkpt lat="45.76842" lon="0.97372">
        <ele>286.4</ele>
        <time>2022-04-03T10:46:45Z</time>
      </trkpt>
      <trkpt lat="45.76842" lon="0.97358">
        <ele>286</ele>
        <time>2022-04-03T10:46:46Z</time>
      </trkpt>
      <trkpt lat="45.76842" lon="0.97343">
        <ele>285.4</ele>
        <time>2022-04-03T10:46:47Z</time>
      </trkpt>
      <trkpt lat="45.76842" lon="0.97328">
        <ele>284.4</ele>
        <time>2022-04-03T10:46:48Z</time>
      </trkpt>
      <trkpt lat="45.76842" lon="0.97314">
        <ele>283.4</ele>
        <time>2022-04-03T10:46:49Z</time>
      </trkpt>
      <trkpt lat="45.76842" lon="0.97299">
        <ele>282.6</ele>
        <time>2022-04-03T10:46:50Z</time>
      </trkpt>
      <trkpt lat="45.76842" lon="0.97284">
        <ele>282.2</ele>
        <time>2022-04-03T10:46:51Z</time>
      </trkpt>
      <trkpt lat="45.76842" lon="0.9727">
        <ele>281.4</ele>
        <time>2022-04-03T10:46:52Z</time>
      </trkpt>
      <trkpt lat="45.76842" lon="0.97255">
        <ele>281</ele>
        <time>2022-04-03T10:46:53Z</time>
      </trkpt>
      <trkpt lat="45.76842" lon="0.97241">
        <ele>280</ele>
        <time>2022-04-03T10:46:54Z</time>
      </trkpt>
      <trkpt lat="45.76842" lon="0.97227">
        <ele>280</ele>
        <time>2022-04-03T10:46:55Z</time>
      </trkpt>
      <trkpt lat="45.76842" lon="0.97213">
        <ele>279.2</ele>
        <time>2022-04-03T10:46:56Z</time>
      </trkpt>
      <trkpt lat="45.76842" lon="0.972">
        <ele>278.4</ele>
        <time>2022-04-03T10:46:57Z</time>
      </trkpt>
      <trkpt lat="45.76842" lon="0.97187">
        <ele>277.6</ele>
        <time>2022-04-03T10:46:58Z</time>
      </trkpt>
      <trkpt lat="45.76842" lon="0.97174">
        <ele>277.2</ele>
        <time>2022-04-03T10:46:59Z</time>
      </trkpt>
      <trkpt lat="45.76842" lon="0.97161">
        <ele>276.6</ele>
        <time>2022-04-03T10:47:00Z</time>
      </trkpt>
      <trkpt lat="45.76842" lon="0.97149">
        <ele>276.4</ele>
        <time>2022-04-03T10:47:01Z</time>
      </trkpt>
      <trkpt lat="45.76842" lon="0.97136">
        <ele>276.4</ele>
        <time>2022-04-03T10:47:02Z</time>
      </trkpt>
      <trkpt lat="45.76843" lon="0.97124">
        <ele>276.2</ele>
        <time>2022-04-03T10:47:03Z</time>
      </trkpt>
      <trkpt lat="45.76843" lon="0.97112">
        <ele>276.2</ele>
        <time>2022-04-03T10:47:04Z</time>
      </trkpt>
      <trkpt lat="45.76843" lon="0.971">
        <ele>276.4</ele>
        <time>2022-04-03T10:47:05Z</time>
      </trkpt>
      <trkpt lat="45.76843" lon="0.97088">
        <ele>276.2</ele>
        <time>2022-04-03T10:47:06Z</time>
      </trkpt>
      <trkpt lat="45.76843" lon="0.97075">
        <ele>276</ele>
        <time>2022-04-03T10:47:07Z</time>
      </trkpt>
      <trkpt lat="45.76843" lon="0.97063">
        <ele>276</ele>
        <time>2022-04-03T10:47:08Z</time>
      </trkpt>
      <trkpt lat="45.76843" lon="0.9705">
        <ele>276</ele>
        <time>2022-04-03T10:47:09Z</time>
      </trkpt>
      <trkpt lat="45.76843" lon="0.97037">
        <ele>275.8</ele>
        <time>2022-04-03T10:47:10Z</time>
      </trkpt>
      <trkpt lat="45.76843" lon="0.97024">
        <ele>275.8</ele>
        <time>2022-04-03T10:47:11Z</time>
      </trkpt>
      <trkpt lat="45.76843" lon="0.97011">
        <ele>275.8</ele>
        <time>2022-04-03T10:47:12Z</time>
      </trkpt>
      <trkpt lat="45.76841" lon="0.96997">
        <ele>275.8</ele>
        <time>2022-04-03T10:47:13Z</time>
      </trkpt>
      <trkpt lat="45.76839" lon="0.96984">
        <ele>275.8</ele>
        <time>2022-04-03T10:47:14Z</time>
      </trkpt>
      <trkpt lat="45.76836" lon="0.96971">
        <ele>275.6</ele>
        <time>2022-04-03T10:47:15Z</time>
      </trkpt>
      <trkpt lat="45.76833" lon="0.96957">
        <ele>275.8</ele>
        <time>2022-04-03T10:47:16Z</time>
      </trkpt>
      <trkpt lat="45.7683" lon="0.96944">
        <ele>275.8</ele>
        <time>2022-04-03T10:47:17Z</time>
      </trkpt>
      <trkpt lat="45.76826" lon="0.9693">
        <ele>275.6</ele>
        <time>2022-04-03T10:47:18Z</time>
      </trkpt>
      <trkpt lat="45.76823" lon="0.96917">
        <ele>275.2</ele>
        <time>2022-04-03T10:47:19Z</time>
      </trkpt>
      <trkpt lat="45.7682" lon="0.96903">
        <ele>274.2</ele>
        <time>2022-04-03T10:47:20Z</time>
      </trkpt>
      <trkpt lat="45.76816" lon="0.9689">
        <ele>273.8</ele>
        <time>2022-04-03T10:47:21Z</time>
      </trkpt>
      <trkpt lat="45.76813" lon="0.96876">
        <ele>273.4</ele>
        <time>2022-04-03T10:47:22Z</time>
      </trkpt>
      <trkpt lat="45.76809" lon="0.96863">
        <ele>273</ele>
        <time>2022-04-03T10:47:23Z</time>
      </trkpt>
      <trkpt lat="45.76806" lon="0.9685">
        <ele>272.2</ele>
        <time>2022-04-03T10:47:24Z</time>
      </trkpt>
      <trkpt lat="45.76803" lon="0.96837">
        <ele>271.4</ele>
        <time>2022-04-03T10:47:25Z</time>
      </trkpt>
      <trkpt lat="45.768" lon="0.96825">
        <ele>270.6</ele>
        <time>2022-04-03T10:47:26Z</time>
      </trkpt>
      <trkpt lat="45.76798" lon="0.96812">
        <ele>269.6</ele>
        <time>2022-04-03T10:47:27Z</time>
      </trkpt>
      <trkpt lat="45.76796" lon="0.968">
        <ele>268.8</ele>
        <time>2022-04-03T10:47:28Z</time>
      </trkpt>
      <trkpt lat="45.76795" lon="0.96787">
        <ele>268.4</ele>
        <time>2022-04-03T10:47:29Z</time>
      </trkpt>
      <trkpt lat="45.76795" lon="0.96775">
        <ele>267.8</ele>
        <time>2022-04-03T10:47:30Z</time>
      </trkpt>
      <trkpt lat="45.76796" lon="0.96763">
        <ele>267.6</ele>
        <time>2022-04-03T10:47:31Z</time>
      </trkpt>
      <trkpt lat="45.76797" lon="0.96752">
        <ele>267.4</ele>
        <time>2022-04-03T10:47:32Z</time>
      </trkpt>
      <trkpt lat="45.76799" lon="0.96742">
        <ele>267.4</ele>
        <time>2022-04-03T10:47:33Z</time>
      </trkpt>
      <trkpt lat="45.76801" lon="0.96732">
        <ele>267.4</ele>
        <time>2022-04-03T10:47:34Z</time>
      </trkpt>
      <trkpt lat="45.76803" lon="0.96722">
        <ele>267.4</ele>
        <time>2022-04-03T10:47:35Z</time>
      </trkpt>
      <trkpt lat="45.76805" lon="0.96713">
        <ele>267.4</ele>
        <time>2022-04-03T10:47:36Z</time>
      </trkpt>
      <trkpt lat="45.76808" lon="0.96704">
        <ele>267.4</ele>
        <time>2022-04-03T10:47:37Z</time>
      </trkpt>
      <trkpt lat="45.7681" lon="0.96695">
        <ele>267.4</ele>
        <time>2022-04-03T10:47:38Z</time>
      </trkpt>
      <trkpt lat="45.76812" lon="0.96687">
        <ele>267.4</ele>
        <time>2022-04-03T10:47:39Z</time>
      </trkpt>
      <trkpt lat="45.76814" lon="0.96679">
        <ele>267.4</ele>
        <time>2022-04-03T10:47:40Z</time>
      </trkpt>
      <trkpt lat="45.76816" lon="0.96671">
        <ele>267.6</ele>
        <time>2022-04-03T10:47:41Z</time>
      </trkpt>
      <trkpt lat="45.76818" lon="0.96663">
        <ele>268</ele>
        <time>2022-04-03T10:47:42Z</time>
      </trkpt>
      <trkpt lat="45.76819" lon="0.96656">
        <ele>268.4</ele>
        <time>2022-04-03T10:47:43Z</time>
      </trkpt>
      <trkpt lat="45.76821" lon="0.96649">
        <ele>268.8</ele>
        <time>2022-04-03T10:47:44Z</time>
      </trkpt>
      <trkpt lat="45.76823" lon="0.96642">
        <ele>269</ele>
        <time>2022-04-03T10:47:45Z</time>
      </trkpt>
      <trkpt lat="45.76825" lon="0.96636">
        <ele>269.2</ele>
        <time>2022-04-03T10:47:46Z</time>
      </trkpt>
      <trkpt lat="45.76826" lon="0.9663">
        <ele>269.4</ele>
        <time>2022-04-03T10:47:47Z</time>
      </trkpt>
      <trkpt lat="45.76828" lon="0.96624">
        <ele>269.8</ele>
        <time>2022-04-03T10:47:48Z</time>
      </trkpt>
      <trkpt lat="45.7683" lon="0.96618">
        <ele>270</ele>
        <time>2022-04-03T10:47:49Z</time>
      </trkpt>
      <trkpt lat="45.76831" lon="0.96612">
        <ele>270.4</ele>
        <time>2022-04-03T10:47:50Z</time>
      </trkpt>
      <trkpt lat="45.76833" lon="0.96607">
        <ele>270.6</ele>
        <time>2022-04-03T10:47:51Z</time>
      </trkpt>
      <trkpt lat="45.76834" lon="0.96601">
        <ele>270.6</ele>
        <time>2022-04-03T10:47:52Z</time>
      </trkpt>
      <trkpt lat="45.76836" lon="0.96596">
        <ele>270.8</ele>
        <time>2022-04-03T10:47:53Z</time>
      </trkpt>
      <trkpt lat="45.76838" lon="0.9659">
        <ele>271</ele>
        <time>2022-04-03T10:47:54Z</time>
      </trkpt>
      <trkpt lat="45.76839" lon="0.96585">
        <ele>271</ele>
        <time>2022-04-03T10:47:55Z</time>
      </trkpt>
      <trkpt lat="45.7684" lon="0.96579">
        <ele>271.2</ele>
        <time>2022-04-03T10:47:56Z</time>
      </trkpt>
      <trkpt lat="45.76842" lon="0.96574">
        <ele>271.2</ele>
        <time>2022-04-03T10:47:57Z</time>
      </trkpt>
      <trkpt lat="45.76843" lon="0.96569">
        <ele>271.6</ele>
        <time>2022-04-03T10:47:58Z</time>
      </trkpt>
      <trkpt lat="45.76845" lon="0.96563">
        <ele>271.8</ele>
        <time>2022-04-03T10:47:59Z</time>
      </trkpt>
      <trkpt lat="45.76847" lon="0.96559">
        <ele>272</ele>
        <time>2022-04-03T10:48:00Z</time>
      </trkpt>
      <trkpt lat="45.76848" lon="0.96554">
        <ele>272.4</ele>
        <time>2022-04-03T10:48:01Z</time>
      </trkpt>
      <trkpt lat="45.7685" lon="0.96549">
        <ele>273</ele>
        <time>2022-04-03T10:48:02Z</time>
      </trkpt>
      <trkpt lat="45.76851" lon="0.96543">
        <ele>273.2</ele>
        <time>2022-04-03T10:48:03Z</time>
      </trkpt>
      <trkpt lat="45.76853" lon="0.96538">
        <ele>273.6</ele>
        <time>2022-04-03T10:48:04Z</time>
      </trkpt>
      <trkpt lat="45.76854" lon="0.96533">
        <ele>273.8</ele>
        <time>2022-04-03T10:48:05Z</time>
      </trkpt>
      <trkpt lat="45.76855" lon="0.96528">
        <ele>274</ele>
        <time>2022-04-03T10:48:06Z</time>
      </trkpt>
      <trkpt lat="45.76857" lon="0.96523">
        <ele>274.2</ele>
        <time>2022-04-03T10:48:07Z</time>
      </trkpt>
      <trkpt lat="45.76859" lon="0.96518">
        <ele>274.6</ele>
        <time>2022-04-03T10:48:08Z</time>
      </trkpt>
      <trkpt lat="45.7686" lon="0.96512">
        <ele>274.8</ele>
        <time>2022-04-03T10:48:09Z</time>
      </trkpt>
      <trkpt lat="45.76861" lon="0.96507">
        <ele>274.8</ele>
        <time>2022-04-03T10:48:10Z</time>
      </trkpt>
      <trkpt lat="45.76863" lon="0.96501">
        <ele>274.8</ele>
        <time>2022-04-03T10:48:11Z</time>
      </trkpt>
      <trkpt lat="45.76864" lon="0.96496">
        <ele>274.8</ele>
        <time>2022-04-03T10:48:12Z</time>
      </trkpt>
      <trkpt lat="45.76866" lon="0.9649">
        <ele>274.8</ele>
        <time>2022-04-03T10:48:13Z</time>
      </trkpt>
      <trkpt lat="45.76867" lon="0.96484">
        <ele>275</ele>
        <time>2022-04-03T10:48:14Z</time>
      </trkpt>
      <trkpt lat="45.76868" lon="0.96477">
        <ele>275</ele>
        <time>2022-04-03T10:48:15Z</time>
      </trkpt>
      <trkpt lat="45.76869" lon="0.96471">
        <ele>275.2</ele>
        <time>2022-04-03T10:48:16Z</time>
      </trkpt>
      <trkpt lat="45.7687" lon="0.96464">
        <ele>275.2</ele>
        <time>2022-04-03T10:48:17Z</time>
      </trkpt>
      <trkpt lat="45.76871" lon="0.96458">
        <ele>275.4</ele>
        <time>2022-04-03T10:48:18Z</time>
      </trkpt>
      <trkpt lat="45.76871" lon="0.96451">
        <ele>275.4</ele>
        <time>2022-04-03T10:48:19Z</time>
      </trkpt>
      <trkpt lat="45.76872" lon="0.96444">
        <ele>275.4</ele>
        <time>2022-04-03T10:48:20Z</time>
      </trkpt>
      <trkpt lat="45.76872" lon="0.96438">
        <ele>275.4</ele>
        <time>2022-04-03T10:48:21Z</time>
      </trkpt>
      <trkpt lat="45.76872" lon="0.96431">
        <ele>275.4</ele>
        <time>2022-04-03T10:48:22Z</time>
      </trkpt>
      <trkpt lat="45.76872" lon="0.96424">
        <ele>275.6</ele>
        <time>2022-04-03T10:48:23Z</time>
      </trkpt>
      <trkpt lat="45.76871" lon="0.96417">
        <ele>275.6</ele>
        <time>2022-04-03T10:48:24Z</time>
      </trkpt>
      <trkpt lat="45.7687" lon="0.96411">
        <ele>275.6</ele>
        <time>2022-04-03T10:48:25Z</time>
      </trkpt>
      <trkpt lat="45.76869" lon="0.96404">
        <ele>275.8</ele>
        <time>2022-04-03T10:48:26Z</time>
      </trkpt>
      <trkpt lat="45.76868" lon="0.96398">
        <ele>275.8</ele>
        <time>2022-04-03T10:48:27Z</time>
      </trkpt>
      <trkpt lat="45.76867" lon="0.96391">
        <ele>275.8</ele>
        <time>2022-04-03T10:48:28Z</time>
      </trkpt>
      <trkpt lat="45.76866" lon="0.96385">
        <ele>275.8</ele>
        <time>2022-04-03T10:48:29Z</time>
      </trkpt>
      <trkpt lat="45.76865" lon="0.96378">
        <ele>276</ele>
        <time>2022-04-03T10:48:30Z</time>
      </trkpt>
      <trkpt lat="45.76863" lon="0.96372">
        <ele>276</ele>
        <time>2022-04-03T10:48:31Z</time>
      </trkpt>
      <trkpt lat="45.76861" lon="0.96366">
        <ele>275.8</ele>
        <time>2022-04-03T10:48:32Z</time>
      </trkpt>
      <trkpt lat="45.7686" lon="0.96359">
        <ele>276</ele>
        <time>2022-04-03T10:48:33Z</time>
      </trkpt>
      <trkpt lat="45.76858" lon="0.96353">
        <ele>275.8</ele>
        <time>2022-04-03T10:48:34Z</time>
      </trkpt>
      <trkpt lat="45.76856" lon="0.96347">
        <ele>275.8</ele>
        <time>2022-04-03T10:48:35Z</time>
      </trkpt>
      <trkpt lat="45.76854" lon="0.96341">
        <ele>275.8</ele>
        <time>2022-04-03T10:48:36Z</time>
      </trkpt>
      <trkpt lat="45.76852" lon="0.96335">
        <ele>275.8</ele>
        <time>2022-04-03T10:48:37Z</time>
      </trkpt>
      <trkpt lat="45.7685" lon="0.96329">
        <ele>275.8</ele>
        <time>2022-04-03T10:48:38Z</time>
      </trkpt>
      <trkpt lat="45.76847" lon="0.96323">
        <ele>275.8</ele>
        <time>2022-04-03T10:48:39Z</time>
      </trkpt>
      <trkpt lat="45.76845" lon="0.96317">
        <ele>275.8</ele>
        <time>2022-04-03T10:48:40Z</time>
      </trkpt>
      <trkpt lat="45.76844" lon="0.96311">
        <ele>275.8</ele>
        <time>2022-04-03T10:48:41Z</time>
      </trkpt>
      <trkpt lat="45.76843" lon="0.96304">
        <ele>275.8</ele>
        <time>2022-04-03T10:48:42Z</time>
      </trkpt>
      <trkpt lat="45.76843" lon="0.96297">
        <ele>275.8</ele>
        <time>2022-04-03T10:48:43Z</time>
      </trkpt>
      <trkpt lat="45.76845" lon="0.96291">
        <ele>275.8</ele>
        <time>2022-04-03T10:48:44Z</time>
      </trkpt>
      <trkpt lat="45.76847" lon="0.96284">
        <ele>275.6</ele>
        <time>2022-04-03T10:48:45Z</time>
      </trkpt>
      <trkpt lat="45.7685" lon="0.96278">
        <ele>275.8</ele>
        <time>2022-04-03T10:48:46Z</time>
      </trkpt>
      <trkpt lat="45.76853" lon="0.96272">
        <ele>275.6</ele>
        <time>2022-04-03T10:48:47Z</time>
      </trkpt>
      <trkpt lat="45.76855" lon="0.96266">
        <ele>275.6</ele>
        <time>2022-04-03T10:48:48Z</time>
      </trkpt>
      <trkpt lat="45.76858" lon="0.96261">
        <ele>275.4</ele>
        <time>2022-04-03T10:48:49Z</time>
      </trkpt>
      <trkpt lat="45.76861" lon="0.96255">
        <ele>275.4</ele>
        <time>2022-04-03T10:48:50Z</time>
      </trkpt>
      <trkpt lat="45.76864" lon="0.9625">
        <ele>275.4</ele>
        <time>2022-04-03T10:48:51Z</time>
      </trkpt>
      <trkpt lat="45.76867" lon="0.96246">
        <ele>275.2</ele>
        <time>2022-04-03T10:48:52Z</time>
      </trkpt>
      <trkpt lat="45.76869" lon="0.96241">
        <ele>275</ele>
        <time>2022-04-03T10:48:53Z</time>
      </trkpt>
      <trkpt lat="45.76872" lon="0.96237">
        <ele>275</ele>
        <time>2022-04-03T10:48:54Z</time>
      </trkpt>
      <trkpt lat="45.76875" lon="0.96232">
        <ele>275</ele>
        <time>2022-04-03T10:48:55Z</time>
      </trkpt>
      <trkpt lat="45.76878" lon="0.96228">
        <ele>275</ele>
        <time>2022-04-03T10:48:56Z</time>
      </trkpt>
      <trkpt lat="45.76881" lon="0.96224">
        <ele>275</ele>
        <time>2022-04-03T10:48:57Z</time>
      </trkpt>
      <trkpt lat="45.76884" lon="0.9622">
        <ele>274.8</ele>
        <time>2022-04-03T10:48:58Z</time>
      </trkpt>
      <trkpt lat="45.76887" lon="0.96216">
        <ele>275</ele>
        <time>2022-04-03T10:48:59Z</time>
      </trkpt>
      <trkpt lat="45.76891" lon="0.96212">
        <ele>275</ele>
        <time>2022-04-03T10:49:00Z</time>
      </trkpt>
      <trkpt lat="45.76894" lon="0.96208">
        <ele>275</ele>
        <time>2022-04-03T10:49:01Z</time>
      </trkpt>
      <trkpt lat="45.76897" lon="0.96204">
        <ele>275</ele>
        <time>2022-04-03T10:49:02Z</time>
      </trkpt>
      <trkpt lat="45.76899" lon="0.96199">
        <ele>275</ele>
        <time>2022-04-03T10:49:03Z</time>
      </trkpt>
      <trkpt lat="45.76902" lon="0.96194">
        <ele>275</ele>
        <time>2022-04-03T10:49:04Z</time>
      </trkpt>
      <trkpt lat="45.76905" lon="0.96189">
        <ele>275</ele>
        <time>2022-04-03T10:49:05Z</time>
      </trkpt>
      <trkpt lat="45.76907" lon="0.96184">
        <ele>275</ele>
        <time>2022-04-03T10:49:06Z</time>
      </trkpt>
      <trkpt lat="45.7691" lon="0.96178">
        <ele>275</ele>
        <time>2022-04-03T10:49:07Z</time>
      </trkpt>
      <trkpt lat="45.76913" lon="0.96172">
        <ele>275</ele>
        <time>2022-04-03T10:49:08Z</time>
      </trkpt>
      <trkpt lat="45.76915" lon="0.96165">
        <ele>275</ele>
        <time>2022-04-03T10:49:09Z</time>
      </trkpt>
      <trkpt lat="45.76918" lon="0.96157">
        <ele>275</ele>
        <time>2022-04-03T10:49:10Z</time>
      </trkpt>
      <trkpt lat="45.7692" lon="0.96149">
        <ele>275</ele>
        <time>2022-04-03T10:49:11Z</time>
      </trkpt>
      <trkpt lat="45.76922" lon="0.96141">
        <ele>275</ele>
        <time>2022-04-03T10:49:12Z</time>
      </trkpt>
      <trkpt lat="45.76924" lon="0.96133">
        <ele>275</ele>
        <time>2022-04-03T10:49:13Z</time>
      </trkpt>
      <trkpt lat="45.76925" lon="0.96124">
        <ele>275</ele>
        <time>2022-04-03T10:49:14Z</time>
      </trkpt>
      <trkpt lat="45.76927" lon="0.96115">
        <ele>274.8</ele>
        <time>2022-04-03T10:49:15Z</time>
      </trkpt>
      <trkpt lat="45.76928" lon="0.96105">
        <ele>274.8</ele>
        <time>2022-04-03T10:49:16Z</time>
      </trkpt>
      <trkpt lat="45.76928" lon="0.96096">
        <ele>274.4</ele>
        <time>2022-04-03T10:49:17Z</time>
      </trkpt>
      <trkpt lat="45.76929" lon="0.96086">
        <ele>274.4</ele>
        <time>2022-04-03T10:49:18Z</time>
      </trkpt>
      <trkpt lat="45.7693" lon="0.96076">
        <ele>274.2</ele>
        <time>2022-04-03T10:49:19Z</time>
      </trkpt>
      <trkpt lat="45.76931" lon="0.96066">
        <ele>273.8</ele>
        <time>2022-04-03T10:49:20Z</time>
      </trkpt>
      <trkpt lat="45.76932" lon="0.96055">
        <ele>273.6</ele>
        <time>2022-04-03T10:49:21Z</time>
      </trkpt>
      <trkpt lat="45.76933" lon="0.96045">
        <ele>273.2</ele>
        <time>2022-04-03T10:49:22Z</time>
      </trkpt>
      <trkpt lat="45.76934" lon="0.96034">
        <ele>273</ele>
        <time>2022-04-03T10:49:23Z</time>
      </trkpt>
      <trkpt lat="45.76935" lon="0.96023">
        <ele>272.6</ele>
        <time>2022-04-03T10:49:24Z</time>
      </trkpt>
      <trkpt lat="45.76936" lon="0.96012">
        <ele>272</ele>
        <time>2022-04-03T10:49:25Z</time>
      </trkpt>
      <trkpt lat="45.76937" lon="0.96002">
        <ele>271.8</ele>
        <time>2022-04-03T10:49:26Z</time>
      </trkpt>
      <trkpt lat="45.76938" lon="0.95991">
        <ele>271.4</ele>
        <time>2022-04-03T10:49:27Z</time>
      </trkpt>
      <trkpt lat="45.7694" lon="0.95981">
        <ele>271.4</ele>
        <time>2022-04-03T10:49:28Z</time>
      </trkpt>
      <trkpt lat="45.76941" lon="0.9597">
        <ele>270.8</ele>
        <time>2022-04-03T10:49:29Z</time>
      </trkpt>
      <trkpt lat="45.76943" lon="0.95959">
        <ele>270.2</ele>
        <time>2022-04-03T10:49:30Z</time>
      </trkpt>
      <trkpt lat="45.76945" lon="0.95948">
        <ele>270</ele>
        <time>2022-04-03T10:49:31Z</time>
      </trkpt>
      <trkpt lat="45.76947" lon="0.95938">
        <ele>270</ele>
        <time>2022-04-03T10:49:32Z</time>
      </trkpt>
      <trkpt lat="45.76948" lon="0.95928">
        <ele>269.8</ele>
        <time>2022-04-03T10:49:33Z</time>
      </trkpt>
      <trkpt lat="45.7695" lon="0.95918">
        <ele>269.4</ele>
        <time>2022-04-03T10:49:34Z</time>
      </trkpt>
      <trkpt lat="45.76951" lon="0.95907">
        <ele>269</ele>
        <time>2022-04-03T10:49:35Z</time>
      </trkpt>
      <trkpt lat="45.76952" lon="0.95897">
        <ele>268.2</ele>
        <time>2022-04-03T10:49:36Z</time>
      </trkpt>
      <trkpt lat="45.76953" lon="0.95887">
        <ele>267</ele>
        <time>2022-04-03T10:49:37Z</time>
      </trkpt>
      <trkpt lat="45.76954" lon="0.95877">
        <ele>266.2</ele>
        <time>2022-04-03T10:49:38Z</time>
      </trkpt>
      <trkpt lat="45.76954" lon="0.95867">
        <ele>265</ele>
        <time>2022-04-03T10:49:39Z</time>
      </trkpt>
      <trkpt lat="45.76955" lon="0.95856">
        <ele>264</ele>
        <time>2022-04-03T10:49:40Z</time>
      </trkpt>
      <trkpt lat="45.76955" lon="0.95846">
        <ele>263.6</ele>
        <time>2022-04-03T10:49:41Z</time>
      </trkpt>
      <trkpt lat="45.76955" lon="0.95837">
        <ele>263</ele>
        <time>2022-04-03T10:49:42Z</time>
      </trkpt>
      <trkpt lat="45.76955" lon="0.9583">
        <ele>262.6</ele>
        <time>2022-04-03T10:49:43Z</time>
      </trkpt>
      <trkpt lat="45.76955" lon="0.95824">
        <ele>261.6</ele>
        <time>2022-04-03T10:49:44Z</time>
      </trkpt>
      <trkpt lat="45.76956" lon="0.9582">
        <ele>260.8</ele>
        <time>2022-04-03T10:49:45Z</time>
      </trkpt>
      <trkpt lat="45.76956" lon="0.95816">
        <ele>259.6</ele>
        <time>2022-04-03T10:49:46Z</time>
      </trkpt>
      <trkpt lat="45.76957" lon="0.95813">
        <ele>259.6</ele>
        <time>2022-04-03T10:49:47Z</time>
      </trkpt>
      <trkpt lat="45.76957" lon="0.95809">
        <ele>258.6</ele>
        <time>2022-04-03T10:49:48Z</time>
      </trkpt>
      <trkpt lat="45.76958" lon="0.95805">
        <ele>258.2</ele>
        <time>2022-04-03T10:49:49Z</time>
      </trkpt>
      <trkpt lat="45.76959" lon="0.958">
        <ele>257.6</ele>
        <time>2022-04-03T10:49:50Z</time>
      </trkpt>
      <trkpt lat="45.76961" lon="0.95794">
        <ele>257</ele>
        <time>2022-04-03T10:49:51Z</time>
      </trkpt>
      <trkpt lat="45.76962" lon="0.95788">
        <ele>256.8</ele>
        <time>2022-04-03T10:49:52Z</time>
      </trkpt>
      <trkpt lat="45.76964" lon="0.95782">
        <ele>256.6</ele>
        <time>2022-04-03T10:49:53Z</time>
      </trkpt>
      <trkpt lat="45.76967" lon="0.95776">
        <ele>256.6</ele>
        <time>2022-04-03T10:49:54Z</time>
      </trkpt>
      <trkpt lat="45.76969" lon="0.95771">
        <ele>256.2</ele>
        <time>2022-04-03T10:49:55Z</time>
      </trkpt>
      <trkpt lat="45.76971" lon="0.95765">
        <ele>256.2</ele>
        <time>2022-04-03T10:49:56Z</time>
      </trkpt>
      <trkpt lat="45.76974" lon="0.9576">
        <ele>256.2</ele>
        <time>2022-04-03T10:49:57Z</time>
      </trkpt>
      <trkpt lat="45.76975" lon="0.95756">
        <ele>255.8</ele>
        <time>2022-04-03T10:49:58Z</time>
      </trkpt>
      <trkpt lat="45.76977" lon="0.95752">
        <ele>255.6</ele>
        <time>2022-04-03T10:49:59Z</time>
      </trkpt>
      <trkpt lat="45.76979" lon="0.95747">
        <ele>254.8</ele>
        <time>2022-04-03T10:50:00Z</time>
      </trkpt>
      <trkpt lat="45.7698" lon="0.95743">
        <ele>254.4</ele>
        <time>2022-04-03T10:50:01Z</time>
      </trkpt>
      <trkpt lat="45.76981" lon="0.95738">
        <ele>254.2</ele>
        <time>2022-04-03T10:50:02Z</time>
      </trkpt>
      <trkpt lat="45.76982" lon="0.95732">
        <ele>253.8</ele>
        <time>2022-04-03T10:50:03Z</time>
      </trkpt>
      <trkpt lat="45.76982" lon="0.95726">
        <ele>253.8</ele>
        <time>2022-04-03T10:50:04Z</time>
      </trkpt>
      <trkpt lat="45.76983" lon="0.95719">
        <ele>253.6</ele>
        <time>2022-04-03T10:50:05Z</time>
      </trkpt>
      <trkpt lat="45.76984" lon="0.95711">
        <ele>253.6</ele>
        <time>2022-04-03T10:50:06Z</time>
      </trkpt>
      <trkpt lat="45.76985" lon="0.95703">
        <ele>253.6</ele>
        <time>2022-04-03T10:50:07Z</time>
      </trkpt>
      <trkpt lat="45.76987" lon="0.95694">
        <ele>253.6</ele>
        <time>2022-04-03T10:50:08Z</time>
      </trkpt>
      <trkpt lat="45.76988" lon="0.95684">
        <ele>253.4</ele>
        <time>2022-04-03T10:50:09Z</time>
      </trkpt>
      <trkpt lat="45.7699" lon="0.95674">
        <ele>253</ele>
        <time>2022-04-03T10:50:10Z</time>
      </trkpt>
      <trkpt lat="45.76992" lon="0.95663">
        <ele>252.8</ele>
        <time>2022-04-03T10:50:11Z</time>
      </trkpt>
      <trkpt lat="45.76994" lon="0.95651">
        <ele>252.2</ele>
        <time>2022-04-03T10:50:12Z</time>
      </trkpt>
      <trkpt lat="45.76997" lon="0.9564">
        <ele>252.4</ele>
        <time>2022-04-03T10:50:13Z</time>
      </trkpt>
      <trkpt lat="45.77" lon="0.95627">
        <ele>251.8</ele>
        <time>2022-04-03T10:50:14Z</time>
      </trkpt>
      <trkpt lat="45.77004" lon="0.95615">
        <ele>251.4</ele>
        <time>2022-04-03T10:50:15Z</time>
      </trkpt>
      <trkpt lat="45.77007" lon="0.95604">
        <ele>251</ele>
        <time>2022-04-03T10:50:16Z</time>
      </trkpt>
      <trkpt lat="45.77011" lon="0.95593">
        <ele>250.4</ele>
        <time>2022-04-03T10:50:17Z</time>
      </trkpt>
      <trkpt lat="45.77015" lon="0.95585">
        <ele>249.4</ele>
        <time>2022-04-03T10:50:18Z</time>
      </trkpt>
      <trkpt lat="45.7702" lon="0.95577">
        <ele>248</ele>
        <time>2022-04-03T10:50:19Z</time>
      </trkpt>
      <trkpt lat="45.77024" lon="0.9557">
        <ele>246.8</ele>
        <time>2022-04-03T10:50:20Z</time>
      </trkpt>
      <trkpt lat="45.77028" lon="0.95563">
        <ele>246.4</ele>
        <time>2022-04-03T10:50:21Z</time>
      </trkpt>
      <trkpt lat="45.77033" lon="0.95557">
        <ele>246</ele>
        <time>2022-04-03T10:50:22Z</time>
      </trkpt>
      <trkpt lat="45.77038" lon="0.95551">
        <ele>245.8</ele>
        <time>2022-04-03T10:50:23Z</time>
      </trkpt>
      <trkpt lat="45.77042" lon="0.95546">
        <ele>245.8</ele>
        <time>2022-04-03T10:50:24Z</time>
      </trkpt>
      <trkpt lat="45.77046" lon="0.9554">
        <ele>245.8</ele>
        <time>2022-04-03T10:50:25Z</time>
      </trkpt>
      <trkpt lat="45.7705" lon="0.95535">
        <ele>245.8</ele>
        <time>2022-04-03T10:50:26Z</time>
      </trkpt>
      <trkpt lat="45.77053" lon="0.95531">
        <ele>245.8</ele>
        <time>2022-04-03T10:50:27Z</time>
      </trkpt>
      <trkpt lat="45.77056" lon="0.95527">
        <ele>245.8</ele>
        <time>2022-04-03T10:50:28Z</time>
      </trkpt>
      <trkpt lat="45.77059" lon="0.95523">
        <ele>245.6</ele>
        <time>2022-04-03T10:50:29Z</time>
      </trkpt>
      <trkpt lat="45.77062" lon="0.9552">
        <ele>245.8</ele>
        <time>2022-04-03T10:50:30Z</time>
      </trkpt>
      <trkpt lat="45.77064" lon="0.95516">
        <ele>246</ele>
        <time>2022-04-03T10:50:31Z</time>
      </trkpt>
      <trkpt lat="45.77067" lon="0.95513">
        <ele>246.2</ele>
        <time>2022-04-03T10:50:32Z</time>
      </trkpt>
      <trkpt lat="45.77069" lon="0.9551">
        <ele>246.4</ele>
        <time>2022-04-03T10:50:33Z</time>
      </trkpt>
      <trkpt lat="45.77072" lon="0.95507">
        <ele>246.6</ele>
        <time>2022-04-03T10:50:34Z</time>
      </trkpt>
      <trkpt lat="45.77074" lon="0.95504">
        <ele>246.8</ele>
        <time>2022-04-03T10:50:35Z</time>
      </trkpt>
      <trkpt lat="45.77076" lon="0.95502">
        <ele>247.2</ele>
        <time>2022-04-03T10:50:36Z</time>
      </trkpt>
      <trkpt lat="45.77079" lon="0.95499">
        <ele>247.4</ele>
        <time>2022-04-03T10:50:37Z</time>
      </trkpt>
      <trkpt lat="45.77081" lon="0.95497">
        <ele>248</ele>
        <time>2022-04-03T10:50:38Z</time>
      </trkpt>
      <trkpt lat="45.77083" lon="0.95494">
        <ele>248.2</ele>
        <time>2022-04-03T10:50:39Z</time>
      </trkpt>
      <trkpt lat="45.77085" lon="0.95491">
        <ele>248.4</ele>
        <time>2022-04-03T10:50:40Z</time>
      </trkpt>
      <trkpt lat="45.77087" lon="0.95489">
        <ele>248.6</ele>
        <time>2022-04-03T10:50:41Z</time>
      </trkpt>
      <trkpt lat="45.77088" lon="0.95486">
        <ele>248.8</ele>
        <time>2022-04-03T10:50:42Z</time>
      </trkpt>
      <trkpt lat="45.7709" lon="0.95484">
        <ele>248.8</ele>
        <time>2022-04-03T10:50:43Z</time>
      </trkpt>
      <trkpt lat="45.77091" lon="0.95481">
        <ele>248.8</ele>
        <time>2022-04-03T10:50:44Z</time>
      </trkpt>
      <trkpt lat="45.77093" lon="0.95478">
        <ele>249.2</ele>
        <time>2022-04-03T10:50:45Z</time>
      </trkpt>
      <trkpt lat="45.77095" lon="0.95476">
        <ele>249.4</ele>
        <time>2022-04-03T10:50:46Z</time>
      </trkpt>
      <trkpt lat="45.77096" lon="0.95473">
        <ele>249.6</ele>
        <time>2022-04-03T10:50:47Z</time>
      </trkpt>
      <trkpt lat="45.77098" lon="0.95471">
        <ele>249.8</ele>
        <time>2022-04-03T10:50:48Z</time>
      </trkpt>
      <trkpt lat="45.771" lon="0.95469">
        <ele>250</ele>
        <time>2022-04-03T10:50:49Z</time>
      </trkpt>
      <trkpt lat="45.77101" lon="0.95467">
        <ele>250</ele>
        <time>2022-04-03T10:50:50Z</time>
      </trkpt>
      <trkpt lat="45.77103" lon="0.95465">
        <ele>250.4</ele>
        <time>2022-04-03T10:50:51Z</time>
      </trkpt>
      <trkpt lat="45.77105" lon="0.95463">
        <ele>250.6</ele>
        <time>2022-04-03T10:50:52Z</time>
      </trkpt>
      <trkpt lat="45.77107" lon="0.95461">
        <ele>250.8</ele>
        <time>2022-04-03T10:50:53Z</time>
      </trkpt>
      <trkpt lat="45.77109" lon="0.95459">
        <ele>251.2</ele>
        <time>2022-04-03T10:50:54Z</time>
      </trkpt>
      <trkpt lat="45.7711" lon="0.95456">
        <ele>251</ele>
        <time>2022-04-03T10:50:55Z</time>
      </trkpt>
      <trkpt lat="45.77112" lon="0.95454">
        <ele>251.4</ele>
        <time>2022-04-03T10:50:56Z</time>
      </trkpt>
      <trkpt lat="45.77114" lon="0.95452">
        <ele>251.6</ele>
        <time>2022-04-03T10:50:57Z</time>
      </trkpt>
      <trkpt lat="45.77116" lon="0.95451">
        <ele>251.8</ele>
        <time>2022-04-03T10:50:58Z</time>
      </trkpt>
      <trkpt lat="45.77118" lon="0.95449">
        <ele>252</ele>
        <time>2022-04-03T10:50:59Z</time>
      </trkpt>
      <trkpt lat="45.77119" lon="0.95447">
        <ele>252</ele>
        <time>2022-04-03T10:51:00Z</time>
      </trkpt>
      <trkpt lat="45.77121" lon="0.95445">
        <ele>252.2</ele>
        <time>2022-04-03T10:51:01Z</time>
      </trkpt>
      <trkpt lat="45.77123" lon="0.95443">
        <ele>252.2</ele>
        <time>2022-04-03T10:51:02Z</time>
      </trkpt>
      <trkpt lat="45.77125" lon="0.95441">
        <ele>252.2</ele>
        <time>2022-04-03T10:51:03Z</time>
      </trkpt>
      <trkpt lat="45.77126" lon="0.95439">
        <ele>252.2</ele>
        <time>2022-04-03T10:51:04Z</time>
      </trkpt>
      <trkpt lat="45.77128" lon="0.95437">
        <ele>252.4</ele>
        <time>2022-04-03T10:51:05Z</time>
      </trkpt>
      <trkpt lat="45.7713" lon="0.95435">
        <ele>252.6</ele>
        <time>2022-04-03T10:51:06Z</time>
      </trkpt>
      <trkpt lat="45.77132" lon="0.95433">
        <ele>252.8</ele>
        <time>2022-04-03T10:51:07Z</time>
      </trkpt>
      <trkpt lat="45.77134" lon="0.95432">
        <ele>252.8</ele>
        <time>2022-04-03T10:51:08Z</time>
      </trkpt>
      <trkpt lat="45.77135" lon="0.9543">
        <ele>253</ele>
        <time>2022-04-03T10:51:09Z</time>
      </trkpt>
      <trkpt lat="45.77137" lon="0.95429">
        <ele>253.4</ele>
        <time>2022-04-03T10:51:10Z</time>
      </trkpt>
      <trkpt lat="45.77139" lon="0.95427">
        <ele>253.6</ele>
        <time>2022-04-03T10:51:11Z</time>
      </trkpt>
      <trkpt lat="45.77141" lon="0.95425">
        <ele>253.8</ele>
        <time>2022-04-03T10:51:12Z</time>
      </trkpt>
      <trkpt lat="45.77143" lon="0.95423">
        <ele>253.8</ele>
        <time>2022-04-03T10:51:13Z</time>
      </trkpt>
      <trkpt lat="45.77144" lon="0.95421">
        <ele>253.8</ele>
        <time>2022-04-03T10:51:14Z</time>
      </trkpt>
      <trkpt lat="45.77146" lon="0.95419">
        <ele>254</ele>
        <time>2022-04-03T10:51:15Z</time>
      </trkpt>
      <trkpt lat="45.77148" lon="0.95417">
        <ele>254</ele>
        <time>2022-04-03T10:51:16Z</time>
      </trkpt>
      <trkpt lat="45.7715" lon="0.95416">
        <ele>254.2</ele>
        <time>2022-04-03T10:51:17Z</time>
      </trkpt>
      <trkpt lat="45.77151" lon="0.95414">
        <ele>254.4</ele>
        <time>2022-04-03T10:51:18Z</time>
      </trkpt>
      <trkpt lat="45.77153" lon="0.95412">
        <ele>254.4</ele>
        <time>2022-04-03T10:51:19Z</time>
      </trkpt>
      <trkpt lat="45.77155" lon="0.9541">
        <ele>254.4</ele>
        <time>2022-04-03T10:51:20Z</time>
      </trkpt>
      <trkpt lat="45.77157" lon="0.95408">
        <ele>254.6</ele>
        <time>2022-04-03T10:51:21Z</time>
      </trkpt>
      <trkpt lat="45.77159" lon="0.95406">
        <ele>255</ele>
        <time>2022-04-03T10:51:22Z</time>
      </trkpt>
      <trkpt lat="45.7716" lon="0.95404">
        <ele>255</ele>
        <time>2022-04-03T10:51:23Z</time>
      </trkpt>
      <trkpt lat="45.77162" lon="0.95402">
        <ele>255.4</ele>
        <time>2022-04-03T10:51:24Z</time>
      </trkpt>
      <trkpt lat="45.77164" lon="0.954">
        <ele>255.4</ele>
        <time>2022-04-03T10:51:25Z</time>
      </trkpt>
      <trkpt lat="45.77166" lon="0.95398">
        <ele>255.6</ele>
        <time>2022-04-03T10:51:26Z</time>
      </trkpt>
      <trkpt lat="45.77167" lon="0.95396">
        <ele>255.8</ele>
        <time>2022-04-03T10:51:27Z</time>
      </trkpt>
      <trkpt lat="45.77169" lon="0.95394">
        <ele>255.6</ele>
        <time>2022-04-03T10:51:28Z</time>
      </trkpt>
      <trkpt lat="45.77171" lon="0.95392">
        <ele>255.8</ele>
        <time>2022-04-03T10:51:29Z</time>
      </trkpt>
      <trkpt lat="45.77172" lon="0.9539">
        <ele>256</ele>
        <time>2022-04-03T10:51:30Z</time>
      </trkpt>
      <trkpt lat="45.77174" lon="0.95388">
        <ele>256.2</ele>
        <time>2022-04-03T10:51:31Z</time>
      </trkpt>
      <trkpt lat="45.77175" lon="0.95386">
        <ele>256.2</ele>
        <time>2022-04-03T10:51:32Z</time>
      </trkpt>
      <trkpt lat="45.77177" lon="0.95384">
        <ele>256.2</ele>
        <time>2022-04-03T10:51:33Z</time>
      </trkpt>
      <trkpt lat="45.77178" lon="0.95382">
        <ele>256.6</ele>
        <time>2022-04-03T10:51:34Z</time>
      </trkpt>
      <trkpt lat="45.7718" lon="0.9538">
        <ele>257</ele>
        <time>2022-04-03T10:51:35Z</time>
      </trkpt>
      <trkpt lat="45.77181" lon="0.95378">
        <ele>257.4</ele>
        <time>2022-04-03T10:51:36Z</time>
      </trkpt>
      <trkpt lat="45.77183" lon="0.95376">
        <ele>257.6</ele>
        <time>2022-04-03T10:51:37Z</time>
      </trkpt>
      <trkpt lat="45.77184" lon="0.95374">
        <ele>257.8</ele>
        <time>2022-04-03T10:51:38Z</time>
      </trkpt>
      <trkpt lat="45.77186" lon="0.95372">
        <ele>258.2</ele>
        <time>2022-04-03T10:51:39Z</time>
      </trkpt>
      <trkpt lat="45.77188" lon="0.9537">
        <ele>258.4</ele>
        <time>2022-04-03T10:51:40Z</time>
      </trkpt>
      <trkpt lat="45.77189" lon="0.95368">
        <ele>258.4</ele>
        <time>2022-04-03T10:51:41Z</time>
      </trkpt>
      <trkpt lat="45.77191" lon="0.95366">
        <ele>258.4</ele>
        <time>2022-04-03T10:51:42Z</time>
      </trkpt>
      <trkpt lat="45.77192" lon="0.95364">
        <ele>258.6</ele>
        <time>2022-04-03T10:51:43Z</time>
      </trkpt>
      <trkpt lat="45.77193" lon="0.95361">
        <ele>258.8</ele>
        <time>2022-04-03T10:51:44Z</time>
      </trkpt>
      <trkpt lat="45.77194" lon="0.95359">
        <ele>258.8</ele>
        <time>2022-04-03T10:51:45Z</time>
      </trkpt>
      <trkpt lat="45.77196" lon="0.95356">
        <ele>258.8</ele>
        <time>2022-04-03T10:51:46Z</time>
      </trkpt>
      <trkpt lat="45.77197" lon="0.95353">
        <ele>259</ele>
        <time>2022-04-03T10:51:47Z</time>
      </trkpt>
      <trkpt lat="45.77198" lon="0.95351">
        <ele>259</ele>
        <time>2022-04-03T10:51:48Z</time>
      </trkpt>
      <trkpt lat="45.77199" lon="0.95348">
        <ele>259</ele>
        <time>2022-04-03T10:51:49Z</time>
      </trkpt>
      <trkpt lat="45.772" lon="0.95346">
        <ele>259.4</ele>
        <time>2022-04-03T10:51:50Z</time>
      </trkpt>
      <trkpt lat="45.77201" lon="0.95343">
        <ele>259.4</ele>
        <time>2022-04-03T10:51:51Z</time>
      </trkpt>
      <trkpt lat="45.77202" lon="0.95341">
        <ele>259.6</ele>
        <time>2022-04-03T10:51:52Z</time>
      </trkpt>
      <trkpt lat="45.77203" lon="0.95339">
        <ele>259.8</ele>
        <time>2022-04-03T10:51:53Z</time>
      </trkpt>
      <trkpt lat="45.77204" lon="0.95337">
        <ele>260</ele>
        <time>2022-04-03T10:51:54Z</time>
      </trkpt>
      <trkpt lat="45.77204" lon="0.95335">
        <ele>260</ele>
        <time>2022-04-03T10:51:55Z</time>
      </trkpt>
      <trkpt lat="45.77205" lon="0.95332">
        <ele>260.2</ele>
        <time>2022-04-03T10:51:56Z</time>
      </trkpt>
      <trkpt lat="45.77206" lon="0.95331">
        <ele>260.4</ele>
        <time>2022-04-03T10:51:57Z</time>
      </trkpt>
      <trkpt lat="45.77207" lon="0.95329">
        <ele>260.6</ele>
        <time>2022-04-03T10:51:58Z</time>
      </trkpt>
      <trkpt lat="45.77208" lon="0.95327">
        <ele>260.8</ele>
        <time>2022-04-03T10:51:59Z</time>
      </trkpt>
      <trkpt lat="45.7721" lon="0.95325">
        <ele>261</ele>
        <time>2022-04-03T10:52:00Z</time>
      </trkpt>
      <trkpt lat="45.77211" lon="0.95324">
        <ele>261</ele>
        <time>2022-04-03T10:52:01Z</time>
      </trkpt>
      <trkpt lat="45.77212" lon="0.95322">
        <ele>261.2</ele>
        <time>2022-04-03T10:52:02Z</time>
      </trkpt>
      <trkpt lat="45.77213" lon="0.9532">
        <ele>261.4</ele>
        <time>2022-04-03T10:52:03Z</time>
      </trkpt>
      <trkpt lat="45.77214" lon="0.95318">
        <ele>261.6</ele>
        <time>2022-04-03T10:52:04Z</time>
      </trkpt>
      <trkpt lat="45.77214" lon="0.95317">
        <ele>261.8</ele>
        <time>2022-04-03T10:52:05Z</time>
      </trkpt>
      <trkpt lat="45.77215" lon="0.95315">
        <ele>261.8</ele>
        <time>2022-04-03T10:52:06Z</time>
      </trkpt>
      <trkpt lat="45.77216" lon="0.95313">
        <ele>262</ele>
        <time>2022-04-03T10:52:07Z</time>
      </trkpt>
      <trkpt lat="45.77217" lon="0.95312">
        <ele>262.2</ele>
        <time>2022-04-03T10:52:08Z</time>
      </trkpt>
      <trkpt lat="45.77218" lon="0.9531">
        <ele>262.2</ele>
        <time>2022-04-03T10:52:09Z</time>
      </trkpt>
      <trkpt lat="45.7722" lon="0.95308">
        <ele>262.4</ele>
        <time>2022-04-03T10:52:10Z</time>
      </trkpt>
      <trkpt lat="45.77221" lon="0.95307">
        <ele>262.8</ele>
        <time>2022-04-03T10:52:11Z</time>
      </trkpt>
      <trkpt lat="45.77222" lon="0.95305">
        <ele>263</ele>
        <time>2022-04-03T10:52:12Z</time>
      </trkpt>
      <trkpt lat="45.77224" lon="0.95304">
        <ele>263.2</ele>
        <time>2022-04-03T10:52:13Z</time>
      </trkpt>
      <trkpt lat="45.77225" lon="0.95302">
        <ele>263.6</ele>
        <time>2022-04-03T10:52:14Z</time>
      </trkpt>
      <trkpt lat="45.77226" lon="0.953">
        <ele>263.6</ele>
        <time>2022-04-03T10:52:15Z</time>
      </trkpt>
      <trkpt lat="45.77228" lon="0.95299">
        <ele>263.8</ele>
        <time>2022-04-03T10:52:16Z</time>
      </trkpt>
      <trkpt lat="45.77229" lon="0.95297">
        <ele>264</ele>
        <time>2022-04-03T10:52:17Z</time>
      </trkpt>
      <trkpt lat="45.77231" lon="0.95295">
        <ele>264</ele>
        <time>2022-04-03T10:52:18Z</time>
      </trkpt>
      <trkpt lat="45.77232" lon="0.95293">
        <ele>264.4</ele>
        <time>2022-04-03T10:52:19Z</time>
      </trkpt>
      <trkpt lat="45.77234" lon="0.95292">
        <ele>264.4</ele>
        <time>2022-04-03T10:52:20Z</time>
      </trkpt>
      <trkpt lat="45.77236" lon="0.9529">
        <ele>264.8</ele>
        <time>2022-04-03T10:52:21Z</time>
      </trkpt>
      <trkpt lat="45.77237" lon="0.95289">
        <ele>265</ele>
        <time>2022-04-03T10:52:22Z</time>
      </trkpt>
      <trkpt lat="45.77238" lon="0.95287">
        <ele>265.2</ele>
        <time>2022-04-03T10:52:23Z</time>
      </trkpt>
      <trkpt lat="45.7724" lon="0.95286">
        <ele>265.4</ele>
        <time>2022-04-03T10:52:24Z</time>
      </trkpt>
      <trkpt lat="45.77242" lon="0.95284">
        <ele>265.4</ele>
        <time>2022-04-03T10:52:25Z</time>
      </trkpt>
      <trkpt lat="45.77243" lon="0.95283">
        <ele>265.6</ele>
        <time>2022-04-03T10:52:26Z</time>
      </trkpt>
      <trkpt lat="45.77245" lon="0.95281">
        <ele>265.8</ele>
        <time>2022-04-03T10:52:27Z</time>
      </trkpt>
      <trkpt lat="45.77247" lon="0.9528">
        <ele>266</ele>
        <time>2022-04-03T10:52:28Z</time>
      </trkpt>
      <trkpt lat="45.77248" lon="0.95278">
        <ele>266.2</ele>
        <time>2022-04-03T10:52:29Z</time>
      </trkpt>
      <trkpt lat="45.77249" lon="0.95277">
        <ele>266.6</ele>
        <time>2022-04-03T10:52:30Z</time>
      </trkpt>
      <trkpt lat="45.77251" lon="0.95276">
        <ele>266.8</ele>
        <time>2022-04-03T10:52:31Z</time>
      </trkpt>
      <trkpt lat="45.77252" lon="0.95274">
        <ele>267</ele>
        <time>2022-04-03T10:52:32Z</time>
      </trkpt>
      <trkpt lat="45.77253" lon="0.95272">
        <ele>267.4</ele>
        <time>2022-04-03T10:52:33Z</time>
      </trkpt>
      <trkpt lat="45.77255" lon="0.95271">
        <ele>267.4</ele>
        <time>2022-04-03T10:52:34Z</time>
      </trkpt>
      <trkpt lat="45.77256" lon="0.9527">
        <ele>267.8</ele>
        <time>2022-04-03T10:52:35Z</time>
      </trkpt>
      <trkpt lat="45.77258" lon="0.95268">
        <ele>267.8</ele>
        <time>2022-04-03T10:52:36Z</time>
      </trkpt>
      <trkpt lat="45.77259" lon="0.95266">
        <ele>268</ele>
        <time>2022-04-03T10:52:37Z</time>
      </trkpt>
      <trkpt lat="45.77261" lon="0.95265">
        <ele>268.4</ele>
        <time>2022-04-03T10:52:38Z</time>
      </trkpt>
      <trkpt lat="45.77263" lon="0.95263">
        <ele>268.4</ele>
        <time>2022-04-03T10:52:39Z</time>
      </trkpt>
      <trkpt lat="45.77264" lon="0.95262">
        <ele>268.4</ele>
        <time>2022-04-03T10:52:40Z</time>
      </trkpt>
      <trkpt lat="45.77265" lon="0.9526">
        <ele>268.4</ele>
        <time>2022-04-03T10:52:41Z</time>
      </trkpt>
      <trkpt lat="45.77267" lon="0.95258">
        <ele>268.8</ele>
        <time>2022-04-03T10:52:42Z</time>
      </trkpt>
      <trkpt lat="45.77268" lon="0.95256">
        <ele>268.8</ele>
        <time>2022-04-03T10:52:43Z</time>
      </trkpt>
      <trkpt lat="45.7727" lon="0.95254">
        <ele>269</ele>
        <time>2022-04-03T10:52:44Z</time>
      </trkpt>
      <trkpt lat="45.77271" lon="0.95252">
        <ele>269</ele>
        <time>2022-04-03T10:52:45Z</time>
      </trkpt>
      <trkpt lat="45.77273" lon="0.9525">
        <ele>269.2</ele>
        <time>2022-04-03T10:52:46Z</time>
      </trkpt>
      <trkpt lat="45.77275" lon="0.95248">
        <ele>269.6</ele>
        <time>2022-04-03T10:52:47Z</time>
      </trkpt>
      <trkpt lat="45.77276" lon="0.95246">
        <ele>270</ele>
        <time>2022-04-03T10:52:48Z</time>
      </trkpt>
      <trkpt lat="45.77278" lon="0.95244">
        <ele>270.2</ele>
        <time>2022-04-03T10:52:49Z</time>
      </trkpt>
      <trkpt lat="45.77279" lon="0.95242">
        <ele>270.4</ele>
        <time>2022-04-03T10:52:50Z</time>
      </trkpt>
      <trkpt lat="45.7728" lon="0.95239">
        <ele>270.6</ele>
        <time>2022-04-03T10:52:51Z</time>
      </trkpt>
      <trkpt lat="45.77281" lon="0.95237">
        <ele>271</ele>
        <time>2022-04-03T10:52:52Z</time>
      </trkpt>
      <trkpt lat="45.77282" lon="0.95235">
        <ele>271</ele>
        <time>2022-04-03T10:52:53Z</time>
      </trkpt>
      <trkpt lat="45.77283" lon="0.95232">
        <ele>271</ele>
        <time>2022-04-03T10:52:54Z</time>
      </trkpt>
      <trkpt lat="45.77284" lon="0.9523">
        <ele>271</ele>
        <time>2022-04-03T10:52:55Z</time>
      </trkpt>
      <trkpt lat="45.77285" lon="0.95227">
        <ele>271.2</ele>
        <time>2022-04-03T10:52:56Z</time>
      </trkpt>
      <trkpt lat="45.77286" lon="0.95224">
        <ele>271.6</ele>
        <time>2022-04-03T10:52:57Z</time>
      </trkpt>
      <trkpt lat="45.77287" lon="0.95222">
        <ele>271.6</ele>
        <time>2022-04-03T10:52:58Z</time>
      </trkpt>
      <trkpt lat="45.77288" lon="0.95219">
        <ele>272</ele>
        <time>2022-04-03T10:52:59Z</time>
      </trkpt>
      <trkpt lat="45.77289" lon="0.95216">
        <ele>272</ele>
        <time>2022-04-03T10:53:00Z</time>
      </trkpt>
      <trkpt lat="45.77289" lon="0.95213">
        <ele>272.2</ele>
        <time>2022-04-03T10:53:01Z</time>
      </trkpt>
      <trkpt lat="45.7729" lon="0.9521">
        <ele>272.2</ele>
        <time>2022-04-03T10:53:02Z</time>
      </trkpt>
      <trkpt lat="45.7729" lon="0.95208">
        <ele>272.4</ele>
        <time>2022-04-03T10:53:03Z</time>
      </trkpt>
      <trkpt lat="45.77291" lon="0.95205">
        <ele>272.6</ele>
        <time>2022-04-03T10:53:04Z</time>
      </trkpt>
      <trkpt lat="45.77291" lon="0.95202">
        <ele>272.6</ele>
        <time>2022-04-03T10:53:05Z</time>
      </trkpt>
      <trkpt lat="45.77292" lon="0.952">
        <ele>272.8</ele>
        <time>2022-04-03T10:53:06Z</time>
      </trkpt>
      <trkpt lat="45.77293" lon="0.95197">
        <ele>273</ele>
        <time>2022-04-03T10:53:07Z</time>
      </trkpt>
      <trkpt lat="45.77293" lon="0.95195">
        <ele>273</ele>
        <time>2022-04-03T10:53:08Z</time>
      </trkpt>
      <trkpt lat="45.77293" lon="0.95192">
        <ele>273.2</ele>
        <time>2022-04-03T10:53:09Z</time>
      </trkpt>
      <trkpt lat="45.77294" lon="0.9519">
        <ele>273.4</ele>
        <time>2022-04-03T10:53:10Z</time>
      </trkpt>
      <trkpt lat="45.77294" lon="0.95188">
        <ele>273.6</ele>
        <time>2022-04-03T10:53:11Z</time>
      </trkpt>
      <trkpt lat="45.77294" lon="0.95185">
        <ele>273.8</ele>
        <time>2022-04-03T10:53:12Z</time>
      </trkpt>
      <trkpt lat="45.77294" lon="0.95183">
        <ele>273.8</ele>
        <time>2022-04-03T10:53:13Z</time>
      </trkpt>
      <trkpt lat="45.77294" lon="0.9518">
        <ele>274.2</ele>
        <time>2022-04-03T10:53:14Z</time>
      </trkpt>
      <trkpt lat="45.77294" lon="0.95177">
        <ele>274.4</ele>
        <time>2022-04-03T10:53:15Z</time>
      </trkpt>
      <trkpt lat="45.77294" lon="0.95175">
        <ele>274.8</ele>
        <time>2022-04-03T10:53:16Z</time>
      </trkpt>
      <trkpt lat="45.77294" lon="0.95172">
        <ele>274.8</ele>
        <time>2022-04-03T10:53:17Z</time>
      </trkpt>
      <trkpt lat="45.77294" lon="0.95169">
        <ele>275</ele>
        <time>2022-04-03T10:53:18Z</time>
      </trkpt>
      <trkpt lat="45.77294" lon="0.95167">
        <ele>275.4</ele>
        <time>2022-04-03T10:53:19Z</time>
      </trkpt>
      <trkpt lat="45.77295" lon="0.95164">
        <ele>275.6</ele>
        <time>2022-04-03T10:53:20Z</time>
      </trkpt>
      <trkpt lat="45.77295" lon="0.95161">
        <ele>275.6</ele>
        <time>2022-04-03T10:53:21Z</time>
      </trkpt>
      <trkpt lat="45.77295" lon="0.95158">
        <ele>275.8</ele>
        <time>2022-04-03T10:53:22Z</time>
      </trkpt>
      <trkpt lat="45.77295" lon="0.95155">
        <ele>276</ele>
        <time>2022-04-03T10:53:23Z</time>
      </trkpt>
      <trkpt lat="45.77295" lon="0.95153">
        <ele>276.4</ele>
        <time>2022-04-03T10:53:24Z</time>
      </trkpt>
      <trkpt lat="45.77295" lon="0.9515">
        <ele>276.6</ele>
        <time>2022-04-03T10:53:25Z</time>
      </trkpt>
      <trkpt lat="45.77295" lon="0.95147">
        <ele>276.8</ele>
        <time>2022-04-03T10:53:26Z</time>
      </trkpt>
      <trkpt lat="45.77295" lon="0.95145">
        <ele>277</ele>
        <time>2022-04-03T10:53:27Z</time>
      </trkpt>
      <trkpt lat="45.77295" lon="0.95142">
        <ele>276.8</ele>
        <time>2022-04-03T10:53:28Z</time>
      </trkpt>
      <trkpt lat="45.77296" lon="0.9514">
        <ele>277</ele>
        <time>2022-04-03T10:53:29Z</time>
      </trkpt>
      <trkpt lat="45.77296" lon="0.95137">
        <ele>277.2</ele>
        <time>2022-04-03T10:53:30Z</time>
      </trkpt>
      <trkpt lat="45.77296" lon="0.95134">
        <ele>277.2</ele>
        <time>2022-04-03T10:53:31Z</time>
      </trkpt>
      <trkpt lat="45.77296" lon="0.95132">
        <ele>277.4</ele>
        <time>2022-04-03T10:53:32Z</time>
      </trkpt>
      <trkpt lat="45.77297" lon="0.95129">
        <ele>277.6</ele>
        <time>2022-04-03T10:53:33Z</time>
      </trkpt>
      <trkpt lat="45.77297" lon="0.95126">
        <ele>277.8</ele>
        <time>2022-04-03T10:53:34Z</time>
      </trkpt>
      <trkpt lat="45.77297" lon="0.95123">
        <ele>277.8</ele>
        <time>2022-04-03T10:53:35Z</time>
      </trkpt>
      <trkpt lat="45.77297" lon="0.95121">
        <ele>277.8</ele>
        <time>2022-04-03T10:53:36Z</time>
      </trkpt>
      <trkpt lat="45.77297" lon="0.95118">
        <ele>277.8</ele>
        <time>2022-04-03T10:53:37Z</time>
      </trkpt>
      <trkpt lat="45.77297" lon="0.95115">
        <ele>278</ele>
        <time>2022-04-03T10:53:38Z</time>
      </trkpt>
      <trkpt lat="45.77297" lon="0.95112">
        <ele>278</ele>
        <time>2022-04-03T10:53:39Z</time>
      </trkpt>
      <trkpt lat="45.77298" lon="0.95109">
        <ele>278.2</ele>
        <time>2022-04-03T10:53:40Z</time>
      </trkpt>
      <trkpt lat="45.77298" lon="0.95106">
        <ele>278.2</ele>
        <time>2022-04-03T10:53:41Z</time>
      </trkpt>
      <trkpt lat="45.77298" lon="0.95103">
        <ele>278.4</ele>
        <time>2022-04-03T10:53:42Z</time>
      </trkpt>
      <trkpt lat="45.77298" lon="0.95101">
        <ele>278.8</ele>
        <time>2022-04-03T10:53:43Z</time>
      </trkpt>
      <trkpt lat="45.77299" lon="0.95098">
        <ele>279</ele>
        <time>2022-04-03T10:53:44Z</time>
      </trkpt>
      <trkpt lat="45.77299" lon="0.95095">
        <ele>279.2</ele>
        <time>2022-04-03T10:53:45Z</time>
      </trkpt>
      <trkpt lat="45.77299" lon="0.95092">
        <ele>279.4</ele>
        <time>2022-04-03T10:53:46Z</time>
      </trkpt>
      <trkpt lat="45.77299" lon="0.95089">
        <ele>279.6</ele>
        <time>2022-04-03T10:53:47Z</time>
      </trkpt>
      <trkpt lat="45.773" lon="0.95086">
        <ele>279.6</ele>
        <time>2022-04-03T10:53:48Z</time>
      </trkpt>
      <trkpt lat="45.773" lon="0.95083">
        <ele>279.8</ele>
        <time>2022-04-03T10:53:49Z</time>
      </trkpt>
      <trkpt lat="45.773" lon="0.9508">
        <ele>280</ele>
        <time>2022-04-03T10:53:50Z</time>
      </trkpt>
      <trkpt lat="45.773" lon="0.95077">
        <ele>280</ele>
        <time>2022-04-03T10:53:51Z</time>
      </trkpt>
      <trkpt lat="45.77301" lon="0.95074">
        <ele>280.2</ele>
        <time>2022-04-03T10:53:52Z</time>
      </trkpt>
      <trkpt lat="45.77301" lon="0.95071">
        <ele>280.6</ele>
        <time>2022-04-03T10:53:53Z</time>
      </trkpt>
      <trkpt lat="45.77301" lon="0.95068">
        <ele>280.6</ele>
        <time>2022-04-03T10:53:54Z</time>
      </trkpt>
      <trkpt lat="45.77301" lon="0.95066">
        <ele>280.6</ele>
        <time>2022-04-03T10:53:55Z</time>
      </trkpt>
      <trkpt lat="45.77302" lon="0.95063">
        <ele>280.8</ele>
        <time>2022-04-03T10:53:56Z</time>
      </trkpt>
      <trkpt lat="45.77302" lon="0.9506">
        <ele>280.8</ele>
        <time>2022-04-03T10:53:57Z</time>
      </trkpt>
      <trkpt lat="45.77301" lon="0.95058">
        <ele>281</ele>
        <time>2022-04-03T10:53:58Z</time>
      </trkpt>
      <trkpt lat="45.77301" lon="0.95056">
        <ele>281.4</ele>
        <time>2022-04-03T10:53:59Z</time>
      </trkpt>
      <trkpt lat="45.77301" lon="0.95053">
        <ele>281.6</ele>
        <time>2022-04-03T10:54:00Z</time>
      </trkpt>
      <trkpt lat="45.77301" lon="0.9505">
        <ele>281.8</ele>
        <time>2022-04-03T10:54:01Z</time>
      </trkpt>
      <trkpt lat="45.77301" lon="0.95048">
        <ele>281.8</ele>
        <time>2022-04-03T10:54:02Z</time>
      </trkpt>
      <trkpt lat="45.77302" lon="0.95045">
        <ele>282</ele>
        <time>2022-04-03T10:54:03Z</time>
      </trkpt>
      <trkpt lat="45.77302" lon="0.95042">
        <ele>282.4</ele>
        <time>2022-04-03T10:54:04Z</time>
      </trkpt>
      <trkpt lat="45.77303" lon="0.9504">
        <ele>282.2</ele>
        <time>2022-04-03T10:54:05Z</time>
      </trkpt>
      <trkpt lat="45.77303" lon="0.95037">
        <ele>282.4</ele>
        <time>2022-04-03T10:54:06Z</time>
      </trkpt>
      <trkpt lat="45.77303" lon="0.95034">
        <ele>282.6</ele>
        <time>2022-04-03T10:54:07Z</time>
      </trkpt>
      <trkpt lat="45.77303" lon="0.95032">
        <ele>282.8</ele>
        <time>2022-04-03T10:54:08Z</time>
      </trkpt>
      <trkpt lat="45.77303" lon="0.95029">
        <ele>283</ele>
        <time>2022-04-03T10:54:09Z</time>
      </trkpt>
      <trkpt lat="45.77302" lon="0.95026">
        <ele>283.2</ele>
        <time>2022-04-03T10:54:10Z</time>
      </trkpt>
      <trkpt lat="45.77302" lon="0.95023">
        <ele>283.4</ele>
        <time>2022-04-03T10:54:11Z</time>
      </trkpt>
      <trkpt lat="45.77302" lon="0.9502">
        <ele>283.4</ele>
        <time>2022-04-03T10:54:12Z</time>
      </trkpt>
      <trkpt lat="45.77302" lon="0.95017">
        <ele>283.6</ele>
        <time>2022-04-03T10:54:13Z</time>
      </trkpt>
      <trkpt lat="45.77302" lon="0.95014">
        <ele>283.6</ele>
        <time>2022-04-03T10:54:14Z</time>
      </trkpt>
      <trkpt lat="45.77302" lon="0.95012">
        <ele>283.6</ele>
        <time>2022-04-03T10:54:15Z</time>
      </trkpt>
      <trkpt lat="45.77302" lon="0.95009">
        <ele>283.6</ele>
        <time>2022-04-03T10:54:16Z</time>
      </trkpt>
      <trkpt lat="45.77303" lon="0.95006">
        <ele>284</ele>
        <time>2022-04-03T10:54:17Z</time>
      </trkpt>
      <trkpt lat="45.77303" lon="0.95003">
        <ele>284</ele>
        <time>2022-04-03T10:54:18Z</time>
      </trkpt>
      <trkpt lat="45.77303" lon="0.95">
        <ele>284</ele>
        <time>2022-04-03T10:54:19Z</time>
      </trkpt>
      <trkpt lat="45.77303" lon="0.94997">
        <ele>284.2</ele>
        <time>2022-04-03T10:54:20Z</time>
      </trkpt>
      <trkpt lat="45.77304" lon="0.94995">
        <ele>284.4</ele>
        <time>2022-04-03T10:54:21Z</time>
      </trkpt>
      <trkpt lat="45.77304" lon="0.94992">
        <ele>284.8</ele>
        <time>2022-04-03T10:54:22Z</time>
      </trkpt>
      <trkpt lat="45.77305" lon="0.94989">
        <ele>285</ele>
        <time>2022-04-03T10:54:23Z</time>
      </trkpt>
      <trkpt lat="45.77305" lon="0.94986">
        <ele>285</ele>
        <time>2022-04-03T10:54:24Z</time>
      </trkpt>
      <trkpt lat="45.77305" lon="0.94984">
        <ele>285.2</ele>
        <time>2022-04-03T10:54:25Z</time>
      </trkpt>
      <trkpt lat="45.77305" lon="0.94981">
        <ele>285.4</ele>
        <time>2022-04-03T10:54:26Z</time>
      </trkpt>
      <trkpt lat="45.77306" lon="0.94978">
        <ele>285.6</ele>
        <time>2022-04-03T10:54:27Z</time>
      </trkpt>
      <trkpt lat="45.77306" lon="0.94975">
        <ele>285.8</ele>
        <time>2022-04-03T10:54:28Z</time>
      </trkpt>
      <trkpt lat="45.77306" lon="0.94972">
        <ele>285.8</ele>
        <time>2022-04-03T10:54:29Z</time>
      </trkpt>
      <trkpt lat="45.77306" lon="0.94969">
        <ele>286.2</ele>
        <time>2022-04-03T10:54:30Z</time>
      </trkpt>
      <trkpt lat="45.77307" lon="0.94966">
        <ele>286.4</ele>
        <time>2022-04-03T10:54:31Z</time>
      </trkpt>
      <trkpt lat="45.77307" lon="0.94963">
        <ele>286.6</ele>
        <time>2022-04-03T10:54:32Z</time>
      </trkpt>
      <trkpt lat="45.77307" lon="0.9496">
        <ele>286.6</ele>
        <time>2022-04-03T10:54:33Z</time>
      </trkpt>
      <trkpt lat="45.77307" lon="0.94957">
        <ele>286.6</ele>
        <time>2022-04-03T10:54:34Z</time>
      </trkpt>
      <trkpt lat="45.77307" lon="0.94954">
        <ele>286.8</ele>
        <time>2022-04-03T10:54:35Z</time>
      </trkpt>
      <trkpt lat="45.77307" lon="0.94951">
        <ele>287.2</ele>
        <time>2022-04-03T10:54:36Z</time>
      </trkpt>
      <trkpt lat="45.77307" lon="0.94949">
        <ele>287.2</ele>
        <time>2022-04-03T10:54:37Z</time>
      </trkpt>
      <trkpt lat="45.77307" lon="0.94947">
        <ele>287.4</ele>
        <time>2022-04-03T10:54:38Z</time>
      </trkpt>
      <trkpt lat="45.77307" lon="0.94944">
        <ele>287.4</ele>
        <time>2022-04-03T10:54:39Z</time>
      </trkpt>
      <trkpt lat="45.77307" lon="0.94942">
        <ele>287.8</ele>
        <time>2022-04-03T10:54:40Z</time>
      </trkpt>
      <trkpt lat="45.77308" lon="0.94939">
        <ele>288</ele>
        <time>2022-04-03T10:54:41Z</time>
      </trkpt>
      <trkpt lat="45.77309" lon="0.94937">
        <ele>288</ele>
        <time>2022-04-03T10:54:42Z</time>
      </trkpt>
      <trkpt lat="45.77309" lon="0.94934">
        <ele>288.4</ele>
        <time>2022-04-03T10:54:43Z</time>
      </trkpt>
      <trkpt lat="45.7731" lon="0.94931">
        <ele>288.6</ele>
        <time>2022-04-03T10:54:44Z</time>
      </trkpt>
      <trkpt lat="45.7731" lon="0.94928">
        <ele>288.8</ele>
        <time>2022-04-03T10:54:45Z</time>
      </trkpt>
      <trkpt lat="45.77311" lon="0.94925">
        <ele>288.8</ele>
        <time>2022-04-03T10:54:46Z</time>
      </trkpt>
      <trkpt lat="45.77311" lon="0.94922">
        <ele>289.2</ele>
        <time>2022-04-03T10:54:47Z</time>
      </trkpt>
      <trkpt lat="45.77311" lon="0.94919">
        <ele>289.2</ele>
        <time>2022-04-03T10:54:48Z</time>
      </trkpt>
      <trkpt lat="45.77312" lon="0.94916">
        <ele>289.4</ele>
        <time>2022-04-03T10:54:49Z</time>
      </trkpt>
      <trkpt lat="45.77312" lon="0.94913">
        <ele>289.4</ele>
        <time>2022-04-03T10:54:50Z</time>
      </trkpt>
      <trkpt lat="45.77313" lon="0.9491">
        <ele>289.8</ele>
        <time>2022-04-03T10:54:51Z</time>
      </trkpt>
      <trkpt lat="45.77313" lon="0.94907">
        <ele>289.8</ele>
        <time>2022-04-03T10:54:52Z</time>
      </trkpt>
      <trkpt lat="45.77314" lon="0.94904">
        <ele>289.6</ele>
        <time>2022-04-03T10:54:53Z</time>
      </trkpt>
      <trkpt lat="45.77315" lon="0.94901">
        <ele>290</ele>
        <time>2022-04-03T10:54:54Z</time>
      </trkpt>
      <trkpt lat="45.77315" lon="0.94898">
        <ele>290.2</ele>
        <time>2022-04-03T10:54:55Z</time>
      </trkpt>
      <trkpt lat="45.77316" lon="0.94894">
        <ele>290.4</ele>
        <time>2022-04-03T10:54:56Z</time>
      </trkpt>
      <trkpt lat="45.77316" lon="0.94891">
        <ele>290.6</ele>
        <time>2022-04-03T10:54:57Z</time>
      </trkpt>
      <trkpt lat="45.77317" lon="0.94888">
        <ele>290.8</ele>
        <time>2022-04-03T10:54:58Z</time>
      </trkpt>
      <trkpt lat="45.77317" lon="0.94885">
        <ele>291</ele>
        <time>2022-04-03T10:54:59Z</time>
      </trkpt>
      <trkpt lat="45.77318" lon="0.94882">
        <ele>291</ele>
        <time>2022-04-03T10:55:00Z</time>
      </trkpt>
      <trkpt lat="45.77319" lon="0.94879">
        <ele>291.2</ele>
        <time>2022-04-03T10:55:01Z</time>
      </trkpt>
      <trkpt lat="45.77319" lon="0.94876">
        <ele>291.2</ele>
        <time>2022-04-03T10:55:02Z</time>
      </trkpt>
      <trkpt lat="45.7732" lon="0.94873">
        <ele>291.4</ele>
        <time>2022-04-03T10:55:03Z</time>
      </trkpt>
      <trkpt lat="45.77322" lon="0.9487">
        <ele>291.4</ele>
        <time>2022-04-03T10:55:04Z</time>
      </trkpt>
      <trkpt lat="45.77323" lon="0.94866">
        <ele>291.4</ele>
        <time>2022-04-03T10:55:05Z</time>
      </trkpt>
      <trkpt lat="45.77324" lon="0.94863">
        <ele>291.6</ele>
        <time>2022-04-03T10:55:06Z</time>
      </trkpt>
      <trkpt lat="45.77325" lon="0.9486">
        <ele>291.6</ele>
        <time>2022-04-03T10:55:07Z</time>
      </trkpt>
      <trkpt lat="45.77326" lon="0.94857">
        <ele>291.6</ele>
        <time>2022-04-03T10:55:08Z</time>
      </trkpt>
      <trkpt lat="45.77327" lon="0.94854">
        <ele>291.6</ele>
        <time>2022-04-03T10:55:09Z</time>
      </trkpt>
      <trkpt lat="45.77328" lon="0.94851">
        <ele>291.6</ele>
        <time>2022-04-03T10:55:10Z</time>
      </trkpt>
      <trkpt lat="45.77329" lon="0.94848">
        <ele>291.6</ele>
        <time>2022-04-03T10:55:11Z</time>
      </trkpt>
      <trkpt lat="45.7733" lon="0.94845">
        <ele>291.8</ele>
        <time>2022-04-03T10:55:12Z</time>
      </trkpt>
      <trkpt lat="45.77331" lon="0.94842">
        <ele>291.8</ele>
        <time>2022-04-03T10:55:13Z</time>
      </trkpt>
      <trkpt lat="45.77332" lon="0.94839">
        <ele>292</ele>
        <time>2022-04-03T10:55:14Z</time>
      </trkpt>
      <trkpt lat="45.77333" lon="0.94837">
        <ele>292</ele>
        <time>2022-04-03T10:55:15Z</time>
      </trkpt>
      <trkpt lat="45.77334" lon="0.94834">
        <ele>292</ele>
        <time>2022-04-03T10:55:16Z</time>
      </trkpt>
      <trkpt lat="45.77335" lon="0.94832">
        <ele>292</ele>
        <time>2022-04-03T10:55:17Z</time>
      </trkpt>
      <trkpt lat="45.77336" lon="0.94829">
        <ele>292.2</ele>
        <time>2022-04-03T10:55:18Z</time>
      </trkpt>
      <trkpt lat="45.77337" lon="0.94825">
        <ele>292.2</ele>
        <time>2022-04-03T10:55:19Z</time>
      </trkpt>
      <trkpt lat="45.77338" lon="0.94822">
        <ele>292.2</ele>
        <time>2022-04-03T10:55:20Z</time>
      </trkpt>
      <trkpt lat="45.77339" lon="0.94819">
        <ele>292.2</ele>
        <time>2022-04-03T10:55:21Z</time>
      </trkpt>
      <trkpt lat="45.7734" lon="0.94817">
        <ele>292.4</ele>
        <time>2022-04-03T10:55:22Z</time>
      </trkpt>
      <trkpt lat="45.77342" lon="0.94814">
        <ele>292.8</ele>
        <time>2022-04-03T10:55:23Z</time>
      </trkpt>
      <trkpt lat="45.77343" lon="0.94811">
        <ele>293</ele>
        <time>2022-04-03T10:55:24Z</time>
      </trkpt>
      <trkpt lat="45.77344" lon="0.94809">
        <ele>293</ele>
        <time>2022-04-03T10:55:25Z</time>
      </trkpt>
      <trkpt lat="45.77345" lon="0.94806">
        <ele>293.2</ele>
        <time>2022-04-03T10:55:26Z</time>
      </trkpt>
      <trkpt lat="45.77347" lon="0.94803">
        <ele>293.2</ele>
        <time>2022-04-03T10:55:27Z</time>
      </trkpt>
      <trkpt lat="45.77348" lon="0.94801">
        <ele>293.2</ele>
        <time>2022-04-03T10:55:28Z</time>
      </trkpt>
      <trkpt lat="45.77349" lon="0.94798">
        <ele>293.2</ele>
        <time>2022-04-03T10:55:29Z</time>
      </trkpt>
      <trkpt lat="45.77351" lon="0.94796">
        <ele>293.2</ele>
        <time>2022-04-03T10:55:30Z</time>
      </trkpt>
      <trkpt lat="45.77352" lon="0.94793">
        <ele>293.2</ele>
        <time>2022-04-03T10:55:31Z</time>
      </trkpt>
      <trkpt lat="45.77353" lon="0.94791">
        <ele>293.4</ele>
        <time>2022-04-03T10:55:32Z</time>
      </trkpt>
      <trkpt lat="45.77355" lon="0.94789">
        <ele>293.2</ele>
        <time>2022-04-03T10:55:33Z</time>
      </trkpt>
      <trkpt lat="45.77356" lon="0.94787">
        <ele>293.4</ele>
        <time>2022-04-03T10:55:34Z</time>
      </trkpt>
      <trkpt lat="45.77358" lon="0.94784">
        <ele>293.4</ele>
        <time>2022-04-03T10:55:35Z</time>
      </trkpt>
      <trkpt lat="45.77359" lon="0.94782">
        <ele>293.4</ele>
        <time>2022-04-03T10:55:36Z</time>
      </trkpt>
      <trkpt lat="45.7736" lon="0.94779">
        <ele>293.6</ele>
        <time>2022-04-03T10:55:37Z</time>
      </trkpt>
      <trkpt lat="45.77361" lon="0.94777">
        <ele>293.8</ele>
        <time>2022-04-03T10:55:38Z</time>
      </trkpt>
      <trkpt lat="45.77362" lon="0.94775">
        <ele>294</ele>
        <time>2022-04-03T10:55:39Z</time>
      </trkpt>
      <trkpt lat="45.77364" lon="0.94773">
        <ele>294</ele>
        <time>2022-04-03T10:55:40Z</time>
      </trkpt>
      <trkpt lat="45.77365" lon="0.9477">
        <ele>294.4</ele>
        <time>2022-04-03T10:55:41Z</time>
      </trkpt>
      <trkpt lat="45.77366" lon="0.94768">
        <ele>294.6</ele>
        <time>2022-04-03T10:55:42Z</time>
      </trkpt>
      <trkpt lat="45.77368" lon="0.94766">
        <ele>294.8</ele>
        <time>2022-04-03T10:55:43Z</time>
      </trkpt>
      <trkpt lat="45.77369" lon="0.94764">
        <ele>295</ele>
        <time>2022-04-03T10:55:44Z</time>
      </trkpt>
      <trkpt lat="45.7737" lon="0.94761">
        <ele>295.2</ele>
        <time>2022-04-03T10:55:45Z</time>
      </trkpt>
      <trkpt lat="45.77372" lon="0.94759">
        <ele>295.2</ele>
        <time>2022-04-03T10:55:46Z</time>
      </trkpt>
      <trkpt lat="45.77373" lon="0.94757">
        <ele>295.4</ele>
        <time>2022-04-03T10:55:47Z</time>
      </trkpt>
      <trkpt lat="45.77374" lon="0.94755">
        <ele>295.4</ele>
        <time>2022-04-03T10:55:48Z</time>
      </trkpt>
      <trkpt lat="45.77376" lon="0.94753">
        <ele>295.4</ele>
        <time>2022-04-03T10:55:49Z</time>
      </trkpt>
      <trkpt lat="45.77377" lon="0.9475">
        <ele>295.8</ele>
        <time>2022-04-03T10:55:50Z</time>
      </trkpt>
      <trkpt lat="45.77378" lon="0.94748">
        <ele>295.8</ele>
        <time>2022-04-03T10:55:51Z</time>
      </trkpt>
      <trkpt lat="45.7738" lon="0.94746">
        <ele>296.2</ele>
        <time>2022-04-03T10:55:52Z</time>
      </trkpt>
      <trkpt lat="45.77381" lon="0.94743">
        <ele>296.2</ele>
        <time>2022-04-03T10:55:53Z</time>
      </trkpt>
      <trkpt lat="45.77382" lon="0.94741">
        <ele>296.2</ele>
        <time>2022-04-03T10:55:54Z</time>
      </trkpt>
      <trkpt lat="45.77383" lon="0.94739">
        <ele>296.4</ele>
        <time>2022-04-03T10:55:55Z</time>
      </trkpt>
      <trkpt lat="45.77385" lon="0.94736">
        <ele>296.6</ele>
        <time>2022-04-03T10:55:56Z</time>
      </trkpt>
      <trkpt lat="45.77386" lon="0.94734">
        <ele>296.6</ele>
        <time>2022-04-03T10:55:57Z</time>
      </trkpt>
      <trkpt lat="45.77387" lon="0.94731">
        <ele>296.8</ele>
        <time>2022-04-03T10:55:58Z</time>
      </trkpt>
      <trkpt lat="45.77389" lon="0.94729">
        <ele>297.2</ele>
        <time>2022-04-03T10:55:59Z</time>
      </trkpt>
      <trkpt lat="45.7739" lon="0.94727">
        <ele>297.2</ele>
        <time>2022-04-03T10:56:00Z</time>
      </trkpt>
      <trkpt lat="45.77392" lon="0.94724">
        <ele>297.4</ele>
        <time>2022-04-03T10:56:01Z</time>
      </trkpt>
      <trkpt lat="45.77393" lon="0.94722">
        <ele>297.6</ele>
        <time>2022-04-03T10:56:02Z</time>
      </trkpt>
      <trkpt lat="45.77395" lon="0.94719">
        <ele>297.6</ele>
        <time>2022-04-03T10:56:03Z</time>
      </trkpt>
      <trkpt lat="45.77396" lon="0.94717">
        <ele>297.8</ele>
        <time>2022-04-03T10:56:04Z</time>
      </trkpt>
      <trkpt lat="45.77397" lon="0.94715">
        <ele>298</ele>
        <time>2022-04-03T10:56:05Z</time>
      </trkpt>
      <trkpt lat="45.77399" lon="0.94712">
        <ele>298.2</ele>
        <time>2022-04-03T10:56:06Z</time>
      </trkpt>
      <trkpt lat="45.774" lon="0.9471">
        <ele>298.2</ele>
        <time>2022-04-03T10:56:07Z</time>
      </trkpt>
      <trkpt lat="45.77401" lon="0.94707">
        <ele>298.2</ele>
        <time>2022-04-03T10:56:08Z</time>
      </trkpt>
      <trkpt lat="45.77403" lon="0.94705">
        <ele>298.6</ele>
        <time>2022-04-03T10:56:09Z</time>
      </trkpt>
      <trkpt lat="45.77404" lon="0.94703">
        <ele>298.6</ele>
        <time>2022-04-03T10:56:10Z</time>
      </trkpt>
      <trkpt lat="45.77405" lon="0.947">
        <ele>298.8</ele>
        <time>2022-04-03T10:56:11Z</time>
      </trkpt>
      <trkpt lat="45.77406" lon="0.94697">
        <ele>299</ele>
        <time>2022-04-03T10:56:12Z</time>
      </trkpt>
      <trkpt lat="45.77407" lon="0.94695">
        <ele>299.2</ele>
        <time>2022-04-03T10:56:13Z</time>
      </trkpt>
      <trkpt lat="45.77408" lon="0.94692">
        <ele>299.6</ele>
        <time>2022-04-03T10:56:14Z</time>
      </trkpt>
      <trkpt lat="45.7741" lon="0.9469">
        <ele>299.8</ele>
        <time>2022-04-03T10:56:15Z</time>
      </trkpt>
      <trkpt lat="45.77411" lon="0.94687">
        <ele>300.2</ele>
        <time>2022-04-03T10:56:16Z</time>
      </trkpt>
      <trkpt lat="45.77412" lon="0.94685">
        <ele>300.4</ele>
        <time>2022-04-03T10:56:17Z</time>
      </trkpt>
      <trkpt lat="45.77413" lon="0.94682">
        <ele>300.4</ele>
        <time>2022-04-03T10:56:18Z</time>
      </trkpt>
      <trkpt lat="45.77414" lon="0.94679">
        <ele>300.6</ele>
        <time>2022-04-03T10:56:19Z</time>
      </trkpt>
      <trkpt lat="45.77415" lon="0.94676">
        <ele>301</ele>
        <time>2022-04-03T10:56:20Z</time>
      </trkpt>
      <trkpt lat="45.77415" lon="0.94674">
        <ele>301</ele>
        <time>2022-04-03T10:56:21Z</time>
      </trkpt>
      <trkpt lat="45.77416" lon="0.94671">
        <ele>301</ele>
        <time>2022-04-03T10:56:22Z</time>
      </trkpt>
      <trkpt lat="45.77417" lon="0.94668">
        <ele>301.2</ele>
        <time>2022-04-03T10:56:23Z</time>
      </trkpt>
      <trkpt lat="45.77418" lon="0.94665">
        <ele>301.4</ele>
        <time>2022-04-03T10:56:24Z</time>
      </trkpt>
      <trkpt lat="45.77418" lon="0.94661">
        <ele>301.8</ele>
        <time>2022-04-03T10:56:25Z</time>
      </trkpt>
      <trkpt lat="45.77419" lon="0.94658">
        <ele>302.2</ele>
        <time>2022-04-03T10:56:26Z</time>
      </trkpt>
      <trkpt lat="45.77421" lon="0.94655">
        <ele>302.2</ele>
        <time>2022-04-03T10:56:27Z</time>
      </trkpt>
      <trkpt lat="45.77422" lon="0.94652">
        <ele>302.2</ele>
        <time>2022-04-03T10:56:28Z</time>
      </trkpt>
      <trkpt lat="45.77424" lon="0.94649">
        <ele>302.2</ele>
        <time>2022-04-03T10:56:29Z</time>
      </trkpt>
      <trkpt lat="45.77427" lon="0.94647">
        <ele>302.4</ele>
        <time>2022-04-03T10:56:30Z</time>
      </trkpt>
      <trkpt lat="45.7743" lon="0.94646">
        <ele>302.2</ele>
        <time>2022-04-03T10:56:31Z</time>
      </trkpt>
      <trkpt lat="45.77433" lon="0.94645">
        <ele>302.4</ele>
        <time>2022-04-03T10:56:32Z</time>
      </trkpt>
      <trkpt lat="45.77436" lon="0.94644">
        <ele>302.6</ele>
        <time>2022-04-03T10:56:33Z</time>
      </trkpt>
      <trkpt lat="45.77438" lon="0.94641">
        <ele>302.6</ele>
        <time>2022-04-03T10:56:34Z</time>
      </trkpt>
      <trkpt lat="45.77441" lon="0.94638">
        <ele>302.6</ele>
        <time>2022-04-03T10:56:35Z</time>
      </trkpt>
      <trkpt lat="45.77443" lon="0.94634">
        <ele>302.6</ele>
        <time>2022-04-03T10:56:36Z</time>
      </trkpt>
      <trkpt lat="45.77445" lon="0.9463">
        <ele>302.6</ele>
        <time>2022-04-03T10:56:37Z</time>
      </trkpt>
      <trkpt lat="45.77446" lon="0.94624">
        <ele>302.8</ele>
        <time>2022-04-03T10:56:38Z</time>
      </trkpt>
      <trkpt lat="45.77448" lon="0.94619">
        <ele>302.8</ele>
        <time>2022-04-03T10:56:39Z</time>
      </trkpt>
      <trkpt lat="45.77449" lon="0.94614">
        <ele>302.8</ele>
        <time>2022-04-03T10:56:40Z</time>
      </trkpt>
      <trkpt lat="45.7745" lon="0.94608">
        <ele>302.8</ele>
        <time>2022-04-03T10:56:41Z</time>
      </trkpt>
      <trkpt lat="45.77452" lon="0.94603">
        <ele>302.8</ele>
        <time>2022-04-03T10:56:42Z</time>
      </trkpt>
      <trkpt lat="45.77453" lon="0.94597">
        <ele>302.8</ele>
        <time>2022-04-03T10:56:43Z</time>
      </trkpt>
      <trkpt lat="45.77455" lon="0.9459">
        <ele>302.8</ele>
        <time>2022-04-03T10:56:44Z</time>
      </trkpt>
      <trkpt lat="45.77456" lon="0.94584">
        <ele>302.6</ele>
        <time>2022-04-03T10:56:45Z</time>
      </trkpt>
      <trkpt lat="45.77458" lon="0.94577">
        <ele>302.6</ele>
        <time>2022-04-03T10:56:46Z</time>
      </trkpt>
      <trkpt lat="45.77459" lon="0.94569">
        <ele>302.8</ele>
        <time>2022-04-03T10:56:47Z</time>
      </trkpt>
      <trkpt lat="45.77461" lon="0.94562">
        <ele>302.6</ele>
        <time>2022-04-03T10:56:48Z</time>
      </trkpt>
      <trkpt lat="45.77463" lon="0.94554">
        <ele>302.6</ele>
        <time>2022-04-03T10:56:49Z</time>
      </trkpt>
      <trkpt lat="45.77465" lon="0.94546">
        <ele>302.6</ele>
        <time>2022-04-03T10:56:50Z</time>
      </trkpt>
      <trkpt lat="45.77467" lon="0.94538">
        <ele>302.6</ele>
        <time>2022-04-03T10:56:51Z</time>
      </trkpt>
      <trkpt lat="45.77469" lon="0.94529">
        <ele>302.4</ele>
        <time>2022-04-03T10:56:52Z</time>
      </trkpt>
      <trkpt lat="45.77471" lon="0.9452">
        <ele>302.2</ele>
        <time>2022-04-03T10:56:53Z</time>
      </trkpt>
      <trkpt lat="45.77473" lon="0.9451">
        <ele>302.2</ele>
        <time>2022-04-03T10:56:54Z</time>
      </trkpt>
      <trkpt lat="45.77475" lon="0.945">
        <ele>302</ele>
        <time>2022-04-03T10:56:55Z</time>
      </trkpt>
      <trkpt lat="45.77477" lon="0.9449">
        <ele>301.4</ele>
        <time>2022-04-03T10:56:56Z</time>
      </trkpt>
      <trkpt lat="45.77479" lon="0.9448">
        <ele>301</ele>
        <time>2022-04-03T10:56:57Z</time>
      </trkpt>
      <trkpt lat="45.77481" lon="0.9447">
        <ele>300.8</ele>
        <time>2022-04-03T10:56:58Z</time>
      </trkpt>
      <trkpt lat="45.77484" lon="0.94459">
        <ele>300.4</ele>
        <time>2022-04-03T10:56:59Z</time>
      </trkpt>
      <trkpt lat="45.77486" lon="0.94449">
        <ele>300.2</ele>
        <time>2022-04-03T10:57:00Z</time>
      </trkpt>
      <trkpt lat="45.77488" lon="0.94438">
        <ele>300.2</ele>
        <time>2022-04-03T10:57:01Z</time>
      </trkpt>
      <trkpt lat="45.77491" lon="0.94428">
        <ele>300</ele>
        <time>2022-04-03T10:57:02Z</time>
      </trkpt>
      <trkpt lat="45.77493" lon="0.94417">
        <ele>299.8</ele>
        <time>2022-04-03T10:57:03Z</time>
      </trkpt>
      <trkpt lat="45.77496" lon="0.94407">
        <ele>299.6</ele>
        <time>2022-04-03T10:57:04Z</time>
      </trkpt>
      <trkpt lat="45.77498" lon="0.94397">
        <ele>299.6</ele>
        <time>2022-04-03T10:57:05Z</time>
      </trkpt>
      <trkpt lat="45.775" lon="0.94387">
        <ele>299.4</ele>
        <time>2022-04-03T10:57:06Z</time>
      </trkpt>
      <trkpt lat="45.77502" lon="0.94377">
        <ele>299</ele>
        <time>2022-04-03T10:57:07Z</time>
      </trkpt>
      <trkpt lat="45.77505" lon="0.94368">
        <ele>298.6</ele>
        <time>2022-04-03T10:57:08Z</time>
      </trkpt>
      <trkpt lat="45.77507" lon="0.94359">
        <ele>298.2</ele>
        <time>2022-04-03T10:57:09Z</time>
      </trkpt>
      <trkpt lat="45.77509" lon="0.9435">
        <ele>297.6</ele>
        <time>2022-04-03T10:57:10Z</time>
      </trkpt>
      <trkpt lat="45.77511" lon="0.9434">
        <ele>297.2</ele>
        <time>2022-04-03T10:57:11Z</time>
      </trkpt>
      <trkpt lat="45.77512" lon="0.94331">
        <ele>296.8</ele>
        <time>2022-04-03T10:57:12Z</time>
      </trkpt>
      <trkpt lat="45.77514" lon="0.94323">
        <ele>296.8</ele>
        <time>2022-04-03T10:57:13Z</time>
      </trkpt>
      <trkpt lat="45.77517" lon="0.94314">
        <ele>296.6</ele>
        <time>2022-04-03T10:57:14Z</time>
      </trkpt>
      <trkpt lat="45.77518" lon="0.94305">
        <ele>296.4</ele>
        <time>2022-04-03T10:57:15Z</time>
      </trkpt>
      <trkpt lat="45.7752" lon="0.94297">
        <ele>296.4</ele>
        <time>2022-04-03T10:57:16Z</time>
      </trkpt>
      <trkpt lat="45.77521" lon="0.94288">
        <ele>296.4</ele>
        <time>2022-04-03T10:57:17Z</time>
      </trkpt>
      <trkpt lat="45.77522" lon="0.94279">
        <ele>296.2</ele>
        <time>2022-04-03T10:57:18Z</time>
      </trkpt>
      <trkpt lat="45.77523" lon="0.9427">
        <ele>296.2</ele>
        <time>2022-04-03T10:57:19Z</time>
      </trkpt>
      <trkpt lat="45.77524" lon="0.94261">
        <ele>296</ele>
        <time>2022-04-03T10:57:20Z</time>
      </trkpt>
      <trkpt lat="45.77524" lon="0.94252">
        <ele>295.8</ele>
        <time>2022-04-03T10:57:21Z</time>
      </trkpt>
      <trkpt lat="45.77524" lon="0.94244">
        <ele>295.8</ele>
        <time>2022-04-03T10:57:22Z</time>
      </trkpt>
      <trkpt lat="45.77524" lon="0.94235">
        <ele>295.8</ele>
        <time>2022-04-03T10:57:23Z</time>
      </trkpt>
      <trkpt lat="45.77524" lon="0.94226">
        <ele>295.8</ele>
        <time>2022-04-03T10:57:24Z</time>
      </trkpt>
      <trkpt lat="45.77524" lon="0.94217">
        <ele>295.6</ele>
        <time>2022-04-03T10:57:25Z</time>
      </trkpt>
      <trkpt lat="45.77525" lon="0.94209">
        <ele>295.6</ele>
        <time>2022-04-03T10:57:26Z</time>
      </trkpt>
      <trkpt lat="45.77525" lon="0.942">
        <ele>295.6</ele>
        <time>2022-04-03T10:57:27Z</time>
      </trkpt>
      <trkpt lat="45.77526" lon="0.94191">
        <ele>295.4</ele>
        <time>2022-04-03T10:57:28Z</time>
      </trkpt>
      <trkpt lat="45.77526" lon="0.94183">
        <ele>295.6</ele>
        <time>2022-04-03T10:57:29Z</time>
      </trkpt>
      <trkpt lat="45.77526" lon="0.94174">
        <ele>295.6</ele>
        <time>2022-04-03T10:57:30Z</time>
      </trkpt>
      <trkpt lat="45.77526" lon="0.94165">
        <ele>295.4</ele>
        <time>2022-04-03T10:57:31Z</time>
      </trkpt>
      <trkpt lat="45.77527" lon="0.94157">
        <ele>295.4</ele>
        <time>2022-04-03T10:57:32Z</time>
      </trkpt>
      <trkpt lat="45.77527" lon="0.94148">
        <ele>295.2</ele>
        <time>2022-04-03T10:57:33Z</time>
      </trkpt>
      <trkpt lat="45.77527" lon="0.94139">
        <ele>295</ele>
        <time>2022-04-03T10:57:34Z</time>
      </trkpt>
      <trkpt lat="45.77526" lon="0.94131">
        <ele>294.8</ele>
        <time>2022-04-03T10:57:35Z</time>
      </trkpt>
      <trkpt lat="45.77526" lon="0.94122">
        <ele>294.6</ele>
        <time>2022-04-03T10:57:36Z</time>
      </trkpt>
      <trkpt lat="45.77527" lon="0.94113">
        <ele>294.6</ele>
        <time>2022-04-03T10:57:37Z</time>
      </trkpt>
      <trkpt lat="45.77527" lon="0.94105">
        <ele>294.6</ele>
        <time>2022-04-03T10:57:38Z</time>
      </trkpt>
      <trkpt lat="45.77527" lon="0.94096">
        <ele>294.2</ele>
        <time>2022-04-03T10:57:39Z</time>
      </trkpt>
      <trkpt lat="45.77527" lon="0.94087">
        <ele>294.2</ele>
        <time>2022-04-03T10:57:40Z</time>
      </trkpt>
      <trkpt lat="45.77528" lon="0.94078">
        <ele>294.2</ele>
        <time>2022-04-03T10:57:41Z</time>
      </trkpt>
      <trkpt lat="45.77529" lon="0.9407">
        <ele>294</ele>
        <time>2022-04-03T10:57:42Z</time>
      </trkpt>
      <trkpt lat="45.7753" lon="0.94061">
        <ele>294</ele>
        <time>2022-04-03T10:57:43Z</time>
      </trkpt>
      <trkpt lat="45.77532" lon="0.94052">
        <ele>293.8</ele>
        <time>2022-04-03T10:57:44Z</time>
      </trkpt>
      <trkpt lat="45.77533" lon="0.94044">
        <ele>293.8</ele>
        <time>2022-04-03T10:57:45Z</time>
      </trkpt>
      <trkpt lat="45.77535" lon="0.94035">
        <ele>293.6</ele>
        <time>2022-04-03T10:57:46Z</time>
      </trkpt>
      <trkpt lat="45.77536" lon="0.94026">
        <ele>293.4</ele>
        <time>2022-04-03T10:57:47Z</time>
      </trkpt>
      <trkpt lat="45.77538" lon="0.94018">
        <ele>293.4</ele>
        <time>2022-04-03T10:57:48Z</time>
      </trkpt>
      <trkpt lat="45.7754" lon="0.94009">
        <ele>293.4</ele>
        <time>2022-04-03T10:57:49Z</time>
      </trkpt>
      <trkpt lat="45.77542" lon="0.94001">
        <ele>293.2</ele>
        <time>2022-04-03T10:57:50Z</time>
      </trkpt>
      <trkpt lat="45.77544" lon="0.93993">
        <ele>293</ele>
        <time>2022-04-03T10:57:51Z</time>
      </trkpt>
      <trkpt lat="45.77546" lon="0.93984">
        <ele>293</ele>
        <time>2022-04-03T10:57:52Z</time>
      </trkpt>
      <trkpt lat="45.77548" lon="0.93976">
        <ele>292.8</ele>
        <time>2022-04-03T10:57:53Z</time>
      </trkpt>
      <trkpt lat="45.7755" lon="0.93968">
        <ele>292.6</ele>
        <time>2022-04-03T10:57:54Z</time>
      </trkpt>
      <trkpt lat="45.77552" lon="0.9396">
        <ele>292.6</ele>
        <time>2022-04-03T10:57:55Z</time>
      </trkpt>
      <trkpt lat="45.77554" lon="0.93952">
        <ele>292.2</ele>
        <time>2022-04-03T10:57:56Z</time>
      </trkpt>
      <trkpt lat="45.77556" lon="0.93944">
        <ele>292</ele>
        <time>2022-04-03T10:57:57Z</time>
      </trkpt>
      <trkpt lat="45.77558" lon="0.93937">
        <ele>292</ele>
        <time>2022-04-03T10:57:58Z</time>
      </trkpt>
      <trkpt lat="45.7756" lon="0.93929">
        <ele>292</ele>
        <time>2022-04-03T10:57:59Z</time>
      </trkpt>
      <trkpt lat="45.77562" lon="0.93921">
        <ele>292</ele>
        <time>2022-04-03T10:58:00Z</time>
      </trkpt>
      <trkpt lat="45.77564" lon="0.93913">
        <ele>292</ele>
        <time>2022-04-03T10:58:01Z</time>
      </trkpt>
      <trkpt lat="45.77566" lon="0.93905">
        <ele>292</ele>
        <time>2022-04-03T10:58:02Z</time>
      </trkpt>
      <trkpt lat="45.77568" lon="0.93897">
        <ele>291.8</ele>
        <time>2022-04-03T10:58:03Z</time>
      </trkpt>
      <trkpt lat="45.7757" lon="0.93889">
        <ele>291.8</ele>
        <time>2022-04-03T10:58:04Z</time>
      </trkpt>
      <trkpt lat="45.77572" lon="0.93881">
        <ele>291.6</ele>
        <time>2022-04-03T10:58:05Z</time>
      </trkpt>
      <trkpt lat="45.77574" lon="0.93874">
        <ele>291.6</ele>
        <time>2022-04-03T10:58:06Z</time>
      </trkpt>
      <trkpt lat="45.77576" lon="0.93866">
        <ele>291.6</ele>
        <time>2022-04-03T10:58:07Z</time>
      </trkpt>
      <trkpt lat="45.77577" lon="0.93858">
        <ele>291.6</ele>
        <time>2022-04-03T10:58:08Z</time>
      </trkpt>
      <trkpt lat="45.77579" lon="0.9385">
        <ele>291.4</ele>
        <time>2022-04-03T10:58:09Z</time>
      </trkpt>
      <trkpt lat="45.77581" lon="0.93842">
        <ele>291.2</ele>
        <time>2022-04-03T10:58:10Z</time>
      </trkpt>
      <trkpt lat="45.77584" lon="0.93834">
        <ele>291.2</ele>
        <time>2022-04-03T10:58:11Z</time>
      </trkpt>
      <trkpt lat="45.77586" lon="0.93826">
        <ele>291</ele>
        <time>2022-04-03T10:58:12Z</time>
      </trkpt>
      <trkpt lat="45.77588" lon="0.93818">
        <ele>290.8</ele>
        <time>2022-04-03T10:58:13Z</time>
      </trkpt>
      <trkpt lat="45.7759" lon="0.9381">
        <ele>290.8</ele>
        <time>2022-04-03T10:58:14Z</time>
      </trkpt>
      <trkpt lat="45.77592" lon="0.93802">
        <ele>290.6</ele>
        <time>2022-04-03T10:58:15Z</time>
      </trkpt>
      <trkpt lat="45.77595" lon="0.93794">
        <ele>290.4</ele>
        <time>2022-04-03T10:58:16Z</time>
      </trkpt>
      <trkpt lat="45.77597" lon="0.93785">
        <ele>290.2</ele>
        <time>2022-04-03T10:58:17Z</time>
      </trkpt>
      <trkpt lat="45.77599" lon="0.93777">
        <ele>290.2</ele>
        <time>2022-04-03T10:58:18Z</time>
      </trkpt>
      <trkpt lat="45.77602" lon="0.93769">
        <ele>290.2</ele>
        <time>2022-04-03T10:58:19Z</time>
      </trkpt>
      <trkpt lat="45.77604" lon="0.93761">
        <ele>290</ele>
        <time>2022-04-03T10:58:20Z</time>
      </trkpt>
      <trkpt lat="45.77607" lon="0.93753">
        <ele>289.8</ele>
        <time>2022-04-03T10:58:21Z</time>
      </trkpt>
      <trkpt lat="45.7761" lon="0.93745">
        <ele>289.8</ele>
        <time>2022-04-03T10:58:22Z</time>
      </trkpt>
      <trkpt lat="45.77612" lon="0.93738">
        <ele>289.6</ele>
        <time>2022-04-03T10:58:23Z</time>
      </trkpt>
      <trkpt lat="45.77615" lon="0.9373">
        <ele>289.4</ele>
        <time>2022-04-03T10:58:24Z</time>
      </trkpt>
      <trkpt lat="45.77617" lon="0.93723">
        <ele>289.4</ele>
        <time>2022-04-03T10:58:25Z</time>
      </trkpt>
      <trkpt lat="45.7762" lon="0.93715">
        <ele>289.4</ele>
        <time>2022-04-03T10:58:26Z</time>
      </trkpt>
      <trkpt lat="45.77623" lon="0.93707">
        <ele>289.4</ele>
        <time>2022-04-03T10:58:27Z</time>
      </trkpt>
      <trkpt lat="45.77625" lon="0.93699">
        <ele>289.4</ele>
        <time>2022-04-03T10:58:28Z</time>
      </trkpt>
      <trkpt lat="45.77628" lon="0.93692">
        <ele>289.2</ele>
        <time>2022-04-03T10:58:29Z</time>
      </trkpt>
      <trkpt lat="45.77631" lon="0.93684">
        <ele>289.2</ele>
        <time>2022-04-03T10:58:30Z</time>
      </trkpt>
      <trkpt lat="45.77634" lon="0.93676">
        <ele>289.2</ele>
        <time>2022-04-03T10:58:31Z</time>
      </trkpt>
      <trkpt lat="45.77636" lon="0.93668">
        <ele>289.4</ele>
        <time>2022-04-03T10:58:32Z</time>
      </trkpt>
      <trkpt lat="45.77639" lon="0.9366">
        <ele>289.2</ele>
        <time>2022-04-03T10:58:33Z</time>
      </trkpt>
      <trkpt lat="45.77641" lon="0.93652">
        <ele>289</ele>
        <time>2022-04-03T10:58:34Z</time>
      </trkpt>
      <trkpt lat="45.77644" lon="0.93644">
        <ele>289.2</ele>
        <time>2022-04-03T10:58:35Z</time>
      </trkpt>
      <trkpt lat="45.77646" lon="0.93635">
        <ele>289</ele>
        <time>2022-04-03T10:58:36Z</time>
      </trkpt>
      <trkpt lat="45.77647" lon="0.93627">
        <ele>288.8</ele>
        <time>2022-04-03T10:58:37Z</time>
      </trkpt>
      <trkpt lat="45.77649" lon="0.93619">
        <ele>288.6</ele>
        <time>2022-04-03T10:58:38Z</time>
      </trkpt>
      <trkpt lat="45.7765" lon="0.93611">
        <ele>288.6</ele>
        <time>2022-04-03T10:58:39Z</time>
      </trkpt>
      <trkpt lat="45.77652" lon="0.93602">
        <ele>288.6</ele>
        <time>2022-04-03T10:58:40Z</time>
      </trkpt>
      <trkpt lat="45.77653" lon="0.93594">
        <ele>288.6</ele>
        <time>2022-04-03T10:58:41Z</time>
      </trkpt>
      <trkpt lat="45.77655" lon="0.93586">
        <ele>288.6</ele>
        <time>2022-04-03T10:58:42Z</time>
      </trkpt>
      <trkpt lat="45.77656" lon="0.93577">
        <ele>288.4</ele>
        <time>2022-04-03T10:58:43Z</time>
      </trkpt>
      <trkpt lat="45.77657" lon="0.93569">
        <ele>288.2</ele>
        <time>2022-04-03T10:58:44Z</time>
      </trkpt>
      <trkpt lat="45.77658" lon="0.9356">
        <ele>287.8</ele>
        <time>2022-04-03T10:58:45Z</time>
      </trkpt>
      <trkpt lat="45.7766" lon="0.93552">
        <ele>287.8</ele>
        <time>2022-04-03T10:58:46Z</time>
      </trkpt>
      <trkpt lat="45.77661" lon="0.93544">
        <ele>287.6</ele>
        <time>2022-04-03T10:58:47Z</time>
      </trkpt>
      <trkpt lat="45.77662" lon="0.93535">
        <ele>287.6</ele>
        <time>2022-04-03T10:58:48Z</time>
      </trkpt>
      <trkpt lat="45.77664" lon="0.93527">
        <ele>287.4</ele>
        <time>2022-04-03T10:58:49Z</time>
      </trkpt>
      <trkpt lat="45.77665" lon="0.93519">
        <ele>287.4</ele>
        <time>2022-04-03T10:58:50Z</time>
      </trkpt>
      <trkpt lat="45.77666" lon="0.93511">
        <ele>287.2</ele>
        <time>2022-04-03T10:58:51Z</time>
      </trkpt>
      <trkpt lat="45.77668" lon="0.93503">
        <ele>287.2</ele>
        <time>2022-04-03T10:58:52Z</time>
      </trkpt>
      <trkpt lat="45.77669" lon="0.93494">
        <ele>287.2</ele>
        <time>2022-04-03T10:58:53Z</time>
      </trkpt>
      <trkpt lat="45.7767" lon="0.93486">
        <ele>287</ele>
        <time>2022-04-03T10:58:54Z</time>
      </trkpt>
      <trkpt lat="45.77672" lon="0.93478">
        <ele>287</ele>
        <time>2022-04-03T10:58:55Z</time>
      </trkpt>
      <trkpt lat="45.77673" lon="0.9347">
        <ele>286.8</ele>
        <time>2022-04-03T10:58:56Z</time>
      </trkpt>
      <trkpt lat="45.77674" lon="0.93462">
        <ele>286.6</ele>
        <time>2022-04-03T10:58:57Z</time>
      </trkpt>
      <trkpt lat="45.77676" lon="0.93453">
        <ele>286.6</ele>
        <time>2022-04-03T10:58:58Z</time>
      </trkpt>
      <trkpt lat="45.77677" lon="0.93445">
        <ele>286.4</ele>
        <time>2022-04-03T10:58:59Z</time>
      </trkpt>
      <trkpt lat="45.77679" lon="0.93437">
        <ele>286.4</ele>
        <time>2022-04-03T10:59:00Z</time>
      </trkpt>
      <trkpt lat="45.7768" lon="0.93428">
        <ele>286.4</ele>
        <time>2022-04-03T10:59:01Z</time>
      </trkpt>
      <trkpt lat="45.77682" lon="0.9342">
        <ele>286</ele>
        <time>2022-04-03T10:59:02Z</time>
      </trkpt>
      <trkpt lat="45.77684" lon="0.93411">
        <ele>285.8</ele>
        <time>2022-04-03T10:59:03Z</time>
      </trkpt>
      <trkpt lat="45.77686" lon="0.93402">
        <ele>285.4</ele>
        <time>2022-04-03T10:59:04Z</time>
      </trkpt>
      <trkpt lat="45.77688" lon="0.93393">
        <ele>285.4</ele>
        <time>2022-04-03T10:59:05Z</time>
      </trkpt>
      <trkpt lat="45.7769" lon="0.93384">
        <ele>285.2</ele>
        <time>2022-04-03T10:59:06Z</time>
      </trkpt>
      <trkpt lat="45.77693" lon="0.93375">
        <ele>285</ele>
        <time>2022-04-03T10:59:07Z</time>
      </trkpt>
      <trkpt lat="45.77695" lon="0.93366">
        <ele>284.8</ele>
        <time>2022-04-03T10:59:08Z</time>
      </trkpt>
      <trkpt lat="45.77698" lon="0.93356">
        <ele>284.6</ele>
        <time>2022-04-03T10:59:09Z</time>
      </trkpt>
      <trkpt lat="45.77701" lon="0.93346">
        <ele>284.6</ele>
        <time>2022-04-03T10:59:10Z</time>
      </trkpt>
      <trkpt lat="45.77704" lon="0.93336">
        <ele>284.2</ele>
        <time>2022-04-03T10:59:11Z</time>
      </trkpt>
      <trkpt lat="45.77707" lon="0.93326">
        <ele>284.2</ele>
        <time>2022-04-03T10:59:12Z</time>
      </trkpt>
      <trkpt lat="45.7771" lon="0.93315">
        <ele>283.8</ele>
        <time>2022-04-03T10:59:13Z</time>
      </trkpt>
      <trkpt lat="45.77713" lon="0.93304">
        <ele>283.6</ele>
        <time>2022-04-03T10:59:14Z</time>
      </trkpt>
      <trkpt lat="45.77716" lon="0.93293">
        <ele>283</ele>
        <time>2022-04-03T10:59:15Z</time>
      </trkpt>
      <trkpt lat="45.7772" lon="0.93282">
        <ele>282.6</ele>
        <time>2022-04-03T10:59:16Z</time>
      </trkpt>
      <trkpt lat="45.77724" lon="0.93271">
        <ele>282.2</ele>
        <time>2022-04-03T10:59:17Z</time>
      </trkpt>
      <trkpt lat="45.77728" lon="0.9326">
        <ele>281.8</ele>
        <time>2022-04-03T10:59:18Z</time>
      </trkpt>
      <trkpt lat="45.77732" lon="0.93248">
        <ele>281.8</ele>
        <time>2022-04-03T10:59:19Z</time>
      </trkpt>
      <trkpt lat="45.77736" lon="0.93236">
        <ele>281</ele>
        <time>2022-04-03T10:59:20Z</time>
      </trkpt>
      <trkpt lat="45.7774" lon="0.93224">
        <ele>280</ele>
        <time>2022-04-03T10:59:21Z</time>
      </trkpt>
      <trkpt lat="45.77744" lon="0.93211">
        <ele>279.2</ele>
        <time>2022-04-03T10:59:22Z</time>
      </trkpt>
      <trkpt lat="45.77749" lon="0.93199">
        <ele>278.6</ele>
        <time>2022-04-03T10:59:23Z</time>
      </trkpt>
      <trkpt lat="45.77753" lon="0.93186">
        <ele>278.2</ele>
        <time>2022-04-03T10:59:24Z</time>
      </trkpt>
      <trkpt lat="45.77758" lon="0.93173">
        <ele>278</ele>
        <time>2022-04-03T10:59:25Z</time>
      </trkpt>
      <trkpt lat="45.77762" lon="0.9316">
        <ele>277</ele>
        <time>2022-04-03T10:59:26Z</time>
      </trkpt>
      <trkpt lat="45.77766" lon="0.93147">
        <ele>276.6</ele>
        <time>2022-04-03T10:59:27Z</time>
      </trkpt>
      <trkpt lat="45.77771" lon="0.93134">
        <ele>276</ele>
        <time>2022-04-03T10:59:28Z</time>
      </trkpt>
      <trkpt lat="45.77776" lon="0.9312">
        <ele>275.6</ele>
        <time>2022-04-03T10:59:29Z</time>
      </trkpt>
      <trkpt lat="45.7778" lon="0.93106">
        <ele>274.6</ele>
        <time>2022-04-03T10:59:30Z</time>
      </trkpt>
      <trkpt lat="45.77785" lon="0.93092">
        <ele>273.8</ele>
        <time>2022-04-03T10:59:31Z</time>
      </trkpt>
      <trkpt lat="45.7779" lon="0.93078">
        <ele>272.6</ele>
        <time>2022-04-03T10:59:32Z</time>
      </trkpt>
      <trkpt lat="45.77795" lon="0.93063">
        <ele>272</ele>
        <time>2022-04-03T10:59:33Z</time>
      </trkpt>
      <trkpt lat="45.778" lon="0.93048">
        <ele>271</ele>
        <time>2022-04-03T10:59:34Z</time>
      </trkpt>
      <trkpt lat="45.77805" lon="0.93033">
        <ele>269.8</ele>
        <time>2022-04-03T10:59:35Z</time>
      </trkpt>
      <trkpt lat="45.7781" lon="0.93018">
        <ele>268.2</ele>
        <time>2022-04-03T10:59:36Z</time>
      </trkpt>
      <trkpt lat="45.77816" lon="0.93003">
        <ele>267</ele>
        <time>2022-04-03T10:59:37Z</time>
      </trkpt>
      <trkpt lat="45.77821" lon="0.92987">
        <ele>267</ele>
        <time>2022-04-03T10:59:38Z</time>
      </trkpt>
      <trkpt lat="45.77826" lon="0.92972">
        <ele>266.2</ele>
        <time>2022-04-03T10:59:39Z</time>
      </trkpt>
      <trkpt lat="45.77832" lon="0.92956">
        <ele>265.2</ele>
        <time>2022-04-03T10:59:40Z</time>
      </trkpt>
      <trkpt lat="45.77837" lon="0.9294">
        <ele>263.8</ele>
        <time>2022-04-03T10:59:41Z</time>
      </trkpt>
      <trkpt lat="45.77842" lon="0.92925">
        <ele>262.4</ele>
        <time>2022-04-03T10:59:42Z</time>
      </trkpt>
      <trkpt lat="45.77846" lon="0.9291">
        <ele>260.8</ele>
        <time>2022-04-03T10:59:43Z</time>
      </trkpt>
      <trkpt lat="45.7785" lon="0.92895">
        <ele>259.2</ele>
        <time>2022-04-03T10:59:44Z</time>
      </trkpt>
      <trkpt lat="45.77854" lon="0.92881">
        <ele>258.6</ele>
        <time>2022-04-03T10:59:45Z</time>
      </trkpt>
      <trkpt lat="45.77858" lon="0.92867">
        <ele>257.4</ele>
        <time>2022-04-03T10:59:46Z</time>
      </trkpt>
      <trkpt lat="45.77862" lon="0.92854">
        <ele>256.2</ele>
        <time>2022-04-03T10:59:47Z</time>
      </trkpt>
      <trkpt lat="45.77865" lon="0.9284">
        <ele>255.4</ele>
        <time>2022-04-03T10:59:48Z</time>
      </trkpt>
      <trkpt lat="45.77868" lon="0.92828">
        <ele>255</ele>
        <time>2022-04-03T10:59:49Z</time>
      </trkpt>
      <trkpt lat="45.7787" lon="0.92815">
        <ele>254.6</ele>
        <time>2022-04-03T10:59:50Z</time>
      </trkpt>
      <trkpt lat="45.77873" lon="0.92804">
        <ele>254.4</ele>
        <time>2022-04-03T10:59:51Z</time>
      </trkpt>
      <trkpt lat="45.77874" lon="0.92792">
        <ele>254.4</ele>
        <time>2022-04-03T10:59:52Z</time>
      </trkpt>
      <trkpt lat="45.77876" lon="0.92781">
        <ele>254.4</ele>
        <time>2022-04-03T10:59:53Z</time>
      </trkpt>
      <trkpt lat="45.77877" lon="0.9277">
        <ele>254.4</ele>
        <time>2022-04-03T10:59:54Z</time>
      </trkpt>
      <trkpt lat="45.77878" lon="0.92759">
        <ele>254.4</ele>
        <time>2022-04-03T10:59:55Z</time>
      </trkpt>
      <trkpt lat="45.7788" lon="0.92749">
        <ele>254.4</ele>
        <time>2022-04-03T10:59:56Z</time>
      </trkpt>
      <trkpt lat="45.77881" lon="0.92739">
        <ele>254.4</ele>
        <time>2022-04-03T10:59:57Z</time>
      </trkpt>
      <trkpt lat="45.77882" lon="0.92729">
        <ele>254.2</ele>
        <time>2022-04-03T10:59:58Z</time>
      </trkpt>
      <trkpt lat="45.77883" lon="0.92719">
        <ele>254.6</ele>
        <time>2022-04-03T10:59:59Z</time>
      </trkpt>
      <trkpt lat="45.77884" lon="0.9271">
        <ele>254.6</ele>
        <time>2022-04-03T11:00:00Z</time>
      </trkpt>
      <trkpt lat="45.77885" lon="0.92701">
        <ele>254.6</ele>
        <time>2022-04-03T11:00:01Z</time>
      </trkpt>
      <trkpt lat="45.77886" lon="0.92692">
        <ele>255</ele>
        <time>2022-04-03T11:00:02Z</time>
      </trkpt>
      <trkpt lat="45.77887" lon="0.92684">
        <ele>255.2</ele>
        <time>2022-04-03T11:00:03Z</time>
      </trkpt>
      <trkpt lat="45.77889" lon="0.92676">
        <ele>255.8</ele>
        <time>2022-04-03T11:00:04Z</time>
      </trkpt>
      <trkpt lat="45.7789" lon="0.92668">
        <ele>256.2</ele>
        <time>2022-04-03T11:00:05Z</time>
      </trkpt>
      <trkpt lat="45.7789" lon="0.92661">
        <ele>256.6</ele>
        <time>2022-04-03T11:00:06Z</time>
      </trkpt>
      <trkpt lat="45.77891" lon="0.92655">
        <ele>256.6</ele>
        <time>2022-04-03T11:00:07Z</time>
      </trkpt>
      <trkpt lat="45.77892" lon="0.92649">
        <ele>257</ele>
        <time>2022-04-03T11:00:08Z</time>
      </trkpt>
      <trkpt lat="45.77893" lon="0.92643">
        <ele>257.2</ele>
        <time>2022-04-03T11:00:09Z</time>
      </trkpt>
      <trkpt lat="45.77893" lon="0.92638">
        <ele>257.4</ele>
        <time>2022-04-03T11:00:10Z</time>
      </trkpt>
      <trkpt lat="45.77894" lon="0.92634">
        <ele>257.6</ele>
        <time>2022-04-03T11:00:11Z</time>
      </trkpt>
      <trkpt lat="45.77894" lon="0.92629">
        <ele>258.2</ele>
        <time>2022-04-03T11:00:12Z</time>
      </trkpt>
      <trkpt lat="45.77895" lon="0.92625">
        <ele>258.4</ele>
        <time>2022-04-03T11:00:13Z</time>
      </trkpt>
      <trkpt lat="45.77895" lon="0.92621">
        <ele>258.8</ele>
        <time>2022-04-03T11:00:14Z</time>
      </trkpt>
      <trkpt lat="45.77896" lon="0.92617">
        <ele>259.4</ele>
        <time>2022-04-03T11:00:15Z</time>
      </trkpt>
      <trkpt lat="45.77896" lon="0.92613">
        <ele>259.4</ele>
        <time>2022-04-03T11:00:16Z</time>
      </trkpt>
      <trkpt lat="45.77897" lon="0.9261">
        <ele>259.6</ele>
        <time>2022-04-03T11:00:17Z</time>
      </trkpt>
      <trkpt lat="45.77897" lon="0.92606">
        <ele>260.2</ele>
        <time>2022-04-03T11:00:18Z</time>
      </trkpt>
      <trkpt lat="45.77897" lon="0.92603">
        <ele>260.4</ele>
        <time>2022-04-03T11:00:19Z</time>
      </trkpt>
      <trkpt lat="45.77898" lon="0.92599">
        <ele>260.8</ele>
        <time>2022-04-03T11:00:20Z</time>
      </trkpt>
      <trkpt lat="45.77898" lon="0.92596">
        <ele>261.4</ele>
        <time>2022-04-03T11:00:21Z</time>
      </trkpt>
      <trkpt lat="45.77898" lon="0.92593">
        <ele>261.8</ele>
        <time>2022-04-03T11:00:22Z</time>
      </trkpt>
      <trkpt lat="45.77899" lon="0.92589">
        <ele>262.2</ele>
        <time>2022-04-03T11:00:23Z</time>
      </trkpt>
      <trkpt lat="45.77899" lon="0.92586">
        <ele>262.4</ele>
        <time>2022-04-03T11:00:24Z</time>
      </trkpt>
      <trkpt lat="45.779" lon="0.92582">
        <ele>262.6</ele>
        <time>2022-04-03T11:00:25Z</time>
      </trkpt>
      <trkpt lat="45.779" lon="0.92579">
        <ele>262.8</ele>
        <time>2022-04-03T11:00:26Z</time>
      </trkpt>
      <trkpt lat="45.77901" lon="0.92576">
        <ele>263.2</ele>
        <time>2022-04-03T11:00:27Z</time>
      </trkpt>
      <trkpt lat="45.77901" lon="0.92572">
        <ele>263.4</ele>
        <time>2022-04-03T11:00:28Z</time>
      </trkpt>
      <trkpt lat="45.77902" lon="0.92569">
        <ele>263.4</ele>
        <time>2022-04-03T11:00:29Z</time>
      </trkpt>
      <trkpt lat="45.77902" lon="0.92566">
        <ele>263.6</ele>
        <time>2022-04-03T11:00:30Z</time>
      </trkpt>
      <trkpt lat="45.77903" lon="0.92562">
        <ele>263.8</ele>
        <time>2022-04-03T11:00:31Z</time>
      </trkpt>
      <trkpt lat="45.77904" lon="0.92559">
        <ele>264</ele>
        <time>2022-04-03T11:00:32Z</time>
      </trkpt>
      <trkpt lat="45.77904" lon="0.92556">
        <ele>264.4</ele>
        <time>2022-04-03T11:00:33Z</time>
      </trkpt>
      <trkpt lat="45.77904" lon="0.92552">
        <ele>264.4</ele>
        <time>2022-04-03T11:00:34Z</time>
      </trkpt>
      <trkpt lat="45.77905" lon="0.92548">
        <ele>264.4</ele>
        <time>2022-04-03T11:00:35Z</time>
      </trkpt>
      <trkpt lat="45.77905" lon="0.92545">
        <ele>264.6</ele>
        <time>2022-04-03T11:00:36Z</time>
      </trkpt>
      <trkpt lat="45.77906" lon="0.92541">
        <ele>264.6</ele>
        <time>2022-04-03T11:00:37Z</time>
      </trkpt>
      <trkpt lat="45.77906" lon="0.92538">
        <ele>264.8</ele>
        <time>2022-04-03T11:00:38Z</time>
      </trkpt>
      <trkpt lat="45.77906" lon="0.92534">
        <ele>264.8</ele>
        <time>2022-04-03T11:00:39Z</time>
      </trkpt>
      <trkpt lat="45.77907" lon="0.9253">
        <ele>264.8</ele>
        <time>2022-04-03T11:00:40Z</time>
      </trkpt>
      <trkpt lat="45.77907" lon="0.92527">
        <ele>264.8</ele>
        <time>2022-04-03T11:00:41Z</time>
      </trkpt>
      <trkpt lat="45.77908" lon="0.92523">
        <ele>265</ele>
        <time>2022-04-03T11:00:42Z</time>
      </trkpt>
      <trkpt lat="45.77908" lon="0.92519">
        <ele>265</ele>
        <time>2022-04-03T11:00:43Z</time>
      </trkpt>
      <trkpt lat="45.77909" lon="0.92516">
        <ele>265.6</ele>
        <time>2022-04-03T11:00:44Z</time>
      </trkpt>
      <trkpt lat="45.77909" lon="0.92512">
        <ele>266</ele>
        <time>2022-04-03T11:00:45Z</time>
      </trkpt>
      <trkpt lat="45.7791" lon="0.92508">
        <ele>266.2</ele>
        <time>2022-04-03T11:00:46Z</time>
      </trkpt>
      <trkpt lat="45.7791" lon="0.92505">
        <ele>266.4</ele>
        <time>2022-04-03T11:00:47Z</time>
      </trkpt>
      <trkpt lat="45.77911" lon="0.92501">
        <ele>266.4</ele>
        <time>2022-04-03T11:00:48Z</time>
      </trkpt>
      <trkpt lat="45.77911" lon="0.92498">
        <ele>266.6</ele>
        <time>2022-04-03T11:00:49Z</time>
      </trkpt>
      <trkpt lat="45.77911" lon="0.92494">
        <ele>266.6</ele>
        <time>2022-04-03T11:00:50Z</time>
      </trkpt>
      <trkpt lat="45.77912" lon="0.92491">
        <ele>266.8</ele>
        <time>2022-04-03T11:00:51Z</time>
      </trkpt>
      <trkpt lat="45.77912" lon="0.92487">
        <ele>267.2</ele>
        <time>2022-04-03T11:00:52Z</time>
      </trkpt>
      <trkpt lat="45.77913" lon="0.92484">
        <ele>267.2</ele>
        <time>2022-04-03T11:00:53Z</time>
      </trkpt>
      <trkpt lat="45.77913" lon="0.9248">
        <ele>267.2</ele>
        <time>2022-04-03T11:00:54Z</time>
      </trkpt>
      <trkpt lat="45.77914" lon="0.92477">
        <ele>267.4</ele>
        <time>2022-04-03T11:00:55Z</time>
      </trkpt>
      <trkpt lat="45.77914" lon="0.92473">
        <ele>267.6</ele>
        <time>2022-04-03T11:00:56Z</time>
      </trkpt>
      <trkpt lat="45.77915" lon="0.92469">
        <ele>267.6</ele>
        <time>2022-04-03T11:00:57Z</time>
      </trkpt>
      <trkpt lat="45.77915" lon="0.92466">
        <ele>267.6</ele>
        <time>2022-04-03T11:00:58Z</time>
      </trkpt>
      <trkpt lat="45.77916" lon="0.92462">
        <ele>267.8</ele>
        <time>2022-04-03T11:00:59Z</time>
      </trkpt>
      <trkpt lat="45.77916" lon="0.92459">
        <ele>267.8</ele>
        <time>2022-04-03T11:01:00Z</time>
      </trkpt>
      <trkpt lat="45.77916" lon="0.92455">
        <ele>268</ele>
        <time>2022-04-03T11:01:01Z</time>
      </trkpt>
      <trkpt lat="45.77917" lon="0.92452">
        <ele>268.2</ele>
        <time>2022-04-03T11:01:02Z</time>
      </trkpt>
      <trkpt lat="45.77917" lon="0.92448">
        <ele>268.4</ele>
        <time>2022-04-03T11:01:03Z</time>
      </trkpt>
      <trkpt lat="45.77918" lon="0.92444">
        <ele>268.6</ele>
        <time>2022-04-03T11:01:04Z</time>
      </trkpt>
      <trkpt lat="45.77918" lon="0.92441">
        <ele>269</ele>
        <time>2022-04-03T11:01:05Z</time>
      </trkpt>
      <trkpt lat="45.77919" lon="0.92437">
        <ele>269</ele>
        <time>2022-04-03T11:01:06Z</time>
      </trkpt>
      <trkpt lat="45.77919" lon="0.92433">
        <ele>269</ele>
        <time>2022-04-03T11:01:07Z</time>
      </trkpt>
      <trkpt lat="45.77919" lon="0.9243">
        <ele>269.2</ele>
        <time>2022-04-03T11:01:08Z</time>
      </trkpt>
      <trkpt lat="45.7792" lon="0.92426">
        <ele>269.6</ele>
        <time>2022-04-03T11:01:09Z</time>
      </trkpt>
      <trkpt lat="45.7792" lon="0.92423">
        <ele>269.4</ele>
        <time>2022-04-03T11:01:10Z</time>
      </trkpt>
      <trkpt lat="45.7792" lon="0.92419">
        <ele>269.8</ele>
        <time>2022-04-03T11:01:11Z</time>
      </trkpt>
      <trkpt lat="45.77921" lon="0.92415">
        <ele>270</ele>
        <time>2022-04-03T11:01:12Z</time>
      </trkpt>
      <trkpt lat="45.77921" lon="0.92411">
        <ele>270</ele>
        <time>2022-04-03T11:01:13Z</time>
      </trkpt>
      <trkpt lat="45.77922" lon="0.92408">
        <ele>270</ele>
        <time>2022-04-03T11:01:14Z</time>
      </trkpt>
      <trkpt lat="45.77922" lon="0.92404">
        <ele>270.4</ele>
        <time>2022-04-03T11:01:15Z</time>
      </trkpt>
      <trkpt lat="45.77923" lon="0.924">
        <ele>270.4</ele>
        <time>2022-04-03T11:01:16Z</time>
      </trkpt>
      <trkpt lat="45.77923" lon="0.92396">
        <ele>270.6</ele>
        <time>2022-04-03T11:01:17Z</time>
      </trkpt>
      <trkpt lat="45.77924" lon="0.92392">
        <ele>270.6</ele>
        <time>2022-04-03T11:01:18Z</time>
      </trkpt>
      <trkpt lat="45.77924" lon="0.92388">
        <ele>270.8</ele>
        <time>2022-04-03T11:01:19Z</time>
      </trkpt>
      <trkpt lat="45.77924" lon="0.92384">
        <ele>271</ele>
        <time>2022-04-03T11:01:20Z</time>
      </trkpt>
      <trkpt lat="45.77925" lon="0.9238">
        <ele>271.2</ele>
        <time>2022-04-03T11:01:21Z</time>
      </trkpt>
      <trkpt lat="45.77926" lon="0.92376">
        <ele>271.2</ele>
        <time>2022-04-03T11:01:22Z</time>
      </trkpt>
      <trkpt lat="45.77926" lon="0.92372">
        <ele>271.2</ele>
        <time>2022-04-03T11:01:23Z</time>
      </trkpt>
      <trkpt lat="45.77927" lon="0.92368">
        <ele>271.6</ele>
        <time>2022-04-03T11:01:24Z</time>
      </trkpt>
      <trkpt lat="45.77928" lon="0.92363">
        <ele>271.8</ele>
        <time>2022-04-03T11:01:25Z</time>
      </trkpt>
      <trkpt lat="45.77928" lon="0.92359">
        <ele>272.2</ele>
        <time>2022-04-03T11:01:26Z</time>
      </trkpt>
      <trkpt lat="45.77929" lon="0.92354">
        <ele>272.4</ele>
        <time>2022-04-03T11:01:27Z</time>
      </trkpt>
      <trkpt lat="45.7793" lon="0.9235">
        <ele>272.4</ele>
        <time>2022-04-03T11:01:28Z</time>
      </trkpt>
      <trkpt lat="45.77931" lon="0.92345">
        <ele>272.4</ele>
        <time>2022-04-03T11:01:29Z</time>
      </trkpt>
      <trkpt lat="45.77932" lon="0.92341">
        <ele>272.4</ele>
        <time>2022-04-03T11:01:30Z</time>
      </trkpt>
      <trkpt lat="45.77933" lon="0.92336">
        <ele>272.6</ele>
        <time>2022-04-03T11:01:31Z</time>
      </trkpt>
      <trkpt lat="45.77934" lon="0.92331">
        <ele>272.6</ele>
        <time>2022-04-03T11:01:32Z</time>
      </trkpt>
      <trkpt lat="45.77935" lon="0.92327">
        <ele>272.6</ele>
        <time>2022-04-03T11:01:33Z</time>
      </trkpt>
      <trkpt lat="45.77937" lon="0.92322">
        <ele>272.6</ele>
        <time>2022-04-03T11:01:34Z</time>
      </trkpt>
      <trkpt lat="45.77938" lon="0.92317">
        <ele>272.6</ele>
        <time>2022-04-03T11:01:35Z</time>
      </trkpt>
      <trkpt lat="45.77939" lon="0.92313">
        <ele>272.6</ele>
        <time>2022-04-03T11:01:36Z</time>
      </trkpt>
      <trkpt lat="45.77941" lon="0.92308">
        <ele>272.6</ele>
        <time>2022-04-03T11:01:37Z</time>
      </trkpt>
      <trkpt lat="45.77942" lon="0.92303">
        <ele>272.8</ele>
        <time>2022-04-03T11:01:38Z</time>
      </trkpt>
      <trkpt lat="45.77944" lon="0.92299">
        <ele>272.8</ele>
        <time>2022-04-03T11:01:39Z</time>
      </trkpt>
      <trkpt lat="45.77946" lon="0.92294">
        <ele>272.8</ele>
        <time>2022-04-03T11:01:40Z</time>
      </trkpt>
      <trkpt lat="45.77947" lon="0.9229">
        <ele>272.8</ele>
        <time>2022-04-03T11:01:41Z</time>
      </trkpt>
      <trkpt lat="45.77949" lon="0.92285">
        <ele>272.8</ele>
        <time>2022-04-03T11:01:42Z</time>
      </trkpt>
      <trkpt lat="45.77951" lon="0.9228">
        <ele>272.8</ele>
        <time>2022-04-03T11:01:43Z</time>
      </trkpt>
      <trkpt lat="45.77952" lon="0.92276">
        <ele>272.8</ele>
        <time>2022-04-03T11:01:44Z</time>
      </trkpt>
      <trkpt lat="45.77954" lon="0.92271">
        <ele>273</ele>
        <time>2022-04-03T11:01:45Z</time>
      </trkpt>
      <trkpt lat="45.77956" lon="0.92267">
        <ele>272.8</ele>
        <time>2022-04-03T11:01:46Z</time>
      </trkpt>
      <trkpt lat="45.77958" lon="0.92262">
        <ele>272.8</ele>
        <time>2022-04-03T11:01:47Z</time>
      </trkpt>
      <trkpt lat="45.7796" lon="0.92258">
        <ele>272.8</ele>
        <time>2022-04-03T11:01:48Z</time>
      </trkpt>
      <trkpt lat="45.77962" lon="0.92253">
        <ele>272.8</ele>
        <time>2022-04-03T11:01:49Z</time>
      </trkpt>
      <trkpt lat="45.77964" lon="0.92249">
        <ele>272.8</ele>
        <time>2022-04-03T11:01:50Z</time>
      </trkpt>
      <trkpt lat="45.77966" lon="0.92244">
        <ele>272.8</ele>
        <time>2022-04-03T11:01:51Z</time>
      </trkpt>
      <trkpt lat="45.77968" lon="0.9224">
        <ele>272.8</ele>
        <time>2022-04-03T11:01:52Z</time>
      </trkpt>
      <trkpt lat="45.7797" lon="0.92235">
        <ele>272.8</ele>
        <time>2022-04-03T11:01:53Z</time>
      </trkpt>
      <trkpt lat="45.77972" lon="0.92231">
        <ele>272.8</ele>
        <time>2022-04-03T11:01:54Z</time>
      </trkpt>
      <trkpt lat="45.77974" lon="0.92227">
        <ele>272.8</ele>
        <time>2022-04-03T11:01:55Z</time>
      </trkpt>
      <trkpt lat="45.77976" lon="0.92222">
        <ele>272.8</ele>
        <time>2022-04-03T11:01:56Z</time>
      </trkpt>
      <trkpt lat="45.77978" lon="0.92218">
        <ele>272.8</ele>
        <time>2022-04-03T11:01:57Z</time>
      </trkpt>
      <trkpt lat="45.7798" lon="0.92214">
        <ele>272.8</ele>
        <time>2022-04-03T11:01:58Z</time>
      </trkpt>
      <trkpt lat="45.77982" lon="0.92209">
        <ele>272.8</ele>
        <time>2022-04-03T11:01:59Z</time>
      </trkpt>
      <trkpt lat="45.77984" lon="0.92205">
        <ele>272.8</ele>
        <time>2022-04-03T11:02:00Z</time>
      </trkpt>
      <trkpt lat="45.77986" lon="0.92201">
        <ele>272.8</ele>
        <time>2022-04-03T11:02:01Z</time>
      </trkpt>
      <trkpt lat="45.77988" lon="0.92197">
        <ele>272.8</ele>
        <time>2022-04-03T11:02:02Z</time>
      </trkpt>
      <trkpt lat="45.7799" lon="0.92193">
        <ele>272.8</ele>
        <time>2022-04-03T11:02:03Z</time>
      </trkpt>
      <trkpt lat="45.77991" lon="0.92189">
        <ele>273</ele>
        <time>2022-04-03T11:02:04Z</time>
      </trkpt>
      <trkpt lat="45.77993" lon="0.92184">
        <ele>273</ele>
        <time>2022-04-03T11:02:05Z</time>
      </trkpt>
      <trkpt lat="45.77995" lon="0.9218">
        <ele>273</ele>
        <time>2022-04-03T11:02:06Z</time>
      </trkpt>
      <trkpt lat="45.77996" lon="0.92176">
        <ele>273.2</ele>
        <time>2022-04-03T11:02:07Z</time>
      </trkpt>
      <trkpt lat="45.77998" lon="0.92172">
        <ele>273.2</ele>
        <time>2022-04-03T11:02:08Z</time>
      </trkpt>
      <trkpt lat="45.78" lon="0.92168">
        <ele>273.2</ele>
        <time>2022-04-03T11:02:09Z</time>
      </trkpt>
      <trkpt lat="45.78002" lon="0.92164">
        <ele>273.4</ele>
        <time>2022-04-03T11:02:10Z</time>
      </trkpt>
      <trkpt lat="45.78003" lon="0.9216">
        <ele>273.4</ele>
        <time>2022-04-03T11:02:11Z</time>
      </trkpt>
      <trkpt lat="45.78005" lon="0.92156">
        <ele>273.6</ele>
        <time>2022-04-03T11:02:12Z</time>
      </trkpt>
      <trkpt lat="45.78007" lon="0.92152">
        <ele>273.8</ele>
        <time>2022-04-03T11:02:13Z</time>
      </trkpt>
      <trkpt lat="45.78009" lon="0.92148">
        <ele>273.8</ele>
        <time>2022-04-03T11:02:14Z</time>
      </trkpt>
      <trkpt lat="45.7801" lon="0.92144">
        <ele>273.8</ele>
        <time>2022-04-03T11:02:15Z</time>
      </trkpt>
      <trkpt lat="45.78012" lon="0.9214">
        <ele>274</ele>
        <time>2022-04-03T11:02:16Z</time>
      </trkpt>
      <trkpt lat="45.78014" lon="0.92136">
        <ele>274.2</ele>
        <time>2022-04-03T11:02:17Z</time>
      </trkpt>
      <trkpt lat="45.78015" lon="0.92132">
        <ele>274.4</ele>
        <time>2022-04-03T11:02:18Z</time>
      </trkpt>
      <trkpt lat="45.78017" lon="0.92128">
        <ele>274.4</ele>
        <time>2022-04-03T11:02:19Z</time>
      </trkpt>
      <trkpt lat="45.78018" lon="0.92124">
        <ele>274.8</ele>
        <time>2022-04-03T11:02:20Z</time>
      </trkpt>
      <trkpt lat="45.7802" lon="0.9212">
        <ele>274.8</ele>
        <time>2022-04-03T11:02:21Z</time>
      </trkpt>
      <trkpt lat="45.78021" lon="0.92116">
        <ele>275</ele>
        <time>2022-04-03T11:02:22Z</time>
      </trkpt>
      <trkpt lat="45.78023" lon="0.92111">
        <ele>275</ele>
        <time>2022-04-03T11:02:23Z</time>
      </trkpt>
      <trkpt lat="45.78024" lon="0.92107">
        <ele>275.4</ele>
        <time>2022-04-03T11:02:24Z</time>
      </trkpt>
      <trkpt lat="45.78025" lon="0.92103">
        <ele>275.6</ele>
        <time>2022-04-03T11:02:25Z</time>
      </trkpt>
      <trkpt lat="45.78027" lon="0.92099">
        <ele>275.6</ele>
        <time>2022-04-03T11:02:26Z</time>
      </trkpt>
      <trkpt lat="45.78028" lon="0.92095">
        <ele>276</ele>
        <time>2022-04-03T11:02:27Z</time>
      </trkpt>
      <trkpt lat="45.78029" lon="0.92091">
        <ele>276.2</ele>
        <time>2022-04-03T11:02:28Z</time>
      </trkpt>
      <trkpt lat="45.7803" lon="0.92087">
        <ele>276.2</ele>
        <time>2022-04-03T11:02:29Z</time>
      </trkpt>
      <trkpt lat="45.78032" lon="0.92083">
        <ele>276.2</ele>
        <time>2022-04-03T11:02:30Z</time>
      </trkpt>
      <trkpt lat="45.78033" lon="0.92079">
        <ele>276.2</ele>
        <time>2022-04-03T11:02:31Z</time>
      </trkpt>
      <trkpt lat="45.78034" lon="0.92075">
        <ele>276.8</ele>
        <time>2022-04-03T11:02:32Z</time>
      </trkpt>
      <trkpt lat="45.78035" lon="0.92071">
        <ele>276.8</ele>
        <time>2022-04-03T11:02:33Z</time>
      </trkpt>
      <trkpt lat="45.78036" lon="0.92066">
        <ele>277</ele>
        <time>2022-04-03T11:02:34Z</time>
      </trkpt>
      <trkpt lat="45.78037" lon="0.92062">
        <ele>277.2</ele>
        <time>2022-04-03T11:02:35Z</time>
      </trkpt>
      <trkpt lat="45.78038" lon="0.92058">
        <ele>277.4</ele>
        <time>2022-04-03T11:02:36Z</time>
      </trkpt>
      <trkpt lat="45.78039" lon="0.92054">
        <ele>277.6</ele>
        <time>2022-04-03T11:02:37Z</time>
      </trkpt>
      <trkpt lat="45.7804" lon="0.9205">
        <ele>277.8</ele>
        <time>2022-04-03T11:02:38Z</time>
      </trkpt>
      <trkpt lat="45.78042" lon="0.92045">
        <ele>278.2</ele>
        <time>2022-04-03T11:02:39Z</time>
      </trkpt>
      <trkpt lat="45.78043" lon="0.92041">
        <ele>278</ele>
        <time>2022-04-03T11:02:40Z</time>
      </trkpt>
      <trkpt lat="45.78044" lon="0.92037">
        <ele>278.4</ele>
        <time>2022-04-03T11:02:41Z</time>
      </trkpt>
      <trkpt lat="45.78044" lon="0.92033">
        <ele>278.6</ele>
        <time>2022-04-03T11:02:42Z</time>
      </trkpt>
      <trkpt lat="45.78045" lon="0.92028">
        <ele>278.8</ele>
        <time>2022-04-03T11:02:43Z</time>
      </trkpt>
      <trkpt lat="45.78047" lon="0.92024">
        <ele>279.2</ele>
        <time>2022-04-03T11:02:44Z</time>
      </trkpt>
      <trkpt lat="45.78048" lon="0.9202">
        <ele>279.4</ele>
        <time>2022-04-03T11:02:45Z</time>
      </trkpt>
      <trkpt lat="45.78049" lon="0.92016">
        <ele>279.4</ele>
        <time>2022-04-03T11:02:46Z</time>
      </trkpt>
      <trkpt lat="45.7805" lon="0.92011">
        <ele>279.6</ele>
        <time>2022-04-03T11:02:47Z</time>
      </trkpt>
      <trkpt lat="45.78051" lon="0.92007">
        <ele>279.6</ele>
        <time>2022-04-03T11:02:48Z</time>
      </trkpt>
      <trkpt lat="45.78052" lon="0.92003">
        <ele>279.6</ele>
        <time>2022-04-03T11:02:49Z</time>
      </trkpt>
      <trkpt lat="45.78053" lon="0.91998">
        <ele>279.8</ele>
        <time>2022-04-03T11:02:50Z</time>
      </trkpt>
      <trkpt lat="45.78054" lon="0.91994">
        <ele>279.8</ele>
        <time>2022-04-03T11:02:51Z</time>
      </trkpt>
      <trkpt lat="45.78055" lon="0.9199">
        <ele>280</ele>
        <time>2022-04-03T11:02:52Z</time>
      </trkpt>
      <trkpt lat="45.78056" lon="0.91986">
        <ele>280.2</ele>
        <time>2022-04-03T11:02:53Z</time>
      </trkpt>
      <trkpt lat="45.78058" lon="0.91981">
        <ele>280.4</ele>
        <time>2022-04-03T11:02:54Z</time>
      </trkpt>
      <trkpt lat="45.78059" lon="0.91977">
        <ele>280.6</ele>
        <time>2022-04-03T11:02:55Z</time>
      </trkpt>
      <trkpt lat="45.7806" lon="0.91973">
        <ele>280.8</ele>
        <time>2022-04-03T11:02:56Z</time>
      </trkpt>
      <trkpt lat="45.78061" lon="0.91969">
        <ele>280.8</ele>
        <time>2022-04-03T11:02:57Z</time>
      </trkpt>
      <trkpt lat="45.78062" lon="0.91965">
        <ele>280.8</ele>
        <time>2022-04-03T11:02:58Z</time>
      </trkpt>
      <trkpt lat="45.78063" lon="0.91961">
        <ele>281</ele>
        <time>2022-04-03T11:02:59Z</time>
      </trkpt>
      <trkpt lat="45.78064" lon="0.91957">
        <ele>281.2</ele>
        <time>2022-04-03T11:03:00Z</time>
      </trkpt>
      <trkpt lat="45.78065" lon="0.91952">
        <ele>281.4</ele>
        <time>2022-04-03T11:03:01Z</time>
      </trkpt>
      <trkpt lat="45.78066" lon="0.91948">
        <ele>281.6</ele>
        <time>2022-04-03T11:03:02Z</time>
      </trkpt>
      <trkpt lat="45.78067" lon="0.91944">
        <ele>281.8</ele>
        <time>2022-04-03T11:03:03Z</time>
      </trkpt>
      <trkpt lat="45.78068" lon="0.9194">
        <ele>281.8</ele>
        <time>2022-04-03T11:03:04Z</time>
      </trkpt>
      <trkpt lat="45.78069" lon="0.91936">
        <ele>282.2</ele>
        <time>2022-04-03T11:03:05Z</time>
      </trkpt>
      <trkpt lat="45.7807" lon="0.91931">
        <ele>282.4</ele>
        <time>2022-04-03T11:03:06Z</time>
      </trkpt>
      <trkpt lat="45.78071" lon="0.91927">
        <ele>282.4</ele>
        <time>2022-04-03T11:03:07Z</time>
      </trkpt>
      <trkpt lat="45.78072" lon="0.91923">
        <ele>282.4</ele>
        <time>2022-04-03T11:03:08Z</time>
      </trkpt>
      <trkpt lat="45.78073" lon="0.91919">
        <ele>282.6</ele>
        <time>2022-04-03T11:03:09Z</time>
      </trkpt>
      <trkpt lat="45.78074" lon="0.91915">
        <ele>282.8</ele>
        <time>2022-04-03T11:03:10Z</time>
      </trkpt>
      <trkpt lat="45.78075" lon="0.9191">
        <ele>283</ele>
        <time>2022-04-03T11:03:11Z</time>
      </trkpt>
      <trkpt lat="45.78076" lon="0.91906">
        <ele>283</ele>
        <time>2022-04-03T11:03:12Z</time>
      </trkpt>
      <trkpt lat="45.78078" lon="0.91902">
        <ele>283.2</ele>
        <time>2022-04-03T11:03:13Z</time>
      </trkpt>
      <trkpt lat="45.78079" lon="0.91898">
        <ele>283.4</ele>
        <time>2022-04-03T11:03:14Z</time>
      </trkpt>
      <trkpt lat="45.7808" lon="0.91894">
        <ele>283.6</ele>
        <time>2022-04-03T11:03:15Z</time>
      </trkpt>
      <trkpt lat="45.78081" lon="0.91889">
        <ele>283.8</ele>
        <time>2022-04-03T11:03:16Z</time>
      </trkpt>
      <trkpt lat="45.78082" lon="0.91885">
        <ele>283.8</ele>
        <time>2022-04-03T11:03:17Z</time>
      </trkpt>
      <trkpt lat="45.78083" lon="0.91881">
        <ele>284</ele>
        <time>2022-04-03T11:03:18Z</time>
      </trkpt>
      <trkpt lat="45.78084" lon="0.91877">
        <ele>284.2</ele>
        <time>2022-04-03T11:03:19Z</time>
      </trkpt>
      <trkpt lat="45.78085" lon="0.91872">
        <ele>284</ele>
        <time>2022-04-03T11:03:20Z</time>
      </trkpt>
      <trkpt lat="45.78086" lon="0.91868">
        <ele>284.2</ele>
        <time>2022-04-03T11:03:21Z</time>
      </trkpt>
      <trkpt lat="45.78087" lon="0.91864">
        <ele>284.6</ele>
        <time>2022-04-03T11:03:22Z</time>
      </trkpt>
      <trkpt lat="45.78088" lon="0.9186">
        <ele>284.8</ele>
        <time>2022-04-03T11:03:23Z</time>
      </trkpt>
      <trkpt lat="45.7809" lon="0.91855">
        <ele>285</ele>
        <time>2022-04-03T11:03:24Z</time>
      </trkpt>
      <trkpt lat="45.78091" lon="0.91851">
        <ele>285.2</ele>
        <time>2022-04-03T11:03:25Z</time>
      </trkpt>
      <trkpt lat="45.78092" lon="0.91847">
        <ele>285.4</ele>
        <time>2022-04-03T11:03:26Z</time>
      </trkpt>
      <trkpt lat="45.78093" lon="0.91843">
        <ele>285.4</ele>
        <time>2022-04-03T11:03:27Z</time>
      </trkpt>
      <trkpt lat="45.78094" lon="0.91838">
        <ele>285.6</ele>
        <time>2022-04-03T11:03:28Z</time>
      </trkpt>
      <trkpt lat="45.78095" lon="0.91834">
        <ele>285.8</ele>
        <time>2022-04-03T11:03:29Z</time>
      </trkpt>
      <trkpt lat="45.78096" lon="0.9183">
        <ele>285.8</ele>
        <time>2022-04-03T11:03:30Z</time>
      </trkpt>
      <trkpt lat="45.78097" lon="0.91826">
        <ele>286</ele>
        <time>2022-04-03T11:03:31Z</time>
      </trkpt>
      <trkpt lat="45.78098" lon="0.91822">
        <ele>286</ele>
        <time>2022-04-03T11:03:32Z</time>
      </trkpt>
      <trkpt lat="45.78099" lon="0.91818">
        <ele>286.4</ele>
        <time>2022-04-03T11:03:33Z</time>
      </trkpt>
      <trkpt lat="45.781" lon="0.91814">
        <ele>286.6</ele>
        <time>2022-04-03T11:03:34Z</time>
      </trkpt>
      <trkpt lat="45.78101" lon="0.91809">
        <ele>286.6</ele>
        <time>2022-04-03T11:03:35Z</time>
      </trkpt>
      <trkpt lat="45.78102" lon="0.91805">
        <ele>286.8</ele>
        <time>2022-04-03T11:03:36Z</time>
      </trkpt>
      <trkpt lat="45.78104" lon="0.91801">
        <ele>287</ele>
        <time>2022-04-03T11:03:37Z</time>
      </trkpt>
      <trkpt lat="45.78105" lon="0.91797">
        <ele>287</ele>
        <time>2022-04-03T11:03:38Z</time>
      </trkpt>
      <trkpt lat="45.78106" lon="0.91793">
        <ele>287.4</ele>
        <time>2022-04-03T11:03:39Z</time>
      </trkpt>
      <trkpt lat="45.78107" lon="0.91789">
        <ele>287.6</ele>
        <time>2022-04-03T11:03:40Z</time>
      </trkpt>
      <trkpt lat="45.78108" lon="0.91784">
        <ele>287.8</ele>
        <time>2022-04-03T11:03:41Z</time>
      </trkpt>
      <trkpt lat="45.78109" lon="0.9178">
        <ele>288</ele>
        <time>2022-04-03T11:03:42Z</time>
      </trkpt>
      <trkpt lat="45.7811" lon="0.91776">
        <ele>288.2</ele>
        <time>2022-04-03T11:03:43Z</time>
      </trkpt>
      <trkpt lat="45.78112" lon="0.91772">
        <ele>288.6</ele>
        <time>2022-04-03T11:03:44Z</time>
      </trkpt>
      <trkpt lat="45.78113" lon="0.91767">
        <ele>288.8</ele>
        <time>2022-04-03T11:03:45Z</time>
      </trkpt>
      <trkpt lat="45.78114" lon="0.91763">
        <ele>288.8</ele>
        <time>2022-04-03T11:03:46Z</time>
      </trkpt>
      <trkpt lat="45.78115" lon="0.91759">
        <ele>289.2</ele>
        <time>2022-04-03T11:03:47Z</time>
      </trkpt>
      <trkpt lat="45.78116" lon="0.91754">
        <ele>289.4</ele>
        <time>2022-04-03T11:03:48Z</time>
      </trkpt>
      <trkpt lat="45.78118" lon="0.9175">
        <ele>289.4</ele>
        <time>2022-04-03T11:03:49Z</time>
      </trkpt>
      <trkpt lat="45.78119" lon="0.91746">
        <ele>289.4</ele>
        <time>2022-04-03T11:03:50Z</time>
      </trkpt>
      <trkpt lat="45.7812" lon="0.91742">
        <ele>289.8</ele>
        <time>2022-04-03T11:03:51Z</time>
      </trkpt>
      <trkpt lat="45.78121" lon="0.91738">
        <ele>289.8</ele>
        <time>2022-04-03T11:03:52Z</time>
      </trkpt>
      <trkpt lat="45.78123" lon="0.91734">
        <ele>290</ele>
        <time>2022-04-03T11:03:53Z</time>
      </trkpt>
      <trkpt lat="45.78124" lon="0.9173">
        <ele>290.2</ele>
        <time>2022-04-03T11:03:54Z</time>
      </trkpt>
      <trkpt lat="45.78125" lon="0.91726">
        <ele>290.4</ele>
        <time>2022-04-03T11:03:55Z</time>
      </trkpt>
      <trkpt lat="45.78127" lon="0.91721">
        <ele>290.2</ele>
        <time>2022-04-03T11:03:56Z</time>
      </trkpt>
      <trkpt lat="45.78128" lon="0.91717">
        <ele>290.4</ele>
        <time>2022-04-03T11:03:57Z</time>
      </trkpt>
      <trkpt lat="45.7813" lon="0.91713">
        <ele>290.6</ele>
        <time>2022-04-03T11:03:58Z</time>
      </trkpt>
      <trkpt lat="45.78131" lon="0.91709">
        <ele>290.6</ele>
        <time>2022-04-03T11:03:59Z</time>
      </trkpt>
      <trkpt lat="45.78133" lon="0.91705">
        <ele>290.6</ele>
        <time>2022-04-03T11:04:00Z</time>
      </trkpt>
      <trkpt lat="45.78134" lon="0.917">
        <ele>290.8</ele>
        <time>2022-04-03T11:04:01Z</time>
      </trkpt>
      <trkpt lat="45.78136" lon="0.91696">
        <ele>290.8</ele>
        <time>2022-04-03T11:04:02Z</time>
      </trkpt>
      <trkpt lat="45.78138" lon="0.91692">
        <ele>290.8</ele>
        <time>2022-04-03T11:04:03Z</time>
      </trkpt>
      <trkpt lat="45.78139" lon="0.91688">
        <ele>291</ele>
        <time>2022-04-03T11:04:04Z</time>
      </trkpt>
      <trkpt lat="45.78141" lon="0.91684">
        <ele>291</ele>
        <time>2022-04-03T11:04:05Z</time>
      </trkpt>
      <trkpt lat="45.78142" lon="0.91679">
        <ele>291</ele>
        <time>2022-04-03T11:04:06Z</time>
      </trkpt>
      <trkpt lat="45.78143" lon="0.91675">
        <ele>291.4</ele>
        <time>2022-04-03T11:04:07Z</time>
      </trkpt>
      <trkpt lat="45.78145" lon="0.91671">
        <ele>291.2</ele>
        <time>2022-04-03T11:04:08Z</time>
      </trkpt>
      <trkpt lat="45.78147" lon="0.91667">
        <ele>291.4</ele>
        <time>2022-04-03T11:04:09Z</time>
      </trkpt>
      <trkpt lat="45.78148" lon="0.91662">
        <ele>291.4</ele>
        <time>2022-04-03T11:04:10Z</time>
      </trkpt>
      <trkpt lat="45.7815" lon="0.91658">
        <ele>291.6</ele>
        <time>2022-04-03T11:04:11Z</time>
      </trkpt>
      <trkpt lat="45.78152" lon="0.91654">
        <ele>291.8</ele>
        <time>2022-04-03T11:04:12Z</time>
      </trkpt>
      <trkpt lat="45.78154" lon="0.9165">
        <ele>292.2</ele>
        <time>2022-04-03T11:04:13Z</time>
      </trkpt>
      <trkpt lat="45.78155" lon="0.91646">
        <ele>292.4</ele>
        <time>2022-04-03T11:04:14Z</time>
      </trkpt>
      <trkpt lat="45.78157" lon="0.91642">
        <ele>292.4</ele>
        <time>2022-04-03T11:04:15Z</time>
      </trkpt>
      <trkpt lat="45.78158" lon="0.91638">
        <ele>292.4</ele>
        <time>2022-04-03T11:04:16Z</time>
      </trkpt>
      <trkpt lat="45.7816" lon="0.91634">
        <ele>292.4</ele>
        <time>2022-04-03T11:04:17Z</time>
      </trkpt>
      <trkpt lat="45.78162" lon="0.91629">
        <ele>292.4</ele>
        <time>2022-04-03T11:04:18Z</time>
      </trkpt>
      <trkpt lat="45.78163" lon="0.91625">
        <ele>292.6</ele>
        <time>2022-04-03T11:04:19Z</time>
      </trkpt>
      <trkpt lat="45.78165" lon="0.91621">
        <ele>292.6</ele>
        <time>2022-04-03T11:04:20Z</time>
      </trkpt>
      <trkpt lat="45.78166" lon="0.91617">
        <ele>292.6</ele>
        <time>2022-04-03T11:04:21Z</time>
      </trkpt>
      <trkpt lat="45.78168" lon="0.91613">
        <ele>292.8</ele>
        <time>2022-04-03T11:04:22Z</time>
      </trkpt>
      <trkpt lat="45.78169" lon="0.91609">
        <ele>292.8</ele>
        <time>2022-04-03T11:04:23Z</time>
      </trkpt>
      <trkpt lat="45.78171" lon="0.91605">
        <ele>293</ele>
        <time>2022-04-03T11:04:24Z</time>
      </trkpt>
      <trkpt lat="45.78173" lon="0.91601">
        <ele>293</ele>
        <time>2022-04-03T11:04:25Z</time>
      </trkpt>
      <trkpt lat="45.78174" lon="0.91597">
        <ele>293</ele>
        <time>2022-04-03T11:04:26Z</time>
      </trkpt>
      <trkpt lat="45.78176" lon="0.91593">
        <ele>293.4</ele>
        <time>2022-04-03T11:04:27Z</time>
      </trkpt>
      <trkpt lat="45.78178" lon="0.91589">
        <ele>293.4</ele>
        <time>2022-04-03T11:04:28Z</time>
      </trkpt>
      <trkpt lat="45.78179" lon="0.91585">
        <ele>293.6</ele>
        <time>2022-04-03T11:04:29Z</time>
      </trkpt>
      <trkpt lat="45.78181" lon="0.91581">
        <ele>293.8</ele>
        <time>2022-04-03T11:04:30Z</time>
      </trkpt>
      <trkpt lat="45.78182" lon="0.91577">
        <ele>294</ele>
        <time>2022-04-03T11:04:31Z</time>
      </trkpt>
      <trkpt lat="45.78184" lon="0.91573">
        <ele>294</ele>
        <time>2022-04-03T11:04:32Z</time>
      </trkpt>
      <trkpt lat="45.78186" lon="0.91569">
        <ele>294.2</ele>
        <time>2022-04-03T11:04:33Z</time>
      </trkpt>
      <trkpt lat="45.78187" lon="0.91565">
        <ele>294.2</ele>
        <time>2022-04-03T11:04:34Z</time>
      </trkpt>
      <trkpt lat="45.78189" lon="0.91561">
        <ele>294.2</ele>
        <time>2022-04-03T11:04:35Z</time>
      </trkpt>
      <trkpt lat="45.7819" lon="0.91557">
        <ele>294.4</ele>
        <time>2022-04-03T11:04:36Z</time>
      </trkpt>
      <trkpt lat="45.78192" lon="0.91553">
        <ele>294.4</ele>
        <time>2022-04-03T11:04:37Z</time>
      </trkpt>
      <trkpt lat="45.78194" lon="0.91549">
        <ele>294.6</ele>
        <time>2022-04-03T11:04:38Z</time>
      </trkpt>
      <trkpt lat="45.78195" lon="0.91545">
        <ele>294.8</ele>
        <time>2022-04-03T11:04:39Z</time>
      </trkpt>
      <trkpt lat="45.78197" lon="0.91541">
        <ele>295</ele>
        <time>2022-04-03T11:04:40Z</time>
      </trkpt>
      <trkpt lat="45.78198" lon="0.91537">
        <ele>295.2</ele>
        <time>2022-04-03T11:04:41Z</time>
      </trkpt>
      <trkpt lat="45.782" lon="0.91533">
        <ele>295.4</ele>
        <time>2022-04-03T11:04:42Z</time>
      </trkpt>
      <trkpt lat="45.78201" lon="0.91529">
        <ele>295.6</ele>
        <time>2022-04-03T11:04:43Z</time>
      </trkpt>
      <trkpt lat="45.78203" lon="0.91525">
        <ele>295.6</ele>
        <time>2022-04-03T11:04:44Z</time>
      </trkpt>
      <trkpt lat="45.78204" lon="0.91521">
        <ele>296</ele>
        <time>2022-04-03T11:04:45Z</time>
      </trkpt>
      <trkpt lat="45.78206" lon="0.91517">
        <ele>296</ele>
        <time>2022-04-03T11:04:46Z</time>
      </trkpt>
      <trkpt lat="45.78207" lon="0.91513">
        <ele>296</ele>
        <time>2022-04-03T11:04:47Z</time>
      </trkpt>
      <trkpt lat="45.78209" lon="0.91509">
        <ele>296.2</ele>
        <time>2022-04-03T11:04:48Z</time>
      </trkpt>
      <trkpt lat="45.7821" lon="0.91505">
        <ele>296.4</ele>
        <time>2022-04-03T11:04:49Z</time>
      </trkpt>
      <trkpt lat="45.78211" lon="0.91501">
        <ele>296.2</ele>
        <time>2022-04-03T11:04:50Z</time>
      </trkpt>
      <trkpt lat="45.78213" lon="0.91497">
        <ele>296.4</ele>
        <time>2022-04-03T11:04:51Z</time>
      </trkpt>
      <trkpt lat="45.78214" lon="0.91493">
        <ele>296.4</ele>
        <time>2022-04-03T11:04:52Z</time>
      </trkpt>
      <trkpt lat="45.78216" lon="0.91488">
        <ele>296.6</ele>
        <time>2022-04-03T11:04:53Z</time>
      </trkpt>
      <trkpt lat="45.78217" lon="0.91484">
        <ele>296.4</ele>
        <time>2022-04-03T11:04:54Z</time>
      </trkpt>
      <trkpt lat="45.78218" lon="0.9148">
        <ele>296.6</ele>
        <time>2022-04-03T11:04:55Z</time>
      </trkpt>
      <trkpt lat="45.78219" lon="0.91475">
        <ele>296.8</ele>
        <time>2022-04-03T11:04:56Z</time>
      </trkpt>
      <trkpt lat="45.7822" lon="0.91471">
        <ele>296.8</ele>
        <time>2022-04-03T11:04:57Z</time>
      </trkpt>
      <trkpt lat="45.78221" lon="0.91467">
        <ele>297</ele>
        <time>2022-04-03T11:04:58Z</time>
      </trkpt>
      <trkpt lat="45.78223" lon="0.91462">
        <ele>297</ele>
        <time>2022-04-03T11:04:59Z</time>
      </trkpt>
      <trkpt lat="45.78224" lon="0.91458">
        <ele>297.2</ele>
        <time>2022-04-03T11:05:00Z</time>
      </trkpt>
      <trkpt lat="45.78225" lon="0.91453">
        <ele>297.2</ele>
        <time>2022-04-03T11:05:01Z</time>
      </trkpt>
      <trkpt lat="45.78226" lon="0.91448">
        <ele>297.2</ele>
        <time>2022-04-03T11:05:02Z</time>
      </trkpt>
      <trkpt lat="45.78227" lon="0.91443">
        <ele>297.2</ele>
        <time>2022-04-03T11:05:03Z</time>
      </trkpt>
      <trkpt lat="45.78228" lon="0.91438">
        <ele>297.4</ele>
        <time>2022-04-03T11:05:04Z</time>
      </trkpt>
      <trkpt lat="45.78229" lon="0.91433">
        <ele>297.6</ele>
        <time>2022-04-03T11:05:05Z</time>
      </trkpt>
      <trkpt lat="45.7823" lon="0.91428">
        <ele>297.8</ele>
        <time>2022-04-03T11:05:06Z</time>
      </trkpt>
      <trkpt lat="45.78231" lon="0.91423">
        <ele>297.8</ele>
        <time>2022-04-03T11:05:07Z</time>
      </trkpt>
      <trkpt lat="45.78232" lon="0.91418">
        <ele>298</ele>
        <time>2022-04-03T11:05:08Z</time>
      </trkpt>
      <trkpt lat="45.78233" lon="0.91413">
        <ele>298</ele>
        <time>2022-04-03T11:05:09Z</time>
      </trkpt>
      <trkpt lat="45.78234" lon="0.91408">
        <ele>298.2</ele>
        <time>2022-04-03T11:05:10Z</time>
      </trkpt>
      <trkpt lat="45.78235" lon="0.91403">
        <ele>298.2</ele>
        <time>2022-04-03T11:05:11Z</time>
      </trkpt>
      <trkpt lat="45.78236" lon="0.91398">
        <ele>298.2</ele>
        <time>2022-04-03T11:05:12Z</time>
      </trkpt>
      <trkpt lat="45.78237" lon="0.91393">
        <ele>298.2</ele>
        <time>2022-04-03T11:05:13Z</time>
      </trkpt>
      <trkpt lat="45.78239" lon="0.91388">
        <ele>298.2</ele>
        <time>2022-04-03T11:05:14Z</time>
      </trkpt>
      <trkpt lat="45.7824" lon="0.91382">
        <ele>298.2</ele>
        <time>2022-04-03T11:05:15Z</time>
      </trkpt>
      <trkpt lat="45.78241" lon="0.91377">
        <ele>298.4</ele>
        <time>2022-04-03T11:05:16Z</time>
      </trkpt>
      <trkpt lat="45.78242" lon="0.91372">
        <ele>298.2</ele>
        <time>2022-04-03T11:05:17Z</time>
      </trkpt>
      <trkpt lat="45.78243" lon="0.91367">
        <ele>298.2</ele>
        <time>2022-04-03T11:05:18Z</time>
      </trkpt>
      <trkpt lat="45.78244" lon="0.91362">
        <ele>298.2</ele>
        <time>2022-04-03T11:05:19Z</time>
      </trkpt>
      <trkpt lat="45.78245" lon="0.91356">
        <ele>298.4</ele>
        <time>2022-04-03T11:05:20Z</time>
      </trkpt>
      <trkpt lat="45.78246" lon="0.91351">
        <ele>298.4</ele>
        <time>2022-04-03T11:05:21Z</time>
      </trkpt>
      <trkpt lat="45.78247" lon="0.91346">
        <ele>298.4</ele>
        <time>2022-04-03T11:05:22Z</time>
      </trkpt>
      <trkpt lat="45.78248" lon="0.91341">
        <ele>298.2</ele>
        <time>2022-04-03T11:05:23Z</time>
      </trkpt>
      <trkpt lat="45.7825" lon="0.91337">
        <ele>298.2</ele>
        <time>2022-04-03T11:05:24Z</time>
      </trkpt>
      <trkpt lat="45.78251" lon="0.91332">
        <ele>298.2</ele>
        <time>2022-04-03T11:05:25Z</time>
      </trkpt>
      <trkpt lat="45.78252" lon="0.91327">
        <ele>298.2</ele>
        <time>2022-04-03T11:05:26Z</time>
      </trkpt>
      <trkpt lat="45.78253" lon="0.91322">
        <ele>298</ele>
        <time>2022-04-03T11:05:27Z</time>
      </trkpt>
      <trkpt lat="45.78255" lon="0.91317">
        <ele>298</ele>
        <time>2022-04-03T11:05:28Z</time>
      </trkpt>
      <trkpt lat="45.78256" lon="0.91312">
        <ele>298</ele>
        <time>2022-04-03T11:05:29Z</time>
      </trkpt>
      <trkpt lat="45.78257" lon="0.91308">
        <ele>298</ele>
        <time>2022-04-03T11:05:30Z</time>
      </trkpt>
      <trkpt lat="45.78258" lon="0.91303">
        <ele>298</ele>
        <time>2022-04-03T11:05:31Z</time>
      </trkpt>
      <trkpt lat="45.78259" lon="0.91298">
        <ele>298</ele>
        <time>2022-04-03T11:05:32Z</time>
      </trkpt>
      <trkpt lat="45.78261" lon="0.91294">
        <ele>298.2</ele>
        <time>2022-04-03T11:05:33Z</time>
      </trkpt>
      <trkpt lat="45.78262" lon="0.91289">
        <ele>298.2</ele>
        <time>2022-04-03T11:05:34Z</time>
      </trkpt>
      <trkpt lat="45.78263" lon="0.91284">
        <ele>298.2</ele>
        <time>2022-04-03T11:05:35Z</time>
      </trkpt>
      <trkpt lat="45.78264" lon="0.91279">
        <ele>298.4</ele>
        <time>2022-04-03T11:05:36Z</time>
      </trkpt>
      <trkpt lat="45.78265" lon="0.91275">
        <ele>298.4</ele>
        <time>2022-04-03T11:05:37Z</time>
      </trkpt>
      <trkpt lat="45.78267" lon="0.9127">
        <ele>298.4</ele>
        <time>2022-04-03T11:05:38Z</time>
      </trkpt>
      <trkpt lat="45.78268" lon="0.91266">
        <ele>298.4</ele>
        <time>2022-04-03T11:05:39Z</time>
      </trkpt>
      <trkpt lat="45.78269" lon="0.91261">
        <ele>298.6</ele>
        <time>2022-04-03T11:05:40Z</time>
      </trkpt>
      <trkpt lat="45.7827" lon="0.91257">
        <ele>298.6</ele>
        <time>2022-04-03T11:05:41Z</time>
      </trkpt>
      <trkpt lat="45.78271" lon="0.91253">
        <ele>299</ele>
        <time>2022-04-03T11:05:42Z</time>
      </trkpt>
      <trkpt lat="45.78273" lon="0.91249">
        <ele>299.2</ele>
        <time>2022-04-03T11:05:43Z</time>
      </trkpt>
      <trkpt lat="45.78274" lon="0.91244">
        <ele>299.4</ele>
        <time>2022-04-03T11:05:44Z</time>
      </trkpt>
      <trkpt lat="45.78275" lon="0.9124">
        <ele>299.6</ele>
        <time>2022-04-03T11:05:45Z</time>
      </trkpt>
      <trkpt lat="45.78276" lon="0.91236">
        <ele>299.8</ele>
        <time>2022-04-03T11:05:46Z</time>
      </trkpt>
      <trkpt lat="45.78277" lon="0.91232">
        <ele>300</ele>
        <time>2022-04-03T11:05:47Z</time>
      </trkpt>
      <trkpt lat="45.78278" lon="0.91228">
        <ele>300</ele>
        <time>2022-04-03T11:05:48Z</time>
      </trkpt>
      <trkpt lat="45.7828" lon="0.91224">
        <ele>300.2</ele>
        <time>2022-04-03T11:05:49Z</time>
      </trkpt>
      <trkpt lat="45.78281" lon="0.9122">
        <ele>300.6</ele>
        <time>2022-04-03T11:05:50Z</time>
      </trkpt>
      <trkpt lat="45.78282" lon="0.91215">
        <ele>300.6</ele>
        <time>2022-04-03T11:05:51Z</time>
      </trkpt>
      <trkpt lat="45.78283" lon="0.91211">
        <ele>300.6</ele>
        <time>2022-04-03T11:05:52Z</time>
      </trkpt>
      <trkpt lat="45.78284" lon="0.91207">
        <ele>300.6</ele>
        <time>2022-04-03T11:05:53Z</time>
      </trkpt>
      <trkpt lat="45.78286" lon="0.91203">
        <ele>300.8</ele>
        <time>2022-04-03T11:05:54Z</time>
      </trkpt>
      <trkpt lat="45.78287" lon="0.91199">
        <ele>300.8</ele>
        <time>2022-04-03T11:05:55Z</time>
      </trkpt>
      <trkpt lat="45.78288" lon="0.91195">
        <ele>300.8</ele>
        <time>2022-04-03T11:05:56Z</time>
      </trkpt>
      <trkpt lat="45.78289" lon="0.91191">
        <ele>301</ele>
        <time>2022-04-03T11:05:57Z</time>
      </trkpt>
      <trkpt lat="45.7829" lon="0.91187">
        <ele>301.2</ele>
        <time>2022-04-03T11:05:58Z</time>
      </trkpt>
      <trkpt lat="45.78291" lon="0.91183">
        <ele>301.4</ele>
        <time>2022-04-03T11:05:59Z</time>
      </trkpt>
      <trkpt lat="45.78292" lon="0.91179">
        <ele>301.6</ele>
        <time>2022-04-03T11:06:00Z</time>
      </trkpt>
      <trkpt lat="45.78293" lon="0.91175">
        <ele>301.6</ele>
        <time>2022-04-03T11:06:01Z</time>
      </trkpt>
      <trkpt lat="45.78294" lon="0.91171">
        <ele>301.6</ele>
        <time>2022-04-03T11:06:02Z</time>
      </trkpt>
      <trkpt lat="45.78296" lon="0.91167">
        <ele>302</ele>
        <time>2022-04-03T11:06:03Z</time>
      </trkpt>
      <trkpt lat="45.78297" lon="0.91163">
        <ele>302.2</ele>
        <time>2022-04-03T11:06:04Z</time>
      </trkpt>
      <trkpt lat="45.78298" lon="0.91159">
        <ele>302.4</ele>
        <time>2022-04-03T11:06:05Z</time>
      </trkpt>
      <trkpt lat="45.78299" lon="0.91155">
        <ele>302.4</ele>
        <time>2022-04-03T11:06:06Z</time>
      </trkpt>
      <trkpt lat="45.783" lon="0.91151">
        <ele>302.6</ele>
        <time>2022-04-03T11:06:07Z</time>
      </trkpt>
      <trkpt lat="45.78301" lon="0.91146">
        <ele>302.6</ele>
        <time>2022-04-03T11:06:08Z</time>
      </trkpt>
      <trkpt lat="45.78302" lon="0.91142">
        <ele>302.8</ele>
        <time>2022-04-03T11:06:09Z</time>
      </trkpt>
      <trkpt lat="45.78304" lon="0.91138">
        <ele>303.4</ele>
        <time>2022-04-03T11:06:10Z</time>
      </trkpt>
      <trkpt lat="45.78305" lon="0.91134">
        <ele>303.4</ele>
        <time>2022-04-03T11:06:11Z</time>
      </trkpt>
      <trkpt lat="45.78306" lon="0.9113">
        <ele>303.8</ele>
        <time>2022-04-03T11:06:12Z</time>
      </trkpt>
      <trkpt lat="45.78307" lon="0.91126">
        <ele>303.8</ele>
        <time>2022-04-03T11:06:13Z</time>
      </trkpt>
      <trkpt lat="45.78308" lon="0.91121">
        <ele>304</ele>
        <time>2022-04-03T11:06:14Z</time>
      </trkpt>
      <trkpt lat="45.78309" lon="0.91117">
        <ele>304.2</ele>
        <time>2022-04-03T11:06:15Z</time>
      </trkpt>
      <trkpt lat="45.78311" lon="0.91113">
        <ele>304.4</ele>
        <time>2022-04-03T11:06:16Z</time>
      </trkpt>
      <trkpt lat="45.78312" lon="0.91109">
        <ele>304.6</ele>
        <time>2022-04-03T11:06:17Z</time>
      </trkpt>
      <trkpt lat="45.78313" lon="0.91105">
        <ele>304.4</ele>
        <time>2022-04-03T11:06:18Z</time>
      </trkpt>
      <trkpt lat="45.78314" lon="0.91101">
        <ele>304.8</ele>
        <time>2022-04-03T11:06:19Z</time>
      </trkpt>
      <trkpt lat="45.78316" lon="0.91097">
        <ele>305</ele>
        <time>2022-04-03T11:06:20Z</time>
      </trkpt>
      <trkpt lat="45.78317" lon="0.91092">
        <ele>305</ele>
        <time>2022-04-03T11:06:21Z</time>
      </trkpt>
      <trkpt lat="45.78318" lon="0.91088">
        <ele>305.2</ele>
        <time>2022-04-03T11:06:22Z</time>
      </trkpt>
      <trkpt lat="45.78319" lon="0.91084">
        <ele>305.4</ele>
        <time>2022-04-03T11:06:23Z</time>
      </trkpt>
      <trkpt lat="45.78321" lon="0.9108">
        <ele>305.6</ele>
        <time>2022-04-03T11:06:24Z</time>
      </trkpt>
      <trkpt lat="45.78322" lon="0.91076">
        <ele>305.8</ele>
        <time>2022-04-03T11:06:25Z</time>
      </trkpt>
      <trkpt lat="45.78323" lon="0.91072">
        <ele>306</ele>
        <time>2022-04-03T11:06:26Z</time>
      </trkpt>
      <trkpt lat="45.78325" lon="0.91068">
        <ele>306</ele>
        <time>2022-04-03T11:06:27Z</time>
      </trkpt>
      <trkpt lat="45.78326" lon="0.91064">
        <ele>306.4</ele>
        <time>2022-04-03T11:06:28Z</time>
      </trkpt>
      <trkpt lat="45.78328" lon="0.9106">
        <ele>306.2</ele>
        <time>2022-04-03T11:06:29Z</time>
      </trkpt>
      <trkpt lat="45.78329" lon="0.91057">
        <ele>306.2</ele>
        <time>2022-04-03T11:06:30Z</time>
      </trkpt>
      <trkpt lat="45.78331" lon="0.91053">
        <ele>306.4</ele>
        <time>2022-04-03T11:06:31Z</time>
      </trkpt>
      <trkpt lat="45.78332" lon="0.91049">
        <ele>306.4</ele>
        <time>2022-04-03T11:06:32Z</time>
      </trkpt>
      <trkpt lat="45.78334" lon="0.91046">
        <ele>306.8</ele>
        <time>2022-04-03T11:06:33Z</time>
      </trkpt>
      <trkpt lat="45.78336" lon="0.91043">
        <ele>307.2</ele>
        <time>2022-04-03T11:06:34Z</time>
      </trkpt>
      <trkpt lat="45.78338" lon="0.91039">
        <ele>307.2</ele>
        <time>2022-04-03T11:06:35Z</time>
      </trkpt>
      <trkpt lat="45.7834" lon="0.91036">
        <ele>307.8</ele>
        <time>2022-04-03T11:06:36Z</time>
      </trkpt>
      <trkpt lat="45.78343" lon="0.91032">
        <ele>308</ele>
        <time>2022-04-03T11:06:37Z</time>
      </trkpt>
      <trkpt lat="45.78345" lon="0.91029">
        <ele>308.2</ele>
        <time>2022-04-03T11:06:38Z</time>
      </trkpt>
      <trkpt lat="45.78347" lon="0.91026">
        <ele>308.2</ele>
        <time>2022-04-03T11:06:39Z</time>
      </trkpt>
      <trkpt lat="45.78349" lon="0.91023">
        <ele>308.2</ele>
        <time>2022-04-03T11:06:40Z</time>
      </trkpt>
      <trkpt lat="45.78351" lon="0.91019">
        <ele>308.2</ele>
        <time>2022-04-03T11:06:41Z</time>
      </trkpt>
      <trkpt lat="45.78354" lon="0.91017">
        <ele>308.4</ele>
        <time>2022-04-03T11:06:42Z</time>
      </trkpt>
      <trkpt lat="45.78356" lon="0.91014">
        <ele>308.6</ele>
        <time>2022-04-03T11:06:43Z</time>
      </trkpt>
      <trkpt lat="45.78358" lon="0.9101">
        <ele>308.8</ele>
        <time>2022-04-03T11:06:44Z</time>
      </trkpt>
      <trkpt lat="45.7836" lon="0.91007">
        <ele>309</ele>
        <time>2022-04-03T11:06:45Z</time>
      </trkpt>
      <trkpt lat="45.78362" lon="0.91004">
        <ele>309.2</ele>
        <time>2022-04-03T11:06:46Z</time>
      </trkpt>
      <trkpt lat="45.78365" lon="0.91001">
        <ele>309.2</ele>
        <time>2022-04-03T11:06:47Z</time>
      </trkpt>
      <trkpt lat="45.78367" lon="0.90998">
        <ele>309.6</ele>
        <time>2022-04-03T11:06:48Z</time>
      </trkpt>
      <trkpt lat="45.7837" lon="0.90996">
        <ele>309.6</ele>
        <time>2022-04-03T11:06:49Z</time>
      </trkpt>
      <trkpt lat="45.78372" lon="0.90993">
        <ele>309.6</ele>
        <time>2022-04-03T11:06:50Z</time>
      </trkpt>
      <trkpt lat="45.78374" lon="0.9099">
        <ele>309.8</ele>
        <time>2022-04-03T11:06:51Z</time>
      </trkpt>
      <trkpt lat="45.78376" lon="0.90987">
        <ele>310</ele>
        <time>2022-04-03T11:06:52Z</time>
      </trkpt>
      <trkpt lat="45.78379" lon="0.90984">
        <ele>310.2</ele>
        <time>2022-04-03T11:06:53Z</time>
      </trkpt>
      <trkpt lat="45.78381" lon="0.90982">
        <ele>310.6</ele>
        <time>2022-04-03T11:06:54Z</time>
      </trkpt>
      <trkpt lat="45.78383" lon="0.90979">
        <ele>310.6</ele>
        <time>2022-04-03T11:06:55Z</time>
      </trkpt>
      <trkpt lat="45.78385" lon="0.90976">
        <ele>311</ele>
        <time>2022-04-03T11:06:56Z</time>
      </trkpt>
      <trkpt lat="45.78388" lon="0.90973">
        <ele>311.2</ele>
        <time>2022-04-03T11:06:57Z</time>
      </trkpt>
      <trkpt lat="45.7839" lon="0.9097">
        <ele>311.2</ele>
        <time>2022-04-03T11:06:58Z</time>
      </trkpt>
      <trkpt lat="45.78393" lon="0.90967">
        <ele>311.2</ele>
        <time>2022-04-03T11:06:59Z</time>
      </trkpt>
      <trkpt lat="45.78395" lon="0.90964">
        <ele>311.4</ele>
        <time>2022-04-03T11:07:00Z</time>
      </trkpt>
      <trkpt lat="45.78397" lon="0.90961">
        <ele>311.4</ele>
        <time>2022-04-03T11:07:01Z</time>
      </trkpt>
      <trkpt lat="45.784" lon="0.90958">
        <ele>311.4</ele>
        <time>2022-04-03T11:07:02Z</time>
      </trkpt>
      <trkpt lat="45.78402" lon="0.90955">
        <ele>311.6</ele>
        <time>2022-04-03T11:07:03Z</time>
      </trkpt>
      <trkpt lat="45.78404" lon="0.90952">
        <ele>311.6</ele>
        <time>2022-04-03T11:07:04Z</time>
      </trkpt>
      <trkpt lat="45.78406" lon="0.90949">
        <ele>311.6</ele>
        <time>2022-04-03T11:07:05Z</time>
      </trkpt>
      <trkpt lat="45.78409" lon="0.90946">
        <ele>311.8</ele>
        <time>2022-04-03T11:07:06Z</time>
      </trkpt>
      <trkpt lat="45.78411" lon="0.90943">
        <ele>312</ele>
        <time>2022-04-03T11:07:07Z</time>
      </trkpt>
      <trkpt lat="45.78414" lon="0.9094">
        <ele>311.8</ele>
        <time>2022-04-03T11:07:08Z</time>
      </trkpt>
      <trkpt lat="45.78416" lon="0.90937">
        <ele>312</ele>
        <time>2022-04-03T11:07:09Z</time>
      </trkpt>
      <trkpt lat="45.78419" lon="0.90934">
        <ele>312</ele>
        <time>2022-04-03T11:07:10Z</time>
      </trkpt>
      <trkpt lat="45.78421" lon="0.90931">
        <ele>312.2</ele>
        <time>2022-04-03T11:07:11Z</time>
      </trkpt>
      <trkpt lat="45.78424" lon="0.90927">
        <ele>312</ele>
        <time>2022-04-03T11:07:12Z</time>
      </trkpt>
      <trkpt lat="45.78426" lon="0.90924">
        <ele>312.2</ele>
        <time>2022-04-03T11:07:13Z</time>
      </trkpt>
      <trkpt lat="45.78429" lon="0.9092">
        <ele>312.6</ele>
        <time>2022-04-03T11:07:14Z</time>
      </trkpt>
      <trkpt lat="45.78431" lon="0.90916">
        <ele>312.8</ele>
        <time>2022-04-03T11:07:15Z</time>
      </trkpt>
      <trkpt lat="45.78433" lon="0.90912">
        <ele>313.2</ele>
        <time>2022-04-03T11:07:16Z</time>
      </trkpt>
      <trkpt lat="45.78436" lon="0.90907">
        <ele>313.2</ele>
        <time>2022-04-03T11:07:17Z</time>
      </trkpt>
      <trkpt lat="45.78438" lon="0.90903">
        <ele>313.2</ele>
        <time>2022-04-03T11:07:18Z</time>
      </trkpt>
      <trkpt lat="45.7844" lon="0.90899">
        <ele>313.4</ele>
        <time>2022-04-03T11:07:19Z</time>
      </trkpt>
      <trkpt lat="45.78443" lon="0.90894">
        <ele>313.4</ele>
        <time>2022-04-03T11:07:20Z</time>
      </trkpt>
      <trkpt lat="45.78445" lon="0.90889">
        <ele>313.6</ele>
        <time>2022-04-03T11:07:21Z</time>
      </trkpt>
      <trkpt lat="45.78448" lon="0.90884">
        <ele>313.6</ele>
        <time>2022-04-03T11:07:22Z</time>
      </trkpt>
      <trkpt lat="45.7845" lon="0.90879">
        <ele>313.6</ele>
        <time>2022-04-03T11:07:23Z</time>
      </trkpt>
      <trkpt lat="45.78452" lon="0.90874">
        <ele>313.8</ele>
        <time>2022-04-03T11:07:24Z</time>
      </trkpt>
      <trkpt lat="45.78454" lon="0.90868">
        <ele>313.8</ele>
        <time>2022-04-03T11:07:25Z</time>
      </trkpt>
      <trkpt lat="45.78456" lon="0.90863">
        <ele>313.8</ele>
        <time>2022-04-03T11:07:26Z</time>
      </trkpt>
      <trkpt lat="45.78458" lon="0.90857">
        <ele>314</ele>
        <time>2022-04-03T11:07:27Z</time>
      </trkpt>
      <trkpt lat="45.7846" lon="0.9085">
        <ele>313.8</ele>
        <time>2022-04-03T11:07:28Z</time>
      </trkpt>
      <trkpt lat="45.78462" lon="0.90844">
        <ele>314</ele>
        <time>2022-04-03T11:07:29Z</time>
      </trkpt>
      <trkpt lat="45.78463" lon="0.90838">
        <ele>313.8</ele>
        <time>2022-04-03T11:07:30Z</time>
      </trkpt>
      <trkpt lat="45.78465" lon="0.90832">
        <ele>314</ele>
        <time>2022-04-03T11:07:31Z</time>
      </trkpt>
      <trkpt lat="45.78468" lon="0.90826">
        <ele>313.8</ele>
        <time>2022-04-03T11:07:32Z</time>
      </trkpt>
      <trkpt lat="45.7847" lon="0.90819">
        <ele>313.8</ele>
        <time>2022-04-03T11:07:33Z</time>
      </trkpt>
      <trkpt lat="45.78472" lon="0.90813">
        <ele>313.8</ele>
        <time>2022-04-03T11:07:34Z</time>
      </trkpt>
      <trkpt lat="45.78475" lon="0.90807">
        <ele>313.8</ele>
        <time>2022-04-03T11:07:35Z</time>
      </trkpt>
      <trkpt lat="45.78477" lon="0.908">
        <ele>313.6</ele>
        <time>2022-04-03T11:07:36Z</time>
      </trkpt>
      <trkpt lat="45.7848" lon="0.90794">
        <ele>313.6</ele>
        <time>2022-04-03T11:07:37Z</time>
      </trkpt>
      <trkpt lat="45.78482" lon="0.90787">
        <ele>313.6</ele>
        <time>2022-04-03T11:07:38Z</time>
      </trkpt>
      <trkpt lat="45.78485" lon="0.90781">
        <ele>313.6</ele>
        <time>2022-04-03T11:07:39Z</time>
      </trkpt>
      <trkpt lat="45.78488" lon="0.90776">
        <ele>313.4</ele>
        <time>2022-04-03T11:07:40Z</time>
      </trkpt>
      <trkpt lat="45.78491" lon="0.9077">
        <ele>313.2</ele>
        <time>2022-04-03T11:07:41Z</time>
      </trkpt>
      <trkpt lat="45.78494" lon="0.90764">
        <ele>312.8</ele>
        <time>2022-04-03T11:07:42Z</time>
      </trkpt>
      <trkpt lat="45.78498" lon="0.90759">
        <ele>312.6</ele>
        <time>2022-04-03T11:07:43Z</time>
      </trkpt>
      <trkpt lat="45.78501" lon="0.90754">
        <ele>312.4</ele>
        <time>2022-04-03T11:07:44Z</time>
      </trkpt>
      <trkpt lat="45.78506" lon="0.90749">
        <ele>312.2</ele>
        <time>2022-04-03T11:07:45Z</time>
      </trkpt>
      <trkpt lat="45.7851" lon="0.90744">
        <ele>311.8</ele>
        <time>2022-04-03T11:07:46Z</time>
      </trkpt>
      <trkpt lat="45.78516" lon="0.9074">
        <ele>311.4</ele>
        <time>2022-04-03T11:07:47Z</time>
      </trkpt>
      <trkpt lat="45.78521" lon="0.90736">
        <ele>311.4</ele>
        <time>2022-04-03T11:07:48Z</time>
      </trkpt>
      <trkpt lat="45.78527" lon="0.90731">
        <ele>311.2</ele>
        <time>2022-04-03T11:07:49Z</time>
      </trkpt>
      <trkpt lat="45.78532" lon="0.90726">
        <ele>311.2</ele>
        <time>2022-04-03T11:07:50Z</time>
      </trkpt>
      <trkpt lat="45.78538" lon="0.90721">
        <ele>311</ele>
        <time>2022-04-03T11:07:51Z</time>
      </trkpt>
      <trkpt lat="45.78544" lon="0.90716">
        <ele>311</ele>
        <time>2022-04-03T11:07:52Z</time>
      </trkpt>
      <trkpt lat="45.7855" lon="0.90712">
        <ele>310.4</ele>
        <time>2022-04-03T11:07:53Z</time>
      </trkpt>
      <trkpt lat="45.78556" lon="0.90707">
        <ele>309.8</ele>
        <time>2022-04-03T11:07:54Z</time>
      </trkpt>
      <trkpt lat="45.78561" lon="0.90702">
        <ele>309</ele>
        <time>2022-04-03T11:07:55Z</time>
      </trkpt>
      <trkpt lat="45.78567" lon="0.90696">
        <ele>309</ele>
        <time>2022-04-03T11:07:56Z</time>
      </trkpt>
      <trkpt lat="45.78573" lon="0.90691">
        <ele>308.6</ele>
        <time>2022-04-03T11:07:57Z</time>
      </trkpt>
      <trkpt lat="45.78578" lon="0.90684">
        <ele>308.4</ele>
        <time>2022-04-03T11:07:58Z</time>
      </trkpt>
      <trkpt lat="45.78584" lon="0.90678">
        <ele>307.8</ele>
        <time>2022-04-03T11:07:59Z</time>
      </trkpt>
      <trkpt lat="45.78589" lon="0.90672">
        <ele>307.6</ele>
        <time>2022-04-03T11:08:00Z</time>
      </trkpt>
      <trkpt lat="45.78595" lon="0.90665">
        <ele>307.4</ele>
        <time>2022-04-03T11:08:01Z</time>
      </trkpt>
      <trkpt lat="45.786" lon="0.90658">
        <ele>307.4</ele>
        <time>2022-04-03T11:08:02Z</time>
      </trkpt>
      <trkpt lat="45.78606" lon="0.9065">
        <ele>307.2</ele>
        <time>2022-04-03T11:08:03Z</time>
      </trkpt>
      <trkpt lat="45.78611" lon="0.90643">
        <ele>307</ele>
        <time>2022-04-03T11:08:04Z</time>
      </trkpt>
      <trkpt lat="45.78617" lon="0.90636">
        <ele>306.8</ele>
        <time>2022-04-03T11:08:05Z</time>
      </trkpt>
      <trkpt lat="45.78622" lon="0.90628">
        <ele>306.6</ele>
        <time>2022-04-03T11:08:06Z</time>
      </trkpt>
      <trkpt lat="45.78628" lon="0.90619">
        <ele>306.4</ele>
        <time>2022-04-03T11:08:07Z</time>
      </trkpt>
      <trkpt lat="45.78633" lon="0.90611">
        <ele>306.4</ele>
        <time>2022-04-03T11:08:08Z</time>
      </trkpt>
      <trkpt lat="45.78638" lon="0.90601">
        <ele>306.2</ele>
        <time>2022-04-03T11:08:09Z</time>
      </trkpt>
      <trkpt lat="45.78643" lon="0.90592">
        <ele>305.2</ele>
        <time>2022-04-03T11:08:10Z</time>
      </trkpt>
      <trkpt lat="45.78648" lon="0.90583">
        <ele>304.2</ele>
        <time>2022-04-03T11:08:11Z</time>
      </trkpt>
      <trkpt lat="45.78653" lon="0.90574">
        <ele>303.4</ele>
        <time>2022-04-03T11:08:12Z</time>
      </trkpt>
      <trkpt lat="45.78659" lon="0.90565">
        <ele>302.8</ele>
        <time>2022-04-03T11:08:13Z</time>
      </trkpt>
      <trkpt lat="45.78664" lon="0.90556">
        <ele>302.2</ele>
        <time>2022-04-03T11:08:14Z</time>
      </trkpt>
      <trkpt lat="45.7867" lon="0.90546">
        <ele>302</ele>
        <time>2022-04-03T11:08:15Z</time>
      </trkpt>
      <trkpt lat="45.78676" lon="0.90537">
        <ele>302</ele>
        <time>2022-04-03T11:08:16Z</time>
      </trkpt>
      <trkpt lat="45.78682" lon="0.90528">
        <ele>301.6</ele>
        <time>2022-04-03T11:08:17Z</time>
      </trkpt>
      <trkpt lat="45.78688" lon="0.90518">
        <ele>301.2</ele>
        <time>2022-04-03T11:08:18Z</time>
      </trkpt>
      <trkpt lat="45.78694" lon="0.90509">
        <ele>300.4</ele>
        <time>2022-04-03T11:08:19Z</time>
      </trkpt>
      <trkpt lat="45.787" lon="0.905">
        <ele>300</ele>
        <time>2022-04-03T11:08:20Z</time>
      </trkpt>
      <trkpt lat="45.78706" lon="0.90491">
        <ele>299.4</ele>
        <time>2022-04-03T11:08:21Z</time>
      </trkpt>
      <trkpt lat="45.78712" lon="0.90482">
        <ele>299.2</ele>
        <time>2022-04-03T11:08:22Z</time>
      </trkpt>
      <trkpt lat="45.78718" lon="0.90472">
        <ele>299</ele>
        <time>2022-04-03T11:08:23Z</time>
      </trkpt>
      <trkpt lat="45.78725" lon="0.90463">
        <ele>298.8</ele>
        <time>2022-04-03T11:08:24Z</time>
      </trkpt>
      <trkpt lat="45.78731" lon="0.90453">
        <ele>298.4</ele>
        <time>2022-04-03T11:08:25Z</time>
      </trkpt>
      <trkpt lat="45.78737" lon="0.90444">
        <ele>298.4</ele>
        <time>2022-04-03T11:08:26Z</time>
      </trkpt>
      <trkpt lat="45.78743" lon="0.90434">
        <ele>298</ele>
        <time>2022-04-03T11:08:27Z</time>
      </trkpt>
      <trkpt lat="45.7875" lon="0.90424">
        <ele>297.4</ele>
        <time>2022-04-03T11:08:28Z</time>
      </trkpt>
      <trkpt lat="45.78756" lon="0.90413">
        <ele>296.6</ele>
        <time>2022-04-03T11:08:29Z</time>
      </trkpt>
      <trkpt lat="45.78762" lon="0.90402">
        <ele>296</ele>
        <time>2022-04-03T11:08:30Z</time>
      </trkpt>
      <trkpt lat="45.78768" lon="0.90391">
        <ele>295.2</ele>
        <time>2022-04-03T11:08:31Z</time>
      </trkpt>
      <trkpt lat="45.78774" lon="0.9038">
        <ele>294.8</ele>
        <time>2022-04-03T11:08:32Z</time>
      </trkpt>
      <trkpt lat="45.7878" lon="0.90368">
        <ele>294</ele>
        <time>2022-04-03T11:08:33Z</time>
      </trkpt>
      <trkpt lat="45.78785" lon="0.90356">
        <ele>293.2</ele>
        <time>2022-04-03T11:08:34Z</time>
      </trkpt>
      <trkpt lat="45.78791" lon="0.90344">
        <ele>293.2</ele>
        <time>2022-04-03T11:08:35Z</time>
      </trkpt>
      <trkpt lat="45.78796" lon="0.90332">
        <ele>292.6</ele>
        <time>2022-04-03T11:08:36Z</time>
      </trkpt>
      <trkpt lat="45.78802" lon="0.9032">
        <ele>292.4</ele>
        <time>2022-04-03T11:08:37Z</time>
      </trkpt>
      <trkpt lat="45.78807" lon="0.90308">
        <ele>291.6</ele>
        <time>2022-04-03T11:08:38Z</time>
      </trkpt>
      <trkpt lat="45.78812" lon="0.90296">
        <ele>290.8</ele>
        <time>2022-04-03T11:08:39Z</time>
      </trkpt>
      <trkpt lat="45.78817" lon="0.90284">
        <ele>290</ele>
        <time>2022-04-03T11:08:40Z</time>
      </trkpt>
      <trkpt lat="45.78822" lon="0.90272">
        <ele>289.6</ele>
        <time>2022-04-03T11:08:41Z</time>
      </trkpt>
      <trkpt lat="45.78826" lon="0.90261">
        <ele>288.8</ele>
        <time>2022-04-03T11:08:42Z</time>
      </trkpt>
      <trkpt lat="45.78831" lon="0.9025">
        <ele>288.2</ele>
        <time>2022-04-03T11:08:43Z</time>
      </trkpt>
      <trkpt lat="45.78836" lon="0.90239">
        <ele>287.4</ele>
        <time>2022-04-03T11:08:44Z</time>
      </trkpt>
      <trkpt lat="45.7884" lon="0.90228">
        <ele>287</ele>
        <time>2022-04-03T11:08:45Z</time>
      </trkpt>
      <trkpt lat="45.78845" lon="0.90217">
        <ele>286.8</ele>
        <time>2022-04-03T11:08:46Z</time>
      </trkpt>
      <trkpt lat="45.78849" lon="0.90206">
        <ele>286</ele>
        <time>2022-04-03T11:08:47Z</time>
      </trkpt>
      <trkpt lat="45.78854" lon="0.90196">
        <ele>285.8</ele>
        <time>2022-04-03T11:08:48Z</time>
      </trkpt>
      <trkpt lat="45.78858" lon="0.90186">
        <ele>285.4</ele>
        <time>2022-04-03T11:08:49Z</time>
      </trkpt>
      <trkpt lat="45.78862" lon="0.90175">
        <ele>285.2</ele>
        <time>2022-04-03T11:08:50Z</time>
      </trkpt>
      <trkpt lat="45.78867" lon="0.90165">
        <ele>285</ele>
        <time>2022-04-03T11:08:51Z</time>
      </trkpt>
      <trkpt lat="45.78871" lon="0.90155">
        <ele>284.8</ele>
        <time>2022-04-03T11:08:52Z</time>
      </trkpt>
      <trkpt lat="45.78875" lon="0.90145">
        <ele>284.2</ele>
        <time>2022-04-03T11:08:53Z</time>
      </trkpt>
      <trkpt lat="45.78879" lon="0.90135">
        <ele>284.2</ele>
        <time>2022-04-03T11:08:54Z</time>
      </trkpt>
      <trkpt lat="45.78883" lon="0.90125">
        <ele>283.8</ele>
        <time>2022-04-03T11:08:55Z</time>
      </trkpt>
      <trkpt lat="45.78887" lon="0.90116">
        <ele>283.8</ele>
        <time>2022-04-03T11:08:56Z</time>
      </trkpt>
      <trkpt lat="45.78891" lon="0.90106">
        <ele>283.6</ele>
        <time>2022-04-03T11:08:57Z</time>
      </trkpt>
      <trkpt lat="45.78895" lon="0.90097">
        <ele>283.4</ele>
        <time>2022-04-03T11:08:58Z</time>
      </trkpt>
      <trkpt lat="45.78899" lon="0.90088">
        <ele>283</ele>
        <time>2022-04-03T11:08:59Z</time>
      </trkpt>
      <trkpt lat="45.78903" lon="0.90079">
        <ele>283</ele>
        <time>2022-04-03T11:09:00Z</time>
      </trkpt>
      <trkpt lat="45.78906" lon="0.90071">
        <ele>282.8</ele>
        <time>2022-04-03T11:09:01Z</time>
      </trkpt>
      <trkpt lat="45.78909" lon="0.90063">
        <ele>282.6</ele>
        <time>2022-04-03T11:09:02Z</time>
      </trkpt>
      <trkpt lat="45.78913" lon="0.90056">
        <ele>282.6</ele>
        <time>2022-04-03T11:09:03Z</time>
      </trkpt>
      <trkpt lat="45.78915" lon="0.90049">
        <ele>282.4</ele>
        <time>2022-04-03T11:09:04Z</time>
      </trkpt>
      <trkpt lat="45.78918" lon="0.90042">
        <ele>282.6</ele>
        <time>2022-04-03T11:09:05Z</time>
      </trkpt>
      <trkpt lat="45.78921" lon="0.90035">
        <ele>282.6</ele>
        <time>2022-04-03T11:09:06Z</time>
      </trkpt>
      <trkpt lat="45.78923" lon="0.90029">
        <ele>282.6</ele>
        <time>2022-04-03T11:09:07Z</time>
      </trkpt>
      <trkpt lat="45.78926" lon="0.90023">
        <ele>282.6</ele>
        <time>2022-04-03T11:09:08Z</time>
      </trkpt>
      <trkpt lat="45.78928" lon="0.90017">
        <ele>282.8</ele>
        <time>2022-04-03T11:09:09Z</time>
      </trkpt>
      <trkpt lat="45.78931" lon="0.90011">
        <ele>282.8</ele>
        <time>2022-04-03T11:09:10Z</time>
      </trkpt>
      <trkpt lat="45.78933" lon="0.90006">
        <ele>283</ele>
        <time>2022-04-03T11:09:11Z</time>
      </trkpt>
      <trkpt lat="45.78935" lon="0.90001">
        <ele>283</ele>
        <time>2022-04-03T11:09:12Z</time>
      </trkpt>
      <trkpt lat="45.78938" lon="0.89995">
        <ele>283</ele>
        <time>2022-04-03T11:09:13Z</time>
      </trkpt>
      <trkpt lat="45.78941" lon="0.89991">
        <ele>283</ele>
        <time>2022-04-03T11:09:14Z</time>
      </trkpt>
      <trkpt lat="45.78944" lon="0.89986">
        <ele>283.2</ele>
        <time>2022-04-03T11:09:15Z</time>
      </trkpt>
      <trkpt lat="45.78946" lon="0.8998">
        <ele>283.6</ele>
        <time>2022-04-03T11:09:16Z</time>
      </trkpt>
      <trkpt lat="45.78949" lon="0.89975">
        <ele>283.8</ele>
        <time>2022-04-03T11:09:17Z</time>
      </trkpt>
      <trkpt lat="45.78952" lon="0.8997">
        <ele>284</ele>
        <time>2022-04-03T11:09:18Z</time>
      </trkpt>
      <trkpt lat="45.78955" lon="0.89965">
        <ele>284.2</ele>
        <time>2022-04-03T11:09:19Z</time>
      </trkpt>
      <trkpt lat="45.78958" lon="0.8996">
        <ele>284.2</ele>
        <time>2022-04-03T11:09:20Z</time>
      </trkpt>
      <trkpt lat="45.78961" lon="0.89954">
        <ele>284.2</ele>
        <time>2022-04-03T11:09:21Z</time>
      </trkpt>
      <trkpt lat="45.78965" lon="0.89949">
        <ele>284.4</ele>
        <time>2022-04-03T11:09:22Z</time>
      </trkpt>
      <trkpt lat="45.78969" lon="0.89944">
        <ele>284.4</ele>
        <time>2022-04-03T11:09:23Z</time>
      </trkpt>
      <trkpt lat="45.78972" lon="0.89939">
        <ele>284.6</ele>
        <time>2022-04-03T11:09:24Z</time>
      </trkpt>
      <trkpt lat="45.78976" lon="0.89933">
        <ele>284.6</ele>
        <time>2022-04-03T11:09:25Z</time>
      </trkpt>
      <trkpt lat="45.78981" lon="0.89927">
        <ele>284.4</ele>
        <time>2022-04-03T11:09:26Z</time>
      </trkpt>
      <trkpt lat="45.78985" lon="0.89921">
        <ele>284.6</ele>
        <time>2022-04-03T11:09:27Z</time>
      </trkpt>
      <trkpt lat="45.7899" lon="0.89915">
        <ele>284.4</ele>
        <time>2022-04-03T11:09:28Z</time>
      </trkpt>
      <trkpt lat="45.78994" lon="0.89909">
        <ele>284.6</ele>
        <time>2022-04-03T11:09:29Z</time>
      </trkpt>
      <trkpt lat="45.78999" lon="0.89903">
        <ele>284.4</ele>
        <time>2022-04-03T11:09:30Z</time>
      </trkpt>
      <trkpt lat="45.79004" lon="0.89897">
        <ele>284.4</ele>
        <time>2022-04-03T11:09:31Z</time>
      </trkpt>
      <trkpt lat="45.79009" lon="0.89891">
        <ele>284.4</ele>
        <time>2022-04-03T11:09:32Z</time>
      </trkpt>
      <trkpt lat="45.79014" lon="0.89885">
        <ele>284.2</ele>
        <time>2022-04-03T11:09:33Z</time>
      </trkpt>
      <trkpt lat="45.79019" lon="0.89878">
        <ele>284.2</ele>
        <time>2022-04-03T11:09:34Z</time>
      </trkpt>
      <trkpt lat="45.79024" lon="0.89872">
        <ele>284</ele>
        <time>2022-04-03T11:09:35Z</time>
      </trkpt>
      <trkpt lat="45.7903" lon="0.89866">
        <ele>283.6</ele>
        <time>2022-04-03T11:09:36Z</time>
      </trkpt>
      <trkpt lat="45.79035" lon="0.89859">
        <ele>283.2</ele>
        <time>2022-04-03T11:09:37Z</time>
      </trkpt>
      <trkpt lat="45.7904" lon="0.89853">
        <ele>283</ele>
        <time>2022-04-03T11:09:38Z</time>
      </trkpt>
      <trkpt lat="45.79046" lon="0.89846">
        <ele>282.4</ele>
        <time>2022-04-03T11:09:39Z</time>
      </trkpt>
      <trkpt lat="45.79051" lon="0.89838">
        <ele>282.2</ele>
        <time>2022-04-03T11:09:40Z</time>
      </trkpt>
      <trkpt lat="45.79055" lon="0.89831">
        <ele>281.4</ele>
        <time>2022-04-03T11:09:41Z</time>
      </trkpt>
      <trkpt lat="45.7906" lon="0.89823">
        <ele>281</ele>
        <time>2022-04-03T11:09:42Z</time>
      </trkpt>
      <trkpt lat="45.79065" lon="0.89816">
        <ele>280.6</ele>
        <time>2022-04-03T11:09:43Z</time>
      </trkpt>
      <trkpt lat="45.79069" lon="0.89808">
        <ele>280.4</ele>
        <time>2022-04-03T11:09:44Z</time>
      </trkpt>
      <trkpt lat="45.79074" lon="0.898">
        <ele>280.2</ele>
        <time>2022-04-03T11:09:45Z</time>
      </trkpt>
      <trkpt lat="45.79078" lon="0.89792">
        <ele>280</ele>
        <time>2022-04-03T11:09:46Z</time>
      </trkpt>
      <trkpt lat="45.79082" lon="0.89783">
        <ele>279.8</ele>
        <time>2022-04-03T11:09:47Z</time>
      </trkpt>
      <trkpt lat="45.79085" lon="0.89775">
        <ele>280</ele>
        <time>2022-04-03T11:09:48Z</time>
      </trkpt>
      <trkpt lat="45.79089" lon="0.89767">
        <ele>280</ele>
        <time>2022-04-03T11:09:49Z</time>
      </trkpt>
      <trkpt lat="45.79093" lon="0.89758">
        <ele>279.8</ele>
        <time>2022-04-03T11:09:50Z</time>
      </trkpt>
      <trkpt lat="45.79096" lon="0.8975">
        <ele>279.8</ele>
        <time>2022-04-03T11:09:51Z</time>
      </trkpt>
      <trkpt lat="45.791" lon="0.89743">
        <ele>279.8</ele>
        <time>2022-04-03T11:09:52Z</time>
      </trkpt>
      <trkpt lat="45.79103" lon="0.89735">
        <ele>279.8</ele>
        <time>2022-04-03T11:09:53Z</time>
      </trkpt>
      <trkpt lat="45.79107" lon="0.89728">
        <ele>279.8</ele>
        <time>2022-04-03T11:09:54Z</time>
      </trkpt>
      <trkpt lat="45.7911" lon="0.8972">
        <ele>279.8</ele>
        <time>2022-04-03T11:09:55Z</time>
      </trkpt>
      <trkpt lat="45.79114" lon="0.89713">
        <ele>279.8</ele>
        <time>2022-04-03T11:09:56Z</time>
      </trkpt>
      <trkpt lat="45.79117" lon="0.89706">
        <ele>279.8</ele>
        <time>2022-04-03T11:09:57Z</time>
      </trkpt>
      <trkpt lat="45.7912" lon="0.89699">
        <ele>279.8</ele>
        <time>2022-04-03T11:09:58Z</time>
      </trkpt>
      <trkpt lat="45.79124" lon="0.89693">
        <ele>279.8</ele>
        <time>2022-04-03T11:09:59Z</time>
      </trkpt>
      <trkpt lat="45.79127" lon="0.89686">
        <ele>279.8</ele>
        <time>2022-04-03T11:10:00Z</time>
      </trkpt>
      <trkpt lat="45.7913" lon="0.8968">
        <ele>279.8</ele>
        <time>2022-04-03T11:10:01Z</time>
      </trkpt>
      <trkpt lat="45.79133" lon="0.89674">
        <ele>279.8</ele>
        <time>2022-04-03T11:10:02Z</time>
      </trkpt>
      <trkpt lat="45.79135" lon="0.89667">
        <ele>280</ele>
        <time>2022-04-03T11:10:03Z</time>
      </trkpt>
      <trkpt lat="45.79138" lon="0.89661">
        <ele>280</ele>
        <time>2022-04-03T11:10:04Z</time>
      </trkpt>
      <trkpt lat="45.79141" lon="0.89655">
        <ele>280</ele>
        <time>2022-04-03T11:10:05Z</time>
      </trkpt>
      <trkpt lat="45.79144" lon="0.89648">
        <ele>280</ele>
        <time>2022-04-03T11:10:06Z</time>
      </trkpt>
      <trkpt lat="45.79147" lon="0.89642">
        <ele>280</ele>
        <time>2022-04-03T11:10:07Z</time>
      </trkpt>
      <trkpt lat="45.7915" lon="0.89635">
        <ele>280.2</ele>
        <time>2022-04-03T11:10:08Z</time>
      </trkpt>
      <trkpt lat="45.79152" lon="0.89629">
        <ele>280.6</ele>
        <time>2022-04-03T11:10:09Z</time>
      </trkpt>
      <trkpt lat="45.79155" lon="0.89623">
        <ele>280.6</ele>
        <time>2022-04-03T11:10:10Z</time>
      </trkpt>
      <trkpt lat="45.79158" lon="0.89617">
        <ele>280.8</ele>
        <time>2022-04-03T11:10:11Z</time>
      </trkpt>
      <trkpt lat="45.7916" lon="0.89611">
        <ele>281</ele>
        <time>2022-04-03T11:10:12Z</time>
      </trkpt>
      <trkpt lat="45.79163" lon="0.89605">
        <ele>281.2</ele>
        <time>2022-04-03T11:10:13Z</time>
      </trkpt>
      <trkpt lat="45.79166" lon="0.89598">
        <ele>281.2</ele>
        <time>2022-04-03T11:10:14Z</time>
      </trkpt>
      <trkpt lat="45.79169" lon="0.89592">
        <ele>281.2</ele>
        <time>2022-04-03T11:10:15Z</time>
      </trkpt>
      <trkpt lat="45.79172" lon="0.89586">
        <ele>281.6</ele>
        <time>2022-04-03T11:10:16Z</time>
      </trkpt>
      <trkpt lat="45.79175" lon="0.89579">
        <ele>281.6</ele>
        <time>2022-04-03T11:10:17Z</time>
      </trkpt>
      <trkpt lat="45.79179" lon="0.89573">
        <ele>281.6</ele>
        <time>2022-04-03T11:10:18Z</time>
      </trkpt>
      <trkpt lat="45.79182" lon="0.89566">
        <ele>281.6</ele>
        <time>2022-04-03T11:10:19Z</time>
      </trkpt>
      <trkpt lat="45.79185" lon="0.8956">
        <ele>281.6</ele>
        <time>2022-04-03T11:10:20Z</time>
      </trkpt>
      <trkpt lat="45.79189" lon="0.89553">
        <ele>281.8</ele>
        <time>2022-04-03T11:10:21Z</time>
      </trkpt>
      <trkpt lat="45.79192" lon="0.89547">
        <ele>281.8</ele>
        <time>2022-04-03T11:10:22Z</time>
      </trkpt>
      <trkpt lat="45.79195" lon="0.8954">
        <ele>281.6</ele>
        <time>2022-04-03T11:10:23Z</time>
      </trkpt>
      <trkpt lat="45.79199" lon="0.89533">
        <ele>281.2</ele>
        <time>2022-04-03T11:10:24Z</time>
      </trkpt>
      <trkpt lat="45.79202" lon="0.89527">
        <ele>281.4</ele>
        <time>2022-04-03T11:10:25Z</time>
      </trkpt>
      <trkpt lat="45.79206" lon="0.8952">
        <ele>281.2</ele>
        <time>2022-04-03T11:10:26Z</time>
      </trkpt>
      <trkpt lat="45.7921" lon="0.89514">
        <ele>281.2</ele>
        <time>2022-04-03T11:10:27Z</time>
      </trkpt>
      <trkpt lat="45.79214" lon="0.89507">
        <ele>281.2</ele>
        <time>2022-04-03T11:10:28Z</time>
      </trkpt>
      <trkpt lat="45.79217" lon="0.89501">
        <ele>281.2</ele>
        <time>2022-04-03T11:10:29Z</time>
      </trkpt>
      <trkpt lat="45.79221" lon="0.89495">
        <ele>281.2</ele>
        <time>2022-04-03T11:10:30Z</time>
      </trkpt>
      <trkpt lat="45.79225" lon="0.89488">
        <ele>281</ele>
        <time>2022-04-03T11:10:31Z</time>
      </trkpt>
      <trkpt lat="45.79229" lon="0.89481">
        <ele>280.8</ele>
        <time>2022-04-03T11:10:32Z</time>
      </trkpt>
      <trkpt lat="45.79233" lon="0.89474">
        <ele>280.6</ele>
        <time>2022-04-03T11:10:33Z</time>
      </trkpt>
      <trkpt lat="45.79237" lon="0.89467">
        <ele>280.6</ele>
        <time>2022-04-03T11:10:34Z</time>
      </trkpt>
      <trkpt lat="45.79241" lon="0.89459">
        <ele>280.4</ele>
        <time>2022-04-03T11:10:35Z</time>
      </trkpt>
      <trkpt lat="45.79246" lon="0.89452">
        <ele>280</ele>
        <time>2022-04-03T11:10:36Z</time>
      </trkpt>
      <trkpt lat="45.7925" lon="0.89443">
        <ele>280</ele>
        <time>2022-04-03T11:10:37Z</time>
      </trkpt>
      <trkpt lat="45.79255" lon="0.89435">
        <ele>279.6</ele>
        <time>2022-04-03T11:10:38Z</time>
      </trkpt>
      <trkpt lat="45.7926" lon="0.89427">
        <ele>279.4</ele>
        <time>2022-04-03T11:10:39Z</time>
      </trkpt>
      <trkpt lat="45.79265" lon="0.89419">
        <ele>279.4</ele>
        <time>2022-04-03T11:10:40Z</time>
      </trkpt>
      <trkpt lat="45.7927" lon="0.8941">
        <ele>279.2</ele>
        <time>2022-04-03T11:10:41Z</time>
      </trkpt>
      <trkpt lat="45.79275" lon="0.89401">
        <ele>278.8</ele>
        <time>2022-04-03T11:10:42Z</time>
      </trkpt>
      <trkpt lat="45.79281" lon="0.89392">
        <ele>278.4</ele>
        <time>2022-04-03T11:10:43Z</time>
      </trkpt>
      <trkpt lat="45.79286" lon="0.89383">
        <ele>278</ele>
        <time>2022-04-03T11:10:44Z</time>
      </trkpt>
      <trkpt lat="45.79292" lon="0.89373">
        <ele>277.4</ele>
        <time>2022-04-03T11:10:45Z</time>
      </trkpt>
      <trkpt lat="45.79298" lon="0.89363">
        <ele>276.6</ele>
        <time>2022-04-03T11:10:46Z</time>
      </trkpt>
      <trkpt lat="45.79304" lon="0.89353">
        <ele>276.4</ele>
        <time>2022-04-03T11:10:47Z</time>
      </trkpt>
      <trkpt lat="45.7931" lon="0.89343">
        <ele>275.8</ele>
        <time>2022-04-03T11:10:48Z</time>
      </trkpt>
      <trkpt lat="45.79317" lon="0.89332">
        <ele>275.8</ele>
        <time>2022-04-03T11:10:49Z</time>
      </trkpt>
      <trkpt lat="45.79323" lon="0.89321">
        <ele>275.4</ele>
        <time>2022-04-03T11:10:50Z</time>
      </trkpt>
      <trkpt lat="45.79329" lon="0.8931">
        <ele>275.2</ele>
        <time>2022-04-03T11:10:51Z</time>
      </trkpt>
      <trkpt lat="45.79336" lon="0.89298">
        <ele>274.8</ele>
        <time>2022-04-03T11:10:52Z</time>
      </trkpt>
      <trkpt lat="45.79342" lon="0.89287">
        <ele>273.8</ele>
        <time>2022-04-03T11:10:53Z</time>
      </trkpt>
      <trkpt lat="45.79349" lon="0.89276">
        <ele>272.8</ele>
        <time>2022-04-03T11:10:54Z</time>
      </trkpt>
      <trkpt lat="45.79356" lon="0.89265">
        <ele>271</ele>
        <time>2022-04-03T11:10:55Z</time>
      </trkpt>
      <trkpt lat="45.79363" lon="0.89254">
        <ele>269.8</ele>
        <time>2022-04-03T11:10:56Z</time>
      </trkpt>
      <trkpt lat="45.79371" lon="0.89243">
        <ele>269</ele>
        <time>2022-04-03T11:10:57Z</time>
      </trkpt>
      <trkpt lat="45.79379" lon="0.89232">
        <ele>268.2</ele>
        <time>2022-04-03T11:10:58Z</time>
      </trkpt>
      <trkpt lat="45.79388" lon="0.89223">
        <ele>267.4</ele>
        <time>2022-04-03T11:10:59Z</time>
      </trkpt>
      <trkpt lat="45.79398" lon="0.89214">
        <ele>266.4</ele>
        <time>2022-04-03T11:11:00Z</time>
      </trkpt>
      <trkpt lat="45.79408" lon="0.89206">
        <ele>265.4</ele>
        <time>2022-04-03T11:11:01Z</time>
      </trkpt>
      <trkpt lat="45.79418" lon="0.89199">
        <ele>264.2</ele>
        <time>2022-04-03T11:11:02Z</time>
      </trkpt>
      <trkpt lat="45.79428" lon="0.89194">
        <ele>262.4</ele>
        <time>2022-04-03T11:11:03Z</time>
      </trkpt>
      <trkpt lat="45.79439" lon="0.89189">
        <ele>261</ele>
        <time>2022-04-03T11:11:04Z</time>
      </trkpt>
      <trkpt lat="45.79449" lon="0.89186">
        <ele>259</ele>
        <time>2022-04-03T11:11:05Z</time>
      </trkpt>
      <trkpt lat="45.79459" lon="0.89182">
        <ele>257.6</ele>
        <time>2022-04-03T11:11:06Z</time>
      </trkpt>
      <trkpt lat="45.79469" lon="0.89177">
        <ele>256.4</ele>
        <time>2022-04-03T11:11:07Z</time>
      </trkpt>
      <trkpt lat="45.79479" lon="0.89173">
        <ele>255.8</ele>
        <time>2022-04-03T11:11:08Z</time>
      </trkpt>
      <trkpt lat="45.79488" lon="0.89169">
        <ele>255.8</ele>
        <time>2022-04-03T11:11:09Z</time>
      </trkpt>
      <trkpt lat="45.79497" lon="0.89165">
        <ele>255.6</ele>
        <time>2022-04-03T11:11:10Z</time>
      </trkpt>
      <trkpt lat="45.79505" lon="0.89162">
        <ele>255.4</ele>
        <time>2022-04-03T11:11:11Z</time>
      </trkpt>
      <trkpt lat="45.79513" lon="0.89158">
        <ele>255.4</ele>
        <time>2022-04-03T11:11:12Z</time>
      </trkpt>
      <trkpt lat="45.7952" lon="0.89154">
        <ele>255.2</ele>
        <time>2022-04-03T11:11:13Z</time>
      </trkpt>
      <trkpt lat="45.79526" lon="0.8915">
        <ele>255.4</ele>
        <time>2022-04-03T11:11:14Z</time>
      </trkpt>
      <trkpt lat="45.79533" lon="0.89145">
        <ele>255.2</ele>
        <time>2022-04-03T11:11:15Z</time>
      </trkpt>
      <trkpt lat="45.79538" lon="0.8914">
        <ele>255.2</ele>
        <time>2022-04-03T11:11:16Z</time>
      </trkpt>
      <trkpt lat="45.79543" lon="0.89135">
        <ele>255.4</ele>
        <time>2022-04-03T11:11:17Z</time>
      </trkpt>
      <trkpt lat="45.79548" lon="0.8913">
        <ele>255.4</ele>
        <time>2022-04-03T11:11:18Z</time>
      </trkpt>
      <trkpt lat="45.79552" lon="0.89124">
        <ele>255.4</ele>
        <time>2022-04-03T11:11:19Z</time>
      </trkpt>
      <trkpt lat="45.79556" lon="0.89118">
        <ele>255.4</ele>
        <time>2022-04-03T11:11:20Z</time>
      </trkpt>
      <trkpt lat="45.7956" lon="0.89113">
        <ele>255.6</ele>
        <time>2022-04-03T11:11:21Z</time>
      </trkpt>
      <trkpt lat="45.79563" lon="0.89107">
        <ele>256</ele>
        <time>2022-04-03T11:11:22Z</time>
      </trkpt>
      <trkpt lat="45.79566" lon="0.89101">
        <ele>256.6</ele>
        <time>2022-04-03T11:11:23Z</time>
      </trkpt>
      <trkpt lat="45.79569" lon="0.89096">
        <ele>257</ele>
        <time>2022-04-03T11:11:24Z</time>
      </trkpt>
      <trkpt lat="45.79571" lon="0.89091">
        <ele>257.4</ele>
        <time>2022-04-03T11:11:25Z</time>
      </trkpt>
      <trkpt lat="45.79573" lon="0.89085">
        <ele>258</ele>
        <time>2022-04-03T11:11:26Z</time>
      </trkpt>
      <trkpt lat="45.79575" lon="0.8908">
        <ele>258.8</ele>
        <time>2022-04-03T11:11:27Z</time>
      </trkpt>
      <trkpt lat="45.79577" lon="0.89076">
        <ele>258.8</ele>
        <time>2022-04-03T11:11:28Z</time>
      </trkpt>
      <trkpt lat="45.79578" lon="0.89071">
        <ele>259</ele>
        <time>2022-04-03T11:11:29Z</time>
      </trkpt>
      <trkpt lat="45.7958" lon="0.89066">
        <ele>259.6</ele>
        <time>2022-04-03T11:11:30Z</time>
      </trkpt>
      <trkpt lat="45.79581" lon="0.89062">
        <ele>259.8</ele>
        <time>2022-04-03T11:11:31Z</time>
      </trkpt>
      <trkpt lat="45.79582" lon="0.89057">
        <ele>260</ele>
        <time>2022-04-03T11:11:32Z</time>
      </trkpt>
      <trkpt lat="45.79584" lon="0.89053">
        <ele>260.4</ele>
        <time>2022-04-03T11:11:33Z</time>
      </trkpt>
      <trkpt lat="45.79585" lon="0.89049">
        <ele>260.8</ele>
        <time>2022-04-03T11:11:34Z</time>
      </trkpt>
      <trkpt lat="45.79587" lon="0.89045">
        <ele>261</ele>
        <time>2022-04-03T11:11:35Z</time>
      </trkpt>
      <trkpt lat="45.79588" lon="0.89041">
        <ele>261.4</ele>
        <time>2022-04-03T11:11:36Z</time>
      </trkpt>
      <trkpt lat="45.7959" lon="0.89037">
        <ele>262</ele>
        <time>2022-04-03T11:11:37Z</time>
      </trkpt>
      <trkpt lat="45.79591" lon="0.89034">
        <ele>262.2</ele>
        <time>2022-04-03T11:11:38Z</time>
      </trkpt>
      <trkpt lat="45.79592" lon="0.8903">
        <ele>262.4</ele>
        <time>2022-04-03T11:11:39Z</time>
      </trkpt>
      <trkpt lat="45.79594" lon="0.89026">
        <ele>262.4</ele>
        <time>2022-04-03T11:11:40Z</time>
      </trkpt>
      <trkpt lat="45.79595" lon="0.89022">
        <ele>262.6</ele>
        <time>2022-04-03T11:11:41Z</time>
      </trkpt>
      <trkpt lat="45.79596" lon="0.89018">
        <ele>263</ele>
        <time>2022-04-03T11:11:42Z</time>
      </trkpt>
      <trkpt lat="45.79597" lon="0.89013">
        <ele>263</ele>
        <time>2022-04-03T11:11:43Z</time>
      </trkpt>
      <trkpt lat="45.79598" lon="0.89009">
        <ele>263.2</ele>
        <time>2022-04-03T11:11:44Z</time>
      </trkpt>
      <trkpt lat="45.79599" lon="0.89005">
        <ele>263.4</ele>
        <time>2022-04-03T11:11:45Z</time>
      </trkpt>
      <trkpt lat="45.79601" lon="0.89001">
        <ele>263.6</ele>
        <time>2022-04-03T11:11:46Z</time>
      </trkpt>
      <trkpt lat="45.79602" lon="0.88997">
        <ele>263.6</ele>
        <time>2022-04-03T11:11:47Z</time>
      </trkpt>
      <trkpt lat="45.79603" lon="0.88993">
        <ele>263.6</ele>
        <time>2022-04-03T11:11:48Z</time>
      </trkpt>
      <trkpt lat="45.79605" lon="0.88989">
        <ele>263.8</ele>
        <time>2022-04-03T11:11:49Z</time>
      </trkpt>
      <trkpt lat="45.79606" lon="0.88984">
        <ele>263.8</ele>
        <time>2022-04-03T11:11:50Z</time>
      </trkpt>
      <trkpt lat="45.79607" lon="0.8898">
        <ele>264</ele>
        <time>2022-04-03T11:11:51Z</time>
      </trkpt>
      <trkpt lat="45.79608" lon="0.88975">
        <ele>264.2</ele>
        <time>2022-04-03T11:11:52Z</time>
      </trkpt>
      <trkpt lat="45.79609" lon="0.8897">
        <ele>264.2</ele>
        <time>2022-04-03T11:11:53Z</time>
      </trkpt>
      <trkpt lat="45.7961" lon="0.88965">
        <ele>264.2</ele>
        <time>2022-04-03T11:11:54Z</time>
      </trkpt>
      <trkpt lat="45.79611" lon="0.88961">
        <ele>264.2</ele>
        <time>2022-04-03T11:11:55Z</time>
      </trkpt>
      <trkpt lat="45.79612" lon="0.88956">
        <ele>264.4</ele>
        <time>2022-04-03T11:11:56Z</time>
      </trkpt>
      <trkpt lat="45.79613" lon="0.88951">
        <ele>264.4</ele>
        <time>2022-04-03T11:11:57Z</time>
      </trkpt>
      <trkpt lat="45.79614" lon="0.88945">
        <ele>264.4</ele>
        <time>2022-04-03T11:11:58Z</time>
      </trkpt>
      <trkpt lat="45.79614" lon="0.8894">
        <ele>264.6</ele>
        <time>2022-04-03T11:11:59Z</time>
      </trkpt>
      <trkpt lat="45.79615" lon="0.88934">
        <ele>264.8</ele>
        <time>2022-04-03T11:12:00Z</time>
      </trkpt>
      <trkpt lat="45.79615" lon="0.88929">
        <ele>264.8</ele>
        <time>2022-04-03T11:12:01Z</time>
      </trkpt>
      <trkpt lat="45.79616" lon="0.88923">
        <ele>264.6</ele>
        <time>2022-04-03T11:12:02Z</time>
      </trkpt>
      <trkpt lat="45.79616" lon="0.88917">
        <ele>264.8</ele>
        <time>2022-04-03T11:12:03Z</time>
      </trkpt>
      <trkpt lat="45.79616" lon="0.88911">
        <ele>265</ele>
        <time>2022-04-03T11:12:04Z</time>
      </trkpt>
      <trkpt lat="45.79616" lon="0.88905">
        <ele>265</ele>
        <time>2022-04-03T11:12:05Z</time>
      </trkpt>
      <trkpt lat="45.79616" lon="0.88899">
        <ele>265</ele>
        <time>2022-04-03T11:12:06Z</time>
      </trkpt>
      <trkpt lat="45.79616" lon="0.88894">
        <ele>265</ele>
        <time>2022-04-03T11:12:07Z</time>
      </trkpt>
      <trkpt lat="45.79616" lon="0.88888">
        <ele>265</ele>
        <time>2022-04-03T11:12:08Z</time>
      </trkpt>
      <trkpt lat="45.79616" lon="0.88882">
        <ele>265.2</ele>
        <time>2022-04-03T11:12:09Z</time>
      </trkpt>
      <trkpt lat="45.79616" lon="0.88876">
        <ele>265</ele>
        <time>2022-04-03T11:12:10Z</time>
      </trkpt>
      <trkpt lat="45.79616" lon="0.8887">
        <ele>265</ele>
        <time>2022-04-03T11:12:11Z</time>
      </trkpt>
      <trkpt lat="45.79616" lon="0.88864">
        <ele>265</ele>
        <time>2022-04-03T11:12:12Z</time>
      </trkpt>
      <trkpt lat="45.79616" lon="0.88858">
        <ele>265.2</ele>
        <time>2022-04-03T11:12:13Z</time>
      </trkpt>
      <trkpt lat="45.79616" lon="0.88853">
        <ele>265.2</ele>
        <time>2022-04-03T11:12:14Z</time>
      </trkpt>
      <trkpt lat="45.79616" lon="0.88847">
        <ele>265.4</ele>
        <time>2022-04-03T11:12:15Z</time>
      </trkpt>
      <trkpt lat="45.79616" lon="0.88841">
        <ele>265.4</ele>
        <time>2022-04-03T11:12:16Z</time>
      </trkpt>
      <trkpt lat="45.79616" lon="0.88835">
        <ele>265.8</ele>
        <time>2022-04-03T11:12:17Z</time>
      </trkpt>
      <trkpt lat="45.79616" lon="0.88829">
        <ele>265.8</ele>
        <time>2022-04-03T11:12:18Z</time>
      </trkpt>
      <trkpt lat="45.79616" lon="0.88823">
        <ele>265.8</ele>
        <time>2022-04-03T11:12:19Z</time>
      </trkpt>
      <trkpt lat="45.79616" lon="0.88817">
        <ele>266</ele>
        <time>2022-04-03T11:12:20Z</time>
      </trkpt>
      <trkpt lat="45.79616" lon="0.88811">
        <ele>266</ele>
        <time>2022-04-03T11:12:21Z</time>
      </trkpt>
      <trkpt lat="45.79616" lon="0.88806">
        <ele>266</ele>
        <time>2022-04-03T11:12:22Z</time>
      </trkpt>
      <trkpt lat="45.79616" lon="0.888">
        <ele>266</ele>
        <time>2022-04-03T11:12:23Z</time>
      </trkpt>
      <trkpt lat="45.79617" lon="0.88794">
        <ele>266.2</ele>
        <time>2022-04-03T11:12:24Z</time>
      </trkpt>
      <trkpt lat="45.79617" lon="0.88789">
        <ele>266.4</ele>
        <time>2022-04-03T11:12:25Z</time>
      </trkpt>
      <trkpt lat="45.79617" lon="0.88783">
        <ele>266.4</ele>
        <time>2022-04-03T11:12:26Z</time>
      </trkpt>
      <trkpt lat="45.79617" lon="0.88777">
        <ele>266.4</ele>
        <time>2022-04-03T11:12:27Z</time>
      </trkpt>
      <trkpt lat="45.79618" lon="0.88772">
        <ele>266.4</ele>
        <time>2022-04-03T11:12:28Z</time>
      </trkpt>
      <trkpt lat="45.79618" lon="0.88767">
        <ele>266.6</ele>
        <time>2022-04-03T11:12:29Z</time>
      </trkpt>
      <trkpt lat="45.79618" lon="0.88762">
        <ele>266.6</ele>
        <time>2022-04-03T11:12:30Z</time>
      </trkpt>
      <trkpt lat="45.79619" lon="0.88757">
        <ele>266.8</ele>
        <time>2022-04-03T11:12:31Z</time>
      </trkpt>
      <trkpt lat="45.79619" lon="0.88751">
        <ele>266.8</ele>
        <time>2022-04-03T11:12:32Z</time>
      </trkpt>
      <trkpt lat="45.7962" lon="0.88746">
        <ele>266.8</ele>
        <time>2022-04-03T11:12:33Z</time>
      </trkpt>
      <trkpt lat="45.7962" lon="0.88741">
        <ele>266.8</ele>
        <time>2022-04-03T11:12:34Z</time>
      </trkpt>
      <trkpt lat="45.79621" lon="0.88736">
        <ele>267</ele>
        <time>2022-04-03T11:12:35Z</time>
      </trkpt>
      <trkpt lat="45.79621" lon="0.88731">
        <ele>267</ele>
        <time>2022-04-03T11:12:36Z</time>
      </trkpt>
      <trkpt lat="45.79622" lon="0.88726">
        <ele>267</ele>
        <time>2022-04-03T11:12:37Z</time>
      </trkpt>
      <trkpt lat="45.79622" lon="0.88721">
        <ele>267</ele>
        <time>2022-04-03T11:12:38Z</time>
      </trkpt>
      <trkpt lat="45.79623" lon="0.88716">
        <ele>267.4</ele>
        <time>2022-04-03T11:12:39Z</time>
      </trkpt>
      <trkpt lat="45.79623" lon="0.88711">
        <ele>267.6</ele>
        <time>2022-04-03T11:12:40Z</time>
      </trkpt>
      <trkpt lat="45.79624" lon="0.88706">
        <ele>267.8</ele>
        <time>2022-04-03T11:12:41Z</time>
      </trkpt>
      <trkpt lat="45.79624" lon="0.88701">
        <ele>268.2</ele>
        <time>2022-04-03T11:12:42Z</time>
      </trkpt>
      <trkpt lat="45.79625" lon="0.88696">
        <ele>268.4</ele>
        <time>2022-04-03T11:12:43Z</time>
      </trkpt>
      <trkpt lat="45.79625" lon="0.8869">
        <ele>268.6</ele>
        <time>2022-04-03T11:12:44Z</time>
      </trkpt>
      <trkpt lat="45.79626" lon="0.88685">
        <ele>268.6</ele>
        <time>2022-04-03T11:12:45Z</time>
      </trkpt>
      <trkpt lat="45.79627" lon="0.8868">
        <ele>268.8</ele>
        <time>2022-04-03T11:12:46Z</time>
      </trkpt>
      <trkpt lat="45.79627" lon="0.88674">
        <ele>268.8</ele>
        <time>2022-04-03T11:12:47Z</time>
      </trkpt>
      <trkpt lat="45.79628" lon="0.88668">
        <ele>269</ele>
        <time>2022-04-03T11:12:48Z</time>
      </trkpt>
      <trkpt lat="45.79628" lon="0.88662">
        <ele>269</ele>
        <time>2022-04-03T11:12:49Z</time>
      </trkpt>
      <trkpt lat="45.79629" lon="0.88656">
        <ele>269</ele>
        <time>2022-04-03T11:12:50Z</time>
      </trkpt>
      <trkpt lat="45.7963" lon="0.88649">
        <ele>269</ele>
        <time>2022-04-03T11:12:51Z</time>
      </trkpt>
      <trkpt lat="45.79631" lon="0.88642">
        <ele>269</ele>
        <time>2022-04-03T11:12:52Z</time>
      </trkpt>
      <trkpt lat="45.79632" lon="0.88634">
        <ele>269</ele>
        <time>2022-04-03T11:12:53Z</time>
      </trkpt>
      <trkpt lat="45.79633" lon="0.88626">
        <ele>269.2</ele>
        <time>2022-04-03T11:12:54Z</time>
      </trkpt>
      <trkpt lat="45.79634" lon="0.88618">
        <ele>269</ele>
        <time>2022-04-03T11:12:55Z</time>
      </trkpt>
      <trkpt lat="45.79635" lon="0.88609">
        <ele>269.2</ele>
        <time>2022-04-03T11:12:56Z</time>
      </trkpt>
      <trkpt lat="45.79636" lon="0.88599">
        <ele>269</ele>
        <time>2022-04-03T11:12:57Z</time>
      </trkpt>
      <trkpt lat="45.79637" lon="0.88589">
        <ele>268.8</ele>
        <time>2022-04-03T11:12:58Z</time>
      </trkpt>
      <trkpt lat="45.79638" lon="0.88578">
        <ele>268.8</ele>
        <time>2022-04-03T11:12:59Z</time>
      </trkpt>
      <trkpt lat="45.79639" lon="0.88566">
        <ele>268.2</ele>
        <time>2022-04-03T11:13:00Z</time>
      </trkpt>
      <trkpt lat="45.79641" lon="0.88555">
        <ele>268</ele>
        <time>2022-04-03T11:13:01Z</time>
      </trkpt>
      <trkpt lat="45.79642" lon="0.88543">
        <ele>267.4</ele>
        <time>2022-04-03T11:13:02Z</time>
      </trkpt>
      <trkpt lat="45.79645" lon="0.8853">
        <ele>266.8</ele>
        <time>2022-04-03T11:13:03Z</time>
      </trkpt>
      <trkpt lat="45.79649" lon="0.88519">
        <ele>266.8</ele>
        <time>2022-04-03T11:13:04Z</time>
      </trkpt>
      <trkpt lat="45.79655" lon="0.88507">
        <ele>266.4</ele>
        <time>2022-04-03T11:13:05Z</time>
      </trkpt>
      <trkpt lat="45.79662" lon="0.88498">
        <ele>265.8</ele>
        <time>2022-04-03T11:13:06Z</time>
      </trkpt>
      <trkpt lat="45.7967" lon="0.8849">
        <ele>264.8</ele>
        <time>2022-04-03T11:13:07Z</time>
      </trkpt>
      <trkpt lat="45.79679" lon="0.88484">
        <ele>263.8</ele>
        <time>2022-04-03T11:13:08Z</time>
      </trkpt>
      <trkpt lat="45.79689" lon="0.88478">
        <ele>262.8</ele>
        <time>2022-04-03T11:13:09Z</time>
      </trkpt>
      <trkpt lat="45.79698" lon="0.88471">
        <ele>262.2</ele>
        <time>2022-04-03T11:13:10Z</time>
      </trkpt>
      <trkpt lat="45.79707" lon="0.88465">
        <ele>261.2</ele>
        <time>2022-04-03T11:13:11Z</time>
      </trkpt>
      <trkpt lat="45.79716" lon="0.8846">
        <ele>261</ele>
        <time>2022-04-03T11:13:12Z</time>
      </trkpt>
      <trkpt lat="45.79725" lon="0.88454">
        <ele>260.4</ele>
        <time>2022-04-03T11:13:13Z</time>
      </trkpt>
      <trkpt lat="45.79734" lon="0.88447">
        <ele>259.8</ele>
        <time>2022-04-03T11:13:14Z</time>
      </trkpt>
      <trkpt lat="45.79742" lon="0.88441">
        <ele>258.6</ele>
        <time>2022-04-03T11:13:15Z</time>
      </trkpt>
      <trkpt lat="45.7975" lon="0.88434">
        <ele>256.6</ele>
        <time>2022-04-03T11:13:16Z</time>
      </trkpt>
      <trkpt lat="45.79757" lon="0.88427">
        <ele>254.8</ele>
        <time>2022-04-03T11:13:17Z</time>
      </trkpt>
      <trkpt lat="45.79764" lon="0.88418">
        <ele>253.2</ele>
        <time>2022-04-03T11:13:18Z</time>
      </trkpt>
      <trkpt lat="45.79769" lon="0.88409">
        <ele>252.6</ele>
        <time>2022-04-03T11:13:19Z</time>
      </trkpt>
      <trkpt lat="45.79774" lon="0.884">
        <ele>252.2</ele>
        <time>2022-04-03T11:13:20Z</time>
      </trkpt>
      <trkpt lat="45.79779" lon="0.8839">
        <ele>252</ele>
        <time>2022-04-03T11:13:21Z</time>
      </trkpt>
      <trkpt lat="45.79783" lon="0.88381">
        <ele>251.8</ele>
        <time>2022-04-03T11:13:22Z</time>
      </trkpt>
      <trkpt lat="45.79788" lon="0.88372">
        <ele>251.8</ele>
        <time>2022-04-03T11:13:23Z</time>
      </trkpt>
      <trkpt lat="45.79792" lon="0.88363">
        <ele>251.8</ele>
        <time>2022-04-03T11:13:24Z</time>
      </trkpt>
      <trkpt lat="45.79796" lon="0.88355">
        <ele>251.8</ele>
        <time>2022-04-03T11:13:25Z</time>
      </trkpt>
      <trkpt lat="45.79799" lon="0.88347">
        <ele>251.8</ele>
        <time>2022-04-03T11:13:26Z</time>
      </trkpt>
      <trkpt lat="45.79803" lon="0.8834">
        <ele>251.6</ele>
        <time>2022-04-03T11:13:27Z</time>
      </trkpt>
      <trkpt lat="45.79806" lon="0.88333">
        <ele>251.8</ele>
        <time>2022-04-03T11:13:28Z</time>
      </trkpt>
      <trkpt lat="45.7981" lon="0.88326">
        <ele>251.8</ele>
        <time>2022-04-03T11:13:29Z</time>
      </trkpt>
      <trkpt lat="45.79813" lon="0.88319">
        <ele>251.8</ele>
        <time>2022-04-03T11:13:30Z</time>
      </trkpt>
      <trkpt lat="45.79816" lon="0.88313">
        <ele>252</ele>
        <time>2022-04-03T11:13:31Z</time>
      </trkpt>
      <trkpt lat="45.79819" lon="0.88307">
        <ele>252.2</ele>
        <time>2022-04-03T11:13:32Z</time>
      </trkpt>
      <trkpt lat="45.79822" lon="0.88301">
        <ele>252.4</ele>
        <time>2022-04-03T11:13:33Z</time>
      </trkpt>
      <trkpt lat="45.79824" lon="0.88295">
        <ele>252.4</ele>
        <time>2022-04-03T11:13:34Z</time>
      </trkpt>
      <trkpt lat="45.79827" lon="0.88289">
        <ele>252.6</ele>
        <time>2022-04-03T11:13:35Z</time>
      </trkpt>
      <trkpt lat="45.79829" lon="0.88283">
        <ele>252.8</ele>
        <time>2022-04-03T11:13:36Z</time>
      </trkpt>
      <trkpt lat="45.79832" lon="0.88278">
        <ele>253</ele>
        <time>2022-04-03T11:13:37Z</time>
      </trkpt>
      <trkpt lat="45.79834" lon="0.88273">
        <ele>253.2</ele>
        <time>2022-04-03T11:13:38Z</time>
      </trkpt>
      <trkpt lat="45.79836" lon="0.88267">
        <ele>253.4</ele>
        <time>2022-04-03T11:13:39Z</time>
      </trkpt>
      <trkpt lat="45.79838" lon="0.88262">
        <ele>253.8</ele>
        <time>2022-04-03T11:13:40Z</time>
      </trkpt>
      <trkpt lat="45.7984" lon="0.88256">
        <ele>253.8</ele>
        <time>2022-04-03T11:13:41Z</time>
      </trkpt>
      <trkpt lat="45.79841" lon="0.88251">
        <ele>253.8</ele>
        <time>2022-04-03T11:13:42Z</time>
      </trkpt>
      <trkpt lat="45.79843" lon="0.88245">
        <ele>254.2</ele>
        <time>2022-04-03T11:13:43Z</time>
      </trkpt>
      <trkpt lat="45.79845" lon="0.8824">
        <ele>254.8</ele>
        <time>2022-04-03T11:13:44Z</time>
      </trkpt>
      <trkpt lat="45.79846" lon="0.88234">
        <ele>255</ele>
        <time>2022-04-03T11:13:45Z</time>
      </trkpt>
      <trkpt lat="45.79847" lon="0.88228">
        <ele>255.4</ele>
        <time>2022-04-03T11:13:46Z</time>
      </trkpt>
      <trkpt lat="45.79848" lon="0.88222">
        <ele>255.8</ele>
        <time>2022-04-03T11:13:47Z</time>
      </trkpt>
      <trkpt lat="45.79849" lon="0.88216">
        <ele>256.2</ele>
        <time>2022-04-03T11:13:48Z</time>
      </trkpt>
      <trkpt lat="45.7985" lon="0.8821">
        <ele>256.2</ele>
        <time>2022-04-03T11:13:49Z</time>
      </trkpt>
      <trkpt lat="45.79851" lon="0.88204">
        <ele>256.4</ele>
        <time>2022-04-03T11:13:50Z</time>
      </trkpt>
      <trkpt lat="45.79852" lon="0.88198">
        <ele>256.4</ele>
        <time>2022-04-03T11:13:51Z</time>
      </trkpt>
      <trkpt lat="45.79854" lon="0.88191">
        <ele>256.6</ele>
        <time>2022-04-03T11:13:52Z</time>
      </trkpt>
      <trkpt lat="45.79855" lon="0.88185">
        <ele>256.6</ele>
        <time>2022-04-03T11:13:53Z</time>
      </trkpt>
      <trkpt lat="45.79857" lon="0.88178">
        <ele>256.6</ele>
        <time>2022-04-03T11:13:54Z</time>
      </trkpt>
      <trkpt lat="45.79859" lon="0.8817">
        <ele>256.6</ele>
        <time>2022-04-03T11:13:55Z</time>
      </trkpt>
      <trkpt lat="45.79861" lon="0.88163">
        <ele>256.6</ele>
        <time>2022-04-03T11:13:56Z</time>
      </trkpt>
      <trkpt lat="45.79862" lon="0.88156">
        <ele>256.6</ele>
        <time>2022-04-03T11:13:57Z</time>
      </trkpt>
      <trkpt lat="45.79864" lon="0.88148">
        <ele>256.6</ele>
        <time>2022-04-03T11:13:58Z</time>
      </trkpt>
      <trkpt lat="45.79866" lon="0.8814">
        <ele>256.6</ele>
        <time>2022-04-03T11:13:59Z</time>
      </trkpt>
      <trkpt lat="45.79868" lon="0.88132">
        <ele>256.6</ele>
        <time>2022-04-03T11:14:00Z</time>
      </trkpt>
      <trkpt lat="45.79871" lon="0.88123">
        <ele>256.6</ele>
        <time>2022-04-03T11:14:01Z</time>
      </trkpt>
      <trkpt lat="45.79873" lon="0.88115">
        <ele>256.6</ele>
        <time>2022-04-03T11:14:02Z</time>
      </trkpt>
      <trkpt lat="45.79875" lon="0.88105">
        <ele>256.6</ele>
        <time>2022-04-03T11:14:03Z</time>
      </trkpt>
      <trkpt lat="45.79877" lon="0.88096">
        <ele>256</ele>
        <time>2022-04-03T11:14:04Z</time>
      </trkpt>
      <trkpt lat="45.7988" lon="0.88087">
        <ele>255.8</ele>
        <time>2022-04-03T11:14:05Z</time>
      </trkpt>
      <trkpt lat="45.79882" lon="0.88077">
        <ele>255.6</ele>
        <time>2022-04-03T11:14:06Z</time>
      </trkpt>
      <trkpt lat="45.79885" lon="0.88067">
        <ele>255.4</ele>
        <time>2022-04-03T11:14:07Z</time>
      </trkpt>
      <trkpt lat="45.79888" lon="0.88057">
        <ele>255.2</ele>
        <time>2022-04-03T11:14:08Z</time>
      </trkpt>
      <trkpt lat="45.79891" lon="0.88046">
        <ele>255</ele>
        <time>2022-04-03T11:14:09Z</time>
      </trkpt>
      <trkpt lat="45.79893" lon="0.88036">
        <ele>254.6</ele>
        <time>2022-04-03T11:14:10Z</time>
      </trkpt>
      <trkpt lat="45.79896" lon="0.88025">
        <ele>254.2</ele>
        <time>2022-04-03T11:14:11Z</time>
      </trkpt>
      <trkpt lat="45.79899" lon="0.88014">
        <ele>253.8</ele>
        <time>2022-04-03T11:14:12Z</time>
      </trkpt>
      <trkpt lat="45.79902" lon="0.88002">
        <ele>253.4</ele>
        <time>2022-04-03T11:14:13Z</time>
      </trkpt>
      <trkpt lat="45.79905" lon="0.87991">
        <ele>252.8</ele>
        <time>2022-04-03T11:14:14Z</time>
      </trkpt>
      <trkpt lat="45.79908" lon="0.87979">
        <ele>252.2</ele>
        <time>2022-04-03T11:14:15Z</time>
      </trkpt>
      <trkpt lat="45.7991" lon="0.87967">
        <ele>251.8</ele>
        <time>2022-04-03T11:14:16Z</time>
      </trkpt>
      <trkpt lat="45.79913" lon="0.87956">
        <ele>251.4</ele>
        <time>2022-04-03T11:14:17Z</time>
      </trkpt>
      <trkpt lat="45.79916" lon="0.87944">
        <ele>250.6</ele>
        <time>2022-04-03T11:14:18Z</time>
      </trkpt>
      <trkpt lat="45.79919" lon="0.87933">
        <ele>250.2</ele>
        <time>2022-04-03T11:14:19Z</time>
      </trkpt>
      <trkpt lat="45.79922" lon="0.87923">
        <ele>250.2</ele>
        <time>2022-04-03T11:14:20Z</time>
      </trkpt>
      <trkpt lat="45.79925" lon="0.87912">
        <ele>249.2</ele>
        <time>2022-04-03T11:14:21Z</time>
      </trkpt>
      <trkpt lat="45.79927" lon="0.87902">
        <ele>248.8</ele>
        <time>2022-04-03T11:14:22Z</time>
      </trkpt>
      <trkpt lat="45.7993" lon="0.87893">
        <ele>248.4</ele>
        <time>2022-04-03T11:14:23Z</time>
      </trkpt>
      <trkpt lat="45.79932" lon="0.87883">
        <ele>248.2</ele>
        <time>2022-04-03T11:14:24Z</time>
      </trkpt>
      <trkpt lat="45.79935" lon="0.87874">
        <ele>248.2</ele>
        <time>2022-04-03T11:14:25Z</time>
      </trkpt>
      <trkpt lat="45.79937" lon="0.87865">
        <ele>248</ele>
        <time>2022-04-03T11:14:26Z</time>
      </trkpt>
      <trkpt lat="45.79939" lon="0.87856">
        <ele>248</ele>
        <time>2022-04-03T11:14:27Z</time>
      </trkpt>
      <trkpt lat="45.79942" lon="0.87847">
        <ele>248</ele>
        <time>2022-04-03T11:14:28Z</time>
      </trkpt>
      <trkpt lat="45.79944" lon="0.87838">
        <ele>248.2</ele>
        <time>2022-04-03T11:14:29Z</time>
      </trkpt>
      <trkpt lat="45.79946" lon="0.8783">
        <ele>248</ele>
        <time>2022-04-03T11:14:30Z</time>
      </trkpt>
      <trkpt lat="45.79948" lon="0.87821">
        <ele>248</ele>
        <time>2022-04-03T11:14:31Z</time>
      </trkpt>
      <trkpt lat="45.79951" lon="0.87813">
        <ele>248</ele>
        <time>2022-04-03T11:14:32Z</time>
      </trkpt>
      <trkpt lat="45.79953" lon="0.87805">
        <ele>248</ele>
        <time>2022-04-03T11:14:33Z</time>
      </trkpt>
      <trkpt lat="45.79955" lon="0.87797">
        <ele>248.2</ele>
        <time>2022-04-03T11:14:34Z</time>
      </trkpt>
      <trkpt lat="45.79957" lon="0.87789">
        <ele>248.4</ele>
        <time>2022-04-03T11:14:35Z</time>
      </trkpt>
      <trkpt lat="45.79959" lon="0.8778">
        <ele>248.4</ele>
        <time>2022-04-03T11:14:36Z</time>
      </trkpt>
      <trkpt lat="45.79961" lon="0.87772">
        <ele>248.6</ele>
        <time>2022-04-03T11:14:37Z</time>
      </trkpt>
      <trkpt lat="45.79963" lon="0.87764">
        <ele>248.8</ele>
        <time>2022-04-03T11:14:38Z</time>
      </trkpt>
      <trkpt lat="45.79965" lon="0.87756">
        <ele>248.8</ele>
        <time>2022-04-03T11:14:39Z</time>
      </trkpt>
      <trkpt lat="45.79967" lon="0.87748">
        <ele>248.8</ele>
        <time>2022-04-03T11:14:40Z</time>
      </trkpt>
      <trkpt lat="45.7997" lon="0.8774">
        <ele>248.6</ele>
        <time>2022-04-03T11:14:41Z</time>
      </trkpt>
      <trkpt lat="45.79972" lon="0.87732">
        <ele>248.6</ele>
        <time>2022-04-03T11:14:42Z</time>
      </trkpt>
      <trkpt lat="45.79974" lon="0.87724">
        <ele>248.6</ele>
        <time>2022-04-03T11:14:43Z</time>
      </trkpt>
      <trkpt lat="45.79976" lon="0.87716">
        <ele>248.8</ele>
        <time>2022-04-03T11:14:44Z</time>
      </trkpt>
      <trkpt lat="45.79977" lon="0.87708">
        <ele>248.8</ele>
        <time>2022-04-03T11:14:45Z</time>
      </trkpt>
      <trkpt lat="45.79979" lon="0.877">
        <ele>248.8</ele>
        <time>2022-04-03T11:14:46Z</time>
      </trkpt>
      <trkpt lat="45.79982" lon="0.87692">
        <ele>248.8</ele>
        <time>2022-04-03T11:14:47Z</time>
      </trkpt>
      <trkpt lat="45.79984" lon="0.87684">
        <ele>248.8</ele>
        <time>2022-04-03T11:14:48Z</time>
      </trkpt>
      <trkpt lat="45.79986" lon="0.87676">
        <ele>248.8</ele>
        <time>2022-04-03T11:14:49Z</time>
      </trkpt>
      <trkpt lat="45.79988" lon="0.87667">
        <ele>248.6</ele>
        <time>2022-04-03T11:14:50Z</time>
      </trkpt>
      <trkpt lat="45.7999" lon="0.87659">
        <ele>248.6</ele>
        <time>2022-04-03T11:14:51Z</time>
      </trkpt>
      <trkpt lat="45.79993" lon="0.8765">
        <ele>248.4</ele>
        <time>2022-04-03T11:14:52Z</time>
      </trkpt>
      <trkpt lat="45.79995" lon="0.87642">
        <ele>248.2</ele>
        <time>2022-04-03T11:14:53Z</time>
      </trkpt>
      <trkpt lat="45.79997" lon="0.87633">
        <ele>248.2</ele>
        <time>2022-04-03T11:14:54Z</time>
      </trkpt>
      <trkpt lat="45.79999" lon="0.87624">
        <ele>248</ele>
        <time>2022-04-03T11:14:55Z</time>
      </trkpt>
      <trkpt lat="45.80001" lon="0.87616">
        <ele>248</ele>
        <time>2022-04-03T11:14:56Z</time>
      </trkpt>
      <trkpt lat="45.80003" lon="0.87607">
        <ele>248</ele>
        <time>2022-04-03T11:14:57Z</time>
      </trkpt>
      <trkpt lat="45.80006" lon="0.87599">
        <ele>248</ele>
        <time>2022-04-03T11:14:58Z</time>
      </trkpt>
      <trkpt lat="45.80008" lon="0.8759">
        <ele>248.2</ele>
        <time>2022-04-03T11:14:59Z</time>
      </trkpt>
      <trkpt lat="45.8001" lon="0.87581">
        <ele>248.2</ele>
        <time>2022-04-03T11:15:00Z</time>
      </trkpt>
      <trkpt lat="45.80012" lon="0.87572">
        <ele>248.2</ele>
        <time>2022-04-03T11:15:01Z</time>
      </trkpt>
      <trkpt lat="45.80015" lon="0.87564">
        <ele>248</ele>
        <time>2022-04-03T11:15:02Z</time>
      </trkpt>
      <trkpt lat="45.80017" lon="0.87555">
        <ele>248</ele>
        <time>2022-04-03T11:15:03Z</time>
      </trkpt>
      <trkpt lat="45.80019" lon="0.87546">
        <ele>248</ele>
        <time>2022-04-03T11:15:04Z</time>
      </trkpt>
      <trkpt lat="45.80021" lon="0.87537">
        <ele>248</ele>
        <time>2022-04-03T11:15:05Z</time>
      </trkpt>
      <trkpt lat="45.80024" lon="0.87528">
        <ele>248</ele>
        <time>2022-04-03T11:15:06Z</time>
      </trkpt>
      <trkpt lat="45.80026" lon="0.87519">
        <ele>247.8</ele>
        <time>2022-04-03T11:15:07Z</time>
      </trkpt>
      <trkpt lat="45.80028" lon="0.8751">
        <ele>247.8</ele>
        <time>2022-04-03T11:15:08Z</time>
      </trkpt>
      <trkpt lat="45.80031" lon="0.87501">
        <ele>247.8</ele>
        <time>2022-04-03T11:15:09Z</time>
      </trkpt>
      <trkpt lat="45.80033" lon="0.87492">
        <ele>247.6</ele>
        <time>2022-04-03T11:15:10Z</time>
      </trkpt>
      <trkpt lat="45.80035" lon="0.87483">
        <ele>247.8</ele>
        <time>2022-04-03T11:15:11Z</time>
      </trkpt>
      <trkpt lat="45.80038" lon="0.87474">
        <ele>247.6</ele>
        <time>2022-04-03T11:15:12Z</time>
      </trkpt>
      <trkpt lat="45.8004" lon="0.87464">
        <ele>247.4</ele>
        <time>2022-04-03T11:15:13Z</time>
      </trkpt>
      <trkpt lat="45.80042" lon="0.87455">
        <ele>247.2</ele>
        <time>2022-04-03T11:15:14Z</time>
      </trkpt>
      <trkpt lat="45.80045" lon="0.87446">
        <ele>247.2</ele>
        <time>2022-04-03T11:15:15Z</time>
      </trkpt>
      <trkpt lat="45.80047" lon="0.87437">
        <ele>247</ele>
        <time>2022-04-03T11:15:16Z</time>
      </trkpt>
      <trkpt lat="45.80049" lon="0.87428">
        <ele>247</ele>
        <time>2022-04-03T11:15:17Z</time>
      </trkpt>
      <trkpt lat="45.80052" lon="0.87419">
        <ele>246.8</ele>
        <time>2022-04-03T11:15:18Z</time>
      </trkpt>
      <trkpt lat="45.80054" lon="0.87409">
        <ele>246.6</ele>
        <time>2022-04-03T11:15:19Z</time>
      </trkpt>
      <trkpt lat="45.80056" lon="0.874">
        <ele>246.8</ele>
        <time>2022-04-03T11:15:20Z</time>
      </trkpt>
      <trkpt lat="45.80058" lon="0.87391">
        <ele>246.6</ele>
        <time>2022-04-03T11:15:21Z</time>
      </trkpt>
      <trkpt lat="45.80061" lon="0.87382">
        <ele>246.6</ele>
        <time>2022-04-03T11:15:22Z</time>
      </trkpt>
      <trkpt lat="45.80063" lon="0.87373">
        <ele>246.6</ele>
        <time>2022-04-03T11:15:23Z</time>
      </trkpt>
      <trkpt lat="45.80065" lon="0.87364">
        <ele>246.6</ele>
        <time>2022-04-03T11:15:24Z</time>
      </trkpt>
      <trkpt lat="45.80068" lon="0.87355">
        <ele>246.4</ele>
        <time>2022-04-03T11:15:25Z</time>
      </trkpt>
      <trkpt lat="45.8007" lon="0.87346">
        <ele>246.4</ele>
        <time>2022-04-03T11:15:26Z</time>
      </trkpt>
      <trkpt lat="45.80072" lon="0.87337">
        <ele>246.4</ele>
        <time>2022-04-03T11:15:27Z</time>
      </trkpt>
      <trkpt lat="45.80074" lon="0.87329">
        <ele>246.4</ele>
        <time>2022-04-03T11:15:28Z</time>
      </trkpt>
      <trkpt lat="45.80076" lon="0.87321">
        <ele>246.4</ele>
        <time>2022-04-03T11:15:29Z</time>
      </trkpt>
      <trkpt lat="45.80079" lon="0.87313">
        <ele>246.4</ele>
        <time>2022-04-03T11:15:30Z</time>
      </trkpt>
      <trkpt lat="45.80081" lon="0.87305">
        <ele>246.4</ele>
        <time>2022-04-03T11:15:31Z</time>
      </trkpt>
      <trkpt lat="45.80083" lon="0.87297">
        <ele>246.2</ele>
        <time>2022-04-03T11:15:32Z</time>
      </trkpt>
      <trkpt lat="45.80085" lon="0.87289">
        <ele>246.4</ele>
        <time>2022-04-03T11:15:33Z</time>
      </trkpt>
      <trkpt lat="45.80086" lon="0.87281">
        <ele>246.2</ele>
        <time>2022-04-03T11:15:34Z</time>
      </trkpt>
      <trkpt lat="45.80088" lon="0.87274">
        <ele>246.4</ele>
        <time>2022-04-03T11:15:35Z</time>
      </trkpt>
      <trkpt lat="45.8009" lon="0.87267">
        <ele>246.4</ele>
        <time>2022-04-03T11:15:36Z</time>
      </trkpt>
      <trkpt lat="45.80092" lon="0.87259">
        <ele>246.6</ele>
        <time>2022-04-03T11:15:37Z</time>
      </trkpt>
      <trkpt lat="45.80094" lon="0.87252">
        <ele>246.8</ele>
        <time>2022-04-03T11:15:38Z</time>
      </trkpt>
      <trkpt lat="45.80096" lon="0.87245">
        <ele>246.8</ele>
        <time>2022-04-03T11:15:39Z</time>
      </trkpt>
      <trkpt lat="45.80098" lon="0.87238">
        <ele>246.8</ele>
        <time>2022-04-03T11:15:40Z</time>
      </trkpt>
      <trkpt lat="45.801" lon="0.87231">
        <ele>247</ele>
        <time>2022-04-03T11:15:41Z</time>
      </trkpt>
      <trkpt lat="45.80102" lon="0.87224">
        <ele>247.2</ele>
        <time>2022-04-03T11:15:42Z</time>
      </trkpt>
      <trkpt lat="45.80103" lon="0.87217">
        <ele>247.2</ele>
        <time>2022-04-03T11:15:43Z</time>
      </trkpt>
      <trkpt lat="45.80105" lon="0.8721">
        <ele>247.6</ele>
        <time>2022-04-03T11:15:44Z</time>
      </trkpt>
      <trkpt lat="45.80107" lon="0.87202">
        <ele>247.6</ele>
        <time>2022-04-03T11:15:45Z</time>
      </trkpt>
      <trkpt lat="45.80109" lon="0.87195">
        <ele>247.6</ele>
        <time>2022-04-03T11:15:46Z</time>
      </trkpt>
      <trkpt lat="45.80111" lon="0.87187">
        <ele>247.6</ele>
        <time>2022-04-03T11:15:47Z</time>
      </trkpt>
      <trkpt lat="45.80114" lon="0.8718">
        <ele>247.6</ele>
        <time>2022-04-03T11:15:48Z</time>
      </trkpt>
      <trkpt lat="45.80116" lon="0.87171">
        <ele>247.6</ele>
        <time>2022-04-03T11:15:49Z</time>
      </trkpt>
      <trkpt lat="45.80119" lon="0.87163">
        <ele>247.6</ele>
        <time>2022-04-03T11:15:50Z</time>
      </trkpt>
      <trkpt lat="45.80122" lon="0.87154">
        <ele>247.6</ele>
        <time>2022-04-03T11:15:51Z</time>
      </trkpt>
      <trkpt lat="45.80126" lon="0.87145">
        <ele>247.6</ele>
        <time>2022-04-03T11:15:52Z</time>
      </trkpt>
      <trkpt lat="45.8013" lon="0.87136">
        <ele>247.4</ele>
        <time>2022-04-03T11:15:53Z</time>
      </trkpt>
      <trkpt lat="45.80135" lon="0.87127">
        <ele>247.4</ele>
        <time>2022-04-03T11:15:54Z</time>
      </trkpt>
      <trkpt lat="45.8014" lon="0.87118">
        <ele>247.4</ele>
        <time>2022-04-03T11:15:55Z</time>
      </trkpt>
      <trkpt lat="45.80146" lon="0.87109">
        <ele>247.4</ele>
        <time>2022-04-03T11:15:56Z</time>
      </trkpt>
      <trkpt lat="45.80152" lon="0.871">
        <ele>247.2</ele>
        <time>2022-04-03T11:15:57Z</time>
      </trkpt>
      <trkpt lat="45.80159" lon="0.87093">
        <ele>247</ele>
        <time>2022-04-03T11:15:58Z</time>
      </trkpt>
      <trkpt lat="45.80166" lon="0.87086">
        <ele>246.4</ele>
        <time>2022-04-03T11:15:59Z</time>
      </trkpt>
      <trkpt lat="45.80173" lon="0.87079">
        <ele>245.8</ele>
        <time>2022-04-03T11:16:00Z</time>
      </trkpt>
      <trkpt lat="45.80181" lon="0.87072">
        <ele>245.4</ele>
        <time>2022-04-03T11:16:01Z</time>
      </trkpt>
      <trkpt lat="45.80189" lon="0.87065">
        <ele>244.6</ele>
        <time>2022-04-03T11:16:02Z</time>
      </trkpt>
      <trkpt lat="45.80197" lon="0.87059">
        <ele>243.8</ele>
        <time>2022-04-03T11:16:03Z</time>
      </trkpt>
      <trkpt lat="45.80205" lon="0.87052">
        <ele>243</ele>
        <time>2022-04-03T11:16:04Z</time>
      </trkpt>
      <trkpt lat="45.80214" lon="0.87045">
        <ele>242.4</ele>
        <time>2022-04-03T11:16:05Z</time>
      </trkpt>
      <trkpt lat="45.80222" lon="0.87038">
        <ele>241.6</ele>
        <time>2022-04-03T11:16:06Z</time>
      </trkpt>
      <trkpt lat="45.80231" lon="0.87031">
        <ele>241.4</ele>
        <time>2022-04-03T11:16:07Z</time>
      </trkpt>
      <trkpt lat="45.8024" lon="0.87024">
        <ele>241</ele>
        <time>2022-04-03T11:16:08Z</time>
      </trkpt>
      <trkpt lat="45.80248" lon="0.87015">
        <ele>240.8</ele>
        <time>2022-04-03T11:16:09Z</time>
      </trkpt>
      <trkpt lat="45.80255" lon="0.87005">
        <ele>240</ele>
        <time>2022-04-03T11:16:10Z</time>
      </trkpt>
      <trkpt lat="45.8026" lon="0.86993">
        <ele>239</ele>
        <time>2022-04-03T11:16:11Z</time>
      </trkpt>
      <trkpt lat="45.80264" lon="0.86981">
        <ele>238.4</ele>
        <time>2022-04-03T11:16:12Z</time>
      </trkpt>
      <trkpt lat="45.80267" lon="0.86969">
        <ele>237.6</ele>
        <time>2022-04-03T11:16:13Z</time>
      </trkpt>
      <trkpt lat="45.80268" lon="0.86956">
        <ele>236.4</ele>
        <time>2022-04-03T11:16:14Z</time>
      </trkpt>
      <trkpt lat="45.80268" lon="0.86945">
        <ele>236.4</ele>
        <time>2022-04-03T11:16:15Z</time>
      </trkpt>
      <trkpt lat="45.80268" lon="0.86933">
        <ele>236.2</ele>
        <time>2022-04-03T11:16:16Z</time>
      </trkpt>
      <trkpt lat="45.80267" lon="0.86923">
        <ele>235.6</ele>
        <time>2022-04-03T11:16:17Z</time>
      </trkpt>
      <trkpt lat="45.80267" lon="0.86912">
        <ele>235.4</ele>
        <time>2022-04-03T11:16:18Z</time>
      </trkpt>
      <trkpt lat="45.80265" lon="0.86902">
        <ele>234.8</ele>
        <time>2022-04-03T11:16:19Z</time>
      </trkpt>
      <trkpt lat="45.80264" lon="0.86893">
        <ele>234.6</ele>
        <time>2022-04-03T11:16:20Z</time>
      </trkpt>
      <trkpt lat="45.80262" lon="0.86883">
        <ele>234.6</ele>
        <time>2022-04-03T11:16:21Z</time>
      </trkpt>
      <trkpt lat="45.80259" lon="0.86875">
        <ele>234.2</ele>
        <time>2022-04-03T11:16:22Z</time>
      </trkpt>
      <trkpt lat="45.80256" lon="0.86867">
        <ele>234.2</ele>
        <time>2022-04-03T11:16:23Z</time>
      </trkpt>
      <trkpt lat="45.80253" lon="0.86861">
        <ele>234.2</ele>
        <time>2022-04-03T11:16:24Z</time>
      </trkpt>
      <trkpt lat="45.80249" lon="0.86855">
        <ele>234.2</ele>
        <time>2022-04-03T11:16:25Z</time>
      </trkpt>
      <trkpt lat="45.80245" lon="0.86849">
        <ele>234.2</ele>
        <time>2022-04-03T11:16:26Z</time>
      </trkpt>
      <trkpt lat="45.80241" lon="0.86843">
        <ele>234.2</ele>
        <time>2022-04-03T11:16:27Z</time>
      </trkpt>
      <trkpt lat="45.80237" lon="0.86837">
        <ele>234.2</ele>
        <time>2022-04-03T11:16:28Z</time>
      </trkpt>
      <trkpt lat="45.80234" lon="0.86831">
        <ele>234.2</ele>
        <time>2022-04-03T11:16:29Z</time>
      </trkpt>
      <trkpt lat="45.80229" lon="0.86825">
        <ele>234.4</ele>
        <time>2022-04-03T11:16:30Z</time>
      </trkpt>
      <trkpt lat="45.80225" lon="0.8682">
        <ele>234.6</ele>
        <time>2022-04-03T11:16:31Z</time>
      </trkpt>
      <trkpt lat="45.80221" lon="0.86814">
        <ele>234.8</ele>
        <time>2022-04-03T11:16:32Z</time>
      </trkpt>
      <trkpt lat="45.80217" lon="0.86808">
        <ele>234.6</ele>
        <time>2022-04-03T11:16:33Z</time>
      </trkpt>
      <trkpt lat="45.80213" lon="0.86802">
        <ele>234.6</ele>
        <time>2022-04-03T11:16:34Z</time>
      </trkpt>
      <trkpt lat="45.80209" lon="0.86797">
        <ele>234.6</ele>
        <time>2022-04-03T11:16:35Z</time>
      </trkpt>
      <trkpt lat="45.80205" lon="0.86791">
        <ele>234.8</ele>
        <time>2022-04-03T11:16:36Z</time>
      </trkpt>
      <trkpt lat="45.80201" lon="0.86786">
        <ele>234.6</ele>
        <time>2022-04-03T11:16:37Z</time>
      </trkpt>
      <trkpt lat="45.80197" lon="0.8678">
        <ele>234.6</ele>
        <time>2022-04-03T11:16:38Z</time>
      </trkpt>
      <trkpt lat="45.80193" lon="0.86775">
        <ele>234.8</ele>
        <time>2022-04-03T11:16:39Z</time>
      </trkpt>
      <trkpt lat="45.80189" lon="0.86769">
        <ele>234.6</ele>
        <time>2022-04-03T11:16:40Z</time>
      </trkpt>
      <trkpt lat="45.80185" lon="0.86763">
        <ele>234.8</ele>
        <time>2022-04-03T11:16:41Z</time>
      </trkpt>
      <trkpt lat="45.80182" lon="0.86756">
        <ele>234.6</ele>
        <time>2022-04-03T11:16:42Z</time>
      </trkpt>
      <trkpt lat="45.80179" lon="0.86749">
        <ele>234.8</ele>
        <time>2022-04-03T11:16:43Z</time>
      </trkpt>
      <trkpt lat="45.80176" lon="0.86742">
        <ele>234.6</ele>
        <time>2022-04-03T11:16:44Z</time>
      </trkpt>
      <trkpt lat="45.80174" lon="0.86734">
        <ele>234.6</ele>
        <time>2022-04-03T11:16:45Z</time>
      </trkpt>
      <trkpt lat="45.80172" lon="0.86725">
        <ele>234.4</ele>
        <time>2022-04-03T11:16:46Z</time>
      </trkpt>
      <trkpt lat="45.80172" lon="0.86716">
        <ele>234.4</ele>
        <time>2022-04-03T11:16:47Z</time>
      </trkpt>
      <trkpt lat="45.80172" lon="0.86707">
        <ele>234</ele>
        <time>2022-04-03T11:16:48Z</time>
      </trkpt>
      <trkpt lat="45.80174" lon="0.86698">
        <ele>234</ele>
        <time>2022-04-03T11:16:49Z</time>
      </trkpt>
      <trkpt lat="45.80176" lon="0.8669">
        <ele>233.8</ele>
        <time>2022-04-03T11:16:50Z</time>
      </trkpt>
      <trkpt lat="45.80178" lon="0.86682">
        <ele>233.6</ele>
        <time>2022-04-03T11:16:51Z</time>
      </trkpt>
      <trkpt lat="45.80181" lon="0.86675">
        <ele>233.6</ele>
        <time>2022-04-03T11:16:52Z</time>
      </trkpt>
      <trkpt lat="45.80185" lon="0.86668">
        <ele>233.6</ele>
        <time>2022-04-03T11:16:53Z</time>
      </trkpt>
      <trkpt lat="45.80188" lon="0.86661">
        <ele>233.2</ele>
        <time>2022-04-03T11:16:54Z</time>
      </trkpt>
      <trkpt lat="45.80192" lon="0.86654">
        <ele>232.8</ele>
        <time>2022-04-03T11:16:55Z</time>
      </trkpt>
      <trkpt lat="45.80196" lon="0.86647">
        <ele>232.6</ele>
        <time>2022-04-03T11:16:56Z</time>
      </trkpt>
      <trkpt lat="45.80201" lon="0.8664">
        <ele>232.4</ele>
        <time>2022-04-03T11:16:57Z</time>
      </trkpt>
      <trkpt lat="45.80205" lon="0.86634">
        <ele>232.2</ele>
        <time>2022-04-03T11:16:58Z</time>
      </trkpt>
      <trkpt lat="45.8021" lon="0.86628">
        <ele>232.2</ele>
        <time>2022-04-03T11:16:59Z</time>
      </trkpt>
      <trkpt lat="45.80215" lon="0.86621">
        <ele>232</ele>
        <time>2022-04-03T11:17:00Z</time>
      </trkpt>
      <trkpt lat="45.80219" lon="0.86614">
        <ele>232</ele>
        <time>2022-04-03T11:17:01Z</time>
      </trkpt>
      <trkpt lat="45.80224" lon="0.86608">
        <ele>232</ele>
        <time>2022-04-03T11:17:02Z</time>
      </trkpt>
      <trkpt lat="45.80228" lon="0.86601">
        <ele>232</ele>
        <time>2022-04-03T11:17:03Z</time>
      </trkpt>
      <trkpt lat="45.80232" lon="0.86594">
        <ele>231.8</ele>
        <time>2022-04-03T11:17:04Z</time>
      </trkpt>
      <trkpt lat="45.80237" lon="0.86587">
        <ele>231.8</ele>
        <time>2022-04-03T11:17:05Z</time>
      </trkpt>
      <trkpt lat="45.80241" lon="0.86581">
        <ele>231.6</ele>
        <time>2022-04-03T11:17:06Z</time>
      </trkpt>
      <trkpt lat="45.80246" lon="0.86574">
        <ele>231.6</ele>
        <time>2022-04-03T11:17:07Z</time>
      </trkpt>
      <trkpt lat="45.8025" lon="0.86568">
        <ele>231.4</ele>
        <time>2022-04-03T11:17:08Z</time>
      </trkpt>
      <trkpt lat="45.80254" lon="0.86562">
        <ele>231.2</ele>
        <time>2022-04-03T11:17:09Z</time>
      </trkpt>
      <trkpt lat="45.80258" lon="0.86555">
        <ele>231</ele>
        <time>2022-04-03T11:17:10Z</time>
      </trkpt>
      <trkpt lat="45.80262" lon="0.86549">
        <ele>230.8</ele>
        <time>2022-04-03T11:17:11Z</time>
      </trkpt>
      <trkpt lat="45.80266" lon="0.86543">
        <ele>230.8</ele>
        <time>2022-04-03T11:17:12Z</time>
      </trkpt>
      <trkpt lat="45.8027" lon="0.86537">
        <ele>230.6</ele>
        <time>2022-04-03T11:17:13Z</time>
      </trkpt>
      <trkpt lat="45.80274" lon="0.86531">
        <ele>230.6</ele>
        <time>2022-04-03T11:17:14Z</time>
      </trkpt>
      <trkpt lat="45.80278" lon="0.86525">
        <ele>230.2</ele>
        <time>2022-04-03T11:17:15Z</time>
      </trkpt>
      <trkpt lat="45.80282" lon="0.86518">
        <ele>230</ele>
        <time>2022-04-03T11:17:16Z</time>
      </trkpt>
      <trkpt lat="45.80285" lon="0.86512">
        <ele>229.8</ele>
        <time>2022-04-03T11:17:17Z</time>
      </trkpt>
      <trkpt lat="45.80288" lon="0.86505">
        <ele>229.6</ele>
        <time>2022-04-03T11:17:18Z</time>
      </trkpt>
      <trkpt lat="45.80291" lon="0.86498">
        <ele>229.4</ele>
        <time>2022-04-03T11:17:19Z</time>
      </trkpt>
      <trkpt lat="45.80294" lon="0.86491">
        <ele>229.4</ele>
        <time>2022-04-03T11:17:20Z</time>
      </trkpt>
      <trkpt lat="45.80297" lon="0.86484">
        <ele>229.2</ele>
        <time>2022-04-03T11:17:21Z</time>
      </trkpt>
      <trkpt lat="45.803" lon="0.86477">
        <ele>229.2</ele>
        <time>2022-04-03T11:17:22Z</time>
      </trkpt>
      <trkpt lat="45.80302" lon="0.86469">
        <ele>228.8</ele>
        <time>2022-04-03T11:17:23Z</time>
      </trkpt>
      <trkpt lat="45.80304" lon="0.86462">
        <ele>228.8</ele>
        <time>2022-04-03T11:17:24Z</time>
      </trkpt>
      <trkpt lat="45.80307" lon="0.86455">
        <ele>228.8</ele>
        <time>2022-04-03T11:17:25Z</time>
      </trkpt>
      <trkpt lat="45.80309" lon="0.86447">
        <ele>228.6</ele>
        <time>2022-04-03T11:17:26Z</time>
      </trkpt>
      <trkpt lat="45.80311" lon="0.8644">
        <ele>228.6</ele>
        <time>2022-04-03T11:17:27Z</time>
      </trkpt>
      <trkpt lat="45.80313" lon="0.86433">
        <ele>228.4</ele>
        <time>2022-04-03T11:17:28Z</time>
      </trkpt>
      <trkpt lat="45.80315" lon="0.86426">
        <ele>228.2</ele>
        <time>2022-04-03T11:17:29Z</time>
      </trkpt>
      <trkpt lat="45.80318" lon="0.86419">
        <ele>228.2</ele>
        <time>2022-04-03T11:17:30Z</time>
      </trkpt>
      <trkpt lat="45.8032" lon="0.86412">
        <ele>228.2</ele>
        <time>2022-04-03T11:17:31Z</time>
      </trkpt>
      <trkpt lat="45.80323" lon="0.86405">
        <ele>228</ele>
        <time>2022-04-03T11:17:32Z</time>
      </trkpt>
      <trkpt lat="45.80326" lon="0.86397">
        <ele>228</ele>
        <time>2022-04-03T11:17:33Z</time>
      </trkpt>
      <trkpt lat="45.80329" lon="0.8639">
        <ele>228</ele>
        <time>2022-04-03T11:17:34Z</time>
      </trkpt>
      <trkpt lat="45.80332" lon="0.86383">
        <ele>227.8</ele>
        <time>2022-04-03T11:17:35Z</time>
      </trkpt>
      <trkpt lat="45.80336" lon="0.86376">
        <ele>227.8</ele>
        <time>2022-04-03T11:17:36Z</time>
      </trkpt>
      <trkpt lat="45.80341" lon="0.86369">
        <ele>227.6</ele>
        <time>2022-04-03T11:17:37Z</time>
      </trkpt>
      <trkpt lat="45.80346" lon="0.86364">
        <ele>227.6</ele>
        <time>2022-04-03T11:17:38Z</time>
      </trkpt>
      <trkpt lat="45.80351" lon="0.86359">
        <ele>227.4</ele>
        <time>2022-04-03T11:17:39Z</time>
      </trkpt>
      <trkpt lat="45.80356" lon="0.86354">
        <ele>227.2</ele>
        <time>2022-04-03T11:17:40Z</time>
      </trkpt>
      <trkpt lat="45.80361" lon="0.8635">
        <ele>226.8</ele>
        <time>2022-04-03T11:17:41Z</time>
      </trkpt>
      <trkpt lat="45.80366" lon="0.86347">
        <ele>226.8</ele>
        <time>2022-04-03T11:17:42Z</time>
      </trkpt>
      <trkpt lat="45.80372" lon="0.86344">
        <ele>226.4</ele>
        <time>2022-04-03T11:17:43Z</time>
      </trkpt>
      <trkpt lat="45.80377" lon="0.86341">
        <ele>226.4</ele>
        <time>2022-04-03T11:17:44Z</time>
      </trkpt>
      <trkpt lat="45.80383" lon="0.86338">
        <ele>226.2</ele>
        <time>2022-04-03T11:17:45Z</time>
      </trkpt>
      <trkpt lat="45.80388" lon="0.86335">
        <ele>226</ele>
        <time>2022-04-03T11:17:46Z</time>
      </trkpt>
      <trkpt lat="45.80394" lon="0.86332">
        <ele>226</ele>
        <time>2022-04-03T11:17:47Z</time>
      </trkpt>
      <trkpt lat="45.804" lon="0.86329">
        <ele>225.8</ele>
        <time>2022-04-03T11:17:48Z</time>
      </trkpt>
      <trkpt lat="45.80405" lon="0.86326">
        <ele>225.8</ele>
        <time>2022-04-03T11:17:49Z</time>
      </trkpt>
      <trkpt lat="45.80411" lon="0.86323">
        <ele>225.8</ele>
        <time>2022-04-03T11:17:50Z</time>
      </trkpt>
      <trkpt lat="45.80416" lon="0.86321">
        <ele>225.6</ele>
        <time>2022-04-03T11:17:51Z</time>
      </trkpt>
      <trkpt lat="45.80421" lon="0.86318">
        <ele>225.6</ele>
        <time>2022-04-03T11:17:52Z</time>
      </trkpt>
      <trkpt lat="45.80427" lon="0.86316">
        <ele>225.4</ele>
        <time>2022-04-03T11:17:53Z</time>
      </trkpt>
      <trkpt lat="45.80433" lon="0.86314">
        <ele>225.4</ele>
        <time>2022-04-03T11:17:54Z</time>
      </trkpt>
      <trkpt lat="45.80439" lon="0.86312">
        <ele>225.2</ele>
        <time>2022-04-03T11:17:55Z</time>
      </trkpt>
      <trkpt lat="45.80444" lon="0.86311">
        <ele>225</ele>
        <time>2022-04-03T11:17:56Z</time>
      </trkpt>
      <trkpt lat="45.8045" lon="0.86309">
        <ele>224.8</ele>
        <time>2022-04-03T11:17:57Z</time>
      </trkpt>
      <trkpt lat="45.80456" lon="0.86308">
        <ele>224.4</ele>
        <time>2022-04-03T11:17:58Z</time>
      </trkpt>
      <trkpt lat="45.80462" lon="0.86307">
        <ele>224.2</ele>
        <time>2022-04-03T11:17:59Z</time>
      </trkpt>
      <trkpt lat="45.80469" lon="0.86306">
        <ele>223.8</ele>
        <time>2022-04-03T11:18:00Z</time>
      </trkpt>
      <trkpt lat="45.80475" lon="0.86305">
        <ele>223.6</ele>
        <time>2022-04-03T11:18:01Z</time>
      </trkpt>
      <trkpt lat="45.80482" lon="0.86303">
        <ele>223.4</ele>
        <time>2022-04-03T11:18:02Z</time>
      </trkpt>
      <trkpt lat="45.80489" lon="0.863">
        <ele>223.4</ele>
        <time>2022-04-03T11:18:03Z</time>
      </trkpt>
      <trkpt lat="45.80495" lon="0.86296">
        <ele>223.4</ele>
        <time>2022-04-03T11:18:04Z</time>
      </trkpt>
      <trkpt lat="45.80501" lon="0.86292">
        <ele>223</ele>
        <time>2022-04-03T11:18:05Z</time>
      </trkpt>
      <trkpt lat="45.80507" lon="0.86287">
        <ele>222.8</ele>
        <time>2022-04-03T11:18:06Z</time>
      </trkpt>
      <trkpt lat="45.80513" lon="0.86282">
        <ele>222.6</ele>
        <time>2022-04-03T11:18:07Z</time>
      </trkpt>
      <trkpt lat="45.80519" lon="0.86276">
        <ele>222.6</ele>
        <time>2022-04-03T11:18:08Z</time>
      </trkpt>
      <trkpt lat="45.80524" lon="0.8627">
        <ele>222.4</ele>
        <time>2022-04-03T11:18:09Z</time>
      </trkpt>
      <trkpt lat="45.80529" lon="0.86263">
        <ele>222</ele>
        <time>2022-04-03T11:18:10Z</time>
      </trkpt>
      <trkpt lat="45.80534" lon="0.86257">
        <ele>221.8</ele>
        <time>2022-04-03T11:18:11Z</time>
      </trkpt>
      <trkpt lat="45.80539" lon="0.8625">
        <ele>221.4</ele>
        <time>2022-04-03T11:18:12Z</time>
      </trkpt>
      <trkpt lat="45.80545" lon="0.86243">
        <ele>220.8</ele>
        <time>2022-04-03T11:18:13Z</time>
      </trkpt>
      <trkpt lat="45.8055" lon="0.86236">
        <ele>220.4</ele>
        <time>2022-04-03T11:18:14Z</time>
      </trkpt>
      <trkpt lat="45.80555" lon="0.8623">
        <ele>220.2</ele>
        <time>2022-04-03T11:18:15Z</time>
      </trkpt>
      <trkpt lat="45.8056" lon="0.86224">
        <ele>220</ele>
        <time>2022-04-03T11:18:16Z</time>
      </trkpt>
      <trkpt lat="45.80565" lon="0.86217">
        <ele>220</ele>
        <time>2022-04-03T11:18:17Z</time>
      </trkpt>
      <trkpt lat="45.8057" lon="0.86211">
        <ele>219.8</ele>
        <time>2022-04-03T11:18:18Z</time>
      </trkpt>
      <trkpt lat="45.80575" lon="0.86205">
        <ele>220</ele>
        <time>2022-04-03T11:18:19Z</time>
      </trkpt>
      <trkpt lat="45.8058" lon="0.86199">
        <ele>219.8</ele>
        <time>2022-04-03T11:18:20Z</time>
      </trkpt>
      <trkpt lat="45.80585" lon="0.86193">
        <ele>219.8</ele>
        <time>2022-04-03T11:18:21Z</time>
      </trkpt>
      <trkpt lat="45.8059" lon="0.86187">
        <ele>219.8</ele>
        <time>2022-04-03T11:18:22Z</time>
      </trkpt>
      <trkpt lat="45.80595" lon="0.86181">
        <ele>219.8</ele>
        <time>2022-04-03T11:18:23Z</time>
      </trkpt>
      <trkpt lat="45.806" lon="0.86175">
        <ele>219.6</ele>
        <time>2022-04-03T11:18:24Z</time>
      </trkpt>
      <trkpt lat="45.80605" lon="0.86169">
        <ele>219.8</ele>
        <time>2022-04-03T11:18:25Z</time>
      </trkpt>
      <trkpt lat="45.8061" lon="0.86163">
        <ele>219.6</ele>
        <time>2022-04-03T11:18:26Z</time>
      </trkpt>
      <trkpt lat="45.80615" lon="0.86156">
        <ele>219.6</ele>
        <time>2022-04-03T11:18:27Z</time>
      </trkpt>
      <trkpt lat="45.80619" lon="0.8615">
        <ele>219.8</ele>
        <time>2022-04-03T11:18:28Z</time>
      </trkpt>
      <trkpt lat="45.80624" lon="0.86143">
        <ele>219.6</ele>
        <time>2022-04-03T11:18:29Z</time>
      </trkpt>
      <trkpt lat="45.80627" lon="0.86136">
        <ele>219.6</ele>
        <time>2022-04-03T11:18:30Z</time>
      </trkpt>
      <trkpt lat="45.80631" lon="0.86129">
        <ele>219.8</ele>
        <time>2022-04-03T11:18:31Z</time>
      </trkpt>
      <trkpt lat="45.80634" lon="0.86122">
        <ele>219.8</ele>
        <time>2022-04-03T11:18:32Z</time>
      </trkpt>
      <trkpt lat="45.80637" lon="0.86115">
        <ele>219.8</ele>
        <time>2022-04-03T11:18:33Z</time>
      </trkpt>
      <trkpt lat="45.80641" lon="0.86108">
        <ele>219.8</ele>
        <time>2022-04-03T11:18:34Z</time>
      </trkpt>
      <trkpt lat="45.80644" lon="0.86101">
        <ele>219.8</ele>
        <time>2022-04-03T11:18:35Z</time>
      </trkpt>
      <trkpt lat="45.80647" lon="0.86094">
        <ele>219.8</ele>
        <time>2022-04-03T11:18:36Z</time>
      </trkpt>
      <trkpt lat="45.8065" lon="0.86086">
        <ele>219.8</ele>
        <time>2022-04-03T11:18:37Z</time>
      </trkpt>
      <trkpt lat="45.80654" lon="0.86079">
        <ele>219.8</ele>
        <time>2022-04-03T11:18:38Z</time>
      </trkpt>
      <trkpt lat="45.80657" lon="0.86072">
        <ele>219.6</ele>
        <time>2022-04-03T11:18:39Z</time>
      </trkpt>
      <trkpt lat="45.80661" lon="0.86065">
        <ele>219.6</ele>
        <time>2022-04-03T11:18:40Z</time>
      </trkpt>
      <trkpt lat="45.80665" lon="0.86057">
        <ele>219.6</ele>
        <time>2022-04-03T11:18:41Z</time>
      </trkpt>
      <trkpt lat="45.80669" lon="0.8605">
        <ele>219.6</ele>
        <time>2022-04-03T11:18:42Z</time>
      </trkpt>
      <trkpt lat="45.80673" lon="0.86042">
        <ele>219.4</ele>
        <time>2022-04-03T11:18:43Z</time>
      </trkpt>
      <trkpt lat="45.80678" lon="0.86035">
        <ele>219.4</ele>
        <time>2022-04-03T11:18:44Z</time>
      </trkpt>
      <trkpt lat="45.80683" lon="0.86027">
        <ele>219.2</ele>
        <time>2022-04-03T11:18:45Z</time>
      </trkpt>
      <trkpt lat="45.80689" lon="0.86019">
        <ele>219.2</ele>
        <time>2022-04-03T11:18:46Z</time>
      </trkpt>
      <trkpt lat="45.80694" lon="0.86011">
        <ele>219.4</ele>
        <time>2022-04-03T11:18:47Z</time>
      </trkpt>
      <trkpt lat="45.807" lon="0.86004">
        <ele>219</ele>
        <time>2022-04-03T11:18:48Z</time>
      </trkpt>
      <trkpt lat="45.80706" lon="0.85996">
        <ele>218.8</ele>
        <time>2022-04-03T11:18:49Z</time>
      </trkpt>
      <trkpt lat="45.80711" lon="0.85987">
        <ele>218.8</ele>
        <time>2022-04-03T11:18:50Z</time>
      </trkpt>
      <trkpt lat="45.80717" lon="0.85979">
        <ele>218.6</ele>
        <time>2022-04-03T11:18:51Z</time>
      </trkpt>
      <trkpt lat="45.80722" lon="0.8597">
        <ele>218.2</ele>
        <time>2022-04-03T11:18:52Z</time>
      </trkpt>
      <trkpt lat="45.80726" lon="0.8596">
        <ele>217.8</ele>
        <time>2022-04-03T11:18:53Z</time>
      </trkpt>
      <trkpt lat="45.8073" lon="0.8595">
        <ele>217.2</ele>
        <time>2022-04-03T11:18:54Z</time>
      </trkpt>
      <trkpt lat="45.80733" lon="0.8594">
        <ele>216.8</ele>
        <time>2022-04-03T11:18:55Z</time>
      </trkpt>
      <trkpt lat="45.80735" lon="0.85929">
        <ele>216.6</ele>
        <time>2022-04-03T11:18:56Z</time>
      </trkpt>
      <trkpt lat="45.80737" lon="0.85918">
        <ele>216.4</ele>
        <time>2022-04-03T11:18:57Z</time>
      </trkpt>
      <trkpt lat="45.80738" lon="0.85908">
        <ele>216.4</ele>
        <time>2022-04-03T11:18:58Z</time>
      </trkpt>
      <trkpt lat="45.80739" lon="0.85897">
        <ele>216.2</ele>
        <time>2022-04-03T11:18:59Z</time>
      </trkpt>
      <trkpt lat="45.80739" lon="0.85887">
        <ele>216.2</ele>
        <time>2022-04-03T11:19:00Z</time>
      </trkpt>
      <trkpt lat="45.80738" lon="0.85876">
        <ele>216.2</ele>
        <time>2022-04-03T11:19:01Z</time>
      </trkpt>
      <trkpt lat="45.80738" lon="0.85866">
        <ele>216.2</ele>
        <time>2022-04-03T11:19:02Z</time>
      </trkpt>
      <trkpt lat="45.80738" lon="0.85856">
        <ele>216</ele>
        <time>2022-04-03T11:19:03Z</time>
      </trkpt>
      <trkpt lat="45.80737" lon="0.85846">
        <ele>216</ele>
        <time>2022-04-03T11:19:04Z</time>
      </trkpt>
      <trkpt lat="45.80737" lon="0.85836">
        <ele>216</ele>
        <time>2022-04-03T11:19:05Z</time>
      </trkpt>
      <trkpt lat="45.80737" lon="0.85826">
        <ele>216</ele>
        <time>2022-04-03T11:19:06Z</time>
      </trkpt>
      <trkpt lat="45.80737" lon="0.85816">
        <ele>216</ele>
        <time>2022-04-03T11:19:07Z</time>
      </trkpt>
      <trkpt lat="45.80737" lon="0.85806">
        <ele>216.2</ele>
        <time>2022-04-03T11:19:08Z</time>
      </trkpt>
      <trkpt lat="45.80737" lon="0.85796">
        <ele>216.2</ele>
        <time>2022-04-03T11:19:09Z</time>
      </trkpt>
      <trkpt lat="45.80738" lon="0.85786">
        <ele>216.2</ele>
        <time>2022-04-03T11:19:10Z</time>
      </trkpt>
      <trkpt lat="45.80738" lon="0.85776">
        <ele>216.2</ele>
        <time>2022-04-03T11:19:11Z</time>
      </trkpt>
      <trkpt lat="45.80739" lon="0.85766">
        <ele>216</ele>
        <time>2022-04-03T11:19:12Z</time>
      </trkpt>
      <trkpt lat="45.80741" lon="0.85757">
        <ele>216</ele>
        <time>2022-04-03T11:19:13Z</time>
      </trkpt>
      <trkpt lat="45.80743" lon="0.85747">
        <ele>215.8</ele>
        <time>2022-04-03T11:19:14Z</time>
      </trkpt>
      <trkpt lat="45.80745" lon="0.85738">
        <ele>215.8</ele>
        <time>2022-04-03T11:19:15Z</time>
      </trkpt>
      <trkpt lat="45.80748" lon="0.85729">
        <ele>215.6</ele>
        <time>2022-04-03T11:19:16Z</time>
      </trkpt>
      <trkpt lat="45.80751" lon="0.8572">
        <ele>215.6</ele>
        <time>2022-04-03T11:19:17Z</time>
      </trkpt>
      <trkpt lat="45.80754" lon="0.85712">
        <ele>215.6</ele>
        <time>2022-04-03T11:19:18Z</time>
      </trkpt>
      <trkpt lat="45.80758" lon="0.85704">
        <ele>215.6</ele>
        <time>2022-04-03T11:19:19Z</time>
      </trkpt>
      <trkpt lat="45.80762" lon="0.85696">
        <ele>215.6</ele>
        <time>2022-04-03T11:19:20Z</time>
      </trkpt>
      <trkpt lat="45.80766" lon="0.85688">
        <ele>215.6</ele>
        <time>2022-04-03T11:19:21Z</time>
      </trkpt>
      <trkpt lat="45.8077" lon="0.8568">
        <ele>215.6</ele>
        <time>2022-04-03T11:19:22Z</time>
      </trkpt>
      <trkpt lat="45.80774" lon="0.85672">
        <ele>215.4</ele>
        <time>2022-04-03T11:19:23Z</time>
      </trkpt>
      <trkpt lat="45.80778" lon="0.85663">
        <ele>215.4</ele>
        <time>2022-04-03T11:19:24Z</time>
      </trkpt>
      <trkpt lat="45.80782" lon="0.85655">
        <ele>215.6</ele>
        <time>2022-04-03T11:19:25Z</time>
      </trkpt>
      <trkpt lat="45.80786" lon="0.85647">
        <ele>215.4</ele>
        <time>2022-04-03T11:19:26Z</time>
      </trkpt>
      <trkpt lat="45.80789" lon="0.85639">
        <ele>215.4</ele>
        <time>2022-04-03T11:19:27Z</time>
      </trkpt>
      <trkpt lat="45.80793" lon="0.85631">
        <ele>215.2</ele>
        <time>2022-04-03T11:19:28Z</time>
      </trkpt>
      <trkpt lat="45.80796" lon="0.85623">
        <ele>215.2</ele>
        <time>2022-04-03T11:19:29Z</time>
      </trkpt>
      <trkpt lat="45.80799" lon="0.85615">
        <ele>215.2</ele>
        <time>2022-04-03T11:19:30Z</time>
      </trkpt>
      <trkpt lat="45.80803" lon="0.85608">
        <ele>215.2</ele>
        <time>2022-04-03T11:19:31Z</time>
      </trkpt>
      <trkpt lat="45.80806" lon="0.856">
        <ele>215.2</ele>
        <time>2022-04-03T11:19:32Z</time>
      </trkpt>
      <trkpt lat="45.80809" lon="0.85593">
        <ele>215</ele>
        <time>2022-04-03T11:19:33Z</time>
      </trkpt>
      <trkpt lat="45.80812" lon="0.85586">
        <ele>215</ele>
        <time>2022-04-03T11:19:34Z</time>
      </trkpt>
      <trkpt lat="45.80815" lon="0.85579">
        <ele>215</ele>
        <time>2022-04-03T11:19:35Z</time>
      </trkpt>
      <trkpt lat="45.80818" lon="0.85571">
        <ele>215</ele>
        <time>2022-04-03T11:19:36Z</time>
      </trkpt>
      <trkpt lat="45.80821" lon="0.85564">
        <ele>214.8</ele>
        <time>2022-04-03T11:19:37Z</time>
      </trkpt>
      <trkpt lat="45.80824" lon="0.85557">
        <ele>214.8</ele>
        <time>2022-04-03T11:19:38Z</time>
      </trkpt>
      <trkpt lat="45.80827" lon="0.85551">
        <ele>214.8</ele>
        <time>2022-04-03T11:19:39Z</time>
      </trkpt>
      <trkpt lat="45.8083" lon="0.85544">
        <ele>214.8</ele>
        <time>2022-04-03T11:19:40Z</time>
      </trkpt>
      <trkpt lat="45.80833" lon="0.85537">
        <ele>214.8</ele>
        <time>2022-04-03T11:19:41Z</time>
      </trkpt>
      <trkpt lat="45.80836" lon="0.8553">
        <ele>214.8</ele>
        <time>2022-04-03T11:19:42Z</time>
      </trkpt>
      <trkpt lat="45.80839" lon="0.85524">
        <ele>214.8</ele>
        <time>2022-04-03T11:19:43Z</time>
      </trkpt>
      <trkpt lat="45.80842" lon="0.85517">
        <ele>214.6</ele>
        <time>2022-04-03T11:19:44Z</time>
      </trkpt>
      <trkpt lat="45.80844" lon="0.8551">
        <ele>214.8</ele>
        <time>2022-04-03T11:19:45Z</time>
      </trkpt>
      <trkpt lat="45.80847" lon="0.85503">
        <ele>214.8</ele>
        <time>2022-04-03T11:19:46Z</time>
      </trkpt>
      <trkpt lat="45.8085" lon="0.85496">
        <ele>214.8</ele>
        <time>2022-04-03T11:19:47Z</time>
      </trkpt>
      <trkpt lat="45.80853" lon="0.85489">
        <ele>215</ele>
        <time>2022-04-03T11:19:48Z</time>
      </trkpt>
      <trkpt lat="45.80856" lon="0.85482">
        <ele>215</ele>
        <time>2022-04-03T11:19:49Z</time>
      </trkpt>
      <trkpt lat="45.80859" lon="0.85474">
        <ele>215</ele>
        <time>2022-04-03T11:19:50Z</time>
      </trkpt>
      <trkpt lat="45.80862" lon="0.85466">
        <ele>215</ele>
        <time>2022-04-03T11:19:51Z</time>
      </trkpt>
      <trkpt lat="45.80866" lon="0.85458">
        <ele>214.8</ele>
        <time>2022-04-03T11:19:52Z</time>
      </trkpt>
      <trkpt lat="45.80869" lon="0.85449">
        <ele>214.8</ele>
        <time>2022-04-03T11:19:53Z</time>
      </trkpt>
      <trkpt lat="45.80873" lon="0.85441">
        <ele>214.8</ele>
        <time>2022-04-03T11:19:54Z</time>
      </trkpt>
      <trkpt lat="45.80876" lon="0.85432">
        <ele>214.8</ele>
        <time>2022-04-03T11:19:55Z</time>
      </trkpt>
      <trkpt lat="45.8088" lon="0.85422">
        <ele>214.8</ele>
        <time>2022-04-03T11:19:56Z</time>
      </trkpt>
      <trkpt lat="45.80884" lon="0.85413">
        <ele>214.8</ele>
        <time>2022-04-03T11:19:57Z</time>
      </trkpt>
      <trkpt lat="45.80888" lon="0.85403">
        <ele>214.8</ele>
        <time>2022-04-03T11:19:58Z</time>
      </trkpt>
      <trkpt lat="45.80892" lon="0.85394">
        <ele>214.6</ele>
        <time>2022-04-03T11:19:59Z</time>
      </trkpt>
      <trkpt lat="45.80896" lon="0.85384">
        <ele>214.6</ele>
        <time>2022-04-03T11:20:00Z</time>
      </trkpt>
      <trkpt lat="45.80899" lon="0.85375">
        <ele>214.2</ele>
        <time>2022-04-03T11:20:01Z</time>
      </trkpt>
      <trkpt lat="45.80903" lon="0.85365">
        <ele>214.2</ele>
        <time>2022-04-03T11:20:02Z</time>
      </trkpt>
      <trkpt lat="45.80907" lon="0.85355">
        <ele>213.8</ele>
        <time>2022-04-03T11:20:03Z</time>
      </trkpt>
      <trkpt lat="45.80911" lon="0.85346">
        <ele>213.2</ele>
        <time>2022-04-03T11:20:04Z</time>
      </trkpt>
      <trkpt lat="45.80915" lon="0.85337">
        <ele>212.8</ele>
        <time>2022-04-03T11:20:05Z</time>
      </trkpt>
      <trkpt lat="45.80918" lon="0.85328">
        <ele>212.4</ele>
        <time>2022-04-03T11:20:06Z</time>
      </trkpt>
      <trkpt lat="45.80922" lon="0.85319">
        <ele>212.4</ele>
        <time>2022-04-03T11:20:07Z</time>
      </trkpt>
      <trkpt lat="45.80926" lon="0.8531">
        <ele>212.2</ele>
        <time>2022-04-03T11:20:08Z</time>
      </trkpt>
      <trkpt lat="45.80929" lon="0.85301">
        <ele>211.6</ele>
        <time>2022-04-03T11:20:09Z</time>
      </trkpt>
      <trkpt lat="45.80933" lon="0.85292">
        <ele>211.4</ele>
        <time>2022-04-03T11:20:10Z</time>
      </trkpt>
      <trkpt lat="45.80937" lon="0.85283">
        <ele>211</ele>
        <time>2022-04-03T11:20:11Z</time>
      </trkpt>
      <trkpt lat="45.80941" lon="0.85274">
        <ele>211</ele>
        <time>2022-04-03T11:20:12Z</time>
      </trkpt>
      <trkpt lat="45.80944" lon="0.85265">
        <ele>210.8</ele>
        <time>2022-04-03T11:20:13Z</time>
      </trkpt>
      <trkpt lat="45.80948" lon="0.85256">
        <ele>210.8</ele>
        <time>2022-04-03T11:20:14Z</time>
      </trkpt>
      <trkpt lat="45.80951" lon="0.85248">
        <ele>210.6</ele>
        <time>2022-04-03T11:20:15Z</time>
      </trkpt>
      <trkpt lat="45.80955" lon="0.85239">
        <ele>210.6</ele>
        <time>2022-04-03T11:20:16Z</time>
      </trkpt>
      <trkpt lat="45.80959" lon="0.85231">
        <ele>210.6</ele>
        <time>2022-04-03T11:20:17Z</time>
      </trkpt>
      <trkpt lat="45.80962" lon="0.85222">
        <ele>210.6</ele>
        <time>2022-04-03T11:20:18Z</time>
      </trkpt>
      <trkpt lat="45.80966" lon="0.85214">
        <ele>210.4</ele>
        <time>2022-04-03T11:20:19Z</time>
      </trkpt>
      <trkpt lat="45.8097" lon="0.85207">
        <ele>210.6</ele>
        <time>2022-04-03T11:20:20Z</time>
      </trkpt>
      <trkpt lat="45.80974" lon="0.85199">
        <ele>210.6</ele>
        <time>2022-04-03T11:20:21Z</time>
      </trkpt>
      <trkpt lat="45.80978" lon="0.85192">
        <ele>210.6</ele>
        <time>2022-04-03T11:20:22Z</time>
      </trkpt>
      <trkpt lat="45.80983" lon="0.85185">
        <ele>210.4</ele>
        <time>2022-04-03T11:20:23Z</time>
      </trkpt>
      <trkpt lat="45.80987" lon="0.85178">
        <ele>210.6</ele>
        <time>2022-04-03T11:20:24Z</time>
      </trkpt>
      <trkpt lat="45.80991" lon="0.85171">
        <ele>210.6</ele>
        <time>2022-04-03T11:20:25Z</time>
      </trkpt>
      <trkpt lat="45.80996" lon="0.85164">
        <ele>210.6</ele>
        <time>2022-04-03T11:20:26Z</time>
      </trkpt>
      <trkpt lat="45.81" lon="0.85157">
        <ele>210.6</ele>
        <time>2022-04-03T11:20:27Z</time>
      </trkpt>
      <trkpt lat="45.81005" lon="0.85149">
        <ele>210.6</ele>
        <time>2022-04-03T11:20:28Z</time>
      </trkpt>
      <trkpt lat="45.81009" lon="0.85142">
        <ele>210.6</ele>
        <time>2022-04-03T11:20:29Z</time>
      </trkpt>
      <trkpt lat="45.81014" lon="0.85135">
        <ele>210.6</ele>
        <time>2022-04-03T11:20:30Z</time>
      </trkpt>
      <trkpt lat="45.81018" lon="0.85128">
        <ele>210.6</ele>
        <time>2022-04-03T11:20:31Z</time>
      </trkpt>
      <trkpt lat="45.81022" lon="0.85121">
        <ele>210.6</ele>
        <time>2022-04-03T11:20:32Z</time>
      </trkpt>
      <trkpt lat="45.81026" lon="0.85113">
        <ele>210.6</ele>
        <time>2022-04-03T11:20:33Z</time>
      </trkpt>
      <trkpt lat="45.8103" lon="0.85106">
        <ele>210.6</ele>
        <time>2022-04-03T11:20:34Z</time>
      </trkpt>
      <trkpt lat="45.81034" lon="0.85099">
        <ele>210.6</ele>
        <time>2022-04-03T11:20:35Z</time>
      </trkpt>
      <trkpt lat="45.81038" lon="0.85091">
        <ele>210.6</ele>
        <time>2022-04-03T11:20:36Z</time>
      </trkpt>
      <trkpt lat="45.81041" lon="0.85084">
        <ele>210.8</ele>
        <time>2022-04-03T11:20:37Z</time>
      </trkpt>
      <trkpt lat="45.81044" lon="0.85076">
        <ele>210.8</ele>
        <time>2022-04-03T11:20:38Z</time>
      </trkpt>
      <trkpt lat="45.81048" lon="0.85068">
        <ele>210.8</ele>
        <time>2022-04-03T11:20:39Z</time>
      </trkpt>
      <trkpt lat="45.81051" lon="0.85061">
        <ele>210.8</ele>
        <time>2022-04-03T11:20:40Z</time>
      </trkpt>
      <trkpt lat="45.81053" lon="0.85053">
        <ele>211</ele>
        <time>2022-04-03T11:20:41Z</time>
      </trkpt>
      <trkpt lat="45.81056" lon="0.85046">
        <ele>211</ele>
        <time>2022-04-03T11:20:42Z</time>
      </trkpt>
      <trkpt lat="45.81059" lon="0.85038">
        <ele>211</ele>
        <time>2022-04-03T11:20:43Z</time>
      </trkpt>
      <trkpt lat="45.81062" lon="0.85031">
        <ele>211.2</ele>
        <time>2022-04-03T11:20:44Z</time>
      </trkpt>
      <trkpt lat="45.81064" lon="0.85023">
        <ele>211</ele>
        <time>2022-04-03T11:20:45Z</time>
      </trkpt>
      <trkpt lat="45.81067" lon="0.85016">
        <ele>211.2</ele>
        <time>2022-04-03T11:20:46Z</time>
      </trkpt>
      <trkpt lat="45.8107" lon="0.85008">
        <ele>211.2</ele>
        <time>2022-04-03T11:20:47Z</time>
      </trkpt>
      <trkpt lat="45.81072" lon="0.85">
        <ele>211.2</ele>
        <time>2022-04-03T11:20:48Z</time>
      </trkpt>
      <trkpt lat="45.81075" lon="0.84993">
        <ele>211.2</ele>
        <time>2022-04-03T11:20:49Z</time>
      </trkpt>
      <trkpt lat="45.81078" lon="0.84985">
        <ele>211.2</ele>
        <time>2022-04-03T11:20:50Z</time>
      </trkpt>
      <trkpt lat="45.8108" lon="0.84978">
        <ele>211</ele>
        <time>2022-04-03T11:20:51Z</time>
      </trkpt>
      <trkpt lat="45.81083" lon="0.84971">
        <ele>211.2</ele>
        <time>2022-04-03T11:20:52Z</time>
      </trkpt>
      <trkpt lat="45.81086" lon="0.84963">
        <ele>211</ele>
        <time>2022-04-03T11:20:53Z</time>
      </trkpt>
      <trkpt lat="45.81089" lon="0.84956">
        <ele>211.2</ele>
        <time>2022-04-03T11:20:54Z</time>
      </trkpt>
      <trkpt lat="45.81091" lon="0.84949">
        <ele>211.2</ele>
        <time>2022-04-03T11:20:55Z</time>
      </trkpt>
      <trkpt lat="45.81094" lon="0.84941">
        <ele>211.4</ele>
        <time>2022-04-03T11:20:56Z</time>
      </trkpt>
      <trkpt lat="45.81096" lon="0.84933">
        <ele>211.4</ele>
        <time>2022-04-03T11:20:57Z</time>
      </trkpt>
      <trkpt lat="45.81099" lon="0.84926">
        <ele>211.4</ele>
        <time>2022-04-03T11:20:58Z</time>
      </trkpt>
      <trkpt lat="45.81102" lon="0.84919">
        <ele>211.4</ele>
        <time>2022-04-03T11:20:59Z</time>
      </trkpt>
      <trkpt lat="45.81105" lon="0.84911">
        <ele>211.4</ele>
        <time>2022-04-03T11:21:00Z</time>
      </trkpt>
      <trkpt lat="45.81107" lon="0.84904">
        <ele>211.4</ele>
        <time>2022-04-03T11:21:01Z</time>
      </trkpt>
      <trkpt lat="45.8111" lon="0.84897">
        <ele>211.4</ele>
        <time>2022-04-03T11:21:02Z</time>
      </trkpt>
      <trkpt lat="45.81113" lon="0.8489">
        <ele>211.6</ele>
        <time>2022-04-03T11:21:03Z</time>
      </trkpt>
      <trkpt lat="45.81115" lon="0.84882">
        <ele>211.6</ele>
        <time>2022-04-03T11:21:04Z</time>
      </trkpt>
      <trkpt lat="45.81118" lon="0.84875">
        <ele>211.8</ele>
        <time>2022-04-03T11:21:05Z</time>
      </trkpt>
      <trkpt lat="45.81121" lon="0.84868">
        <ele>212</ele>
        <time>2022-04-03T11:21:06Z</time>
      </trkpt>
      <trkpt lat="45.81123" lon="0.8486">
        <ele>211.8</ele>
        <time>2022-04-03T11:21:07Z</time>
      </trkpt>
      <trkpt lat="45.81126" lon="0.84853">
        <ele>211.8</ele>
        <time>2022-04-03T11:21:08Z</time>
      </trkpt>
      <trkpt lat="45.81129" lon="0.84845">
        <ele>211.8</ele>
        <time>2022-04-03T11:21:09Z</time>
      </trkpt>
      <trkpt lat="45.81132" lon="0.84838">
        <ele>212</ele>
        <time>2022-04-03T11:21:10Z</time>
      </trkpt>
      <trkpt lat="45.81135" lon="0.8483">
        <ele>212</ele>
        <time>2022-04-03T11:21:11Z</time>
      </trkpt>
      <trkpt lat="45.81138" lon="0.84823">
        <ele>211.8</ele>
        <time>2022-04-03T11:21:12Z</time>
      </trkpt>
      <trkpt lat="45.81142" lon="0.84815">
        <ele>212</ele>
        <time>2022-04-03T11:21:13Z</time>
      </trkpt>
      <trkpt lat="45.81146" lon="0.84808">
        <ele>211.8</ele>
        <time>2022-04-03T11:21:14Z</time>
      </trkpt>
      <trkpt lat="45.8115" lon="0.84801">
        <ele>211.6</ele>
        <time>2022-04-03T11:21:15Z</time>
      </trkpt>
      <trkpt lat="45.81154" lon="0.84794">
        <ele>211.6</ele>
        <time>2022-04-03T11:21:16Z</time>
      </trkpt>
      <trkpt lat="45.81158" lon="0.84787">
        <ele>211.6</ele>
        <time>2022-04-03T11:21:17Z</time>
      </trkpt>
      <trkpt lat="45.81162" lon="0.84781">
        <ele>211.6</ele>
        <time>2022-04-03T11:21:18Z</time>
      </trkpt>
      <trkpt lat="45.81167" lon="0.84774">
        <ele>211.4</ele>
        <time>2022-04-03T11:21:19Z</time>
      </trkpt>
      <trkpt lat="45.81171" lon="0.84767">
        <ele>211.2</ele>
        <time>2022-04-03T11:21:20Z</time>
      </trkpt>
      <trkpt lat="45.81175" lon="0.8476">
        <ele>211</ele>
        <time>2022-04-03T11:21:21Z</time>
      </trkpt>
      <trkpt lat="45.8118" lon="0.84754">
        <ele>210.8</ele>
        <time>2022-04-03T11:21:22Z</time>
      </trkpt>
      <trkpt lat="45.81184" lon="0.84747">
        <ele>210.8</ele>
        <time>2022-04-03T11:21:23Z</time>
      </trkpt>
      <trkpt lat="45.81188" lon="0.8474">
        <ele>210.8</ele>
        <time>2022-04-03T11:21:24Z</time>
      </trkpt>
      <trkpt lat="45.81193" lon="0.84733">
        <ele>210.6</ele>
        <time>2022-04-03T11:21:25Z</time>
      </trkpt>
      <trkpt lat="45.81197" lon="0.84725">
        <ele>210.6</ele>
        <time>2022-04-03T11:21:26Z</time>
      </trkpt>
      <trkpt lat="45.81202" lon="0.84718">
        <ele>210.4</ele>
        <time>2022-04-03T11:21:27Z</time>
      </trkpt>
      <trkpt lat="45.81206" lon="0.8471">
        <ele>210.2</ele>
        <time>2022-04-03T11:21:28Z</time>
      </trkpt>
      <trkpt lat="45.81211" lon="0.84703">
        <ele>210</ele>
        <time>2022-04-03T11:21:29Z</time>
      </trkpt>
      <trkpt lat="45.81215" lon="0.84695">
        <ele>210</ele>
        <time>2022-04-03T11:21:30Z</time>
      </trkpt>
      <trkpt lat="45.8122" lon="0.84687">
        <ele>209.8</ele>
        <time>2022-04-03T11:21:31Z</time>
      </trkpt>
      <trkpt lat="45.81224" lon="0.84679">
        <ele>209.6</ele>
        <time>2022-04-03T11:21:32Z</time>
      </trkpt>
      <trkpt lat="45.81228" lon="0.8467">
        <ele>209.8</ele>
        <time>2022-04-03T11:21:33Z</time>
      </trkpt>
      <trkpt lat="45.81232" lon="0.8466">
        <ele>209.6</ele>
        <time>2022-04-03T11:21:34Z</time>
      </trkpt>
      <trkpt lat="45.81237" lon="0.84651">
        <ele>209.4</ele>
        <time>2022-04-03T11:21:35Z</time>
      </trkpt>
      <trkpt lat="45.81241" lon="0.84641">
        <ele>209</ele>
        <time>2022-04-03T11:21:36Z</time>
      </trkpt>
      <trkpt lat="45.81245" lon="0.84631">
        <ele>209</ele>
        <time>2022-04-03T11:21:37Z</time>
      </trkpt>
      <trkpt lat="45.8125" lon="0.84621">
        <ele>208.6</ele>
        <time>2022-04-03T11:21:38Z</time>
      </trkpt>
      <trkpt lat="45.81254" lon="0.84611">
        <ele>208.4</ele>
        <time>2022-04-03T11:21:39Z</time>
      </trkpt>
      <trkpt lat="45.81258" lon="0.84601">
        <ele>207.8</ele>
        <time>2022-04-03T11:21:40Z</time>
      </trkpt>
      <trkpt lat="45.81263" lon="0.84591">
        <ele>207.6</ele>
        <time>2022-04-03T11:21:41Z</time>
      </trkpt>
      <trkpt lat="45.81267" lon="0.84581">
        <ele>207.2</ele>
        <time>2022-04-03T11:21:42Z</time>
      </trkpt>
      <trkpt lat="45.81272" lon="0.84571">
        <ele>207</ele>
        <time>2022-04-03T11:21:43Z</time>
      </trkpt>
      <trkpt lat="45.81276" lon="0.84561">
        <ele>206.8</ele>
        <time>2022-04-03T11:21:44Z</time>
      </trkpt>
      <trkpt lat="45.8128" lon="0.84551">
        <ele>206.4</ele>
        <time>2022-04-03T11:21:45Z</time>
      </trkpt>
      <trkpt lat="45.81284" lon="0.84541">
        <ele>206.4</ele>
        <time>2022-04-03T11:21:46Z</time>
      </trkpt>
      <trkpt lat="45.81288" lon="0.84531">
        <ele>206</ele>
        <time>2022-04-03T11:21:47Z</time>
      </trkpt>
      <trkpt lat="45.81292" lon="0.84521">
        <ele>205.8</ele>
        <time>2022-04-03T11:21:48Z</time>
      </trkpt>
      <trkpt lat="45.81295" lon="0.8451">
        <ele>205.6</ele>
        <time>2022-04-03T11:21:49Z</time>
      </trkpt>
      <trkpt lat="45.81298" lon="0.845">
        <ele>205.6</ele>
        <time>2022-04-03T11:21:50Z</time>
      </trkpt>
      <trkpt lat="45.813" lon="0.84489">
        <ele>205.4</ele>
        <time>2022-04-03T11:21:51Z</time>
      </trkpt>
      <trkpt lat="45.81302" lon="0.84477">
        <ele>205.2</ele>
        <time>2022-04-03T11:21:52Z</time>
      </trkpt>
      <trkpt lat="45.81303" lon="0.84466">
        <ele>205.2</ele>
        <time>2022-04-03T11:21:53Z</time>
      </trkpt>
      <trkpt lat="45.81304" lon="0.84455">
        <ele>204.8</ele>
        <time>2022-04-03T11:21:54Z</time>
      </trkpt>
      <trkpt lat="45.81305" lon="0.84444">
        <ele>204.8</ele>
        <time>2022-04-03T11:21:55Z</time>
      </trkpt>
      <trkpt lat="45.81306" lon="0.84433">
        <ele>204.8</ele>
        <time>2022-04-03T11:21:56Z</time>
      </trkpt>
      <trkpt lat="45.81307" lon="0.84422">
        <ele>204.8</ele>
        <time>2022-04-03T11:21:57Z</time>
      </trkpt>
      <trkpt lat="45.81309" lon="0.84412">
        <ele>204.8</ele>
        <time>2022-04-03T11:21:58Z</time>
      </trkpt>
      <trkpt lat="45.81311" lon="0.84401">
        <ele>204.8</ele>
        <time>2022-04-03T11:21:59Z</time>
      </trkpt>
      <trkpt lat="45.81314" lon="0.84391">
        <ele>204.6</ele>
        <time>2022-04-03T11:22:00Z</time>
      </trkpt>
      <trkpt lat="45.81317" lon="0.84382">
        <ele>204.4</ele>
        <time>2022-04-03T11:22:01Z</time>
      </trkpt>
      <trkpt lat="45.81321" lon="0.84373">
        <ele>204.2</ele>
        <time>2022-04-03T11:22:02Z</time>
      </trkpt>
      <trkpt lat="45.81325" lon="0.84364">
        <ele>204.4</ele>
        <time>2022-04-03T11:22:03Z</time>
      </trkpt>
      <trkpt lat="45.81329" lon="0.84355">
        <ele>204.2</ele>
        <time>2022-04-03T11:22:04Z</time>
      </trkpt>
      <trkpt lat="45.81333" lon="0.84347">
        <ele>204</ele>
        <time>2022-04-03T11:22:05Z</time>
      </trkpt>
      <trkpt lat="45.81337" lon="0.84338">
        <ele>204</ele>
        <time>2022-04-03T11:22:06Z</time>
      </trkpt>
      <trkpt lat="45.81341" lon="0.8433">
        <ele>204</ele>
        <time>2022-04-03T11:22:07Z</time>
      </trkpt>
      <trkpt lat="45.81344" lon="0.84322">
        <ele>203.8</ele>
        <time>2022-04-03T11:22:08Z</time>
      </trkpt>
      <trkpt lat="45.81348" lon="0.84313">
        <ele>203.8</ele>
        <time>2022-04-03T11:22:09Z</time>
      </trkpt>
      <trkpt lat="45.81351" lon="0.84305">
        <ele>203.8</ele>
        <time>2022-04-03T11:22:10Z</time>
      </trkpt>
      <trkpt lat="45.81354" lon="0.84296">
        <ele>203.6</ele>
        <time>2022-04-03T11:22:11Z</time>
      </trkpt>
      <trkpt lat="45.81357" lon="0.84288">
        <ele>203.8</ele>
        <time>2022-04-03T11:22:12Z</time>
      </trkpt>
      <trkpt lat="45.8136" lon="0.84279">
        <ele>203.8</ele>
        <time>2022-04-03T11:22:13Z</time>
      </trkpt>
      <trkpt lat="45.81362" lon="0.8427">
        <ele>203.8</ele>
        <time>2022-04-03T11:22:14Z</time>
      </trkpt>
      <trkpt lat="45.81364" lon="0.84261">
        <ele>203.8</ele>
        <time>2022-04-03T11:22:15Z</time>
      </trkpt>
      <trkpt lat="45.81366" lon="0.84252">
        <ele>203.8</ele>
        <time>2022-04-03T11:22:16Z</time>
      </trkpt>
      <trkpt lat="45.81367" lon="0.84243">
        <ele>203.8</ele>
        <time>2022-04-03T11:22:17Z</time>
      </trkpt>
      <trkpt lat="45.81369" lon="0.84234">
        <ele>203.8</ele>
        <time>2022-04-03T11:22:18Z</time>
      </trkpt>
      <trkpt lat="45.8137" lon="0.84225">
        <ele>203.8</ele>
        <time>2022-04-03T11:22:19Z</time>
      </trkpt>
      <trkpt lat="45.81372" lon="0.84216">
        <ele>203.8</ele>
        <time>2022-04-03T11:22:20Z</time>
      </trkpt>
      <trkpt lat="45.81373" lon="0.84207">
        <ele>203.8</ele>
        <time>2022-04-03T11:22:21Z</time>
      </trkpt>
      <trkpt lat="45.81373" lon="0.84198">
        <ele>203.8</ele>
        <time>2022-04-03T11:22:22Z</time>
      </trkpt>
      <trkpt lat="45.81374" lon="0.84189">
        <ele>203.8</ele>
        <time>2022-04-03T11:22:23Z</time>
      </trkpt>
      <trkpt lat="45.81374" lon="0.8418">
        <ele>203.8</ele>
        <time>2022-04-03T11:22:24Z</time>
      </trkpt>
      <trkpt lat="45.81374" lon="0.84171">
        <ele>203.8</ele>
        <time>2022-04-03T11:22:25Z</time>
      </trkpt>
      <trkpt lat="45.81374" lon="0.84161">
        <ele>203.8</ele>
        <time>2022-04-03T11:22:26Z</time>
      </trkpt>
      <trkpt lat="45.81374" lon="0.84152">
        <ele>203.8</ele>
        <time>2022-04-03T11:22:27Z</time>
      </trkpt>
      <trkpt lat="45.81374" lon="0.84143">
        <ele>203.6</ele>
        <time>2022-04-03T11:22:28Z</time>
      </trkpt>
      <trkpt lat="45.81374" lon="0.84134">
        <ele>203.8</ele>
        <time>2022-04-03T11:22:29Z</time>
      </trkpt>
      <trkpt lat="45.81374" lon="0.84125">
        <ele>203.6</ele>
        <time>2022-04-03T11:22:30Z</time>
      </trkpt>
      <trkpt lat="45.81374" lon="0.84117">
        <ele>203.6</ele>
        <time>2022-04-03T11:22:31Z</time>
      </trkpt>
      <trkpt lat="45.81375" lon="0.84108">
        <ele>203.6</ele>
        <time>2022-04-03T11:22:32Z</time>
      </trkpt>
      <trkpt lat="45.81375" lon="0.84099">
        <ele>203.6</ele>
        <time>2022-04-03T11:22:33Z</time>
      </trkpt>
      <trkpt lat="45.81376" lon="0.84091">
        <ele>203.6</ele>
        <time>2022-04-03T11:22:34Z</time>
      </trkpt>
      <trkpt lat="45.81377" lon="0.84083">
        <ele>203.4</ele>
        <time>2022-04-03T11:22:35Z</time>
      </trkpt>
      <trkpt lat="45.81378" lon="0.84074">
        <ele>203.6</ele>
        <time>2022-04-03T11:22:36Z</time>
      </trkpt>
      <trkpt lat="45.81379" lon="0.84066">
        <ele>203.6</ele>
        <time>2022-04-03T11:22:37Z</time>
      </trkpt>
      <trkpt lat="45.8138" lon="0.84058">
        <ele>203.4</ele>
        <time>2022-04-03T11:22:38Z</time>
      </trkpt>
      <trkpt lat="45.81382" lon="0.84049">
        <ele>203.6</ele>
        <time>2022-04-03T11:22:39Z</time>
      </trkpt>
      <trkpt lat="45.81383" lon="0.84041">
        <ele>203.4</ele>
        <time>2022-04-03T11:22:40Z</time>
      </trkpt>
      <trkpt lat="45.81385" lon="0.84033">
        <ele>203.4</ele>
        <time>2022-04-03T11:22:41Z</time>
      </trkpt>
      <trkpt lat="45.81387" lon="0.84024">
        <ele>203.6</ele>
        <time>2022-04-03T11:22:42Z</time>
      </trkpt>
      <trkpt lat="45.81388" lon="0.84016">
        <ele>203.4</ele>
        <time>2022-04-03T11:22:43Z</time>
      </trkpt>
      <trkpt lat="45.8139" lon="0.84007">
        <ele>203.4</ele>
        <time>2022-04-03T11:22:44Z</time>
      </trkpt>
      <trkpt lat="45.81391" lon="0.83999">
        <ele>203.4</ele>
        <time>2022-04-03T11:22:45Z</time>
      </trkpt>
      <trkpt lat="45.81393" lon="0.83991">
        <ele>203.6</ele>
        <time>2022-04-03T11:22:46Z</time>
      </trkpt>
      <trkpt lat="45.81394" lon="0.83982">
        <ele>203.6</ele>
        <time>2022-04-03T11:22:47Z</time>
      </trkpt>
      <trkpt lat="45.81396" lon="0.83974">
        <ele>203.6</ele>
        <time>2022-04-03T11:22:48Z</time>
      </trkpt>
      <trkpt lat="45.81397" lon="0.83965">
        <ele>203.4</ele>
        <time>2022-04-03T11:22:49Z</time>
      </trkpt>
      <trkpt lat="45.81399" lon="0.83957">
        <ele>203.6</ele>
        <time>2022-04-03T11:22:50Z</time>
      </trkpt>
      <trkpt lat="45.814" lon="0.83948">
        <ele>203.6</ele>
        <time>2022-04-03T11:22:51Z</time>
      </trkpt>
      <trkpt lat="45.81401" lon="0.8394">
        <ele>203.6</ele>
        <time>2022-04-03T11:22:52Z</time>
      </trkpt>
      <trkpt lat="45.81403" lon="0.83932">
        <ele>203.6</ele>
        <time>2022-04-03T11:22:53Z</time>
      </trkpt>
      <trkpt lat="45.81404" lon="0.83924">
        <ele>203.4</ele>
        <time>2022-04-03T11:22:54Z</time>
      </trkpt>
      <trkpt lat="45.81406" lon="0.83916">
        <ele>203.8</ele>
        <time>2022-04-03T11:22:55Z</time>
      </trkpt>
      <trkpt lat="45.81407" lon="0.83909">
        <ele>203.6</ele>
        <time>2022-04-03T11:22:56Z</time>
      </trkpt>
      <trkpt lat="45.81408" lon="0.83901">
        <ele>203.6</ele>
        <time>2022-04-03T11:22:57Z</time>
      </trkpt>
      <trkpt lat="45.8141" lon="0.83894">
        <ele>203.6</ele>
        <time>2022-04-03T11:22:58Z</time>
      </trkpt>
      <trkpt lat="45.81411" lon="0.83887">
        <ele>203.8</ele>
        <time>2022-04-03T11:22:59Z</time>
      </trkpt>
      <trkpt lat="45.81413" lon="0.8388">
        <ele>203.8</ele>
        <time>2022-04-03T11:23:00Z</time>
      </trkpt>
      <trkpt lat="45.81414" lon="0.83873">
        <ele>203.8</ele>
        <time>2022-04-03T11:23:01Z</time>
      </trkpt>
      <trkpt lat="45.81416" lon="0.83867">
        <ele>203.8</ele>
        <time>2022-04-03T11:23:02Z</time>
      </trkpt>
      <trkpt lat="45.81417" lon="0.83861">
        <ele>203.8</ele>
        <time>2022-04-03T11:23:03Z</time>
      </trkpt>
      <trkpt lat="45.81419" lon="0.83856">
        <ele>204.2</ele>
        <time>2022-04-03T11:23:04Z</time>
      </trkpt>
      <trkpt lat="45.81421" lon="0.83851">
        <ele>204.2</ele>
        <time>2022-04-03T11:23:05Z</time>
      </trkpt>
      <trkpt lat="45.81422" lon="0.83846">
        <ele>204.4</ele>
        <time>2022-04-03T11:23:06Z</time>
      </trkpt>
      <trkpt lat="45.81424" lon="0.83841">
        <ele>204.8</ele>
        <time>2022-04-03T11:23:07Z</time>
      </trkpt>
      <trkpt lat="45.81425" lon="0.83836">
        <ele>204.8</ele>
        <time>2022-04-03T11:23:08Z</time>
      </trkpt>
      <trkpt lat="45.81427" lon="0.83831">
        <ele>205.2</ele>
        <time>2022-04-03T11:23:09Z</time>
      </trkpt>
      <trkpt lat="45.81429" lon="0.83827">
        <ele>205.4</ele>
        <time>2022-04-03T11:23:10Z</time>
      </trkpt>
      <trkpt lat="45.8143" lon="0.83822">
        <ele>205.4</ele>
        <time>2022-04-03T11:23:11Z</time>
      </trkpt>
      <trkpt lat="45.81432" lon="0.83817">
        <ele>205.4</ele>
        <time>2022-04-03T11:23:12Z</time>
      </trkpt>
      <trkpt lat="45.81433" lon="0.83812">
        <ele>205.6</ele>
        <time>2022-04-03T11:23:13Z</time>
      </trkpt>
      <trkpt lat="45.81435" lon="0.83807">
        <ele>206</ele>
        <time>2022-04-03T11:23:14Z</time>
      </trkpt>
      <trkpt lat="45.81436" lon="0.83803">
        <ele>206.2</ele>
        <time>2022-04-03T11:23:15Z</time>
      </trkpt>
      <trkpt lat="45.81437" lon="0.83798">
        <ele>206.2</ele>
        <time>2022-04-03T11:23:16Z</time>
      </trkpt>
      <trkpt lat="45.81438" lon="0.83793">
        <ele>206.2</ele>
        <time>2022-04-03T11:23:17Z</time>
      </trkpt>
      <trkpt lat="45.81439" lon="0.83789">
        <ele>206.4</ele>
        <time>2022-04-03T11:23:18Z</time>
      </trkpt>
      <trkpt lat="45.81441" lon="0.83784">
        <ele>206.4</ele>
        <time>2022-04-03T11:23:19Z</time>
      </trkpt>
      <trkpt lat="45.81442" lon="0.83779">
        <ele>206.6</ele>
        <time>2022-04-03T11:23:20Z</time>
      </trkpt>
      <trkpt lat="45.81443" lon="0.83775">
        <ele>206.6</ele>
        <time>2022-04-03T11:23:21Z</time>
      </trkpt>
      <trkpt lat="45.81444" lon="0.8377">
        <ele>206.6</ele>
        <time>2022-04-03T11:23:22Z</time>
      </trkpt>
      <trkpt lat="45.81446" lon="0.83766">
        <ele>206.6</ele>
        <time>2022-04-03T11:23:23Z</time>
      </trkpt>
      <trkpt lat="45.81447" lon="0.83762">
        <ele>206.8</ele>
        <time>2022-04-03T11:23:24Z</time>
      </trkpt>
      <trkpt lat="45.81448" lon="0.83758">
        <ele>207</ele>
        <time>2022-04-03T11:23:25Z</time>
      </trkpt>
      <trkpt lat="45.81449" lon="0.83754">
        <ele>207.2</ele>
        <time>2022-04-03T11:23:26Z</time>
      </trkpt>
      <trkpt lat="45.8145" lon="0.8375">
        <ele>207.4</ele>
        <time>2022-04-03T11:23:27Z</time>
      </trkpt>
      <trkpt lat="45.81451" lon="0.83747">
        <ele>207.8</ele>
        <time>2022-04-03T11:23:28Z</time>
      </trkpt>
      <trkpt lat="45.81452" lon="0.83743">
        <ele>207.8</ele>
        <time>2022-04-03T11:23:29Z</time>
      </trkpt>
      <trkpt lat="45.81453" lon="0.8374">
        <ele>208</ele>
        <time>2022-04-03T11:23:30Z</time>
      </trkpt>
      <trkpt lat="45.81454" lon="0.83736">
        <ele>208</ele>
        <time>2022-04-03T11:23:31Z</time>
      </trkpt>
      <trkpt lat="45.81454" lon="0.83733">
        <ele>208.4</ele>
        <time>2022-04-03T11:23:32Z</time>
      </trkpt>
      <trkpt lat="45.81455" lon="0.83729">
        <ele>208.6</ele>
        <time>2022-04-03T11:23:33Z</time>
      </trkpt>
      <trkpt lat="45.81456" lon="0.83726">
        <ele>208.6</ele>
        <time>2022-04-03T11:23:34Z</time>
      </trkpt>
      <trkpt lat="45.81457" lon="0.83722">
        <ele>208.8</ele>
        <time>2022-04-03T11:23:35Z</time>
      </trkpt>
      <trkpt lat="45.81458" lon="0.83719">
        <ele>209</ele>
        <time>2022-04-03T11:23:36Z</time>
      </trkpt>
      <trkpt lat="45.81459" lon="0.83715">
        <ele>209.4</ele>
        <time>2022-04-03T11:23:37Z</time>
      </trkpt>
      <trkpt lat="45.8146" lon="0.83712">
        <ele>209.6</ele>
        <time>2022-04-03T11:23:38Z</time>
      </trkpt>
      <trkpt lat="45.81461" lon="0.83708">
        <ele>209.8</ele>
        <time>2022-04-03T11:23:39Z</time>
      </trkpt>
      <trkpt lat="45.81461" lon="0.83705">
        <ele>210</ele>
        <time>2022-04-03T11:23:40Z</time>
      </trkpt>
      <trkpt lat="45.81462" lon="0.83701">
        <ele>210.2</ele>
        <time>2022-04-03T11:23:41Z</time>
      </trkpt>
      <trkpt lat="45.81462" lon="0.83697">
        <ele>210.4</ele>
        <time>2022-04-03T11:23:42Z</time>
      </trkpt>
      <trkpt lat="45.81463" lon="0.83694">
        <ele>210.6</ele>
        <time>2022-04-03T11:23:43Z</time>
      </trkpt>
      <trkpt lat="45.81464" lon="0.8369">
        <ele>211</ele>
        <time>2022-04-03T11:23:44Z</time>
      </trkpt>
      <trkpt lat="45.81464" lon="0.83687">
        <ele>211.4</ele>
        <time>2022-04-03T11:23:45Z</time>
      </trkpt>
      <trkpt lat="45.81465" lon="0.83683">
        <ele>211.4</ele>
        <time>2022-04-03T11:23:46Z</time>
      </trkpt>
      <trkpt lat="45.81465" lon="0.83679">
        <ele>211.4</ele>
        <time>2022-04-03T11:23:47Z</time>
      </trkpt>
      <trkpt lat="45.81465" lon="0.83676">
        <ele>211.6</ele>
        <time>2022-04-03T11:23:48Z</time>
      </trkpt>
      <trkpt lat="45.81466" lon="0.83672">
        <ele>211.6</ele>
        <time>2022-04-03T11:23:49Z</time>
      </trkpt>
      <trkpt lat="45.81466" lon="0.83668">
        <ele>211.6</ele>
        <time>2022-04-03T11:23:50Z</time>
      </trkpt>
      <trkpt lat="45.81466" lon="0.83664">
        <ele>211.8</ele>
        <time>2022-04-03T11:23:51Z</time>
      </trkpt>
      <trkpt lat="45.81466" lon="0.83661">
        <ele>211.8</ele>
        <time>2022-04-03T11:23:52Z</time>
      </trkpt>
      <trkpt lat="45.81466" lon="0.83657">
        <ele>212</ele>
        <time>2022-04-03T11:23:53Z</time>
      </trkpt>
      <trkpt lat="45.81466" lon="0.83653">
        <ele>212.2</ele>
        <time>2022-04-03T11:23:54Z</time>
      </trkpt>
      <trkpt lat="45.81466" lon="0.83649">
        <ele>212.2</ele>
        <time>2022-04-03T11:23:55Z</time>
      </trkpt>
      <trkpt lat="45.81466" lon="0.83645">
        <ele>212.4</ele>
        <time>2022-04-03T11:23:56Z</time>
      </trkpt>
      <trkpt lat="45.81466" lon="0.83641">
        <ele>212.6</ele>
        <time>2022-04-03T11:23:57Z</time>
      </trkpt>
      <trkpt lat="45.81466" lon="0.83637">
        <ele>212.8</ele>
        <time>2022-04-03T11:23:58Z</time>
      </trkpt>
      <trkpt lat="45.81465" lon="0.83633">
        <ele>212.8</ele>
        <time>2022-04-03T11:23:59Z</time>
      </trkpt>
      <trkpt lat="45.81465" lon="0.83629">
        <ele>213.2</ele>
        <time>2022-04-03T11:24:00Z</time>
      </trkpt>
      <trkpt lat="45.81465" lon="0.83624">
        <ele>213.4</ele>
        <time>2022-04-03T11:24:01Z</time>
      </trkpt>
      <trkpt lat="45.81465" lon="0.8362">
        <ele>213.4</ele>
        <time>2022-04-03T11:24:02Z</time>
      </trkpt>
      <trkpt lat="45.81465" lon="0.83616">
        <ele>213.4</ele>
        <time>2022-04-03T11:24:03Z</time>
      </trkpt>
      <trkpt lat="45.81465" lon="0.83611">
        <ele>213.6</ele>
        <time>2022-04-03T11:24:04Z</time>
      </trkpt>
      <trkpt lat="45.81465" lon="0.83607">
        <ele>213.8</ele>
        <time>2022-04-03T11:24:05Z</time>
      </trkpt>
      <trkpt lat="45.81466" lon="0.83602">
        <ele>213.6</ele>
        <time>2022-04-03T11:24:06Z</time>
      </trkpt>
      <trkpt lat="45.81466" lon="0.83598">
        <ele>213.8</ele>
        <time>2022-04-03T11:24:07Z</time>
      </trkpt>
      <trkpt lat="45.81467" lon="0.83593">
        <ele>213.8</ele>
        <time>2022-04-03T11:24:08Z</time>
      </trkpt>
      <trkpt lat="45.81467" lon="0.83589">
        <ele>213.8</ele>
        <time>2022-04-03T11:24:09Z</time>
      </trkpt>
      <trkpt lat="45.81468" lon="0.83583">
        <ele>213.8</ele>
        <time>2022-04-03T11:24:10Z</time>
      </trkpt>
      <trkpt lat="45.81469" lon="0.83578">
        <ele>213.8</ele>
        <time>2022-04-03T11:24:11Z</time>
      </trkpt>
      <trkpt lat="45.81469" lon="0.83572">
        <ele>213.8</ele>
        <time>2022-04-03T11:24:12Z</time>
      </trkpt>
      <trkpt lat="45.8147" lon="0.83566">
        <ele>213.8</ele>
        <time>2022-04-03T11:24:13Z</time>
      </trkpt>
      <trkpt lat="45.81471" lon="0.8356">
        <ele>213.8</ele>
        <time>2022-04-03T11:24:14Z</time>
      </trkpt>
      <trkpt lat="45.81472" lon="0.83553">
        <ele>213.6</ele>
        <time>2022-04-03T11:24:15Z</time>
      </trkpt>
      <trkpt lat="45.81473" lon="0.83547">
        <ele>213.8</ele>
        <time>2022-04-03T11:24:16Z</time>
      </trkpt>
      <trkpt lat="45.81474" lon="0.8354">
        <ele>213.6</ele>
        <time>2022-04-03T11:24:17Z</time>
      </trkpt>
      <trkpt lat="45.81475" lon="0.83532">
        <ele>213.2</ele>
        <time>2022-04-03T11:24:18Z</time>
      </trkpt>
      <trkpt lat="45.81476" lon="0.83525">
        <ele>213.2</ele>
        <time>2022-04-03T11:24:19Z</time>
      </trkpt>
      <trkpt lat="45.81477" lon="0.83517">
        <ele>213</ele>
        <time>2022-04-03T11:24:20Z</time>
      </trkpt>
      <trkpt lat="45.81479" lon="0.83509">
        <ele>212.4</ele>
        <time>2022-04-03T11:24:21Z</time>
      </trkpt>
      <trkpt lat="45.8148" lon="0.83501">
        <ele>212</ele>
        <time>2022-04-03T11:24:22Z</time>
      </trkpt>
      <trkpt lat="45.81481" lon="0.83494">
        <ele>211.6</ele>
        <time>2022-04-03T11:24:23Z</time>
      </trkpt>
      <trkpt lat="45.81483" lon="0.83486">
        <ele>211.2</ele>
        <time>2022-04-03T11:24:24Z</time>
      </trkpt>
      <trkpt lat="45.81484" lon="0.83478">
        <ele>211</ele>
        <time>2022-04-03T11:24:25Z</time>
      </trkpt>
      <trkpt lat="45.81486" lon="0.83469">
        <ele>210.8</ele>
        <time>2022-04-03T11:24:26Z</time>
      </trkpt>
      <trkpt lat="45.81489" lon="0.83461">
        <ele>210.6</ele>
        <time>2022-04-03T11:24:27Z</time>
      </trkpt>
      <trkpt lat="45.81493" lon="0.83453">
        <ele>210.6</ele>
        <time>2022-04-03T11:24:28Z</time>
      </trkpt>
      <trkpt lat="45.81497" lon="0.83446">
        <ele>210.6</ele>
        <time>2022-04-03T11:24:29Z</time>
      </trkpt>
      <trkpt lat="45.81502" lon="0.8344">
        <ele>210.4</ele>
        <time>2022-04-03T11:24:30Z</time>
      </trkpt>
      <trkpt lat="45.81507" lon="0.83434">
        <ele>210</ele>
        <time>2022-04-03T11:24:31Z</time>
      </trkpt>
      <trkpt lat="45.81513" lon="0.83429">
        <ele>209.8</ele>
        <time>2022-04-03T11:24:32Z</time>
      </trkpt>
      <trkpt lat="45.81519" lon="0.83424">
        <ele>209.4</ele>
        <time>2022-04-03T11:24:33Z</time>
      </trkpt>
      <trkpt lat="45.81525" lon="0.8342">
        <ele>209.4</ele>
        <time>2022-04-03T11:24:34Z</time>
      </trkpt>
      <trkpt lat="45.81532" lon="0.83416">
        <ele>208.6</ele>
        <time>2022-04-03T11:24:35Z</time>
      </trkpt>
      <trkpt lat="45.81539" lon="0.83411">
        <ele>208.2</ele>
        <time>2022-04-03T11:24:36Z</time>
      </trkpt>
      <trkpt lat="45.81546" lon="0.83407">
        <ele>208</ele>
        <time>2022-04-03T11:24:37Z</time>
      </trkpt>
      <trkpt lat="45.81553" lon="0.83402">
        <ele>207.6</ele>
        <time>2022-04-03T11:24:38Z</time>
      </trkpt>
      <trkpt lat="45.8156" lon="0.83398">
        <ele>206.6</ele>
        <time>2022-04-03T11:24:39Z</time>
      </trkpt>
      <trkpt lat="45.81567" lon="0.83393">
        <ele>206</ele>
        <time>2022-04-03T11:24:40Z</time>
      </trkpt>
      <trkpt lat="45.81574" lon="0.83388">
        <ele>205.4</ele>
        <time>2022-04-03T11:24:41Z</time>
      </trkpt>
      <trkpt lat="45.81582" lon="0.83383">
        <ele>205.2</ele>
        <time>2022-04-03T11:24:42Z</time>
      </trkpt>
      <trkpt lat="45.81589" lon="0.83377">
        <ele>205</ele>
        <time>2022-04-03T11:24:43Z</time>
      </trkpt>
      <trkpt lat="45.81596" lon="0.83371">
        <ele>204.8</ele>
        <time>2022-04-03T11:24:44Z</time>
      </trkpt>
      <trkpt lat="45.81603" lon="0.83364">
        <ele>204</ele>
        <time>2022-04-03T11:24:45Z</time>
      </trkpt>
      <trkpt lat="45.8161" lon="0.83357">
        <ele>203.6</ele>
        <time>2022-04-03T11:24:46Z</time>
      </trkpt>
      <trkpt lat="45.81617" lon="0.83349">
        <ele>203.6</ele>
        <time>2022-04-03T11:24:47Z</time>
      </trkpt>
      <trkpt lat="45.81623" lon="0.83341">
        <ele>203.4</ele>
        <time>2022-04-03T11:24:48Z</time>
      </trkpt>
      <trkpt lat="45.8163" lon="0.83334">
        <ele>202.6</ele>
        <time>2022-04-03T11:24:49Z</time>
      </trkpt>
      <trkpt lat="45.81636" lon="0.83326">
        <ele>202</ele>
        <time>2022-04-03T11:24:50Z</time>
      </trkpt>
      <trkpt lat="45.81643" lon="0.83319">
        <ele>201.6</ele>
        <time>2022-04-03T11:24:51Z</time>
      </trkpt>
      <trkpt lat="45.8165" lon="0.83311">
        <ele>201.4</ele>
        <time>2022-04-03T11:24:52Z</time>
      </trkpt>
      <trkpt lat="45.81657" lon="0.83303">
        <ele>200.8</ele>
        <time>2022-04-03T11:24:53Z</time>
      </trkpt>
      <trkpt lat="45.81664" lon="0.83296">
        <ele>200.2</ele>
        <time>2022-04-03T11:24:54Z</time>
      </trkpt>
      <trkpt lat="45.81671" lon="0.83288">
        <ele>199.6</ele>
        <time>2022-04-03T11:24:55Z</time>
      </trkpt>
      <trkpt lat="45.81677" lon="0.83281">
        <ele>199.4</ele>
        <time>2022-04-03T11:24:56Z</time>
      </trkpt>
      <trkpt lat="45.81683" lon="0.83273">
        <ele>199</ele>
        <time>2022-04-03T11:24:57Z</time>
      </trkpt>
      <trkpt lat="45.81689" lon="0.83266">
        <ele>198.6</ele>
        <time>2022-04-03T11:24:58Z</time>
      </trkpt>
      <trkpt lat="45.81695" lon="0.83259">
        <ele>198.6</ele>
        <time>2022-04-03T11:24:59Z</time>
      </trkpt>
      <trkpt lat="45.81701" lon="0.83252">
        <ele>198</ele>
        <time>2022-04-03T11:25:00Z</time>
      </trkpt>
      <trkpt lat="45.81706" lon="0.83246">
        <ele>197.4</ele>
        <time>2022-04-03T11:25:01Z</time>
      </trkpt>
      <trkpt lat="45.81712" lon="0.8324">
        <ele>196.8</ele>
        <time>2022-04-03T11:25:02Z</time>
      </trkpt>
      <trkpt lat="45.81717" lon="0.83234">
        <ele>196.6</ele>
        <time>2022-04-03T11:25:03Z</time>
      </trkpt>
      <trkpt lat="45.81722" lon="0.83227">
        <ele>196.4</ele>
        <time>2022-04-03T11:25:04Z</time>
      </trkpt>
      <trkpt lat="45.81726" lon="0.83222">
        <ele>196.4</ele>
        <time>2022-04-03T11:25:05Z</time>
      </trkpt>
      <trkpt lat="45.81731" lon="0.83216">
        <ele>196.4</ele>
        <time>2022-04-03T11:25:06Z</time>
      </trkpt>
      <trkpt lat="45.81735" lon="0.83211">
        <ele>196.2</ele>
        <time>2022-04-03T11:25:07Z</time>
      </trkpt>
      <trkpt lat="45.81739" lon="0.83205">
        <ele>196.2</ele>
        <time>2022-04-03T11:25:08Z</time>
      </trkpt>
      <trkpt lat="45.81742" lon="0.832">
        <ele>196.2</ele>
        <time>2022-04-03T11:25:09Z</time>
      </trkpt>
      <trkpt lat="45.81746" lon="0.83194">
        <ele>196.2</ele>
        <time>2022-04-03T11:25:10Z</time>
      </trkpt>
      <trkpt lat="45.81749" lon="0.83188">
        <ele>196.2</ele>
        <time>2022-04-03T11:25:11Z</time>
      </trkpt>
      <trkpt lat="45.81752" lon="0.83182">
        <ele>196.2</ele>
        <time>2022-04-03T11:25:12Z</time>
      </trkpt>
      <trkpt lat="45.81755" lon="0.83176">
        <ele>196.2</ele>
        <time>2022-04-03T11:25:13Z</time>
      </trkpt>
      <trkpt lat="45.81757" lon="0.83169">
        <ele>196.4</ele>
        <time>2022-04-03T11:25:14Z</time>
      </trkpt>
      <trkpt lat="45.8176" lon="0.83163">
        <ele>196.6</ele>
        <time>2022-04-03T11:25:15Z</time>
      </trkpt>
      <trkpt lat="45.81763" lon="0.83156">
        <ele>196.6</ele>
        <time>2022-04-03T11:25:16Z</time>
      </trkpt>
      <trkpt lat="45.81766" lon="0.8315">
        <ele>196.8</ele>
        <time>2022-04-03T11:25:17Z</time>
      </trkpt>
      <trkpt lat="45.81768" lon="0.83144">
        <ele>197</ele>
        <time>2022-04-03T11:25:18Z</time>
      </trkpt>
      <trkpt lat="45.81771" lon="0.83138">
        <ele>196.8</ele>
        <time>2022-04-03T11:25:19Z</time>
      </trkpt>
      <trkpt lat="45.81773" lon="0.83132">
        <ele>197.2</ele>
        <time>2022-04-03T11:25:20Z</time>
      </trkpt>
      <trkpt lat="45.81776" lon="0.83126">
        <ele>197.2</ele>
        <time>2022-04-03T11:25:21Z</time>
      </trkpt>
      <trkpt lat="45.81778" lon="0.8312">
        <ele>197.4</ele>
        <time>2022-04-03T11:25:22Z</time>
      </trkpt>
      <trkpt lat="45.81781" lon="0.83114">
        <ele>197.2</ele>
        <time>2022-04-03T11:25:23Z</time>
      </trkpt>
      <trkpt lat="45.81783" lon="0.83107">
        <ele>197.4</ele>
        <time>2022-04-03T11:25:24Z</time>
      </trkpt>
      <trkpt lat="45.81786" lon="0.83101">
        <ele>197.4</ele>
        <time>2022-04-03T11:25:25Z</time>
      </trkpt>
      <trkpt lat="45.81788" lon="0.83094">
        <ele>197.2</ele>
        <time>2022-04-03T11:25:26Z</time>
      </trkpt>
      <trkpt lat="45.81791" lon="0.83088">
        <ele>197.2</ele>
        <time>2022-04-03T11:25:27Z</time>
      </trkpt>
      <trkpt lat="45.81793" lon="0.83081">
        <ele>197.2</ele>
        <time>2022-04-03T11:25:28Z</time>
      </trkpt>
      <trkpt lat="45.81796" lon="0.83075">
        <ele>197.4</ele>
        <time>2022-04-03T11:25:29Z</time>
      </trkpt>
      <trkpt lat="45.81799" lon="0.83068">
        <ele>197.4</ele>
        <time>2022-04-03T11:25:30Z</time>
      </trkpt>
      <trkpt lat="45.81801" lon="0.83062">
        <ele>197.2</ele>
        <time>2022-04-03T11:25:31Z</time>
      </trkpt>
      <trkpt lat="45.81804" lon="0.83056">
        <ele>197</ele>
        <time>2022-04-03T11:25:32Z</time>
      </trkpt>
      <trkpt lat="45.81806" lon="0.83049">
        <ele>197</ele>
        <time>2022-04-03T11:25:33Z</time>
      </trkpt>
      <trkpt lat="45.81808" lon="0.83043">
        <ele>197</ele>
        <time>2022-04-03T11:25:34Z</time>
      </trkpt>
      <trkpt lat="45.81811" lon="0.83036">
        <ele>197</ele>
        <time>2022-04-03T11:25:35Z</time>
      </trkpt>
      <trkpt lat="45.81813" lon="0.8303">
        <ele>196.8</ele>
        <time>2022-04-03T11:25:36Z</time>
      </trkpt>
      <trkpt lat="45.81816" lon="0.83024">
        <ele>196.8</ele>
        <time>2022-04-03T11:25:37Z</time>
      </trkpt>
      <trkpt lat="45.81818" lon="0.83018">
        <ele>196.8</ele>
        <time>2022-04-03T11:25:38Z</time>
      </trkpt>
      <trkpt lat="45.81821" lon="0.83012">
        <ele>196.8</ele>
        <time>2022-04-03T11:25:39Z</time>
      </trkpt>
      <trkpt lat="45.81823" lon="0.83006">
        <ele>196.8</ele>
        <time>2022-04-03T11:25:40Z</time>
      </trkpt>
      <trkpt lat="45.81825" lon="0.83">
        <ele>196.6</ele>
        <time>2022-04-03T11:25:41Z</time>
      </trkpt>
      <trkpt lat="45.81828" lon="0.82995">
        <ele>196.6</ele>
        <time>2022-04-03T11:25:42Z</time>
      </trkpt>
      <trkpt lat="45.8183" lon="0.82989">
        <ele>196.6</ele>
        <time>2022-04-03T11:25:43Z</time>
      </trkpt>
      <trkpt lat="45.81832" lon="0.82983">
        <ele>196.6</ele>
        <time>2022-04-03T11:25:44Z</time>
      </trkpt>
      <trkpt lat="45.81835" lon="0.82977">
        <ele>196.4</ele>
        <time>2022-04-03T11:25:45Z</time>
      </trkpt>
      <trkpt lat="45.81838" lon="0.82971">
        <ele>196.4</ele>
        <time>2022-04-03T11:25:46Z</time>
      </trkpt>
      <trkpt lat="45.8184" lon="0.82965">
        <ele>196.2</ele>
        <time>2022-04-03T11:25:47Z</time>
      </trkpt>
      <trkpt lat="45.81843" lon="0.82958">
        <ele>196</ele>
        <time>2022-04-03T11:25:48Z</time>
      </trkpt>
      <trkpt lat="45.81845" lon="0.82952">
        <ele>195.8</ele>
        <time>2022-04-03T11:25:49Z</time>
      </trkpt>
      <trkpt lat="45.81848" lon="0.82946">
        <ele>195.8</ele>
        <time>2022-04-03T11:25:50Z</time>
      </trkpt>
      <trkpt lat="45.81851" lon="0.82939">
        <ele>195.8</ele>
        <time>2022-04-03T11:25:51Z</time>
      </trkpt>
      <trkpt lat="45.81853" lon="0.82933">
        <ele>195.6</ele>
        <time>2022-04-03T11:25:52Z</time>
      </trkpt>
      <trkpt lat="45.81856" lon="0.82927">
        <ele>195.8</ele>
        <time>2022-04-03T11:25:53Z</time>
      </trkpt>
      <trkpt lat="45.81858" lon="0.82921">
        <ele>195.6</ele>
        <time>2022-04-03T11:25:54Z</time>
      </trkpt>
      <trkpt lat="45.8186" lon="0.82915">
        <ele>195.6</ele>
        <time>2022-04-03T11:25:55Z</time>
      </trkpt>
      <trkpt lat="45.81862" lon="0.82909">
        <ele>195.8</ele>
        <time>2022-04-03T11:25:56Z</time>
      </trkpt>
      <trkpt lat="45.81864" lon="0.82903">
        <ele>195.6</ele>
        <time>2022-04-03T11:25:57Z</time>
      </trkpt>
      <trkpt lat="45.81866" lon="0.82897">
        <ele>195.6</ele>
        <time>2022-04-03T11:25:58Z</time>
      </trkpt>
      <trkpt lat="45.81868" lon="0.82891">
        <ele>195.6</ele>
        <time>2022-04-03T11:25:59Z</time>
      </trkpt>
      <trkpt lat="45.8187" lon="0.82886">
        <ele>195.8</ele>
        <time>2022-04-03T11:26:00Z</time>
      </trkpt>
      <trkpt lat="45.81872" lon="0.8288">
        <ele>195.8</ele>
        <time>2022-04-03T11:26:01Z</time>
      </trkpt>
      <trkpt lat="45.81874" lon="0.82874">
        <ele>195.8</ele>
        <time>2022-04-03T11:26:02Z</time>
      </trkpt>
      <trkpt lat="45.81875" lon="0.82869">
        <ele>195.8</ele>
        <time>2022-04-03T11:26:03Z</time>
      </trkpt>
      <trkpt lat="45.81877" lon="0.82863">
        <ele>195.8</ele>
        <time>2022-04-03T11:26:04Z</time>
      </trkpt>
      <trkpt lat="45.81879" lon="0.82858">
        <ele>195.8</ele>
        <time>2022-04-03T11:26:05Z</time>
      </trkpt>
      <trkpt lat="45.81881" lon="0.82854">
        <ele>195.8</ele>
        <time>2022-04-03T11:26:06Z</time>
      </trkpt>
      <trkpt lat="45.81883" lon="0.8285">
        <ele>195.8</ele>
        <time>2022-04-03T11:26:07Z</time>
      </trkpt>
      <trkpt lat="45.81884" lon="0.82846">
        <ele>195.8</ele>
        <time>2022-04-03T11:26:08Z</time>
      </trkpt>
      <trkpt lat="45.81886" lon="0.82843">
        <ele>195.8</ele>
        <time>2022-04-03T11:26:09Z</time>
      </trkpt>
      <trkpt lat="45.81888" lon="0.82841">
        <ele>196</ele>
        <time>2022-04-03T11:26:10Z</time>
      </trkpt>
      <trkpt lat="45.81889" lon="0.82839">
        <ele>196.2</ele>
        <time>2022-04-03T11:26:11Z</time>
      </trkpt>
      <trkpt lat="45.81891" lon="0.82836">
        <ele>196.4</ele>
        <time>2022-04-03T11:26:12Z</time>
      </trkpt>
      <trkpt lat="45.81893" lon="0.82834">
        <ele>196.6</ele>
        <time>2022-04-03T11:26:13Z</time>
      </trkpt>
      <trkpt lat="45.81895" lon="0.8283">
        <ele>196.6</ele>
        <time>2022-04-03T11:26:14Z</time>
      </trkpt>
      <trkpt lat="45.81897" lon="0.82827">
        <ele>196.6</ele>
        <time>2022-04-03T11:26:15Z</time>
      </trkpt>
      <trkpt lat="45.81899" lon="0.82823">
        <ele>196.6</ele>
        <time>2022-04-03T11:26:16Z</time>
      </trkpt>
      <trkpt lat="45.81902" lon="0.82819">
        <ele>196.6</ele>
        <time>2022-04-03T11:26:17Z</time>
      </trkpt>
      <trkpt lat="45.81905" lon="0.82815">
        <ele>196.6</ele>
        <time>2022-04-03T11:26:18Z</time>
      </trkpt>
      <trkpt lat="45.81908" lon="0.8281">
        <ele>196.6</ele>
        <time>2022-04-03T11:26:19Z</time>
      </trkpt>
      <trkpt lat="45.81911" lon="0.82804">
        <ele>196.6</ele>
        <time>2022-04-03T11:26:20Z</time>
      </trkpt>
      <trkpt lat="45.81915" lon="0.82799">
        <ele>196.6</ele>
        <time>2022-04-03T11:26:21Z</time>
      </trkpt>
      <trkpt lat="45.81918" lon="0.82793">
        <ele>196.6</ele>
        <time>2022-04-03T11:26:22Z</time>
      </trkpt>
      <trkpt lat="45.81921" lon="0.82787">
        <ele>196.6</ele>
        <time>2022-04-03T11:26:23Z</time>
      </trkpt>
      <trkpt lat="45.81924" lon="0.82781">
        <ele>196.6</ele>
        <time>2022-04-03T11:26:24Z</time>
      </trkpt>
      <trkpt lat="45.81927" lon="0.82775">
        <ele>196.4</ele>
        <time>2022-04-03T11:26:25Z</time>
      </trkpt>
      <trkpt lat="45.8193" lon="0.82769">
        <ele>196.2</ele>
        <time>2022-04-03T11:26:26Z</time>
      </trkpt>
      <trkpt lat="45.81933" lon="0.82764">
        <ele>195.8</ele>
        <time>2022-04-03T11:26:27Z</time>
      </trkpt>
      <trkpt lat="45.81936" lon="0.82758">
        <ele>195.2</ele>
        <time>2022-04-03T11:26:28Z</time>
      </trkpt>
      <trkpt lat="45.81939" lon="0.82752">
        <ele>194.8</ele>
        <time>2022-04-03T11:26:29Z</time>
      </trkpt>
      <trkpt lat="45.81942" lon="0.82747">
        <ele>194.8</ele>
        <time>2022-04-03T11:26:30Z</time>
      </trkpt>
      <trkpt lat="45.81945" lon="0.82742">
        <ele>194.4</ele>
        <time>2022-04-03T11:26:31Z</time>
      </trkpt>
      <trkpt lat="45.81948" lon="0.82737">
        <ele>194.4</ele>
        <time>2022-04-03T11:26:32Z</time>
      </trkpt>
      <trkpt lat="45.8195" lon="0.82733">
        <ele>194.4</ele>
        <time>2022-04-03T11:26:33Z</time>
      </trkpt>
      <trkpt lat="45.81953" lon="0.82728">
        <ele>194.4</ele>
        <time>2022-04-03T11:26:34Z</time>
      </trkpt>
      <trkpt lat="45.81955" lon="0.82723">
        <ele>194.4</ele>
        <time>2022-04-03T11:26:35Z</time>
      </trkpt>
      <trkpt lat="45.81957" lon="0.82719">
        <ele>194.2</ele>
        <time>2022-04-03T11:26:36Z</time>
      </trkpt>
      <trkpt lat="45.8196" lon="0.82714">
        <ele>194.4</ele>
        <time>2022-04-03T11:26:37Z</time>
      </trkpt>
      <trkpt lat="45.81962" lon="0.82709">
        <ele>194.2</ele>
        <time>2022-04-03T11:26:38Z</time>
      </trkpt>
      <trkpt lat="45.81964" lon="0.82705">
        <ele>194.4</ele>
        <time>2022-04-03T11:26:39Z</time>
      </trkpt>
      <trkpt lat="45.81967" lon="0.82701">
        <ele>194.4</ele>
        <time>2022-04-03T11:26:40Z</time>
      </trkpt>
      <trkpt lat="45.81969" lon="0.82696">
        <ele>194.4</ele>
        <time>2022-04-03T11:26:41Z</time>
      </trkpt>
      <trkpt lat="45.81971" lon="0.82692">
        <ele>194.4</ele>
        <time>2022-04-03T11:26:42Z</time>
      </trkpt>
      <trkpt lat="45.81973" lon="0.82688">
        <ele>194.8</ele>
        <time>2022-04-03T11:26:43Z</time>
      </trkpt>
      <trkpt lat="45.81975" lon="0.82684">
        <ele>194.8</ele>
        <time>2022-04-03T11:26:44Z</time>
      </trkpt>
      <trkpt lat="45.81977" lon="0.82681">
        <ele>195</ele>
        <time>2022-04-03T11:26:45Z</time>
      </trkpt>
      <trkpt lat="45.81979" lon="0.82678">
        <ele>195</ele>
        <time>2022-04-03T11:26:46Z</time>
      </trkpt>
      <trkpt lat="45.8198" lon="0.82675">
        <ele>195.2</ele>
        <time>2022-04-03T11:26:47Z</time>
      </trkpt>
      <trkpt lat="45.81982" lon="0.82671">
        <ele>195.2</ele>
        <time>2022-04-03T11:26:48Z</time>
      </trkpt>
      <trkpt lat="45.81983" lon="0.82668">
        <ele>195.2</ele>
        <time>2022-04-03T11:26:49Z</time>
      </trkpt>
      <trkpt lat="45.81985" lon="0.82665">
        <ele>195.2</ele>
        <time>2022-04-03T11:26:50Z</time>
      </trkpt>
      <trkpt lat="45.81986" lon="0.82662">
        <ele>195.4</ele>
        <time>2022-04-03T11:26:51Z</time>
      </trkpt>
      <trkpt lat="45.81988" lon="0.82658">
        <ele>195.6</ele>
        <time>2022-04-03T11:26:52Z</time>
      </trkpt>
      <trkpt lat="45.81989" lon="0.82656">
        <ele>196</ele>
        <time>2022-04-03T11:26:53Z</time>
      </trkpt>
      <trkpt lat="45.81991" lon="0.82653">
        <ele>196.2</ele>
        <time>2022-04-03T11:26:54Z</time>
      </trkpt>
      <trkpt lat="45.81992" lon="0.8265">
        <ele>196.4</ele>
        <time>2022-04-03T11:26:55Z</time>
      </trkpt>
      <trkpt lat="45.81994" lon="0.82647">
        <ele>196.6</ele>
        <time>2022-04-03T11:26:56Z</time>
      </trkpt>
      <trkpt lat="45.81995" lon="0.82644">
        <ele>196.8</ele>
        <time>2022-04-03T11:26:57Z</time>
      </trkpt>
      <trkpt lat="45.81997" lon="0.82641">
        <ele>197.2</ele>
        <time>2022-04-03T11:26:58Z</time>
      </trkpt>
      <trkpt lat="45.81998" lon="0.82638">
        <ele>197.4</ele>
        <time>2022-04-03T11:26:59Z</time>
      </trkpt>
      <trkpt lat="45.81999" lon="0.82635">
        <ele>197.4</ele>
        <time>2022-04-03T11:27:00Z</time>
      </trkpt>
      <trkpt lat="45.82001" lon="0.82632">
        <ele>197.4</ele>
        <time>2022-04-03T11:27:01Z</time>
      </trkpt>
      <trkpt lat="45.82002" lon="0.82629">
        <ele>197.4</ele>
        <time>2022-04-03T11:27:02Z</time>
      </trkpt>
      <trkpt lat="45.82003" lon="0.82626">
        <ele>197.4</ele>
        <time>2022-04-03T11:27:03Z</time>
      </trkpt>
      <trkpt lat="45.82004" lon="0.82623">
        <ele>197.4</ele>
        <time>2022-04-03T11:27:04Z</time>
      </trkpt>
      <trkpt lat="45.82006" lon="0.8262">
        <ele>197.6</ele>
        <time>2022-04-03T11:27:05Z</time>
      </trkpt>
      <trkpt lat="45.82007" lon="0.82618">
        <ele>197.6</ele>
        <time>2022-04-03T11:27:06Z</time>
      </trkpt>
      <trkpt lat="45.82009" lon="0.82615">
        <ele>197.6</ele>
        <time>2022-04-03T11:27:07Z</time>
      </trkpt>
      <trkpt lat="45.8201" lon="0.82613">
        <ele>197.6</ele>
        <time>2022-04-03T11:27:08Z</time>
      </trkpt>
      <trkpt lat="45.82012" lon="0.8261">
        <ele>198</ele>
        <time>2022-04-03T11:27:09Z</time>
      </trkpt>
      <trkpt lat="45.82013" lon="0.82608">
        <ele>198</ele>
        <time>2022-04-03T11:27:10Z</time>
      </trkpt>
      <trkpt lat="45.82015" lon="0.82605">
        <ele>198.2</ele>
        <time>2022-04-03T11:27:11Z</time>
      </trkpt>
      <trkpt lat="45.82016" lon="0.82603">
        <ele>198.4</ele>
        <time>2022-04-03T11:27:12Z</time>
      </trkpt>
      <trkpt lat="45.82018" lon="0.82601">
        <ele>198.6</ele>
        <time>2022-04-03T11:27:13Z</time>
      </trkpt>
      <trkpt lat="45.82019" lon="0.82598">
        <ele>198.6</ele>
        <time>2022-04-03T11:27:14Z</time>
      </trkpt>
      <trkpt lat="45.82021" lon="0.82596">
        <ele>199</ele>
        <time>2022-04-03T11:27:15Z</time>
      </trkpt>
      <trkpt lat="45.82022" lon="0.82593">
        <ele>199</ele>
        <time>2022-04-03T11:27:16Z</time>
      </trkpt>
      <trkpt lat="45.82023" lon="0.8259">
        <ele>199.2</ele>
        <time>2022-04-03T11:27:17Z</time>
      </trkpt>
      <trkpt lat="45.82025" lon="0.82588">
        <ele>199.4</ele>
        <time>2022-04-03T11:27:18Z</time>
      </trkpt>
      <trkpt lat="45.82026" lon="0.82586">
        <ele>199.4</ele>
        <time>2022-04-03T11:27:19Z</time>
      </trkpt>
      <trkpt lat="45.82028" lon="0.82584">
        <ele>199.4</ele>
        <time>2022-04-03T11:27:20Z</time>
      </trkpt>
      <trkpt lat="45.82029" lon="0.82583">
        <ele>199.4</ele>
        <time>2022-04-03T11:27:21Z</time>
      </trkpt>
      <trkpt lat="45.82031" lon="0.82581">
        <ele>199.4</ele>
        <time>2022-04-03T11:27:22Z</time>
      </trkpt>
      <trkpt lat="45.82033" lon="0.82581">
        <ele>199.4</ele>
        <time>2022-04-03T11:27:23Z</time>
      </trkpt>
      <trkpt lat="45.82035" lon="0.8258">
        <ele>199.6</ele>
        <time>2022-04-03T11:27:24Z</time>
      </trkpt>
      <trkpt lat="45.82038" lon="0.8258">
        <ele>199.6</ele>
        <time>2022-04-03T11:27:25Z</time>
      </trkpt>
      <trkpt lat="45.8204" lon="0.8258">
        <ele>199.8</ele>
        <time>2022-04-03T11:27:26Z</time>
      </trkpt>
      <trkpt lat="45.82042" lon="0.8258">
        <ele>200</ele>
        <time>2022-04-03T11:27:27Z</time>
      </trkpt>
      <trkpt lat="45.82045" lon="0.8258">
        <ele>200.2</ele>
        <time>2022-04-03T11:27:28Z</time>
      </trkpt>
      <trkpt lat="45.82047" lon="0.8258">
        <ele>200.2</ele>
        <time>2022-04-03T11:27:29Z</time>
      </trkpt>
      <trkpt lat="45.82049" lon="0.8258">
        <ele>200.6</ele>
        <time>2022-04-03T11:27:30Z</time>
      </trkpt>
      <trkpt lat="45.82051" lon="0.8258">
        <ele>201.6</ele>
        <time>2022-04-03T11:27:31Z</time>
      </trkpt>
      <trkpt lat="45.82053" lon="0.82579">
        <ele>202</ele>
        <time>2022-04-03T11:27:32Z</time>
      </trkpt>
      <trkpt lat="45.82056" lon="0.82579">
        <ele>202.4</ele>
        <time>2022-04-03T11:27:33Z</time>
      </trkpt>
      <trkpt lat="45.82058" lon="0.82578">
        <ele>202.6</ele>
        <time>2022-04-03T11:27:34Z</time>
      </trkpt>
      <trkpt lat="45.8206" lon="0.82578">
        <ele>202.4</ele>
        <time>2022-04-03T11:27:35Z</time>
      </trkpt>
      <trkpt lat="45.82062" lon="0.82577">
        <ele>202.6</ele>
        <time>2022-04-03T11:27:36Z</time>
      </trkpt>
      <trkpt lat="45.82064" lon="0.82576">
        <ele>202.8</ele>
        <time>2022-04-03T11:27:37Z</time>
      </trkpt>
      <trkpt lat="45.82066" lon="0.82576">
        <ele>202.8</ele>
        <time>2022-04-03T11:27:38Z</time>
      </trkpt>
      <trkpt lat="45.82068" lon="0.82576">
        <ele>202.8</ele>
        <time>2022-04-03T11:27:39Z</time>
      </trkpt>
      <trkpt lat="45.82071" lon="0.82576">
        <ele>203</ele>
        <time>2022-04-03T11:27:40Z</time>
      </trkpt>
      <trkpt lat="45.82073" lon="0.82575">
        <ele>203</ele>
        <time>2022-04-03T11:27:41Z</time>
      </trkpt>
      <trkpt lat="45.82075" lon="0.82575">
        <ele>203</ele>
        <time>2022-04-03T11:27:42Z</time>
      </trkpt>
      <trkpt lat="45.82077" lon="0.82575">
        <ele>203</ele>
        <time>2022-04-03T11:27:43Z</time>
      </trkpt>
      <trkpt lat="45.82079" lon="0.82574">
        <ele>203.2</ele>
        <time>2022-04-03T11:27:44Z</time>
      </trkpt>
      <trkpt lat="45.82081" lon="0.82574">
        <ele>203.2</ele>
        <time>2022-04-03T11:27:45Z</time>
      </trkpt>
      <trkpt lat="45.82083" lon="0.82573">
        <ele>203.6</ele>
        <time>2022-04-03T11:27:46Z</time>
      </trkpt>
      <trkpt lat="45.82086" lon="0.82573">
        <ele>203.6</ele>
        <time>2022-04-03T11:27:47Z</time>
      </trkpt>
      <trkpt lat="45.82088" lon="0.82572">
        <ele>203.8</ele>
        <time>2022-04-03T11:27:48Z</time>
      </trkpt>
      <trkpt lat="45.8209" lon="0.82571">
        <ele>204</ele>
        <time>2022-04-03T11:27:49Z</time>
      </trkpt>
      <trkpt lat="45.82092" lon="0.8257">
        <ele>204</ele>
        <time>2022-04-03T11:27:50Z</time>
      </trkpt>
      <trkpt lat="45.82095" lon="0.8257">
        <ele>204.4</ele>
        <time>2022-04-03T11:27:51Z</time>
      </trkpt>
      <trkpt lat="45.82097" lon="0.82569">
        <ele>204.4</ele>
        <time>2022-04-03T11:27:52Z</time>
      </trkpt>
      <trkpt lat="45.82099" lon="0.82568">
        <ele>204.6</ele>
        <time>2022-04-03T11:27:53Z</time>
      </trkpt>
      <trkpt lat="45.82102" lon="0.82567">
        <ele>205</ele>
        <time>2022-04-03T11:27:54Z</time>
      </trkpt>
      <trkpt lat="45.82104" lon="0.82566">
        <ele>205.2</ele>
        <time>2022-04-03T11:27:55Z</time>
      </trkpt>
      <trkpt lat="45.82106" lon="0.82565">
        <ele>205.6</ele>
        <time>2022-04-03T11:27:56Z</time>
      </trkpt>
      <trkpt lat="45.82109" lon="0.82564">
        <ele>205.6</ele>
        <time>2022-04-03T11:27:57Z</time>
      </trkpt>
      <trkpt lat="45.82111" lon="0.82564">
        <ele>206</ele>
        <time>2022-04-03T11:27:58Z</time>
      </trkpt>
      <trkpt lat="45.82113" lon="0.82564">
        <ele>206.2</ele>
        <time>2022-04-03T11:27:59Z</time>
      </trkpt>
      <trkpt lat="45.82116" lon="0.82563">
        <ele>206.4</ele>
        <time>2022-04-03T11:28:00Z</time>
      </trkpt>
      <trkpt lat="45.82118" lon="0.82562">
        <ele>206.4</ele>
        <time>2022-04-03T11:28:01Z</time>
      </trkpt>
      <trkpt lat="45.8212" lon="0.82562">
        <ele>206.4</ele>
        <time>2022-04-03T11:28:02Z</time>
      </trkpt>
      <trkpt lat="45.82122" lon="0.8256">
        <ele>206.6</ele>
        <time>2022-04-03T11:28:03Z</time>
      </trkpt>
      <trkpt lat="45.82124" lon="0.8256">
        <ele>206.6</ele>
        <time>2022-04-03T11:28:04Z</time>
      </trkpt>
      <trkpt lat="45.82126" lon="0.82559">
        <ele>206.8</ele>
        <time>2022-04-03T11:28:05Z</time>
      </trkpt>
      <trkpt lat="45.82129" lon="0.82559">
        <ele>206.8</ele>
        <time>2022-04-03T11:28:06Z</time>
      </trkpt>
      <trkpt lat="45.82131" lon="0.82559">
        <ele>207</ele>
        <time>2022-04-03T11:28:07Z</time>
      </trkpt>
      <trkpt lat="45.82134" lon="0.82559">
        <ele>207</ele>
        <time>2022-04-03T11:28:08Z</time>
      </trkpt>
      <trkpt lat="45.82136" lon="0.8256">
        <ele>207.2</ele>
        <time>2022-04-03T11:28:09Z</time>
      </trkpt>
      <trkpt lat="45.82139" lon="0.8256">
        <ele>207.4</ele>
        <time>2022-04-03T11:28:10Z</time>
      </trkpt>
      <trkpt lat="45.82141" lon="0.82559">
        <ele>207.2</ele>
        <time>2022-04-03T11:28:11Z</time>
      </trkpt>
      <trkpt lat="45.82144" lon="0.82559">
        <ele>207.4</ele>
        <time>2022-04-03T11:28:12Z</time>
      </trkpt>
      <trkpt lat="45.82146" lon="0.82559">
        <ele>207.6</ele>
        <time>2022-04-03T11:28:13Z</time>
      </trkpt>
      <trkpt lat="45.82149" lon="0.82559">
        <ele>207.6</ele>
        <time>2022-04-03T11:28:14Z</time>
      </trkpt>
      <trkpt lat="45.82151" lon="0.82559">
        <ele>207.6</ele>
        <time>2022-04-03T11:28:15Z</time>
      </trkpt>
      <trkpt lat="45.82154" lon="0.82558">
        <ele>207.6</ele>
        <time>2022-04-03T11:28:16Z</time>
      </trkpt>
      <trkpt lat="45.82156" lon="0.82558">
        <ele>207.6</ele>
        <time>2022-04-03T11:28:17Z</time>
      </trkpt>
      <trkpt lat="45.82158" lon="0.82557">
        <ele>208</ele>
        <time>2022-04-03T11:28:18Z</time>
      </trkpt>
      <trkpt lat="45.82161" lon="0.82557">
        <ele>208.2</ele>
        <time>2022-04-03T11:28:19Z</time>
      </trkpt>
      <trkpt lat="45.82163" lon="0.82556">
        <ele>208.6</ele>
        <time>2022-04-03T11:28:20Z</time>
      </trkpt>
      <trkpt lat="45.82165" lon="0.82555">
        <ele>208.6</ele>
        <time>2022-04-03T11:28:21Z</time>
      </trkpt>
      <trkpt lat="45.82167" lon="0.82555">
        <ele>209</ele>
        <time>2022-04-03T11:28:22Z</time>
      </trkpt>
      <trkpt lat="45.82169" lon="0.82554">
        <ele>209</ele>
        <time>2022-04-03T11:28:23Z</time>
      </trkpt>
      <trkpt lat="45.82172" lon="0.82554">
        <ele>209</ele>
        <time>2022-04-03T11:28:24Z</time>
      </trkpt>
      <trkpt lat="45.82174" lon="0.82553">
        <ele>209</ele>
        <time>2022-04-03T11:28:25Z</time>
      </trkpt>
      <trkpt lat="45.82176" lon="0.82553">
        <ele>209.2</ele>
        <time>2022-04-03T11:28:26Z</time>
      </trkpt>
      <trkpt lat="45.82178" lon="0.82552">
        <ele>209.2</ele>
        <time>2022-04-03T11:28:27Z</time>
      </trkpt>
      <trkpt lat="45.82181" lon="0.82552">
        <ele>209.4</ele>
        <time>2022-04-03T11:28:28Z</time>
      </trkpt>
      <trkpt lat="45.82183" lon="0.82553">
        <ele>209.4</ele>
        <time>2022-04-03T11:28:29Z</time>
      </trkpt>
      <trkpt lat="45.82186" lon="0.82553">
        <ele>209.6</ele>
        <time>2022-04-03T11:28:30Z</time>
      </trkpt>
      <trkpt lat="45.82188" lon="0.82553">
        <ele>209.8</ele>
        <time>2022-04-03T11:28:31Z</time>
      </trkpt>
      <trkpt lat="45.8219" lon="0.82553">
        <ele>210</ele>
        <time>2022-04-03T11:28:32Z</time>
      </trkpt>
      <trkpt lat="45.82193" lon="0.82552">
        <ele>210</ele>
        <time>2022-04-03T11:28:33Z</time>
      </trkpt>
      <trkpt lat="45.82195" lon="0.82552">
        <ele>210.2</ele>
        <time>2022-04-03T11:28:34Z</time>
      </trkpt>
      <trkpt lat="45.82198" lon="0.82551">
        <ele>210.2</ele>
        <time>2022-04-03T11:28:35Z</time>
      </trkpt>
      <trkpt lat="45.822" lon="0.82551">
        <ele>210.4</ele>
        <time>2022-04-03T11:28:36Z</time>
      </trkpt>
      <trkpt lat="45.82202" lon="0.8255">
        <ele>210.8</ele>
        <time>2022-04-03T11:28:37Z</time>
      </trkpt>
      <trkpt lat="45.82205" lon="0.8255">
        <ele>211</ele>
        <time>2022-04-03T11:28:38Z</time>
      </trkpt>
      <trkpt lat="45.82207" lon="0.82549">
        <ele>211.2</ele>
        <time>2022-04-03T11:28:39Z</time>
      </trkpt>
      <trkpt lat="45.82209" lon="0.82549">
        <ele>211.4</ele>
        <time>2022-04-03T11:28:40Z</time>
      </trkpt>
      <trkpt lat="45.82211" lon="0.82548">
        <ele>212</ele>
        <time>2022-04-03T11:28:41Z</time>
      </trkpt>
      <trkpt lat="45.82213" lon="0.82547">
        <ele>211.8</ele>
        <time>2022-04-03T11:28:42Z</time>
      </trkpt>
      <trkpt lat="45.82215" lon="0.82547">
        <ele>212.2</ele>
        <time>2022-04-03T11:28:43Z</time>
      </trkpt>
      <trkpt lat="45.82218" lon="0.82546">
        <ele>212</ele>
        <time>2022-04-03T11:28:44Z</time>
      </trkpt>
      <trkpt lat="45.8222" lon="0.82545">
        <ele>212.4</ele>
        <time>2022-04-03T11:28:45Z</time>
      </trkpt>
      <trkpt lat="45.82222" lon="0.82544">
        <ele>212.4</ele>
        <time>2022-04-03T11:28:46Z</time>
      </trkpt>
      <trkpt lat="45.82224" lon="0.82543">
        <ele>212.4</ele>
        <time>2022-04-03T11:28:47Z</time>
      </trkpt>
      <trkpt lat="45.82226" lon="0.82541">
        <ele>212.8</ele>
        <time>2022-04-03T11:28:48Z</time>
      </trkpt>
      <trkpt lat="45.82228" lon="0.82539">
        <ele>213</ele>
        <time>2022-04-03T11:28:49Z</time>
      </trkpt>
      <trkpt lat="45.8223" lon="0.82537">
        <ele>213</ele>
        <time>2022-04-03T11:28:50Z</time>
      </trkpt>
      <trkpt lat="45.82232" lon="0.82536">
        <ele>213.4</ele>
        <time>2022-04-03T11:28:51Z</time>
      </trkpt>
      <trkpt lat="45.82234" lon="0.82534">
        <ele>213.4</ele>
        <time>2022-04-03T11:28:52Z</time>
      </trkpt>
      <trkpt lat="45.82236" lon="0.82532">
        <ele>213.6</ele>
        <time>2022-04-03T11:28:53Z</time>
      </trkpt>
      <trkpt lat="45.82238" lon="0.8253">
        <ele>213.6</ele>
        <time>2022-04-03T11:28:54Z</time>
      </trkpt>
      <trkpt lat="45.8224" lon="0.82528">
        <ele>214</ele>
        <time>2022-04-03T11:28:55Z</time>
      </trkpt>
      <trkpt lat="45.82241" lon="0.82525">
        <ele>214</ele>
        <time>2022-04-03T11:28:56Z</time>
      </trkpt>
      <trkpt lat="45.82243" lon="0.82523">
        <ele>214.2</ele>
        <time>2022-04-03T11:28:57Z</time>
      </trkpt>
      <trkpt lat="45.82244" lon="0.8252">
        <ele>214.4</ele>
        <time>2022-04-03T11:28:58Z</time>
      </trkpt>
      <trkpt lat="45.82246" lon="0.82518">
        <ele>214.4</ele>
        <time>2022-04-03T11:28:59Z</time>
      </trkpt>
      <trkpt lat="45.82247" lon="0.82515">
        <ele>214.6</ele>
        <time>2022-04-03T11:29:00Z</time>
      </trkpt>
      <trkpt lat="45.82248" lon="0.82512">
        <ele>214.8</ele>
        <time>2022-04-03T11:29:01Z</time>
      </trkpt>
      <trkpt lat="45.8225" lon="0.82509">
        <ele>215</ele>
        <time>2022-04-03T11:29:02Z</time>
      </trkpt>
      <trkpt lat="45.82251" lon="0.82506">
        <ele>215.2</ele>
        <time>2022-04-03T11:29:03Z</time>
      </trkpt>
      <trkpt lat="45.82251" lon="0.82503">
        <ele>215.4</ele>
        <time>2022-04-03T11:29:04Z</time>
      </trkpt>
      <trkpt lat="45.82252" lon="0.825">
        <ele>215.8</ele>
        <time>2022-04-03T11:29:05Z</time>
      </trkpt>
      <trkpt lat="45.82252" lon="0.82497">
        <ele>215.8</ele>
        <time>2022-04-03T11:29:06Z</time>
      </trkpt>
      <trkpt lat="45.82253" lon="0.82494">
        <ele>216</ele>
        <time>2022-04-03T11:29:07Z</time>
      </trkpt>
      <trkpt lat="45.82253" lon="0.82491">
        <ele>216</ele>
        <time>2022-04-03T11:29:08Z</time>
      </trkpt>
      <trkpt lat="45.82253" lon="0.82488">
        <ele>216</ele>
        <time>2022-04-03T11:29:09Z</time>
      </trkpt>
      <trkpt lat="45.82253" lon="0.82484">
        <ele>216.2</ele>
        <time>2022-04-03T11:29:10Z</time>
      </trkpt>
      <trkpt lat="45.82253" lon="0.82481">
        <ele>216.6</ele>
        <time>2022-04-03T11:29:11Z</time>
      </trkpt>
      <trkpt lat="45.82253" lon="0.82478">
        <ele>216.8</ele>
        <time>2022-04-03T11:29:12Z</time>
      </trkpt>
      <trkpt lat="45.82253" lon="0.82475">
        <ele>216.8</ele>
        <time>2022-04-03T11:29:13Z</time>
      </trkpt>
      <trkpt lat="45.82253" lon="0.82472">
        <ele>216.8</ele>
        <time>2022-04-03T11:29:14Z</time>
      </trkpt>
      <trkpt lat="45.82253" lon="0.82468">
        <ele>217</ele>
        <time>2022-04-03T11:29:15Z</time>
      </trkpt>
      <trkpt lat="45.82252" lon="0.82465">
        <ele>217.2</ele>
        <time>2022-04-03T11:29:16Z</time>
      </trkpt>
      <trkpt lat="45.82252" lon="0.82462">
        <ele>217</ele>
        <time>2022-04-03T11:29:17Z</time>
      </trkpt>
      <trkpt lat="45.82251" lon="0.82458">
        <ele>217</ele>
        <time>2022-04-03T11:29:18Z</time>
      </trkpt>
      <trkpt lat="45.82251" lon="0.82455">
        <ele>217.2</ele>
        <time>2022-04-03T11:29:19Z</time>
      </trkpt>
      <trkpt lat="45.8225" lon="0.82452">
        <ele>217.2</ele>
        <time>2022-04-03T11:29:20Z</time>
      </trkpt>
      <trkpt lat="45.8225" lon="0.82449">
        <ele>217.4</ele>
        <time>2022-04-03T11:29:21Z</time>
      </trkpt>
      <trkpt lat="45.8225" lon="0.82445">
        <ele>217.6</ele>
        <time>2022-04-03T11:29:22Z</time>
      </trkpt>
      <trkpt lat="45.8225" lon="0.82442">
        <ele>217.6</ele>
        <time>2022-04-03T11:29:23Z</time>
      </trkpt>
      <trkpt lat="45.82249" lon="0.82438">
        <ele>217.8</ele>
        <time>2022-04-03T11:29:24Z</time>
      </trkpt>
      <trkpt lat="45.82249" lon="0.82435">
        <ele>217.8</ele>
        <time>2022-04-03T11:29:25Z</time>
      </trkpt>
      <trkpt lat="45.82249" lon="0.82432">
        <ele>217.8</ele>
        <time>2022-04-03T11:29:26Z</time>
      </trkpt>
      <trkpt lat="45.82249" lon="0.82428">
        <ele>217.8</ele>
        <time>2022-04-03T11:29:27Z</time>
      </trkpt>
      <trkpt lat="45.82249" lon="0.82425">
        <ele>217.8</ele>
        <time>2022-04-03T11:29:28Z</time>
      </trkpt>
      <trkpt lat="45.82249" lon="0.82421">
        <ele>217.8</ele>
        <time>2022-04-03T11:29:29Z</time>
      </trkpt>
      <trkpt lat="45.82249" lon="0.82417">
        <ele>218</ele>
        <time>2022-04-03T11:29:30Z</time>
      </trkpt>
      <trkpt lat="45.82248" lon="0.82414">
        <ele>218.2</ele>
        <time>2022-04-03T11:29:31Z</time>
      </trkpt>
      <trkpt lat="45.82248" lon="0.8241">
        <ele>218.2</ele>
        <time>2022-04-03T11:29:32Z</time>
      </trkpt>
      <trkpt lat="45.82248" lon="0.82406">
        <ele>218.6</ele>
        <time>2022-04-03T11:29:33Z</time>
      </trkpt>
      <trkpt lat="45.82248" lon="0.82403">
        <ele>218.6</ele>
        <time>2022-04-03T11:29:34Z</time>
      </trkpt>
      <trkpt lat="45.82248" lon="0.82399">
        <ele>219</ele>
        <time>2022-04-03T11:29:35Z</time>
      </trkpt>
      <trkpt lat="45.82247" lon="0.82395">
        <ele>219.2</ele>
        <time>2022-04-03T11:29:36Z</time>
      </trkpt>
      <trkpt lat="45.82247" lon="0.82392">
        <ele>219.2</ele>
        <time>2022-04-03T11:29:37Z</time>
      </trkpt>
      <trkpt lat="45.82247" lon="0.82388">
        <ele>219.4</ele>
        <time>2022-04-03T11:29:38Z</time>
      </trkpt>
      <trkpt lat="45.82247" lon="0.82385">
        <ele>219.6</ele>
        <time>2022-04-03T11:29:39Z</time>
      </trkpt>
      <trkpt lat="45.82246" lon="0.82381">
        <ele>219.6</ele>
        <time>2022-04-03T11:29:40Z</time>
      </trkpt>
      <trkpt lat="45.82246" lon="0.82377">
        <ele>220</ele>
        <time>2022-04-03T11:29:41Z</time>
      </trkpt>
      <trkpt lat="45.82246" lon="0.82374">
        <ele>220</ele>
        <time>2022-04-03T11:29:42Z</time>
      </trkpt>
      <trkpt lat="45.82246" lon="0.8237">
        <ele>220</ele>
        <time>2022-04-03T11:29:43Z</time>
      </trkpt>
      <trkpt lat="45.82245" lon="0.82367">
        <ele>220.2</ele>
        <time>2022-04-03T11:29:44Z</time>
      </trkpt>
      <trkpt lat="45.82245" lon="0.82364">
        <ele>220.4</ele>
        <time>2022-04-03T11:29:45Z</time>
      </trkpt>
      <trkpt lat="45.82245" lon="0.8236">
        <ele>220.2</ele>
        <time>2022-04-03T11:29:46Z</time>
      </trkpt>
      <trkpt lat="45.82244" lon="0.82357">
        <ele>220.4</ele>
        <time>2022-04-03T11:29:47Z</time>
      </trkpt>
      <trkpt lat="45.82244" lon="0.82354">
        <ele>220.4</ele>
        <time>2022-04-03T11:29:48Z</time>
      </trkpt>
      <trkpt lat="45.82244" lon="0.8235">
        <ele>220.4</ele>
        <time>2022-04-03T11:29:49Z</time>
      </trkpt>
      <trkpt lat="45.82244" lon="0.82347">
        <ele>220.4</ele>
        <time>2022-04-03T11:29:50Z</time>
      </trkpt>
      <trkpt lat="45.82243" lon="0.82344">
        <ele>220.6</ele>
        <time>2022-04-03T11:29:51Z</time>
      </trkpt>
      <trkpt lat="45.82243" lon="0.8234">
        <ele>220.6</ele>
        <time>2022-04-03T11:29:52Z</time>
      </trkpt>
      <trkpt lat="45.82243" lon="0.82337">
        <ele>220.8</ele>
        <time>2022-04-03T11:29:53Z</time>
      </trkpt>
      <trkpt lat="45.82243" lon="0.82333">
        <ele>221</ele>
        <time>2022-04-03T11:29:54Z</time>
      </trkpt>
      <trkpt lat="45.82243" lon="0.8233">
        <ele>221.2</ele>
        <time>2022-04-03T11:29:55Z</time>
      </trkpt>
      <trkpt lat="45.82243" lon="0.82326">
        <ele>221.4</ele>
        <time>2022-04-03T11:29:56Z</time>
      </trkpt>
      <trkpt lat="45.82242" lon="0.82322">
        <ele>221.6</ele>
        <time>2022-04-03T11:29:57Z</time>
      </trkpt>
      <trkpt lat="45.82242" lon="0.82319">
        <ele>221.8</ele>
        <time>2022-04-03T11:29:58Z</time>
      </trkpt>
      <trkpt lat="45.82242" lon="0.82315">
        <ele>222</ele>
        <time>2022-04-03T11:29:59Z</time>
      </trkpt>
      <trkpt lat="45.82242" lon="0.82312">
        <ele>222.2</ele>
        <time>2022-04-03T11:30:00Z</time>
      </trkpt>
      <trkpt lat="45.82241" lon="0.82308">
        <ele>222.4</ele>
        <time>2022-04-03T11:30:01Z</time>
      </trkpt>
      <trkpt lat="45.82241" lon="0.82304">
        <ele>222.4</ele>
        <time>2022-04-03T11:30:02Z</time>
      </trkpt>
      <trkpt lat="45.82241" lon="0.82301">
        <ele>222.6</ele>
        <time>2022-04-03T11:30:03Z</time>
      </trkpt>
      <trkpt lat="45.8224" lon="0.82298">
        <ele>222.6</ele>
        <time>2022-04-03T11:30:04Z</time>
      </trkpt>
      <trkpt lat="45.8224" lon="0.82294">
        <ele>222.8</ele>
        <time>2022-04-03T11:30:05Z</time>
      </trkpt>
      <trkpt lat="45.8224" lon="0.82291">
        <ele>223</ele>
        <time>2022-04-03T11:30:06Z</time>
      </trkpt>
      <trkpt lat="45.82239" lon="0.82288">
        <ele>223.2</ele>
        <time>2022-04-03T11:30:07Z</time>
      </trkpt>
      <trkpt lat="45.82239" lon="0.82284">
        <ele>223.2</ele>
        <time>2022-04-03T11:30:08Z</time>
      </trkpt>
      <trkpt lat="45.82239" lon="0.82281">
        <ele>223.6</ele>
        <time>2022-04-03T11:30:09Z</time>
      </trkpt>
      <trkpt lat="45.82238" lon="0.82277">
        <ele>223.6</ele>
        <time>2022-04-03T11:30:10Z</time>
      </trkpt>
      <trkpt lat="45.82238" lon="0.82274">
        <ele>223.6</ele>
        <time>2022-04-03T11:30:11Z</time>
      </trkpt>
      <trkpt lat="45.82238" lon="0.82271">
        <ele>224</ele>
        <time>2022-04-03T11:30:12Z</time>
      </trkpt>
      <trkpt lat="45.82239" lon="0.82267">
        <ele>224</ele>
        <time>2022-04-03T11:30:13Z</time>
      </trkpt>
      <trkpt lat="45.8224" lon="0.82264">
        <ele>224</ele>
        <time>2022-04-03T11:30:14Z</time>
      </trkpt>
      <trkpt lat="45.82242" lon="0.82261">
        <ele>224.4</ele>
        <time>2022-04-03T11:30:15Z</time>
      </trkpt>
      <trkpt lat="45.82244" lon="0.82259">
        <ele>224.6</ele>
        <time>2022-04-03T11:30:16Z</time>
      </trkpt>
      <trkpt lat="45.82246" lon="0.82257">
        <ele>224.6</ele>
        <time>2022-04-03T11:30:17Z</time>
      </trkpt>
      <trkpt lat="45.82248" lon="0.82256">
        <ele>224.6</ele>
        <time>2022-04-03T11:30:18Z</time>
      </trkpt>
      <trkpt lat="45.8225" lon="0.82254">
        <ele>224.8</ele>
        <time>2022-04-03T11:30:19Z</time>
      </trkpt>
      <trkpt lat="45.82253" lon="0.82252">
        <ele>225.2</ele>
        <time>2022-04-03T11:30:20Z</time>
      </trkpt>
      <trkpt lat="45.82255" lon="0.82251">
        <ele>225.4</ele>
        <time>2022-04-03T11:30:21Z</time>
      </trkpt>
      <trkpt lat="45.82257" lon="0.82249">
        <ele>225.6</ele>
        <time>2022-04-03T11:30:22Z</time>
      </trkpt>
      <trkpt lat="45.8226" lon="0.82248">
        <ele>225.6</ele>
        <time>2022-04-03T11:30:23Z</time>
      </trkpt>
      <trkpt lat="45.82262" lon="0.82246">
        <ele>225.8</ele>
        <time>2022-04-03T11:30:24Z</time>
      </trkpt>
      <trkpt lat="45.82265" lon="0.82245">
        <ele>225.8</ele>
        <time>2022-04-03T11:30:25Z</time>
      </trkpt>
      <trkpt lat="45.82267" lon="0.82244">
        <ele>226.2</ele>
        <time>2022-04-03T11:30:26Z</time>
      </trkpt>
      <trkpt lat="45.82269" lon="0.82243">
        <ele>226.2</ele>
        <time>2022-04-03T11:30:27Z</time>
      </trkpt>
      <trkpt lat="45.82271" lon="0.82242">
        <ele>226.4</ele>
        <time>2022-04-03T11:30:28Z</time>
      </trkpt>
      <trkpt lat="45.82274" lon="0.8224">
        <ele>226.4</ele>
        <time>2022-04-03T11:30:29Z</time>
      </trkpt>
      <trkpt lat="45.82276" lon="0.82239">
        <ele>226.4</ele>
        <time>2022-04-03T11:30:30Z</time>
      </trkpt>
      <trkpt lat="45.82278" lon="0.82238">
        <ele>226.6</ele>
        <time>2022-04-03T11:30:31Z</time>
      </trkpt>
      <trkpt lat="45.8228" lon="0.82236">
        <ele>226.8</ele>
        <time>2022-04-03T11:30:32Z</time>
      </trkpt>
      <trkpt lat="45.82282" lon="0.82235">
        <ele>227</ele>
        <time>2022-04-03T11:30:33Z</time>
      </trkpt>
      <trkpt lat="45.82284" lon="0.82234">
        <ele>227.2</ele>
        <time>2022-04-03T11:30:34Z</time>
      </trkpt>
      <trkpt lat="45.82287" lon="0.82233">
        <ele>227.4</ele>
        <time>2022-04-03T11:30:35Z</time>
      </trkpt>
      <trkpt lat="45.82288" lon="0.82232">
        <ele>227.6</ele>
        <time>2022-04-03T11:30:36Z</time>
      </trkpt>
      <trkpt lat="45.8229" lon="0.82231">
        <ele>228</ele>
        <time>2022-04-03T11:30:37Z</time>
      </trkpt>
      <trkpt lat="45.82292" lon="0.8223">
        <ele>228</ele>
        <time>2022-04-03T11:30:38Z</time>
      </trkpt>
      <trkpt lat="45.82294" lon="0.82229">
        <ele>228</ele>
        <time>2022-04-03T11:30:39Z</time>
      </trkpt>
      <trkpt lat="45.82296" lon="0.82227">
        <ele>228</ele>
        <time>2022-04-03T11:30:40Z</time>
      </trkpt>
      <trkpt lat="45.82298" lon="0.82226">
        <ele>228.4</ele>
        <time>2022-04-03T11:30:41Z</time>
      </trkpt>
      <trkpt lat="45.823" lon="0.82225">
        <ele>228.4</ele>
        <time>2022-04-03T11:30:42Z</time>
      </trkpt>
      <trkpt lat="45.82302" lon="0.82224">
        <ele>228.8</ele>
        <time>2022-04-03T11:30:43Z</time>
      </trkpt>
      <trkpt lat="45.82304" lon="0.82223">
        <ele>228.8</ele>
        <time>2022-04-03T11:30:44Z</time>
      </trkpt>
      <trkpt lat="45.82306" lon="0.82222">
        <ele>229</ele>
        <time>2022-04-03T11:30:45Z</time>
      </trkpt>
      <trkpt lat="45.82308" lon="0.82221">
        <ele>229</ele>
        <time>2022-04-03T11:30:46Z</time>
      </trkpt>
      <trkpt lat="45.82311" lon="0.8222">
        <ele>228.8</ele>
        <time>2022-04-03T11:30:47Z</time>
      </trkpt>
      <trkpt lat="45.82313" lon="0.82219">
        <ele>228.8</ele>
        <time>2022-04-03T11:30:48Z</time>
      </trkpt>
      <trkpt lat="45.82315" lon="0.82218">
        <ele>229</ele>
        <time>2022-04-03T11:30:49Z</time>
      </trkpt>
      <trkpt lat="45.82316" lon="0.82217">
        <ele>229.2</ele>
        <time>2022-04-03T11:30:50Z</time>
      </trkpt>
      <trkpt lat="45.82318" lon="0.82216">
        <ele>229.4</ele>
        <time>2022-04-03T11:30:51Z</time>
      </trkpt>
      <trkpt lat="45.82321" lon="0.82215">
        <ele>229.4</ele>
        <time>2022-04-03T11:30:52Z</time>
      </trkpt>
      <trkpt lat="45.82323" lon="0.82214">
        <ele>229.4</ele>
        <time>2022-04-03T11:30:53Z</time>
      </trkpt>
      <trkpt lat="45.82325" lon="0.82213">
        <ele>229.6</ele>
        <time>2022-04-03T11:30:54Z</time>
      </trkpt>
      <trkpt lat="45.82327" lon="0.82211">
        <ele>229.6</ele>
        <time>2022-04-03T11:30:55Z</time>
      </trkpt>
      <trkpt lat="45.82329" lon="0.8221">
        <ele>229.8</ele>
        <time>2022-04-03T11:30:56Z</time>
      </trkpt>
      <trkpt lat="45.82331" lon="0.82209">
        <ele>230</ele>
        <time>2022-04-03T11:30:57Z</time>
      </trkpt>
      <trkpt lat="45.82333" lon="0.82208">
        <ele>230.2</ele>
        <time>2022-04-03T11:30:58Z</time>
      </trkpt>
      <trkpt lat="45.82335" lon="0.82207">
        <ele>230.4</ele>
        <time>2022-04-03T11:30:59Z</time>
      </trkpt>
      <trkpt lat="45.82337" lon="0.82206">
        <ele>230.6</ele>
        <time>2022-04-03T11:31:00Z</time>
      </trkpt>
      <trkpt lat="45.82339" lon="0.82205">
        <ele>230.8</ele>
        <time>2022-04-03T11:31:01Z</time>
      </trkpt>
      <trkpt lat="45.82341" lon="0.82204">
        <ele>231</ele>
        <time>2022-04-03T11:31:02Z</time>
      </trkpt>
      <trkpt lat="45.82343" lon="0.82202">
        <ele>231.2</ele>
        <time>2022-04-03T11:31:03Z</time>
      </trkpt>
      <trkpt lat="45.82346" lon="0.82201">
        <ele>231.4</ele>
        <time>2022-04-03T11:31:04Z</time>
      </trkpt>
      <trkpt lat="45.82348" lon="0.822">
        <ele>231.4</ele>
        <time>2022-04-03T11:31:05Z</time>
      </trkpt>
      <trkpt lat="45.8235" lon="0.82199">
        <ele>231.8</ele>
        <time>2022-04-03T11:31:06Z</time>
      </trkpt>
      <trkpt lat="45.82352" lon="0.82198">
        <ele>231.8</ele>
        <time>2022-04-03T11:31:07Z</time>
      </trkpt>
      <trkpt lat="45.82354" lon="0.82197">
        <ele>231.8</ele>
        <time>2022-04-03T11:31:08Z</time>
      </trkpt>
      <trkpt lat="45.82356" lon="0.82196">
        <ele>232</ele>
        <time>2022-04-03T11:31:09Z</time>
      </trkpt>
      <trkpt lat="45.82359" lon="0.82196">
        <ele>232.2</ele>
        <time>2022-04-03T11:31:10Z</time>
      </trkpt>
      <trkpt lat="45.82361" lon="0.82195">
        <ele>232.2</ele>
        <time>2022-04-03T11:31:11Z</time>
      </trkpt>
      <trkpt lat="45.82363" lon="0.82194">
        <ele>232.4</ele>
        <time>2022-04-03T11:31:12Z</time>
      </trkpt>
      <trkpt lat="45.82365" lon="0.82193">
        <ele>232.4</ele>
        <time>2022-04-03T11:31:13Z</time>
      </trkpt>
      <trkpt lat="45.82367" lon="0.82192">
        <ele>232.4</ele>
        <time>2022-04-03T11:31:14Z</time>
      </trkpt>
      <trkpt lat="45.82369" lon="0.82191">
        <ele>232.2</ele>
        <time>2022-04-03T11:31:15Z</time>
      </trkpt>
      <trkpt lat="45.82371" lon="0.8219">
        <ele>232.6</ele>
        <time>2022-04-03T11:31:16Z</time>
      </trkpt>
      <trkpt lat="45.82373" lon="0.82189">
        <ele>232.6</ele>
        <time>2022-04-03T11:31:17Z</time>
      </trkpt>
      <trkpt lat="45.82375" lon="0.82187">
        <ele>232.6</ele>
        <time>2022-04-03T11:31:18Z</time>
      </trkpt>
      <trkpt lat="45.82377" lon="0.82186">
        <ele>232.8</ele>
        <time>2022-04-03T11:31:19Z</time>
      </trkpt>
      <trkpt lat="45.82379" lon="0.82185">
        <ele>233</ele>
        <time>2022-04-03T11:31:20Z</time>
      </trkpt>
      <trkpt lat="45.82381" lon="0.82184">
        <ele>233</ele>
        <time>2022-04-03T11:31:21Z</time>
      </trkpt>
      <trkpt lat="45.82384" lon="0.82183">
        <ele>233.2</ele>
        <time>2022-04-03T11:31:22Z</time>
      </trkpt>
      <trkpt lat="45.82386" lon="0.82183">
        <ele>233.2</ele>
        <time>2022-04-03T11:31:23Z</time>
      </trkpt>
      <trkpt lat="45.82388" lon="0.82182">
        <ele>233.4</ele>
        <time>2022-04-03T11:31:24Z</time>
      </trkpt>
      <trkpt lat="45.8239" lon="0.8218">
        <ele>233.6</ele>
        <time>2022-04-03T11:31:25Z</time>
      </trkpt>
      <trkpt lat="45.82392" lon="0.82179">
        <ele>233.6</ele>
        <time>2022-04-03T11:31:26Z</time>
      </trkpt>
      <trkpt lat="45.82394" lon="0.82178">
        <ele>233.6</ele>
        <time>2022-04-03T11:31:27Z</time>
      </trkpt>
      <trkpt lat="45.82396" lon="0.82177">
        <ele>233.8</ele>
        <time>2022-04-03T11:31:28Z</time>
      </trkpt>
      <trkpt lat="45.82399" lon="0.82176">
        <ele>233.8</ele>
        <time>2022-04-03T11:31:29Z</time>
      </trkpt>
      <trkpt lat="45.82401" lon="0.82175">
        <ele>234</ele>
        <time>2022-04-03T11:31:30Z</time>
      </trkpt>
      <trkpt lat="45.82403" lon="0.82174">
        <ele>233.8</ele>
        <time>2022-04-03T11:31:31Z</time>
      </trkpt>
      <trkpt lat="45.82405" lon="0.82173">
        <ele>234</ele>
        <time>2022-04-03T11:31:32Z</time>
      </trkpt>
      <trkpt lat="45.82408" lon="0.82172">
        <ele>234</ele>
        <time>2022-04-03T11:31:33Z</time>
      </trkpt>
      <trkpt lat="45.8241" lon="0.82171">
        <ele>234.2</ele>
        <time>2022-04-03T11:31:34Z</time>
      </trkpt>
      <trkpt lat="45.82412" lon="0.8217">
        <ele>234.4</ele>
        <time>2022-04-03T11:31:35Z</time>
      </trkpt>
      <trkpt lat="45.82414" lon="0.82169">
        <ele>234.4</ele>
        <time>2022-04-03T11:31:36Z</time>
      </trkpt>
      <trkpt lat="45.82416" lon="0.82168">
        <ele>234.6</ele>
        <time>2022-04-03T11:31:37Z</time>
      </trkpt>
      <trkpt lat="45.82418" lon="0.82167">
        <ele>235</ele>
        <time>2022-04-03T11:31:38Z</time>
      </trkpt>
      <trkpt lat="45.8242" lon="0.82166">
        <ele>235</ele>
        <time>2022-04-03T11:31:39Z</time>
      </trkpt>
      <trkpt lat="45.82423" lon="0.82165">
        <ele>235.4</ele>
        <time>2022-04-03T11:31:40Z</time>
      </trkpt>
      <trkpt lat="45.82425" lon="0.82164">
        <ele>235.6</ele>
        <time>2022-04-03T11:31:41Z</time>
      </trkpt>
      <trkpt lat="45.82427" lon="0.82163">
        <ele>236</ele>
        <time>2022-04-03T11:31:42Z</time>
      </trkpt>
      <trkpt lat="45.82429" lon="0.82162">
        <ele>236.2</ele>
        <time>2022-04-03T11:31:43Z</time>
      </trkpt>
      <trkpt lat="45.82431" lon="0.82161">
        <ele>236.2</ele>
        <time>2022-04-03T11:31:44Z</time>
      </trkpt>
      <trkpt lat="45.82433" lon="0.8216">
        <ele>236.4</ele>
        <time>2022-04-03T11:31:45Z</time>
      </trkpt>
      <trkpt lat="45.82435" lon="0.82159">
        <ele>236.4</ele>
        <time>2022-04-03T11:31:46Z</time>
      </trkpt>
      <trkpt lat="45.82438" lon="0.82158">
        <ele>236.6</ele>
        <time>2022-04-03T11:31:47Z</time>
      </trkpt>
      <trkpt lat="45.8244" lon="0.82157">
        <ele>236.8</ele>
        <time>2022-04-03T11:31:48Z</time>
      </trkpt>
      <trkpt lat="45.82442" lon="0.82155">
        <ele>237.2</ele>
        <time>2022-04-03T11:31:49Z</time>
      </trkpt>
      <trkpt lat="45.82444" lon="0.82154">
        <ele>237.6</ele>
        <time>2022-04-03T11:31:50Z</time>
      </trkpt>
      <trkpt lat="45.82446" lon="0.82153">
        <ele>237.6</ele>
        <time>2022-04-03T11:31:51Z</time>
      </trkpt>
      <trkpt lat="45.82448" lon="0.82152">
        <ele>237.8</ele>
        <time>2022-04-03T11:31:52Z</time>
      </trkpt>
      <trkpt lat="45.8245" lon="0.82151">
        <ele>237.8</ele>
        <time>2022-04-03T11:31:53Z</time>
      </trkpt>
      <trkpt lat="45.82453" lon="0.8215">
        <ele>238</ele>
        <time>2022-04-03T11:31:54Z</time>
      </trkpt>
      <trkpt lat="45.82455" lon="0.82149">
        <ele>238.4</ele>
        <time>2022-04-03T11:31:55Z</time>
      </trkpt>
      <trkpt lat="45.82457" lon="0.82148">
        <ele>238.4</ele>
        <time>2022-04-03T11:31:56Z</time>
      </trkpt>
      <trkpt lat="45.82459" lon="0.82147">
        <ele>238.8</ele>
        <time>2022-04-03T11:31:57Z</time>
      </trkpt>
      <trkpt lat="45.82461" lon="0.82146">
        <ele>238.8</ele>
        <time>2022-04-03T11:31:58Z</time>
      </trkpt>
      <trkpt lat="45.82464" lon="0.82146">
        <ele>239.2</ele>
        <time>2022-04-03T11:31:59Z</time>
      </trkpt>
      <trkpt lat="45.82466" lon="0.82145">
        <ele>239.2</ele>
        <time>2022-04-03T11:32:00Z</time>
      </trkpt>
      <trkpt lat="45.82468" lon="0.82145">
        <ele>239.4</ele>
        <time>2022-04-03T11:32:01Z</time>
      </trkpt>
      <trkpt lat="45.8247" lon="0.82145">
        <ele>239.6</ele>
        <time>2022-04-03T11:32:02Z</time>
      </trkpt>
      <trkpt lat="45.82472" lon="0.82145">
        <ele>239.6</ele>
        <time>2022-04-03T11:32:03Z</time>
      </trkpt>
      <trkpt lat="45.82475" lon="0.82145">
        <ele>239.8</ele>
        <time>2022-04-03T11:32:04Z</time>
      </trkpt>
      <trkpt lat="45.82477" lon="0.82145">
        <ele>239.8</ele>
        <time>2022-04-03T11:32:05Z</time>
      </trkpt>
      <trkpt lat="45.82479" lon="0.82146">
        <ele>240</ele>
        <time>2022-04-03T11:32:06Z</time>
      </trkpt>
      <trkpt lat="45.82482" lon="0.82146">
        <ele>240.2</ele>
        <time>2022-04-03T11:32:07Z</time>
      </trkpt>
      <trkpt lat="45.82484" lon="0.82146">
        <ele>240.6</ele>
        <time>2022-04-03T11:32:08Z</time>
      </trkpt>
      <trkpt lat="45.82486" lon="0.82145">
        <ele>240.8</ele>
        <time>2022-04-03T11:32:09Z</time>
      </trkpt>
      <trkpt lat="45.82488" lon="0.82143">
        <ele>240.8</ele>
        <time>2022-04-03T11:32:10Z</time>
      </trkpt>
      <trkpt lat="45.8249" lon="0.82142">
        <ele>241</ele>
        <time>2022-04-03T11:32:11Z</time>
      </trkpt>
      <trkpt lat="45.82491" lon="0.82139">
        <ele>241</ele>
        <time>2022-04-03T11:32:12Z</time>
      </trkpt>
      <trkpt lat="45.82492" lon="0.82136">
        <ele>241.4</ele>
        <time>2022-04-03T11:32:13Z</time>
      </trkpt>
      <trkpt lat="45.82494" lon="0.82132">
        <ele>241.6</ele>
        <time>2022-04-03T11:32:14Z</time>
      </trkpt>
      <trkpt lat="45.82495" lon="0.82129">
        <ele>241.6</ele>
        <time>2022-04-03T11:32:15Z</time>
      </trkpt>
      <trkpt lat="45.82495" lon="0.82126">
        <ele>241.8</ele>
        <time>2022-04-03T11:32:16Z</time>
      </trkpt>
      <trkpt lat="45.82496" lon="0.82123">
        <ele>241.8</ele>
        <time>2022-04-03T11:32:17Z</time>
      </trkpt>
      <trkpt lat="45.82497" lon="0.82119">
        <ele>242</ele>
        <time>2022-04-03T11:32:18Z</time>
      </trkpt>
      <trkpt lat="45.82498" lon="0.82116">
        <ele>242</ele>
        <time>2022-04-03T11:32:19Z</time>
      </trkpt>
      <trkpt lat="45.82499" lon="0.82114">
        <ele>242.2</ele>
        <time>2022-04-03T11:32:20Z</time>
      </trkpt>
      <trkpt lat="45.825" lon="0.82111">
        <ele>242.2</ele>
        <time>2022-04-03T11:32:21Z</time>
      </trkpt>
      <trkpt lat="45.82501" lon="0.82108">
        <ele>242.2</ele>
        <time>2022-04-03T11:32:22Z</time>
      </trkpt>
      <trkpt lat="45.82502" lon="0.82105">
        <ele>242.2</ele>
        <time>2022-04-03T11:32:23Z</time>
      </trkpt>
      <trkpt lat="45.82503" lon="0.82102">
        <ele>242.2</ele>
        <time>2022-04-03T11:32:24Z</time>
      </trkpt>
      <trkpt lat="45.82505" lon="0.821">
        <ele>242.6</ele>
        <time>2022-04-03T11:32:25Z</time>
      </trkpt>
      <trkpt lat="45.82507" lon="0.82097">
        <ele>242.6</ele>
        <time>2022-04-03T11:32:26Z</time>
      </trkpt>
      <trkpt lat="45.82509" lon="0.82095">
        <ele>242.6</ele>
        <time>2022-04-03T11:32:27Z</time>
      </trkpt>
      <trkpt lat="45.8251" lon="0.82092">
        <ele>242.8</ele>
        <time>2022-04-03T11:32:28Z</time>
      </trkpt>
      <trkpt lat="45.82512" lon="0.82089">
        <ele>242.6</ele>
        <time>2022-04-03T11:32:29Z</time>
      </trkpt>
      <trkpt lat="45.82513" lon="0.82086">
        <ele>242.8</ele>
        <time>2022-04-03T11:32:30Z</time>
      </trkpt>
      <trkpt lat="45.82514" lon="0.82084">
        <ele>242.8</ele>
        <time>2022-04-03T11:32:31Z</time>
      </trkpt>
      <trkpt lat="45.82515" lon="0.82081">
        <ele>243</ele>
        <time>2022-04-03T11:32:32Z</time>
      </trkpt>
      <trkpt lat="45.82516" lon="0.82078">
        <ele>243.2</ele>
        <time>2022-04-03T11:32:33Z</time>
      </trkpt>
      <trkpt lat="45.82517" lon="0.82075">
        <ele>243.4</ele>
        <time>2022-04-03T11:32:34Z</time>
      </trkpt>
      <trkpt lat="45.82518" lon="0.82072">
        <ele>243.6</ele>
        <time>2022-04-03T11:32:35Z</time>
      </trkpt>
      <trkpt lat="45.82519" lon="0.8207">
        <ele>243.8</ele>
        <time>2022-04-03T11:32:36Z</time>
      </trkpt>
      <trkpt lat="45.82521" lon="0.82067">
        <ele>244</ele>
        <time>2022-04-03T11:32:37Z</time>
      </trkpt>
      <trkpt lat="45.82522" lon="0.82064">
        <ele>243.8</ele>
        <time>2022-04-03T11:32:38Z</time>
      </trkpt>
      <trkpt lat="45.82523" lon="0.82061">
        <ele>244</ele>
        <time>2022-04-03T11:32:39Z</time>
      </trkpt>
      <trkpt lat="45.82525" lon="0.82058">
        <ele>244</ele>
        <time>2022-04-03T11:32:40Z</time>
      </trkpt>
      <trkpt lat="45.82526" lon="0.82056">
        <ele>244.2</ele>
        <time>2022-04-03T11:32:41Z</time>
      </trkpt>
      <trkpt lat="45.82528" lon="0.82053">
        <ele>244.2</ele>
        <time>2022-04-03T11:32:42Z</time>
      </trkpt>
      <trkpt lat="45.82529" lon="0.8205">
        <ele>244.4</ele>
        <time>2022-04-03T11:32:43Z</time>
      </trkpt>
      <trkpt lat="45.8253" lon="0.82048">
        <ele>244.6</ele>
        <time>2022-04-03T11:32:44Z</time>
      </trkpt>
      <trkpt lat="45.82531" lon="0.82045">
        <ele>244.6</ele>
        <time>2022-04-03T11:32:45Z</time>
      </trkpt>
      <trkpt lat="45.82532" lon="0.82042">
        <ele>245</ele>
        <time>2022-04-03T11:32:46Z</time>
      </trkpt>
      <trkpt lat="45.82533" lon="0.82039">
        <ele>245.4</ele>
        <time>2022-04-03T11:32:47Z</time>
      </trkpt>
      <trkpt lat="45.82534" lon="0.82036">
        <ele>245.8</ele>
        <time>2022-04-03T11:32:48Z</time>
      </trkpt>
      <trkpt lat="45.82535" lon="0.82033">
        <ele>245.8</ele>
        <time>2022-04-03T11:32:49Z</time>
      </trkpt>
      <trkpt lat="45.82536" lon="0.8203">
        <ele>246</ele>
        <time>2022-04-03T11:32:50Z</time>
      </trkpt>
      <trkpt lat="45.82538" lon="0.82027">
        <ele>246.2</ele>
        <time>2022-04-03T11:32:51Z</time>
      </trkpt>
      <trkpt lat="45.82539" lon="0.82025">
        <ele>246.4</ele>
        <time>2022-04-03T11:32:52Z</time>
      </trkpt>
      <trkpt lat="45.82541" lon="0.82023">
        <ele>246.6</ele>
        <time>2022-04-03T11:32:53Z</time>
      </trkpt>
      <trkpt lat="45.82543" lon="0.82021">
        <ele>246.6</ele>
        <time>2022-04-03T11:32:54Z</time>
      </trkpt>
      <trkpt lat="45.82545" lon="0.8202">
        <ele>246.8</ele>
        <time>2022-04-03T11:32:55Z</time>
      </trkpt>
      <trkpt lat="45.82548" lon="0.82019">
        <ele>247</ele>
        <time>2022-04-03T11:32:56Z</time>
      </trkpt>
      <trkpt lat="45.8255" lon="0.82019">
        <ele>247</ele>
        <time>2022-04-03T11:32:57Z</time>
      </trkpt>
      <trkpt lat="45.82553" lon="0.82019">
        <ele>247.2</ele>
        <time>2022-04-03T11:32:58Z</time>
      </trkpt>
      <trkpt lat="45.82556" lon="0.82018">
        <ele>247.2</ele>
        <time>2022-04-03T11:32:59Z</time>
      </trkpt>
      <trkpt lat="45.82558" lon="0.82017">
        <ele>247.2</ele>
        <time>2022-04-03T11:33:00Z</time>
      </trkpt>
      <trkpt lat="45.82561" lon="0.82016">
        <ele>247.2</ele>
        <time>2022-04-03T11:33:01Z</time>
      </trkpt>
      <trkpt lat="45.82563" lon="0.82015">
        <ele>247.2</ele>
        <time>2022-04-03T11:33:02Z</time>
      </trkpt>
      <trkpt lat="45.82566" lon="0.82014">
        <ele>247.4</ele>
        <time>2022-04-03T11:33:03Z</time>
      </trkpt>
      <trkpt lat="45.82568" lon="0.82013">
        <ele>247.4</ele>
        <time>2022-04-03T11:33:04Z</time>
      </trkpt>
      <trkpt lat="45.82571" lon="0.82012">
        <ele>247.6</ele>
        <time>2022-04-03T11:33:05Z</time>
      </trkpt>
      <trkpt lat="45.82574" lon="0.82011">
        <ele>247.6</ele>
        <time>2022-04-03T11:33:06Z</time>
      </trkpt>
      <trkpt lat="45.82577" lon="0.8201">
        <ele>247.6</ele>
        <time>2022-04-03T11:33:07Z</time>
      </trkpt>
      <trkpt lat="45.8258" lon="0.82009">
        <ele>247.6</ele>
        <time>2022-04-03T11:33:08Z</time>
      </trkpt>
      <trkpt lat="45.82584" lon="0.82008">
        <ele>247.8</ele>
        <time>2022-04-03T11:33:09Z</time>
      </trkpt>
      <trkpt lat="45.82587" lon="0.82008">
        <ele>247.8</ele>
        <time>2022-04-03T11:33:10Z</time>
      </trkpt>
      <trkpt lat="45.8259" lon="0.82006">
        <ele>247.8</ele>
        <time>2022-04-03T11:33:11Z</time>
      </trkpt>
      <trkpt lat="45.82594" lon="0.82005">
        <ele>247.8</ele>
        <time>2022-04-03T11:33:12Z</time>
      </trkpt>
      <trkpt lat="45.82597" lon="0.82004">
        <ele>247.8</ele>
        <time>2022-04-03T11:33:13Z</time>
      </trkpt>
      <trkpt lat="45.826" lon="0.82003">
        <ele>247.8</ele>
        <time>2022-04-03T11:33:14Z</time>
      </trkpt>
      <trkpt lat="45.82603" lon="0.82001">
        <ele>247.8</ele>
        <time>2022-04-03T11:33:15Z</time>
      </trkpt>
      <trkpt lat="45.82607" lon="0.81999">
        <ele>248</ele>
        <time>2022-04-03T11:33:16Z</time>
      </trkpt>
      <trkpt lat="45.82611" lon="0.81998">
        <ele>248</ele>
        <time>2022-04-03T11:33:17Z</time>
      </trkpt>
      <trkpt lat="45.82615" lon="0.81996">
        <ele>247.8</ele>
        <time>2022-04-03T11:33:18Z</time>
      </trkpt>
      <trkpt lat="45.8262" lon="0.81994">
        <ele>247.8</ele>
        <time>2022-04-03T11:33:19Z</time>
      </trkpt>
      <trkpt lat="45.82624" lon="0.81992">
        <ele>247.8</ele>
        <time>2022-04-03T11:33:20Z</time>
      </trkpt>
      <trkpt lat="45.82629" lon="0.81991">
        <ele>247.8</ele>
        <time>2022-04-03T11:33:21Z</time>
      </trkpt>
      <trkpt lat="45.82633" lon="0.8199">
        <ele>247.8</ele>
        <time>2022-04-03T11:33:22Z</time>
      </trkpt>
      <trkpt lat="45.82637" lon="0.81988">
        <ele>247.6</ele>
        <time>2022-04-03T11:33:23Z</time>
      </trkpt>
      <trkpt lat="45.82641" lon="0.81988">
        <ele>247.6</ele>
        <time>2022-04-03T11:33:24Z</time>
      </trkpt>
      <trkpt lat="45.82646" lon="0.81987">
        <ele>247.4</ele>
        <time>2022-04-03T11:33:25Z</time>
      </trkpt>
      <trkpt lat="45.8265" lon="0.81986">
        <ele>247.6</ele>
        <time>2022-04-03T11:33:26Z</time>
      </trkpt>
      <trkpt lat="45.82655" lon="0.81984">
        <ele>247.6</ele>
        <time>2022-04-03T11:33:27Z</time>
      </trkpt>
      <trkpt lat="45.82661" lon="0.81983">
        <ele>247.2</ele>
        <time>2022-04-03T11:33:28Z</time>
      </trkpt>
      <trkpt lat="45.82666" lon="0.81982">
        <ele>247</ele>
        <time>2022-04-03T11:33:29Z</time>
      </trkpt>
      <trkpt lat="45.82672" lon="0.81981">
        <ele>246.8</ele>
        <time>2022-04-03T11:33:30Z</time>
      </trkpt>
      <trkpt lat="45.82678" lon="0.8198">
        <ele>246.6</ele>
        <time>2022-04-03T11:33:31Z</time>
      </trkpt>
      <trkpt lat="45.82684" lon="0.81978">
        <ele>246.8</ele>
        <time>2022-04-03T11:33:32Z</time>
      </trkpt>
      <trkpt lat="45.82689" lon="0.81978">
        <ele>246.6</ele>
        <time>2022-04-03T11:33:33Z</time>
      </trkpt>
      <trkpt lat="45.82695" lon="0.81975">
        <ele>246.4</ele>
        <time>2022-04-03T11:33:34Z</time>
      </trkpt>
      <trkpt lat="45.827" lon="0.81972">
        <ele>246.4</ele>
        <time>2022-04-03T11:33:35Z</time>
      </trkpt>
      <trkpt lat="45.82706" lon="0.81969">
        <ele>246.4</ele>
        <time>2022-04-03T11:33:36Z</time>
      </trkpt>
      <trkpt lat="45.82711" lon="0.81965">
        <ele>246</ele>
        <time>2022-04-03T11:33:37Z</time>
      </trkpt>
      <trkpt lat="45.82717" lon="0.81962">
        <ele>245.6</ele>
        <time>2022-04-03T11:33:38Z</time>
      </trkpt>
      <trkpt lat="45.82722" lon="0.81957">
        <ele>245.6</ele>
        <time>2022-04-03T11:33:39Z</time>
      </trkpt>
      <trkpt lat="45.82727" lon="0.81951">
        <ele>245</ele>
        <time>2022-04-03T11:33:40Z</time>
      </trkpt>
      <trkpt lat="45.82732" lon="0.81945">
        <ele>244.6</ele>
        <time>2022-04-03T11:33:41Z</time>
      </trkpt>
      <trkpt lat="45.82737" lon="0.8194">
        <ele>244.4</ele>
        <time>2022-04-03T11:33:42Z</time>
      </trkpt>
      <trkpt lat="45.82743" lon="0.81934">
        <ele>244.2</ele>
        <time>2022-04-03T11:33:43Z</time>
      </trkpt>
      <trkpt lat="45.82749" lon="0.81929">
        <ele>243.8</ele>
        <time>2022-04-03T11:33:44Z</time>
      </trkpt>
      <trkpt lat="45.82754" lon="0.81924">
        <ele>243.6</ele>
        <time>2022-04-03T11:33:45Z</time>
      </trkpt>
      <trkpt lat="45.8276" lon="0.81919">
        <ele>243</ele>
        <time>2022-04-03T11:33:46Z</time>
      </trkpt>
      <trkpt lat="45.82766" lon="0.81914">
        <ele>242.8</ele>
        <time>2022-04-03T11:33:47Z</time>
      </trkpt>
      <trkpt lat="45.82771" lon="0.8191">
        <ele>242.4</ele>
        <time>2022-04-03T11:33:48Z</time>
      </trkpt>
      <trkpt lat="45.82777" lon="0.81905">
        <ele>242.2</ele>
        <time>2022-04-03T11:33:49Z</time>
      </trkpt>
      <trkpt lat="45.82783" lon="0.81901">
        <ele>241.6</ele>
        <time>2022-04-03T11:33:50Z</time>
      </trkpt>
      <trkpt lat="45.82788" lon="0.81897">
        <ele>241.4</ele>
        <time>2022-04-03T11:33:51Z</time>
      </trkpt>
      <trkpt lat="45.82794" lon="0.81894">
        <ele>241.2</ele>
        <time>2022-04-03T11:33:52Z</time>
      </trkpt>
      <trkpt lat="45.828" lon="0.8189">
        <ele>240.8</ele>
        <time>2022-04-03T11:33:53Z</time>
      </trkpt>
      <trkpt lat="45.82805" lon="0.81886">
        <ele>240.8</ele>
        <time>2022-04-03T11:33:54Z</time>
      </trkpt>
      <trkpt lat="45.82811" lon="0.81883">
        <ele>240.4</ele>
        <time>2022-04-03T11:33:55Z</time>
      </trkpt>
      <trkpt lat="45.82816" lon="0.81879">
        <ele>240.2</ele>
        <time>2022-04-03T11:33:56Z</time>
      </trkpt>
      <trkpt lat="45.82821" lon="0.81876">
        <ele>239.8</ele>
        <time>2022-04-03T11:33:57Z</time>
      </trkpt>
      <trkpt lat="45.82827" lon="0.81873">
        <ele>239.8</ele>
        <time>2022-04-03T11:33:58Z</time>
      </trkpt>
      <trkpt lat="45.82832" lon="0.8187">
        <ele>239.6</ele>
        <time>2022-04-03T11:33:59Z</time>
      </trkpt>
      <trkpt lat="45.82837" lon="0.81867">
        <ele>239.6</ele>
        <time>2022-04-03T11:34:00Z</time>
      </trkpt>
      <trkpt lat="45.82842" lon="0.81864">
        <ele>239.6</ele>
        <time>2022-04-03T11:34:01Z</time>
      </trkpt>
      <trkpt lat="45.82846" lon="0.81861">
        <ele>239.4</ele>
        <time>2022-04-03T11:34:02Z</time>
      </trkpt>
      <trkpt lat="45.82851" lon="0.81858">
        <ele>239.6</ele>
        <time>2022-04-03T11:34:03Z</time>
      </trkpt>
      <trkpt lat="45.82855" lon="0.81854">
        <ele>239.4</ele>
        <time>2022-04-03T11:34:04Z</time>
      </trkpt>
      <trkpt lat="45.82859" lon="0.8185">
        <ele>239.4</ele>
        <time>2022-04-03T11:34:05Z</time>
      </trkpt>
      <trkpt lat="45.82863" lon="0.81844">
        <ele>239.2</ele>
        <time>2022-04-03T11:34:06Z</time>
      </trkpt>
      <trkpt lat="45.82866" lon="0.81839">
        <ele>239.4</ele>
        <time>2022-04-03T11:34:07Z</time>
      </trkpt>
      <trkpt lat="45.8287" lon="0.81833">
        <ele>239.2</ele>
        <time>2022-04-03T11:34:08Z</time>
      </trkpt>
      <trkpt lat="45.82874" lon="0.81827">
        <ele>239.2</ele>
        <time>2022-04-03T11:34:09Z</time>
      </trkpt>
      <trkpt lat="45.82878" lon="0.81822">
        <ele>239.2</ele>
        <time>2022-04-03T11:34:10Z</time>
      </trkpt>
      <trkpt lat="45.82882" lon="0.81816">
        <ele>239.2</ele>
        <time>2022-04-03T11:34:11Z</time>
      </trkpt>
      <trkpt lat="45.82885" lon="0.81811">
        <ele>239</ele>
        <time>2022-04-03T11:34:12Z</time>
      </trkpt>
      <trkpt lat="45.82889" lon="0.81806">
        <ele>239.2</ele>
        <time>2022-04-03T11:34:13Z</time>
      </trkpt>
      <trkpt lat="45.82893" lon="0.818">
        <ele>239</ele>
        <time>2022-04-03T11:34:14Z</time>
      </trkpt>
      <trkpt lat="45.82897" lon="0.81795">
        <ele>238.6</ele>
        <time>2022-04-03T11:34:15Z</time>
      </trkpt>
      <trkpt lat="45.82901" lon="0.81789">
        <ele>238.6</ele>
        <time>2022-04-03T11:34:16Z</time>
      </trkpt>
      <trkpt lat="45.82906" lon="0.81783">
        <ele>238.6</ele>
        <time>2022-04-03T11:34:17Z</time>
      </trkpt>
      <trkpt lat="45.8291" lon="0.81776">
        <ele>238.4</ele>
        <time>2022-04-03T11:34:18Z</time>
      </trkpt>
      <trkpt lat="45.82914" lon="0.8177">
        <ele>238.2</ele>
        <time>2022-04-03T11:34:19Z</time>
      </trkpt>
      <trkpt lat="45.82919" lon="0.81763">
        <ele>237.8</ele>
        <time>2022-04-03T11:34:20Z</time>
      </trkpt>
      <trkpt lat="45.82923" lon="0.81756">
        <ele>237.8</ele>
        <time>2022-04-03T11:34:21Z</time>
      </trkpt>
      <trkpt lat="45.82928" lon="0.81749">
        <ele>237.6</ele>
        <time>2022-04-03T11:34:22Z</time>
      </trkpt>
      <trkpt lat="45.82932" lon="0.81742">
        <ele>237.6</ele>
        <time>2022-04-03T11:34:23Z</time>
      </trkpt>
      <trkpt lat="45.82936" lon="0.81736">
        <ele>237.4</ele>
        <time>2022-04-03T11:34:24Z</time>
      </trkpt>
      <trkpt lat="45.82941" lon="0.8173">
        <ele>237.2</ele>
        <time>2022-04-03T11:34:25Z</time>
      </trkpt>
      <trkpt lat="45.82945" lon="0.81724">
        <ele>237</ele>
        <time>2022-04-03T11:34:26Z</time>
      </trkpt>
      <trkpt lat="45.8295" lon="0.81719">
        <ele>236.6</ele>
        <time>2022-04-03T11:34:27Z</time>
      </trkpt>
      <trkpt lat="45.82954" lon="0.81713">
        <ele>236</ele>
        <time>2022-04-03T11:34:28Z</time>
      </trkpt>
      <trkpt lat="45.82958" lon="0.81707">
        <ele>235.6</ele>
        <time>2022-04-03T11:34:29Z</time>
      </trkpt>
      <trkpt lat="45.82962" lon="0.81701">
        <ele>235.6</ele>
        <time>2022-04-03T11:34:30Z</time>
      </trkpt>
      <trkpt lat="45.82966" lon="0.81695">
        <ele>235.4</ele>
        <time>2022-04-03T11:34:31Z</time>
      </trkpt>
      <trkpt lat="45.8297" lon="0.81688">
        <ele>235.2</ele>
        <time>2022-04-03T11:34:32Z</time>
      </trkpt>
      <trkpt lat="45.82973" lon="0.8168">
        <ele>235</ele>
        <time>2022-04-03T11:34:33Z</time>
      </trkpt>
      <trkpt lat="45.82977" lon="0.81673">
        <ele>235</ele>
        <time>2022-04-03T11:34:34Z</time>
      </trkpt>
      <trkpt lat="45.82981" lon="0.81666">
        <ele>235</ele>
        <time>2022-04-03T11:34:35Z</time>
      </trkpt>
      <trkpt lat="45.82984" lon="0.81658">
        <ele>235</ele>
        <time>2022-04-03T11:34:36Z</time>
      </trkpt>
      <trkpt lat="45.82988" lon="0.8165">
        <ele>235</ele>
        <time>2022-04-03T11:34:37Z</time>
      </trkpt>
      <trkpt lat="45.82992" lon="0.81643">
        <ele>234.8</ele>
        <time>2022-04-03T11:34:38Z</time>
      </trkpt>
      <trkpt lat="45.82996" lon="0.81635">
        <ele>234.8</ele>
        <time>2022-04-03T11:34:39Z</time>
      </trkpt>
      <trkpt lat="45.83" lon="0.81627">
        <ele>234.6</ele>
        <time>2022-04-03T11:34:40Z</time>
      </trkpt>
      <trkpt lat="45.83004" lon="0.81618">
        <ele>234.6</ele>
        <time>2022-04-03T11:34:41Z</time>
      </trkpt>
      <trkpt lat="45.83008" lon="0.8161">
        <ele>234.6</ele>
        <time>2022-04-03T11:34:42Z</time>
      </trkpt>
      <trkpt lat="45.83012" lon="0.81601">
        <ele>234.6</ele>
        <time>2022-04-03T11:34:43Z</time>
      </trkpt>
      <trkpt lat="45.83016" lon="0.81593">
        <ele>234.6</ele>
        <time>2022-04-03T11:34:44Z</time>
      </trkpt>
      <trkpt lat="45.8302" lon="0.81584">
        <ele>234.2</ele>
        <time>2022-04-03T11:34:45Z</time>
      </trkpt>
      <trkpt lat="45.83025" lon="0.81576">
        <ele>234</ele>
        <time>2022-04-03T11:34:46Z</time>
      </trkpt>
      <trkpt lat="45.83029" lon="0.81568">
        <ele>233.6</ele>
        <time>2022-04-03T11:34:47Z</time>
      </trkpt>
      <trkpt lat="45.83033" lon="0.8156">
        <ele>233.6</ele>
        <time>2022-04-03T11:34:48Z</time>
      </trkpt>
      <trkpt lat="45.83038" lon="0.81552">
        <ele>233.2</ele>
        <time>2022-04-03T11:34:49Z</time>
      </trkpt>
      <trkpt lat="45.83042" lon="0.81545">
        <ele>232.8</ele>
        <time>2022-04-03T11:34:50Z</time>
      </trkpt>
      <trkpt lat="45.83046" lon="0.81537">
        <ele>232.6</ele>
        <time>2022-04-03T11:34:51Z</time>
      </trkpt>
      <trkpt lat="45.8305" lon="0.8153">
        <ele>232</ele>
        <time>2022-04-03T11:34:52Z</time>
      </trkpt>
      <trkpt lat="45.83054" lon="0.81522">
        <ele>231.4</ele>
        <time>2022-04-03T11:34:53Z</time>
      </trkpt>
      <trkpt lat="45.83058" lon="0.81515">
        <ele>231</ele>
        <time>2022-04-03T11:34:54Z</time>
      </trkpt>
      <trkpt lat="45.83062" lon="0.81507">
        <ele>230.8</ele>
        <time>2022-04-03T11:34:55Z</time>
      </trkpt>
      <trkpt lat="45.83066" lon="0.815">
        <ele>230.8</ele>
        <time>2022-04-03T11:34:56Z</time>
      </trkpt>
      <trkpt lat="45.8307" lon="0.81493">
        <ele>230.6</ele>
        <time>2022-04-03T11:34:57Z</time>
      </trkpt>
      <trkpt lat="45.83074" lon="0.81486">
        <ele>230.4</ele>
        <time>2022-04-03T11:34:58Z</time>
      </trkpt>
      <trkpt lat="45.83077" lon="0.81479">
        <ele>230.4</ele>
        <time>2022-04-03T11:34:59Z</time>
      </trkpt>
      <trkpt lat="45.83081" lon="0.81472">
        <ele>230.2</ele>
        <time>2022-04-03T11:35:00Z</time>
      </trkpt>
      <trkpt lat="45.83084" lon="0.81465">
        <ele>230</ele>
        <time>2022-04-03T11:35:01Z</time>
      </trkpt>
      <trkpt lat="45.83088" lon="0.81458">
        <ele>230.2</ele>
        <time>2022-04-03T11:35:02Z</time>
      </trkpt>
      <trkpt lat="45.83092" lon="0.81452">
        <ele>230</ele>
        <time>2022-04-03T11:35:03Z</time>
      </trkpt>
      <trkpt lat="45.83096" lon="0.81445">
        <ele>230</ele>
        <time>2022-04-03T11:35:04Z</time>
      </trkpt>
      <trkpt lat="45.83099" lon="0.81438">
        <ele>230</ele>
        <time>2022-04-03T11:35:05Z</time>
      </trkpt>
      <trkpt lat="45.83103" lon="0.81431">
        <ele>230.2</ele>
        <time>2022-04-03T11:35:06Z</time>
      </trkpt>
      <trkpt lat="45.83106" lon="0.81425">
        <ele>230.2</ele>
        <time>2022-04-03T11:35:07Z</time>
      </trkpt>
      <trkpt lat="45.8311" lon="0.81418">
        <ele>230</ele>
        <time>2022-04-03T11:35:08Z</time>
      </trkpt>
      <trkpt lat="45.83114" lon="0.81411">
        <ele>230</ele>
        <time>2022-04-03T11:35:09Z</time>
      </trkpt>
      <trkpt lat="45.83117" lon="0.81405">
        <ele>230</ele>
        <time>2022-04-03T11:35:10Z</time>
      </trkpt>
      <trkpt lat="45.83121" lon="0.81398">
        <ele>230.2</ele>
        <time>2022-04-03T11:35:11Z</time>
      </trkpt>
      <trkpt lat="45.83125" lon="0.81392">
        <ele>230.2</ele>
        <time>2022-04-03T11:35:12Z</time>
      </trkpt>
      <trkpt lat="45.83129" lon="0.81385">
        <ele>230.4</ele>
        <time>2022-04-03T11:35:13Z</time>
      </trkpt>
      <trkpt lat="45.83133" lon="0.81378">
        <ele>230.4</ele>
        <time>2022-04-03T11:35:14Z</time>
      </trkpt>
      <trkpt lat="45.83136" lon="0.81371">
        <ele>230.4</ele>
        <time>2022-04-03T11:35:15Z</time>
      </trkpt>
      <trkpt lat="45.8314" lon="0.81365">
        <ele>230.6</ele>
        <time>2022-04-03T11:35:16Z</time>
      </trkpt>
      <trkpt lat="45.83144" lon="0.81358">
        <ele>230.8</ele>
        <time>2022-04-03T11:35:17Z</time>
      </trkpt>
      <trkpt lat="45.83148" lon="0.8135">
        <ele>230.8</ele>
        <time>2022-04-03T11:35:18Z</time>
      </trkpt>
      <trkpt lat="45.83151" lon="0.81343">
        <ele>230.8</ele>
        <time>2022-04-03T11:35:19Z</time>
      </trkpt>
      <trkpt lat="45.83155" lon="0.81336">
        <ele>230.8</ele>
        <time>2022-04-03T11:35:20Z</time>
      </trkpt>
      <trkpt lat="45.83159" lon="0.81329">
        <ele>230.8</ele>
        <time>2022-04-03T11:35:21Z</time>
      </trkpt>
      <trkpt lat="45.83163" lon="0.81321">
        <ele>230.6</ele>
        <time>2022-04-03T11:35:22Z</time>
      </trkpt>
      <trkpt lat="45.83166" lon="0.81313">
        <ele>230.8</ele>
        <time>2022-04-03T11:35:23Z</time>
      </trkpt>
      <trkpt lat="45.8317" lon="0.81305">
        <ele>230.8</ele>
        <time>2022-04-03T11:35:24Z</time>
      </trkpt>
      <trkpt lat="45.83174" lon="0.81298">
        <ele>230.8</ele>
        <time>2022-04-03T11:35:25Z</time>
      </trkpt>
      <trkpt lat="45.83178" lon="0.8129">
        <ele>230.8</ele>
        <time>2022-04-03T11:35:26Z</time>
      </trkpt>
      <trkpt lat="45.83181" lon="0.81282">
        <ele>230.6</ele>
        <time>2022-04-03T11:35:27Z</time>
      </trkpt>
      <trkpt lat="45.83185" lon="0.81274">
        <ele>230.6</ele>
        <time>2022-04-03T11:35:28Z</time>
      </trkpt>
      <trkpt lat="45.83188" lon="0.81267">
        <ele>230.6</ele>
        <time>2022-04-03T11:35:29Z</time>
      </trkpt>
      <trkpt lat="45.83192" lon="0.8126">
        <ele>230.6</ele>
        <time>2022-04-03T11:35:30Z</time>
      </trkpt>
      <trkpt lat="45.83196" lon="0.81252">
        <ele>230.6</ele>
        <time>2022-04-03T11:35:31Z</time>
      </trkpt>
      <trkpt lat="45.83199" lon="0.81244">
        <ele>230.2</ele>
        <time>2022-04-03T11:35:32Z</time>
      </trkpt>
      <trkpt lat="45.83203" lon="0.81236">
        <ele>229.8</ele>
        <time>2022-04-03T11:35:33Z</time>
      </trkpt>
      <trkpt lat="45.83207" lon="0.81229">
        <ele>229.8</ele>
        <time>2022-04-03T11:35:34Z</time>
      </trkpt>
      <trkpt lat="45.83211" lon="0.8122">
        <ele>229.8</ele>
        <time>2022-04-03T11:35:35Z</time>
      </trkpt>
      <trkpt lat="45.83215" lon="0.81212">
        <ele>229.6</ele>
        <time>2022-04-03T11:35:36Z</time>
      </trkpt>
      <trkpt lat="45.8322" lon="0.81204">
        <ele>229.8</ele>
        <time>2022-04-03T11:35:37Z</time>
      </trkpt>
      <trkpt lat="45.83225" lon="0.81196">
        <ele>229.4</ele>
        <time>2022-04-03T11:35:38Z</time>
      </trkpt>
      <trkpt lat="45.83231" lon="0.81188">
        <ele>229.4</ele>
        <time>2022-04-03T11:35:39Z</time>
      </trkpt>
      <trkpt lat="45.83236" lon="0.8118">
        <ele>229.6</ele>
        <time>2022-04-03T11:35:40Z</time>
      </trkpt>
      <trkpt lat="45.83242" lon="0.81171">
        <ele>229.4</ele>
        <time>2022-04-03T11:35:41Z</time>
      </trkpt>
      <trkpt lat="45.83248" lon="0.81163">
        <ele>229.2</ele>
        <time>2022-04-03T11:35:42Z</time>
      </trkpt>
      <trkpt lat="45.83254" lon="0.81154">
        <ele>229</ele>
        <time>2022-04-03T11:35:43Z</time>
      </trkpt>
      <trkpt lat="45.83261" lon="0.81146">
        <ele>228.6</ele>
        <time>2022-04-03T11:35:44Z</time>
      </trkpt>
      <trkpt lat="45.83268" lon="0.81138">
        <ele>228.2</ele>
        <time>2022-04-03T11:35:45Z</time>
      </trkpt>
      <trkpt lat="45.83276" lon="0.8113">
        <ele>227.6</ele>
        <time>2022-04-03T11:35:46Z</time>
      </trkpt>
      <trkpt lat="45.83284" lon="0.81122">
        <ele>226.4</ele>
        <time>2022-04-03T11:35:47Z</time>
      </trkpt>
      <trkpt lat="45.83292" lon="0.81114">
        <ele>225.8</ele>
        <time>2022-04-03T11:35:48Z</time>
      </trkpt>
      <trkpt lat="45.83301" lon="0.81108">
        <ele>225.2</ele>
        <time>2022-04-03T11:35:49Z</time>
      </trkpt>
      <trkpt lat="45.83311" lon="0.81103">
        <ele>224.4</ele>
        <time>2022-04-03T11:35:50Z</time>
      </trkpt>
      <trkpt lat="45.83321" lon="0.81098">
        <ele>223.8</ele>
        <time>2022-04-03T11:35:51Z</time>
      </trkpt>
      <trkpt lat="45.83331" lon="0.81094">
        <ele>223</ele>
        <time>2022-04-03T11:35:52Z</time>
      </trkpt>
      <trkpt lat="45.83341" lon="0.81092">
        <ele>223</ele>
        <time>2022-04-03T11:35:53Z</time>
      </trkpt>
      <trkpt lat="45.83352" lon="0.81089">
        <ele>222.8</ele>
        <time>2022-04-03T11:35:54Z</time>
      </trkpt>
      <trkpt lat="45.83362" lon="0.81086">
        <ele>221.8</ele>
        <time>2022-04-03T11:35:55Z</time>
      </trkpt>
      <trkpt lat="45.83373" lon="0.8108">
        <ele>221.2</ele>
        <time>2022-04-03T11:35:56Z</time>
      </trkpt>
      <trkpt lat="45.83381" lon="0.81071">
        <ele>220.2</ele>
        <time>2022-04-03T11:35:57Z</time>
      </trkpt>
      <trkpt lat="45.83389" lon="0.8106">
        <ele>219</ele>
        <time>2022-04-03T11:35:58Z</time>
      </trkpt>
      <trkpt lat="45.83396" lon="0.81049">
        <ele>217.6</ele>
        <time>2022-04-03T11:35:59Z</time>
      </trkpt>
      <trkpt lat="45.83401" lon="0.81038">
        <ele>216.6</ele>
        <time>2022-04-03T11:36:00Z</time>
      </trkpt>
      <trkpt lat="45.83407" lon="0.81027">
        <ele>216</ele>
        <time>2022-04-03T11:36:01Z</time>
      </trkpt>
      <trkpt lat="45.83412" lon="0.81017">
        <ele>215</ele>
        <time>2022-04-03T11:36:02Z</time>
      </trkpt>
      <trkpt lat="45.83416" lon="0.81008">
        <ele>214.6</ele>
        <time>2022-04-03T11:36:03Z</time>
      </trkpt>
      <trkpt lat="45.8342" lon="0.80999">
        <ele>214.4</ele>
        <time>2022-04-03T11:36:04Z</time>
      </trkpt>
      <trkpt lat="45.83424" lon="0.80991">
        <ele>214.2</ele>
        <time>2022-04-03T11:36:05Z</time>
      </trkpt>
      <trkpt lat="45.83427" lon="0.80983">
        <ele>214.4</ele>
        <time>2022-04-03T11:36:06Z</time>
      </trkpt>
      <trkpt lat="45.83431" lon="0.80975">
        <ele>214.2</ele>
        <time>2022-04-03T11:36:07Z</time>
      </trkpt>
      <trkpt lat="45.83434" lon="0.80967">
        <ele>214.2</ele>
        <time>2022-04-03T11:36:08Z</time>
      </trkpt>
      <trkpt lat="45.83437" lon="0.8096">
        <ele>214.4</ele>
        <time>2022-04-03T11:36:09Z</time>
      </trkpt>
      <trkpt lat="45.8344" lon="0.80953">
        <ele>214.4</ele>
        <time>2022-04-03T11:36:10Z</time>
      </trkpt>
      <trkpt lat="45.83443" lon="0.80947">
        <ele>214.2</ele>
        <time>2022-04-03T11:36:11Z</time>
      </trkpt>
      <trkpt lat="45.83447" lon="0.80941">
        <ele>214.2</ele>
        <time>2022-04-03T11:36:12Z</time>
      </trkpt>
      <trkpt lat="45.8345" lon="0.80935">
        <ele>214.6</ele>
        <time>2022-04-03T11:36:13Z</time>
      </trkpt>
      <trkpt lat="45.83453" lon="0.80929">
        <ele>215</ele>
        <time>2022-04-03T11:36:14Z</time>
      </trkpt>
      <trkpt lat="45.83456" lon="0.80924">
        <ele>215.4</ele>
        <time>2022-04-03T11:36:15Z</time>
      </trkpt>
      <trkpt lat="45.8346" lon="0.80919">
        <ele>215.8</ele>
        <time>2022-04-03T11:36:16Z</time>
      </trkpt>
      <trkpt lat="45.83462" lon="0.80915">
        <ele>216.4</ele>
        <time>2022-04-03T11:36:17Z</time>
      </trkpt>
      <trkpt lat="45.83465" lon="0.80911">
        <ele>216.8</ele>
        <time>2022-04-03T11:36:18Z</time>
      </trkpt>
      <trkpt lat="45.83467" lon="0.80907">
        <ele>217.2</ele>
        <time>2022-04-03T11:36:19Z</time>
      </trkpt>
      <trkpt lat="45.8347" lon="0.80903">
        <ele>217.6</ele>
        <time>2022-04-03T11:36:20Z</time>
      </trkpt>
      <trkpt lat="45.83472" lon="0.80899">
        <ele>217.8</ele>
        <time>2022-04-03T11:36:21Z</time>
      </trkpt>
      <trkpt lat="45.83474" lon="0.80896">
        <ele>218</ele>
        <time>2022-04-03T11:36:22Z</time>
      </trkpt>
      <trkpt lat="45.83476" lon="0.80892">
        <ele>218.4</ele>
        <time>2022-04-03T11:36:23Z</time>
      </trkpt>
      <trkpt lat="45.83478" lon="0.80888">
        <ele>218.8</ele>
        <time>2022-04-03T11:36:24Z</time>
      </trkpt>
      <trkpt lat="45.83481" lon="0.80885">
        <ele>219.4</ele>
        <time>2022-04-03T11:36:25Z</time>
      </trkpt>
      <trkpt lat="45.83483" lon="0.80881">
        <ele>219.6</ele>
        <time>2022-04-03T11:36:26Z</time>
      </trkpt>
      <trkpt lat="45.83485" lon="0.80877">
        <ele>220</ele>
        <time>2022-04-03T11:36:27Z</time>
      </trkpt>
      <trkpt lat="45.83487" lon="0.80874">
        <ele>220.2</ele>
        <time>2022-04-03T11:36:28Z</time>
      </trkpt>
      <trkpt lat="45.8349" lon="0.80871">
        <ele>220.4</ele>
        <time>2022-04-03T11:36:29Z</time>
      </trkpt>
      <trkpt lat="45.83492" lon="0.80867">
        <ele>220.6</ele>
        <time>2022-04-03T11:36:30Z</time>
      </trkpt>
      <trkpt lat="45.83493" lon="0.80864">
        <ele>220.6</ele>
        <time>2022-04-03T11:36:31Z</time>
      </trkpt>
      <trkpt lat="45.83495" lon="0.80861">
        <ele>221</ele>
        <time>2022-04-03T11:36:32Z</time>
      </trkpt>
      <trkpt lat="45.83497" lon="0.80857">
        <ele>221</ele>
        <time>2022-04-03T11:36:33Z</time>
      </trkpt>
      <trkpt lat="45.83499" lon="0.80854">
        <ele>221</ele>
        <time>2022-04-03T11:36:34Z</time>
      </trkpt>
      <trkpt lat="45.83501" lon="0.80851">
        <ele>221.2</ele>
        <time>2022-04-03T11:36:35Z</time>
      </trkpt>
      <trkpt lat="45.83503" lon="0.80848">
        <ele>221.4</ele>
        <time>2022-04-03T11:36:36Z</time>
      </trkpt>
      <trkpt lat="45.83505" lon="0.80844">
        <ele>221.4</ele>
        <time>2022-04-03T11:36:37Z</time>
      </trkpt>
      <trkpt lat="45.83507" lon="0.80841">
        <ele>221.6</ele>
        <time>2022-04-03T11:36:38Z</time>
      </trkpt>
      <trkpt lat="45.83509" lon="0.80838">
        <ele>221.8</ele>
        <time>2022-04-03T11:36:39Z</time>
      </trkpt>
      <trkpt lat="45.83511" lon="0.80835">
        <ele>222</ele>
        <time>2022-04-03T11:36:40Z</time>
      </trkpt>
      <trkpt lat="45.83513" lon="0.80832">
        <ele>222.2</ele>
        <time>2022-04-03T11:36:41Z</time>
      </trkpt>
      <trkpt lat="45.83515" lon="0.80829">
        <ele>222.4</ele>
        <time>2022-04-03T11:36:42Z</time>
      </trkpt>
      <trkpt lat="45.83517" lon="0.80825">
        <ele>222.6</ele>
        <time>2022-04-03T11:36:43Z</time>
      </trkpt>
      <trkpt lat="45.83519" lon="0.80822">
        <ele>222.8</ele>
        <time>2022-04-03T11:36:44Z</time>
      </trkpt>
      <trkpt lat="45.83521" lon="0.80819">
        <ele>223</ele>
        <time>2022-04-03T11:36:45Z</time>
      </trkpt>
      <trkpt lat="45.83523" lon="0.80816">
        <ele>223.2</ele>
        <time>2022-04-03T11:36:46Z</time>
      </trkpt>
      <trkpt lat="45.83525" lon="0.80813">
        <ele>223.2</ele>
        <time>2022-04-03T11:36:47Z</time>
      </trkpt>
      <trkpt lat="45.83527" lon="0.80809">
        <ele>223.4</ele>
        <time>2022-04-03T11:36:48Z</time>
      </trkpt>
      <trkpt lat="45.83529" lon="0.80806">
        <ele>223.8</ele>
        <time>2022-04-03T11:36:49Z</time>
      </trkpt>
      <trkpt lat="45.83531" lon="0.80803">
        <ele>223.8</ele>
        <time>2022-04-03T11:36:50Z</time>
      </trkpt>
      <trkpt lat="45.83533" lon="0.80799">
        <ele>224</ele>
        <time>2022-04-03T11:36:51Z</time>
      </trkpt>
      <trkpt lat="45.83535" lon="0.80796">
        <ele>224.2</ele>
        <time>2022-04-03T11:36:52Z</time>
      </trkpt>
      <trkpt lat="45.83537" lon="0.80793">
        <ele>224.4</ele>
        <time>2022-04-03T11:36:53Z</time>
      </trkpt>
      <trkpt lat="45.83539" lon="0.8079">
        <ele>224.4</ele>
        <time>2022-04-03T11:36:54Z</time>
      </trkpt>
      <trkpt lat="45.83541" lon="0.80787">
        <ele>224.4</ele>
        <time>2022-04-03T11:36:55Z</time>
      </trkpt>
      <trkpt lat="45.83543" lon="0.80784">
        <ele>224.6</ele>
        <time>2022-04-03T11:36:56Z</time>
      </trkpt>
      <trkpt lat="45.83545" lon="0.80781">
        <ele>224.8</ele>
        <time>2022-04-03T11:36:57Z</time>
      </trkpt>
      <trkpt lat="45.83547" lon="0.80778">
        <ele>224.8</ele>
        <time>2022-04-03T11:36:58Z</time>
      </trkpt>
      <trkpt lat="45.83548" lon="0.80775">
        <ele>225.2</ele>
        <time>2022-04-03T11:36:59Z</time>
      </trkpt>
      <trkpt lat="45.8355" lon="0.80772">
        <ele>225</ele>
        <time>2022-04-03T11:37:00Z</time>
      </trkpt>
      <trkpt lat="45.83552" lon="0.80769">
        <ele>225.4</ele>
        <time>2022-04-03T11:37:01Z</time>
      </trkpt>
      <trkpt lat="45.83554" lon="0.80766">
        <ele>225.6</ele>
        <time>2022-04-03T11:37:02Z</time>
      </trkpt>
      <trkpt lat="45.83556" lon="0.80763">
        <ele>225.6</ele>
        <time>2022-04-03T11:37:03Z</time>
      </trkpt>
      <trkpt lat="45.83558" lon="0.8076">
        <ele>225.8</ele>
        <time>2022-04-03T11:37:04Z</time>
      </trkpt>
      <trkpt lat="45.8356" lon="0.80757">
        <ele>226</ele>
        <time>2022-04-03T11:37:05Z</time>
      </trkpt>
      <trkpt lat="45.83562" lon="0.80754">
        <ele>226.4</ele>
        <time>2022-04-03T11:37:06Z</time>
      </trkpt>
      <trkpt lat="45.83564" lon="0.8075">
        <ele>226.4</ele>
        <time>2022-04-03T11:37:07Z</time>
      </trkpt>
      <trkpt lat="45.83566" lon="0.80747">
        <ele>226.6</ele>
        <time>2022-04-03T11:37:08Z</time>
      </trkpt>
      <trkpt lat="45.83568" lon="0.80744">
        <ele>226.6</ele>
        <time>2022-04-03T11:37:09Z</time>
      </trkpt>
      <trkpt lat="45.8357" lon="0.80741">
        <ele>226.6</ele>
        <time>2022-04-03T11:37:10Z</time>
      </trkpt>
      <trkpt lat="45.83572" lon="0.80738">
        <ele>226.8</ele>
        <time>2022-04-03T11:37:11Z</time>
      </trkpt>
      <trkpt lat="45.83574" lon="0.80735">
        <ele>226.8</ele>
        <time>2022-04-03T11:37:12Z</time>
      </trkpt>
      <trkpt lat="45.83576" lon="0.80731">
        <ele>227.2</ele>
        <time>2022-04-03T11:37:13Z</time>
      </trkpt>
      <trkpt lat="45.83577" lon="0.80728">
        <ele>227.4</ele>
        <time>2022-04-03T11:37:14Z</time>
      </trkpt>
      <trkpt lat="45.83579" lon="0.80725">
        <ele>227.6</ele>
        <time>2022-04-03T11:37:15Z</time>
      </trkpt>
      <trkpt lat="45.83581" lon="0.80722">
        <ele>227.8</ele>
        <time>2022-04-03T11:37:16Z</time>
      </trkpt>
      <trkpt lat="45.83583" lon="0.80719">
        <ele>227.8</ele>
        <time>2022-04-03T11:37:17Z</time>
      </trkpt>
      <trkpt lat="45.83585" lon="0.80716">
        <ele>227.8</ele>
        <time>2022-04-03T11:37:18Z</time>
      </trkpt>
      <trkpt lat="45.83587" lon="0.80713">
        <ele>228</ele>
        <time>2022-04-03T11:37:19Z</time>
      </trkpt>
      <trkpt lat="45.83589" lon="0.8071">
        <ele>228</ele>
        <time>2022-04-03T11:37:20Z</time>
      </trkpt>
      <trkpt lat="45.83591" lon="0.80707">
        <ele>228.2</ele>
        <time>2022-04-03T11:37:21Z</time>
      </trkpt>
      <trkpt lat="45.83593" lon="0.80704">
        <ele>228.2</ele>
        <time>2022-04-03T11:37:22Z</time>
      </trkpt>
      <trkpt lat="45.83595" lon="0.80701">
        <ele>228.4</ele>
        <time>2022-04-03T11:37:23Z</time>
      </trkpt>
      <trkpt lat="45.83597" lon="0.80698">
        <ele>228.8</ele>
        <time>2022-04-03T11:37:24Z</time>
      </trkpt>
      <trkpt lat="45.83599" lon="0.80695">
        <ele>228.8</ele>
        <time>2022-04-03T11:37:25Z</time>
      </trkpt>
      <trkpt lat="45.83601" lon="0.80692">
        <ele>228.8</ele>
        <time>2022-04-03T11:37:26Z</time>
      </trkpt>
      <trkpt lat="45.83603" lon="0.80689">
        <ele>229</ele>
        <time>2022-04-03T11:37:27Z</time>
      </trkpt>
      <trkpt lat="45.83606" lon="0.80686">
        <ele>229</ele>
        <time>2022-04-03T11:37:28Z</time>
      </trkpt>
      <trkpt lat="45.83608" lon="0.80683">
        <ele>229</ele>
        <time>2022-04-03T11:37:29Z</time>
      </trkpt>
      <trkpt lat="45.8361" lon="0.8068">
        <ele>229.2</ele>
        <time>2022-04-03T11:37:30Z</time>
      </trkpt>
      <trkpt lat="45.83612" lon="0.80677">
        <ele>229.2</ele>
        <time>2022-04-03T11:37:31Z</time>
      </trkpt>
      <trkpt lat="45.83615" lon="0.80675">
        <ele>229.6</ele>
        <time>2022-04-03T11:37:32Z</time>
      </trkpt>
      <trkpt lat="45.83617" lon="0.80672">
        <ele>229.8</ele>
        <time>2022-04-03T11:37:33Z</time>
      </trkpt>
      <trkpt lat="45.83619" lon="0.80669">
        <ele>230</ele>
        <time>2022-04-03T11:37:34Z</time>
      </trkpt>
      <trkpt lat="45.83622" lon="0.80666">
        <ele>230.2</ele>
        <time>2022-04-03T11:37:35Z</time>
      </trkpt>
      <trkpt lat="45.83624" lon="0.80663">
        <ele>230.4</ele>
        <time>2022-04-03T11:37:36Z</time>
      </trkpt>
      <trkpt lat="45.83627" lon="0.80661">
        <ele>230.4</ele>
        <time>2022-04-03T11:37:37Z</time>
      </trkpt>
      <trkpt lat="45.83629" lon="0.80658">
        <ele>230.8</ele>
        <time>2022-04-03T11:37:38Z</time>
      </trkpt>
      <trkpt lat="45.83632" lon="0.80655">
        <ele>230.8</ele>
        <time>2022-04-03T11:37:39Z</time>
      </trkpt>
      <trkpt lat="45.83634" lon="0.80652">
        <ele>230.8</ele>
        <time>2022-04-03T11:37:40Z</time>
      </trkpt>
      <trkpt lat="45.83637" lon="0.80649">
        <ele>231</ele>
        <time>2022-04-03T11:37:41Z</time>
      </trkpt>
      <trkpt lat="45.83639" lon="0.80647">
        <ele>231</ele>
        <time>2022-04-03T11:37:42Z</time>
      </trkpt>
      <trkpt lat="45.83641" lon="0.80644">
        <ele>231.2</ele>
        <time>2022-04-03T11:37:43Z</time>
      </trkpt>
      <trkpt lat="45.83644" lon="0.80641">
        <ele>231.2</ele>
        <time>2022-04-03T11:37:44Z</time>
      </trkpt>
      <trkpt lat="45.83646" lon="0.80638">
        <ele>231</ele>
        <time>2022-04-03T11:37:45Z</time>
      </trkpt>
      <trkpt lat="45.83649" lon="0.80635">
        <ele>231.2</ele>
        <time>2022-04-03T11:37:46Z</time>
      </trkpt>
      <trkpt lat="45.83651" lon="0.80632">
        <ele>231.2</ele>
        <time>2022-04-03T11:37:47Z</time>
      </trkpt>
      <trkpt lat="45.83654" lon="0.80629">
        <ele>231.2</ele>
        <time>2022-04-03T11:37:48Z</time>
      </trkpt>
      <trkpt lat="45.83656" lon="0.80626">
        <ele>231.2</ele>
        <time>2022-04-03T11:37:49Z</time>
      </trkpt>
      <trkpt lat="45.83659" lon="0.80622">
        <ele>231.2</ele>
        <time>2022-04-03T11:37:50Z</time>
      </trkpt>
      <trkpt lat="45.83661" lon="0.80619">
        <ele>231.2</ele>
        <time>2022-04-03T11:37:51Z</time>
      </trkpt>
      <trkpt lat="45.83664" lon="0.80616">
        <ele>231.2</ele>
        <time>2022-04-03T11:37:52Z</time>
      </trkpt>
      <trkpt lat="45.83667" lon="0.80613">
        <ele>231.4</ele>
        <time>2022-04-03T11:37:53Z</time>
      </trkpt>
      <trkpt lat="45.83669" lon="0.80609">
        <ele>231.4</ele>
        <time>2022-04-03T11:37:54Z</time>
      </trkpt>
      <trkpt lat="45.83672" lon="0.80606">
        <ele>231.6</ele>
        <time>2022-04-03T11:37:55Z</time>
      </trkpt>
      <trkpt lat="45.83675" lon="0.80603">
        <ele>231.6</ele>
        <time>2022-04-03T11:37:56Z</time>
      </trkpt>
      <trkpt lat="45.83677" lon="0.80599">
        <ele>231.4</ele>
        <time>2022-04-03T11:37:57Z</time>
      </trkpt>
      <trkpt lat="45.8368" lon="0.80595">
        <ele>231.6</ele>
        <time>2022-04-03T11:37:58Z</time>
      </trkpt>
      <trkpt lat="45.83683" lon="0.80591">
        <ele>231.6</ele>
        <time>2022-04-03T11:37:59Z</time>
      </trkpt>
      <trkpt lat="45.83686" lon="0.80587">
        <ele>231.6</ele>
        <time>2022-04-03T11:38:00Z</time>
      </trkpt>
      <trkpt lat="45.83689" lon="0.80583">
        <ele>231.4</ele>
        <time>2022-04-03T11:38:01Z</time>
      </trkpt>
      <trkpt lat="45.83693" lon="0.80579">
        <ele>231.4</ele>
        <time>2022-04-03T11:38:02Z</time>
      </trkpt>
      <trkpt lat="45.83696" lon="0.80575">
        <ele>231.4</ele>
        <time>2022-04-03T11:38:03Z</time>
      </trkpt>
      <trkpt lat="45.837" lon="0.80571">
        <ele>231.6</ele>
        <time>2022-04-03T11:38:04Z</time>
      </trkpt>
      <trkpt lat="45.83704" lon="0.80566">
        <ele>231.2</ele>
        <time>2022-04-03T11:38:05Z</time>
      </trkpt>
      <trkpt lat="45.83708" lon="0.80561">
        <ele>231.2</ele>
        <time>2022-04-03T11:38:06Z</time>
      </trkpt>
      <trkpt lat="45.83712" lon="0.80555">
        <ele>231.2</ele>
        <time>2022-04-03T11:38:07Z</time>
      </trkpt>
      <trkpt lat="45.83716" lon="0.8055">
        <ele>231.2</ele>
        <time>2022-04-03T11:38:08Z</time>
      </trkpt>
      <trkpt lat="45.8372" lon="0.80543">
        <ele>231.2</ele>
        <time>2022-04-03T11:38:09Z</time>
      </trkpt>
      <trkpt lat="45.83724" lon="0.80536">
        <ele>231</ele>
        <time>2022-04-03T11:38:10Z</time>
      </trkpt>
      <trkpt lat="45.83728" lon="0.80528">
        <ele>230.8</ele>
        <time>2022-04-03T11:38:11Z</time>
      </trkpt>
      <trkpt lat="45.83732" lon="0.8052">
        <ele>230.4</ele>
        <time>2022-04-03T11:38:12Z</time>
      </trkpt>
      <trkpt lat="45.83736" lon="0.80511">
        <ele>229.8</ele>
        <time>2022-04-03T11:38:13Z</time>
      </trkpt>
      <trkpt lat="45.8374" lon="0.80502">
        <ele>229.6</ele>
        <time>2022-04-03T11:38:14Z</time>
      </trkpt>
      <trkpt lat="45.83744" lon="0.80492">
        <ele>229.2</ele>
        <time>2022-04-03T11:38:15Z</time>
      </trkpt>
      <trkpt lat="45.83748" lon="0.80482">
        <ele>229</ele>
        <time>2022-04-03T11:38:16Z</time>
      </trkpt>
      <trkpt lat="45.83752" lon="0.80472">
        <ele>228.6</ele>
        <time>2022-04-03T11:38:17Z</time>
      </trkpt>
      <trkpt lat="45.83756" lon="0.80461">
        <ele>228.4</ele>
        <time>2022-04-03T11:38:18Z</time>
      </trkpt>
      <trkpt lat="45.8376" lon="0.8045">
        <ele>228</ele>
        <time>2022-04-03T11:38:19Z</time>
      </trkpt>
      <trkpt lat="45.83764" lon="0.80439">
        <ele>227.6</ele>
        <time>2022-04-03T11:38:20Z</time>
      </trkpt>
      <trkpt lat="45.83768" lon="0.80428">
        <ele>227.2</ele>
        <time>2022-04-03T11:38:21Z</time>
      </trkpt>
      <trkpt lat="45.83772" lon="0.80416">
        <ele>226.6</ele>
        <time>2022-04-03T11:38:22Z</time>
      </trkpt>
      <trkpt lat="45.83776" lon="0.80405">
        <ele>225.8</ele>
        <time>2022-04-03T11:38:23Z</time>
      </trkpt>
      <trkpt lat="45.83781" lon="0.80394">
        <ele>224.8</ele>
        <time>2022-04-03T11:38:24Z</time>
      </trkpt>
      <trkpt lat="45.83785" lon="0.80382">
        <ele>224.8</ele>
        <time>2022-04-03T11:38:25Z</time>
      </trkpt>
      <trkpt lat="45.83789" lon="0.80371">
        <ele>224</ele>
        <time>2022-04-03T11:38:26Z</time>
      </trkpt>
      <trkpt lat="45.83793" lon="0.80361">
        <ele>223.2</ele>
        <time>2022-04-03T11:38:27Z</time>
      </trkpt>
      <trkpt lat="45.83796" lon="0.80351">
        <ele>222.8</ele>
        <time>2022-04-03T11:38:28Z</time>
      </trkpt>
      <trkpt lat="45.838" lon="0.80342">
        <ele>221.8</ele>
        <time>2022-04-03T11:38:29Z</time>
      </trkpt>
      <trkpt lat="45.83803" lon="0.80334">
        <ele>221.4</ele>
        <time>2022-04-03T11:38:30Z</time>
      </trkpt>
      <trkpt lat="45.83807" lon="0.80327">
        <ele>221.2</ele>
        <time>2022-04-03T11:38:31Z</time>
      </trkpt>
      <trkpt lat="45.83809" lon="0.8032">
        <ele>221</ele>
        <time>2022-04-03T11:38:32Z</time>
      </trkpt>
      <trkpt lat="45.83812" lon="0.80314">
        <ele>221</ele>
        <time>2022-04-03T11:38:33Z</time>
      </trkpt>
      <trkpt lat="45.83814" lon="0.80308">
        <ele>221</ele>
        <time>2022-04-03T11:38:34Z</time>
      </trkpt>
      <trkpt lat="45.83817" lon="0.80303">
        <ele>221.2</ele>
        <time>2022-04-03T11:38:35Z</time>
      </trkpt>
      <trkpt lat="45.83819" lon="0.80298">
        <ele>221</ele>
        <time>2022-04-03T11:38:36Z</time>
      </trkpt>
      <trkpt lat="45.83821" lon="0.80294">
        <ele>221</ele>
        <time>2022-04-03T11:38:37Z</time>
      </trkpt>
      <trkpt lat="45.83823" lon="0.8029">
        <ele>221</ele>
        <time>2022-04-03T11:38:38Z</time>
      </trkpt>
      <trkpt lat="45.83825" lon="0.80286">
        <ele>221</ele>
        <time>2022-04-03T11:38:39Z</time>
      </trkpt>
      <trkpt lat="45.83827" lon="0.80283">
        <ele>221.6</ele>
        <time>2022-04-03T11:38:40Z</time>
      </trkpt>
      <trkpt lat="45.83829" lon="0.8028">
        <ele>222</ele>
        <time>2022-04-03T11:38:41Z</time>
      </trkpt>
      <trkpt lat="45.83831" lon="0.80277">
        <ele>222.2</ele>
        <time>2022-04-03T11:38:42Z</time>
      </trkpt>
      <trkpt lat="45.83832" lon="0.80274">
        <ele>222.6</ele>
        <time>2022-04-03T11:38:43Z</time>
      </trkpt>
      <trkpt lat="45.83834" lon="0.80271">
        <ele>222.6</ele>
        <time>2022-04-03T11:38:44Z</time>
      </trkpt>
      <trkpt lat="45.83836" lon="0.80269">
        <ele>223.2</ele>
        <time>2022-04-03T11:38:45Z</time>
      </trkpt>
      <trkpt lat="45.83837" lon="0.80266">
        <ele>223.6</ele>
        <time>2022-04-03T11:38:46Z</time>
      </trkpt>
      <trkpt lat="45.83839" lon="0.80264">
        <ele>224</ele>
        <time>2022-04-03T11:38:47Z</time>
      </trkpt>
      <trkpt lat="45.83841" lon="0.80261">
        <ele>224.4</ele>
        <time>2022-04-03T11:38:48Z</time>
      </trkpt>
      <trkpt lat="45.83842" lon="0.80259">
        <ele>225</ele>
        <time>2022-04-03T11:38:49Z</time>
      </trkpt>
      <trkpt lat="45.83844" lon="0.80256">
        <ele>225.2</ele>
        <time>2022-04-03T11:38:50Z</time>
      </trkpt>
      <trkpt lat="45.83846" lon="0.80254">
        <ele>225.6</ele>
        <time>2022-04-03T11:38:51Z</time>
      </trkpt>
      <trkpt lat="45.83847" lon="0.80251">
        <ele>225.8</ele>
        <time>2022-04-03T11:38:52Z</time>
      </trkpt>
      <trkpt lat="45.83849" lon="0.80248">
        <ele>226</ele>
        <time>2022-04-03T11:38:53Z</time>
      </trkpt>
      <trkpt lat="45.83851" lon="0.80246">
        <ele>226.6</ele>
        <time>2022-04-03T11:38:54Z</time>
      </trkpt>
      <trkpt lat="45.83852" lon="0.80243">
        <ele>226.8</ele>
        <time>2022-04-03T11:38:55Z</time>
      </trkpt>
      <trkpt lat="45.83854" lon="0.8024">
        <ele>227</ele>
        <time>2022-04-03T11:38:56Z</time>
      </trkpt>
      <trkpt lat="45.83855" lon="0.80237">
        <ele>227.2</ele>
        <time>2022-04-03T11:38:57Z</time>
      </trkpt>
      <trkpt lat="45.83857" lon="0.80234">
        <ele>227.4</ele>
        <time>2022-04-03T11:38:58Z</time>
      </trkpt>
      <trkpt lat="45.83859" lon="0.80232">
        <ele>227.4</ele>
        <time>2022-04-03T11:38:59Z</time>
      </trkpt>
      <trkpt lat="45.8386" lon="0.80229">
        <ele>227.6</ele>
        <time>2022-04-03T11:39:00Z</time>
      </trkpt>
      <trkpt lat="45.83862" lon="0.80226">
        <ele>227.6</ele>
        <time>2022-04-03T11:39:01Z</time>
      </trkpt>
      <trkpt lat="45.83863" lon="0.80222">
        <ele>228</ele>
        <time>2022-04-03T11:39:02Z</time>
      </trkpt>
      <trkpt lat="45.83865" lon="0.80219">
        <ele>228</ele>
        <time>2022-04-03T11:39:03Z</time>
      </trkpt>
      <trkpt lat="45.83866" lon="0.80216">
        <ele>228.2</ele>
        <time>2022-04-03T11:39:04Z</time>
      </trkpt>
      <trkpt lat="45.83868" lon="0.80213">
        <ele>228.4</ele>
        <time>2022-04-03T11:39:05Z</time>
      </trkpt>
      <trkpt lat="45.8387" lon="0.8021">
        <ele>228.4</ele>
        <time>2022-04-03T11:39:06Z</time>
      </trkpt>
      <trkpt lat="45.83871" lon="0.80207">
        <ele>228.4</ele>
        <time>2022-04-03T11:39:07Z</time>
      </trkpt>
      <trkpt lat="45.83873" lon="0.80204">
        <ele>228.4</ele>
        <time>2022-04-03T11:39:08Z</time>
      </trkpt>
      <trkpt lat="45.83875" lon="0.80201">
        <ele>228.8</ele>
        <time>2022-04-03T11:39:09Z</time>
      </trkpt>
      <trkpt lat="45.83876" lon="0.80198">
        <ele>228.6</ele>
        <time>2022-04-03T11:39:10Z</time>
      </trkpt>
      <trkpt lat="45.83877" lon="0.80195">
        <ele>229</ele>
        <time>2022-04-03T11:39:11Z</time>
      </trkpt>
      <trkpt lat="45.83879" lon="0.80192">
        <ele>229</ele>
        <time>2022-04-03T11:39:12Z</time>
      </trkpt>
      <trkpt lat="45.8388" lon="0.80189">
        <ele>229.2</ele>
        <time>2022-04-03T11:39:13Z</time>
      </trkpt>
      <trkpt lat="45.83882" lon="0.80186">
        <ele>229.2</ele>
        <time>2022-04-03T11:39:14Z</time>
      </trkpt>
      <trkpt lat="45.83883" lon="0.80182">
        <ele>229.4</ele>
        <time>2022-04-03T11:39:15Z</time>
      </trkpt>
      <trkpt lat="45.83884" lon="0.80179">
        <ele>229.4</ele>
        <time>2022-04-03T11:39:16Z</time>
      </trkpt>
      <trkpt lat="45.83885" lon="0.80176">
        <ele>229.6</ele>
        <time>2022-04-03T11:39:17Z</time>
      </trkpt>
      <trkpt lat="45.83886" lon="0.80173">
        <ele>229.8</ele>
        <time>2022-04-03T11:39:18Z</time>
      </trkpt>
      <trkpt lat="45.83887" lon="0.8017">
        <ele>229.8</ele>
        <time>2022-04-03T11:39:19Z</time>
      </trkpt>
      <trkpt lat="45.83889" lon="0.80166">
        <ele>229.8</ele>
        <time>2022-04-03T11:39:20Z</time>
      </trkpt>
      <trkpt lat="45.8389" lon="0.80163">
        <ele>230</ele>
        <time>2022-04-03T11:39:21Z</time>
      </trkpt>
      <trkpt lat="45.83891" lon="0.8016">
        <ele>230</ele>
        <time>2022-04-03T11:39:22Z</time>
      </trkpt>
      <trkpt lat="45.83892" lon="0.80157">
        <ele>230.2</ele>
        <time>2022-04-03T11:39:23Z</time>
      </trkpt>
      <trkpt lat="45.83893" lon="0.80154">
        <ele>230.4</ele>
        <time>2022-04-03T11:39:24Z</time>
      </trkpt>
      <trkpt lat="45.83894" lon="0.8015">
        <ele>230.4</ele>
        <time>2022-04-03T11:39:25Z</time>
      </trkpt>
      <trkpt lat="45.83895" lon="0.80147">
        <ele>230.8</ele>
        <time>2022-04-03T11:39:26Z</time>
      </trkpt>
      <trkpt lat="45.83896" lon="0.80144">
        <ele>230.8</ele>
        <time>2022-04-03T11:39:27Z</time>
      </trkpt>
      <trkpt lat="45.83896" lon="0.8014">
        <ele>231</ele>
        <time>2022-04-03T11:39:28Z</time>
      </trkpt>
      <trkpt lat="45.83897" lon="0.80137">
        <ele>231</ele>
        <time>2022-04-03T11:39:29Z</time>
      </trkpt>
      <trkpt lat="45.83898" lon="0.80133">
        <ele>231</ele>
        <time>2022-04-03T11:39:30Z</time>
      </trkpt>
      <trkpt lat="45.83898" lon="0.8013">
        <ele>231.2</ele>
        <time>2022-04-03T11:39:31Z</time>
      </trkpt>
      <trkpt lat="45.83899" lon="0.80126">
        <ele>231.4</ele>
        <time>2022-04-03T11:39:32Z</time>
      </trkpt>
      <trkpt lat="45.83899" lon="0.80122">
        <ele>231.6</ele>
        <time>2022-04-03T11:39:33Z</time>
      </trkpt>
      <trkpt lat="45.839" lon="0.80119">
        <ele>231.8</ele>
        <time>2022-04-03T11:39:34Z</time>
      </trkpt>
      <trkpt lat="45.83901" lon="0.80115">
        <ele>232</ele>
        <time>2022-04-03T11:39:35Z</time>
      </trkpt>
      <trkpt lat="45.83901" lon="0.80111">
        <ele>232.2</ele>
        <time>2022-04-03T11:39:36Z</time>
      </trkpt>
      <trkpt lat="45.83902" lon="0.80107">
        <ele>232.4</ele>
        <time>2022-04-03T11:39:37Z</time>
      </trkpt>
      <trkpt lat="45.83902" lon="0.80104">
        <ele>232.6</ele>
        <time>2022-04-03T11:39:38Z</time>
      </trkpt>
      <trkpt lat="45.83903" lon="0.801">
        <ele>233</ele>
        <time>2022-04-03T11:39:39Z</time>
      </trkpt>
      <trkpt lat="45.83903" lon="0.80096">
        <ele>233</ele>
        <time>2022-04-03T11:39:40Z</time>
      </trkpt>
      <trkpt lat="45.83904" lon="0.80092">
        <ele>233.2</ele>
        <time>2022-04-03T11:39:41Z</time>
      </trkpt>
      <trkpt lat="45.83904" lon="0.80089">
        <ele>233.2</ele>
        <time>2022-04-03T11:39:42Z</time>
      </trkpt>
      <trkpt lat="45.83904" lon="0.80085">
        <ele>233.2</ele>
        <time>2022-04-03T11:39:43Z</time>
      </trkpt>
      <trkpt lat="45.83905" lon="0.80081">
        <ele>233.4</ele>
        <time>2022-04-03T11:39:44Z</time>
      </trkpt>
      <trkpt lat="45.83905" lon="0.80077">
        <ele>233.4</ele>
        <time>2022-04-03T11:39:45Z</time>
      </trkpt>
      <trkpt lat="45.83906" lon="0.80073">
        <ele>233.6</ele>
        <time>2022-04-03T11:39:46Z</time>
      </trkpt>
      <trkpt lat="45.83906" lon="0.80069">
        <ele>233.8</ele>
        <time>2022-04-03T11:39:47Z</time>
      </trkpt>
      <trkpt lat="45.83907" lon="0.80066">
        <ele>234</ele>
        <time>2022-04-03T11:39:48Z</time>
      </trkpt>
      <trkpt lat="45.83907" lon="0.80062">
        <ele>234.2</ele>
        <time>2022-04-03T11:39:49Z</time>
      </trkpt>
      <trkpt lat="45.83908" lon="0.80058">
        <ele>234.4</ele>
        <time>2022-04-03T11:39:50Z</time>
      </trkpt>
      <trkpt lat="45.83909" lon="0.80055">
        <ele>234.4</ele>
        <time>2022-04-03T11:39:51Z</time>
      </trkpt>
      <trkpt lat="45.83909" lon="0.80051">
        <ele>234.4</ele>
        <time>2022-04-03T11:39:52Z</time>
      </trkpt>
      <trkpt lat="45.8391" lon="0.80047">
        <ele>234.8</ele>
        <time>2022-04-03T11:39:53Z</time>
      </trkpt>
      <trkpt lat="45.83911" lon="0.80044">
        <ele>234.8</ele>
        <time>2022-04-03T11:39:54Z</time>
      </trkpt>
      <trkpt lat="45.83911" lon="0.8004">
        <ele>235</ele>
        <time>2022-04-03T11:39:55Z</time>
      </trkpt>
      <trkpt lat="45.83912" lon="0.80036">
        <ele>235</ele>
        <time>2022-04-03T11:39:56Z</time>
      </trkpt>
      <trkpt lat="45.83912" lon="0.80032">
        <ele>235.2</ele>
        <time>2022-04-03T11:39:57Z</time>
      </trkpt>
      <trkpt lat="45.83913" lon="0.80029">
        <ele>235.4</ele>
        <time>2022-04-03T11:39:58Z</time>
      </trkpt>
      <trkpt lat="45.83913" lon="0.80025">
        <ele>235.4</ele>
        <time>2022-04-03T11:39:59Z</time>
      </trkpt>
      <trkpt lat="45.83914" lon="0.80021">
        <ele>235.6</ele>
        <time>2022-04-03T11:40:00Z</time>
      </trkpt>
      <trkpt lat="45.83914" lon="0.80017">
        <ele>235.8</ele>
        <time>2022-04-03T11:40:01Z</time>
      </trkpt>
      <trkpt lat="45.83915" lon="0.80014">
        <ele>236</ele>
        <time>2022-04-03T11:40:02Z</time>
      </trkpt>
      <trkpt lat="45.83916" lon="0.8001">
        <ele>236.2</ele>
        <time>2022-04-03T11:40:03Z</time>
      </trkpt>
      <trkpt lat="45.83916" lon="0.80006">
        <ele>236.4</ele>
        <time>2022-04-03T11:40:04Z</time>
      </trkpt>
      <trkpt lat="45.83917" lon="0.80002">
        <ele>236.4</ele>
        <time>2022-04-03T11:40:05Z</time>
      </trkpt>
      <trkpt lat="45.83918" lon="0.79999">
        <ele>236.6</ele>
        <time>2022-04-03T11:40:06Z</time>
      </trkpt>
      <trkpt lat="45.83918" lon="0.79995">
        <ele>236.8</ele>
        <time>2022-04-03T11:40:07Z</time>
      </trkpt>
      <trkpt lat="45.83919" lon="0.79991">
        <ele>237</ele>
        <time>2022-04-03T11:40:08Z</time>
      </trkpt>
      <trkpt lat="45.8392" lon="0.79988">
        <ele>237.2</ele>
        <time>2022-04-03T11:40:09Z</time>
      </trkpt>
      <trkpt lat="45.83921" lon="0.79984">
        <ele>237.2</ele>
        <time>2022-04-03T11:40:10Z</time>
      </trkpt>
      <trkpt lat="45.83922" lon="0.7998">
        <ele>237.4</ele>
        <time>2022-04-03T11:40:11Z</time>
      </trkpt>
      <trkpt lat="45.83923" lon="0.79977">
        <ele>237.4</ele>
        <time>2022-04-03T11:40:12Z</time>
      </trkpt>
      <trkpt lat="45.83924" lon="0.79973">
        <ele>237.4</ele>
        <time>2022-04-03T11:40:13Z</time>
      </trkpt>
      <trkpt lat="45.83925" lon="0.79969">
        <ele>237.6</ele>
        <time>2022-04-03T11:40:14Z</time>
      </trkpt>
      <trkpt lat="45.83926" lon="0.79966">
        <ele>237.6</ele>
        <time>2022-04-03T11:40:15Z</time>
      </trkpt>
      <trkpt lat="45.83927" lon="0.79962">
        <ele>237.6</ele>
        <time>2022-04-03T11:40:16Z</time>
      </trkpt>
      <trkpt lat="45.83928" lon="0.79959">
        <ele>237.8</ele>
        <time>2022-04-03T11:40:17Z</time>
      </trkpt>
      <trkpt lat="45.83929" lon="0.79956">
        <ele>237.8</ele>
        <time>2022-04-03T11:40:18Z</time>
      </trkpt>
      <trkpt lat="45.83931" lon="0.79952">
        <ele>237.8</ele>
        <time>2022-04-03T11:40:19Z</time>
      </trkpt>
      <trkpt lat="45.83932" lon="0.79949">
        <ele>237.8</ele>
        <time>2022-04-03T11:40:20Z</time>
      </trkpt>
      <trkpt lat="45.83933" lon="0.79946">
        <ele>237.8</ele>
        <time>2022-04-03T11:40:21Z</time>
      </trkpt>
      <trkpt lat="45.83935" lon="0.79942">
        <ele>238</ele>
        <time>2022-04-03T11:40:22Z</time>
      </trkpt>
      <trkpt lat="45.83937" lon="0.79939">
        <ele>238</ele>
        <time>2022-04-03T11:40:23Z</time>
      </trkpt>
      <trkpt lat="45.83939" lon="0.79936">
        <ele>238.2</ele>
        <time>2022-04-03T11:40:24Z</time>
      </trkpt>
      <trkpt lat="45.8394" lon="0.79933">
        <ele>238.2</ele>
        <time>2022-04-03T11:40:25Z</time>
      </trkpt>
      <trkpt lat="45.83942" lon="0.7993">
        <ele>238.2</ele>
        <time>2022-04-03T11:40:26Z</time>
      </trkpt>
      <trkpt lat="45.83944" lon="0.79927">
        <ele>238.4</ele>
        <time>2022-04-03T11:40:27Z</time>
      </trkpt>
      <trkpt lat="45.83946" lon="0.79924">
        <ele>238.4</ele>
        <time>2022-04-03T11:40:28Z</time>
      </trkpt>
      <trkpt lat="45.83948" lon="0.79921">
        <ele>238.2</ele>
        <time>2022-04-03T11:40:29Z</time>
      </trkpt>
      <trkpt lat="45.8395" lon="0.79918">
        <ele>238.2</ele>
        <time>2022-04-03T11:40:30Z</time>
      </trkpt>
      <trkpt lat="45.83951" lon="0.79915">
        <ele>238.4</ele>
        <time>2022-04-03T11:40:31Z</time>
      </trkpt>
      <trkpt lat="45.83953" lon="0.79912">
        <ele>238.6</ele>
        <time>2022-04-03T11:40:32Z</time>
      </trkpt>
      <trkpt lat="45.83955" lon="0.79908">
        <ele>238.6</ele>
        <time>2022-04-03T11:40:33Z</time>
      </trkpt>
      <trkpt lat="45.83956" lon="0.79905">
        <ele>238.8</ele>
        <time>2022-04-03T11:40:34Z</time>
      </trkpt>
      <trkpt lat="45.83958" lon="0.79902">
        <ele>238.8</ele>
        <time>2022-04-03T11:40:35Z</time>
      </trkpt>
      <trkpt lat="45.8396" lon="0.79898">
        <ele>239</ele>
        <time>2022-04-03T11:40:36Z</time>
      </trkpt>
      <trkpt lat="45.83961" lon="0.79895">
        <ele>239</ele>
        <time>2022-04-03T11:40:37Z</time>
      </trkpt>
      <trkpt lat="45.83963" lon="0.79892">
        <ele>239.2</ele>
        <time>2022-04-03T11:40:38Z</time>
      </trkpt>
      <trkpt lat="45.83965" lon="0.79889">
        <ele>239.2</ele>
        <time>2022-04-03T11:40:39Z</time>
      </trkpt>
      <trkpt lat="45.83967" lon="0.79885">
        <ele>239.6</ele>
        <time>2022-04-03T11:40:40Z</time>
      </trkpt>
      <trkpt lat="45.83968" lon="0.79882">
        <ele>239.6</ele>
        <time>2022-04-03T11:40:41Z</time>
      </trkpt>
      <trkpt lat="45.8397" lon="0.79879">
        <ele>239.8</ele>
        <time>2022-04-03T11:40:42Z</time>
      </trkpt>
      <trkpt lat="45.83971" lon="0.79875">
        <ele>239.8</ele>
        <time>2022-04-03T11:40:43Z</time>
      </trkpt>
      <trkpt lat="45.83974" lon="0.79871">
        <ele>240.2</ele>
        <time>2022-04-03T11:40:44Z</time>
      </trkpt>
      <trkpt lat="45.83976" lon="0.79866">
        <ele>240</ele>
        <time>2022-04-03T11:40:45Z</time>
      </trkpt>
      <trkpt lat="45.83978" lon="0.79862">
        <ele>240.2</ele>
        <time>2022-04-03T11:40:46Z</time>
      </trkpt>
      <trkpt lat="45.8398" lon="0.79857">
        <ele>240.2</ele>
        <time>2022-04-03T11:40:47Z</time>
      </trkpt>
      <trkpt lat="45.83982" lon="0.79853">
        <ele>240</ele>
        <time>2022-04-03T11:40:48Z</time>
      </trkpt>
      <trkpt lat="45.83985" lon="0.79848">
        <ele>240.2</ele>
        <time>2022-04-03T11:40:49Z</time>
      </trkpt>
      <trkpt lat="45.83987" lon="0.79843">
        <ele>240.2</ele>
        <time>2022-04-03T11:40:50Z</time>
      </trkpt>
      <trkpt lat="45.8399" lon="0.79838">
        <ele>240</ele>
        <time>2022-04-03T11:40:51Z</time>
      </trkpt>
      <trkpt lat="45.83992" lon="0.79833">
        <ele>240</ele>
        <time>2022-04-03T11:40:52Z</time>
      </trkpt>
      <trkpt lat="45.83995" lon="0.79828">
        <ele>240.2</ele>
        <time>2022-04-03T11:40:53Z</time>
      </trkpt>
      <trkpt lat="45.83998" lon="0.79822">
        <ele>240.2</ele>
        <time>2022-04-03T11:40:54Z</time>
      </trkpt>
      <trkpt lat="45.84" lon="0.79817">
        <ele>240</ele>
        <time>2022-04-03T11:40:55Z</time>
      </trkpt>
      <trkpt lat="45.84003" lon="0.79811">
        <ele>240</ele>
        <time>2022-04-03T11:40:56Z</time>
      </trkpt>
      <trkpt lat="45.84006" lon="0.79805">
        <ele>240</ele>
        <time>2022-04-03T11:40:57Z</time>
      </trkpt>
      <trkpt lat="45.84009" lon="0.79799">
        <ele>240</ele>
        <time>2022-04-03T11:40:58Z</time>
      </trkpt>
      <trkpt lat="45.84012" lon="0.79794">
        <ele>240</ele>
        <time>2022-04-03T11:40:59Z</time>
      </trkpt>
      <trkpt lat="45.84015" lon="0.79788">
        <ele>239.6</ele>
        <time>2022-04-03T11:41:00Z</time>
      </trkpt>
      <trkpt lat="45.84017" lon="0.79782">
        <ele>239.6</ele>
        <time>2022-04-03T11:41:01Z</time>
      </trkpt>
      <trkpt lat="45.8402" lon="0.79776">
        <ele>239.6</ele>
        <time>2022-04-03T11:41:02Z</time>
      </trkpt>
      <trkpt lat="45.84023" lon="0.7977">
        <ele>239.4</ele>
        <time>2022-04-03T11:41:03Z</time>
      </trkpt>
      <trkpt lat="45.84026" lon="0.79764">
        <ele>239.4</ele>
        <time>2022-04-03T11:41:04Z</time>
      </trkpt>
      <trkpt lat="45.84029" lon="0.79758">
        <ele>239.4</ele>
        <time>2022-04-03T11:41:05Z</time>
      </trkpt>
      <trkpt lat="45.84032" lon="0.79752">
        <ele>239.4</ele>
        <time>2022-04-03T11:41:06Z</time>
      </trkpt>
      <trkpt lat="45.84036" lon="0.79746">
        <ele>239.2</ele>
        <time>2022-04-03T11:41:07Z</time>
      </trkpt>
      <trkpt lat="45.84039" lon="0.79741">
        <ele>239.2</ele>
        <time>2022-04-03T11:41:08Z</time>
      </trkpt>
      <trkpt lat="45.84042" lon="0.79735">
        <ele>239.4</ele>
        <time>2022-04-03T11:41:09Z</time>
      </trkpt>
      <trkpt lat="45.84045" lon="0.79729">
        <ele>239.4</ele>
        <time>2022-04-03T11:41:10Z</time>
      </trkpt>
      <trkpt lat="45.84048" lon="0.79723">
        <ele>239.4</ele>
        <time>2022-04-03T11:41:11Z</time>
      </trkpt>
      <trkpt lat="45.84051" lon="0.79718">
        <ele>239.2</ele>
        <time>2022-04-03T11:41:12Z</time>
      </trkpt>
      <trkpt lat="45.84054" lon="0.79712">
        <ele>239.4</ele>
        <time>2022-04-03T11:41:13Z</time>
      </trkpt>
      <trkpt lat="45.84057" lon="0.79706">
        <ele>239.2</ele>
        <time>2022-04-03T11:41:14Z</time>
      </trkpt>
      <trkpt lat="45.8406" lon="0.79701">
        <ele>239.4</ele>
        <time>2022-04-03T11:41:15Z</time>
      </trkpt>
      <trkpt lat="45.84062" lon="0.79695">
        <ele>239.4</ele>
        <time>2022-04-03T11:41:16Z</time>
      </trkpt>
      <trkpt lat="45.84065" lon="0.7969">
        <ele>239.4</ele>
        <time>2022-04-03T11:41:17Z</time>
      </trkpt>
      <trkpt lat="45.84068" lon="0.79684">
        <ele>239.4</ele>
        <time>2022-04-03T11:41:18Z</time>
      </trkpt>
      <trkpt lat="45.84071" lon="0.79678">
        <ele>239.4</ele>
        <time>2022-04-03T11:41:19Z</time>
      </trkpt>
      <trkpt lat="45.84074" lon="0.79673">
        <ele>239.4</ele>
        <time>2022-04-03T11:41:20Z</time>
      </trkpt>
      <trkpt lat="45.84077" lon="0.79667">
        <ele>239.4</ele>
        <time>2022-04-03T11:41:21Z</time>
      </trkpt>
      <trkpt lat="45.8408" lon="0.79661">
        <ele>239.6</ele>
        <time>2022-04-03T11:41:22Z</time>
      </trkpt>
      <trkpt lat="45.84083" lon="0.79656">
        <ele>239.6</ele>
        <time>2022-04-03T11:41:23Z</time>
      </trkpt>
      <trkpt lat="45.84086" lon="0.7965">
        <ele>239.6</ele>
        <time>2022-04-03T11:41:24Z</time>
      </trkpt>
      <trkpt lat="45.84089" lon="0.79645">
        <ele>239.6</ele>
        <time>2022-04-03T11:41:25Z</time>
      </trkpt>
      <trkpt lat="45.84092" lon="0.79639">
        <ele>239.8</ele>
        <time>2022-04-03T11:41:26Z</time>
      </trkpt>
      <trkpt lat="45.84095" lon="0.79634">
        <ele>239.8</ele>
        <time>2022-04-03T11:41:27Z</time>
      </trkpt>
      <trkpt lat="45.84097" lon="0.79629">
        <ele>240</ele>
        <time>2022-04-03T11:41:28Z</time>
      </trkpt>
      <trkpt lat="45.841" lon="0.79623">
        <ele>240.2</ele>
        <time>2022-04-03T11:41:29Z</time>
      </trkpt>
      <trkpt lat="45.84103" lon="0.79618">
        <ele>240.4</ele>
        <time>2022-04-03T11:41:30Z</time>
      </trkpt>
      <trkpt lat="45.84106" lon="0.79613">
        <ele>240.2</ele>
        <time>2022-04-03T11:41:31Z</time>
      </trkpt>
      <trkpt lat="45.84109" lon="0.79608">
        <ele>240.4</ele>
        <time>2022-04-03T11:41:32Z</time>
      </trkpt>
      <trkpt lat="45.84111" lon="0.79603">
        <ele>240.6</ele>
        <time>2022-04-03T11:41:33Z</time>
      </trkpt>
      <trkpt lat="45.84114" lon="0.79598">
        <ele>240.6</ele>
        <time>2022-04-03T11:41:34Z</time>
      </trkpt>
      <trkpt lat="45.84116" lon="0.79593">
        <ele>240.8</ele>
        <time>2022-04-03T11:41:35Z</time>
      </trkpt>
      <trkpt lat="45.84119" lon="0.79588">
        <ele>240.8</ele>
        <time>2022-04-03T11:41:36Z</time>
      </trkpt>
      <trkpt lat="45.84122" lon="0.79583">
        <ele>240.8</ele>
        <time>2022-04-03T11:41:37Z</time>
      </trkpt>
      <trkpt lat="45.84125" lon="0.79579">
        <ele>241.2</ele>
        <time>2022-04-03T11:41:38Z</time>
      </trkpt>
      <trkpt lat="45.84127" lon="0.79574">
        <ele>241.2</ele>
        <time>2022-04-03T11:41:39Z</time>
      </trkpt>
      <trkpt lat="45.8413" lon="0.7957">
        <ele>241.2</ele>
        <time>2022-04-03T11:41:40Z</time>
      </trkpt>
      <trkpt lat="45.84133" lon="0.79565">
        <ele>241.6</ele>
        <time>2022-04-03T11:41:41Z</time>
      </trkpt>
      <trkpt lat="45.84136" lon="0.7956">
        <ele>241.8</ele>
        <time>2022-04-03T11:41:42Z</time>
      </trkpt>
      <trkpt lat="45.84138" lon="0.79556">
        <ele>241.8</ele>
        <time>2022-04-03T11:41:43Z</time>
      </trkpt>
      <trkpt lat="45.84141" lon="0.79551">
        <ele>241.8</ele>
        <time>2022-04-03T11:41:44Z</time>
      </trkpt>
      <trkpt lat="45.84144" lon="0.79547">
        <ele>242.2</ele>
        <time>2022-04-03T11:41:45Z</time>
      </trkpt>
      <trkpt lat="45.84148" lon="0.79542">
        <ele>242.2</ele>
        <time>2022-04-03T11:41:46Z</time>
      </trkpt>
      <trkpt lat="45.84151" lon="0.79537">
        <ele>242.2</ele>
        <time>2022-04-03T11:41:47Z</time>
      </trkpt>
      <trkpt lat="45.84154" lon="0.79532">
        <ele>242</ele>
        <time>2022-04-03T11:41:48Z</time>
      </trkpt>
      <trkpt lat="45.84158" lon="0.79527">
        <ele>242.2</ele>
        <time>2022-04-03T11:41:49Z</time>
      </trkpt>
      <trkpt lat="45.84161" lon="0.79522">
        <ele>242.2</ele>
        <time>2022-04-03T11:41:50Z</time>
      </trkpt>
      <trkpt lat="45.84165" lon="0.79517">
        <ele>242.2</ele>
        <time>2022-04-03T11:41:51Z</time>
      </trkpt>
      <trkpt lat="45.84169" lon="0.79512">
        <ele>242</ele>
        <time>2022-04-03T11:41:52Z</time>
      </trkpt>
      <trkpt lat="45.84173" lon="0.79507">
        <ele>242</ele>
        <time>2022-04-03T11:41:53Z</time>
      </trkpt>
      <trkpt lat="45.84177" lon="0.79501">
        <ele>242.2</ele>
        <time>2022-04-03T11:41:54Z</time>
      </trkpt>
      <trkpt lat="45.84181" lon="0.79496">
        <ele>242.2</ele>
        <time>2022-04-03T11:41:55Z</time>
      </trkpt>
      <trkpt lat="45.84185" lon="0.79491">
        <ele>242.2</ele>
        <time>2022-04-03T11:41:56Z</time>
      </trkpt>
      <trkpt lat="45.84189" lon="0.79485">
        <ele>242</ele>
        <time>2022-04-03T11:41:57Z</time>
      </trkpt>
      <trkpt lat="45.84193" lon="0.7948">
        <ele>241.8</ele>
        <time>2022-04-03T11:41:58Z</time>
      </trkpt>
      <trkpt lat="45.84198" lon="0.79474">
        <ele>241.8</ele>
        <time>2022-04-03T11:41:59Z</time>
      </trkpt>
      <trkpt lat="45.84202" lon="0.79468">
        <ele>241.6</ele>
        <time>2022-04-03T11:42:00Z</time>
      </trkpt>
      <trkpt lat="45.84207" lon="0.79462">
        <ele>241.4</ele>
        <time>2022-04-03T11:42:01Z</time>
      </trkpt>
      <trkpt lat="45.84212" lon="0.79456">
        <ele>241.4</ele>
        <time>2022-04-03T11:42:02Z</time>
      </trkpt>
      <trkpt lat="45.84216" lon="0.7945">
        <ele>241.2</ele>
        <time>2022-04-03T11:42:03Z</time>
      </trkpt>
      <trkpt lat="45.84221" lon="0.79443">
        <ele>241</ele>
        <time>2022-04-03T11:42:04Z</time>
      </trkpt>
      <trkpt lat="45.84226" lon="0.79437">
        <ele>241</ele>
        <time>2022-04-03T11:42:05Z</time>
      </trkpt>
      <trkpt lat="45.84231" lon="0.79431">
        <ele>241</ele>
        <time>2022-04-03T11:42:06Z</time>
      </trkpt>
      <trkpt lat="45.84236" lon="0.79425">
        <ele>240.8</ele>
        <time>2022-04-03T11:42:07Z</time>
      </trkpt>
      <trkpt lat="45.84241" lon="0.79418">
        <ele>241</ele>
        <time>2022-04-03T11:42:08Z</time>
      </trkpt>
      <trkpt lat="45.84245" lon="0.79412">
        <ele>240.6</ele>
        <time>2022-04-03T11:42:09Z</time>
      </trkpt>
      <trkpt lat="45.8425" lon="0.79405">
        <ele>240.6</ele>
        <time>2022-04-03T11:42:10Z</time>
      </trkpt>
      <trkpt lat="45.84255" lon="0.79399">
        <ele>240.4</ele>
        <time>2022-04-03T11:42:11Z</time>
      </trkpt>
      <trkpt lat="45.8426" lon="0.79392">
        <ele>240.4</ele>
        <time>2022-04-03T11:42:12Z</time>
      </trkpt>
      <trkpt lat="45.84265" lon="0.79386">
        <ele>240.2</ele>
        <time>2022-04-03T11:42:13Z</time>
      </trkpt>
      <trkpt lat="45.84269" lon="0.7938">
        <ele>240.2</ele>
        <time>2022-04-03T11:42:14Z</time>
      </trkpt>
      <trkpt lat="45.84274" lon="0.79374">
        <ele>240</ele>
        <time>2022-04-03T11:42:15Z</time>
      </trkpt>
      <trkpt lat="45.84279" lon="0.79368">
        <ele>239.8</ele>
        <time>2022-04-03T11:42:16Z</time>
      </trkpt>
      <trkpt lat="45.84283" lon="0.79362">
        <ele>239.6</ele>
        <time>2022-04-03T11:42:17Z</time>
      </trkpt>
      <trkpt lat="45.84288" lon="0.79356">
        <ele>239.4</ele>
        <time>2022-04-03T11:42:18Z</time>
      </trkpt>
      <trkpt lat="45.84293" lon="0.7935">
        <ele>239.4</ele>
        <time>2022-04-03T11:42:19Z</time>
      </trkpt>
      <trkpt lat="45.84297" lon="0.79344">
        <ele>239.4</ele>
        <time>2022-04-03T11:42:20Z</time>
      </trkpt>
      <trkpt lat="45.84302" lon="0.79338">
        <ele>239.2</ele>
        <time>2022-04-03T11:42:21Z</time>
      </trkpt>
      <trkpt lat="45.84306" lon="0.79333">
        <ele>239.4</ele>
        <time>2022-04-03T11:42:22Z</time>
      </trkpt>
      <trkpt lat="45.84311" lon="0.79327">
        <ele>239.4</ele>
        <time>2022-04-03T11:42:23Z</time>
      </trkpt>
      <trkpt lat="45.84315" lon="0.79321">
        <ele>239.4</ele>
        <time>2022-04-03T11:42:24Z</time>
      </trkpt>
      <trkpt lat="45.8432" lon="0.79315">
        <ele>239.2</ele>
        <time>2022-04-03T11:42:25Z</time>
      </trkpt>
      <trkpt lat="45.84324" lon="0.79309">
        <ele>239.2</ele>
        <time>2022-04-03T11:42:26Z</time>
      </trkpt>
      <trkpt lat="45.84328" lon="0.79304">
        <ele>239.2</ele>
        <time>2022-04-03T11:42:27Z</time>
      </trkpt>
      <trkpt lat="45.84333" lon="0.79298">
        <ele>239.2</ele>
        <time>2022-04-03T11:42:28Z</time>
      </trkpt>
      <trkpt lat="45.84337" lon="0.79292">
        <ele>239.4</ele>
        <time>2022-04-03T11:42:29Z</time>
      </trkpt>
      <trkpt lat="45.84342" lon="0.79287">
        <ele>239.4</ele>
        <time>2022-04-03T11:42:30Z</time>
      </trkpt>
      <trkpt lat="45.84346" lon="0.79281">
        <ele>239.4</ele>
        <time>2022-04-03T11:42:31Z</time>
      </trkpt>
      <trkpt lat="45.8435" lon="0.79275">
        <ele>239.4</ele>
        <time>2022-04-03T11:42:32Z</time>
      </trkpt>
      <trkpt lat="45.84354" lon="0.7927">
        <ele>239.6</ele>
        <time>2022-04-03T11:42:33Z</time>
      </trkpt>
      <trkpt lat="45.84357" lon="0.79264">
        <ele>239.6</ele>
        <time>2022-04-03T11:42:34Z</time>
      </trkpt>
      <trkpt lat="45.84361" lon="0.79259">
        <ele>239.8</ele>
        <time>2022-04-03T11:42:35Z</time>
      </trkpt>
      <trkpt lat="45.84365" lon="0.79253">
        <ele>240</ele>
        <time>2022-04-03T11:42:36Z</time>
      </trkpt>
      <trkpt lat="45.84368" lon="0.79248">
        <ele>239.8</ele>
        <time>2022-04-03T11:42:37Z</time>
      </trkpt>
      <trkpt lat="45.84371" lon="0.79242">
        <ele>240</ele>
        <time>2022-04-03T11:42:38Z</time>
      </trkpt>
      <trkpt lat="45.84374" lon="0.79236">
        <ele>240</ele>
        <time>2022-04-03T11:42:39Z</time>
      </trkpt>
      <trkpt lat="45.84377" lon="0.7923">
        <ele>240.2</ele>
        <time>2022-04-03T11:42:40Z</time>
      </trkpt>
      <trkpt lat="45.8438" lon="0.79224">
        <ele>240.8</ele>
        <time>2022-04-03T11:42:41Z</time>
      </trkpt>
      <trkpt lat="45.84383" lon="0.79217">
        <ele>241</ele>
        <time>2022-04-03T11:42:42Z</time>
      </trkpt>
      <trkpt lat="45.84386" lon="0.79211">
        <ele>241</ele>
        <time>2022-04-03T11:42:43Z</time>
      </trkpt>
      <trkpt lat="45.84389" lon="0.79204">
        <ele>241.2</ele>
        <time>2022-04-03T11:42:44Z</time>
      </trkpt>
      <trkpt lat="45.84392" lon="0.79198">
        <ele>241.2</ele>
        <time>2022-04-03T11:42:45Z</time>
      </trkpt>
      <trkpt lat="45.84395" lon="0.79191">
        <ele>241.2</ele>
        <time>2022-04-03T11:42:46Z</time>
      </trkpt>
      <trkpt lat="45.84398" lon="0.79183">
        <ele>241.2</ele>
        <time>2022-04-03T11:42:47Z</time>
      </trkpt>
      <trkpt lat="45.84401" lon="0.79176">
        <ele>241.2</ele>
        <time>2022-04-03T11:42:48Z</time>
      </trkpt>
      <trkpt lat="45.84404" lon="0.79168">
        <ele>241.2</ele>
        <time>2022-04-03T11:42:49Z</time>
      </trkpt>
      <trkpt lat="45.84407" lon="0.79161">
        <ele>241.2</ele>
        <time>2022-04-03T11:42:50Z</time>
      </trkpt>
      <trkpt lat="45.8441" lon="0.79153">
        <ele>241.2</ele>
        <time>2022-04-03T11:42:51Z</time>
      </trkpt>
      <trkpt lat="45.84413" lon="0.79145">
        <ele>241.2</ele>
        <time>2022-04-03T11:42:52Z</time>
      </trkpt>
      <trkpt lat="45.84416" lon="0.79138">
        <ele>241.4</ele>
        <time>2022-04-03T11:42:53Z</time>
      </trkpt>
      <trkpt lat="45.84419" lon="0.7913">
        <ele>241.4</ele>
        <time>2022-04-03T11:42:54Z</time>
      </trkpt>
      <trkpt lat="45.84423" lon="0.79122">
        <ele>241</ele>
        <time>2022-04-03T11:42:55Z</time>
      </trkpt>
      <trkpt lat="45.84426" lon="0.79114">
        <ele>241</ele>
        <time>2022-04-03T11:42:56Z</time>
      </trkpt>
      <trkpt lat="45.84429" lon="0.79106">
        <ele>240.8</ele>
        <time>2022-04-03T11:42:57Z</time>
      </trkpt>
      <trkpt lat="45.84431" lon="0.79098">
        <ele>240.6</ele>
        <time>2022-04-03T11:42:58Z</time>
      </trkpt>
      <trkpt lat="45.84434" lon="0.79091">
        <ele>240.2</ele>
        <time>2022-04-03T11:42:59Z</time>
      </trkpt>
      <trkpt lat="45.84437" lon="0.79083">
        <ele>239.8</ele>
        <time>2022-04-03T11:43:00Z</time>
      </trkpt>
      <trkpt lat="45.8444" lon="0.79076">
        <ele>239.6</ele>
        <time>2022-04-03T11:43:01Z</time>
      </trkpt>
      <trkpt lat="45.84443" lon="0.79069">
        <ele>239.4</ele>
        <time>2022-04-03T11:43:02Z</time>
      </trkpt>
      <trkpt lat="45.84446" lon="0.79061">
        <ele>239.6</ele>
        <time>2022-04-03T11:43:03Z</time>
      </trkpt>
      <trkpt lat="45.84449" lon="0.79054">
        <ele>239.4</ele>
        <time>2022-04-03T11:43:04Z</time>
      </trkpt>
      <trkpt lat="45.84452" lon="0.79047">
        <ele>239.6</ele>
        <time>2022-04-03T11:43:05Z</time>
      </trkpt>
      <trkpt lat="45.84455" lon="0.79039">
        <ele>239.4</ele>
        <time>2022-04-03T11:43:06Z</time>
      </trkpt>
      <trkpt lat="45.84458" lon="0.79032">
        <ele>239.6</ele>
        <time>2022-04-03T11:43:07Z</time>
      </trkpt>
      <trkpt lat="45.84461" lon="0.79025">
        <ele>239.6</ele>
        <time>2022-04-03T11:43:08Z</time>
      </trkpt>
      <trkpt lat="45.84463" lon="0.79017">
        <ele>239.6</ele>
        <time>2022-04-03T11:43:09Z</time>
      </trkpt>
      <trkpt lat="45.84466" lon="0.7901">
        <ele>239.6</ele>
        <time>2022-04-03T11:43:10Z</time>
      </trkpt>
      <trkpt lat="45.84469" lon="0.79003">
        <ele>239.6</ele>
        <time>2022-04-03T11:43:11Z</time>
      </trkpt>
      <trkpt lat="45.84471" lon="0.78996">
        <ele>239.8</ele>
        <time>2022-04-03T11:43:12Z</time>
      </trkpt>
      <trkpt lat="45.84474" lon="0.78989">
        <ele>239.8</ele>
        <time>2022-04-03T11:43:13Z</time>
      </trkpt>
      <trkpt lat="45.84477" lon="0.78982">
        <ele>239.8</ele>
        <time>2022-04-03T11:43:14Z</time>
      </trkpt>
      <trkpt lat="45.8448" lon="0.78975">
        <ele>240</ele>
        <time>2022-04-03T11:43:15Z</time>
      </trkpt>
      <trkpt lat="45.84483" lon="0.78968">
        <ele>240.2</ele>
        <time>2022-04-03T11:43:16Z</time>
      </trkpt>
      <trkpt lat="45.84485" lon="0.78961">
        <ele>240.4</ele>
        <time>2022-04-03T11:43:17Z</time>
      </trkpt>
      <trkpt lat="45.84488" lon="0.78954">
        <ele>240.4</ele>
        <time>2022-04-03T11:43:18Z</time>
      </trkpt>
      <trkpt lat="45.84491" lon="0.78947">
        <ele>240.6</ele>
        <time>2022-04-03T11:43:19Z</time>
      </trkpt>
      <trkpt lat="45.84494" lon="0.7894">
        <ele>241</ele>
        <time>2022-04-03T11:43:20Z</time>
      </trkpt>
      <trkpt lat="45.84496" lon="0.78933">
        <ele>241.2</ele>
        <time>2022-04-03T11:43:21Z</time>
      </trkpt>
      <trkpt lat="45.84499" lon="0.78926">
        <ele>241.4</ele>
        <time>2022-04-03T11:43:22Z</time>
      </trkpt>
      <trkpt lat="45.84502" lon="0.78919">
        <ele>241.6</ele>
        <time>2022-04-03T11:43:23Z</time>
      </trkpt>
      <trkpt lat="45.84504" lon="0.78912">
        <ele>241.8</ele>
        <time>2022-04-03T11:43:24Z</time>
      </trkpt>
      <trkpt lat="45.84507" lon="0.78905">
        <ele>241.8</ele>
        <time>2022-04-03T11:43:25Z</time>
      </trkpt>
      <trkpt lat="45.8451" lon="0.78897">
        <ele>242</ele>
        <time>2022-04-03T11:43:26Z</time>
      </trkpt>
      <trkpt lat="45.84513" lon="0.7889">
        <ele>242</ele>
        <time>2022-04-03T11:43:27Z</time>
      </trkpt>
      <trkpt lat="45.84516" lon="0.78883">
        <ele>242</ele>
        <time>2022-04-03T11:43:28Z</time>
      </trkpt>
      <trkpt lat="45.84518" lon="0.78876">
        <ele>242.4</ele>
        <time>2022-04-03T11:43:29Z</time>
      </trkpt>
      <trkpt lat="45.84521" lon="0.78869">
        <ele>242.6</ele>
        <time>2022-04-03T11:43:30Z</time>
      </trkpt>
      <trkpt lat="45.84524" lon="0.78861">
        <ele>242.4</ele>
        <time>2022-04-03T11:43:31Z</time>
      </trkpt>
      <trkpt lat="45.84526" lon="0.78854">
        <ele>242.6</ele>
        <time>2022-04-03T11:43:32Z</time>
      </trkpt>
      <trkpt lat="45.84528" lon="0.78846">
        <ele>242.6</ele>
        <time>2022-04-03T11:43:33Z</time>
      </trkpt>
      <trkpt lat="45.8453" lon="0.78838">
        <ele>242.6</ele>
        <time>2022-04-03T11:43:34Z</time>
      </trkpt>
      <trkpt lat="45.84531" lon="0.78829">
        <ele>242.6</ele>
        <time>2022-04-03T11:43:35Z</time>
      </trkpt>
      <trkpt lat="45.84533" lon="0.78821">
        <ele>242.6</ele>
        <time>2022-04-03T11:43:36Z</time>
      </trkpt>
      <trkpt lat="45.84534" lon="0.78812">
        <ele>242.6</ele>
        <time>2022-04-03T11:43:37Z</time>
      </trkpt>
      <trkpt lat="45.84536" lon="0.78803">
        <ele>242.6</ele>
        <time>2022-04-03T11:43:38Z</time>
      </trkpt>
      <trkpt lat="45.84537" lon="0.78794">
        <ele>242.6</ele>
        <time>2022-04-03T11:43:39Z</time>
      </trkpt>
      <trkpt lat="45.84537" lon="0.78785">
        <ele>242.6</ele>
        <time>2022-04-03T11:43:40Z</time>
      </trkpt>
      <trkpt lat="45.84538" lon="0.78776">
        <ele>242.6</ele>
        <time>2022-04-03T11:43:41Z</time>
      </trkpt>
      <trkpt lat="45.84539" lon="0.78767">
        <ele>242.2</ele>
        <time>2022-04-03T11:43:42Z</time>
      </trkpt>
      <trkpt lat="45.8454" lon="0.78757">
        <ele>242</ele>
        <time>2022-04-03T11:43:43Z</time>
      </trkpt>
      <trkpt lat="45.8454" lon="0.78748">
        <ele>241.8</ele>
        <time>2022-04-03T11:43:44Z</time>
      </trkpt>
      <trkpt lat="45.84541" lon="0.78739">
        <ele>241.8</ele>
        <time>2022-04-03T11:43:45Z</time>
      </trkpt>
      <trkpt lat="45.84541" lon="0.7873">
        <ele>241.8</ele>
        <time>2022-04-03T11:43:46Z</time>
      </trkpt>
      <trkpt lat="45.84542" lon="0.78721">
        <ele>241.8</ele>
        <time>2022-04-03T11:43:47Z</time>
      </trkpt>
      <trkpt lat="45.84543" lon="0.78712">
        <ele>241.4</ele>
        <time>2022-04-03T11:43:48Z</time>
      </trkpt>
      <trkpt lat="45.84544" lon="0.78703">
        <ele>241.4</ele>
        <time>2022-04-03T11:43:49Z</time>
      </trkpt>
      <trkpt lat="45.84545" lon="0.78694">
        <ele>241.4</ele>
        <time>2022-04-03T11:43:50Z</time>
      </trkpt>
      <trkpt lat="45.84545" lon="0.78686">
        <ele>241.2</ele>
        <time>2022-04-03T11:43:51Z</time>
      </trkpt>
      <trkpt lat="45.84546" lon="0.78677">
        <ele>241</ele>
        <time>2022-04-03T11:43:52Z</time>
      </trkpt>
      <trkpt lat="45.84547" lon="0.78668">
        <ele>241</ele>
        <time>2022-04-03T11:43:53Z</time>
      </trkpt>
      <trkpt lat="45.84548" lon="0.78659">
        <ele>240.8</ele>
        <time>2022-04-03T11:43:54Z</time>
      </trkpt>
      <trkpt lat="45.84549" lon="0.78651">
        <ele>240.6</ele>
        <time>2022-04-03T11:43:55Z</time>
      </trkpt>
      <trkpt lat="45.8455" lon="0.78642">
        <ele>240.6</ele>
        <time>2022-04-03T11:43:56Z</time>
      </trkpt>
      <trkpt lat="45.8455" lon="0.78633">
        <ele>240.6</ele>
        <time>2022-04-03T11:43:57Z</time>
      </trkpt>
      <trkpt lat="45.84551" lon="0.78625">
        <ele>240.4</ele>
        <time>2022-04-03T11:43:58Z</time>
      </trkpt>
      <trkpt lat="45.84552" lon="0.78616">
        <ele>240.2</ele>
        <time>2022-04-03T11:43:59Z</time>
      </trkpt>
      <trkpt lat="45.84553" lon="0.78608">
        <ele>240.2</ele>
        <time>2022-04-03T11:44:00Z</time>
      </trkpt>
      <trkpt lat="45.84553" lon="0.78599">
        <ele>240</ele>
        <time>2022-04-03T11:44:01Z</time>
      </trkpt>
      <trkpt lat="45.84554" lon="0.7859">
        <ele>239.8</ele>
        <time>2022-04-03T11:44:02Z</time>
      </trkpt>
      <trkpt lat="45.84554" lon="0.78581">
        <ele>239.8</ele>
        <time>2022-04-03T11:44:03Z</time>
      </trkpt>
      <trkpt lat="45.84555" lon="0.78572">
        <ele>239.8</ele>
        <time>2022-04-03T11:44:04Z</time>
      </trkpt>
      <trkpt lat="45.84555" lon="0.78563">
        <ele>239.8</ele>
        <time>2022-04-03T11:44:05Z</time>
      </trkpt>
      <trkpt lat="45.84556" lon="0.78554">
        <ele>239.6</ele>
        <time>2022-04-03T11:44:06Z</time>
      </trkpt>
      <trkpt lat="45.84557" lon="0.78545">
        <ele>239.4</ele>
        <time>2022-04-03T11:44:07Z</time>
      </trkpt>
      <trkpt lat="45.84557" lon="0.78536">
        <ele>239</ele>
        <time>2022-04-03T11:44:08Z</time>
      </trkpt>
      <trkpt lat="45.84558" lon="0.78527">
        <ele>238.8</ele>
        <time>2022-04-03T11:44:09Z</time>
      </trkpt>
      <trkpt lat="45.84558" lon="0.78519">
        <ele>238.4</ele>
        <time>2022-04-03T11:44:10Z</time>
      </trkpt>
      <trkpt lat="45.84559" lon="0.7851">
        <ele>238</ele>
        <time>2022-04-03T11:44:11Z</time>
      </trkpt>
      <trkpt lat="45.8456" lon="0.78501">
        <ele>237.8</ele>
        <time>2022-04-03T11:44:12Z</time>
      </trkpt>
      <trkpt lat="45.84561" lon="0.78492">
        <ele>237.8</ele>
        <time>2022-04-03T11:44:13Z</time>
      </trkpt>
      <trkpt lat="45.84562" lon="0.78484">
        <ele>237.6</ele>
        <time>2022-04-03T11:44:14Z</time>
      </trkpt>
      <trkpt lat="45.84563" lon="0.78475">
        <ele>237.8</ele>
        <time>2022-04-03T11:44:15Z</time>
      </trkpt>
      <trkpt lat="45.84563" lon="0.78467">
        <ele>237.6</ele>
        <time>2022-04-03T11:44:16Z</time>
      </trkpt>
      <trkpt lat="45.84564" lon="0.78458">
        <ele>237.6</ele>
        <time>2022-04-03T11:44:17Z</time>
      </trkpt>
      <trkpt lat="45.84565" lon="0.7845">
        <ele>237.4</ele>
        <time>2022-04-03T11:44:18Z</time>
      </trkpt>
      <trkpt lat="45.84566" lon="0.78442">
        <ele>237.4</ele>
        <time>2022-04-03T11:44:19Z</time>
      </trkpt>
      <trkpt lat="45.84566" lon="0.78433">
        <ele>237.4</ele>
        <time>2022-04-03T11:44:20Z</time>
      </trkpt>
      <trkpt lat="45.84566" lon="0.78426">
        <ele>237.4</ele>
        <time>2022-04-03T11:44:21Z</time>
      </trkpt>
      <trkpt lat="45.84567" lon="0.78418">
        <ele>237</ele>
        <time>2022-04-03T11:44:22Z</time>
      </trkpt>
      <trkpt lat="45.84568" lon="0.7841">
        <ele>236.6</ele>
        <time>2022-04-03T11:44:23Z</time>
      </trkpt>
      <trkpt lat="45.84569" lon="0.78402">
        <ele>236.6</ele>
        <time>2022-04-03T11:44:24Z</time>
      </trkpt>
      <trkpt lat="45.8457" lon="0.78395">
        <ele>236.4</ele>
        <time>2022-04-03T11:44:25Z</time>
      </trkpt>
      <trkpt lat="45.84571" lon="0.78387">
        <ele>236.2</ele>
        <time>2022-04-03T11:44:26Z</time>
      </trkpt>
      <trkpt lat="45.84572" lon="0.7838">
        <ele>236</ele>
        <time>2022-04-03T11:44:27Z</time>
      </trkpt>
      <trkpt lat="45.84573" lon="0.78373">
        <ele>236.2</ele>
        <time>2022-04-03T11:44:28Z</time>
      </trkpt>
      <trkpt lat="45.84574" lon="0.78366">
        <ele>235.8</ele>
        <time>2022-04-03T11:44:29Z</time>
      </trkpt>
      <trkpt lat="45.84574" lon="0.78358">
        <ele>235.8</ele>
        <time>2022-04-03T11:44:30Z</time>
      </trkpt>
      <trkpt lat="45.84575" lon="0.78351">
        <ele>235.4</ele>
        <time>2022-04-03T11:44:31Z</time>
      </trkpt>
      <trkpt lat="45.84576" lon="0.78344">
        <ele>235.6</ele>
        <time>2022-04-03T11:44:32Z</time>
      </trkpt>
      <trkpt lat="45.84578" lon="0.78337">
        <ele>235.2</ele>
        <time>2022-04-03T11:44:33Z</time>
      </trkpt>
      <trkpt lat="45.84579" lon="0.78329">
        <ele>235</ele>
        <time>2022-04-03T11:44:34Z</time>
      </trkpt>
      <trkpt lat="45.84581" lon="0.78321">
        <ele>234.8</ele>
        <time>2022-04-03T11:44:35Z</time>
      </trkpt>
      <trkpt lat="45.84582" lon="0.78313">
        <ele>234.6</ele>
        <time>2022-04-03T11:44:36Z</time>
      </trkpt>
      <trkpt lat="45.84584" lon="0.78304">
        <ele>234.4</ele>
        <time>2022-04-03T11:44:37Z</time>
      </trkpt>
      <trkpt lat="45.84585" lon="0.78295">
        <ele>234.4</ele>
        <time>2022-04-03T11:44:38Z</time>
      </trkpt>
      <trkpt lat="45.84587" lon="0.78286">
        <ele>234.2</ele>
        <time>2022-04-03T11:44:39Z</time>
      </trkpt>
      <trkpt lat="45.84589" lon="0.78277">
        <ele>234.2</ele>
        <time>2022-04-03T11:44:40Z</time>
      </trkpt>
      <trkpt lat="45.8459" lon="0.78268">
        <ele>234</ele>
        <time>2022-04-03T11:44:41Z</time>
      </trkpt>
      <trkpt lat="45.84592" lon="0.78258">
        <ele>234</ele>
        <time>2022-04-03T11:44:42Z</time>
      </trkpt>
      <trkpt lat="45.84594" lon="0.78248">
        <ele>234</ele>
        <time>2022-04-03T11:44:43Z</time>
      </trkpt>
      <trkpt lat="45.84596" lon="0.78239">
        <ele>233.8</ele>
        <time>2022-04-03T11:44:44Z</time>
      </trkpt>
      <trkpt lat="45.84598" lon="0.78229">
        <ele>233.2</ele>
        <time>2022-04-03T11:44:45Z</time>
      </trkpt>
      <trkpt lat="45.84599" lon="0.78219">
        <ele>232.8</ele>
        <time>2022-04-03T11:44:46Z</time>
      </trkpt>
      <trkpt lat="45.84601" lon="0.78209">
        <ele>232.4</ele>
        <time>2022-04-03T11:44:47Z</time>
      </trkpt>
      <trkpt lat="45.84603" lon="0.782">
        <ele>232.2</ele>
        <time>2022-04-03T11:44:48Z</time>
      </trkpt>
      <trkpt lat="45.84605" lon="0.7819">
        <ele>231.8</ele>
        <time>2022-04-03T11:44:49Z</time>
      </trkpt>
      <trkpt lat="45.84606" lon="0.78181">
        <ele>231.6</ele>
        <time>2022-04-03T11:44:50Z</time>
      </trkpt>
      <trkpt lat="45.84608" lon="0.78171">
        <ele>231.2</ele>
        <time>2022-04-03T11:44:51Z</time>
      </trkpt>
      <trkpt lat="45.8461" lon="0.78162">
        <ele>231</ele>
        <time>2022-04-03T11:44:52Z</time>
      </trkpt>
      <trkpt lat="45.84612" lon="0.78153">
        <ele>230.8</ele>
        <time>2022-04-03T11:44:53Z</time>
      </trkpt>
      <trkpt lat="45.84613" lon="0.78144">
        <ele>230.6</ele>
        <time>2022-04-03T11:44:54Z</time>
      </trkpt>
      <trkpt lat="45.84615" lon="0.78135">
        <ele>230.4</ele>
        <time>2022-04-03T11:44:55Z</time>
      </trkpt>
      <trkpt lat="45.84617" lon="0.78126">
        <ele>230.4</ele>
        <time>2022-04-03T11:44:56Z</time>
      </trkpt>
      <trkpt lat="45.84618" lon="0.78117">
        <ele>230.2</ele>
        <time>2022-04-03T11:44:57Z</time>
      </trkpt>
      <trkpt lat="45.8462" lon="0.78108">
        <ele>230.2</ele>
        <time>2022-04-03T11:44:58Z</time>
      </trkpt>
      <trkpt lat="45.84622" lon="0.78099">
        <ele>230.2</ele>
        <time>2022-04-03T11:44:59Z</time>
      </trkpt>
      <trkpt lat="45.84624" lon="0.7809">
        <ele>230.2</ele>
        <time>2022-04-03T11:45:00Z</time>
      </trkpt>
      <trkpt lat="45.84625" lon="0.78081">
        <ele>230</ele>
        <time>2022-04-03T11:45:01Z</time>
      </trkpt>
      <trkpt lat="45.84627" lon="0.78072">
        <ele>230</ele>
        <time>2022-04-03T11:45:02Z</time>
      </trkpt>
      <trkpt lat="45.84629" lon="0.78063">
        <ele>230</ele>
        <time>2022-04-03T11:45:03Z</time>
      </trkpt>
      <trkpt lat="45.84631" lon="0.78054">
        <ele>229.8</ele>
        <time>2022-04-03T11:45:04Z</time>
      </trkpt>
      <trkpt lat="45.84632" lon="0.78045">
        <ele>229.8</ele>
        <time>2022-04-03T11:45:05Z</time>
      </trkpt>
      <trkpt lat="45.84634" lon="0.78036">
        <ele>229.8</ele>
        <time>2022-04-03T11:45:06Z</time>
      </trkpt>
      <trkpt lat="45.84636" lon="0.78027">
        <ele>229.6</ele>
        <time>2022-04-03T11:45:07Z</time>
      </trkpt>
      <trkpt lat="45.84637" lon="0.78017">
        <ele>229.4</ele>
        <time>2022-04-03T11:45:08Z</time>
      </trkpt>
      <trkpt lat="45.84639" lon="0.78008">
        <ele>229</ele>
        <time>2022-04-03T11:45:09Z</time>
      </trkpt>
      <trkpt lat="45.84641" lon="0.77999">
        <ele>228.4</ele>
        <time>2022-04-03T11:45:10Z</time>
      </trkpt>
      <trkpt lat="45.84644" lon="0.77989">
        <ele>227.8</ele>
        <time>2022-04-03T11:45:11Z</time>
      </trkpt>
      <trkpt lat="45.84647" lon="0.7798">
        <ele>227.2</ele>
        <time>2022-04-03T11:45:12Z</time>
      </trkpt>
      <trkpt lat="45.8465" lon="0.7797">
        <ele>227</ele>
        <time>2022-04-03T11:45:13Z</time>
      </trkpt>
      <trkpt lat="45.84653" lon="0.77961">
        <ele>226.8</ele>
        <time>2022-04-03T11:45:14Z</time>
      </trkpt>
      <trkpt lat="45.84656" lon="0.77952">
        <ele>226.8</ele>
        <time>2022-04-03T11:45:15Z</time>
      </trkpt>
      <trkpt lat="45.84659" lon="0.77943">
        <ele>226.6</ele>
        <time>2022-04-03T11:45:16Z</time>
      </trkpt>
      <trkpt lat="45.84663" lon="0.77935">
        <ele>226.6</ele>
        <time>2022-04-03T11:45:17Z</time>
      </trkpt>
      <trkpt lat="45.84666" lon="0.77927">
        <ele>226.4</ele>
        <time>2022-04-03T11:45:18Z</time>
      </trkpt>
      <trkpt lat="45.84669" lon="0.77919">
        <ele>226.4</ele>
        <time>2022-04-03T11:45:19Z</time>
      </trkpt>
      <trkpt lat="45.84672" lon="0.77911">
        <ele>225.8</ele>
        <time>2022-04-03T11:45:20Z</time>
      </trkpt>
      <trkpt lat="45.84675" lon="0.77904">
        <ele>225.8</ele>
        <time>2022-04-03T11:45:21Z</time>
      </trkpt>
      <trkpt lat="45.84678" lon="0.77897">
        <ele>225.6</ele>
        <time>2022-04-03T11:45:22Z</time>
      </trkpt>
      <trkpt lat="45.84681" lon="0.7789">
        <ele>225.8</ele>
        <time>2022-04-03T11:45:23Z</time>
      </trkpt>
      <trkpt lat="45.84684" lon="0.77882">
        <ele>225.6</ele>
        <time>2022-04-03T11:45:24Z</time>
      </trkpt>
      <trkpt lat="45.84686" lon="0.77875">
        <ele>225.4</ele>
        <time>2022-04-03T11:45:25Z</time>
      </trkpt>
      <trkpt lat="45.84689" lon="0.77868">
        <ele>225.6</ele>
        <time>2022-04-03T11:45:26Z</time>
      </trkpt>
      <trkpt lat="45.84692" lon="0.77862">
        <ele>225.4</ele>
        <time>2022-04-03T11:45:27Z</time>
      </trkpt>
      <trkpt lat="45.84695" lon="0.77856">
        <ele>225.6</ele>
        <time>2022-04-03T11:45:28Z</time>
      </trkpt>
      <trkpt lat="45.84697" lon="0.7785">
        <ele>225.6</ele>
        <time>2022-04-03T11:45:29Z</time>
      </trkpt>
      <trkpt lat="45.847" lon="0.77843">
        <ele>225.6</ele>
        <time>2022-04-03T11:45:30Z</time>
      </trkpt>
      <trkpt lat="45.84703" lon="0.77837">
        <ele>225.6</ele>
        <time>2022-04-03T11:45:31Z</time>
      </trkpt>
      <trkpt lat="45.84705" lon="0.77831">
        <ele>225.6</ele>
        <time>2022-04-03T11:45:32Z</time>
      </trkpt>
      <trkpt lat="45.84707" lon="0.77826">
        <ele>225.6</ele>
        <time>2022-04-03T11:45:33Z</time>
      </trkpt>
      <trkpt lat="45.8471" lon="0.7782">
        <ele>225.8</ele>
        <time>2022-04-03T11:45:34Z</time>
      </trkpt>
      <trkpt lat="45.84712" lon="0.77814">
        <ele>225.8</ele>
        <time>2022-04-03T11:45:35Z</time>
      </trkpt>
      <trkpt lat="45.84715" lon="0.77809">
        <ele>225.8</ele>
        <time>2022-04-03T11:45:36Z</time>
      </trkpt>
      <trkpt lat="45.84717" lon="0.77803">
        <ele>226</ele>
        <time>2022-04-03T11:45:37Z</time>
      </trkpt>
      <trkpt lat="45.84719" lon="0.77798">
        <ele>226.2</ele>
        <time>2022-04-03T11:45:38Z</time>
      </trkpt>
      <trkpt lat="45.84721" lon="0.77792">
        <ele>226.4</ele>
        <time>2022-04-03T11:45:39Z</time>
      </trkpt>
      <trkpt lat="45.84723" lon="0.77787">
        <ele>226.4</ele>
        <time>2022-04-03T11:45:40Z</time>
      </trkpt>
      <trkpt lat="45.84726" lon="0.77782">
        <ele>226.6</ele>
        <time>2022-04-03T11:45:41Z</time>
      </trkpt>
      <trkpt lat="45.84728" lon="0.77777">
        <ele>226.8</ele>
        <time>2022-04-03T11:45:42Z</time>
      </trkpt>
      <trkpt lat="45.8473" lon="0.77771">
        <ele>226.8</ele>
        <time>2022-04-03T11:45:43Z</time>
      </trkpt>
      <trkpt lat="45.84732" lon="0.77766">
        <ele>226.8</ele>
        <time>2022-04-03T11:45:44Z</time>
      </trkpt>
      <trkpt lat="45.84734" lon="0.77761">
        <ele>227</ele>
        <time>2022-04-03T11:45:45Z</time>
      </trkpt>
      <trkpt lat="45.84737" lon="0.77755">
        <ele>227</ele>
        <time>2022-04-03T11:45:46Z</time>
      </trkpt>
      <trkpt lat="45.84739" lon="0.7775">
        <ele>227.2</ele>
        <time>2022-04-03T11:45:47Z</time>
      </trkpt>
      <trkpt lat="45.84741" lon="0.77744">
        <ele>227.4</ele>
        <time>2022-04-03T11:45:48Z</time>
      </trkpt>
      <trkpt lat="45.84743" lon="0.77739">
        <ele>227.4</ele>
        <time>2022-04-03T11:45:49Z</time>
      </trkpt>
      <trkpt lat="45.84746" lon="0.77733">
        <ele>227.8</ele>
        <time>2022-04-03T11:45:50Z</time>
      </trkpt>
      <trkpt lat="45.84748" lon="0.77728">
        <ele>227.8</ele>
        <time>2022-04-03T11:45:51Z</time>
      </trkpt>
      <trkpt lat="45.8475" lon="0.77722">
        <ele>227.8</ele>
        <time>2022-04-03T11:45:52Z</time>
      </trkpt>
      <trkpt lat="45.84753" lon="0.77717">
        <ele>228.2</ele>
        <time>2022-04-03T11:45:53Z</time>
      </trkpt>
      <trkpt lat="45.84755" lon="0.77711">
        <ele>228.2</ele>
        <time>2022-04-03T11:45:54Z</time>
      </trkpt>
      <trkpt lat="45.84757" lon="0.77705">
        <ele>228.4</ele>
        <time>2022-04-03T11:45:55Z</time>
      </trkpt>
      <trkpt lat="45.8476" lon="0.77699">
        <ele>228.4</ele>
        <time>2022-04-03T11:45:56Z</time>
      </trkpt>
      <trkpt lat="45.84762" lon="0.77693">
        <ele>228.4</ele>
        <time>2022-04-03T11:45:57Z</time>
      </trkpt>
      <trkpt lat="45.84765" lon="0.77687">
        <ele>228.6</ele>
        <time>2022-04-03T11:45:58Z</time>
      </trkpt>
      <trkpt lat="45.84767" lon="0.77681">
        <ele>228.6</ele>
        <time>2022-04-03T11:45:59Z</time>
      </trkpt>
      <trkpt lat="45.8477" lon="0.77675">
        <ele>228.4</ele>
        <time>2022-04-03T11:46:00Z</time>
      </trkpt>
      <trkpt lat="45.84773" lon="0.77669">
        <ele>228.6</ele>
        <time>2022-04-03T11:46:01Z</time>
      </trkpt>
      <trkpt lat="45.84776" lon="0.77662">
        <ele>228.6</ele>
        <time>2022-04-03T11:46:02Z</time>
      </trkpt>
      <trkpt lat="45.84779" lon="0.77655">
        <ele>228.4</ele>
        <time>2022-04-03T11:46:03Z</time>
      </trkpt>
      <trkpt lat="45.84783" lon="0.77649">
        <ele>228.6</ele>
        <time>2022-04-03T11:46:04Z</time>
      </trkpt>
      <trkpt lat="45.84786" lon="0.77642">
        <ele>228.4</ele>
        <time>2022-04-03T11:46:05Z</time>
      </trkpt>
      <trkpt lat="45.84789" lon="0.77634">
        <ele>228.4</ele>
        <time>2022-04-03T11:46:06Z</time>
      </trkpt>
      <trkpt lat="45.84793" lon="0.77627">
        <ele>228</ele>
        <time>2022-04-03T11:46:07Z</time>
      </trkpt>
      <trkpt lat="45.84797" lon="0.7762">
        <ele>227.8</ele>
        <time>2022-04-03T11:46:08Z</time>
      </trkpt>
      <trkpt lat="45.848" lon="0.77612">
        <ele>227.8</ele>
        <time>2022-04-03T11:46:09Z</time>
      </trkpt>
      <trkpt lat="45.84804" lon="0.77604">
        <ele>227.6</ele>
        <time>2022-04-03T11:46:10Z</time>
      </trkpt>
      <trkpt lat="45.84807" lon="0.77596">
        <ele>227.4</ele>
        <time>2022-04-03T11:46:11Z</time>
      </trkpt>
      <trkpt lat="45.84811" lon="0.77588">
        <ele>227.2</ele>
        <time>2022-04-03T11:46:12Z</time>
      </trkpt>
      <trkpt lat="45.84815" lon="0.77579">
        <ele>227</ele>
        <time>2022-04-03T11:46:13Z</time>
      </trkpt>
      <trkpt lat="45.84819" lon="0.77571">
        <ele>226.6</ele>
        <time>2022-04-03T11:46:14Z</time>
      </trkpt>
      <trkpt lat="45.84823" lon="0.77562">
        <ele>226.4</ele>
        <time>2022-04-03T11:46:15Z</time>
      </trkpt>
      <trkpt lat="45.84827" lon="0.77553">
        <ele>226</ele>
        <time>2022-04-03T11:46:16Z</time>
      </trkpt>
      <trkpt lat="45.84832" lon="0.77545">
        <ele>226</ele>
        <time>2022-04-03T11:46:17Z</time>
      </trkpt>
      <trkpt lat="45.84836" lon="0.77536">
        <ele>226</ele>
        <time>2022-04-03T11:46:18Z</time>
      </trkpt>
      <trkpt lat="45.8484" lon="0.77526">
        <ele>225.8</ele>
        <time>2022-04-03T11:46:19Z</time>
      </trkpt>
      <trkpt lat="45.84845" lon="0.77516">
        <ele>225.4</ele>
        <time>2022-04-03T11:46:20Z</time>
      </trkpt>
      <trkpt lat="45.84849" lon="0.77507">
        <ele>225.2</ele>
        <time>2022-04-03T11:46:21Z</time>
      </trkpt>
      <trkpt lat="45.84854" lon="0.77497">
        <ele>225</ele>
        <time>2022-04-03T11:46:22Z</time>
      </trkpt>
      <trkpt lat="45.84859" lon="0.77487">
        <ele>224.2</ele>
        <time>2022-04-03T11:46:23Z</time>
      </trkpt>
      <trkpt lat="45.84864" lon="0.77478">
        <ele>223.8</ele>
        <time>2022-04-03T11:46:24Z</time>
      </trkpt>
      <trkpt lat="45.84869" lon="0.77468">
        <ele>223.4</ele>
        <time>2022-04-03T11:46:25Z</time>
      </trkpt>
      <trkpt lat="45.84874" lon="0.77458">
        <ele>223</ele>
        <time>2022-04-03T11:46:26Z</time>
      </trkpt>
      <trkpt lat="45.84878" lon="0.77447">
        <ele>223</ele>
        <time>2022-04-03T11:46:27Z</time>
      </trkpt>
      <trkpt lat="45.84883" lon="0.77437">
        <ele>222.6</ele>
        <time>2022-04-03T11:46:28Z</time>
      </trkpt>
      <trkpt lat="45.84888" lon="0.77426">
        <ele>222.2</ele>
        <time>2022-04-03T11:46:29Z</time>
      </trkpt>
      <trkpt lat="45.84893" lon="0.77416">
        <ele>221.4</ele>
        <time>2022-04-03T11:46:30Z</time>
      </trkpt>
      <trkpt lat="45.84899" lon="0.77406">
        <ele>220.6</ele>
        <time>2022-04-03T11:46:31Z</time>
      </trkpt>
      <trkpt lat="45.84904" lon="0.77395">
        <ele>219.6</ele>
        <time>2022-04-03T11:46:32Z</time>
      </trkpt>
      <trkpt lat="45.84909" lon="0.77384">
        <ele>218.8</ele>
        <time>2022-04-03T11:46:33Z</time>
      </trkpt>
      <trkpt lat="45.84914" lon="0.77373">
        <ele>218.6</ele>
        <time>2022-04-03T11:46:34Z</time>
      </trkpt>
      <trkpt lat="45.84919" lon="0.77362">
        <ele>218.2</ele>
        <time>2022-04-03T11:46:35Z</time>
      </trkpt>
      <trkpt lat="45.84925" lon="0.77351">
        <ele>217.8</ele>
        <time>2022-04-03T11:46:36Z</time>
      </trkpt>
      <trkpt lat="45.8493" lon="0.77339">
        <ele>217.8</ele>
        <time>2022-04-03T11:46:37Z</time>
      </trkpt>
      <trkpt lat="45.84935" lon="0.77327">
        <ele>217</ele>
        <time>2022-04-03T11:46:38Z</time>
      </trkpt>
      <trkpt lat="45.8494" lon="0.77314">
        <ele>216</ele>
        <time>2022-04-03T11:46:39Z</time>
      </trkpt>
      <trkpt lat="45.84944" lon="0.77301">
        <ele>215.2</ele>
        <time>2022-04-03T11:46:40Z</time>
      </trkpt>
      <trkpt lat="45.84947" lon="0.77287">
        <ele>214.8</ele>
        <time>2022-04-03T11:46:41Z</time>
      </trkpt>
      <trkpt lat="45.8495" lon="0.77272">
        <ele>214.6</ele>
        <time>2022-04-03T11:46:42Z</time>
      </trkpt>
      <trkpt lat="45.84951" lon="0.77258">
        <ele>214</ele>
        <time>2022-04-03T11:46:43Z</time>
      </trkpt>
      <trkpt lat="45.84953" lon="0.77243">
        <ele>213</ele>
        <time>2022-04-03T11:46:44Z</time>
      </trkpt>
      <trkpt lat="45.84954" lon="0.77229">
        <ele>212.6</ele>
        <time>2022-04-03T11:46:45Z</time>
      </trkpt>
      <trkpt lat="45.84955" lon="0.77215">
        <ele>212.2</ele>
        <time>2022-04-03T11:46:46Z</time>
      </trkpt>
      <trkpt lat="45.84955" lon="0.77202">
        <ele>211.6</ele>
        <time>2022-04-03T11:46:47Z</time>
      </trkpt>
      <trkpt lat="45.84956" lon="0.77188">
        <ele>210.8</ele>
        <time>2022-04-03T11:46:48Z</time>
      </trkpt>
      <trkpt lat="45.84957" lon="0.77176">
        <ele>209.8</ele>
        <time>2022-04-03T11:46:49Z</time>
      </trkpt>
      <trkpt lat="45.84957" lon="0.77163">
        <ele>208.8</ele>
        <time>2022-04-03T11:46:50Z</time>
      </trkpt>
      <trkpt lat="45.84957" lon="0.77151">
        <ele>208.4</ele>
        <time>2022-04-03T11:46:51Z</time>
      </trkpt>
      <trkpt lat="45.84958" lon="0.7714">
        <ele>208</ele>
        <time>2022-04-03T11:46:52Z</time>
      </trkpt>
      <trkpt lat="45.84958" lon="0.77128">
        <ele>207.8</ele>
        <time>2022-04-03T11:46:53Z</time>
      </trkpt>
      <trkpt lat="45.84959" lon="0.77117">
        <ele>207.8</ele>
        <time>2022-04-03T11:46:54Z</time>
      </trkpt>
      <trkpt lat="45.8496" lon="0.77106">
        <ele>208</ele>
        <time>2022-04-03T11:46:55Z</time>
      </trkpt>
      <trkpt lat="45.84961" lon="0.77095">
        <ele>208</ele>
        <time>2022-04-03T11:46:56Z</time>
      </trkpt>
      <trkpt lat="45.84961" lon="0.77084">
        <ele>207.8</ele>
        <time>2022-04-03T11:46:57Z</time>
      </trkpt>
      <trkpt lat="45.84962" lon="0.77074">
        <ele>207.8</ele>
        <time>2022-04-03T11:46:58Z</time>
      </trkpt>
      <trkpt lat="45.84963" lon="0.77063">
        <ele>207.8</ele>
        <time>2022-04-03T11:46:59Z</time>
      </trkpt>
      <trkpt lat="45.84965" lon="0.77054">
        <ele>208</ele>
        <time>2022-04-03T11:47:00Z</time>
      </trkpt>
      <trkpt lat="45.84966" lon="0.77044">
        <ele>207.8</ele>
        <time>2022-04-03T11:47:01Z</time>
      </trkpt>
      <trkpt lat="45.84968" lon="0.77035">
        <ele>207.8</ele>
        <time>2022-04-03T11:47:02Z</time>
      </trkpt>
      <trkpt lat="45.84969" lon="0.77027">
        <ele>207.8</ele>
        <time>2022-04-03T11:47:03Z</time>
      </trkpt>
      <trkpt lat="45.8497" lon="0.77018">
        <ele>208</ele>
        <time>2022-04-03T11:47:04Z</time>
      </trkpt>
      <trkpt lat="45.84972" lon="0.7701">
        <ele>208.2</ele>
        <time>2022-04-03T11:47:05Z</time>
      </trkpt>
      <trkpt lat="45.84974" lon="0.77002">
        <ele>208.2</ele>
        <time>2022-04-03T11:47:06Z</time>
      </trkpt>
      <trkpt lat="45.84976" lon="0.76995">
        <ele>208.2</ele>
        <time>2022-04-03T11:47:07Z</time>
      </trkpt>
      <trkpt lat="45.84977" lon="0.76987">
        <ele>208.4</ele>
        <time>2022-04-03T11:47:08Z</time>
      </trkpt>
      <trkpt lat="45.84979" lon="0.7698">
        <ele>208.4</ele>
        <time>2022-04-03T11:47:09Z</time>
      </trkpt>
      <trkpt lat="45.8498" lon="0.76974">
        <ele>208.6</ele>
        <time>2022-04-03T11:47:10Z</time>
      </trkpt>
      <trkpt lat="45.84982" lon="0.76967">
        <ele>208.8</ele>
        <time>2022-04-03T11:47:11Z</time>
      </trkpt>
      <trkpt lat="45.84983" lon="0.76961">
        <ele>208.8</ele>
        <time>2022-04-03T11:47:12Z</time>
      </trkpt>
      <trkpt lat="45.84984" lon="0.76956">
        <ele>209</ele>
        <time>2022-04-03T11:47:13Z</time>
      </trkpt>
      <trkpt lat="45.84985" lon="0.76951">
        <ele>209</ele>
        <time>2022-04-03T11:47:14Z</time>
      </trkpt>
      <trkpt lat="45.84986" lon="0.76946">
        <ele>209</ele>
        <time>2022-04-03T11:47:15Z</time>
      </trkpt>
      <trkpt lat="45.84987" lon="0.76941">
        <ele>208.8</ele>
        <time>2022-04-03T11:47:16Z</time>
      </trkpt>
      <trkpt lat="45.84987" lon="0.76937">
        <ele>209.2</ele>
        <time>2022-04-03T11:47:17Z</time>
      </trkpt>
      <trkpt lat="45.84988" lon="0.76933">
        <ele>209.4</ele>
        <time>2022-04-03T11:47:18Z</time>
      </trkpt>
      <trkpt lat="45.84989" lon="0.76929">
        <ele>209.8</ele>
        <time>2022-04-03T11:47:19Z</time>
      </trkpt>
      <trkpt lat="45.84989" lon="0.76925">
        <ele>210</ele>
        <time>2022-04-03T11:47:20Z</time>
      </trkpt>
      <trkpt lat="45.8499" lon="0.76921">
        <ele>210.2</ele>
        <time>2022-04-03T11:47:21Z</time>
      </trkpt>
      <trkpt lat="45.84991" lon="0.76917">
        <ele>210.6</ele>
        <time>2022-04-03T11:47:22Z</time>
      </trkpt>
      <trkpt lat="45.84992" lon="0.76913">
        <ele>210.6</ele>
        <time>2022-04-03T11:47:23Z</time>
      </trkpt>
      <trkpt lat="45.84993" lon="0.7691">
        <ele>210.8</ele>
        <time>2022-04-03T11:47:24Z</time>
      </trkpt>
      <trkpt lat="45.84994" lon="0.76906">
        <ele>211</ele>
        <time>2022-04-03T11:47:25Z</time>
      </trkpt>
      <trkpt lat="45.84995" lon="0.76902">
        <ele>211.6</ele>
        <time>2022-04-03T11:47:26Z</time>
      </trkpt>
      <trkpt lat="45.84995" lon="0.76898">
        <ele>212</ele>
        <time>2022-04-03T11:47:27Z</time>
      </trkpt>
      <trkpt lat="45.84996" lon="0.76895">
        <ele>212</ele>
        <time>2022-04-03T11:47:28Z</time>
      </trkpt>
      <trkpt lat="45.84997" lon="0.76891">
        <ele>212.4</ele>
        <time>2022-04-03T11:47:29Z</time>
      </trkpt>
      <trkpt lat="45.84998" lon="0.76888">
        <ele>212.8</ele>
        <time>2022-04-03T11:47:30Z</time>
      </trkpt>
      <trkpt lat="45.84998" lon="0.76884">
        <ele>213</ele>
        <time>2022-04-03T11:47:31Z</time>
      </trkpt>
      <trkpt lat="45.84999" lon="0.7688">
        <ele>213</ele>
        <time>2022-04-03T11:47:32Z</time>
      </trkpt>
      <trkpt lat="45.84999" lon="0.76877">
        <ele>213.2</ele>
        <time>2022-04-03T11:47:33Z</time>
      </trkpt>
      <trkpt lat="45.85" lon="0.76873">
        <ele>213.2</ele>
        <time>2022-04-03T11:47:34Z</time>
      </trkpt>
      <trkpt lat="45.85001" lon="0.76869">
        <ele>213.6</ele>
        <time>2022-04-03T11:47:35Z</time>
      </trkpt>
      <trkpt lat="45.85001" lon="0.76865">
        <ele>213.8</ele>
        <time>2022-04-03T11:47:36Z</time>
      </trkpt>
      <trkpt lat="45.85002" lon="0.76862">
        <ele>214.2</ele>
        <time>2022-04-03T11:47:37Z</time>
      </trkpt>
      <trkpt lat="45.85003" lon="0.76858">
        <ele>214.2</ele>
        <time>2022-04-03T11:47:38Z</time>
      </trkpt>
      <trkpt lat="45.85004" lon="0.76854">
        <ele>214.4</ele>
        <time>2022-04-03T11:47:39Z</time>
      </trkpt>
      <trkpt lat="45.85005" lon="0.7685">
        <ele>214.6</ele>
        <time>2022-04-03T11:47:40Z</time>
      </trkpt>
      <trkpt lat="45.85006" lon="0.76847">
        <ele>214.6</ele>
        <time>2022-04-03T11:47:41Z</time>
      </trkpt>
      <trkpt lat="45.85007" lon="0.76843">
        <ele>215</ele>
        <time>2022-04-03T11:47:42Z</time>
      </trkpt>
      <trkpt lat="45.85008" lon="0.76839">
        <ele>215</ele>
        <time>2022-04-03T11:47:43Z</time>
      </trkpt>
      <trkpt lat="45.85009" lon="0.76836">
        <ele>215.2</ele>
        <time>2022-04-03T11:47:44Z</time>
      </trkpt>
      <trkpt lat="45.8501" lon="0.76832">
        <ele>215.2</ele>
        <time>2022-04-03T11:47:45Z</time>
      </trkpt>
      <trkpt lat="45.85012" lon="0.76829">
        <ele>215.4</ele>
        <time>2022-04-03T11:47:46Z</time>
      </trkpt>
      <trkpt lat="45.85013" lon="0.76825">
        <ele>215.4</ele>
        <time>2022-04-03T11:47:47Z</time>
      </trkpt>
      <trkpt lat="45.85015" lon="0.76822">
        <ele>215.8</ele>
        <time>2022-04-03T11:47:48Z</time>
      </trkpt>
      <trkpt lat="45.85017" lon="0.76819">
        <ele>215.8</ele>
        <time>2022-04-03T11:47:49Z</time>
      </trkpt>
      <trkpt lat="45.85018" lon="0.76816">
        <ele>216</ele>
        <time>2022-04-03T11:47:50Z</time>
      </trkpt>
      <trkpt lat="45.8502" lon="0.76812">
        <ele>216.2</ele>
        <time>2022-04-03T11:47:51Z</time>
      </trkpt>
      <trkpt lat="45.85022" lon="0.76809">
        <ele>216.4</ele>
        <time>2022-04-03T11:47:52Z</time>
      </trkpt>
      <trkpt lat="45.85024" lon="0.76805">
        <ele>216.4</ele>
        <time>2022-04-03T11:47:53Z</time>
      </trkpt>
      <trkpt lat="45.85026" lon="0.76802">
        <ele>216.4</ele>
        <time>2022-04-03T11:47:54Z</time>
      </trkpt>
      <trkpt lat="45.85028" lon="0.76798">
        <ele>216.6</ele>
        <time>2022-04-03T11:47:55Z</time>
      </trkpt>
      <trkpt lat="45.8503" lon="0.76795">
        <ele>216.6</ele>
        <time>2022-04-03T11:47:56Z</time>
      </trkpt>
      <trkpt lat="45.85032" lon="0.76791">
        <ele>216.8</ele>
        <time>2022-04-03T11:47:57Z</time>
      </trkpt>
      <trkpt lat="45.85034" lon="0.76788">
        <ele>217</ele>
        <time>2022-04-03T11:47:58Z</time>
      </trkpt>
      <trkpt lat="45.85036" lon="0.76785">
        <ele>217.2</ele>
        <time>2022-04-03T11:47:59Z</time>
      </trkpt>
      <trkpt lat="45.85038" lon="0.76781">
        <ele>217.2</ele>
        <time>2022-04-03T11:48:00Z</time>
      </trkpt>
      <trkpt lat="45.8504" lon="0.76778">
        <ele>217.6</ele>
        <time>2022-04-03T11:48:01Z</time>
      </trkpt>
      <trkpt lat="45.85042" lon="0.76774">
        <ele>217.8</ele>
        <time>2022-04-03T11:48:02Z</time>
      </trkpt>
      <trkpt lat="45.85044" lon="0.7677">
        <ele>218</ele>
        <time>2022-04-03T11:48:03Z</time>
      </trkpt>
      <trkpt lat="45.85046" lon="0.76766">
        <ele>218.4</ele>
        <time>2022-04-03T11:48:04Z</time>
      </trkpt>
      <trkpt lat="45.85048" lon="0.76763">
        <ele>218.6</ele>
        <time>2022-04-03T11:48:05Z</time>
      </trkpt>
      <trkpt lat="45.8505" lon="0.76759">
        <ele>218.6</ele>
        <time>2022-04-03T11:48:06Z</time>
      </trkpt>
      <trkpt lat="45.85053" lon="0.76755">
        <ele>219</ele>
        <time>2022-04-03T11:48:07Z</time>
      </trkpt>
      <trkpt lat="45.85055" lon="0.76751">
        <ele>219</ele>
        <time>2022-04-03T11:48:08Z</time>
      </trkpt>
      <trkpt lat="45.85057" lon="0.76746">
        <ele>219.2</ele>
        <time>2022-04-03T11:48:09Z</time>
      </trkpt>
      <trkpt lat="45.85059" lon="0.76741">
        <ele>219.4</ele>
        <time>2022-04-03T11:48:10Z</time>
      </trkpt>
      <trkpt lat="45.8506" lon="0.76737">
        <ele>219.2</ele>
        <time>2022-04-03T11:48:11Z</time>
      </trkpt>
      <trkpt lat="45.85062" lon="0.76732">
        <ele>219.2</ele>
        <time>2022-04-03T11:48:12Z</time>
      </trkpt>
      <trkpt lat="45.85064" lon="0.76727">
        <ele>219.2</ele>
        <time>2022-04-03T11:48:13Z</time>
      </trkpt>
      <trkpt lat="45.85066" lon="0.76722">
        <ele>219.4</ele>
        <time>2022-04-03T11:48:14Z</time>
      </trkpt>
      <trkpt lat="45.85069" lon="0.76718">
        <ele>219.2</ele>
        <time>2022-04-03T11:48:15Z</time>
      </trkpt>
      <trkpt lat="45.85071" lon="0.76713">
        <ele>219.4</ele>
        <time>2022-04-03T11:48:16Z</time>
      </trkpt>
      <trkpt lat="45.85073" lon="0.76708">
        <ele>219.4</ele>
        <time>2022-04-03T11:48:17Z</time>
      </trkpt>
      <trkpt lat="45.85075" lon="0.76703">
        <ele>219.2</ele>
        <time>2022-04-03T11:48:18Z</time>
      </trkpt>
      <trkpt lat="45.85077" lon="0.76699">
        <ele>219.4</ele>
        <time>2022-04-03T11:48:19Z</time>
      </trkpt>
      <trkpt lat="45.85079" lon="0.76694">
        <ele>219.4</ele>
        <time>2022-04-03T11:48:20Z</time>
      </trkpt>
      <trkpt lat="45.85081" lon="0.76689">
        <ele>219.2</ele>
        <time>2022-04-03T11:48:21Z</time>
      </trkpt>
      <trkpt lat="45.85082" lon="0.76684">
        <ele>219.2</ele>
        <time>2022-04-03T11:48:22Z</time>
      </trkpt>
      <trkpt lat="45.85084" lon="0.76678">
        <ele>219.2</ele>
        <time>2022-04-03T11:48:23Z</time>
      </trkpt>
      <trkpt lat="45.85085" lon="0.76672">
        <ele>219.2</ele>
        <time>2022-04-03T11:48:24Z</time>
      </trkpt>
      <trkpt lat="45.85086" lon="0.76666">
        <ele>219.2</ele>
        <time>2022-04-03T11:48:25Z</time>
      </trkpt>
      <trkpt lat="45.85087" lon="0.7666">
        <ele>219.2</ele>
        <time>2022-04-03T11:48:26Z</time>
      </trkpt>
      <trkpt lat="45.85088" lon="0.76655">
        <ele>219.2</ele>
        <time>2022-04-03T11:48:27Z</time>
      </trkpt>
      <trkpt lat="45.85089" lon="0.76649">
        <ele>219.2</ele>
        <time>2022-04-03T11:48:28Z</time>
      </trkpt>
      <trkpt lat="45.85089" lon="0.76643">
        <ele>219.2</ele>
        <time>2022-04-03T11:48:29Z</time>
      </trkpt>
      <trkpt lat="45.8509" lon="0.76638">
        <ele>219.2</ele>
        <time>2022-04-03T11:48:30Z</time>
      </trkpt>
      <trkpt lat="45.85091" lon="0.76632">
        <ele>219.2</ele>
        <time>2022-04-03T11:48:31Z</time>
      </trkpt>
      <trkpt lat="45.85092" lon="0.76626">
        <ele>219</ele>
        <time>2022-04-03T11:48:32Z</time>
      </trkpt>
      <trkpt lat="45.85093" lon="0.76621">
        <ele>219</ele>
        <time>2022-04-03T11:48:33Z</time>
      </trkpt>
      <trkpt lat="45.85094" lon="0.76615">
        <ele>219</ele>
        <time>2022-04-03T11:48:34Z</time>
      </trkpt>
      <trkpt lat="45.85095" lon="0.76608">
        <ele>219</ele>
        <time>2022-04-03T11:48:35Z</time>
      </trkpt>
      <trkpt lat="45.85097" lon="0.76602">
        <ele>219.2</ele>
        <time>2022-04-03T11:48:36Z</time>
      </trkpt>
      <trkpt lat="45.85098" lon="0.76597">
        <ele>219</ele>
        <time>2022-04-03T11:48:37Z</time>
      </trkpt>
      <trkpt lat="45.851" lon="0.76591">
        <ele>219</ele>
        <time>2022-04-03T11:48:38Z</time>
      </trkpt>
      <trkpt lat="45.85102" lon="0.76586">
        <ele>218.8</ele>
        <time>2022-04-03T11:48:39Z</time>
      </trkpt>
      <trkpt lat="45.85105" lon="0.76581">
        <ele>218.8</ele>
        <time>2022-04-03T11:48:40Z</time>
      </trkpt>
      <trkpt lat="45.85109" lon="0.76578">
        <ele>218.8</ele>
        <time>2022-04-03T11:48:41Z</time>
      </trkpt>
      <trkpt lat="45.85113" lon="0.76575">
        <ele>218.6</ele>
        <time>2022-04-03T11:48:42Z</time>
      </trkpt>
      <trkpt lat="45.85117" lon="0.76572">
        <ele>218.8</ele>
        <time>2022-04-03T11:48:43Z</time>
      </trkpt>
      <trkpt lat="45.85121" lon="0.76569">
        <ele>218.6</ele>
        <time>2022-04-03T11:48:44Z</time>
      </trkpt>
      <trkpt lat="45.85125" lon="0.76566">
        <ele>218.4</ele>
        <time>2022-04-03T11:48:45Z</time>
      </trkpt>
      <trkpt lat="45.8513" lon="0.76563">
        <ele>218.4</ele>
        <time>2022-04-03T11:48:46Z</time>
      </trkpt>
      <trkpt lat="45.85134" lon="0.7656">
        <ele>218.4</ele>
        <time>2022-04-03T11:48:47Z</time>
      </trkpt>
      <trkpt lat="45.85137" lon="0.76555">
        <ele>218.2</ele>
        <time>2022-04-03T11:48:48Z</time>
      </trkpt>
      <trkpt lat="45.8514" lon="0.7655">
        <ele>218</ele>
        <time>2022-04-03T11:48:49Z</time>
      </trkpt>
      <trkpt lat="45.85143" lon="0.76545">
        <ele>218</ele>
        <time>2022-04-03T11:48:50Z</time>
      </trkpt>
      <trkpt lat="45.85145" lon="0.76539">
        <ele>218</ele>
        <time>2022-04-03T11:48:51Z</time>
      </trkpt>
      <trkpt lat="45.85147" lon="0.76533">
        <ele>218</ele>
        <time>2022-04-03T11:48:52Z</time>
      </trkpt>
      <trkpt lat="45.85149" lon="0.76527">
        <ele>217.8</ele>
        <time>2022-04-03T11:48:53Z</time>
      </trkpt>
      <trkpt lat="45.85149" lon="0.76521">
        <ele>217.8</ele>
        <time>2022-04-03T11:48:54Z</time>
      </trkpt>
      <trkpt lat="45.8515" lon="0.76516">
        <ele>217.6</ele>
        <time>2022-04-03T11:48:55Z</time>
      </trkpt>
      <trkpt lat="45.85152" lon="0.7651">
        <ele>217.6</ele>
        <time>2022-04-03T11:48:56Z</time>
      </trkpt>
      <trkpt lat="45.85154" lon="0.76503">
        <ele>217.6</ele>
        <time>2022-04-03T11:48:57Z</time>
      </trkpt>
      <trkpt lat="45.85156" lon="0.76497">
        <ele>217.6</ele>
        <time>2022-04-03T11:48:58Z</time>
      </trkpt>
      <trkpt lat="45.85158" lon="0.76491">
        <ele>217.6</ele>
        <time>2022-04-03T11:48:59Z</time>
      </trkpt>
      <trkpt lat="45.8516" lon="0.76485">
        <ele>217.6</ele>
        <time>2022-04-03T11:49:00Z</time>
      </trkpt>
      <trkpt lat="45.85162" lon="0.76479">
        <ele>217.4</ele>
        <time>2022-04-03T11:49:01Z</time>
      </trkpt>
      <trkpt lat="45.85165" lon="0.76473">
        <ele>217.4</ele>
        <time>2022-04-03T11:49:02Z</time>
      </trkpt>
      <trkpt lat="45.85167" lon="0.76467">
        <ele>217.6</ele>
        <time>2022-04-03T11:49:03Z</time>
      </trkpt>
      <trkpt lat="45.8517" lon="0.76461">
        <ele>217.4</ele>
        <time>2022-04-03T11:49:04Z</time>
      </trkpt>
      <trkpt lat="45.85173" lon="0.76455">
        <ele>217.4</ele>
        <time>2022-04-03T11:49:05Z</time>
      </trkpt>
      <trkpt lat="45.85176" lon="0.7645">
        <ele>217.4</ele>
        <time>2022-04-03T11:49:06Z</time>
      </trkpt>
      <trkpt lat="45.85178" lon="0.76444">
        <ele>217.4</ele>
        <time>2022-04-03T11:49:07Z</time>
      </trkpt>
      <trkpt lat="45.8518" lon="0.76438">
        <ele>217.4</ele>
        <time>2022-04-03T11:49:08Z</time>
      </trkpt>
      <trkpt lat="45.85182" lon="0.76431">
        <ele>217.6</ele>
        <time>2022-04-03T11:49:09Z</time>
      </trkpt>
      <trkpt lat="45.85184" lon="0.76425">
        <ele>217.4</ele>
        <time>2022-04-03T11:49:10Z</time>
      </trkpt>
      <trkpt lat="45.85187" lon="0.76419">
        <ele>217</ele>
        <time>2022-04-03T11:49:11Z</time>
      </trkpt>
      <trkpt lat="45.85189" lon="0.76413">
        <ele>216.8</ele>
        <time>2022-04-03T11:49:12Z</time>
      </trkpt>
      <trkpt lat="45.85192" lon="0.76407">
        <ele>216.4</ele>
        <time>2022-04-03T11:49:13Z</time>
      </trkpt>
      <trkpt lat="45.85196" lon="0.76401">
        <ele>216.2</ele>
        <time>2022-04-03T11:49:14Z</time>
      </trkpt>
      <trkpt lat="45.85199" lon="0.76395">
        <ele>216.2</ele>
        <time>2022-04-03T11:49:15Z</time>
      </trkpt>
      <trkpt lat="45.85202" lon="0.76389">
        <ele>216</ele>
        <time>2022-04-03T11:49:16Z</time>
      </trkpt>
      <trkpt lat="45.85205" lon="0.76383">
        <ele>216</ele>
        <time>2022-04-03T11:49:17Z</time>
      </trkpt>
      <trkpt lat="45.85208" lon="0.76377">
        <ele>215.8</ele>
        <time>2022-04-03T11:49:18Z</time>
      </trkpt>
      <trkpt lat="45.8521" lon="0.7637">
        <ele>215.8</ele>
        <time>2022-04-03T11:49:19Z</time>
      </trkpt>
      <trkpt lat="45.85213" lon="0.76364">
        <ele>215.4</ele>
        <time>2022-04-03T11:49:20Z</time>
      </trkpt>
      <trkpt lat="45.85215" lon="0.76358">
        <ele>215.2</ele>
        <time>2022-04-03T11:49:21Z</time>
      </trkpt>
      <trkpt lat="45.85218" lon="0.76351">
        <ele>214.8</ele>
        <time>2022-04-03T11:49:22Z</time>
      </trkpt>
      <trkpt lat="45.8522" lon="0.76344">
        <ele>214.6</ele>
        <time>2022-04-03T11:49:23Z</time>
      </trkpt>
      <trkpt lat="45.85222" lon="0.76336">
        <ele>214.6</ele>
        <time>2022-04-03T11:49:24Z</time>
      </trkpt>
      <trkpt lat="45.85224" lon="0.76328">
        <ele>214.4</ele>
        <time>2022-04-03T11:49:25Z</time>
      </trkpt>
      <trkpt lat="45.85224" lon="0.76321">
        <ele>214.2</ele>
        <time>2022-04-03T11:49:26Z</time>
      </trkpt>
      <trkpt lat="45.85223" lon="0.76312">
        <ele>214.2</ele>
        <time>2022-04-03T11:49:27Z</time>
      </trkpt>
      <trkpt lat="45.85221" lon="0.76305">
        <ele>214.2</ele>
        <time>2022-04-03T11:49:28Z</time>
      </trkpt>
      <trkpt lat="45.85218" lon="0.76298">
        <ele>214</ele>
        <time>2022-04-03T11:49:29Z</time>
      </trkpt>
      <trkpt lat="45.85215" lon="0.76293">
        <ele>214</ele>
        <time>2022-04-03T11:49:30Z</time>
      </trkpt>
      <trkpt lat="45.8521" lon="0.76288">
        <ele>213.8</ele>
        <time>2022-04-03T11:49:31Z</time>
      </trkpt>
      <trkpt lat="45.85206" lon="0.76284">
        <ele>213.8</ele>
        <time>2022-04-03T11:49:32Z</time>
      </trkpt>
      <trkpt lat="45.85201" lon="0.76279">
        <ele>213.8</ele>
        <time>2022-04-03T11:49:33Z</time>
      </trkpt>
      <trkpt lat="45.85196" lon="0.76274">
        <ele>213.6</ele>
        <time>2022-04-03T11:49:34Z</time>
      </trkpt>
      <trkpt lat="45.85192" lon="0.76269">
        <ele>213.2</ele>
        <time>2022-04-03T11:49:35Z</time>
      </trkpt>
      <trkpt lat="45.85187" lon="0.76264">
        <ele>213</ele>
        <time>2022-04-03T11:49:36Z</time>
      </trkpt>
      <trkpt lat="45.85182" lon="0.76258">
        <ele>212.6</ele>
        <time>2022-04-03T11:49:37Z</time>
      </trkpt>
      <trkpt lat="45.85177" lon="0.76252">
        <ele>212.6</ele>
        <time>2022-04-03T11:49:38Z</time>
      </trkpt>
      <trkpt lat="45.85172" lon="0.76246">
        <ele>212.4</ele>
        <time>2022-04-03T11:49:39Z</time>
      </trkpt>
      <trkpt lat="45.85167" lon="0.7624">
        <ele>212.4</ele>
        <time>2022-04-03T11:49:40Z</time>
      </trkpt>
      <trkpt lat="45.85162" lon="0.76233">
        <ele>212.4</ele>
        <time>2022-04-03T11:49:41Z</time>
      </trkpt>
      <trkpt lat="45.85157" lon="0.76226">
        <ele>212.4</ele>
        <time>2022-04-03T11:49:42Z</time>
      </trkpt>
      <trkpt lat="45.85151" lon="0.76219">
        <ele>212</ele>
        <time>2022-04-03T11:49:43Z</time>
      </trkpt>
      <trkpt lat="45.85146" lon="0.76211">
        <ele>211.6</ele>
        <time>2022-04-03T11:49:44Z</time>
      </trkpt>
      <trkpt lat="45.85141" lon="0.76203">
        <ele>211.2</ele>
        <time>2022-04-03T11:49:45Z</time>
      </trkpt>
      <trkpt lat="45.85137" lon="0.76195">
        <ele>211.2</ele>
        <time>2022-04-03T11:49:46Z</time>
      </trkpt>
      <trkpt lat="45.85132" lon="0.76187">
        <ele>211</ele>
        <time>2022-04-03T11:49:47Z</time>
      </trkpt>
      <trkpt lat="45.85127" lon="0.76178">
        <ele>210.6</ele>
        <time>2022-04-03T11:49:48Z</time>
      </trkpt>
      <trkpt lat="45.85122" lon="0.7617">
        <ele>210.6</ele>
        <time>2022-04-03T11:49:49Z</time>
      </trkpt>
      <trkpt lat="45.85117" lon="0.76161">
        <ele>209.8</ele>
        <time>2022-04-03T11:49:50Z</time>
      </trkpt>
      <trkpt lat="45.85112" lon="0.76153">
        <ele>209.4</ele>
        <time>2022-04-03T11:49:51Z</time>
      </trkpt>
      <trkpt lat="45.85108" lon="0.76145">
        <ele>209.4</ele>
        <time>2022-04-03T11:49:52Z</time>
      </trkpt>
      <trkpt lat="45.85103" lon="0.76137">
        <ele>208.8</ele>
        <time>2022-04-03T11:49:53Z</time>
      </trkpt>
      <trkpt lat="45.85099" lon="0.7613">
        <ele>208.6</ele>
        <time>2022-04-03T11:49:54Z</time>
      </trkpt>
      <trkpt lat="45.85095" lon="0.76123">
        <ele>208.4</ele>
        <time>2022-04-03T11:49:55Z</time>
      </trkpt>
      <trkpt lat="45.85091" lon="0.76115">
        <ele>208.2</ele>
        <time>2022-04-03T11:49:56Z</time>
      </trkpt>
      <trkpt lat="45.85087" lon="0.76108">
        <ele>208</ele>
        <time>2022-04-03T11:49:57Z</time>
      </trkpt>
      <trkpt lat="45.85083" lon="0.76102">
        <ele>207.8</ele>
        <time>2022-04-03T11:49:58Z</time>
      </trkpt>
      <trkpt lat="45.8508" lon="0.76095">
        <ele>207.8</ele>
        <time>2022-04-03T11:49:59Z</time>
      </trkpt>
      <trkpt lat="45.85076" lon="0.76089">
        <ele>207.8</ele>
        <time>2022-04-03T11:50:00Z</time>
      </trkpt>
      <trkpt lat="45.85072" lon="0.76083">
        <ele>207.8</ele>
        <time>2022-04-03T11:50:01Z</time>
      </trkpt>
      <trkpt lat="45.85069" lon="0.76076">
        <ele>207.8</ele>
        <time>2022-04-03T11:50:02Z</time>
      </trkpt>
      <trkpt lat="45.85065" lon="0.7607">
        <ele>207.6</ele>
        <time>2022-04-03T11:50:03Z</time>
      </trkpt>
      <trkpt lat="45.85062" lon="0.76064">
        <ele>207.8</ele>
        <time>2022-04-03T11:50:04Z</time>
      </trkpt>
      <trkpt lat="45.85058" lon="0.76058">
        <ele>207.8</ele>
        <time>2022-04-03T11:50:05Z</time>
      </trkpt>
      <trkpt lat="45.85055" lon="0.76052">
        <ele>207.8</ele>
        <time>2022-04-03T11:50:06Z</time>
      </trkpt>
      <trkpt lat="45.85052" lon="0.76046">
        <ele>207.8</ele>
        <time>2022-04-03T11:50:07Z</time>
      </trkpt>
      <trkpt lat="45.85048" lon="0.76041">
        <ele>208</ele>
        <time>2022-04-03T11:50:08Z</time>
      </trkpt>
      <trkpt lat="45.85045" lon="0.76036">
        <ele>207.8</ele>
        <time>2022-04-03T11:50:09Z</time>
      </trkpt>
      <trkpt lat="45.85042" lon="0.7603">
        <ele>208</ele>
        <time>2022-04-03T11:50:10Z</time>
      </trkpt>
      <trkpt lat="45.85038" lon="0.76025">
        <ele>208.2</ele>
        <time>2022-04-03T11:50:11Z</time>
      </trkpt>
      <trkpt lat="45.85035" lon="0.76019">
        <ele>208.4</ele>
        <time>2022-04-03T11:50:12Z</time>
      </trkpt>
      <trkpt lat="45.85032" lon="0.76014">
        <ele>208.6</ele>
        <time>2022-04-03T11:50:13Z</time>
      </trkpt>
      <trkpt lat="45.85028" lon="0.76009">
        <ele>208.8</ele>
        <time>2022-04-03T11:50:14Z</time>
      </trkpt>
      <trkpt lat="45.85024" lon="0.76004">
        <ele>208.8</ele>
        <time>2022-04-03T11:50:15Z</time>
      </trkpt>
      <trkpt lat="45.85021" lon="0.75999">
        <ele>208.8</ele>
        <time>2022-04-03T11:50:16Z</time>
      </trkpt>
      <trkpt lat="45.85017" lon="0.75994">
        <ele>208.8</ele>
        <time>2022-04-03T11:50:17Z</time>
      </trkpt>
      <trkpt lat="45.85013" lon="0.75989">
        <ele>209</ele>
        <time>2022-04-03T11:50:18Z</time>
      </trkpt>
      <trkpt lat="45.85009" lon="0.75984">
        <ele>209.2</ele>
        <time>2022-04-03T11:50:19Z</time>
      </trkpt>
      <trkpt lat="45.85006" lon="0.75979">
        <ele>209.2</ele>
        <time>2022-04-03T11:50:20Z</time>
      </trkpt>
      <trkpt lat="45.85002" lon="0.75974">
        <ele>209.4</ele>
        <time>2022-04-03T11:50:21Z</time>
      </trkpt>
      <trkpt lat="45.84998" lon="0.75969">
        <ele>209.6</ele>
        <time>2022-04-03T11:50:22Z</time>
      </trkpt>
      <trkpt lat="45.84995" lon="0.75964">
        <ele>209.6</ele>
        <time>2022-04-03T11:50:23Z</time>
      </trkpt>
      <trkpt lat="45.84991" lon="0.75958">
        <ele>209.6</ele>
        <time>2022-04-03T11:50:24Z</time>
      </trkpt>
      <trkpt lat="45.84988" lon="0.75953">
        <ele>209.8</ele>
        <time>2022-04-03T11:50:25Z</time>
      </trkpt>
      <trkpt lat="45.84985" lon="0.75947">
        <ele>210</ele>
        <time>2022-04-03T11:50:26Z</time>
      </trkpt>
      <trkpt lat="45.84982" lon="0.75942">
        <ele>210</ele>
        <time>2022-04-03T11:50:27Z</time>
      </trkpt>
      <trkpt lat="45.84979" lon="0.75936">
        <ele>210</ele>
        <time>2022-04-03T11:50:28Z</time>
      </trkpt>
      <trkpt lat="45.84976" lon="0.75931">
        <ele>210</ele>
        <time>2022-04-03T11:50:29Z</time>
      </trkpt>
      <trkpt lat="45.84973" lon="0.75925">
        <ele>210</ele>
        <time>2022-04-03T11:50:30Z</time>
      </trkpt>
      <trkpt lat="45.8497" lon="0.75919">
        <ele>210.2</ele>
        <time>2022-04-03T11:50:31Z</time>
      </trkpt>
      <trkpt lat="45.84967" lon="0.75913">
        <ele>210.2</ele>
        <time>2022-04-03T11:50:32Z</time>
      </trkpt>
      <trkpt lat="45.84964" lon="0.75907">
        <ele>210.2</ele>
        <time>2022-04-03T11:50:33Z</time>
      </trkpt>
      <trkpt lat="45.84961" lon="0.75902">
        <ele>210.2</ele>
        <time>2022-04-03T11:50:34Z</time>
      </trkpt>
      <trkpt lat="45.84958" lon="0.75896">
        <ele>210.4</ele>
        <time>2022-04-03T11:50:35Z</time>
      </trkpt>
      <trkpt lat="45.84955" lon="0.75891">
        <ele>210.4</ele>
        <time>2022-04-03T11:50:36Z</time>
      </trkpt>
      <trkpt lat="45.84953" lon="0.75885">
        <ele>210.8</ele>
        <time>2022-04-03T11:50:37Z</time>
      </trkpt>
      <trkpt lat="45.8495" lon="0.75879">
        <ele>211</ele>
        <time>2022-04-03T11:50:38Z</time>
      </trkpt>
      <trkpt lat="45.84947" lon="0.75874">
        <ele>211</ele>
        <time>2022-04-03T11:50:39Z</time>
      </trkpt>
      <trkpt lat="45.84944" lon="0.75868">
        <ele>211</ele>
        <time>2022-04-03T11:50:40Z</time>
      </trkpt>
      <trkpt lat="45.84941" lon="0.75862">
        <ele>211.2</ele>
        <time>2022-04-03T11:50:41Z</time>
      </trkpt>
      <trkpt lat="45.84938" lon="0.75857">
        <ele>211</ele>
        <time>2022-04-03T11:50:42Z</time>
      </trkpt>
      <trkpt lat="45.84935" lon="0.75851">
        <ele>211</ele>
        <time>2022-04-03T11:50:43Z</time>
      </trkpt>
      <trkpt lat="45.84933" lon="0.75845">
        <ele>211.2</ele>
        <time>2022-04-03T11:50:44Z</time>
      </trkpt>
      <trkpt lat="45.8493" lon="0.75839">
        <ele>211.2</ele>
        <time>2022-04-03T11:50:45Z</time>
      </trkpt>
      <trkpt lat="45.84927" lon="0.75833">
        <ele>211.2</ele>
        <time>2022-04-03T11:50:46Z</time>
      </trkpt>
      <trkpt lat="45.84924" lon="0.75827">
        <ele>211.4</ele>
        <time>2022-04-03T11:50:47Z</time>
      </trkpt>
      <trkpt lat="45.84921" lon="0.75822">
        <ele>211.6</ele>
        <time>2022-04-03T11:50:48Z</time>
      </trkpt>
      <trkpt lat="45.84918" lon="0.75816">
        <ele>211.6</ele>
        <time>2022-04-03T11:50:49Z</time>
      </trkpt>
      <trkpt lat="45.84915" lon="0.7581">
        <ele>211.8</ele>
        <time>2022-04-03T11:50:50Z</time>
      </trkpt>
      <trkpt lat="45.84912" lon="0.75804">
        <ele>211.6</ele>
        <time>2022-04-03T11:50:51Z</time>
      </trkpt>
      <trkpt lat="45.8491" lon="0.75798">
        <ele>211.6</ele>
        <time>2022-04-03T11:50:52Z</time>
      </trkpt>
      <trkpt lat="45.84907" lon="0.75793">
        <ele>211.6</ele>
        <time>2022-04-03T11:50:53Z</time>
      </trkpt>
      <trkpt lat="45.84904" lon="0.75787">
        <ele>211.8</ele>
        <time>2022-04-03T11:50:54Z</time>
      </trkpt>
      <trkpt lat="45.84901" lon="0.75781">
        <ele>211.8</ele>
        <time>2022-04-03T11:50:55Z</time>
      </trkpt>
      <trkpt lat="45.84898" lon="0.75775">
        <ele>211.8</ele>
        <time>2022-04-03T11:50:56Z</time>
      </trkpt>
      <trkpt lat="45.84894" lon="0.75769">
        <ele>212</ele>
        <time>2022-04-03T11:50:57Z</time>
      </trkpt>
      <trkpt lat="45.84891" lon="0.75763">
        <ele>212</ele>
        <time>2022-04-03T11:50:58Z</time>
      </trkpt>
      <trkpt lat="45.84888" lon="0.75757">
        <ele>212.2</ele>
        <time>2022-04-03T11:50:59Z</time>
      </trkpt>
      <trkpt lat="45.84885" lon="0.75751">
        <ele>212.2</ele>
        <time>2022-04-03T11:51:00Z</time>
      </trkpt>
      <trkpt lat="45.84882" lon="0.75745">
        <ele>212.2</ele>
        <time>2022-04-03T11:51:01Z</time>
      </trkpt>
      <trkpt lat="45.84879" lon="0.75738">
        <ele>212.4</ele>
        <time>2022-04-03T11:51:02Z</time>
      </trkpt>
      <trkpt lat="45.84876" lon="0.75732">
        <ele>212.4</ele>
        <time>2022-04-03T11:51:03Z</time>
      </trkpt>
      <trkpt lat="45.84873" lon="0.75727">
        <ele>212.4</ele>
        <time>2022-04-03T11:51:04Z</time>
      </trkpt>
      <trkpt lat="45.84869" lon="0.75721">
        <ele>212.4</ele>
        <time>2022-04-03T11:51:05Z</time>
      </trkpt>
      <trkpt lat="45.84866" lon="0.75715">
        <ele>212.4</ele>
        <time>2022-04-03T11:51:06Z</time>
      </trkpt>
      <trkpt lat="45.84862" lon="0.7571">
        <ele>212.4</ele>
        <time>2022-04-03T11:51:07Z</time>
      </trkpt>
      <trkpt lat="45.84859" lon="0.75704">
        <ele>212.8</ele>
        <time>2022-04-03T11:51:08Z</time>
      </trkpt>
      <trkpt lat="45.84855" lon="0.75698">
        <ele>212.8</ele>
        <time>2022-04-03T11:51:09Z</time>
      </trkpt>
      <trkpt lat="45.84851" lon="0.75693">
        <ele>212.8</ele>
        <time>2022-04-03T11:51:10Z</time>
      </trkpt>
      <trkpt lat="45.84848" lon="0.75687">
        <ele>212.8</ele>
        <time>2022-04-03T11:51:11Z</time>
      </trkpt>
      <trkpt lat="45.84844" lon="0.75682">
        <ele>212.8</ele>
        <time>2022-04-03T11:51:12Z</time>
      </trkpt>
      <trkpt lat="45.8484" lon="0.75676">
        <ele>213</ele>
        <time>2022-04-03T11:51:13Z</time>
      </trkpt>
      <trkpt lat="45.84836" lon="0.75671">
        <ele>213</ele>
        <time>2022-04-03T11:51:14Z</time>
      </trkpt>
      <trkpt lat="45.84832" lon="0.75666">
        <ele>213</ele>
        <time>2022-04-03T11:51:15Z</time>
      </trkpt>
      <trkpt lat="45.84828" lon="0.7566">
        <ele>213.2</ele>
        <time>2022-04-03T11:51:16Z</time>
      </trkpt>
      <trkpt lat="45.84824" lon="0.75654">
        <ele>213</ele>
        <time>2022-04-03T11:51:17Z</time>
      </trkpt>
      <trkpt lat="45.8482" lon="0.75649">
        <ele>213.2</ele>
        <time>2022-04-03T11:51:18Z</time>
      </trkpt>
      <trkpt lat="45.84816" lon="0.75643">
        <ele>213.2</ele>
        <time>2022-04-03T11:51:19Z</time>
      </trkpt>
      <trkpt lat="45.84812" lon="0.75638">
        <ele>213.4</ele>
        <time>2022-04-03T11:51:20Z</time>
      </trkpt>
      <trkpt lat="45.84808" lon="0.75632">
        <ele>213.2</ele>
        <time>2022-04-03T11:51:21Z</time>
      </trkpt>
      <trkpt lat="45.84804" lon="0.75626">
        <ele>213.2</ele>
        <time>2022-04-03T11:51:22Z</time>
      </trkpt>
      <trkpt lat="45.848" lon="0.75621">
        <ele>213.4</ele>
        <time>2022-04-03T11:51:23Z</time>
      </trkpt>
      <trkpt lat="45.84795" lon="0.75615">
        <ele>213.4</ele>
        <time>2022-04-03T11:51:24Z</time>
      </trkpt>
      <trkpt lat="45.84791" lon="0.75608">
        <ele>213.2</ele>
        <time>2022-04-03T11:51:25Z</time>
      </trkpt>
      <trkpt lat="45.84787" lon="0.75602">
        <ele>213.2</ele>
        <time>2022-04-03T11:51:26Z</time>
      </trkpt>
      <trkpt lat="45.84783" lon="0.75596">
        <ele>213.2</ele>
        <time>2022-04-03T11:51:27Z</time>
      </trkpt>
      <trkpt lat="45.84779" lon="0.75589">
        <ele>213.2</ele>
        <time>2022-04-03T11:51:28Z</time>
      </trkpt>
      <trkpt lat="45.84775" lon="0.75582">
        <ele>213.2</ele>
        <time>2022-04-03T11:51:29Z</time>
      </trkpt>
      <trkpt lat="45.84772" lon="0.75573">
        <ele>213.2</ele>
        <time>2022-04-03T11:51:30Z</time>
      </trkpt>
      <trkpt lat="45.84768" lon="0.75565">
        <ele>213.2</ele>
        <time>2022-04-03T11:51:31Z</time>
      </trkpt>
      <trkpt lat="45.84764" lon="0.75557">
        <ele>213</ele>
        <time>2022-04-03T11:51:32Z</time>
      </trkpt>
      <trkpt lat="45.84761" lon="0.75549">
        <ele>213</ele>
        <time>2022-04-03T11:51:33Z</time>
      </trkpt>
      <trkpt lat="45.84757" lon="0.75541">
        <ele>212.8</ele>
        <time>2022-04-03T11:51:34Z</time>
      </trkpt>
      <trkpt lat="45.84753" lon="0.75532">
        <ele>212.8</ele>
        <time>2022-04-03T11:51:35Z</time>
      </trkpt>
      <trkpt lat="45.8475" lon="0.75524">
        <ele>212.6</ele>
        <time>2022-04-03T11:51:36Z</time>
      </trkpt>
      <trkpt lat="45.84748" lon="0.75515">
        <ele>212.6</ele>
        <time>2022-04-03T11:51:37Z</time>
      </trkpt>
      <trkpt lat="45.84745" lon="0.75506">
        <ele>212.2</ele>
        <time>2022-04-03T11:51:38Z</time>
      </trkpt>
      <trkpt lat="45.84743" lon="0.75496">
        <ele>212</ele>
        <time>2022-04-03T11:51:39Z</time>
      </trkpt>
      <trkpt lat="45.84741" lon="0.75487">
        <ele>211.8</ele>
        <time>2022-04-03T11:51:40Z</time>
      </trkpt>
      <trkpt lat="45.8474" lon="0.75477">
        <ele>211.8</ele>
        <time>2022-04-03T11:51:41Z</time>
      </trkpt>
      <trkpt lat="45.84739" lon="0.75468">
        <ele>211.6</ele>
        <time>2022-04-03T11:51:42Z</time>
      </trkpt>
      <trkpt lat="45.84739" lon="0.75458">
        <ele>211.2</ele>
        <time>2022-04-03T11:51:43Z</time>
      </trkpt>
      <trkpt lat="45.84739" lon="0.75447">
        <ele>211</ele>
        <time>2022-04-03T11:51:44Z</time>
      </trkpt>
      <trkpt lat="45.84739" lon="0.75437">
        <ele>210.8</ele>
        <time>2022-04-03T11:51:45Z</time>
      </trkpt>
      <trkpt lat="45.8474" lon="0.75426">
        <ele>210.6</ele>
        <time>2022-04-03T11:51:46Z</time>
      </trkpt>
      <trkpt lat="45.84741" lon="0.75415">
        <ele>210.4</ele>
        <time>2022-04-03T11:51:47Z</time>
      </trkpt>
      <trkpt lat="45.84743" lon="0.75404">
        <ele>210.2</ele>
        <time>2022-04-03T11:51:48Z</time>
      </trkpt>
      <trkpt lat="45.84745" lon="0.75393">
        <ele>210</ele>
        <time>2022-04-03T11:51:49Z</time>
      </trkpt>
      <trkpt lat="45.84748" lon="0.75382">
        <ele>209.8</ele>
        <time>2022-04-03T11:51:50Z</time>
      </trkpt>
      <trkpt lat="45.84751" lon="0.7537">
        <ele>209.8</ele>
        <time>2022-04-03T11:51:51Z</time>
      </trkpt>
      <trkpt lat="45.84754" lon="0.75359">
        <ele>209.8</ele>
        <time>2022-04-03T11:51:52Z</time>
      </trkpt>
      <trkpt lat="45.84758" lon="0.75347">
        <ele>209.4</ele>
        <time>2022-04-03T11:51:53Z</time>
      </trkpt>
      <trkpt lat="45.84761" lon="0.75335">
        <ele>208.8</ele>
        <time>2022-04-03T11:51:54Z</time>
      </trkpt>
      <trkpt lat="45.84764" lon="0.75323">
        <ele>208.4</ele>
        <time>2022-04-03T11:51:55Z</time>
      </trkpt>
      <trkpt lat="45.84768" lon="0.75311">
        <ele>208</ele>
        <time>2022-04-03T11:51:56Z</time>
      </trkpt>
      <trkpt lat="45.84771" lon="0.75298">
        <ele>207.2</ele>
        <time>2022-04-03T11:51:57Z</time>
      </trkpt>
      <trkpt lat="45.84774" lon="0.75285">
        <ele>206.6</ele>
        <time>2022-04-03T11:51:58Z</time>
      </trkpt>
      <trkpt lat="45.84778" lon="0.75273">
        <ele>205.6</ele>
        <time>2022-04-03T11:51:59Z</time>
      </trkpt>
      <trkpt lat="45.84781" lon="0.7526">
        <ele>205.6</ele>
        <time>2022-04-03T11:52:00Z</time>
      </trkpt>
      <trkpt lat="45.84785" lon="0.75247">
        <ele>205</ele>
        <time>2022-04-03T11:52:01Z</time>
      </trkpt>
      <trkpt lat="45.84788" lon="0.75234">
        <ele>204.2</ele>
        <time>2022-04-03T11:52:02Z</time>
      </trkpt>
      <trkpt lat="45.84792" lon="0.7522">
        <ele>203.6</ele>
        <time>2022-04-03T11:52:03Z</time>
      </trkpt>
      <trkpt lat="45.84794" lon="0.75206">
        <ele>203.4</ele>
        <time>2022-04-03T11:52:04Z</time>
      </trkpt>
      <trkpt lat="45.84797" lon="0.75192">
        <ele>202.8</ele>
        <time>2022-04-03T11:52:05Z</time>
      </trkpt>
      <trkpt lat="45.84799" lon="0.75178">
        <ele>202</ele>
        <time>2022-04-03T11:52:06Z</time>
      </trkpt>
      <trkpt lat="45.84799" lon="0.75163">
        <ele>200.8</ele>
        <time>2022-04-03T11:52:07Z</time>
      </trkpt>
      <trkpt lat="45.84799" lon="0.75149">
        <ele>200</ele>
        <time>2022-04-03T11:52:08Z</time>
      </trkpt>
      <trkpt lat="45.84798" lon="0.75134">
        <ele>199.2</ele>
        <time>2022-04-03T11:52:09Z</time>
      </trkpt>
      <trkpt lat="45.84797" lon="0.75119">
        <ele>198.6</ele>
        <time>2022-04-03T11:52:10Z</time>
      </trkpt>
      <trkpt lat="45.84796" lon="0.75105">
        <ele>197</ele>
        <time>2022-04-03T11:52:11Z</time>
      </trkpt>
      <trkpt lat="45.84794" lon="0.75091">
        <ele>196</ele>
        <time>2022-04-03T11:52:12Z</time>
      </trkpt>
      <trkpt lat="45.84793" lon="0.75076">
        <ele>195.4</ele>
        <time>2022-04-03T11:52:13Z</time>
      </trkpt>
      <trkpt lat="45.84792" lon="0.75062">
        <ele>194.8</ele>
        <time>2022-04-03T11:52:14Z</time>
      </trkpt>
      <trkpt lat="45.8479" lon="0.75047">
        <ele>194.2</ele>
        <time>2022-04-03T11:52:15Z</time>
      </trkpt>
      <trkpt lat="45.84788" lon="0.75032">
        <ele>194</ele>
        <time>2022-04-03T11:52:16Z</time>
      </trkpt>
      <trkpt lat="45.84787" lon="0.75017">
        <ele>193.8</ele>
        <time>2022-04-03T11:52:17Z</time>
      </trkpt>
      <trkpt lat="45.84785" lon="0.75003">
        <ele>193.6</ele>
        <time>2022-04-03T11:52:18Z</time>
      </trkpt>
      <trkpt lat="45.84782" lon="0.74988">
        <ele>193.6</ele>
        <time>2022-04-03T11:52:19Z</time>
      </trkpt>
      <trkpt lat="45.84779" lon="0.74973">
        <ele>193</ele>
        <time>2022-04-03T11:52:20Z</time>
      </trkpt>
      <trkpt lat="45.84776" lon="0.74958">
        <ele>191.8</ele>
        <time>2022-04-03T11:52:21Z</time>
      </trkpt>
      <trkpt lat="45.84772" lon="0.74944">
        <ele>191.2</ele>
        <time>2022-04-03T11:52:22Z</time>
      </trkpt>
      <trkpt lat="45.84769" lon="0.7493">
        <ele>190.6</ele>
        <time>2022-04-03T11:52:23Z</time>
      </trkpt>
      <trkpt lat="45.84765" lon="0.74916">
        <ele>190</ele>
        <time>2022-04-03T11:52:24Z</time>
      </trkpt>
      <trkpt lat="45.84761" lon="0.74902">
        <ele>189.2</ele>
        <time>2022-04-03T11:52:25Z</time>
      </trkpt>
      <trkpt lat="45.84756" lon="0.74888">
        <ele>188.6</ele>
        <time>2022-04-03T11:52:26Z</time>
      </trkpt>
      <trkpt lat="45.84752" lon="0.74874">
        <ele>188.2</ele>
        <time>2022-04-03T11:52:27Z</time>
      </trkpt>
      <trkpt lat="45.84747" lon="0.7486">
        <ele>186.8</ele>
        <time>2022-04-03T11:52:28Z</time>
      </trkpt>
      <trkpt lat="45.84743" lon="0.74845">
        <ele>185.4</ele>
        <time>2022-04-03T11:52:29Z</time>
      </trkpt>
      <trkpt lat="45.84739" lon="0.74831">
        <ele>184.8</ele>
        <time>2022-04-03T11:52:30Z</time>
      </trkpt>
      <trkpt lat="45.84735" lon="0.74816">
        <ele>184.2</ele>
        <time>2022-04-03T11:52:31Z</time>
      </trkpt>
      <trkpt lat="45.84732" lon="0.74802">
        <ele>183.8</ele>
        <time>2022-04-03T11:52:32Z</time>
      </trkpt>
      <trkpt lat="45.8473" lon="0.74787">
        <ele>183</ele>
        <time>2022-04-03T11:52:33Z</time>
      </trkpt>
      <trkpt lat="45.84728" lon="0.74773">
        <ele>182.4</ele>
        <time>2022-04-03T11:52:34Z</time>
      </trkpt>
      <trkpt lat="45.84727" lon="0.7476">
        <ele>181.8</ele>
        <time>2022-04-03T11:52:35Z</time>
      </trkpt>
      <trkpt lat="45.84728" lon="0.74746">
        <ele>181.4</ele>
        <time>2022-04-03T11:52:36Z</time>
      </trkpt>
      <trkpt lat="45.84728" lon="0.74734">
        <ele>181.4</ele>
        <time>2022-04-03T11:52:37Z</time>
      </trkpt>
      <trkpt lat="45.84728" lon="0.74721">
        <ele>181.2</ele>
        <time>2022-04-03T11:52:38Z</time>
      </trkpt>
      <trkpt lat="45.84729" lon="0.74708">
        <ele>180.6</ele>
        <time>2022-04-03T11:52:39Z</time>
      </trkpt>
      <trkpt lat="45.8473" lon="0.74696">
        <ele>180</ele>
        <time>2022-04-03T11:52:40Z</time>
      </trkpt>
      <trkpt lat="45.84731" lon="0.74685">
        <ele>179.4</ele>
        <time>2022-04-03T11:52:41Z</time>
      </trkpt>
      <trkpt lat="45.84731" lon="0.74674">
        <ele>179.2</ele>
        <time>2022-04-03T11:52:42Z</time>
      </trkpt>
      <trkpt lat="45.84732" lon="0.74663">
        <ele>179</ele>
        <time>2022-04-03T11:52:43Z</time>
      </trkpt>
      <trkpt lat="45.84732" lon="0.74653">
        <ele>178.8</ele>
        <time>2022-04-03T11:52:44Z</time>
      </trkpt>
      <trkpt lat="45.84732" lon="0.74643">
        <ele>178.6</ele>
        <time>2022-04-03T11:52:45Z</time>
      </trkpt>
      <trkpt lat="45.84732" lon="0.74634">
        <ele>178.6</ele>
        <time>2022-04-03T11:52:46Z</time>
      </trkpt>
      <trkpt lat="45.84732" lon="0.74624">
        <ele>178.6</ele>
        <time>2022-04-03T11:52:47Z</time>
      </trkpt>
      <trkpt lat="45.84732" lon="0.74614">
        <ele>178.6</ele>
        <time>2022-04-03T11:52:48Z</time>
      </trkpt>
      <trkpt lat="45.84732" lon="0.74605">
        <ele>178.6</ele>
        <time>2022-04-03T11:52:49Z</time>
      </trkpt>
      <trkpt lat="45.84732" lon="0.74596">
        <ele>178.6</ele>
        <time>2022-04-03T11:52:50Z</time>
      </trkpt>
      <trkpt lat="45.84732" lon="0.74587">
        <ele>178.6</ele>
        <time>2022-04-03T11:52:51Z</time>
      </trkpt>
      <trkpt lat="45.84731" lon="0.74578">
        <ele>178.8</ele>
        <time>2022-04-03T11:52:52Z</time>
      </trkpt>
      <trkpt lat="45.84731" lon="0.74569">
        <ele>178.8</ele>
        <time>2022-04-03T11:52:53Z</time>
      </trkpt>
      <trkpt lat="45.84731" lon="0.7456">
        <ele>179</ele>
        <time>2022-04-03T11:52:54Z</time>
      </trkpt>
      <trkpt lat="45.8473" lon="0.74552">
        <ele>178.8</ele>
        <time>2022-04-03T11:52:55Z</time>
      </trkpt>
      <trkpt lat="45.8473" lon="0.74543">
        <ele>178.8</ele>
        <time>2022-04-03T11:52:56Z</time>
      </trkpt>
      <trkpt lat="45.8473" lon="0.74534">
        <ele>178.8</ele>
        <time>2022-04-03T11:52:57Z</time>
      </trkpt>
      <trkpt lat="45.84729" lon="0.74525">
        <ele>179</ele>
        <time>2022-04-03T11:52:58Z</time>
      </trkpt>
      <trkpt lat="45.84729" lon="0.74515">
        <ele>178.8</ele>
        <time>2022-04-03T11:52:59Z</time>
      </trkpt>
      <trkpt lat="45.84729" lon="0.74505">
        <ele>178.8</ele>
        <time>2022-04-03T11:53:00Z</time>
      </trkpt>
      <trkpt lat="45.84728" lon="0.74496">
        <ele>178.8</ele>
        <time>2022-04-03T11:53:01Z</time>
      </trkpt>
      <trkpt lat="45.84728" lon="0.74486">
        <ele>179</ele>
        <time>2022-04-03T11:53:02Z</time>
      </trkpt>
      <trkpt lat="45.84728" lon="0.74475">
        <ele>178.8</ele>
        <time>2022-04-03T11:53:03Z</time>
      </trkpt>
      <trkpt lat="45.84728" lon="0.74465">
        <ele>178.8</ele>
        <time>2022-04-03T11:53:04Z</time>
      </trkpt>
      <trkpt lat="45.84729" lon="0.74455">
        <ele>178.8</ele>
        <time>2022-04-03T11:53:05Z</time>
      </trkpt>
      <trkpt lat="45.84729" lon="0.74446">
        <ele>178.8</ele>
        <time>2022-04-03T11:53:06Z</time>
      </trkpt>
      <trkpt lat="45.8473" lon="0.74436">
        <ele>178.6</ele>
        <time>2022-04-03T11:53:07Z</time>
      </trkpt>
      <trkpt lat="45.84731" lon="0.74426">
        <ele>178.6</ele>
        <time>2022-04-03T11:53:08Z</time>
      </trkpt>
      <trkpt lat="45.84732" lon="0.74416">
        <ele>178.6</ele>
        <time>2022-04-03T11:53:09Z</time>
      </trkpt>
      <trkpt lat="45.84733" lon="0.74405">
        <ele>178.2</ele>
        <time>2022-04-03T11:53:10Z</time>
      </trkpt>
      <trkpt lat="45.84734" lon="0.74395">
        <ele>178.2</ele>
        <time>2022-04-03T11:53:11Z</time>
      </trkpt>
      <trkpt lat="45.84735" lon="0.74385">
        <ele>178</ele>
        <time>2022-04-03T11:53:12Z</time>
      </trkpt>
      <trkpt lat="45.84737" lon="0.74374">
        <ele>177.8</ele>
        <time>2022-04-03T11:53:13Z</time>
      </trkpt>
      <trkpt lat="45.84738" lon="0.74364">
        <ele>177.6</ele>
        <time>2022-04-03T11:53:14Z</time>
      </trkpt>
      <trkpt lat="45.84739" lon="0.74353">
        <ele>177.6</ele>
        <time>2022-04-03T11:53:15Z</time>
      </trkpt>
      <trkpt lat="45.8474" lon="0.74342">
        <ele>177.6</ele>
        <time>2022-04-03T11:53:16Z</time>
      </trkpt>
      <trkpt lat="45.84741" lon="0.74331">
        <ele>177.4</ele>
        <time>2022-04-03T11:53:17Z</time>
      </trkpt>
      <trkpt lat="45.84743" lon="0.7432">
        <ele>177</ele>
        <time>2022-04-03T11:53:18Z</time>
      </trkpt>
      <trkpt lat="45.84744" lon="0.74309">
        <ele>176.8</ele>
        <time>2022-04-03T11:53:19Z</time>
      </trkpt>
      <trkpt lat="45.84746" lon="0.74298">
        <ele>176.6</ele>
        <time>2022-04-03T11:53:20Z</time>
      </trkpt>
      <trkpt lat="45.84749" lon="0.74288">
        <ele>176.4</ele>
        <time>2022-04-03T11:53:21Z</time>
      </trkpt>
      <trkpt lat="45.84751" lon="0.74277">
        <ele>175.8</ele>
        <time>2022-04-03T11:53:22Z</time>
      </trkpt>
      <trkpt lat="45.84754" lon="0.74267">
        <ele>175.4</ele>
        <time>2022-04-03T11:53:23Z</time>
      </trkpt>
      <trkpt lat="45.84756" lon="0.74257">
        <ele>175.2</ele>
        <time>2022-04-03T11:53:24Z</time>
      </trkpt>
      <trkpt lat="45.84759" lon="0.74247">
        <ele>175</ele>
        <time>2022-04-03T11:53:25Z</time>
      </trkpt>
      <trkpt lat="45.84762" lon="0.74237">
        <ele>174.6</ele>
        <time>2022-04-03T11:53:26Z</time>
      </trkpt>
      <trkpt lat="45.84765" lon="0.74228">
        <ele>174</ele>
        <time>2022-04-03T11:53:27Z</time>
      </trkpt>
      <trkpt lat="45.84769" lon="0.74217">
        <ele>173.6</ele>
        <time>2022-04-03T11:53:28Z</time>
      </trkpt>
      <trkpt lat="45.84772" lon="0.74207">
        <ele>173.2</ele>
        <time>2022-04-03T11:53:29Z</time>
      </trkpt>
      <trkpt lat="45.84775" lon="0.74197">
        <ele>172.8</ele>
        <time>2022-04-03T11:53:30Z</time>
      </trkpt>
      <trkpt lat="45.84778" lon="0.74187">
        <ele>172.4</ele>
        <time>2022-04-03T11:53:31Z</time>
      </trkpt>
      <trkpt lat="45.84782" lon="0.74177">
        <ele>172.4</ele>
        <time>2022-04-03T11:53:32Z</time>
      </trkpt>
      <trkpt lat="45.84786" lon="0.74167">
        <ele>172</ele>
        <time>2022-04-03T11:53:33Z</time>
      </trkpt>
      <trkpt lat="45.8479" lon="0.74157">
        <ele>172</ele>
        <time>2022-04-03T11:53:34Z</time>
      </trkpt>
      <trkpt lat="45.84795" lon="0.74147">
        <ele>171.8</ele>
        <time>2022-04-03T11:53:35Z</time>
      </trkpt>
      <trkpt lat="45.84799" lon="0.74138">
        <ele>171.6</ele>
        <time>2022-04-03T11:53:36Z</time>
      </trkpt>
      <trkpt lat="45.84804" lon="0.74128">
        <ele>171.4</ele>
        <time>2022-04-03T11:53:37Z</time>
      </trkpt>
      <trkpt lat="45.84808" lon="0.74119">
        <ele>171.4</ele>
        <time>2022-04-03T11:53:38Z</time>
      </trkpt>
      <trkpt lat="45.84813" lon="0.7411">
        <ele>171</ele>
        <time>2022-04-03T11:53:39Z</time>
      </trkpt>
      <trkpt lat="45.84818" lon="0.74101">
        <ele>170.6</ele>
        <time>2022-04-03T11:53:40Z</time>
      </trkpt>
      <trkpt lat="45.84823" lon="0.74092">
        <ele>170.4</ele>
        <time>2022-04-03T11:53:41Z</time>
      </trkpt>
      <trkpt lat="45.84827" lon="0.74084">
        <ele>170</ele>
        <time>2022-04-03T11:53:42Z</time>
      </trkpt>
      <trkpt lat="45.84832" lon="0.74075">
        <ele>169.6</ele>
        <time>2022-04-03T11:53:43Z</time>
      </trkpt>
      <trkpt lat="45.84837" lon="0.74066">
        <ele>169.2</ele>
        <time>2022-04-03T11:53:44Z</time>
      </trkpt>
      <trkpt lat="45.84841" lon="0.74058">
        <ele>168.8</ele>
        <time>2022-04-03T11:53:45Z</time>
      </trkpt>
      <trkpt lat="45.84846" lon="0.7405">
        <ele>168.6</ele>
        <time>2022-04-03T11:53:46Z</time>
      </trkpt>
      <trkpt lat="45.84851" lon="0.74041">
        <ele>168.6</ele>
        <time>2022-04-03T11:53:47Z</time>
      </trkpt>
      <trkpt lat="45.84856" lon="0.74033">
        <ele>168</ele>
        <time>2022-04-03T11:53:48Z</time>
      </trkpt>
      <trkpt lat="45.8486" lon="0.74024">
        <ele>167.8</ele>
        <time>2022-04-03T11:53:49Z</time>
      </trkpt>
      <trkpt lat="45.84865" lon="0.74016">
        <ele>167.4</ele>
        <time>2022-04-03T11:53:50Z</time>
      </trkpt>
      <trkpt lat="45.8487" lon="0.74007">
        <ele>167.2</ele>
        <time>2022-04-03T11:53:51Z</time>
      </trkpt>
      <trkpt lat="45.84874" lon="0.73999">
        <ele>167.2</ele>
        <time>2022-04-03T11:53:52Z</time>
      </trkpt>
      <trkpt lat="45.84879" lon="0.7399">
        <ele>167</ele>
        <time>2022-04-03T11:53:53Z</time>
      </trkpt>
      <trkpt lat="45.84883" lon="0.73982">
        <ele>167</ele>
        <time>2022-04-03T11:53:54Z</time>
      </trkpt>
      <trkpt lat="45.84888" lon="0.73973">
        <ele>166.8</ele>
        <time>2022-04-03T11:53:55Z</time>
      </trkpt>
      <trkpt lat="45.84892" lon="0.73964">
        <ele>166.8</ele>
        <time>2022-04-03T11:53:56Z</time>
      </trkpt>
      <trkpt lat="45.84896" lon="0.73955">
        <ele>166.6</ele>
        <time>2022-04-03T11:53:57Z</time>
      </trkpt>
      <trkpt lat="45.849" lon="0.73946">
        <ele>166.6</ele>
        <time>2022-04-03T11:53:58Z</time>
      </trkpt>
      <trkpt lat="45.84903" lon="0.73937">
        <ele>166.6</ele>
        <time>2022-04-03T11:53:59Z</time>
      </trkpt>
      <trkpt lat="45.84907" lon="0.73928">
        <ele>166.6</ele>
        <time>2022-04-03T11:54:00Z</time>
      </trkpt>
      <trkpt lat="45.8491" lon="0.73919">
        <ele>166.6</ele>
        <time>2022-04-03T11:54:01Z</time>
      </trkpt>
      <trkpt lat="45.84914" lon="0.73911">
        <ele>166.8</ele>
        <time>2022-04-03T11:54:02Z</time>
      </trkpt>
      <trkpt lat="45.84917" lon="0.73902">
        <ele>166.6</ele>
        <time>2022-04-03T11:54:03Z</time>
      </trkpt>
      <trkpt lat="45.84921" lon="0.73894">
        <ele>166.4</ele>
        <time>2022-04-03T11:54:04Z</time>
      </trkpt>
      <trkpt lat="45.84925" lon="0.73886">
        <ele>166.8</ele>
        <time>2022-04-03T11:54:05Z</time>
      </trkpt>
      <trkpt lat="45.84928" lon="0.73878">
        <ele>166.6</ele>
        <time>2022-04-03T11:54:06Z</time>
      </trkpt>
      <trkpt lat="45.84931" lon="0.7387">
        <ele>166.6</ele>
        <time>2022-04-03T11:54:07Z</time>
      </trkpt>
      <trkpt lat="45.84935" lon="0.73862">
        <ele>166.6</ele>
        <time>2022-04-03T11:54:08Z</time>
      </trkpt>
      <trkpt lat="45.84938" lon="0.73854">
        <ele>166.4</ele>
        <time>2022-04-03T11:54:09Z</time>
      </trkpt>
      <trkpt lat="45.84942" lon="0.73846">
        <ele>166.6</ele>
        <time>2022-04-03T11:54:10Z</time>
      </trkpt>
      <trkpt lat="45.84945" lon="0.73838">
        <ele>166.6</ele>
        <time>2022-04-03T11:54:11Z</time>
      </trkpt>
      <trkpt lat="45.84948" lon="0.7383">
        <ele>166.4</ele>
        <time>2022-04-03T11:54:12Z</time>
      </trkpt>
      <trkpt lat="45.84952" lon="0.73822">
        <ele>166.6</ele>
        <time>2022-04-03T11:54:13Z</time>
      </trkpt>
      <trkpt lat="45.84955" lon="0.73814">
        <ele>166.4</ele>
        <time>2022-04-03T11:54:14Z</time>
      </trkpt>
      <trkpt lat="45.84958" lon="0.73806">
        <ele>166.6</ele>
        <time>2022-04-03T11:54:15Z</time>
      </trkpt>
      <trkpt lat="45.84962" lon="0.73798">
        <ele>166.4</ele>
        <time>2022-04-03T11:54:16Z</time>
      </trkpt>
      <trkpt lat="45.84965" lon="0.7379">
        <ele>166.6</ele>
        <time>2022-04-03T11:54:17Z</time>
      </trkpt>
      <trkpt lat="45.84968" lon="0.73783">
        <ele>166.4</ele>
        <time>2022-04-03T11:54:18Z</time>
      </trkpt>
      <trkpt lat="45.84972" lon="0.73775">
        <ele>166.6</ele>
        <time>2022-04-03T11:54:19Z</time>
      </trkpt>
      <trkpt lat="45.84975" lon="0.73767">
        <ele>166.6</ele>
        <time>2022-04-03T11:54:20Z</time>
      </trkpt>
      <trkpt lat="45.84978" lon="0.73759">
        <ele>166.6</ele>
        <time>2022-04-03T11:54:21Z</time>
      </trkpt>
      <trkpt lat="45.84982" lon="0.73752">
        <ele>166.6</ele>
        <time>2022-04-03T11:54:22Z</time>
      </trkpt>
      <trkpt lat="45.84985" lon="0.73744">
        <ele>166.6</ele>
        <time>2022-04-03T11:54:23Z</time>
      </trkpt>
      <trkpt lat="45.84988" lon="0.73737">
        <ele>166.6</ele>
        <time>2022-04-03T11:54:24Z</time>
      </trkpt>
      <trkpt lat="45.84991" lon="0.7373">
        <ele>166.6</ele>
        <time>2022-04-03T11:54:25Z</time>
      </trkpt>
      <trkpt lat="45.84995" lon="0.73723">
        <ele>166.6</ele>
        <time>2022-04-03T11:54:26Z</time>
      </trkpt>
      <trkpt lat="45.84998" lon="0.73716">
        <ele>166.6</ele>
        <time>2022-04-03T11:54:27Z</time>
      </trkpt>
      <trkpt lat="45.85002" lon="0.7371">
        <ele>166.6</ele>
        <time>2022-04-03T11:54:28Z</time>
      </trkpt>
      <trkpt lat="45.85005" lon="0.73703">
        <ele>166.8</ele>
        <time>2022-04-03T11:54:29Z</time>
      </trkpt>
      <trkpt lat="45.85009" lon="0.73696">
        <ele>166.8</ele>
        <time>2022-04-03T11:54:30Z</time>
      </trkpt>
      <trkpt lat="45.85013" lon="0.7369">
        <ele>166.8</ele>
        <time>2022-04-03T11:54:31Z</time>
      </trkpt>
      <trkpt lat="45.85016" lon="0.73683">
        <ele>166.8</ele>
        <time>2022-04-03T11:54:32Z</time>
      </trkpt>
      <trkpt lat="45.8502" lon="0.73677">
        <ele>166.8</ele>
        <time>2022-04-03T11:54:33Z</time>
      </trkpt>
      <trkpt lat="45.85024" lon="0.7367">
        <ele>166.8</ele>
        <time>2022-04-03T11:54:34Z</time>
      </trkpt>
      <trkpt lat="45.85028" lon="0.73663">
        <ele>167</ele>
        <time>2022-04-03T11:54:35Z</time>
      </trkpt>
      <trkpt lat="45.85032" lon="0.73657">
        <ele>166.6</ele>
        <time>2022-04-03T11:54:36Z</time>
      </trkpt>
      <trkpt lat="45.85036" lon="0.7365">
        <ele>166.8</ele>
        <time>2022-04-03T11:54:37Z</time>
      </trkpt>
      <trkpt lat="45.85041" lon="0.73643">
        <ele>166.8</ele>
        <time>2022-04-03T11:54:38Z</time>
      </trkpt>
      <trkpt lat="45.85045" lon="0.73636">
        <ele>166.6</ele>
        <time>2022-04-03T11:54:39Z</time>
      </trkpt>
      <trkpt lat="45.8505" lon="0.73629">
        <ele>167</ele>
        <time>2022-04-03T11:54:40Z</time>
      </trkpt>
      <trkpt lat="45.85054" lon="0.73621">
        <ele>166.8</ele>
        <time>2022-04-03T11:54:41Z</time>
      </trkpt>
      <trkpt lat="45.85058" lon="0.73614">
        <ele>166.6</ele>
        <time>2022-04-03T11:54:42Z</time>
      </trkpt>
      <trkpt lat="45.85063" lon="0.73607">
        <ele>166.6</ele>
        <time>2022-04-03T11:54:43Z</time>
      </trkpt>
      <trkpt lat="45.85067" lon="0.73599">
        <ele>166.6</ele>
        <time>2022-04-03T11:54:44Z</time>
      </trkpt>
      <trkpt lat="45.85071" lon="0.73592">
        <ele>166.4</ele>
        <time>2022-04-03T11:54:45Z</time>
      </trkpt>
      <trkpt lat="45.85075" lon="0.73585">
        <ele>166</ele>
        <time>2022-04-03T11:54:46Z</time>
      </trkpt>
      <trkpt lat="45.85078" lon="0.73577">
        <ele>165.8</ele>
        <time>2022-04-03T11:54:47Z</time>
      </trkpt>
      <trkpt lat="45.85081" lon="0.73568">
        <ele>165.6</ele>
        <time>2022-04-03T11:54:48Z</time>
      </trkpt>
      <trkpt lat="45.85082" lon="0.7356">
        <ele>165.6</ele>
        <time>2022-04-03T11:54:49Z</time>
      </trkpt>
      <trkpt lat="45.85084" lon="0.73551">
        <ele>165.2</ele>
        <time>2022-04-03T11:54:50Z</time>
      </trkpt>
      <trkpt lat="45.85088" lon="0.73543">
        <ele>165</ele>
        <time>2022-04-03T11:54:51Z</time>
      </trkpt>
      <trkpt lat="45.85092" lon="0.73535">
        <ele>164.6</ele>
        <time>2022-04-03T11:54:52Z</time>
      </trkpt>
      <trkpt lat="45.85097" lon="0.73531">
        <ele>164.6</ele>
        <time>2022-04-03T11:54:53Z</time>
      </trkpt>
      <trkpt lat="45.85102" lon="0.73528">
        <ele>164.4</ele>
        <time>2022-04-03T11:54:54Z</time>
      </trkpt>
      <trkpt lat="45.85108" lon="0.73525">
        <ele>164.4</ele>
        <time>2022-04-03T11:54:55Z</time>
      </trkpt>
      <trkpt lat="45.85114" lon="0.73523">
        <ele>164.2</ele>
        <time>2022-04-03T11:54:56Z</time>
      </trkpt>
      <trkpt lat="45.85119" lon="0.7352">
        <ele>164.2</ele>
        <time>2022-04-03T11:54:57Z</time>
      </trkpt>
      <trkpt lat="45.85124" lon="0.73517">
        <ele>164.2</ele>
        <time>2022-04-03T11:54:58Z</time>
      </trkpt>
      <trkpt lat="45.85129" lon="0.73514">
        <ele>164.2</ele>
        <time>2022-04-03T11:54:59Z</time>
      </trkpt>
      <trkpt lat="45.85134" lon="0.7351">
        <ele>164.2</ele>
        <time>2022-04-03T11:55:00Z</time>
      </trkpt>
      <trkpt lat="45.85138" lon="0.73506">
        <ele>164.2</ele>
        <time>2022-04-03T11:55:01Z</time>
      </trkpt>
      <trkpt lat="45.85143" lon="0.73501">
        <ele>164.2</ele>
        <time>2022-04-03T11:55:02Z</time>
      </trkpt>
      <trkpt lat="45.85147" lon="0.73497">
        <ele>164.2</ele>
        <time>2022-04-03T11:55:03Z</time>
      </trkpt>
      <trkpt lat="45.85151" lon="0.73493">
        <ele>164.2</ele>
        <time>2022-04-03T11:55:04Z</time>
      </trkpt>
      <trkpt lat="45.85155" lon="0.73488">
        <ele>164.2</ele>
        <time>2022-04-03T11:55:05Z</time>
      </trkpt>
      <trkpt lat="45.85159" lon="0.73484">
        <ele>164.4</ele>
        <time>2022-04-03T11:55:06Z</time>
      </trkpt>
      <trkpt lat="45.85163" lon="0.73479">
        <ele>164.8</ele>
        <time>2022-04-03T11:55:07Z</time>
      </trkpt>
      <trkpt lat="45.85166" lon="0.73474">
        <ele>164.8</ele>
        <time>2022-04-03T11:55:08Z</time>
      </trkpt>
      <trkpt lat="45.85169" lon="0.73468">
        <ele>164.8</ele>
        <time>2022-04-03T11:55:09Z</time>
      </trkpt>
      <trkpt lat="45.85173" lon="0.73463">
        <ele>165</ele>
        <time>2022-04-03T11:55:10Z</time>
      </trkpt>
      <trkpt lat="45.85176" lon="0.73457">
        <ele>165.2</ele>
        <time>2022-04-03T11:55:11Z</time>
      </trkpt>
      <trkpt lat="45.8518" lon="0.73451">
        <ele>165.2</ele>
        <time>2022-04-03T11:55:12Z</time>
      </trkpt>
      <trkpt lat="45.85183" lon="0.73445">
        <ele>165.4</ele>
        <time>2022-04-03T11:55:13Z</time>
      </trkpt>
      <trkpt lat="45.85186" lon="0.73438">
        <ele>165.6</ele>
        <time>2022-04-03T11:55:14Z</time>
      </trkpt>
      <trkpt lat="45.85189" lon="0.73432">
        <ele>165.6</ele>
        <time>2022-04-03T11:55:15Z</time>
      </trkpt>
      <trkpt lat="45.85193" lon="0.73426">
        <ele>165.4</ele>
        <time>2022-04-03T11:55:16Z</time>
      </trkpt>
      <trkpt lat="45.85196" lon="0.7342">
        <ele>165.4</ele>
        <time>2022-04-03T11:55:17Z</time>
      </trkpt>
      <trkpt lat="45.852" lon="0.73414">
        <ele>165.6</ele>
        <time>2022-04-03T11:55:18Z</time>
      </trkpt>
      <trkpt lat="45.85204" lon="0.73407">
        <ele>165.4</ele>
        <time>2022-04-03T11:55:19Z</time>
      </trkpt>
      <trkpt lat="45.85207" lon="0.73401">
        <ele>165.6</ele>
        <time>2022-04-03T11:55:20Z</time>
      </trkpt>
      <trkpt lat="45.85211" lon="0.73395">
        <ele>165.6</ele>
        <time>2022-04-03T11:55:21Z</time>
      </trkpt>
      <trkpt lat="45.85215" lon="0.73389">
        <ele>165.6</ele>
        <time>2022-04-03T11:55:22Z</time>
      </trkpt>
      <trkpt lat="45.85218" lon="0.73382">
        <ele>165.6</ele>
        <time>2022-04-03T11:55:23Z</time>
      </trkpt>
      <trkpt lat="45.85222" lon="0.73376">
        <ele>165.4</ele>
        <time>2022-04-03T11:55:24Z</time>
      </trkpt>
      <trkpt lat="45.85226" lon="0.7337">
        <ele>165.6</ele>
        <time>2022-04-03T11:55:25Z</time>
      </trkpt>
      <trkpt lat="45.8523" lon="0.73363">
        <ele>165.4</ele>
        <time>2022-04-03T11:55:26Z</time>
      </trkpt>
      <trkpt lat="45.85234" lon="0.73357">
        <ele>165.4</ele>
        <time>2022-04-03T11:55:27Z</time>
      </trkpt>
      <trkpt lat="45.85238" lon="0.7335">
        <ele>165.4</ele>
        <time>2022-04-03T11:55:28Z</time>
      </trkpt>
      <trkpt lat="45.85241" lon="0.73344">
        <ele>165.2</ele>
        <time>2022-04-03T11:55:29Z</time>
      </trkpt>
      <trkpt lat="45.85245" lon="0.73337">
        <ele>165.2</ele>
        <time>2022-04-03T11:55:30Z</time>
      </trkpt>
      <trkpt lat="45.85249" lon="0.73331">
        <ele>165.2</ele>
        <time>2022-04-03T11:55:31Z</time>
      </trkpt>
      <trkpt lat="45.85252" lon="0.73324">
        <ele>165</ele>
        <time>2022-04-03T11:55:32Z</time>
      </trkpt>
      <trkpt lat="45.85256" lon="0.73318">
        <ele>165.2</ele>
        <time>2022-04-03T11:55:33Z</time>
      </trkpt>
      <trkpt lat="45.8526" lon="0.73312">
        <ele>165.2</ele>
        <time>2022-04-03T11:55:34Z</time>
      </trkpt>
      <trkpt lat="45.85263" lon="0.73306">
        <ele>165.2</ele>
        <time>2022-04-03T11:55:35Z</time>
      </trkpt>
      <trkpt lat="45.85267" lon="0.733">
        <ele>165.2</ele>
        <time>2022-04-03T11:55:36Z</time>
      </trkpt>
      <trkpt lat="45.8527" lon="0.73294">
        <ele>165.2</ele>
        <time>2022-04-03T11:55:37Z</time>
      </trkpt>
      <trkpt lat="45.85274" lon="0.73288">
        <ele>165.2</ele>
        <time>2022-04-03T11:55:38Z</time>
      </trkpt>
      <trkpt lat="45.85277" lon="0.73283">
        <ele>165</ele>
        <time>2022-04-03T11:55:39Z</time>
      </trkpt>
      <trkpt lat="45.8528" lon="0.73278">
        <ele>165.2</ele>
        <time>2022-04-03T11:55:40Z</time>
      </trkpt>
      <trkpt lat="45.85284" lon="0.73273">
        <ele>165.4</ele>
        <time>2022-04-03T11:55:41Z</time>
      </trkpt>
      <trkpt lat="45.85287" lon="0.73268">
        <ele>165.4</ele>
        <time>2022-04-03T11:55:42Z</time>
      </trkpt>
      <trkpt lat="45.85289" lon="0.73263">
        <ele>165.4</ele>
        <time>2022-04-03T11:55:43Z</time>
      </trkpt>
      <trkpt lat="45.85292" lon="0.73258">
        <ele>165.4</ele>
        <time>2022-04-03T11:55:44Z</time>
      </trkpt>
      <trkpt lat="45.85295" lon="0.73253">
        <ele>165.6</ele>
        <time>2022-04-03T11:55:45Z</time>
      </trkpt>
      <trkpt lat="45.85297" lon="0.73248">
        <ele>165.6</ele>
        <time>2022-04-03T11:55:46Z</time>
      </trkpt>
      <trkpt lat="45.853" lon="0.73244">
        <ele>165.4</ele>
        <time>2022-04-03T11:55:47Z</time>
      </trkpt>
      <trkpt lat="45.85303" lon="0.73239">
        <ele>165.4</ele>
        <time>2022-04-03T11:55:48Z</time>
      </trkpt>
      <trkpt lat="45.85305" lon="0.73235">
        <ele>165.8</ele>
        <time>2022-04-03T11:55:49Z</time>
      </trkpt>
      <trkpt lat="45.85308" lon="0.73231">
        <ele>166.4</ele>
        <time>2022-04-03T11:55:50Z</time>
      </trkpt>
      <trkpt lat="45.8531" lon="0.73226">
        <ele>166.6</ele>
        <time>2022-04-03T11:55:51Z</time>
      </trkpt>
      <trkpt lat="45.85313" lon="0.73222">
        <ele>166.8</ele>
        <time>2022-04-03T11:55:52Z</time>
      </trkpt>
      <trkpt lat="45.85318" lon="0.73213">
        <ele>167</ele>
        <time>2022-04-03T11:55:53Z</time>
      </trkpt>
      <trkpt lat="45.85318" lon="0.73213">
        <ele>167.4</ele>
        <time>2022-04-03T11:55:54Z</time>
      </trkpt>
      <trkpt lat="45.85321" lon="0.73209">
        <ele>167.4</ele>
        <time>2022-04-03T11:55:55Z</time>
      </trkpt>
      <trkpt lat="45.85323" lon="0.73206">
        <ele>167.6</ele>
        <time>2022-04-03T11:55:56Z</time>
      </trkpt>
      <trkpt lat="45.85326" lon="0.73202">
        <ele>167.8</ele>
        <time>2022-04-03T11:55:57Z</time>
      </trkpt>
      <trkpt lat="45.85329" lon="0.73198">
        <ele>168</ele>
        <time>2022-04-03T11:55:58Z</time>
      </trkpt>
      <trkpt lat="45.85332" lon="0.73195">
        <ele>168.2</ele>
        <time>2022-04-03T11:55:59Z</time>
      </trkpt>
      <trkpt lat="45.85335" lon="0.73192">
        <ele>168.2</ele>
        <time>2022-04-03T11:56:00Z</time>
      </trkpt>
      <trkpt lat="45.85338" lon="0.73188">
        <ele>168.4</ele>
        <time>2022-04-03T11:56:01Z</time>
      </trkpt>
      <trkpt lat="45.85342" lon="0.73185">
        <ele>168.4</ele>
        <time>2022-04-03T11:56:02Z</time>
      </trkpt>
      <trkpt lat="45.85345" lon="0.73182">
        <ele>168.6</ele>
        <time>2022-04-03T11:56:03Z</time>
      </trkpt>
      <trkpt lat="45.85348" lon="0.73179">
        <ele>169</ele>
        <time>2022-04-03T11:56:04Z</time>
      </trkpt>
      <trkpt lat="45.85351" lon="0.73177">
        <ele>169</ele>
        <time>2022-04-03T11:56:05Z</time>
      </trkpt>
      <trkpt lat="45.85354" lon="0.73174">
        <ele>169</ele>
        <time>2022-04-03T11:56:06Z</time>
      </trkpt>
      <trkpt lat="45.85357" lon="0.73171">
        <ele>169</ele>
        <time>2022-04-03T11:56:07Z</time>
      </trkpt>
      <trkpt lat="45.8536" lon="0.73168">
        <ele>169.2</ele>
        <time>2022-04-03T11:56:08Z</time>
      </trkpt>
      <trkpt lat="45.85364" lon="0.73166">
        <ele>169.2</ele>
        <time>2022-04-03T11:56:09Z</time>
      </trkpt>
      <trkpt lat="45.8537" lon="0.73161">
        <ele>169.2</ele>
        <time>2022-04-03T11:56:10Z</time>
      </trkpt>
      <trkpt lat="45.8537" lon="0.73161">
        <ele>169.4</ele>
        <time>2022-04-03T11:56:11Z</time>
      </trkpt>
      <trkpt lat="45.85373" lon="0.73159">
        <ele>169.4</ele>
        <time>2022-04-03T11:56:12Z</time>
      </trkpt>
      <trkpt lat="45.85376" lon="0.73157">
        <ele>169.6</ele>
        <time>2022-04-03T11:56:13Z</time>
      </trkpt>
      <trkpt lat="45.8538" lon="0.73155">
        <ele>169.8</ele>
        <time>2022-04-03T11:56:14Z</time>
      </trkpt>
      <trkpt lat="45.85383" lon="0.73153">
        <ele>169.8</ele>
        <time>2022-04-03T11:56:15Z</time>
      </trkpt>
      <trkpt lat="45.85386" lon="0.73152">
        <ele>170</ele>
        <time>2022-04-03T11:56:16Z</time>
      </trkpt>
      <trkpt lat="45.85389" lon="0.7315">
        <ele>170</ele>
        <time>2022-04-03T11:56:17Z</time>
      </trkpt>
      <trkpt lat="45.85392" lon="0.73148">
        <ele>170</ele>
        <time>2022-04-03T11:56:18Z</time>
      </trkpt>
      <trkpt lat="45.85395" lon="0.73146">
        <ele>170.2</ele>
        <time>2022-04-03T11:56:19Z</time>
      </trkpt>
      <trkpt lat="45.85397" lon="0.73144">
        <ele>170.4</ele>
        <time>2022-04-03T11:56:20Z</time>
      </trkpt>
      <trkpt lat="45.854" lon="0.73142">
        <ele>170.4</ele>
        <time>2022-04-03T11:56:21Z</time>
      </trkpt>
      <trkpt lat="45.85403" lon="0.7314">
        <ele>170.4</ele>
        <time>2022-04-03T11:56:22Z</time>
      </trkpt>
      <trkpt lat="45.85406" lon="0.73138">
        <ele>170.4</ele>
        <time>2022-04-03T11:56:23Z</time>
      </trkpt>
      <trkpt lat="45.85409" lon="0.73136">
        <ele>170.4</ele>
        <time>2022-04-03T11:56:24Z</time>
      </trkpt>
      <trkpt lat="45.85415" lon="0.73133">
        <ele>170.6</ele>
        <time>2022-04-03T11:56:25Z</time>
      </trkpt>
      <trkpt lat="45.85415" lon="0.73133">
        <ele>170.6</ele>
        <time>2022-04-03T11:56:26Z</time>
      </trkpt>
      <trkpt lat="45.85418" lon="0.7313">
        <ele>170.6</ele>
        <time>2022-04-03T11:56:27Z</time>
      </trkpt>
      <trkpt lat="45.85421" lon="0.73128">
        <ele>170.8</ele>
        <time>2022-04-03T11:56:28Z</time>
      </trkpt>
      <trkpt lat="45.85424" lon="0.73126">
        <ele>171</ele>
        <time>2022-04-03T11:56:29Z</time>
      </trkpt>
      <trkpt lat="45.85427" lon="0.73124">
        <ele>171.2</ele>
        <time>2022-04-03T11:56:30Z</time>
      </trkpt>
      <trkpt lat="45.8543" lon="0.73121">
        <ele>171</ele>
        <time>2022-04-03T11:56:31Z</time>
      </trkpt>
      <trkpt lat="45.85434" lon="0.73119">
        <ele>171.2</ele>
        <time>2022-04-03T11:56:32Z</time>
      </trkpt>
      <trkpt lat="45.85437" lon="0.73117">
        <ele>171.2</ele>
        <time>2022-04-03T11:56:33Z</time>
      </trkpt>
      <trkpt lat="45.8544" lon="0.73115">
        <ele>171.2</ele>
        <time>2022-04-03T11:56:34Z</time>
      </trkpt>
      <trkpt lat="45.85444" lon="0.73112">
        <ele>171.4</ele>
        <time>2022-04-03T11:56:35Z</time>
      </trkpt>
      <trkpt lat="45.85448" lon="0.7311">
        <ele>171.4</ele>
        <time>2022-04-03T11:56:36Z</time>
      </trkpt>
      <trkpt lat="45.85451" lon="0.73107">
        <ele>171.4</ele>
        <time>2022-04-03T11:56:37Z</time>
      </trkpt>
      <trkpt lat="45.85459" lon="0.73103">
        <ele>171.4</ele>
        <time>2022-04-03T11:56:38Z</time>
      </trkpt>
      <trkpt lat="45.85459" lon="0.73103">
        <ele>171.4</ele>
        <time>2022-04-03T11:56:39Z</time>
      </trkpt>
      <trkpt lat="45.85463" lon="0.731">
        <ele>171.4</ele>
        <time>2022-04-03T11:56:40Z</time>
      </trkpt>
      <trkpt lat="45.85467" lon="0.73098">
        <ele>171.4</ele>
        <time>2022-04-03T11:56:41Z</time>
      </trkpt>
      <trkpt lat="45.85471" lon="0.73096">
        <ele>171.2</ele>
        <time>2022-04-03T11:56:42Z</time>
      </trkpt>
      <trkpt lat="45.85475" lon="0.73093">
        <ele>171.2</ele>
        <time>2022-04-03T11:56:43Z</time>
      </trkpt>
      <trkpt lat="45.85478" lon="0.7309">
        <ele>171.2</ele>
        <time>2022-04-03T11:56:44Z</time>
      </trkpt>
      <trkpt lat="45.85482" lon="0.73087">
        <ele>171.2</ele>
        <time>2022-04-03T11:56:45Z</time>
      </trkpt>
      <trkpt lat="45.85489" lon="0.73081">
        <ele>171.2</ele>
        <time>2022-04-03T11:56:46Z</time>
      </trkpt>
      <trkpt lat="45.85489" lon="0.73081">
        <ele>171.2</ele>
        <time>2022-04-03T11:56:47Z</time>
      </trkpt>
      <trkpt lat="45.85493" lon="0.73078">
        <ele>171.2</ele>
        <time>2022-04-03T11:56:48Z</time>
      </trkpt>
      <trkpt lat="45.85497" lon="0.73075">
        <ele>171</ele>
        <time>2022-04-03T11:56:49Z</time>
      </trkpt>
      <trkpt lat="45.85501" lon="0.73071">
        <ele>171</ele>
        <time>2022-04-03T11:56:50Z</time>
      </trkpt>
      <trkpt lat="45.85504" lon="0.73068">
        <ele>171</ele>
        <time>2022-04-03T11:56:51Z</time>
      </trkpt>
      <trkpt lat="45.85508" lon="0.73064">
        <ele>171.2</ele>
        <time>2022-04-03T11:56:52Z</time>
      </trkpt>
      <trkpt lat="45.85512" lon="0.73061">
        <ele>171</ele>
        <time>2022-04-03T11:56:53Z</time>
      </trkpt>
      <trkpt lat="45.85516" lon="0.73057">
        <ele>171</ele>
        <time>2022-04-03T11:56:54Z</time>
      </trkpt>
      <trkpt lat="45.8552" lon="0.73053">
        <ele>171</ele>
        <time>2022-04-03T11:56:55Z</time>
      </trkpt>
      <trkpt lat="45.85523" lon="0.73049">
        <ele>171</ele>
        <time>2022-04-03T11:56:56Z</time>
      </trkpt>
      <trkpt lat="45.85527" lon="0.73045">
        <ele>171</ele>
        <time>2022-04-03T11:56:57Z</time>
      </trkpt>
      <trkpt lat="45.85531" lon="0.73041">
        <ele>171.2</ele>
        <time>2022-04-03T11:56:58Z</time>
      </trkpt>
      <trkpt lat="45.85535" lon="0.73037">
        <ele>171</ele>
        <time>2022-04-03T11:56:59Z</time>
      </trkpt>
      <trkpt lat="45.85539" lon="0.73033">
        <ele>171.2</ele>
        <time>2022-04-03T11:57:00Z</time>
      </trkpt>
      <trkpt lat="45.85542" lon="0.73029">
        <ele>171.2</ele>
        <time>2022-04-03T11:57:01Z</time>
      </trkpt>
      <trkpt lat="45.85546" lon="0.73024">
        <ele>171.2</ele>
        <time>2022-04-03T11:57:02Z</time>
      </trkpt>
      <trkpt lat="45.8555" lon="0.7302">
        <ele>171</ele>
        <time>2022-04-03T11:57:03Z</time>
      </trkpt>
      <trkpt lat="45.85555" lon="0.73016">
        <ele>171</ele>
        <time>2022-04-03T11:57:04Z</time>
      </trkpt>
      <trkpt lat="45.85559" lon="0.73012">
        <ele>171.2</ele>
        <time>2022-04-03T11:57:05Z</time>
      </trkpt>
      <trkpt lat="45.85562" lon="0.73008">
        <ele>171</ele>
        <time>2022-04-03T11:57:06Z</time>
      </trkpt>
      <trkpt lat="45.85566" lon="0.73003">
        <ele>171</ele>
        <time>2022-04-03T11:57:07Z</time>
      </trkpt>
      <trkpt lat="45.8557" lon="0.72999">
        <ele>171</ele>
        <time>2022-04-03T11:57:08Z</time>
      </trkpt>
      <trkpt lat="45.85573" lon="0.72994">
        <ele>170.8</ele>
        <time>2022-04-03T11:57:09Z</time>
      </trkpt>
      <trkpt lat="45.85577" lon="0.7299">
        <ele>170.8</ele>
        <time>2022-04-03T11:57:10Z</time>
      </trkpt>
      <trkpt lat="45.85581" lon="0.72985">
        <ele>170.8</ele>
        <time>2022-04-03T11:57:11Z</time>
      </trkpt>
      <trkpt lat="45.85585" lon="0.72981">
        <ele>170.6</ele>
        <time>2022-04-03T11:57:12Z</time>
      </trkpt>
      <trkpt lat="45.85588" lon="0.72976">
        <ele>170.8</ele>
        <time>2022-04-03T11:57:13Z</time>
      </trkpt>
      <trkpt lat="45.85592" lon="0.72972">
        <ele>170.6</ele>
        <time>2022-04-03T11:57:14Z</time>
      </trkpt>
      <trkpt lat="45.85596" lon="0.72967">
        <ele>170.6</ele>
        <time>2022-04-03T11:57:15Z</time>
      </trkpt>
      <trkpt lat="45.856" lon="0.72963">
        <ele>170.4</ele>
        <time>2022-04-03T11:57:16Z</time>
      </trkpt>
      <trkpt lat="45.85604" lon="0.72958">
        <ele>170.6</ele>
        <time>2022-04-03T11:57:17Z</time>
      </trkpt>
      <trkpt lat="45.85607" lon="0.72953">
        <ele>170.6</ele>
        <time>2022-04-03T11:57:18Z</time>
      </trkpt>
      <trkpt lat="45.85611" lon="0.72949">
        <ele>170.6</ele>
        <time>2022-04-03T11:57:19Z</time>
      </trkpt>
      <trkpt lat="45.85615" lon="0.72945">
        <ele>170.6</ele>
        <time>2022-04-03T11:57:20Z</time>
      </trkpt>
      <trkpt lat="45.85619" lon="0.7294">
        <ele>170.6</ele>
        <time>2022-04-03T11:57:21Z</time>
      </trkpt>
      <trkpt lat="45.85623" lon="0.72936">
        <ele>170.8</ele>
        <time>2022-04-03T11:57:22Z</time>
      </trkpt>
      <trkpt lat="45.85627" lon="0.72931">
        <ele>170.6</ele>
        <time>2022-04-03T11:57:23Z</time>
      </trkpt>
      <trkpt lat="45.85631" lon="0.72926">
        <ele>170.6</ele>
        <time>2022-04-03T11:57:24Z</time>
      </trkpt>
      <trkpt lat="45.85635" lon="0.72922">
        <ele>170.6</ele>
        <time>2022-04-03T11:57:25Z</time>
      </trkpt>
      <trkpt lat="45.85638" lon="0.72917">
        <ele>170.6</ele>
        <time>2022-04-03T11:57:26Z</time>
      </trkpt>
      <trkpt lat="45.85642" lon="0.72912">
        <ele>170.8</ele>
        <time>2022-04-03T11:57:27Z</time>
      </trkpt>
      <trkpt lat="45.85646" lon="0.72907">
        <ele>170.8</ele>
        <time>2022-04-03T11:57:28Z</time>
      </trkpt>
      <trkpt lat="45.85651" lon="0.72903">
        <ele>170.8</ele>
        <time>2022-04-03T11:57:29Z</time>
      </trkpt>
      <trkpt lat="45.85655" lon="0.72898">
        <ele>170.8</ele>
        <time>2022-04-03T11:57:30Z</time>
      </trkpt>
      <trkpt lat="45.85659" lon="0.72894">
        <ele>170.8</ele>
        <time>2022-04-03T11:57:31Z</time>
      </trkpt>
      <trkpt lat="45.85663" lon="0.72889">
        <ele>170.8</ele>
        <time>2022-04-03T11:57:32Z</time>
      </trkpt>
      <trkpt lat="45.85666" lon="0.72884">
        <ele>170.8</ele>
        <time>2022-04-03T11:57:33Z</time>
      </trkpt>
      <trkpt lat="45.8567" lon="0.72879">
        <ele>170.8</ele>
        <time>2022-04-03T11:57:34Z</time>
      </trkpt>
      <trkpt lat="45.85674" lon="0.72874">
        <ele>170.8</ele>
        <time>2022-04-03T11:57:35Z</time>
      </trkpt>
      <trkpt lat="45.85678" lon="0.7287">
        <ele>170.8</ele>
        <time>2022-04-03T11:57:36Z</time>
      </trkpt>
      <trkpt lat="45.85682" lon="0.72865">
        <ele>170.6</ele>
        <time>2022-04-03T11:57:37Z</time>
      </trkpt>
      <trkpt lat="45.8569" lon="0.72856">
        <ele>170.6</ele>
        <time>2022-04-03T11:57:38Z</time>
      </trkpt>
      <trkpt lat="45.85694" lon="0.72852">
        <ele>170.6</ele>
        <time>2022-04-03T11:57:39Z</time>
      </trkpt>
      <trkpt lat="45.85694" lon="0.72852">
        <ele>170.4</ele>
        <time>2022-04-03T11:57:40Z</time>
      </trkpt>
      <trkpt lat="45.85702" lon="0.72844">
        <ele>170.4</ele>
        <time>2022-04-03T11:57:41Z</time>
      </trkpt>
      <trkpt lat="45.85706" lon="0.7284">
        <ele>170.4</ele>
        <time>2022-04-03T11:57:42Z</time>
      </trkpt>
      <trkpt lat="45.85706" lon="0.7284">
        <ele>170.2</ele>
        <time>2022-04-03T11:57:43Z</time>
      </trkpt>
      <trkpt lat="45.85714" lon="0.72831">
        <ele>170.2</ele>
        <time>2022-04-03T11:57:44Z</time>
      </trkpt>
      <trkpt lat="45.85718" lon="0.72827">
        <ele>170.2</ele>
        <time>2022-04-03T11:57:45Z</time>
      </trkpt>
      <trkpt lat="45.85722" lon="0.72823">
        <ele>170</ele>
        <time>2022-04-03T11:57:46Z</time>
      </trkpt>
      <trkpt lat="45.85725" lon="0.72819">
        <ele>169.8</ele>
        <time>2022-04-03T11:57:47Z</time>
      </trkpt>
      <trkpt lat="45.85729" lon="0.72816">
        <ele>170</ele>
        <time>2022-04-03T11:57:48Z</time>
      </trkpt>
      <trkpt lat="45.85729" lon="0.72816">
        <ele>169.8</ele>
        <time>2022-04-03T11:57:49Z</time>
      </trkpt>
      <trkpt lat="45.85732" lon="0.72812">
        <ele>169.8</ele>
        <time>2022-04-03T11:57:50Z</time>
      </trkpt>
      <trkpt lat="45.85739" lon="0.72805">
        <ele>169.8</ele>
        <time>2022-04-03T11:57:51Z</time>
      </trkpt>
      <trkpt lat="45.85739" lon="0.72805">
        <ele>169.8</ele>
        <time>2022-04-03T11:57:52Z</time>
      </trkpt>
      <trkpt lat="45.85743" lon="0.72802">
        <ele>169.8</ele>
        <time>2022-04-03T11:57:53Z</time>
      </trkpt>
      <trkpt lat="45.8575" lon="0.72797">
        <ele>169.8</ele>
        <time>2022-04-03T11:57:54Z</time>
      </trkpt>
      <trkpt lat="45.85753" lon="0.72794">
        <ele>170</ele>
        <time>2022-04-03T11:57:55Z</time>
      </trkpt>
      <trkpt lat="45.85753" lon="0.72794">
        <ele>170</ele>
        <time>2022-04-03T11:57:56Z</time>
      </trkpt>
      <trkpt lat="45.85757" lon="0.72791">
        <ele>170.2</ele>
        <time>2022-04-03T11:57:57Z</time>
      </trkpt>
      <trkpt lat="45.85764" lon="0.72786">
        <ele>170.2</ele>
        <time>2022-04-03T11:57:58Z</time>
      </trkpt>
      <trkpt lat="45.85768" lon="0.72784">
        <ele>170.6</ele>
        <time>2022-04-03T11:57:59Z</time>
      </trkpt>
      <trkpt lat="45.85771" lon="0.72782">
        <ele>170.6</ele>
        <time>2022-04-03T11:58:00Z</time>
      </trkpt>
      <trkpt lat="45.85775" lon="0.7278">
        <ele>170.8</ele>
        <time>2022-04-03T11:58:01Z</time>
      </trkpt>
      <trkpt lat="45.85778" lon="0.72778">
        <ele>170.8</ele>
        <time>2022-04-03T11:58:02Z</time>
      </trkpt>
      <trkpt lat="45.85781" lon="0.72776">
        <ele>170.8</ele>
        <time>2022-04-03T11:58:03Z</time>
      </trkpt>
      <trkpt lat="45.85784" lon="0.72774">
        <ele>171</ele>
        <time>2022-04-03T11:58:04Z</time>
      </trkpt>
      <trkpt lat="45.85787" lon="0.72772">
        <ele>171</ele>
        <time>2022-04-03T11:58:05Z</time>
      </trkpt>
      <trkpt lat="45.85789" lon="0.7277">
        <ele>171.2</ele>
        <time>2022-04-03T11:58:06Z</time>
      </trkpt>
      <trkpt lat="45.85792" lon="0.72768">
        <ele>171.2</ele>
        <time>2022-04-03T11:58:07Z</time>
      </trkpt>
      <trkpt lat="45.85794" lon="0.72766">
        <ele>171.4</ele>
        <time>2022-04-03T11:58:08Z</time>
      </trkpt>
      <trkpt lat="45.85794" lon="0.72766">
        <ele>171.4</ele>
        <time>2022-04-03T11:58:09Z</time>
      </trkpt>
      <trkpt lat="45.858" lon="0.72765">
        <ele>171.6</ele>
        <time>2022-04-03T11:58:10Z</time>
      </trkpt>
      <trkpt lat="45.858" lon="0.72765">
        <ele>171.8</ele>
        <time>2022-04-03T11:58:11Z</time>
      </trkpt>
      <trkpt lat="45.85805" lon="0.72762">
        <ele>172</ele>
        <time>2022-04-03T11:58:12Z</time>
      </trkpt>
      <trkpt lat="45.85805" lon="0.72762">
        <ele>172.2</ele>
        <time>2022-04-03T11:58:13Z</time>
      </trkpt>
      <trkpt lat="45.85807" lon="0.72761">
        <ele>172.4</ele>
        <time>2022-04-03T11:58:14Z</time>
      </trkpt>
      <trkpt lat="45.85811" lon="0.72759">
        <ele>172.6</ele>
        <time>2022-04-03T11:58:15Z</time>
      </trkpt>
      <trkpt lat="45.85813" lon="0.72758">
        <ele>172.6</ele>
        <time>2022-04-03T11:58:16Z</time>
      </trkpt>
      <trkpt lat="45.85816" lon="0.72757">
        <ele>172.6</ele>
        <time>2022-04-03T11:58:17Z</time>
      </trkpt>
      <trkpt lat="45.85818" lon="0.72755">
        <ele>172.8</ele>
        <time>2022-04-03T11:58:18Z</time>
      </trkpt>
      <trkpt lat="45.8582" lon="0.72754">
        <ele>172.8</ele>
        <time>2022-04-03T11:58:19Z</time>
      </trkpt>
      <trkpt lat="45.8582" lon="0.72754">
        <ele>173</ele>
        <time>2022-04-03T11:58:20Z</time>
      </trkpt>
      <trkpt lat="45.85826" lon="0.72752">
        <ele>173.2</ele>
        <time>2022-04-03T11:58:21Z</time>
      </trkpt>
      <trkpt lat="45.85828" lon="0.72751">
        <ele>173.4</ele>
        <time>2022-04-03T11:58:22Z</time>
      </trkpt>
      <trkpt lat="45.8583" lon="0.7275">
        <ele>174</ele>
        <time>2022-04-03T11:58:23Z</time>
      </trkpt>
      <trkpt lat="45.85833" lon="0.72748">
        <ele>174.2</ele>
        <time>2022-04-03T11:58:24Z</time>
      </trkpt>
      <trkpt lat="45.85833" lon="0.72748">
        <ele>174.4</ele>
        <time>2022-04-03T11:58:25Z</time>
      </trkpt>
      <trkpt lat="45.85838" lon="0.72746">
        <ele>174.6</ele>
        <time>2022-04-03T11:58:26Z</time>
      </trkpt>
      <trkpt lat="45.8584" lon="0.72746">
        <ele>174.8</ele>
        <time>2022-04-03T11:58:27Z</time>
      </trkpt>
      <trkpt lat="45.85843" lon="0.72745">
        <ele>175</ele>
        <time>2022-04-03T11:58:28Z</time>
      </trkpt>
      <trkpt lat="45.85846" lon="0.72744">
        <ele>175.2</ele>
        <time>2022-04-03T11:58:29Z</time>
      </trkpt>
      <trkpt lat="45.85848" lon="0.72743">
        <ele>175.4</ele>
        <time>2022-04-03T11:58:30Z</time>
      </trkpt>
      <trkpt lat="45.8585" lon="0.72742">
        <ele>175.2</ele>
        <time>2022-04-03T11:58:31Z</time>
      </trkpt>
      <trkpt lat="45.85853" lon="0.72741">
        <ele>175.4</ele>
        <time>2022-04-03T11:58:32Z</time>
      </trkpt>
      <trkpt lat="45.85855" lon="0.7274">
        <ele>175.6</ele>
        <time>2022-04-03T11:58:33Z</time>
      </trkpt>
      <trkpt lat="45.85858" lon="0.72739">
        <ele>176</ele>
        <time>2022-04-03T11:58:34Z</time>
      </trkpt>
      <trkpt lat="45.8586" lon="0.72738">
        <ele>176</ele>
        <time>2022-04-03T11:58:35Z</time>
      </trkpt>
      <trkpt lat="45.85863" lon="0.72737">
        <ele>176</ele>
        <time>2022-04-03T11:58:36Z</time>
      </trkpt>
      <trkpt lat="45.85865" lon="0.72736">
        <ele>176.2</ele>
        <time>2022-04-03T11:58:37Z</time>
      </trkpt>
      <trkpt lat="45.85868" lon="0.72736">
        <ele>176.2</ele>
        <time>2022-04-03T11:58:38Z</time>
      </trkpt>
      <trkpt lat="45.8587" lon="0.72735">
        <ele>176.4</ele>
        <time>2022-04-03T11:58:39Z</time>
      </trkpt>
      <trkpt lat="45.85873" lon="0.72734">
        <ele>176.4</ele>
        <time>2022-04-03T11:58:40Z</time>
      </trkpt>
      <trkpt lat="45.85875" lon="0.72733">
        <ele>176.4</ele>
        <time>2022-04-03T11:58:41Z</time>
      </trkpt>
      <trkpt lat="45.85878" lon="0.72732">
        <ele>176.6</ele>
        <time>2022-04-03T11:58:42Z</time>
      </trkpt>
      <trkpt lat="45.8588" lon="0.72731">
        <ele>176.8</ele>
        <time>2022-04-03T11:58:43Z</time>
      </trkpt>
      <trkpt lat="45.85882" lon="0.72731">
        <ele>176.6</ele>
        <time>2022-04-03T11:58:44Z</time>
      </trkpt>
      <trkpt lat="45.85885" lon="0.7273">
        <ele>176.8</ele>
        <time>2022-04-03T11:58:45Z</time>
      </trkpt>
      <trkpt lat="45.85887" lon="0.72729">
        <ele>176.8</ele>
        <time>2022-04-03T11:58:46Z</time>
      </trkpt>
      <trkpt lat="45.8589" lon="0.72728">
        <ele>177.2</ele>
        <time>2022-04-03T11:58:47Z</time>
      </trkpt>
      <trkpt lat="45.85892" lon="0.72728">
        <ele>177.4</ele>
        <time>2022-04-03T11:58:48Z</time>
      </trkpt>
      <trkpt lat="45.85892" lon="0.72728">
        <ele>177.8</ele>
        <time>2022-04-03T11:58:49Z</time>
      </trkpt>
      <trkpt lat="45.85897" lon="0.72726">
        <ele>178</ele>
        <time>2022-04-03T11:58:50Z</time>
      </trkpt>
      <trkpt lat="45.85897" lon="0.72726">
        <ele>178.2</ele>
        <time>2022-04-03T11:58:51Z</time>
      </trkpt>
      <trkpt lat="45.85902" lon="0.72725">
        <ele>178.2</ele>
        <time>2022-04-03T11:58:52Z</time>
      </trkpt>
      <trkpt lat="45.85904" lon="0.72724">
        <ele>178.4</ele>
        <time>2022-04-03T11:58:53Z</time>
      </trkpt>
      <trkpt lat="45.85906" lon="0.72723">
        <ele>178.8</ele>
        <time>2022-04-03T11:58:54Z</time>
      </trkpt>
      <trkpt lat="45.85906" lon="0.72723">
        <ele>178.8</ele>
        <time>2022-04-03T11:58:55Z</time>
      </trkpt>
      <trkpt lat="45.85911" lon="0.72722">
        <ele>178.8</ele>
        <time>2022-04-03T11:58:56Z</time>
      </trkpt>
      <trkpt lat="45.85914" lon="0.72721">
        <ele>179</ele>
        <time>2022-04-03T11:58:57Z</time>
      </trkpt>
      <trkpt lat="45.85914" lon="0.72721">
        <ele>179.2</ele>
        <time>2022-04-03T11:58:58Z</time>
      </trkpt>
      <trkpt lat="45.85918" lon="0.7272">
        <ele>179.2</ele>
        <time>2022-04-03T11:58:59Z</time>
      </trkpt>
      <trkpt lat="45.8592" lon="0.72719">
        <ele>179.6</ele>
        <time>2022-04-03T11:59:00Z</time>
      </trkpt>
      <trkpt lat="45.8592" lon="0.72719">
        <ele>179.8</ele>
        <time>2022-04-03T11:59:01Z</time>
      </trkpt>
      <trkpt lat="45.85925" lon="0.72718">
        <ele>180</ele>
        <time>2022-04-03T11:59:02Z</time>
      </trkpt>
      <trkpt lat="45.85927" lon="0.72717">
        <ele>180</ele>
        <time>2022-04-03T11:59:03Z</time>
      </trkpt>
      <trkpt lat="45.85929" lon="0.72716">
        <ele>180.2</ele>
        <time>2022-04-03T11:59:04Z</time>
      </trkpt>
      <trkpt lat="45.85931" lon="0.72716">
        <ele>180.2</ele>
        <time>2022-04-03T11:59:05Z</time>
      </trkpt>
      <trkpt lat="45.85933" lon="0.72715">
        <ele>180.4</ele>
        <time>2022-04-03T11:59:06Z</time>
      </trkpt>
      <trkpt lat="45.85935" lon="0.72714">
        <ele>180.6</ele>
        <time>2022-04-03T11:59:07Z</time>
      </trkpt>
      <trkpt lat="45.85937" lon="0.72714">
        <ele>181.2</ele>
        <time>2022-04-03T11:59:08Z</time>
      </trkpt>
      <trkpt lat="45.85939" lon="0.72713">
        <ele>181.4</ele>
        <time>2022-04-03T11:59:09Z</time>
      </trkpt>
      <trkpt lat="45.85941" lon="0.72712">
        <ele>181.6</ele>
        <time>2022-04-03T11:59:10Z</time>
      </trkpt>
      <trkpt lat="45.85943" lon="0.72712">
        <ele>181.8</ele>
        <time>2022-04-03T11:59:11Z</time>
      </trkpt>
      <trkpt lat="45.85945" lon="0.72711">
        <ele>182</ele>
        <time>2022-04-03T11:59:12Z</time>
      </trkpt>
      <trkpt lat="45.85947" lon="0.72711">
        <ele>182</ele>
        <time>2022-04-03T11:59:13Z</time>
      </trkpt>
      <trkpt lat="45.85949" lon="0.7271">
        <ele>182.4</ele>
        <time>2022-04-03T11:59:14Z</time>
      </trkpt>
      <trkpt lat="45.85951" lon="0.7271">
        <ele>182.4</ele>
        <time>2022-04-03T11:59:15Z</time>
      </trkpt>
      <trkpt lat="45.85953" lon="0.72709">
        <ele>182.6</ele>
        <time>2022-04-03T11:59:16Z</time>
      </trkpt>
      <trkpt lat="45.85955" lon="0.72709">
        <ele>183</ele>
        <time>2022-04-03T11:59:17Z</time>
      </trkpt>
      <trkpt lat="45.85957" lon="0.72708">
        <ele>182.8</ele>
        <time>2022-04-03T11:59:18Z</time>
      </trkpt>
      <trkpt lat="45.85959" lon="0.72707">
        <ele>183</ele>
        <time>2022-04-03T11:59:19Z</time>
      </trkpt>
      <trkpt lat="45.85961" lon="0.72706">
        <ele>183.2</ele>
        <time>2022-04-03T11:59:20Z</time>
      </trkpt>
      <trkpt lat="45.85963" lon="0.72706">
        <ele>183.4</ele>
        <time>2022-04-03T11:59:21Z</time>
      </trkpt>
      <trkpt lat="45.85965" lon="0.72705">
        <ele>183.6</ele>
        <time>2022-04-03T11:59:22Z</time>
      </trkpt>
      <trkpt lat="45.85967" lon="0.72705">
        <ele>184</ele>
        <time>2022-04-03T11:59:23Z</time>
      </trkpt>
      <trkpt lat="45.85969" lon="0.72704">
        <ele>184.2</ele>
        <time>2022-04-03T11:59:24Z</time>
      </trkpt>
      <trkpt lat="45.85971" lon="0.72703">
        <ele>184.2</ele>
        <time>2022-04-03T11:59:25Z</time>
      </trkpt>
      <trkpt lat="45.85973" lon="0.72703">
        <ele>184.4</ele>
        <time>2022-04-03T11:59:26Z</time>
      </trkpt>
      <trkpt lat="45.85975" lon="0.72702">
        <ele>184.6</ele>
        <time>2022-04-03T11:59:27Z</time>
      </trkpt>
      <trkpt lat="45.85977" lon="0.72702">
        <ele>184.8</ele>
        <time>2022-04-03T11:59:28Z</time>
      </trkpt>
      <trkpt lat="45.85979" lon="0.72701">
        <ele>184.8</ele>
        <time>2022-04-03T11:59:29Z</time>
      </trkpt>
      <trkpt lat="45.85981" lon="0.72701">
        <ele>184.8</ele>
        <time>2022-04-03T11:59:30Z</time>
      </trkpt>
      <trkpt lat="45.85983" lon="0.727">
        <ele>185</ele>
        <time>2022-04-03T11:59:31Z</time>
      </trkpt>
      <trkpt lat="45.85984" lon="0.72699">
        <ele>185</ele>
        <time>2022-04-03T11:59:32Z</time>
      </trkpt>
      <trkpt lat="45.85986" lon="0.72698">
        <ele>185.2</ele>
        <time>2022-04-03T11:59:33Z</time>
      </trkpt>
      <trkpt lat="45.85988" lon="0.72697">
        <ele>185.6</ele>
        <time>2022-04-03T11:59:34Z</time>
      </trkpt>
      <trkpt lat="45.8599" lon="0.72697">
        <ele>185.8</ele>
        <time>2022-04-03T11:59:35Z</time>
      </trkpt>
      <trkpt lat="45.8599" lon="0.72697">
        <ele>185.8</ele>
        <time>2022-04-03T11:59:36Z</time>
      </trkpt>
      <trkpt lat="45.85994" lon="0.72696">
        <ele>186</ele>
        <time>2022-04-03T11:59:37Z</time>
      </trkpt>
      <trkpt lat="45.85996" lon="0.72695">
        <ele>186.4</ele>
        <time>2022-04-03T11:59:38Z</time>
      </trkpt>
      <trkpt lat="45.85998" lon="0.72695">
        <ele>186.4</ele>
        <time>2022-04-03T11:59:39Z</time>
      </trkpt>
      <trkpt lat="45.86" lon="0.72694">
        <ele>186.8</ele>
        <time>2022-04-03T11:59:40Z</time>
      </trkpt>
      <trkpt lat="45.86002" lon="0.72693">
        <ele>187</ele>
        <time>2022-04-03T11:59:41Z</time>
      </trkpt>
      <trkpt lat="45.86004" lon="0.72692">
        <ele>187.4</ele>
        <time>2022-04-03T11:59:42Z</time>
      </trkpt>
      <trkpt lat="45.86006" lon="0.72692">
        <ele>187.4</ele>
        <time>2022-04-03T11:59:43Z</time>
      </trkpt>
      <trkpt lat="45.86008" lon="0.72691">
        <ele>187.6</ele>
        <time>2022-04-03T11:59:44Z</time>
      </trkpt>
      <trkpt lat="45.8601" lon="0.72691">
        <ele>187.8</ele>
        <time>2022-04-03T11:59:45Z</time>
      </trkpt>
      <trkpt lat="45.86012" lon="0.7269">
        <ele>188</ele>
        <time>2022-04-03T11:59:46Z</time>
      </trkpt>
      <trkpt lat="45.86013" lon="0.7269">
        <ele>188.2</ele>
        <time>2022-04-03T11:59:47Z</time>
      </trkpt>
      <trkpt lat="45.86015" lon="0.7269">
        <ele>188.6</ele>
        <time>2022-04-03T11:59:48Z</time>
      </trkpt>
      <trkpt lat="45.86017" lon="0.72689">
        <ele>188.6</ele>
        <time>2022-04-03T11:59:49Z</time>
      </trkpt>
      <trkpt lat="45.86019" lon="0.72689">
        <ele>188.8</ele>
        <time>2022-04-03T11:59:50Z</time>
      </trkpt>
      <trkpt lat="45.86021" lon="0.72688">
        <ele>188.8</ele>
        <time>2022-04-03T11:59:51Z</time>
      </trkpt>
      <trkpt lat="45.86023" lon="0.72688">
        <ele>188.8</ele>
        <time>2022-04-03T11:59:52Z</time>
      </trkpt>
      <trkpt lat="45.86026" lon="0.72687">
        <ele>189.2</ele>
        <time>2022-04-03T11:59:53Z</time>
      </trkpt>
      <trkpt lat="45.86028" lon="0.72687">
        <ele>189.2</ele>
        <time>2022-04-03T11:59:54Z</time>
      </trkpt>
      <trkpt lat="45.86029" lon="0.72686">
        <ele>189.6</ele>
        <time>2022-04-03T11:59:55Z</time>
      </trkpt>
      <trkpt lat="45.86031" lon="0.72685">
        <ele>189.6</ele>
        <time>2022-04-03T11:59:56Z</time>
      </trkpt>
      <trkpt lat="45.86033" lon="0.72684">
        <ele>189.8</ele>
        <time>2022-04-03T11:59:57Z</time>
      </trkpt>
      <trkpt lat="45.86035" lon="0.72684">
        <ele>189.8</ele>
        <time>2022-04-03T11:59:58Z</time>
      </trkpt>
      <trkpt lat="45.86038" lon="0.72683">
        <ele>189.8</ele>
        <time>2022-04-03T11:59:59Z</time>
      </trkpt>
      <trkpt lat="45.8604" lon="0.72683">
        <ele>190</ele>
        <time>2022-04-03T12:00:00Z</time>
      </trkpt>
      <trkpt lat="45.86042" lon="0.72682">
        <ele>190.2</ele>
        <time>2022-04-03T12:00:01Z</time>
      </trkpt>
      <trkpt lat="45.86044" lon="0.72681">
        <ele>190.2</ele>
        <time>2022-04-03T12:00:02Z</time>
      </trkpt>
      <trkpt lat="45.86046" lon="0.72681">
        <ele>190.4</ele>
        <time>2022-04-03T12:00:03Z</time>
      </trkpt>
      <trkpt lat="45.86048" lon="0.7268">
        <ele>190.6</ele>
        <time>2022-04-03T12:00:04Z</time>
      </trkpt>
      <trkpt lat="45.8605" lon="0.7268">
        <ele>190.6</ele>
        <time>2022-04-03T12:00:05Z</time>
      </trkpt>
      <trkpt lat="45.86053" lon="0.72679">
        <ele>190.8</ele>
        <time>2022-04-03T12:00:06Z</time>
      </trkpt>
      <trkpt lat="45.86055" lon="0.72679">
        <ele>190.8</ele>
        <time>2022-04-03T12:00:07Z</time>
      </trkpt>
      <trkpt lat="45.86057" lon="0.72678">
        <ele>191.4</ele>
        <time>2022-04-03T12:00:08Z</time>
      </trkpt>
      <trkpt lat="45.86059" lon="0.72678">
        <ele>191.4</ele>
        <time>2022-04-03T12:00:09Z</time>
      </trkpt>
      <trkpt lat="45.86062" lon="0.72677">
        <ele>191.4</ele>
        <time>2022-04-03T12:00:10Z</time>
      </trkpt>
      <trkpt lat="45.86064" lon="0.72677">
        <ele>191.6</ele>
        <time>2022-04-03T12:00:11Z</time>
      </trkpt>
      <trkpt lat="45.86067" lon="0.72676">
        <ele>191.8</ele>
        <time>2022-04-03T12:00:12Z</time>
      </trkpt>
      <trkpt lat="45.86069" lon="0.72676">
        <ele>192</ele>
        <time>2022-04-03T12:00:13Z</time>
      </trkpt>
      <trkpt lat="45.86072" lon="0.72676">
        <ele>192</ele>
        <time>2022-04-03T12:00:14Z</time>
      </trkpt>
      <trkpt lat="45.86075" lon="0.72675">
        <ele>192.2</ele>
        <time>2022-04-03T12:00:15Z</time>
      </trkpt>
      <trkpt lat="45.86077" lon="0.72675">
        <ele>192.4</ele>
        <time>2022-04-03T12:00:16Z</time>
      </trkpt>
      <trkpt lat="45.8608" lon="0.72674">
        <ele>192.4</ele>
        <time>2022-04-03T12:00:17Z</time>
      </trkpt>
      <trkpt lat="45.86082" lon="0.72674">
        <ele>192.6</ele>
        <time>2022-04-03T12:00:18Z</time>
      </trkpt>
      <trkpt lat="45.86085" lon="0.72673">
        <ele>192.8</ele>
        <time>2022-04-03T12:00:19Z</time>
      </trkpt>
      <trkpt lat="45.86087" lon="0.72673">
        <ele>192.8</ele>
        <time>2022-04-03T12:00:20Z</time>
      </trkpt>
      <trkpt lat="45.8609" lon="0.72672">
        <ele>193</ele>
        <time>2022-04-03T12:00:21Z</time>
      </trkpt>
      <trkpt lat="45.86093" lon="0.72672">
        <ele>193</ele>
        <time>2022-04-03T12:00:22Z</time>
      </trkpt>
      <trkpt lat="45.86095" lon="0.72672">
        <ele>193</ele>
        <time>2022-04-03T12:00:23Z</time>
      </trkpt>
      <trkpt lat="45.86098" lon="0.72671">
        <ele>193.2</ele>
        <time>2022-04-03T12:00:24Z</time>
      </trkpt>
      <trkpt lat="45.86101" lon="0.72671">
        <ele>193.2</ele>
        <time>2022-04-03T12:00:25Z</time>
      </trkpt>
      <trkpt lat="45.86104" lon="0.7267">
        <ele>193.2</ele>
        <time>2022-04-03T12:00:26Z</time>
      </trkpt>
      <trkpt lat="45.86106" lon="0.72669">
        <ele>193.2</ele>
        <time>2022-04-03T12:00:27Z</time>
      </trkpt>
      <trkpt lat="45.86109" lon="0.72669">
        <ele>193.2</ele>
        <time>2022-04-03T12:00:28Z</time>
      </trkpt>
      <trkpt lat="45.86112" lon="0.72668">
        <ele>193.2</ele>
        <time>2022-04-03T12:00:29Z</time>
      </trkpt>
      <trkpt lat="45.86115" lon="0.72667">
        <ele>193.4</ele>
        <time>2022-04-03T12:00:30Z</time>
      </trkpt>
      <trkpt lat="45.86117" lon="0.72666">
        <ele>193.4</ele>
        <time>2022-04-03T12:00:31Z</time>
      </trkpt>
      <trkpt lat="45.8612" lon="0.72666">
        <ele>193.6</ele>
        <time>2022-04-03T12:00:32Z</time>
      </trkpt>
      <trkpt lat="45.86123" lon="0.72665">
        <ele>193.6</ele>
        <time>2022-04-03T12:00:33Z</time>
      </trkpt>
      <trkpt lat="45.86125" lon="0.72664">
        <ele>193.8</ele>
        <time>2022-04-03T12:00:34Z</time>
      </trkpt>
      <trkpt lat="45.86128" lon="0.72663">
        <ele>194</ele>
        <time>2022-04-03T12:00:35Z</time>
      </trkpt>
      <trkpt lat="45.86131" lon="0.72663">
        <ele>194</ele>
        <time>2022-04-03T12:00:36Z</time>
      </trkpt>
      <trkpt lat="45.86133" lon="0.72662">
        <ele>194</ele>
        <time>2022-04-03T12:00:37Z</time>
      </trkpt>
      <trkpt lat="45.86136" lon="0.72661">
        <ele>194.2</ele>
        <time>2022-04-03T12:00:38Z</time>
      </trkpt>
      <trkpt lat="45.86139" lon="0.7266">
        <ele>194.2</ele>
        <time>2022-04-03T12:00:39Z</time>
      </trkpt>
      <trkpt lat="45.86141" lon="0.72659">
        <ele>194.4</ele>
        <time>2022-04-03T12:00:40Z</time>
      </trkpt>
      <trkpt lat="45.86144" lon="0.72657">
        <ele>194.4</ele>
        <time>2022-04-03T12:00:41Z</time>
      </trkpt>
      <trkpt lat="45.86147" lon="0.72656">
        <ele>194.4</ele>
        <time>2022-04-03T12:00:42Z</time>
      </trkpt>
      <trkpt lat="45.86149" lon="0.72655">
        <ele>194.6</ele>
        <time>2022-04-03T12:00:43Z</time>
      </trkpt>
      <trkpt lat="45.86149" lon="0.72655">
        <ele>194.6</ele>
        <time>2022-04-03T12:00:44Z</time>
      </trkpt>
      <trkpt lat="45.86155" lon="0.72653">
        <ele>194.6</ele>
        <time>2022-04-03T12:00:45Z</time>
      </trkpt>
      <trkpt lat="45.86158" lon="0.72652">
        <ele>194.8</ele>
        <time>2022-04-03T12:00:46Z</time>
      </trkpt>
      <trkpt lat="45.8616" lon="0.7265">
        <ele>194.8</ele>
        <time>2022-04-03T12:00:47Z</time>
      </trkpt>
      <trkpt lat="45.86163" lon="0.72649">
        <ele>194.8</ele>
        <time>2022-04-03T12:00:48Z</time>
      </trkpt>
      <trkpt lat="45.86166" lon="0.72647">
        <ele>195</ele>
        <time>2022-04-03T12:00:49Z</time>
      </trkpt>
      <trkpt lat="45.86169" lon="0.72646">
        <ele>195.2</ele>
        <time>2022-04-03T12:00:50Z</time>
      </trkpt>
      <trkpt lat="45.86172" lon="0.72644">
        <ele>195.2</ele>
        <time>2022-04-03T12:00:51Z</time>
      </trkpt>
      <trkpt lat="45.86175" lon="0.72643">
        <ele>195.2</ele>
        <time>2022-04-03T12:00:52Z</time>
      </trkpt>
      <trkpt lat="45.86177" lon="0.72641">
        <ele>195.6</ele>
        <time>2022-04-03T12:00:53Z</time>
      </trkpt>
      <trkpt lat="45.8618" lon="0.7264">
        <ele>195.4</ele>
        <time>2022-04-03T12:00:54Z</time>
      </trkpt>
      <trkpt lat="45.86183" lon="0.72638">
        <ele>195.6</ele>
        <time>2022-04-03T12:00:55Z</time>
      </trkpt>
      <trkpt lat="45.86186" lon="0.72637">
        <ele>195.6</ele>
        <time>2022-04-03T12:00:56Z</time>
      </trkpt>
      <trkpt lat="45.86188" lon="0.72635">
        <ele>195.8</ele>
        <time>2022-04-03T12:00:57Z</time>
      </trkpt>
      <trkpt lat="45.86191" lon="0.72633">
        <ele>195.8</ele>
        <time>2022-04-03T12:00:58Z</time>
      </trkpt>
      <trkpt lat="45.86194" lon="0.72632">
        <ele>195.8</ele>
        <time>2022-04-03T12:00:59Z</time>
      </trkpt>
      <trkpt lat="45.86197" lon="0.7263">
        <ele>196.2</ele>
        <time>2022-04-03T12:01:00Z</time>
      </trkpt>
      <trkpt lat="45.862" lon="0.72629">
        <ele>196.2</ele>
        <time>2022-04-03T12:01:01Z</time>
      </trkpt>
      <trkpt lat="45.86203" lon="0.72627">
        <ele>196.4</ele>
        <time>2022-04-03T12:01:02Z</time>
      </trkpt>
      <trkpt lat="45.86206" lon="0.72625">
        <ele>196.6</ele>
        <time>2022-04-03T12:01:03Z</time>
      </trkpt>
      <trkpt lat="45.86209" lon="0.72623">
        <ele>196.6</ele>
        <time>2022-04-03T12:01:04Z</time>
      </trkpt>
      <trkpt lat="45.86212" lon="0.72621">
        <ele>196.8</ele>
        <time>2022-04-03T12:01:05Z</time>
      </trkpt>
      <trkpt lat="45.86215" lon="0.72619">
        <ele>196.8</ele>
        <time>2022-04-03T12:01:06Z</time>
      </trkpt>
      <trkpt lat="45.86218" lon="0.72617">
        <ele>196.8</ele>
        <time>2022-04-03T12:01:07Z</time>
      </trkpt>
      <trkpt lat="45.86221" lon="0.72615">
        <ele>196.8</ele>
        <time>2022-04-03T12:01:08Z</time>
      </trkpt>
      <trkpt lat="45.86224" lon="0.72613">
        <ele>196.8</ele>
        <time>2022-04-03T12:01:09Z</time>
      </trkpt>
      <trkpt lat="45.86227" lon="0.72612">
        <ele>197</ele>
        <time>2022-04-03T12:01:10Z</time>
      </trkpt>
      <trkpt lat="45.8623" lon="0.72609">
        <ele>197</ele>
        <time>2022-04-03T12:01:11Z</time>
      </trkpt>
      <trkpt lat="45.8623" lon="0.72609">
        <ele>197</ele>
        <time>2022-04-03T12:01:12Z</time>
      </trkpt>
      <trkpt lat="45.86233" lon="0.72608">
        <ele>197</ele>
        <time>2022-04-03T12:01:13Z</time>
      </trkpt>
      <trkpt lat="45.86237" lon="0.72606">
        <ele>197</ele>
        <time>2022-04-03T12:01:14Z</time>
      </trkpt>
      <trkpt lat="45.8624" lon="0.72605">
        <ele>197.2</ele>
        <time>2022-04-03T12:01:15Z</time>
      </trkpt>
      <trkpt lat="45.86244" lon="0.72604">
        <ele>197</ele>
        <time>2022-04-03T12:01:16Z</time>
      </trkpt>
      <trkpt lat="45.86247" lon="0.72603">
        <ele>197.2</ele>
        <time>2022-04-03T12:01:17Z</time>
      </trkpt>
      <trkpt lat="45.8625" lon="0.72601">
        <ele>197.2</ele>
        <time>2022-04-03T12:01:18Z</time>
      </trkpt>
      <trkpt lat="45.86253" lon="0.726">
        <ele>197.4</ele>
        <time>2022-04-03T12:01:19Z</time>
      </trkpt>
      <trkpt lat="45.86257" lon="0.72598">
        <ele>197.4</ele>
        <time>2022-04-03T12:01:20Z</time>
      </trkpt>
      <trkpt lat="45.8626" lon="0.72597">
        <ele>197.4</ele>
        <time>2022-04-03T12:01:21Z</time>
      </trkpt>
      <trkpt lat="45.86263" lon="0.72595">
        <ele>197.4</ele>
        <time>2022-04-03T12:01:22Z</time>
      </trkpt>
      <trkpt lat="45.86266" lon="0.72593">
        <ele>197.6</ele>
        <time>2022-04-03T12:01:23Z</time>
      </trkpt>
      <trkpt lat="45.86269" lon="0.72592">
        <ele>197.8</ele>
        <time>2022-04-03T12:01:24Z</time>
      </trkpt>
      <trkpt lat="45.86272" lon="0.7259">
        <ele>197.8</ele>
        <time>2022-04-03T12:01:25Z</time>
      </trkpt>
      <trkpt lat="45.86275" lon="0.72588">
        <ele>197.8</ele>
        <time>2022-04-03T12:01:26Z</time>
      </trkpt>
      <trkpt lat="45.86278" lon="0.72586">
        <ele>197.8</ele>
        <time>2022-04-03T12:01:27Z</time>
      </trkpt>
      <trkpt lat="45.86281" lon="0.72584">
        <ele>197.8</ele>
        <time>2022-04-03T12:01:28Z</time>
      </trkpt>
      <trkpt lat="45.86284" lon="0.72582">
        <ele>197.8</ele>
        <time>2022-04-03T12:01:29Z</time>
      </trkpt>
      <trkpt lat="45.8629" lon="0.72577">
        <ele>198</ele>
        <time>2022-04-03T12:01:30Z</time>
      </trkpt>
      <trkpt lat="45.86293" lon="0.72575">
        <ele>198</ele>
        <time>2022-04-03T12:01:31Z</time>
      </trkpt>
      <trkpt lat="45.86296" lon="0.72573">
        <ele>198</ele>
        <time>2022-04-03T12:01:32Z</time>
      </trkpt>
      <trkpt lat="45.86299" lon="0.72571">
        <ele>198.2</ele>
        <time>2022-04-03T12:01:33Z</time>
      </trkpt>
      <trkpt lat="45.86301" lon="0.72568">
        <ele>198.2</ele>
        <time>2022-04-03T12:01:34Z</time>
      </trkpt>
      <trkpt lat="45.86304" lon="0.72565">
        <ele>198.2</ele>
        <time>2022-04-03T12:01:35Z</time>
      </trkpt>
      <trkpt lat="45.86306" lon="0.72563">
        <ele>198.4</ele>
        <time>2022-04-03T12:01:36Z</time>
      </trkpt>
      <trkpt lat="45.86309" lon="0.7256">
        <ele>198.4</ele>
        <time>2022-04-03T12:01:37Z</time>
      </trkpt>
      <trkpt lat="45.86311" lon="0.72557">
        <ele>198.4</ele>
        <time>2022-04-03T12:01:38Z</time>
      </trkpt>
      <trkpt lat="45.86314" lon="0.72553">
        <ele>198.4</ele>
        <time>2022-04-03T12:01:39Z</time>
      </trkpt>
      <trkpt lat="45.86316" lon="0.7255">
        <ele>198.6</ele>
        <time>2022-04-03T12:01:40Z</time>
      </trkpt>
      <trkpt lat="45.86319" lon="0.72547">
        <ele>198.6</ele>
        <time>2022-04-03T12:01:41Z</time>
      </trkpt>
      <trkpt lat="45.86321" lon="0.72545">
        <ele>198.6</ele>
        <time>2022-04-03T12:01:42Z</time>
      </trkpt>
      <trkpt lat="45.86323" lon="0.72542">
        <ele>198.8</ele>
        <time>2022-04-03T12:01:43Z</time>
      </trkpt>
      <trkpt lat="45.86326" lon="0.72539">
        <ele>198.8</ele>
        <time>2022-04-03T12:01:44Z</time>
      </trkpt>
      <trkpt lat="45.86328" lon="0.72536">
        <ele>198.8</ele>
        <time>2022-04-03T12:01:45Z</time>
      </trkpt>
      <trkpt lat="45.86331" lon="0.72533">
        <ele>198.8</ele>
        <time>2022-04-03T12:01:46Z</time>
      </trkpt>
      <trkpt lat="45.86333" lon="0.72529">
        <ele>198.8</ele>
        <time>2022-04-03T12:01:47Z</time>
      </trkpt>
      <trkpt lat="45.86335" lon="0.72526">
        <ele>199</ele>
        <time>2022-04-03T12:01:48Z</time>
      </trkpt>
      <trkpt lat="45.86338" lon="0.72523">
        <ele>199</ele>
        <time>2022-04-03T12:01:49Z</time>
      </trkpt>
      <trkpt lat="45.8634" lon="0.7252">
        <ele>199.2</ele>
        <time>2022-04-03T12:01:50Z</time>
      </trkpt>
      <trkpt lat="45.86343" lon="0.72517">
        <ele>199.2</ele>
        <time>2022-04-03T12:01:51Z</time>
      </trkpt>
      <trkpt lat="45.86345" lon="0.72514">
        <ele>199.4</ele>
        <time>2022-04-03T12:01:52Z</time>
      </trkpt>
      <trkpt lat="45.86347" lon="0.72511">
        <ele>199.4</ele>
        <time>2022-04-03T12:01:53Z</time>
      </trkpt>
      <trkpt lat="45.8635" lon="0.72508">
        <ele>199.6</ele>
        <time>2022-04-03T12:01:54Z</time>
      </trkpt>
      <trkpt lat="45.86352" lon="0.72505">
        <ele>199.6</ele>
        <time>2022-04-03T12:01:55Z</time>
      </trkpt>
      <trkpt lat="45.86354" lon="0.72502">
        <ele>199.6</ele>
        <time>2022-04-03T12:01:56Z</time>
      </trkpt>
      <trkpt lat="45.86356" lon="0.72499">
        <ele>199.8</ele>
        <time>2022-04-03T12:01:57Z</time>
      </trkpt>
      <trkpt lat="45.86358" lon="0.72497">
        <ele>199.8</ele>
        <time>2022-04-03T12:01:58Z</time>
      </trkpt>
      <trkpt lat="45.8636" lon="0.72494">
        <ele>199.8</ele>
        <time>2022-04-03T12:01:59Z</time>
      </trkpt>
      <trkpt lat="45.86363" lon="0.72491">
        <ele>200</ele>
        <time>2022-04-03T12:02:00Z</time>
      </trkpt>
      <trkpt lat="45.86365" lon="0.72488">
        <ele>200.2</ele>
        <time>2022-04-03T12:02:01Z</time>
      </trkpt>
      <trkpt lat="45.86367" lon="0.72486">
        <ele>200.4</ele>
        <time>2022-04-03T12:02:02Z</time>
      </trkpt>
      <trkpt lat="45.86369" lon="0.72483">
        <ele>200.6</ele>
        <time>2022-04-03T12:02:03Z</time>
      </trkpt>
      <trkpt lat="45.86371" lon="0.72481">
        <ele>200.8</ele>
        <time>2022-04-03T12:02:04Z</time>
      </trkpt>
      <trkpt lat="45.86374" lon="0.72478">
        <ele>200.8</ele>
        <time>2022-04-03T12:02:05Z</time>
      </trkpt>
      <trkpt lat="45.86376" lon="0.72476">
        <ele>201</ele>
        <time>2022-04-03T12:02:06Z</time>
      </trkpt>
      <trkpt lat="45.86379" lon="0.72474">
        <ele>201</ele>
        <time>2022-04-03T12:02:07Z</time>
      </trkpt>
      <trkpt lat="45.86381" lon="0.72471">
        <ele>201.2</ele>
        <time>2022-04-03T12:02:08Z</time>
      </trkpt>
      <trkpt lat="45.86384" lon="0.72469">
        <ele>201.4</ele>
        <time>2022-04-03T12:02:09Z</time>
      </trkpt>
      <trkpt lat="45.86386" lon="0.72467">
        <ele>201.6</ele>
        <time>2022-04-03T12:02:10Z</time>
      </trkpt>
      <trkpt lat="45.86389" lon="0.72465">
        <ele>201.8</ele>
        <time>2022-04-03T12:02:11Z</time>
      </trkpt>
      <trkpt lat="45.86389" lon="0.72465">
        <ele>202</ele>
        <time>2022-04-03T12:02:12Z</time>
      </trkpt>
      <trkpt lat="45.86394" lon="0.72461">
        <ele>202.2</ele>
        <time>2022-04-03T12:02:13Z</time>
      </trkpt>
      <trkpt lat="45.86397" lon="0.72459">
        <ele>202.4</ele>
        <time>2022-04-03T12:02:14Z</time>
      </trkpt>
      <trkpt lat="45.864" lon="0.72458">
        <ele>202.4</ele>
        <time>2022-04-03T12:02:15Z</time>
      </trkpt>
      <trkpt lat="45.86403" lon="0.72456">
        <ele>202.8</ele>
        <time>2022-04-03T12:02:16Z</time>
      </trkpt>
      <trkpt lat="45.86406" lon="0.72455">
        <ele>202.8</ele>
        <time>2022-04-03T12:02:17Z</time>
      </trkpt>
      <trkpt lat="45.86409" lon="0.72453">
        <ele>202.8</ele>
        <time>2022-04-03T12:02:18Z</time>
      </trkpt>
      <trkpt lat="45.86412" lon="0.72453">
        <ele>203</ele>
        <time>2022-04-03T12:02:19Z</time>
      </trkpt>
      <trkpt lat="45.86415" lon="0.72452">
        <ele>203</ele>
        <time>2022-04-03T12:02:20Z</time>
      </trkpt>
      <trkpt lat="45.86418" lon="0.72451">
        <ele>203.2</ele>
        <time>2022-04-03T12:02:21Z</time>
      </trkpt>
      <trkpt lat="45.86421" lon="0.7245">
        <ele>203.2</ele>
        <time>2022-04-03T12:02:22Z</time>
      </trkpt>
      <trkpt lat="45.86424" lon="0.72449">
        <ele>203.2</ele>
        <time>2022-04-03T12:02:23Z</time>
      </trkpt>
      <trkpt lat="45.86424" lon="0.72449">
        <ele>203.2</ele>
        <time>2022-04-03T12:02:24Z</time>
      </trkpt>
      <trkpt lat="45.86428" lon="0.72449">
        <ele>203.4</ele>
        <time>2022-04-03T12:02:25Z</time>
      </trkpt>
      <trkpt lat="45.86431" lon="0.72448">
        <ele>203.4</ele>
        <time>2022-04-03T12:02:26Z</time>
      </trkpt>
      <trkpt lat="45.86435" lon="0.72448">
        <ele>203.6</ele>
        <time>2022-04-03T12:02:27Z</time>
      </trkpt>
      <trkpt lat="45.86438" lon="0.72448">
        <ele>203.6</ele>
        <time>2022-04-03T12:02:28Z</time>
      </trkpt>
      <trkpt lat="45.86447" lon="0.72448">
        <ele>203.6</ele>
        <time>2022-04-03T12:02:29Z</time>
      </trkpt>
      <trkpt lat="45.86447" lon="0.72448">
        <ele>203.8</ele>
        <time>2022-04-03T12:02:30Z</time>
      </trkpt>
      <trkpt lat="45.86455" lon="0.72448">
        <ele>203.6</ele>
        <time>2022-04-03T12:02:31Z</time>
      </trkpt>
      <trkpt lat="45.8646" lon="0.72448">
        <ele>203.6</ele>
        <time>2022-04-03T12:02:32Z</time>
      </trkpt>
      <trkpt lat="45.8646" lon="0.72448">
        <ele>203.6</ele>
        <time>2022-04-03T12:02:33Z</time>
      </trkpt>
      <trkpt lat="45.86469" lon="0.72448">
        <ele>203.6</ele>
        <time>2022-04-03T12:02:34Z</time>
      </trkpt>
      <trkpt lat="45.86474" lon="0.72448">
        <ele>203.4</ele>
        <time>2022-04-03T12:02:35Z</time>
      </trkpt>
      <trkpt lat="45.86478" lon="0.72447">
        <ele>203.4</ele>
        <time>2022-04-03T12:02:36Z</time>
      </trkpt>
      <trkpt lat="45.86483" lon="0.72447">
        <ele>203.6</ele>
        <time>2022-04-03T12:02:37Z</time>
      </trkpt>
      <trkpt lat="45.86488" lon="0.72447">
        <ele>203.4</ele>
        <time>2022-04-03T12:02:38Z</time>
      </trkpt>
      <trkpt lat="45.86493" lon="0.72448">
        <ele>203.4</ele>
        <time>2022-04-03T12:02:39Z</time>
      </trkpt>
      <trkpt lat="45.86498" lon="0.72448">
        <ele>203.4</ele>
        <time>2022-04-03T12:02:40Z</time>
      </trkpt>
      <trkpt lat="45.86504" lon="0.72448">
        <ele>203.4</ele>
        <time>2022-04-03T12:02:41Z</time>
      </trkpt>
      <trkpt lat="45.86504" lon="0.72448">
        <ele>203.4</ele>
        <time>2022-04-03T12:02:42Z</time>
      </trkpt>
      <trkpt lat="45.86509" lon="0.72448">
        <ele>203.2</ele>
        <time>2022-04-03T12:02:43Z</time>
      </trkpt>
      <trkpt lat="45.8652" lon="0.72448">
        <ele>203</ele>
        <time>2022-04-03T12:02:44Z</time>
      </trkpt>
      <trkpt lat="45.86526" lon="0.72449">
        <ele>203.2</ele>
        <time>2022-04-03T12:02:45Z</time>
      </trkpt>
      <trkpt lat="45.86526" lon="0.72449">
        <ele>203.2</ele>
        <time>2022-04-03T12:02:46Z</time>
      </trkpt>
      <trkpt lat="45.86537" lon="0.72449">
        <ele>203.2</ele>
        <time>2022-04-03T12:02:47Z</time>
      </trkpt>
      <trkpt lat="45.86543" lon="0.72449">
        <ele>202.8</ele>
        <time>2022-04-03T12:02:48Z</time>
      </trkpt>
      <trkpt lat="45.86548" lon="0.72449">
        <ele>203</ele>
        <time>2022-04-03T12:02:49Z</time>
      </trkpt>
      <trkpt lat="45.86548" lon="0.72449">
        <ele>202.8</ele>
        <time>2022-04-03T12:02:50Z</time>
      </trkpt>
      <trkpt lat="45.86553" lon="0.72449">
        <ele>202.6</ele>
        <time>2022-04-03T12:02:51Z</time>
      </trkpt>
      <trkpt lat="45.86559" lon="0.72448">
        <ele>202.6</ele>
        <time>2022-04-03T12:02:52Z</time>
      </trkpt>
      <trkpt lat="45.86564" lon="0.72448">
        <ele>202.6</ele>
        <time>2022-04-03T12:02:53Z</time>
      </trkpt>
      <trkpt lat="45.86574" lon="0.72446">
        <ele>202.2</ele>
        <time>2022-04-03T12:02:54Z</time>
      </trkpt>
      <trkpt lat="45.86574" lon="0.72446">
        <ele>202</ele>
        <time>2022-04-03T12:02:55Z</time>
      </trkpt>
      <trkpt lat="45.86579" lon="0.72445">
        <ele>202</ele>
        <time>2022-04-03T12:02:56Z</time>
      </trkpt>
      <trkpt lat="45.86588" lon="0.72443">
        <ele>202</ele>
        <time>2022-04-03T12:02:57Z</time>
      </trkpt>
      <trkpt lat="45.86588" lon="0.72443">
        <ele>201.8</ele>
        <time>2022-04-03T12:02:58Z</time>
      </trkpt>
      <trkpt lat="45.86598" lon="0.7244">
        <ele>201.6</ele>
        <time>2022-04-03T12:02:59Z</time>
      </trkpt>
      <trkpt lat="45.86603" lon="0.72438">
        <ele>201.6</ele>
        <time>2022-04-03T12:03:00Z</time>
      </trkpt>
      <trkpt lat="45.86603" lon="0.72438">
        <ele>201.6</ele>
        <time>2022-04-03T12:03:01Z</time>
      </trkpt>
      <trkpt lat="45.86613" lon="0.72433">
        <ele>201.4</ele>
        <time>2022-04-03T12:03:02Z</time>
      </trkpt>
      <trkpt lat="45.86618" lon="0.7243">
        <ele>201</ele>
        <time>2022-04-03T12:03:03Z</time>
      </trkpt>
      <trkpt lat="45.86623" lon="0.72426">
        <ele>200.8</ele>
        <time>2022-04-03T12:03:04Z</time>
      </trkpt>
      <trkpt lat="45.86623" lon="0.72426">
        <ele>200.6</ele>
        <time>2022-04-03T12:03:05Z</time>
      </trkpt>
      <trkpt lat="45.86633" lon="0.7242">
        <ele>200.4</ele>
        <time>2022-04-03T12:03:06Z</time>
      </trkpt>
      <trkpt lat="45.86633" lon="0.7242">
        <ele>200.4</ele>
        <time>2022-04-03T12:03:07Z</time>
      </trkpt>
      <trkpt lat="45.86638" lon="0.72416">
        <ele>200.4</ele>
        <time>2022-04-03T12:03:08Z</time>
      </trkpt>
      <trkpt lat="45.86644" lon="0.72412">
        <ele>200.2</ele>
        <time>2022-04-03T12:03:09Z</time>
      </trkpt>
      <trkpt lat="45.86649" lon="0.72408">
        <ele>200</ele>
        <time>2022-04-03T12:03:10Z</time>
      </trkpt>
      <trkpt lat="45.86654" lon="0.72403">
        <ele>200</ele>
        <time>2022-04-03T12:03:11Z</time>
      </trkpt>
      <trkpt lat="45.86665" lon="0.72394">
        <ele>199.8</ele>
        <time>2022-04-03T12:03:12Z</time>
      </trkpt>
      <trkpt lat="45.86665" lon="0.72394">
        <ele>199.8</ele>
        <time>2022-04-03T12:03:13Z</time>
      </trkpt>
      <trkpt lat="45.86676" lon="0.72385">
        <ele>199.6</ele>
        <time>2022-04-03T12:03:14Z</time>
      </trkpt>
      <trkpt lat="45.86681" lon="0.7238">
        <ele>199.4</ele>
        <time>2022-04-03T12:03:15Z</time>
      </trkpt>
      <trkpt lat="45.86687" lon="0.72375">
        <ele>199.2</ele>
        <time>2022-04-03T12:03:16Z</time>
      </trkpt>
      <trkpt lat="45.86687" lon="0.72375">
        <ele>199</ele>
        <time>2022-04-03T12:03:17Z</time>
      </trkpt>
      <trkpt lat="45.86697" lon="0.72366">
        <ele>198.8</ele>
        <time>2022-04-03T12:03:18Z</time>
      </trkpt>
      <trkpt lat="45.86701" lon="0.72361">
        <ele>198.4</ele>
        <time>2022-04-03T12:03:19Z</time>
      </trkpt>
      <trkpt lat="45.86706" lon="0.72358">
        <ele>198.4</ele>
        <time>2022-04-03T12:03:20Z</time>
      </trkpt>
      <trkpt lat="45.86711" lon="0.72354">
        <ele>198.2</ele>
        <time>2022-04-03T12:03:21Z</time>
      </trkpt>
      <trkpt lat="45.86711" lon="0.72354">
        <ele>198</ele>
        <time>2022-04-03T12:03:22Z</time>
      </trkpt>
      <trkpt lat="45.86715" lon="0.7235">
        <ele>197.8</ele>
        <time>2022-04-03T12:03:23Z</time>
      </trkpt>
      <trkpt lat="45.86724" lon="0.72343">
        <ele>197.6</ele>
        <time>2022-04-03T12:03:24Z</time>
      </trkpt>
      <trkpt lat="45.86724" lon="0.72343">
        <ele>197.4</ele>
        <time>2022-04-03T12:03:25Z</time>
      </trkpt>
      <trkpt lat="45.86728" lon="0.72339">
        <ele>197.2</ele>
        <time>2022-04-03T12:03:26Z</time>
      </trkpt>
      <trkpt lat="45.86733" lon="0.72336">
        <ele>197.4</ele>
        <time>2022-04-03T12:03:27Z</time>
      </trkpt>
      <trkpt lat="45.86736" lon="0.72333">
        <ele>197.2</ele>
        <time>2022-04-03T12:03:28Z</time>
      </trkpt>
      <trkpt lat="45.86742" lon="0.72326">
        <ele>197.4</ele>
        <time>2022-04-03T12:03:29Z</time>
      </trkpt>
      <trkpt lat="45.86744" lon="0.72322">
        <ele>197.2</ele>
        <time>2022-04-03T12:03:30Z</time>
      </trkpt>
      <trkpt lat="45.86747" lon="0.72319">
        <ele>197.2</ele>
        <time>2022-04-03T12:03:31Z</time>
      </trkpt>
      <trkpt lat="45.86751" lon="0.72315">
        <ele>197.2</ele>
        <time>2022-04-03T12:03:32Z</time>
      </trkpt>
      <trkpt lat="45.86754" lon="0.72312">
        <ele>197.2</ele>
        <time>2022-04-03T12:03:33Z</time>
      </trkpt>
      <trkpt lat="45.86758" lon="0.72308">
        <ele>197.4</ele>
        <time>2022-04-03T12:03:34Z</time>
      </trkpt>
      <trkpt lat="45.86762" lon="0.72305">
        <ele>197.4</ele>
        <time>2022-04-03T12:03:35Z</time>
      </trkpt>
      <trkpt lat="45.86766" lon="0.72301">
        <ele>197.4</ele>
        <time>2022-04-03T12:03:36Z</time>
      </trkpt>
      <trkpt lat="45.86769" lon="0.72298">
        <ele>197.4</ele>
        <time>2022-04-03T12:03:37Z</time>
      </trkpt>
      <trkpt lat="45.86773" lon="0.72295">
        <ele>197.6</ele>
        <time>2022-04-03T12:03:38Z</time>
      </trkpt>
      <trkpt lat="45.86773" lon="0.72295">
        <ele>197.6</ele>
        <time>2022-04-03T12:03:39Z</time>
      </trkpt>
      <trkpt lat="45.86782" lon="0.72288">
        <ele>197.6</ele>
        <time>2022-04-03T12:03:40Z</time>
      </trkpt>
      <trkpt lat="45.86786" lon="0.72284">
        <ele>197.8</ele>
        <time>2022-04-03T12:03:41Z</time>
      </trkpt>
      <trkpt lat="45.86786" lon="0.72284">
        <ele>197.8</ele>
        <time>2022-04-03T12:03:42Z</time>
      </trkpt>
      <trkpt lat="45.86791" lon="0.7228">
        <ele>197.8</ele>
        <time>2022-04-03T12:03:43Z</time>
      </trkpt>
      <trkpt lat="45.86796" lon="0.72276">
        <ele>197.8</ele>
        <time>2022-04-03T12:03:44Z</time>
      </trkpt>
      <trkpt lat="45.86802" lon="0.72272">
        <ele>198</ele>
        <time>2022-04-03T12:03:45Z</time>
      </trkpt>
      <trkpt lat="45.86808" lon="0.72269">
        <ele>197.8</ele>
        <time>2022-04-03T12:03:46Z</time>
      </trkpt>
      <trkpt lat="45.8682" lon="0.72262">
        <ele>197.8</ele>
        <time>2022-04-03T12:03:47Z</time>
      </trkpt>
      <trkpt lat="45.8682" lon="0.72262">
        <ele>197.8</ele>
        <time>2022-04-03T12:03:48Z</time>
      </trkpt>
      <trkpt lat="45.86826" lon="0.72259">
        <ele>197.8</ele>
        <time>2022-04-03T12:03:49Z</time>
      </trkpt>
      <trkpt lat="45.86837" lon="0.72253">
        <ele>197.6</ele>
        <time>2022-04-03T12:03:50Z</time>
      </trkpt>
      <trkpt lat="45.8684" lon="0.72252">
        <ele>197.6</ele>
        <time>2022-04-03T12:03:51Z</time>
      </trkpt>
      <trkpt lat="45.8684" lon="0.72252">
        <ele>197.2</ele>
        <time>2022-04-03T12:03:52Z</time>
      </trkpt>
      <trkpt lat="45.86844" lon="0.72251">
        <ele>196.6</ele>
        <time>2022-04-03T12:03:55Z</time>
      </trkpt>
      <trkpt lat="45.86846" lon="0.7225">
        <ele>196.2</ele>
        <time>2022-04-03T12:03:56Z</time>
      </trkpt>
      <trkpt lat="45.86848" lon="0.72249">
        <ele>195.6</ele>
        <time>2022-04-03T12:03:57Z</time>
      </trkpt>
      <trkpt lat="45.8685" lon="0.72247">
        <ele>195.6</ele>
        <time>2022-04-03T12:03:58Z</time>
      </trkpt>
      <trkpt lat="45.86852" lon="0.72245">
        <ele>195.2</ele>
        <time>2022-04-03T12:03:59Z</time>
      </trkpt>
      <trkpt lat="45.86855" lon="0.72241">
        <ele>195</ele>
        <time>2022-04-03T12:04:00Z</time>
      </trkpt>
      <trkpt lat="45.86858" lon="0.72237">
        <ele>194.8</ele>
        <time>2022-04-03T12:04:01Z</time>
      </trkpt>
      <trkpt lat="45.8686" lon="0.72233">
        <ele>194.8</ele>
        <time>2022-04-03T12:04:02Z</time>
      </trkpt>
      <trkpt lat="45.86863" lon="0.72228">
        <ele>194.8</ele>
        <time>2022-04-03T12:04:03Z</time>
      </trkpt>
      <trkpt lat="45.86865" lon="0.72222">
        <ele>194.8</ele>
        <time>2022-04-03T12:04:04Z</time>
      </trkpt>
      <trkpt lat="45.86868" lon="0.72217">
        <ele>194.6</ele>
        <time>2022-04-03T12:04:05Z</time>
      </trkpt>
      <trkpt lat="45.86871" lon="0.7221">
        <ele>194.6</ele>
        <time>2022-04-03T12:04:06Z</time>
      </trkpt>
      <trkpt lat="45.86874" lon="0.72203">
        <ele>194.4</ele>
        <time>2022-04-03T12:04:07Z</time>
      </trkpt>
      <trkpt lat="45.86877" lon="0.72196">
        <ele>194.4</ele>
        <time>2022-04-03T12:04:08Z</time>
      </trkpt>
      <trkpt lat="45.8688" lon="0.72189">
        <ele>194.2</ele>
        <time>2022-04-03T12:04:09Z</time>
      </trkpt>
      <trkpt lat="45.86883" lon="0.72181">
        <ele>194</ele>
        <time>2022-04-03T12:04:10Z</time>
      </trkpt>
      <trkpt lat="45.86886" lon="0.72173">
        <ele>193.6</ele>
        <time>2022-04-03T12:04:11Z</time>
      </trkpt>
      <trkpt lat="45.86889" lon="0.72165">
        <ele>193.6</ele>
        <time>2022-04-03T12:04:12Z</time>
      </trkpt>
      <trkpt lat="45.86892" lon="0.72157">
        <ele>193</ele>
        <time>2022-04-03T12:04:13Z</time>
      </trkpt>
      <trkpt lat="45.86895" lon="0.72149">
        <ele>192.6</ele>
        <time>2022-04-03T12:04:14Z</time>
      </trkpt>
      <trkpt lat="45.86898" lon="0.7214">
        <ele>192.2</ele>
        <time>2022-04-03T12:04:15Z</time>
      </trkpt>
      <trkpt lat="45.86902" lon="0.72131">
        <ele>191.8</ele>
        <time>2022-04-03T12:04:16Z</time>
      </trkpt>
      <trkpt lat="45.86905" lon="0.72123">
        <ele>191.8</ele>
        <time>2022-04-03T12:04:17Z</time>
      </trkpt>
      <trkpt lat="45.86908" lon="0.72114">
        <ele>191.4</ele>
        <time>2022-04-03T12:04:18Z</time>
      </trkpt>
      <trkpt lat="45.86912" lon="0.72105">
        <ele>190.8</ele>
        <time>2022-04-03T12:04:19Z</time>
      </trkpt>
      <trkpt lat="45.86916" lon="0.72095">
        <ele>190.4</ele>
        <time>2022-04-03T12:04:20Z</time>
      </trkpt>
      <trkpt lat="45.86919" lon="0.72086">
        <ele>190</ele>
        <time>2022-04-03T12:04:21Z</time>
      </trkpt>
      <trkpt lat="45.86923" lon="0.72076">
        <ele>189.6</ele>
        <time>2022-04-03T12:04:22Z</time>
      </trkpt>
      <trkpt lat="45.86926" lon="0.72067">
        <ele>189.4</ele>
        <time>2022-04-03T12:04:23Z</time>
      </trkpt>
      <trkpt lat="45.86929" lon="0.72057">
        <ele>189</ele>
        <time>2022-04-03T12:04:24Z</time>
      </trkpt>
      <trkpt lat="45.86929" lon="0.72057">
        <ele>188.6</ele>
        <time>2022-04-03T12:04:25Z</time>
      </trkpt>
      <trkpt lat="45.86935" lon="0.72037">
        <ele>188.4</ele>
        <time>2022-04-03T12:04:26Z</time>
      </trkpt>
      <trkpt lat="45.86935" lon="0.72037">
        <ele>187.8</ele>
        <time>2022-04-03T12:04:27Z</time>
      </trkpt>
      <trkpt lat="45.86943" lon="0.72019">
        <ele>187</ele>
        <time>2022-04-03T12:04:28Z</time>
      </trkpt>
      <trkpt lat="45.86947" lon="0.7201">
        <ele>186.6</ele>
        <time>2022-04-03T12:04:29Z</time>
      </trkpt>
      <trkpt lat="45.86951" lon="0.72001">
        <ele>185.8</ele>
        <time>2022-04-03T12:04:30Z</time>
      </trkpt>
      <trkpt lat="45.86955" lon="0.71992">
        <ele>185</ele>
        <time>2022-04-03T12:04:31Z</time>
      </trkpt>
      <trkpt lat="45.86959" lon="0.71984">
        <ele>184.8</ele>
        <time>2022-04-03T12:04:32Z</time>
      </trkpt>
      <trkpt lat="45.86964" lon="0.71975">
        <ele>184.6</ele>
        <time>2022-04-03T12:04:33Z</time>
      </trkpt>
      <trkpt lat="45.86968" lon="0.71966">
        <ele>184.2</ele>
        <time>2022-04-03T12:04:34Z</time>
      </trkpt>
      <trkpt lat="45.86972" lon="0.71957">
        <ele>183.8</ele>
        <time>2022-04-03T12:04:35Z</time>
      </trkpt>
      <trkpt lat="45.86976" lon="0.71949">
        <ele>183.8</ele>
        <time>2022-04-03T12:04:36Z</time>
      </trkpt>
      <trkpt lat="45.8698" lon="0.7194">
        <ele>183.6</ele>
        <time>2022-04-03T12:04:37Z</time>
      </trkpt>
      <trkpt lat="45.86984" lon="0.71931">
        <ele>183.6</ele>
        <time>2022-04-03T12:04:38Z</time>
      </trkpt>
      <trkpt lat="45.86984" lon="0.71931">
        <ele>183.2</ele>
        <time>2022-04-03T12:04:39Z</time>
      </trkpt>
      <trkpt lat="45.86993" lon="0.71914">
        <ele>182.8</ele>
        <time>2022-04-03T12:04:40Z</time>
      </trkpt>
      <trkpt lat="45.86997" lon="0.71905">
        <ele>181.8</ele>
        <time>2022-04-03T12:04:41Z</time>
      </trkpt>
      <trkpt lat="45.87002" lon="0.71896">
        <ele>181.2</ele>
        <time>2022-04-03T12:04:42Z</time>
      </trkpt>
      <trkpt lat="45.87006" lon="0.71888">
        <ele>180.6</ele>
        <time>2022-04-03T12:04:43Z</time>
      </trkpt>
      <trkpt lat="45.87009" lon="0.7188">
        <ele>180.2</ele>
        <time>2022-04-03T12:04:44Z</time>
      </trkpt>
      <trkpt lat="45.87013" lon="0.71873">
        <ele>179.8</ele>
        <time>2022-04-03T12:04:45Z</time>
      </trkpt>
      <trkpt lat="45.87013" lon="0.71873">
        <ele>179.8</ele>
        <time>2022-04-03T12:04:46Z</time>
      </trkpt>
      <trkpt lat="45.87017" lon="0.71867">
        <ele>179.8</ele>
        <time>2022-04-03T12:04:47Z</time>
      </trkpt>
      <trkpt lat="45.87023" lon="0.71863">
        <ele>179.6</ele>
        <time>2022-04-03T12:04:48Z</time>
      </trkpt>
      <trkpt lat="45.87029" lon="0.71861">
        <ele>179</ele>
        <time>2022-04-03T12:04:49Z</time>
      </trkpt>
      <trkpt lat="45.87035" lon="0.71861">
        <ele>178.6</ele>
        <time>2022-04-03T12:04:50Z</time>
      </trkpt>
      <trkpt lat="45.8704" lon="0.71866">
        <ele>178.4</ele>
        <time>2022-04-03T12:04:51Z</time>
      </trkpt>
      <trkpt lat="45.87049" lon="0.71878">
        <ele>178</ele>
        <time>2022-04-03T12:04:52Z</time>
      </trkpt>
      <trkpt lat="45.87053" lon="0.71885">
        <ele>178</ele>
        <time>2022-04-03T12:04:53Z</time>
      </trkpt>
      <trkpt lat="45.87053" lon="0.71885">
        <ele>177.8</ele>
        <time>2022-04-03T12:04:54Z</time>
      </trkpt>
      <trkpt lat="45.87057" lon="0.71892">
        <ele>177.8</ele>
        <time>2022-04-03T12:04:55Z</time>
      </trkpt>
      <trkpt lat="45.87068" lon="0.71904">
        <ele>177.8</ele>
        <time>2022-04-03T12:04:56Z</time>
      </trkpt>
      <trkpt lat="45.87074" lon="0.7191">
        <ele>177.4</ele>
        <time>2022-04-03T12:04:57Z</time>
      </trkpt>
      <trkpt lat="45.8708" lon="0.71914">
        <ele>176.8</ele>
        <time>2022-04-03T12:04:58Z</time>
      </trkpt>
      <trkpt lat="45.87087" lon="0.71918">
        <ele>176</ele>
        <time>2022-04-03T12:04:59Z</time>
      </trkpt>
      <trkpt lat="45.87094" lon="0.71922">
        <ele>175.6</ele>
        <time>2022-04-03T12:05:00Z</time>
      </trkpt>
      <trkpt lat="45.871" lon="0.71925">
        <ele>175.2</ele>
        <time>2022-04-03T12:05:01Z</time>
      </trkpt>
      <trkpt lat="45.87106" lon="0.71929">
        <ele>174.6</ele>
        <time>2022-04-03T12:05:02Z</time>
      </trkpt>
      <trkpt lat="45.87106" lon="0.71929">
        <ele>174.2</ele>
        <time>2022-04-03T12:05:03Z</time>
      </trkpt>
      <trkpt lat="45.87112" lon="0.71932">
        <ele>173.4</ele>
        <time>2022-04-03T12:05:04Z</time>
      </trkpt>
      <trkpt lat="45.87119" lon="0.71932">
        <ele>172.8</ele>
        <time>2022-04-03T12:05:05Z</time>
      </trkpt>
      <trkpt lat="45.87124" lon="0.71931">
        <ele>172</ele>
        <time>2022-04-03T12:05:06Z</time>
      </trkpt>
      <trkpt lat="45.87129" lon="0.71929">
        <ele>171.4</ele>
        <time>2022-04-03T12:05:07Z</time>
      </trkpt>
      <trkpt lat="45.87136" lon="0.71927">
        <ele>171</ele>
        <time>2022-04-03T12:05:08Z</time>
      </trkpt>
      <trkpt lat="45.8714" lon="0.71929">
        <ele>170.4</ele>
        <time>2022-04-03T12:05:09Z</time>
      </trkpt>
      <trkpt lat="45.87144" lon="0.71932">
        <ele>170</ele>
        <time>2022-04-03T12:05:10Z</time>
      </trkpt>
      <trkpt lat="45.87147" lon="0.71935">
        <ele>169.4</ele>
        <time>2022-04-03T12:05:11Z</time>
      </trkpt>
      <trkpt lat="45.87147" lon="0.71935">
        <ele>169.2</ele>
        <time>2022-04-03T12:05:12Z</time>
      </trkpt>
      <trkpt lat="45.87151" lon="0.71935">
        <ele>169.2</ele>
        <time>2022-04-03T12:05:13Z</time>
      </trkpt>
      <trkpt lat="45.87154" lon="0.71935">
        <ele>169</ele>
        <time>2022-04-03T12:05:14Z</time>
      </trkpt>
      <trkpt lat="45.87162" lon="0.7193">
        <ele>169</ele>
        <time>2022-04-03T12:05:15Z</time>
      </trkpt>
      <trkpt lat="45.87168" lon="0.71927">
        <ele>168.6</ele>
        <time>2022-04-03T12:05:16Z</time>
      </trkpt>
      <trkpt lat="45.87173" lon="0.71925">
        <ele>168.6</ele>
        <time>2022-04-03T12:05:17Z</time>
      </trkpt>
      <trkpt lat="45.87178" lon="0.71923">
        <ele>168.6</ele>
        <time>2022-04-03T12:05:18Z</time>
      </trkpt>
      <trkpt lat="45.87184" lon="0.71924">
        <ele>168.2</ele>
        <time>2022-04-03T12:05:19Z</time>
      </trkpt>
      <trkpt lat="45.87188" lon="0.71928">
        <ele>168</ele>
        <time>2022-04-03T12:05:20Z</time>
      </trkpt>
      <trkpt lat="45.87192" lon="0.71933">
        <ele>167.6</ele>
        <time>2022-04-03T12:05:21Z</time>
      </trkpt>
      <trkpt lat="45.87196" lon="0.71939">
        <ele>167</ele>
        <time>2022-04-03T12:05:22Z</time>
      </trkpt>
      <trkpt lat="45.87199" lon="0.71945">
        <ele>166.6</ele>
        <time>2022-04-03T12:05:23Z</time>
      </trkpt>
      <trkpt lat="45.87202" lon="0.71951">
        <ele>166.2</ele>
        <time>2022-04-03T12:05:24Z</time>
      </trkpt>
      <trkpt lat="45.87205" lon="0.71957">
        <ele>165</ele>
        <time>2022-04-03T12:05:25Z</time>
      </trkpt>
      <trkpt lat="45.87208" lon="0.71962">
        <ele>164.4</ele>
        <time>2022-04-03T12:05:26Z</time>
      </trkpt>
      <trkpt lat="45.87212" lon="0.71967">
        <ele>164</ele>
        <time>2022-04-03T12:05:27Z</time>
      </trkpt>
      <trkpt lat="45.87216" lon="0.71972">
        <ele>163.2</ele>
        <time>2022-04-03T12:05:28Z</time>
      </trkpt>
      <trkpt lat="45.87221" lon="0.71977">
        <ele>162.4</ele>
        <time>2022-04-03T12:05:29Z</time>
      </trkpt>
      <trkpt lat="45.87226" lon="0.7198">
        <ele>162</ele>
        <time>2022-04-03T12:05:30Z</time>
      </trkpt>
      <trkpt lat="45.8723" lon="0.71982">
        <ele>161.4</ele>
        <time>2022-04-03T12:05:31Z</time>
      </trkpt>
      <trkpt lat="45.87235" lon="0.71983">
        <ele>161.4</ele>
        <time>2022-04-03T12:05:32Z</time>
      </trkpt>
      <trkpt lat="45.87241" lon="0.71984">
        <ele>160.6</ele>
        <time>2022-04-03T12:05:33Z</time>
      </trkpt>
      <trkpt lat="45.87245" lon="0.71984">
        <ele>160</ele>
        <time>2022-04-03T12:05:34Z</time>
      </trkpt>
      <trkpt lat="45.8725" lon="0.71983">
        <ele>159.6</ele>
        <time>2022-04-03T12:05:35Z</time>
      </trkpt>
      <trkpt lat="45.87253" lon="0.71984">
        <ele>159</ele>
        <time>2022-04-03T12:05:36Z</time>
      </trkpt>
      <trkpt lat="45.87257" lon="0.71984">
        <ele>158.2</ele>
        <time>2022-04-03T12:05:37Z</time>
      </trkpt>
      <trkpt lat="45.87261" lon="0.71985">
        <ele>158</ele>
        <time>2022-04-03T12:05:38Z</time>
      </trkpt>
      <trkpt lat="45.87264" lon="0.71985">
        <ele>157.4</ele>
        <time>2022-04-03T12:05:39Z</time>
      </trkpt>
      <trkpt lat="45.87269" lon="0.71985">
        <ele>156.8</ele>
        <time>2022-04-03T12:05:40Z</time>
      </trkpt>
      <trkpt lat="45.87273" lon="0.71983">
        <ele>156.2</ele>
        <time>2022-04-03T12:05:41Z</time>
      </trkpt>
      <trkpt lat="45.87276" lon="0.71981">
        <ele>155.6</ele>
        <time>2022-04-03T12:05:42Z</time>
      </trkpt>
      <trkpt lat="45.87276" lon="0.71981">
        <ele>155</ele>
        <time>2022-04-03T12:05:43Z</time>
      </trkpt>
      <trkpt lat="45.87279" lon="0.71977">
        <ele>154.8</ele>
        <time>2022-04-03T12:05:44Z</time>
      </trkpt>
      <trkpt lat="45.87282" lon="0.71973">
        <ele>154.6</ele>
        <time>2022-04-03T12:05:45Z</time>
      </trkpt>
      <trkpt lat="45.87284" lon="0.71968">
        <ele>154.2</ele>
        <time>2022-04-03T12:05:46Z</time>
      </trkpt>
      <trkpt lat="45.87286" lon="0.71957">
        <ele>154</ele>
        <time>2022-04-03T12:05:47Z</time>
      </trkpt>
      <trkpt lat="45.87286" lon="0.71957">
        <ele>153.8</ele>
        <time>2022-04-03T12:05:48Z</time>
      </trkpt>
      <trkpt lat="45.87283" lon="0.71945">
        <ele>153.6</ele>
        <time>2022-04-03T12:05:49Z</time>
      </trkpt>
      <trkpt lat="45.87283" lon="0.71945">
        <ele>153.6</ele>
        <time>2022-04-03T12:05:50Z</time>
      </trkpt>
      <trkpt lat="45.87282" lon="0.7194">
        <ele>153.6</ele>
        <time>2022-04-03T12:05:51Z</time>
      </trkpt>
      <trkpt lat="45.87281" lon="0.71933">
        <ele>153.4</ele>
        <time>2022-04-03T12:05:52Z</time>
      </trkpt>
      <trkpt lat="45.87281" lon="0.71929">
        <ele>153.4</ele>
        <time>2022-04-03T12:05:53Z</time>
      </trkpt>
      <trkpt lat="45.87281" lon="0.71929">
        <ele>153.4</ele>
        <time>2022-04-03T12:05:54Z</time>
      </trkpt>
      <trkpt lat="45.8728" lon="0.71926">
        <ele>153.4</ele>
        <time>2022-04-03T12:05:55Z</time>
      </trkpt>
      <trkpt lat="45.87279" lon="0.71923">
        <ele>153.2</ele>
        <time>2022-04-03T12:05:56Z</time>
      </trkpt>
      <trkpt lat="45.87278" lon="0.71919">
        <ele>153.2</ele>
        <time>2022-04-03T12:05:57Z</time>
      </trkpt>
      <trkpt lat="45.87277" lon="0.71915">
        <ele>153.2</ele>
        <time>2022-04-03T12:05:58Z</time>
      </trkpt>
      <trkpt lat="45.87278" lon="0.71905">
        <ele>153.2</ele>
        <time>2022-04-03T12:05:59Z</time>
      </trkpt>
      <trkpt lat="45.87279" lon="0.719">
        <ele>153</ele>
        <time>2022-04-03T12:06:00Z</time>
      </trkpt>
      <trkpt lat="45.87279" lon="0.719">
        <ele>153.2</ele>
        <time>2022-04-03T12:06:01Z</time>
      </trkpt>
      <trkpt lat="45.87282" lon="0.7189">
        <ele>153</ele>
        <time>2022-04-03T12:06:02Z</time>
      </trkpt>
      <trkpt lat="45.87283" lon="0.71886">
        <ele>153</ele>
        <time>2022-04-03T12:06:03Z</time>
      </trkpt>
      <trkpt lat="45.87286" lon="0.71881">
        <ele>153</ele>
        <time>2022-04-03T12:06:04Z</time>
      </trkpt>
      <trkpt lat="45.87288" lon="0.71876">
        <ele>153</ele>
        <time>2022-04-03T12:06:05Z</time>
      </trkpt>
      <trkpt lat="45.87291" lon="0.71871">
        <ele>152.8</ele>
        <time>2022-04-03T12:06:06Z</time>
      </trkpt>
      <trkpt lat="45.87293" lon="0.71866">
        <ele>153</ele>
        <time>2022-04-03T12:06:07Z</time>
      </trkpt>
      <trkpt lat="45.87295" lon="0.7186">
        <ele>152.8</ele>
        <time>2022-04-03T12:06:08Z</time>
      </trkpt>
      <trkpt lat="45.87297" lon="0.71855">
        <ele>153</ele>
        <time>2022-04-03T12:06:09Z</time>
      </trkpt>
      <trkpt lat="45.87299" lon="0.7185">
        <ele>153</ele>
        <time>2022-04-03T12:06:10Z</time>
      </trkpt>
      <trkpt lat="45.87299" lon="0.7185">
        <ele>152.8</ele>
        <time>2022-04-03T12:06:11Z</time>
      </trkpt>
      <trkpt lat="45.87302" lon="0.71846">
        <ele>152.8</ele>
        <time>2022-04-03T12:06:12Z</time>
      </trkpt>
      <trkpt lat="45.87309" lon="0.71839">
        <ele>152.6</ele>
        <time>2022-04-03T12:06:13Z</time>
      </trkpt>
      <trkpt lat="45.87312" lon="0.71836">
        <ele>152.6</ele>
        <time>2022-04-03T12:06:14Z</time>
      </trkpt>
      <trkpt lat="45.87314" lon="0.71834">
        <ele>152.6</ele>
        <time>2022-04-03T12:06:15Z</time>
      </trkpt>
      <trkpt lat="45.87317" lon="0.71832">
        <ele>152.4</ele>
        <time>2022-04-03T12:06:16Z</time>
      </trkpt>
      <trkpt lat="45.87319" lon="0.7183">
        <ele>152.4</ele>
        <time>2022-04-03T12:06:17Z</time>
      </trkpt>
      <trkpt lat="45.87322" lon="0.71829">
        <ele>152.2</ele>
        <time>2022-04-03T12:06:18Z</time>
      </trkpt>
      <trkpt lat="45.87324" lon="0.71827">
        <ele>152.2</ele>
        <time>2022-04-03T12:06:19Z</time>
      </trkpt>
      <trkpt lat="45.87327" lon="0.71826">
        <ele>152</ele>
        <time>2022-04-03T12:06:20Z</time>
      </trkpt>
      <trkpt lat="45.87331" lon="0.71825">
        <ele>152</ele>
        <time>2022-04-03T12:06:21Z</time>
      </trkpt>
      <trkpt lat="45.87335" lon="0.71825">
        <ele>151.8</ele>
        <time>2022-04-03T12:06:22Z</time>
      </trkpt>
      <trkpt lat="45.87339" lon="0.71826">
        <ele>151.8</ele>
        <time>2022-04-03T12:06:23Z</time>
      </trkpt>
      <trkpt lat="45.87343" lon="0.71826">
        <ele>151.6</ele>
        <time>2022-04-03T12:06:24Z</time>
      </trkpt>
      <trkpt lat="45.87343" lon="0.71826">
        <ele>151.6</ele>
        <time>2022-04-03T12:06:25Z</time>
      </trkpt>
      <trkpt lat="45.87347" lon="0.71827">
        <ele>151.4</ele>
        <time>2022-04-03T12:06:26Z</time>
      </trkpt>
      <trkpt lat="45.8735" lon="0.71829">
        <ele>151.4</ele>
        <time>2022-04-03T12:06:27Z</time>
      </trkpt>
      <trkpt lat="45.87353" lon="0.71833">
        <ele>151.2</ele>
        <time>2022-04-03T12:06:28Z</time>
      </trkpt>
      <trkpt lat="45.87355" lon="0.71843">
        <ele>151.2</ele>
        <time>2022-04-03T12:06:29Z</time>
      </trkpt>
      <trkpt lat="45.87356" lon="0.71848">
        <ele>151.2</ele>
        <time>2022-04-03T12:06:30Z</time>
      </trkpt>
      <trkpt lat="45.87356" lon="0.71853">
        <ele>151.2</ele>
        <time>2022-04-03T12:06:31Z</time>
      </trkpt>
      <trkpt lat="45.87357" lon="0.71859">
        <ele>151.2</ele>
        <time>2022-04-03T12:06:32Z</time>
      </trkpt>
      <trkpt lat="45.87357" lon="0.71859">
        <ele>151</ele>
        <time>2022-04-03T12:06:33Z</time>
      </trkpt>
      <trkpt lat="45.87357" lon="0.71865">
        <ele>151</ele>
        <time>2022-04-03T12:06:34Z</time>
      </trkpt>
      <trkpt lat="45.87358" lon="0.71876">
        <ele>150.8</ele>
        <time>2022-04-03T12:06:35Z</time>
      </trkpt>
      <trkpt lat="45.87358" lon="0.71876">
        <ele>150.8</ele>
        <time>2022-04-03T12:06:36Z</time>
      </trkpt>
      <trkpt lat="45.8736" lon="0.71881">
        <ele>150.6</ele>
        <time>2022-04-03T12:06:37Z</time>
      </trkpt>
      <trkpt lat="45.87361" lon="0.71887">
        <ele>150.4</ele>
        <time>2022-04-03T12:06:38Z</time>
      </trkpt>
      <trkpt lat="45.87364" lon="0.71897">
        <ele>150.4</ele>
        <time>2022-04-03T12:06:39Z</time>
      </trkpt>
      <trkpt lat="45.87364" lon="0.71897">
        <ele>150.4</ele>
        <time>2022-04-03T12:06:40Z</time>
      </trkpt>
      <trkpt lat="45.87366" lon="0.71902">
        <ele>150.2</ele>
        <time>2022-04-03T12:06:41Z</time>
      </trkpt>
      <trkpt lat="45.87372" lon="0.71912">
        <ele>150.4</ele>
        <time>2022-04-03T12:06:42Z</time>
      </trkpt>
      <trkpt lat="45.87374" lon="0.71916">
        <ele>150.2</ele>
        <time>2022-04-03T12:06:43Z</time>
      </trkpt>
      <trkpt lat="45.87374" lon="0.71916">
        <ele>150</ele>
        <time>2022-04-03T12:06:44Z</time>
      </trkpt>
      <trkpt lat="45.87377" lon="0.7192">
        <ele>150.2</ele>
        <time>2022-04-03T12:06:45Z</time>
      </trkpt>
      <trkpt lat="45.8738" lon="0.71924">
        <ele>150.2</ele>
        <time>2022-04-03T12:06:46Z</time>
      </trkpt>
      <trkpt lat="45.87386" lon="0.71932">
        <ele>149.8</ele>
        <time>2022-04-03T12:06:47Z</time>
      </trkpt>
      <trkpt lat="45.87389" lon="0.71936">
        <ele>149.8</ele>
        <time>2022-04-03T12:06:48Z</time>
      </trkpt>
      <trkpt lat="45.87389" lon="0.71936">
        <ele>150</ele>
        <time>2022-04-03T12:06:49Z</time>
      </trkpt>
      <trkpt lat="45.87396" lon="0.71944">
        <ele>149.8</ele>
        <time>2022-04-03T12:06:50Z</time>
      </trkpt>
      <trkpt lat="45.87399" lon="0.71947">
        <ele>149.8</ele>
        <time>2022-04-03T12:06:51Z</time>
      </trkpt>
      <trkpt lat="45.87402" lon="0.71951">
        <ele>149.8</ele>
        <time>2022-04-03T12:06:52Z</time>
      </trkpt>
      <trkpt lat="45.87405" lon="0.71955">
        <ele>149.8</ele>
        <time>2022-04-03T12:06:53Z</time>
      </trkpt>
      <trkpt lat="45.87408" lon="0.71957">
        <ele>149.8</ele>
        <time>2022-04-03T12:06:54Z</time>
      </trkpt>
      <trkpt lat="45.8741" lon="0.71959">
        <ele>149.8</ele>
        <time>2022-04-03T12:06:55Z</time>
      </trkpt>
      <trkpt lat="45.87413" lon="0.71961">
        <ele>149.8</ele>
        <time>2022-04-03T12:06:56Z</time>
      </trkpt>
      <trkpt lat="45.87416" lon="0.71963">
        <ele>149.8</ele>
        <time>2022-04-03T12:06:57Z</time>
      </trkpt>
      <trkpt lat="45.87419" lon="0.71964">
        <ele>149.8</ele>
        <time>2022-04-03T12:06:58Z</time>
      </trkpt>
      <trkpt lat="45.87422" lon="0.71965">
        <ele>149.8</ele>
        <time>2022-04-03T12:06:59Z</time>
      </trkpt>
      <trkpt lat="45.87425" lon="0.71966">
        <ele>149.8</ele>
        <time>2022-04-03T12:07:00Z</time>
      </trkpt>
      <trkpt lat="45.87427" lon="0.71967">
        <ele>150</ele>
        <time>2022-04-03T12:07:01Z</time>
      </trkpt>
      <trkpt lat="45.87429" lon="0.71969">
        <ele>150</ele>
        <time>2022-04-03T12:07:02Z</time>
      </trkpt>
      <trkpt lat="45.87432" lon="0.7197">
        <ele>150.4</ele>
        <time>2022-04-03T12:07:03Z</time>
      </trkpt>
      <trkpt lat="45.87434" lon="0.71971">
        <ele>150.6</ele>
        <time>2022-04-03T12:07:04Z</time>
      </trkpt>
      <trkpt lat="45.87436" lon="0.71972">
        <ele>150.8</ele>
        <time>2022-04-03T12:07:05Z</time>
      </trkpt>
      <trkpt lat="45.87438" lon="0.71972">
        <ele>151</ele>
        <time>2022-04-03T12:07:06Z</time>
      </trkpt>
      <trkpt lat="45.87439" lon="0.71972">
        <ele>151</ele>
        <time>2022-04-03T12:07:07Z</time>
      </trkpt>
      <trkpt lat="45.87441" lon="0.71973">
        <ele>151.2</ele>
        <time>2022-04-03T12:07:08Z</time>
      </trkpt>
      <trkpt lat="45.87441" lon="0.71973">
        <ele>151.4</ele>
        <time>2022-04-03T12:07:09Z</time>
      </trkpt>
      <trkpt lat="45.87444" lon="0.71974">
        <ele>151.4</ele>
        <time>2022-04-03T12:07:10Z</time>
      </trkpt>
      <trkpt lat="45.87445" lon="0.71975">
        <ele>151.6</ele>
        <time>2022-04-03T12:07:11Z</time>
      </trkpt>
      <trkpt lat="45.87447" lon="0.71975">
        <ele>151.8</ele>
        <time>2022-04-03T12:07:12Z</time>
      </trkpt>
      <trkpt lat="45.87448" lon="0.71976">
        <ele>151.8</ele>
        <time>2022-04-03T12:07:13Z</time>
      </trkpt>
      <trkpt lat="45.87449" lon="0.71977">
        <ele>152</ele>
        <time>2022-04-03T12:07:14Z</time>
      </trkpt>
      <trkpt lat="45.8745" lon="0.71978">
        <ele>152.2</ele>
        <time>2022-04-03T12:07:15Z</time>
      </trkpt>
      <trkpt lat="45.87451" lon="0.7198">
        <ele>152.2</ele>
        <time>2022-04-03T12:07:16Z</time>
      </trkpt>
      <trkpt lat="45.87451" lon="0.71982">
        <ele>152.2</ele>
        <time>2022-04-03T12:07:17Z</time>
      </trkpt>
      <trkpt lat="45.87451" lon="0.71982">
        <ele>152.4</ele>
        <time>2022-04-03T12:07:18Z</time>
      </trkpt>
      <trkpt lat="45.87451" lon="0.71985">
        <ele>152.4</ele>
        <time>2022-04-03T12:07:19Z</time>
      </trkpt>
      <trkpt lat="45.87451" lon="0.7199">
        <ele>152.6</ele>
        <time>2022-04-03T12:07:20Z</time>
      </trkpt>
      <trkpt lat="45.87452" lon="0.71993">
        <ele>152.4</ele>
        <time>2022-04-03T12:07:21Z</time>
      </trkpt>
      <trkpt lat="45.87453" lon="0.71996">
        <ele>152.4</ele>
        <time>2022-04-03T12:07:22Z</time>
      </trkpt>
      <trkpt lat="45.87454" lon="0.72">
        <ele>152.6</ele>
        <time>2022-04-03T12:07:23Z</time>
      </trkpt>
      <trkpt lat="45.87455" lon="0.72004">
        <ele>152.4</ele>
        <time>2022-04-03T12:07:24Z</time>
      </trkpt>
      <trkpt lat="45.87456" lon="0.72008">
        <ele>152.6</ele>
        <time>2022-04-03T12:07:25Z</time>
      </trkpt>
      <trkpt lat="45.87456" lon="0.72012">
        <ele>152.6</ele>
        <time>2022-04-03T12:07:26Z</time>
      </trkpt>
      <trkpt lat="45.87457" lon="0.72015">
        <ele>152.6</ele>
        <time>2022-04-03T12:07:27Z</time>
      </trkpt>
      <trkpt lat="45.87457" lon="0.72019">
        <ele>152.6</ele>
        <time>2022-04-03T12:07:28Z</time>
      </trkpt>
      <trkpt lat="45.87457" lon="0.72019">
        <ele>152.6</ele>
        <time>2022-04-03T12:07:29Z</time>
      </trkpt>
      <trkpt lat="45.87459" lon="0.72025">
        <ele>152.4</ele>
        <time>2022-04-03T12:07:30Z</time>
      </trkpt>
      <trkpt lat="45.87459" lon="0.72025">
        <ele>152.2</ele>
        <time>2022-04-03T12:07:31Z</time>
      </trkpt>
      <trkpt lat="45.87459" lon="0.72031">
        <ele>152.2</ele>
        <time>2022-04-03T12:07:32Z</time>
      </trkpt>
      <trkpt lat="45.87459" lon="0.72033">
        <ele>152.2</ele>
        <time>2022-04-03T12:07:33Z</time>
      </trkpt>
      <trkpt lat="45.87459" lon="0.72033">
        <ele>152</ele>
        <time>2022-04-03T12:07:34Z</time>
      </trkpt>
      <trkpt lat="45.8746" lon="0.72036">
        <ele>151.8</ele>
        <time>2022-04-03T12:07:35Z</time>
      </trkpt>
      <trkpt lat="45.8746" lon="0.72037">
        <ele>151.8</ele>
        <time>2022-04-03T12:07:36Z</time>
      </trkpt>
      <trkpt lat="45.87455" lon="0.72019">
        <ele>152.8</ele>
        <time>2022-04-03T12:38:43Z</time>
      </trkpt>
      <trkpt lat="45.87455" lon="0.72018">
        <ele>152.6</ele>
        <time>2022-04-03T12:38:44Z</time>
      </trkpt>
      <trkpt lat="45.87455" lon="0.72016">
        <ele>152.8</ele>
        <time>2022-04-03T12:38:45Z</time>
      </trkpt>
      <trkpt lat="45.87455" lon="0.72015">
        <ele>152.8</ele>
        <time>2022-04-03T12:38:46Z</time>
      </trkpt>
      <trkpt lat="45.87454" lon="0.72013">
        <ele>152.8</ele>
        <time>2022-04-03T12:38:47Z</time>
      </trkpt>
      <trkpt lat="45.87454" lon="0.72012">
        <ele>153</ele>
        <time>2022-04-03T12:38:48Z</time>
      </trkpt>
      <trkpt lat="45.87454" lon="0.7201">
        <ele>153</ele>
        <time>2022-04-03T12:38:49Z</time>
      </trkpt>
      <trkpt lat="45.87453" lon="0.72008">
        <ele>153</ele>
        <time>2022-04-03T12:38:50Z</time>
      </trkpt>
      <trkpt lat="45.87453" lon="0.72007">
        <ele>153</ele>
        <time>2022-04-03T12:38:51Z</time>
      </trkpt>
      <trkpt lat="45.87453" lon="0.72005">
        <ele>153</ele>
        <time>2022-04-03T12:38:52Z</time>
      </trkpt>
      <trkpt lat="45.87453" lon="0.72004">
        <ele>153</ele>
        <time>2022-04-03T12:38:53Z</time>
      </trkpt>
      <trkpt lat="45.87452" lon="0.72002">
        <ele>153.2</ele>
        <time>2022-04-03T12:38:54Z</time>
      </trkpt>
      <trkpt lat="45.87452" lon="0.72">
        <ele>153.2</ele>
        <time>2022-04-03T12:38:55Z</time>
      </trkpt>
      <trkpt lat="45.87452" lon="0.71999">
        <ele>153.2</ele>
        <time>2022-04-03T12:38:56Z</time>
      </trkpt>
      <trkpt lat="45.87452" lon="0.71997">
        <ele>153.4</ele>
        <time>2022-04-03T12:38:57Z</time>
      </trkpt>
      <trkpt lat="45.87452" lon="0.71996">
        <ele>153.6</ele>
        <time>2022-04-03T12:38:58Z</time>
      </trkpt>
      <trkpt lat="45.87451" lon="0.71994">
        <ele>153.6</ele>
        <time>2022-04-03T12:38:59Z</time>
      </trkpt>
      <trkpt lat="45.87451" lon="0.71993">
        <ele>153.6</ele>
        <time>2022-04-03T12:39:00Z</time>
      </trkpt>
      <trkpt lat="45.87451" lon="0.71991">
        <ele>153.8</ele>
        <time>2022-04-03T12:39:01Z</time>
      </trkpt>
      <trkpt lat="45.87451" lon="0.7199">
        <ele>153.6</ele>
        <time>2022-04-03T12:39:02Z</time>
      </trkpt>
      <trkpt lat="45.8745" lon="0.71988">
        <ele>153.8</ele>
        <time>2022-04-03T12:39:03Z</time>
      </trkpt>
      <trkpt lat="45.8745" lon="0.71986">
        <ele>153.8</ele>
        <time>2022-04-03T12:39:04Z</time>
      </trkpt>
      <trkpt lat="45.8745" lon="0.71985">
        <ele>153.8</ele>
        <time>2022-04-03T12:39:05Z</time>
      </trkpt>
      <trkpt lat="45.87449" lon="0.71983">
        <ele>154</ele>
        <time>2022-04-03T12:39:06Z</time>
      </trkpt>
      <trkpt lat="45.87449" lon="0.71982">
        <ele>154</ele>
        <time>2022-04-03T12:39:07Z</time>
      </trkpt>
      <trkpt lat="45.87448" lon="0.71981">
        <ele>154.2</ele>
        <time>2022-04-03T12:39:08Z</time>
      </trkpt>
      <trkpt lat="45.87448" lon="0.7198">
        <ele>154.2</ele>
        <time>2022-04-03T12:39:09Z</time>
      </trkpt>
      <trkpt lat="45.87447" lon="0.71978">
        <ele>154</ele>
        <time>2022-04-03T12:39:10Z</time>
      </trkpt>
      <trkpt lat="45.87447" lon="0.71977">
        <ele>154</ele>
        <time>2022-04-03T12:39:11Z</time>
      </trkpt>
      <trkpt lat="45.87447" lon="0.71976">
        <ele>154.2</ele>
        <time>2022-04-03T12:39:12Z</time>
      </trkpt>
      <trkpt lat="45.87448" lon="0.71975">
        <ele>154.2</ele>
        <time>2022-04-03T12:39:13Z</time>
      </trkpt>
      <trkpt lat="45.87448" lon="0.71974">
        <ele>154.2</ele>
        <time>2022-04-03T12:39:14Z</time>
      </trkpt>
      <trkpt lat="45.87449" lon="0.71974">
        <ele>154.2</ele>
        <time>2022-04-03T12:39:15Z</time>
      </trkpt>
      <trkpt lat="45.8745" lon="0.71974">
        <ele>154.4</ele>
        <time>2022-04-03T12:39:16Z</time>
      </trkpt>
      <trkpt lat="45.87451" lon="0.71974">
        <ele>154.2</ele>
        <time>2022-04-03T12:39:17Z</time>
      </trkpt>
      <trkpt lat="45.87452" lon="0.71974">
        <ele>154.4</ele>
        <time>2022-04-03T12:39:18Z</time>
      </trkpt>
      <trkpt lat="45.87453" lon="0.71974">
        <ele>154.4</ele>
        <time>2022-04-03T12:39:19Z</time>
      </trkpt>
      <trkpt lat="45.87454" lon="0.71975">
        <ele>154.4</ele>
        <time>2022-04-03T12:39:20Z</time>
      </trkpt>
      <trkpt lat="45.87458" lon="0.71974">
        <ele>154.4</ele>
        <time>2022-04-03T12:39:29Z</time>
      </trkpt>
      <trkpt lat="45.87459" lon="0.71974">
        <ele>154.4</ele>
        <time>2022-04-03T12:39:30Z</time>
      </trkpt>
      <trkpt lat="45.8746" lon="0.71974">
        <ele>154.4</ele>
        <time>2022-04-03T12:39:31Z</time>
      </trkpt>
      <trkpt lat="45.87461" lon="0.71974">
        <ele>154.4</ele>
        <time>2022-04-03T12:39:32Z</time>
      </trkpt>
      <trkpt lat="45.87463" lon="0.71975">
        <ele>154.4</ele>
        <time>2022-04-03T12:39:33Z</time>
      </trkpt>
      <trkpt lat="45.87465" lon="0.71975">
        <ele>154.6</ele>
        <time>2022-04-03T12:39:34Z</time>
      </trkpt>
      <trkpt lat="45.87466" lon="0.71975">
        <ele>154.4</ele>
        <time>2022-04-03T12:39:35Z</time>
      </trkpt>
      <trkpt lat="45.87469" lon="0.71975">
        <ele>154.4</ele>
        <time>2022-04-03T12:39:36Z</time>
      </trkpt>
      <trkpt lat="45.87471" lon="0.71976">
        <ele>154.6</ele>
        <time>2022-04-03T12:39:37Z</time>
      </trkpt>
      <trkpt lat="45.87473" lon="0.71976">
        <ele>154.4</ele>
        <time>2022-04-03T12:39:38Z</time>
      </trkpt>
      <trkpt lat="45.87476" lon="0.71976">
        <ele>154.6</ele>
        <time>2022-04-03T12:39:39Z</time>
      </trkpt>
      <trkpt lat="45.87479" lon="0.71975">
        <ele>154.4</ele>
        <time>2022-04-03T12:39:40Z</time>
      </trkpt>
      <trkpt lat="45.87481" lon="0.71976">
        <ele>154.4</ele>
        <time>2022-04-03T12:39:41Z</time>
      </trkpt>
      <trkpt lat="45.87484" lon="0.71976">
        <ele>154.4</ele>
        <time>2022-04-03T12:39:42Z</time>
      </trkpt>
      <trkpt lat="45.87487" lon="0.71976">
        <ele>154.6</ele>
        <time>2022-04-03T12:39:43Z</time>
      </trkpt>
      <trkpt lat="45.8749" lon="0.71976">
        <ele>154.4</ele>
        <time>2022-04-03T12:39:44Z</time>
      </trkpt>
      <trkpt lat="45.87493" lon="0.71976">
        <ele>154.4</ele>
        <time>2022-04-03T12:39:45Z</time>
      </trkpt>
      <trkpt lat="45.87496" lon="0.71977">
        <ele>154.4</ele>
        <time>2022-04-03T12:39:46Z</time>
      </trkpt>
      <trkpt lat="45.87499" lon="0.71977">
        <ele>154.6</ele>
        <time>2022-04-03T12:39:47Z</time>
      </trkpt>
      <trkpt lat="45.87502" lon="0.71977">
        <ele>154.4</ele>
        <time>2022-04-03T12:39:48Z</time>
      </trkpt>
      <trkpt lat="45.87505" lon="0.71978">
        <ele>154.6</ele>
        <time>2022-04-03T12:39:49Z</time>
      </trkpt>
      <trkpt lat="45.87508" lon="0.71978">
        <ele>154.4</ele>
        <time>2022-04-03T12:39:50Z</time>
      </trkpt>
      <trkpt lat="45.87511" lon="0.71978">
        <ele>154.6</ele>
        <time>2022-04-03T12:39:51Z</time>
      </trkpt>
      <trkpt lat="45.87514" lon="0.71978">
        <ele>154.4</ele>
        <time>2022-04-03T12:39:52Z</time>
      </trkpt>
      <trkpt lat="45.87517" lon="0.71979">
        <ele>154.6</ele>
        <time>2022-04-03T12:39:53Z</time>
      </trkpt>
      <trkpt lat="45.8752" lon="0.71979">
        <ele>154.6</ele>
        <time>2022-04-03T12:39:54Z</time>
      </trkpt>
      <trkpt lat="45.87523" lon="0.71979">
        <ele>154.6</ele>
        <time>2022-04-03T12:39:55Z</time>
      </trkpt>
      <trkpt lat="45.87527" lon="0.71979">
        <ele>154.6</ele>
        <time>2022-04-03T12:39:56Z</time>
      </trkpt>
      <trkpt lat="45.8753" lon="0.71979">
        <ele>154.4</ele>
        <time>2022-04-03T12:39:57Z</time>
      </trkpt>
      <trkpt lat="45.87533" lon="0.71979">
        <ele>154.6</ele>
        <time>2022-04-03T12:39:58Z</time>
      </trkpt>
      <trkpt lat="45.87537" lon="0.7198">
        <ele>154.6</ele>
        <time>2022-04-03T12:39:59Z</time>
      </trkpt>
      <trkpt lat="45.8754" lon="0.7198">
        <ele>154.6</ele>
        <time>2022-04-03T12:40:00Z</time>
      </trkpt>
      <trkpt lat="45.87544" lon="0.7198">
        <ele>154.6</ele>
        <time>2022-04-03T12:40:01Z</time>
      </trkpt>
      <trkpt lat="45.87547" lon="0.7198">
        <ele>154.6</ele>
        <time>2022-04-03T12:40:02Z</time>
      </trkpt>
      <trkpt lat="45.87551" lon="0.71981">
        <ele>154.6</ele>
        <time>2022-04-03T12:40:03Z</time>
      </trkpt>
      <trkpt lat="45.87554" lon="0.71982">
        <ele>154.6</ele>
        <time>2022-04-03T12:40:04Z</time>
      </trkpt>
      <trkpt lat="45.87558" lon="0.71983">
        <ele>154.6</ele>
        <time>2022-04-03T12:40:05Z</time>
      </trkpt>
      <trkpt lat="45.87562" lon="0.71983">
        <ele>154.4</ele>
        <time>2022-04-03T12:40:06Z</time>
      </trkpt>
      <trkpt lat="45.87566" lon="0.71983">
        <ele>154.4</ele>
        <time>2022-04-03T12:40:07Z</time>
      </trkpt>
      <trkpt lat="45.87569" lon="0.71984">
        <ele>154.4</ele>
        <time>2022-04-03T12:40:08Z</time>
      </trkpt>
      <trkpt lat="45.87573" lon="0.71983">
        <ele>154.2</ele>
        <time>2022-04-03T12:40:09Z</time>
      </trkpt>
      <trkpt lat="45.87576" lon="0.71983">
        <ele>154.4</ele>
        <time>2022-04-03T12:40:10Z</time>
      </trkpt>
      <trkpt lat="45.87579" lon="0.71983">
        <ele>154.2</ele>
        <time>2022-04-03T12:40:11Z</time>
      </trkpt>
      <trkpt lat="45.87582" lon="0.71983">
        <ele>154.4</ele>
        <time>2022-04-03T12:40:12Z</time>
      </trkpt>
      <trkpt lat="45.87585" lon="0.71983">
        <ele>154.4</ele>
        <time>2022-04-03T12:40:13Z</time>
      </trkpt>
      <trkpt lat="45.87588" lon="0.71983">
        <ele>154.4</ele>
        <time>2022-04-03T12:40:14Z</time>
      </trkpt>
      <trkpt lat="45.8759" lon="0.71984">
        <ele>154.2</ele>
        <time>2022-04-03T12:40:15Z</time>
      </trkpt>
      <trkpt lat="45.87593" lon="0.71984">
        <ele>154.2</ele>
        <time>2022-04-03T12:40:16Z</time>
      </trkpt>
      <trkpt lat="45.87596" lon="0.71984">
        <ele>154.4</ele>
        <time>2022-04-03T12:40:17Z</time>
      </trkpt>
      <trkpt lat="45.87599" lon="0.71984">
        <ele>154.4</ele>
        <time>2022-04-03T12:40:18Z</time>
      </trkpt>
      <trkpt lat="45.87602" lon="0.71984">
        <ele>154.4</ele>
        <time>2022-04-03T12:40:19Z</time>
      </trkpt>
      <trkpt lat="45.87604" lon="0.71984">
        <ele>154.6</ele>
        <time>2022-04-03T12:40:20Z</time>
      </trkpt>
      <trkpt lat="45.87607" lon="0.71984">
        <ele>155.2</ele>
        <time>2022-04-03T12:40:21Z</time>
      </trkpt>
      <trkpt lat="45.8761" lon="0.71983">
        <ele>155.2</ele>
        <time>2022-04-03T12:40:22Z</time>
      </trkpt>
      <trkpt lat="45.87612" lon="0.71982">
        <ele>155.2</ele>
        <time>2022-04-03T12:40:23Z</time>
      </trkpt>
      <trkpt lat="45.87614" lon="0.71982">
        <ele>155.6</ele>
        <time>2022-04-03T12:40:24Z</time>
      </trkpt>
      <trkpt lat="45.87617" lon="0.7198">
        <ele>155.6</ele>
        <time>2022-04-03T12:40:25Z</time>
      </trkpt>
      <trkpt lat="45.87619" lon="0.71979">
        <ele>155.8</ele>
        <time>2022-04-03T12:40:26Z</time>
      </trkpt>
      <trkpt lat="45.87622" lon="0.71977">
        <ele>156</ele>
        <time>2022-04-03T12:40:27Z</time>
      </trkpt>
      <trkpt lat="45.87624" lon="0.71975">
        <ele>156.4</ele>
        <time>2022-04-03T12:40:28Z</time>
      </trkpt>
      <trkpt lat="45.87625" lon="0.71971">
        <ele>156.4</ele>
        <time>2022-04-03T12:40:29Z</time>
      </trkpt>
      <trkpt lat="45.87626" lon="0.71967">
        <ele>156.6</ele>
        <time>2022-04-03T12:40:30Z</time>
      </trkpt>
      <trkpt lat="45.87626" lon="0.71964">
        <ele>156.8</ele>
        <time>2022-04-03T12:40:31Z</time>
      </trkpt>
      <trkpt lat="45.87625" lon="0.7196">
        <ele>156.8</ele>
        <time>2022-04-03T12:40:32Z</time>
      </trkpt>
      <trkpt lat="45.87624" lon="0.71955">
        <ele>157</ele>
        <time>2022-04-03T12:40:33Z</time>
      </trkpt>
      <trkpt lat="45.87624" lon="0.71951">
        <ele>157.2</ele>
        <time>2022-04-03T12:40:34Z</time>
      </trkpt>
      <trkpt lat="45.87624" lon="0.71947">
        <ele>157.4</ele>
        <time>2022-04-03T12:40:35Z</time>
      </trkpt>
      <trkpt lat="45.87624" lon="0.71943">
        <ele>157.4</ele>
        <time>2022-04-03T12:40:36Z</time>
      </trkpt>
      <trkpt lat="45.87624" lon="0.71938">
        <ele>157.4</ele>
        <time>2022-04-03T12:40:37Z</time>
      </trkpt>
      <trkpt lat="45.87623" lon="0.71933">
        <ele>157.6</ele>
        <time>2022-04-03T12:40:38Z</time>
      </trkpt>
      <trkpt lat="45.87623" lon="0.71928">
        <ele>157.6</ele>
        <time>2022-04-03T12:40:39Z</time>
      </trkpt>
      <trkpt lat="45.87622" lon="0.71923">
        <ele>157.6</ele>
        <time>2022-04-03T12:40:40Z</time>
      </trkpt>
      <trkpt lat="45.87622" lon="0.71917">
        <ele>157.6</ele>
        <time>2022-04-03T12:40:41Z</time>
      </trkpt>
      <trkpt lat="45.87621" lon="0.71911">
        <ele>157.6</ele>
        <time>2022-04-03T12:40:42Z</time>
      </trkpt>
      <trkpt lat="45.87621" lon="0.71905">
        <ele>157.6</ele>
        <time>2022-04-03T12:40:43Z</time>
      </trkpt>
      <trkpt lat="45.8762" lon="0.71899">
        <ele>157.6</ele>
        <time>2022-04-03T12:40:44Z</time>
      </trkpt>
      <trkpt lat="45.8762" lon="0.71894">
        <ele>157.6</ele>
        <time>2022-04-03T12:40:45Z</time>
      </trkpt>
      <trkpt lat="45.8762" lon="0.71888">
        <ele>157.8</ele>
        <time>2022-04-03T12:40:46Z</time>
      </trkpt>
      <trkpt lat="45.87621" lon="0.71882">
        <ele>157.6</ele>
        <time>2022-04-03T12:40:47Z</time>
      </trkpt>
      <trkpt lat="45.87623" lon="0.71877">
        <ele>157.6</ele>
        <time>2022-04-03T12:40:48Z</time>
      </trkpt>
      <trkpt lat="45.87625" lon="0.71873">
        <ele>157.4</ele>
        <time>2022-04-03T12:40:49Z</time>
      </trkpt>
      <trkpt lat="45.87627" lon="0.71868">
        <ele>157.2</ele>
        <time>2022-04-03T12:40:50Z</time>
      </trkpt>
      <trkpt lat="45.87628" lon="0.71863">
        <ele>157</ele>
        <time>2022-04-03T12:40:51Z</time>
      </trkpt>
      <trkpt lat="45.8763" lon="0.71858">
        <ele>157</ele>
        <time>2022-04-03T12:40:52Z</time>
      </trkpt>
      <trkpt lat="45.87631" lon="0.71853">
        <ele>156.8</ele>
        <time>2022-04-03T12:40:53Z</time>
      </trkpt>
      <trkpt lat="45.87632" lon="0.71848">
        <ele>156.6</ele>
        <time>2022-04-03T12:40:54Z</time>
      </trkpt>
      <trkpt lat="45.87634" lon="0.71844">
        <ele>156.6</ele>
        <time>2022-04-03T12:40:55Z</time>
      </trkpt>
      <trkpt lat="45.87635" lon="0.7184">
        <ele>156.6</ele>
        <time>2022-04-03T12:40:56Z</time>
      </trkpt>
      <trkpt lat="45.87637" lon="0.71836">
        <ele>156.6</ele>
        <time>2022-04-03T12:40:57Z</time>
      </trkpt>
      <trkpt lat="45.87638" lon="0.71831">
        <ele>156.6</ele>
        <time>2022-04-03T12:40:58Z</time>
      </trkpt>
      <trkpt lat="45.87639" lon="0.71826">
        <ele>156.6</ele>
        <time>2022-04-03T12:40:59Z</time>
      </trkpt>
      <trkpt lat="45.87641" lon="0.7182">
        <ele>156.4</ele>
        <time>2022-04-03T12:41:00Z</time>
      </trkpt>
      <trkpt lat="45.87643" lon="0.71815">
        <ele>156.4</ele>
        <time>2022-04-03T12:41:01Z</time>
      </trkpt>
      <trkpt lat="45.87645" lon="0.71809">
        <ele>156.4</ele>
        <time>2022-04-03T12:41:02Z</time>
      </trkpt>
      <trkpt lat="45.87647" lon="0.71803">
        <ele>156.4</ele>
        <time>2022-04-03T12:41:03Z</time>
      </trkpt>
      <trkpt lat="45.87649" lon="0.71796">
        <ele>156.4</ele>
        <time>2022-04-03T12:41:04Z</time>
      </trkpt>
      <trkpt lat="45.87651" lon="0.7179">
        <ele>156.2</ele>
        <time>2022-04-03T12:41:05Z</time>
      </trkpt>
      <trkpt lat="45.87653" lon="0.71783">
        <ele>156.2</ele>
        <time>2022-04-03T12:41:06Z</time>
      </trkpt>
      <trkpt lat="45.87654" lon="0.71777">
        <ele>156.2</ele>
        <time>2022-04-03T12:41:07Z</time>
      </trkpt>
      <trkpt lat="45.87656" lon="0.7177">
        <ele>156.2</ele>
        <time>2022-04-03T12:41:08Z</time>
      </trkpt>
      <trkpt lat="45.87658" lon="0.71764">
        <ele>156.2</ele>
        <time>2022-04-03T12:41:09Z</time>
      </trkpt>
      <trkpt lat="45.8766" lon="0.71757">
        <ele>156</ele>
        <time>2022-04-03T12:41:10Z</time>
      </trkpt>
      <trkpt lat="45.87662" lon="0.71749">
        <ele>156.2</ele>
        <time>2022-04-03T12:41:11Z</time>
      </trkpt>
      <trkpt lat="45.87664" lon="0.71742">
        <ele>155.8</ele>
        <time>2022-04-03T12:41:12Z</time>
      </trkpt>
      <trkpt lat="45.87667" lon="0.71736">
        <ele>155.8</ele>
        <time>2022-04-03T12:41:13Z</time>
      </trkpt>
      <trkpt lat="45.87669" lon="0.71729">
        <ele>155.6</ele>
        <time>2022-04-03T12:41:14Z</time>
      </trkpt>
      <trkpt lat="45.87672" lon="0.71722">
        <ele>155.4</ele>
        <time>2022-04-03T12:41:15Z</time>
      </trkpt>
      <trkpt lat="45.87674" lon="0.71715">
        <ele>155.6</ele>
        <time>2022-04-03T12:41:16Z</time>
      </trkpt>
      <trkpt lat="45.87677" lon="0.71709">
        <ele>155.2</ele>
        <time>2022-04-03T12:41:17Z</time>
      </trkpt>
      <trkpt lat="45.87681" lon="0.71704">
        <ele>155.2</ele>
        <time>2022-04-03T12:41:18Z</time>
      </trkpt>
      <trkpt lat="45.87684" lon="0.71698">
        <ele>155.2</ele>
        <time>2022-04-03T12:41:19Z</time>
      </trkpt>
      <trkpt lat="45.87688" lon="0.71692">
        <ele>155</ele>
        <time>2022-04-03T12:41:20Z</time>
      </trkpt>
      <trkpt lat="45.87691" lon="0.71686">
        <ele>154.8</ele>
        <time>2022-04-03T12:41:21Z</time>
      </trkpt>
      <trkpt lat="45.87694" lon="0.7168">
        <ele>155</ele>
        <time>2022-04-03T12:41:22Z</time>
      </trkpt>
      <trkpt lat="45.87697" lon="0.71674">
        <ele>154.8</ele>
        <time>2022-04-03T12:41:23Z</time>
      </trkpt>
      <trkpt lat="45.87701" lon="0.71669">
        <ele>154.8</ele>
        <time>2022-04-03T12:41:24Z</time>
      </trkpt>
      <trkpt lat="45.87704" lon="0.71663">
        <ele>154.8</ele>
        <time>2022-04-03T12:41:25Z</time>
      </trkpt>
      <trkpt lat="45.87708" lon="0.71658">
        <ele>155</ele>
        <time>2022-04-03T12:41:26Z</time>
      </trkpt>
      <trkpt lat="45.87711" lon="0.71653">
        <ele>155</ele>
        <time>2022-04-03T12:41:27Z</time>
      </trkpt>
      <trkpt lat="45.87715" lon="0.71649">
        <ele>154.8</ele>
        <time>2022-04-03T12:41:28Z</time>
      </trkpt>
      <trkpt lat="45.87718" lon="0.71644">
        <ele>154.8</ele>
        <time>2022-04-03T12:41:29Z</time>
      </trkpt>
      <trkpt lat="45.87722" lon="0.71639">
        <ele>154.8</ele>
        <time>2022-04-03T12:41:30Z</time>
      </trkpt>
      <trkpt lat="45.87725" lon="0.71634">
        <ele>155</ele>
        <time>2022-04-03T12:41:31Z</time>
      </trkpt>
      <trkpt lat="45.87729" lon="0.71629">
        <ele>155</ele>
        <time>2022-04-03T12:41:32Z</time>
      </trkpt>
      <trkpt lat="45.87732" lon="0.71625">
        <ele>155.2</ele>
        <time>2022-04-03T12:41:33Z</time>
      </trkpt>
      <trkpt lat="45.87735" lon="0.7162">
        <ele>155.2</ele>
        <time>2022-04-03T12:41:34Z</time>
      </trkpt>
      <trkpt lat="45.87739" lon="0.71615">
        <ele>155.2</ele>
        <time>2022-04-03T12:41:35Z</time>
      </trkpt>
      <trkpt lat="45.87742" lon="0.71611">
        <ele>155.2</ele>
        <time>2022-04-03T12:41:36Z</time>
      </trkpt>
      <trkpt lat="45.87745" lon="0.71606">
        <ele>155.4</ele>
        <time>2022-04-03T12:41:37Z</time>
      </trkpt>
      <trkpt lat="45.87748" lon="0.71601">
        <ele>155.4</ele>
        <time>2022-04-03T12:41:38Z</time>
      </trkpt>
      <trkpt lat="45.87751" lon="0.71596">
        <ele>155.4</ele>
        <time>2022-04-03T12:41:39Z</time>
      </trkpt>
      <trkpt lat="45.87754" lon="0.71591">
        <ele>155.4</ele>
        <time>2022-04-03T12:41:40Z</time>
      </trkpt>
      <trkpt lat="45.87757" lon="0.71587">
        <ele>155.4</ele>
        <time>2022-04-03T12:41:41Z</time>
      </trkpt>
      <trkpt lat="45.87761" lon="0.71582">
        <ele>155.4</ele>
        <time>2022-04-03T12:41:42Z</time>
      </trkpt>
      <trkpt lat="45.87765" lon="0.71578">
        <ele>155.6</ele>
        <time>2022-04-03T12:41:43Z</time>
      </trkpt>
      <trkpt lat="45.87769" lon="0.71573">
        <ele>155.6</ele>
        <time>2022-04-03T12:41:44Z</time>
      </trkpt>
      <trkpt lat="45.87772" lon="0.71569">
        <ele>155.6</ele>
        <time>2022-04-03T12:41:45Z</time>
      </trkpt>
      <trkpt lat="45.87776" lon="0.71564">
        <ele>155.8</ele>
        <time>2022-04-03T12:41:46Z</time>
      </trkpt>
      <trkpt lat="45.8778" lon="0.71559">
        <ele>155.8</ele>
        <time>2022-04-03T12:41:47Z</time>
      </trkpt>
      <trkpt lat="45.87783" lon="0.71555">
        <ele>155.8</ele>
        <time>2022-04-03T12:41:48Z</time>
      </trkpt>
      <trkpt lat="45.87786" lon="0.7155">
        <ele>156</ele>
        <time>2022-04-03T12:41:49Z</time>
      </trkpt>
      <trkpt lat="45.8779" lon="0.71546">
        <ele>156</ele>
        <time>2022-04-03T12:41:50Z</time>
      </trkpt>
      <trkpt lat="45.87794" lon="0.71541">
        <ele>156</ele>
        <time>2022-04-03T12:41:51Z</time>
      </trkpt>
      <trkpt lat="45.87797" lon="0.71537">
        <ele>156.2</ele>
        <time>2022-04-03T12:41:52Z</time>
      </trkpt>
      <trkpt lat="45.87801" lon="0.71532">
        <ele>156.2</ele>
        <time>2022-04-03T12:41:53Z</time>
      </trkpt>
      <trkpt lat="45.87805" lon="0.71528">
        <ele>156.2</ele>
        <time>2022-04-03T12:41:54Z</time>
      </trkpt>
      <trkpt lat="45.87809" lon="0.71525">
        <ele>156.4</ele>
        <time>2022-04-03T12:41:55Z</time>
      </trkpt>
      <trkpt lat="45.87814" lon="0.71522">
        <ele>156.2</ele>
        <time>2022-04-03T12:41:56Z</time>
      </trkpt>
      <trkpt lat="45.87818" lon="0.71519">
        <ele>156.4</ele>
        <time>2022-04-03T12:41:57Z</time>
      </trkpt>
      <trkpt lat="45.87823" lon="0.71516">
        <ele>156.4</ele>
        <time>2022-04-03T12:41:58Z</time>
      </trkpt>
      <trkpt lat="45.87827" lon="0.71514">
        <ele>156.4</ele>
        <time>2022-04-03T12:41:59Z</time>
      </trkpt>
      <trkpt lat="45.87832" lon="0.71512">
        <ele>156.4</ele>
        <time>2022-04-03T12:42:00Z</time>
      </trkpt>
      <trkpt lat="45.87837" lon="0.7151">
        <ele>156.4</ele>
        <time>2022-04-03T12:42:01Z</time>
      </trkpt>
      <trkpt lat="45.87841" lon="0.71507">
        <ele>156.4</ele>
        <time>2022-04-03T12:42:02Z</time>
      </trkpt>
      <trkpt lat="45.87845" lon="0.71505">
        <ele>156.4</ele>
        <time>2022-04-03T12:42:03Z</time>
      </trkpt>
      <trkpt lat="45.8785" lon="0.71503">
        <ele>156.4</ele>
        <time>2022-04-03T12:42:04Z</time>
      </trkpt>
      <trkpt lat="45.87854" lon="0.71501">
        <ele>156.4</ele>
        <time>2022-04-03T12:42:05Z</time>
      </trkpt>
      <trkpt lat="45.87859" lon="0.71499">
        <ele>156.4</ele>
        <time>2022-04-03T12:42:06Z</time>
      </trkpt>
      <trkpt lat="45.87863" lon="0.71497">
        <ele>156.6</ele>
        <time>2022-04-03T12:42:07Z</time>
      </trkpt>
      <trkpt lat="45.87868" lon="0.71495">
        <ele>156.4</ele>
        <time>2022-04-03T12:42:08Z</time>
      </trkpt>
      <trkpt lat="45.87872" lon="0.71492">
        <ele>156.4</ele>
        <time>2022-04-03T12:42:09Z</time>
      </trkpt>
      <trkpt lat="45.87876" lon="0.71488">
        <ele>156.4</ele>
        <time>2022-04-03T12:42:10Z</time>
      </trkpt>
      <trkpt lat="45.87879" lon="0.71484">
        <ele>156.4</ele>
        <time>2022-04-03T12:42:11Z</time>
      </trkpt>
      <trkpt lat="45.87883" lon="0.7148">
        <ele>156.4</ele>
        <time>2022-04-03T12:42:12Z</time>
      </trkpt>
      <trkpt lat="45.87886" lon="0.71475">
        <ele>156.4</ele>
        <time>2022-04-03T12:42:13Z</time>
      </trkpt>
      <trkpt lat="45.87889" lon="0.71469">
        <ele>156.6</ele>
        <time>2022-04-03T12:42:14Z</time>
      </trkpt>
      <trkpt lat="45.87892" lon="0.71464">
        <ele>156.6</ele>
        <time>2022-04-03T12:42:15Z</time>
      </trkpt>
      <trkpt lat="45.87895" lon="0.71459">
        <ele>156.6</ele>
        <time>2022-04-03T12:42:16Z</time>
      </trkpt>
      <trkpt lat="45.87899" lon="0.71454">
        <ele>156.6</ele>
        <time>2022-04-03T12:42:17Z</time>
      </trkpt>
      <trkpt lat="45.87902" lon="0.71449">
        <ele>156.8</ele>
        <time>2022-04-03T12:42:18Z</time>
      </trkpt>
      <trkpt lat="45.87905" lon="0.71444">
        <ele>156.8</ele>
        <time>2022-04-03T12:42:19Z</time>
      </trkpt>
      <trkpt lat="45.87908" lon="0.71439">
        <ele>156.8</ele>
        <time>2022-04-03T12:42:20Z</time>
      </trkpt>
      <trkpt lat="45.87911" lon="0.71434">
        <ele>156.6</ele>
        <time>2022-04-03T12:42:21Z</time>
      </trkpt>
      <trkpt lat="45.87914" lon="0.71429">
        <ele>156.8</ele>
        <time>2022-04-03T12:42:22Z</time>
      </trkpt>
      <trkpt lat="45.87918" lon="0.71424">
        <ele>156.6</ele>
        <time>2022-04-03T12:42:23Z</time>
      </trkpt>
      <trkpt lat="45.87921" lon="0.7142">
        <ele>156.6</ele>
        <time>2022-04-03T12:42:24Z</time>
      </trkpt>
      <trkpt lat="45.87924" lon="0.71415">
        <ele>156.8</ele>
        <time>2022-04-03T12:42:25Z</time>
      </trkpt>
      <trkpt lat="45.87927" lon="0.7141">
        <ele>157</ele>
        <time>2022-04-03T12:42:26Z</time>
      </trkpt>
      <trkpt lat="45.87931" lon="0.71406">
        <ele>157</ele>
        <time>2022-04-03T12:42:27Z</time>
      </trkpt>
      <trkpt lat="45.87934" lon="0.71402">
        <ele>157</ele>
        <time>2022-04-03T12:42:28Z</time>
      </trkpt>
      <trkpt lat="45.87937" lon="0.71398">
        <ele>157</ele>
        <time>2022-04-03T12:42:29Z</time>
      </trkpt>
      <trkpt lat="45.8794" lon="0.71394">
        <ele>157</ele>
        <time>2022-04-03T12:42:30Z</time>
      </trkpt>
      <trkpt lat="45.87944" lon="0.71389">
        <ele>157</ele>
        <time>2022-04-03T12:42:31Z</time>
      </trkpt>
      <trkpt lat="45.87947" lon="0.71385">
        <ele>157</ele>
        <time>2022-04-03T12:42:32Z</time>
      </trkpt>
      <trkpt lat="45.8795" lon="0.71382">
        <ele>157</ele>
        <time>2022-04-03T12:42:33Z</time>
      </trkpt>
      <trkpt lat="45.87953" lon="0.71378">
        <ele>157</ele>
        <time>2022-04-03T12:42:34Z</time>
      </trkpt>
      <trkpt lat="45.87956" lon="0.71374">
        <ele>157.2</ele>
        <time>2022-04-03T12:42:35Z</time>
      </trkpt>
      <trkpt lat="45.87959" lon="0.7137">
        <ele>157.2</ele>
        <time>2022-04-03T12:42:36Z</time>
      </trkpt>
      <trkpt lat="45.87961" lon="0.71367">
        <ele>157.4</ele>
        <time>2022-04-03T12:42:37Z</time>
      </trkpt>
      <trkpt lat="45.87964" lon="0.71363">
        <ele>157.8</ele>
        <time>2022-04-03T12:42:38Z</time>
      </trkpt>
      <trkpt lat="45.87967" lon="0.7136">
        <ele>158.2</ele>
        <time>2022-04-03T12:42:39Z</time>
      </trkpt>
      <trkpt lat="45.8797" lon="0.71357">
        <ele>158.6</ele>
        <time>2022-04-03T12:42:40Z</time>
      </trkpt>
      <trkpt lat="45.87972" lon="0.71353">
        <ele>158.8</ele>
        <time>2022-04-03T12:42:41Z</time>
      </trkpt>
      <trkpt lat="45.87975" lon="0.7135">
        <ele>159</ele>
        <time>2022-04-03T12:42:42Z</time>
      </trkpt>
      <trkpt lat="45.87978" lon="0.71347">
        <ele>159.4</ele>
        <time>2022-04-03T12:42:43Z</time>
      </trkpt>
      <trkpt lat="45.8798" lon="0.71343">
        <ele>159.4</ele>
        <time>2022-04-03T12:42:44Z</time>
      </trkpt>
      <trkpt lat="45.87983" lon="0.7134">
        <ele>159.6</ele>
        <time>2022-04-03T12:42:45Z</time>
      </trkpt>
      <trkpt lat="45.87986" lon="0.71336">
        <ele>159.8</ele>
        <time>2022-04-03T12:42:46Z</time>
      </trkpt>
      <trkpt lat="45.87989" lon="0.71331">
        <ele>160</ele>
        <time>2022-04-03T12:42:47Z</time>
      </trkpt>
      <trkpt lat="45.87991" lon="0.71327">
        <ele>160</ele>
        <time>2022-04-03T12:42:48Z</time>
      </trkpt>
      <trkpt lat="45.87995" lon="0.71323">
        <ele>160.2</ele>
        <time>2022-04-03T12:42:49Z</time>
      </trkpt>
      <trkpt lat="45.87998" lon="0.71319">
        <ele>160.4</ele>
        <time>2022-04-03T12:42:50Z</time>
      </trkpt>
      <trkpt lat="45.88001" lon="0.71314">
        <ele>160.4</ele>
        <time>2022-04-03T12:42:51Z</time>
      </trkpt>
      <trkpt lat="45.88004" lon="0.7131">
        <ele>160.4</ele>
        <time>2022-04-03T12:42:52Z</time>
      </trkpt>
      <trkpt lat="45.88007" lon="0.71305">
        <ele>160.4</ele>
        <time>2022-04-03T12:42:53Z</time>
      </trkpt>
      <trkpt lat="45.8801" lon="0.71301">
        <ele>160.4</ele>
        <time>2022-04-03T12:42:54Z</time>
      </trkpt>
      <trkpt lat="45.88014" lon="0.71296">
        <ele>160.4</ele>
        <time>2022-04-03T12:42:55Z</time>
      </trkpt>
      <trkpt lat="45.88017" lon="0.71291">
        <ele>160.2</ele>
        <time>2022-04-03T12:42:56Z</time>
      </trkpt>
      <trkpt lat="45.88021" lon="0.71286">
        <ele>160.4</ele>
        <time>2022-04-03T12:42:57Z</time>
      </trkpt>
      <trkpt lat="45.88024" lon="0.71281">
        <ele>160.4</ele>
        <time>2022-04-03T12:42:58Z</time>
      </trkpt>
      <trkpt lat="45.88028" lon="0.71276">
        <ele>160.4</ele>
        <time>2022-04-03T12:42:59Z</time>
      </trkpt>
      <trkpt lat="45.88032" lon="0.7127">
        <ele>160.2</ele>
        <time>2022-04-03T12:43:00Z</time>
      </trkpt>
      <trkpt lat="45.88035" lon="0.71265">
        <ele>160.4</ele>
        <time>2022-04-03T12:43:01Z</time>
      </trkpt>
      <trkpt lat="45.88039" lon="0.71259">
        <ele>160.4</ele>
        <time>2022-04-03T12:43:02Z</time>
      </trkpt>
      <trkpt lat="45.88042" lon="0.71253">
        <ele>160.4</ele>
        <time>2022-04-03T12:43:03Z</time>
      </trkpt>
      <trkpt lat="45.88046" lon="0.71247">
        <ele>160.2</ele>
        <time>2022-04-03T12:43:04Z</time>
      </trkpt>
      <trkpt lat="45.88049" lon="0.71241">
        <ele>160</ele>
        <time>2022-04-03T12:43:05Z</time>
      </trkpt>
      <trkpt lat="45.88053" lon="0.71234">
        <ele>159.6</ele>
        <time>2022-04-03T12:43:06Z</time>
      </trkpt>
      <trkpt lat="45.88056" lon="0.71228">
        <ele>159.4</ele>
        <time>2022-04-03T12:43:07Z</time>
      </trkpt>
      <trkpt lat="45.88059" lon="0.71222">
        <ele>158.8</ele>
        <time>2022-04-03T12:43:08Z</time>
      </trkpt>
      <trkpt lat="45.88062" lon="0.71216">
        <ele>158.6</ele>
        <time>2022-04-03T12:43:09Z</time>
      </trkpt>
      <trkpt lat="45.88065" lon="0.7121">
        <ele>158.4</ele>
        <time>2022-04-03T12:43:10Z</time>
      </trkpt>
      <trkpt lat="45.88068" lon="0.71204">
        <ele>158.6</ele>
        <time>2022-04-03T12:43:11Z</time>
      </trkpt>
      <trkpt lat="45.88071" lon="0.71198">
        <ele>158.4</ele>
        <time>2022-04-03T12:43:12Z</time>
      </trkpt>
      <trkpt lat="45.88074" lon="0.71192">
        <ele>158.4</ele>
        <time>2022-04-03T12:43:13Z</time>
      </trkpt>
      <trkpt lat="45.88076" lon="0.71186">
        <ele>158.4</ele>
        <time>2022-04-03T12:43:14Z</time>
      </trkpt>
      <trkpt lat="45.88079" lon="0.7118">
        <ele>158.2</ele>
        <time>2022-04-03T12:43:15Z</time>
      </trkpt>
      <trkpt lat="45.88081" lon="0.71174">
        <ele>158.2</ele>
        <time>2022-04-03T12:43:16Z</time>
      </trkpt>
      <trkpt lat="45.88084" lon="0.71169">
        <ele>158.2</ele>
        <time>2022-04-03T12:43:17Z</time>
      </trkpt>
      <trkpt lat="45.88086" lon="0.71164">
        <ele>158.2</ele>
        <time>2022-04-03T12:43:18Z</time>
      </trkpt>
      <trkpt lat="45.88089" lon="0.71159">
        <ele>158.2</ele>
        <time>2022-04-03T12:43:19Z</time>
      </trkpt>
      <trkpt lat="45.88091" lon="0.71153">
        <ele>158.2</ele>
        <time>2022-04-03T12:43:20Z</time>
      </trkpt>
      <trkpt lat="45.88094" lon="0.71148">
        <ele>158.2</ele>
        <time>2022-04-03T12:43:21Z</time>
      </trkpt>
      <trkpt lat="45.88096" lon="0.71143">
        <ele>158.2</ele>
        <time>2022-04-03T12:43:22Z</time>
      </trkpt>
      <trkpt lat="45.88098" lon="0.71138">
        <ele>158.4</ele>
        <time>2022-04-03T12:43:23Z</time>
      </trkpt>
      <trkpt lat="45.881" lon="0.71133">
        <ele>158.2</ele>
        <time>2022-04-03T12:43:24Z</time>
      </trkpt>
      <trkpt lat="45.88103" lon="0.71128">
        <ele>158.2</ele>
        <time>2022-04-03T12:43:25Z</time>
      </trkpt>
      <trkpt lat="45.88105" lon="0.71124">
        <ele>158.4</ele>
        <time>2022-04-03T12:43:26Z</time>
      </trkpt>
      <trkpt lat="45.88107" lon="0.71119">
        <ele>158.4</ele>
        <time>2022-04-03T12:43:27Z</time>
      </trkpt>
      <trkpt lat="45.8811" lon="0.71115">
        <ele>158.8</ele>
        <time>2022-04-03T12:43:28Z</time>
      </trkpt>
      <trkpt lat="45.88112" lon="0.7111">
        <ele>158.8</ele>
        <time>2022-04-03T12:43:29Z</time>
      </trkpt>
      <trkpt lat="45.88114" lon="0.71106">
        <ele>159</ele>
        <time>2022-04-03T12:43:30Z</time>
      </trkpt>
      <trkpt lat="45.88116" lon="0.71102">
        <ele>159.2</ele>
        <time>2022-04-03T12:43:31Z</time>
      </trkpt>
      <trkpt lat="45.88118" lon="0.71097">
        <ele>159.2</ele>
        <time>2022-04-03T12:43:32Z</time>
      </trkpt>
      <trkpt lat="45.8812" lon="0.71093">
        <ele>159.4</ele>
        <time>2022-04-03T12:43:33Z</time>
      </trkpt>
      <trkpt lat="45.88122" lon="0.71089">
        <ele>159.6</ele>
        <time>2022-04-03T12:43:34Z</time>
      </trkpt>
      <trkpt lat="45.88124" lon="0.71084">
        <ele>159.6</ele>
        <time>2022-04-03T12:43:35Z</time>
      </trkpt>
      <trkpt lat="45.88126" lon="0.7108">
        <ele>159.6</ele>
        <time>2022-04-03T12:43:36Z</time>
      </trkpt>
      <trkpt lat="45.88127" lon="0.71076">
        <ele>159.8</ele>
        <time>2022-04-03T12:43:37Z</time>
      </trkpt>
      <trkpt lat="45.88129" lon="0.71072">
        <ele>159.8</ele>
        <time>2022-04-03T12:43:38Z</time>
      </trkpt>
      <trkpt lat="45.88131" lon="0.71068">
        <ele>160</ele>
        <time>2022-04-03T12:43:39Z</time>
      </trkpt>
      <trkpt lat="45.88133" lon="0.71064">
        <ele>160</ele>
        <time>2022-04-03T12:43:40Z</time>
      </trkpt>
      <trkpt lat="45.88135" lon="0.71059">
        <ele>160</ele>
        <time>2022-04-03T12:43:41Z</time>
      </trkpt>
      <trkpt lat="45.88137" lon="0.71055">
        <ele>160.2</ele>
        <time>2022-04-03T12:43:42Z</time>
      </trkpt>
      <trkpt lat="45.88139" lon="0.71052">
        <ele>160.4</ele>
        <time>2022-04-03T12:43:43Z</time>
      </trkpt>
      <trkpt lat="45.88141" lon="0.71048">
        <ele>160.4</ele>
        <time>2022-04-03T12:43:44Z</time>
      </trkpt>
      <trkpt lat="45.88143" lon="0.71044">
        <ele>161</ele>
        <time>2022-04-03T12:43:45Z</time>
      </trkpt>
      <trkpt lat="45.88145" lon="0.71041">
        <ele>161.4</ele>
        <time>2022-04-03T12:43:46Z</time>
      </trkpt>
      <trkpt lat="45.88147" lon="0.71037">
        <ele>161.6</ele>
        <time>2022-04-03T12:43:47Z</time>
      </trkpt>
      <trkpt lat="45.88149" lon="0.71034">
        <ele>161.6</ele>
        <time>2022-04-03T12:43:48Z</time>
      </trkpt>
      <trkpt lat="45.88151" lon="0.7103">
        <ele>161.8</ele>
        <time>2022-04-03T12:43:49Z</time>
      </trkpt>
      <trkpt lat="45.88154" lon="0.71027">
        <ele>162.2</ele>
        <time>2022-04-03T12:43:50Z</time>
      </trkpt>
      <trkpt lat="45.88156" lon="0.71024">
        <ele>162.2</ele>
        <time>2022-04-03T12:43:51Z</time>
      </trkpt>
      <trkpt lat="45.88158" lon="0.71021">
        <ele>162.2</ele>
        <time>2022-04-03T12:43:52Z</time>
      </trkpt>
      <trkpt lat="45.88161" lon="0.71018">
        <ele>162.4</ele>
        <time>2022-04-03T12:43:53Z</time>
      </trkpt>
      <trkpt lat="45.88163" lon="0.71015">
        <ele>162.4</ele>
        <time>2022-04-03T12:43:54Z</time>
      </trkpt>
      <trkpt lat="45.88165" lon="0.71013">
        <ele>162.4</ele>
        <time>2022-04-03T12:43:55Z</time>
      </trkpt>
      <trkpt lat="45.88167" lon="0.7101">
        <ele>163</ele>
        <time>2022-04-03T12:43:56Z</time>
      </trkpt>
      <trkpt lat="45.88169" lon="0.71008">
        <ele>163.2</ele>
        <time>2022-04-03T12:43:57Z</time>
      </trkpt>
      <trkpt lat="45.88171" lon="0.71006">
        <ele>163.4</ele>
        <time>2022-04-03T12:43:58Z</time>
      </trkpt>
      <trkpt lat="45.88173" lon="0.71003">
        <ele>163.4</ele>
        <time>2022-04-03T12:43:59Z</time>
      </trkpt>
      <trkpt lat="45.88175" lon="0.71">
        <ele>163.8</ele>
        <time>2022-04-03T12:44:00Z</time>
      </trkpt>
      <trkpt lat="45.88177" lon="0.70998">
        <ele>164.2</ele>
        <time>2022-04-03T12:44:01Z</time>
      </trkpt>
      <trkpt lat="45.88179" lon="0.70995">
        <ele>164.4</ele>
        <time>2022-04-03T12:44:02Z</time>
      </trkpt>
      <trkpt lat="45.88181" lon="0.70993">
        <ele>164.6</ele>
        <time>2022-04-03T12:44:03Z</time>
      </trkpt>
      <trkpt lat="45.88184" lon="0.7099">
        <ele>164.8</ele>
        <time>2022-04-03T12:44:04Z</time>
      </trkpt>
      <trkpt lat="45.88185" lon="0.70988">
        <ele>165</ele>
        <time>2022-04-03T12:44:05Z</time>
      </trkpt>
      <trkpt lat="45.88187" lon="0.70985">
        <ele>165.4</ele>
        <time>2022-04-03T12:44:06Z</time>
      </trkpt>
      <trkpt lat="45.88189" lon="0.70982">
        <ele>165.6</ele>
        <time>2022-04-03T12:44:07Z</time>
      </trkpt>
      <trkpt lat="45.88192" lon="0.7098">
        <ele>166</ele>
        <time>2022-04-03T12:44:08Z</time>
      </trkpt>
      <trkpt lat="45.88194" lon="0.70978">
        <ele>166</ele>
        <time>2022-04-03T12:44:09Z</time>
      </trkpt>
      <trkpt lat="45.88196" lon="0.70975">
        <ele>166</ele>
        <time>2022-04-03T12:44:10Z</time>
      </trkpt>
      <trkpt lat="45.88198" lon="0.70973">
        <ele>166.2</ele>
        <time>2022-04-03T12:44:11Z</time>
      </trkpt>
      <trkpt lat="45.882" lon="0.7097">
        <ele>166.4</ele>
        <time>2022-04-03T12:44:12Z</time>
      </trkpt>
      <trkpt lat="45.88202" lon="0.70968">
        <ele>166.6</ele>
        <time>2022-04-03T12:44:13Z</time>
      </trkpt>
      <trkpt lat="45.88204" lon="0.70965">
        <ele>167</ele>
        <time>2022-04-03T12:44:14Z</time>
      </trkpt>
      <trkpt lat="45.88207" lon="0.70962">
        <ele>167.2</ele>
        <time>2022-04-03T12:44:15Z</time>
      </trkpt>
      <trkpt lat="45.88209" lon="0.7096">
        <ele>167.2</ele>
        <time>2022-04-03T12:44:16Z</time>
      </trkpt>
      <trkpt lat="45.88211" lon="0.70957">
        <ele>167.6</ele>
        <time>2022-04-03T12:44:17Z</time>
      </trkpt>
      <trkpt lat="45.88214" lon="0.70954">
        <ele>167.8</ele>
        <time>2022-04-03T12:44:18Z</time>
      </trkpt>
      <trkpt lat="45.88216" lon="0.70952">
        <ele>168.4</ele>
        <time>2022-04-03T12:44:19Z</time>
      </trkpt>
      <trkpt lat="45.88218" lon="0.70949">
        <ele>168.4</ele>
        <time>2022-04-03T12:44:20Z</time>
      </trkpt>
      <trkpt lat="45.8822" lon="0.70946">
        <ele>168.6</ele>
        <time>2022-04-03T12:44:21Z</time>
      </trkpt>
      <trkpt lat="45.88223" lon="0.70943">
        <ele>169</ele>
        <time>2022-04-03T12:44:22Z</time>
      </trkpt>
      <trkpt lat="45.88225" lon="0.7094">
        <ele>169</ele>
        <time>2022-04-03T12:44:23Z</time>
      </trkpt>
      <trkpt lat="45.88228" lon="0.70937">
        <ele>169.2</ele>
        <time>2022-04-03T12:44:24Z</time>
      </trkpt>
      <trkpt lat="45.8823" lon="0.70935">
        <ele>169.2</ele>
        <time>2022-04-03T12:44:25Z</time>
      </trkpt>
      <trkpt lat="45.88233" lon="0.70932">
        <ele>169.4</ele>
        <time>2022-04-03T12:44:26Z</time>
      </trkpt>
      <trkpt lat="45.88235" lon="0.70929">
        <ele>169.6</ele>
        <time>2022-04-03T12:44:27Z</time>
      </trkpt>
      <trkpt lat="45.88238" lon="0.70926">
        <ele>169.6</ele>
        <time>2022-04-03T12:44:28Z</time>
      </trkpt>
      <trkpt lat="45.88241" lon="0.70923">
        <ele>169.8</ele>
        <time>2022-04-03T12:44:29Z</time>
      </trkpt>
      <trkpt lat="45.88243" lon="0.7092">
        <ele>170.2</ele>
        <time>2022-04-03T12:44:30Z</time>
      </trkpt>
      <trkpt lat="45.88246" lon="0.70918">
        <ele>170.2</ele>
        <time>2022-04-03T12:44:31Z</time>
      </trkpt>
      <trkpt lat="45.88248" lon="0.70915">
        <ele>170.2</ele>
        <time>2022-04-03T12:44:32Z</time>
      </trkpt>
      <trkpt lat="45.88251" lon="0.70912">
        <ele>170.4</ele>
        <time>2022-04-03T12:44:33Z</time>
      </trkpt>
      <trkpt lat="45.88254" lon="0.70909">
        <ele>170.4</ele>
        <time>2022-04-03T12:44:34Z</time>
      </trkpt>
      <trkpt lat="45.88257" lon="0.70906">
        <ele>170.4</ele>
        <time>2022-04-03T12:44:35Z</time>
      </trkpt>
      <trkpt lat="45.88259" lon="0.70903">
        <ele>170.6</ele>
        <time>2022-04-03T12:44:36Z</time>
      </trkpt>
      <trkpt lat="45.88262" lon="0.709">
        <ele>170.8</ele>
        <time>2022-04-03T12:44:37Z</time>
      </trkpt>
      <trkpt lat="45.88265" lon="0.70897">
        <ele>171</ele>
        <time>2022-04-03T12:44:38Z</time>
      </trkpt>
      <trkpt lat="45.88268" lon="0.70894">
        <ele>171.2</ele>
        <time>2022-04-03T12:44:39Z</time>
      </trkpt>
      <trkpt lat="45.88271" lon="0.70891">
        <ele>171.4</ele>
        <time>2022-04-03T12:44:40Z</time>
      </trkpt>
      <trkpt lat="45.88273" lon="0.70889">
        <ele>171.8</ele>
        <time>2022-04-03T12:44:41Z</time>
      </trkpt>
      <trkpt lat="45.88276" lon="0.70886">
        <ele>172</ele>
        <time>2022-04-03T12:44:42Z</time>
      </trkpt>
      <trkpt lat="45.88279" lon="0.70883">
        <ele>172</ele>
        <time>2022-04-03T12:44:43Z</time>
      </trkpt>
      <trkpt lat="45.88282" lon="0.7088">
        <ele>172</ele>
        <time>2022-04-03T12:44:44Z</time>
      </trkpt>
      <trkpt lat="45.88285" lon="0.70877">
        <ele>172</ele>
        <time>2022-04-03T12:44:45Z</time>
      </trkpt>
      <trkpt lat="45.88288" lon="0.70873">
        <ele>172.2</ele>
        <time>2022-04-03T12:44:46Z</time>
      </trkpt>
      <trkpt lat="45.88291" lon="0.7087">
        <ele>172.2</ele>
        <time>2022-04-03T12:44:47Z</time>
      </trkpt>
      <trkpt lat="45.88294" lon="0.70866">
        <ele>172.4</ele>
        <time>2022-04-03T12:44:48Z</time>
      </trkpt>
      <trkpt lat="45.88297" lon="0.70862">
        <ele>172.4</ele>
        <time>2022-04-03T12:44:49Z</time>
      </trkpt>
      <trkpt lat="45.883" lon="0.70858">
        <ele>172.6</ele>
        <time>2022-04-03T12:44:50Z</time>
      </trkpt>
      <trkpt lat="45.88303" lon="0.70854">
        <ele>172.6</ele>
        <time>2022-04-03T12:44:51Z</time>
      </trkpt>
      <trkpt lat="45.88307" lon="0.7085">
        <ele>172.8</ele>
        <time>2022-04-03T12:44:52Z</time>
      </trkpt>
      <trkpt lat="45.8831" lon="0.70846">
        <ele>172.8</ele>
        <time>2022-04-03T12:44:53Z</time>
      </trkpt>
      <trkpt lat="45.88314" lon="0.70842">
        <ele>173</ele>
        <time>2022-04-03T12:44:54Z</time>
      </trkpt>
      <trkpt lat="45.88317" lon="0.70838">
        <ele>172.8</ele>
        <time>2022-04-03T12:44:55Z</time>
      </trkpt>
      <trkpt lat="45.8832" lon="0.70834">
        <ele>173</ele>
        <time>2022-04-03T12:44:56Z</time>
      </trkpt>
      <trkpt lat="45.88323" lon="0.70829">
        <ele>172.8</ele>
        <time>2022-04-03T12:44:57Z</time>
      </trkpt>
      <trkpt lat="45.88327" lon="0.70825">
        <ele>173</ele>
        <time>2022-04-03T12:44:58Z</time>
      </trkpt>
      <trkpt lat="45.8833" lon="0.7082">
        <ele>172.8</ele>
        <time>2022-04-03T12:44:59Z</time>
      </trkpt>
      <trkpt lat="45.88333" lon="0.70816">
        <ele>172.8</ele>
        <time>2022-04-03T12:45:00Z</time>
      </trkpt>
      <trkpt lat="45.88337" lon="0.70811">
        <ele>173</ele>
        <time>2022-04-03T12:45:01Z</time>
      </trkpt>
      <trkpt lat="45.8834" lon="0.70806">
        <ele>173.2</ele>
        <time>2022-04-03T12:45:02Z</time>
      </trkpt>
      <trkpt lat="45.88343" lon="0.70801">
        <ele>173</ele>
        <time>2022-04-03T12:45:03Z</time>
      </trkpt>
      <trkpt lat="45.88346" lon="0.70796">
        <ele>173</ele>
        <time>2022-04-03T12:45:04Z</time>
      </trkpt>
      <trkpt lat="45.88349" lon="0.70791">
        <ele>173</ele>
        <time>2022-04-03T12:45:05Z</time>
      </trkpt>
      <trkpt lat="45.88352" lon="0.70785">
        <ele>173</ele>
        <time>2022-04-03T12:45:06Z</time>
      </trkpt>
      <trkpt lat="45.88355" lon="0.7078">
        <ele>173</ele>
        <time>2022-04-03T12:45:07Z</time>
      </trkpt>
      <trkpt lat="45.88357" lon="0.70774">
        <ele>173</ele>
        <time>2022-04-03T12:45:08Z</time>
      </trkpt>
      <trkpt lat="45.8836" lon="0.70768">
        <ele>173</ele>
        <time>2022-04-03T12:45:09Z</time>
      </trkpt>
      <trkpt lat="45.88363" lon="0.70762">
        <ele>173</ele>
        <time>2022-04-03T12:45:10Z</time>
      </trkpt>
      <trkpt lat="45.88365" lon="0.70755">
        <ele>172.8</ele>
        <time>2022-04-03T12:45:11Z</time>
      </trkpt>
      <trkpt lat="45.88367" lon="0.70748">
        <ele>173</ele>
        <time>2022-04-03T12:45:12Z</time>
      </trkpt>
      <trkpt lat="45.8837" lon="0.70741">
        <ele>173</ele>
        <time>2022-04-03T12:45:13Z</time>
      </trkpt>
      <trkpt lat="45.88372" lon="0.70734">
        <ele>173</ele>
        <time>2022-04-03T12:45:14Z</time>
      </trkpt>
      <trkpt lat="45.88374" lon="0.70727">
        <ele>173</ele>
        <time>2022-04-03T12:45:15Z</time>
      </trkpt>
      <trkpt lat="45.88376" lon="0.7072">
        <ele>173</ele>
        <time>2022-04-03T12:45:16Z</time>
      </trkpt>
      <trkpt lat="45.88378" lon="0.70713">
        <ele>172.8</ele>
        <time>2022-04-03T12:45:17Z</time>
      </trkpt>
      <trkpt lat="45.88381" lon="0.70706">
        <ele>173</ele>
        <time>2022-04-03T12:45:18Z</time>
      </trkpt>
      <trkpt lat="45.88383" lon="0.70699">
        <ele>172.8</ele>
        <time>2022-04-03T12:45:19Z</time>
      </trkpt>
      <trkpt lat="45.88385" lon="0.70693">
        <ele>172.8</ele>
        <time>2022-04-03T12:45:20Z</time>
      </trkpt>
      <trkpt lat="45.88387" lon="0.70686">
        <ele>172.8</ele>
        <time>2022-04-03T12:45:21Z</time>
      </trkpt>
      <trkpt lat="45.88389" lon="0.70679">
        <ele>172.8</ele>
        <time>2022-04-03T12:45:22Z</time>
      </trkpt>
      <trkpt lat="45.88391" lon="0.70673">
        <ele>172.6</ele>
        <time>2022-04-03T12:45:23Z</time>
      </trkpt>
      <trkpt lat="45.88393" lon="0.70666">
        <ele>172.6</ele>
        <time>2022-04-03T12:45:24Z</time>
      </trkpt>
      <trkpt lat="45.88395" lon="0.70659">
        <ele>172.6</ele>
        <time>2022-04-03T12:45:25Z</time>
      </trkpt>
      <trkpt lat="45.88397" lon="0.70652">
        <ele>172.6</ele>
        <time>2022-04-03T12:45:26Z</time>
      </trkpt>
      <trkpt lat="45.88398" lon="0.70646">
        <ele>172.6</ele>
        <time>2022-04-03T12:45:27Z</time>
      </trkpt>
      <trkpt lat="45.884" lon="0.70639">
        <ele>172.6</ele>
        <time>2022-04-03T12:45:28Z</time>
      </trkpt>
      <trkpt lat="45.88402" lon="0.70632">
        <ele>172.6</ele>
        <time>2022-04-03T12:45:29Z</time>
      </trkpt>
      <trkpt lat="45.88403" lon="0.70626">
        <ele>172.4</ele>
        <time>2022-04-03T12:45:30Z</time>
      </trkpt>
      <trkpt lat="45.88405" lon="0.70619">
        <ele>172.6</ele>
        <time>2022-04-03T12:45:31Z</time>
      </trkpt>
      <trkpt lat="45.88407" lon="0.70612">
        <ele>172.6</ele>
        <time>2022-04-03T12:45:32Z</time>
      </trkpt>
      <trkpt lat="45.88409" lon="0.70606">
        <ele>172.6</ele>
        <time>2022-04-03T12:45:33Z</time>
      </trkpt>
      <trkpt lat="45.88411" lon="0.70599">
        <ele>172.6</ele>
        <time>2022-04-03T12:45:34Z</time>
      </trkpt>
      <trkpt lat="45.88413" lon="0.70592">
        <ele>172.4</ele>
        <time>2022-04-03T12:45:35Z</time>
      </trkpt>
      <trkpt lat="45.88415" lon="0.70585">
        <ele>172.4</ele>
        <time>2022-04-03T12:45:36Z</time>
      </trkpt>
      <trkpt lat="45.88417" lon="0.70578">
        <ele>172.6</ele>
        <time>2022-04-03T12:45:37Z</time>
      </trkpt>
      <trkpt lat="45.88419" lon="0.70571">
        <ele>172.8</ele>
        <time>2022-04-03T12:45:38Z</time>
      </trkpt>
      <trkpt lat="45.88422" lon="0.70564">
        <ele>172.6</ele>
        <time>2022-04-03T12:45:39Z</time>
      </trkpt>
      <trkpt lat="45.88424" lon="0.70556">
        <ele>172.8</ele>
        <time>2022-04-03T12:45:40Z</time>
      </trkpt>
      <trkpt lat="45.88426" lon="0.70549">
        <ele>172.8</ele>
        <time>2022-04-03T12:45:41Z</time>
      </trkpt>
      <trkpt lat="45.88427" lon="0.70541">
        <ele>172.8</ele>
        <time>2022-04-03T12:45:42Z</time>
      </trkpt>
      <trkpt lat="45.88429" lon="0.70533">
        <ele>172.8</ele>
        <time>2022-04-03T12:45:43Z</time>
      </trkpt>
      <trkpt lat="45.88432" lon="0.70525">
        <ele>172.8</ele>
        <time>2022-04-03T12:45:44Z</time>
      </trkpt>
      <trkpt lat="45.88434" lon="0.70517">
        <ele>172.8</ele>
        <time>2022-04-03T12:45:45Z</time>
      </trkpt>
      <trkpt lat="45.88436" lon="0.70509">
        <ele>172.8</ele>
        <time>2022-04-03T12:45:46Z</time>
      </trkpt>
      <trkpt lat="45.88438" lon="0.70501">
        <ele>172.8</ele>
        <time>2022-04-03T12:45:47Z</time>
      </trkpt>
      <trkpt lat="45.8844" lon="0.70492">
        <ele>172.8</ele>
        <time>2022-04-03T12:45:48Z</time>
      </trkpt>
      <trkpt lat="45.88443" lon="0.70483">
        <ele>172.4</ele>
        <time>2022-04-03T12:45:49Z</time>
      </trkpt>
      <trkpt lat="45.88446" lon="0.70475">
        <ele>172.2</ele>
        <time>2022-04-03T12:45:50Z</time>
      </trkpt>
      <trkpt lat="45.88449" lon="0.70467">
        <ele>172</ele>
        <time>2022-04-03T12:45:51Z</time>
      </trkpt>
      <trkpt lat="45.88452" lon="0.70459">
        <ele>172</ele>
        <time>2022-04-03T12:45:52Z</time>
      </trkpt>
      <trkpt lat="45.88455" lon="0.70452">
        <ele>171.6</ele>
        <time>2022-04-03T12:45:53Z</time>
      </trkpt>
      <trkpt lat="45.88459" lon="0.70445">
        <ele>171.6</ele>
        <time>2022-04-03T12:45:54Z</time>
      </trkpt>
      <trkpt lat="45.88463" lon="0.70438">
        <ele>171</ele>
        <time>2022-04-03T12:45:55Z</time>
      </trkpt>
      <trkpt lat="45.88467" lon="0.70432">
        <ele>170.4</ele>
        <time>2022-04-03T12:45:56Z</time>
      </trkpt>
      <trkpt lat="45.88471" lon="0.70427">
        <ele>170</ele>
        <time>2022-04-03T12:45:57Z</time>
      </trkpt>
      <trkpt lat="45.88475" lon="0.70422">
        <ele>169.8</ele>
        <time>2022-04-03T12:45:58Z</time>
      </trkpt>
      <trkpt lat="45.88479" lon="0.70418">
        <ele>169.6</ele>
        <time>2022-04-03T12:45:59Z</time>
      </trkpt>
      <trkpt lat="45.88483" lon="0.70414">
        <ele>169.6</ele>
        <time>2022-04-03T12:46:00Z</time>
      </trkpt>
      <trkpt lat="45.88486" lon="0.7041">
        <ele>169.4</ele>
        <time>2022-04-03T12:46:01Z</time>
      </trkpt>
      <trkpt lat="45.8849" lon="0.70407">
        <ele>169.4</ele>
        <time>2022-04-03T12:46:02Z</time>
      </trkpt>
      <trkpt lat="45.88494" lon="0.70404">
        <ele>169.4</ele>
        <time>2022-04-03T12:46:03Z</time>
      </trkpt>
      <trkpt lat="45.88498" lon="0.70401">
        <ele>169.6</ele>
        <time>2022-04-03T12:46:04Z</time>
      </trkpt>
      <trkpt lat="45.88502" lon="0.70398">
        <ele>169.6</ele>
        <time>2022-04-03T12:46:05Z</time>
      </trkpt>
      <trkpt lat="45.88505" lon="0.70396">
        <ele>169.6</ele>
        <time>2022-04-03T12:46:06Z</time>
      </trkpt>
      <trkpt lat="45.88509" lon="0.70394">
        <ele>169.6</ele>
        <time>2022-04-03T12:46:07Z</time>
      </trkpt>
      <trkpt lat="45.88513" lon="0.70392">
        <ele>169.8</ele>
        <time>2022-04-03T12:46:08Z</time>
      </trkpt>
      <trkpt lat="45.88517" lon="0.7039">
        <ele>169.8</ele>
        <time>2022-04-03T12:46:09Z</time>
      </trkpt>
      <trkpt lat="45.8852" lon="0.70388">
        <ele>170.2</ele>
        <time>2022-04-03T12:46:10Z</time>
      </trkpt>
      <trkpt lat="45.88523" lon="0.70385">
        <ele>170.4</ele>
        <time>2022-04-03T12:46:11Z</time>
      </trkpt>
      <trkpt lat="45.88525" lon="0.70382">
        <ele>170.8</ele>
        <time>2022-04-03T12:46:12Z</time>
      </trkpt>
      <trkpt lat="45.88528" lon="0.7038">
        <ele>171</ele>
        <time>2022-04-03T12:46:13Z</time>
      </trkpt>
      <trkpt lat="45.88531" lon="0.70377">
        <ele>171.4</ele>
        <time>2022-04-03T12:46:14Z</time>
      </trkpt>
      <trkpt lat="45.88533" lon="0.70375">
        <ele>171.6</ele>
        <time>2022-04-03T12:46:15Z</time>
      </trkpt>
      <trkpt lat="45.88536" lon="0.70372">
        <ele>171.8</ele>
        <time>2022-04-03T12:46:16Z</time>
      </trkpt>
      <trkpt lat="45.88538" lon="0.7037">
        <ele>172</ele>
        <time>2022-04-03T12:46:17Z</time>
      </trkpt>
      <trkpt lat="45.88541" lon="0.70367">
        <ele>172.2</ele>
        <time>2022-04-03T12:46:18Z</time>
      </trkpt>
      <trkpt lat="45.88543" lon="0.70364">
        <ele>172.2</ele>
        <time>2022-04-03T12:46:19Z</time>
      </trkpt>
      <trkpt lat="45.88545" lon="0.70362">
        <ele>172.4</ele>
        <time>2022-04-03T12:46:20Z</time>
      </trkpt>
      <trkpt lat="45.88547" lon="0.70358">
        <ele>172.6</ele>
        <time>2022-04-03T12:46:21Z</time>
      </trkpt>
      <trkpt lat="45.88549" lon="0.70356">
        <ele>172.6</ele>
        <time>2022-04-03T12:46:22Z</time>
      </trkpt>
      <trkpt lat="45.88551" lon="0.70353">
        <ele>172.4</ele>
        <time>2022-04-03T12:46:23Z</time>
      </trkpt>
      <trkpt lat="45.88553" lon="0.7035">
        <ele>172.6</ele>
        <time>2022-04-03T12:46:24Z</time>
      </trkpt>
      <trkpt lat="45.88555" lon="0.70347">
        <ele>172.8</ele>
        <time>2022-04-03T12:46:25Z</time>
      </trkpt>
      <trkpt lat="45.88557" lon="0.70344">
        <ele>172.8</ele>
        <time>2022-04-03T12:46:26Z</time>
      </trkpt>
      <trkpt lat="45.88559" lon="0.70341">
        <ele>173</ele>
        <time>2022-04-03T12:46:27Z</time>
      </trkpt>
      <trkpt lat="45.8856" lon="0.70338">
        <ele>173.2</ele>
        <time>2022-04-03T12:46:28Z</time>
      </trkpt>
      <trkpt lat="45.88562" lon="0.70335">
        <ele>173.2</ele>
        <time>2022-04-03T12:46:29Z</time>
      </trkpt>
      <trkpt lat="45.88564" lon="0.70332">
        <ele>173.4</ele>
        <time>2022-04-03T12:46:30Z</time>
      </trkpt>
      <trkpt lat="45.88566" lon="0.70329">
        <ele>173.6</ele>
        <time>2022-04-03T12:46:31Z</time>
      </trkpt>
      <trkpt lat="45.88567" lon="0.70326">
        <ele>174</ele>
        <time>2022-04-03T12:46:32Z</time>
      </trkpt>
      <trkpt lat="45.88569" lon="0.70324">
        <ele>174.4</ele>
        <time>2022-04-03T12:46:33Z</time>
      </trkpt>
      <trkpt lat="45.88571" lon="0.70321">
        <ele>174.6</ele>
        <time>2022-04-03T12:46:34Z</time>
      </trkpt>
      <trkpt lat="45.88572" lon="0.70318">
        <ele>174.8</ele>
        <time>2022-04-03T12:46:35Z</time>
      </trkpt>
      <trkpt lat="45.88574" lon="0.70315">
        <ele>175</ele>
        <time>2022-04-03T12:46:36Z</time>
      </trkpt>
      <trkpt lat="45.88576" lon="0.70312">
        <ele>175.2</ele>
        <time>2022-04-03T12:46:37Z</time>
      </trkpt>
      <trkpt lat="45.88578" lon="0.70309">
        <ele>175.2</ele>
        <time>2022-04-03T12:46:38Z</time>
      </trkpt>
      <trkpt lat="45.8858" lon="0.70306">
        <ele>175.4</ele>
        <time>2022-04-03T12:46:39Z</time>
      </trkpt>
      <trkpt lat="45.88581" lon="0.70303">
        <ele>175.4</ele>
        <time>2022-04-03T12:46:40Z</time>
      </trkpt>
      <trkpt lat="45.88583" lon="0.70301">
        <ele>175.4</ele>
        <time>2022-04-03T12:46:41Z</time>
      </trkpt>
      <trkpt lat="45.88585" lon="0.70298">
        <ele>175.4</ele>
        <time>2022-04-03T12:46:42Z</time>
      </trkpt>
      <trkpt lat="45.88586" lon="0.70295">
        <ele>175.8</ele>
        <time>2022-04-03T12:46:43Z</time>
      </trkpt>
      <trkpt lat="45.88588" lon="0.70292">
        <ele>176</ele>
        <time>2022-04-03T12:46:44Z</time>
      </trkpt>
      <trkpt lat="45.88589" lon="0.70289">
        <ele>176</ele>
        <time>2022-04-03T12:46:45Z</time>
      </trkpt>
      <trkpt lat="45.88591" lon="0.70286">
        <ele>176</ele>
        <time>2022-04-03T12:46:46Z</time>
      </trkpt>
      <trkpt lat="45.88593" lon="0.70283">
        <ele>176.4</ele>
        <time>2022-04-03T12:46:47Z</time>
      </trkpt>
      <trkpt lat="45.88595" lon="0.7028">
        <ele>176.6</ele>
        <time>2022-04-03T12:46:48Z</time>
      </trkpt>
      <trkpt lat="45.88596" lon="0.70277">
        <ele>176.8</ele>
        <time>2022-04-03T12:46:49Z</time>
      </trkpt>
      <trkpt lat="45.88598" lon="0.70274">
        <ele>177</ele>
        <time>2022-04-03T12:46:50Z</time>
      </trkpt>
      <trkpt lat="45.886" lon="0.70272">
        <ele>177.2</ele>
        <time>2022-04-03T12:46:51Z</time>
      </trkpt>
      <trkpt lat="45.88602" lon="0.70269">
        <ele>177.2</ele>
        <time>2022-04-03T12:46:52Z</time>
      </trkpt>
      <trkpt lat="45.88604" lon="0.70266">
        <ele>177.2</ele>
        <time>2022-04-03T12:46:53Z</time>
      </trkpt>
      <trkpt lat="45.88605" lon="0.70264">
        <ele>177.4</ele>
        <time>2022-04-03T12:46:54Z</time>
      </trkpt>
      <trkpt lat="45.88607" lon="0.70261">
        <ele>177.8</ele>
        <time>2022-04-03T12:46:55Z</time>
      </trkpt>
      <trkpt lat="45.88609" lon="0.70258">
        <ele>178</ele>
        <time>2022-04-03T12:46:56Z</time>
      </trkpt>
      <trkpt lat="45.8861" lon="0.70256">
        <ele>178.2</ele>
        <time>2022-04-03T12:46:57Z</time>
      </trkpt>
      <trkpt lat="45.88612" lon="0.70253">
        <ele>178.4</ele>
        <time>2022-04-03T12:46:58Z</time>
      </trkpt>
      <trkpt lat="45.88614" lon="0.7025">
        <ele>178.4</ele>
        <time>2022-04-03T12:46:59Z</time>
      </trkpt>
      <trkpt lat="45.88615" lon="0.70247">
        <ele>178.6</ele>
        <time>2022-04-03T12:47:00Z</time>
      </trkpt>
      <trkpt lat="45.88617" lon="0.70244">
        <ele>178.8</ele>
        <time>2022-04-03T12:47:01Z</time>
      </trkpt>
      <trkpt lat="45.88618" lon="0.7024">
        <ele>179</ele>
        <time>2022-04-03T12:47:02Z</time>
      </trkpt>
      <trkpt lat="45.8862" lon="0.70237">
        <ele>179.2</ele>
        <time>2022-04-03T12:47:03Z</time>
      </trkpt>
      <trkpt lat="45.88622" lon="0.70234">
        <ele>179.4</ele>
        <time>2022-04-03T12:47:04Z</time>
      </trkpt>
      <trkpt lat="45.88624" lon="0.70231">
        <ele>179.4</ele>
        <time>2022-04-03T12:47:05Z</time>
      </trkpt>
      <trkpt lat="45.88626" lon="0.70228">
        <ele>179.6</ele>
        <time>2022-04-03T12:47:06Z</time>
      </trkpt>
      <trkpt lat="45.88627" lon="0.70225">
        <ele>179.8</ele>
        <time>2022-04-03T12:47:07Z</time>
      </trkpt>
      <trkpt lat="45.88629" lon="0.70222">
        <ele>180</ele>
        <time>2022-04-03T12:47:08Z</time>
      </trkpt>
      <trkpt lat="45.88631" lon="0.70219">
        <ele>180.2</ele>
        <time>2022-04-03T12:47:09Z</time>
      </trkpt>
      <trkpt lat="45.88633" lon="0.70216">
        <ele>180.2</ele>
        <time>2022-04-03T12:47:10Z</time>
      </trkpt>
      <trkpt lat="45.88634" lon="0.70213">
        <ele>180.4</ele>
        <time>2022-04-03T12:47:11Z</time>
      </trkpt>
      <trkpt lat="45.88636" lon="0.7021">
        <ele>180.6</ele>
        <time>2022-04-03T12:47:12Z</time>
      </trkpt>
      <trkpt lat="45.88637" lon="0.70207">
        <ele>181</ele>
        <time>2022-04-03T12:47:13Z</time>
      </trkpt>
      <trkpt lat="45.88639" lon="0.70205">
        <ele>181.4</ele>
        <time>2022-04-03T12:47:14Z</time>
      </trkpt>
      <trkpt lat="45.8864" lon="0.70202">
        <ele>181.6</ele>
        <time>2022-04-03T12:47:15Z</time>
      </trkpt>
      <trkpt lat="45.88642" lon="0.70199">
        <ele>182</ele>
        <time>2022-04-03T12:47:16Z</time>
      </trkpt>
      <trkpt lat="45.88643" lon="0.70196">
        <ele>182</ele>
        <time>2022-04-03T12:47:17Z</time>
      </trkpt>
      <trkpt lat="45.88645" lon="0.70193">
        <ele>182</ele>
        <time>2022-04-03T12:47:18Z</time>
      </trkpt>
      <trkpt lat="45.88647" lon="0.70191">
        <ele>182.2</ele>
        <time>2022-04-03T12:47:19Z</time>
      </trkpt>
      <trkpt lat="45.88649" lon="0.70188">
        <ele>182.2</ele>
        <time>2022-04-03T12:47:20Z</time>
      </trkpt>
      <trkpt lat="45.88651" lon="0.70186">
        <ele>182.4</ele>
        <time>2022-04-03T12:47:21Z</time>
      </trkpt>
      <trkpt lat="45.88653" lon="0.70183">
        <ele>182.4</ele>
        <time>2022-04-03T12:47:22Z</time>
      </trkpt>
      <trkpt lat="45.88654" lon="0.7018">
        <ele>182.4</ele>
        <time>2022-04-03T12:47:23Z</time>
      </trkpt>
      <trkpt lat="45.88656" lon="0.70177">
        <ele>182.6</ele>
        <time>2022-04-03T12:47:24Z</time>
      </trkpt>
      <trkpt lat="45.88658" lon="0.70175">
        <ele>182.8</ele>
        <time>2022-04-03T12:47:25Z</time>
      </trkpt>
      <trkpt lat="45.88661" lon="0.70173">
        <ele>182.8</ele>
        <time>2022-04-03T12:47:26Z</time>
      </trkpt>
      <trkpt lat="45.88663" lon="0.70171">
        <ele>183</ele>
        <time>2022-04-03T12:47:27Z</time>
      </trkpt>
      <trkpt lat="45.88665" lon="0.70169">
        <ele>183.4</ele>
        <time>2022-04-03T12:47:28Z</time>
      </trkpt>
      <trkpt lat="45.88668" lon="0.70167">
        <ele>184</ele>
        <time>2022-04-03T12:47:29Z</time>
      </trkpt>
      <trkpt lat="45.8867" lon="0.70166">
        <ele>184</ele>
        <time>2022-04-03T12:47:30Z</time>
      </trkpt>
      <trkpt lat="45.88673" lon="0.70164">
        <ele>184.4</ele>
        <time>2022-04-03T12:47:31Z</time>
      </trkpt>
      <trkpt lat="45.88675" lon="0.70163">
        <ele>184.6</ele>
        <time>2022-04-03T12:47:32Z</time>
      </trkpt>
      <trkpt lat="45.88678" lon="0.70162">
        <ele>184.6</ele>
        <time>2022-04-03T12:47:33Z</time>
      </trkpt>
      <trkpt lat="45.8868" lon="0.70161">
        <ele>184.8</ele>
        <time>2022-04-03T12:47:34Z</time>
      </trkpt>
      <trkpt lat="45.88682" lon="0.7016">
        <ele>184.8</ele>
        <time>2022-04-03T12:47:35Z</time>
      </trkpt>
      <trkpt lat="45.88685" lon="0.7016">
        <ele>184.8</ele>
        <time>2022-04-03T12:47:36Z</time>
      </trkpt>
      <trkpt lat="45.88688" lon="0.70159">
        <ele>184.8</ele>
        <time>2022-04-03T12:47:37Z</time>
      </trkpt>
      <trkpt lat="45.8869" lon="0.70158">
        <ele>185</ele>
        <time>2022-04-03T12:47:38Z</time>
      </trkpt>
      <trkpt lat="45.88693" lon="0.70158">
        <ele>185.4</ele>
        <time>2022-04-03T12:47:39Z</time>
      </trkpt>
      <trkpt lat="45.88695" lon="0.70157">
        <ele>185.4</ele>
        <time>2022-04-03T12:47:40Z</time>
      </trkpt>
      <trkpt lat="45.88698" lon="0.70156">
        <ele>185.6</ele>
        <time>2022-04-03T12:47:41Z</time>
      </trkpt>
      <trkpt lat="45.887" lon="0.70156">
        <ele>185.8</ele>
        <time>2022-04-03T12:47:42Z</time>
      </trkpt>
      <trkpt lat="45.88703" lon="0.70155">
        <ele>185.8</ele>
        <time>2022-04-03T12:47:43Z</time>
      </trkpt>
      <trkpt lat="45.88705" lon="0.70154">
        <ele>186</ele>
        <time>2022-04-03T12:47:44Z</time>
      </trkpt>
      <trkpt lat="45.88708" lon="0.70153">
        <ele>186</ele>
        <time>2022-04-03T12:47:45Z</time>
      </trkpt>
      <trkpt lat="45.8871" lon="0.70152">
        <ele>186.2</ele>
        <time>2022-04-03T12:47:46Z</time>
      </trkpt>
      <trkpt lat="45.88713" lon="0.70151">
        <ele>186.2</ele>
        <time>2022-04-03T12:47:47Z</time>
      </trkpt>
      <trkpt lat="45.88715" lon="0.7015">
        <ele>186.4</ele>
        <time>2022-04-03T12:47:48Z</time>
      </trkpt>
      <trkpt lat="45.88717" lon="0.70149">
        <ele>186.6</ele>
        <time>2022-04-03T12:47:49Z</time>
      </trkpt>
      <trkpt lat="45.8872" lon="0.70148">
        <ele>186.8</ele>
        <time>2022-04-03T12:47:50Z</time>
      </trkpt>
      <trkpt lat="45.88722" lon="0.70147">
        <ele>187</ele>
        <time>2022-04-03T12:47:51Z</time>
      </trkpt>
      <trkpt lat="45.88724" lon="0.70145">
        <ele>187.2</ele>
        <time>2022-04-03T12:47:52Z</time>
      </trkpt>
      <trkpt lat="45.88727" lon="0.70144">
        <ele>187.4</ele>
        <time>2022-04-03T12:47:53Z</time>
      </trkpt>
      <trkpt lat="45.88729" lon="0.70142">
        <ele>187.4</ele>
        <time>2022-04-03T12:47:54Z</time>
      </trkpt>
      <trkpt lat="45.88731" lon="0.7014">
        <ele>187.6</ele>
        <time>2022-04-03T12:47:55Z</time>
      </trkpt>
      <trkpt lat="45.88734" lon="0.70138">
        <ele>187.6</ele>
        <time>2022-04-03T12:47:56Z</time>
      </trkpt>
      <trkpt lat="45.88736" lon="0.70136">
        <ele>188</ele>
        <time>2022-04-03T12:47:57Z</time>
      </trkpt>
      <trkpt lat="45.88738" lon="0.70134">
        <ele>187.8</ele>
        <time>2022-04-03T12:47:58Z</time>
      </trkpt>
      <trkpt lat="45.8874" lon="0.70132">
        <ele>188.2</ele>
        <time>2022-04-03T12:47:59Z</time>
      </trkpt>
      <trkpt lat="45.88742" lon="0.7013">
        <ele>188.2</ele>
        <time>2022-04-03T12:48:00Z</time>
      </trkpt>
      <trkpt lat="45.88745" lon="0.70128">
        <ele>188.4</ele>
        <time>2022-04-03T12:48:01Z</time>
      </trkpt>
      <trkpt lat="45.88747" lon="0.70126">
        <ele>188.6</ele>
        <time>2022-04-03T12:48:02Z</time>
      </trkpt>
      <trkpt lat="45.88749" lon="0.70123">
        <ele>188.8</ele>
        <time>2022-04-03T12:48:03Z</time>
      </trkpt>
      <trkpt lat="45.88751" lon="0.70121">
        <ele>189</ele>
        <time>2022-04-03T12:48:04Z</time>
      </trkpt>
      <trkpt lat="45.88753" lon="0.70118">
        <ele>189.2</ele>
        <time>2022-04-03T12:48:05Z</time>
      </trkpt>
      <trkpt lat="45.88755" lon="0.70115">
        <ele>189.4</ele>
        <time>2022-04-03T12:48:06Z</time>
      </trkpt>
      <trkpt lat="45.88757" lon="0.70112">
        <ele>189.4</ele>
        <time>2022-04-03T12:48:07Z</time>
      </trkpt>
      <trkpt lat="45.88759" lon="0.70109">
        <ele>189.6</ele>
        <time>2022-04-03T12:48:08Z</time>
      </trkpt>
      <trkpt lat="45.88762" lon="0.70106">
        <ele>189.8</ele>
        <time>2022-04-03T12:48:09Z</time>
      </trkpt>
      <trkpt lat="45.88764" lon="0.70103">
        <ele>189.8</ele>
        <time>2022-04-03T12:48:10Z</time>
      </trkpt>
      <trkpt lat="45.88766" lon="0.701">
        <ele>190</ele>
        <time>2022-04-03T12:48:11Z</time>
      </trkpt>
      <trkpt lat="45.88768" lon="0.70096">
        <ele>190.2</ele>
        <time>2022-04-03T12:48:12Z</time>
      </trkpt>
      <trkpt lat="45.8877" lon="0.70092">
        <ele>190.4</ele>
        <time>2022-04-03T12:48:13Z</time>
      </trkpt>
      <trkpt lat="45.88772" lon="0.70089">
        <ele>190.4</ele>
        <time>2022-04-03T12:48:14Z</time>
      </trkpt>
      <trkpt lat="45.88774" lon="0.70085">
        <ele>190.6</ele>
        <time>2022-04-03T12:48:15Z</time>
      </trkpt>
      <trkpt lat="45.88776" lon="0.70082">
        <ele>190.4</ele>
        <time>2022-04-03T12:48:16Z</time>
      </trkpt>
      <trkpt lat="45.88779" lon="0.70078">
        <ele>190.4</ele>
        <time>2022-04-03T12:48:17Z</time>
      </trkpt>
      <trkpt lat="45.88781" lon="0.70073">
        <ele>190.4</ele>
        <time>2022-04-03T12:48:18Z</time>
      </trkpt>
      <trkpt lat="45.88783" lon="0.70068">
        <ele>190.6</ele>
        <time>2022-04-03T12:48:19Z</time>
      </trkpt>
      <trkpt lat="45.88786" lon="0.70063">
        <ele>190.6</ele>
        <time>2022-04-03T12:48:20Z</time>
      </trkpt>
      <trkpt lat="45.88789" lon="0.70058">
        <ele>190.6</ele>
        <time>2022-04-03T12:48:21Z</time>
      </trkpt>
      <trkpt lat="45.88792" lon="0.70052">
        <ele>190.6</ele>
        <time>2022-04-03T12:48:22Z</time>
      </trkpt>
      <trkpt lat="45.88795" lon="0.70046">
        <ele>190.6</ele>
        <time>2022-04-03T12:48:23Z</time>
      </trkpt>
      <trkpt lat="45.88798" lon="0.70041">
        <ele>190.6</ele>
        <time>2022-04-03T12:48:24Z</time>
      </trkpt>
      <trkpt lat="45.88801" lon="0.70035">
        <ele>190.6</ele>
        <time>2022-04-03T12:48:25Z</time>
      </trkpt>
      <trkpt lat="45.88804" lon="0.70029">
        <ele>190.4</ele>
        <time>2022-04-03T12:48:26Z</time>
      </trkpt>
      <trkpt lat="45.88807" lon="0.70022">
        <ele>190.2</ele>
        <time>2022-04-03T12:48:27Z</time>
      </trkpt>
      <trkpt lat="45.8881" lon="0.70016">
        <ele>190.2</ele>
        <time>2022-04-03T12:48:28Z</time>
      </trkpt>
      <trkpt lat="45.88814" lon="0.7001">
        <ele>190.2</ele>
        <time>2022-04-03T12:48:29Z</time>
      </trkpt>
      <trkpt lat="45.88817" lon="0.70003">
        <ele>189.8</ele>
        <time>2022-04-03T12:48:30Z</time>
      </trkpt>
      <trkpt lat="45.88819" lon="0.69996">
        <ele>189.6</ele>
        <time>2022-04-03T12:48:31Z</time>
      </trkpt>
      <trkpt lat="45.88822" lon="0.69989">
        <ele>189.2</ele>
        <time>2022-04-03T12:48:32Z</time>
      </trkpt>
      <trkpt lat="45.88825" lon="0.69982">
        <ele>189.2</ele>
        <time>2022-04-03T12:48:33Z</time>
      </trkpt>
      <trkpt lat="45.88827" lon="0.69975">
        <ele>189</ele>
        <time>2022-04-03T12:48:34Z</time>
      </trkpt>
      <trkpt lat="45.88829" lon="0.69968">
        <ele>189</ele>
        <time>2022-04-03T12:48:35Z</time>
      </trkpt>
      <trkpt lat="45.88832" lon="0.69961">
        <ele>188.8</ele>
        <time>2022-04-03T12:48:36Z</time>
      </trkpt>
      <trkpt lat="45.88834" lon="0.69954">
        <ele>188.8</ele>
        <time>2022-04-03T12:48:37Z</time>
      </trkpt>
      <trkpt lat="45.88837" lon="0.69947">
        <ele>188.4</ele>
        <time>2022-04-03T12:48:38Z</time>
      </trkpt>
      <trkpt lat="45.88839" lon="0.6994">
        <ele>188.4</ele>
        <time>2022-04-03T12:48:39Z</time>
      </trkpt>
      <trkpt lat="45.88842" lon="0.69933">
        <ele>188.4</ele>
        <time>2022-04-03T12:48:40Z</time>
      </trkpt>
      <trkpt lat="45.88845" lon="0.69927">
        <ele>188.2</ele>
        <time>2022-04-03T12:48:41Z</time>
      </trkpt>
      <trkpt lat="45.88848" lon="0.6992">
        <ele>188.2</ele>
        <time>2022-04-03T12:48:42Z</time>
      </trkpt>
      <trkpt lat="45.88851" lon="0.69914">
        <ele>188.2</ele>
        <time>2022-04-03T12:48:43Z</time>
      </trkpt>
      <trkpt lat="45.88855" lon="0.69908">
        <ele>188.2</ele>
        <time>2022-04-03T12:48:44Z</time>
      </trkpt>
      <trkpt lat="45.88858" lon="0.69902">
        <ele>188.4</ele>
        <time>2022-04-03T12:48:45Z</time>
      </trkpt>
      <trkpt lat="45.88862" lon="0.69896">
        <ele>188.2</ele>
        <time>2022-04-03T12:48:46Z</time>
      </trkpt>
      <trkpt lat="45.88865" lon="0.69891">
        <ele>188</ele>
        <time>2022-04-03T12:48:47Z</time>
      </trkpt>
      <trkpt lat="45.88868" lon="0.69885">
        <ele>188</ele>
        <time>2022-04-03T12:48:48Z</time>
      </trkpt>
      <trkpt lat="45.88872" lon="0.6988">
        <ele>188</ele>
        <time>2022-04-03T12:48:49Z</time>
      </trkpt>
      <trkpt lat="45.88875" lon="0.69875">
        <ele>188</ele>
        <time>2022-04-03T12:48:50Z</time>
      </trkpt>
      <trkpt lat="45.88878" lon="0.6987">
        <ele>188.2</ele>
        <time>2022-04-03T12:48:51Z</time>
      </trkpt>
      <trkpt lat="45.88881" lon="0.69865">
        <ele>188.2</ele>
        <time>2022-04-03T12:48:52Z</time>
      </trkpt>
      <trkpt lat="45.88883" lon="0.6986">
        <ele>188</ele>
        <time>2022-04-03T12:48:53Z</time>
      </trkpt>
      <trkpt lat="45.88886" lon="0.69855">
        <ele>188.2</ele>
        <time>2022-04-03T12:48:54Z</time>
      </trkpt>
      <trkpt lat="45.88889" lon="0.6985">
        <ele>188.4</ele>
        <time>2022-04-03T12:48:55Z</time>
      </trkpt>
      <trkpt lat="45.88891" lon="0.69845">
        <ele>188.4</ele>
        <time>2022-04-03T12:48:56Z</time>
      </trkpt>
      <trkpt lat="45.88893" lon="0.6984">
        <ele>188.4</ele>
        <time>2022-04-03T12:48:57Z</time>
      </trkpt>
      <trkpt lat="45.88895" lon="0.69835">
        <ele>188.6</ele>
        <time>2022-04-03T12:48:58Z</time>
      </trkpt>
      <trkpt lat="45.88897" lon="0.6983">
        <ele>188.8</ele>
        <time>2022-04-03T12:48:59Z</time>
      </trkpt>
      <trkpt lat="45.88899" lon="0.69825">
        <ele>188.8</ele>
        <time>2022-04-03T12:49:00Z</time>
      </trkpt>
      <trkpt lat="45.889" lon="0.69819">
        <ele>188.8</ele>
        <time>2022-04-03T12:49:01Z</time>
      </trkpt>
      <trkpt lat="45.88902" lon="0.69814">
        <ele>189</ele>
        <time>2022-04-03T12:49:02Z</time>
      </trkpt>
      <trkpt lat="45.88903" lon="0.69809">
        <ele>189</ele>
        <time>2022-04-03T12:49:03Z</time>
      </trkpt>
      <trkpt lat="45.88904" lon="0.69804">
        <ele>189</ele>
        <time>2022-04-03T12:49:04Z</time>
      </trkpt>
      <trkpt lat="45.88905" lon="0.69799">
        <ele>189.2</ele>
        <time>2022-04-03T12:49:05Z</time>
      </trkpt>
      <trkpt lat="45.88907" lon="0.69794">
        <ele>189.6</ele>
        <time>2022-04-03T12:49:06Z</time>
      </trkpt>
      <trkpt lat="45.88908" lon="0.69788">
        <ele>190.2</ele>
        <time>2022-04-03T12:49:07Z</time>
      </trkpt>
      <trkpt lat="45.88908" lon="0.69782">
        <ele>190.4</ele>
        <time>2022-04-03T12:49:08Z</time>
      </trkpt>
      <trkpt lat="45.88909" lon="0.69776">
        <ele>190.8</ele>
        <time>2022-04-03T12:49:09Z</time>
      </trkpt>
      <trkpt lat="45.88909" lon="0.6977">
        <ele>190.8</ele>
        <time>2022-04-03T12:49:10Z</time>
      </trkpt>
      <trkpt lat="45.88909" lon="0.69763">
        <ele>190.8</ele>
        <time>2022-04-03T12:49:11Z</time>
      </trkpt>
      <trkpt lat="45.8891" lon="0.69757">
        <ele>190.8</ele>
        <time>2022-04-03T12:49:12Z</time>
      </trkpt>
      <trkpt lat="45.88911" lon="0.6975">
        <ele>190.8</ele>
        <time>2022-04-03T12:49:13Z</time>
      </trkpt>
      <trkpt lat="45.88911" lon="0.69742">
        <ele>190.8</ele>
        <time>2022-04-03T12:49:14Z</time>
      </trkpt>
      <trkpt lat="45.88912" lon="0.69734">
        <ele>190.8</ele>
        <time>2022-04-03T12:49:15Z</time>
      </trkpt>
      <trkpt lat="45.88913" lon="0.69725">
        <ele>190.8</ele>
        <time>2022-04-03T12:49:16Z</time>
      </trkpt>
      <trkpt lat="45.88915" lon="0.69716">
        <ele>190.8</ele>
        <time>2022-04-03T12:49:17Z</time>
      </trkpt>
      <trkpt lat="45.88917" lon="0.69707">
        <ele>191</ele>
        <time>2022-04-03T12:49:18Z</time>
      </trkpt>
      <trkpt lat="45.88919" lon="0.69697">
        <ele>191</ele>
        <time>2022-04-03T12:49:19Z</time>
      </trkpt>
      <trkpt lat="45.88922" lon="0.69687">
        <ele>190.8</ele>
        <time>2022-04-03T12:49:20Z</time>
      </trkpt>
      <trkpt lat="45.88925" lon="0.69676">
        <ele>191</ele>
        <time>2022-04-03T12:49:21Z</time>
      </trkpt>
      <trkpt lat="45.88928" lon="0.69666">
        <ele>190.6</ele>
        <time>2022-04-03T12:49:22Z</time>
      </trkpt>
      <trkpt lat="45.88932" lon="0.69655">
        <ele>190.4</ele>
        <time>2022-04-03T12:49:23Z</time>
      </trkpt>
      <trkpt lat="45.88936" lon="0.69643">
        <ele>189.6</ele>
        <time>2022-04-03T12:49:24Z</time>
      </trkpt>
      <trkpt lat="45.88939" lon="0.69632">
        <ele>189</ele>
        <time>2022-04-03T12:49:25Z</time>
      </trkpt>
      <trkpt lat="45.88943" lon="0.6962">
        <ele>188.6</ele>
        <time>2022-04-03T12:49:26Z</time>
      </trkpt>
      <trkpt lat="45.88947" lon="0.69609">
        <ele>187.8</ele>
        <time>2022-04-03T12:49:27Z</time>
      </trkpt>
      <trkpt lat="45.88951" lon="0.69597">
        <ele>187</ele>
        <time>2022-04-03T12:49:28Z</time>
      </trkpt>
      <trkpt lat="45.88956" lon="0.69585">
        <ele>185.8</ele>
        <time>2022-04-03T12:49:29Z</time>
      </trkpt>
      <trkpt lat="45.8896" lon="0.69572">
        <ele>185.8</ele>
        <time>2022-04-03T12:49:30Z</time>
      </trkpt>
      <trkpt lat="45.88964" lon="0.6956">
        <ele>185</ele>
        <time>2022-04-03T12:49:31Z</time>
      </trkpt>
      <trkpt lat="45.88969" lon="0.69547">
        <ele>184</ele>
        <time>2022-04-03T12:49:32Z</time>
      </trkpt>
      <trkpt lat="45.88973" lon="0.69534">
        <ele>183.2</ele>
        <time>2022-04-03T12:49:33Z</time>
      </trkpt>
      <trkpt lat="45.88978" lon="0.69522">
        <ele>181.8</ele>
        <time>2022-04-03T12:49:34Z</time>
      </trkpt>
      <trkpt lat="45.88983" lon="0.6951">
        <ele>180.8</ele>
        <time>2022-04-03T12:49:35Z</time>
      </trkpt>
      <trkpt lat="45.88988" lon="0.69497">
        <ele>180</ele>
        <time>2022-04-03T12:49:36Z</time>
      </trkpt>
      <trkpt lat="45.88993" lon="0.69485">
        <ele>178.6</ele>
        <time>2022-04-03T12:49:37Z</time>
      </trkpt>
      <trkpt lat="45.88999" lon="0.69473">
        <ele>177.8</ele>
        <time>2022-04-03T12:49:38Z</time>
      </trkpt>
      <trkpt lat="45.89006" lon="0.6946">
        <ele>177.2</ele>
        <time>2022-04-03T12:49:39Z</time>
      </trkpt>
      <trkpt lat="45.89012" lon="0.69448">
        <ele>176.8</ele>
        <time>2022-04-03T12:49:40Z</time>
      </trkpt>
      <trkpt lat="45.8902" lon="0.69436">
        <ele>176.4</ele>
        <time>2022-04-03T12:49:41Z</time>
      </trkpt>
      <trkpt lat="45.89028" lon="0.69426">
        <ele>175.6</ele>
        <time>2022-04-03T12:49:42Z</time>
      </trkpt>
      <trkpt lat="45.89036" lon="0.69418">
        <ele>174.4</ele>
        <time>2022-04-03T12:49:43Z</time>
      </trkpt>
      <trkpt lat="45.89045" lon="0.69412">
        <ele>173.8</ele>
        <time>2022-04-03T12:49:44Z</time>
      </trkpt>
      <trkpt lat="45.89054" lon="0.69407">
        <ele>172.4</ele>
        <time>2022-04-03T12:49:45Z</time>
      </trkpt>
      <trkpt lat="45.89062" lon="0.69402">
        <ele>171.2</ele>
        <time>2022-04-03T12:49:46Z</time>
      </trkpt>
      <trkpt lat="45.8907" lon="0.69397">
        <ele>170.8</ele>
        <time>2022-04-03T12:49:47Z</time>
      </trkpt>
      <trkpt lat="45.89078" lon="0.69393">
        <ele>170.8</ele>
        <time>2022-04-03T12:49:48Z</time>
      </trkpt>
      <trkpt lat="45.89084" lon="0.6939">
        <ele>170.4</ele>
        <time>2022-04-03T12:49:49Z</time>
      </trkpt>
      <trkpt lat="45.89091" lon="0.69386">
        <ele>170.2</ele>
        <time>2022-04-03T12:49:50Z</time>
      </trkpt>
      <trkpt lat="45.89096" lon="0.69382">
        <ele>170.2</ele>
        <time>2022-04-03T12:49:51Z</time>
      </trkpt>
      <trkpt lat="45.89101" lon="0.69378">
        <ele>170.4</ele>
        <time>2022-04-03T12:49:52Z</time>
      </trkpt>
      <trkpt lat="45.89106" lon="0.69374">
        <ele>170.2</ele>
        <time>2022-04-03T12:49:53Z</time>
      </trkpt>
      <trkpt lat="45.8911" lon="0.6937">
        <ele>170.2</ele>
        <time>2022-04-03T12:49:54Z</time>
      </trkpt>
      <trkpt lat="45.89114" lon="0.69366">
        <ele>170.2</ele>
        <time>2022-04-03T12:49:55Z</time>
      </trkpt>
      <trkpt lat="45.89118" lon="0.69362">
        <ele>170.2</ele>
        <time>2022-04-03T12:49:56Z</time>
      </trkpt>
      <trkpt lat="45.8912" lon="0.69359">
        <ele>170.4</ele>
        <time>2022-04-03T12:49:57Z</time>
      </trkpt>
      <trkpt lat="45.89123" lon="0.69356">
        <ele>170.6</ele>
        <time>2022-04-03T12:49:58Z</time>
      </trkpt>
      <trkpt lat="45.89125" lon="0.69353">
        <ele>171.2</ele>
        <time>2022-04-03T12:49:59Z</time>
      </trkpt>
      <trkpt lat="45.89127" lon="0.6935">
        <ele>171.8</ele>
        <time>2022-04-03T12:50:00Z</time>
      </trkpt>
      <trkpt lat="45.8913" lon="0.69347">
        <ele>172.6</ele>
        <time>2022-04-03T12:50:01Z</time>
      </trkpt>
      <trkpt lat="45.89132" lon="0.69344">
        <ele>173.8</ele>
        <time>2022-04-03T12:50:02Z</time>
      </trkpt>
      <trkpt lat="45.89134" lon="0.69341">
        <ele>174.4</ele>
        <time>2022-04-03T12:50:03Z</time>
      </trkpt>
      <trkpt lat="45.89136" lon="0.69339">
        <ele>175.2</ele>
        <time>2022-04-03T12:50:04Z</time>
      </trkpt>
      <trkpt lat="45.89137" lon="0.69336">
        <ele>175.8</ele>
        <time>2022-04-03T12:50:05Z</time>
      </trkpt>
      <trkpt lat="45.89139" lon="0.69333">
        <ele>176.4</ele>
        <time>2022-04-03T12:50:06Z</time>
      </trkpt>
      <trkpt lat="45.89141" lon="0.6933">
        <ele>176.4</ele>
        <time>2022-04-03T12:50:07Z</time>
      </trkpt>
      <trkpt lat="45.89143" lon="0.69328">
        <ele>176.8</ele>
        <time>2022-04-03T12:50:08Z</time>
      </trkpt>
      <trkpt lat="45.89145" lon="0.69325">
        <ele>177.2</ele>
        <time>2022-04-03T12:50:09Z</time>
      </trkpt>
      <trkpt lat="45.89146" lon="0.69323">
        <ele>177.6</ele>
        <time>2022-04-03T12:50:10Z</time>
      </trkpt>
      <trkpt lat="45.89148" lon="0.6932">
        <ele>177.8</ele>
        <time>2022-04-03T12:50:11Z</time>
      </trkpt>
      <trkpt lat="45.8915" lon="0.69318">
        <ele>178.4</ele>
        <time>2022-04-03T12:50:12Z</time>
      </trkpt>
      <trkpt lat="45.89152" lon="0.69315">
        <ele>178.6</ele>
        <time>2022-04-03T12:50:13Z</time>
      </trkpt>
      <trkpt lat="45.89153" lon="0.69312">
        <ele>178.8</ele>
        <time>2022-04-03T12:50:14Z</time>
      </trkpt>
      <trkpt lat="45.89155" lon="0.6931">
        <ele>179.2</ele>
        <time>2022-04-03T12:50:15Z</time>
      </trkpt>
      <trkpt lat="45.89156" lon="0.69307">
        <ele>179.4</ele>
        <time>2022-04-03T12:50:16Z</time>
      </trkpt>
      <trkpt lat="45.89158" lon="0.69304">
        <ele>179.8</ele>
        <time>2022-04-03T12:50:17Z</time>
      </trkpt>
      <trkpt lat="45.8916" lon="0.69302">
        <ele>180.2</ele>
        <time>2022-04-03T12:50:18Z</time>
      </trkpt>
      <trkpt lat="45.89161" lon="0.69299">
        <ele>180.4</ele>
        <time>2022-04-03T12:50:19Z</time>
      </trkpt>
      <trkpt lat="45.89163" lon="0.69297">
        <ele>180.4</ele>
        <time>2022-04-03T12:50:20Z</time>
      </trkpt>
      <trkpt lat="45.89164" lon="0.69294">
        <ele>180.8</ele>
        <time>2022-04-03T12:50:21Z</time>
      </trkpt>
      <trkpt lat="45.89165" lon="0.69291">
        <ele>181</ele>
        <time>2022-04-03T12:50:22Z</time>
      </trkpt>
      <trkpt lat="45.89167" lon="0.69289">
        <ele>181.2</ele>
        <time>2022-04-03T12:50:23Z</time>
      </trkpt>
      <trkpt lat="45.89168" lon="0.69286">
        <ele>181.6</ele>
        <time>2022-04-03T12:50:24Z</time>
      </trkpt>
      <trkpt lat="45.8917" lon="0.69283">
        <ele>182</ele>
        <time>2022-04-03T12:50:25Z</time>
      </trkpt>
      <trkpt lat="45.89171" lon="0.69281">
        <ele>182</ele>
        <time>2022-04-03T12:50:26Z</time>
      </trkpt>
      <trkpt lat="45.89173" lon="0.69278">
        <ele>182.2</ele>
        <time>2022-04-03T12:50:27Z</time>
      </trkpt>
      <trkpt lat="45.89174" lon="0.69276">
        <ele>182.4</ele>
        <time>2022-04-03T12:50:28Z</time>
      </trkpt>
      <trkpt lat="45.89176" lon="0.69273">
        <ele>182.6</ele>
        <time>2022-04-03T12:50:29Z</time>
      </trkpt>
      <trkpt lat="45.89177" lon="0.6927">
        <ele>182.6</ele>
        <time>2022-04-03T12:50:30Z</time>
      </trkpt>
      <trkpt lat="45.89179" lon="0.69267">
        <ele>183</ele>
        <time>2022-04-03T12:50:31Z</time>
      </trkpt>
      <trkpt lat="45.8918" lon="0.69265">
        <ele>183</ele>
        <time>2022-04-03T12:50:32Z</time>
      </trkpt>
      <trkpt lat="45.89182" lon="0.69262">
        <ele>183.4</ele>
        <time>2022-04-03T12:50:33Z</time>
      </trkpt>
      <trkpt lat="45.89183" lon="0.69259">
        <ele>183.4</ele>
        <time>2022-04-03T12:50:34Z</time>
      </trkpt>
      <trkpt lat="45.89185" lon="0.69256">
        <ele>183.6</ele>
        <time>2022-04-03T12:50:35Z</time>
      </trkpt>
      <trkpt lat="45.89186" lon="0.69253">
        <ele>184</ele>
        <time>2022-04-03T12:50:36Z</time>
      </trkpt>
      <trkpt lat="45.89187" lon="0.69251">
        <ele>184</ele>
        <time>2022-04-03T12:50:37Z</time>
      </trkpt>
      <trkpt lat="45.89189" lon="0.69248">
        <ele>184.2</ele>
        <time>2022-04-03T12:50:38Z</time>
      </trkpt>
      <trkpt lat="45.89191" lon="0.69245">
        <ele>184.4</ele>
        <time>2022-04-03T12:50:39Z</time>
      </trkpt>
      <trkpt lat="45.89192" lon="0.69242">
        <ele>184.4</ele>
        <time>2022-04-03T12:50:40Z</time>
      </trkpt>
      <trkpt lat="45.89193" lon="0.6924">
        <ele>184.8</ele>
        <time>2022-04-03T12:50:41Z</time>
      </trkpt>
      <trkpt lat="45.89195" lon="0.69237">
        <ele>185.2</ele>
        <time>2022-04-03T12:50:42Z</time>
      </trkpt>
      <trkpt lat="45.89196" lon="0.69235">
        <ele>185.4</ele>
        <time>2022-04-03T12:50:43Z</time>
      </trkpt>
      <trkpt lat="45.89197" lon="0.69232">
        <ele>185.6</ele>
        <time>2022-04-03T12:50:44Z</time>
      </trkpt>
      <trkpt lat="45.89198" lon="0.69229">
        <ele>185.6</ele>
        <time>2022-04-03T12:50:45Z</time>
      </trkpt>
      <trkpt lat="45.89199" lon="0.69227">
        <ele>185.8</ele>
        <time>2022-04-03T12:50:46Z</time>
      </trkpt>
      <trkpt lat="45.892" lon="0.69224">
        <ele>186</ele>
        <time>2022-04-03T12:50:47Z</time>
      </trkpt>
      <trkpt lat="45.89202" lon="0.69221">
        <ele>186.4</ele>
        <time>2022-04-03T12:50:48Z</time>
      </trkpt>
      <trkpt lat="45.89203" lon="0.69218">
        <ele>186.6</ele>
        <time>2022-04-03T12:50:49Z</time>
      </trkpt>
      <trkpt lat="45.89205" lon="0.69216">
        <ele>186.8</ele>
        <time>2022-04-03T12:50:50Z</time>
      </trkpt>
      <trkpt lat="45.89206" lon="0.69213">
        <ele>187</ele>
        <time>2022-04-03T12:50:51Z</time>
      </trkpt>
      <trkpt lat="45.89208" lon="0.6921">
        <ele>187.4</ele>
        <time>2022-04-03T12:50:52Z</time>
      </trkpt>
      <trkpt lat="45.89209" lon="0.69207">
        <ele>187.4</ele>
        <time>2022-04-03T12:50:53Z</time>
      </trkpt>
      <trkpt lat="45.89211" lon="0.69204">
        <ele>187.8</ele>
        <time>2022-04-03T12:50:54Z</time>
      </trkpt>
      <trkpt lat="45.89212" lon="0.69201">
        <ele>188.2</ele>
        <time>2022-04-03T12:50:55Z</time>
      </trkpt>
      <trkpt lat="45.89213" lon="0.69199">
        <ele>188.4</ele>
        <time>2022-04-03T12:50:56Z</time>
      </trkpt>
      <trkpt lat="45.89215" lon="0.69196">
        <ele>188.6</ele>
        <time>2022-04-03T12:50:57Z</time>
      </trkpt>
      <trkpt lat="45.89216" lon="0.69193">
        <ele>188.8</ele>
        <time>2022-04-03T12:50:58Z</time>
      </trkpt>
      <trkpt lat="45.89218" lon="0.69191">
        <ele>189</ele>
        <time>2022-04-03T12:50:59Z</time>
      </trkpt>
      <trkpt lat="45.8922" lon="0.69188">
        <ele>189.2</ele>
        <time>2022-04-03T12:51:00Z</time>
      </trkpt>
      <trkpt lat="45.89221" lon="0.69186">
        <ele>189.2</ele>
        <time>2022-04-03T12:51:01Z</time>
      </trkpt>
      <trkpt lat="45.89223" lon="0.69183">
        <ele>189.6</ele>
        <time>2022-04-03T12:51:02Z</time>
      </trkpt>
      <trkpt lat="45.89224" lon="0.6918">
        <ele>189.8</ele>
        <time>2022-04-03T12:51:03Z</time>
      </trkpt>
      <trkpt lat="45.89226" lon="0.69178">
        <ele>190</ele>
        <time>2022-04-03T12:51:04Z</time>
      </trkpt>
      <trkpt lat="45.89228" lon="0.69175">
        <ele>190</ele>
        <time>2022-04-03T12:51:05Z</time>
      </trkpt>
      <trkpt lat="45.8923" lon="0.69172">
        <ele>190.2</ele>
        <time>2022-04-03T12:51:06Z</time>
      </trkpt>
      <trkpt lat="45.89231" lon="0.69169">
        <ele>190</ele>
        <time>2022-04-03T12:51:07Z</time>
      </trkpt>
      <trkpt lat="45.89233" lon="0.69166">
        <ele>190.2</ele>
        <time>2022-04-03T12:51:08Z</time>
      </trkpt>
      <trkpt lat="45.89235" lon="0.69163">
        <ele>190.4</ele>
        <time>2022-04-03T12:51:09Z</time>
      </trkpt>
      <trkpt lat="45.89237" lon="0.6916">
        <ele>190.6</ele>
        <time>2022-04-03T12:51:10Z</time>
      </trkpt>
      <trkpt lat="45.89239" lon="0.69157">
        <ele>190.8</ele>
        <time>2022-04-03T12:51:11Z</time>
      </trkpt>
      <trkpt lat="45.89241" lon="0.69155">
        <ele>190.8</ele>
        <time>2022-04-03T12:51:12Z</time>
      </trkpt>
      <trkpt lat="45.89243" lon="0.69152">
        <ele>191</ele>
        <time>2022-04-03T12:51:13Z</time>
      </trkpt>
      <trkpt lat="45.89246" lon="0.6915">
        <ele>191</ele>
        <time>2022-04-03T12:51:14Z</time>
      </trkpt>
      <trkpt lat="45.89248" lon="0.69148">
        <ele>191.4</ele>
        <time>2022-04-03T12:51:15Z</time>
      </trkpt>
      <trkpt lat="45.89251" lon="0.69146">
        <ele>191.6</ele>
        <time>2022-04-03T12:51:16Z</time>
      </trkpt>
      <trkpt lat="45.89254" lon="0.69144">
        <ele>191.8</ele>
        <time>2022-04-03T12:51:17Z</time>
      </trkpt>
      <trkpt lat="45.89257" lon="0.69142">
        <ele>191.6</ele>
        <time>2022-04-03T12:51:18Z</time>
      </trkpt>
      <trkpt lat="45.8926" lon="0.69141">
        <ele>191.8</ele>
        <time>2022-04-03T12:51:19Z</time>
      </trkpt>
      <trkpt lat="45.89263" lon="0.69139">
        <ele>191.8</ele>
        <time>2022-04-03T12:51:20Z</time>
      </trkpt>
      <trkpt lat="45.89266" lon="0.69138">
        <ele>192</ele>
        <time>2022-04-03T12:51:21Z</time>
      </trkpt>
      <trkpt lat="45.89268" lon="0.69137">
        <ele>192</ele>
        <time>2022-04-03T12:51:22Z</time>
      </trkpt>
      <trkpt lat="45.89271" lon="0.69135">
        <ele>192</ele>
        <time>2022-04-03T12:51:23Z</time>
      </trkpt>
      <trkpt lat="45.89274" lon="0.69134">
        <ele>192</ele>
        <time>2022-04-03T12:51:24Z</time>
      </trkpt>
      <trkpt lat="45.89277" lon="0.69133">
        <ele>192</ele>
        <time>2022-04-03T12:51:25Z</time>
      </trkpt>
      <trkpt lat="45.89281" lon="0.69131">
        <ele>192</ele>
        <time>2022-04-03T12:51:26Z</time>
      </trkpt>
      <trkpt lat="45.89284" lon="0.69129">
        <ele>192</ele>
        <time>2022-04-03T12:51:27Z</time>
      </trkpt>
      <trkpt lat="45.89287" lon="0.69128">
        <ele>192</ele>
        <time>2022-04-03T12:51:28Z</time>
      </trkpt>
      <trkpt lat="45.8929" lon="0.69126">
        <ele>191.8</ele>
        <time>2022-04-03T12:51:29Z</time>
      </trkpt>
      <trkpt lat="45.89293" lon="0.69125">
        <ele>192</ele>
        <time>2022-04-03T12:51:30Z</time>
      </trkpt>
      <trkpt lat="45.89297" lon="0.69123">
        <ele>192</ele>
        <time>2022-04-03T12:51:31Z</time>
      </trkpt>
      <trkpt lat="45.893" lon="0.69121">
        <ele>192</ele>
        <time>2022-04-03T12:51:32Z</time>
      </trkpt>
      <trkpt lat="45.89303" lon="0.69119">
        <ele>192</ele>
        <time>2022-04-03T12:51:33Z</time>
      </trkpt>
      <trkpt lat="45.89307" lon="0.69117">
        <ele>192.2</ele>
        <time>2022-04-03T12:51:34Z</time>
      </trkpt>
      <trkpt lat="45.8931" lon="0.69116">
        <ele>192.2</ele>
        <time>2022-04-03T12:51:35Z</time>
      </trkpt>
      <trkpt lat="45.89314" lon="0.69114">
        <ele>192</ele>
        <time>2022-04-03T12:51:36Z</time>
      </trkpt>
      <trkpt lat="45.89317" lon="0.69112">
        <ele>192</ele>
        <time>2022-04-03T12:51:37Z</time>
      </trkpt>
      <trkpt lat="45.89321" lon="0.6911">
        <ele>192</ele>
        <time>2022-04-03T12:51:38Z</time>
      </trkpt>
      <trkpt lat="45.89325" lon="0.69108">
        <ele>192</ele>
        <time>2022-04-03T12:51:39Z</time>
      </trkpt>
      <trkpt lat="45.89329" lon="0.69106">
        <ele>191.8</ele>
        <time>2022-04-03T12:51:40Z</time>
      </trkpt>
      <trkpt lat="45.89332" lon="0.69103">
        <ele>192</ele>
        <time>2022-04-03T12:51:41Z</time>
      </trkpt>
      <trkpt lat="45.89336" lon="0.691">
        <ele>191.8</ele>
        <time>2022-04-03T12:51:42Z</time>
      </trkpt>
      <trkpt lat="45.8934" lon="0.69098">
        <ele>191.8</ele>
        <time>2022-04-03T12:51:43Z</time>
      </trkpt>
      <trkpt lat="45.89343" lon="0.69096">
        <ele>191.8</ele>
        <time>2022-04-03T12:51:44Z</time>
      </trkpt>
      <trkpt lat="45.89347" lon="0.69093">
        <ele>191.8</ele>
        <time>2022-04-03T12:51:45Z</time>
      </trkpt>
      <trkpt lat="45.89351" lon="0.69091">
        <ele>191.6</ele>
        <time>2022-04-03T12:51:46Z</time>
      </trkpt>
      <trkpt lat="45.89355" lon="0.69088">
        <ele>191.4</ele>
        <time>2022-04-03T12:51:47Z</time>
      </trkpt>
      <trkpt lat="45.89358" lon="0.69085">
        <ele>191.2</ele>
        <time>2022-04-03T12:51:48Z</time>
      </trkpt>
      <trkpt lat="45.89362" lon="0.69083">
        <ele>190.8</ele>
        <time>2022-04-03T12:51:49Z</time>
      </trkpt>
      <trkpt lat="45.89366" lon="0.69081">
        <ele>190.8</ele>
        <time>2022-04-03T12:51:50Z</time>
      </trkpt>
      <trkpt lat="45.8937" lon="0.69078">
        <ele>190.8</ele>
        <time>2022-04-03T12:51:51Z</time>
      </trkpt>
      <trkpt lat="45.89374" lon="0.69076">
        <ele>190.6</ele>
        <time>2022-04-03T12:51:52Z</time>
      </trkpt>
      <trkpt lat="45.89379" lon="0.69074">
        <ele>190.6</ele>
        <time>2022-04-03T12:51:53Z</time>
      </trkpt>
      <trkpt lat="45.89383" lon="0.69071">
        <ele>190.6</ele>
        <time>2022-04-03T12:51:54Z</time>
      </trkpt>
      <trkpt lat="45.89387" lon="0.69068">
        <ele>190.6</ele>
        <time>2022-04-03T12:51:55Z</time>
      </trkpt>
      <trkpt lat="45.89392" lon="0.69065">
        <ele>190.4</ele>
        <time>2022-04-03T12:51:56Z</time>
      </trkpt>
      <trkpt lat="45.89396" lon="0.69063">
        <ele>190.4</ele>
        <time>2022-04-03T12:51:57Z</time>
      </trkpt>
      <trkpt lat="45.89401" lon="0.6906">
        <ele>190.2</ele>
        <time>2022-04-03T12:51:58Z</time>
      </trkpt>
      <trkpt lat="45.89405" lon="0.69057">
        <ele>190</ele>
        <time>2022-04-03T12:51:59Z</time>
      </trkpt>
      <trkpt lat="45.8941" lon="0.69054">
        <ele>189.8</ele>
        <time>2022-04-03T12:52:00Z</time>
      </trkpt>
      <trkpt lat="45.89415" lon="0.69051">
        <ele>189.8</ele>
        <time>2022-04-03T12:52:01Z</time>
      </trkpt>
      <trkpt lat="45.89419" lon="0.69047">
        <ele>189.8</ele>
        <time>2022-04-03T12:52:02Z</time>
      </trkpt>
      <trkpt lat="45.89424" lon="0.69044">
        <ele>189.8</ele>
        <time>2022-04-03T12:52:03Z</time>
      </trkpt>
      <trkpt lat="45.8943" lon="0.69041">
        <ele>189.4</ele>
        <time>2022-04-03T12:52:04Z</time>
      </trkpt>
      <trkpt lat="45.89435" lon="0.69037">
        <ele>189.4</ele>
        <time>2022-04-03T12:52:05Z</time>
      </trkpt>
      <trkpt lat="45.89441" lon="0.69034">
        <ele>189</ele>
        <time>2022-04-03T12:52:06Z</time>
      </trkpt>
      <trkpt lat="45.89446" lon="0.6903">
        <ele>188.6</ele>
        <time>2022-04-03T12:52:07Z</time>
      </trkpt>
      <trkpt lat="45.89452" lon="0.69026">
        <ele>188.2</ele>
        <time>2022-04-03T12:52:08Z</time>
      </trkpt>
      <trkpt lat="45.89459" lon="0.69022">
        <ele>188</ele>
        <time>2022-04-03T12:52:09Z</time>
      </trkpt>
      <trkpt lat="45.89465" lon="0.69018">
        <ele>187.8</ele>
        <time>2022-04-03T12:52:10Z</time>
      </trkpt>
      <trkpt lat="45.89471" lon="0.69014">
        <ele>187.6</ele>
        <time>2022-04-03T12:52:11Z</time>
      </trkpt>
      <trkpt lat="45.89478" lon="0.6901">
        <ele>187.2</ele>
        <time>2022-04-03T12:52:12Z</time>
      </trkpt>
      <trkpt lat="45.89484" lon="0.69006">
        <ele>187</ele>
        <time>2022-04-03T12:52:13Z</time>
      </trkpt>
      <trkpt lat="45.89491" lon="0.69002">
        <ele>186.8</ele>
        <time>2022-04-03T12:52:14Z</time>
      </trkpt>
      <trkpt lat="45.89498" lon="0.68998">
        <ele>186.6</ele>
        <time>2022-04-03T12:52:15Z</time>
      </trkpt>
      <trkpt lat="45.89504" lon="0.68993">
        <ele>186.6</ele>
        <time>2022-04-03T12:52:16Z</time>
      </trkpt>
      <trkpt lat="45.89511" lon="0.68988">
        <ele>186.4</ele>
        <time>2022-04-03T12:52:17Z</time>
      </trkpt>
      <trkpt lat="45.89518" lon="0.68984">
        <ele>185.8</ele>
        <time>2022-04-03T12:52:18Z</time>
      </trkpt>
      <trkpt lat="45.89524" lon="0.68979">
        <ele>185.6</ele>
        <time>2022-04-03T12:52:19Z</time>
      </trkpt>
      <trkpt lat="45.89531" lon="0.68973">
        <ele>185.2</ele>
        <time>2022-04-03T12:52:20Z</time>
      </trkpt>
      <trkpt lat="45.89537" lon="0.68967">
        <ele>185.2</ele>
        <time>2022-04-03T12:52:21Z</time>
      </trkpt>
      <trkpt lat="45.89544" lon="0.68961">
        <ele>184.6</ele>
        <time>2022-04-03T12:52:22Z</time>
      </trkpt>
      <trkpt lat="45.8955" lon="0.68954">
        <ele>184.2</ele>
        <time>2022-04-03T12:52:23Z</time>
      </trkpt>
      <trkpt lat="45.89556" lon="0.68946">
        <ele>183.8</ele>
        <time>2022-04-03T12:52:24Z</time>
      </trkpt>
      <trkpt lat="45.89561" lon="0.68938">
        <ele>183.4</ele>
        <time>2022-04-03T12:52:25Z</time>
      </trkpt>
      <trkpt lat="45.89567" lon="0.6893">
        <ele>183.2</ele>
        <time>2022-04-03T12:52:26Z</time>
      </trkpt>
      <trkpt lat="45.89572" lon="0.68921">
        <ele>182.8</ele>
        <time>2022-04-03T12:52:27Z</time>
      </trkpt>
      <trkpt lat="45.89578" lon="0.68912">
        <ele>182.6</ele>
        <time>2022-04-03T12:52:28Z</time>
      </trkpt>
      <trkpt lat="45.89584" lon="0.68904">
        <ele>182.2</ele>
        <time>2022-04-03T12:52:29Z</time>
      </trkpt>
      <trkpt lat="45.8959" lon="0.68897">
        <ele>181.6</ele>
        <time>2022-04-03T12:52:30Z</time>
      </trkpt>
      <trkpt lat="45.89596" lon="0.6889">
        <ele>181.2</ele>
        <time>2022-04-03T12:52:31Z</time>
      </trkpt>
      <trkpt lat="45.89603" lon="0.68883">
        <ele>180.8</ele>
        <time>2022-04-03T12:52:32Z</time>
      </trkpt>
      <trkpt lat="45.89609" lon="0.68877">
        <ele>180.4</ele>
        <time>2022-04-03T12:52:33Z</time>
      </trkpt>
      <trkpt lat="45.89616" lon="0.68872">
        <ele>180</ele>
        <time>2022-04-03T12:52:34Z</time>
      </trkpt>
      <trkpt lat="45.89622" lon="0.68866">
        <ele>179.6</ele>
        <time>2022-04-03T12:52:35Z</time>
      </trkpt>
      <trkpt lat="45.89629" lon="0.68859">
        <ele>179.2</ele>
        <time>2022-04-03T12:52:36Z</time>
      </trkpt>
      <trkpt lat="45.89634" lon="0.68853">
        <ele>178.8</ele>
        <time>2022-04-03T12:52:37Z</time>
      </trkpt>
      <trkpt lat="45.8964" lon="0.68847">
        <ele>178.2</ele>
        <time>2022-04-03T12:52:38Z</time>
      </trkpt>
      <trkpt lat="45.89646" lon="0.6884">
        <ele>177.6</ele>
        <time>2022-04-03T12:52:39Z</time>
      </trkpt>
      <trkpt lat="45.89651" lon="0.68832">
        <ele>177.6</ele>
        <time>2022-04-03T12:52:40Z</time>
      </trkpt>
      <trkpt lat="45.89656" lon="0.68824">
        <ele>177.2</ele>
        <time>2022-04-03T12:52:41Z</time>
      </trkpt>
      <trkpt lat="45.89662" lon="0.68817">
        <ele>177.2</ele>
        <time>2022-04-03T12:52:42Z</time>
      </trkpt>
      <trkpt lat="45.89667" lon="0.68809">
        <ele>177</ele>
        <time>2022-04-03T12:52:43Z</time>
      </trkpt>
      <trkpt lat="45.89672" lon="0.68802">
        <ele>176.8</ele>
        <time>2022-04-03T12:52:44Z</time>
      </trkpt>
      <trkpt lat="45.89678" lon="0.68795">
        <ele>176.6</ele>
        <time>2022-04-03T12:52:45Z</time>
      </trkpt>
      <trkpt lat="45.89683" lon="0.68788">
        <ele>176.4</ele>
        <time>2022-04-03T12:52:46Z</time>
      </trkpt>
      <trkpt lat="45.89689" lon="0.68781">
        <ele>176.2</ele>
        <time>2022-04-03T12:52:47Z</time>
      </trkpt>
      <trkpt lat="45.89694" lon="0.68774">
        <ele>176</ele>
        <time>2022-04-03T12:52:48Z</time>
      </trkpt>
      <trkpt lat="45.89699" lon="0.68767">
        <ele>175.4</ele>
        <time>2022-04-03T12:52:49Z</time>
      </trkpt>
      <trkpt lat="45.89704" lon="0.6876">
        <ele>175</ele>
        <time>2022-04-03T12:52:50Z</time>
      </trkpt>
      <trkpt lat="45.89709" lon="0.68753">
        <ele>174.6</ele>
        <time>2022-04-03T12:52:51Z</time>
      </trkpt>
      <trkpt lat="45.89714" lon="0.68747">
        <ele>174.2</ele>
        <time>2022-04-03T12:52:52Z</time>
      </trkpt>
      <trkpt lat="45.89719" lon="0.6874">
        <ele>174.2</ele>
        <time>2022-04-03T12:52:53Z</time>
      </trkpt>
      <trkpt lat="45.89724" lon="0.68734">
        <ele>174</ele>
        <time>2022-04-03T12:52:54Z</time>
      </trkpt>
      <trkpt lat="45.89728" lon="0.68728">
        <ele>173.8</ele>
        <time>2022-04-03T12:52:55Z</time>
      </trkpt>
      <trkpt lat="45.89732" lon="0.68722">
        <ele>173.8</ele>
        <time>2022-04-03T12:52:56Z</time>
      </trkpt>
      <trkpt lat="45.89736" lon="0.68716">
        <ele>173.8</ele>
        <time>2022-04-03T12:52:57Z</time>
      </trkpt>
      <trkpt lat="45.8974" lon="0.68711">
        <ele>173.8</ele>
        <time>2022-04-03T12:52:58Z</time>
      </trkpt>
      <trkpt lat="45.89744" lon="0.68705">
        <ele>173.8</ele>
        <time>2022-04-03T12:52:59Z</time>
      </trkpt>
      <trkpt lat="45.89747" lon="0.68699">
        <ele>173.8</ele>
        <time>2022-04-03T12:53:00Z</time>
      </trkpt>
      <trkpt lat="45.89749" lon="0.68693">
        <ele>173.8</ele>
        <time>2022-04-03T12:53:01Z</time>
      </trkpt>
      <trkpt lat="45.89752" lon="0.68687">
        <ele>173.8</ele>
        <time>2022-04-03T12:53:02Z</time>
      </trkpt>
      <trkpt lat="45.89755" lon="0.68682">
        <ele>173.8</ele>
        <time>2022-04-03T12:53:03Z</time>
      </trkpt>
      <trkpt lat="45.89757" lon="0.68676">
        <ele>173.8</ele>
        <time>2022-04-03T12:53:04Z</time>
      </trkpt>
      <trkpt lat="45.89759" lon="0.68671">
        <ele>174</ele>
        <time>2022-04-03T12:53:05Z</time>
      </trkpt>
      <trkpt lat="45.89761" lon="0.68666">
        <ele>174.2</ele>
        <time>2022-04-03T12:53:06Z</time>
      </trkpt>
      <trkpt lat="45.89763" lon="0.68661">
        <ele>174.4</ele>
        <time>2022-04-03T12:53:07Z</time>
      </trkpt>
      <trkpt lat="45.89765" lon="0.68656">
        <ele>174.6</ele>
        <time>2022-04-03T12:53:08Z</time>
      </trkpt>
      <trkpt lat="45.89766" lon="0.68651">
        <ele>174.6</ele>
        <time>2022-04-03T12:53:09Z</time>
      </trkpt>
      <trkpt lat="45.89768" lon="0.68646">
        <ele>174.6</ele>
        <time>2022-04-03T12:53:10Z</time>
      </trkpt>
      <trkpt lat="45.89769" lon="0.68642">
        <ele>174.8</ele>
        <time>2022-04-03T12:53:11Z</time>
      </trkpt>
      <trkpt lat="45.8977" lon="0.68638">
        <ele>175.2</ele>
        <time>2022-04-03T12:53:12Z</time>
      </trkpt>
      <trkpt lat="45.89771" lon="0.68634">
        <ele>175.4</ele>
        <time>2022-04-03T12:53:13Z</time>
      </trkpt>
      <trkpt lat="45.89773" lon="0.6863">
        <ele>176</ele>
        <time>2022-04-03T12:53:14Z</time>
      </trkpt>
      <trkpt lat="45.89774" lon="0.68626">
        <ele>176</ele>
        <time>2022-04-03T12:53:15Z</time>
      </trkpt>
      <trkpt lat="45.89776" lon="0.68623">
        <ele>176.4</ele>
        <time>2022-04-03T12:53:16Z</time>
      </trkpt>
      <trkpt lat="45.89777" lon="0.68619">
        <ele>176.4</ele>
        <time>2022-04-03T12:53:17Z</time>
      </trkpt>
      <trkpt lat="45.89778" lon="0.68616">
        <ele>176.8</ele>
        <time>2022-04-03T12:53:18Z</time>
      </trkpt>
      <trkpt lat="45.89779" lon="0.68613">
        <ele>177.2</ele>
        <time>2022-04-03T12:53:19Z</time>
      </trkpt>
      <trkpt lat="45.8978" lon="0.6861">
        <ele>177.6</ele>
        <time>2022-04-03T12:53:20Z</time>
      </trkpt>
      <trkpt lat="45.89781" lon="0.68607">
        <ele>178</ele>
        <time>2022-04-03T12:53:21Z</time>
      </trkpt>
      <trkpt lat="45.89782" lon="0.68605">
        <ele>178.6</ele>
        <time>2022-04-03T12:53:22Z</time>
      </trkpt>
      <trkpt lat="45.89784" lon="0.68602">
        <ele>178.8</ele>
        <time>2022-04-03T12:53:23Z</time>
      </trkpt>
      <trkpt lat="45.89785" lon="0.68599">
        <ele>179</ele>
        <time>2022-04-03T12:53:24Z</time>
      </trkpt>
      <trkpt lat="45.89786" lon="0.68597">
        <ele>179.2</ele>
        <time>2022-04-03T12:53:25Z</time>
      </trkpt>
      <trkpt lat="45.89788" lon="0.68594">
        <ele>179.4</ele>
        <time>2022-04-03T12:53:26Z</time>
      </trkpt>
      <trkpt lat="45.89789" lon="0.68591">
        <ele>179.8</ele>
        <time>2022-04-03T12:53:27Z</time>
      </trkpt>
      <trkpt lat="45.89791" lon="0.68588">
        <ele>180</ele>
        <time>2022-04-03T12:53:28Z</time>
      </trkpt>
      <trkpt lat="45.89793" lon="0.68585">
        <ele>180.4</ele>
        <time>2022-04-03T12:53:29Z</time>
      </trkpt>
      <trkpt lat="45.89794" lon="0.68583">
        <ele>180.6</ele>
        <time>2022-04-03T12:53:30Z</time>
      </trkpt>
      <trkpt lat="45.89796" lon="0.6858">
        <ele>180.8</ele>
        <time>2022-04-03T12:53:31Z</time>
      </trkpt>
      <trkpt lat="45.89797" lon="0.68578">
        <ele>181.2</ele>
        <time>2022-04-03T12:53:32Z</time>
      </trkpt>
      <trkpt lat="45.89799" lon="0.68575">
        <ele>181.2</ele>
        <time>2022-04-03T12:53:33Z</time>
      </trkpt>
      <trkpt lat="45.898" lon="0.68573">
        <ele>181.4</ele>
        <time>2022-04-03T12:53:34Z</time>
      </trkpt>
      <trkpt lat="45.89802" lon="0.6857">
        <ele>181.4</ele>
        <time>2022-04-03T12:53:35Z</time>
      </trkpt>
      <trkpt lat="45.89804" lon="0.68568">
        <ele>181.4</ele>
        <time>2022-04-03T12:53:36Z</time>
      </trkpt>
      <trkpt lat="45.89805" lon="0.68566">
        <ele>181.6</ele>
        <time>2022-04-03T12:53:37Z</time>
      </trkpt>
      <trkpt lat="45.89807" lon="0.68563">
        <ele>182</ele>
        <time>2022-04-03T12:53:38Z</time>
      </trkpt>
      <trkpt lat="45.89809" lon="0.68561">
        <ele>182.2</ele>
        <time>2022-04-03T12:53:39Z</time>
      </trkpt>
      <trkpt lat="45.89811" lon="0.68558">
        <ele>182.6</ele>
        <time>2022-04-03T12:53:40Z</time>
      </trkpt>
      <trkpt lat="45.89813" lon="0.68556">
        <ele>182.8</ele>
        <time>2022-04-03T12:53:41Z</time>
      </trkpt>
      <trkpt lat="45.89815" lon="0.68553">
        <ele>183</ele>
        <time>2022-04-03T12:53:42Z</time>
      </trkpt>
      <trkpt lat="45.89816" lon="0.68551">
        <ele>183.2</ele>
        <time>2022-04-03T12:53:43Z</time>
      </trkpt>
      <trkpt lat="45.89818" lon="0.68549">
        <ele>183.4</ele>
        <time>2022-04-03T12:53:44Z</time>
      </trkpt>
      <trkpt lat="45.8982" lon="0.68546">
        <ele>183.4</ele>
        <time>2022-04-03T12:53:45Z</time>
      </trkpt>
      <trkpt lat="45.89821" lon="0.68544">
        <ele>183.6</ele>
        <time>2022-04-03T12:53:46Z</time>
      </trkpt>
      <trkpt lat="45.89823" lon="0.68541">
        <ele>183.8</ele>
        <time>2022-04-03T12:53:47Z</time>
      </trkpt>
      <trkpt lat="45.89824" lon="0.68539">
        <ele>184</ele>
        <time>2022-04-03T12:53:48Z</time>
      </trkpt>
      <trkpt lat="45.89826" lon="0.68537">
        <ele>184</ele>
        <time>2022-04-03T12:53:49Z</time>
      </trkpt>
      <trkpt lat="45.89828" lon="0.68535">
        <ele>184.2</ele>
        <time>2022-04-03T12:53:50Z</time>
      </trkpt>
      <trkpt lat="45.89829" lon="0.68533">
        <ele>184.2</ele>
        <time>2022-04-03T12:53:51Z</time>
      </trkpt>
      <trkpt lat="45.89831" lon="0.68531">
        <ele>184.2</ele>
        <time>2022-04-03T12:53:52Z</time>
      </trkpt>
      <trkpt lat="45.89833" lon="0.68528">
        <ele>184.6</ele>
        <time>2022-04-03T12:53:53Z</time>
      </trkpt>
      <trkpt lat="45.89834" lon="0.68526">
        <ele>184.6</ele>
        <time>2022-04-03T12:53:54Z</time>
      </trkpt>
      <trkpt lat="45.89836" lon="0.68524">
        <ele>185</ele>
        <time>2022-04-03T12:53:55Z</time>
      </trkpt>
      <trkpt lat="45.89838" lon="0.68522">
        <ele>185</ele>
        <time>2022-04-03T12:53:56Z</time>
      </trkpt>
      <trkpt lat="45.89839" lon="0.68519">
        <ele>185.4</ele>
        <time>2022-04-03T12:53:57Z</time>
      </trkpt>
      <trkpt lat="45.89841" lon="0.68517">
        <ele>185.6</ele>
        <time>2022-04-03T12:53:58Z</time>
      </trkpt>
      <trkpt lat="45.89842" lon="0.68515">
        <ele>185.6</ele>
        <time>2022-04-03T12:53:59Z</time>
      </trkpt>
      <trkpt lat="45.89843" lon="0.68513">
        <ele>185.8</ele>
        <time>2022-04-03T12:54:00Z</time>
      </trkpt>
      <trkpt lat="45.89845" lon="0.6851">
        <ele>186</ele>
        <time>2022-04-03T12:54:01Z</time>
      </trkpt>
      <trkpt lat="45.89847" lon="0.68508">
        <ele>186.4</ele>
        <time>2022-04-03T12:54:02Z</time>
      </trkpt>
      <trkpt lat="45.89849" lon="0.68506">
        <ele>186.4</ele>
        <time>2022-04-03T12:54:03Z</time>
      </trkpt>
      <trkpt lat="45.8985" lon="0.68504">
        <ele>186.6</ele>
        <time>2022-04-03T12:54:04Z</time>
      </trkpt>
      <trkpt lat="45.89852" lon="0.68501">
        <ele>186.8</ele>
        <time>2022-04-03T12:54:05Z</time>
      </trkpt>
      <trkpt lat="45.89853" lon="0.68499">
        <ele>186.8</ele>
        <time>2022-04-03T12:54:06Z</time>
      </trkpt>
      <trkpt lat="45.89854" lon="0.68497">
        <ele>187</ele>
        <time>2022-04-03T12:54:07Z</time>
      </trkpt>
      <trkpt lat="45.89855" lon="0.68495">
        <ele>187</ele>
        <time>2022-04-03T12:54:08Z</time>
      </trkpt>
      <trkpt lat="45.89857" lon="0.68492">
        <ele>187</ele>
        <time>2022-04-03T12:54:09Z</time>
      </trkpt>
      <trkpt lat="45.89858" lon="0.6849">
        <ele>187.2</ele>
        <time>2022-04-03T12:54:10Z</time>
      </trkpt>
      <trkpt lat="45.8986" lon="0.68487">
        <ele>187.2</ele>
        <time>2022-04-03T12:54:11Z</time>
      </trkpt>
      <trkpt lat="45.89861" lon="0.68485">
        <ele>187.4</ele>
        <time>2022-04-03T12:54:12Z</time>
      </trkpt>
      <trkpt lat="45.89862" lon="0.68482">
        <ele>187.6</ele>
        <time>2022-04-03T12:54:13Z</time>
      </trkpt>
      <trkpt lat="45.89864" lon="0.6848">
        <ele>187.6</ele>
        <time>2022-04-03T12:54:14Z</time>
      </trkpt>
      <trkpt lat="45.89865" lon="0.68477">
        <ele>187.8</ele>
        <time>2022-04-03T12:54:15Z</time>
      </trkpt>
      <trkpt lat="45.89866" lon="0.68475">
        <ele>188.4</ele>
        <time>2022-04-03T12:54:16Z</time>
      </trkpt>
      <trkpt lat="45.89868" lon="0.68472">
        <ele>188.6</ele>
        <time>2022-04-03T12:54:17Z</time>
      </trkpt>
      <trkpt lat="45.89869" lon="0.6847">
        <ele>188.8</ele>
        <time>2022-04-03T12:54:18Z</time>
      </trkpt>
      <trkpt lat="45.89869" lon="0.68467">
        <ele>188.8</ele>
        <time>2022-04-03T12:54:19Z</time>
      </trkpt>
      <trkpt lat="45.8987" lon="0.68464">
        <ele>189</ele>
        <time>2022-04-03T12:54:20Z</time>
      </trkpt>
      <trkpt lat="45.89872" lon="0.68462">
        <ele>188.8</ele>
        <time>2022-04-03T12:54:21Z</time>
      </trkpt>
      <trkpt lat="45.89873" lon="0.68459">
        <ele>189.2</ele>
        <time>2022-04-03T12:54:22Z</time>
      </trkpt>
      <trkpt lat="45.89874" lon="0.68457">
        <ele>189.4</ele>
        <time>2022-04-03T12:54:23Z</time>
      </trkpt>
      <trkpt lat="45.89875" lon="0.68454">
        <ele>189.4</ele>
        <time>2022-04-03T12:54:24Z</time>
      </trkpt>
      <trkpt lat="45.89876" lon="0.68452">
        <ele>189.6</ele>
        <time>2022-04-03T12:54:25Z</time>
      </trkpt>
      <trkpt lat="45.89877" lon="0.68449">
        <ele>189.8</ele>
        <time>2022-04-03T12:54:26Z</time>
      </trkpt>
      <trkpt lat="45.89878" lon="0.68446">
        <ele>190.2</ele>
        <time>2022-04-03T12:54:27Z</time>
      </trkpt>
      <trkpt lat="45.8988" lon="0.68444">
        <ele>190.2</ele>
        <time>2022-04-03T12:54:28Z</time>
      </trkpt>
      <trkpt lat="45.89881" lon="0.68442">
        <ele>190.2</ele>
        <time>2022-04-03T12:54:29Z</time>
      </trkpt>
      <trkpt lat="45.89883" lon="0.6844">
        <ele>190.4</ele>
        <time>2022-04-03T12:54:30Z</time>
      </trkpt>
      <trkpt lat="45.89884" lon="0.68438">
        <ele>190.4</ele>
        <time>2022-04-03T12:54:31Z</time>
      </trkpt>
      <trkpt lat="45.89886" lon="0.68436">
        <ele>190.6</ele>
        <time>2022-04-03T12:54:32Z</time>
      </trkpt>
      <trkpt lat="45.89887" lon="0.68433">
        <ele>190.6</ele>
        <time>2022-04-03T12:54:33Z</time>
      </trkpt>
      <trkpt lat="45.89888" lon="0.68431">
        <ele>190.8</ele>
        <time>2022-04-03T12:54:34Z</time>
      </trkpt>
      <trkpt lat="45.89889" lon="0.68428">
        <ele>191</ele>
        <time>2022-04-03T12:54:35Z</time>
      </trkpt>
      <trkpt lat="45.89891" lon="0.68426">
        <ele>191.4</ele>
        <time>2022-04-03T12:54:36Z</time>
      </trkpt>
      <trkpt lat="45.89892" lon="0.68424">
        <ele>191.6</ele>
        <time>2022-04-03T12:54:37Z</time>
      </trkpt>
      <trkpt lat="45.89894" lon="0.68422">
        <ele>191.6</ele>
        <time>2022-04-03T12:54:38Z</time>
      </trkpt>
      <trkpt lat="45.89895" lon="0.6842">
        <ele>191.8</ele>
        <time>2022-04-03T12:54:39Z</time>
      </trkpt>
      <trkpt lat="45.89897" lon="0.68417">
        <ele>191.8</ele>
        <time>2022-04-03T12:54:40Z</time>
      </trkpt>
      <trkpt lat="45.89898" lon="0.68415">
        <ele>192</ele>
        <time>2022-04-03T12:54:41Z</time>
      </trkpt>
      <trkpt lat="45.89899" lon="0.68413">
        <ele>192.2</ele>
        <time>2022-04-03T12:54:42Z</time>
      </trkpt>
      <trkpt lat="45.899" lon="0.6841">
        <ele>192.4</ele>
        <time>2022-04-03T12:54:43Z</time>
      </trkpt>
      <trkpt lat="45.89902" lon="0.68408">
        <ele>192.4</ele>
        <time>2022-04-03T12:54:44Z</time>
      </trkpt>
      <trkpt lat="45.89903" lon="0.68405">
        <ele>192.8</ele>
        <time>2022-04-03T12:54:45Z</time>
      </trkpt>
      <trkpt lat="45.89904" lon="0.68403">
        <ele>192.6</ele>
        <time>2022-04-03T12:54:46Z</time>
      </trkpt>
      <trkpt lat="45.89905" lon="0.684">
        <ele>192.8</ele>
        <time>2022-04-03T12:54:47Z</time>
      </trkpt>
      <trkpt lat="45.89906" lon="0.68398">
        <ele>192.8</ele>
        <time>2022-04-03T12:54:48Z</time>
      </trkpt>
      <trkpt lat="45.89907" lon="0.68395">
        <ele>192.8</ele>
        <time>2022-04-03T12:54:49Z</time>
      </trkpt>
      <trkpt lat="45.89908" lon="0.68393">
        <ele>193</ele>
        <time>2022-04-03T12:54:50Z</time>
      </trkpt>
      <trkpt lat="45.89909" lon="0.6839">
        <ele>193.2</ele>
        <time>2022-04-03T12:54:51Z</time>
      </trkpt>
      <trkpt lat="45.8991" lon="0.68388">
        <ele>193.2</ele>
        <time>2022-04-03T12:54:52Z</time>
      </trkpt>
      <trkpt lat="45.89911" lon="0.68385">
        <ele>193.4</ele>
        <time>2022-04-03T12:54:53Z</time>
      </trkpt>
      <trkpt lat="45.89913" lon="0.68383">
        <ele>193.6</ele>
        <time>2022-04-03T12:54:54Z</time>
      </trkpt>
      <trkpt lat="45.89914" lon="0.6838">
        <ele>193.6</ele>
        <time>2022-04-03T12:54:55Z</time>
      </trkpt>
      <trkpt lat="45.89915" lon="0.68377">
        <ele>193.8</ele>
        <time>2022-04-03T12:54:56Z</time>
      </trkpt>
      <trkpt lat="45.89916" lon="0.68375">
        <ele>194</ele>
        <time>2022-04-03T12:54:57Z</time>
      </trkpt>
      <trkpt lat="45.89917" lon="0.68372">
        <ele>194</ele>
        <time>2022-04-03T12:54:58Z</time>
      </trkpt>
      <trkpt lat="45.89918" lon="0.68369">
        <ele>194.2</ele>
        <time>2022-04-03T12:54:59Z</time>
      </trkpt>
      <trkpt lat="45.89919" lon="0.68367">
        <ele>194.4</ele>
        <time>2022-04-03T12:55:00Z</time>
      </trkpt>
      <trkpt lat="45.8992" lon="0.68364">
        <ele>194.4</ele>
        <time>2022-04-03T12:55:01Z</time>
      </trkpt>
      <trkpt lat="45.89921" lon="0.68361">
        <ele>194.6</ele>
        <time>2022-04-03T12:55:02Z</time>
      </trkpt>
      <trkpt lat="45.89922" lon="0.68358">
        <ele>194.8</ele>
        <time>2022-04-03T12:55:03Z</time>
      </trkpt>
      <trkpt lat="45.89923" lon="0.68356">
        <ele>195.2</ele>
        <time>2022-04-03T12:55:04Z</time>
      </trkpt>
      <trkpt lat="45.89924" lon="0.68353">
        <ele>195.2</ele>
        <time>2022-04-03T12:55:05Z</time>
      </trkpt>
      <trkpt lat="45.89925" lon="0.6835">
        <ele>195.4</ele>
        <time>2022-04-03T12:55:06Z</time>
      </trkpt>
      <trkpt lat="45.89926" lon="0.68347">
        <ele>195.6</ele>
        <time>2022-04-03T12:55:07Z</time>
      </trkpt>
      <trkpt lat="45.89927" lon="0.68344">
        <ele>195.6</ele>
        <time>2022-04-03T12:55:08Z</time>
      </trkpt>
      <trkpt lat="45.89928" lon="0.68341">
        <ele>195.8</ele>
        <time>2022-04-03T12:55:09Z</time>
      </trkpt>
      <trkpt lat="45.89929" lon="0.68339">
        <ele>195.8</ele>
        <time>2022-04-03T12:55:10Z</time>
      </trkpt>
      <trkpt lat="45.8993" lon="0.68336">
        <ele>196</ele>
        <time>2022-04-03T12:55:11Z</time>
      </trkpt>
      <trkpt lat="45.89931" lon="0.68333">
        <ele>196.2</ele>
        <time>2022-04-03T12:55:12Z</time>
      </trkpt>
      <trkpt lat="45.89932" lon="0.68329">
        <ele>196.4</ele>
        <time>2022-04-03T12:55:13Z</time>
      </trkpt>
      <trkpt lat="45.89933" lon="0.68326">
        <ele>196.6</ele>
        <time>2022-04-03T12:55:14Z</time>
      </trkpt>
      <trkpt lat="45.89935" lon="0.68323">
        <ele>196.8</ele>
        <time>2022-04-03T12:55:15Z</time>
      </trkpt>
      <trkpt lat="45.89936" lon="0.68319">
        <ele>197</ele>
        <time>2022-04-03T12:55:16Z</time>
      </trkpt>
      <trkpt lat="45.89937" lon="0.68315">
        <ele>197.4</ele>
        <time>2022-04-03T12:55:17Z</time>
      </trkpt>
      <trkpt lat="45.89938" lon="0.68312">
        <ele>197.2</ele>
        <time>2022-04-03T12:55:18Z</time>
      </trkpt>
      <trkpt lat="45.89939" lon="0.68308">
        <ele>197.4</ele>
        <time>2022-04-03T12:55:19Z</time>
      </trkpt>
      <trkpt lat="45.8994" lon="0.68304">
        <ele>197.4</ele>
        <time>2022-04-03T12:55:20Z</time>
      </trkpt>
      <trkpt lat="45.89942" lon="0.683">
        <ele>197.4</ele>
        <time>2022-04-03T12:55:21Z</time>
      </trkpt>
      <trkpt lat="45.89943" lon="0.68296">
        <ele>197.4</ele>
        <time>2022-04-03T12:55:22Z</time>
      </trkpt>
      <trkpt lat="45.89945" lon="0.68291">
        <ele>197.4</ele>
        <time>2022-04-03T12:55:23Z</time>
      </trkpt>
      <trkpt lat="45.89946" lon="0.68286">
        <ele>197.4</ele>
        <time>2022-04-03T12:55:24Z</time>
      </trkpt>
      <trkpt lat="45.89948" lon="0.6828">
        <ele>197.4</ele>
        <time>2022-04-03T12:55:25Z</time>
      </trkpt>
      <trkpt lat="45.8995" lon="0.68275">
        <ele>197.4</ele>
        <time>2022-04-03T12:55:26Z</time>
      </trkpt>
      <trkpt lat="45.89951" lon="0.68269">
        <ele>197.4</ele>
        <time>2022-04-03T12:55:27Z</time>
      </trkpt>
      <trkpt lat="45.89953" lon="0.68263">
        <ele>197.4</ele>
        <time>2022-04-03T12:55:28Z</time>
      </trkpt>
      <trkpt lat="45.89955" lon="0.68256">
        <ele>197.4</ele>
        <time>2022-04-03T12:55:29Z</time>
      </trkpt>
      <trkpt lat="45.89956" lon="0.68249">
        <ele>197.2</ele>
        <time>2022-04-03T12:55:30Z</time>
      </trkpt>
      <trkpt lat="45.89957" lon="0.68241">
        <ele>197</ele>
        <time>2022-04-03T12:55:31Z</time>
      </trkpt>
      <trkpt lat="45.89958" lon="0.68232">
        <ele>197</ele>
        <time>2022-04-03T12:55:32Z</time>
      </trkpt>
      <trkpt lat="45.89958" lon="0.68223">
        <ele>196.6</ele>
        <time>2022-04-03T12:55:33Z</time>
      </trkpt>
      <trkpt lat="45.89958" lon="0.68213">
        <ele>196.6</ele>
        <time>2022-04-03T12:55:34Z</time>
      </trkpt>
      <trkpt lat="45.89957" lon="0.68202">
        <ele>196.2</ele>
        <time>2022-04-03T12:55:35Z</time>
      </trkpt>
      <trkpt lat="45.89956" lon="0.6819">
        <ele>196.2</ele>
        <time>2022-04-03T12:55:36Z</time>
      </trkpt>
      <trkpt lat="45.89955" lon="0.68179">
        <ele>196</ele>
        <time>2022-04-03T12:55:37Z</time>
      </trkpt>
      <trkpt lat="45.89953" lon="0.68166">
        <ele>195.2</ele>
        <time>2022-04-03T12:55:38Z</time>
      </trkpt>
      <trkpt lat="45.89951" lon="0.68153">
        <ele>194.8</ele>
        <time>2022-04-03T12:55:39Z</time>
      </trkpt>
      <trkpt lat="45.89949" lon="0.6814">
        <ele>194.2</ele>
        <time>2022-04-03T12:55:40Z</time>
      </trkpt>
      <trkpt lat="45.89946" lon="0.68127">
        <ele>193.8</ele>
        <time>2022-04-03T12:55:41Z</time>
      </trkpt>
      <trkpt lat="45.89943" lon="0.68114">
        <ele>193</ele>
        <time>2022-04-03T12:55:42Z</time>
      </trkpt>
      <trkpt lat="45.89941" lon="0.68101">
        <ele>192.2</ele>
        <time>2022-04-03T12:55:43Z</time>
      </trkpt>
      <trkpt lat="45.89938" lon="0.68087">
        <ele>191.2</ele>
        <time>2022-04-03T12:55:44Z</time>
      </trkpt>
      <trkpt lat="45.89935" lon="0.68073">
        <ele>190.2</ele>
        <time>2022-04-03T12:55:45Z</time>
      </trkpt>
      <trkpt lat="45.89933" lon="0.68058">
        <ele>189.2</ele>
        <time>2022-04-03T12:55:46Z</time>
      </trkpt>
      <trkpt lat="45.89931" lon="0.68044">
        <ele>188.2</ele>
        <time>2022-04-03T12:55:47Z</time>
      </trkpt>
      <trkpt lat="45.89928" lon="0.6803">
        <ele>188.2</ele>
        <time>2022-04-03T12:55:48Z</time>
      </trkpt>
      <trkpt lat="45.89926" lon="0.68017">
        <ele>187.2</ele>
        <time>2022-04-03T12:55:49Z</time>
      </trkpt>
      <trkpt lat="45.89924" lon="0.68004">
        <ele>186.8</ele>
        <time>2022-04-03T12:55:50Z</time>
      </trkpt>
      <trkpt lat="45.89922" lon="0.67991">
        <ele>185.6</ele>
        <time>2022-04-03T12:55:51Z</time>
      </trkpt>
      <trkpt lat="45.89921" lon="0.67979">
        <ele>185.2</ele>
        <time>2022-04-03T12:55:52Z</time>
      </trkpt>
      <trkpt lat="45.8992" lon="0.67967">
        <ele>184.2</ele>
        <time>2022-04-03T12:55:53Z</time>
      </trkpt>
      <trkpt lat="45.8992" lon="0.67956">
        <ele>183.4</ele>
        <time>2022-04-03T12:55:54Z</time>
      </trkpt>
      <trkpt lat="45.8992" lon="0.67945">
        <ele>182.6</ele>
        <time>2022-04-03T12:55:55Z</time>
      </trkpt>
      <trkpt lat="45.89921" lon="0.67936">
        <ele>182.2</ele>
        <time>2022-04-03T12:55:56Z</time>
      </trkpt>
      <trkpt lat="45.89923" lon="0.67927">
        <ele>182.2</ele>
        <time>2022-04-03T12:55:57Z</time>
      </trkpt>
      <trkpt lat="45.89924" lon="0.67919">
        <ele>182</ele>
        <time>2022-04-03T12:55:58Z</time>
      </trkpt>
      <trkpt lat="45.89926" lon="0.67913">
        <ele>182</ele>
        <time>2022-04-03T12:55:59Z</time>
      </trkpt>
      <trkpt lat="45.89927" lon="0.67907">
        <ele>182</ele>
        <time>2022-04-03T12:56:00Z</time>
      </trkpt>
      <trkpt lat="45.89929" lon="0.67902">
        <ele>182</ele>
        <time>2022-04-03T12:56:01Z</time>
      </trkpt>
      <trkpt lat="45.8993" lon="0.67898">
        <ele>182</ele>
        <time>2022-04-03T12:56:02Z</time>
      </trkpt>
      <trkpt lat="45.89931" lon="0.67894">
        <ele>182</ele>
        <time>2022-04-03T12:56:03Z</time>
      </trkpt>
      <trkpt lat="45.89932" lon="0.67891">
        <ele>181.8</ele>
        <time>2022-04-03T12:56:04Z</time>
      </trkpt>
      <trkpt lat="45.89934" lon="0.67887">
        <ele>182.2</ele>
        <time>2022-04-03T12:56:05Z</time>
      </trkpt>
      <trkpt lat="45.89935" lon="0.67884">
        <ele>183.4</ele>
        <time>2022-04-03T12:56:06Z</time>
      </trkpt>
      <trkpt lat="45.89936" lon="0.6788">
        <ele>184</ele>
        <time>2022-04-03T12:56:07Z</time>
      </trkpt>
      <trkpt lat="45.89938" lon="0.67878">
        <ele>184</ele>
        <time>2022-04-03T12:56:08Z</time>
      </trkpt>
      <trkpt lat="45.89939" lon="0.67875">
        <ele>184.6</ele>
        <time>2022-04-03T12:56:09Z</time>
      </trkpt>
      <trkpt lat="45.89941" lon="0.67872">
        <ele>185.2</ele>
        <time>2022-04-03T12:56:10Z</time>
      </trkpt>
      <trkpt lat="45.89942" lon="0.6787">
        <ele>185.8</ele>
        <time>2022-04-03T12:56:11Z</time>
      </trkpt>
      <trkpt lat="45.89943" lon="0.67867">
        <ele>186.4</ele>
        <time>2022-04-03T12:56:12Z</time>
      </trkpt>
      <trkpt lat="45.89945" lon="0.67864">
        <ele>186.8</ele>
        <time>2022-04-03T12:56:13Z</time>
      </trkpt>
      <trkpt lat="45.89946" lon="0.67861">
        <ele>187</ele>
        <time>2022-04-03T12:56:14Z</time>
      </trkpt>
      <trkpt lat="45.89948" lon="0.67858">
        <ele>187.2</ele>
        <time>2022-04-03T12:56:15Z</time>
      </trkpt>
      <trkpt lat="45.89949" lon="0.67855">
        <ele>187.6</ele>
        <time>2022-04-03T12:56:16Z</time>
      </trkpt>
      <trkpt lat="45.8995" lon="0.67852">
        <ele>187.8</ele>
        <time>2022-04-03T12:56:17Z</time>
      </trkpt>
      <trkpt lat="45.89952" lon="0.67849">
        <ele>188.2</ele>
        <time>2022-04-03T12:56:18Z</time>
      </trkpt>
      <trkpt lat="45.89953" lon="0.67846">
        <ele>188.6</ele>
        <time>2022-04-03T12:56:19Z</time>
      </trkpt>
      <trkpt lat="45.89955" lon="0.67844">
        <ele>188.8</ele>
        <time>2022-04-03T12:56:20Z</time>
      </trkpt>
      <trkpt lat="45.89956" lon="0.67841">
        <ele>189</ele>
        <time>2022-04-03T12:56:21Z</time>
      </trkpt>
      <trkpt lat="45.89958" lon="0.67838">
        <ele>189.2</ele>
        <time>2022-04-03T12:56:22Z</time>
      </trkpt>
      <trkpt lat="45.89959" lon="0.67835">
        <ele>189.4</ele>
        <time>2022-04-03T12:56:23Z</time>
      </trkpt>
      <trkpt lat="45.8996" lon="0.67832">
        <ele>189.6</ele>
        <time>2022-04-03T12:56:24Z</time>
      </trkpt>
      <trkpt lat="45.89961" lon="0.67829">
        <ele>189.6</ele>
        <time>2022-04-03T12:56:25Z</time>
      </trkpt>
      <trkpt lat="45.89962" lon="0.67826">
        <ele>189.8</ele>
        <time>2022-04-03T12:56:26Z</time>
      </trkpt>
      <trkpt lat="45.89964" lon="0.67823">
        <ele>189.8</ele>
        <time>2022-04-03T12:56:27Z</time>
      </trkpt>
      <trkpt lat="45.89965" lon="0.6782">
        <ele>190</ele>
        <time>2022-04-03T12:56:28Z</time>
      </trkpt>
      <trkpt lat="45.89967" lon="0.67817">
        <ele>190</ele>
        <time>2022-04-03T12:56:29Z</time>
      </trkpt>
      <trkpt lat="45.89968" lon="0.67814">
        <ele>190.2</ele>
        <time>2022-04-03T12:56:30Z</time>
      </trkpt>
      <trkpt lat="45.89969" lon="0.67811">
        <ele>190.4</ele>
        <time>2022-04-03T12:56:31Z</time>
      </trkpt>
      <trkpt lat="45.89971" lon="0.67809">
        <ele>190.6</ele>
        <time>2022-04-03T12:56:32Z</time>
      </trkpt>
      <trkpt lat="45.89972" lon="0.67805">
        <ele>190.8</ele>
        <time>2022-04-03T12:56:33Z</time>
      </trkpt>
      <trkpt lat="45.89973" lon="0.67803">
        <ele>190.8</ele>
        <time>2022-04-03T12:56:34Z</time>
      </trkpt>
      <trkpt lat="45.89974" lon="0.678">
        <ele>190.8</ele>
        <time>2022-04-03T12:56:35Z</time>
      </trkpt>
      <trkpt lat="45.89975" lon="0.67797">
        <ele>191</ele>
        <time>2022-04-03T12:56:36Z</time>
      </trkpt>
      <trkpt lat="45.89977" lon="0.67794">
        <ele>191.4</ele>
        <time>2022-04-03T12:56:37Z</time>
      </trkpt>
      <trkpt lat="45.89978" lon="0.67791">
        <ele>191.4</ele>
        <time>2022-04-03T12:56:38Z</time>
      </trkpt>
      <trkpt lat="45.89979" lon="0.67788">
        <ele>191.4</ele>
        <time>2022-04-03T12:56:39Z</time>
      </trkpt>
      <trkpt lat="45.89981" lon="0.67785">
        <ele>191.6</ele>
        <time>2022-04-03T12:56:40Z</time>
      </trkpt>
      <trkpt lat="45.89982" lon="0.67782">
        <ele>191.8</ele>
        <time>2022-04-03T12:56:41Z</time>
      </trkpt>
      <trkpt lat="45.89983" lon="0.67779">
        <ele>191.8</ele>
        <time>2022-04-03T12:56:42Z</time>
      </trkpt>
      <trkpt lat="45.89985" lon="0.67776">
        <ele>191.8</ele>
        <time>2022-04-03T12:56:43Z</time>
      </trkpt>
      <trkpt lat="45.89986" lon="0.67772">
        <ele>192</ele>
        <time>2022-04-03T12:56:44Z</time>
      </trkpt>
      <trkpt lat="45.89988" lon="0.67769">
        <ele>192.2</ele>
        <time>2022-04-03T12:56:45Z</time>
      </trkpt>
      <trkpt lat="45.89989" lon="0.67765">
        <ele>192.2</ele>
        <time>2022-04-03T12:56:46Z</time>
      </trkpt>
      <trkpt lat="45.8999" lon="0.67762">
        <ele>192.2</ele>
        <time>2022-04-03T12:56:47Z</time>
      </trkpt>
      <trkpt lat="45.89992" lon="0.67759">
        <ele>192.4</ele>
        <time>2022-04-03T12:56:48Z</time>
      </trkpt>
      <trkpt lat="45.89993" lon="0.67755">
        <ele>192.6</ele>
        <time>2022-04-03T12:56:49Z</time>
      </trkpt>
      <trkpt lat="45.89995" lon="0.67752">
        <ele>192.8</ele>
        <time>2022-04-03T12:56:50Z</time>
      </trkpt>
      <trkpt lat="45.89996" lon="0.67748">
        <ele>193</ele>
        <time>2022-04-03T12:56:51Z</time>
      </trkpt>
      <trkpt lat="45.89998" lon="0.67745">
        <ele>193.2</ele>
        <time>2022-04-03T12:56:52Z</time>
      </trkpt>
      <trkpt lat="45.89999" lon="0.67741">
        <ele>193.2</ele>
        <time>2022-04-03T12:56:53Z</time>
      </trkpt>
      <trkpt lat="45.90001" lon="0.67737">
        <ele>193.2</ele>
        <time>2022-04-03T12:56:54Z</time>
      </trkpt>
      <trkpt lat="45.90002" lon="0.67734">
        <ele>193.4</ele>
        <time>2022-04-03T12:56:55Z</time>
      </trkpt>
      <trkpt lat="45.90004" lon="0.6773">
        <ele>193.4</ele>
        <time>2022-04-03T12:56:56Z</time>
      </trkpt>
      <trkpt lat="45.90005" lon="0.67727">
        <ele>193.4</ele>
        <time>2022-04-03T12:56:57Z</time>
      </trkpt>
      <trkpt lat="45.90007" lon="0.67723">
        <ele>193.6</ele>
        <time>2022-04-03T12:56:58Z</time>
      </trkpt>
      <trkpt lat="45.90009" lon="0.6772">
        <ele>193.4</ele>
        <time>2022-04-03T12:56:59Z</time>
      </trkpt>
      <trkpt lat="45.9001" lon="0.67717">
        <ele>193.6</ele>
        <time>2022-04-03T12:57:00Z</time>
      </trkpt>
      <trkpt lat="45.90012" lon="0.67713">
        <ele>193.6</ele>
        <time>2022-04-03T12:57:01Z</time>
      </trkpt>
      <trkpt lat="45.90013" lon="0.6771">
        <ele>193.6</ele>
        <time>2022-04-03T12:57:02Z</time>
      </trkpt>
      <trkpt lat="45.90015" lon="0.67706">
        <ele>193.8</ele>
        <time>2022-04-03T12:57:03Z</time>
      </trkpt>
      <trkpt lat="45.90016" lon="0.67703">
        <ele>193.8</ele>
        <time>2022-04-03T12:57:04Z</time>
      </trkpt>
      <trkpt lat="45.90018" lon="0.67699">
        <ele>193.8</ele>
        <time>2022-04-03T12:57:05Z</time>
      </trkpt>
      <trkpt lat="45.90019" lon="0.67696">
        <ele>193.8</ele>
        <time>2022-04-03T12:57:06Z</time>
      </trkpt>
      <trkpt lat="45.90021" lon="0.67692">
        <ele>193.8</ele>
        <time>2022-04-03T12:57:07Z</time>
      </trkpt>
      <trkpt lat="45.90022" lon="0.67689">
        <ele>193.8</ele>
        <time>2022-04-03T12:57:08Z</time>
      </trkpt>
      <trkpt lat="45.90024" lon="0.67685">
        <ele>194</ele>
        <time>2022-04-03T12:57:09Z</time>
      </trkpt>
      <trkpt lat="45.90026" lon="0.67682">
        <ele>194</ele>
        <time>2022-04-03T12:57:10Z</time>
      </trkpt>
      <trkpt lat="45.90027" lon="0.67678">
        <ele>194.2</ele>
        <time>2022-04-03T12:57:11Z</time>
      </trkpt>
      <trkpt lat="45.90029" lon="0.67675">
        <ele>194.2</ele>
        <time>2022-04-03T12:57:12Z</time>
      </trkpt>
      <trkpt lat="45.9003" lon="0.67672">
        <ele>194.2</ele>
        <time>2022-04-03T12:57:13Z</time>
      </trkpt>
      <trkpt lat="45.90031" lon="0.67668">
        <ele>194.4</ele>
        <time>2022-04-03T12:57:14Z</time>
      </trkpt>
      <trkpt lat="45.90033" lon="0.67665">
        <ele>194.6</ele>
        <time>2022-04-03T12:57:15Z</time>
      </trkpt>
      <trkpt lat="45.90034" lon="0.67662">
        <ele>194.6</ele>
        <time>2022-04-03T12:57:16Z</time>
      </trkpt>
      <trkpt lat="45.90036" lon="0.67658">
        <ele>194.8</ele>
        <time>2022-04-03T12:57:17Z</time>
      </trkpt>
      <trkpt lat="45.90037" lon="0.67655">
        <ele>195</ele>
        <time>2022-04-03T12:57:18Z</time>
      </trkpt>
      <trkpt lat="45.90039" lon="0.67652">
        <ele>195.2</ele>
        <time>2022-04-03T12:57:19Z</time>
      </trkpt>
      <trkpt lat="45.9004" lon="0.67649">
        <ele>195.2</ele>
        <time>2022-04-03T12:57:20Z</time>
      </trkpt>
      <trkpt lat="45.90042" lon="0.67646">
        <ele>195.2</ele>
        <time>2022-04-03T12:57:21Z</time>
      </trkpt>
      <trkpt lat="45.90043" lon="0.67642">
        <ele>195.4</ele>
        <time>2022-04-03T12:57:22Z</time>
      </trkpt>
      <trkpt lat="45.90045" lon="0.67639">
        <ele>195.4</ele>
        <time>2022-04-03T12:57:23Z</time>
      </trkpt>
      <trkpt lat="45.90046" lon="0.67636">
        <ele>195.8</ele>
        <time>2022-04-03T12:57:24Z</time>
      </trkpt>
      <trkpt lat="45.90047" lon="0.67633">
        <ele>196</ele>
        <time>2022-04-03T12:57:25Z</time>
      </trkpt>
      <trkpt lat="45.90049" lon="0.6763">
        <ele>196</ele>
        <time>2022-04-03T12:57:26Z</time>
      </trkpt>
      <trkpt lat="45.9005" lon="0.67627">
        <ele>196.2</ele>
        <time>2022-04-03T12:57:27Z</time>
      </trkpt>
      <trkpt lat="45.90052" lon="0.67624">
        <ele>196.4</ele>
        <time>2022-04-03T12:57:28Z</time>
      </trkpt>
      <trkpt lat="45.90053" lon="0.67621">
        <ele>196.4</ele>
        <time>2022-04-03T12:57:29Z</time>
      </trkpt>
      <trkpt lat="45.90054" lon="0.67618">
        <ele>196.6</ele>
        <time>2022-04-03T12:57:30Z</time>
      </trkpt>
      <trkpt lat="45.90056" lon="0.67615">
        <ele>196.8</ele>
        <time>2022-04-03T12:57:31Z</time>
      </trkpt>
      <trkpt lat="45.90057" lon="0.67612">
        <ele>196.8</ele>
        <time>2022-04-03T12:57:32Z</time>
      </trkpt>
      <trkpt lat="45.90059" lon="0.67609">
        <ele>197</ele>
        <time>2022-04-03T12:57:33Z</time>
      </trkpt>
      <trkpt lat="45.9006" lon="0.67606">
        <ele>197.2</ele>
        <time>2022-04-03T12:57:34Z</time>
      </trkpt>
      <trkpt lat="45.90061" lon="0.67603">
        <ele>197</ele>
        <time>2022-04-03T12:57:35Z</time>
      </trkpt>
      <trkpt lat="45.90063" lon="0.67601">
        <ele>197.4</ele>
        <time>2022-04-03T12:57:36Z</time>
      </trkpt>
      <trkpt lat="45.90064" lon="0.67598">
        <ele>197.4</ele>
        <time>2022-04-03T12:57:37Z</time>
      </trkpt>
      <trkpt lat="45.90065" lon="0.67595">
        <ele>197.6</ele>
        <time>2022-04-03T12:57:38Z</time>
      </trkpt>
      <trkpt lat="45.90067" lon="0.67593">
        <ele>198</ele>
        <time>2022-04-03T12:57:39Z</time>
      </trkpt>
      <trkpt lat="45.90068" lon="0.67591">
        <ele>198.4</ele>
        <time>2022-04-03T12:57:40Z</time>
      </trkpt>
      <trkpt lat="45.90069" lon="0.67588">
        <ele>198.6</ele>
        <time>2022-04-03T12:57:41Z</time>
      </trkpt>
      <trkpt lat="45.90071" lon="0.67586">
        <ele>198.6</ele>
        <time>2022-04-03T12:57:42Z</time>
      </trkpt>
      <trkpt lat="45.90072" lon="0.67583">
        <ele>198.8</ele>
        <time>2022-04-03T12:57:43Z</time>
      </trkpt>
      <trkpt lat="45.90073" lon="0.67581">
        <ele>199</ele>
        <time>2022-04-03T12:57:44Z</time>
      </trkpt>
      <trkpt lat="45.90075" lon="0.67579">
        <ele>199</ele>
        <time>2022-04-03T12:57:45Z</time>
      </trkpt>
      <trkpt lat="45.90076" lon="0.67576">
        <ele>199.2</ele>
        <time>2022-04-03T12:57:46Z</time>
      </trkpt>
      <trkpt lat="45.90078" lon="0.67574">
        <ele>199.2</ele>
        <time>2022-04-03T12:57:47Z</time>
      </trkpt>
      <trkpt lat="45.90079" lon="0.67572">
        <ele>199.4</ele>
        <time>2022-04-03T12:57:48Z</time>
      </trkpt>
      <trkpt lat="45.9008" lon="0.67569">
        <ele>199.6</ele>
        <time>2022-04-03T12:57:49Z</time>
      </trkpt>
      <trkpt lat="45.90082" lon="0.67567">
        <ele>199.8</ele>
        <time>2022-04-03T12:57:50Z</time>
      </trkpt>
      <trkpt lat="45.90083" lon="0.67564">
        <ele>199.8</ele>
        <time>2022-04-03T12:57:51Z</time>
      </trkpt>
      <trkpt lat="45.90084" lon="0.67562">
        <ele>200</ele>
        <time>2022-04-03T12:57:52Z</time>
      </trkpt>
      <trkpt lat="45.90086" lon="0.6756">
        <ele>200</ele>
        <time>2022-04-03T12:57:53Z</time>
      </trkpt>
      <trkpt lat="45.90087" lon="0.67558">
        <ele>200</ele>
        <time>2022-04-03T12:57:54Z</time>
      </trkpt>
      <trkpt lat="45.90089" lon="0.67555">
        <ele>200.2</ele>
        <time>2022-04-03T12:57:55Z</time>
      </trkpt>
      <trkpt lat="45.9009" lon="0.67553">
        <ele>200.4</ele>
        <time>2022-04-03T12:57:56Z</time>
      </trkpt>
      <trkpt lat="45.90091" lon="0.6755">
        <ele>200.6</ele>
        <time>2022-04-03T12:57:57Z</time>
      </trkpt>
      <trkpt lat="45.90092" lon="0.67548">
        <ele>201</ele>
        <time>2022-04-03T12:57:58Z</time>
      </trkpt>
      <trkpt lat="45.90093" lon="0.67546">
        <ele>201.4</ele>
        <time>2022-04-03T12:57:59Z</time>
      </trkpt>
      <trkpt lat="45.90095" lon="0.67543">
        <ele>201.8</ele>
        <time>2022-04-03T12:58:00Z</time>
      </trkpt>
      <trkpt lat="45.90096" lon="0.67541">
        <ele>201.8</ele>
        <time>2022-04-03T12:58:01Z</time>
      </trkpt>
      <trkpt lat="45.90097" lon="0.67538">
        <ele>201.8</ele>
        <time>2022-04-03T12:58:02Z</time>
      </trkpt>
      <trkpt lat="45.90098" lon="0.67536">
        <ele>202.2</ele>
        <time>2022-04-03T12:58:03Z</time>
      </trkpt>
      <trkpt lat="45.901" lon="0.67533">
        <ele>202.2</ele>
        <time>2022-04-03T12:58:04Z</time>
      </trkpt>
      <trkpt lat="45.90101" lon="0.67531">
        <ele>202.2</ele>
        <time>2022-04-03T12:58:05Z</time>
      </trkpt>
      <trkpt lat="45.90102" lon="0.67529">
        <ele>202.4</ele>
        <time>2022-04-03T12:58:06Z</time>
      </trkpt>
      <trkpt lat="45.90104" lon="0.67526">
        <ele>202.6</ele>
        <time>2022-04-03T12:58:07Z</time>
      </trkpt>
      <trkpt lat="45.90105" lon="0.67524">
        <ele>202.8</ele>
        <time>2022-04-03T12:58:08Z</time>
      </trkpt>
      <trkpt lat="45.90107" lon="0.67522">
        <ele>202.8</ele>
        <time>2022-04-03T12:58:09Z</time>
      </trkpt>
      <trkpt lat="45.90108" lon="0.67519">
        <ele>202.8</ele>
        <time>2022-04-03T12:58:10Z</time>
      </trkpt>
      <trkpt lat="45.90109" lon="0.67517">
        <ele>203</ele>
        <time>2022-04-03T12:58:11Z</time>
      </trkpt>
      <trkpt lat="45.9011" lon="0.67515">
        <ele>203</ele>
        <time>2022-04-03T12:58:12Z</time>
      </trkpt>
      <trkpt lat="45.90112" lon="0.67512">
        <ele>203.2</ele>
        <time>2022-04-03T12:58:13Z</time>
      </trkpt>
      <trkpt lat="45.90113" lon="0.6751">
        <ele>203.6</ele>
        <time>2022-04-03T12:58:14Z</time>
      </trkpt>
      <trkpt lat="45.90114" lon="0.67507">
        <ele>203.6</ele>
        <time>2022-04-03T12:58:15Z</time>
      </trkpt>
      <trkpt lat="45.90115" lon="0.67505">
        <ele>203.8</ele>
        <time>2022-04-03T12:58:16Z</time>
      </trkpt>
      <trkpt lat="45.90117" lon="0.67503">
        <ele>203.8</ele>
        <time>2022-04-03T12:58:17Z</time>
      </trkpt>
      <trkpt lat="45.90118" lon="0.675">
        <ele>203.8</ele>
        <time>2022-04-03T12:58:18Z</time>
      </trkpt>
      <trkpt lat="45.90119" lon="0.67498">
        <ele>204</ele>
        <time>2022-04-03T12:58:19Z</time>
      </trkpt>
      <trkpt lat="45.9012" lon="0.67496">
        <ele>204</ele>
        <time>2022-04-03T12:58:20Z</time>
      </trkpt>
      <trkpt lat="45.90122" lon="0.67493">
        <ele>204</ele>
        <time>2022-04-03T12:58:21Z</time>
      </trkpt>
      <trkpt lat="45.90123" lon="0.67491">
        <ele>204.4</ele>
        <time>2022-04-03T12:58:22Z</time>
      </trkpt>
      <trkpt lat="45.90124" lon="0.67489">
        <ele>204.6</ele>
        <time>2022-04-03T12:58:23Z</time>
      </trkpt>
      <trkpt lat="45.90126" lon="0.67486">
        <ele>204.6</ele>
        <time>2022-04-03T12:58:24Z</time>
      </trkpt>
      <trkpt lat="45.90127" lon="0.67484">
        <ele>204.8</ele>
        <time>2022-04-03T12:58:25Z</time>
      </trkpt>
      <trkpt lat="45.90129" lon="0.67481">
        <ele>205</ele>
        <time>2022-04-03T12:58:26Z</time>
      </trkpt>
      <trkpt lat="45.9013" lon="0.67479">
        <ele>205</ele>
        <time>2022-04-03T12:58:27Z</time>
      </trkpt>
      <trkpt lat="45.90131" lon="0.67477">
        <ele>205.4</ele>
        <time>2022-04-03T12:58:28Z</time>
      </trkpt>
      <trkpt lat="45.90133" lon="0.67474">
        <ele>205.6</ele>
        <time>2022-04-03T12:58:29Z</time>
      </trkpt>
      <trkpt lat="45.90134" lon="0.67472">
        <ele>205.8</ele>
        <time>2022-04-03T12:58:30Z</time>
      </trkpt>
      <trkpt lat="45.90136" lon="0.67469">
        <ele>205.8</ele>
        <time>2022-04-03T12:58:31Z</time>
      </trkpt>
      <trkpt lat="45.90137" lon="0.67467">
        <ele>206.2</ele>
        <time>2022-04-03T12:58:32Z</time>
      </trkpt>
      <trkpt lat="45.90139" lon="0.67465">
        <ele>206.2</ele>
        <time>2022-04-03T12:58:33Z</time>
      </trkpt>
      <trkpt lat="45.9014" lon="0.67462">
        <ele>206.4</ele>
        <time>2022-04-03T12:58:34Z</time>
      </trkpt>
      <trkpt lat="45.90141" lon="0.6746">
        <ele>206.6</ele>
        <time>2022-04-03T12:58:35Z</time>
      </trkpt>
      <trkpt lat="45.90143" lon="0.67458">
        <ele>206.6</ele>
        <time>2022-04-03T12:58:36Z</time>
      </trkpt>
      <trkpt lat="45.90144" lon="0.67455">
        <ele>206.8</ele>
        <time>2022-04-03T12:58:37Z</time>
      </trkpt>
      <trkpt lat="45.90146" lon="0.67453">
        <ele>206.8</ele>
        <time>2022-04-03T12:58:38Z</time>
      </trkpt>
      <trkpt lat="45.90148" lon="0.6745">
        <ele>207</ele>
        <time>2022-04-03T12:58:39Z</time>
      </trkpt>
      <trkpt lat="45.90149" lon="0.67448">
        <ele>207.2</ele>
        <time>2022-04-03T12:58:40Z</time>
      </trkpt>
      <trkpt lat="45.90151" lon="0.67445">
        <ele>207.2</ele>
        <time>2022-04-03T12:58:41Z</time>
      </trkpt>
      <trkpt lat="45.90152" lon="0.67443">
        <ele>207.4</ele>
        <time>2022-04-03T12:58:42Z</time>
      </trkpt>
      <trkpt lat="45.90154" lon="0.67441">
        <ele>207.6</ele>
        <time>2022-04-03T12:58:43Z</time>
      </trkpt>
      <trkpt lat="45.90155" lon="0.67438">
        <ele>207.6</ele>
        <time>2022-04-03T12:58:44Z</time>
      </trkpt>
      <trkpt lat="45.90157" lon="0.67436">
        <ele>207.4</ele>
        <time>2022-04-03T12:58:45Z</time>
      </trkpt>
      <trkpt lat="45.90158" lon="0.67434">
        <ele>207.6</ele>
        <time>2022-04-03T12:58:46Z</time>
      </trkpt>
      <trkpt lat="45.9016" lon="0.67431">
        <ele>207.8</ele>
        <time>2022-04-03T12:58:47Z</time>
      </trkpt>
      <trkpt lat="45.90161" lon="0.67428">
        <ele>207.8</ele>
        <time>2022-04-03T12:58:48Z</time>
      </trkpt>
      <trkpt lat="45.90163" lon="0.67426">
        <ele>208</ele>
        <time>2022-04-03T12:58:49Z</time>
      </trkpt>
      <trkpt lat="45.90165" lon="0.67423">
        <ele>208</ele>
        <time>2022-04-03T12:58:50Z</time>
      </trkpt>
      <trkpt lat="45.90166" lon="0.67421">
        <ele>208</ele>
        <time>2022-04-03T12:58:51Z</time>
      </trkpt>
      <trkpt lat="45.90168" lon="0.67418">
        <ele>208.2</ele>
        <time>2022-04-03T12:58:52Z</time>
      </trkpt>
      <trkpt lat="45.90169" lon="0.67416">
        <ele>208.4</ele>
        <time>2022-04-03T12:58:53Z</time>
      </trkpt>
      <trkpt lat="45.90171" lon="0.67414">
        <ele>208.6</ele>
        <time>2022-04-03T12:58:54Z</time>
      </trkpt>
      <trkpt lat="45.90173" lon="0.67411">
        <ele>208.8</ele>
        <time>2022-04-03T12:58:55Z</time>
      </trkpt>
      <trkpt lat="45.90174" lon="0.67409">
        <ele>209</ele>
        <time>2022-04-03T12:58:56Z</time>
      </trkpt>
      <trkpt lat="45.90176" lon="0.67406">
        <ele>209</ele>
        <time>2022-04-03T12:58:57Z</time>
      </trkpt>
      <trkpt lat="45.90177" lon="0.67403">
        <ele>209.2</ele>
        <time>2022-04-03T12:58:58Z</time>
      </trkpt>
      <trkpt lat="45.90179" lon="0.67401">
        <ele>209.2</ele>
        <time>2022-04-03T12:58:59Z</time>
      </trkpt>
      <trkpt lat="45.9018" lon="0.67399">
        <ele>209.4</ele>
        <time>2022-04-03T12:59:00Z</time>
      </trkpt>
      <trkpt lat="45.90182" lon="0.67396">
        <ele>209.4</ele>
        <time>2022-04-03T12:59:01Z</time>
      </trkpt>
      <trkpt lat="45.90183" lon="0.67394">
        <ele>209.6</ele>
        <time>2022-04-03T12:59:02Z</time>
      </trkpt>
      <trkpt lat="45.90185" lon="0.67391">
        <ele>209.6</ele>
        <time>2022-04-03T12:59:03Z</time>
      </trkpt>
      <trkpt lat="45.90186" lon="0.67389">
        <ele>209.8</ele>
        <time>2022-04-03T12:59:04Z</time>
      </trkpt>
      <trkpt lat="45.90188" lon="0.67386">
        <ele>210</ele>
        <time>2022-04-03T12:59:05Z</time>
      </trkpt>
      <trkpt lat="45.9019" lon="0.67384">
        <ele>210.2</ele>
        <time>2022-04-03T12:59:06Z</time>
      </trkpt>
      <trkpt lat="45.90191" lon="0.67381">
        <ele>210.2</ele>
        <time>2022-04-03T12:59:07Z</time>
      </trkpt>
      <trkpt lat="45.90193" lon="0.67379">
        <ele>210.4</ele>
        <time>2022-04-03T12:59:08Z</time>
      </trkpt>
      <trkpt lat="45.90194" lon="0.67376">
        <ele>210.6</ele>
        <time>2022-04-03T12:59:09Z</time>
      </trkpt>
      <trkpt lat="45.90196" lon="0.67373">
        <ele>210.8</ele>
        <time>2022-04-03T12:59:10Z</time>
      </trkpt>
      <trkpt lat="45.90198" lon="0.67371">
        <ele>210.6</ele>
        <time>2022-04-03T12:59:11Z</time>
      </trkpt>
      <trkpt lat="45.90199" lon="0.67368">
        <ele>210.8</ele>
        <time>2022-04-03T12:59:12Z</time>
      </trkpt>
      <trkpt lat="45.90201" lon="0.67366">
        <ele>211</ele>
        <time>2022-04-03T12:59:13Z</time>
      </trkpt>
      <trkpt lat="45.90202" lon="0.67363">
        <ele>211.2</ele>
        <time>2022-04-03T12:59:14Z</time>
      </trkpt>
      <trkpt lat="45.90204" lon="0.6736">
        <ele>211.4</ele>
        <time>2022-04-03T12:59:15Z</time>
      </trkpt>
      <trkpt lat="45.90206" lon="0.67358">
        <ele>211.4</ele>
        <time>2022-04-03T12:59:16Z</time>
      </trkpt>
      <trkpt lat="45.90207" lon="0.67355">
        <ele>211.4</ele>
        <time>2022-04-03T12:59:17Z</time>
      </trkpt>
      <trkpt lat="45.90209" lon="0.67353">
        <ele>211.6</ele>
        <time>2022-04-03T12:59:18Z</time>
      </trkpt>
      <trkpt lat="45.9021" lon="0.6735">
        <ele>211.4</ele>
        <time>2022-04-03T12:59:19Z</time>
      </trkpt>
      <trkpt lat="45.90212" lon="0.67348">
        <ele>211.4</ele>
        <time>2022-04-03T12:59:20Z</time>
      </trkpt>
      <trkpt lat="45.90213" lon="0.67345">
        <ele>211.6</ele>
        <time>2022-04-03T12:59:21Z</time>
      </trkpt>
      <trkpt lat="45.90215" lon="0.67343">
        <ele>211.8</ele>
        <time>2022-04-03T12:59:22Z</time>
      </trkpt>
      <trkpt lat="45.90217" lon="0.6734">
        <ele>212</ele>
        <time>2022-04-03T12:59:23Z</time>
      </trkpt>
      <trkpt lat="45.90218" lon="0.67338">
        <ele>212</ele>
        <time>2022-04-03T12:59:24Z</time>
      </trkpt>
      <trkpt lat="45.9022" lon="0.67336">
        <ele>212.2</ele>
        <time>2022-04-03T12:59:25Z</time>
      </trkpt>
      <trkpt lat="45.90221" lon="0.67333">
        <ele>212.2</ele>
        <time>2022-04-03T12:59:26Z</time>
      </trkpt>
      <trkpt lat="45.90223" lon="0.67331">
        <ele>212.4</ele>
        <time>2022-04-03T12:59:27Z</time>
      </trkpt>
      <trkpt lat="45.90224" lon="0.67328">
        <ele>212.8</ele>
        <time>2022-04-03T12:59:28Z</time>
      </trkpt>
      <trkpt lat="45.90226" lon="0.67326">
        <ele>212.8</ele>
        <time>2022-04-03T12:59:29Z</time>
      </trkpt>
      <trkpt lat="45.90227" lon="0.67324">
        <ele>213</ele>
        <time>2022-04-03T12:59:30Z</time>
      </trkpt>
      <trkpt lat="45.90229" lon="0.67321">
        <ele>213.2</ele>
        <time>2022-04-03T12:59:31Z</time>
      </trkpt>
      <trkpt lat="45.9023" lon="0.67319">
        <ele>213.2</ele>
        <time>2022-04-03T12:59:32Z</time>
      </trkpt>
      <trkpt lat="45.90232" lon="0.67317">
        <ele>213.4</ele>
        <time>2022-04-03T12:59:33Z</time>
      </trkpt>
      <trkpt lat="45.90233" lon="0.67315">
        <ele>213.4</ele>
        <time>2022-04-03T12:59:34Z</time>
      </trkpt>
      <trkpt lat="45.90235" lon="0.67312">
        <ele>213.4</ele>
        <time>2022-04-03T12:59:35Z</time>
      </trkpt>
      <trkpt lat="45.90236" lon="0.6731">
        <ele>213.4</ele>
        <time>2022-04-03T12:59:36Z</time>
      </trkpt>
      <trkpt lat="45.90238" lon="0.67308">
        <ele>213.6</ele>
        <time>2022-04-03T12:59:37Z</time>
      </trkpt>
      <trkpt lat="45.90239" lon="0.67306">
        <ele>213.6</ele>
        <time>2022-04-03T12:59:38Z</time>
      </trkpt>
      <trkpt lat="45.9024" lon="0.67304">
        <ele>213.8</ele>
        <time>2022-04-03T12:59:39Z</time>
      </trkpt>
      <trkpt lat="45.90242" lon="0.67302">
        <ele>213.8</ele>
        <time>2022-04-03T12:59:40Z</time>
      </trkpt>
      <trkpt lat="45.90243" lon="0.673">
        <ele>214</ele>
        <time>2022-04-03T12:59:41Z</time>
      </trkpt>
      <trkpt lat="45.90245" lon="0.67298">
        <ele>214</ele>
        <time>2022-04-03T12:59:42Z</time>
      </trkpt>
      <trkpt lat="45.90246" lon="0.67296">
        <ele>214</ele>
        <time>2022-04-03T12:59:43Z</time>
      </trkpt>
      <trkpt lat="45.90248" lon="0.67294">
        <ele>214.4</ele>
        <time>2022-04-03T12:59:44Z</time>
      </trkpt>
      <trkpt lat="45.90249" lon="0.67292">
        <ele>214.8</ele>
        <time>2022-04-03T12:59:45Z</time>
      </trkpt>
      <trkpt lat="45.9025" lon="0.6729">
        <ele>214.8</ele>
        <time>2022-04-03T12:59:46Z</time>
      </trkpt>
      <trkpt lat="45.90252" lon="0.67288">
        <ele>215</ele>
        <time>2022-04-03T12:59:47Z</time>
      </trkpt>
      <trkpt lat="45.90254" lon="0.67287">
        <ele>215.2</ele>
        <time>2022-04-03T12:59:48Z</time>
      </trkpt>
      <trkpt lat="45.90255" lon="0.67285">
        <ele>215.4</ele>
        <time>2022-04-03T12:59:49Z</time>
      </trkpt>
      <trkpt lat="45.90256" lon="0.67283">
        <ele>215.6</ele>
        <time>2022-04-03T12:59:50Z</time>
      </trkpt>
      <trkpt lat="45.90258" lon="0.67281">
        <ele>215.8</ele>
        <time>2022-04-03T12:59:51Z</time>
      </trkpt>
      <trkpt lat="45.90259" lon="0.67279">
        <ele>216</ele>
        <time>2022-04-03T12:59:52Z</time>
      </trkpt>
      <trkpt lat="45.9026" lon="0.67278">
        <ele>216.2</ele>
        <time>2022-04-03T12:59:53Z</time>
      </trkpt>
      <trkpt lat="45.90262" lon="0.67276">
        <ele>216.2</ele>
        <time>2022-04-03T12:59:54Z</time>
      </trkpt>
      <trkpt lat="45.90263" lon="0.67274">
        <ele>216.2</ele>
        <time>2022-04-03T12:59:55Z</time>
      </trkpt>
      <trkpt lat="45.90265" lon="0.67273">
        <ele>216.6</ele>
        <time>2022-04-03T12:59:56Z</time>
      </trkpt>
      <trkpt lat="45.90266" lon="0.67271">
        <ele>216.8</ele>
        <time>2022-04-03T12:59:57Z</time>
      </trkpt>
      <trkpt lat="45.90268" lon="0.67269">
        <ele>216.8</ele>
        <time>2022-04-03T12:59:58Z</time>
      </trkpt>
      <trkpt lat="45.90269" lon="0.67268">
        <ele>217</ele>
        <time>2022-04-03T12:59:59Z</time>
      </trkpt>
      <trkpt lat="45.90271" lon="0.67267">
        <ele>217.2</ele>
        <time>2022-04-03T13:00:00Z</time>
      </trkpt>
      <trkpt lat="45.90272" lon="0.67265">
        <ele>217.4</ele>
        <time>2022-04-03T13:00:01Z</time>
      </trkpt>
      <trkpt lat="45.90274" lon="0.67263">
        <ele>217.6</ele>
        <time>2022-04-03T13:00:02Z</time>
      </trkpt>
      <trkpt lat="45.90275" lon="0.67262">
        <ele>217.8</ele>
        <time>2022-04-03T13:00:03Z</time>
      </trkpt>
      <trkpt lat="45.90277" lon="0.6726">
        <ele>217.8</ele>
        <time>2022-04-03T13:00:04Z</time>
      </trkpt>
      <trkpt lat="45.90278" lon="0.67258">
        <ele>218</ele>
        <time>2022-04-03T13:00:05Z</time>
      </trkpt>
      <trkpt lat="45.9028" lon="0.67256">
        <ele>218</ele>
        <time>2022-04-03T13:00:06Z</time>
      </trkpt>
      <trkpt lat="45.90281" lon="0.67255">
        <ele>218.4</ele>
        <time>2022-04-03T13:00:07Z</time>
      </trkpt>
      <trkpt lat="45.90282" lon="0.67253">
        <ele>218.6</ele>
        <time>2022-04-03T13:00:08Z</time>
      </trkpt>
      <trkpt lat="45.90284" lon="0.67251">
        <ele>218.6</ele>
        <time>2022-04-03T13:00:09Z</time>
      </trkpt>
      <trkpt lat="45.90285" lon="0.67249">
        <ele>218.8</ele>
        <time>2022-04-03T13:00:10Z</time>
      </trkpt>
      <trkpt lat="45.90286" lon="0.67248">
        <ele>218.8</ele>
        <time>2022-04-03T13:00:11Z</time>
      </trkpt>
      <trkpt lat="45.90288" lon="0.67247">
        <ele>218.8</ele>
        <time>2022-04-03T13:00:12Z</time>
      </trkpt>
      <trkpt lat="45.90289" lon="0.67245">
        <ele>218.8</ele>
        <time>2022-04-03T13:00:13Z</time>
      </trkpt>
      <trkpt lat="45.90291" lon="0.67244">
        <ele>219.2</ele>
        <time>2022-04-03T13:00:14Z</time>
      </trkpt>
      <trkpt lat="45.90292" lon="0.67242">
        <ele>219.2</ele>
        <time>2022-04-03T13:00:15Z</time>
      </trkpt>
      <trkpt lat="45.90293" lon="0.67241">
        <ele>219.4</ele>
        <time>2022-04-03T13:00:16Z</time>
      </trkpt>
      <trkpt lat="45.90295" lon="0.67239">
        <ele>219.6</ele>
        <time>2022-04-03T13:00:17Z</time>
      </trkpt>
      <trkpt lat="45.90296" lon="0.67237">
        <ele>219.6</ele>
        <time>2022-04-03T13:00:18Z</time>
      </trkpt>
      <trkpt lat="45.90298" lon="0.67235">
        <ele>219.8</ele>
        <time>2022-04-03T13:00:19Z</time>
      </trkpt>
      <trkpt lat="45.90299" lon="0.67234">
        <ele>219.6</ele>
        <time>2022-04-03T13:00:20Z</time>
      </trkpt>
      <trkpt lat="45.90301" lon="0.67232">
        <ele>219.8</ele>
        <time>2022-04-03T13:00:21Z</time>
      </trkpt>
      <trkpt lat="45.90302" lon="0.6723">
        <ele>220.2</ele>
        <time>2022-04-03T13:00:22Z</time>
      </trkpt>
      <trkpt lat="45.90303" lon="0.67228">
        <ele>220.4</ele>
        <time>2022-04-03T13:00:23Z</time>
      </trkpt>
      <trkpt lat="45.90304" lon="0.67226">
        <ele>220.6</ele>
        <time>2022-04-03T13:00:24Z</time>
      </trkpt>
      <trkpt lat="45.90306" lon="0.67224">
        <ele>220.6</ele>
        <time>2022-04-03T13:00:25Z</time>
      </trkpt>
      <trkpt lat="45.90307" lon="0.67222">
        <ele>220.8</ele>
        <time>2022-04-03T13:00:26Z</time>
      </trkpt>
      <trkpt lat="45.90309" lon="0.67221">
        <ele>221</ele>
        <time>2022-04-03T13:00:27Z</time>
      </trkpt>
      <trkpt lat="45.9031" lon="0.67219">
        <ele>221.4</ele>
        <time>2022-04-03T13:00:28Z</time>
      </trkpt>
      <trkpt lat="45.90311" lon="0.67217">
        <ele>221.4</ele>
        <time>2022-04-03T13:00:29Z</time>
      </trkpt>
      <trkpt lat="45.90312" lon="0.67214">
        <ele>221.8</ele>
        <time>2022-04-03T13:00:30Z</time>
      </trkpt>
      <trkpt lat="45.90314" lon="0.67212">
        <ele>221.8</ele>
        <time>2022-04-03T13:00:31Z</time>
      </trkpt>
      <trkpt lat="45.90315" lon="0.67211">
        <ele>221.8</ele>
        <time>2022-04-03T13:00:32Z</time>
      </trkpt>
      <trkpt lat="45.90317" lon="0.67209">
        <ele>222</ele>
        <time>2022-04-03T13:00:33Z</time>
      </trkpt>
      <trkpt lat="45.90318" lon="0.67207">
        <ele>222.6</ele>
        <time>2022-04-03T13:00:34Z</time>
      </trkpt>
      <trkpt lat="45.90319" lon="0.67205">
        <ele>222.6</ele>
        <time>2022-04-03T13:00:35Z</time>
      </trkpt>
      <trkpt lat="45.9032" lon="0.67203">
        <ele>223</ele>
        <time>2022-04-03T13:00:36Z</time>
      </trkpt>
      <trkpt lat="45.90322" lon="0.67201">
        <ele>223.2</ele>
        <time>2022-04-03T13:00:37Z</time>
      </trkpt>
      <trkpt lat="45.90323" lon="0.67199">
        <ele>223.4</ele>
        <time>2022-04-03T13:00:38Z</time>
      </trkpt>
      <trkpt lat="45.90324" lon="0.67197">
        <ele>223.4</ele>
        <time>2022-04-03T13:00:39Z</time>
      </trkpt>
      <trkpt lat="45.90326" lon="0.67195">
        <ele>223.6</ele>
        <time>2022-04-03T13:00:40Z</time>
      </trkpt>
      <trkpt lat="45.90327" lon="0.67193">
        <ele>223.8</ele>
        <time>2022-04-03T13:00:41Z</time>
      </trkpt>
      <trkpt lat="45.90329" lon="0.67191">
        <ele>223.8</ele>
        <time>2022-04-03T13:00:42Z</time>
      </trkpt>
      <trkpt lat="45.9033" lon="0.67188">
        <ele>224</ele>
        <time>2022-04-03T13:00:43Z</time>
      </trkpt>
      <trkpt lat="45.90331" lon="0.67186">
        <ele>224.2</ele>
        <time>2022-04-03T13:00:44Z</time>
      </trkpt>
      <trkpt lat="45.90333" lon="0.67184">
        <ele>224.2</ele>
        <time>2022-04-03T13:00:45Z</time>
      </trkpt>
      <trkpt lat="45.90334" lon="0.67182">
        <ele>224</ele>
        <time>2022-04-03T13:00:46Z</time>
      </trkpt>
      <trkpt lat="45.90335" lon="0.6718">
        <ele>224.2</ele>
        <time>2022-04-03T13:00:47Z</time>
      </trkpt>
      <trkpt lat="45.90336" lon="0.67177">
        <ele>224.4</ele>
        <time>2022-04-03T13:00:48Z</time>
      </trkpt>
      <trkpt lat="45.90337" lon="0.67175">
        <ele>224.6</ele>
        <time>2022-04-03T13:00:49Z</time>
      </trkpt>
      <trkpt lat="45.90338" lon="0.67173">
        <ele>224.6</ele>
        <time>2022-04-03T13:00:50Z</time>
      </trkpt>
      <trkpt lat="45.9034" lon="0.67171">
        <ele>224.6</ele>
        <time>2022-04-03T13:00:51Z</time>
      </trkpt>
      <trkpt lat="45.90341" lon="0.67168">
        <ele>224.8</ele>
        <time>2022-04-03T13:00:52Z</time>
      </trkpt>
      <trkpt lat="45.90342" lon="0.67166">
        <ele>225</ele>
        <time>2022-04-03T13:00:53Z</time>
      </trkpt>
      <trkpt lat="45.90343" lon="0.67164">
        <ele>225.2</ele>
        <time>2022-04-03T13:00:54Z</time>
      </trkpt>
      <trkpt lat="45.90344" lon="0.67162">
        <ele>225.6</ele>
        <time>2022-04-03T13:00:55Z</time>
      </trkpt>
      <trkpt lat="45.90345" lon="0.67159">
        <ele>225.6</ele>
        <time>2022-04-03T13:00:56Z</time>
      </trkpt>
      <trkpt lat="45.90346" lon="0.67157">
        <ele>226</ele>
        <time>2022-04-03T13:00:57Z</time>
      </trkpt>
      <trkpt lat="45.90347" lon="0.67155">
        <ele>226</ele>
        <time>2022-04-03T13:00:58Z</time>
      </trkpt>
      <trkpt lat="45.90349" lon="0.67152">
        <ele>226.4</ele>
        <time>2022-04-03T13:00:59Z</time>
      </trkpt>
      <trkpt lat="45.9035" lon="0.6715">
        <ele>226.6</ele>
        <time>2022-04-03T13:01:00Z</time>
      </trkpt>
      <trkpt lat="45.90351" lon="0.67148">
        <ele>226.6</ele>
        <time>2022-04-03T13:01:01Z</time>
      </trkpt>
      <trkpt lat="45.90352" lon="0.67145">
        <ele>226.6</ele>
        <time>2022-04-03T13:01:02Z</time>
      </trkpt>
      <trkpt lat="45.90353" lon="0.67143">
        <ele>226.8</ele>
        <time>2022-04-03T13:01:03Z</time>
      </trkpt>
      <trkpt lat="45.90354" lon="0.67141">
        <ele>227</ele>
        <time>2022-04-03T13:01:04Z</time>
      </trkpt>
      <trkpt lat="45.90356" lon="0.67138">
        <ele>227</ele>
        <time>2022-04-03T13:01:05Z</time>
      </trkpt>
      <trkpt lat="45.90357" lon="0.67136">
        <ele>227.2</ele>
        <time>2022-04-03T13:01:06Z</time>
      </trkpt>
      <trkpt lat="45.90357" lon="0.67133">
        <ele>227.4</ele>
        <time>2022-04-03T13:01:07Z</time>
      </trkpt>
      <trkpt lat="45.90358" lon="0.67131">
        <ele>227.6</ele>
        <time>2022-04-03T13:01:08Z</time>
      </trkpt>
      <trkpt lat="45.9036" lon="0.67128">
        <ele>227.6</ele>
        <time>2022-04-03T13:01:09Z</time>
      </trkpt>
      <trkpt lat="45.90361" lon="0.67126">
        <ele>227.8</ele>
        <time>2022-04-03T13:01:10Z</time>
      </trkpt>
      <trkpt lat="45.90362" lon="0.67124">
        <ele>227.8</ele>
        <time>2022-04-03T13:01:11Z</time>
      </trkpt>
      <trkpt lat="45.90363" lon="0.67121">
        <ele>228.2</ele>
        <time>2022-04-03T13:01:12Z</time>
      </trkpt>
      <trkpt lat="45.90364" lon="0.67119">
        <ele>228.2</ele>
        <time>2022-04-03T13:01:13Z</time>
      </trkpt>
      <trkpt lat="45.90365" lon="0.67116">
        <ele>228.4</ele>
        <time>2022-04-03T13:01:14Z</time>
      </trkpt>
      <trkpt lat="45.90366" lon="0.67114">
        <ele>228.4</ele>
        <time>2022-04-03T13:01:15Z</time>
      </trkpt>
      <trkpt lat="45.90367" lon="0.67111">
        <ele>228.6</ele>
        <time>2022-04-03T13:01:16Z</time>
      </trkpt>
      <trkpt lat="45.90368" lon="0.67109">
        <ele>228.8</ele>
        <time>2022-04-03T13:01:17Z</time>
      </trkpt>
      <trkpt lat="45.90369" lon="0.67106">
        <ele>229</ele>
        <time>2022-04-03T13:01:18Z</time>
      </trkpt>
      <trkpt lat="45.9037" lon="0.67104">
        <ele>229.2</ele>
        <time>2022-04-03T13:01:19Z</time>
      </trkpt>
      <trkpt lat="45.90371" lon="0.67102">
        <ele>229.4</ele>
        <time>2022-04-03T13:01:20Z</time>
      </trkpt>
      <trkpt lat="45.90372" lon="0.67099">
        <ele>229.6</ele>
        <time>2022-04-03T13:01:21Z</time>
      </trkpt>
      <trkpt lat="45.90373" lon="0.67097">
        <ele>229.8</ele>
        <time>2022-04-03T13:01:22Z</time>
      </trkpt>
      <trkpt lat="45.90374" lon="0.67095">
        <ele>229.8</ele>
        <time>2022-04-03T13:01:23Z</time>
      </trkpt>
      <trkpt lat="45.90376" lon="0.67093">
        <ele>230</ele>
        <time>2022-04-03T13:01:24Z</time>
      </trkpt>
      <trkpt lat="45.90377" lon="0.67091">
        <ele>230.4</ele>
        <time>2022-04-03T13:01:25Z</time>
      </trkpt>
      <trkpt lat="45.90378" lon="0.67089">
        <ele>230.6</ele>
        <time>2022-04-03T13:01:26Z</time>
      </trkpt>
      <trkpt lat="45.90379" lon="0.67087">
        <ele>230.8</ele>
        <time>2022-04-03T13:01:27Z</time>
      </trkpt>
      <trkpt lat="45.9038" lon="0.67085">
        <ele>230.8</ele>
        <time>2022-04-03T13:01:28Z</time>
      </trkpt>
      <trkpt lat="45.90381" lon="0.67082">
        <ele>231</ele>
        <time>2022-04-03T13:01:29Z</time>
      </trkpt>
      <trkpt lat="45.90382" lon="0.6708">
        <ele>231.2</ele>
        <time>2022-04-03T13:01:30Z</time>
      </trkpt>
      <trkpt lat="45.90383" lon="0.67078">
        <ele>231.4</ele>
        <time>2022-04-03T13:01:31Z</time>
      </trkpt>
      <trkpt lat="45.90384" lon="0.67075">
        <ele>231.4</ele>
        <time>2022-04-03T13:01:32Z</time>
      </trkpt>
      <trkpt lat="45.90385" lon="0.67073">
        <ele>231.8</ele>
        <time>2022-04-03T13:01:33Z</time>
      </trkpt>
      <trkpt lat="45.90386" lon="0.67071">
        <ele>231.8</ele>
        <time>2022-04-03T13:01:34Z</time>
      </trkpt>
      <trkpt lat="45.90387" lon="0.67068">
        <ele>231.8</ele>
        <time>2022-04-03T13:01:35Z</time>
      </trkpt>
      <trkpt lat="45.90388" lon="0.67066">
        <ele>232</ele>
        <time>2022-04-03T13:01:36Z</time>
      </trkpt>
      <trkpt lat="45.9039" lon="0.67063">
        <ele>232</ele>
        <time>2022-04-03T13:01:37Z</time>
      </trkpt>
      <trkpt lat="45.90391" lon="0.67061">
        <ele>232.2</ele>
        <time>2022-04-03T13:01:38Z</time>
      </trkpt>
      <trkpt lat="45.90392" lon="0.67059">
        <ele>232.4</ele>
        <time>2022-04-03T13:01:39Z</time>
      </trkpt>
      <trkpt lat="45.90393" lon="0.67056">
        <ele>232.4</ele>
        <time>2022-04-03T13:01:40Z</time>
      </trkpt>
      <trkpt lat="45.90394" lon="0.67054">
        <ele>232.4</ele>
        <time>2022-04-03T13:01:41Z</time>
      </trkpt>
      <trkpt lat="45.90395" lon="0.67052">
        <ele>232.8</ele>
        <time>2022-04-03T13:01:42Z</time>
      </trkpt>
      <trkpt lat="45.90396" lon="0.67049">
        <ele>233</ele>
        <time>2022-04-03T13:01:43Z</time>
      </trkpt>
      <trkpt lat="45.90397" lon="0.67047">
        <ele>233.2</ele>
        <time>2022-04-03T13:01:44Z</time>
      </trkpt>
      <trkpt lat="45.90399" lon="0.67044">
        <ele>233.4</ele>
        <time>2022-04-03T13:01:45Z</time>
      </trkpt>
      <trkpt lat="45.904" lon="0.67042">
        <ele>233.4</ele>
        <time>2022-04-03T13:01:46Z</time>
      </trkpt>
      <trkpt lat="45.90401" lon="0.6704">
        <ele>233.6</ele>
        <time>2022-04-03T13:01:47Z</time>
      </trkpt>
      <trkpt lat="45.90402" lon="0.67038">
        <ele>233.6</ele>
        <time>2022-04-03T13:01:48Z</time>
      </trkpt>
      <trkpt lat="45.90404" lon="0.67035">
        <ele>233.8</ele>
        <time>2022-04-03T13:01:49Z</time>
      </trkpt>
      <trkpt lat="45.90405" lon="0.67033">
        <ele>234</ele>
        <time>2022-04-03T13:01:50Z</time>
      </trkpt>
      <trkpt lat="45.90406" lon="0.6703">
        <ele>234</ele>
        <time>2022-04-03T13:01:51Z</time>
      </trkpt>
      <trkpt lat="45.90407" lon="0.67028">
        <ele>234.2</ele>
        <time>2022-04-03T13:01:52Z</time>
      </trkpt>
      <trkpt lat="45.90409" lon="0.67026">
        <ele>234.4</ele>
        <time>2022-04-03T13:01:53Z</time>
      </trkpt>
      <trkpt lat="45.9041" lon="0.67023">
        <ele>234.4</ele>
        <time>2022-04-03T13:01:54Z</time>
      </trkpt>
      <trkpt lat="45.90412" lon="0.67021">
        <ele>234.4</ele>
        <time>2022-04-03T13:01:55Z</time>
      </trkpt>
      <trkpt lat="45.90414" lon="0.67019">
        <ele>234.6</ele>
        <time>2022-04-03T13:01:56Z</time>
      </trkpt>
      <trkpt lat="45.90415" lon="0.67017">
        <ele>234.6</ele>
        <time>2022-04-03T13:01:57Z</time>
      </trkpt>
      <trkpt lat="45.90417" lon="0.67015">
        <ele>234.8</ele>
        <time>2022-04-03T13:01:58Z</time>
      </trkpt>
      <trkpt lat="45.90419" lon="0.67013">
        <ele>234.8</ele>
        <time>2022-04-03T13:01:59Z</time>
      </trkpt>
      <trkpt lat="45.9042" lon="0.6701">
        <ele>235.2</ele>
        <time>2022-04-03T13:02:00Z</time>
      </trkpt>
      <trkpt lat="45.90422" lon="0.67008">
        <ele>235.2</ele>
        <time>2022-04-03T13:02:01Z</time>
      </trkpt>
      <trkpt lat="45.90424" lon="0.67006">
        <ele>235.4</ele>
        <time>2022-04-03T13:02:02Z</time>
      </trkpt>
      <trkpt lat="45.90425" lon="0.67004">
        <ele>235.4</ele>
        <time>2022-04-03T13:02:03Z</time>
      </trkpt>
      <trkpt lat="45.90427" lon="0.67002">
        <ele>235.6</ele>
        <time>2022-04-03T13:02:04Z</time>
      </trkpt>
      <trkpt lat="45.90429" lon="0.67">
        <ele>235.6</ele>
        <time>2022-04-03T13:02:05Z</time>
      </trkpt>
      <trkpt lat="45.9043" lon="0.66997">
        <ele>236</ele>
        <time>2022-04-03T13:02:06Z</time>
      </trkpt>
      <trkpt lat="45.90432" lon="0.66995">
        <ele>236.2</ele>
        <time>2022-04-03T13:02:07Z</time>
      </trkpt>
      <trkpt lat="45.90433" lon="0.66993">
        <ele>236.4</ele>
        <time>2022-04-03T13:02:08Z</time>
      </trkpt>
      <trkpt lat="45.90435" lon="0.66991">
        <ele>236.4</ele>
        <time>2022-04-03T13:02:09Z</time>
      </trkpt>
      <trkpt lat="45.90437" lon="0.66989">
        <ele>236.6</ele>
        <time>2022-04-03T13:02:10Z</time>
      </trkpt>
      <trkpt lat="45.90438" lon="0.66987">
        <ele>236.6</ele>
        <time>2022-04-03T13:02:11Z</time>
      </trkpt>
      <trkpt lat="45.9044" lon="0.66985">
        <ele>236.6</ele>
        <time>2022-04-03T13:02:12Z</time>
      </trkpt>
      <trkpt lat="45.90442" lon="0.66982">
        <ele>236.8</ele>
        <time>2022-04-03T13:02:13Z</time>
      </trkpt>
      <trkpt lat="45.90443" lon="0.6698">
        <ele>237</ele>
        <time>2022-04-03T13:02:14Z</time>
      </trkpt>
      <trkpt lat="45.90445" lon="0.66978">
        <ele>237.2</ele>
        <time>2022-04-03T13:02:15Z</time>
      </trkpt>
      <trkpt lat="45.90447" lon="0.66976">
        <ele>237.4</ele>
        <time>2022-04-03T13:02:16Z</time>
      </trkpt>
      <trkpt lat="45.90448" lon="0.66974">
        <ele>237.4</ele>
        <time>2022-04-03T13:02:17Z</time>
      </trkpt>
      <trkpt lat="45.9045" lon="0.66972">
        <ele>237.4</ele>
        <time>2022-04-03T13:02:18Z</time>
      </trkpt>
      <trkpt lat="45.90451" lon="0.6697">
        <ele>237.6</ele>
        <time>2022-04-03T13:02:19Z</time>
      </trkpt>
      <trkpt lat="45.90453" lon="0.66968">
        <ele>237.8</ele>
        <time>2022-04-03T13:02:20Z</time>
      </trkpt>
      <trkpt lat="45.90455" lon="0.66966">
        <ele>238</ele>
        <time>2022-04-03T13:02:21Z</time>
      </trkpt>
      <trkpt lat="45.90457" lon="0.66964">
        <ele>238.2</ele>
        <time>2022-04-03T13:02:22Z</time>
      </trkpt>
      <trkpt lat="45.90458" lon="0.66962">
        <ele>238.4</ele>
        <time>2022-04-03T13:02:23Z</time>
      </trkpt>
      <trkpt lat="45.9046" lon="0.6696">
        <ele>238.4</ele>
        <time>2022-04-03T13:02:24Z</time>
      </trkpt>
      <trkpt lat="45.90462" lon="0.66957">
        <ele>238.6</ele>
        <time>2022-04-03T13:02:25Z</time>
      </trkpt>
      <trkpt lat="45.90463" lon="0.66955">
        <ele>238.6</ele>
        <time>2022-04-03T13:02:26Z</time>
      </trkpt>
      <trkpt lat="45.90465" lon="0.66953">
        <ele>238.6</ele>
        <time>2022-04-03T13:02:27Z</time>
      </trkpt>
      <trkpt lat="45.90467" lon="0.66951">
        <ele>238.8</ele>
        <time>2022-04-03T13:02:28Z</time>
      </trkpt>
      <trkpt lat="45.90468" lon="0.66949">
        <ele>239</ele>
        <time>2022-04-03T13:02:29Z</time>
      </trkpt>
      <trkpt lat="45.9047" lon="0.66946">
        <ele>239.2</ele>
        <time>2022-04-03T13:02:30Z</time>
      </trkpt>
      <trkpt lat="45.90472" lon="0.66944">
        <ele>239.2</ele>
        <time>2022-04-03T13:02:31Z</time>
      </trkpt>
      <trkpt lat="45.90474" lon="0.66942">
        <ele>239.4</ele>
        <time>2022-04-03T13:02:32Z</time>
      </trkpt>
      <trkpt lat="45.90475" lon="0.66939">
        <ele>239.6</ele>
        <time>2022-04-03T13:02:33Z</time>
      </trkpt>
      <trkpt lat="45.90477" lon="0.66937">
        <ele>239.6</ele>
        <time>2022-04-03T13:02:34Z</time>
      </trkpt>
      <trkpt lat="45.90479" lon="0.66934">
        <ele>239.8</ele>
        <time>2022-04-03T13:02:35Z</time>
      </trkpt>
      <trkpt lat="45.90481" lon="0.66932">
        <ele>239.8</ele>
        <time>2022-04-03T13:02:36Z</time>
      </trkpt>
      <trkpt lat="45.90483" lon="0.66929">
        <ele>239.8</ele>
        <time>2022-04-03T13:02:37Z</time>
      </trkpt>
      <trkpt lat="45.90485" lon="0.66927">
        <ele>240</ele>
        <time>2022-04-03T13:02:38Z</time>
      </trkpt>
      <trkpt lat="45.90486" lon="0.66924">
        <ele>240</ele>
        <time>2022-04-03T13:02:39Z</time>
      </trkpt>
      <trkpt lat="45.90488" lon="0.66922">
        <ele>240.2</ele>
        <time>2022-04-03T13:02:40Z</time>
      </trkpt>
      <trkpt lat="45.9049" lon="0.66919">
        <ele>240.4</ele>
        <time>2022-04-03T13:02:41Z</time>
      </trkpt>
      <trkpt lat="45.90492" lon="0.66916">
        <ele>240.4</ele>
        <time>2022-04-03T13:02:42Z</time>
      </trkpt>
      <trkpt lat="45.90494" lon="0.66914">
        <ele>240.4</ele>
        <time>2022-04-03T13:02:43Z</time>
      </trkpt>
      <trkpt lat="45.90496" lon="0.66911">
        <ele>240.4</ele>
        <time>2022-04-03T13:02:44Z</time>
      </trkpt>
      <trkpt lat="45.90498" lon="0.66909">
        <ele>240.4</ele>
        <time>2022-04-03T13:02:45Z</time>
      </trkpt>
      <trkpt lat="45.905" lon="0.66907">
        <ele>240.8</ele>
        <time>2022-04-03T13:02:46Z</time>
      </trkpt>
      <trkpt lat="45.90502" lon="0.66904">
        <ele>240.8</ele>
        <time>2022-04-03T13:02:47Z</time>
      </trkpt>
      <trkpt lat="45.90504" lon="0.66902">
        <ele>241</ele>
        <time>2022-04-03T13:02:48Z</time>
      </trkpt>
      <trkpt lat="45.90506" lon="0.66899">
        <ele>241.2</ele>
        <time>2022-04-03T13:02:49Z</time>
      </trkpt>
      <trkpt lat="45.90508" lon="0.66895">
        <ele>241.2</ele>
        <time>2022-04-03T13:02:50Z</time>
      </trkpt>
      <trkpt lat="45.90511" lon="0.66892">
        <ele>241.2</ele>
        <time>2022-04-03T13:02:51Z</time>
      </trkpt>
      <trkpt lat="45.90514" lon="0.66888">
        <ele>241.2</ele>
        <time>2022-04-03T13:02:52Z</time>
      </trkpt>
      <trkpt lat="45.90516" lon="0.66884">
        <ele>241.4</ele>
        <time>2022-04-03T13:02:53Z</time>
      </trkpt>
      <trkpt lat="45.90519" lon="0.6688">
        <ele>241.2</ele>
        <time>2022-04-03T13:02:54Z</time>
      </trkpt>
      <trkpt lat="45.90523" lon="0.66875">
        <ele>241.4</ele>
        <time>2022-04-03T13:02:55Z</time>
      </trkpt>
      <trkpt lat="45.90526" lon="0.6687">
        <ele>241.2</ele>
        <time>2022-04-03T13:02:56Z</time>
      </trkpt>
      <trkpt lat="45.9053" lon="0.66865">
        <ele>241.2</ele>
        <time>2022-04-03T13:02:57Z</time>
      </trkpt>
      <trkpt lat="45.90534" lon="0.6686">
        <ele>241.2</ele>
        <time>2022-04-03T13:02:58Z</time>
      </trkpt>
      <trkpt lat="45.90538" lon="0.66854">
        <ele>241</ele>
        <time>2022-04-03T13:02:59Z</time>
      </trkpt>
      <trkpt lat="45.90543" lon="0.66848">
        <ele>240.6</ele>
        <time>2022-04-03T13:03:00Z</time>
      </trkpt>
      <trkpt lat="45.90547" lon="0.66841">
        <ele>240.6</ele>
        <time>2022-04-03T13:03:01Z</time>
      </trkpt>
      <trkpt lat="45.90552" lon="0.66835">
        <ele>240.6</ele>
        <time>2022-04-03T13:03:02Z</time>
      </trkpt>
      <trkpt lat="45.90556" lon="0.66828">
        <ele>240.2</ele>
        <time>2022-04-03T13:03:03Z</time>
      </trkpt>
      <trkpt lat="45.90561" lon="0.6682">
        <ele>239.6</ele>
        <time>2022-04-03T13:03:04Z</time>
      </trkpt>
      <trkpt lat="45.90567" lon="0.66812">
        <ele>239.2</ele>
        <time>2022-04-03T13:03:05Z</time>
      </trkpt>
      <trkpt lat="45.90572" lon="0.66804">
        <ele>238.6</ele>
        <time>2022-04-03T13:03:06Z</time>
      </trkpt>
      <trkpt lat="45.90577" lon="0.66796">
        <ele>237.8</ele>
        <time>2022-04-03T13:03:07Z</time>
      </trkpt>
      <trkpt lat="45.90583" lon="0.66787">
        <ele>237.4</ele>
        <time>2022-04-03T13:03:08Z</time>
      </trkpt>
      <trkpt lat="45.90589" lon="0.66778">
        <ele>236.6</ele>
        <time>2022-04-03T13:03:09Z</time>
      </trkpt>
      <trkpt lat="45.90595" lon="0.66769">
        <ele>236.4</ele>
        <time>2022-04-03T13:03:10Z</time>
      </trkpt>
      <trkpt lat="45.90601" lon="0.6676">
        <ele>235.8</ele>
        <time>2022-04-03T13:03:11Z</time>
      </trkpt>
      <trkpt lat="45.90607" lon="0.6675">
        <ele>235.6</ele>
        <time>2022-04-03T13:03:12Z</time>
      </trkpt>
      <trkpt lat="45.90614" lon="0.6674">
        <ele>234.8</ele>
        <time>2022-04-03T13:03:13Z</time>
      </trkpt>
      <trkpt lat="45.9062" lon="0.6673">
        <ele>234.4</ele>
        <time>2022-04-03T13:03:14Z</time>
      </trkpt>
      <trkpt lat="45.90627" lon="0.6672">
        <ele>234</ele>
        <time>2022-04-03T13:03:15Z</time>
      </trkpt>
      <trkpt lat="45.90633" lon="0.6671">
        <ele>233.4</ele>
        <time>2022-04-03T13:03:16Z</time>
      </trkpt>
      <trkpt lat="45.9064" lon="0.667">
        <ele>232.8</ele>
        <time>2022-04-03T13:03:17Z</time>
      </trkpt>
      <trkpt lat="45.90647" lon="0.66689">
        <ele>232.2</ele>
        <time>2022-04-03T13:03:18Z</time>
      </trkpt>
      <trkpt lat="45.90654" lon="0.66678">
        <ele>231.2</ele>
        <time>2022-04-03T13:03:19Z</time>
      </trkpt>
      <trkpt lat="45.90661" lon="0.66667">
        <ele>231.2</ele>
        <time>2022-04-03T13:03:20Z</time>
      </trkpt>
      <trkpt lat="45.90668" lon="0.66656">
        <ele>230</ele>
        <time>2022-04-03T13:03:21Z</time>
      </trkpt>
      <trkpt lat="45.90675" lon="0.66645">
        <ele>229.2</ele>
        <time>2022-04-03T13:03:22Z</time>
      </trkpt>
      <trkpt lat="45.90683" lon="0.66634">
        <ele>228.4</ele>
        <time>2022-04-03T13:03:23Z</time>
      </trkpt>
      <trkpt lat="45.90691" lon="0.66624">
        <ele>227.8</ele>
        <time>2022-04-03T13:03:24Z</time>
      </trkpt>
      <trkpt lat="45.90699" lon="0.66614">
        <ele>227.2</ele>
        <time>2022-04-03T13:03:25Z</time>
      </trkpt>
      <trkpt lat="45.90708" lon="0.66603">
        <ele>226.6</ele>
        <time>2022-04-03T13:03:26Z</time>
      </trkpt>
      <trkpt lat="45.90716" lon="0.66592">
        <ele>225.4</ele>
        <time>2022-04-03T13:03:27Z</time>
      </trkpt>
      <trkpt lat="45.90724" lon="0.66581">
        <ele>224.8</ele>
        <time>2022-04-03T13:03:28Z</time>
      </trkpt>
      <trkpt lat="45.90732" lon="0.6657">
        <ele>223.8</ele>
        <time>2022-04-03T13:03:29Z</time>
      </trkpt>
      <trkpt lat="45.90741" lon="0.66559">
        <ele>222.8</ele>
        <time>2022-04-03T13:03:30Z</time>
      </trkpt>
      <trkpt lat="45.90749" lon="0.66548">
        <ele>222</ele>
        <time>2022-04-03T13:03:31Z</time>
      </trkpt>
      <trkpt lat="45.90757" lon="0.66537">
        <ele>221</ele>
        <time>2022-04-03T13:03:32Z</time>
      </trkpt>
      <trkpt lat="45.90765" lon="0.66526">
        <ele>219.8</ele>
        <time>2022-04-03T13:03:33Z</time>
      </trkpt>
      <trkpt lat="45.90773" lon="0.66515">
        <ele>218.6</ele>
        <time>2022-04-03T13:03:34Z</time>
      </trkpt>
      <trkpt lat="45.90782" lon="0.66505">
        <ele>217.6</ele>
        <time>2022-04-03T13:03:35Z</time>
      </trkpt>
      <trkpt lat="45.9079" lon="0.66494">
        <ele>216.6</ele>
        <time>2022-04-03T13:03:36Z</time>
      </trkpt>
      <trkpt lat="45.90798" lon="0.66483">
        <ele>216</ele>
        <time>2022-04-03T13:03:37Z</time>
      </trkpt>
      <trkpt lat="45.90806" lon="0.66473">
        <ele>215.4</ele>
        <time>2022-04-03T13:03:38Z</time>
      </trkpt>
      <trkpt lat="45.90814" lon="0.66462">
        <ele>215.4</ele>
        <time>2022-04-03T13:03:39Z</time>
      </trkpt>
      <trkpt lat="45.90822" lon="0.66452">
        <ele>214.8</ele>
        <time>2022-04-03T13:03:40Z</time>
      </trkpt>
      <trkpt lat="45.9083" lon="0.66442">
        <ele>214</ele>
        <time>2022-04-03T13:03:41Z</time>
      </trkpt>
      <trkpt lat="45.90837" lon="0.66432">
        <ele>213</ele>
        <time>2022-04-03T13:03:42Z</time>
      </trkpt>
      <trkpt lat="45.90845" lon="0.66422">
        <ele>212.6</ele>
        <time>2022-04-03T13:03:43Z</time>
      </trkpt>
      <trkpt lat="45.90853" lon="0.66411">
        <ele>211.8</ele>
        <time>2022-04-03T13:03:44Z</time>
      </trkpt>
      <trkpt lat="45.9086" lon="0.66401">
        <ele>210.8</ele>
        <time>2022-04-03T13:03:45Z</time>
      </trkpt>
      <trkpt lat="45.90868" lon="0.66391">
        <ele>210</ele>
        <time>2022-04-03T13:03:46Z</time>
      </trkpt>
      <trkpt lat="45.90875" lon="0.6638">
        <ele>209.2</ele>
        <time>2022-04-03T13:03:47Z</time>
      </trkpt>
      <trkpt lat="45.90882" lon="0.6637">
        <ele>208.6</ele>
        <time>2022-04-03T13:03:48Z</time>
      </trkpt>
      <trkpt lat="45.90888" lon="0.66359">
        <ele>208.2</ele>
        <time>2022-04-03T13:03:49Z</time>
      </trkpt>
      <trkpt lat="45.90895" lon="0.66349">
        <ele>208</ele>
        <time>2022-04-03T13:03:50Z</time>
      </trkpt>
      <trkpt lat="45.90902" lon="0.66339">
        <ele>207.6</ele>
        <time>2022-04-03T13:03:51Z</time>
      </trkpt>
      <trkpt lat="45.90908" lon="0.66329">
        <ele>207.2</ele>
        <time>2022-04-03T13:03:52Z</time>
      </trkpt>
      <trkpt lat="45.90915" lon="0.66319">
        <ele>207</ele>
        <time>2022-04-03T13:03:53Z</time>
      </trkpt>
      <trkpt lat="45.90921" lon="0.66308">
        <ele>205.8</ele>
        <time>2022-04-03T13:03:54Z</time>
      </trkpt>
      <trkpt lat="45.90928" lon="0.66298">
        <ele>204.8</ele>
        <time>2022-04-03T13:03:55Z</time>
      </trkpt>
      <trkpt lat="45.90934" lon="0.66288">
        <ele>204.6</ele>
        <time>2022-04-03T13:03:56Z</time>
      </trkpt>
      <trkpt lat="45.90941" lon="0.66279">
        <ele>204</ele>
        <time>2022-04-03T13:03:57Z</time>
      </trkpt>
      <trkpt lat="45.90946" lon="0.6627">
        <ele>204</ele>
        <time>2022-04-03T13:03:58Z</time>
      </trkpt>
      <trkpt lat="45.90951" lon="0.66262">
        <ele>203.6</ele>
        <time>2022-04-03T13:03:59Z</time>
      </trkpt>
      <trkpt lat="45.90956" lon="0.66255">
        <ele>203</ele>
        <time>2022-04-03T13:04:00Z</time>
      </trkpt>
      <trkpt lat="45.9096" lon="0.66248">
        <ele>202.6</ele>
        <time>2022-04-03T13:04:01Z</time>
      </trkpt>
      <trkpt lat="45.90965" lon="0.66241">
        <ele>202</ele>
        <time>2022-04-03T13:04:02Z</time>
      </trkpt>
      <trkpt lat="45.90969" lon="0.66234">
        <ele>201.8</ele>
        <time>2022-04-03T13:04:03Z</time>
      </trkpt>
      <trkpt lat="45.90974" lon="0.66227">
        <ele>201.6</ele>
        <time>2022-04-03T13:04:04Z</time>
      </trkpt>
      <trkpt lat="45.90979" lon="0.6622">
        <ele>201.4</ele>
        <time>2022-04-03T13:04:05Z</time>
      </trkpt>
      <trkpt lat="45.90984" lon="0.66213">
        <ele>201.4</ele>
        <time>2022-04-03T13:04:06Z</time>
      </trkpt>
      <trkpt lat="45.90988" lon="0.66205">
        <ele>201.2</ele>
        <time>2022-04-03T13:04:07Z</time>
      </trkpt>
      <trkpt lat="45.90993" lon="0.66198">
        <ele>201.2</ele>
        <time>2022-04-03T13:04:08Z</time>
      </trkpt>
      <trkpt lat="45.90999" lon="0.6619">
        <ele>201</ele>
        <time>2022-04-03T13:04:09Z</time>
      </trkpt>
      <trkpt lat="45.91004" lon="0.66183">
        <ele>200.8</ele>
        <time>2022-04-03T13:04:10Z</time>
      </trkpt>
      <trkpt lat="45.91009" lon="0.66176">
        <ele>200.8</ele>
        <time>2022-04-03T13:04:11Z</time>
      </trkpt>
      <trkpt lat="45.91015" lon="0.66169">
        <ele>200.8</ele>
        <time>2022-04-03T13:04:12Z</time>
      </trkpt>
      <trkpt lat="45.91021" lon="0.66162">
        <ele>200.4</ele>
        <time>2022-04-03T13:04:13Z</time>
      </trkpt>
      <trkpt lat="45.91027" lon="0.66156">
        <ele>200.2</ele>
        <time>2022-04-03T13:04:14Z</time>
      </trkpt>
      <trkpt lat="45.91033" lon="0.66149">
        <ele>200.2</ele>
        <time>2022-04-03T13:04:15Z</time>
      </trkpt>
      <trkpt lat="45.91039" lon="0.66143">
        <ele>200</ele>
        <time>2022-04-03T13:04:16Z</time>
      </trkpt>
      <trkpt lat="45.91046" lon="0.66137">
        <ele>200</ele>
        <time>2022-04-03T13:04:17Z</time>
      </trkpt>
      <trkpt lat="45.91052" lon="0.66131">
        <ele>199.8</ele>
        <time>2022-04-03T13:04:18Z</time>
      </trkpt>
      <trkpt lat="45.91059" lon="0.66126">
        <ele>199.4</ele>
        <time>2022-04-03T13:04:19Z</time>
      </trkpt>
      <trkpt lat="45.91066" lon="0.6612">
        <ele>199</ele>
        <time>2022-04-03T13:04:20Z</time>
      </trkpt>
      <trkpt lat="45.91073" lon="0.66114">
        <ele>198.4</ele>
        <time>2022-04-03T13:04:21Z</time>
      </trkpt>
      <trkpt lat="45.91081" lon="0.66108">
        <ele>197.8</ele>
        <time>2022-04-03T13:04:22Z</time>
      </trkpt>
      <trkpt lat="45.91088" lon="0.66101">
        <ele>197.4</ele>
        <time>2022-04-03T13:04:23Z</time>
      </trkpt>
      <trkpt lat="45.91096" lon="0.66095">
        <ele>196.6</ele>
        <time>2022-04-03T13:04:24Z</time>
      </trkpt>
      <trkpt lat="45.91104" lon="0.66088">
        <ele>196.4</ele>
        <time>2022-04-03T13:04:25Z</time>
      </trkpt>
      <trkpt lat="45.91112" lon="0.66082">
        <ele>195.6</ele>
        <time>2022-04-03T13:04:26Z</time>
      </trkpt>
      <trkpt lat="45.91119" lon="0.66075">
        <ele>195</ele>
        <time>2022-04-03T13:04:27Z</time>
      </trkpt>
      <trkpt lat="45.91127" lon="0.66068">
        <ele>194.6</ele>
        <time>2022-04-03T13:04:28Z</time>
      </trkpt>
      <trkpt lat="45.91135" lon="0.66061">
        <ele>194.4</ele>
        <time>2022-04-03T13:04:29Z</time>
      </trkpt>
      <trkpt lat="45.91143" lon="0.66054">
        <ele>194</ele>
        <time>2022-04-03T13:04:30Z</time>
      </trkpt>
      <trkpt lat="45.91151" lon="0.66047">
        <ele>193.4</ele>
        <time>2022-04-03T13:04:31Z</time>
      </trkpt>
      <trkpt lat="45.91159" lon="0.66039">
        <ele>193</ele>
        <time>2022-04-03T13:04:32Z</time>
      </trkpt>
      <trkpt lat="45.91166" lon="0.66031">
        <ele>192.4</ele>
        <time>2022-04-03T13:04:33Z</time>
      </trkpt>
      <trkpt lat="45.91174" lon="0.66023">
        <ele>192</ele>
        <time>2022-04-03T13:04:34Z</time>
      </trkpt>
      <trkpt lat="45.91181" lon="0.66015">
        <ele>192</ele>
        <time>2022-04-03T13:04:35Z</time>
      </trkpt>
      <trkpt lat="45.91188" lon="0.66008">
        <ele>191</ele>
        <time>2022-04-03T13:04:36Z</time>
      </trkpt>
      <trkpt lat="45.91195" lon="0.66">
        <ele>190.4</ele>
        <time>2022-04-03T13:04:37Z</time>
      </trkpt>
      <trkpt lat="45.91201" lon="0.65994">
        <ele>190.2</ele>
        <time>2022-04-03T13:04:38Z</time>
      </trkpt>
      <trkpt lat="45.91207" lon="0.65987">
        <ele>189.8</ele>
        <time>2022-04-03T13:04:39Z</time>
      </trkpt>
      <trkpt lat="45.91213" lon="0.65981">
        <ele>189</ele>
        <time>2022-04-03T13:04:40Z</time>
      </trkpt>
      <trkpt lat="45.91219" lon="0.65974">
        <ele>188</ele>
        <time>2022-04-03T13:04:41Z</time>
      </trkpt>
      <trkpt lat="45.91225" lon="0.65968">
        <ele>187.4</ele>
        <time>2022-04-03T13:04:42Z</time>
      </trkpt>
      <trkpt lat="45.9123" lon="0.65961">
        <ele>186.8</ele>
        <time>2022-04-03T13:04:43Z</time>
      </trkpt>
      <trkpt lat="45.91236" lon="0.65954">
        <ele>185.8</ele>
        <time>2022-04-03T13:04:44Z</time>
      </trkpt>
      <trkpt lat="45.91242" lon="0.65947">
        <ele>185.2</ele>
        <time>2022-04-03T13:04:45Z</time>
      </trkpt>
      <trkpt lat="45.91248" lon="0.6594">
        <ele>185</ele>
        <time>2022-04-03T13:04:46Z</time>
      </trkpt>
      <trkpt lat="45.91254" lon="0.65933">
        <ele>184.8</ele>
        <time>2022-04-03T13:04:47Z</time>
      </trkpt>
      <trkpt lat="45.9126" lon="0.65926">
        <ele>184.4</ele>
        <time>2022-04-03T13:04:48Z</time>
      </trkpt>
      <trkpt lat="45.91266" lon="0.65918">
        <ele>184.4</ele>
        <time>2022-04-03T13:04:49Z</time>
      </trkpt>
      <trkpt lat="45.91273" lon="0.65911">
        <ele>184.2</ele>
        <time>2022-04-03T13:04:50Z</time>
      </trkpt>
      <trkpt lat="45.91279" lon="0.65903">
        <ele>184</ele>
        <time>2022-04-03T13:04:51Z</time>
      </trkpt>
      <trkpt lat="45.91285" lon="0.65895">
        <ele>183.8</ele>
        <time>2022-04-03T13:04:52Z</time>
      </trkpt>
      <trkpt lat="45.91292" lon="0.65886">
        <ele>183.4</ele>
        <time>2022-04-03T13:04:53Z</time>
      </trkpt>
      <trkpt lat="45.91298" lon="0.65878">
        <ele>183.4</ele>
        <time>2022-04-03T13:04:54Z</time>
      </trkpt>
      <trkpt lat="45.91304" lon="0.65868">
        <ele>182.8</ele>
        <time>2022-04-03T13:04:55Z</time>
      </trkpt>
      <trkpt lat="45.9131" lon="0.65859">
        <ele>182.6</ele>
        <time>2022-04-03T13:04:56Z</time>
      </trkpt>
      <trkpt lat="45.91314" lon="0.65849">
        <ele>182.2</ele>
        <time>2022-04-03T13:04:57Z</time>
      </trkpt>
      <trkpt lat="45.91319" lon="0.6584">
        <ele>181.4</ele>
        <time>2022-04-03T13:04:58Z</time>
      </trkpt>
      <trkpt lat="45.91323" lon="0.65831">
        <ele>180.4</ele>
        <time>2022-04-03T13:04:59Z</time>
      </trkpt>
      <trkpt lat="45.91328" lon="0.65823">
        <ele>180</ele>
        <time>2022-04-03T13:05:00Z</time>
      </trkpt>
      <trkpt lat="45.91331" lon="0.65816">
        <ele>179.8</ele>
        <time>2022-04-03T13:05:01Z</time>
      </trkpt>
      <trkpt lat="45.91335" lon="0.65808">
        <ele>179.4</ele>
        <time>2022-04-03T13:05:02Z</time>
      </trkpt>
      <trkpt lat="45.91338" lon="0.658">
        <ele>179</ele>
        <time>2022-04-03T13:05:03Z</time>
      </trkpt>
      <trkpt lat="45.91341" lon="0.65791">
        <ele>178.6</ele>
        <time>2022-04-03T13:05:04Z</time>
      </trkpt>
      <trkpt lat="45.91344" lon="0.65781">
        <ele>178.4</ele>
        <time>2022-04-03T13:05:05Z</time>
      </trkpt>
      <trkpt lat="45.91347" lon="0.65771">
        <ele>177.8</ele>
        <time>2022-04-03T13:05:06Z</time>
      </trkpt>
      <trkpt lat="45.91351" lon="0.6576">
        <ele>177.2</ele>
        <time>2022-04-03T13:05:07Z</time>
      </trkpt>
      <trkpt lat="45.91355" lon="0.65749">
        <ele>176.8</ele>
        <time>2022-04-03T13:05:08Z</time>
      </trkpt>
      <trkpt lat="45.91359" lon="0.65738">
        <ele>176.4</ele>
        <time>2022-04-03T13:05:09Z</time>
      </trkpt>
      <trkpt lat="45.91363" lon="0.65727">
        <ele>176.4</ele>
        <time>2022-04-03T13:05:10Z</time>
      </trkpt>
      <trkpt lat="45.91368" lon="0.65716">
        <ele>175.6</ele>
        <time>2022-04-03T13:05:11Z</time>
      </trkpt>
      <trkpt lat="45.91374" lon="0.65705">
        <ele>175</ele>
        <time>2022-04-03T13:05:12Z</time>
      </trkpt>
      <trkpt lat="45.91379" lon="0.65693">
        <ele>175</ele>
        <time>2022-04-03T13:05:13Z</time>
      </trkpt>
      <trkpt lat="45.91384" lon="0.65682">
        <ele>173.8</ele>
        <time>2022-04-03T13:05:14Z</time>
      </trkpt>
      <trkpt lat="45.91388" lon="0.6567">
        <ele>173</ele>
        <time>2022-04-03T13:05:15Z</time>
      </trkpt>
      <trkpt lat="45.91392" lon="0.65657">
        <ele>172.4</ele>
        <time>2022-04-03T13:05:16Z</time>
      </trkpt>
      <trkpt lat="45.91395" lon="0.65645">
        <ele>171.4</ele>
        <time>2022-04-03T13:05:17Z</time>
      </trkpt>
      <trkpt lat="45.91397" lon="0.65632">
        <ele>170.8</ele>
        <time>2022-04-03T13:05:18Z</time>
      </trkpt>
      <trkpt lat="45.91398" lon="0.65619">
        <ele>170.2</ele>
        <time>2022-04-03T13:05:19Z</time>
      </trkpt>
      <trkpt lat="45.91398" lon="0.65606">
        <ele>169.4</ele>
        <time>2022-04-03T13:05:20Z</time>
      </trkpt>
      <trkpt lat="45.91396" lon="0.65593">
        <ele>168.6</ele>
        <time>2022-04-03T13:05:21Z</time>
      </trkpt>
      <trkpt lat="45.91394" lon="0.65581">
        <ele>167.8</ele>
        <time>2022-04-03T13:05:22Z</time>
      </trkpt>
      <trkpt lat="45.91392" lon="0.6557">
        <ele>167.2</ele>
        <time>2022-04-03T13:05:23Z</time>
      </trkpt>
      <trkpt lat="45.9139" lon="0.65559">
        <ele>166.8</ele>
        <time>2022-04-03T13:05:24Z</time>
      </trkpt>
      <trkpt lat="45.91388" lon="0.65548">
        <ele>166.6</ele>
        <time>2022-04-03T13:05:25Z</time>
      </trkpt>
      <trkpt lat="45.91386" lon="0.65537">
        <ele>166.6</ele>
        <time>2022-04-03T13:05:26Z</time>
      </trkpt>
      <trkpt lat="45.91384" lon="0.65527">
        <ele>166.6</ele>
        <time>2022-04-03T13:05:27Z</time>
      </trkpt>
      <trkpt lat="45.91383" lon="0.65517">
        <ele>166.6</ele>
        <time>2022-04-03T13:05:28Z</time>
      </trkpt>
      <trkpt lat="45.91382" lon="0.65507">
        <ele>166.4</ele>
        <time>2022-04-03T13:05:29Z</time>
      </trkpt>
      <trkpt lat="45.91381" lon="0.65498">
        <ele>166.4</ele>
        <time>2022-04-03T13:05:30Z</time>
      </trkpt>
      <trkpt lat="45.91381" lon="0.6549">
        <ele>166.4</ele>
        <time>2022-04-03T13:05:31Z</time>
      </trkpt>
      <trkpt lat="45.91382" lon="0.65482">
        <ele>166.4</ele>
        <time>2022-04-03T13:05:32Z</time>
      </trkpt>
      <trkpt lat="45.91384" lon="0.65474">
        <ele>166.6</ele>
        <time>2022-04-03T13:05:33Z</time>
      </trkpt>
      <trkpt lat="45.91387" lon="0.65469">
        <ele>166.4</ele>
        <time>2022-04-03T13:05:34Z</time>
      </trkpt>
      <trkpt lat="45.9139" lon="0.65465">
        <ele>166.6</ele>
        <time>2022-04-03T13:05:35Z</time>
      </trkpt>
      <trkpt lat="45.91393" lon="0.65462">
        <ele>167</ele>
        <time>2022-04-03T13:05:36Z</time>
      </trkpt>
      <trkpt lat="45.91397" lon="0.65459">
        <ele>167.4</ele>
        <time>2022-04-03T13:05:37Z</time>
      </trkpt>
      <trkpt lat="45.914" lon="0.65459">
        <ele>167.6</ele>
        <time>2022-04-03T13:05:38Z</time>
      </trkpt>
      <trkpt lat="45.91404" lon="0.65458">
        <ele>167.6</ele>
        <time>2022-04-03T13:05:39Z</time>
      </trkpt>
      <trkpt lat="45.91407" lon="0.65457">
        <ele>167.6</ele>
        <time>2022-04-03T13:05:40Z</time>
      </trkpt>
      <trkpt lat="45.9141" lon="0.65457">
        <ele>168</ele>
        <time>2022-04-03T13:05:41Z</time>
      </trkpt>
      <trkpt lat="45.91413" lon="0.65457">
        <ele>168.4</ele>
        <time>2022-04-03T13:05:42Z</time>
      </trkpt>
      <trkpt lat="45.91415" lon="0.65457">
        <ele>168.8</ele>
        <time>2022-04-03T13:05:43Z</time>
      </trkpt>
      <trkpt lat="45.91418" lon="0.65457">
        <ele>168.8</ele>
        <time>2022-04-03T13:05:44Z</time>
      </trkpt>
      <trkpt lat="45.9142" lon="0.65457">
        <ele>169.2</ele>
        <time>2022-04-03T13:05:45Z</time>
      </trkpt>
      <trkpt lat="45.91422" lon="0.65457">
        <ele>169.4</ele>
        <time>2022-04-03T13:05:46Z</time>
      </trkpt>
      <trkpt lat="45.91424" lon="0.65457">
        <ele>169.4</ele>
        <time>2022-04-03T13:05:47Z</time>
      </trkpt>
      <trkpt lat="45.91426" lon="0.65457">
        <ele>170</ele>
        <time>2022-04-03T13:05:48Z</time>
      </trkpt>
      <trkpt lat="45.91429" lon="0.65457">
        <ele>170.2</ele>
        <time>2022-04-03T13:05:49Z</time>
      </trkpt>
      <trkpt lat="45.91431" lon="0.65456">
        <ele>170.4</ele>
        <time>2022-04-03T13:05:50Z</time>
      </trkpt>
      <trkpt lat="45.91433" lon="0.65456">
        <ele>170.4</ele>
        <time>2022-04-03T13:05:51Z</time>
      </trkpt>
      <trkpt lat="45.91435" lon="0.65455">
        <ele>170.8</ele>
        <time>2022-04-03T13:05:52Z</time>
      </trkpt>
      <trkpt lat="45.91437" lon="0.65455">
        <ele>171.2</ele>
        <time>2022-04-03T13:05:53Z</time>
      </trkpt>
      <trkpt lat="45.91439" lon="0.65455">
        <ele>171.4</ele>
        <time>2022-04-03T13:05:54Z</time>
      </trkpt>
      <trkpt lat="45.91441" lon="0.65455">
        <ele>171.6</ele>
        <time>2022-04-03T13:05:55Z</time>
      </trkpt>
      <trkpt lat="45.91443" lon="0.65455">
        <ele>171.6</ele>
        <time>2022-04-03T13:05:56Z</time>
      </trkpt>
      <trkpt lat="45.91446" lon="0.65455">
        <ele>172</ele>
        <time>2022-04-03T13:05:57Z</time>
      </trkpt>
      <trkpt lat="45.91448" lon="0.65455">
        <ele>172.2</ele>
        <time>2022-04-03T13:05:58Z</time>
      </trkpt>
      <trkpt lat="45.9145" lon="0.65455">
        <ele>172.6</ele>
        <time>2022-04-03T13:05:59Z</time>
      </trkpt>
      <trkpt lat="45.91452" lon="0.65455">
        <ele>172.6</ele>
        <time>2022-04-03T13:06:00Z</time>
      </trkpt>
      <trkpt lat="45.91454" lon="0.65455">
        <ele>172.8</ele>
        <time>2022-04-03T13:06:01Z</time>
      </trkpt>
      <trkpt lat="45.91456" lon="0.65455">
        <ele>173</ele>
        <time>2022-04-03T13:06:02Z</time>
      </trkpt>
      <trkpt lat="45.91458" lon="0.65455">
        <ele>173</ele>
        <time>2022-04-03T13:06:03Z</time>
      </trkpt>
      <trkpt lat="45.9146" lon="0.65455">
        <ele>173.2</ele>
        <time>2022-04-03T13:06:04Z</time>
      </trkpt>
      <trkpt lat="45.91462" lon="0.65455">
        <ele>173.2</ele>
        <time>2022-04-03T13:06:05Z</time>
      </trkpt>
      <trkpt lat="45.91464" lon="0.65455">
        <ele>173.4</ele>
        <time>2022-04-03T13:06:06Z</time>
      </trkpt>
      <trkpt lat="45.91465" lon="0.65455">
        <ele>173.6</ele>
        <time>2022-04-03T13:06:07Z</time>
      </trkpt>
      <trkpt lat="45.91467" lon="0.65455">
        <ele>173.8</ele>
        <time>2022-04-03T13:06:08Z</time>
      </trkpt>
      <trkpt lat="45.91469" lon="0.65456">
        <ele>173.8</ele>
        <time>2022-04-03T13:06:09Z</time>
      </trkpt>
      <trkpt lat="45.91471" lon="0.65456">
        <ele>174</ele>
        <time>2022-04-03T13:06:10Z</time>
      </trkpt>
      <trkpt lat="45.91473" lon="0.65457">
        <ele>174</ele>
        <time>2022-04-03T13:06:11Z</time>
      </trkpt>
      <trkpt lat="45.91475" lon="0.65458">
        <ele>174.4</ele>
        <time>2022-04-03T13:06:12Z</time>
      </trkpt>
      <trkpt lat="45.91476" lon="0.65458">
        <ele>174.6</ele>
        <time>2022-04-03T13:06:13Z</time>
      </trkpt>
      <trkpt lat="45.91478" lon="0.65459">
        <ele>174.6</ele>
        <time>2022-04-03T13:06:14Z</time>
      </trkpt>
      <trkpt lat="45.9148" lon="0.65459">
        <ele>174.8</ele>
        <time>2022-04-03T13:06:15Z</time>
      </trkpt>
      <trkpt lat="45.91482" lon="0.6546">
        <ele>175.2</ele>
        <time>2022-04-03T13:06:16Z</time>
      </trkpt>
      <trkpt lat="45.91484" lon="0.6546">
        <ele>175.2</ele>
        <time>2022-04-03T13:06:17Z</time>
      </trkpt>
      <trkpt lat="45.91485" lon="0.6546">
        <ele>175.4</ele>
        <time>2022-04-03T13:06:18Z</time>
      </trkpt>
      <trkpt lat="45.91487" lon="0.65461">
        <ele>175.4</ele>
        <time>2022-04-03T13:06:19Z</time>
      </trkpt>
      <trkpt lat="45.91489" lon="0.65462">
        <ele>175.8</ele>
        <time>2022-04-03T13:06:20Z</time>
      </trkpt>
      <trkpt lat="45.91491" lon="0.65462">
        <ele>176</ele>
        <time>2022-04-03T13:06:21Z</time>
      </trkpt>
      <trkpt lat="45.91493" lon="0.65463">
        <ele>176</ele>
        <time>2022-04-03T13:06:22Z</time>
      </trkpt>
      <trkpt lat="45.91495" lon="0.65463">
        <ele>176</ele>
        <time>2022-04-03T13:06:23Z</time>
      </trkpt>
      <trkpt lat="45.91497" lon="0.65464">
        <ele>176</ele>
        <time>2022-04-03T13:06:24Z</time>
      </trkpt>
      <trkpt lat="45.91499" lon="0.65464">
        <ele>176.2</ele>
        <time>2022-04-03T13:06:25Z</time>
      </trkpt>
      <trkpt lat="45.915" lon="0.65464">
        <ele>176.2</ele>
        <time>2022-04-03T13:06:26Z</time>
      </trkpt>
      <trkpt lat="45.91502" lon="0.65465">
        <ele>176.4</ele>
        <time>2022-04-03T13:06:27Z</time>
      </trkpt>
      <trkpt lat="45.91504" lon="0.65465">
        <ele>176.6</ele>
        <time>2022-04-03T13:06:28Z</time>
      </trkpt>
      <trkpt lat="45.91505" lon="0.65465">
        <ele>176.6</ele>
        <time>2022-04-03T13:06:29Z</time>
      </trkpt>
      <trkpt lat="45.91507" lon="0.65466">
        <ele>176.6</ele>
        <time>2022-04-03T13:06:30Z</time>
      </trkpt>
      <trkpt lat="45.91509" lon="0.65466">
        <ele>177</ele>
        <time>2022-04-03T13:06:31Z</time>
      </trkpt>
      <trkpt lat="45.91511" lon="0.65466">
        <ele>177.4</ele>
        <time>2022-04-03T13:06:32Z</time>
      </trkpt>
      <trkpt lat="45.91513" lon="0.65466">
        <ele>177.4</ele>
        <time>2022-04-03T13:06:33Z</time>
      </trkpt>
      <trkpt lat="45.91515" lon="0.65466">
        <ele>177.4</ele>
        <time>2022-04-03T13:06:34Z</time>
      </trkpt>
      <trkpt lat="45.91517" lon="0.65467">
        <ele>177.6</ele>
        <time>2022-04-03T13:06:35Z</time>
      </trkpt>
      <trkpt lat="45.91519" lon="0.65467">
        <ele>177.6</ele>
        <time>2022-04-03T13:06:36Z</time>
      </trkpt>
      <trkpt lat="45.91521" lon="0.65468">
        <ele>177.8</ele>
        <time>2022-04-03T13:06:37Z</time>
      </trkpt>
      <trkpt lat="45.91522" lon="0.65468">
        <ele>177.8</ele>
        <time>2022-04-03T13:06:38Z</time>
      </trkpt>
      <trkpt lat="45.91524" lon="0.65469">
        <ele>177.8</ele>
        <time>2022-04-03T13:06:39Z</time>
      </trkpt>
      <trkpt lat="45.91526" lon="0.65469">
        <ele>178.2</ele>
        <time>2022-04-03T13:06:40Z</time>
      </trkpt>
      <trkpt lat="45.91528" lon="0.6547">
        <ele>178.4</ele>
        <time>2022-04-03T13:06:41Z</time>
      </trkpt>
      <trkpt lat="45.9153" lon="0.65471">
        <ele>178.4</ele>
        <time>2022-04-03T13:06:42Z</time>
      </trkpt>
      <trkpt lat="45.91532" lon="0.65471">
        <ele>178.6</ele>
        <time>2022-04-03T13:06:43Z</time>
      </trkpt>
      <trkpt lat="45.91534" lon="0.65472">
        <ele>179</ele>
        <time>2022-04-03T13:06:44Z</time>
      </trkpt>
      <trkpt lat="45.91536" lon="0.65472">
        <ele>179</ele>
        <time>2022-04-03T13:06:45Z</time>
      </trkpt>
      <trkpt lat="45.91538" lon="0.65473">
        <ele>179.2</ele>
        <time>2022-04-03T13:06:46Z</time>
      </trkpt>
      <trkpt lat="45.9154" lon="0.65473">
        <ele>179.4</ele>
        <time>2022-04-03T13:06:47Z</time>
      </trkpt>
      <trkpt lat="45.91542" lon="0.65473">
        <ele>179.4</ele>
        <time>2022-04-03T13:06:48Z</time>
      </trkpt>
      <trkpt lat="45.91544" lon="0.65474">
        <ele>179.6</ele>
        <time>2022-04-03T13:06:49Z</time>
      </trkpt>
      <trkpt lat="45.91546" lon="0.65474">
        <ele>179.8</ele>
        <time>2022-04-03T13:06:50Z</time>
      </trkpt>
      <trkpt lat="45.91548" lon="0.65475">
        <ele>180</ele>
        <time>2022-04-03T13:06:51Z</time>
      </trkpt>
      <trkpt lat="45.9155" lon="0.65475">
        <ele>180.4</ele>
        <time>2022-04-03T13:06:52Z</time>
      </trkpt>
      <trkpt lat="45.91552" lon="0.65475">
        <ele>180.4</ele>
        <time>2022-04-03T13:06:53Z</time>
      </trkpt>
      <trkpt lat="45.91553" lon="0.65476">
        <ele>180.6</ele>
        <time>2022-04-03T13:06:54Z</time>
      </trkpt>
      <trkpt lat="45.91556" lon="0.65477">
        <ele>180.8</ele>
        <time>2022-04-03T13:06:55Z</time>
      </trkpt>
      <trkpt lat="45.91558" lon="0.65478">
        <ele>181</ele>
        <time>2022-04-03T13:06:56Z</time>
      </trkpt>
      <trkpt lat="45.91561" lon="0.65479">
        <ele>181</ele>
        <time>2022-04-03T13:06:57Z</time>
      </trkpt>
      <trkpt lat="45.91563" lon="0.6548">
        <ele>181.2</ele>
        <time>2022-04-03T13:06:58Z</time>
      </trkpt>
      <trkpt lat="45.91565" lon="0.65482">
        <ele>181.4</ele>
        <time>2022-04-03T13:06:59Z</time>
      </trkpt>
      <trkpt lat="45.91568" lon="0.65484">
        <ele>181.8</ele>
        <time>2022-04-03T13:07:00Z</time>
      </trkpt>
      <trkpt lat="45.9157" lon="0.65485">
        <ele>182</ele>
        <time>2022-04-03T13:07:01Z</time>
      </trkpt>
      <trkpt lat="45.91573" lon="0.65486">
        <ele>182.2</ele>
        <time>2022-04-03T13:07:02Z</time>
      </trkpt>
      <trkpt lat="45.91575" lon="0.65488">
        <ele>182.4</ele>
        <time>2022-04-03T13:07:03Z</time>
      </trkpt>
      <trkpt lat="45.91577" lon="0.65489">
        <ele>182.2</ele>
        <time>2022-04-03T13:07:04Z</time>
      </trkpt>
      <trkpt lat="45.91579" lon="0.6549">
        <ele>182.4</ele>
        <time>2022-04-03T13:07:05Z</time>
      </trkpt>
      <trkpt lat="45.91581" lon="0.65491">
        <ele>182.6</ele>
        <time>2022-04-03T13:07:06Z</time>
      </trkpt>
      <trkpt lat="45.91583" lon="0.65492">
        <ele>182.6</ele>
        <time>2022-04-03T13:07:07Z</time>
      </trkpt>
      <trkpt lat="45.91585" lon="0.65493">
        <ele>182.6</ele>
        <time>2022-04-03T13:07:08Z</time>
      </trkpt>
      <trkpt lat="45.91587" lon="0.65494">
        <ele>182.8</ele>
        <time>2022-04-03T13:07:09Z</time>
      </trkpt>
      <trkpt lat="45.91589" lon="0.65495">
        <ele>182.8</ele>
        <time>2022-04-03T13:07:10Z</time>
      </trkpt>
      <trkpt lat="45.91592" lon="0.65495">
        <ele>183</ele>
        <time>2022-04-03T13:07:11Z</time>
      </trkpt>
      <trkpt lat="45.91594" lon="0.65496">
        <ele>183</ele>
        <time>2022-04-03T13:07:12Z</time>
      </trkpt>
      <trkpt lat="45.91596" lon="0.65498">
        <ele>183.2</ele>
        <time>2022-04-03T13:07:13Z</time>
      </trkpt>
      <trkpt lat="45.91598" lon="0.65499">
        <ele>183.2</ele>
        <time>2022-04-03T13:07:14Z</time>
      </trkpt>
      <trkpt lat="45.916" lon="0.65501">
        <ele>183.6</ele>
        <time>2022-04-03T13:07:15Z</time>
      </trkpt>
      <trkpt lat="45.91602" lon="0.65502">
        <ele>183.8</ele>
        <time>2022-04-03T13:07:16Z</time>
      </trkpt>
      <trkpt lat="45.91604" lon="0.65503">
        <ele>183.8</ele>
        <time>2022-04-03T13:07:17Z</time>
      </trkpt>
      <trkpt lat="45.91606" lon="0.65504">
        <ele>183.8</ele>
        <time>2022-04-03T13:07:18Z</time>
      </trkpt>
      <trkpt lat="45.91609" lon="0.65505">
        <ele>184</ele>
        <time>2022-04-03T13:07:19Z</time>
      </trkpt>
      <trkpt lat="45.91611" lon="0.65506">
        <ele>184.2</ele>
        <time>2022-04-03T13:07:20Z</time>
      </trkpt>
      <trkpt lat="45.91613" lon="0.65507">
        <ele>184</ele>
        <time>2022-04-03T13:07:21Z</time>
      </trkpt>
      <trkpt lat="45.91615" lon="0.65508">
        <ele>184</ele>
        <time>2022-04-03T13:07:22Z</time>
      </trkpt>
      <trkpt lat="45.91617" lon="0.65509">
        <ele>184.2</ele>
        <time>2022-04-03T13:07:23Z</time>
      </trkpt>
      <trkpt lat="45.91619" lon="0.6551">
        <ele>184.2</ele>
        <time>2022-04-03T13:07:24Z</time>
      </trkpt>
      <trkpt lat="45.91621" lon="0.65511">
        <ele>184.2</ele>
        <time>2022-04-03T13:07:25Z</time>
      </trkpt>
      <trkpt lat="45.91623" lon="0.65512">
        <ele>184.2</ele>
        <time>2022-04-03T13:07:26Z</time>
      </trkpt>
      <trkpt lat="45.91625" lon="0.65513">
        <ele>184.6</ele>
        <time>2022-04-03T13:07:27Z</time>
      </trkpt>
      <trkpt lat="45.91628" lon="0.65514">
        <ele>184.8</ele>
        <time>2022-04-03T13:07:28Z</time>
      </trkpt>
      <trkpt lat="45.9163" lon="0.65516">
        <ele>185</ele>
        <time>2022-04-03T13:07:29Z</time>
      </trkpt>
      <trkpt lat="45.91632" lon="0.65516">
        <ele>185.4</ele>
        <time>2022-04-03T13:07:30Z</time>
      </trkpt>
      <trkpt lat="45.91635" lon="0.65517">
        <ele>185.6</ele>
        <time>2022-04-03T13:07:31Z</time>
      </trkpt>
      <trkpt lat="45.91637" lon="0.65518">
        <ele>185.8</ele>
        <time>2022-04-03T13:07:32Z</time>
      </trkpt>
      <trkpt lat="45.91639" lon="0.65519">
        <ele>186</ele>
        <time>2022-04-03T13:07:33Z</time>
      </trkpt>
      <trkpt lat="45.91642" lon="0.6552">
        <ele>186</ele>
        <time>2022-04-03T13:07:34Z</time>
      </trkpt>
      <trkpt lat="45.91644" lon="0.65521">
        <ele>186</ele>
        <time>2022-04-03T13:07:35Z</time>
      </trkpt>
      <trkpt lat="45.91646" lon="0.65521">
        <ele>186</ele>
        <time>2022-04-03T13:07:36Z</time>
      </trkpt>
      <trkpt lat="45.91649" lon="0.65522">
        <ele>186</ele>
        <time>2022-04-03T13:07:37Z</time>
      </trkpt>
      <trkpt lat="45.91651" lon="0.65522">
        <ele>186</ele>
        <time>2022-04-03T13:07:38Z</time>
      </trkpt>
      <trkpt lat="45.91654" lon="0.65523">
        <ele>186</ele>
        <time>2022-04-03T13:07:39Z</time>
      </trkpt>
      <trkpt lat="45.91656" lon="0.65523">
        <ele>186</ele>
        <time>2022-04-03T13:07:40Z</time>
      </trkpt>
      <trkpt lat="45.91659" lon="0.65523">
        <ele>186.2</ele>
        <time>2022-04-03T13:07:41Z</time>
      </trkpt>
      <trkpt lat="45.91661" lon="0.65523">
        <ele>186.6</ele>
        <time>2022-04-03T13:07:42Z</time>
      </trkpt>
      <trkpt lat="45.91663" lon="0.65523">
        <ele>186.8</ele>
        <time>2022-04-03T13:07:43Z</time>
      </trkpt>
      <trkpt lat="45.91665" lon="0.65523">
        <ele>187</ele>
        <time>2022-04-03T13:07:44Z</time>
      </trkpt>
      <trkpt lat="45.91668" lon="0.65523">
        <ele>187</ele>
        <time>2022-04-03T13:07:45Z</time>
      </trkpt>
      <trkpt lat="45.9167" lon="0.65523">
        <ele>187</ele>
        <time>2022-04-03T13:07:46Z</time>
      </trkpt>
      <trkpt lat="45.91673" lon="0.65522">
        <ele>187</ele>
        <time>2022-04-03T13:07:47Z</time>
      </trkpt>
      <trkpt lat="45.91676" lon="0.65522">
        <ele>187.2</ele>
        <time>2022-04-03T13:07:48Z</time>
      </trkpt>
      <trkpt lat="45.91682" lon="0.6552">
        <ele>187.2</ele>
        <time>2022-04-03T13:07:50Z</time>
      </trkpt>
      <trkpt lat="45.91685" lon="0.65518">
        <ele>187</ele>
        <time>2022-04-03T13:07:51Z</time>
      </trkpt>
      <trkpt lat="45.91689" lon="0.65518">
        <ele>187.2</ele>
        <time>2022-04-03T13:07:52Z</time>
      </trkpt>
      <trkpt lat="45.91693" lon="0.65516">
        <ele>187</ele>
        <time>2022-04-03T13:07:53Z</time>
      </trkpt>
      <trkpt lat="45.91696" lon="0.65514">
        <ele>187</ele>
        <time>2022-04-03T13:07:54Z</time>
      </trkpt>
      <trkpt lat="45.917" lon="0.65512">
        <ele>187</ele>
        <time>2022-04-03T13:07:55Z</time>
      </trkpt>
      <trkpt lat="45.91704" lon="0.6551">
        <ele>187</ele>
        <time>2022-04-03T13:07:56Z</time>
      </trkpt>
      <trkpt lat="45.91708" lon="0.65508">
        <ele>186.8</ele>
        <time>2022-04-03T13:07:57Z</time>
      </trkpt>
      <trkpt lat="45.91712" lon="0.65506">
        <ele>186.6</ele>
        <time>2022-04-03T13:07:58Z</time>
      </trkpt>
      <trkpt lat="45.91717" lon="0.65505">
        <ele>186.6</ele>
        <time>2022-04-03T13:07:59Z</time>
      </trkpt>
      <trkpt lat="45.91722" lon="0.65503">
        <ele>186.2</ele>
        <time>2022-04-03T13:08:00Z</time>
      </trkpt>
      <trkpt lat="45.91726" lon="0.65501">
        <ele>186</ele>
        <time>2022-04-03T13:08:01Z</time>
      </trkpt>
      <trkpt lat="45.91731" lon="0.65499">
        <ele>186</ele>
        <time>2022-04-03T13:08:02Z</time>
      </trkpt>
      <trkpt lat="45.91736" lon="0.65496">
        <ele>185.8</ele>
        <time>2022-04-03T13:08:03Z</time>
      </trkpt>
      <trkpt lat="45.91741" lon="0.65494">
        <ele>185.8</ele>
        <time>2022-04-03T13:08:04Z</time>
      </trkpt>
      <trkpt lat="45.91746" lon="0.65491">
        <ele>185.6</ele>
        <time>2022-04-03T13:08:05Z</time>
      </trkpt>
      <trkpt lat="45.91751" lon="0.65488">
        <ele>185.4</ele>
        <time>2022-04-03T13:08:06Z</time>
      </trkpt>
      <trkpt lat="45.91757" lon="0.65486">
        <ele>185.2</ele>
        <time>2022-04-03T13:08:07Z</time>
      </trkpt>
      <trkpt lat="45.91762" lon="0.65483">
        <ele>185</ele>
        <time>2022-04-03T13:08:08Z</time>
      </trkpt>
      <trkpt lat="45.91767" lon="0.65481">
        <ele>184.8</ele>
        <time>2022-04-03T13:08:09Z</time>
      </trkpt>
      <trkpt lat="45.91773" lon="0.65479">
        <ele>184.2</ele>
        <time>2022-04-03T13:08:10Z</time>
      </trkpt>
      <trkpt lat="45.91779" lon="0.65476">
        <ele>183.8</ele>
        <time>2022-04-03T13:08:11Z</time>
      </trkpt>
      <trkpt lat="45.91785" lon="0.65474">
        <ele>183.8</ele>
        <time>2022-04-03T13:08:12Z</time>
      </trkpt>
      <trkpt lat="45.91791" lon="0.65471">
        <ele>183.8</ele>
        <time>2022-04-03T13:08:13Z</time>
      </trkpt>
      <trkpt lat="45.91797" lon="0.65468">
        <ele>183.2</ele>
        <time>2022-04-03T13:08:14Z</time>
      </trkpt>
      <trkpt lat="45.91803" lon="0.65465">
        <ele>183</ele>
        <time>2022-04-03T13:08:15Z</time>
      </trkpt>
      <trkpt lat="45.91809" lon="0.65461">
        <ele>182.4</ele>
        <time>2022-04-03T13:08:16Z</time>
      </trkpt>
      <trkpt lat="45.91814" lon="0.65457">
        <ele>181.8</ele>
        <time>2022-04-03T13:08:17Z</time>
      </trkpt>
      <trkpt lat="45.9182" lon="0.65452">
        <ele>181.4</ele>
        <time>2022-04-03T13:08:18Z</time>
      </trkpt>
      <trkpt lat="45.91825" lon="0.65446">
        <ele>181</ele>
        <time>2022-04-03T13:08:19Z</time>
      </trkpt>
      <trkpt lat="45.9183" lon="0.6544">
        <ele>180.6</ele>
        <time>2022-04-03T13:08:20Z</time>
      </trkpt>
      <trkpt lat="45.91835" lon="0.65434">
        <ele>180.4</ele>
        <time>2022-04-03T13:08:21Z</time>
      </trkpt>
      <trkpt lat="45.9184" lon="0.65428">
        <ele>179.8</ele>
        <time>2022-04-03T13:08:22Z</time>
      </trkpt>
      <trkpt lat="45.91845" lon="0.65422">
        <ele>179.8</ele>
        <time>2022-04-03T13:08:23Z</time>
      </trkpt>
      <trkpt lat="45.9185" lon="0.65417">
        <ele>179.4</ele>
        <time>2022-04-03T13:08:24Z</time>
      </trkpt>
      <trkpt lat="45.91855" lon="0.65411">
        <ele>179</ele>
        <time>2022-04-03T13:08:25Z</time>
      </trkpt>
      <trkpt lat="45.9186" lon="0.65406">
        <ele>178.8</ele>
        <time>2022-04-03T13:08:26Z</time>
      </trkpt>
      <trkpt lat="45.91865" lon="0.65402">
        <ele>178.6</ele>
        <time>2022-04-03T13:08:27Z</time>
      </trkpt>
      <trkpt lat="45.9187" lon="0.65398">
        <ele>178.4</ele>
        <time>2022-04-03T13:08:28Z</time>
      </trkpt>
      <trkpt lat="45.91876" lon="0.65395">
        <ele>178.2</ele>
        <time>2022-04-03T13:08:29Z</time>
      </trkpt>
      <trkpt lat="45.91881" lon="0.65392">
        <ele>178.2</ele>
        <time>2022-04-03T13:08:30Z</time>
      </trkpt>
      <trkpt lat="45.91886" lon="0.6539">
        <ele>178.2</ele>
        <time>2022-04-03T13:08:31Z</time>
      </trkpt>
      <trkpt lat="45.91891" lon="0.65388">
        <ele>178.2</ele>
        <time>2022-04-03T13:08:32Z</time>
      </trkpt>
      <trkpt lat="45.91896" lon="0.65386">
        <ele>178.2</ele>
        <time>2022-04-03T13:08:33Z</time>
      </trkpt>
      <trkpt lat="45.91901" lon="0.65384">
        <ele>178.2</ele>
        <time>2022-04-03T13:08:34Z</time>
      </trkpt>
      <trkpt lat="45.91905" lon="0.65382">
        <ele>177.8</ele>
        <time>2022-04-03T13:08:35Z</time>
      </trkpt>
      <trkpt lat="45.9191" lon="0.6538">
        <ele>178</ele>
        <time>2022-04-03T13:08:36Z</time>
      </trkpt>
      <trkpt lat="45.91914" lon="0.65379">
        <ele>178</ele>
        <time>2022-04-03T13:08:37Z</time>
      </trkpt>
      <trkpt lat="45.91918" lon="0.65377">
        <ele>178</ele>
        <time>2022-04-03T13:08:38Z</time>
      </trkpt>
      <trkpt lat="45.91922" lon="0.65376">
        <ele>178</ele>
        <time>2022-04-03T13:08:39Z</time>
      </trkpt>
      <trkpt lat="45.91926" lon="0.65375">
        <ele>178.2</ele>
        <time>2022-04-03T13:08:40Z</time>
      </trkpt>
      <trkpt lat="45.91929" lon="0.65374">
        <ele>178.2</ele>
        <time>2022-04-03T13:08:41Z</time>
      </trkpt>
      <trkpt lat="45.91933" lon="0.65373">
        <ele>178.2</ele>
        <time>2022-04-03T13:08:42Z</time>
      </trkpt>
      <trkpt lat="45.91936" lon="0.65372">
        <ele>178.2</ele>
        <time>2022-04-03T13:08:43Z</time>
      </trkpt>
      <trkpt lat="45.91939" lon="0.65371">
        <ele>178.2</ele>
        <time>2022-04-03T13:08:44Z</time>
      </trkpt>
      <trkpt lat="45.91943" lon="0.6537">
        <ele>178.2</ele>
        <time>2022-04-03T13:08:45Z</time>
      </trkpt>
      <trkpt lat="45.91946" lon="0.65369">
        <ele>178.4</ele>
        <time>2022-04-03T13:08:46Z</time>
      </trkpt>
      <trkpt lat="45.91949" lon="0.65368">
        <ele>178.6</ele>
        <time>2022-04-03T13:08:47Z</time>
      </trkpt>
      <trkpt lat="45.91952" lon="0.65366">
        <ele>178.6</ele>
        <time>2022-04-03T13:08:48Z</time>
      </trkpt>
      <trkpt lat="45.91954" lon="0.65365">
        <ele>178.8</ele>
        <time>2022-04-03T13:08:49Z</time>
      </trkpt>
      <trkpt lat="45.91957" lon="0.65364">
        <ele>179</ele>
        <time>2022-04-03T13:08:50Z</time>
      </trkpt>
      <trkpt lat="45.9196" lon="0.65364">
        <ele>179</ele>
        <time>2022-04-03T13:08:51Z</time>
      </trkpt>
      <trkpt lat="45.91963" lon="0.65363">
        <ele>179</ele>
        <time>2022-04-03T13:08:52Z</time>
      </trkpt>
      <trkpt lat="45.91965" lon="0.65362">
        <ele>179.2</ele>
        <time>2022-04-03T13:08:53Z</time>
      </trkpt>
      <trkpt lat="45.91968" lon="0.65361">
        <ele>179.4</ele>
        <time>2022-04-03T13:08:54Z</time>
      </trkpt>
      <trkpt lat="45.91971" lon="0.6536">
        <ele>179.4</ele>
        <time>2022-04-03T13:08:55Z</time>
      </trkpt>
      <trkpt lat="45.91973" lon="0.65359">
        <ele>179.6</ele>
        <time>2022-04-03T13:08:56Z</time>
      </trkpt>
      <trkpt lat="45.91976" lon="0.65358">
        <ele>179.8</ele>
        <time>2022-04-03T13:08:57Z</time>
      </trkpt>
      <trkpt lat="45.91979" lon="0.65358">
        <ele>179.8</ele>
        <time>2022-04-03T13:08:58Z</time>
      </trkpt>
      <trkpt lat="45.91981" lon="0.65357">
        <ele>180.2</ele>
        <time>2022-04-03T13:08:59Z</time>
      </trkpt>
      <trkpt lat="45.91984" lon="0.65356">
        <ele>180.2</ele>
        <time>2022-04-03T13:09:00Z</time>
      </trkpt>
      <trkpt lat="45.91986" lon="0.65355">
        <ele>180.2</ele>
        <time>2022-04-03T13:09:01Z</time>
      </trkpt>
      <trkpt lat="45.91989" lon="0.65354">
        <ele>180.6</ele>
        <time>2022-04-03T13:09:02Z</time>
      </trkpt>
      <trkpt lat="45.91991" lon="0.65353">
        <ele>181</ele>
        <time>2022-04-03T13:09:03Z</time>
      </trkpt>
      <trkpt lat="45.91994" lon="0.65353">
        <ele>181</ele>
        <time>2022-04-03T13:09:04Z</time>
      </trkpt>
      <trkpt lat="45.91996" lon="0.65352">
        <ele>181</ele>
        <time>2022-04-03T13:09:05Z</time>
      </trkpt>
      <trkpt lat="45.91999" lon="0.65351">
        <ele>181.2</ele>
        <time>2022-04-03T13:09:06Z</time>
      </trkpt>
      <trkpt lat="45.92001" lon="0.6535">
        <ele>181.6</ele>
        <time>2022-04-03T13:09:07Z</time>
      </trkpt>
      <trkpt lat="45.92004" lon="0.65349">
        <ele>182</ele>
        <time>2022-04-03T13:09:08Z</time>
      </trkpt>
      <trkpt lat="45.92006" lon="0.65348">
        <ele>182.2</ele>
        <time>2022-04-03T13:09:09Z</time>
      </trkpt>
      <trkpt lat="45.92009" lon="0.65347">
        <ele>182.6</ele>
        <time>2022-04-03T13:09:10Z</time>
      </trkpt>
      <trkpt lat="45.92011" lon="0.65346">
        <ele>182.8</ele>
        <time>2022-04-03T13:09:11Z</time>
      </trkpt>
      <trkpt lat="45.92014" lon="0.65345">
        <ele>182.8</ele>
        <time>2022-04-03T13:09:12Z</time>
      </trkpt>
      <trkpt lat="45.92016" lon="0.65345">
        <ele>182.8</ele>
        <time>2022-04-03T13:09:13Z</time>
      </trkpt>
      <trkpt lat="45.92019" lon="0.65344">
        <ele>183</ele>
        <time>2022-04-03T13:09:14Z</time>
      </trkpt>
      <trkpt lat="45.92021" lon="0.65343">
        <ele>183</ele>
        <time>2022-04-03T13:09:15Z</time>
      </trkpt>
      <trkpt lat="45.92024" lon="0.65342">
        <ele>183.2</ele>
        <time>2022-04-03T13:09:16Z</time>
      </trkpt>
      <trkpt lat="45.92026" lon="0.65341">
        <ele>183.2</ele>
        <time>2022-04-03T13:09:17Z</time>
      </trkpt>
      <trkpt lat="45.92028" lon="0.6534">
        <ele>183.4</ele>
        <time>2022-04-03T13:09:18Z</time>
      </trkpt>
      <trkpt lat="45.92031" lon="0.65339">
        <ele>183.8</ele>
        <time>2022-04-03T13:09:19Z</time>
      </trkpt>
      <trkpt lat="45.92033" lon="0.65339">
        <ele>183.8</ele>
        <time>2022-04-03T13:09:20Z</time>
      </trkpt>
      <trkpt lat="45.92035" lon="0.65337">
        <ele>184</ele>
        <time>2022-04-03T13:09:21Z</time>
      </trkpt>
      <trkpt lat="45.92037" lon="0.65337">
        <ele>184.4</ele>
        <time>2022-04-03T13:09:22Z</time>
      </trkpt>
      <trkpt lat="45.9204" lon="0.65336">
        <ele>184.4</ele>
        <time>2022-04-03T13:09:23Z</time>
      </trkpt>
      <trkpt lat="45.92042" lon="0.65335">
        <ele>184.8</ele>
        <time>2022-04-03T13:09:24Z</time>
      </trkpt>
      <trkpt lat="45.92044" lon="0.65334">
        <ele>184.6</ele>
        <time>2022-04-03T13:09:25Z</time>
      </trkpt>
      <trkpt lat="45.92047" lon="0.65334">
        <ele>185</ele>
        <time>2022-04-03T13:09:26Z</time>
      </trkpt>
      <trkpt lat="45.92049" lon="0.65333">
        <ele>185.2</ele>
        <time>2022-04-03T13:09:27Z</time>
      </trkpt>
      <trkpt lat="45.92051" lon="0.65333">
        <ele>185.4</ele>
        <time>2022-04-03T13:09:28Z</time>
      </trkpt>
      <trkpt lat="45.92053" lon="0.65332">
        <ele>185.4</ele>
        <time>2022-04-03T13:09:29Z</time>
      </trkpt>
      <trkpt lat="45.92056" lon="0.65331">
        <ele>185.4</ele>
        <time>2022-04-03T13:09:30Z</time>
      </trkpt>
      <trkpt lat="45.92058" lon="0.6533">
        <ele>185.4</ele>
        <time>2022-04-03T13:09:31Z</time>
      </trkpt>
      <trkpt lat="45.9206" lon="0.65329">
        <ele>185.4</ele>
        <time>2022-04-03T13:09:32Z</time>
      </trkpt>
      <trkpt lat="45.92062" lon="0.65329">
        <ele>185.8</ele>
        <time>2022-04-03T13:09:33Z</time>
      </trkpt>
      <trkpt lat="45.92064" lon="0.65328">
        <ele>186</ele>
        <time>2022-04-03T13:09:34Z</time>
      </trkpt>
      <trkpt lat="45.92067" lon="0.65327">
        <ele>186</ele>
        <time>2022-04-03T13:09:35Z</time>
      </trkpt>
      <trkpt lat="45.92069" lon="0.65326">
        <ele>186.4</ele>
        <time>2022-04-03T13:09:36Z</time>
      </trkpt>
      <trkpt lat="45.92071" lon="0.65326">
        <ele>186.4</ele>
        <time>2022-04-03T13:09:37Z</time>
      </trkpt>
      <trkpt lat="45.92073" lon="0.65325">
        <ele>186.6</ele>
        <time>2022-04-03T13:09:38Z</time>
      </trkpt>
      <trkpt lat="45.92075" lon="0.65324">
        <ele>186.6</ele>
        <time>2022-04-03T13:09:39Z</time>
      </trkpt>
      <trkpt lat="45.92077" lon="0.65323">
        <ele>186.8</ele>
        <time>2022-04-03T13:09:40Z</time>
      </trkpt>
      <trkpt lat="45.92079" lon="0.65322">
        <ele>187</ele>
        <time>2022-04-03T13:09:41Z</time>
      </trkpt>
      <trkpt lat="45.92082" lon="0.65322">
        <ele>187.2</ele>
        <time>2022-04-03T13:09:42Z</time>
      </trkpt>
      <trkpt lat="45.92084" lon="0.65321">
        <ele>187.4</ele>
        <time>2022-04-03T13:09:43Z</time>
      </trkpt>
      <trkpt lat="45.92086" lon="0.6532">
        <ele>187.8</ele>
        <time>2022-04-03T13:09:44Z</time>
      </trkpt>
      <trkpt lat="45.92088" lon="0.65319">
        <ele>188</ele>
        <time>2022-04-03T13:09:45Z</time>
      </trkpt>
      <trkpt lat="45.9209" lon="0.65318">
        <ele>188</ele>
        <time>2022-04-03T13:09:46Z</time>
      </trkpt>
      <trkpt lat="45.92092" lon="0.65318">
        <ele>188.2</ele>
        <time>2022-04-03T13:09:47Z</time>
      </trkpt>
      <trkpt lat="45.92094" lon="0.65317">
        <ele>188.4</ele>
        <time>2022-04-03T13:09:48Z</time>
      </trkpt>
      <trkpt lat="45.92097" lon="0.65316">
        <ele>188.6</ele>
        <time>2022-04-03T13:09:49Z</time>
      </trkpt>
      <trkpt lat="45.92099" lon="0.65315">
        <ele>188.8</ele>
        <time>2022-04-03T13:09:50Z</time>
      </trkpt>
      <trkpt lat="45.92101" lon="0.65314">
        <ele>189.2</ele>
        <time>2022-04-03T13:09:51Z</time>
      </trkpt>
      <trkpt lat="45.92103" lon="0.65313">
        <ele>189.4</ele>
        <time>2022-04-03T13:09:52Z</time>
      </trkpt>
      <trkpt lat="45.92105" lon="0.65313">
        <ele>189.6</ele>
        <time>2022-04-03T13:09:53Z</time>
      </trkpt>
      <trkpt lat="45.92107" lon="0.65312">
        <ele>189.8</ele>
        <time>2022-04-03T13:09:54Z</time>
      </trkpt>
      <trkpt lat="45.92109" lon="0.65311">
        <ele>190</ele>
        <time>2022-04-03T13:09:55Z</time>
      </trkpt>
      <trkpt lat="45.92111" lon="0.65311">
        <ele>190.2</ele>
        <time>2022-04-03T13:09:56Z</time>
      </trkpt>
      <trkpt lat="45.92114" lon="0.6531">
        <ele>190.4</ele>
        <time>2022-04-03T13:09:57Z</time>
      </trkpt>
      <trkpt lat="45.92116" lon="0.65309">
        <ele>190.4</ele>
        <time>2022-04-03T13:09:58Z</time>
      </trkpt>
      <trkpt lat="45.92118" lon="0.65309">
        <ele>190.6</ele>
        <time>2022-04-03T13:09:59Z</time>
      </trkpt>
      <trkpt lat="45.9212" lon="0.65308">
        <ele>190.8</ele>
        <time>2022-04-03T13:10:00Z</time>
      </trkpt>
      <trkpt lat="45.92122" lon="0.65307">
        <ele>191</ele>
        <time>2022-04-03T13:10:01Z</time>
      </trkpt>
      <trkpt lat="45.92124" lon="0.65306">
        <ele>191.2</ele>
        <time>2022-04-03T13:10:02Z</time>
      </trkpt>
      <trkpt lat="45.92127" lon="0.65306">
        <ele>191.2</ele>
        <time>2022-04-03T13:10:03Z</time>
      </trkpt>
      <trkpt lat="45.92129" lon="0.65305">
        <ele>191.6</ele>
        <time>2022-04-03T13:10:04Z</time>
      </trkpt>
      <trkpt lat="45.92131" lon="0.65304">
        <ele>191.6</ele>
        <time>2022-04-03T13:10:05Z</time>
      </trkpt>
      <trkpt lat="45.92133" lon="0.65303">
        <ele>191.8</ele>
        <time>2022-04-03T13:10:06Z</time>
      </trkpt>
      <trkpt lat="45.92135" lon="0.65303">
        <ele>191.8</ele>
        <time>2022-04-03T13:10:07Z</time>
      </trkpt>
      <trkpt lat="45.92137" lon="0.65302">
        <ele>192</ele>
        <time>2022-04-03T13:10:08Z</time>
      </trkpt>
      <trkpt lat="45.9214" lon="0.65301">
        <ele>192</ele>
        <time>2022-04-03T13:10:09Z</time>
      </trkpt>
      <trkpt lat="45.92142" lon="0.653">
        <ele>192.2</ele>
        <time>2022-04-03T13:10:10Z</time>
      </trkpt>
      <trkpt lat="45.92144" lon="0.653">
        <ele>192.4</ele>
        <time>2022-04-03T13:10:11Z</time>
      </trkpt>
      <trkpt lat="45.92146" lon="0.65299">
        <ele>192.6</ele>
        <time>2022-04-03T13:10:12Z</time>
      </trkpt>
      <trkpt lat="45.92148" lon="0.65298">
        <ele>192.6</ele>
        <time>2022-04-03T13:10:13Z</time>
      </trkpt>
      <trkpt lat="45.92151" lon="0.65297">
        <ele>193</ele>
        <time>2022-04-03T13:10:14Z</time>
      </trkpt>
      <trkpt lat="45.92153" lon="0.65296">
        <ele>192.8</ele>
        <time>2022-04-03T13:10:15Z</time>
      </trkpt>
      <trkpt lat="45.92155" lon="0.65296">
        <ele>192.8</ele>
        <time>2022-04-03T13:10:16Z</time>
      </trkpt>
      <trkpt lat="45.92157" lon="0.65295">
        <ele>193.2</ele>
        <time>2022-04-03T13:10:17Z</time>
      </trkpt>
      <trkpt lat="45.92159" lon="0.65294">
        <ele>193.2</ele>
        <time>2022-04-03T13:10:18Z</time>
      </trkpt>
      <trkpt lat="45.92161" lon="0.65294">
        <ele>193.2</ele>
        <time>2022-04-03T13:10:19Z</time>
      </trkpt>
      <trkpt lat="45.92164" lon="0.65293">
        <ele>193.4</ele>
        <time>2022-04-03T13:10:20Z</time>
      </trkpt>
      <trkpt lat="45.92166" lon="0.65292">
        <ele>193.6</ele>
        <time>2022-04-03T13:10:21Z</time>
      </trkpt>
      <trkpt lat="45.92168" lon="0.65291">
        <ele>194</ele>
        <time>2022-04-03T13:10:22Z</time>
      </trkpt>
      <trkpt lat="45.9217" lon="0.65291">
        <ele>194</ele>
        <time>2022-04-03T13:10:23Z</time>
      </trkpt>
      <trkpt lat="45.92172" lon="0.6529">
        <ele>194.2</ele>
        <time>2022-04-03T13:10:24Z</time>
      </trkpt>
      <trkpt lat="45.92174" lon="0.65289">
        <ele>194.2</ele>
        <time>2022-04-03T13:10:25Z</time>
      </trkpt>
      <trkpt lat="45.92176" lon="0.65288">
        <ele>194.4</ele>
        <time>2022-04-03T13:10:26Z</time>
      </trkpt>
      <trkpt lat="45.92178" lon="0.65287">
        <ele>194.4</ele>
        <time>2022-04-03T13:10:27Z</time>
      </trkpt>
      <trkpt lat="45.92181" lon="0.65286">
        <ele>194.6</ele>
        <time>2022-04-03T13:10:28Z</time>
      </trkpt>
      <trkpt lat="45.92183" lon="0.65285">
        <ele>194.8</ele>
        <time>2022-04-03T13:10:29Z</time>
      </trkpt>
      <trkpt lat="45.92185" lon="0.65285">
        <ele>195</ele>
        <time>2022-04-03T13:10:30Z</time>
      </trkpt>
      <trkpt lat="45.92187" lon="0.65284">
        <ele>195.4</ele>
        <time>2022-04-03T13:10:31Z</time>
      </trkpt>
      <trkpt lat="45.92189" lon="0.65283">
        <ele>195.6</ele>
        <time>2022-04-03T13:10:32Z</time>
      </trkpt>
      <trkpt lat="45.92192" lon="0.65282">
        <ele>195.8</ele>
        <time>2022-04-03T13:10:33Z</time>
      </trkpt>
      <trkpt lat="45.92194" lon="0.65281">
        <ele>196</ele>
        <time>2022-04-03T13:10:34Z</time>
      </trkpt>
      <trkpt lat="45.92196" lon="0.6528">
        <ele>196</ele>
        <time>2022-04-03T13:10:35Z</time>
      </trkpt>
      <trkpt lat="45.92198" lon="0.6528">
        <ele>196</ele>
        <time>2022-04-03T13:10:36Z</time>
      </trkpt>
      <trkpt lat="45.922" lon="0.65279">
        <ele>196.2</ele>
        <time>2022-04-03T13:10:37Z</time>
      </trkpt>
      <trkpt lat="45.92203" lon="0.65278">
        <ele>196.6</ele>
        <time>2022-04-03T13:10:38Z</time>
      </trkpt>
      <trkpt lat="45.92205" lon="0.65277">
        <ele>196.8</ele>
        <time>2022-04-03T13:10:39Z</time>
      </trkpt>
      <trkpt lat="45.92207" lon="0.65276">
        <ele>197.2</ele>
        <time>2022-04-03T13:10:40Z</time>
      </trkpt>
      <trkpt lat="45.92209" lon="0.65275">
        <ele>197</ele>
        <time>2022-04-03T13:10:41Z</time>
      </trkpt>
      <trkpt lat="45.92211" lon="0.65274">
        <ele>197.2</ele>
        <time>2022-04-03T13:10:42Z</time>
      </trkpt>
      <trkpt lat="45.92213" lon="0.65273">
        <ele>197.2</ele>
        <time>2022-04-03T13:10:43Z</time>
      </trkpt>
      <trkpt lat="45.92216" lon="0.65273">
        <ele>197.4</ele>
        <time>2022-04-03T13:10:44Z</time>
      </trkpt>
      <trkpt lat="45.92218" lon="0.65272">
        <ele>197.8</ele>
        <time>2022-04-03T13:10:45Z</time>
      </trkpt>
      <trkpt lat="45.9222" lon="0.65271">
        <ele>198</ele>
        <time>2022-04-03T13:10:46Z</time>
      </trkpt>
      <trkpt lat="45.92222" lon="0.6527">
        <ele>198.2</ele>
        <time>2022-04-03T13:10:47Z</time>
      </trkpt>
      <trkpt lat="45.92224" lon="0.65269">
        <ele>198.2</ele>
        <time>2022-04-03T13:10:48Z</time>
      </trkpt>
      <trkpt lat="45.92226" lon="0.65269">
        <ele>198.2</ele>
        <time>2022-04-03T13:10:49Z</time>
      </trkpt>
      <trkpt lat="45.92228" lon="0.65268">
        <ele>198.2</ele>
        <time>2022-04-03T13:10:50Z</time>
      </trkpt>
      <trkpt lat="45.92231" lon="0.65267">
        <ele>198.4</ele>
        <time>2022-04-03T13:10:51Z</time>
      </trkpt>
      <trkpt lat="45.92233" lon="0.65266">
        <ele>198.6</ele>
        <time>2022-04-03T13:10:52Z</time>
      </trkpt>
      <trkpt lat="45.92235" lon="0.65265">
        <ele>198.8</ele>
        <time>2022-04-03T13:10:53Z</time>
      </trkpt>
      <trkpt lat="45.92237" lon="0.65264">
        <ele>198.8</ele>
        <time>2022-04-03T13:10:54Z</time>
      </trkpt>
      <trkpt lat="45.9224" lon="0.65263">
        <ele>199</ele>
        <time>2022-04-03T13:10:55Z</time>
      </trkpt>
      <trkpt lat="45.92242" lon="0.65262">
        <ele>199</ele>
        <time>2022-04-03T13:10:56Z</time>
      </trkpt>
      <trkpt lat="45.92244" lon="0.65261">
        <ele>199.2</ele>
        <time>2022-04-03T13:10:57Z</time>
      </trkpt>
      <trkpt lat="45.92246" lon="0.6526">
        <ele>199.4</ele>
        <time>2022-04-03T13:10:58Z</time>
      </trkpt>
      <trkpt lat="45.92248" lon="0.65259">
        <ele>199.6</ele>
        <time>2022-04-03T13:10:59Z</time>
      </trkpt>
      <trkpt lat="45.9225" lon="0.65258">
        <ele>199.6</ele>
        <time>2022-04-03T13:11:00Z</time>
      </trkpt>
      <trkpt lat="45.92253" lon="0.65258">
        <ele>199.8</ele>
        <time>2022-04-03T13:11:01Z</time>
      </trkpt>
      <trkpt lat="45.92255" lon="0.65257">
        <ele>200</ele>
        <time>2022-04-03T13:11:02Z</time>
      </trkpt>
      <trkpt lat="45.92257" lon="0.65255">
        <ele>200.2</ele>
        <time>2022-04-03T13:11:03Z</time>
      </trkpt>
      <trkpt lat="45.92259" lon="0.65254">
        <ele>200</ele>
        <time>2022-04-03T13:11:04Z</time>
      </trkpt>
      <trkpt lat="45.92261" lon="0.65253">
        <ele>200.4</ele>
        <time>2022-04-03T13:11:05Z</time>
      </trkpt>
      <trkpt lat="45.92264" lon="0.65252">
        <ele>200.8</ele>
        <time>2022-04-03T13:11:06Z</time>
      </trkpt>
      <trkpt lat="45.92266" lon="0.65251">
        <ele>201</ele>
        <time>2022-04-03T13:11:07Z</time>
      </trkpt>
      <trkpt lat="45.92268" lon="0.65251">
        <ele>201.2</ele>
        <time>2022-04-03T13:11:08Z</time>
      </trkpt>
      <trkpt lat="45.9227" lon="0.65251">
        <ele>201.4</ele>
        <time>2022-04-03T13:11:09Z</time>
      </trkpt>
      <trkpt lat="45.92273" lon="0.6525">
        <ele>201.6</ele>
        <time>2022-04-03T13:11:10Z</time>
      </trkpt>
      <trkpt lat="45.92275" lon="0.65249">
        <ele>201.8</ele>
        <time>2022-04-03T13:11:11Z</time>
      </trkpt>
      <trkpt lat="45.92277" lon="0.65249">
        <ele>202</ele>
        <time>2022-04-03T13:11:12Z</time>
      </trkpt>
      <trkpt lat="45.92279" lon="0.65248">
        <ele>202</ele>
        <time>2022-04-03T13:11:13Z</time>
      </trkpt>
      <trkpt lat="45.92281" lon="0.65247">
        <ele>202.2</ele>
        <time>2022-04-03T13:11:14Z</time>
      </trkpt>
      <trkpt lat="45.92284" lon="0.65247">
        <ele>202.2</ele>
        <time>2022-04-03T13:11:15Z</time>
      </trkpt>
      <trkpt lat="45.92286" lon="0.65246">
        <ele>202.4</ele>
        <time>2022-04-03T13:11:16Z</time>
      </trkpt>
      <trkpt lat="45.92288" lon="0.65245">
        <ele>202.6</ele>
        <time>2022-04-03T13:11:17Z</time>
      </trkpt>
      <trkpt lat="45.92291" lon="0.65244">
        <ele>202.8</ele>
        <time>2022-04-03T13:11:18Z</time>
      </trkpt>
      <trkpt lat="45.92293" lon="0.65244">
        <ele>202.8</ele>
        <time>2022-04-03T13:11:19Z</time>
      </trkpt>
      <trkpt lat="45.92295" lon="0.65243">
        <ele>202.8</ele>
        <time>2022-04-03T13:11:20Z</time>
      </trkpt>
      <trkpt lat="45.92298" lon="0.65243">
        <ele>203</ele>
        <time>2022-04-03T13:11:21Z</time>
      </trkpt>
      <trkpt lat="45.923" lon="0.65242">
        <ele>203</ele>
        <time>2022-04-03T13:11:22Z</time>
      </trkpt>
      <trkpt lat="45.92302" lon="0.65241">
        <ele>203.2</ele>
        <time>2022-04-03T13:11:23Z</time>
      </trkpt>
      <trkpt lat="45.92305" lon="0.65241">
        <ele>203.4</ele>
        <time>2022-04-03T13:11:24Z</time>
      </trkpt>
      <trkpt lat="45.92307" lon="0.6524">
        <ele>203.4</ele>
        <time>2022-04-03T13:11:25Z</time>
      </trkpt>
      <trkpt lat="45.92309" lon="0.65239">
        <ele>203.6</ele>
        <time>2022-04-03T13:11:26Z</time>
      </trkpt>
      <trkpt lat="45.92312" lon="0.65238">
        <ele>204</ele>
        <time>2022-04-03T13:11:27Z</time>
      </trkpt>
      <trkpt lat="45.92314" lon="0.65237">
        <ele>204</ele>
        <time>2022-04-03T13:11:28Z</time>
      </trkpt>
      <trkpt lat="45.92316" lon="0.65235">
        <ele>204.2</ele>
        <time>2022-04-03T13:11:29Z</time>
      </trkpt>
      <trkpt lat="45.92319" lon="0.65235">
        <ele>204.4</ele>
        <time>2022-04-03T13:11:30Z</time>
      </trkpt>
      <trkpt lat="45.92321" lon="0.65235">
        <ele>204.4</ele>
        <time>2022-04-03T13:11:31Z</time>
      </trkpt>
      <trkpt lat="45.92324" lon="0.65234">
        <ele>204.4</ele>
        <time>2022-04-03T13:11:32Z</time>
      </trkpt>
      <trkpt lat="45.92326" lon="0.65233">
        <ele>204.6</ele>
        <time>2022-04-03T13:11:33Z</time>
      </trkpt>
      <trkpt lat="45.92329" lon="0.65232">
        <ele>204.8</ele>
        <time>2022-04-03T13:11:34Z</time>
      </trkpt>
      <trkpt lat="45.92332" lon="0.65231">
        <ele>205</ele>
        <time>2022-04-03T13:11:35Z</time>
      </trkpt>
      <trkpt lat="45.92335" lon="0.6523">
        <ele>205.2</ele>
        <time>2022-04-03T13:11:36Z</time>
      </trkpt>
      <trkpt lat="45.92338" lon="0.6523">
        <ele>205.2</ele>
        <time>2022-04-03T13:11:37Z</time>
      </trkpt>
      <trkpt lat="45.92341" lon="0.65228">
        <ele>205.4</ele>
        <time>2022-04-03T13:11:38Z</time>
      </trkpt>
      <trkpt lat="45.92344" lon="0.65227">
        <ele>205.4</ele>
        <time>2022-04-03T13:11:39Z</time>
      </trkpt>
      <trkpt lat="45.92347" lon="0.65226">
        <ele>205.4</ele>
        <time>2022-04-03T13:11:40Z</time>
      </trkpt>
      <trkpt lat="45.9235" lon="0.65225">
        <ele>205.4</ele>
        <time>2022-04-03T13:11:41Z</time>
      </trkpt>
      <trkpt lat="45.92354" lon="0.65224">
        <ele>205.4</ele>
        <time>2022-04-03T13:11:42Z</time>
      </trkpt>
      <trkpt lat="45.92357" lon="0.65222">
        <ele>205.4</ele>
        <time>2022-04-03T13:11:43Z</time>
      </trkpt>
      <trkpt lat="45.9236" lon="0.65221">
        <ele>205.6</ele>
        <time>2022-04-03T13:11:44Z</time>
      </trkpt>
      <trkpt lat="45.92363" lon="0.6522">
        <ele>205.4</ele>
        <time>2022-04-03T13:11:45Z</time>
      </trkpt>
      <trkpt lat="45.92366" lon="0.65218">
        <ele>205.6</ele>
        <time>2022-04-03T13:11:46Z</time>
      </trkpt>
      <trkpt lat="45.92369" lon="0.65217">
        <ele>205.6</ele>
        <time>2022-04-03T13:11:47Z</time>
      </trkpt>
      <trkpt lat="45.92372" lon="0.65216">
        <ele>205.8</ele>
        <time>2022-04-03T13:11:48Z</time>
      </trkpt>
      <trkpt lat="45.92375" lon="0.65214">
        <ele>205.8</ele>
        <time>2022-04-03T13:11:49Z</time>
      </trkpt>
      <trkpt lat="45.92378" lon="0.65213">
        <ele>205.8</ele>
        <time>2022-04-03T13:11:50Z</time>
      </trkpt>
      <trkpt lat="45.9238" lon="0.65211">
        <ele>205.8</ele>
        <time>2022-04-03T13:11:51Z</time>
      </trkpt>
      <trkpt lat="45.92383" lon="0.6521">
        <ele>205.8</ele>
        <time>2022-04-03T13:11:52Z</time>
      </trkpt>
      <trkpt lat="45.92385" lon="0.65208">
        <ele>205.8</ele>
        <time>2022-04-03T13:11:53Z</time>
      </trkpt>
      <trkpt lat="45.92388" lon="0.65206">
        <ele>206</ele>
        <time>2022-04-03T13:11:54Z</time>
      </trkpt>
      <trkpt lat="45.9239" lon="0.65204">
        <ele>206</ele>
        <time>2022-04-03T13:11:55Z</time>
      </trkpt>
      <trkpt lat="45.92393" lon="0.65203">
        <ele>206</ele>
        <time>2022-04-03T13:11:56Z</time>
      </trkpt>
      <trkpt lat="45.92395" lon="0.65201">
        <ele>206.2</ele>
        <time>2022-04-03T13:11:57Z</time>
      </trkpt>
      <trkpt lat="45.92398" lon="0.65199">
        <ele>206.2</ele>
        <time>2022-04-03T13:11:58Z</time>
      </trkpt>
      <trkpt lat="45.924" lon="0.65196">
        <ele>206</ele>
        <time>2022-04-03T13:11:59Z</time>
      </trkpt>
      <trkpt lat="45.92403" lon="0.65193">
        <ele>206.2</ele>
        <time>2022-04-03T13:12:00Z</time>
      </trkpt>
      <trkpt lat="45.92406" lon="0.65191">
        <ele>206.2</ele>
        <time>2022-04-03T13:12:01Z</time>
      </trkpt>
      <trkpt lat="45.9241" lon="0.65188">
        <ele>206.2</ele>
        <time>2022-04-03T13:12:02Z</time>
      </trkpt>
      <trkpt lat="45.92413" lon="0.65185">
        <ele>206</ele>
        <time>2022-04-03T13:12:03Z</time>
      </trkpt>
      <trkpt lat="45.92416" lon="0.65182">
        <ele>206</ele>
        <time>2022-04-03T13:12:04Z</time>
      </trkpt>
      <trkpt lat="45.9242" lon="0.65179">
        <ele>206.2</ele>
        <time>2022-04-03T13:12:05Z</time>
      </trkpt>
      <trkpt lat="45.92423" lon="0.65176">
        <ele>206</ele>
        <time>2022-04-03T13:12:06Z</time>
      </trkpt>
      <trkpt lat="45.92427" lon="0.65172">
        <ele>206.2</ele>
        <time>2022-04-03T13:12:07Z</time>
      </trkpt>
      <trkpt lat="45.9243" lon="0.65168">
        <ele>206</ele>
        <time>2022-04-03T13:12:08Z</time>
      </trkpt>
      <trkpt lat="45.92434" lon="0.65165">
        <ele>206</ele>
        <time>2022-04-03T13:12:09Z</time>
      </trkpt>
      <trkpt lat="45.92438" lon="0.65161">
        <ele>206</ele>
        <time>2022-04-03T13:12:10Z</time>
      </trkpt>
      <trkpt lat="45.92441" lon="0.65158">
        <ele>206.2</ele>
        <time>2022-04-03T13:12:11Z</time>
      </trkpt>
      <trkpt lat="45.92445" lon="0.65155">
        <ele>206</ele>
        <time>2022-04-03T13:12:12Z</time>
      </trkpt>
      <trkpt lat="45.92448" lon="0.65151">
        <ele>206</ele>
        <time>2022-04-03T13:12:13Z</time>
      </trkpt>
      <trkpt lat="45.92451" lon="0.65147">
        <ele>205.8</ele>
        <time>2022-04-03T13:12:14Z</time>
      </trkpt>
      <trkpt lat="45.92454" lon="0.65144">
        <ele>205.8</ele>
        <time>2022-04-03T13:12:15Z</time>
      </trkpt>
      <trkpt lat="45.92457" lon="0.65141">
        <ele>205.8</ele>
        <time>2022-04-03T13:12:16Z</time>
      </trkpt>
      <trkpt lat="45.92461" lon="0.65138">
        <ele>205.6</ele>
        <time>2022-04-03T13:12:17Z</time>
      </trkpt>
      <trkpt lat="45.92464" lon="0.65135">
        <ele>205.8</ele>
        <time>2022-04-03T13:12:18Z</time>
      </trkpt>
      <trkpt lat="45.92468" lon="0.65132">
        <ele>205.6</ele>
        <time>2022-04-03T13:12:19Z</time>
      </trkpt>
      <trkpt lat="45.92471" lon="0.65129">
        <ele>205.6</ele>
        <time>2022-04-03T13:12:20Z</time>
      </trkpt>
      <trkpt lat="45.92474" lon="0.65125">
        <ele>205.6</ele>
        <time>2022-04-03T13:12:21Z</time>
      </trkpt>
      <trkpt lat="45.92478" lon="0.65122">
        <ele>205.6</ele>
        <time>2022-04-03T13:12:22Z</time>
      </trkpt>
      <trkpt lat="45.92481" lon="0.65119">
        <ele>205.6</ele>
        <time>2022-04-03T13:12:23Z</time>
      </trkpt>
      <trkpt lat="45.92485" lon="0.65116">
        <ele>205.6</ele>
        <time>2022-04-03T13:12:24Z</time>
      </trkpt>
      <trkpt lat="45.92488" lon="0.65113">
        <ele>205.4</ele>
        <time>2022-04-03T13:12:25Z</time>
      </trkpt>
      <trkpt lat="45.92492" lon="0.65109">
        <ele>205.6</ele>
        <time>2022-04-03T13:12:26Z</time>
      </trkpt>
      <trkpt lat="45.92495" lon="0.65106">
        <ele>205.6</ele>
        <time>2022-04-03T13:12:27Z</time>
      </trkpt>
      <trkpt lat="45.92499" lon="0.65102">
        <ele>205.6</ele>
        <time>2022-04-03T13:12:28Z</time>
      </trkpt>
      <trkpt lat="45.92502" lon="0.65099">
        <ele>205.6</ele>
        <time>2022-04-03T13:12:29Z</time>
      </trkpt>
      <trkpt lat="45.92506" lon="0.65095">
        <ele>205.6</ele>
        <time>2022-04-03T13:12:30Z</time>
      </trkpt>
      <trkpt lat="45.92509" lon="0.65092">
        <ele>205.6</ele>
        <time>2022-04-03T13:12:31Z</time>
      </trkpt>
      <trkpt lat="45.92513" lon="0.65088">
        <ele>205.6</ele>
        <time>2022-04-03T13:12:32Z</time>
      </trkpt>
      <trkpt lat="45.92517" lon="0.65085">
        <ele>205.6</ele>
        <time>2022-04-03T13:12:33Z</time>
      </trkpt>
      <trkpt lat="45.9252" lon="0.65081">
        <ele>205.8</ele>
        <time>2022-04-03T13:12:34Z</time>
      </trkpt>
      <trkpt lat="45.92524" lon="0.65078">
        <ele>205.8</ele>
        <time>2022-04-03T13:12:35Z</time>
      </trkpt>
      <trkpt lat="45.92527" lon="0.65074">
        <ele>205.8</ele>
        <time>2022-04-03T13:12:36Z</time>
      </trkpt>
      <trkpt lat="45.92531" lon="0.6507">
        <ele>205.8</ele>
        <time>2022-04-03T13:12:37Z</time>
      </trkpt>
      <trkpt lat="45.92535" lon="0.65066">
        <ele>205.8</ele>
        <time>2022-04-03T13:12:38Z</time>
      </trkpt>
      <trkpt lat="45.92538" lon="0.65062">
        <ele>206</ele>
        <time>2022-04-03T13:12:39Z</time>
      </trkpt>
      <trkpt lat="45.92543" lon="0.65058">
        <ele>205.8</ele>
        <time>2022-04-03T13:12:40Z</time>
      </trkpt>
      <trkpt lat="45.92547" lon="0.65054">
        <ele>206</ele>
        <time>2022-04-03T13:12:41Z</time>
      </trkpt>
      <trkpt lat="45.92551" lon="0.6505">
        <ele>206</ele>
        <time>2022-04-03T13:12:42Z</time>
      </trkpt>
      <trkpt lat="45.92556" lon="0.65045">
        <ele>205.8</ele>
        <time>2022-04-03T13:12:43Z</time>
      </trkpt>
      <trkpt lat="45.92561" lon="0.65041">
        <ele>205.8</ele>
        <time>2022-04-03T13:12:44Z</time>
      </trkpt>
      <trkpt lat="45.92565" lon="0.65036">
        <ele>205.8</ele>
        <time>2022-04-03T13:12:45Z</time>
      </trkpt>
      <trkpt lat="45.92571" lon="0.65031">
        <ele>205.6</ele>
        <time>2022-04-03T13:12:46Z</time>
      </trkpt>
      <trkpt lat="45.92576" lon="0.65026">
        <ele>205.6</ele>
        <time>2022-04-03T13:12:47Z</time>
      </trkpt>
      <trkpt lat="45.92581" lon="0.65021">
        <ele>205.2</ele>
        <time>2022-04-03T13:12:48Z</time>
      </trkpt>
      <trkpt lat="45.92586" lon="0.65016">
        <ele>204.8</ele>
        <time>2022-04-03T13:12:49Z</time>
      </trkpt>
      <trkpt lat="45.92592" lon="0.6501">
        <ele>204.6</ele>
        <time>2022-04-03T13:12:50Z</time>
      </trkpt>
      <trkpt lat="45.92597" lon="0.65005">
        <ele>204.2</ele>
        <time>2022-04-03T13:12:51Z</time>
      </trkpt>
      <trkpt lat="45.92603" lon="0.64999">
        <ele>203.6</ele>
        <time>2022-04-03T13:12:52Z</time>
      </trkpt>
      <trkpt lat="45.92609" lon="0.64993">
        <ele>203</ele>
        <time>2022-04-03T13:12:53Z</time>
      </trkpt>
      <trkpt lat="45.92615" lon="0.64988">
        <ele>202.8</ele>
        <time>2022-04-03T13:12:54Z</time>
      </trkpt>
      <trkpt lat="45.92621" lon="0.64982">
        <ele>202.2</ele>
        <time>2022-04-03T13:12:55Z</time>
      </trkpt>
      <trkpt lat="45.92627" lon="0.64976">
        <ele>201.8</ele>
        <time>2022-04-03T13:12:56Z</time>
      </trkpt>
      <trkpt lat="45.92634" lon="0.6497">
        <ele>201.2</ele>
        <time>2022-04-03T13:12:57Z</time>
      </trkpt>
      <trkpt lat="45.9264" lon="0.64963">
        <ele>200.6</ele>
        <time>2022-04-03T13:12:58Z</time>
      </trkpt>
      <trkpt lat="45.92647" lon="0.64957">
        <ele>200</ele>
        <time>2022-04-03T13:12:59Z</time>
      </trkpt>
      <trkpt lat="45.92653" lon="0.64951">
        <ele>199.6</ele>
        <time>2022-04-03T13:13:00Z</time>
      </trkpt>
      <trkpt lat="45.9266" lon="0.64945">
        <ele>199.2</ele>
        <time>2022-04-03T13:13:01Z</time>
      </trkpt>
      <trkpt lat="45.92666" lon="0.64938">
        <ele>198.8</ele>
        <time>2022-04-03T13:13:02Z</time>
      </trkpt>
      <trkpt lat="45.92673" lon="0.64932">
        <ele>198.4</ele>
        <time>2022-04-03T13:13:03Z</time>
      </trkpt>
      <trkpt lat="45.92679" lon="0.64926">
        <ele>198</ele>
        <time>2022-04-03T13:13:04Z</time>
      </trkpt>
      <trkpt lat="45.92686" lon="0.6492">
        <ele>197.6</ele>
        <time>2022-04-03T13:13:05Z</time>
      </trkpt>
      <trkpt lat="45.92692" lon="0.64914">
        <ele>197.6</ele>
        <time>2022-04-03T13:13:06Z</time>
      </trkpt>
      <trkpt lat="45.92698" lon="0.64908">
        <ele>197</ele>
        <time>2022-04-03T13:13:07Z</time>
      </trkpt>
      <trkpt lat="45.92704" lon="0.64903">
        <ele>196.6</ele>
        <time>2022-04-03T13:13:08Z</time>
      </trkpt>
      <trkpt lat="45.9271" lon="0.64897">
        <ele>196.4</ele>
        <time>2022-04-03T13:13:09Z</time>
      </trkpt>
      <trkpt lat="45.92715" lon="0.64892">
        <ele>196.2</ele>
        <time>2022-04-03T13:13:10Z</time>
      </trkpt>
      <trkpt lat="45.9272" lon="0.64887">
        <ele>196</ele>
        <time>2022-04-03T13:13:11Z</time>
      </trkpt>
      <trkpt lat="45.92726" lon="0.64883">
        <ele>195.8</ele>
        <time>2022-04-03T13:13:12Z</time>
      </trkpt>
      <trkpt lat="45.92731" lon="0.64878">
        <ele>195.6</ele>
        <time>2022-04-03T13:13:13Z</time>
      </trkpt>
      <trkpt lat="45.92736" lon="0.64873">
        <ele>195.4</ele>
        <time>2022-04-03T13:13:14Z</time>
      </trkpt>
      <trkpt lat="45.92741" lon="0.64868">
        <ele>195.2</ele>
        <time>2022-04-03T13:13:15Z</time>
      </trkpt>
      <trkpt lat="45.92746" lon="0.64863">
        <ele>195.2</ele>
        <time>2022-04-03T13:13:16Z</time>
      </trkpt>
      <trkpt lat="45.92751" lon="0.64859">
        <ele>194.8</ele>
        <time>2022-04-03T13:13:17Z</time>
      </trkpt>
      <trkpt lat="45.92756" lon="0.64854">
        <ele>194.2</ele>
        <time>2022-04-03T13:13:18Z</time>
      </trkpt>
      <trkpt lat="45.92761" lon="0.64849">
        <ele>194.2</ele>
        <time>2022-04-03T13:13:19Z</time>
      </trkpt>
      <trkpt lat="45.92766" lon="0.64844">
        <ele>194.2</ele>
        <time>2022-04-03T13:13:20Z</time>
      </trkpt>
      <trkpt lat="45.92771" lon="0.64839">
        <ele>194</ele>
        <time>2022-04-03T13:13:21Z</time>
      </trkpt>
      <trkpt lat="45.92776" lon="0.64834">
        <ele>194</ele>
        <time>2022-04-03T13:13:22Z</time>
      </trkpt>
      <trkpt lat="45.92781" lon="0.64829">
        <ele>194</ele>
        <time>2022-04-03T13:13:23Z</time>
      </trkpt>
      <trkpt lat="45.92786" lon="0.64824">
        <ele>194.2</ele>
        <time>2022-04-03T13:13:24Z</time>
      </trkpt>
      <trkpt lat="45.92791" lon="0.64819">
        <ele>194.2</ele>
        <time>2022-04-03T13:13:25Z</time>
      </trkpt>
      <trkpt lat="45.92796" lon="0.64815">
        <ele>194</ele>
        <time>2022-04-03T13:13:26Z</time>
      </trkpt>
      <trkpt lat="45.92802" lon="0.64811">
        <ele>194</ele>
        <time>2022-04-03T13:13:27Z</time>
      </trkpt>
      <trkpt lat="45.92808" lon="0.64807">
        <ele>194</ele>
        <time>2022-04-03T13:13:28Z</time>
      </trkpt>
      <trkpt lat="45.92814" lon="0.64804">
        <ele>194</ele>
        <time>2022-04-03T13:13:29Z</time>
      </trkpt>
      <trkpt lat="45.92821" lon="0.64802">
        <ele>194</ele>
        <time>2022-04-03T13:13:30Z</time>
      </trkpt>
      <trkpt lat="45.92828" lon="0.648">
        <ele>193.8</ele>
        <time>2022-04-03T13:13:31Z</time>
      </trkpt>
      <trkpt lat="45.92835" lon="0.64799">
        <ele>194</ele>
        <time>2022-04-03T13:13:32Z</time>
      </trkpt>
      <trkpt lat="45.92842" lon="0.64797">
        <ele>194</ele>
        <time>2022-04-03T13:13:33Z</time>
      </trkpt>
      <trkpt lat="45.9285" lon="0.64796">
        <ele>193.8</ele>
        <time>2022-04-03T13:13:34Z</time>
      </trkpt>
      <trkpt lat="45.92857" lon="0.64795">
        <ele>193.8</ele>
        <time>2022-04-03T13:13:35Z</time>
      </trkpt>
      <trkpt lat="45.92865" lon="0.64793">
        <ele>193.8</ele>
        <time>2022-04-03T13:13:36Z</time>
      </trkpt>
      <trkpt lat="45.92873" lon="0.64792">
        <ele>193.8</ele>
        <time>2022-04-03T13:13:37Z</time>
      </trkpt>
      <trkpt lat="45.92881" lon="0.64791">
        <ele>193.4</ele>
        <time>2022-04-03T13:13:38Z</time>
      </trkpt>
      <trkpt lat="45.9289" lon="0.64789">
        <ele>193</ele>
        <time>2022-04-03T13:13:39Z</time>
      </trkpt>
      <trkpt lat="45.92898" lon="0.64788">
        <ele>192.4</ele>
        <time>2022-04-03T13:13:40Z</time>
      </trkpt>
      <trkpt lat="45.92907" lon="0.64786">
        <ele>191.6</ele>
        <time>2022-04-03T13:13:41Z</time>
      </trkpt>
      <trkpt lat="45.92916" lon="0.64785">
        <ele>191.2</ele>
        <time>2022-04-03T13:13:42Z</time>
      </trkpt>
      <trkpt lat="45.92925" lon="0.64783">
        <ele>190.8</ele>
        <time>2022-04-03T13:13:43Z</time>
      </trkpt>
      <trkpt lat="45.92934" lon="0.64781">
        <ele>190.8</ele>
        <time>2022-04-03T13:13:44Z</time>
      </trkpt>
      <trkpt lat="45.92943" lon="0.6478">
        <ele>190.4</ele>
        <time>2022-04-03T13:13:45Z</time>
      </trkpt>
      <trkpt lat="45.92953" lon="0.64778">
        <ele>190</ele>
        <time>2022-04-03T13:13:46Z</time>
      </trkpt>
      <trkpt lat="45.92962" lon="0.64776">
        <ele>189.6</ele>
        <time>2022-04-03T13:13:47Z</time>
      </trkpt>
      <trkpt lat="45.92972" lon="0.64774">
        <ele>189.2</ele>
        <time>2022-04-03T13:13:48Z</time>
      </trkpt>
      <trkpt lat="45.92982" lon="0.64772">
        <ele>188.8</ele>
        <time>2022-04-03T13:13:49Z</time>
      </trkpt>
      <trkpt lat="45.92992" lon="0.6477">
        <ele>188.2</ele>
        <time>2022-04-03T13:13:50Z</time>
      </trkpt>
      <trkpt lat="45.93002" lon="0.64768">
        <ele>187.2</ele>
        <time>2022-04-03T13:13:51Z</time>
      </trkpt>
      <trkpt lat="45.93012" lon="0.64765">
        <ele>186</ele>
        <time>2022-04-03T13:13:52Z</time>
      </trkpt>
      <trkpt lat="45.93022" lon="0.64763">
        <ele>185.2</ele>
        <time>2022-04-03T13:13:53Z</time>
      </trkpt>
      <trkpt lat="45.93032" lon="0.64762">
        <ele>184.6</ele>
        <time>2022-04-03T13:13:54Z</time>
      </trkpt>
      <trkpt lat="45.93042" lon="0.6476">
        <ele>183.8</ele>
        <time>2022-04-03T13:13:55Z</time>
      </trkpt>
      <trkpt lat="45.93053" lon="0.64758">
        <ele>182.6</ele>
        <time>2022-04-03T13:13:56Z</time>
      </trkpt>
      <trkpt lat="45.93063" lon="0.64756">
        <ele>181.8</ele>
        <time>2022-04-03T13:13:57Z</time>
      </trkpt>
      <trkpt lat="45.93074" lon="0.64754">
        <ele>181.2</ele>
        <time>2022-04-03T13:13:58Z</time>
      </trkpt>
      <trkpt lat="45.93084" lon="0.64751">
        <ele>180.2</ele>
        <time>2022-04-03T13:13:59Z</time>
      </trkpt>
      <trkpt lat="45.93095" lon="0.64748">
        <ele>178.6</ele>
        <time>2022-04-03T13:14:00Z</time>
      </trkpt>
      <trkpt lat="45.93106" lon="0.64744">
        <ele>177.8</ele>
        <time>2022-04-03T13:14:01Z</time>
      </trkpt>
      <trkpt lat="45.93116" lon="0.64739">
        <ele>176.6</ele>
        <time>2022-04-03T13:14:02Z</time>
      </trkpt>
      <trkpt lat="45.93126" lon="0.64733">
        <ele>176.6</ele>
        <time>2022-04-03T13:14:03Z</time>
      </trkpt>
      <trkpt lat="45.93137" lon="0.64727">
        <ele>175.6</ele>
        <time>2022-04-03T13:14:04Z</time>
      </trkpt>
      <trkpt lat="45.93148" lon="0.64722">
        <ele>175</ele>
        <time>2022-04-03T13:14:05Z</time>
      </trkpt>
      <trkpt lat="45.93158" lon="0.64717">
        <ele>174.4</ele>
        <time>2022-04-03T13:14:06Z</time>
      </trkpt>
      <trkpt lat="45.93169" lon="0.64713">
        <ele>173.4</ele>
        <time>2022-04-03T13:14:07Z</time>
      </trkpt>
      <trkpt lat="45.9318" lon="0.64709">
        <ele>172.2</ele>
        <time>2022-04-03T13:14:08Z</time>
      </trkpt>
      <trkpt lat="45.9319" lon="0.64707">
        <ele>171.2</ele>
        <time>2022-04-03T13:14:09Z</time>
      </trkpt>
      <trkpt lat="45.932" lon="0.64706">
        <ele>170.2</ele>
        <time>2022-04-03T13:14:10Z</time>
      </trkpt>
      <trkpt lat="45.93209" lon="0.64705">
        <ele>169.4</ele>
        <time>2022-04-03T13:14:11Z</time>
      </trkpt>
      <trkpt lat="45.93218" lon="0.64705">
        <ele>168.4</ele>
        <time>2022-04-03T13:14:12Z</time>
      </trkpt>
      <trkpt lat="45.93226" lon="0.64705">
        <ele>167.8</ele>
        <time>2022-04-03T13:14:13Z</time>
      </trkpt>
      <trkpt lat="45.93235" lon="0.64705">
        <ele>167.2</ele>
        <time>2022-04-03T13:14:14Z</time>
      </trkpt>
      <trkpt lat="45.93242" lon="0.64706">
        <ele>167.2</ele>
        <time>2022-04-03T13:14:15Z</time>
      </trkpt>
      <trkpt lat="45.93249" lon="0.64707">
        <ele>167.2</ele>
        <time>2022-04-03T13:14:16Z</time>
      </trkpt>
      <trkpt lat="45.93256" lon="0.64707">
        <ele>167</ele>
        <time>2022-04-03T13:14:17Z</time>
      </trkpt>
      <trkpt lat="45.93264" lon="0.64707">
        <ele>167</ele>
        <time>2022-04-03T13:14:18Z</time>
      </trkpt>
      <trkpt lat="45.93271" lon="0.64707">
        <ele>167</ele>
        <time>2022-04-03T13:14:19Z</time>
      </trkpt>
      <trkpt lat="45.93277" lon="0.64707">
        <ele>167.2</ele>
        <time>2022-04-03T13:14:20Z</time>
      </trkpt>
      <trkpt lat="45.93284" lon="0.64707">
        <ele>167.2</ele>
        <time>2022-04-03T13:14:21Z</time>
      </trkpt>
      <trkpt lat="45.93291" lon="0.64707">
        <ele>167</ele>
        <time>2022-04-03T13:14:22Z</time>
      </trkpt>
      <trkpt lat="45.93298" lon="0.64706">
        <ele>167.4</ele>
        <time>2022-04-03T13:14:23Z</time>
      </trkpt>
      <trkpt lat="45.93305" lon="0.64706">
        <ele>167.8</ele>
        <time>2022-04-03T13:14:24Z</time>
      </trkpt>
      <trkpt lat="45.93312" lon="0.64706">
        <ele>168</ele>
        <time>2022-04-03T13:14:25Z</time>
      </trkpt>
      <trkpt lat="45.93318" lon="0.64705">
        <ele>168.2</ele>
        <time>2022-04-03T13:14:26Z</time>
      </trkpt>
      <trkpt lat="45.93325" lon="0.64704">
        <ele>168.4</ele>
        <time>2022-04-03T13:14:27Z</time>
      </trkpt>
      <trkpt lat="45.93331" lon="0.64703">
        <ele>168.4</ele>
        <time>2022-04-03T13:14:28Z</time>
      </trkpt>
      <trkpt lat="45.93337" lon="0.64701">
        <ele>168.4</ele>
        <time>2022-04-03T13:14:29Z</time>
      </trkpt>
      <trkpt lat="45.93344" lon="0.64699">
        <ele>168.6</ele>
        <time>2022-04-03T13:14:30Z</time>
      </trkpt>
      <trkpt lat="45.9335" lon="0.64696">
        <ele>168.6</ele>
        <time>2022-04-03T13:14:31Z</time>
      </trkpt>
      <trkpt lat="45.93355" lon="0.64693">
        <ele>168.4</ele>
        <time>2022-04-03T13:14:32Z</time>
      </trkpt>
      <trkpt lat="45.93361" lon="0.64689">
        <ele>168.8</ele>
        <time>2022-04-03T13:14:33Z</time>
      </trkpt>
      <trkpt lat="45.93366" lon="0.64686">
        <ele>168.8</ele>
        <time>2022-04-03T13:14:34Z</time>
      </trkpt>
      <trkpt lat="45.93372" lon="0.64682">
        <ele>168.6</ele>
        <time>2022-04-03T13:14:35Z</time>
      </trkpt>
      <trkpt lat="45.93377" lon="0.64678">
        <ele>168.6</ele>
        <time>2022-04-03T13:14:36Z</time>
      </trkpt>
      <trkpt lat="45.93383" lon="0.64675">
        <ele>168.6</ele>
        <time>2022-04-03T13:14:37Z</time>
      </trkpt>
      <trkpt lat="45.93388" lon="0.64671">
        <ele>168.6</ele>
        <time>2022-04-03T13:14:38Z</time>
      </trkpt>
      <trkpt lat="45.93394" lon="0.64667">
        <ele>168.4</ele>
        <time>2022-04-03T13:14:39Z</time>
      </trkpt>
      <trkpt lat="45.93399" lon="0.64663">
        <ele>168.4</ele>
        <time>2022-04-03T13:14:40Z</time>
      </trkpt>
      <trkpt lat="45.93405" lon="0.64659">
        <ele>168.4</ele>
        <time>2022-04-03T13:14:41Z</time>
      </trkpt>
      <trkpt lat="45.93411" lon="0.64655">
        <ele>168.4</ele>
        <time>2022-04-03T13:14:42Z</time>
      </trkpt>
      <trkpt lat="45.93416" lon="0.64651">
        <ele>168.4</ele>
        <time>2022-04-03T13:14:43Z</time>
      </trkpt>
      <trkpt lat="45.93422" lon="0.64647">
        <ele>168</ele>
        <time>2022-04-03T13:14:44Z</time>
      </trkpt>
      <trkpt lat="45.93428" lon="0.64643">
        <ele>168</ele>
        <time>2022-04-03T13:14:45Z</time>
      </trkpt>
      <trkpt lat="45.93434" lon="0.64639">
        <ele>167.8</ele>
        <time>2022-04-03T13:14:46Z</time>
      </trkpt>
      <trkpt lat="45.9344" lon="0.64635">
        <ele>167.4</ele>
        <time>2022-04-03T13:14:47Z</time>
      </trkpt>
      <trkpt lat="45.93446" lon="0.6463">
        <ele>167.4</ele>
        <time>2022-04-03T13:14:48Z</time>
      </trkpt>
      <trkpt lat="45.93452" lon="0.64627">
        <ele>167.4</ele>
        <time>2022-04-03T13:14:49Z</time>
      </trkpt>
      <trkpt lat="45.93458" lon="0.64623">
        <ele>167</ele>
        <time>2022-04-03T13:14:50Z</time>
      </trkpt>
      <trkpt lat="45.93465" lon="0.64619">
        <ele>166.8</ele>
        <time>2022-04-03T13:14:51Z</time>
      </trkpt>
      <trkpt lat="45.93471" lon="0.64616">
        <ele>166.2</ele>
        <time>2022-04-03T13:14:52Z</time>
      </trkpt>
      <trkpt lat="45.93478" lon="0.64613">
        <ele>166.2</ele>
        <time>2022-04-03T13:14:53Z</time>
      </trkpt>
      <trkpt lat="45.93485" lon="0.6461">
        <ele>165.6</ele>
        <time>2022-04-03T13:14:54Z</time>
      </trkpt>
      <trkpt lat="45.93492" lon="0.64609">
        <ele>165.6</ele>
        <time>2022-04-03T13:14:55Z</time>
      </trkpt>
      <trkpt lat="45.93499" lon="0.64608">
        <ele>165.4</ele>
        <time>2022-04-03T13:14:56Z</time>
      </trkpt>
      <trkpt lat="45.93506" lon="0.64608">
        <ele>164.8</ele>
        <time>2022-04-03T13:14:57Z</time>
      </trkpt>
      <trkpt lat="45.93513" lon="0.6461">
        <ele>164.4</ele>
        <time>2022-04-03T13:14:58Z</time>
      </trkpt>
      <trkpt lat="45.9352" lon="0.64612">
        <ele>164.4</ele>
        <time>2022-04-03T13:14:59Z</time>
      </trkpt>
      <trkpt lat="45.93527" lon="0.64615">
        <ele>163.8</ele>
        <time>2022-04-03T13:15:00Z</time>
      </trkpt>
      <trkpt lat="45.93533" lon="0.64618">
        <ele>163.8</ele>
        <time>2022-04-03T13:15:01Z</time>
      </trkpt>
      <trkpt lat="45.93539" lon="0.64622">
        <ele>163.2</ele>
        <time>2022-04-03T13:15:02Z</time>
      </trkpt>
      <trkpt lat="45.93545" lon="0.64627">
        <ele>162.8</ele>
        <time>2022-04-03T13:15:03Z</time>
      </trkpt>
      <trkpt lat="45.9355" lon="0.64633">
        <ele>162.4</ele>
        <time>2022-04-03T13:15:04Z</time>
      </trkpt>
      <trkpt lat="45.93556" lon="0.64639">
        <ele>161.8</ele>
        <time>2022-04-03T13:15:05Z</time>
      </trkpt>
      <trkpt lat="45.93561" lon="0.64646">
        <ele>161.6</ele>
        <time>2022-04-03T13:15:06Z</time>
      </trkpt>
      <trkpt lat="45.93565" lon="0.64652">
        <ele>161.2</ele>
        <time>2022-04-03T13:15:07Z</time>
      </trkpt>
      <trkpt lat="45.93569" lon="0.64659">
        <ele>161</ele>
        <time>2022-04-03T13:15:08Z</time>
      </trkpt>
      <trkpt lat="45.93574" lon="0.64665">
        <ele>160.8</ele>
        <time>2022-04-03T13:15:09Z</time>
      </trkpt>
      <trkpt lat="45.93579" lon="0.64672">
        <ele>160.6</ele>
        <time>2022-04-03T13:15:10Z</time>
      </trkpt>
      <trkpt lat="45.93584" lon="0.64678">
        <ele>160.6</ele>
        <time>2022-04-03T13:15:11Z</time>
      </trkpt>
      <trkpt lat="45.93589" lon="0.64684">
        <ele>160.4</ele>
        <time>2022-04-03T13:15:12Z</time>
      </trkpt>
      <trkpt lat="45.93595" lon="0.6469">
        <ele>160.4</ele>
        <time>2022-04-03T13:15:13Z</time>
      </trkpt>
      <trkpt lat="45.93601" lon="0.64695">
        <ele>160.4</ele>
        <time>2022-04-03T13:15:14Z</time>
      </trkpt>
      <trkpt lat="45.93607" lon="0.64701">
        <ele>160</ele>
        <time>2022-04-03T13:15:15Z</time>
      </trkpt>
      <trkpt lat="45.93613" lon="0.64706">
        <ele>160.2</ele>
        <time>2022-04-03T13:15:16Z</time>
      </trkpt>
      <trkpt lat="45.9362" lon="0.6471">
        <ele>160</ele>
        <time>2022-04-03T13:15:17Z</time>
      </trkpt>
      <trkpt lat="45.93626" lon="0.64714">
        <ele>160</ele>
        <time>2022-04-03T13:15:18Z</time>
      </trkpt>
      <trkpt lat="45.93633" lon="0.64718">
        <ele>159.8</ele>
        <time>2022-04-03T13:15:19Z</time>
      </trkpt>
      <trkpt lat="45.9364" lon="0.64721">
        <ele>160</ele>
        <time>2022-04-03T13:15:20Z</time>
      </trkpt>
      <trkpt lat="45.93647" lon="0.64725">
        <ele>159.8</ele>
        <time>2022-04-03T13:15:21Z</time>
      </trkpt>
      <trkpt lat="45.93653" lon="0.64728">
        <ele>159.8</ele>
        <time>2022-04-03T13:15:22Z</time>
      </trkpt>
      <trkpt lat="45.9366" lon="0.6473">
        <ele>159.8</ele>
        <time>2022-04-03T13:15:23Z</time>
      </trkpt>
      <trkpt lat="45.93666" lon="0.64732">
        <ele>159.4</ele>
        <time>2022-04-03T13:15:24Z</time>
      </trkpt>
      <trkpt lat="45.93673" lon="0.64734">
        <ele>159.2</ele>
        <time>2022-04-03T13:15:25Z</time>
      </trkpt>
      <trkpt lat="45.93679" lon="0.64735">
        <ele>159</ele>
        <time>2022-04-03T13:15:26Z</time>
      </trkpt>
      <trkpt lat="45.93685" lon="0.64737">
        <ele>158.8</ele>
        <time>2022-04-03T13:15:27Z</time>
      </trkpt>
      <trkpt lat="45.93691" lon="0.64739">
        <ele>158.6</ele>
        <time>2022-04-03T13:15:28Z</time>
      </trkpt>
      <trkpt lat="45.93698" lon="0.6474">
        <ele>158.4</ele>
        <time>2022-04-03T13:15:29Z</time>
      </trkpt>
      <trkpt lat="45.93704" lon="0.6474">
        <ele>158.4</ele>
        <time>2022-04-03T13:15:30Z</time>
      </trkpt>
      <trkpt lat="45.9371" lon="0.6474">
        <ele>158</ele>
        <time>2022-04-03T13:15:31Z</time>
      </trkpt>
      <trkpt lat="45.93717" lon="0.6474">
        <ele>158</ele>
        <time>2022-04-03T13:15:32Z</time>
      </trkpt>
      <trkpt lat="45.93723" lon="0.6474">
        <ele>158</ele>
        <time>2022-04-03T13:15:33Z</time>
      </trkpt>
      <trkpt lat="45.93729" lon="0.6474">
        <ele>157.6</ele>
        <time>2022-04-03T13:15:34Z</time>
      </trkpt>
      <trkpt lat="45.93736" lon="0.64739">
        <ele>157.6</ele>
        <time>2022-04-03T13:15:35Z</time>
      </trkpt>
      <trkpt lat="45.93742" lon="0.64738">
        <ele>157.6</ele>
        <time>2022-04-03T13:15:36Z</time>
      </trkpt>
      <trkpt lat="45.93749" lon="0.64736">
        <ele>157.6</ele>
        <time>2022-04-03T13:15:37Z</time>
      </trkpt>
      <trkpt lat="45.93755" lon="0.64734">
        <ele>157.4</ele>
        <time>2022-04-03T13:15:38Z</time>
      </trkpt>
      <trkpt lat="45.93762" lon="0.64732">
        <ele>157.4</ele>
        <time>2022-04-03T13:15:39Z</time>
      </trkpt>
      <trkpt lat="45.93769" lon="0.64729">
        <ele>157.2</ele>
        <time>2022-04-03T13:15:40Z</time>
      </trkpt>
      <trkpt lat="45.93776" lon="0.64725">
        <ele>157.4</ele>
        <time>2022-04-03T13:15:41Z</time>
      </trkpt>
      <trkpt lat="45.93783" lon="0.64722">
        <ele>157.2</ele>
        <time>2022-04-03T13:15:42Z</time>
      </trkpt>
      <trkpt lat="45.9379" lon="0.64717">
        <ele>157</ele>
        <time>2022-04-03T13:15:43Z</time>
      </trkpt>
      <trkpt lat="45.93797" lon="0.64713">
        <ele>156.8</ele>
        <time>2022-04-03T13:15:44Z</time>
      </trkpt>
      <trkpt lat="45.93804" lon="0.64709">
        <ele>156.6</ele>
        <time>2022-04-03T13:15:45Z</time>
      </trkpt>
      <trkpt lat="45.93811" lon="0.64704">
        <ele>156.2</ele>
        <time>2022-04-03T13:15:46Z</time>
      </trkpt>
      <trkpt lat="45.93818" lon="0.64699">
        <ele>155.6</ele>
        <time>2022-04-03T13:15:47Z</time>
      </trkpt>
      <trkpt lat="45.93825" lon="0.64694">
        <ele>155.4</ele>
        <time>2022-04-03T13:15:48Z</time>
      </trkpt>
      <trkpt lat="45.93832" lon="0.64689">
        <ele>155</ele>
        <time>2022-04-03T13:15:49Z</time>
      </trkpt>
      <trkpt lat="45.93839" lon="0.64685">
        <ele>154.6</ele>
        <time>2022-04-03T13:15:50Z</time>
      </trkpt>
      <trkpt lat="45.93846" lon="0.6468">
        <ele>154</ele>
        <time>2022-04-03T13:15:51Z</time>
      </trkpt>
      <trkpt lat="45.93854" lon="0.64675">
        <ele>153.8</ele>
        <time>2022-04-03T13:15:52Z</time>
      </trkpt>
      <trkpt lat="45.93861" lon="0.6467">
        <ele>153.6</ele>
        <time>2022-04-03T13:15:53Z</time>
      </trkpt>
      <trkpt lat="45.93868" lon="0.64665">
        <ele>153.2</ele>
        <time>2022-04-03T13:15:54Z</time>
      </trkpt>
      <trkpt lat="45.93875" lon="0.64659">
        <ele>153.2</ele>
        <time>2022-04-03T13:15:55Z</time>
      </trkpt>
      <trkpt lat="45.93882" lon="0.64654">
        <ele>152.8</ele>
        <time>2022-04-03T13:15:56Z</time>
      </trkpt>
      <trkpt lat="45.9389" lon="0.64649">
        <ele>152.2</ele>
        <time>2022-04-03T13:15:57Z</time>
      </trkpt>
      <trkpt lat="45.93897" lon="0.64644">
        <ele>151.8</ele>
        <time>2022-04-03T13:15:58Z</time>
      </trkpt>
      <trkpt lat="45.93904" lon="0.64639">
        <ele>151.4</ele>
        <time>2022-04-03T13:15:59Z</time>
      </trkpt>
      <trkpt lat="45.9391" lon="0.64635">
        <ele>151.2</ele>
        <time>2022-04-03T13:16:00Z</time>
      </trkpt>
      <trkpt lat="45.93916" lon="0.6463">
        <ele>151</ele>
        <time>2022-04-03T13:16:01Z</time>
      </trkpt>
      <trkpt lat="45.93922" lon="0.64626">
        <ele>150.4</ele>
        <time>2022-04-03T13:16:02Z</time>
      </trkpt>
      <trkpt lat="45.93928" lon="0.64622">
        <ele>150.2</ele>
        <time>2022-04-03T13:16:03Z</time>
      </trkpt>
      <trkpt lat="45.93933" lon="0.64617">
        <ele>149.8</ele>
        <time>2022-04-03T13:16:04Z</time>
      </trkpt>
      <trkpt lat="45.93938" lon="0.64613">
        <ele>149.4</ele>
        <time>2022-04-03T13:16:05Z</time>
      </trkpt>
      <trkpt lat="45.93943" lon="0.64609">
        <ele>149.4</ele>
        <time>2022-04-03T13:16:06Z</time>
      </trkpt>
      <trkpt lat="45.93947" lon="0.64605">
        <ele>149.4</ele>
        <time>2022-04-03T13:16:07Z</time>
      </trkpt>
      <trkpt lat="45.93952" lon="0.64601">
        <ele>149.2</ele>
        <time>2022-04-03T13:16:08Z</time>
      </trkpt>
      <trkpt lat="45.93956" lon="0.64597">
        <ele>149.4</ele>
        <time>2022-04-03T13:16:09Z</time>
      </trkpt>
      <trkpt lat="45.9396" lon="0.64593">
        <ele>149.2</ele>
        <time>2022-04-03T13:16:10Z</time>
      </trkpt>
      <trkpt lat="45.93964" lon="0.64589">
        <ele>149.4</ele>
        <time>2022-04-03T13:16:11Z</time>
      </trkpt>
      <trkpt lat="45.93968" lon="0.64585">
        <ele>149.4</ele>
        <time>2022-04-03T13:16:12Z</time>
      </trkpt>
      <trkpt lat="45.93972" lon="0.64581">
        <ele>149.2</ele>
        <time>2022-04-03T13:16:13Z</time>
      </trkpt>
      <trkpt lat="45.93977" lon="0.64577">
        <ele>149.2</ele>
        <time>2022-04-03T13:16:14Z</time>
      </trkpt>
      <trkpt lat="45.93982" lon="0.64572">
        <ele>149.4</ele>
        <time>2022-04-03T13:16:15Z</time>
      </trkpt>
      <trkpt lat="45.93987" lon="0.64567">
        <ele>149.6</ele>
        <time>2022-04-03T13:16:16Z</time>
      </trkpt>
      <trkpt lat="45.93992" lon="0.64562">
        <ele>149.6</ele>
        <time>2022-04-03T13:16:17Z</time>
      </trkpt>
      <trkpt lat="45.93997" lon="0.64556">
        <ele>149.8</ele>
        <time>2022-04-03T13:16:18Z</time>
      </trkpt>
      <trkpt lat="45.94003" lon="0.64551">
        <ele>149.6</ele>
        <time>2022-04-03T13:16:19Z</time>
      </trkpt>
      <trkpt lat="45.94008" lon="0.64545">
        <ele>149.8</ele>
        <time>2022-04-03T13:16:20Z</time>
      </trkpt>
      <trkpt lat="45.94014" lon="0.6454">
        <ele>149.6</ele>
        <time>2022-04-03T13:16:21Z</time>
      </trkpt>
      <trkpt lat="45.94019" lon="0.64534">
        <ele>149.6</ele>
        <time>2022-04-03T13:16:22Z</time>
      </trkpt>
      <trkpt lat="45.94024" lon="0.64528">
        <ele>149.8</ele>
        <time>2022-04-03T13:16:23Z</time>
      </trkpt>
      <trkpt lat="45.94029" lon="0.64523">
        <ele>149.8</ele>
        <time>2022-04-03T13:16:24Z</time>
      </trkpt>
      <trkpt lat="45.94034" lon="0.64517">
        <ele>149.8</ele>
        <time>2022-04-03T13:16:25Z</time>
      </trkpt>
      <trkpt lat="45.9404" lon="0.64512">
        <ele>149.8</ele>
        <time>2022-04-03T13:16:26Z</time>
      </trkpt>
      <trkpt lat="45.94045" lon="0.64506">
        <ele>149.4</ele>
        <time>2022-04-03T13:16:27Z</time>
      </trkpt>
      <trkpt lat="45.94049" lon="0.64502">
        <ele>149</ele>
        <time>2022-04-03T13:16:28Z</time>
      </trkpt>
      <trkpt lat="45.94054" lon="0.64497">
        <ele>148.6</ele>
        <time>2022-04-03T13:16:29Z</time>
      </trkpt>
      <trkpt lat="45.94059" lon="0.64492">
        <ele>148.2</ele>
        <time>2022-04-03T13:16:30Z</time>
      </trkpt>
      <trkpt lat="45.94063" lon="0.64488">
        <ele>148</ele>
        <time>2022-04-03T13:16:31Z</time>
      </trkpt>
      <trkpt lat="45.94067" lon="0.64484">
        <ele>147.4</ele>
        <time>2022-04-03T13:16:32Z</time>
      </trkpt>
      <trkpt lat="45.9407" lon="0.64479">
        <ele>147.4</ele>
        <time>2022-04-03T13:16:33Z</time>
      </trkpt>
      <trkpt lat="45.94073" lon="0.64475">
        <ele>147.2</ele>
        <time>2022-04-03T13:16:34Z</time>
      </trkpt>
      <trkpt lat="45.94075" lon="0.64469">
        <ele>146.8</ele>
        <time>2022-04-03T13:16:35Z</time>
      </trkpt>
      <trkpt lat="45.94077" lon="0.64463">
        <ele>146.4</ele>
        <time>2022-04-03T13:16:36Z</time>
      </trkpt>
      <trkpt lat="45.94077" lon="0.64456">
        <ele>146.2</ele>
        <time>2022-04-03T13:16:37Z</time>
      </trkpt>
      <trkpt lat="45.94077" lon="0.64448">
        <ele>145.8</ele>
        <time>2022-04-03T13:16:38Z</time>
      </trkpt>
      <trkpt lat="45.94077" lon="0.64441">
        <ele>145.4</ele>
        <time>2022-04-03T13:16:39Z</time>
      </trkpt>
      <trkpt lat="45.94077" lon="0.64432">
        <ele>145.2</ele>
        <time>2022-04-03T13:16:40Z</time>
      </trkpt>
      <trkpt lat="45.94076" lon="0.64424">
        <ele>144.8</ele>
        <time>2022-04-03T13:16:41Z</time>
      </trkpt>
      <trkpt lat="45.94076" lon="0.64415">
        <ele>144.6</ele>
        <time>2022-04-03T13:16:42Z</time>
      </trkpt>
      <trkpt lat="45.94075" lon="0.64407">
        <ele>144.6</ele>
        <time>2022-04-03T13:16:43Z</time>
      </trkpt>
      <trkpt lat="45.94074" lon="0.64398">
        <ele>144.4</ele>
        <time>2022-04-03T13:16:44Z</time>
      </trkpt>
      <trkpt lat="45.94074" lon="0.64389">
        <ele>144</ele>
        <time>2022-04-03T13:16:45Z</time>
      </trkpt>
      <trkpt lat="45.94073" lon="0.64381">
        <ele>143.4</ele>
        <time>2022-04-03T13:16:46Z</time>
      </trkpt>
      <trkpt lat="45.94073" lon="0.64373">
        <ele>142.6</ele>
        <time>2022-04-03T13:16:47Z</time>
      </trkpt>
      <trkpt lat="45.94072" lon="0.64365">
        <ele>142.4</ele>
        <time>2022-04-03T13:16:48Z</time>
      </trkpt>
      <trkpt lat="45.94072" lon="0.64356">
        <ele>142.2</ele>
        <time>2022-04-03T13:16:49Z</time>
      </trkpt>
      <trkpt lat="45.94072" lon="0.64349">
        <ele>142.2</ele>
        <time>2022-04-03T13:16:50Z</time>
      </trkpt>
      <trkpt lat="45.94072" lon="0.64341">
        <ele>142.2</ele>
        <time>2022-04-03T13:16:51Z</time>
      </trkpt>
      <trkpt lat="45.94072" lon="0.64333">
        <ele>142.2</ele>
        <time>2022-04-03T13:16:52Z</time>
      </trkpt>
      <trkpt lat="45.94071" lon="0.64326">
        <ele>142.2</ele>
        <time>2022-04-03T13:16:53Z</time>
      </trkpt>
      <trkpt lat="45.94071" lon="0.64318">
        <ele>142</ele>
        <time>2022-04-03T13:16:54Z</time>
      </trkpt>
      <trkpt lat="45.94071" lon="0.64311">
        <ele>142</ele>
        <time>2022-04-03T13:16:55Z</time>
      </trkpt>
      <trkpt lat="45.94071" lon="0.64304">
        <ele>142</ele>
        <time>2022-04-03T13:16:56Z</time>
      </trkpt>
      <trkpt lat="45.94071" lon="0.64297">
        <ele>141.8</ele>
        <time>2022-04-03T13:16:57Z</time>
      </trkpt>
      <trkpt lat="45.94071" lon="0.64291">
        <ele>142</ele>
        <time>2022-04-03T13:16:58Z</time>
      </trkpt>
      <trkpt lat="45.94071" lon="0.64284">
        <ele>141.8</ele>
        <time>2022-04-03T13:16:59Z</time>
      </trkpt>
      <trkpt lat="45.94071" lon="0.64277">
        <ele>141.8</ele>
        <time>2022-04-03T13:17:00Z</time>
      </trkpt>
      <trkpt lat="45.94071" lon="0.64271">
        <ele>141.8</ele>
        <time>2022-04-03T13:17:01Z</time>
      </trkpt>
      <trkpt lat="45.94072" lon="0.64264">
        <ele>141.8</ele>
        <time>2022-04-03T13:17:02Z</time>
      </trkpt>
      <trkpt lat="45.94073" lon="0.64257">
        <ele>141.8</ele>
        <time>2022-04-03T13:17:03Z</time>
      </trkpt>
      <trkpt lat="45.94073" lon="0.6425">
        <ele>141.8</ele>
        <time>2022-04-03T13:17:04Z</time>
      </trkpt>
      <trkpt lat="45.94073" lon="0.64243">
        <ele>141.8</ele>
        <time>2022-04-03T13:17:05Z</time>
      </trkpt>
      <trkpt lat="45.94073" lon="0.64236">
        <ele>141.8</ele>
        <time>2022-04-03T13:17:06Z</time>
      </trkpt>
      <trkpt lat="45.94073" lon="0.64229">
        <ele>141.8</ele>
        <time>2022-04-03T13:17:07Z</time>
      </trkpt>
      <trkpt lat="45.94074" lon="0.64222">
        <ele>141.8</ele>
        <time>2022-04-03T13:17:08Z</time>
      </trkpt>
      <trkpt lat="45.94074" lon="0.64216">
        <ele>141.6</ele>
        <time>2022-04-03T13:17:09Z</time>
      </trkpt>
      <trkpt lat="45.94074" lon="0.64209">
        <ele>141.4</ele>
        <time>2022-04-03T13:17:10Z</time>
      </trkpt>
      <trkpt lat="45.94075" lon="0.64202">
        <ele>141.4</ele>
        <time>2022-04-03T13:17:11Z</time>
      </trkpt>
      <trkpt lat="45.94074" lon="0.64194">
        <ele>141.2</ele>
        <time>2022-04-03T13:17:12Z</time>
      </trkpt>
      <trkpt lat="45.94074" lon="0.64187">
        <ele>141.2</ele>
        <time>2022-04-03T13:17:13Z</time>
      </trkpt>
      <trkpt lat="45.94074" lon="0.64179">
        <ele>141</ele>
        <time>2022-04-03T13:17:14Z</time>
      </trkpt>
      <trkpt lat="45.94074" lon="0.64171">
        <ele>141</ele>
        <time>2022-04-03T13:17:15Z</time>
      </trkpt>
      <trkpt lat="45.94074" lon="0.64164">
        <ele>140.8</ele>
        <time>2022-04-03T13:17:16Z</time>
      </trkpt>
      <trkpt lat="45.94074" lon="0.64156">
        <ele>140.8</ele>
        <time>2022-04-03T13:17:17Z</time>
      </trkpt>
      <trkpt lat="45.94074" lon="0.64148">
        <ele>140.8</ele>
        <time>2022-04-03T13:17:18Z</time>
      </trkpt>
      <trkpt lat="45.94073" lon="0.64141">
        <ele>140.6</ele>
        <time>2022-04-03T13:17:19Z</time>
      </trkpt>
      <trkpt lat="45.94073" lon="0.64133">
        <ele>140.6</ele>
        <time>2022-04-03T13:17:20Z</time>
      </trkpt>
      <trkpt lat="45.94072" lon="0.64126">
        <ele>140.6</ele>
        <time>2022-04-03T13:17:21Z</time>
      </trkpt>
      <trkpt lat="45.94072" lon="0.64118">
        <ele>140.4</ele>
        <time>2022-04-03T13:17:22Z</time>
      </trkpt>
      <trkpt lat="45.94072" lon="0.6411">
        <ele>140.4</ele>
        <time>2022-04-03T13:17:23Z</time>
      </trkpt>
      <trkpt lat="45.94071" lon="0.64103">
        <ele>140.4</ele>
        <time>2022-04-03T13:17:24Z</time>
      </trkpt>
      <trkpt lat="45.94071" lon="0.64095">
        <ele>140.4</ele>
        <time>2022-04-03T13:17:25Z</time>
      </trkpt>
      <trkpt lat="45.9407" lon="0.64087">
        <ele>140.4</ele>
        <time>2022-04-03T13:17:26Z</time>
      </trkpt>
      <trkpt lat="45.9407" lon="0.6408">
        <ele>140.4</ele>
        <time>2022-04-03T13:17:27Z</time>
      </trkpt>
      <trkpt lat="45.9407" lon="0.64072">
        <ele>140.4</ele>
        <time>2022-04-03T13:17:28Z</time>
      </trkpt>
      <trkpt lat="45.9407" lon="0.64065">
        <ele>140.2</ele>
        <time>2022-04-03T13:17:29Z</time>
      </trkpt>
      <trkpt lat="45.9407" lon="0.64057">
        <ele>140.2</ele>
        <time>2022-04-03T13:17:30Z</time>
      </trkpt>
      <trkpt lat="45.9407" lon="0.6405">
        <ele>140.2</ele>
        <time>2022-04-03T13:17:31Z</time>
      </trkpt>
      <trkpt lat="45.9407" lon="0.64044">
        <ele>140.2</ele>
        <time>2022-04-03T13:17:32Z</time>
      </trkpt>
      <trkpt lat="45.9407" lon="0.64038">
        <ele>140.2</ele>
        <time>2022-04-03T13:17:33Z</time>
      </trkpt>
      <trkpt lat="45.9407" lon="0.64032">
        <ele>140.4</ele>
        <time>2022-04-03T13:17:34Z</time>
      </trkpt>
      <trkpt lat="45.9407" lon="0.64026">
        <ele>140.4</ele>
        <time>2022-04-03T13:17:35Z</time>
      </trkpt>
      <trkpt lat="45.9407" lon="0.6402">
        <ele>140.4</ele>
        <time>2022-04-03T13:17:36Z</time>
      </trkpt>
      <trkpt lat="45.9407" lon="0.64014">
        <ele>140.4</ele>
        <time>2022-04-03T13:17:37Z</time>
      </trkpt>
      <trkpt lat="45.9407" lon="0.64008">
        <ele>140.4</ele>
        <time>2022-04-03T13:17:38Z</time>
      </trkpt>
      <trkpt lat="45.9407" lon="0.64003">
        <ele>140.6</ele>
        <time>2022-04-03T13:17:39Z</time>
      </trkpt>
      <trkpt lat="45.9407" lon="0.63997">
        <ele>140.6</ele>
        <time>2022-04-03T13:17:40Z</time>
      </trkpt>
      <trkpt lat="45.9407" lon="0.63991">
        <ele>141</ele>
        <time>2022-04-03T13:17:41Z</time>
      </trkpt>
      <trkpt lat="45.9407" lon="0.63985">
        <ele>141.2</ele>
        <time>2022-04-03T13:17:42Z</time>
      </trkpt>
      <trkpt lat="45.94069" lon="0.6398">
        <ele>141.4</ele>
        <time>2022-04-03T13:17:43Z</time>
      </trkpt>
      <trkpt lat="45.94069" lon="0.63975">
        <ele>141.4</ele>
        <time>2022-04-03T13:17:44Z</time>
      </trkpt>
      <trkpt lat="45.94069" lon="0.63969">
        <ele>141.4</ele>
        <time>2022-04-03T13:17:45Z</time>
      </trkpt>
      <trkpt lat="45.94069" lon="0.63964">
        <ele>141.6</ele>
        <time>2022-04-03T13:17:46Z</time>
      </trkpt>
      <trkpt lat="45.94069" lon="0.63958">
        <ele>141.8</ele>
        <time>2022-04-03T13:17:47Z</time>
      </trkpt>
      <trkpt lat="45.94069" lon="0.63953">
        <ele>142</ele>
        <time>2022-04-03T13:17:48Z</time>
      </trkpt>
      <trkpt lat="45.94069" lon="0.63947">
        <ele>142</ele>
        <time>2022-04-03T13:17:49Z</time>
      </trkpt>
      <trkpt lat="45.94069" lon="0.63942">
        <ele>142</ele>
        <time>2022-04-03T13:17:50Z</time>
      </trkpt>
      <trkpt lat="45.94069" lon="0.63937">
        <ele>142</ele>
        <time>2022-04-03T13:17:51Z</time>
      </trkpt>
      <trkpt lat="45.94069" lon="0.63933">
        <ele>142.4</ele>
        <time>2022-04-03T13:17:52Z</time>
      </trkpt>
      <trkpt lat="45.9407" lon="0.63928">
        <ele>142.6</ele>
        <time>2022-04-03T13:17:53Z</time>
      </trkpt>
      <trkpt lat="45.9407" lon="0.63923">
        <ele>143</ele>
        <time>2022-04-03T13:17:54Z</time>
      </trkpt>
      <trkpt lat="45.9407" lon="0.63919">
        <ele>143.2</ele>
        <time>2022-04-03T13:17:55Z</time>
      </trkpt>
      <trkpt lat="45.9407" lon="0.63914">
        <ele>143.4</ele>
        <time>2022-04-03T13:17:56Z</time>
      </trkpt>
      <trkpt lat="45.9407" lon="0.6391">
        <ele>143.6</ele>
        <time>2022-04-03T13:17:57Z</time>
      </trkpt>
      <trkpt lat="45.9407" lon="0.63905">
        <ele>143.8</ele>
        <time>2022-04-03T13:17:58Z</time>
      </trkpt>
      <trkpt lat="45.94071" lon="0.63901">
        <ele>144</ele>
        <time>2022-04-03T13:17:59Z</time>
      </trkpt>
      <trkpt lat="45.94071" lon="0.63897">
        <ele>144.2</ele>
        <time>2022-04-03T13:18:00Z</time>
      </trkpt>
      <trkpt lat="45.94072" lon="0.63893">
        <ele>144.4</ele>
        <time>2022-04-03T13:18:01Z</time>
      </trkpt>
      <trkpt lat="45.94072" lon="0.63889">
        <ele>144.8</ele>
        <time>2022-04-03T13:18:02Z</time>
      </trkpt>
      <trkpt lat="45.94073" lon="0.63885">
        <ele>145</ele>
        <time>2022-04-03T13:18:03Z</time>
      </trkpt>
      <trkpt lat="45.94074" lon="0.63881">
        <ele>145</ele>
        <time>2022-04-03T13:18:04Z</time>
      </trkpt>
      <trkpt lat="45.94074" lon="0.63878">
        <ele>145.4</ele>
        <time>2022-04-03T13:18:05Z</time>
      </trkpt>
      <trkpt lat="45.94075" lon="0.63875">
        <ele>145.6</ele>
        <time>2022-04-03T13:18:06Z</time>
      </trkpt>
      <trkpt lat="45.94076" lon="0.63871">
        <ele>145.6</ele>
        <time>2022-04-03T13:18:07Z</time>
      </trkpt>
      <trkpt lat="45.94076" lon="0.63868">
        <ele>145.6</ele>
        <time>2022-04-03T13:18:08Z</time>
      </trkpt>
      <trkpt lat="45.94077" lon="0.63865">
        <ele>145.8</ele>
        <time>2022-04-03T13:18:09Z</time>
      </trkpt>
      <trkpt lat="45.94078" lon="0.63862">
        <ele>145.8</ele>
        <time>2022-04-03T13:18:10Z</time>
      </trkpt>
      <trkpt lat="45.94079" lon="0.63859">
        <ele>146</ele>
        <time>2022-04-03T13:18:11Z</time>
      </trkpt>
      <trkpt lat="45.9408" lon="0.63856">
        <ele>146</ele>
        <time>2022-04-03T13:18:12Z</time>
      </trkpt>
      <trkpt lat="45.94081" lon="0.63853">
        <ele>146.4</ele>
        <time>2022-04-03T13:18:13Z</time>
      </trkpt>
      <trkpt lat="45.94082" lon="0.6385">
        <ele>146.6</ele>
        <time>2022-04-03T13:18:14Z</time>
      </trkpt>
      <trkpt lat="45.94083" lon="0.63847">
        <ele>146.8</ele>
        <time>2022-04-03T13:18:15Z</time>
      </trkpt>
      <trkpt lat="45.94084" lon="0.63844">
        <ele>146.8</ele>
        <time>2022-04-03T13:18:16Z</time>
      </trkpt>
      <trkpt lat="45.94086" lon="0.63841">
        <ele>147</ele>
        <time>2022-04-03T13:18:17Z</time>
      </trkpt>
      <trkpt lat="45.94087" lon="0.63838">
        <ele>147.2</ele>
        <time>2022-04-03T13:18:18Z</time>
      </trkpt>
      <trkpt lat="45.94088" lon="0.63835">
        <ele>147.4</ele>
        <time>2022-04-03T13:18:19Z</time>
      </trkpt>
      <trkpt lat="45.94089" lon="0.63832">
        <ele>147.4</ele>
        <time>2022-04-03T13:18:20Z</time>
      </trkpt>
      <trkpt lat="45.94091" lon="0.6383">
        <ele>147.6</ele>
        <time>2022-04-03T13:18:21Z</time>
      </trkpt>
      <trkpt lat="45.94092" lon="0.63827">
        <ele>147.6</ele>
        <time>2022-04-03T13:18:22Z</time>
      </trkpt>
      <trkpt lat="45.94093" lon="0.63824">
        <ele>147.8</ele>
        <time>2022-04-03T13:18:23Z</time>
      </trkpt>
      <trkpt lat="45.94094" lon="0.63821">
        <ele>147.8</ele>
        <time>2022-04-03T13:18:24Z</time>
      </trkpt>
      <trkpt lat="45.94096" lon="0.63819">
        <ele>147.8</ele>
        <time>2022-04-03T13:18:25Z</time>
      </trkpt>
      <trkpt lat="45.94097" lon="0.63816">
        <ele>147.8</ele>
        <time>2022-04-03T13:18:26Z</time>
      </trkpt>
      <trkpt lat="45.94098" lon="0.63813">
        <ele>147.8</ele>
        <time>2022-04-03T13:18:27Z</time>
      </trkpt>
      <trkpt lat="45.94099" lon="0.6381">
        <ele>148</ele>
        <time>2022-04-03T13:18:28Z</time>
      </trkpt>
      <trkpt lat="45.94101" lon="0.63807">
        <ele>148.2</ele>
        <time>2022-04-03T13:18:29Z</time>
      </trkpt>
      <trkpt lat="45.94102" lon="0.63804">
        <ele>148.4</ele>
        <time>2022-04-03T13:18:30Z</time>
      </trkpt>
      <trkpt lat="45.94104" lon="0.63802">
        <ele>148.4</ele>
        <time>2022-04-03T13:18:31Z</time>
      </trkpt>
      <trkpt lat="45.94105" lon="0.63799">
        <ele>148.2</ele>
        <time>2022-04-03T13:18:32Z</time>
      </trkpt>
      <trkpt lat="45.94107" lon="0.63797">
        <ele>148.4</ele>
        <time>2022-04-03T13:18:33Z</time>
      </trkpt>
      <trkpt lat="45.94108" lon="0.63794">
        <ele>148.8</ele>
        <time>2022-04-03T13:18:34Z</time>
      </trkpt>
      <trkpt lat="45.94109" lon="0.63791">
        <ele>149.2</ele>
        <time>2022-04-03T13:18:35Z</time>
      </trkpt>
      <trkpt lat="45.94111" lon="0.63789">
        <ele>149.6</ele>
        <time>2022-04-03T13:18:36Z</time>
      </trkpt>
      <trkpt lat="45.94113" lon="0.63786">
        <ele>149.8</ele>
        <time>2022-04-03T13:18:37Z</time>
      </trkpt>
      <trkpt lat="45.94114" lon="0.63784">
        <ele>150</ele>
        <time>2022-04-03T13:18:38Z</time>
      </trkpt>
      <trkpt lat="45.94116" lon="0.63782">
        <ele>150</ele>
        <time>2022-04-03T13:18:39Z</time>
      </trkpt>
      <trkpt lat="45.94118" lon="0.63779">
        <ele>150.2</ele>
        <time>2022-04-03T13:18:40Z</time>
      </trkpt>
      <trkpt lat="45.9412" lon="0.63776">
        <ele>150.2</ele>
        <time>2022-04-03T13:18:41Z</time>
      </trkpt>
      <trkpt lat="45.94121" lon="0.63773">
        <ele>150.2</ele>
        <time>2022-04-03T13:18:42Z</time>
      </trkpt>
      <trkpt lat="45.94122" lon="0.6377">
        <ele>150.2</ele>
        <time>2022-04-03T13:18:43Z</time>
      </trkpt>
      <trkpt lat="45.94124" lon="0.63768">
        <ele>150.4</ele>
        <time>2022-04-03T13:18:44Z</time>
      </trkpt>
      <trkpt lat="45.94126" lon="0.63766">
        <ele>150.4</ele>
        <time>2022-04-03T13:18:45Z</time>
      </trkpt>
      <trkpt lat="45.94128" lon="0.63763">
        <ele>150.6</ele>
        <time>2022-04-03T13:18:46Z</time>
      </trkpt>
      <trkpt lat="45.9413" lon="0.63761">
        <ele>150.6</ele>
        <time>2022-04-03T13:18:47Z</time>
      </trkpt>
      <trkpt lat="45.94131" lon="0.63758">
        <ele>150.8</ele>
        <time>2022-04-03T13:18:48Z</time>
      </trkpt>
      <trkpt lat="45.94133" lon="0.63756">
        <ele>150.8</ele>
        <time>2022-04-03T13:18:49Z</time>
      </trkpt>
      <trkpt lat="45.94135" lon="0.63754">
        <ele>151</ele>
        <time>2022-04-03T13:18:50Z</time>
      </trkpt>
      <trkpt lat="45.94137" lon="0.63751">
        <ele>151</ele>
        <time>2022-04-03T13:18:51Z</time>
      </trkpt>
      <trkpt lat="45.94138" lon="0.63749">
        <ele>151.2</ele>
        <time>2022-04-03T13:18:52Z</time>
      </trkpt>
      <trkpt lat="45.9414" lon="0.63746">
        <ele>151.2</ele>
        <time>2022-04-03T13:18:53Z</time>
      </trkpt>
      <trkpt lat="45.94142" lon="0.63744">
        <ele>151.4</ele>
        <time>2022-04-03T13:18:54Z</time>
      </trkpt>
      <trkpt lat="45.94144" lon="0.63742">
        <ele>151.2</ele>
        <time>2022-04-03T13:18:55Z</time>
      </trkpt>
      <trkpt lat="45.94146" lon="0.6374">
        <ele>151.2</ele>
        <time>2022-04-03T13:18:56Z</time>
      </trkpt>
      <trkpt lat="45.94148" lon="0.63738">
        <ele>151.4</ele>
        <time>2022-04-03T13:18:57Z</time>
      </trkpt>
      <trkpt lat="45.9415" lon="0.63736">
        <ele>151.6</ele>
        <time>2022-04-03T13:18:58Z</time>
      </trkpt>
      <trkpt lat="45.94152" lon="0.63734">
        <ele>152</ele>
        <time>2022-04-03T13:18:59Z</time>
      </trkpt>
      <trkpt lat="45.94154" lon="0.63733">
        <ele>152</ele>
        <time>2022-04-03T13:19:00Z</time>
      </trkpt>
      <trkpt lat="45.94156" lon="0.63731">
        <ele>152</ele>
        <time>2022-04-03T13:19:01Z</time>
      </trkpt>
      <trkpt lat="45.94159" lon="0.6373">
        <ele>152.2</ele>
        <time>2022-04-03T13:19:02Z</time>
      </trkpt>
      <trkpt lat="45.94161" lon="0.63728">
        <ele>152.4</ele>
        <time>2022-04-03T13:19:03Z</time>
      </trkpt>
      <trkpt lat="45.94163" lon="0.63728">
        <ele>152.4</ele>
        <time>2022-04-03T13:19:04Z</time>
      </trkpt>
      <trkpt lat="45.94165" lon="0.63727">
        <ele>152.4</ele>
        <time>2022-04-03T13:19:05Z</time>
      </trkpt>
      <trkpt lat="45.94167" lon="0.63726">
        <ele>152.4</ele>
        <time>2022-04-03T13:19:06Z</time>
      </trkpt>
      <trkpt lat="45.9417" lon="0.63725">
        <ele>152.4</ele>
        <time>2022-04-03T13:19:07Z</time>
      </trkpt>
      <trkpt lat="45.94172" lon="0.63724">
        <ele>152.6</ele>
        <time>2022-04-03T13:19:08Z</time>
      </trkpt>
      <trkpt lat="45.94174" lon="0.63723">
        <ele>152.6</ele>
        <time>2022-04-03T13:19:09Z</time>
      </trkpt>
      <trkpt lat="45.94176" lon="0.63722">
        <ele>152.8</ele>
        <time>2022-04-03T13:19:10Z</time>
      </trkpt>
      <trkpt lat="45.94179" lon="0.63721">
        <ele>152.8</ele>
        <time>2022-04-03T13:19:11Z</time>
      </trkpt>
      <trkpt lat="45.94181" lon="0.6372">
        <ele>153</ele>
        <time>2022-04-03T13:19:12Z</time>
      </trkpt>
      <trkpt lat="45.94183" lon="0.63719">
        <ele>152.8</ele>
        <time>2022-04-03T13:19:13Z</time>
      </trkpt>
      <trkpt lat="45.94185" lon="0.63718">
        <ele>152.8</ele>
        <time>2022-04-03T13:19:14Z</time>
      </trkpt>
      <trkpt lat="45.94187" lon="0.63717">
        <ele>153</ele>
        <time>2022-04-03T13:19:15Z</time>
      </trkpt>
      <trkpt lat="45.9419" lon="0.63715">
        <ele>153</ele>
        <time>2022-04-03T13:19:16Z</time>
      </trkpt>
      <trkpt lat="45.94192" lon="0.63714">
        <ele>153.2</ele>
        <time>2022-04-03T13:19:17Z</time>
      </trkpt>
      <trkpt lat="45.94194" lon="0.63713">
        <ele>153.4</ele>
        <time>2022-04-03T13:19:18Z</time>
      </trkpt>
      <trkpt lat="45.94196" lon="0.63711">
        <ele>153.6</ele>
        <time>2022-04-03T13:19:19Z</time>
      </trkpt>
      <trkpt lat="45.94198" lon="0.6371">
        <ele>153.8</ele>
        <time>2022-04-03T13:19:20Z</time>
      </trkpt>
      <trkpt lat="45.942" lon="0.63708">
        <ele>153.8</ele>
        <time>2022-04-03T13:19:21Z</time>
      </trkpt>
      <trkpt lat="45.94202" lon="0.63707">
        <ele>154</ele>
        <time>2022-04-03T13:19:22Z</time>
      </trkpt>
      <trkpt lat="45.94204" lon="0.63706">
        <ele>154</ele>
        <time>2022-04-03T13:19:23Z</time>
      </trkpt>
      <trkpt lat="45.94206" lon="0.63706">
        <ele>154.2</ele>
        <time>2022-04-03T13:19:24Z</time>
      </trkpt>
      <trkpt lat="45.94209" lon="0.63705">
        <ele>154.4</ele>
        <time>2022-04-03T13:19:25Z</time>
      </trkpt>
      <trkpt lat="45.94211" lon="0.63704">
        <ele>154.6</ele>
        <time>2022-04-03T13:19:26Z</time>
      </trkpt>
      <trkpt lat="45.94213" lon="0.63703">
        <ele>154.8</ele>
        <time>2022-04-03T13:19:27Z</time>
      </trkpt>
      <trkpt lat="45.94215" lon="0.63702">
        <ele>154.8</ele>
        <time>2022-04-03T13:19:28Z</time>
      </trkpt>
      <trkpt lat="45.94218" lon="0.63701">
        <ele>155</ele>
        <time>2022-04-03T13:19:29Z</time>
      </trkpt>
      <trkpt lat="45.9422" lon="0.637">
        <ele>155</ele>
        <time>2022-04-03T13:19:30Z</time>
      </trkpt>
      <trkpt lat="45.94222" lon="0.63698">
        <ele>155</ele>
        <time>2022-04-03T13:19:31Z</time>
      </trkpt>
      <trkpt lat="45.94224" lon="0.63696">
        <ele>155</ele>
        <time>2022-04-03T13:19:32Z</time>
      </trkpt>
      <trkpt lat="45.94226" lon="0.63694">
        <ele>155.2</ele>
        <time>2022-04-03T13:19:33Z</time>
      </trkpt>
      <trkpt lat="45.94228" lon="0.63692">
        <ele>155.2</ele>
        <time>2022-04-03T13:19:34Z</time>
      </trkpt>
      <trkpt lat="45.9423" lon="0.63691">
        <ele>155.6</ele>
        <time>2022-04-03T13:19:35Z</time>
      </trkpt>
      <trkpt lat="45.94232" lon="0.63689">
        <ele>155.8</ele>
        <time>2022-04-03T13:19:36Z</time>
      </trkpt>
      <trkpt lat="45.94234" lon="0.63688">
        <ele>156</ele>
        <time>2022-04-03T13:19:37Z</time>
      </trkpt>
      <trkpt lat="45.94236" lon="0.63686">
        <ele>156</ele>
        <time>2022-04-03T13:19:38Z</time>
      </trkpt>
      <trkpt lat="45.94238" lon="0.63684">
        <ele>156.4</ele>
        <time>2022-04-03T13:19:39Z</time>
      </trkpt>
      <trkpt lat="45.94239" lon="0.63682">
        <ele>156.4</ele>
        <time>2022-04-03T13:19:40Z</time>
      </trkpt>
      <trkpt lat="45.94241" lon="0.6368">
        <ele>156.4</ele>
        <time>2022-04-03T13:19:41Z</time>
      </trkpt>
      <trkpt lat="45.94243" lon="0.63678">
        <ele>156.8</ele>
        <time>2022-04-03T13:19:42Z</time>
      </trkpt>
      <trkpt lat="45.94245" lon="0.63676">
        <ele>156.6</ele>
        <time>2022-04-03T13:19:43Z</time>
      </trkpt>
      <trkpt lat="45.94246" lon="0.63674">
        <ele>156.8</ele>
        <time>2022-04-03T13:19:44Z</time>
      </trkpt>
      <trkpt lat="45.94248" lon="0.63672">
        <ele>156.8</ele>
        <time>2022-04-03T13:19:45Z</time>
      </trkpt>
      <trkpt lat="45.94249" lon="0.63669">
        <ele>157.2</ele>
        <time>2022-04-03T13:19:46Z</time>
      </trkpt>
      <trkpt lat="45.94251" lon="0.63667">
        <ele>157</ele>
        <time>2022-04-03T13:19:47Z</time>
      </trkpt>
      <trkpt lat="45.94252" lon="0.63664">
        <ele>157</ele>
        <time>2022-04-03T13:19:48Z</time>
      </trkpt>
      <trkpt lat="45.94254" lon="0.63661">
        <ele>157.2</ele>
        <time>2022-04-03T13:19:49Z</time>
      </trkpt>
      <trkpt lat="45.94255" lon="0.63659">
        <ele>157.4</ele>
        <time>2022-04-03T13:19:50Z</time>
      </trkpt>
      <trkpt lat="45.94256" lon="0.63655">
        <ele>157.6</ele>
        <time>2022-04-03T13:19:51Z</time>
      </trkpt>
      <trkpt lat="45.94257" lon="0.63652">
        <ele>157.6</ele>
        <time>2022-04-03T13:19:52Z</time>
      </trkpt>
      <trkpt lat="45.94258" lon="0.63649">
        <ele>157.8</ele>
        <time>2022-04-03T13:19:53Z</time>
      </trkpt>
      <trkpt lat="45.94259" lon="0.63646">
        <ele>157.8</ele>
        <time>2022-04-03T13:19:54Z</time>
      </trkpt>
      <trkpt lat="45.9426" lon="0.63644">
        <ele>158</ele>
        <time>2022-04-03T13:19:55Z</time>
      </trkpt>
      <trkpt lat="45.94261" lon="0.63641">
        <ele>158.6</ele>
        <time>2022-04-03T13:19:56Z</time>
      </trkpt>
      <trkpt lat="45.94262" lon="0.63638">
        <ele>159.2</ele>
        <time>2022-04-03T13:19:57Z</time>
      </trkpt>
      <trkpt lat="45.94263" lon="0.63636">
        <ele>159.4</ele>
        <time>2022-04-03T13:19:58Z</time>
      </trkpt>
      <trkpt lat="45.94264" lon="0.63634">
        <ele>159.6</ele>
        <time>2022-04-03T13:19:59Z</time>
      </trkpt>
      <trkpt lat="45.94265" lon="0.63631">
        <ele>159.6</ele>
        <time>2022-04-03T13:20:00Z</time>
      </trkpt>
      <trkpt lat="45.94266" lon="0.63629">
        <ele>159.8</ele>
        <time>2022-04-03T13:20:01Z</time>
      </trkpt>
      <trkpt lat="45.94267" lon="0.63626">
        <ele>160</ele>
        <time>2022-04-03T13:20:02Z</time>
      </trkpt>
      <trkpt lat="45.94268" lon="0.63623">
        <ele>159.8</ele>
        <time>2022-04-03T13:20:03Z</time>
      </trkpt>
      <trkpt lat="45.94269" lon="0.6362">
        <ele>160</ele>
        <time>2022-04-03T13:20:04Z</time>
      </trkpt>
      <trkpt lat="45.9427" lon="0.63618">
        <ele>160.2</ele>
        <time>2022-04-03T13:20:05Z</time>
      </trkpt>
      <trkpt lat="45.94271" lon="0.63615">
        <ele>160.2</ele>
        <time>2022-04-03T13:20:06Z</time>
      </trkpt>
      <trkpt lat="45.94272" lon="0.63613">
        <ele>160.4</ele>
        <time>2022-04-03T13:20:07Z</time>
      </trkpt>
      <trkpt lat="45.94273" lon="0.6361">
        <ele>160.6</ele>
        <time>2022-04-03T13:20:08Z</time>
      </trkpt>
      <trkpt lat="45.94273" lon="0.63607">
        <ele>160.6</ele>
        <time>2022-04-03T13:20:09Z</time>
      </trkpt>
      <trkpt lat="45.94274" lon="0.63604">
        <ele>160.8</ele>
        <time>2022-04-03T13:20:10Z</time>
      </trkpt>
      <trkpt lat="45.94275" lon="0.63601">
        <ele>161</ele>
        <time>2022-04-03T13:20:11Z</time>
      </trkpt>
      <trkpt lat="45.94276" lon="0.63598">
        <ele>161</ele>
        <time>2022-04-03T13:20:12Z</time>
      </trkpt>
      <trkpt lat="45.94276" lon="0.63595">
        <ele>161.2</ele>
        <time>2022-04-03T13:20:13Z</time>
      </trkpt>
      <trkpt lat="45.94277" lon="0.63592">
        <ele>161.4</ele>
        <time>2022-04-03T13:20:14Z</time>
      </trkpt>
      <trkpt lat="45.94278" lon="0.63589">
        <ele>161.6</ele>
        <time>2022-04-03T13:20:15Z</time>
      </trkpt>
      <trkpt lat="45.94279" lon="0.63586">
        <ele>161.8</ele>
        <time>2022-04-03T13:20:16Z</time>
      </trkpt>
      <trkpt lat="45.9428" lon="0.63583">
        <ele>162</ele>
        <time>2022-04-03T13:20:17Z</time>
      </trkpt>
      <trkpt lat="45.9428" lon="0.6358">
        <ele>162.2</ele>
        <time>2022-04-03T13:20:18Z</time>
      </trkpt>
      <trkpt lat="45.94281" lon="0.63577">
        <ele>162.2</ele>
        <time>2022-04-03T13:20:19Z</time>
      </trkpt>
      <trkpt lat="45.94282" lon="0.63574">
        <ele>162.6</ele>
        <time>2022-04-03T13:20:20Z</time>
      </trkpt>
      <trkpt lat="45.94283" lon="0.63571">
        <ele>162.6</ele>
        <time>2022-04-03T13:20:21Z</time>
      </trkpt>
      <trkpt lat="45.94283" lon="0.63568">
        <ele>162.8</ele>
        <time>2022-04-03T13:20:22Z</time>
      </trkpt>
      <trkpt lat="45.94284" lon="0.63565">
        <ele>162.6</ele>
        <time>2022-04-03T13:20:23Z</time>
      </trkpt>
      <trkpt lat="45.94285" lon="0.63562">
        <ele>163</ele>
        <time>2022-04-03T13:20:24Z</time>
      </trkpt>
      <trkpt lat="45.94286" lon="0.63559">
        <ele>163.2</ele>
        <time>2022-04-03T13:20:25Z</time>
      </trkpt>
      <trkpt lat="45.94287" lon="0.63557">
        <ele>163.2</ele>
        <time>2022-04-03T13:20:26Z</time>
      </trkpt>
      <trkpt lat="45.94288" lon="0.63554">
        <ele>163.6</ele>
        <time>2022-04-03T13:20:27Z</time>
      </trkpt>
      <trkpt lat="45.94288" lon="0.63551">
        <ele>163.8</ele>
        <time>2022-04-03T13:20:28Z</time>
      </trkpt>
      <trkpt lat="45.94289" lon="0.63548">
        <ele>164</ele>
        <time>2022-04-03T13:20:29Z</time>
      </trkpt>
      <trkpt lat="45.94291" lon="0.63546">
        <ele>164</ele>
        <time>2022-04-03T13:20:30Z</time>
      </trkpt>
      <trkpt lat="45.94291" lon="0.63543">
        <ele>164</ele>
        <time>2022-04-03T13:20:31Z</time>
      </trkpt>
      <trkpt lat="45.94292" lon="0.6354">
        <ele>164.2</ele>
        <time>2022-04-03T13:20:32Z</time>
      </trkpt>
      <trkpt lat="45.94293" lon="0.63538">
        <ele>164.4</ele>
        <time>2022-04-03T13:20:33Z</time>
      </trkpt>
      <trkpt lat="45.94294" lon="0.63535">
        <ele>164.2</ele>
        <time>2022-04-03T13:20:34Z</time>
      </trkpt>
      <trkpt lat="45.94295" lon="0.63532">
        <ele>164.4</ele>
        <time>2022-04-03T13:20:35Z</time>
      </trkpt>
      <trkpt lat="45.94297" lon="0.6353">
        <ele>164.4</ele>
        <time>2022-04-03T13:20:36Z</time>
      </trkpt>
      <trkpt lat="45.94298" lon="0.63527">
        <ele>164.4</ele>
        <time>2022-04-03T13:20:37Z</time>
      </trkpt>
      <trkpt lat="45.94299" lon="0.63525">
        <ele>164.4</ele>
        <time>2022-04-03T13:20:38Z</time>
      </trkpt>
      <trkpt lat="45.943" lon="0.63523">
        <ele>164.6</ele>
        <time>2022-04-03T13:20:39Z</time>
      </trkpt>
      <trkpt lat="45.94301" lon="0.6352">
        <ele>164.8</ele>
        <time>2022-04-03T13:20:40Z</time>
      </trkpt>
      <trkpt lat="45.94302" lon="0.63518">
        <ele>164.8</ele>
        <time>2022-04-03T13:20:41Z</time>
      </trkpt>
      <trkpt lat="45.94304" lon="0.63515">
        <ele>165.2</ele>
        <time>2022-04-03T13:20:42Z</time>
      </trkpt>
      <trkpt lat="45.94305" lon="0.63513">
        <ele>165.2</ele>
        <time>2022-04-03T13:20:43Z</time>
      </trkpt>
      <trkpt lat="45.94306" lon="0.6351">
        <ele>165.8</ele>
        <time>2022-04-03T13:20:44Z</time>
      </trkpt>
      <trkpt lat="45.94308" lon="0.63508">
        <ele>166</ele>
        <time>2022-04-03T13:20:45Z</time>
      </trkpt>
      <trkpt lat="45.9431" lon="0.63506">
        <ele>166.2</ele>
        <time>2022-04-03T13:20:46Z</time>
      </trkpt>
      <trkpt lat="45.94311" lon="0.63503">
        <ele>166.6</ele>
        <time>2022-04-03T13:20:47Z</time>
      </trkpt>
      <trkpt lat="45.94313" lon="0.63501">
        <ele>166.8</ele>
        <time>2022-04-03T13:20:48Z</time>
      </trkpt>
      <trkpt lat="45.94315" lon="0.63499">
        <ele>167</ele>
        <time>2022-04-03T13:20:49Z</time>
      </trkpt>
      <trkpt lat="45.94317" lon="0.63497">
        <ele>167.2</ele>
        <time>2022-04-03T13:20:50Z</time>
      </trkpt>
      <trkpt lat="45.94319" lon="0.63495">
        <ele>167.6</ele>
        <time>2022-04-03T13:20:51Z</time>
      </trkpt>
      <trkpt lat="45.94321" lon="0.63492">
        <ele>167.6</ele>
        <time>2022-04-03T13:20:52Z</time>
      </trkpt>
      <trkpt lat="45.94323" lon="0.6349">
        <ele>167.8</ele>
        <time>2022-04-03T13:20:53Z</time>
      </trkpt>
      <trkpt lat="45.94325" lon="0.63488">
        <ele>167.8</ele>
        <time>2022-04-03T13:20:54Z</time>
      </trkpt>
      <trkpt lat="45.94327" lon="0.63485">
        <ele>168</ele>
        <time>2022-04-03T13:20:55Z</time>
      </trkpt>
      <trkpt lat="45.94329" lon="0.63483">
        <ele>168.4</ele>
        <time>2022-04-03T13:20:56Z</time>
      </trkpt>
      <trkpt lat="45.94332" lon="0.63481">
        <ele>168.6</ele>
        <time>2022-04-03T13:20:57Z</time>
      </trkpt>
      <trkpt lat="45.94334" lon="0.63478">
        <ele>168.6</ele>
        <time>2022-04-03T13:20:58Z</time>
      </trkpt>
      <trkpt lat="45.94337" lon="0.63476">
        <ele>168.6</ele>
        <time>2022-04-03T13:20:59Z</time>
      </trkpt>
      <trkpt lat="45.94339" lon="0.63474">
        <ele>168.8</ele>
        <time>2022-04-03T13:21:00Z</time>
      </trkpt>
      <trkpt lat="45.94342" lon="0.63471">
        <ele>168.8</ele>
        <time>2022-04-03T13:21:01Z</time>
      </trkpt>
      <trkpt lat="45.94344" lon="0.63469">
        <ele>169</ele>
        <time>2022-04-03T13:21:02Z</time>
      </trkpt>
      <trkpt lat="45.94347" lon="0.63466">
        <ele>169.2</ele>
        <time>2022-04-03T13:21:03Z</time>
      </trkpt>
      <trkpt lat="45.94349" lon="0.63464">
        <ele>169.2</ele>
        <time>2022-04-03T13:21:04Z</time>
      </trkpt>
      <trkpt lat="45.94351" lon="0.63461">
        <ele>169.2</ele>
        <time>2022-04-03T13:21:05Z</time>
      </trkpt>
      <trkpt lat="45.94354" lon="0.63459">
        <ele>169.2</ele>
        <time>2022-04-03T13:21:06Z</time>
      </trkpt>
      <trkpt lat="45.94356" lon="0.63457">
        <ele>169.2</ele>
        <time>2022-04-03T13:21:07Z</time>
      </trkpt>
      <trkpt lat="45.94359" lon="0.63454">
        <ele>169.4</ele>
        <time>2022-04-03T13:21:08Z</time>
      </trkpt>
      <trkpt lat="45.94362" lon="0.63452">
        <ele>169.2</ele>
        <time>2022-04-03T13:21:09Z</time>
      </trkpt>
      <trkpt lat="45.94364" lon="0.63449">
        <ele>169.4</ele>
        <time>2022-04-03T13:21:10Z</time>
      </trkpt>
      <trkpt lat="45.94367" lon="0.63447">
        <ele>169.6</ele>
        <time>2022-04-03T13:21:11Z</time>
      </trkpt>
      <trkpt lat="45.94369" lon="0.63444">
        <ele>169.4</ele>
        <time>2022-04-03T13:21:12Z</time>
      </trkpt>
      <trkpt lat="45.94372" lon="0.63442">
        <ele>169.6</ele>
        <time>2022-04-03T13:21:13Z</time>
      </trkpt>
      <trkpt lat="45.94375" lon="0.63439">
        <ele>169.6</ele>
        <time>2022-04-03T13:21:14Z</time>
      </trkpt>
      <trkpt lat="45.94378" lon="0.63436">
        <ele>169.8</ele>
        <time>2022-04-03T13:21:15Z</time>
      </trkpt>
      <trkpt lat="45.9438" lon="0.63434">
        <ele>169.6</ele>
        <time>2022-04-03T13:21:16Z</time>
      </trkpt>
      <trkpt lat="45.94383" lon="0.63431">
        <ele>169.6</ele>
        <time>2022-04-03T13:21:17Z</time>
      </trkpt>
      <trkpt lat="45.94386" lon="0.63428">
        <ele>169.8</ele>
        <time>2022-04-03T13:21:18Z</time>
      </trkpt>
      <trkpt lat="45.94389" lon="0.63425">
        <ele>169.6</ele>
        <time>2022-04-03T13:21:19Z</time>
      </trkpt>
      <trkpt lat="45.94392" lon="0.63423">
        <ele>169.8</ele>
        <time>2022-04-03T13:21:20Z</time>
      </trkpt>
      <trkpt lat="45.94395" lon="0.6342">
        <ele>169.8</ele>
        <time>2022-04-03T13:21:21Z</time>
      </trkpt>
      <trkpt lat="45.94398" lon="0.63417">
        <ele>169.8</ele>
        <time>2022-04-03T13:21:22Z</time>
      </trkpt>
      <trkpt lat="45.94401" lon="0.63415">
        <ele>170</ele>
        <time>2022-04-03T13:21:23Z</time>
      </trkpt>
      <trkpt lat="45.94403" lon="0.63412">
        <ele>170</ele>
        <time>2022-04-03T13:21:24Z</time>
      </trkpt>
      <trkpt lat="45.94406" lon="0.63409">
        <ele>170</ele>
        <time>2022-04-03T13:21:25Z</time>
      </trkpt>
      <trkpt lat="45.94409" lon="0.63407">
        <ele>169.8</ele>
        <time>2022-04-03T13:21:26Z</time>
      </trkpt>
      <trkpt lat="45.94412" lon="0.63404">
        <ele>170</ele>
        <time>2022-04-03T13:21:27Z</time>
      </trkpt>
      <trkpt lat="45.94415" lon="0.63401">
        <ele>170</ele>
        <time>2022-04-03T13:21:28Z</time>
      </trkpt>
      <trkpt lat="45.94418" lon="0.63399">
        <ele>170.2</ele>
        <time>2022-04-03T13:21:29Z</time>
      </trkpt>
      <trkpt lat="45.9442" lon="0.63397">
        <ele>170</ele>
        <time>2022-04-03T13:21:30Z</time>
      </trkpt>
      <trkpt lat="45.94423" lon="0.63394">
        <ele>170</ele>
        <time>2022-04-03T13:21:31Z</time>
      </trkpt>
      <trkpt lat="45.94426" lon="0.63392">
        <ele>170.2</ele>
        <time>2022-04-03T13:21:32Z</time>
      </trkpt>
      <trkpt lat="45.94428" lon="0.63389">
        <ele>170.4</ele>
        <time>2022-04-03T13:21:33Z</time>
      </trkpt>
      <trkpt lat="45.94431" lon="0.63386">
        <ele>170.2</ele>
        <time>2022-04-03T13:21:34Z</time>
      </trkpt>
      <trkpt lat="45.94434" lon="0.63384">
        <ele>170.4</ele>
        <time>2022-04-03T13:21:35Z</time>
      </trkpt>
      <trkpt lat="45.94437" lon="0.63381">
        <ele>170.4</ele>
        <time>2022-04-03T13:21:36Z</time>
      </trkpt>
      <trkpt lat="45.94439" lon="0.63379">
        <ele>170.4</ele>
        <time>2022-04-03T13:21:37Z</time>
      </trkpt>
      <trkpt lat="45.94442" lon="0.63376">
        <ele>170.4</ele>
        <time>2022-04-03T13:21:38Z</time>
      </trkpt>
      <trkpt lat="45.94445" lon="0.63374">
        <ele>170.6</ele>
        <time>2022-04-03T13:21:39Z</time>
      </trkpt>
      <trkpt lat="45.94448" lon="0.63371">
        <ele>170.8</ele>
        <time>2022-04-03T13:21:40Z</time>
      </trkpt>
      <trkpt lat="45.94451" lon="0.63368">
        <ele>171.2</ele>
        <time>2022-04-03T13:21:41Z</time>
      </trkpt>
      <trkpt lat="45.94454" lon="0.63365">
        <ele>171.4</ele>
        <time>2022-04-03T13:21:42Z</time>
      </trkpt>
      <trkpt lat="45.94457" lon="0.63363">
        <ele>171.6</ele>
        <time>2022-04-03T13:21:43Z</time>
      </trkpt>
      <trkpt lat="45.94459" lon="0.6336">
        <ele>171.4</ele>
        <time>2022-04-03T13:21:44Z</time>
      </trkpt>
      <trkpt lat="45.94462" lon="0.63357">
        <ele>171.6</ele>
        <time>2022-04-03T13:21:45Z</time>
      </trkpt>
      <trkpt lat="45.94465" lon="0.63355">
        <ele>171.6</ele>
        <time>2022-04-03T13:21:46Z</time>
      </trkpt>
      <trkpt lat="45.94468" lon="0.63352">
        <ele>171.6</ele>
        <time>2022-04-03T13:21:47Z</time>
      </trkpt>
      <trkpt lat="45.94471" lon="0.63349">
        <ele>171.8</ele>
        <time>2022-04-03T13:21:48Z</time>
      </trkpt>
      <trkpt lat="45.94473" lon="0.63346">
        <ele>171.8</ele>
        <time>2022-04-03T13:21:49Z</time>
      </trkpt>
      <trkpt lat="45.94476" lon="0.63343">
        <ele>172</ele>
        <time>2022-04-03T13:21:50Z</time>
      </trkpt>
      <trkpt lat="45.94479" lon="0.6334">
        <ele>172.2</ele>
        <time>2022-04-03T13:21:51Z</time>
      </trkpt>
      <trkpt lat="45.94482" lon="0.63337">
        <ele>172.2</ele>
        <time>2022-04-03T13:21:52Z</time>
      </trkpt>
      <trkpt lat="45.94485" lon="0.63335">
        <ele>172.4</ele>
        <time>2022-04-03T13:21:53Z</time>
      </trkpt>
      <trkpt lat="45.94488" lon="0.63332">
        <ele>172.4</ele>
        <time>2022-04-03T13:21:54Z</time>
      </trkpt>
      <trkpt lat="45.94491" lon="0.6333">
        <ele>172.4</ele>
        <time>2022-04-03T13:21:55Z</time>
      </trkpt>
      <trkpt lat="45.94494" lon="0.63327">
        <ele>172.6</ele>
        <time>2022-04-03T13:21:56Z</time>
      </trkpt>
      <trkpt lat="45.94497" lon="0.63324">
        <ele>172.8</ele>
        <time>2022-04-03T13:21:57Z</time>
      </trkpt>
      <trkpt lat="45.94499" lon="0.63322">
        <ele>172.8</ele>
        <time>2022-04-03T13:21:58Z</time>
      </trkpt>
      <trkpt lat="45.94502" lon="0.63319">
        <ele>173.2</ele>
        <time>2022-04-03T13:21:59Z</time>
      </trkpt>
      <trkpt lat="45.94505" lon="0.63316">
        <ele>173.2</ele>
        <time>2022-04-03T13:22:00Z</time>
      </trkpt>
      <trkpt lat="45.94508" lon="0.63314">
        <ele>173.4</ele>
        <time>2022-04-03T13:22:01Z</time>
      </trkpt>
      <trkpt lat="45.94511" lon="0.63311">
        <ele>173.6</ele>
        <time>2022-04-03T13:22:02Z</time>
      </trkpt>
      <trkpt lat="45.94513" lon="0.63308">
        <ele>173.6</ele>
        <time>2022-04-03T13:22:03Z</time>
      </trkpt>
      <trkpt lat="45.94516" lon="0.63305">
        <ele>173.6</ele>
        <time>2022-04-03T13:22:04Z</time>
      </trkpt>
      <trkpt lat="45.94519" lon="0.63302">
        <ele>173.6</ele>
        <time>2022-04-03T13:22:05Z</time>
      </trkpt>
      <trkpt lat="45.94522" lon="0.63299">
        <ele>173.8</ele>
        <time>2022-04-03T13:22:06Z</time>
      </trkpt>
      <trkpt lat="45.94525" lon="0.63296">
        <ele>173.6</ele>
        <time>2022-04-03T13:22:07Z</time>
      </trkpt>
      <trkpt lat="45.94528" lon="0.63293">
        <ele>173.8</ele>
        <time>2022-04-03T13:22:08Z</time>
      </trkpt>
      <trkpt lat="45.94531" lon="0.6329">
        <ele>174</ele>
        <time>2022-04-03T13:22:09Z</time>
      </trkpt>
      <trkpt lat="45.94534" lon="0.63286">
        <ele>174</ele>
        <time>2022-04-03T13:22:10Z</time>
      </trkpt>
      <trkpt lat="45.94536" lon="0.63283">
        <ele>174</ele>
        <time>2022-04-03T13:22:11Z</time>
      </trkpt>
      <trkpt lat="45.94539" lon="0.6328">
        <ele>174.2</ele>
        <time>2022-04-03T13:22:12Z</time>
      </trkpt>
      <trkpt lat="45.94542" lon="0.63276">
        <ele>174</ele>
        <time>2022-04-03T13:22:13Z</time>
      </trkpt>
      <trkpt lat="45.94545" lon="0.63273">
        <ele>174</ele>
        <time>2022-04-03T13:22:14Z</time>
      </trkpt>
      <trkpt lat="45.94548" lon="0.63269">
        <ele>174.4</ele>
        <time>2022-04-03T13:22:15Z</time>
      </trkpt>
      <trkpt lat="45.9455" lon="0.63266">
        <ele>174.6</ele>
        <time>2022-04-03T13:22:16Z</time>
      </trkpt>
      <trkpt lat="45.94552" lon="0.63262">
        <ele>174.8</ele>
        <time>2022-04-03T13:22:17Z</time>
      </trkpt>
      <trkpt lat="45.94555" lon="0.63258">
        <ele>174.8</ele>
        <time>2022-04-03T13:22:18Z</time>
      </trkpt>
      <trkpt lat="45.94557" lon="0.63254">
        <ele>174.6</ele>
        <time>2022-04-03T13:22:19Z</time>
      </trkpt>
      <trkpt lat="45.94559" lon="0.6325">
        <ele>174.6</ele>
        <time>2022-04-03T13:22:20Z</time>
      </trkpt>
      <trkpt lat="45.94561" lon="0.63245">
        <ele>174.8</ele>
        <time>2022-04-03T13:22:21Z</time>
      </trkpt>
      <trkpt lat="45.94563" lon="0.63241">
        <ele>175</ele>
        <time>2022-04-03T13:22:22Z</time>
      </trkpt>
      <trkpt lat="45.94565" lon="0.63237">
        <ele>175</ele>
        <time>2022-04-03T13:22:23Z</time>
      </trkpt>
      <trkpt lat="45.94567" lon="0.63233">
        <ele>175</ele>
        <time>2022-04-03T13:22:24Z</time>
      </trkpt>
      <trkpt lat="45.94569" lon="0.63229">
        <ele>175</ele>
        <time>2022-04-03T13:22:25Z</time>
      </trkpt>
      <trkpt lat="45.94571" lon="0.63225">
        <ele>175.4</ele>
        <time>2022-04-03T13:22:26Z</time>
      </trkpt>
      <trkpt lat="45.94573" lon="0.6322">
        <ele>175.4</ele>
        <time>2022-04-03T13:22:27Z</time>
      </trkpt>
      <trkpt lat="45.94575" lon="0.63216">
        <ele>175.6</ele>
        <time>2022-04-03T13:22:28Z</time>
      </trkpt>
      <trkpt lat="45.94576" lon="0.63212">
        <ele>175.6</ele>
        <time>2022-04-03T13:22:29Z</time>
      </trkpt>
      <trkpt lat="45.94578" lon="0.63208">
        <ele>175.8</ele>
        <time>2022-04-03T13:22:30Z</time>
      </trkpt>
      <trkpt lat="45.9458" lon="0.63204">
        <ele>175.8</ele>
        <time>2022-04-03T13:22:31Z</time>
      </trkpt>
      <trkpt lat="45.94582" lon="0.632">
        <ele>175.8</ele>
        <time>2022-04-03T13:22:32Z</time>
      </trkpt>
      <trkpt lat="45.94584" lon="0.63196">
        <ele>175.8</ele>
        <time>2022-04-03T13:22:33Z</time>
      </trkpt>
      <trkpt lat="45.94586" lon="0.63192">
        <ele>175.8</ele>
        <time>2022-04-03T13:22:34Z</time>
      </trkpt>
      <trkpt lat="45.94587" lon="0.63188">
        <ele>176</ele>
        <time>2022-04-03T13:22:35Z</time>
      </trkpt>
      <trkpt lat="45.94589" lon="0.63184">
        <ele>176.2</ele>
        <time>2022-04-03T13:22:36Z</time>
      </trkpt>
      <trkpt lat="45.94591" lon="0.6318">
        <ele>176.2</ele>
        <time>2022-04-03T13:22:37Z</time>
      </trkpt>
      <trkpt lat="45.94592" lon="0.63176">
        <ele>176.4</ele>
        <time>2022-04-03T13:22:38Z</time>
      </trkpt>
      <trkpt lat="45.94594" lon="0.63172">
        <ele>176.6</ele>
        <time>2022-04-03T13:22:39Z</time>
      </trkpt>
      <trkpt lat="45.94596" lon="0.63168">
        <ele>176.6</ele>
        <time>2022-04-03T13:22:40Z</time>
      </trkpt>
      <trkpt lat="45.94598" lon="0.63164">
        <ele>176.8</ele>
        <time>2022-04-03T13:22:41Z</time>
      </trkpt>
      <trkpt lat="45.946" lon="0.6316">
        <ele>176.8</ele>
        <time>2022-04-03T13:22:42Z</time>
      </trkpt>
      <trkpt lat="45.94602" lon="0.63156">
        <ele>176.8</ele>
        <time>2022-04-03T13:22:43Z</time>
      </trkpt>
      <trkpt lat="45.94603" lon="0.63152">
        <ele>176.8</ele>
        <time>2022-04-03T13:22:44Z</time>
      </trkpt>
      <trkpt lat="45.94605" lon="0.63147">
        <ele>177</ele>
        <time>2022-04-03T13:22:45Z</time>
      </trkpt>
      <trkpt lat="45.94607" lon="0.63143">
        <ele>177.4</ele>
        <time>2022-04-03T13:22:46Z</time>
      </trkpt>
      <trkpt lat="45.94609" lon="0.6314">
        <ele>177.4</ele>
        <time>2022-04-03T13:22:47Z</time>
      </trkpt>
      <trkpt lat="45.94611" lon="0.63136">
        <ele>177.6</ele>
        <time>2022-04-03T13:22:48Z</time>
      </trkpt>
      <trkpt lat="45.94613" lon="0.63132">
        <ele>177.6</ele>
        <time>2022-04-03T13:22:49Z</time>
      </trkpt>
      <trkpt lat="45.94615" lon="0.63128">
        <ele>177.6</ele>
        <time>2022-04-03T13:22:50Z</time>
      </trkpt>
      <trkpt lat="45.94617" lon="0.63125">
        <ele>177.6</ele>
        <time>2022-04-03T13:22:51Z</time>
      </trkpt>
      <trkpt lat="45.94619" lon="0.63122">
        <ele>177.6</ele>
        <time>2022-04-03T13:22:52Z</time>
      </trkpt>
      <trkpt lat="45.94621" lon="0.63118">
        <ele>177.8</ele>
        <time>2022-04-03T13:22:53Z</time>
      </trkpt>
      <trkpt lat="45.94622" lon="0.63114">
        <ele>177.8</ele>
        <time>2022-04-03T13:22:54Z</time>
      </trkpt>
      <trkpt lat="45.94624" lon="0.63111">
        <ele>178</ele>
        <time>2022-04-03T13:22:55Z</time>
      </trkpt>
      <trkpt lat="45.94625" lon="0.63107">
        <ele>178</ele>
        <time>2022-04-03T13:22:56Z</time>
      </trkpt>
      <trkpt lat="45.94627" lon="0.63104">
        <ele>177.8</ele>
        <time>2022-04-03T13:22:57Z</time>
      </trkpt>
      <trkpt lat="45.94628" lon="0.631">
        <ele>178</ele>
        <time>2022-04-03T13:22:58Z</time>
      </trkpt>
      <trkpt lat="45.9463" lon="0.63096">
        <ele>178</ele>
        <time>2022-04-03T13:22:59Z</time>
      </trkpt>
      <trkpt lat="45.94631" lon="0.63093">
        <ele>178.2</ele>
        <time>2022-04-03T13:23:00Z</time>
      </trkpt>
      <trkpt lat="45.94633" lon="0.63089">
        <ele>178.4</ele>
        <time>2022-04-03T13:23:01Z</time>
      </trkpt>
      <trkpt lat="45.94635" lon="0.63086">
        <ele>178.6</ele>
        <time>2022-04-03T13:23:02Z</time>
      </trkpt>
      <trkpt lat="45.94637" lon="0.63083">
        <ele>178.8</ele>
        <time>2022-04-03T13:23:03Z</time>
      </trkpt>
      <trkpt lat="45.94638" lon="0.6308">
        <ele>179.2</ele>
        <time>2022-04-03T13:23:04Z</time>
      </trkpt>
      <trkpt lat="45.9464" lon="0.63077">
        <ele>179.2</ele>
        <time>2022-04-03T13:23:05Z</time>
      </trkpt>
      <trkpt lat="45.94641" lon="0.63073">
        <ele>179.4</ele>
        <time>2022-04-03T13:23:06Z</time>
      </trkpt>
      <trkpt lat="45.94642" lon="0.6307">
        <ele>179.6</ele>
        <time>2022-04-03T13:23:07Z</time>
      </trkpt>
      <trkpt lat="45.94644" lon="0.63067">
        <ele>179.6</ele>
        <time>2022-04-03T13:23:08Z</time>
      </trkpt>
      <trkpt lat="45.94645" lon="0.63063">
        <ele>179.6</ele>
        <time>2022-04-03T13:23:09Z</time>
      </trkpt>
      <trkpt lat="45.94646" lon="0.63059">
        <ele>179.6</ele>
        <time>2022-04-03T13:23:10Z</time>
      </trkpt>
      <trkpt lat="45.94648" lon="0.63056">
        <ele>179.8</ele>
        <time>2022-04-03T13:23:11Z</time>
      </trkpt>
      <trkpt lat="45.94649" lon="0.63052">
        <ele>180</ele>
        <time>2022-04-03T13:23:12Z</time>
      </trkpt>
      <trkpt lat="45.9465" lon="0.63049">
        <ele>180.2</ele>
        <time>2022-04-03T13:23:13Z</time>
      </trkpt>
      <trkpt lat="45.94651" lon="0.63045">
        <ele>180.4</ele>
        <time>2022-04-03T13:23:14Z</time>
      </trkpt>
      <trkpt lat="45.94652" lon="0.63042">
        <ele>180.6</ele>
        <time>2022-04-03T13:23:15Z</time>
      </trkpt>
      <trkpt lat="45.94653" lon="0.63038">
        <ele>180.8</ele>
        <time>2022-04-03T13:23:16Z</time>
      </trkpt>
      <trkpt lat="45.94654" lon="0.63035">
        <ele>181</ele>
        <time>2022-04-03T13:23:17Z</time>
      </trkpt>
      <trkpt lat="45.94656" lon="0.63031">
        <ele>181.2</ele>
        <time>2022-04-03T13:23:18Z</time>
      </trkpt>
      <trkpt lat="45.94657" lon="0.63028">
        <ele>181.2</ele>
        <time>2022-04-03T13:23:19Z</time>
      </trkpt>
      <trkpt lat="45.94658" lon="0.63024">
        <ele>181.2</ele>
        <time>2022-04-03T13:23:20Z</time>
      </trkpt>
      <trkpt lat="45.94659" lon="0.63021">
        <ele>181.4</ele>
        <time>2022-04-03T13:23:21Z</time>
      </trkpt>
      <trkpt lat="45.94661" lon="0.63017">
        <ele>181.8</ele>
        <time>2022-04-03T13:23:22Z</time>
      </trkpt>
      <trkpt lat="45.94662" lon="0.63013">
        <ele>182</ele>
        <time>2022-04-03T13:23:23Z</time>
      </trkpt>
      <trkpt lat="45.94663" lon="0.6301">
        <ele>182.2</ele>
        <time>2022-04-03T13:23:24Z</time>
      </trkpt>
      <trkpt lat="45.94664" lon="0.63007">
        <ele>182.4</ele>
        <time>2022-04-03T13:23:25Z</time>
      </trkpt>
      <trkpt lat="45.94666" lon="0.63003">
        <ele>182.4</ele>
        <time>2022-04-03T13:23:26Z</time>
      </trkpt>
      <trkpt lat="45.94667" lon="0.63">
        <ele>182.4</ele>
        <time>2022-04-03T13:23:27Z</time>
      </trkpt>
      <trkpt lat="45.94668" lon="0.62997">
        <ele>182.6</ele>
        <time>2022-04-03T13:23:28Z</time>
      </trkpt>
      <trkpt lat="45.94669" lon="0.62994">
        <ele>182.6</ele>
        <time>2022-04-03T13:23:29Z</time>
      </trkpt>
      <trkpt lat="45.9467" lon="0.6299">
        <ele>182.8</ele>
        <time>2022-04-03T13:23:30Z</time>
      </trkpt>
      <trkpt lat="45.94671" lon="0.62987">
        <ele>182.8</ele>
        <time>2022-04-03T13:23:31Z</time>
      </trkpt>
      <trkpt lat="45.94672" lon="0.62984">
        <ele>182.8</ele>
        <time>2022-04-03T13:23:32Z</time>
      </trkpt>
      <trkpt lat="45.94673" lon="0.6298">
        <ele>183</ele>
        <time>2022-04-03T13:23:33Z</time>
      </trkpt>
      <trkpt lat="45.94675" lon="0.62977">
        <ele>183.2</ele>
        <time>2022-04-03T13:23:34Z</time>
      </trkpt>
      <trkpt lat="45.94676" lon="0.62974">
        <ele>183.2</ele>
        <time>2022-04-03T13:23:35Z</time>
      </trkpt>
      <trkpt lat="45.94677" lon="0.6297">
        <ele>183.4</ele>
        <time>2022-04-03T13:23:36Z</time>
      </trkpt>
      <trkpt lat="45.94678" lon="0.62967">
        <ele>183.8</ele>
        <time>2022-04-03T13:23:37Z</time>
      </trkpt>
      <trkpt lat="45.94679" lon="0.62964">
        <ele>184</ele>
        <time>2022-04-03T13:23:38Z</time>
      </trkpt>
      <trkpt lat="45.9468" lon="0.6296">
        <ele>184.4</ele>
        <time>2022-04-03T13:23:39Z</time>
      </trkpt>
      <trkpt lat="45.94681" lon="0.62957">
        <ele>184.4</ele>
        <time>2022-04-03T13:23:40Z</time>
      </trkpt>
      <trkpt lat="45.94682" lon="0.62953">
        <ele>184.4</ele>
        <time>2022-04-03T13:23:41Z</time>
      </trkpt>
      <trkpt lat="45.94684" lon="0.6295">
        <ele>184.6</ele>
        <time>2022-04-03T13:23:42Z</time>
      </trkpt>
      <trkpt lat="45.94685" lon="0.62947">
        <ele>184.6</ele>
        <time>2022-04-03T13:23:43Z</time>
      </trkpt>
      <trkpt lat="45.94686" lon="0.62944">
        <ele>185</ele>
        <time>2022-04-03T13:23:44Z</time>
      </trkpt>
      <trkpt lat="45.94687" lon="0.6294">
        <ele>185</ele>
        <time>2022-04-03T13:23:45Z</time>
      </trkpt>
      <trkpt lat="45.94688" lon="0.62937">
        <ele>185.2</ele>
        <time>2022-04-03T13:23:46Z</time>
      </trkpt>
      <trkpt lat="45.94689" lon="0.62934">
        <ele>185.4</ele>
        <time>2022-04-03T13:23:47Z</time>
      </trkpt>
      <trkpt lat="45.9469" lon="0.62931">
        <ele>185.4</ele>
        <time>2022-04-03T13:23:48Z</time>
      </trkpt>
      <trkpt lat="45.94691" lon="0.62928">
        <ele>185.6</ele>
        <time>2022-04-03T13:23:49Z</time>
      </trkpt>
      <trkpt lat="45.94692" lon="0.62925">
        <ele>185.6</ele>
        <time>2022-04-03T13:23:50Z</time>
      </trkpt>
      <trkpt lat="45.94693" lon="0.62922">
        <ele>185.8</ele>
        <time>2022-04-03T13:23:51Z</time>
      </trkpt>
      <trkpt lat="45.94694" lon="0.62918">
        <ele>185.8</ele>
        <time>2022-04-03T13:23:52Z</time>
      </trkpt>
      <trkpt lat="45.94695" lon="0.62915">
        <ele>186</ele>
        <time>2022-04-03T13:23:53Z</time>
      </trkpt>
      <trkpt lat="45.94696" lon="0.62912">
        <ele>186.2</ele>
        <time>2022-04-03T13:23:54Z</time>
      </trkpt>
      <trkpt lat="45.94697" lon="0.62909">
        <ele>186.4</ele>
        <time>2022-04-03T13:23:55Z</time>
      </trkpt>
      <trkpt lat="45.94698" lon="0.62907">
        <ele>186.6</ele>
        <time>2022-04-03T13:23:56Z</time>
      </trkpt>
      <trkpt lat="45.94699" lon="0.62904">
        <ele>186.6</ele>
        <time>2022-04-03T13:23:57Z</time>
      </trkpt>
      <trkpt lat="45.947" lon="0.62901">
        <ele>186.8</ele>
        <time>2022-04-03T13:23:58Z</time>
      </trkpt>
      <trkpt lat="45.94701" lon="0.62898">
        <ele>186.8</ele>
        <time>2022-04-03T13:23:59Z</time>
      </trkpt>
      <trkpt lat="45.94702" lon="0.62896">
        <ele>187</ele>
        <time>2022-04-03T13:24:00Z</time>
      </trkpt>
      <trkpt lat="45.94703" lon="0.62893">
        <ele>186.8</ele>
        <time>2022-04-03T13:24:01Z</time>
      </trkpt>
      <trkpt lat="45.94704" lon="0.6289">
        <ele>187.2</ele>
        <time>2022-04-03T13:24:02Z</time>
      </trkpt>
      <trkpt lat="45.94705" lon="0.62887">
        <ele>187.4</ele>
        <time>2022-04-03T13:24:03Z</time>
      </trkpt>
      <trkpt lat="45.94706" lon="0.62884">
        <ele>187.4</ele>
        <time>2022-04-03T13:24:04Z</time>
      </trkpt>
      <trkpt lat="45.94707" lon="0.62881">
        <ele>187.8</ele>
        <time>2022-04-03T13:24:05Z</time>
      </trkpt>
      <trkpt lat="45.94707" lon="0.62878">
        <ele>188</ele>
        <time>2022-04-03T13:24:06Z</time>
      </trkpt>
      <trkpt lat="45.94708" lon="0.62875">
        <ele>188</ele>
        <time>2022-04-03T13:24:07Z</time>
      </trkpt>
      <trkpt lat="45.94709" lon="0.62872">
        <ele>188.2</ele>
        <time>2022-04-03T13:24:08Z</time>
      </trkpt>
      <trkpt lat="45.9471" lon="0.6287">
        <ele>188.2</ele>
        <time>2022-04-03T13:24:09Z</time>
      </trkpt>
      <trkpt lat="45.94711" lon="0.62867">
        <ele>188.4</ele>
        <time>2022-04-03T13:24:10Z</time>
      </trkpt>
      <trkpt lat="45.94712" lon="0.62864">
        <ele>188.6</ele>
        <time>2022-04-03T13:24:11Z</time>
      </trkpt>
      <trkpt lat="45.94713" lon="0.62862">
        <ele>188.8</ele>
        <time>2022-04-03T13:24:12Z</time>
      </trkpt>
      <trkpt lat="45.94714" lon="0.62859">
        <ele>189</ele>
        <time>2022-04-03T13:24:13Z</time>
      </trkpt>
      <trkpt lat="45.94715" lon="0.62856">
        <ele>189.2</ele>
        <time>2022-04-03T13:24:14Z</time>
      </trkpt>
      <trkpt lat="45.94716" lon="0.62853">
        <ele>189.4</ele>
        <time>2022-04-03T13:24:15Z</time>
      </trkpt>
      <trkpt lat="45.94717" lon="0.6285">
        <ele>189.4</ele>
        <time>2022-04-03T13:24:16Z</time>
      </trkpt>
      <trkpt lat="45.94718" lon="0.62847">
        <ele>189.6</ele>
        <time>2022-04-03T13:24:17Z</time>
      </trkpt>
      <trkpt lat="45.94719" lon="0.62844">
        <ele>189.6</ele>
        <time>2022-04-03T13:24:18Z</time>
      </trkpt>
      <trkpt lat="45.9472" lon="0.62841">
        <ele>189.8</ele>
        <time>2022-04-03T13:24:19Z</time>
      </trkpt>
      <trkpt lat="45.94721" lon="0.62838">
        <ele>189.8</ele>
        <time>2022-04-03T13:24:20Z</time>
      </trkpt>
      <trkpt lat="45.94722" lon="0.62834">
        <ele>189.8</ele>
        <time>2022-04-03T13:24:21Z</time>
      </trkpt>
      <trkpt lat="45.94723" lon="0.62831">
        <ele>190</ele>
        <time>2022-04-03T13:24:22Z</time>
      </trkpt>
      <trkpt lat="45.94724" lon="0.62827">
        <ele>190</ele>
        <time>2022-04-03T13:24:23Z</time>
      </trkpt>
      <trkpt lat="45.94725" lon="0.62824">
        <ele>190</ele>
        <time>2022-04-03T13:24:24Z</time>
      </trkpt>
      <trkpt lat="45.94726" lon="0.62821">
        <ele>190</ele>
        <time>2022-04-03T13:24:25Z</time>
      </trkpt>
      <trkpt lat="45.94728" lon="0.62818">
        <ele>190</ele>
        <time>2022-04-03T13:24:26Z</time>
      </trkpt>
      <trkpt lat="45.94729" lon="0.62816">
        <ele>190.2</ele>
        <time>2022-04-03T13:24:27Z</time>
      </trkpt>
      <trkpt lat="45.9473" lon="0.62813">
        <ele>190.2</ele>
        <time>2022-04-03T13:24:28Z</time>
      </trkpt>
      <trkpt lat="45.9473" lon="0.6281">
        <ele>190.2</ele>
        <time>2022-04-03T13:24:29Z</time>
      </trkpt>
      <trkpt lat="45.94731" lon="0.62807">
        <ele>190.6</ele>
        <time>2022-04-03T13:24:30Z</time>
      </trkpt>
      <trkpt lat="45.94732" lon="0.62804">
        <ele>190.6</ele>
        <time>2022-04-03T13:24:31Z</time>
      </trkpt>
      <trkpt lat="45.94733" lon="0.62802">
        <ele>190.8</ele>
        <time>2022-04-03T13:24:32Z</time>
      </trkpt>
      <trkpt lat="45.94734" lon="0.62799">
        <ele>190.8</ele>
        <time>2022-04-03T13:24:33Z</time>
      </trkpt>
      <trkpt lat="45.94735" lon="0.62796">
        <ele>191</ele>
        <time>2022-04-03T13:24:34Z</time>
      </trkpt>
      <trkpt lat="45.94736" lon="0.62793">
        <ele>191</ele>
        <time>2022-04-03T13:24:35Z</time>
      </trkpt>
      <trkpt lat="45.94737" lon="0.6279">
        <ele>191</ele>
        <time>2022-04-03T13:24:36Z</time>
      </trkpt>
      <trkpt lat="45.94738" lon="0.62787">
        <ele>191</ele>
        <time>2022-04-03T13:24:37Z</time>
      </trkpt>
      <trkpt lat="45.94739" lon="0.62785">
        <ele>191.2</ele>
        <time>2022-04-03T13:24:38Z</time>
      </trkpt>
      <trkpt lat="45.9474" lon="0.62782">
        <ele>191.2</ele>
        <time>2022-04-03T13:24:39Z</time>
      </trkpt>
      <trkpt lat="45.94741" lon="0.62779">
        <ele>191.2</ele>
        <time>2022-04-03T13:24:40Z</time>
      </trkpt>
      <trkpt lat="45.94742" lon="0.62776">
        <ele>191.2</ele>
        <time>2022-04-03T13:24:41Z</time>
      </trkpt>
      <trkpt lat="45.94742" lon="0.62773">
        <ele>191.2</ele>
        <time>2022-04-03T13:24:42Z</time>
      </trkpt>
      <trkpt lat="45.94743" lon="0.6277">
        <ele>191.4</ele>
        <time>2022-04-03T13:24:43Z</time>
      </trkpt>
      <trkpt lat="45.94744" lon="0.62767">
        <ele>191.4</ele>
        <time>2022-04-03T13:24:44Z</time>
      </trkpt>
      <trkpt lat="45.94745" lon="0.62764">
        <ele>191.8</ele>
        <time>2022-04-03T13:24:45Z</time>
      </trkpt>
      <trkpt lat="45.94746" lon="0.62761">
        <ele>192.2</ele>
        <time>2022-04-03T13:24:46Z</time>
      </trkpt>
      <trkpt lat="45.94747" lon="0.62758">
        <ele>192.6</ele>
        <time>2022-04-03T13:24:47Z</time>
      </trkpt>
      <trkpt lat="45.94749" lon="0.62755">
        <ele>192.8</ele>
        <time>2022-04-03T13:24:48Z</time>
      </trkpt>
      <trkpt lat="45.9475" lon="0.62752">
        <ele>193</ele>
        <time>2022-04-03T13:24:49Z</time>
      </trkpt>
      <trkpt lat="45.94751" lon="0.62749">
        <ele>193</ele>
        <time>2022-04-03T13:24:50Z</time>
      </trkpt>
      <trkpt lat="45.94752" lon="0.62746">
        <ele>193.2</ele>
        <time>2022-04-03T13:24:51Z</time>
      </trkpt>
      <trkpt lat="45.94753" lon="0.62743">
        <ele>193.4</ele>
        <time>2022-04-03T13:24:52Z</time>
      </trkpt>
      <trkpt lat="45.94754" lon="0.6274">
        <ele>193.6</ele>
        <time>2022-04-03T13:24:53Z</time>
      </trkpt>
      <trkpt lat="45.94755" lon="0.62737">
        <ele>193.6</ele>
        <time>2022-04-03T13:24:54Z</time>
      </trkpt>
      <trkpt lat="45.94756" lon="0.62734">
        <ele>193.6</ele>
        <time>2022-04-03T13:24:55Z</time>
      </trkpt>
      <trkpt lat="45.94757" lon="0.62731">
        <ele>194.2</ele>
        <time>2022-04-03T13:24:56Z</time>
      </trkpt>
      <trkpt lat="45.94758" lon="0.62728">
        <ele>194.4</ele>
        <time>2022-04-03T13:24:57Z</time>
      </trkpt>
      <trkpt lat="45.94758" lon="0.62725">
        <ele>194.8</ele>
        <time>2022-04-03T13:24:58Z</time>
      </trkpt>
      <trkpt lat="45.9476" lon="0.62722">
        <ele>195</ele>
        <time>2022-04-03T13:24:59Z</time>
      </trkpt>
      <trkpt lat="45.94761" lon="0.62719">
        <ele>195</ele>
        <time>2022-04-03T13:25:00Z</time>
      </trkpt>
      <trkpt lat="45.94762" lon="0.62716">
        <ele>195</ele>
        <time>2022-04-03T13:25:01Z</time>
      </trkpt>
      <trkpt lat="45.94763" lon="0.62713">
        <ele>195.2</ele>
        <time>2022-04-03T13:25:02Z</time>
      </trkpt>
      <trkpt lat="45.94764" lon="0.6271">
        <ele>195.2</ele>
        <time>2022-04-03T13:25:03Z</time>
      </trkpt>
      <trkpt lat="45.94765" lon="0.62707">
        <ele>195.2</ele>
        <time>2022-04-03T13:25:04Z</time>
      </trkpt>
      <trkpt lat="45.94766" lon="0.62704">
        <ele>195.2</ele>
        <time>2022-04-03T13:25:05Z</time>
      </trkpt>
      <trkpt lat="45.94767" lon="0.62701">
        <ele>195.8</ele>
        <time>2022-04-03T13:25:06Z</time>
      </trkpt>
      <trkpt lat="45.94767" lon="0.62698">
        <ele>196.2</ele>
        <time>2022-04-03T13:25:07Z</time>
      </trkpt>
      <trkpt lat="45.94768" lon="0.62695">
        <ele>196.4</ele>
        <time>2022-04-03T13:25:08Z</time>
      </trkpt>
      <trkpt lat="45.94769" lon="0.62692">
        <ele>196.6</ele>
        <time>2022-04-03T13:25:09Z</time>
      </trkpt>
      <trkpt lat="45.94771" lon="0.62689">
        <ele>196.8</ele>
        <time>2022-04-03T13:25:10Z</time>
      </trkpt>
      <trkpt lat="45.94772" lon="0.62686">
        <ele>196.8</ele>
        <time>2022-04-03T13:25:11Z</time>
      </trkpt>
      <trkpt lat="45.94773" lon="0.62683">
        <ele>197</ele>
        <time>2022-04-03T13:25:12Z</time>
      </trkpt>
      <trkpt lat="45.94774" lon="0.6268">
        <ele>197</ele>
        <time>2022-04-03T13:25:13Z</time>
      </trkpt>
      <trkpt lat="45.94774" lon="0.62677">
        <ele>197.2</ele>
        <time>2022-04-03T13:25:14Z</time>
      </trkpt>
      <trkpt lat="45.94775" lon="0.62674">
        <ele>197.6</ele>
        <time>2022-04-03T13:25:15Z</time>
      </trkpt>
      <trkpt lat="45.94776" lon="0.62671">
        <ele>197.6</ele>
        <time>2022-04-03T13:25:16Z</time>
      </trkpt>
      <trkpt lat="45.94777" lon="0.62669">
        <ele>197.8</ele>
        <time>2022-04-03T13:25:17Z</time>
      </trkpt>
      <trkpt lat="45.94778" lon="0.62666">
        <ele>198</ele>
        <time>2022-04-03T13:25:18Z</time>
      </trkpt>
      <trkpt lat="45.94779" lon="0.62663">
        <ele>198</ele>
        <time>2022-04-03T13:25:19Z</time>
      </trkpt>
      <trkpt lat="45.9478" lon="0.6266">
        <ele>198.2</ele>
        <time>2022-04-03T13:25:20Z</time>
      </trkpt>
      <trkpt lat="45.94781" lon="0.62656">
        <ele>198</ele>
        <time>2022-04-03T13:25:21Z</time>
      </trkpt>
      <trkpt lat="45.94782" lon="0.62653">
        <ele>198</ele>
        <time>2022-04-03T13:25:22Z</time>
      </trkpt>
      <trkpt lat="45.94783" lon="0.6265">
        <ele>198.2</ele>
        <time>2022-04-03T13:25:23Z</time>
      </trkpt>
      <trkpt lat="45.94784" lon="0.62647">
        <ele>198.2</ele>
        <time>2022-04-03T13:25:24Z</time>
      </trkpt>
      <trkpt lat="45.94785" lon="0.62644">
        <ele>198.4</ele>
        <time>2022-04-03T13:25:25Z</time>
      </trkpt>
      <trkpt lat="45.94786" lon="0.62641">
        <ele>198.4</ele>
        <time>2022-04-03T13:25:26Z</time>
      </trkpt>
      <trkpt lat="45.94787" lon="0.62638">
        <ele>198.4</ele>
        <time>2022-04-03T13:25:27Z</time>
      </trkpt>
      <trkpt lat="45.94788" lon="0.62635">
        <ele>198.8</ele>
        <time>2022-04-03T13:25:28Z</time>
      </trkpt>
      <trkpt lat="45.94789" lon="0.62632">
        <ele>199</ele>
        <time>2022-04-03T13:25:29Z</time>
      </trkpt>
      <trkpt lat="45.9479" lon="0.62629">
        <ele>199.2</ele>
        <time>2022-04-03T13:25:30Z</time>
      </trkpt>
      <trkpt lat="45.94791" lon="0.62626">
        <ele>199.4</ele>
        <time>2022-04-03T13:25:31Z</time>
      </trkpt>
      <trkpt lat="45.94792" lon="0.62623">
        <ele>199.8</ele>
        <time>2022-04-03T13:25:32Z</time>
      </trkpt>
      <trkpt lat="45.94793" lon="0.6262">
        <ele>200</ele>
        <time>2022-04-03T13:25:33Z</time>
      </trkpt>
      <trkpt lat="45.94795" lon="0.62617">
        <ele>200.2</ele>
        <time>2022-04-03T13:25:34Z</time>
      </trkpt>
      <trkpt lat="45.94795" lon="0.62614">
        <ele>200.6</ele>
        <time>2022-04-03T13:25:35Z</time>
      </trkpt>
      <trkpt lat="45.94796" lon="0.62611">
        <ele>200.8</ele>
        <time>2022-04-03T13:25:36Z</time>
      </trkpt>
      <trkpt lat="45.94797" lon="0.62608">
        <ele>201</ele>
        <time>2022-04-03T13:25:37Z</time>
      </trkpt>
      <trkpt lat="45.94798" lon="0.62605">
        <ele>201</ele>
        <time>2022-04-03T13:25:38Z</time>
      </trkpt>
      <trkpt lat="45.94799" lon="0.62602">
        <ele>201.2</ele>
        <time>2022-04-03T13:25:39Z</time>
      </trkpt>
      <trkpt lat="45.948" lon="0.62599">
        <ele>201.2</ele>
        <time>2022-04-03T13:25:40Z</time>
      </trkpt>
      <trkpt lat="45.94801" lon="0.62596">
        <ele>201.2</ele>
        <time>2022-04-03T13:25:41Z</time>
      </trkpt>
      <trkpt lat="45.94802" lon="0.62593">
        <ele>201.2</ele>
        <time>2022-04-03T13:25:42Z</time>
      </trkpt>
      <trkpt lat="45.94803" lon="0.6259">
        <ele>201.2</ele>
        <time>2022-04-03T13:25:43Z</time>
      </trkpt>
      <trkpt lat="45.94804" lon="0.62587">
        <ele>201.2</ele>
        <time>2022-04-03T13:25:44Z</time>
      </trkpt>
      <trkpt lat="45.94805" lon="0.62584">
        <ele>201.4</ele>
        <time>2022-04-03T13:25:45Z</time>
      </trkpt>
      <trkpt lat="45.94807" lon="0.62581">
        <ele>201.4</ele>
        <time>2022-04-03T13:25:46Z</time>
      </trkpt>
      <trkpt lat="45.94808" lon="0.62578">
        <ele>201.8</ele>
        <time>2022-04-03T13:25:47Z</time>
      </trkpt>
      <trkpt lat="45.94809" lon="0.62575">
        <ele>201.8</ele>
        <time>2022-04-03T13:25:48Z</time>
      </trkpt>
      <trkpt lat="45.9481" lon="0.62572">
        <ele>202</ele>
        <time>2022-04-03T13:25:49Z</time>
      </trkpt>
      <trkpt lat="45.94811" lon="0.62569">
        <ele>202</ele>
        <time>2022-04-03T13:25:50Z</time>
      </trkpt>
      <trkpt lat="45.94812" lon="0.62565">
        <ele>202.2</ele>
        <time>2022-04-03T13:25:51Z</time>
      </trkpt>
      <trkpt lat="45.94813" lon="0.62562">
        <ele>202.4</ele>
        <time>2022-04-03T13:25:52Z</time>
      </trkpt>
      <trkpt lat="45.94814" lon="0.62559">
        <ele>202.4</ele>
        <time>2022-04-03T13:25:53Z</time>
      </trkpt>
      <trkpt lat="45.94815" lon="0.62556">
        <ele>202.8</ele>
        <time>2022-04-03T13:25:54Z</time>
      </trkpt>
      <trkpt lat="45.94816" lon="0.62553">
        <ele>202.8</ele>
        <time>2022-04-03T13:25:55Z</time>
      </trkpt>
      <trkpt lat="45.94817" lon="0.6255">
        <ele>203</ele>
        <time>2022-04-03T13:25:56Z</time>
      </trkpt>
      <trkpt lat="45.94818" lon="0.62547">
        <ele>203.2</ele>
        <time>2022-04-03T13:25:57Z</time>
      </trkpt>
      <trkpt lat="45.94819" lon="0.62544">
        <ele>203.2</ele>
        <time>2022-04-03T13:25:58Z</time>
      </trkpt>
      <trkpt lat="45.9482" lon="0.62541">
        <ele>203.4</ele>
        <time>2022-04-03T13:25:59Z</time>
      </trkpt>
      <trkpt lat="45.94821" lon="0.62538">
        <ele>203.8</ele>
        <time>2022-04-03T13:26:00Z</time>
      </trkpt>
      <trkpt lat="45.94822" lon="0.62535">
        <ele>203.8</ele>
        <time>2022-04-03T13:26:01Z</time>
      </trkpt>
      <trkpt lat="45.94823" lon="0.62532">
        <ele>203.8</ele>
        <time>2022-04-03T13:26:02Z</time>
      </trkpt>
      <trkpt lat="45.94824" lon="0.62529">
        <ele>204</ele>
        <time>2022-04-03T13:26:03Z</time>
      </trkpt>
      <trkpt lat="45.94825" lon="0.62525">
        <ele>204.2</ele>
        <time>2022-04-03T13:26:04Z</time>
      </trkpt>
      <trkpt lat="45.94826" lon="0.62523">
        <ele>204.2</ele>
        <time>2022-04-03T13:26:05Z</time>
      </trkpt>
      <trkpt lat="45.94827" lon="0.6252">
        <ele>204.4</ele>
        <time>2022-04-03T13:26:06Z</time>
      </trkpt>
      <trkpt lat="45.94828" lon="0.62517">
        <ele>204.4</ele>
        <time>2022-04-03T13:26:07Z</time>
      </trkpt>
      <trkpt lat="45.94829" lon="0.62514">
        <ele>204.4</ele>
        <time>2022-04-03T13:26:08Z</time>
      </trkpt>
      <trkpt lat="45.9483" lon="0.6251">
        <ele>204.8</ele>
        <time>2022-04-03T13:26:09Z</time>
      </trkpt>
      <trkpt lat="45.94831" lon="0.62507">
        <ele>204.8</ele>
        <time>2022-04-03T13:26:10Z</time>
      </trkpt>
      <trkpt lat="45.94832" lon="0.62504">
        <ele>205</ele>
        <time>2022-04-03T13:26:11Z</time>
      </trkpt>
      <trkpt lat="45.94832" lon="0.62501">
        <ele>205</ele>
        <time>2022-04-03T13:26:12Z</time>
      </trkpt>
      <trkpt lat="45.94833" lon="0.62498">
        <ele>205.2</ele>
        <time>2022-04-03T13:26:13Z</time>
      </trkpt>
      <trkpt lat="45.94834" lon="0.62496">
        <ele>205.4</ele>
        <time>2022-04-03T13:26:14Z</time>
      </trkpt>
      <trkpt lat="45.94835" lon="0.62493">
        <ele>205.6</ele>
        <time>2022-04-03T13:26:15Z</time>
      </trkpt>
      <trkpt lat="45.94836" lon="0.6249">
        <ele>205.6</ele>
        <time>2022-04-03T13:26:16Z</time>
      </trkpt>
      <trkpt lat="45.94837" lon="0.62487">
        <ele>205.6</ele>
        <time>2022-04-03T13:26:17Z</time>
      </trkpt>
      <trkpt lat="45.94838" lon="0.62484">
        <ele>205.8</ele>
        <time>2022-04-03T13:26:18Z</time>
      </trkpt>
      <trkpt lat="45.94839" lon="0.62481">
        <ele>205.8</ele>
        <time>2022-04-03T13:26:19Z</time>
      </trkpt>
      <trkpt lat="45.9484" lon="0.62477">
        <ele>205.8</ele>
        <time>2022-04-03T13:26:20Z</time>
      </trkpt>
      <trkpt lat="45.94841" lon="0.62474">
        <ele>206</ele>
        <time>2022-04-03T13:26:21Z</time>
      </trkpt>
      <trkpt lat="45.94842" lon="0.62471">
        <ele>206</ele>
        <time>2022-04-03T13:26:22Z</time>
      </trkpt>
      <trkpt lat="45.94843" lon="0.62468">
        <ele>206.2</ele>
        <time>2022-04-03T13:26:23Z</time>
      </trkpt>
      <trkpt lat="45.94844" lon="0.62465">
        <ele>206.4</ele>
        <time>2022-04-03T13:26:24Z</time>
      </trkpt>
      <trkpt lat="45.94845" lon="0.62462">
        <ele>206.8</ele>
        <time>2022-04-03T13:26:25Z</time>
      </trkpt>
      <trkpt lat="45.94846" lon="0.62459">
        <ele>207</ele>
        <time>2022-04-03T13:26:26Z</time>
      </trkpt>
      <trkpt lat="45.94847" lon="0.62456">
        <ele>207.2</ele>
        <time>2022-04-03T13:26:27Z</time>
      </trkpt>
      <trkpt lat="45.94848" lon="0.62453">
        <ele>207.2</ele>
        <time>2022-04-03T13:26:28Z</time>
      </trkpt>
      <trkpt lat="45.94849" lon="0.6245">
        <ele>207.6</ele>
        <time>2022-04-03T13:26:29Z</time>
      </trkpt>
      <trkpt lat="45.94851" lon="0.62447">
        <ele>207.8</ele>
        <time>2022-04-03T13:26:30Z</time>
      </trkpt>
      <trkpt lat="45.94851" lon="0.62444">
        <ele>208</ele>
        <time>2022-04-03T13:26:31Z</time>
      </trkpt>
      <trkpt lat="45.94852" lon="0.62441">
        <ele>208.2</ele>
        <time>2022-04-03T13:26:32Z</time>
      </trkpt>
      <trkpt lat="45.94853" lon="0.62438">
        <ele>208.4</ele>
        <time>2022-04-03T13:26:33Z</time>
      </trkpt>
      <trkpt lat="45.94854" lon="0.62435">
        <ele>208.4</ele>
        <time>2022-04-03T13:26:34Z</time>
      </trkpt>
      <trkpt lat="45.94855" lon="0.62431">
        <ele>208.8</ele>
        <time>2022-04-03T13:26:35Z</time>
      </trkpt>
      <trkpt lat="45.94856" lon="0.62428">
        <ele>209</ele>
        <time>2022-04-03T13:26:36Z</time>
      </trkpt>
      <trkpt lat="45.94857" lon="0.62425">
        <ele>209.2</ele>
        <time>2022-04-03T13:26:37Z</time>
      </trkpt>
      <trkpt lat="45.94858" lon="0.62422">
        <ele>209</ele>
        <time>2022-04-03T13:26:38Z</time>
      </trkpt>
      <trkpt lat="45.94859" lon="0.62419">
        <ele>209.2</ele>
        <time>2022-04-03T13:26:39Z</time>
      </trkpt>
      <trkpt lat="45.9486" lon="0.62416">
        <ele>209.2</ele>
        <time>2022-04-03T13:26:40Z</time>
      </trkpt>
      <trkpt lat="45.94861" lon="0.62413">
        <ele>209.6</ele>
        <time>2022-04-03T13:26:41Z</time>
      </trkpt>
      <trkpt lat="45.94862" lon="0.6241">
        <ele>209.8</ele>
        <time>2022-04-03T13:26:42Z</time>
      </trkpt>
      <trkpt lat="45.94863" lon="0.62407">
        <ele>209.8</ele>
        <time>2022-04-03T13:26:43Z</time>
      </trkpt>
      <trkpt lat="45.94864" lon="0.62404">
        <ele>209.8</ele>
        <time>2022-04-03T13:26:44Z</time>
      </trkpt>
      <trkpt lat="45.94865" lon="0.62401">
        <ele>209.8</ele>
        <time>2022-04-03T13:26:45Z</time>
      </trkpt>
      <trkpt lat="45.94866" lon="0.62398">
        <ele>210</ele>
        <time>2022-04-03T13:26:46Z</time>
      </trkpt>
      <trkpt lat="45.94868" lon="0.62395">
        <ele>210.2</ele>
        <time>2022-04-03T13:26:47Z</time>
      </trkpt>
      <trkpt lat="45.94869" lon="0.62392">
        <ele>210.2</ele>
        <time>2022-04-03T13:26:48Z</time>
      </trkpt>
      <trkpt lat="45.9487" lon="0.6239">
        <ele>210.2</ele>
        <time>2022-04-03T13:26:49Z</time>
      </trkpt>
      <trkpt lat="45.94871" lon="0.62386">
        <ele>210.6</ele>
        <time>2022-04-03T13:26:50Z</time>
      </trkpt>
      <trkpt lat="45.94872" lon="0.62383">
        <ele>210.6</ele>
        <time>2022-04-03T13:26:51Z</time>
      </trkpt>
      <trkpt lat="45.94873" lon="0.6238">
        <ele>210.8</ele>
        <time>2022-04-03T13:26:52Z</time>
      </trkpt>
      <trkpt lat="45.94874" lon="0.62377">
        <ele>211</ele>
        <time>2022-04-03T13:26:53Z</time>
      </trkpt>
      <trkpt lat="45.94875" lon="0.62374">
        <ele>211</ele>
        <time>2022-04-03T13:26:54Z</time>
      </trkpt>
      <trkpt lat="45.94876" lon="0.62371">
        <ele>211</ele>
        <time>2022-04-03T13:26:55Z</time>
      </trkpt>
      <trkpt lat="45.94877" lon="0.62368">
        <ele>211.2</ele>
        <time>2022-04-03T13:26:56Z</time>
      </trkpt>
      <trkpt lat="45.94878" lon="0.62365">
        <ele>211.2</ele>
        <time>2022-04-03T13:26:57Z</time>
      </trkpt>
      <trkpt lat="45.94878" lon="0.62362">
        <ele>211.4</ele>
        <time>2022-04-03T13:26:58Z</time>
      </trkpt>
      <trkpt lat="45.94879" lon="0.62359">
        <ele>211.4</ele>
        <time>2022-04-03T13:26:59Z</time>
      </trkpt>
      <trkpt lat="45.9488" lon="0.62356">
        <ele>211.6</ele>
        <time>2022-04-03T13:27:00Z</time>
      </trkpt>
      <trkpt lat="45.94881" lon="0.62353">
        <ele>211.8</ele>
        <time>2022-04-03T13:27:01Z</time>
      </trkpt>
      <trkpt lat="45.94882" lon="0.6235">
        <ele>211.8</ele>
        <time>2022-04-03T13:27:02Z</time>
      </trkpt>
      <trkpt lat="45.94883" lon="0.62347">
        <ele>212</ele>
        <time>2022-04-03T13:27:03Z</time>
      </trkpt>
      <trkpt lat="45.94884" lon="0.62344">
        <ele>212.2</ele>
        <time>2022-04-03T13:27:04Z</time>
      </trkpt>
      <trkpt lat="45.94885" lon="0.62341">
        <ele>212.4</ele>
        <time>2022-04-03T13:27:05Z</time>
      </trkpt>
      <trkpt lat="45.94886" lon="0.62338">
        <ele>212.8</ele>
        <time>2022-04-03T13:27:06Z</time>
      </trkpt>
      <trkpt lat="45.94887" lon="0.62335">
        <ele>213</ele>
        <time>2022-04-03T13:27:07Z</time>
      </trkpt>
      <trkpt lat="45.94888" lon="0.62332">
        <ele>213.2</ele>
        <time>2022-04-03T13:27:08Z</time>
      </trkpt>
      <trkpt lat="45.94889" lon="0.62329">
        <ele>213.2</ele>
        <time>2022-04-03T13:27:09Z</time>
      </trkpt>
      <trkpt lat="45.9489" lon="0.62326">
        <ele>213.4</ele>
        <time>2022-04-03T13:27:10Z</time>
      </trkpt>
      <trkpt lat="45.94891" lon="0.62323">
        <ele>213.4</ele>
        <time>2022-04-03T13:27:11Z</time>
      </trkpt>
      <trkpt lat="45.94892" lon="0.62321">
        <ele>213.6</ele>
        <time>2022-04-03T13:27:12Z</time>
      </trkpt>
      <trkpt lat="45.94893" lon="0.62318">
        <ele>213.6</ele>
        <time>2022-04-03T13:27:13Z</time>
      </trkpt>
      <trkpt lat="45.94894" lon="0.62315">
        <ele>213.8</ele>
        <time>2022-04-03T13:27:14Z</time>
      </trkpt>
      <trkpt lat="45.94895" lon="0.62312">
        <ele>213.8</ele>
        <time>2022-04-03T13:27:15Z</time>
      </trkpt>
      <trkpt lat="45.94896" lon="0.62309">
        <ele>213.8</ele>
        <time>2022-04-03T13:27:16Z</time>
      </trkpt>
      <trkpt lat="45.94897" lon="0.62306">
        <ele>213.8</ele>
        <time>2022-04-03T13:27:17Z</time>
      </trkpt>
      <trkpt lat="45.94898" lon="0.62303">
        <ele>213.8</ele>
        <time>2022-04-03T13:27:18Z</time>
      </trkpt>
      <trkpt lat="45.94899" lon="0.623">
        <ele>214</ele>
        <time>2022-04-03T13:27:19Z</time>
      </trkpt>
      <trkpt lat="45.949" lon="0.62297">
        <ele>214.2</ele>
        <time>2022-04-03T13:27:20Z</time>
      </trkpt>
      <trkpt lat="45.94901" lon="0.62294">
        <ele>214.4</ele>
        <time>2022-04-03T13:27:21Z</time>
      </trkpt>
      <trkpt lat="45.94902" lon="0.62291">
        <ele>214.6</ele>
        <time>2022-04-03T13:27:22Z</time>
      </trkpt>
      <trkpt lat="45.94903" lon="0.62288">
        <ele>214.6</ele>
        <time>2022-04-03T13:27:23Z</time>
      </trkpt>
      <trkpt lat="45.94904" lon="0.62285">
        <ele>215</ele>
        <time>2022-04-03T13:27:24Z</time>
      </trkpt>
      <trkpt lat="45.94905" lon="0.62282">
        <ele>215.2</ele>
        <time>2022-04-03T13:27:25Z</time>
      </trkpt>
      <trkpt lat="45.94906" lon="0.62279">
        <ele>215.4</ele>
        <time>2022-04-03T13:27:26Z</time>
      </trkpt>
      <trkpt lat="45.94907" lon="0.62276">
        <ele>215.6</ele>
        <time>2022-04-03T13:27:27Z</time>
      </trkpt>
      <trkpt lat="45.94908" lon="0.62273">
        <ele>216</ele>
        <time>2022-04-03T13:27:28Z</time>
      </trkpt>
      <trkpt lat="45.94909" lon="0.6227">
        <ele>216.2</ele>
        <time>2022-04-03T13:27:29Z</time>
      </trkpt>
      <trkpt lat="45.9491" lon="0.62267">
        <ele>216.6</ele>
        <time>2022-04-03T13:27:30Z</time>
      </trkpt>
      <trkpt lat="45.94911" lon="0.62264">
        <ele>216.6</ele>
        <time>2022-04-03T13:27:31Z</time>
      </trkpt>
      <trkpt lat="45.94912" lon="0.62261">
        <ele>217</ele>
        <time>2022-04-03T13:27:32Z</time>
      </trkpt>
      <trkpt lat="45.94913" lon="0.62257">
        <ele>217</ele>
        <time>2022-04-03T13:27:33Z</time>
      </trkpt>
      <trkpt lat="45.94914" lon="0.62254">
        <ele>217.2</ele>
        <time>2022-04-03T13:27:34Z</time>
      </trkpt>
      <trkpt lat="45.94916" lon="0.62251">
        <ele>217.2</ele>
        <time>2022-04-03T13:27:35Z</time>
      </trkpt>
      <trkpt lat="45.94917" lon="0.62248">
        <ele>217.2</ele>
        <time>2022-04-03T13:27:36Z</time>
      </trkpt>
      <trkpt lat="45.94918" lon="0.62244">
        <ele>217.2</ele>
        <time>2022-04-03T13:27:37Z</time>
      </trkpt>
      <trkpt lat="45.94918" lon="0.62241">
        <ele>217.4</ele>
        <time>2022-04-03T13:27:38Z</time>
      </trkpt>
      <trkpt lat="45.94919" lon="0.62238">
        <ele>217.6</ele>
        <time>2022-04-03T13:27:39Z</time>
      </trkpt>
      <trkpt lat="45.9492" lon="0.62235">
        <ele>217.8</ele>
        <time>2022-04-03T13:27:40Z</time>
      </trkpt>
      <trkpt lat="45.94921" lon="0.62232">
        <ele>218</ele>
        <time>2022-04-03T13:27:41Z</time>
      </trkpt>
      <trkpt lat="45.94922" lon="0.62229">
        <ele>218</ele>
        <time>2022-04-03T13:27:42Z</time>
      </trkpt>
      <trkpt lat="45.94923" lon="0.62226">
        <ele>218.4</ele>
        <time>2022-04-03T13:27:43Z</time>
      </trkpt>
      <trkpt lat="45.94924" lon="0.62223">
        <ele>218.6</ele>
        <time>2022-04-03T13:27:44Z</time>
      </trkpt>
      <trkpt lat="45.94925" lon="0.6222">
        <ele>218.6</ele>
        <time>2022-04-03T13:27:45Z</time>
      </trkpt>
      <trkpt lat="45.94926" lon="0.62217">
        <ele>218.8</ele>
        <time>2022-04-03T13:27:46Z</time>
      </trkpt>
      <trkpt lat="45.94927" lon="0.62214">
        <ele>218.8</ele>
        <time>2022-04-03T13:27:47Z</time>
      </trkpt>
      <trkpt lat="45.94928" lon="0.62212">
        <ele>219.2</ele>
        <time>2022-04-03T13:27:48Z</time>
      </trkpt>
      <trkpt lat="45.94929" lon="0.62209">
        <ele>219.2</ele>
        <time>2022-04-03T13:27:49Z</time>
      </trkpt>
      <trkpt lat="45.9493" lon="0.62206">
        <ele>219.4</ele>
        <time>2022-04-03T13:27:50Z</time>
      </trkpt>
      <trkpt lat="45.94931" lon="0.62202">
        <ele>219.6</ele>
        <time>2022-04-03T13:27:51Z</time>
      </trkpt>
      <trkpt lat="45.94932" lon="0.62199">
        <ele>219.8</ele>
        <time>2022-04-03T13:27:52Z</time>
      </trkpt>
      <trkpt lat="45.94933" lon="0.62196">
        <ele>220</ele>
        <time>2022-04-03T13:27:53Z</time>
      </trkpt>
      <trkpt lat="45.94934" lon="0.62193">
        <ele>220</ele>
        <time>2022-04-03T13:27:54Z</time>
      </trkpt>
      <trkpt lat="45.94935" lon="0.6219">
        <ele>220</ele>
        <time>2022-04-03T13:27:55Z</time>
      </trkpt>
      <trkpt lat="45.94936" lon="0.62187">
        <ele>220.2</ele>
        <time>2022-04-03T13:27:56Z</time>
      </trkpt>
      <trkpt lat="45.94937" lon="0.62183">
        <ele>220.4</ele>
        <time>2022-04-03T13:27:57Z</time>
      </trkpt>
      <trkpt lat="45.94938" lon="0.62179">
        <ele>220.6</ele>
        <time>2022-04-03T13:27:58Z</time>
      </trkpt>
      <trkpt lat="45.9494" lon="0.62176">
        <ele>220.6</ele>
        <time>2022-04-03T13:27:59Z</time>
      </trkpt>
      <trkpt lat="45.94941" lon="0.62172">
        <ele>220.8</ele>
        <time>2022-04-03T13:28:00Z</time>
      </trkpt>
      <trkpt lat="45.94943" lon="0.62168">
        <ele>221</ele>
        <time>2022-04-03T13:28:01Z</time>
      </trkpt>
      <trkpt lat="45.94944" lon="0.62164">
        <ele>221</ele>
        <time>2022-04-03T13:28:02Z</time>
      </trkpt>
      <trkpt lat="45.94945" lon="0.6216">
        <ele>221.2</ele>
        <time>2022-04-03T13:28:03Z</time>
      </trkpt>
      <trkpt lat="45.94946" lon="0.62156">
        <ele>221.2</ele>
        <time>2022-04-03T13:28:04Z</time>
      </trkpt>
      <trkpt lat="45.94948" lon="0.62151">
        <ele>221.4</ele>
        <time>2022-04-03T13:28:05Z</time>
      </trkpt>
      <trkpt lat="45.94949" lon="0.62147">
        <ele>221.4</ele>
        <time>2022-04-03T13:28:06Z</time>
      </trkpt>
      <trkpt lat="45.9495" lon="0.62142">
        <ele>221.4</ele>
        <time>2022-04-03T13:28:07Z</time>
      </trkpt>
      <trkpt lat="45.94952" lon="0.62137">
        <ele>221.6</ele>
        <time>2022-04-03T13:28:08Z</time>
      </trkpt>
      <trkpt lat="45.94953" lon="0.62133">
        <ele>221.4</ele>
        <time>2022-04-03T13:28:09Z</time>
      </trkpt>
      <trkpt lat="45.94955" lon="0.62128">
        <ele>221.4</ele>
        <time>2022-04-03T13:28:10Z</time>
      </trkpt>
      <trkpt lat="45.94956" lon="0.62124">
        <ele>221.6</ele>
        <time>2022-04-03T13:28:11Z</time>
      </trkpt>
      <trkpt lat="45.94958" lon="0.62119">
        <ele>221.6</ele>
        <time>2022-04-03T13:28:12Z</time>
      </trkpt>
      <trkpt lat="45.94959" lon="0.62115">
        <ele>221.6</ele>
        <time>2022-04-03T13:28:13Z</time>
      </trkpt>
      <trkpt lat="45.94961" lon="0.6211">
        <ele>221.6</ele>
        <time>2022-04-03T13:28:14Z</time>
      </trkpt>
      <trkpt lat="45.94962" lon="0.62106">
        <ele>221.6</ele>
        <time>2022-04-03T13:28:15Z</time>
      </trkpt>
      <trkpt lat="45.94964" lon="0.62101">
        <ele>221.6</ele>
        <time>2022-04-03T13:28:16Z</time>
      </trkpt>
      <trkpt lat="45.94965" lon="0.62096">
        <ele>221.6</ele>
        <time>2022-04-03T13:28:17Z</time>
      </trkpt>
      <trkpt lat="45.94966" lon="0.62092">
        <ele>221.6</ele>
        <time>2022-04-03T13:28:18Z</time>
      </trkpt>
      <trkpt lat="45.94968" lon="0.62087">
        <ele>221.8</ele>
        <time>2022-04-03T13:28:19Z</time>
      </trkpt>
      <trkpt lat="45.94969" lon="0.62083">
        <ele>221.8</ele>
        <time>2022-04-03T13:28:20Z</time>
      </trkpt>
      <trkpt lat="45.9497" lon="0.62078">
        <ele>222</ele>
        <time>2022-04-03T13:28:21Z</time>
      </trkpt>
      <trkpt lat="45.94972" lon="0.62073">
        <ele>221.8</ele>
        <time>2022-04-03T13:28:22Z</time>
      </trkpt>
      <trkpt lat="45.94973" lon="0.62067">
        <ele>221.8</ele>
        <time>2022-04-03T13:28:23Z</time>
      </trkpt>
      <trkpt lat="45.94974" lon="0.62062">
        <ele>221.8</ele>
        <time>2022-04-03T13:28:24Z</time>
      </trkpt>
      <trkpt lat="45.94975" lon="0.62056">
        <ele>222</ele>
        <time>2022-04-03T13:28:25Z</time>
      </trkpt>
      <trkpt lat="45.94977" lon="0.6205">
        <ele>222.2</ele>
        <time>2022-04-03T13:28:26Z</time>
      </trkpt>
      <trkpt lat="45.94978" lon="0.62044">
        <ele>222</ele>
        <time>2022-04-03T13:28:27Z</time>
      </trkpt>
      <trkpt lat="45.94979" lon="0.62038">
        <ele>222</ele>
        <time>2022-04-03T13:28:28Z</time>
      </trkpt>
      <trkpt lat="45.9498" lon="0.62032">
        <ele>222.2</ele>
        <time>2022-04-03T13:28:29Z</time>
      </trkpt>
      <trkpt lat="45.94982" lon="0.62026">
        <ele>222.2</ele>
        <time>2022-04-03T13:28:30Z</time>
      </trkpt>
      <trkpt lat="45.94983" lon="0.6202">
        <ele>222.2</ele>
        <time>2022-04-03T13:28:31Z</time>
      </trkpt>
      <trkpt lat="45.94984" lon="0.62014">
        <ele>222.2</ele>
        <time>2022-04-03T13:28:32Z</time>
      </trkpt>
      <trkpt lat="45.94985" lon="0.62009">
        <ele>222.2</ele>
        <time>2022-04-03T13:28:33Z</time>
      </trkpt>
      <trkpt lat="45.94987" lon="0.62003">
        <ele>222.2</ele>
        <time>2022-04-03T13:28:34Z</time>
      </trkpt>
      <trkpt lat="45.94988" lon="0.61997">
        <ele>222.2</ele>
        <time>2022-04-03T13:28:35Z</time>
      </trkpt>
      <trkpt lat="45.94989" lon="0.61991">
        <ele>222.2</ele>
        <time>2022-04-03T13:28:36Z</time>
      </trkpt>
      <trkpt lat="45.94991" lon="0.61985">
        <ele>222.4</ele>
        <time>2022-04-03T13:28:37Z</time>
      </trkpt>
      <trkpt lat="45.94992" lon="0.61979">
        <ele>222.4</ele>
        <time>2022-04-03T13:28:38Z</time>
      </trkpt>
      <trkpt lat="45.94993" lon="0.61974">
        <ele>222.8</ele>
        <time>2022-04-03T13:28:39Z</time>
      </trkpt>
      <trkpt lat="45.94994" lon="0.61968">
        <ele>222.6</ele>
        <time>2022-04-03T13:28:40Z</time>
      </trkpt>
      <trkpt lat="45.94995" lon="0.61962">
        <ele>222.8</ele>
        <time>2022-04-03T13:28:41Z</time>
      </trkpt>
      <trkpt lat="45.94995" lon="0.61956">
        <ele>222.8</ele>
        <time>2022-04-03T13:28:42Z</time>
      </trkpt>
      <trkpt lat="45.94996" lon="0.6195">
        <ele>222.8</ele>
        <time>2022-04-03T13:28:43Z</time>
      </trkpt>
      <trkpt lat="45.94997" lon="0.61944">
        <ele>222.8</ele>
        <time>2022-04-03T13:28:44Z</time>
      </trkpt>
      <trkpt lat="45.94998" lon="0.61939">
        <ele>222.8</ele>
        <time>2022-04-03T13:28:45Z</time>
      </trkpt>
      <trkpt lat="45.94998" lon="0.61933">
        <ele>223.2</ele>
        <time>2022-04-03T13:28:46Z</time>
      </trkpt>
      <trkpt lat="45.94999" lon="0.61927">
        <ele>223.4</ele>
        <time>2022-04-03T13:28:47Z</time>
      </trkpt>
      <trkpt lat="45.95" lon="0.61922">
        <ele>223.2</ele>
        <time>2022-04-03T13:28:48Z</time>
      </trkpt>
      <trkpt lat="45.95001" lon="0.61916">
        <ele>223.4</ele>
        <time>2022-04-03T13:28:49Z</time>
      </trkpt>
      <trkpt lat="45.95002" lon="0.61911">
        <ele>223.4</ele>
        <time>2022-04-03T13:28:50Z</time>
      </trkpt>
      <trkpt lat="45.95003" lon="0.61905">
        <ele>223.4</ele>
        <time>2022-04-03T13:28:51Z</time>
      </trkpt>
      <trkpt lat="45.95004" lon="0.61899">
        <ele>223.4</ele>
        <time>2022-04-03T13:28:52Z</time>
      </trkpt>
      <trkpt lat="45.95006" lon="0.61893">
        <ele>223.4</ele>
        <time>2022-04-03T13:28:53Z</time>
      </trkpt>
      <trkpt lat="45.95007" lon="0.61887">
        <ele>223.6</ele>
        <time>2022-04-03T13:28:54Z</time>
      </trkpt>
      <trkpt lat="45.95008" lon="0.61881">
        <ele>223.4</ele>
        <time>2022-04-03T13:28:55Z</time>
      </trkpt>
      <trkpt lat="45.95009" lon="0.61875">
        <ele>223.4</ele>
        <time>2022-04-03T13:28:56Z</time>
      </trkpt>
      <trkpt lat="45.9501" lon="0.61869">
        <ele>223.4</ele>
        <time>2022-04-03T13:28:57Z</time>
      </trkpt>
      <trkpt lat="45.95011" lon="0.61863">
        <ele>223.6</ele>
        <time>2022-04-03T13:28:58Z</time>
      </trkpt>
      <trkpt lat="45.95012" lon="0.61857">
        <ele>223.8</ele>
        <time>2022-04-03T13:28:59Z</time>
      </trkpt>
      <trkpt lat="45.95012" lon="0.6185">
        <ele>223.8</ele>
        <time>2022-04-03T13:29:00Z</time>
      </trkpt>
      <trkpt lat="45.95013" lon="0.61844">
        <ele>223.8</ele>
        <time>2022-04-03T13:29:01Z</time>
      </trkpt>
      <trkpt lat="45.95014" lon="0.61837">
        <ele>223.8</ele>
        <time>2022-04-03T13:29:02Z</time>
      </trkpt>
      <trkpt lat="45.95015" lon="0.6183">
        <ele>223.8</ele>
        <time>2022-04-03T13:29:03Z</time>
      </trkpt>
      <trkpt lat="45.95016" lon="0.61823">
        <ele>224</ele>
        <time>2022-04-03T13:29:04Z</time>
      </trkpt>
      <trkpt lat="45.95017" lon="0.61817">
        <ele>224</ele>
        <time>2022-04-03T13:29:05Z</time>
      </trkpt>
      <trkpt lat="45.95018" lon="0.6181">
        <ele>224</ele>
        <time>2022-04-03T13:29:06Z</time>
      </trkpt>
      <trkpt lat="45.9502" lon="0.61803">
        <ele>224</ele>
        <time>2022-04-03T13:29:07Z</time>
      </trkpt>
      <trkpt lat="45.9502" lon="0.61796">
        <ele>224</ele>
        <time>2022-04-03T13:29:08Z</time>
      </trkpt>
      <trkpt lat="45.95021" lon="0.61789">
        <ele>224.2</ele>
        <time>2022-04-03T13:29:09Z</time>
      </trkpt>
      <trkpt lat="45.95022" lon="0.61782">
        <ele>224</ele>
        <time>2022-04-03T13:29:10Z</time>
      </trkpt>
      <trkpt lat="45.95024" lon="0.61775">
        <ele>224.2</ele>
        <time>2022-04-03T13:29:11Z</time>
      </trkpt>
      <trkpt lat="45.95025" lon="0.61768">
        <ele>224.2</ele>
        <time>2022-04-03T13:29:12Z</time>
      </trkpt>
      <trkpt lat="45.95025" lon="0.61761">
        <ele>224.2</ele>
        <time>2022-04-03T13:29:13Z</time>
      </trkpt>
      <trkpt lat="45.95026" lon="0.61754">
        <ele>224.2</ele>
        <time>2022-04-03T13:29:14Z</time>
      </trkpt>
      <trkpt lat="45.95027" lon="0.61747">
        <ele>224.2</ele>
        <time>2022-04-03T13:29:15Z</time>
      </trkpt>
      <trkpt lat="45.95028" lon="0.61741">
        <ele>224.4</ele>
        <time>2022-04-03T13:29:16Z</time>
      </trkpt>
      <trkpt lat="45.95029" lon="0.61734">
        <ele>224.4</ele>
        <time>2022-04-03T13:29:17Z</time>
      </trkpt>
      <trkpt lat="45.95031" lon="0.61727">
        <ele>224.6</ele>
        <time>2022-04-03T13:29:18Z</time>
      </trkpt>
      <trkpt lat="45.95031" lon="0.6172">
        <ele>224.6</ele>
        <time>2022-04-03T13:29:19Z</time>
      </trkpt>
      <trkpt lat="45.95032" lon="0.61714">
        <ele>224.6</ele>
        <time>2022-04-03T13:29:20Z</time>
      </trkpt>
      <trkpt lat="45.95033" lon="0.61707">
        <ele>224.6</ele>
        <time>2022-04-03T13:29:21Z</time>
      </trkpt>
      <trkpt lat="45.95034" lon="0.61701">
        <ele>224.8</ele>
        <time>2022-04-03T13:29:22Z</time>
      </trkpt>
      <trkpt lat="45.95035" lon="0.61694">
        <ele>224.8</ele>
        <time>2022-04-03T13:29:23Z</time>
      </trkpt>
      <trkpt lat="45.95036" lon="0.61688">
        <ele>224.8</ele>
        <time>2022-04-03T13:29:24Z</time>
      </trkpt>
      <trkpt lat="45.95037" lon="0.61681">
        <ele>224.8</ele>
        <time>2022-04-03T13:29:25Z</time>
      </trkpt>
      <trkpt lat="45.95038" lon="0.61674">
        <ele>224.8</ele>
        <time>2022-04-03T13:29:26Z</time>
      </trkpt>
      <trkpt lat="45.95039" lon="0.61667">
        <ele>224.8</ele>
        <time>2022-04-03T13:29:27Z</time>
      </trkpt>
      <trkpt lat="45.9504" lon="0.6166">
        <ele>225</ele>
        <time>2022-04-03T13:29:28Z</time>
      </trkpt>
      <trkpt lat="45.95041" lon="0.61653">
        <ele>224.8</ele>
        <time>2022-04-03T13:29:29Z</time>
      </trkpt>
      <trkpt lat="45.95042" lon="0.61646">
        <ele>224.8</ele>
        <time>2022-04-03T13:29:30Z</time>
      </trkpt>
      <trkpt lat="45.95043" lon="0.61639">
        <ele>224.8</ele>
        <time>2022-04-03T13:29:31Z</time>
      </trkpt>
      <trkpt lat="45.95044" lon="0.61632">
        <ele>225</ele>
        <time>2022-04-03T13:29:32Z</time>
      </trkpt>
      <trkpt lat="45.95045" lon="0.61625">
        <ele>225</ele>
        <time>2022-04-03T13:29:33Z</time>
      </trkpt>
      <trkpt lat="45.95047" lon="0.61619">
        <ele>225.2</ele>
        <time>2022-04-03T13:29:34Z</time>
      </trkpt>
      <trkpt lat="45.95048" lon="0.61612">
        <ele>225.2</ele>
        <time>2022-04-03T13:29:35Z</time>
      </trkpt>
      <trkpt lat="45.9505" lon="0.61606">
        <ele>225.2</ele>
        <time>2022-04-03T13:29:36Z</time>
      </trkpt>
      <trkpt lat="45.95053" lon="0.616">
        <ele>225.2</ele>
        <time>2022-04-03T13:29:37Z</time>
      </trkpt>
      <trkpt lat="45.95055" lon="0.61594">
        <ele>225.2</ele>
        <time>2022-04-03T13:29:38Z</time>
      </trkpt>
      <trkpt lat="45.95057" lon="0.61589">
        <ele>225.4</ele>
        <time>2022-04-03T13:29:39Z</time>
      </trkpt>
      <trkpt lat="45.9506" lon="0.61583">
        <ele>225.2</ele>
        <time>2022-04-03T13:29:40Z</time>
      </trkpt>
      <trkpt lat="45.95063" lon="0.61578">
        <ele>225.2</ele>
        <time>2022-04-03T13:29:41Z</time>
      </trkpt>
      <trkpt lat="45.95066" lon="0.61573">
        <ele>225.2</ele>
        <time>2022-04-03T13:29:42Z</time>
      </trkpt>
      <trkpt lat="45.95069" lon="0.61567">
        <ele>225.2</ele>
        <time>2022-04-03T13:29:43Z</time>
      </trkpt>
      <trkpt lat="45.95073" lon="0.61562">
        <ele>225.2</ele>
        <time>2022-04-03T13:29:44Z</time>
      </trkpt>
      <trkpt lat="45.95076" lon="0.61557">
        <ele>225</ele>
        <time>2022-04-03T13:29:45Z</time>
      </trkpt>
      <trkpt lat="45.95079" lon="0.61552">
        <ele>225.2</ele>
        <time>2022-04-03T13:29:46Z</time>
      </trkpt>
      <trkpt lat="45.95082" lon="0.61546">
        <ele>225</ele>
        <time>2022-04-03T13:29:47Z</time>
      </trkpt>
      <trkpt lat="45.95086" lon="0.61541">
        <ele>225.2</ele>
        <time>2022-04-03T13:29:48Z</time>
      </trkpt>
      <trkpt lat="45.95088" lon="0.61536">
        <ele>225.2</ele>
        <time>2022-04-03T13:29:49Z</time>
      </trkpt>
      <trkpt lat="45.95091" lon="0.61531">
        <ele>225.2</ele>
        <time>2022-04-03T13:29:50Z</time>
      </trkpt>
      <trkpt lat="45.95094" lon="0.61526">
        <ele>225.2</ele>
        <time>2022-04-03T13:29:51Z</time>
      </trkpt>
      <trkpt lat="45.95097" lon="0.61521">
        <ele>225.2</ele>
        <time>2022-04-03T13:29:52Z</time>
      </trkpt>
      <trkpt lat="45.951" lon="0.61517">
        <ele>225.2</ele>
        <time>2022-04-03T13:29:53Z</time>
      </trkpt>
      <trkpt lat="45.95103" lon="0.61512">
        <ele>225.2</ele>
        <time>2022-04-03T13:29:54Z</time>
      </trkpt>
      <trkpt lat="45.95106" lon="0.61507">
        <ele>225</ele>
        <time>2022-04-03T13:29:55Z</time>
      </trkpt>
      <trkpt lat="45.95109" lon="0.61503">
        <ele>225</ele>
        <time>2022-04-03T13:29:56Z</time>
      </trkpt>
      <trkpt lat="45.95112" lon="0.61498">
        <ele>225</ele>
        <time>2022-04-03T13:29:57Z</time>
      </trkpt>
      <trkpt lat="45.95115" lon="0.61492">
        <ele>225</ele>
        <time>2022-04-03T13:29:58Z</time>
      </trkpt>
      <trkpt lat="45.95119" lon="0.61487">
        <ele>224.8</ele>
        <time>2022-04-03T13:29:59Z</time>
      </trkpt>
      <trkpt lat="45.95122" lon="0.61482">
        <ele>225</ele>
        <time>2022-04-03T13:30:00Z</time>
      </trkpt>
      <trkpt lat="45.95126" lon="0.61476">
        <ele>224.8</ele>
        <time>2022-04-03T13:30:01Z</time>
      </trkpt>
      <trkpt lat="45.9513" lon="0.6147">
        <ele>224.8</ele>
        <time>2022-04-03T13:30:02Z</time>
      </trkpt>
      <trkpt lat="45.95134" lon="0.61464">
        <ele>224.6</ele>
        <time>2022-04-03T13:30:03Z</time>
      </trkpt>
      <trkpt lat="45.95137" lon="0.61458">
        <ele>224.6</ele>
        <time>2022-04-03T13:30:04Z</time>
      </trkpt>
      <trkpt lat="45.95141" lon="0.61451">
        <ele>224.6</ele>
        <time>2022-04-03T13:30:05Z</time>
      </trkpt>
      <trkpt lat="45.95145" lon="0.61445">
        <ele>224.4</ele>
        <time>2022-04-03T13:30:06Z</time>
      </trkpt>
      <trkpt lat="45.95149" lon="0.61438">
        <ele>224.2</ele>
        <time>2022-04-03T13:30:07Z</time>
      </trkpt>
      <trkpt lat="45.95153" lon="0.61432">
        <ele>224.2</ele>
        <time>2022-04-03T13:30:08Z</time>
      </trkpt>
      <trkpt lat="45.95157" lon="0.61425">
        <ele>224.2</ele>
        <time>2022-04-03T13:30:09Z</time>
      </trkpt>
      <trkpt lat="45.95161" lon="0.61418">
        <ele>224</ele>
        <time>2022-04-03T13:30:10Z</time>
      </trkpt>
      <trkpt lat="45.95164" lon="0.6141">
        <ele>223.2</ele>
        <time>2022-04-03T13:30:11Z</time>
      </trkpt>
      <trkpt lat="45.95167" lon="0.61402">
        <ele>222.8</ele>
        <time>2022-04-03T13:30:12Z</time>
      </trkpt>
      <trkpt lat="45.9517" lon="0.61394">
        <ele>222.8</ele>
        <time>2022-04-03T13:30:13Z</time>
      </trkpt>
      <trkpt lat="45.95174" lon="0.61385">
        <ele>222.2</ele>
        <time>2022-04-03T13:30:14Z</time>
      </trkpt>
      <trkpt lat="45.95177" lon="0.61376">
        <ele>222.2</ele>
        <time>2022-04-03T13:30:15Z</time>
      </trkpt>
      <trkpt lat="45.95181" lon="0.61367">
        <ele>221.8</ele>
        <time>2022-04-03T13:30:16Z</time>
      </trkpt>
      <trkpt lat="45.95184" lon="0.61357">
        <ele>221.4</ele>
        <time>2022-04-03T13:30:17Z</time>
      </trkpt>
      <trkpt lat="45.95187" lon="0.61347">
        <ele>221.4</ele>
        <time>2022-04-03T13:30:18Z</time>
      </trkpt>
      <trkpt lat="45.9519" lon="0.61338">
        <ele>221.2</ele>
        <time>2022-04-03T13:30:19Z</time>
      </trkpt>
      <trkpt lat="45.95192" lon="0.61328">
        <ele>220.2</ele>
        <time>2022-04-03T13:30:20Z</time>
      </trkpt>
      <trkpt lat="45.95195" lon="0.61318">
        <ele>219.4</ele>
        <time>2022-04-03T13:30:21Z</time>
      </trkpt>
      <trkpt lat="45.95197" lon="0.61308">
        <ele>219</ele>
        <time>2022-04-03T13:30:22Z</time>
      </trkpt>
      <trkpt lat="45.95199" lon="0.61298">
        <ele>218.8</ele>
        <time>2022-04-03T13:30:23Z</time>
      </trkpt>
      <trkpt lat="45.95202" lon="0.61289">
        <ele>218.6</ele>
        <time>2022-04-03T13:30:24Z</time>
      </trkpt>
      <trkpt lat="45.95204" lon="0.6128">
        <ele>218.2</ele>
        <time>2022-04-03T13:30:25Z</time>
      </trkpt>
      <trkpt lat="45.95206" lon="0.61271">
        <ele>217.8</ele>
        <time>2022-04-03T13:30:26Z</time>
      </trkpt>
      <trkpt lat="45.95208" lon="0.61263">
        <ele>217.8</ele>
        <time>2022-04-03T13:30:27Z</time>
      </trkpt>
      <trkpt lat="45.9521" lon="0.61254">
        <ele>217.4</ele>
        <time>2022-04-03T13:30:28Z</time>
      </trkpt>
      <trkpt lat="45.95212" lon="0.61245">
        <ele>217.4</ele>
        <time>2022-04-03T13:30:29Z</time>
      </trkpt>
      <trkpt lat="45.95214" lon="0.61237">
        <ele>217</ele>
        <time>2022-04-03T13:30:30Z</time>
      </trkpt>
      <trkpt lat="45.95216" lon="0.61229">
        <ele>216.8</ele>
        <time>2022-04-03T13:30:31Z</time>
      </trkpt>
      <trkpt lat="45.95219" lon="0.61221">
        <ele>216.6</ele>
        <time>2022-04-03T13:30:32Z</time>
      </trkpt>
      <trkpt lat="45.95222" lon="0.61212">
        <ele>216.6</ele>
        <time>2022-04-03T13:30:33Z</time>
      </trkpt>
      <trkpt lat="45.95224" lon="0.61204">
        <ele>216.6</ele>
        <time>2022-04-03T13:30:34Z</time>
      </trkpt>
      <trkpt lat="45.95227" lon="0.61196">
        <ele>216.6</ele>
        <time>2022-04-03T13:30:35Z</time>
      </trkpt>
      <trkpt lat="45.9523" lon="0.61189">
        <ele>216.4</ele>
        <time>2022-04-03T13:30:36Z</time>
      </trkpt>
      <trkpt lat="45.95233" lon="0.61181">
        <ele>216.6</ele>
        <time>2022-04-03T13:30:37Z</time>
      </trkpt>
      <trkpt lat="45.95236" lon="0.61174">
        <ele>216.4</ele>
        <time>2022-04-03T13:30:38Z</time>
      </trkpt>
      <trkpt lat="45.95239" lon="0.61168">
        <ele>216.6</ele>
        <time>2022-04-03T13:30:39Z</time>
      </trkpt>
      <trkpt lat="45.95243" lon="0.61161">
        <ele>216.4</ele>
        <time>2022-04-03T13:30:40Z</time>
      </trkpt>
      <trkpt lat="45.95246" lon="0.61155">
        <ele>216.4</ele>
        <time>2022-04-03T13:30:41Z</time>
      </trkpt>
      <trkpt lat="45.9525" lon="0.61149">
        <ele>216.8</ele>
        <time>2022-04-03T13:30:42Z</time>
      </trkpt>
      <trkpt lat="45.95254" lon="0.61144">
        <ele>216.8</ele>
        <time>2022-04-03T13:30:43Z</time>
      </trkpt>
      <trkpt lat="45.95258" lon="0.61139">
        <ele>217</ele>
        <time>2022-04-03T13:30:44Z</time>
      </trkpt>
      <trkpt lat="45.95262" lon="0.61134">
        <ele>217</ele>
        <time>2022-04-03T13:30:45Z</time>
      </trkpt>
      <trkpt lat="45.95266" lon="0.61129">
        <ele>217</ele>
        <time>2022-04-03T13:30:46Z</time>
      </trkpt>
      <trkpt lat="45.9527" lon="0.61124">
        <ele>217.6</ele>
        <time>2022-04-03T13:30:47Z</time>
      </trkpt>
      <trkpt lat="45.95273" lon="0.61119">
        <ele>217.8</ele>
        <time>2022-04-03T13:30:48Z</time>
      </trkpt>
      <trkpt lat="45.95277" lon="0.61115">
        <ele>217.8</ele>
        <time>2022-04-03T13:30:49Z</time>
      </trkpt>
      <trkpt lat="45.95281" lon="0.6111">
        <ele>218.2</ele>
        <time>2022-04-03T13:30:50Z</time>
      </trkpt>
      <trkpt lat="45.95285" lon="0.61106">
        <ele>218.4</ele>
        <time>2022-04-03T13:30:51Z</time>
      </trkpt>
      <trkpt lat="45.95289" lon="0.61103">
        <ele>218.4</ele>
        <time>2022-04-03T13:30:52Z</time>
      </trkpt>
      <trkpt lat="45.95292" lon="0.61099">
        <ele>218.4</ele>
        <time>2022-04-03T13:30:53Z</time>
      </trkpt>
      <trkpt lat="45.95296" lon="0.61096">
        <ele>218.8</ele>
        <time>2022-04-03T13:30:54Z</time>
      </trkpt>
      <trkpt lat="45.95299" lon="0.61092">
        <ele>218.8</ele>
        <time>2022-04-03T13:30:55Z</time>
      </trkpt>
      <trkpt lat="45.95303" lon="0.61089">
        <ele>219</ele>
        <time>2022-04-03T13:30:56Z</time>
      </trkpt>
      <trkpt lat="45.95307" lon="0.61086">
        <ele>219</ele>
        <time>2022-04-03T13:30:57Z</time>
      </trkpt>
      <trkpt lat="45.95311" lon="0.61083">
        <ele>219</ele>
        <time>2022-04-03T13:30:58Z</time>
      </trkpt>
      <trkpt lat="45.95315" lon="0.61081">
        <ele>219.4</ele>
        <time>2022-04-03T13:30:59Z</time>
      </trkpt>
      <trkpt lat="45.95319" lon="0.61078">
        <ele>219.6</ele>
        <time>2022-04-03T13:31:00Z</time>
      </trkpt>
      <trkpt lat="45.95323" lon="0.61075">
        <ele>219.6</ele>
        <time>2022-04-03T13:31:01Z</time>
      </trkpt>
      <trkpt lat="45.95327" lon="0.61073">
        <ele>219.8</ele>
        <time>2022-04-03T13:31:02Z</time>
      </trkpt>
      <trkpt lat="45.95331" lon="0.6107">
        <ele>219.8</ele>
        <time>2022-04-03T13:31:03Z</time>
      </trkpt>
      <trkpt lat="45.95335" lon="0.61067">
        <ele>220</ele>
        <time>2022-04-03T13:31:04Z</time>
      </trkpt>
      <trkpt lat="45.95339" lon="0.61064">
        <ele>220</ele>
        <time>2022-04-03T13:31:05Z</time>
      </trkpt>
      <trkpt lat="45.95344" lon="0.61062">
        <ele>220.2</ele>
        <time>2022-04-03T13:31:06Z</time>
      </trkpt>
      <trkpt lat="45.95348" lon="0.6106">
        <ele>220.4</ele>
        <time>2022-04-03T13:31:07Z</time>
      </trkpt>
      <trkpt lat="45.95352" lon="0.61058">
        <ele>220.6</ele>
        <time>2022-04-03T13:31:08Z</time>
      </trkpt>
      <trkpt lat="45.95356" lon="0.61056">
        <ele>220.6</ele>
        <time>2022-04-03T13:31:09Z</time>
      </trkpt>
      <trkpt lat="45.9536" lon="0.61054">
        <ele>220.6</ele>
        <time>2022-04-03T13:31:10Z</time>
      </trkpt>
      <trkpt lat="45.95364" lon="0.61052">
        <ele>220.6</ele>
        <time>2022-04-03T13:31:11Z</time>
      </trkpt>
      <trkpt lat="45.95369" lon="0.6105">
        <ele>220.6</ele>
        <time>2022-04-03T13:31:12Z</time>
      </trkpt>
      <trkpt lat="45.95373" lon="0.61048">
        <ele>220.8</ele>
        <time>2022-04-03T13:31:13Z</time>
      </trkpt>
      <trkpt lat="45.95377" lon="0.61045">
        <ele>220.8</ele>
        <time>2022-04-03T13:31:14Z</time>
      </trkpt>
      <trkpt lat="45.95381" lon="0.61043">
        <ele>220.8</ele>
        <time>2022-04-03T13:31:15Z</time>
      </trkpt>
      <trkpt lat="45.95386" lon="0.61042">
        <ele>220.8</ele>
        <time>2022-04-03T13:31:16Z</time>
      </trkpt>
      <trkpt lat="45.9539" lon="0.6104">
        <ele>220.8</ele>
        <time>2022-04-03T13:31:17Z</time>
      </trkpt>
      <trkpt lat="45.95394" lon="0.61038">
        <ele>220.8</ele>
        <time>2022-04-03T13:31:18Z</time>
      </trkpt>
      <trkpt lat="45.95399" lon="0.61035">
        <ele>221</ele>
        <time>2022-04-03T13:31:19Z</time>
      </trkpt>
      <trkpt lat="45.95403" lon="0.61033">
        <ele>221</ele>
        <time>2022-04-03T13:31:20Z</time>
      </trkpt>
      <trkpt lat="45.95407" lon="0.61031">
        <ele>220.8</ele>
        <time>2022-04-03T13:31:21Z</time>
      </trkpt>
      <trkpt lat="45.95411" lon="0.61029">
        <ele>221</ele>
        <time>2022-04-03T13:31:22Z</time>
      </trkpt>
      <trkpt lat="45.95415" lon="0.61027">
        <ele>221</ele>
        <time>2022-04-03T13:31:23Z</time>
      </trkpt>
      <trkpt lat="45.95419" lon="0.61025">
        <ele>221</ele>
        <time>2022-04-03T13:31:24Z</time>
      </trkpt>
      <trkpt lat="45.95424" lon="0.61022">
        <ele>221</ele>
        <time>2022-04-03T13:31:25Z</time>
      </trkpt>
      <trkpt lat="45.95428" lon="0.6102">
        <ele>221.4</ele>
        <time>2022-04-03T13:31:26Z</time>
      </trkpt>
      <trkpt lat="45.95432" lon="0.61018">
        <ele>221.4</ele>
        <time>2022-04-03T13:31:27Z</time>
      </trkpt>
      <trkpt lat="45.95436" lon="0.61016">
        <ele>221.8</ele>
        <time>2022-04-03T13:31:28Z</time>
      </trkpt>
      <trkpt lat="45.95441" lon="0.61014">
        <ele>222</ele>
        <time>2022-04-03T13:31:29Z</time>
      </trkpt>
      <trkpt lat="45.95445" lon="0.61012">
        <ele>222.2</ele>
        <time>2022-04-03T13:31:30Z</time>
      </trkpt>
      <trkpt lat="45.95449" lon="0.6101">
        <ele>222.4</ele>
        <time>2022-04-03T13:31:31Z</time>
      </trkpt>
      <trkpt lat="45.95453" lon="0.61008">
        <ele>222.6</ele>
        <time>2022-04-03T13:31:32Z</time>
      </trkpt>
      <trkpt lat="45.95457" lon="0.61006">
        <ele>222.6</ele>
        <time>2022-04-03T13:31:33Z</time>
      </trkpt>
      <trkpt lat="45.95461" lon="0.61003">
        <ele>222.6</ele>
        <time>2022-04-03T13:31:34Z</time>
      </trkpt>
      <trkpt lat="45.95466" lon="0.61001">
        <ele>222.8</ele>
        <time>2022-04-03T13:31:35Z</time>
      </trkpt>
      <trkpt lat="45.9547" lon="0.60999">
        <ele>222.8</ele>
        <time>2022-04-03T13:31:36Z</time>
      </trkpt>
      <trkpt lat="45.95474" lon="0.60997">
        <ele>222.8</ele>
        <time>2022-04-03T13:31:37Z</time>
      </trkpt>
      <trkpt lat="45.95479" lon="0.60995">
        <ele>222.8</ele>
        <time>2022-04-03T13:31:38Z</time>
      </trkpt>
      <trkpt lat="45.95483" lon="0.60993">
        <ele>222.8</ele>
        <time>2022-04-03T13:31:39Z</time>
      </trkpt>
      <trkpt lat="45.95487" lon="0.60991">
        <ele>222.8</ele>
        <time>2022-04-03T13:31:40Z</time>
      </trkpt>
      <trkpt lat="45.95491" lon="0.60989">
        <ele>222.8</ele>
        <time>2022-04-03T13:31:41Z</time>
      </trkpt>
      <trkpt lat="45.95495" lon="0.60987">
        <ele>222.8</ele>
        <time>2022-04-03T13:31:42Z</time>
      </trkpt>
      <trkpt lat="45.955" lon="0.60985">
        <ele>222.8</ele>
        <time>2022-04-03T13:31:43Z</time>
      </trkpt>
      <trkpt lat="45.95504" lon="0.60983">
        <ele>222.8</ele>
        <time>2022-04-03T13:31:44Z</time>
      </trkpt>
      <trkpt lat="45.95508" lon="0.60982">
        <ele>222.8</ele>
        <time>2022-04-03T13:31:45Z</time>
      </trkpt>
      <trkpt lat="45.95512" lon="0.6098">
        <ele>222.8</ele>
        <time>2022-04-03T13:31:46Z</time>
      </trkpt>
      <trkpt lat="45.95516" lon="0.60978">
        <ele>222.4</ele>
        <time>2022-04-03T13:31:47Z</time>
      </trkpt>
      <trkpt lat="45.9552" lon="0.60976">
        <ele>222.6</ele>
        <time>2022-04-03T13:31:48Z</time>
      </trkpt>
      <trkpt lat="45.95524" lon="0.60974">
        <ele>222.6</ele>
        <time>2022-04-03T13:31:49Z</time>
      </trkpt>
      <trkpt lat="45.95529" lon="0.60972">
        <ele>222.4</ele>
        <time>2022-04-03T13:31:50Z</time>
      </trkpt>
      <trkpt lat="45.95533" lon="0.6097">
        <ele>222.6</ele>
        <time>2022-04-03T13:31:51Z</time>
      </trkpt>
      <trkpt lat="45.95538" lon="0.60967">
        <ele>222.6</ele>
        <time>2022-04-03T13:31:52Z</time>
      </trkpt>
      <trkpt lat="45.95542" lon="0.60965">
        <ele>222.6</ele>
        <time>2022-04-03T13:31:53Z</time>
      </trkpt>
      <trkpt lat="45.95546" lon="0.60963">
        <ele>222.6</ele>
        <time>2022-04-03T13:31:54Z</time>
      </trkpt>
      <trkpt lat="45.95551" lon="0.60961">
        <ele>222.6</ele>
        <time>2022-04-03T13:31:55Z</time>
      </trkpt>
      <trkpt lat="45.95556" lon="0.60959">
        <ele>222.6</ele>
        <time>2022-04-03T13:31:56Z</time>
      </trkpt>
      <trkpt lat="45.9556" lon="0.60957">
        <ele>222.4</ele>
        <time>2022-04-03T13:31:57Z</time>
      </trkpt>
      <trkpt lat="45.95565" lon="0.60955">
        <ele>222.4</ele>
        <time>2022-04-03T13:31:58Z</time>
      </trkpt>
      <trkpt lat="45.95569" lon="0.60953">
        <ele>222.4</ele>
        <time>2022-04-03T13:31:59Z</time>
      </trkpt>
      <trkpt lat="45.95574" lon="0.6095">
        <ele>222.4</ele>
        <time>2022-04-03T13:32:00Z</time>
      </trkpt>
      <trkpt lat="45.95578" lon="0.60948">
        <ele>222.6</ele>
        <time>2022-04-03T13:32:01Z</time>
      </trkpt>
      <trkpt lat="45.95583" lon="0.60946">
        <ele>222.6</ele>
        <time>2022-04-03T13:32:02Z</time>
      </trkpt>
      <trkpt lat="45.95587" lon="0.60944">
        <ele>222.6</ele>
        <time>2022-04-03T13:32:03Z</time>
      </trkpt>
      <trkpt lat="45.95591" lon="0.60941">
        <ele>222.6</ele>
        <time>2022-04-03T13:32:04Z</time>
      </trkpt>
      <trkpt lat="45.95596" lon="0.60939">
        <ele>222.6</ele>
        <time>2022-04-03T13:32:05Z</time>
      </trkpt>
      <trkpt lat="45.956" lon="0.60937">
        <ele>222.8</ele>
        <time>2022-04-03T13:32:06Z</time>
      </trkpt>
      <trkpt lat="45.95605" lon="0.60935">
        <ele>222.8</ele>
        <time>2022-04-03T13:32:07Z</time>
      </trkpt>
      <trkpt lat="45.95609" lon="0.60932">
        <ele>222.8</ele>
        <time>2022-04-03T13:32:08Z</time>
      </trkpt>
      <trkpt lat="45.95613" lon="0.6093">
        <ele>222.8</ele>
        <time>2022-04-03T13:32:09Z</time>
      </trkpt>
      <trkpt lat="45.95617" lon="0.60928">
        <ele>222.8</ele>
        <time>2022-04-03T13:32:10Z</time>
      </trkpt>
      <trkpt lat="45.95622" lon="0.60925">
        <ele>222.8</ele>
        <time>2022-04-03T13:32:11Z</time>
      </trkpt>
      <trkpt lat="45.95626" lon="0.60922">
        <ele>222.6</ele>
        <time>2022-04-03T13:32:12Z</time>
      </trkpt>
      <trkpt lat="45.9563" lon="0.6092">
        <ele>222.6</ele>
        <time>2022-04-03T13:32:13Z</time>
      </trkpt>
      <trkpt lat="45.95634" lon="0.60917">
        <ele>222.6</ele>
        <time>2022-04-03T13:32:14Z</time>
      </trkpt>
      <trkpt lat="45.95638" lon="0.60914">
        <ele>222.6</ele>
        <time>2022-04-03T13:32:15Z</time>
      </trkpt>
      <trkpt lat="45.95642" lon="0.60912">
        <ele>222.6</ele>
        <time>2022-04-03T13:32:16Z</time>
      </trkpt>
      <trkpt lat="45.95646" lon="0.60909">
        <ele>222.8</ele>
        <time>2022-04-03T13:32:17Z</time>
      </trkpt>
      <trkpt lat="45.9565" lon="0.60907">
        <ele>222.6</ele>
        <time>2022-04-03T13:32:18Z</time>
      </trkpt>
      <trkpt lat="45.95654" lon="0.60904">
        <ele>222.6</ele>
        <time>2022-04-03T13:32:19Z</time>
      </trkpt>
      <trkpt lat="45.95658" lon="0.60901">
        <ele>222.6</ele>
        <time>2022-04-03T13:32:20Z</time>
      </trkpt>
      <trkpt lat="45.95662" lon="0.60898">
        <ele>222.6</ele>
        <time>2022-04-03T13:32:21Z</time>
      </trkpt>
      <trkpt lat="45.95666" lon="0.60895">
        <ele>222.4</ele>
        <time>2022-04-03T13:32:22Z</time>
      </trkpt>
      <trkpt lat="45.9567" lon="0.60893">
        <ele>222.4</ele>
        <time>2022-04-03T13:32:23Z</time>
      </trkpt>
      <trkpt lat="45.95674" lon="0.6089">
        <ele>222.6</ele>
        <time>2022-04-03T13:32:24Z</time>
      </trkpt>
      <trkpt lat="45.95679" lon="0.60887">
        <ele>222.6</ele>
        <time>2022-04-03T13:32:25Z</time>
      </trkpt>
      <trkpt lat="45.95683" lon="0.60884">
        <ele>222.6</ele>
        <time>2022-04-03T13:32:26Z</time>
      </trkpt>
      <trkpt lat="45.95687" lon="0.60882">
        <ele>222.4</ele>
        <time>2022-04-03T13:32:27Z</time>
      </trkpt>
      <trkpt lat="45.95691" lon="0.60879">
        <ele>222.4</ele>
        <time>2022-04-03T13:32:28Z</time>
      </trkpt>
      <trkpt lat="45.95695" lon="0.60876">
        <ele>222.6</ele>
        <time>2022-04-03T13:32:29Z</time>
      </trkpt>
      <trkpt lat="45.95699" lon="0.60874">
        <ele>222.4</ele>
        <time>2022-04-03T13:32:30Z</time>
      </trkpt>
      <trkpt lat="45.95704" lon="0.60871">
        <ele>222.6</ele>
        <time>2022-04-03T13:32:31Z</time>
      </trkpt>
      <trkpt lat="45.95708" lon="0.60868">
        <ele>222.6</ele>
        <time>2022-04-03T13:32:32Z</time>
      </trkpt>
      <trkpt lat="45.95712" lon="0.60866">
        <ele>222.8</ele>
        <time>2022-04-03T13:32:33Z</time>
      </trkpt>
      <trkpt lat="45.95716" lon="0.60863">
        <ele>223</ele>
        <time>2022-04-03T13:32:34Z</time>
      </trkpt>
      <trkpt lat="45.9572" lon="0.6086">
        <ele>223</ele>
        <time>2022-04-03T13:32:35Z</time>
      </trkpt>
      <trkpt lat="45.95724" lon="0.60857">
        <ele>223.2</ele>
        <time>2022-04-03T13:32:36Z</time>
      </trkpt>
      <trkpt lat="45.95728" lon="0.60854">
        <ele>223.4</ele>
        <time>2022-04-03T13:32:37Z</time>
      </trkpt>
      <trkpt lat="45.95732" lon="0.60851">
        <ele>223.4</ele>
        <time>2022-04-03T13:32:38Z</time>
      </trkpt>
      <trkpt lat="45.95736" lon="0.60848">
        <ele>223.4</ele>
        <time>2022-04-03T13:32:39Z</time>
      </trkpt>
      <trkpt lat="45.9574" lon="0.60845">
        <ele>223.4</ele>
        <time>2022-04-03T13:32:40Z</time>
      </trkpt>
      <trkpt lat="45.95744" lon="0.60842">
        <ele>223.4</ele>
        <time>2022-04-03T13:32:41Z</time>
      </trkpt>
      <trkpt lat="45.95747" lon="0.60838">
        <ele>223.6</ele>
        <time>2022-04-03T13:32:42Z</time>
      </trkpt>
      <trkpt lat="45.95751" lon="0.60834">
        <ele>223.6</ele>
        <time>2022-04-03T13:32:43Z</time>
      </trkpt>
      <trkpt lat="45.95755" lon="0.6083">
        <ele>223.6</ele>
        <time>2022-04-03T13:32:44Z</time>
      </trkpt>
      <trkpt lat="45.95758" lon="0.60826">
        <ele>223.8</ele>
        <time>2022-04-03T13:32:45Z</time>
      </trkpt>
      <trkpt lat="45.95761" lon="0.60821">
        <ele>223.8</ele>
        <time>2022-04-03T13:32:46Z</time>
      </trkpt>
      <trkpt lat="45.95765" lon="0.60816">
        <ele>223.8</ele>
        <time>2022-04-03T13:32:47Z</time>
      </trkpt>
      <trkpt lat="45.95768" lon="0.60811">
        <ele>223.8</ele>
        <time>2022-04-03T13:32:48Z</time>
      </trkpt>
      <trkpt lat="45.95771" lon="0.60806">
        <ele>224</ele>
        <time>2022-04-03T13:32:49Z</time>
      </trkpt>
      <trkpt lat="45.95774" lon="0.60801">
        <ele>224.2</ele>
        <time>2022-04-03T13:32:50Z</time>
      </trkpt>
      <trkpt lat="45.95777" lon="0.60795">
        <ele>224.2</ele>
        <time>2022-04-03T13:32:51Z</time>
      </trkpt>
      <trkpt lat="45.9578" lon="0.6079">
        <ele>224.6</ele>
        <time>2022-04-03T13:32:52Z</time>
      </trkpt>
      <trkpt lat="45.95782" lon="0.60785">
        <ele>224.6</ele>
        <time>2022-04-03T13:32:53Z</time>
      </trkpt>
      <trkpt lat="45.95785" lon="0.60779">
        <ele>224.8</ele>
        <time>2022-04-03T13:32:54Z</time>
      </trkpt>
      <trkpt lat="45.95788" lon="0.60773">
        <ele>224.8</ele>
        <time>2022-04-03T13:32:55Z</time>
      </trkpt>
      <trkpt lat="45.95791" lon="0.60768">
        <ele>224.8</ele>
        <time>2022-04-03T13:32:56Z</time>
      </trkpt>
      <trkpt lat="45.95794" lon="0.60762">
        <ele>225</ele>
        <time>2022-04-03T13:32:57Z</time>
      </trkpt>
      <trkpt lat="45.95796" lon="0.60756">
        <ele>224.8</ele>
        <time>2022-04-03T13:32:58Z</time>
      </trkpt>
      <trkpt lat="45.95799" lon="0.60751">
        <ele>224.8</ele>
        <time>2022-04-03T13:32:59Z</time>
      </trkpt>
      <trkpt lat="45.95802" lon="0.60745">
        <ele>224.8</ele>
        <time>2022-04-03T13:33:00Z</time>
      </trkpt>
      <trkpt lat="45.95805" lon="0.60739">
        <ele>225</ele>
        <time>2022-04-03T13:33:01Z</time>
      </trkpt>
      <trkpt lat="45.95808" lon="0.60734">
        <ele>225</ele>
        <time>2022-04-03T13:33:02Z</time>
      </trkpt>
      <trkpt lat="45.95811" lon="0.60729">
        <ele>225.2</ele>
        <time>2022-04-03T13:33:03Z</time>
      </trkpt>
      <trkpt lat="45.95813" lon="0.60723">
        <ele>225</ele>
        <time>2022-04-03T13:33:04Z</time>
      </trkpt>
      <trkpt lat="45.95816" lon="0.60717">
        <ele>225</ele>
        <time>2022-04-03T13:33:05Z</time>
      </trkpt>
      <trkpt lat="45.95819" lon="0.60712">
        <ele>225</ele>
        <time>2022-04-03T13:33:06Z</time>
      </trkpt>
      <trkpt lat="45.95821" lon="0.60706">
        <ele>225</ele>
        <time>2022-04-03T13:33:07Z</time>
      </trkpt>
      <trkpt lat="45.95824" lon="0.607">
        <ele>225</ele>
        <time>2022-04-03T13:33:08Z</time>
      </trkpt>
      <trkpt lat="45.95827" lon="0.60695">
        <ele>225.2</ele>
        <time>2022-04-03T13:33:09Z</time>
      </trkpt>
      <trkpt lat="45.9583" lon="0.60689">
        <ele>225</ele>
        <time>2022-04-03T13:33:10Z</time>
      </trkpt>
      <trkpt lat="45.95833" lon="0.60683">
        <ele>225.2</ele>
        <time>2022-04-03T13:33:11Z</time>
      </trkpt>
      <trkpt lat="45.95835" lon="0.60678">
        <ele>225.2</ele>
        <time>2022-04-03T13:33:12Z</time>
      </trkpt>
      <trkpt lat="45.95838" lon="0.60672">
        <ele>225.2</ele>
        <time>2022-04-03T13:33:13Z</time>
      </trkpt>
      <trkpt lat="45.95841" lon="0.60666">
        <ele>225.2</ele>
        <time>2022-04-03T13:33:14Z</time>
      </trkpt>
      <trkpt lat="45.95844" lon="0.6066">
        <ele>225</ele>
        <time>2022-04-03T13:33:15Z</time>
      </trkpt>
      <trkpt lat="45.95847" lon="0.60655">
        <ele>225.4</ele>
        <time>2022-04-03T13:33:16Z</time>
      </trkpt>
      <trkpt lat="45.9585" lon="0.60649">
        <ele>225.4</ele>
        <time>2022-04-03T13:33:17Z</time>
      </trkpt>
      <trkpt lat="45.95853" lon="0.60643">
        <ele>225.4</ele>
        <time>2022-04-03T13:33:18Z</time>
      </trkpt>
      <trkpt lat="45.95856" lon="0.60638">
        <ele>225.6</ele>
        <time>2022-04-03T13:33:19Z</time>
      </trkpt>
      <trkpt lat="45.95859" lon="0.60632">
        <ele>225.4</ele>
        <time>2022-04-03T13:33:20Z</time>
      </trkpt>
      <trkpt lat="45.95862" lon="0.60627">
        <ele>225.6</ele>
        <time>2022-04-03T13:33:21Z</time>
      </trkpt>
      <trkpt lat="45.95865" lon="0.60621">
        <ele>225.6</ele>
        <time>2022-04-03T13:33:22Z</time>
      </trkpt>
      <trkpt lat="45.95867" lon="0.60614">
        <ele>225.6</ele>
        <time>2022-04-03T13:33:23Z</time>
      </trkpt>
      <trkpt lat="45.9587" lon="0.60608">
        <ele>225.8</ele>
        <time>2022-04-03T13:33:24Z</time>
      </trkpt>
      <trkpt lat="45.95874" lon="0.60602">
        <ele>226</ele>
        <time>2022-04-03T13:33:25Z</time>
      </trkpt>
      <trkpt lat="45.95877" lon="0.60595">
        <ele>226</ele>
        <time>2022-04-03T13:33:26Z</time>
      </trkpt>
      <trkpt lat="45.95881" lon="0.60588">
        <ele>226</ele>
        <time>2022-04-03T13:33:27Z</time>
      </trkpt>
      <trkpt lat="45.95884" lon="0.60581">
        <ele>226</ele>
        <time>2022-04-03T13:33:28Z</time>
      </trkpt>
      <trkpt lat="45.95888" lon="0.60574">
        <ele>225.8</ele>
        <time>2022-04-03T13:33:29Z</time>
      </trkpt>
      <trkpt lat="45.95891" lon="0.60567">
        <ele>225.8</ele>
        <time>2022-04-03T13:33:30Z</time>
      </trkpt>
      <trkpt lat="45.95895" lon="0.6056">
        <ele>225.8</ele>
        <time>2022-04-03T13:33:31Z</time>
      </trkpt>
      <trkpt lat="45.95899" lon="0.60552">
        <ele>225.8</ele>
        <time>2022-04-03T13:33:32Z</time>
      </trkpt>
      <trkpt lat="45.95903" lon="0.60545">
        <ele>225.8</ele>
        <time>2022-04-03T13:33:33Z</time>
      </trkpt>
      <trkpt lat="45.95906" lon="0.60537">
        <ele>225.8</ele>
        <time>2022-04-03T13:33:34Z</time>
      </trkpt>
      <trkpt lat="45.9591" lon="0.60529">
        <ele>225.6</ele>
        <time>2022-04-03T13:33:35Z</time>
      </trkpt>
      <trkpt lat="45.95914" lon="0.60522">
        <ele>225.4</ele>
        <time>2022-04-03T13:33:36Z</time>
      </trkpt>
      <trkpt lat="45.95918" lon="0.60514">
        <ele>225.4</ele>
        <time>2022-04-03T13:33:37Z</time>
      </trkpt>
      <trkpt lat="45.95922" lon="0.60506">
        <ele>225</ele>
        <time>2022-04-03T13:33:38Z</time>
      </trkpt>
      <trkpt lat="45.95926" lon="0.60498">
        <ele>224.8</ele>
        <time>2022-04-03T13:33:39Z</time>
      </trkpt>
      <trkpt lat="45.9593" lon="0.6049">
        <ele>224.6</ele>
        <time>2022-04-03T13:33:40Z</time>
      </trkpt>
      <trkpt lat="45.95934" lon="0.60483">
        <ele>224.2</ele>
        <time>2022-04-03T13:33:41Z</time>
      </trkpt>
      <trkpt lat="45.95937" lon="0.60475">
        <ele>224</ele>
        <time>2022-04-03T13:33:42Z</time>
      </trkpt>
      <trkpt lat="45.95941" lon="0.60468">
        <ele>223.6</ele>
        <time>2022-04-03T13:33:43Z</time>
      </trkpt>
      <trkpt lat="45.95945" lon="0.60461">
        <ele>223.2</ele>
        <time>2022-04-03T13:33:44Z</time>
      </trkpt>
      <trkpt lat="45.95948" lon="0.60454">
        <ele>223</ele>
        <time>2022-04-03T13:33:45Z</time>
      </trkpt>
      <trkpt lat="45.95951" lon="0.60447">
        <ele>222.4</ele>
        <time>2022-04-03T13:33:46Z</time>
      </trkpt>
      <trkpt lat="45.95955" lon="0.6044">
        <ele>222.4</ele>
        <time>2022-04-03T13:33:47Z</time>
      </trkpt>
      <trkpt lat="45.95958" lon="0.60433">
        <ele>222.2</ele>
        <time>2022-04-03T13:33:48Z</time>
      </trkpt>
      <trkpt lat="45.95962" lon="0.60426">
        <ele>222</ele>
        <time>2022-04-03T13:33:49Z</time>
      </trkpt>
      <trkpt lat="45.95965" lon="0.60419">
        <ele>222</ele>
        <time>2022-04-03T13:33:50Z</time>
      </trkpt>
      <trkpt lat="45.95969" lon="0.60412">
        <ele>222</ele>
        <time>2022-04-03T13:33:51Z</time>
      </trkpt>
      <trkpt lat="45.95972" lon="0.60405">
        <ele>222</ele>
        <time>2022-04-03T13:33:52Z</time>
      </trkpt>
      <trkpt lat="45.95976" lon="0.60398">
        <ele>221.8</ele>
        <time>2022-04-03T13:33:53Z</time>
      </trkpt>
      <trkpt lat="45.9598" lon="0.60391">
        <ele>221.8</ele>
        <time>2022-04-03T13:33:54Z</time>
      </trkpt>
      <trkpt lat="45.95983" lon="0.60385">
        <ele>222</ele>
        <time>2022-04-03T13:33:55Z</time>
      </trkpt>
      <trkpt lat="45.95986" lon="0.60378">
        <ele>222</ele>
        <time>2022-04-03T13:33:56Z</time>
      </trkpt>
      <trkpt lat="45.95989" lon="0.60371">
        <ele>221.8</ele>
        <time>2022-04-03T13:33:57Z</time>
      </trkpt>
      <trkpt lat="45.95993" lon="0.60365">
        <ele>221.8</ele>
        <time>2022-04-03T13:33:58Z</time>
      </trkpt>
      <trkpt lat="45.95996" lon="0.60358">
        <ele>221.8</ele>
        <time>2022-04-03T13:33:59Z</time>
      </trkpt>
      <trkpt lat="45.95999" lon="0.60352">
        <ele>222</ele>
        <time>2022-04-03T13:34:00Z</time>
      </trkpt>
      <trkpt lat="45.96002" lon="0.60345">
        <ele>222</ele>
        <time>2022-04-03T13:34:01Z</time>
      </trkpt>
      <trkpt lat="45.96005" lon="0.60338">
        <ele>222</ele>
        <time>2022-04-03T13:34:02Z</time>
      </trkpt>
      <trkpt lat="45.96009" lon="0.60331">
        <ele>222</ele>
        <time>2022-04-03T13:34:03Z</time>
      </trkpt>
      <trkpt lat="45.96013" lon="0.60324">
        <ele>222</ele>
        <time>2022-04-03T13:34:04Z</time>
      </trkpt>
      <trkpt lat="45.96016" lon="0.60317">
        <ele>222</ele>
        <time>2022-04-03T13:34:05Z</time>
      </trkpt>
      <trkpt lat="45.9602" lon="0.60309">
        <ele>221.8</ele>
        <time>2022-04-03T13:34:06Z</time>
      </trkpt>
      <trkpt lat="45.96024" lon="0.603">
        <ele>221.8</ele>
        <time>2022-04-03T13:34:07Z</time>
      </trkpt>
      <trkpt lat="45.96028" lon="0.60292">
        <ele>221.8</ele>
        <time>2022-04-03T13:34:08Z</time>
      </trkpt>
      <trkpt lat="45.96033" lon="0.60283">
        <ele>221.6</ele>
        <time>2022-04-03T13:34:09Z</time>
      </trkpt>
      <trkpt lat="45.96037" lon="0.60274">
        <ele>221.4</ele>
        <time>2022-04-03T13:34:10Z</time>
      </trkpt>
      <trkpt lat="45.96042" lon="0.60265">
        <ele>221</ele>
        <time>2022-04-03T13:34:11Z</time>
      </trkpt>
      <trkpt lat="45.96047" lon="0.60256">
        <ele>220.6</ele>
        <time>2022-04-03T13:34:12Z</time>
      </trkpt>
      <trkpt lat="45.96053" lon="0.60247">
        <ele>219.8</ele>
        <time>2022-04-03T13:34:13Z</time>
      </trkpt>
      <trkpt lat="45.96059" lon="0.60239">
        <ele>219.2</ele>
        <time>2022-04-03T13:34:14Z</time>
      </trkpt>
      <trkpt lat="45.96065" lon="0.60231">
        <ele>219.2</ele>
        <time>2022-04-03T13:34:15Z</time>
      </trkpt>
      <trkpt lat="45.96071" lon="0.60224">
        <ele>219.2</ele>
        <time>2022-04-03T13:34:16Z</time>
      </trkpt>
      <trkpt lat="45.96078" lon="0.60217">
        <ele>218.8</ele>
        <time>2022-04-03T13:34:17Z</time>
      </trkpt>
      <trkpt lat="45.96084" lon="0.6021">
        <ele>218.4</ele>
        <time>2022-04-03T13:34:18Z</time>
      </trkpt>
      <trkpt lat="45.9609" lon="0.60203">
        <ele>218.2</ele>
        <time>2022-04-03T13:34:19Z</time>
      </trkpt>
      <trkpt lat="45.96097" lon="0.60196">
        <ele>217.6</ele>
        <time>2022-04-03T13:34:20Z</time>
      </trkpt>
      <trkpt lat="45.96103" lon="0.60189">
        <ele>217.2</ele>
        <time>2022-04-03T13:34:21Z</time>
      </trkpt>
      <trkpt lat="45.96109" lon="0.60182">
        <ele>216.4</ele>
        <time>2022-04-03T13:34:22Z</time>
      </trkpt>
      <trkpt lat="45.96116" lon="0.60176">
        <ele>216</ele>
        <time>2022-04-03T13:34:23Z</time>
      </trkpt>
      <trkpt lat="45.96122" lon="0.60169">
        <ele>215.8</ele>
        <time>2022-04-03T13:34:24Z</time>
      </trkpt>
      <trkpt lat="45.96128" lon="0.60162">
        <ele>215.8</ele>
        <time>2022-04-03T13:34:25Z</time>
      </trkpt>
      <trkpt lat="45.96135" lon="0.60156">
        <ele>215.6</ele>
        <time>2022-04-03T13:34:26Z</time>
      </trkpt>
      <trkpt lat="45.96141" lon="0.60149">
        <ele>215.2</ele>
        <time>2022-04-03T13:34:27Z</time>
      </trkpt>
      <trkpt lat="45.96147" lon="0.60143">
        <ele>214.4</ele>
        <time>2022-04-03T13:34:28Z</time>
      </trkpt>
      <trkpt lat="45.96153" lon="0.60136">
        <ele>214.2</ele>
        <time>2022-04-03T13:34:29Z</time>
      </trkpt>
      <trkpt lat="45.96159" lon="0.6013">
        <ele>214</ele>
        <time>2022-04-03T13:34:30Z</time>
      </trkpt>
      <trkpt lat="45.96165" lon="0.60124">
        <ele>214</ele>
        <time>2022-04-03T13:34:31Z</time>
      </trkpt>
      <trkpt lat="45.9617" lon="0.60118">
        <ele>213.8</ele>
        <time>2022-04-03T13:34:32Z</time>
      </trkpt>
      <trkpt lat="45.96176" lon="0.60113">
        <ele>213.6</ele>
        <time>2022-04-03T13:34:33Z</time>
      </trkpt>
      <trkpt lat="45.96181" lon="0.60107">
        <ele>213.6</ele>
        <time>2022-04-03T13:34:34Z</time>
      </trkpt>
      <trkpt lat="45.96186" lon="0.60102">
        <ele>213.4</ele>
        <time>2022-04-03T13:34:35Z</time>
      </trkpt>
      <trkpt lat="45.96191" lon="0.60096">
        <ele>213</ele>
        <time>2022-04-03T13:34:36Z</time>
      </trkpt>
      <trkpt lat="45.96196" lon="0.6009">
        <ele>213</ele>
        <time>2022-04-03T13:34:37Z</time>
      </trkpt>
      <trkpt lat="45.96201" lon="0.60085">
        <ele>212.8</ele>
        <time>2022-04-03T13:34:38Z</time>
      </trkpt>
      <trkpt lat="45.96206" lon="0.60079">
        <ele>212.8</ele>
        <time>2022-04-03T13:34:39Z</time>
      </trkpt>
      <trkpt lat="45.9621" lon="0.60074">
        <ele>212.8</ele>
        <time>2022-04-03T13:34:40Z</time>
      </trkpt>
      <trkpt lat="45.96215" lon="0.60068">
        <ele>212.6</ele>
        <time>2022-04-03T13:34:41Z</time>
      </trkpt>
      <trkpt lat="45.96219" lon="0.60062">
        <ele>212.4</ele>
        <time>2022-04-03T13:34:42Z</time>
      </trkpt>
      <trkpt lat="45.96224" lon="0.60056">
        <ele>212.4</ele>
        <time>2022-04-03T13:34:43Z</time>
      </trkpt>
      <trkpt lat="45.96228" lon="0.6005">
        <ele>212.2</ele>
        <time>2022-04-03T13:34:44Z</time>
      </trkpt>
      <trkpt lat="45.96232" lon="0.60045">
        <ele>212</ele>
        <time>2022-04-03T13:34:45Z</time>
      </trkpt>
      <trkpt lat="45.96236" lon="0.60039">
        <ele>212</ele>
        <time>2022-04-03T13:34:46Z</time>
      </trkpt>
      <trkpt lat="45.96241" lon="0.60033">
        <ele>211.8</ele>
        <time>2022-04-03T13:34:47Z</time>
      </trkpt>
      <trkpt lat="45.96245" lon="0.60027">
        <ele>211.8</ele>
        <time>2022-04-03T13:34:48Z</time>
      </trkpt>
      <trkpt lat="45.96249" lon="0.60021">
        <ele>212</ele>
        <time>2022-04-03T13:34:49Z</time>
      </trkpt>
      <trkpt lat="45.96253" lon="0.60014">
        <ele>211.8</ele>
        <time>2022-04-03T13:34:50Z</time>
      </trkpt>
      <trkpt lat="45.96257" lon="0.60008">
        <ele>211.4</ele>
        <time>2022-04-03T13:34:51Z</time>
      </trkpt>
      <trkpt lat="45.96262" lon="0.60002">
        <ele>211.4</ele>
        <time>2022-04-03T13:34:52Z</time>
      </trkpt>
      <trkpt lat="45.96266" lon="0.59996">
        <ele>211.4</ele>
        <time>2022-04-03T13:34:53Z</time>
      </trkpt>
      <trkpt lat="45.96271" lon="0.59989">
        <ele>211.4</ele>
        <time>2022-04-03T13:34:54Z</time>
      </trkpt>
      <trkpt lat="45.96275" lon="0.59982">
        <ele>211.4</ele>
        <time>2022-04-03T13:34:55Z</time>
      </trkpt>
      <trkpt lat="45.9628" lon="0.59976">
        <ele>211.2</ele>
        <time>2022-04-03T13:34:56Z</time>
      </trkpt>
      <trkpt lat="45.96285" lon="0.59969">
        <ele>211.2</ele>
        <time>2022-04-03T13:34:57Z</time>
      </trkpt>
      <trkpt lat="45.96289" lon="0.59962">
        <ele>211.2</ele>
        <time>2022-04-03T13:34:58Z</time>
      </trkpt>
      <trkpt lat="45.96294" lon="0.59955">
        <ele>211</ele>
        <time>2022-04-03T13:34:59Z</time>
      </trkpt>
      <trkpt lat="45.96298" lon="0.59948">
        <ele>211</ele>
        <time>2022-04-03T13:35:00Z</time>
      </trkpt>
      <trkpt lat="45.96303" lon="0.59942">
        <ele>210.6</ele>
        <time>2022-04-03T13:35:01Z</time>
      </trkpt>
      <trkpt lat="45.96307" lon="0.59935">
        <ele>210.4</ele>
        <time>2022-04-03T13:35:02Z</time>
      </trkpt>
      <trkpt lat="45.96312" lon="0.59928">
        <ele>210.2</ele>
        <time>2022-04-03T13:35:03Z</time>
      </trkpt>
      <trkpt lat="45.96316" lon="0.59922">
        <ele>209.8</ele>
        <time>2022-04-03T13:35:04Z</time>
      </trkpt>
      <trkpt lat="45.96321" lon="0.59915">
        <ele>209.8</ele>
        <time>2022-04-03T13:35:05Z</time>
      </trkpt>
      <trkpt lat="45.96325" lon="0.59909">
        <ele>209.4</ele>
        <time>2022-04-03T13:35:06Z</time>
      </trkpt>
      <trkpt lat="45.96329" lon="0.59903">
        <ele>209.2</ele>
        <time>2022-04-03T13:35:07Z</time>
      </trkpt>
      <trkpt lat="45.96333" lon="0.59896">
        <ele>209.2</ele>
        <time>2022-04-03T13:35:08Z</time>
      </trkpt>
      <trkpt lat="45.96338" lon="0.5989">
        <ele>209.2</ele>
        <time>2022-04-03T13:35:09Z</time>
      </trkpt>
      <trkpt lat="45.96342" lon="0.59884">
        <ele>209</ele>
        <time>2022-04-03T13:35:10Z</time>
      </trkpt>
      <trkpt lat="45.96346" lon="0.59878">
        <ele>209</ele>
        <time>2022-04-03T13:35:11Z</time>
      </trkpt>
      <trkpt lat="45.9635" lon="0.59873">
        <ele>209</ele>
        <time>2022-04-03T13:35:12Z</time>
      </trkpt>
      <trkpt lat="45.96353" lon="0.59867">
        <ele>208.8</ele>
        <time>2022-04-03T13:35:13Z</time>
      </trkpt>
      <trkpt lat="45.96357" lon="0.59862">
        <ele>208.6</ele>
        <time>2022-04-03T13:35:14Z</time>
      </trkpt>
      <trkpt lat="45.96361" lon="0.59856">
        <ele>208.4</ele>
        <time>2022-04-03T13:35:15Z</time>
      </trkpt>
      <trkpt lat="45.96364" lon="0.5985">
        <ele>208.2</ele>
        <time>2022-04-03T13:35:16Z</time>
      </trkpt>
      <trkpt lat="45.96368" lon="0.59844">
        <ele>208</ele>
        <time>2022-04-03T13:35:17Z</time>
      </trkpt>
      <trkpt lat="45.96372" lon="0.59838">
        <ele>208</ele>
        <time>2022-04-03T13:35:18Z</time>
      </trkpt>
      <trkpt lat="45.96376" lon="0.59832">
        <ele>207.8</ele>
        <time>2022-04-03T13:35:19Z</time>
      </trkpt>
      <trkpt lat="45.9638" lon="0.59826">
        <ele>207.8</ele>
        <time>2022-04-03T13:35:20Z</time>
      </trkpt>
      <trkpt lat="45.96384" lon="0.5982">
        <ele>207.8</ele>
        <time>2022-04-03T13:35:21Z</time>
      </trkpt>
      <trkpt lat="45.96388" lon="0.59814">
        <ele>207.6</ele>
        <time>2022-04-03T13:35:22Z</time>
      </trkpt>
      <trkpt lat="45.96393" lon="0.59807">
        <ele>207.6</ele>
        <time>2022-04-03T13:35:23Z</time>
      </trkpt>
      <trkpt lat="45.96397" lon="0.59801">
        <ele>207.4</ele>
        <time>2022-04-03T13:35:24Z</time>
      </trkpt>
      <trkpt lat="45.96402" lon="0.59794">
        <ele>207.2</ele>
        <time>2022-04-03T13:35:25Z</time>
      </trkpt>
      <trkpt lat="45.96406" lon="0.59787">
        <ele>207</ele>
        <time>2022-04-03T13:35:26Z</time>
      </trkpt>
      <trkpt lat="45.96411" lon="0.5978">
        <ele>207</ele>
        <time>2022-04-03T13:35:27Z</time>
      </trkpt>
      <trkpt lat="45.96416" lon="0.59772">
        <ele>207</ele>
        <time>2022-04-03T13:35:28Z</time>
      </trkpt>
      <trkpt lat="45.96421" lon="0.59765">
        <ele>207</ele>
        <time>2022-04-03T13:35:29Z</time>
      </trkpt>
      <trkpt lat="45.96426" lon="0.59758">
        <ele>206.8</ele>
        <time>2022-04-03T13:35:30Z</time>
      </trkpt>
      <trkpt lat="45.96431" lon="0.5975">
        <ele>206.8</ele>
        <time>2022-04-03T13:35:31Z</time>
      </trkpt>
      <trkpt lat="45.96436" lon="0.59742">
        <ele>207</ele>
        <time>2022-04-03T13:35:32Z</time>
      </trkpt>
      <trkpt lat="45.96441" lon="0.59734">
        <ele>206.8</ele>
        <time>2022-04-03T13:35:33Z</time>
      </trkpt>
      <trkpt lat="45.96447" lon="0.59726">
        <ele>206.8</ele>
        <time>2022-04-03T13:35:34Z</time>
      </trkpt>
      <trkpt lat="45.96452" lon="0.59718">
        <ele>206.2</ele>
        <time>2022-04-03T13:35:35Z</time>
      </trkpt>
      <trkpt lat="45.96457" lon="0.5971">
        <ele>205.6</ele>
        <time>2022-04-03T13:35:36Z</time>
      </trkpt>
      <trkpt lat="45.96463" lon="0.59702">
        <ele>205.2</ele>
        <time>2022-04-03T13:35:37Z</time>
      </trkpt>
      <trkpt lat="45.96468" lon="0.59693">
        <ele>204.8</ele>
        <time>2022-04-03T13:35:38Z</time>
      </trkpt>
      <trkpt lat="45.96473" lon="0.59685">
        <ele>204.4</ele>
        <time>2022-04-03T13:35:39Z</time>
      </trkpt>
      <trkpt lat="45.96479" lon="0.59677">
        <ele>204</ele>
        <time>2022-04-03T13:35:40Z</time>
      </trkpt>
      <trkpt lat="45.96484" lon="0.59668">
        <ele>203.8</ele>
        <time>2022-04-03T13:35:41Z</time>
      </trkpt>
      <trkpt lat="45.9649" lon="0.5966">
        <ele>203.4</ele>
        <time>2022-04-03T13:35:42Z</time>
      </trkpt>
      <trkpt lat="45.96496" lon="0.59652">
        <ele>202.8</ele>
        <time>2022-04-03T13:35:43Z</time>
      </trkpt>
      <trkpt lat="45.96502" lon="0.59644">
        <ele>202.2</ele>
        <time>2022-04-03T13:35:44Z</time>
      </trkpt>
      <trkpt lat="45.96508" lon="0.59635">
        <ele>201.6</ele>
        <time>2022-04-03T13:35:45Z</time>
      </trkpt>
      <trkpt lat="45.96513" lon="0.59627">
        <ele>201.4</ele>
        <time>2022-04-03T13:35:46Z</time>
      </trkpt>
      <trkpt lat="45.96519" lon="0.59619">
        <ele>201.2</ele>
        <time>2022-04-03T13:35:47Z</time>
      </trkpt>
      <trkpt lat="45.96524" lon="0.59611">
        <ele>201</ele>
        <time>2022-04-03T13:35:48Z</time>
      </trkpt>
      <trkpt lat="45.9653" lon="0.59603">
        <ele>200.8</ele>
        <time>2022-04-03T13:35:49Z</time>
      </trkpt>
      <trkpt lat="45.96535" lon="0.59595">
        <ele>200.8</ele>
        <time>2022-04-03T13:35:50Z</time>
      </trkpt>
      <trkpt lat="45.9654" lon="0.59587">
        <ele>200</ele>
        <time>2022-04-03T13:35:51Z</time>
      </trkpt>
      <trkpt lat="45.96546" lon="0.59579">
        <ele>199</ele>
        <time>2022-04-03T13:35:52Z</time>
      </trkpt>
      <trkpt lat="45.96551" lon="0.59571">
        <ele>198.6</ele>
        <time>2022-04-03T13:35:53Z</time>
      </trkpt>
      <trkpt lat="45.96556" lon="0.59563">
        <ele>198.4</ele>
        <time>2022-04-03T13:35:54Z</time>
      </trkpt>
      <trkpt lat="45.96562" lon="0.59555">
        <ele>198</ele>
        <time>2022-04-03T13:35:55Z</time>
      </trkpt>
      <trkpt lat="45.96567" lon="0.59547">
        <ele>197.6</ele>
        <time>2022-04-03T13:35:56Z</time>
      </trkpt>
      <trkpt lat="45.96573" lon="0.59539">
        <ele>197.6</ele>
        <time>2022-04-03T13:35:57Z</time>
      </trkpt>
      <trkpt lat="45.96578" lon="0.59532">
        <ele>197.4</ele>
        <time>2022-04-03T13:35:58Z</time>
      </trkpt>
      <trkpt lat="45.96584" lon="0.59524">
        <ele>197.4</ele>
        <time>2022-04-03T13:35:59Z</time>
      </trkpt>
      <trkpt lat="45.96589" lon="0.59516">
        <ele>197.2</ele>
        <time>2022-04-03T13:36:00Z</time>
      </trkpt>
      <trkpt lat="45.96594" lon="0.59508">
        <ele>197.2</ele>
        <time>2022-04-03T13:36:01Z</time>
      </trkpt>
      <trkpt lat="45.96599" lon="0.595">
        <ele>197</ele>
        <time>2022-04-03T13:36:02Z</time>
      </trkpt>
      <trkpt lat="45.96604" lon="0.59493">
        <ele>197</ele>
        <time>2022-04-03T13:36:03Z</time>
      </trkpt>
      <trkpt lat="45.96609" lon="0.59486">
        <ele>196.4</ele>
        <time>2022-04-03T13:36:04Z</time>
      </trkpt>
      <trkpt lat="45.96614" lon="0.59479">
        <ele>196.2</ele>
        <time>2022-04-03T13:36:05Z</time>
      </trkpt>
      <trkpt lat="45.96619" lon="0.59471">
        <ele>195.6</ele>
        <time>2022-04-03T13:36:06Z</time>
      </trkpt>
      <trkpt lat="45.96624" lon="0.59464">
        <ele>195.4</ele>
        <time>2022-04-03T13:36:07Z</time>
      </trkpt>
      <trkpt lat="45.96628" lon="0.59457">
        <ele>195.2</ele>
        <time>2022-04-03T13:36:08Z</time>
      </trkpt>
      <trkpt lat="45.96633" lon="0.59451">
        <ele>195.2</ele>
        <time>2022-04-03T13:36:09Z</time>
      </trkpt>
      <trkpt lat="45.96637" lon="0.59445">
        <ele>195</ele>
        <time>2022-04-03T13:36:10Z</time>
      </trkpt>
      <trkpt lat="45.96642" lon="0.59439">
        <ele>194.8</ele>
        <time>2022-04-03T13:36:11Z</time>
      </trkpt>
      <trkpt lat="45.96646" lon="0.59432">
        <ele>194.6</ele>
        <time>2022-04-03T13:36:12Z</time>
      </trkpt>
      <trkpt lat="45.96651" lon="0.59426">
        <ele>194</ele>
        <time>2022-04-03T13:36:13Z</time>
      </trkpt>
      <trkpt lat="45.96655" lon="0.59419">
        <ele>193.6</ele>
        <time>2022-04-03T13:36:14Z</time>
      </trkpt>
      <trkpt lat="45.96659" lon="0.59413">
        <ele>193.4</ele>
        <time>2022-04-03T13:36:15Z</time>
      </trkpt>
      <trkpt lat="45.96664" lon="0.59407">
        <ele>193.4</ele>
        <time>2022-04-03T13:36:16Z</time>
      </trkpt>
      <trkpt lat="45.96668" lon="0.59401">
        <ele>193.4</ele>
        <time>2022-04-03T13:36:17Z</time>
      </trkpt>
      <trkpt lat="45.96672" lon="0.59395">
        <ele>193.2</ele>
        <time>2022-04-03T13:36:18Z</time>
      </trkpt>
      <trkpt lat="45.96677" lon="0.59389">
        <ele>193.2</ele>
        <time>2022-04-03T13:36:19Z</time>
      </trkpt>
      <trkpt lat="45.96681" lon="0.59383">
        <ele>193.2</ele>
        <time>2022-04-03T13:36:20Z</time>
      </trkpt>
      <trkpt lat="45.96685" lon="0.59377">
        <ele>193.2</ele>
        <time>2022-04-03T13:36:21Z</time>
      </trkpt>
      <trkpt lat="45.96689" lon="0.59371">
        <ele>193.2</ele>
        <time>2022-04-03T13:36:22Z</time>
      </trkpt>
      <trkpt lat="45.96693" lon="0.59365">
        <ele>193.4</ele>
        <time>2022-04-03T13:36:23Z</time>
      </trkpt>
      <trkpt lat="45.96696" lon="0.5936">
        <ele>193.6</ele>
        <time>2022-04-03T13:36:24Z</time>
      </trkpt>
      <trkpt lat="45.967" lon="0.59354">
        <ele>193.6</ele>
        <time>2022-04-03T13:36:25Z</time>
      </trkpt>
      <trkpt lat="45.96704" lon="0.59348">
        <ele>193.8</ele>
        <time>2022-04-03T13:36:26Z</time>
      </trkpt>
      <trkpt lat="45.96708" lon="0.59343">
        <ele>193.8</ele>
        <time>2022-04-03T13:36:27Z</time>
      </trkpt>
      <trkpt lat="45.96711" lon="0.59338">
        <ele>193.8</ele>
        <time>2022-04-03T13:36:28Z</time>
      </trkpt>
      <trkpt lat="45.96715" lon="0.59333">
        <ele>194</ele>
        <time>2022-04-03T13:36:29Z</time>
      </trkpt>
      <trkpt lat="45.96718" lon="0.59328">
        <ele>194</ele>
        <time>2022-04-03T13:36:30Z</time>
      </trkpt>
      <trkpt lat="45.96722" lon="0.59324">
        <ele>194.2</ele>
        <time>2022-04-03T13:36:31Z</time>
      </trkpt>
      <trkpt lat="45.96725" lon="0.59319">
        <ele>194.2</ele>
        <time>2022-04-03T13:36:32Z</time>
      </trkpt>
      <trkpt lat="45.96728" lon="0.59314">
        <ele>194.2</ele>
        <time>2022-04-03T13:36:33Z</time>
      </trkpt>
      <trkpt lat="45.96732" lon="0.59311">
        <ele>194.4</ele>
        <time>2022-04-03T13:36:34Z</time>
      </trkpt>
      <trkpt lat="45.96735" lon="0.59307">
        <ele>194.6</ele>
        <time>2022-04-03T13:36:35Z</time>
      </trkpt>
      <trkpt lat="45.96738" lon="0.59303">
        <ele>194.6</ele>
        <time>2022-04-03T13:36:36Z</time>
      </trkpt>
      <trkpt lat="45.96741" lon="0.59299">
        <ele>194.8</ele>
        <time>2022-04-03T13:36:37Z</time>
      </trkpt>
      <trkpt lat="45.96743" lon="0.59295">
        <ele>194.8</ele>
        <time>2022-04-03T13:36:38Z</time>
      </trkpt>
      <trkpt lat="45.96746" lon="0.59292">
        <ele>195</ele>
        <time>2022-04-03T13:36:39Z</time>
      </trkpt>
      <trkpt lat="45.96748" lon="0.59288">
        <ele>195</ele>
        <time>2022-04-03T13:36:40Z</time>
      </trkpt>
      <trkpt lat="45.9675" lon="0.59285">
        <ele>195.4</ele>
        <time>2022-04-03T13:36:41Z</time>
      </trkpt>
      <trkpt lat="45.96753" lon="0.59281">
        <ele>195.6</ele>
        <time>2022-04-03T13:36:42Z</time>
      </trkpt>
      <trkpt lat="45.96755" lon="0.59278">
        <ele>195.6</ele>
        <time>2022-04-03T13:36:43Z</time>
      </trkpt>
      <trkpt lat="45.96758" lon="0.59275">
        <ele>195.6</ele>
        <time>2022-04-03T13:36:44Z</time>
      </trkpt>
      <trkpt lat="45.9676" lon="0.59272">
        <ele>195.8</ele>
        <time>2022-04-03T13:36:45Z</time>
      </trkpt>
      <trkpt lat="45.96762" lon="0.59268">
        <ele>195.8</ele>
        <time>2022-04-03T13:36:46Z</time>
      </trkpt>
      <trkpt lat="45.96764" lon="0.59265">
        <ele>195.8</ele>
        <time>2022-04-03T13:36:47Z</time>
      </trkpt>
      <trkpt lat="45.96767" lon="0.59261">
        <ele>195.8</ele>
        <time>2022-04-03T13:36:48Z</time>
      </trkpt>
      <trkpt lat="45.96769" lon="0.59258">
        <ele>196</ele>
        <time>2022-04-03T13:36:49Z</time>
      </trkpt>
      <trkpt lat="45.96772" lon="0.59255">
        <ele>196.2</ele>
        <time>2022-04-03T13:36:50Z</time>
      </trkpt>
      <trkpt lat="45.96774" lon="0.59251">
        <ele>196.4</ele>
        <time>2022-04-03T13:36:51Z</time>
      </trkpt>
      <trkpt lat="45.96776" lon="0.59248">
        <ele>196.4</ele>
        <time>2022-04-03T13:36:52Z</time>
      </trkpt>
      <trkpt lat="45.96778" lon="0.59244">
        <ele>197</ele>
        <time>2022-04-03T13:36:53Z</time>
      </trkpt>
      <trkpt lat="45.9678" lon="0.59241">
        <ele>197.2</ele>
        <time>2022-04-03T13:36:54Z</time>
      </trkpt>
      <trkpt lat="45.96782" lon="0.59237">
        <ele>197.2</ele>
        <time>2022-04-03T13:36:55Z</time>
      </trkpt>
      <trkpt lat="45.96784" lon="0.59234">
        <ele>197.6</ele>
        <time>2022-04-03T13:36:56Z</time>
      </trkpt>
      <trkpt lat="45.96785" lon="0.5923">
        <ele>198</ele>
        <time>2022-04-03T13:36:57Z</time>
      </trkpt>
      <trkpt lat="45.96786" lon="0.59226">
        <ele>198</ele>
        <time>2022-04-03T13:36:58Z</time>
      </trkpt>
      <trkpt lat="45.96787" lon="0.59221">
        <ele>198.2</ele>
        <time>2022-04-03T13:36:59Z</time>
      </trkpt>
      <trkpt lat="45.96787" lon="0.59217">
        <ele>198.4</ele>
        <time>2022-04-03T13:37:00Z</time>
      </trkpt>
      <trkpt lat="45.96788" lon="0.59213">
        <ele>198.6</ele>
        <time>2022-04-03T13:37:01Z</time>
      </trkpt>
      <trkpt lat="45.96788" lon="0.59209">
        <ele>198.8</ele>
        <time>2022-04-03T13:37:02Z</time>
      </trkpt>
      <trkpt lat="45.96788" lon="0.59204">
        <ele>198.8</ele>
        <time>2022-04-03T13:37:03Z</time>
      </trkpt>
      <trkpt lat="45.96788" lon="0.592">
        <ele>199.2</ele>
        <time>2022-04-03T13:37:04Z</time>
      </trkpt>
      <trkpt lat="45.96788" lon="0.59196">
        <ele>199.4</ele>
        <time>2022-04-03T13:37:05Z</time>
      </trkpt>
      <trkpt lat="45.96788" lon="0.59192">
        <ele>199.4</ele>
        <time>2022-04-03T13:37:06Z</time>
      </trkpt>
      <trkpt lat="45.96787" lon="0.59187">
        <ele>199.6</ele>
        <time>2022-04-03T13:37:07Z</time>
      </trkpt>
      <trkpt lat="45.96786" lon="0.59183">
        <ele>199.8</ele>
        <time>2022-04-03T13:37:08Z</time>
      </trkpt>
      <trkpt lat="45.96785" lon="0.59179">
        <ele>200.2</ele>
        <time>2022-04-03T13:37:09Z</time>
      </trkpt>
      <trkpt lat="45.96784" lon="0.59175">
        <ele>200.4</ele>
        <time>2022-04-03T13:37:10Z</time>
      </trkpt>
      <trkpt lat="45.96782" lon="0.59171">
        <ele>200.6</ele>
        <time>2022-04-03T13:37:11Z</time>
      </trkpt>
      <trkpt lat="45.96781" lon="0.59167">
        <ele>200.8</ele>
        <time>2022-04-03T13:37:12Z</time>
      </trkpt>
      <trkpt lat="45.96779" lon="0.59164">
        <ele>200.8</ele>
        <time>2022-04-03T13:37:13Z</time>
      </trkpt>
      <trkpt lat="45.96778" lon="0.5916">
        <ele>201</ele>
        <time>2022-04-03T13:37:14Z</time>
      </trkpt>
      <trkpt lat="45.96776" lon="0.59156">
        <ele>201.2</ele>
        <time>2022-04-03T13:37:15Z</time>
      </trkpt>
      <trkpt lat="45.96774" lon="0.59153">
        <ele>201.4</ele>
        <time>2022-04-03T13:37:16Z</time>
      </trkpt>
      <trkpt lat="45.96772" lon="0.59149">
        <ele>201.6</ele>
        <time>2022-04-03T13:37:17Z</time>
      </trkpt>
      <trkpt lat="45.9677" lon="0.59145">
        <ele>201.8</ele>
        <time>2022-04-03T13:37:18Z</time>
      </trkpt>
      <trkpt lat="45.96769" lon="0.59141">
        <ele>202</ele>
        <time>2022-04-03T13:37:19Z</time>
      </trkpt>
      <trkpt lat="45.96767" lon="0.59138">
        <ele>202.2</ele>
        <time>2022-04-03T13:37:20Z</time>
      </trkpt>
      <trkpt lat="45.96766" lon="0.59134">
        <ele>202.4</ele>
        <time>2022-04-03T13:37:21Z</time>
      </trkpt>
      <trkpt lat="45.96764" lon="0.59129">
        <ele>202.6</ele>
        <time>2022-04-03T13:37:22Z</time>
      </trkpt>
      <trkpt lat="45.96763" lon="0.59125">
        <ele>202.6</ele>
        <time>2022-04-03T13:37:23Z</time>
      </trkpt>
      <trkpt lat="45.96762" lon="0.59121">
        <ele>202.8</ele>
        <time>2022-04-03T13:37:24Z</time>
      </trkpt>
      <trkpt lat="45.96762" lon="0.59116">
        <ele>202.8</ele>
        <time>2022-04-03T13:37:25Z</time>
      </trkpt>
      <trkpt lat="45.96761" lon="0.59112">
        <ele>202.8</ele>
        <time>2022-04-03T13:37:26Z</time>
      </trkpt>
      <trkpt lat="45.96761" lon="0.59107">
        <ele>203</ele>
        <time>2022-04-03T13:37:27Z</time>
      </trkpt>
      <trkpt lat="45.96761" lon="0.59102">
        <ele>203.2</ele>
        <time>2022-04-03T13:37:28Z</time>
      </trkpt>
      <trkpt lat="45.96762" lon="0.59098">
        <ele>203.4</ele>
        <time>2022-04-03T13:37:29Z</time>
      </trkpt>
      <trkpt lat="45.96763" lon="0.59094">
        <ele>203.6</ele>
        <time>2022-04-03T13:37:30Z</time>
      </trkpt>
      <trkpt lat="45.96764" lon="0.59089">
        <ele>203.8</ele>
        <time>2022-04-03T13:37:31Z</time>
      </trkpt>
      <trkpt lat="45.96765" lon="0.59085">
        <ele>203.8</ele>
        <time>2022-04-03T13:37:32Z</time>
      </trkpt>
      <trkpt lat="45.96766" lon="0.59081">
        <ele>203.8</ele>
        <time>2022-04-03T13:37:33Z</time>
      </trkpt>
      <trkpt lat="45.96767" lon="0.59077">
        <ele>204.2</ele>
        <time>2022-04-03T13:37:34Z</time>
      </trkpt>
      <trkpt lat="45.96768" lon="0.59074">
        <ele>204.4</ele>
        <time>2022-04-03T13:37:35Z</time>
      </trkpt>
      <trkpt lat="45.9677" lon="0.5907">
        <ele>204.4</ele>
        <time>2022-04-03T13:37:36Z</time>
      </trkpt>
      <trkpt lat="45.96771" lon="0.59066">
        <ele>204.6</ele>
        <time>2022-04-03T13:37:37Z</time>
      </trkpt>
      <trkpt lat="45.96773" lon="0.59063">
        <ele>204.8</ele>
        <time>2022-04-03T13:37:38Z</time>
      </trkpt>
      <trkpt lat="45.96774" lon="0.59059">
        <ele>204.8</ele>
        <time>2022-04-03T13:37:39Z</time>
      </trkpt>
      <trkpt lat="45.96776" lon="0.59055">
        <ele>204.8</ele>
        <time>2022-04-03T13:37:40Z</time>
      </trkpt>
      <trkpt lat="45.96777" lon="0.59052">
        <ele>205</ele>
        <time>2022-04-03T13:37:41Z</time>
      </trkpt>
      <trkpt lat="45.96779" lon="0.59048">
        <ele>205</ele>
        <time>2022-04-03T13:37:42Z</time>
      </trkpt>
      <trkpt lat="45.9678" lon="0.59044">
        <ele>205</ele>
        <time>2022-04-03T13:37:43Z</time>
      </trkpt>
      <trkpt lat="45.96782" lon="0.5904">
        <ele>205</ele>
        <time>2022-04-03T13:37:44Z</time>
      </trkpt>
      <trkpt lat="45.96783" lon="0.59037">
        <ele>205.2</ele>
        <time>2022-04-03T13:37:45Z</time>
      </trkpt>
      <trkpt lat="45.96785" lon="0.59033">
        <ele>205</ele>
        <time>2022-04-03T13:37:46Z</time>
      </trkpt>
      <trkpt lat="45.96787" lon="0.59029">
        <ele>205.2</ele>
        <time>2022-04-03T13:37:47Z</time>
      </trkpt>
      <trkpt lat="45.96788" lon="0.59025">
        <ele>205.2</ele>
        <time>2022-04-03T13:37:48Z</time>
      </trkpt>
      <trkpt lat="45.9679" lon="0.59022">
        <ele>205.2</ele>
        <time>2022-04-03T13:37:49Z</time>
      </trkpt>
      <trkpt lat="45.96791" lon="0.59018">
        <ele>205.6</ele>
        <time>2022-04-03T13:37:50Z</time>
      </trkpt>
      <trkpt lat="45.96793" lon="0.59014">
        <ele>205.8</ele>
        <time>2022-04-03T13:37:51Z</time>
      </trkpt>
      <trkpt lat="45.96794" lon="0.5901">
        <ele>206</ele>
        <time>2022-04-03T13:37:52Z</time>
      </trkpt>
      <trkpt lat="45.96796" lon="0.59006">
        <ele>206.4</ele>
        <time>2022-04-03T13:37:53Z</time>
      </trkpt>
      <trkpt lat="45.96797" lon="0.59003">
        <ele>206.4</ele>
        <time>2022-04-03T13:37:54Z</time>
      </trkpt>
      <trkpt lat="45.96799" lon="0.58999">
        <ele>206.6</ele>
        <time>2022-04-03T13:37:55Z</time>
      </trkpt>
      <trkpt lat="45.96801" lon="0.58995">
        <ele>207</ele>
        <time>2022-04-03T13:37:56Z</time>
      </trkpt>
      <trkpt lat="45.96802" lon="0.58992">
        <ele>206.8</ele>
        <time>2022-04-03T13:37:57Z</time>
      </trkpt>
      <trkpt lat="45.96803" lon="0.58988">
        <ele>206.8</ele>
        <time>2022-04-03T13:37:58Z</time>
      </trkpt>
      <trkpt lat="45.96805" lon="0.58984">
        <ele>207.4</ele>
        <time>2022-04-03T13:37:59Z</time>
      </trkpt>
      <trkpt lat="45.96807" lon="0.5898">
        <ele>207.4</ele>
        <time>2022-04-03T13:38:00Z</time>
      </trkpt>
      <trkpt lat="45.96808" lon="0.58976">
        <ele>207.6</ele>
        <time>2022-04-03T13:38:01Z</time>
      </trkpt>
      <trkpt lat="45.9681" lon="0.58972">
        <ele>207.8</ele>
        <time>2022-04-03T13:38:02Z</time>
      </trkpt>
      <trkpt lat="45.96811" lon="0.58968">
        <ele>207.8</ele>
        <time>2022-04-03T13:38:03Z</time>
      </trkpt>
      <trkpt lat="45.96813" lon="0.58964">
        <ele>208</ele>
        <time>2022-04-03T13:38:04Z</time>
      </trkpt>
      <trkpt lat="45.96814" lon="0.5896">
        <ele>208.4</ele>
        <time>2022-04-03T13:38:05Z</time>
      </trkpt>
      <trkpt lat="45.96816" lon="0.58956">
        <ele>208.6</ele>
        <time>2022-04-03T13:38:06Z</time>
      </trkpt>
      <trkpt lat="45.96818" lon="0.58953">
        <ele>208.8</ele>
        <time>2022-04-03T13:38:07Z</time>
      </trkpt>
      <trkpt lat="45.96819" lon="0.58949">
        <ele>209</ele>
        <time>2022-04-03T13:38:08Z</time>
      </trkpt>
      <trkpt lat="45.96821" lon="0.58945">
        <ele>209.2</ele>
        <time>2022-04-03T13:38:09Z</time>
      </trkpt>
      <trkpt lat="45.96822" lon="0.58941">
        <ele>209.2</ele>
        <time>2022-04-03T13:38:10Z</time>
      </trkpt>
      <trkpt lat="45.96823" lon="0.58937">
        <ele>209.2</ele>
        <time>2022-04-03T13:38:11Z</time>
      </trkpt>
      <trkpt lat="45.96824" lon="0.58933">
        <ele>209.2</ele>
        <time>2022-04-03T13:38:12Z</time>
      </trkpt>
      <trkpt lat="45.96826" lon="0.58929">
        <ele>209.2</ele>
        <time>2022-04-03T13:38:13Z</time>
      </trkpt>
      <trkpt lat="45.96827" lon="0.58925">
        <ele>209.4</ele>
        <time>2022-04-03T13:38:14Z</time>
      </trkpt>
      <trkpt lat="45.96828" lon="0.58921">
        <ele>209.4</ele>
        <time>2022-04-03T13:38:15Z</time>
      </trkpt>
      <trkpt lat="45.9683" lon="0.58917">
        <ele>209.6</ele>
        <time>2022-04-03T13:38:16Z</time>
      </trkpt>
      <trkpt lat="45.96831" lon="0.58913">
        <ele>209.6</ele>
        <time>2022-04-03T13:38:17Z</time>
      </trkpt>
      <trkpt lat="45.96832" lon="0.58909">
        <ele>209.8</ele>
        <time>2022-04-03T13:38:18Z</time>
      </trkpt>
      <trkpt lat="45.96833" lon="0.58905">
        <ele>210</ele>
        <time>2022-04-03T13:38:19Z</time>
      </trkpt>
      <trkpt lat="45.96835" lon="0.58901">
        <ele>210.2</ele>
        <time>2022-04-03T13:38:20Z</time>
      </trkpt>
      <trkpt lat="45.96836" lon="0.58897">
        <ele>210.2</ele>
        <time>2022-04-03T13:38:21Z</time>
      </trkpt>
      <trkpt lat="45.96838" lon="0.58893">
        <ele>210.2</ele>
        <time>2022-04-03T13:38:22Z</time>
      </trkpt>
      <trkpt lat="45.9684" lon="0.58889">
        <ele>210.4</ele>
        <time>2022-04-03T13:38:23Z</time>
      </trkpt>
      <trkpt lat="45.96842" lon="0.58886">
        <ele>210.6</ele>
        <time>2022-04-03T13:38:24Z</time>
      </trkpt>
      <trkpt lat="45.96844" lon="0.58882">
        <ele>210.8</ele>
        <time>2022-04-03T13:38:25Z</time>
      </trkpt>
      <trkpt lat="45.96845" lon="0.58879">
        <ele>210.8</ele>
        <time>2022-04-03T13:38:26Z</time>
      </trkpt>
      <trkpt lat="45.96847" lon="0.58876">
        <ele>211.2</ele>
        <time>2022-04-03T13:38:27Z</time>
      </trkpt>
      <trkpt lat="45.96849" lon="0.58874">
        <ele>211.4</ele>
        <time>2022-04-03T13:38:28Z</time>
      </trkpt>
      <trkpt lat="45.9685" lon="0.58872">
        <ele>211.6</ele>
        <time>2022-04-03T13:38:29Z</time>
      </trkpt>
      <trkpt lat="45.96852" lon="0.5887">
        <ele>211.8</ele>
        <time>2022-04-03T13:38:30Z</time>
      </trkpt>
      <trkpt lat="45.96853" lon="0.58867">
        <ele>211.8</ele>
        <time>2022-04-03T13:38:31Z</time>
      </trkpt>
      <trkpt lat="45.96854" lon="0.58865">
        <ele>211.8</ele>
        <time>2022-04-03T13:38:32Z</time>
      </trkpt>
      <trkpt lat="45.96856" lon="0.58862">
        <ele>211.8</ele>
        <time>2022-04-03T13:38:33Z</time>
      </trkpt>
      <trkpt lat="45.96858" lon="0.58859">
        <ele>211.8</ele>
        <time>2022-04-03T13:38:34Z</time>
      </trkpt>
      <trkpt lat="45.9686" lon="0.58855">
        <ele>211.8</ele>
        <time>2022-04-03T13:38:35Z</time>
      </trkpt>
      <trkpt lat="45.96862" lon="0.58852">
        <ele>212</ele>
        <time>2022-04-03T13:38:36Z</time>
      </trkpt>
      <trkpt lat="45.96864" lon="0.58847">
        <ele>212</ele>
        <time>2022-04-03T13:38:37Z</time>
      </trkpt>
      <trkpt lat="45.96866" lon="0.58843">
        <ele>212</ele>
        <time>2022-04-03T13:38:38Z</time>
      </trkpt>
      <trkpt lat="45.96868" lon="0.58839">
        <ele>212.2</ele>
        <time>2022-04-03T13:38:39Z</time>
      </trkpt>
      <trkpt lat="45.96871" lon="0.58836">
        <ele>212.2</ele>
        <time>2022-04-03T13:38:40Z</time>
      </trkpt>
      <trkpt lat="45.96874" lon="0.58832">
        <ele>212.2</ele>
        <time>2022-04-03T13:38:41Z</time>
      </trkpt>
      <trkpt lat="45.96877" lon="0.58829">
        <ele>212</ele>
        <time>2022-04-03T13:38:42Z</time>
      </trkpt>
      <trkpt lat="45.9688" lon="0.58826">
        <ele>212.2</ele>
        <time>2022-04-03T13:38:43Z</time>
      </trkpt>
      <trkpt lat="45.96883" lon="0.58822">
        <ele>212.2</ele>
        <time>2022-04-03T13:38:44Z</time>
      </trkpt>
      <trkpt lat="45.96886" lon="0.5882">
        <ele>212.4</ele>
        <time>2022-04-03T13:38:45Z</time>
      </trkpt>
      <trkpt lat="45.9689" lon="0.58817">
        <ele>212.4</ele>
        <time>2022-04-03T13:38:46Z</time>
      </trkpt>
      <trkpt lat="45.96892" lon="0.58814">
        <ele>212.4</ele>
        <time>2022-04-03T13:38:47Z</time>
      </trkpt>
      <trkpt lat="45.96896" lon="0.58811">
        <ele>212.4</ele>
        <time>2022-04-03T13:38:48Z</time>
      </trkpt>
      <trkpt lat="45.96899" lon="0.58808">
        <ele>212.4</ele>
        <time>2022-04-03T13:38:49Z</time>
      </trkpt>
      <trkpt lat="45.96902" lon="0.58805">
        <ele>212.4</ele>
        <time>2022-04-03T13:38:50Z</time>
      </trkpt>
      <trkpt lat="45.96904" lon="0.58801">
        <ele>212.6</ele>
        <time>2022-04-03T13:38:51Z</time>
      </trkpt>
      <trkpt lat="45.96907" lon="0.58797">
        <ele>212.6</ele>
        <time>2022-04-03T13:38:52Z</time>
      </trkpt>
      <trkpt lat="45.9691" lon="0.58793">
        <ele>212.6</ele>
        <time>2022-04-03T13:38:53Z</time>
      </trkpt>
      <trkpt lat="45.96913" lon="0.58789">
        <ele>212.6</ele>
        <time>2022-04-03T13:38:54Z</time>
      </trkpt>
      <trkpt lat="45.96916" lon="0.58785">
        <ele>212.6</ele>
        <time>2022-04-03T13:38:55Z</time>
      </trkpt>
      <trkpt lat="45.9692" lon="0.58781">
        <ele>212.8</ele>
        <time>2022-04-03T13:38:56Z</time>
      </trkpt>
      <trkpt lat="45.96923" lon="0.58777">
        <ele>212.8</ele>
        <time>2022-04-03T13:38:57Z</time>
      </trkpt>
      <trkpt lat="45.96927" lon="0.58772">
        <ele>212.6</ele>
        <time>2022-04-03T13:38:58Z</time>
      </trkpt>
      <trkpt lat="45.9693" lon="0.58768">
        <ele>212.6</ele>
        <time>2022-04-03T13:38:59Z</time>
      </trkpt>
      <trkpt lat="45.96934" lon="0.58763">
        <ele>212.6</ele>
        <time>2022-04-03T13:39:00Z</time>
      </trkpt>
      <trkpt lat="45.96937" lon="0.58758">
        <ele>212.6</ele>
        <time>2022-04-03T13:39:01Z</time>
      </trkpt>
      <trkpt lat="45.96941" lon="0.58753">
        <ele>212.8</ele>
        <time>2022-04-03T13:39:02Z</time>
      </trkpt>
      <trkpt lat="45.96945" lon="0.58748">
        <ele>212.8</ele>
        <time>2022-04-03T13:39:03Z</time>
      </trkpt>
      <trkpt lat="45.96949" lon="0.58743">
        <ele>212.6</ele>
        <time>2022-04-03T13:39:04Z</time>
      </trkpt>
      <trkpt lat="45.96952" lon="0.58738">
        <ele>212.2</ele>
        <time>2022-04-03T13:39:05Z</time>
      </trkpt>
      <trkpt lat="45.96956" lon="0.58732">
        <ele>212</ele>
        <time>2022-04-03T13:39:06Z</time>
      </trkpt>
      <trkpt lat="45.9696" lon="0.58727">
        <ele>211.8</ele>
        <time>2022-04-03T13:39:07Z</time>
      </trkpt>
      <trkpt lat="45.96965" lon="0.58721">
        <ele>211.6</ele>
        <time>2022-04-03T13:39:08Z</time>
      </trkpt>
      <trkpt lat="45.96969" lon="0.58716">
        <ele>211.2</ele>
        <time>2022-04-03T13:39:09Z</time>
      </trkpt>
      <trkpt lat="45.96973" lon="0.5871">
        <ele>211.2</ele>
        <time>2022-04-03T13:39:10Z</time>
      </trkpt>
      <trkpt lat="45.96977" lon="0.58705">
        <ele>211</ele>
        <time>2022-04-03T13:39:11Z</time>
      </trkpt>
      <trkpt lat="45.96981" lon="0.58699">
        <ele>211</ele>
        <time>2022-04-03T13:39:12Z</time>
      </trkpt>
      <trkpt lat="45.96985" lon="0.58694">
        <ele>211.2</ele>
        <time>2022-04-03T13:39:13Z</time>
      </trkpt>
      <trkpt lat="45.96989" lon="0.58689">
        <ele>211</ele>
        <time>2022-04-03T13:39:14Z</time>
      </trkpt>
      <trkpt lat="45.96993" lon="0.58683">
        <ele>211.2</ele>
        <time>2022-04-03T13:39:15Z</time>
      </trkpt>
      <trkpt lat="45.96997" lon="0.58678">
        <ele>211</ele>
        <time>2022-04-03T13:39:16Z</time>
      </trkpt>
      <trkpt lat="45.97001" lon="0.58673">
        <ele>211</ele>
        <time>2022-04-03T13:39:17Z</time>
      </trkpt>
      <trkpt lat="45.97005" lon="0.58668">
        <ele>211</ele>
        <time>2022-04-03T13:39:18Z</time>
      </trkpt>
      <trkpt lat="45.97009" lon="0.58662">
        <ele>211</ele>
        <time>2022-04-03T13:39:19Z</time>
      </trkpt>
      <trkpt lat="45.97013" lon="0.58656">
        <ele>211</ele>
        <time>2022-04-03T13:39:20Z</time>
      </trkpt>
      <trkpt lat="45.97017" lon="0.58651">
        <ele>211</ele>
        <time>2022-04-03T13:39:21Z</time>
      </trkpt>
      <trkpt lat="45.97022" lon="0.58645">
        <ele>211</ele>
        <time>2022-04-03T13:39:22Z</time>
      </trkpt>
      <trkpt lat="45.97026" lon="0.5864">
        <ele>211</ele>
        <time>2022-04-03T13:39:23Z</time>
      </trkpt>
      <trkpt lat="45.9703" lon="0.58634">
        <ele>211</ele>
        <time>2022-04-03T13:39:24Z</time>
      </trkpt>
      <trkpt lat="45.97035" lon="0.58628">
        <ele>211</ele>
        <time>2022-04-03T13:39:25Z</time>
      </trkpt>
      <trkpt lat="45.97039" lon="0.58622">
        <ele>210.8</ele>
        <time>2022-04-03T13:39:26Z</time>
      </trkpt>
      <trkpt lat="45.97043" lon="0.58616">
        <ele>210.8</ele>
        <time>2022-04-03T13:39:27Z</time>
      </trkpt>
      <trkpt lat="45.97047" lon="0.58609">
        <ele>210.8</ele>
        <time>2022-04-03T13:39:28Z</time>
      </trkpt>
      <trkpt lat="45.97051" lon="0.58603">
        <ele>210.4</ele>
        <time>2022-04-03T13:39:29Z</time>
      </trkpt>
      <trkpt lat="45.97055" lon="0.58597">
        <ele>210.2</ele>
        <time>2022-04-03T13:39:30Z</time>
      </trkpt>
      <trkpt lat="45.97058" lon="0.5859">
        <ele>210.4</ele>
        <time>2022-04-03T13:39:31Z</time>
      </trkpt>
      <trkpt lat="45.97062" lon="0.58583">
        <ele>210.2</ele>
        <time>2022-04-03T13:39:32Z</time>
      </trkpt>
      <trkpt lat="45.97065" lon="0.58576">
        <ele>210.2</ele>
        <time>2022-04-03T13:39:33Z</time>
      </trkpt>
      <trkpt lat="45.97068" lon="0.58569">
        <ele>210.2</ele>
        <time>2022-04-03T13:39:34Z</time>
      </trkpt>
      <trkpt lat="45.97071" lon="0.58562">
        <ele>210.2</ele>
        <time>2022-04-03T13:39:35Z</time>
      </trkpt>
      <trkpt lat="45.97075" lon="0.58555">
        <ele>210.2</ele>
        <time>2022-04-03T13:39:36Z</time>
      </trkpt>
      <trkpt lat="45.97078" lon="0.58547">
        <ele>210.2</ele>
        <time>2022-04-03T13:39:37Z</time>
      </trkpt>
      <trkpt lat="45.97081" lon="0.5854">
        <ele>210.2</ele>
        <time>2022-04-03T13:39:38Z</time>
      </trkpt>
      <trkpt lat="45.97084" lon="0.58533">
        <ele>210.2</ele>
        <time>2022-04-03T13:39:39Z</time>
      </trkpt>
      <trkpt lat="45.97087" lon="0.58526">
        <ele>210.2</ele>
        <time>2022-04-03T13:39:40Z</time>
      </trkpt>
      <trkpt lat="45.97091" lon="0.58519">
        <ele>210</ele>
        <time>2022-04-03T13:39:41Z</time>
      </trkpt>
      <trkpt lat="45.97094" lon="0.58512">
        <ele>210</ele>
        <time>2022-04-03T13:39:42Z</time>
      </trkpt>
      <trkpt lat="45.97097" lon="0.58505">
        <ele>210</ele>
        <time>2022-04-03T13:39:43Z</time>
      </trkpt>
      <trkpt lat="45.971" lon="0.58499">
        <ele>210.2</ele>
        <time>2022-04-03T13:39:44Z</time>
      </trkpt>
      <trkpt lat="45.97103" lon="0.58492">
        <ele>210.2</ele>
        <time>2022-04-03T13:39:45Z</time>
      </trkpt>
      <trkpt lat="45.97106" lon="0.58485">
        <ele>210.2</ele>
        <time>2022-04-03T13:39:46Z</time>
      </trkpt>
      <trkpt lat="45.97109" lon="0.58478">
        <ele>210.4</ele>
        <time>2022-04-03T13:39:47Z</time>
      </trkpt>
      <trkpt lat="45.97112" lon="0.58472">
        <ele>210.4</ele>
        <time>2022-04-03T13:39:48Z</time>
      </trkpt>
      <trkpt lat="45.97115" lon="0.58465">
        <ele>210.4</ele>
        <time>2022-04-03T13:39:49Z</time>
      </trkpt>
      <trkpt lat="45.97118" lon="0.58459">
        <ele>210.2</ele>
        <time>2022-04-03T13:39:50Z</time>
      </trkpt>
      <trkpt lat="45.97121" lon="0.58452">
        <ele>210.2</ele>
        <time>2022-04-03T13:39:51Z</time>
      </trkpt>
      <trkpt lat="45.97124" lon="0.58446">
        <ele>210.4</ele>
        <time>2022-04-03T13:39:52Z</time>
      </trkpt>
      <trkpt lat="45.97127" lon="0.5844">
        <ele>210.4</ele>
        <time>2022-04-03T13:39:53Z</time>
      </trkpt>
      <trkpt lat="45.9713" lon="0.58433">
        <ele>210.6</ele>
        <time>2022-04-03T13:39:54Z</time>
      </trkpt>
      <trkpt lat="45.97133" lon="0.58427">
        <ele>210.6</ele>
        <time>2022-04-03T13:39:55Z</time>
      </trkpt>
      <trkpt lat="45.97136" lon="0.5842">
        <ele>210.6</ele>
        <time>2022-04-03T13:39:56Z</time>
      </trkpt>
      <trkpt lat="45.97139" lon="0.58414">
        <ele>211</ele>
        <time>2022-04-03T13:39:57Z</time>
      </trkpt>
      <trkpt lat="45.97142" lon="0.58408">
        <ele>211</ele>
        <time>2022-04-03T13:39:58Z</time>
      </trkpt>
      <trkpt lat="45.97144" lon="0.58402">
        <ele>211</ele>
        <time>2022-04-03T13:39:59Z</time>
      </trkpt>
      <trkpt lat="45.97147" lon="0.58395">
        <ele>211.2</ele>
        <time>2022-04-03T13:40:00Z</time>
      </trkpt>
      <trkpt lat="45.9715" lon="0.58389">
        <ele>211.4</ele>
        <time>2022-04-03T13:40:01Z</time>
      </trkpt>
      <trkpt lat="45.97153" lon="0.58383">
        <ele>211.2</ele>
        <time>2022-04-03T13:40:02Z</time>
      </trkpt>
      <trkpt lat="45.97156" lon="0.58377">
        <ele>211.4</ele>
        <time>2022-04-03T13:40:03Z</time>
      </trkpt>
      <trkpt lat="45.97159" lon="0.58371">
        <ele>211.4</ele>
        <time>2022-04-03T13:40:04Z</time>
      </trkpt>
      <trkpt lat="45.97161" lon="0.58365">
        <ele>211.8</ele>
        <time>2022-04-03T13:40:05Z</time>
      </trkpt>
      <trkpt lat="45.97164" lon="0.58358">
        <ele>211.8</ele>
        <time>2022-04-03T13:40:06Z</time>
      </trkpt>
      <trkpt lat="45.97167" lon="0.58352">
        <ele>212</ele>
        <time>2022-04-03T13:40:07Z</time>
      </trkpt>
      <trkpt lat="45.9717" lon="0.58346">
        <ele>212</ele>
        <time>2022-04-03T13:40:08Z</time>
      </trkpt>
      <trkpt lat="45.97172" lon="0.58339">
        <ele>212</ele>
        <time>2022-04-03T13:40:09Z</time>
      </trkpt>
      <trkpt lat="45.97175" lon="0.58333">
        <ele>212.2</ele>
        <time>2022-04-03T13:40:10Z</time>
      </trkpt>
      <trkpt lat="45.97178" lon="0.58327">
        <ele>212.2</ele>
        <time>2022-04-03T13:40:11Z</time>
      </trkpt>
      <trkpt lat="45.97181" lon="0.58321">
        <ele>212.4</ele>
        <time>2022-04-03T13:40:12Z</time>
      </trkpt>
      <trkpt lat="45.97184" lon="0.58314">
        <ele>212.6</ele>
        <time>2022-04-03T13:40:13Z</time>
      </trkpt>
      <trkpt lat="45.97187" lon="0.58308">
        <ele>212.6</ele>
        <time>2022-04-03T13:40:14Z</time>
      </trkpt>
      <trkpt lat="45.9719" lon="0.58302">
        <ele>212.6</ele>
        <time>2022-04-03T13:40:15Z</time>
      </trkpt>
      <trkpt lat="45.97193" lon="0.58296">
        <ele>212.6</ele>
        <time>2022-04-03T13:40:16Z</time>
      </trkpt>
      <trkpt lat="45.97196" lon="0.5829">
        <ele>212.8</ele>
        <time>2022-04-03T13:40:17Z</time>
      </trkpt>
      <trkpt lat="45.97198" lon="0.58283">
        <ele>213</ele>
        <time>2022-04-03T13:40:18Z</time>
      </trkpt>
      <trkpt lat="45.97201" lon="0.58277">
        <ele>213</ele>
        <time>2022-04-03T13:40:19Z</time>
      </trkpt>
      <trkpt lat="45.97204" lon="0.58271">
        <ele>213</ele>
        <time>2022-04-03T13:40:20Z</time>
      </trkpt>
      <trkpt lat="45.97206" lon="0.58265">
        <ele>213.2</ele>
        <time>2022-04-03T13:40:21Z</time>
      </trkpt>
      <trkpt lat="45.97209" lon="0.58258">
        <ele>213.2</ele>
        <time>2022-04-03T13:40:22Z</time>
      </trkpt>
      <trkpt lat="45.97211" lon="0.58252">
        <ele>213.4</ele>
        <time>2022-04-03T13:40:23Z</time>
      </trkpt>
      <trkpt lat="45.97214" lon="0.58245">
        <ele>213.4</ele>
        <time>2022-04-03T13:40:24Z</time>
      </trkpt>
      <trkpt lat="45.97217" lon="0.58238">
        <ele>213.4</ele>
        <time>2022-04-03T13:40:25Z</time>
      </trkpt>
      <trkpt lat="45.97219" lon="0.58231">
        <ele>213.6</ele>
        <time>2022-04-03T13:40:26Z</time>
      </trkpt>
      <trkpt lat="45.97221" lon="0.58224">
        <ele>213.8</ele>
        <time>2022-04-03T13:40:27Z</time>
      </trkpt>
      <trkpt lat="45.97223" lon="0.58216">
        <ele>213.8</ele>
        <time>2022-04-03T13:40:28Z</time>
      </trkpt>
      <trkpt lat="45.97225" lon="0.58209">
        <ele>214</ele>
        <time>2022-04-03T13:40:29Z</time>
      </trkpt>
      <trkpt lat="45.97228" lon="0.58201">
        <ele>214</ele>
        <time>2022-04-03T13:40:30Z</time>
      </trkpt>
      <trkpt lat="45.9723" lon="0.58193">
        <ele>214</ele>
        <time>2022-04-03T13:40:31Z</time>
      </trkpt>
      <trkpt lat="45.97232" lon="0.58185">
        <ele>213.8</ele>
        <time>2022-04-03T13:40:32Z</time>
      </trkpt>
      <trkpt lat="45.97234" lon="0.58177">
        <ele>213.8</ele>
        <time>2022-04-03T13:40:33Z</time>
      </trkpt>
      <trkpt lat="45.97236" lon="0.58168">
        <ele>213.8</ele>
        <time>2022-04-03T13:40:34Z</time>
      </trkpt>
      <trkpt lat="45.97238" lon="0.5816">
        <ele>214</ele>
        <time>2022-04-03T13:40:35Z</time>
      </trkpt>
      <trkpt lat="45.97241" lon="0.58151">
        <ele>214</ele>
        <time>2022-04-03T13:40:36Z</time>
      </trkpt>
      <trkpt lat="45.97243" lon="0.58142">
        <ele>213.8</ele>
        <time>2022-04-03T13:40:37Z</time>
      </trkpt>
      <trkpt lat="45.97245" lon="0.58134">
        <ele>214</ele>
        <time>2022-04-03T13:40:38Z</time>
      </trkpt>
      <trkpt lat="45.97248" lon="0.58125">
        <ele>214</ele>
        <time>2022-04-03T13:40:39Z</time>
      </trkpt>
      <trkpt lat="45.9725" lon="0.58117">
        <ele>214</ele>
        <time>2022-04-03T13:40:40Z</time>
      </trkpt>
      <trkpt lat="45.97252" lon="0.58108">
        <ele>214</ele>
        <time>2022-04-03T13:40:41Z</time>
      </trkpt>
      <trkpt lat="45.97253" lon="0.58099">
        <ele>213.8</ele>
        <time>2022-04-03T13:40:42Z</time>
      </trkpt>
      <trkpt lat="45.97254" lon="0.5809">
        <ele>214</ele>
        <time>2022-04-03T13:40:43Z</time>
      </trkpt>
      <trkpt lat="45.97256" lon="0.58081">
        <ele>213.8</ele>
        <time>2022-04-03T13:40:44Z</time>
      </trkpt>
      <trkpt lat="45.97257" lon="0.58072">
        <ele>213.8</ele>
        <time>2022-04-03T13:40:45Z</time>
      </trkpt>
      <trkpt lat="45.97258" lon="0.58063">
        <ele>213.4</ele>
        <time>2022-04-03T13:40:46Z</time>
      </trkpt>
      <trkpt lat="45.97258" lon="0.58053">
        <ele>213.2</ele>
        <time>2022-04-03T13:40:47Z</time>
      </trkpt>
      <trkpt lat="45.97257" lon="0.58044">
        <ele>212.8</ele>
        <time>2022-04-03T13:40:48Z</time>
      </trkpt>
      <trkpt lat="45.97256" lon="0.58034">
        <ele>212.6</ele>
        <time>2022-04-03T13:40:49Z</time>
      </trkpt>
      <trkpt lat="45.97255" lon="0.58025">
        <ele>212.4</ele>
        <time>2022-04-03T13:40:50Z</time>
      </trkpt>
      <trkpt lat="45.97254" lon="0.58016">
        <ele>212</ele>
        <time>2022-04-03T13:40:51Z</time>
      </trkpt>
      <trkpt lat="45.97252" lon="0.58007">
        <ele>211.8</ele>
        <time>2022-04-03T13:40:52Z</time>
      </trkpt>
      <trkpt lat="45.9725" lon="0.57998">
        <ele>211.8</ele>
        <time>2022-04-03T13:40:53Z</time>
      </trkpt>
      <trkpt lat="45.97248" lon="0.57989">
        <ele>211.8</ele>
        <time>2022-04-03T13:40:54Z</time>
      </trkpt>
      <trkpt lat="45.97247" lon="0.5798">
        <ele>212</ele>
        <time>2022-04-03T13:40:55Z</time>
      </trkpt>
      <trkpt lat="45.97245" lon="0.57972">
        <ele>211.8</ele>
        <time>2022-04-03T13:40:56Z</time>
      </trkpt>
      <trkpt lat="45.97243" lon="0.57963">
        <ele>211.8</ele>
        <time>2022-04-03T13:40:57Z</time>
      </trkpt>
      <trkpt lat="45.97241" lon="0.57955">
        <ele>211.8</ele>
        <time>2022-04-03T13:40:58Z</time>
      </trkpt>
      <trkpt lat="45.97239" lon="0.57947">
        <ele>211.8</ele>
        <time>2022-04-03T13:40:59Z</time>
      </trkpt>
      <trkpt lat="45.97237" lon="0.57938">
        <ele>211.8</ele>
        <time>2022-04-03T13:41:00Z</time>
      </trkpt>
      <trkpt lat="45.97235" lon="0.5793">
        <ele>211.8</ele>
        <time>2022-04-03T13:41:01Z</time>
      </trkpt>
      <trkpt lat="45.97233" lon="0.57922">
        <ele>211.8</ele>
        <time>2022-04-03T13:41:02Z</time>
      </trkpt>
      <trkpt lat="45.97231" lon="0.57913">
        <ele>211.6</ele>
        <time>2022-04-03T13:41:03Z</time>
      </trkpt>
      <trkpt lat="45.97229" lon="0.57905">
        <ele>211.8</ele>
        <time>2022-04-03T13:41:04Z</time>
      </trkpt>
      <trkpt lat="45.97227" lon="0.57895">
        <ele>211.8</ele>
        <time>2022-04-03T13:41:05Z</time>
      </trkpt>
      <trkpt lat="45.97225" lon="0.57886">
        <ele>212</ele>
        <time>2022-04-03T13:41:06Z</time>
      </trkpt>
      <trkpt lat="45.97223" lon="0.57876">
        <ele>212</ele>
        <time>2022-04-03T13:41:07Z</time>
      </trkpt>
      <trkpt lat="45.97221" lon="0.57866">
        <ele>212.2</ele>
        <time>2022-04-03T13:41:08Z</time>
      </trkpt>
      <trkpt lat="45.97219" lon="0.57856">
        <ele>212</ele>
        <time>2022-04-03T13:41:09Z</time>
      </trkpt>
      <trkpt lat="45.97217" lon="0.57845">
        <ele>212</ele>
        <time>2022-04-03T13:41:10Z</time>
      </trkpt>
      <trkpt lat="45.97215" lon="0.57835">
        <ele>212.2</ele>
        <time>2022-04-03T13:41:11Z</time>
      </trkpt>
      <trkpt lat="45.97212" lon="0.57824">
        <ele>212.2</ele>
        <time>2022-04-03T13:41:12Z</time>
      </trkpt>
      <trkpt lat="45.9721" lon="0.57814">
        <ele>212.2</ele>
        <time>2022-04-03T13:41:13Z</time>
      </trkpt>
      <trkpt lat="45.97208" lon="0.57803">
        <ele>212</ele>
        <time>2022-04-03T13:41:14Z</time>
      </trkpt>
      <trkpt lat="45.97207" lon="0.57792">
        <ele>212.2</ele>
        <time>2022-04-03T13:41:15Z</time>
      </trkpt>
      <trkpt lat="45.97205" lon="0.57781">
        <ele>212.2</ele>
        <time>2022-04-03T13:41:16Z</time>
      </trkpt>
      <trkpt lat="45.97203" lon="0.5777">
        <ele>212.2</ele>
        <time>2022-04-03T13:41:17Z</time>
      </trkpt>
      <trkpt lat="45.97201" lon="0.57759">
        <ele>211.6</ele>
        <time>2022-04-03T13:41:18Z</time>
      </trkpt>
      <trkpt lat="45.972" lon="0.57747">
        <ele>211.2</ele>
        <time>2022-04-03T13:41:19Z</time>
      </trkpt>
      <trkpt lat="45.97197" lon="0.57736">
        <ele>210.6</ele>
        <time>2022-04-03T13:41:20Z</time>
      </trkpt>
      <trkpt lat="45.97195" lon="0.57725">
        <ele>210</ele>
        <time>2022-04-03T13:41:21Z</time>
      </trkpt>
      <trkpt lat="45.97193" lon="0.57714">
        <ele>209.8</ele>
        <time>2022-04-03T13:41:22Z</time>
      </trkpt>
      <trkpt lat="45.97191" lon="0.57703">
        <ele>209.6</ele>
        <time>2022-04-03T13:41:23Z</time>
      </trkpt>
      <trkpt lat="45.97189" lon="0.57691">
        <ele>209</ele>
        <time>2022-04-03T13:41:24Z</time>
      </trkpt>
      <trkpt lat="45.97188" lon="0.5768">
        <ele>208.4</ele>
        <time>2022-04-03T13:41:25Z</time>
      </trkpt>
      <trkpt lat="45.97186" lon="0.57668">
        <ele>207.8</ele>
        <time>2022-04-03T13:41:26Z</time>
      </trkpt>
      <trkpt lat="45.97186" lon="0.57656">
        <ele>207.2</ele>
        <time>2022-04-03T13:41:27Z</time>
      </trkpt>
      <trkpt lat="45.97185" lon="0.57645">
        <ele>207</ele>
        <time>2022-04-03T13:41:28Z</time>
      </trkpt>
      <trkpt lat="45.97186" lon="0.57634">
        <ele>206.8</ele>
        <time>2022-04-03T13:41:29Z</time>
      </trkpt>
      <trkpt lat="45.97187" lon="0.57623">
        <ele>206.6</ele>
        <time>2022-04-03T13:41:30Z</time>
      </trkpt>
      <trkpt lat="45.97188" lon="0.57613">
        <ele>206.6</ele>
        <time>2022-04-03T13:41:31Z</time>
      </trkpt>
      <trkpt lat="45.9719" lon="0.57603">
        <ele>206.2</ele>
        <time>2022-04-03T13:41:32Z</time>
      </trkpt>
      <trkpt lat="45.97191" lon="0.57593">
        <ele>206</ele>
        <time>2022-04-03T13:41:33Z</time>
      </trkpt>
      <trkpt lat="45.97193" lon="0.57583">
        <ele>205.6</ele>
        <time>2022-04-03T13:41:34Z</time>
      </trkpt>
      <trkpt lat="45.97195" lon="0.57574">
        <ele>205.4</ele>
        <time>2022-04-03T13:41:35Z</time>
      </trkpt>
      <trkpt lat="45.97196" lon="0.57564">
        <ele>205.4</ele>
        <time>2022-04-03T13:41:36Z</time>
      </trkpt>
      <trkpt lat="45.97197" lon="0.57555">
        <ele>205.2</ele>
        <time>2022-04-03T13:41:37Z</time>
      </trkpt>
      <trkpt lat="45.97199" lon="0.57546">
        <ele>205</ele>
        <time>2022-04-03T13:41:38Z</time>
      </trkpt>
      <trkpt lat="45.972" lon="0.57537">
        <ele>205.2</ele>
        <time>2022-04-03T13:41:39Z</time>
      </trkpt>
      <trkpt lat="45.97201" lon="0.57527">
        <ele>205</ele>
        <time>2022-04-03T13:41:40Z</time>
      </trkpt>
      <trkpt lat="45.97202" lon="0.57518">
        <ele>205</ele>
        <time>2022-04-03T13:41:41Z</time>
      </trkpt>
      <trkpt lat="45.97204" lon="0.57509">
        <ele>204.8</ele>
        <time>2022-04-03T13:41:42Z</time>
      </trkpt>
      <trkpt lat="45.97205" lon="0.57501">
        <ele>204.6</ele>
        <time>2022-04-03T13:41:43Z</time>
      </trkpt>
      <trkpt lat="45.97206" lon="0.57492">
        <ele>204.4</ele>
        <time>2022-04-03T13:41:44Z</time>
      </trkpt>
      <trkpt lat="45.97208" lon="0.57483">
        <ele>204.4</ele>
        <time>2022-04-03T13:41:45Z</time>
      </trkpt>
      <trkpt lat="45.97209" lon="0.57474">
        <ele>204.4</ele>
        <time>2022-04-03T13:41:46Z</time>
      </trkpt>
      <trkpt lat="45.97211" lon="0.57465">
        <ele>204.4</ele>
        <time>2022-04-03T13:41:47Z</time>
      </trkpt>
      <trkpt lat="45.97212" lon="0.57455">
        <ele>204.4</ele>
        <time>2022-04-03T13:41:48Z</time>
      </trkpt>
      <trkpt lat="45.97214" lon="0.57446">
        <ele>204.4</ele>
        <time>2022-04-03T13:41:49Z</time>
      </trkpt>
      <trkpt lat="45.97216" lon="0.57437">
        <ele>204.4</ele>
        <time>2022-04-03T13:41:50Z</time>
      </trkpt>
      <trkpt lat="45.97217" lon="0.57427">
        <ele>204.4</ele>
        <time>2022-04-03T13:41:51Z</time>
      </trkpt>
      <trkpt lat="45.97219" lon="0.57417">
        <ele>204.2</ele>
        <time>2022-04-03T13:41:52Z</time>
      </trkpt>
      <trkpt lat="45.9722" lon="0.57407">
        <ele>204</ele>
        <time>2022-04-03T13:41:53Z</time>
      </trkpt>
      <trkpt lat="45.97221" lon="0.57397">
        <ele>204.2</ele>
        <time>2022-04-03T13:41:54Z</time>
      </trkpt>
      <trkpt lat="45.97223" lon="0.57386">
        <ele>204</ele>
        <time>2022-04-03T13:41:55Z</time>
      </trkpt>
      <trkpt lat="45.97224" lon="0.57375">
        <ele>204</ele>
        <time>2022-04-03T13:41:56Z</time>
      </trkpt>
      <trkpt lat="45.97225" lon="0.57364">
        <ele>204</ele>
        <time>2022-04-03T13:41:57Z</time>
      </trkpt>
      <trkpt lat="45.97227" lon="0.57353">
        <ele>203.8</ele>
        <time>2022-04-03T13:41:58Z</time>
      </trkpt>
      <trkpt lat="45.97229" lon="0.57342">
        <ele>204</ele>
        <time>2022-04-03T13:41:59Z</time>
      </trkpt>
      <trkpt lat="45.97232" lon="0.5733">
        <ele>203.6</ele>
        <time>2022-04-03T13:42:00Z</time>
      </trkpt>
      <trkpt lat="45.97234" lon="0.57318">
        <ele>203.4</ele>
        <time>2022-04-03T13:42:01Z</time>
      </trkpt>
      <trkpt lat="45.97236" lon="0.57305">
        <ele>203.2</ele>
        <time>2022-04-03T13:42:02Z</time>
      </trkpt>
      <trkpt lat="45.97238" lon="0.57292">
        <ele>202.8</ele>
        <time>2022-04-03T13:42:03Z</time>
      </trkpt>
      <trkpt lat="45.97241" lon="0.57279">
        <ele>202.4</ele>
        <time>2022-04-03T13:42:04Z</time>
      </trkpt>
      <trkpt lat="45.97244" lon="0.57265">
        <ele>201.8</ele>
        <time>2022-04-03T13:42:05Z</time>
      </trkpt>
      <trkpt lat="45.97249" lon="0.57253">
        <ele>201.6</ele>
        <time>2022-04-03T13:42:06Z</time>
      </trkpt>
      <trkpt lat="45.97254" lon="0.5724">
        <ele>200.8</ele>
        <time>2022-04-03T13:42:07Z</time>
      </trkpt>
      <trkpt lat="45.9726" lon="0.57227">
        <ele>199.8</ele>
        <time>2022-04-03T13:42:08Z</time>
      </trkpt>
      <trkpt lat="45.97266" lon="0.57214">
        <ele>199.8</ele>
        <time>2022-04-03T13:42:09Z</time>
      </trkpt>
      <trkpt lat="45.97271" lon="0.57201">
        <ele>198.6</ele>
        <time>2022-04-03T13:42:10Z</time>
      </trkpt>
      <trkpt lat="45.97277" lon="0.57188">
        <ele>198</ele>
        <time>2022-04-03T13:42:11Z</time>
      </trkpt>
      <trkpt lat="45.97283" lon="0.57175">
        <ele>197.4</ele>
        <time>2022-04-03T13:42:12Z</time>
      </trkpt>
      <trkpt lat="45.97289" lon="0.57161">
        <ele>196.6</ele>
        <time>2022-04-03T13:42:13Z</time>
      </trkpt>
      <trkpt lat="45.97296" lon="0.57148">
        <ele>196</ele>
        <time>2022-04-03T13:42:14Z</time>
      </trkpt>
      <trkpt lat="45.97302" lon="0.57135">
        <ele>195</ele>
        <time>2022-04-03T13:42:15Z</time>
      </trkpt>
      <trkpt lat="45.97309" lon="0.57122">
        <ele>194</ele>
        <time>2022-04-03T13:42:16Z</time>
      </trkpt>
      <trkpt lat="45.97316" lon="0.57109">
        <ele>193</ele>
        <time>2022-04-03T13:42:17Z</time>
      </trkpt>
      <trkpt lat="45.97324" lon="0.57097">
        <ele>191.8</ele>
        <time>2022-04-03T13:42:18Z</time>
      </trkpt>
      <trkpt lat="45.97331" lon="0.57085">
        <ele>191</ele>
        <time>2022-04-03T13:42:19Z</time>
      </trkpt>
      <trkpt lat="45.97338" lon="0.57073">
        <ele>190.2</ele>
        <time>2022-04-03T13:42:20Z</time>
      </trkpt>
      <trkpt lat="45.97346" lon="0.57062">
        <ele>189.2</ele>
        <time>2022-04-03T13:42:21Z</time>
      </trkpt>
      <trkpt lat="45.97353" lon="0.5705">
        <ele>188</ele>
        <time>2022-04-03T13:42:22Z</time>
      </trkpt>
      <trkpt lat="45.9736" lon="0.57039">
        <ele>187.2</ele>
        <time>2022-04-03T13:42:23Z</time>
      </trkpt>
      <trkpt lat="45.97367" lon="0.57028">
        <ele>186.2</ele>
        <time>2022-04-03T13:42:24Z</time>
      </trkpt>
      <trkpt lat="45.97375" lon="0.57018">
        <ele>185.2</ele>
        <time>2022-04-03T13:42:25Z</time>
      </trkpt>
      <trkpt lat="45.97381" lon="0.57008">
        <ele>184.4</ele>
        <time>2022-04-03T13:42:26Z</time>
      </trkpt>
      <trkpt lat="45.97388" lon="0.56998">
        <ele>184</ele>
        <time>2022-04-03T13:42:27Z</time>
      </trkpt>
      <trkpt lat="45.97395" lon="0.56988">
        <ele>184</ele>
        <time>2022-04-03T13:42:28Z</time>
      </trkpt>
      <trkpt lat="45.97402" lon="0.56979">
        <ele>183.6</ele>
        <time>2022-04-03T13:42:29Z</time>
      </trkpt>
      <trkpt lat="45.97409" lon="0.5697">
        <ele>183.2</ele>
        <time>2022-04-03T13:42:30Z</time>
      </trkpt>
      <trkpt lat="45.97417" lon="0.56962">
        <ele>183</ele>
        <time>2022-04-03T13:42:31Z</time>
      </trkpt>
      <trkpt lat="45.97424" lon="0.56955">
        <ele>182.6</ele>
        <time>2022-04-03T13:42:32Z</time>
      </trkpt>
      <trkpt lat="45.97432" lon="0.5695">
        <ele>181.6</ele>
        <time>2022-04-03T13:42:33Z</time>
      </trkpt>
      <trkpt lat="45.9744" lon="0.56946">
        <ele>180.6</ele>
        <time>2022-04-03T13:42:34Z</time>
      </trkpt>
      <trkpt lat="45.97448" lon="0.56943">
        <ele>180</ele>
        <time>2022-04-03T13:42:35Z</time>
      </trkpt>
      <trkpt lat="45.97456" lon="0.5694">
        <ele>179.8</ele>
        <time>2022-04-03T13:42:36Z</time>
      </trkpt>
      <trkpt lat="45.97464" lon="0.56938">
        <ele>179.8</ele>
        <time>2022-04-03T13:42:37Z</time>
      </trkpt>
      <trkpt lat="45.97472" lon="0.56935">
        <ele>179.6</ele>
        <time>2022-04-03T13:42:38Z</time>
      </trkpt>
      <trkpt lat="45.9748" lon="0.56932">
        <ele>179.6</ele>
        <time>2022-04-03T13:42:39Z</time>
      </trkpt>
      <trkpt lat="45.97488" lon="0.5693">
        <ele>179.4</ele>
        <time>2022-04-03T13:42:40Z</time>
      </trkpt>
      <trkpt lat="45.97496" lon="0.56927">
        <ele>179.2</ele>
        <time>2022-04-03T13:42:41Z</time>
      </trkpt>
      <trkpt lat="45.97504" lon="0.56925">
        <ele>179.2</ele>
        <time>2022-04-03T13:42:42Z</time>
      </trkpt>
      <trkpt lat="45.97512" lon="0.56923">
        <ele>179.2</ele>
        <time>2022-04-03T13:42:43Z</time>
      </trkpt>
      <trkpt lat="45.9752" lon="0.56922">
        <ele>179.2</ele>
        <time>2022-04-03T13:42:44Z</time>
      </trkpt>
      <trkpt lat="45.97528" lon="0.56922">
        <ele>179.2</ele>
        <time>2022-04-03T13:42:45Z</time>
      </trkpt>
      <trkpt lat="45.97536" lon="0.56923">
        <ele>179.2</ele>
        <time>2022-04-03T13:42:46Z</time>
      </trkpt>
      <trkpt lat="45.97544" lon="0.56925">
        <ele>179.2</ele>
        <time>2022-04-03T13:42:47Z</time>
      </trkpt>
      <trkpt lat="45.97553" lon="0.56928">
        <ele>179</ele>
        <time>2022-04-03T13:42:48Z</time>
      </trkpt>
      <trkpt lat="45.97561" lon="0.56932">
        <ele>178.6</ele>
        <time>2022-04-03T13:42:49Z</time>
      </trkpt>
      <trkpt lat="45.97569" lon="0.56935">
        <ele>178.2</ele>
        <time>2022-04-03T13:42:50Z</time>
      </trkpt>
      <trkpt lat="45.97578" lon="0.56938">
        <ele>177.8</ele>
        <time>2022-04-03T13:42:51Z</time>
      </trkpt>
      <trkpt lat="45.97587" lon="0.56941">
        <ele>177.2</ele>
        <time>2022-04-03T13:42:52Z</time>
      </trkpt>
      <trkpt lat="45.97596" lon="0.56943">
        <ele>177</ele>
        <time>2022-04-03T13:42:53Z</time>
      </trkpt>
      <trkpt lat="45.97605" lon="0.56945">
        <ele>176.6</ele>
        <time>2022-04-03T13:42:54Z</time>
      </trkpt>
      <trkpt lat="45.97614" lon="0.56946">
        <ele>176</ele>
        <time>2022-04-03T13:42:55Z</time>
      </trkpt>
      <trkpt lat="45.97624" lon="0.56948">
        <ele>175.8</ele>
        <time>2022-04-03T13:42:56Z</time>
      </trkpt>
      <trkpt lat="45.97633" lon="0.56949">
        <ele>175.4</ele>
        <time>2022-04-03T13:42:57Z</time>
      </trkpt>
      <trkpt lat="45.97642" lon="0.5695">
        <ele>174.8</ele>
        <time>2022-04-03T13:42:58Z</time>
      </trkpt>
      <trkpt lat="45.9765" lon="0.5695">
        <ele>174</ele>
        <time>2022-04-03T13:42:59Z</time>
      </trkpt>
      <trkpt lat="45.97659" lon="0.56951">
        <ele>173.4</ele>
        <time>2022-04-03T13:43:00Z</time>
      </trkpt>
      <trkpt lat="45.97666" lon="0.56951">
        <ele>172.4</ele>
        <time>2022-04-03T13:43:01Z</time>
      </trkpt>
      <trkpt lat="45.97674" lon="0.56951">
        <ele>171.6</ele>
        <time>2022-04-03T13:43:02Z</time>
      </trkpt>
      <trkpt lat="45.97681" lon="0.56952">
        <ele>171.2</ele>
        <time>2022-04-03T13:43:03Z</time>
      </trkpt>
      <trkpt lat="45.97687" lon="0.56952">
        <ele>171</ele>
        <time>2022-04-03T13:43:04Z</time>
      </trkpt>
      <trkpt lat="45.97693" lon="0.56952">
        <ele>171</ele>
        <time>2022-04-03T13:43:05Z</time>
      </trkpt>
      <trkpt lat="45.97698" lon="0.56952">
        <ele>171</ele>
        <time>2022-04-03T13:43:06Z</time>
      </trkpt>
      <trkpt lat="45.97703" lon="0.56953">
        <ele>170.8</ele>
        <time>2022-04-03T13:43:07Z</time>
      </trkpt>
      <trkpt lat="45.97706" lon="0.56953">
        <ele>170.8</ele>
        <time>2022-04-03T13:43:08Z</time>
      </trkpt>
      <trkpt lat="45.97709" lon="0.56953">
        <ele>170.8</ele>
        <time>2022-04-03T13:43:09Z</time>
      </trkpt>
      <trkpt lat="45.97712" lon="0.56952">
        <ele>170.8</ele>
        <time>2022-04-03T13:43:10Z</time>
      </trkpt>
      <trkpt lat="45.97714" lon="0.56951">
        <ele>170.8</ele>
        <time>2022-04-03T13:43:11Z</time>
      </trkpt>
      <trkpt lat="45.97716" lon="0.56951">
        <ele>170.8</ele>
        <time>2022-04-03T13:43:12Z</time>
      </trkpt>
      <trkpt lat="45.97718" lon="0.5695">
        <ele>171.2</ele>
        <time>2022-04-03T13:43:13Z</time>
      </trkpt>
      <trkpt lat="45.9772" lon="0.5695">
        <ele>171.8</ele>
        <time>2022-04-03T13:43:14Z</time>
      </trkpt>
      <trkpt lat="45.97722" lon="0.5695">
        <ele>172</ele>
        <time>2022-04-03T13:43:15Z</time>
      </trkpt>
      <trkpt lat="45.97724" lon="0.56949">
        <ele>172.8</ele>
        <time>2022-04-03T13:43:16Z</time>
      </trkpt>
      <trkpt lat="45.97726" lon="0.56947">
        <ele>173.4</ele>
        <time>2022-04-03T13:43:17Z</time>
      </trkpt>
      <trkpt lat="45.97728" lon="0.56946">
        <ele>173.8</ele>
        <time>2022-04-03T13:43:18Z</time>
      </trkpt>
      <trkpt lat="45.9773" lon="0.56945">
        <ele>174.4</ele>
        <time>2022-04-03T13:43:19Z</time>
      </trkpt>
      <trkpt lat="45.97731" lon="0.56944">
        <ele>174.6</ele>
        <time>2022-04-03T13:43:20Z</time>
      </trkpt>
      <trkpt lat="45.97733" lon="0.56943">
        <ele>175</ele>
        <time>2022-04-03T13:43:21Z</time>
      </trkpt>
      <trkpt lat="45.97735" lon="0.56942">
        <ele>175.2</ele>
        <time>2022-04-03T13:43:22Z</time>
      </trkpt>
      <trkpt lat="45.97737" lon="0.56941">
        <ele>175.8</ele>
        <time>2022-04-03T13:43:23Z</time>
      </trkpt>
      <trkpt lat="45.97738" lon="0.5694">
        <ele>176</ele>
        <time>2022-04-03T13:43:24Z</time>
      </trkpt>
      <trkpt lat="45.9774" lon="0.56939">
        <ele>176</ele>
        <time>2022-04-03T13:43:25Z</time>
      </trkpt>
      <trkpt lat="45.97742" lon="0.56938">
        <ele>176.2</ele>
        <time>2022-04-03T13:43:26Z</time>
      </trkpt>
      <trkpt lat="45.97743" lon="0.56937">
        <ele>176.2</ele>
        <time>2022-04-03T13:43:27Z</time>
      </trkpt>
      <trkpt lat="45.97745" lon="0.56936">
        <ele>176.4</ele>
        <time>2022-04-03T13:43:28Z</time>
      </trkpt>
      <trkpt lat="45.97747" lon="0.56935">
        <ele>176.4</ele>
        <time>2022-04-03T13:43:29Z</time>
      </trkpt>
      <trkpt lat="45.97748" lon="0.56933">
        <ele>176.6</ele>
        <time>2022-04-03T13:43:30Z</time>
      </trkpt>
      <trkpt lat="45.9775" lon="0.56932">
        <ele>176.6</ele>
        <time>2022-04-03T13:43:31Z</time>
      </trkpt>
      <trkpt lat="45.97751" lon="0.56931">
        <ele>176.6</ele>
        <time>2022-04-03T13:43:32Z</time>
      </trkpt>
      <trkpt lat="45.97753" lon="0.56929">
        <ele>177</ele>
        <time>2022-04-03T13:43:33Z</time>
      </trkpt>
      <trkpt lat="45.97754" lon="0.56928">
        <ele>177.4</ele>
        <time>2022-04-03T13:43:34Z</time>
      </trkpt>
      <trkpt lat="45.97756" lon="0.56926">
        <ele>177.6</ele>
        <time>2022-04-03T13:43:35Z</time>
      </trkpt>
      <trkpt lat="45.97757" lon="0.56926">
        <ele>177.6</ele>
        <time>2022-04-03T13:43:36Z</time>
      </trkpt>
      <trkpt lat="45.97759" lon="0.56925">
        <ele>178</ele>
        <time>2022-04-03T13:43:37Z</time>
      </trkpt>
      <trkpt lat="45.97761" lon="0.56925">
        <ele>178.2</ele>
        <time>2022-04-03T13:43:38Z</time>
      </trkpt>
      <trkpt lat="45.97762" lon="0.56924">
        <ele>178.4</ele>
        <time>2022-04-03T13:43:39Z</time>
      </trkpt>
      <trkpt lat="45.97764" lon="0.56923">
        <ele>178.8</ele>
        <time>2022-04-03T13:43:40Z</time>
      </trkpt>
      <trkpt lat="45.97766" lon="0.56923">
        <ele>179</ele>
        <time>2022-04-03T13:43:41Z</time>
      </trkpt>
      <trkpt lat="45.97767" lon="0.56922">
        <ele>179</ele>
        <time>2022-04-03T13:43:42Z</time>
      </trkpt>
      <trkpt lat="45.97769" lon="0.56921">
        <ele>179.4</ele>
        <time>2022-04-03T13:43:43Z</time>
      </trkpt>
      <trkpt lat="45.9777" lon="0.56919">
        <ele>179.4</ele>
        <time>2022-04-03T13:43:44Z</time>
      </trkpt>
      <trkpt lat="45.97772" lon="0.56918">
        <ele>179.6</ele>
        <time>2022-04-03T13:43:45Z</time>
      </trkpt>
      <trkpt lat="45.97773" lon="0.56917">
        <ele>179.6</ele>
        <time>2022-04-03T13:43:46Z</time>
      </trkpt>
      <trkpt lat="45.97775" lon="0.56916">
        <ele>179.8</ele>
        <time>2022-04-03T13:43:47Z</time>
      </trkpt>
      <trkpt lat="45.97777" lon="0.56915">
        <ele>180</ele>
        <time>2022-04-03T13:43:48Z</time>
      </trkpt>
      <trkpt lat="45.97778" lon="0.56914">
        <ele>180</ele>
        <time>2022-04-03T13:43:49Z</time>
      </trkpt>
      <trkpt lat="45.9778" lon="0.56913">
        <ele>180.4</ele>
        <time>2022-04-03T13:43:50Z</time>
      </trkpt>
      <trkpt lat="45.97782" lon="0.56913">
        <ele>180.4</ele>
        <time>2022-04-03T13:43:51Z</time>
      </trkpt>
      <trkpt lat="45.97784" lon="0.56912">
        <ele>180.8</ele>
        <time>2022-04-03T13:43:52Z</time>
      </trkpt>
      <trkpt lat="45.97785" lon="0.56911">
        <ele>181</ele>
        <time>2022-04-03T13:43:53Z</time>
      </trkpt>
      <trkpt lat="45.97787" lon="0.5691">
        <ele>181.2</ele>
        <time>2022-04-03T13:43:54Z</time>
      </trkpt>
      <trkpt lat="45.97789" lon="0.5691">
        <ele>181.4</ele>
        <time>2022-04-03T13:43:55Z</time>
      </trkpt>
      <trkpt lat="45.9779" lon="0.56909">
        <ele>181.6</ele>
        <time>2022-04-03T13:43:56Z</time>
      </trkpt>
      <trkpt lat="45.97792" lon="0.56908">
        <ele>181.8</ele>
        <time>2022-04-03T13:43:57Z</time>
      </trkpt>
      <trkpt lat="45.97794" lon="0.56908">
        <ele>182</ele>
        <time>2022-04-03T13:43:58Z</time>
      </trkpt>
      <trkpt lat="45.97795" lon="0.56907">
        <ele>182.4</ele>
        <time>2022-04-03T13:43:59Z</time>
      </trkpt>
      <trkpt lat="45.97797" lon="0.56906">
        <ele>182.6</ele>
        <time>2022-04-03T13:44:00Z</time>
      </trkpt>
      <trkpt lat="45.97798" lon="0.56905">
        <ele>182.8</ele>
        <time>2022-04-03T13:44:01Z</time>
      </trkpt>
      <trkpt lat="45.978" lon="0.56905">
        <ele>183</ele>
        <time>2022-04-03T13:44:02Z</time>
      </trkpt>
      <trkpt lat="45.97802" lon="0.56904">
        <ele>183</ele>
        <time>2022-04-03T13:44:03Z</time>
      </trkpt>
      <trkpt lat="45.97803" lon="0.56904">
        <ele>183.2</ele>
        <time>2022-04-03T13:44:04Z</time>
      </trkpt>
      <trkpt lat="45.97805" lon="0.56903">
        <ele>183.4</ele>
        <time>2022-04-03T13:44:05Z</time>
      </trkpt>
      <trkpt lat="45.97807" lon="0.56902">
        <ele>183.8</ele>
        <time>2022-04-03T13:44:06Z</time>
      </trkpt>
      <trkpt lat="45.97809" lon="0.56902">
        <ele>184</ele>
        <time>2022-04-03T13:44:07Z</time>
      </trkpt>
      <trkpt lat="45.9781" lon="0.56902">
        <ele>184.2</ele>
        <time>2022-04-03T13:44:08Z</time>
      </trkpt>
      <trkpt lat="45.97812" lon="0.56901">
        <ele>184.2</ele>
        <time>2022-04-03T13:44:09Z</time>
      </trkpt>
      <trkpt lat="45.97814" lon="0.569">
        <ele>184.4</ele>
        <time>2022-04-03T13:44:10Z</time>
      </trkpt>
      <trkpt lat="45.97816" lon="0.569">
        <ele>184.6</ele>
        <time>2022-04-03T13:44:11Z</time>
      </trkpt>
      <trkpt lat="45.97817" lon="0.56899">
        <ele>184.8</ele>
        <time>2022-04-03T13:44:12Z</time>
      </trkpt>
      <trkpt lat="45.97819" lon="0.56899">
        <ele>185</ele>
        <time>2022-04-03T13:44:13Z</time>
      </trkpt>
      <trkpt lat="45.97821" lon="0.56898">
        <ele>185.2</ele>
        <time>2022-04-03T13:44:14Z</time>
      </trkpt>
      <trkpt lat="45.97823" lon="0.56898">
        <ele>185.4</ele>
        <time>2022-04-03T13:44:15Z</time>
      </trkpt>
      <trkpt lat="45.97825" lon="0.56897">
        <ele>185.6</ele>
        <time>2022-04-03T13:44:16Z</time>
      </trkpt>
      <trkpt lat="45.97827" lon="0.56897">
        <ele>185.8</ele>
        <time>2022-04-03T13:44:17Z</time>
      </trkpt>
      <trkpt lat="45.97829" lon="0.56897">
        <ele>185.8</ele>
        <time>2022-04-03T13:44:18Z</time>
      </trkpt>
      <trkpt lat="45.97831" lon="0.56897">
        <ele>185.8</ele>
        <time>2022-04-03T13:44:19Z</time>
      </trkpt>
      <trkpt lat="45.97833" lon="0.56896">
        <ele>186.2</ele>
        <time>2022-04-03T13:44:20Z</time>
      </trkpt>
      <trkpt lat="45.97834" lon="0.56896">
        <ele>186.2</ele>
        <time>2022-04-03T13:44:21Z</time>
      </trkpt>
      <trkpt lat="45.97836" lon="0.56896">
        <ele>186.2</ele>
        <time>2022-04-03T13:44:22Z</time>
      </trkpt>
      <trkpt lat="45.97838" lon="0.56896">
        <ele>186.4</ele>
        <time>2022-04-03T13:44:23Z</time>
      </trkpt>
      <trkpt lat="45.9784" lon="0.56895">
        <ele>186.6</ele>
        <time>2022-04-03T13:44:24Z</time>
      </trkpt>
      <trkpt lat="45.97843" lon="0.56895">
        <ele>187</ele>
        <time>2022-04-03T13:44:25Z</time>
      </trkpt>
      <trkpt lat="45.97845" lon="0.56895">
        <ele>187.2</ele>
        <time>2022-04-03T13:44:26Z</time>
      </trkpt>
      <trkpt lat="45.97847" lon="0.56894">
        <ele>187.4</ele>
        <time>2022-04-03T13:44:27Z</time>
      </trkpt>
      <trkpt lat="45.97849" lon="0.56894">
        <ele>187.6</ele>
        <time>2022-04-03T13:44:28Z</time>
      </trkpt>
      <trkpt lat="45.97851" lon="0.56893">
        <ele>187.6</ele>
        <time>2022-04-03T13:44:29Z</time>
      </trkpt>
      <trkpt lat="45.97853" lon="0.56892">
        <ele>187.8</ele>
        <time>2022-04-03T13:44:30Z</time>
      </trkpt>
      <trkpt lat="45.97855" lon="0.56892">
        <ele>188</ele>
        <time>2022-04-03T13:44:31Z</time>
      </trkpt>
      <trkpt lat="45.97857" lon="0.56891">
        <ele>188</ele>
        <time>2022-04-03T13:44:32Z</time>
      </trkpt>
      <trkpt lat="45.97859" lon="0.56891">
        <ele>188.2</ele>
        <time>2022-04-03T13:44:33Z</time>
      </trkpt>
      <trkpt lat="45.97861" lon="0.5689">
        <ele>188.2</ele>
        <time>2022-04-03T13:44:34Z</time>
      </trkpt>
      <trkpt lat="45.97863" lon="0.5689">
        <ele>188.4</ele>
        <time>2022-04-03T13:44:35Z</time>
      </trkpt>
      <trkpt lat="45.97865" lon="0.56889">
        <ele>188.6</ele>
        <time>2022-04-03T13:44:36Z</time>
      </trkpt>
      <trkpt lat="45.97867" lon="0.56888">
        <ele>188.6</ele>
        <time>2022-04-03T13:44:37Z</time>
      </trkpt>
      <trkpt lat="45.97869" lon="0.56888">
        <ele>188.6</ele>
        <time>2022-04-03T13:44:38Z</time>
      </trkpt>
      <trkpt lat="45.9787" lon="0.56888">
        <ele>188.6</ele>
        <time>2022-04-03T13:44:39Z</time>
      </trkpt>
      <trkpt lat="45.97872" lon="0.56887">
        <ele>188.6</ele>
        <time>2022-04-03T13:44:40Z</time>
      </trkpt>
      <trkpt lat="45.97874" lon="0.56886">
        <ele>188.6</ele>
        <time>2022-04-03T13:44:41Z</time>
      </trkpt>
      <trkpt lat="45.97876" lon="0.56886">
        <ele>188.8</ele>
        <time>2022-04-03T13:44:42Z</time>
      </trkpt>
      <trkpt lat="45.97878" lon="0.56886">
        <ele>188.8</ele>
        <time>2022-04-03T13:44:43Z</time>
      </trkpt>
      <trkpt lat="45.9788" lon="0.56885">
        <ele>189</ele>
        <time>2022-04-03T13:44:44Z</time>
      </trkpt>
      <trkpt lat="45.97882" lon="0.56884">
        <ele>189</ele>
        <time>2022-04-03T13:44:45Z</time>
      </trkpt>
      <trkpt lat="45.97884" lon="0.56884">
        <ele>189.2</ele>
        <time>2022-04-03T13:44:46Z</time>
      </trkpt>
      <trkpt lat="45.97886" lon="0.56883">
        <ele>189.4</ele>
        <time>2022-04-03T13:44:47Z</time>
      </trkpt>
      <trkpt lat="45.97888" lon="0.56882">
        <ele>189.6</ele>
        <time>2022-04-03T13:44:48Z</time>
      </trkpt>
      <trkpt lat="45.9789" lon="0.56881">
        <ele>189.6</ele>
        <time>2022-04-03T13:44:49Z</time>
      </trkpt>
      <trkpt lat="45.97892" lon="0.56881">
        <ele>189.6</ele>
        <time>2022-04-03T13:44:50Z</time>
      </trkpt>
      <trkpt lat="45.97895" lon="0.5688">
        <ele>190</ele>
        <time>2022-04-03T13:44:51Z</time>
      </trkpt>
      <trkpt lat="45.97897" lon="0.56879">
        <ele>190.4</ele>
        <time>2022-04-03T13:44:52Z</time>
      </trkpt>
      <trkpt lat="45.97899" lon="0.56878">
        <ele>190.6</ele>
        <time>2022-04-03T13:44:53Z</time>
      </trkpt>
      <trkpt lat="45.97901" lon="0.56878">
        <ele>190.6</ele>
        <time>2022-04-03T13:44:54Z</time>
      </trkpt>
      <trkpt lat="45.97903" lon="0.56876">
        <ele>190.8</ele>
        <time>2022-04-03T13:44:55Z</time>
      </trkpt>
      <trkpt lat="45.97904" lon="0.56874">
        <ele>190.6</ele>
        <time>2022-04-03T13:44:56Z</time>
      </trkpt>
      <trkpt lat="45.97905" lon="0.56872">
        <ele>190.8</ele>
        <time>2022-04-03T13:44:57Z</time>
      </trkpt>
      <trkpt lat="45.97905" lon="0.56869">
        <ele>190.8</ele>
        <time>2022-04-03T13:44:58Z</time>
      </trkpt>
      <trkpt lat="45.97906" lon="0.56866">
        <ele>190.8</ele>
        <time>2022-04-03T13:44:59Z</time>
      </trkpt>
      <trkpt lat="45.97906" lon="0.56863">
        <ele>191</ele>
        <time>2022-04-03T13:45:00Z</time>
      </trkpt>
      <trkpt lat="45.97906" lon="0.5686">
        <ele>191</ele>
        <time>2022-04-03T13:45:01Z</time>
      </trkpt>
      <trkpt lat="45.97906" lon="0.56857">
        <ele>191</ele>
        <time>2022-04-03T13:45:02Z</time>
      </trkpt>
      <trkpt lat="45.97906" lon="0.56854">
        <ele>191</ele>
        <time>2022-04-03T13:45:03Z</time>
      </trkpt>
      <trkpt lat="45.97906" lon="0.56851">
        <ele>191</ele>
        <time>2022-04-03T13:45:04Z</time>
      </trkpt>
      <trkpt lat="45.97906" lon="0.56847">
        <ele>191.2</ele>
        <time>2022-04-03T13:45:05Z</time>
      </trkpt>
      <trkpt lat="45.97905" lon="0.56844">
        <ele>191.2</ele>
        <time>2022-04-03T13:45:06Z</time>
      </trkpt>
      <trkpt lat="45.97905" lon="0.56841">
        <ele>191.4</ele>
        <time>2022-04-03T13:45:07Z</time>
      </trkpt>
      <trkpt lat="45.97905" lon="0.56838">
        <ele>191.4</ele>
        <time>2022-04-03T13:45:08Z</time>
      </trkpt>
      <trkpt lat="45.97904" lon="0.56835">
        <ele>191.6</ele>
        <time>2022-04-03T13:45:09Z</time>
      </trkpt>
      <trkpt lat="45.97904" lon="0.56832">
        <ele>191.8</ele>
        <time>2022-04-03T13:45:10Z</time>
      </trkpt>
      <trkpt lat="45.97904" lon="0.56829">
        <ele>192.2</ele>
        <time>2022-04-03T13:45:11Z</time>
      </trkpt>
      <trkpt lat="45.97903" lon="0.56826">
        <ele>192.4</ele>
        <time>2022-04-03T13:45:12Z</time>
      </trkpt>
      <trkpt lat="45.97903" lon="0.56823">
        <ele>192.4</ele>
        <time>2022-04-03T13:45:13Z</time>
      </trkpt>
      <trkpt lat="45.97903" lon="0.5682">
        <ele>192.8</ele>
        <time>2022-04-03T13:45:14Z</time>
      </trkpt>
      <trkpt lat="45.97902" lon="0.56817">
        <ele>192.8</ele>
        <time>2022-04-03T13:45:15Z</time>
      </trkpt>
      <trkpt lat="45.97902" lon="0.56814">
        <ele>192.8</ele>
        <time>2022-04-03T13:45:16Z</time>
      </trkpt>
      <trkpt lat="45.97901" lon="0.56811">
        <ele>193</ele>
        <time>2022-04-03T13:45:17Z</time>
      </trkpt>
      <trkpt lat="45.97901" lon="0.56808">
        <ele>193</ele>
        <time>2022-04-03T13:45:18Z</time>
      </trkpt>
      <trkpt lat="45.97901" lon="0.56805">
        <ele>193.2</ele>
        <time>2022-04-03T13:45:19Z</time>
      </trkpt>
      <trkpt lat="45.97901" lon="0.56801">
        <ele>193.4</ele>
        <time>2022-04-03T13:45:20Z</time>
      </trkpt>
      <trkpt lat="45.97901" lon="0.56798">
        <ele>193.4</ele>
        <time>2022-04-03T13:45:21Z</time>
      </trkpt>
      <trkpt lat="45.97901" lon="0.56794">
        <ele>193.8</ele>
        <time>2022-04-03T13:45:22Z</time>
      </trkpt>
      <trkpt lat="45.979" lon="0.56791">
        <ele>194</ele>
        <time>2022-04-03T13:45:23Z</time>
      </trkpt>
      <trkpt lat="45.979" lon="0.56788">
        <ele>194</ele>
        <time>2022-04-03T13:45:24Z</time>
      </trkpt>
      <trkpt lat="45.979" lon="0.56784">
        <ele>194.2</ele>
        <time>2022-04-03T13:45:25Z</time>
      </trkpt>
      <trkpt lat="45.979" lon="0.56781">
        <ele>194.4</ele>
        <time>2022-04-03T13:45:26Z</time>
      </trkpt>
      <trkpt lat="45.979" lon="0.56777">
        <ele>194.4</ele>
        <time>2022-04-03T13:45:27Z</time>
      </trkpt>
      <trkpt lat="45.979" lon="0.56774">
        <ele>194.6</ele>
        <time>2022-04-03T13:45:28Z</time>
      </trkpt>
      <trkpt lat="45.979" lon="0.5677">
        <ele>194.8</ele>
        <time>2022-04-03T13:45:29Z</time>
      </trkpt>
      <trkpt lat="45.979" lon="0.56766">
        <ele>194.8</ele>
        <time>2022-04-03T13:45:30Z</time>
      </trkpt>
      <trkpt lat="45.979" lon="0.56763">
        <ele>194.8</ele>
        <time>2022-04-03T13:45:31Z</time>
      </trkpt>
      <trkpt lat="45.979" lon="0.56759">
        <ele>195</ele>
        <time>2022-04-03T13:45:32Z</time>
      </trkpt>
      <trkpt lat="45.979" lon="0.56756">
        <ele>195</ele>
        <time>2022-04-03T13:45:33Z</time>
      </trkpt>
      <trkpt lat="45.979" lon="0.56752">
        <ele>195</ele>
        <time>2022-04-03T13:45:34Z</time>
      </trkpt>
      <trkpt lat="45.979" lon="0.56749">
        <ele>195.2</ele>
        <time>2022-04-03T13:45:35Z</time>
      </trkpt>
      <trkpt lat="45.97901" lon="0.56746">
        <ele>195.2</ele>
        <time>2022-04-03T13:45:36Z</time>
      </trkpt>
      <trkpt lat="45.97901" lon="0.56742">
        <ele>195.2</ele>
        <time>2022-04-03T13:45:37Z</time>
      </trkpt>
      <trkpt lat="45.97901" lon="0.56739">
        <ele>195.2</ele>
        <time>2022-04-03T13:45:38Z</time>
      </trkpt>
      <trkpt lat="45.97902" lon="0.56735">
        <ele>195.2</ele>
        <time>2022-04-03T13:45:39Z</time>
      </trkpt>
      <trkpt lat="45.97902" lon="0.56732">
        <ele>195.4</ele>
        <time>2022-04-03T13:45:40Z</time>
      </trkpt>
      <trkpt lat="45.97902" lon="0.56728">
        <ele>195.4</ele>
        <time>2022-04-03T13:45:41Z</time>
      </trkpt>
      <trkpt lat="45.97902" lon="0.56724">
        <ele>195.6</ele>
        <time>2022-04-03T13:45:42Z</time>
      </trkpt>
      <trkpt lat="45.97903" lon="0.5672">
        <ele>195.8</ele>
        <time>2022-04-03T13:45:43Z</time>
      </trkpt>
      <trkpt lat="45.97903" lon="0.56716">
        <ele>195.8</ele>
        <time>2022-04-03T13:45:44Z</time>
      </trkpt>
      <trkpt lat="45.97904" lon="0.56712">
        <ele>196</ele>
        <time>2022-04-03T13:45:45Z</time>
      </trkpt>
      <trkpt lat="45.97905" lon="0.56707">
        <ele>196</ele>
        <time>2022-04-03T13:45:46Z</time>
      </trkpt>
      <trkpt lat="45.97906" lon="0.56702">
        <ele>196</ele>
        <time>2022-04-03T13:45:47Z</time>
      </trkpt>
      <trkpt lat="45.97906" lon="0.56697">
        <ele>196.2</ele>
        <time>2022-04-03T13:45:48Z</time>
      </trkpt>
      <trkpt lat="45.97907" lon="0.56691">
        <ele>196</ele>
        <time>2022-04-03T13:45:49Z</time>
      </trkpt>
      <trkpt lat="45.97908" lon="0.56685">
        <ele>196</ele>
        <time>2022-04-03T13:45:50Z</time>
      </trkpt>
      <trkpt lat="45.97909" lon="0.56678">
        <ele>196</ele>
        <time>2022-04-03T13:45:51Z</time>
      </trkpt>
      <trkpt lat="45.9791" lon="0.56671">
        <ele>196</ele>
        <time>2022-04-03T13:45:52Z</time>
      </trkpt>
      <trkpt lat="45.97912" lon="0.56664">
        <ele>196</ele>
        <time>2022-04-03T13:45:53Z</time>
      </trkpt>
      <trkpt lat="45.97914" lon="0.56657">
        <ele>196</ele>
        <time>2022-04-03T13:45:54Z</time>
      </trkpt>
      <trkpt lat="45.97916" lon="0.5665">
        <ele>195.8</ele>
        <time>2022-04-03T13:45:55Z</time>
      </trkpt>
      <trkpt lat="45.97919" lon="0.56643">
        <ele>195.8</ele>
        <time>2022-04-03T13:45:56Z</time>
      </trkpt>
      <trkpt lat="45.97922" lon="0.56635">
        <ele>195.4</ele>
        <time>2022-04-03T13:45:57Z</time>
      </trkpt>
      <trkpt lat="45.97925" lon="0.56627">
        <ele>195.2</ele>
        <time>2022-04-03T13:45:58Z</time>
      </trkpt>
      <trkpt lat="45.97927" lon="0.56619">
        <ele>195</ele>
        <time>2022-04-03T13:45:59Z</time>
      </trkpt>
      <trkpt lat="45.9793" lon="0.5661">
        <ele>194.4</ele>
        <time>2022-04-03T13:46:00Z</time>
      </trkpt>
      <trkpt lat="45.97934" lon="0.56601">
        <ele>194.2</ele>
        <time>2022-04-03T13:46:01Z</time>
      </trkpt>
      <trkpt lat="45.97937" lon="0.56593">
        <ele>193.6</ele>
        <time>2022-04-03T13:46:02Z</time>
      </trkpt>
      <trkpt lat="45.97941" lon="0.56584">
        <ele>193.4</ele>
        <time>2022-04-03T13:46:03Z</time>
      </trkpt>
      <trkpt lat="45.97944" lon="0.56575">
        <ele>193.2</ele>
        <time>2022-04-03T13:46:04Z</time>
      </trkpt>
      <trkpt lat="45.97948" lon="0.56565">
        <ele>192.8</ele>
        <time>2022-04-03T13:46:05Z</time>
      </trkpt>
      <trkpt lat="45.97952" lon="0.56555">
        <ele>192.4</ele>
        <time>2022-04-03T13:46:06Z</time>
      </trkpt>
      <trkpt lat="45.97956" lon="0.56545">
        <ele>192</ele>
        <time>2022-04-03T13:46:07Z</time>
      </trkpt>
      <trkpt lat="45.9796" lon="0.56534">
        <ele>191.4</ele>
        <time>2022-04-03T13:46:08Z</time>
      </trkpt>
      <trkpt lat="45.97964" lon="0.56523">
        <ele>191</ele>
        <time>2022-04-03T13:46:09Z</time>
      </trkpt>
      <trkpt lat="45.97968" lon="0.56512">
        <ele>190.4</ele>
        <time>2022-04-03T13:46:10Z</time>
      </trkpt>
      <trkpt lat="45.97972" lon="0.565">
        <ele>189.8</ele>
        <time>2022-04-03T13:46:11Z</time>
      </trkpt>
      <trkpt lat="45.97976" lon="0.56489">
        <ele>189.4</ele>
        <time>2022-04-03T13:46:12Z</time>
      </trkpt>
      <trkpt lat="45.9798" lon="0.56478">
        <ele>189</ele>
        <time>2022-04-03T13:46:13Z</time>
      </trkpt>
      <trkpt lat="45.97985" lon="0.56468">
        <ele>189</ele>
        <time>2022-04-03T13:46:14Z</time>
      </trkpt>
      <trkpt lat="45.97989" lon="0.56457">
        <ele>188.6</ele>
        <time>2022-04-03T13:46:15Z</time>
      </trkpt>
      <trkpt lat="45.97993" lon="0.56446">
        <ele>187.6</ele>
        <time>2022-04-03T13:46:16Z</time>
      </trkpt>
      <trkpt lat="45.97997" lon="0.56435">
        <ele>187.2</ele>
        <time>2022-04-03T13:46:17Z</time>
      </trkpt>
      <trkpt lat="45.98001" lon="0.56425">
        <ele>186.4</ele>
        <time>2022-04-03T13:46:18Z</time>
      </trkpt>
      <trkpt lat="45.98004" lon="0.56415">
        <ele>185.8</ele>
        <time>2022-04-03T13:46:19Z</time>
      </trkpt>
      <trkpt lat="45.98008" lon="0.56404">
        <ele>184.6</ele>
        <time>2022-04-03T13:46:20Z</time>
      </trkpt>
      <trkpt lat="45.98013" lon="0.56393">
        <ele>183.8</ele>
        <time>2022-04-03T13:46:21Z</time>
      </trkpt>
      <trkpt lat="45.98017" lon="0.56381">
        <ele>183.4</ele>
        <time>2022-04-03T13:46:22Z</time>
      </trkpt>
      <trkpt lat="45.98021" lon="0.56369">
        <ele>182.8</ele>
        <time>2022-04-03T13:46:23Z</time>
      </trkpt>
      <trkpt lat="45.98026" lon="0.56356">
        <ele>181.8</ele>
        <time>2022-04-03T13:46:24Z</time>
      </trkpt>
      <trkpt lat="45.98031" lon="0.56343">
        <ele>181</ele>
        <time>2022-04-03T13:46:25Z</time>
      </trkpt>
      <trkpt lat="45.98036" lon="0.56329">
        <ele>179.8</ele>
        <time>2022-04-03T13:46:26Z</time>
      </trkpt>
      <trkpt lat="45.9804" lon="0.56315">
        <ele>179</ele>
        <time>2022-04-03T13:46:27Z</time>
      </trkpt>
      <trkpt lat="45.98043" lon="0.56301">
        <ele>178.2</ele>
        <time>2022-04-03T13:46:28Z</time>
      </trkpt>
      <trkpt lat="45.98046" lon="0.56287">
        <ele>177.6</ele>
        <time>2022-04-03T13:46:29Z</time>
      </trkpt>
      <trkpt lat="45.98049" lon="0.56272">
        <ele>177</ele>
        <time>2022-04-03T13:46:30Z</time>
      </trkpt>
      <trkpt lat="45.98052" lon="0.56256">
        <ele>176.4</ele>
        <time>2022-04-03T13:46:31Z</time>
      </trkpt>
      <trkpt lat="45.98053" lon="0.5624">
        <ele>175.4</ele>
        <time>2022-04-03T13:46:32Z</time>
      </trkpt>
      <trkpt lat="45.98054" lon="0.56224">
        <ele>175.4</ele>
        <time>2022-04-03T13:46:33Z</time>
      </trkpt>
      <trkpt lat="45.98055" lon="0.56207">
        <ele>174.2</ele>
        <time>2022-04-03T13:46:34Z</time>
      </trkpt>
      <trkpt lat="45.98055" lon="0.56191">
        <ele>173.4</ele>
        <time>2022-04-03T13:46:35Z</time>
      </trkpt>
      <trkpt lat="45.98055" lon="0.56174">
        <ele>171.4</ele>
        <time>2022-04-03T13:46:36Z</time>
      </trkpt>
      <trkpt lat="45.98055" lon="0.56158">
        <ele>169.6</ele>
        <time>2022-04-03T13:46:37Z</time>
      </trkpt>
      <trkpt lat="45.98054" lon="0.56142">
        <ele>167</ele>
        <time>2022-04-03T13:46:38Z</time>
      </trkpt>
      <trkpt lat="45.98053" lon="0.56126">
        <ele>165.6</ele>
        <time>2022-04-03T13:46:39Z</time>
      </trkpt>
      <trkpt lat="45.98052" lon="0.5611">
        <ele>164.8</ele>
        <time>2022-04-03T13:46:40Z</time>
      </trkpt>
      <trkpt lat="45.98049" lon="0.56095">
        <ele>164</ele>
        <time>2022-04-03T13:46:41Z</time>
      </trkpt>
      <trkpt lat="45.98046" lon="0.56081">
        <ele>163.2</ele>
        <time>2022-04-03T13:46:42Z</time>
      </trkpt>
      <trkpt lat="45.98043" lon="0.56067">
        <ele>162.8</ele>
        <time>2022-04-03T13:46:43Z</time>
      </trkpt>
      <trkpt lat="45.98039" lon="0.56055">
        <ele>161.4</ele>
        <time>2022-04-03T13:46:44Z</time>
      </trkpt>
      <trkpt lat="45.98036" lon="0.56043">
        <ele>159.8</ele>
        <time>2022-04-03T13:46:45Z</time>
      </trkpt>
      <trkpt lat="45.98032" lon="0.5603">
        <ele>159.2</ele>
        <time>2022-04-03T13:46:46Z</time>
      </trkpt>
      <trkpt lat="45.98028" lon="0.56018">
        <ele>158.6</ele>
        <time>2022-04-03T13:46:47Z</time>
      </trkpt>
      <trkpt lat="45.98024" lon="0.56007">
        <ele>158.4</ele>
        <time>2022-04-03T13:46:48Z</time>
      </trkpt>
      <trkpt lat="45.98021" lon="0.55995">
        <ele>158.4</ele>
        <time>2022-04-03T13:46:49Z</time>
      </trkpt>
      <trkpt lat="45.98017" lon="0.55985">
        <ele>158.4</ele>
        <time>2022-04-03T13:46:50Z</time>
      </trkpt>
      <trkpt lat="45.98014" lon="0.55975">
        <ele>158.4</ele>
        <time>2022-04-03T13:46:51Z</time>
      </trkpt>
      <trkpt lat="45.9801" lon="0.55966">
        <ele>158.4</ele>
        <time>2022-04-03T13:46:52Z</time>
      </trkpt>
      <trkpt lat="45.98007" lon="0.55957">
        <ele>158.4</ele>
        <time>2022-04-03T13:46:53Z</time>
      </trkpt>
      <trkpt lat="45.98005" lon="0.55949">
        <ele>158.2</ele>
        <time>2022-04-03T13:46:54Z</time>
      </trkpt>
      <trkpt lat="45.98003" lon="0.55942">
        <ele>158.2</ele>
        <time>2022-04-03T13:46:55Z</time>
      </trkpt>
      <trkpt lat="45.98001" lon="0.55936">
        <ele>158.4</ele>
        <time>2022-04-03T13:46:56Z</time>
      </trkpt>
      <trkpt lat="45.97999" lon="0.55931">
        <ele>158.4</ele>
        <time>2022-04-03T13:46:57Z</time>
      </trkpt>
      <trkpt lat="45.97997" lon="0.55926">
        <ele>158.4</ele>
        <time>2022-04-03T13:46:58Z</time>
      </trkpt>
      <trkpt lat="45.97996" lon="0.55922">
        <ele>158.6</ele>
        <time>2022-04-03T13:46:59Z</time>
      </trkpt>
      <trkpt lat="45.97994" lon="0.55918">
        <ele>159</ele>
        <time>2022-04-03T13:47:00Z</time>
      </trkpt>
      <trkpt lat="45.97993" lon="0.55914">
        <ele>159.6</ele>
        <time>2022-04-03T13:47:01Z</time>
      </trkpt>
      <trkpt lat="45.97992" lon="0.5591">
        <ele>160</ele>
        <time>2022-04-03T13:47:02Z</time>
      </trkpt>
      <trkpt lat="45.97991" lon="0.55907">
        <ele>160.4</ele>
        <time>2022-04-03T13:47:03Z</time>
      </trkpt>
      <trkpt lat="45.9799" lon="0.55904">
        <ele>161</ele>
        <time>2022-04-03T13:47:04Z</time>
      </trkpt>
      <trkpt lat="45.97989" lon="0.55901">
        <ele>161.6</ele>
        <time>2022-04-03T13:47:05Z</time>
      </trkpt>
      <trkpt lat="45.97988" lon="0.55898">
        <ele>162</ele>
        <time>2022-04-03T13:47:06Z</time>
      </trkpt>
      <trkpt lat="45.97988" lon="0.55896">
        <ele>162.6</ele>
        <time>2022-04-03T13:47:07Z</time>
      </trkpt>
      <trkpt lat="45.97987" lon="0.55893">
        <ele>163</ele>
        <time>2022-04-03T13:47:08Z</time>
      </trkpt>
      <trkpt lat="45.97986" lon="0.55891">
        <ele>163.4</ele>
        <time>2022-04-03T13:47:09Z</time>
      </trkpt>
      <trkpt lat="45.97985" lon="0.55888">
        <ele>163.6</ele>
        <time>2022-04-03T13:47:10Z</time>
      </trkpt>
      <trkpt lat="45.97984" lon="0.55886">
        <ele>163.6</ele>
        <time>2022-04-03T13:47:11Z</time>
      </trkpt>
      <trkpt lat="45.97983" lon="0.55883">
        <ele>164</ele>
        <time>2022-04-03T13:47:12Z</time>
      </trkpt>
      <trkpt lat="45.97982" lon="0.55881">
        <ele>164</ele>
        <time>2022-04-03T13:47:13Z</time>
      </trkpt>
      <trkpt lat="45.97982" lon="0.55878">
        <ele>164.2</ele>
        <time>2022-04-03T13:47:14Z</time>
      </trkpt>
      <trkpt lat="45.97981" lon="0.55875">
        <ele>164.4</ele>
        <time>2022-04-03T13:47:15Z</time>
      </trkpt>
      <trkpt lat="45.97981" lon="0.55873">
        <ele>164.6</ele>
        <time>2022-04-03T13:47:16Z</time>
      </trkpt>
      <trkpt lat="45.9798" lon="0.55871">
        <ele>164.8</ele>
        <time>2022-04-03T13:47:17Z</time>
      </trkpt>
      <trkpt lat="45.97979" lon="0.55869">
        <ele>165</ele>
        <time>2022-04-03T13:47:18Z</time>
      </trkpt>
      <trkpt lat="45.97978" lon="0.55866">
        <ele>165.2</ele>
        <time>2022-04-03T13:47:19Z</time>
      </trkpt>
      <trkpt lat="45.97978" lon="0.55864">
        <ele>165.4</ele>
        <time>2022-04-03T13:47:20Z</time>
      </trkpt>
      <trkpt lat="45.97977" lon="0.55862">
        <ele>165.6</ele>
        <time>2022-04-03T13:47:21Z</time>
      </trkpt>
      <trkpt lat="45.97976" lon="0.5586">
        <ele>165.6</ele>
        <time>2022-04-03T13:47:22Z</time>
      </trkpt>
      <trkpt lat="45.97976" lon="0.55857">
        <ele>165.8</ele>
        <time>2022-04-03T13:47:23Z</time>
      </trkpt>
      <trkpt lat="45.97975" lon="0.55855">
        <ele>166</ele>
        <time>2022-04-03T13:47:24Z</time>
      </trkpt>
      <trkpt lat="45.97974" lon="0.55853">
        <ele>166</ele>
        <time>2022-04-03T13:47:25Z</time>
      </trkpt>
      <trkpt lat="45.97973" lon="0.55851">
        <ele>166.4</ele>
        <time>2022-04-03T13:47:26Z</time>
      </trkpt>
      <trkpt lat="45.97972" lon="0.55849">
        <ele>166.4</ele>
        <time>2022-04-03T13:47:27Z</time>
      </trkpt>
      <trkpt lat="45.97971" lon="0.55847">
        <ele>166.6</ele>
        <time>2022-04-03T13:47:28Z</time>
      </trkpt>
      <trkpt lat="45.9797" lon="0.55844">
        <ele>166.6</ele>
        <time>2022-04-03T13:47:29Z</time>
      </trkpt>
      <trkpt lat="45.97969" lon="0.55843">
        <ele>166.8</ele>
        <time>2022-04-03T13:47:30Z</time>
      </trkpt>
      <trkpt lat="45.97968" lon="0.55841">
        <ele>167</ele>
        <time>2022-04-03T13:47:31Z</time>
      </trkpt>
      <trkpt lat="45.97967" lon="0.55839">
        <ele>167.2</ele>
        <time>2022-04-03T13:47:32Z</time>
      </trkpt>
      <trkpt lat="45.97966" lon="0.55837">
        <ele>167.4</ele>
        <time>2022-04-03T13:47:33Z</time>
      </trkpt>
      <trkpt lat="45.97965" lon="0.55836">
        <ele>167.4</ele>
        <time>2022-04-03T13:47:34Z</time>
      </trkpt>
      <trkpt lat="45.97964" lon="0.55834">
        <ele>167.6</ele>
        <time>2022-04-03T13:47:35Z</time>
      </trkpt>
      <trkpt lat="45.97962" lon="0.55832">
        <ele>168</ele>
        <time>2022-04-03T13:47:36Z</time>
      </trkpt>
      <trkpt lat="45.97961" lon="0.5583">
        <ele>168.2</ele>
        <time>2022-04-03T13:47:37Z</time>
      </trkpt>
      <trkpt lat="45.97959" lon="0.55828">
        <ele>168.2</ele>
        <time>2022-04-03T13:47:38Z</time>
      </trkpt>
      <trkpt lat="45.97958" lon="0.55827">
        <ele>168.4</ele>
        <time>2022-04-03T13:47:39Z</time>
      </trkpt>
      <trkpt lat="45.97956" lon="0.55825">
        <ele>168.6</ele>
        <time>2022-04-03T13:47:40Z</time>
      </trkpt>
      <trkpt lat="45.97954" lon="0.55823">
        <ele>168.8</ele>
        <time>2022-04-03T13:47:41Z</time>
      </trkpt>
      <trkpt lat="45.97953" lon="0.55822">
        <ele>168.8</ele>
        <time>2022-04-03T13:47:42Z</time>
      </trkpt>
      <trkpt lat="45.97952" lon="0.5582">
        <ele>169.2</ele>
        <time>2022-04-03T13:47:43Z</time>
      </trkpt>
      <trkpt lat="45.9795" lon="0.55819">
        <ele>169.2</ele>
        <time>2022-04-03T13:47:44Z</time>
      </trkpt>
      <trkpt lat="45.97948" lon="0.55817">
        <ele>169.4</ele>
        <time>2022-04-03T13:47:45Z</time>
      </trkpt>
      <trkpt lat="45.97946" lon="0.55816">
        <ele>169.4</ele>
        <time>2022-04-03T13:47:46Z</time>
      </trkpt>
      <trkpt lat="45.97945" lon="0.55814">
        <ele>169.8</ele>
        <time>2022-04-03T13:47:47Z</time>
      </trkpt>
      <trkpt lat="45.97943" lon="0.55812">
        <ele>169.8</ele>
        <time>2022-04-03T13:47:48Z</time>
      </trkpt>
      <trkpt lat="45.97941" lon="0.55811">
        <ele>170.2</ele>
        <time>2022-04-03T13:47:49Z</time>
      </trkpt>
      <trkpt lat="45.97939" lon="0.55809">
        <ele>170.2</ele>
        <time>2022-04-03T13:47:50Z</time>
      </trkpt>
      <trkpt lat="45.97937" lon="0.55807">
        <ele>170.4</ele>
        <time>2022-04-03T13:47:51Z</time>
      </trkpt>
      <trkpt lat="45.97935" lon="0.55806">
        <ele>170.6</ele>
        <time>2022-04-03T13:47:52Z</time>
      </trkpt>
      <trkpt lat="45.97933" lon="0.55805">
        <ele>170.8</ele>
        <time>2022-04-03T13:47:53Z</time>
      </trkpt>
      <trkpt lat="45.97931" lon="0.55803">
        <ele>170.8</ele>
        <time>2022-04-03T13:47:54Z</time>
      </trkpt>
      <trkpt lat="45.9793" lon="0.55802">
        <ele>171.2</ele>
        <time>2022-04-03T13:47:55Z</time>
      </trkpt>
      <trkpt lat="45.97928" lon="0.558">
        <ele>171.2</ele>
        <time>2022-04-03T13:47:56Z</time>
      </trkpt>
      <trkpt lat="45.97925" lon="0.55798">
        <ele>171.2</ele>
        <time>2022-04-03T13:47:57Z</time>
      </trkpt>
      <trkpt lat="45.97923" lon="0.55796">
        <ele>171.4</ele>
        <time>2022-04-03T13:47:58Z</time>
      </trkpt>
      <trkpt lat="45.97921" lon="0.55794">
        <ele>171.4</ele>
        <time>2022-04-03T13:47:59Z</time>
      </trkpt>
      <trkpt lat="45.97919" lon="0.55792">
        <ele>171.6</ele>
        <time>2022-04-03T13:48:00Z</time>
      </trkpt>
      <trkpt lat="45.97917" lon="0.55791">
        <ele>171.8</ele>
        <time>2022-04-03T13:48:01Z</time>
      </trkpt>
      <trkpt lat="45.97915" lon="0.55789">
        <ele>172</ele>
        <time>2022-04-03T13:48:02Z</time>
      </trkpt>
      <trkpt lat="45.97912" lon="0.55788">
        <ele>172</ele>
        <time>2022-04-03T13:48:03Z</time>
      </trkpt>
      <trkpt lat="45.9791" lon="0.55786">
        <ele>172.2</ele>
        <time>2022-04-03T13:48:04Z</time>
      </trkpt>
      <trkpt lat="45.97908" lon="0.55785">
        <ele>172.4</ele>
        <time>2022-04-03T13:48:05Z</time>
      </trkpt>
      <trkpt lat="45.97905" lon="0.55783">
        <ele>172.4</ele>
        <time>2022-04-03T13:48:06Z</time>
      </trkpt>
      <trkpt lat="45.97903" lon="0.55781">
        <ele>172.4</ele>
        <time>2022-04-03T13:48:07Z</time>
      </trkpt>
      <trkpt lat="45.97901" lon="0.55779">
        <ele>172.4</ele>
        <time>2022-04-03T13:48:08Z</time>
      </trkpt>
      <trkpt lat="45.97899" lon="0.55778">
        <ele>172.6</ele>
        <time>2022-04-03T13:48:09Z</time>
      </trkpt>
      <trkpt lat="45.97897" lon="0.55776">
        <ele>172.6</ele>
        <time>2022-04-03T13:48:10Z</time>
      </trkpt>
      <trkpt lat="45.97895" lon="0.55775">
        <ele>172.8</ele>
        <time>2022-04-03T13:48:11Z</time>
      </trkpt>
      <trkpt lat="45.97892" lon="0.55773">
        <ele>172.8</ele>
        <time>2022-04-03T13:48:12Z</time>
      </trkpt>
      <trkpt lat="45.9789" lon="0.55772">
        <ele>172.8</ele>
        <time>2022-04-03T13:48:13Z</time>
      </trkpt>
      <trkpt lat="45.97888" lon="0.55771">
        <ele>173</ele>
        <time>2022-04-03T13:48:14Z</time>
      </trkpt>
      <trkpt lat="45.97886" lon="0.55769">
        <ele>173</ele>
        <time>2022-04-03T13:48:15Z</time>
      </trkpt>
      <trkpt lat="45.97884" lon="0.55768">
        <ele>173.2</ele>
        <time>2022-04-03T13:48:16Z</time>
      </trkpt>
      <trkpt lat="45.97881" lon="0.55766">
        <ele>173.2</ele>
        <time>2022-04-03T13:48:17Z</time>
      </trkpt>
      <trkpt lat="45.97879" lon="0.55765">
        <ele>173.4</ele>
        <time>2022-04-03T13:48:18Z</time>
      </trkpt>
      <trkpt lat="45.97877" lon="0.55764">
        <ele>173.4</ele>
        <time>2022-04-03T13:48:19Z</time>
      </trkpt>
      <trkpt lat="45.97874" lon="0.55763">
        <ele>173.6</ele>
        <time>2022-04-03T13:48:20Z</time>
      </trkpt>
      <trkpt lat="45.97872" lon="0.55761">
        <ele>173.8</ele>
        <time>2022-04-03T13:48:21Z</time>
      </trkpt>
      <trkpt lat="45.9787" lon="0.5576">
        <ele>173.8</ele>
        <time>2022-04-03T13:48:22Z</time>
      </trkpt>
      <trkpt lat="45.97868" lon="0.55759">
        <ele>173.8</ele>
        <time>2022-04-03T13:48:23Z</time>
      </trkpt>
      <trkpt lat="45.97866" lon="0.55758">
        <ele>174</ele>
        <time>2022-04-03T13:48:24Z</time>
      </trkpt>
      <trkpt lat="45.97864" lon="0.55757">
        <ele>174.2</ele>
        <time>2022-04-03T13:48:25Z</time>
      </trkpt>
      <trkpt lat="45.97862" lon="0.55755">
        <ele>174.2</ele>
        <time>2022-04-03T13:48:26Z</time>
      </trkpt>
      <trkpt lat="45.97859" lon="0.55754">
        <ele>174.2</ele>
        <time>2022-04-03T13:48:27Z</time>
      </trkpt>
      <trkpt lat="45.97857" lon="0.55753">
        <ele>174.4</ele>
        <time>2022-04-03T13:48:28Z</time>
      </trkpt>
      <trkpt lat="45.97855" lon="0.55752">
        <ele>174.6</ele>
        <time>2022-04-03T13:48:29Z</time>
      </trkpt>
      <trkpt lat="45.97853" lon="0.55751">
        <ele>174.4</ele>
        <time>2022-04-03T13:48:30Z</time>
      </trkpt>
      <trkpt lat="45.97851" lon="0.55749">
        <ele>174.6</ele>
        <time>2022-04-03T13:48:31Z</time>
      </trkpt>
      <trkpt lat="45.97849" lon="0.55748">
        <ele>174.6</ele>
        <time>2022-04-03T13:48:32Z</time>
      </trkpt>
      <trkpt lat="45.97847" lon="0.55746">
        <ele>174.6</ele>
        <time>2022-04-03T13:48:33Z</time>
      </trkpt>
      <trkpt lat="45.97845" lon="0.55745">
        <ele>174.8</ele>
        <time>2022-04-03T13:48:34Z</time>
      </trkpt>
      <trkpt lat="45.97843" lon="0.55744">
        <ele>175</ele>
        <time>2022-04-03T13:48:35Z</time>
      </trkpt>
      <trkpt lat="45.97841" lon="0.55742">
        <ele>175</ele>
        <time>2022-04-03T13:48:36Z</time>
      </trkpt>
      <trkpt lat="45.97839" lon="0.55741">
        <ele>175</ele>
        <time>2022-04-03T13:48:37Z</time>
      </trkpt>
      <trkpt lat="45.97837" lon="0.5574">
        <ele>175.2</ele>
        <time>2022-04-03T13:48:38Z</time>
      </trkpt>
      <trkpt lat="45.97834" lon="0.55738">
        <ele>175.4</ele>
        <time>2022-04-03T13:48:39Z</time>
      </trkpt>
      <trkpt lat="45.97832" lon="0.55736">
        <ele>175.4</ele>
        <time>2022-04-03T13:48:40Z</time>
      </trkpt>
      <trkpt lat="45.9783" lon="0.55734">
        <ele>175.4</ele>
        <time>2022-04-03T13:48:41Z</time>
      </trkpt>
      <trkpt lat="45.97828" lon="0.55732">
        <ele>175.4</ele>
        <time>2022-04-03T13:48:42Z</time>
      </trkpt>
      <trkpt lat="45.97826" lon="0.5573">
        <ele>175.6</ele>
        <time>2022-04-03T13:48:43Z</time>
      </trkpt>
      <trkpt lat="45.97824" lon="0.55728">
        <ele>175.6</ele>
        <time>2022-04-03T13:48:44Z</time>
      </trkpt>
      <trkpt lat="45.97822" lon="0.55726">
        <ele>175.4</ele>
        <time>2022-04-03T13:48:45Z</time>
      </trkpt>
      <trkpt lat="45.9782" lon="0.55724">
        <ele>175.6</ele>
        <time>2022-04-03T13:48:46Z</time>
      </trkpt>
      <trkpt lat="45.97818" lon="0.55722">
        <ele>175.8</ele>
        <time>2022-04-03T13:48:47Z</time>
      </trkpt>
      <trkpt lat="45.97816" lon="0.5572">
        <ele>175.8</ele>
        <time>2022-04-03T13:48:48Z</time>
      </trkpt>
      <trkpt lat="45.97814" lon="0.55718">
        <ele>176</ele>
        <time>2022-04-03T13:48:49Z</time>
      </trkpt>
      <trkpt lat="45.97813" lon="0.55715">
        <ele>176</ele>
        <time>2022-04-03T13:48:50Z</time>
      </trkpt>
      <trkpt lat="45.97811" lon="0.55713">
        <ele>176</ele>
        <time>2022-04-03T13:48:51Z</time>
      </trkpt>
      <trkpt lat="45.97809" lon="0.5571">
        <ele>176.2</ele>
        <time>2022-04-03T13:48:52Z</time>
      </trkpt>
      <trkpt lat="45.97807" lon="0.55707">
        <ele>176.4</ele>
        <time>2022-04-03T13:48:53Z</time>
      </trkpt>
      <trkpt lat="45.97806" lon="0.55704">
        <ele>176.4</ele>
        <time>2022-04-03T13:48:54Z</time>
      </trkpt>
      <trkpt lat="45.97805" lon="0.557">
        <ele>176.6</ele>
        <time>2022-04-03T13:48:55Z</time>
      </trkpt>
      <trkpt lat="45.97804" lon="0.55697">
        <ele>176.6</ele>
        <time>2022-04-03T13:48:56Z</time>
      </trkpt>
      <trkpt lat="45.97803" lon="0.55693">
        <ele>176.8</ele>
        <time>2022-04-03T13:48:57Z</time>
      </trkpt>
      <trkpt lat="45.97802" lon="0.55689">
        <ele>176.8</ele>
        <time>2022-04-03T13:48:58Z</time>
      </trkpt>
      <trkpt lat="45.97801" lon="0.55686">
        <ele>176.8</ele>
        <time>2022-04-03T13:48:59Z</time>
      </trkpt>
      <trkpt lat="45.97801" lon="0.55682">
        <ele>177</ele>
        <time>2022-04-03T13:49:00Z</time>
      </trkpt>
      <trkpt lat="45.97801" lon="0.55678">
        <ele>177</ele>
        <time>2022-04-03T13:49:01Z</time>
      </trkpt>
      <trkpt lat="45.978" lon="0.55674">
        <ele>177</ele>
        <time>2022-04-03T13:49:02Z</time>
      </trkpt>
      <trkpt lat="45.978" lon="0.5567">
        <ele>177</ele>
        <time>2022-04-03T13:49:03Z</time>
      </trkpt>
      <trkpt lat="45.978" lon="0.55666">
        <ele>177</ele>
        <time>2022-04-03T13:49:04Z</time>
      </trkpt>
      <trkpt lat="45.97801" lon="0.55662">
        <ele>177.2</ele>
        <time>2022-04-03T13:49:05Z</time>
      </trkpt>
      <trkpt lat="45.97801" lon="0.55658">
        <ele>177.4</ele>
        <time>2022-04-03T13:49:06Z</time>
      </trkpt>
      <trkpt lat="45.97801" lon="0.55655">
        <ele>177.4</ele>
        <time>2022-04-03T13:49:07Z</time>
      </trkpt>
      <trkpt lat="45.97802" lon="0.55652">
        <ele>177.4</ele>
        <time>2022-04-03T13:49:08Z</time>
      </trkpt>
      <trkpt lat="45.97803" lon="0.55648">
        <ele>177.4</ele>
        <time>2022-04-03T13:49:09Z</time>
      </trkpt>
      <trkpt lat="45.97803" lon="0.55645">
        <ele>177.4</ele>
        <time>2022-04-03T13:49:10Z</time>
      </trkpt>
      <trkpt lat="45.97804" lon="0.55642">
        <ele>177.6</ele>
        <time>2022-04-03T13:49:11Z</time>
      </trkpt>
      <trkpt lat="45.97805" lon="0.5564">
        <ele>177.6</ele>
        <time>2022-04-03T13:49:12Z</time>
      </trkpt>
      <trkpt lat="45.97806" lon="0.55637">
        <ele>178</ele>
        <time>2022-04-03T13:49:13Z</time>
      </trkpt>
      <trkpt lat="45.97807" lon="0.55634">
        <ele>178.2</ele>
        <time>2022-04-03T13:49:14Z</time>
      </trkpt>
      <trkpt lat="45.97809" lon="0.55631">
        <ele>178.2</ele>
        <time>2022-04-03T13:49:15Z</time>
      </trkpt>
      <trkpt lat="45.9781" lon="0.55629">
        <ele>178.2</ele>
        <time>2022-04-03T13:49:16Z</time>
      </trkpt>
      <trkpt lat="45.97811" lon="0.55626">
        <ele>178.6</ele>
        <time>2022-04-03T13:49:17Z</time>
      </trkpt>
      <trkpt lat="45.97813" lon="0.55624">
        <ele>178.4</ele>
        <time>2022-04-03T13:49:18Z</time>
      </trkpt>
      <trkpt lat="45.97815" lon="0.55622">
        <ele>178.6</ele>
        <time>2022-04-03T13:49:19Z</time>
      </trkpt>
      <trkpt lat="45.97817" lon="0.5562">
        <ele>178.8</ele>
        <time>2022-04-03T13:49:20Z</time>
      </trkpt>
      <trkpt lat="45.97819" lon="0.55618">
        <ele>178.8</ele>
        <time>2022-04-03T13:49:21Z</time>
      </trkpt>
      <trkpt lat="45.9782" lon="0.55617">
        <ele>178.8</ele>
        <time>2022-04-03T13:49:22Z</time>
      </trkpt>
      <trkpt lat="45.97822" lon="0.55615">
        <ele>178.8</ele>
        <time>2022-04-03T13:49:23Z</time>
      </trkpt>
      <trkpt lat="45.97824" lon="0.55613">
        <ele>178.8</ele>
        <time>2022-04-03T13:49:24Z</time>
      </trkpt>
      <trkpt lat="45.97826" lon="0.55612">
        <ele>179</ele>
        <time>2022-04-03T13:49:25Z</time>
      </trkpt>
      <trkpt lat="45.97828" lon="0.55611">
        <ele>179.2</ele>
        <time>2022-04-03T13:49:26Z</time>
      </trkpt>
      <trkpt lat="45.9783" lon="0.5561">
        <ele>179.2</ele>
        <time>2022-04-03T13:49:27Z</time>
      </trkpt>
      <trkpt lat="45.97832" lon="0.55609">
        <ele>179.2</ele>
        <time>2022-04-03T13:49:28Z</time>
      </trkpt>
      <trkpt lat="45.97834" lon="0.55607">
        <ele>179.4</ele>
        <time>2022-04-03T13:49:29Z</time>
      </trkpt>
      <trkpt lat="45.97836" lon="0.55607">
        <ele>179.6</ele>
        <time>2022-04-03T13:49:30Z</time>
      </trkpt>
      <trkpt lat="45.97838" lon="0.55606">
        <ele>179.8</ele>
        <time>2022-04-03T13:49:31Z</time>
      </trkpt>
      <trkpt lat="45.9784" lon="0.55606">
        <ele>179.8</ele>
        <time>2022-04-03T13:49:32Z</time>
      </trkpt>
      <trkpt lat="45.97841" lon="0.55605">
        <ele>180.2</ele>
        <time>2022-04-03T13:49:33Z</time>
      </trkpt>
      <trkpt lat="45.97843" lon="0.55605">
        <ele>180.4</ele>
        <time>2022-04-03T13:49:34Z</time>
      </trkpt>
      <trkpt lat="45.97845" lon="0.55605">
        <ele>180.8</ele>
        <time>2022-04-03T13:49:35Z</time>
      </trkpt>
      <trkpt lat="45.97847" lon="0.55604">
        <ele>181</ele>
        <time>2022-04-03T13:49:36Z</time>
      </trkpt>
      <trkpt lat="45.97849" lon="0.55604">
        <ele>181</ele>
        <time>2022-04-03T13:49:37Z</time>
      </trkpt>
      <trkpt lat="45.97851" lon="0.55604">
        <ele>181.2</ele>
        <time>2022-04-03T13:49:38Z</time>
      </trkpt>
      <trkpt lat="45.97853" lon="0.55604">
        <ele>181.4</ele>
        <time>2022-04-03T13:49:39Z</time>
      </trkpt>
      <trkpt lat="45.97855" lon="0.55604">
        <ele>181.8</ele>
        <time>2022-04-03T13:49:40Z</time>
      </trkpt>
      <trkpt lat="45.97857" lon="0.55604">
        <ele>181.8</ele>
        <time>2022-04-03T13:49:41Z</time>
      </trkpt>
      <trkpt lat="45.97859" lon="0.55603">
        <ele>181.8</ele>
        <time>2022-04-03T13:49:42Z</time>
      </trkpt>
      <trkpt lat="45.97861" lon="0.55603">
        <ele>182.2</ele>
        <time>2022-04-03T13:49:43Z</time>
      </trkpt>
      <trkpt lat="45.97863" lon="0.55602">
        <ele>182.2</ele>
        <time>2022-04-03T13:49:44Z</time>
      </trkpt>
      <trkpt lat="45.97865" lon="0.55601">
        <ele>182.4</ele>
        <time>2022-04-03T13:49:45Z</time>
      </trkpt>
      <trkpt lat="45.97867" lon="0.55601">
        <ele>182.6</ele>
        <time>2022-04-03T13:49:46Z</time>
      </trkpt>
      <trkpt lat="45.97869" lon="0.556">
        <ele>182.4</ele>
        <time>2022-04-03T13:49:47Z</time>
      </trkpt>
      <trkpt lat="45.97871" lon="0.55599">
        <ele>182.6</ele>
        <time>2022-04-03T13:49:48Z</time>
      </trkpt>
      <trkpt lat="45.97873" lon="0.55598">
        <ele>182.8</ele>
        <time>2022-04-03T13:49:49Z</time>
      </trkpt>
      <trkpt lat="45.97875" lon="0.55596">
        <ele>183</ele>
        <time>2022-04-03T13:49:50Z</time>
      </trkpt>
      <trkpt lat="45.97877" lon="0.55595">
        <ele>183.4</ele>
        <time>2022-04-03T13:49:51Z</time>
      </trkpt>
      <trkpt lat="45.97879" lon="0.55594">
        <ele>183.4</ele>
        <time>2022-04-03T13:49:52Z</time>
      </trkpt>
      <trkpt lat="45.9788" lon="0.55593">
        <ele>183.6</ele>
        <time>2022-04-03T13:49:53Z</time>
      </trkpt>
      <trkpt lat="45.97882" lon="0.55591">
        <ele>183.8</ele>
        <time>2022-04-03T13:49:54Z</time>
      </trkpt>
      <trkpt lat="45.97884" lon="0.55589">
        <ele>183.8</ele>
        <time>2022-04-03T13:49:55Z</time>
      </trkpt>
      <trkpt lat="45.97885" lon="0.55587">
        <ele>184</ele>
        <time>2022-04-03T13:49:56Z</time>
      </trkpt>
      <trkpt lat="45.97887" lon="0.55585">
        <ele>184</ele>
        <time>2022-04-03T13:49:57Z</time>
      </trkpt>
      <trkpt lat="45.97889" lon="0.55584">
        <ele>184.2</ele>
        <time>2022-04-03T13:49:58Z</time>
      </trkpt>
      <trkpt lat="45.9789" lon="0.55582">
        <ele>184</ele>
        <time>2022-04-03T13:49:59Z</time>
      </trkpt>
      <trkpt lat="45.97892" lon="0.5558">
        <ele>184</ele>
        <time>2022-04-03T13:50:00Z</time>
      </trkpt>
      <trkpt lat="45.97893" lon="0.55577">
        <ele>184.2</ele>
        <time>2022-04-03T13:50:01Z</time>
      </trkpt>
      <trkpt lat="45.97894" lon="0.55575">
        <ele>184.4</ele>
        <time>2022-04-03T13:50:02Z</time>
      </trkpt>
      <trkpt lat="45.97895" lon="0.55573">
        <ele>184.4</ele>
        <time>2022-04-03T13:50:03Z</time>
      </trkpt>
      <trkpt lat="45.97896" lon="0.55571">
        <ele>184.6</ele>
        <time>2022-04-03T13:50:04Z</time>
      </trkpt>
      <trkpt lat="45.97897" lon="0.55568">
        <ele>184.8</ele>
        <time>2022-04-03T13:50:05Z</time>
      </trkpt>
      <trkpt lat="45.97898" lon="0.55566">
        <ele>184.8</ele>
        <time>2022-04-03T13:50:06Z</time>
      </trkpt>
      <trkpt lat="45.97899" lon="0.55563">
        <ele>184.8</ele>
        <time>2022-04-03T13:50:07Z</time>
      </trkpt>
      <trkpt lat="45.97899" lon="0.55561">
        <ele>185</ele>
        <time>2022-04-03T13:50:08Z</time>
      </trkpt>
      <trkpt lat="45.979" lon="0.55559">
        <ele>185.4</ele>
        <time>2022-04-03T13:50:09Z</time>
      </trkpt>
      <trkpt lat="45.97901" lon="0.55556">
        <ele>185.4</ele>
        <time>2022-04-03T13:50:10Z</time>
      </trkpt>
      <trkpt lat="45.97903" lon="0.55553">
        <ele>185.6</ele>
        <time>2022-04-03T13:50:11Z</time>
      </trkpt>
      <trkpt lat="45.97904" lon="0.55551">
        <ele>186</ele>
        <time>2022-04-03T13:50:12Z</time>
      </trkpt>
      <trkpt lat="45.97904" lon="0.55548">
        <ele>186</ele>
        <time>2022-04-03T13:50:13Z</time>
      </trkpt>
      <trkpt lat="45.97905" lon="0.55545">
        <ele>186.4</ele>
        <time>2022-04-03T13:50:14Z</time>
      </trkpt>
      <trkpt lat="45.97906" lon="0.55543">
        <ele>186.4</ele>
        <time>2022-04-03T13:50:15Z</time>
      </trkpt>
      <trkpt lat="45.97907" lon="0.5554">
        <ele>186.6</ele>
        <time>2022-04-03T13:50:16Z</time>
      </trkpt>
      <trkpt lat="45.97907" lon="0.55538">
        <ele>187</ele>
        <time>2022-04-03T13:50:17Z</time>
      </trkpt>
      <trkpt lat="45.97908" lon="0.55535">
        <ele>187.2</ele>
        <time>2022-04-03T13:50:18Z</time>
      </trkpt>
      <trkpt lat="45.97909" lon="0.55532">
        <ele>187.2</ele>
        <time>2022-04-03T13:50:19Z</time>
      </trkpt>
      <trkpt lat="45.9791" lon="0.5553">
        <ele>187.4</ele>
        <time>2022-04-03T13:50:20Z</time>
      </trkpt>
      <trkpt lat="45.9791" lon="0.55527">
        <ele>187.6</ele>
        <time>2022-04-03T13:50:21Z</time>
      </trkpt>
      <trkpt lat="45.97911" lon="0.55524">
        <ele>187.8</ele>
        <time>2022-04-03T13:50:22Z</time>
      </trkpt>
      <trkpt lat="45.97911" lon="0.55521">
        <ele>188.2</ele>
        <time>2022-04-03T13:50:23Z</time>
      </trkpt>
      <trkpt lat="45.97912" lon="0.55519">
        <ele>188.4</ele>
        <time>2022-04-03T13:50:24Z</time>
      </trkpt>
      <trkpt lat="45.97912" lon="0.55516">
        <ele>188.6</ele>
        <time>2022-04-03T13:50:25Z</time>
      </trkpt>
      <trkpt lat="45.97913" lon="0.55513">
        <ele>188.6</ele>
        <time>2022-04-03T13:50:26Z</time>
      </trkpt>
      <trkpt lat="45.97914" lon="0.5551">
        <ele>189</ele>
        <time>2022-04-03T13:50:27Z</time>
      </trkpt>
      <trkpt lat="45.97914" lon="0.55508">
        <ele>189.4</ele>
        <time>2022-04-03T13:50:28Z</time>
      </trkpt>
      <trkpt lat="45.97915" lon="0.55505">
        <ele>189.6</ele>
        <time>2022-04-03T13:50:29Z</time>
      </trkpt>
      <trkpt lat="45.97915" lon="0.55502">
        <ele>189.8</ele>
        <time>2022-04-03T13:50:30Z</time>
      </trkpt>
      <trkpt lat="45.97916" lon="0.55499">
        <ele>190</ele>
        <time>2022-04-03T13:50:31Z</time>
      </trkpt>
      <trkpt lat="45.97917" lon="0.55496">
        <ele>190.2</ele>
        <time>2022-04-03T13:50:32Z</time>
      </trkpt>
      <trkpt lat="45.97917" lon="0.55493">
        <ele>190.6</ele>
        <time>2022-04-03T13:50:33Z</time>
      </trkpt>
      <trkpt lat="45.97918" lon="0.5549">
        <ele>190.8</ele>
        <time>2022-04-03T13:50:34Z</time>
      </trkpt>
      <trkpt lat="45.97919" lon="0.55488">
        <ele>191</ele>
        <time>2022-04-03T13:50:35Z</time>
      </trkpt>
      <trkpt lat="45.9792" lon="0.55485">
        <ele>191</ele>
        <time>2022-04-03T13:50:36Z</time>
      </trkpt>
      <trkpt lat="45.97921" lon="0.55482">
        <ele>191.2</ele>
        <time>2022-04-03T13:50:37Z</time>
      </trkpt>
      <trkpt lat="45.97922" lon="0.5548">
        <ele>191.2</ele>
        <time>2022-04-03T13:50:38Z</time>
      </trkpt>
      <trkpt lat="45.97923" lon="0.55478">
        <ele>191.6</ele>
        <time>2022-04-03T13:50:39Z</time>
      </trkpt>
      <trkpt lat="45.97925" lon="0.55475">
        <ele>191.8</ele>
        <time>2022-04-03T13:50:40Z</time>
      </trkpt>
      <trkpt lat="45.97926" lon="0.55473">
        <ele>192</ele>
        <time>2022-04-03T13:50:41Z</time>
      </trkpt>
      <trkpt lat="45.97928" lon="0.5547">
        <ele>192</ele>
        <time>2022-04-03T13:50:42Z</time>
      </trkpt>
      <trkpt lat="45.97929" lon="0.55468">
        <ele>192.2</ele>
        <time>2022-04-03T13:50:43Z</time>
      </trkpt>
      <trkpt lat="45.97931" lon="0.55466">
        <ele>192.2</ele>
        <time>2022-04-03T13:50:44Z</time>
      </trkpt>
      <trkpt lat="45.97933" lon="0.55463">
        <ele>192.6</ele>
        <time>2022-04-03T13:50:45Z</time>
      </trkpt>
      <trkpt lat="45.97936" lon="0.55462">
        <ele>192.8</ele>
        <time>2022-04-03T13:50:46Z</time>
      </trkpt>
      <trkpt lat="45.97938" lon="0.5546">
        <ele>193</ele>
        <time>2022-04-03T13:50:47Z</time>
      </trkpt>
      <trkpt lat="45.9794" lon="0.55458">
        <ele>193</ele>
        <time>2022-04-03T13:50:48Z</time>
      </trkpt>
      <trkpt lat="45.97943" lon="0.55455">
        <ele>193.2</ele>
        <time>2022-04-03T13:50:49Z</time>
      </trkpt>
      <trkpt lat="45.97945" lon="0.55453">
        <ele>193.2</ele>
        <time>2022-04-03T13:50:50Z</time>
      </trkpt>
      <trkpt lat="45.97948" lon="0.55451">
        <ele>193.4</ele>
        <time>2022-04-03T13:50:51Z</time>
      </trkpt>
      <trkpt lat="45.9795" lon="0.55448">
        <ele>193.4</ele>
        <time>2022-04-03T13:50:52Z</time>
      </trkpt>
      <trkpt lat="45.97952" lon="0.55446">
        <ele>193.6</ele>
        <time>2022-04-03T13:50:53Z</time>
      </trkpt>
      <trkpt lat="45.97954" lon="0.55443">
        <ele>193.6</ele>
        <time>2022-04-03T13:50:54Z</time>
      </trkpt>
      <trkpt lat="45.97955" lon="0.55439">
        <ele>193.8</ele>
        <time>2022-04-03T13:50:55Z</time>
      </trkpt>
      <trkpt lat="45.97957" lon="0.55436">
        <ele>193.8</ele>
        <time>2022-04-03T13:50:56Z</time>
      </trkpt>
      <trkpt lat="45.97958" lon="0.55432">
        <ele>193.8</ele>
        <time>2022-04-03T13:50:57Z</time>
      </trkpt>
      <trkpt lat="45.97958" lon="0.55429">
        <ele>193.8</ele>
        <time>2022-04-03T13:50:58Z</time>
      </trkpt>
      <trkpt lat="45.97958" lon="0.55425">
        <ele>194.2</ele>
        <time>2022-04-03T13:50:59Z</time>
      </trkpt>
      <trkpt lat="45.97958" lon="0.55421">
        <ele>194</ele>
        <time>2022-04-03T13:51:00Z</time>
      </trkpt>
      <trkpt lat="45.97958" lon="0.55417">
        <ele>194.2</ele>
        <time>2022-04-03T13:51:01Z</time>
      </trkpt>
      <trkpt lat="45.97958" lon="0.55413">
        <ele>194.4</ele>
        <time>2022-04-03T13:51:02Z</time>
      </trkpt>
      <trkpt lat="45.97958" lon="0.5541">
        <ele>194.4</ele>
        <time>2022-04-03T13:51:03Z</time>
      </trkpt>
      <trkpt lat="45.97958" lon="0.55406">
        <ele>194.6</ele>
        <time>2022-04-03T13:51:04Z</time>
      </trkpt>
      <trkpt lat="45.97958" lon="0.55402">
        <ele>194.6</ele>
        <time>2022-04-03T13:51:05Z</time>
      </trkpt>
      <trkpt lat="45.97958" lon="0.55398">
        <ele>195</ele>
        <time>2022-04-03T13:51:06Z</time>
      </trkpt>
      <trkpt lat="45.97958" lon="0.55394">
        <ele>194.8</ele>
        <time>2022-04-03T13:51:07Z</time>
      </trkpt>
      <trkpt lat="45.97958" lon="0.5539">
        <ele>195</ele>
        <time>2022-04-03T13:51:08Z</time>
      </trkpt>
      <trkpt lat="45.97957" lon="0.55387">
        <ele>195.4</ele>
        <time>2022-04-03T13:51:09Z</time>
      </trkpt>
      <trkpt lat="45.97957" lon="0.55383">
        <ele>195.8</ele>
        <time>2022-04-03T13:51:10Z</time>
      </trkpt>
      <trkpt lat="45.97957" lon="0.55379">
        <ele>195.8</ele>
        <time>2022-04-03T13:51:11Z</time>
      </trkpt>
      <trkpt lat="45.97957" lon="0.55375">
        <ele>196</ele>
        <time>2022-04-03T13:51:12Z</time>
      </trkpt>
      <trkpt lat="45.97957" lon="0.55371">
        <ele>196.2</ele>
        <time>2022-04-03T13:51:13Z</time>
      </trkpt>
      <trkpt lat="45.97956" lon="0.55367">
        <ele>196.4</ele>
        <time>2022-04-03T13:51:14Z</time>
      </trkpt>
      <trkpt lat="45.97956" lon="0.55363">
        <ele>196.4</ele>
        <time>2022-04-03T13:51:15Z</time>
      </trkpt>
      <trkpt lat="45.97956" lon="0.55359">
        <ele>196.4</ele>
        <time>2022-04-03T13:51:16Z</time>
      </trkpt>
      <trkpt lat="45.97956" lon="0.55355">
        <ele>196.6</ele>
        <time>2022-04-03T13:51:17Z</time>
      </trkpt>
      <trkpt lat="45.97956" lon="0.55351">
        <ele>196.8</ele>
        <time>2022-04-03T13:51:18Z</time>
      </trkpt>
      <trkpt lat="45.97956" lon="0.55347">
        <ele>197</ele>
        <time>2022-04-03T13:51:19Z</time>
      </trkpt>
      <trkpt lat="45.97955" lon="0.55343">
        <ele>197.2</ele>
        <time>2022-04-03T13:51:20Z</time>
      </trkpt>
      <trkpt lat="45.97955" lon="0.55339">
        <ele>197.2</ele>
        <time>2022-04-03T13:51:21Z</time>
      </trkpt>
      <trkpt lat="45.97955" lon="0.55335">
        <ele>197.2</ele>
        <time>2022-04-03T13:51:22Z</time>
      </trkpt>
      <trkpt lat="45.97955" lon="0.55331">
        <ele>197.4</ele>
        <time>2022-04-03T13:51:23Z</time>
      </trkpt>
      <trkpt lat="45.97955" lon="0.55327">
        <ele>197.4</ele>
        <time>2022-04-03T13:51:24Z</time>
      </trkpt>
      <trkpt lat="45.97954" lon="0.55324">
        <ele>197.6</ele>
        <time>2022-04-03T13:51:25Z</time>
      </trkpt>
      <trkpt lat="45.97954" lon="0.5532">
        <ele>197.8</ele>
        <time>2022-04-03T13:51:26Z</time>
      </trkpt>
      <trkpt lat="45.97954" lon="0.55316">
        <ele>197.6</ele>
        <time>2022-04-03T13:51:27Z</time>
      </trkpt>
      <trkpt lat="45.97954" lon="0.55312">
        <ele>197.8</ele>
        <time>2022-04-03T13:51:28Z</time>
      </trkpt>
      <trkpt lat="45.97954" lon="0.55308">
        <ele>197.8</ele>
        <time>2022-04-03T13:51:29Z</time>
      </trkpt>
      <trkpt lat="45.97954" lon="0.55305">
        <ele>198</ele>
        <time>2022-04-03T13:51:30Z</time>
      </trkpt>
      <trkpt lat="45.97954" lon="0.55301">
        <ele>198.2</ele>
        <time>2022-04-03T13:51:31Z</time>
      </trkpt>
      <trkpt lat="45.97954" lon="0.55297">
        <ele>198.4</ele>
        <time>2022-04-03T13:51:32Z</time>
      </trkpt>
      <trkpt lat="45.97954" lon="0.55293">
        <ele>198.4</ele>
        <time>2022-04-03T13:51:33Z</time>
      </trkpt>
      <trkpt lat="45.97954" lon="0.55289">
        <ele>198.6</ele>
        <time>2022-04-03T13:51:34Z</time>
      </trkpt>
      <trkpt lat="45.97954" lon="0.55284">
        <ele>198.6</ele>
        <time>2022-04-03T13:51:35Z</time>
      </trkpt>
      <trkpt lat="45.97954" lon="0.55279">
        <ele>198.6</ele>
        <time>2022-04-03T13:51:36Z</time>
      </trkpt>
      <trkpt lat="45.97955" lon="0.55274">
        <ele>198.8</ele>
        <time>2022-04-03T13:51:37Z</time>
      </trkpt>
      <trkpt lat="45.97955" lon="0.55268">
        <ele>198.6</ele>
        <time>2022-04-03T13:51:38Z</time>
      </trkpt>
      <trkpt lat="45.97955" lon="0.55262">
        <ele>198.6</ele>
        <time>2022-04-03T13:51:39Z</time>
      </trkpt>
      <trkpt lat="45.97956" lon="0.55256">
        <ele>198.6</ele>
        <time>2022-04-03T13:51:40Z</time>
      </trkpt>
      <trkpt lat="45.97956" lon="0.55249">
        <ele>198.6</ele>
        <time>2022-04-03T13:51:41Z</time>
      </trkpt>
      <trkpt lat="45.97956" lon="0.55242">
        <ele>198.6</ele>
        <time>2022-04-03T13:51:42Z</time>
      </trkpt>
      <trkpt lat="45.97956" lon="0.55235">
        <ele>198.4</ele>
        <time>2022-04-03T13:51:43Z</time>
      </trkpt>
      <trkpt lat="45.97957" lon="0.55227">
        <ele>198.4</ele>
        <time>2022-04-03T13:51:44Z</time>
      </trkpt>
      <trkpt lat="45.97957" lon="0.55219">
        <ele>198.4</ele>
        <time>2022-04-03T13:51:45Z</time>
      </trkpt>
      <trkpt lat="45.97957" lon="0.5521">
        <ele>198.2</ele>
        <time>2022-04-03T13:51:46Z</time>
      </trkpt>
      <trkpt lat="45.97957" lon="0.55201">
        <ele>198</ele>
        <time>2022-04-03T13:51:47Z</time>
      </trkpt>
      <trkpt lat="45.97958" lon="0.55192">
        <ele>197.6</ele>
        <time>2022-04-03T13:51:48Z</time>
      </trkpt>
      <trkpt lat="45.97958" lon="0.55182">
        <ele>197</ele>
        <time>2022-04-03T13:51:49Z</time>
      </trkpt>
      <trkpt lat="45.97958" lon="0.55172">
        <ele>196.8</ele>
        <time>2022-04-03T13:51:50Z</time>
      </trkpt>
      <trkpt lat="45.97959" lon="0.55161">
        <ele>196.4</ele>
        <time>2022-04-03T13:51:51Z</time>
      </trkpt>
      <trkpt lat="45.97959" lon="0.55149">
        <ele>196.4</ele>
        <time>2022-04-03T13:51:52Z</time>
      </trkpt>
      <trkpt lat="45.9796" lon="0.55138">
        <ele>196</ele>
        <time>2022-04-03T13:51:53Z</time>
      </trkpt>
      <trkpt lat="45.9796" lon="0.55125">
        <ele>196</ele>
        <time>2022-04-03T13:51:54Z</time>
      </trkpt>
      <trkpt lat="45.97961" lon="0.55113">
        <ele>195.6</ele>
        <time>2022-04-03T13:51:55Z</time>
      </trkpt>
      <trkpt lat="45.97961" lon="0.551">
        <ele>195</ele>
        <time>2022-04-03T13:51:56Z</time>
      </trkpt>
      <trkpt lat="45.97962" lon="0.55087">
        <ele>194.4</ele>
        <time>2022-04-03T13:51:57Z</time>
      </trkpt>
      <trkpt lat="45.97962" lon="0.55073">
        <ele>193.8</ele>
        <time>2022-04-03T13:51:58Z</time>
      </trkpt>
      <trkpt lat="45.97963" lon="0.5506">
        <ele>193</ele>
        <time>2022-04-03T13:51:59Z</time>
      </trkpt>
      <trkpt lat="45.97963" lon="0.55046">
        <ele>192.4</ele>
        <time>2022-04-03T13:52:00Z</time>
      </trkpt>
      <trkpt lat="45.97963" lon="0.55033">
        <ele>191.6</ele>
        <time>2022-04-03T13:52:01Z</time>
      </trkpt>
      <trkpt lat="45.97964" lon="0.5502">
        <ele>191.2</ele>
        <time>2022-04-03T13:52:02Z</time>
      </trkpt>
      <trkpt lat="45.97964" lon="0.55007">
        <ele>190.6</ele>
        <time>2022-04-03T13:52:03Z</time>
      </trkpt>
      <trkpt lat="45.97964" lon="0.54995">
        <ele>189.8</ele>
        <time>2022-04-03T13:52:04Z</time>
      </trkpt>
      <trkpt lat="45.97965" lon="0.54984">
        <ele>188.6</ele>
        <time>2022-04-03T13:52:05Z</time>
      </trkpt>
      <trkpt lat="45.97965" lon="0.54974">
        <ele>188.2</ele>
        <time>2022-04-03T13:52:06Z</time>
      </trkpt>
      <trkpt lat="45.97965" lon="0.54964">
        <ele>188</ele>
        <time>2022-04-03T13:52:07Z</time>
      </trkpt>
      <trkpt lat="45.97966" lon="0.54956">
        <ele>187.8</ele>
        <time>2022-04-03T13:52:08Z</time>
      </trkpt>
      <trkpt lat="45.97966" lon="0.54948">
        <ele>187.6</ele>
        <time>2022-04-03T13:52:09Z</time>
      </trkpt>
      <trkpt lat="45.97967" lon="0.54941">
        <ele>187.8</ele>
        <time>2022-04-03T13:52:10Z</time>
      </trkpt>
      <trkpt lat="45.97967" lon="0.54935">
        <ele>187.8</ele>
        <time>2022-04-03T13:52:11Z</time>
      </trkpt>
      <trkpt lat="45.97968" lon="0.54929">
        <ele>187.8</ele>
        <time>2022-04-03T13:52:12Z</time>
      </trkpt>
      <trkpt lat="45.97968" lon="0.54923">
        <ele>187.8</ele>
        <time>2022-04-03T13:52:13Z</time>
      </trkpt>
      <trkpt lat="45.97968" lon="0.54918">
        <ele>187.8</ele>
        <time>2022-04-03T13:52:14Z</time>
      </trkpt>
      <trkpt lat="45.97968" lon="0.54913">
        <ele>187.8</ele>
        <time>2022-04-03T13:52:15Z</time>
      </trkpt>
      <trkpt lat="45.97968" lon="0.54908">
        <ele>187.8</ele>
        <time>2022-04-03T13:52:16Z</time>
      </trkpt>
      <trkpt lat="45.97968" lon="0.54904">
        <ele>188</ele>
        <time>2022-04-03T13:52:17Z</time>
      </trkpt>
      <trkpt lat="45.97968" lon="0.549">
        <ele>188.8</ele>
        <time>2022-04-03T13:52:18Z</time>
      </trkpt>
      <trkpt lat="45.97969" lon="0.54895">
        <ele>189</ele>
        <time>2022-04-03T13:52:19Z</time>
      </trkpt>
      <trkpt lat="45.97969" lon="0.54891">
        <ele>189.8</ele>
        <time>2022-04-03T13:52:20Z</time>
      </trkpt>
      <trkpt lat="45.9797" lon="0.54887">
        <ele>190.4</ele>
        <time>2022-04-03T13:52:21Z</time>
      </trkpt>
      <trkpt lat="45.9797" lon="0.54883">
        <ele>191</ele>
        <time>2022-04-03T13:52:22Z</time>
      </trkpt>
      <trkpt lat="45.9797" lon="0.54879">
        <ele>191.6</ele>
        <time>2022-04-03T13:52:23Z</time>
      </trkpt>
      <trkpt lat="45.97971" lon="0.54874">
        <ele>191.8</ele>
        <time>2022-04-03T13:52:24Z</time>
      </trkpt>
      <trkpt lat="45.97971" lon="0.5487">
        <ele>192.2</ele>
        <time>2022-04-03T13:52:25Z</time>
      </trkpt>
      <trkpt lat="45.97971" lon="0.54866">
        <ele>192.4</ele>
        <time>2022-04-03T13:52:26Z</time>
      </trkpt>
      <trkpt lat="45.97971" lon="0.54862">
        <ele>192.4</ele>
        <time>2022-04-03T13:52:27Z</time>
      </trkpt>
      <trkpt lat="45.97971" lon="0.54857">
        <ele>192.4</ele>
        <time>2022-04-03T13:52:28Z</time>
      </trkpt>
      <trkpt lat="45.97971" lon="0.54853">
        <ele>192.6</ele>
        <time>2022-04-03T13:52:29Z</time>
      </trkpt>
      <trkpt lat="45.97971" lon="0.54849">
        <ele>192.8</ele>
        <time>2022-04-03T13:52:30Z</time>
      </trkpt>
      <trkpt lat="45.97971" lon="0.54844">
        <ele>192.8</ele>
        <time>2022-04-03T13:52:31Z</time>
      </trkpt>
      <trkpt lat="45.97971" lon="0.5484">
        <ele>193</ele>
        <time>2022-04-03T13:52:32Z</time>
      </trkpt>
      <trkpt lat="45.97971" lon="0.54836">
        <ele>192.8</ele>
        <time>2022-04-03T13:52:33Z</time>
      </trkpt>
      <trkpt lat="45.97971" lon="0.54831">
        <ele>193</ele>
        <time>2022-04-03T13:52:34Z</time>
      </trkpt>
      <trkpt lat="45.97972" lon="0.54827">
        <ele>193.2</ele>
        <time>2022-04-03T13:52:35Z</time>
      </trkpt>
      <trkpt lat="45.97972" lon="0.54823">
        <ele>193.2</ele>
        <time>2022-04-03T13:52:36Z</time>
      </trkpt>
      <trkpt lat="45.97972" lon="0.54819">
        <ele>193.4</ele>
        <time>2022-04-03T13:52:37Z</time>
      </trkpt>
      <trkpt lat="45.97972" lon="0.54814">
        <ele>193.4</ele>
        <time>2022-04-03T13:52:38Z</time>
      </trkpt>
      <trkpt lat="45.97973" lon="0.5481">
        <ele>193.6</ele>
        <time>2022-04-03T13:52:39Z</time>
      </trkpt>
      <trkpt lat="45.97973" lon="0.54806">
        <ele>193.8</ele>
        <time>2022-04-03T13:52:40Z</time>
      </trkpt>
      <trkpt lat="45.97973" lon="0.54801">
        <ele>194</ele>
        <time>2022-04-03T13:52:41Z</time>
      </trkpt>
      <trkpt lat="45.97973" lon="0.54797">
        <ele>194</ele>
        <time>2022-04-03T13:52:42Z</time>
      </trkpt>
      <trkpt lat="45.97973" lon="0.54792">
        <ele>194</ele>
        <time>2022-04-03T13:52:43Z</time>
      </trkpt>
      <trkpt lat="45.97974" lon="0.54788">
        <ele>194.2</ele>
        <time>2022-04-03T13:52:44Z</time>
      </trkpt>
      <trkpt lat="45.97974" lon="0.54783">
        <ele>194.2</ele>
        <time>2022-04-03T13:52:45Z</time>
      </trkpt>
      <trkpt lat="45.97974" lon="0.54779">
        <ele>194.4</ele>
        <time>2022-04-03T13:52:46Z</time>
      </trkpt>
      <trkpt lat="45.97974" lon="0.54774">
        <ele>194.4</ele>
        <time>2022-04-03T13:52:47Z</time>
      </trkpt>
      <trkpt lat="45.97975" lon="0.54769">
        <ele>194.6</ele>
        <time>2022-04-03T13:52:48Z</time>
      </trkpt>
      <trkpt lat="45.97975" lon="0.54763">
        <ele>194.6</ele>
        <time>2022-04-03T13:52:49Z</time>
      </trkpt>
      <trkpt lat="45.97976" lon="0.54757">
        <ele>194.6</ele>
        <time>2022-04-03T13:52:50Z</time>
      </trkpt>
      <trkpt lat="45.97976" lon="0.54752">
        <ele>194.6</ele>
        <time>2022-04-03T13:52:51Z</time>
      </trkpt>
      <trkpt lat="45.97976" lon="0.54746">
        <ele>194.6</ele>
        <time>2022-04-03T13:52:52Z</time>
      </trkpt>
      <trkpt lat="45.97976" lon="0.54739">
        <ele>194.6</ele>
        <time>2022-04-03T13:52:53Z</time>
      </trkpt>
      <trkpt lat="45.97976" lon="0.54733">
        <ele>194.6</ele>
        <time>2022-04-03T13:52:54Z</time>
      </trkpt>
      <trkpt lat="45.97977" lon="0.54727">
        <ele>194.6</ele>
        <time>2022-04-03T13:52:55Z</time>
      </trkpt>
      <trkpt lat="45.97977" lon="0.54721">
        <ele>194.6</ele>
        <time>2022-04-03T13:52:56Z</time>
      </trkpt>
      <trkpt lat="45.97977" lon="0.54715">
        <ele>194.6</ele>
        <time>2022-04-03T13:52:57Z</time>
      </trkpt>
      <trkpt lat="45.97977" lon="0.54708">
        <ele>194.6</ele>
        <time>2022-04-03T13:52:58Z</time>
      </trkpt>
      <trkpt lat="45.97978" lon="0.54702">
        <ele>194.6</ele>
        <time>2022-04-03T13:52:59Z</time>
      </trkpt>
      <trkpt lat="45.97978" lon="0.54696">
        <ele>194.6</ele>
        <time>2022-04-03T13:53:00Z</time>
      </trkpt>
      <trkpt lat="45.97978" lon="0.54689">
        <ele>194.4</ele>
        <time>2022-04-03T13:53:01Z</time>
      </trkpt>
      <trkpt lat="45.97978" lon="0.54682">
        <ele>194.2</ele>
        <time>2022-04-03T13:53:02Z</time>
      </trkpt>
      <trkpt lat="45.97978" lon="0.54675">
        <ele>194.2</ele>
        <time>2022-04-03T13:53:03Z</time>
      </trkpt>
      <trkpt lat="45.97979" lon="0.54668">
        <ele>194</ele>
        <time>2022-04-03T13:53:04Z</time>
      </trkpt>
      <trkpt lat="45.97979" lon="0.54661">
        <ele>193.8</ele>
        <time>2022-04-03T13:53:05Z</time>
      </trkpt>
      <trkpt lat="45.97979" lon="0.54653">
        <ele>193.6</ele>
        <time>2022-04-03T13:53:06Z</time>
      </trkpt>
      <trkpt lat="45.9798" lon="0.54646">
        <ele>193.4</ele>
        <time>2022-04-03T13:53:07Z</time>
      </trkpt>
      <trkpt lat="45.9798" lon="0.54638">
        <ele>193.4</ele>
        <time>2022-04-03T13:53:08Z</time>
      </trkpt>
      <trkpt lat="45.9798" lon="0.5463">
        <ele>193.4</ele>
        <time>2022-04-03T13:53:09Z</time>
      </trkpt>
      <trkpt lat="45.9798" lon="0.54623">
        <ele>193.4</ele>
        <time>2022-04-03T13:53:10Z</time>
      </trkpt>
      <trkpt lat="45.9798" lon="0.54615">
        <ele>193.2</ele>
        <time>2022-04-03T13:53:11Z</time>
      </trkpt>
      <trkpt lat="45.9798" lon="0.54607">
        <ele>193.2</ele>
        <time>2022-04-03T13:53:12Z</time>
      </trkpt>
      <trkpt lat="45.97981" lon="0.54599">
        <ele>193</ele>
        <time>2022-04-03T13:53:13Z</time>
      </trkpt>
      <trkpt lat="45.97981" lon="0.54591">
        <ele>192.8</ele>
        <time>2022-04-03T13:53:14Z</time>
      </trkpt>
      <trkpt lat="45.97981" lon="0.54584">
        <ele>192.6</ele>
        <time>2022-04-03T13:53:15Z</time>
      </trkpt>
      <trkpt lat="45.97981" lon="0.54576">
        <ele>192.6</ele>
        <time>2022-04-03T13:53:16Z</time>
      </trkpt>
      <trkpt lat="45.97981" lon="0.54568">
        <ele>192.4</ele>
        <time>2022-04-03T13:53:17Z</time>
      </trkpt>
      <trkpt lat="45.97982" lon="0.54561">
        <ele>192</ele>
        <time>2022-04-03T13:53:18Z</time>
      </trkpt>
      <trkpt lat="45.97982" lon="0.54553">
        <ele>191.6</ele>
        <time>2022-04-03T13:53:19Z</time>
      </trkpt>
      <trkpt lat="45.97982" lon="0.54546">
        <ele>191</ele>
        <time>2022-04-03T13:53:20Z</time>
      </trkpt>
      <trkpt lat="45.97983" lon="0.54539">
        <ele>190.8</ele>
        <time>2022-04-03T13:53:21Z</time>
      </trkpt>
      <trkpt lat="45.97983" lon="0.54532">
        <ele>190.8</ele>
        <time>2022-04-03T13:53:22Z</time>
      </trkpt>
      <trkpt lat="45.97984" lon="0.54525">
        <ele>190.4</ele>
        <time>2022-04-03T13:53:23Z</time>
      </trkpt>
      <trkpt lat="45.97984" lon="0.54518">
        <ele>190.2</ele>
        <time>2022-04-03T13:53:24Z</time>
      </trkpt>
      <trkpt lat="45.97984" lon="0.5451">
        <ele>190.4</ele>
        <time>2022-04-03T13:53:25Z</time>
      </trkpt>
      <trkpt lat="45.97984" lon="0.54503">
        <ele>190.2</ele>
        <time>2022-04-03T13:53:26Z</time>
      </trkpt>
      <trkpt lat="45.97984" lon="0.54496">
        <ele>190.2</ele>
        <time>2022-04-03T13:53:27Z</time>
      </trkpt>
      <trkpt lat="45.97984" lon="0.54488">
        <ele>190.2</ele>
        <time>2022-04-03T13:53:28Z</time>
      </trkpt>
      <trkpt lat="45.97983" lon="0.54481">
        <ele>190.2</ele>
        <time>2022-04-03T13:53:29Z</time>
      </trkpt>
      <trkpt lat="45.97983" lon="0.54474">
        <ele>190.2</ele>
        <time>2022-04-03T13:53:30Z</time>
      </trkpt>
      <trkpt lat="45.97983" lon="0.54466">
        <ele>190</ele>
        <time>2022-04-03T13:53:31Z</time>
      </trkpt>
      <trkpt lat="45.97983" lon="0.54458">
        <ele>190.2</ele>
        <time>2022-04-03T13:53:32Z</time>
      </trkpt>
      <trkpt lat="45.97983" lon="0.54451">
        <ele>190</ele>
        <time>2022-04-03T13:53:33Z</time>
      </trkpt>
      <trkpt lat="45.97983" lon="0.54443">
        <ele>190</ele>
        <time>2022-04-03T13:53:34Z</time>
      </trkpt>
      <trkpt lat="45.97983" lon="0.54435">
        <ele>189.8</ele>
        <time>2022-04-03T13:53:35Z</time>
      </trkpt>
      <trkpt lat="45.97982" lon="0.54427">
        <ele>190</ele>
        <time>2022-04-03T13:53:36Z</time>
      </trkpt>
      <trkpt lat="45.97982" lon="0.54419">
        <ele>190</ele>
        <time>2022-04-03T13:53:37Z</time>
      </trkpt>
      <trkpt lat="45.97981" lon="0.54412">
        <ele>189.8</ele>
        <time>2022-04-03T13:53:38Z</time>
      </trkpt>
      <trkpt lat="45.97981" lon="0.54404">
        <ele>189.8</ele>
        <time>2022-04-03T13:53:39Z</time>
      </trkpt>
      <trkpt lat="45.9798" lon="0.54396">
        <ele>189.6</ele>
        <time>2022-04-03T13:53:40Z</time>
      </trkpt>
      <trkpt lat="45.9798" lon="0.54388">
        <ele>189.8</ele>
        <time>2022-04-03T13:53:41Z</time>
      </trkpt>
      <trkpt lat="45.97979" lon="0.5438">
        <ele>189.8</ele>
        <time>2022-04-03T13:53:42Z</time>
      </trkpt>
      <trkpt lat="45.97978" lon="0.54372">
        <ele>189.8</ele>
        <time>2022-04-03T13:53:43Z</time>
      </trkpt>
      <trkpt lat="45.97978" lon="0.54365">
        <ele>189.6</ele>
        <time>2022-04-03T13:53:44Z</time>
      </trkpt>
      <trkpt lat="45.97977" lon="0.54357">
        <ele>189.6</ele>
        <time>2022-04-03T13:53:45Z</time>
      </trkpt>
      <trkpt lat="45.97976" lon="0.5435">
        <ele>189.6</ele>
        <time>2022-04-03T13:53:46Z</time>
      </trkpt>
      <trkpt lat="45.97976" lon="0.54342">
        <ele>189.6</ele>
        <time>2022-04-03T13:53:47Z</time>
      </trkpt>
      <trkpt lat="45.97975" lon="0.54335">
        <ele>189.6</ele>
        <time>2022-04-03T13:53:48Z</time>
      </trkpt>
      <trkpt lat="45.97975" lon="0.54327">
        <ele>189.6</ele>
        <time>2022-04-03T13:53:49Z</time>
      </trkpt>
      <trkpt lat="45.97974" lon="0.54321">
        <ele>189.6</ele>
        <time>2022-04-03T13:53:50Z</time>
      </trkpt>
      <trkpt lat="45.97974" lon="0.54314">
        <ele>189.6</ele>
        <time>2022-04-03T13:53:51Z</time>
      </trkpt>
      <trkpt lat="45.97973" lon="0.54307">
        <ele>189.8</ele>
        <time>2022-04-03T13:53:52Z</time>
      </trkpt>
      <trkpt lat="45.97973" lon="0.543">
        <ele>190</ele>
        <time>2022-04-03T13:53:53Z</time>
      </trkpt>
      <trkpt lat="45.97972" lon="0.54294">
        <ele>189.8</ele>
        <time>2022-04-03T13:53:54Z</time>
      </trkpt>
      <trkpt lat="45.97972" lon="0.54287">
        <ele>190</ele>
        <time>2022-04-03T13:53:55Z</time>
      </trkpt>
      <trkpt lat="45.97972" lon="0.5428">
        <ele>190</ele>
        <time>2022-04-03T13:53:56Z</time>
      </trkpt>
      <trkpt lat="45.97971" lon="0.54274">
        <ele>190.4</ele>
        <time>2022-04-03T13:53:57Z</time>
      </trkpt>
      <trkpt lat="45.9797" lon="0.54267">
        <ele>190.2</ele>
        <time>2022-04-03T13:53:58Z</time>
      </trkpt>
      <trkpt lat="45.97969" lon="0.5426">
        <ele>190.2</ele>
        <time>2022-04-03T13:53:59Z</time>
      </trkpt>
      <trkpt lat="45.97969" lon="0.54253">
        <ele>190.4</ele>
        <time>2022-04-03T13:54:00Z</time>
      </trkpt>
      <trkpt lat="45.97969" lon="0.54246">
        <ele>190.2</ele>
        <time>2022-04-03T13:54:01Z</time>
      </trkpt>
      <trkpt lat="45.97968" lon="0.54238">
        <ele>190.2</ele>
        <time>2022-04-03T13:54:02Z</time>
      </trkpt>
      <trkpt lat="45.97968" lon="0.5423">
        <ele>190.4</ele>
        <time>2022-04-03T13:54:03Z</time>
      </trkpt>
      <trkpt lat="45.97967" lon="0.54221">
        <ele>190.2</ele>
        <time>2022-04-03T13:54:04Z</time>
      </trkpt>
      <trkpt lat="45.97967" lon="0.54212">
        <ele>190.2</ele>
        <time>2022-04-03T13:54:05Z</time>
      </trkpt>
      <trkpt lat="45.97969" lon="0.54203">
        <ele>190</ele>
        <time>2022-04-03T13:54:06Z</time>
      </trkpt>
      <trkpt lat="45.97972" lon="0.54194">
        <ele>190</ele>
        <time>2022-04-03T13:54:07Z</time>
      </trkpt>
      <trkpt lat="45.97976" lon="0.54186">
        <ele>189.8</ele>
        <time>2022-04-03T13:54:08Z</time>
      </trkpt>
      <trkpt lat="45.97981" lon="0.54179">
        <ele>190</ele>
        <time>2022-04-03T13:54:09Z</time>
      </trkpt>
      <trkpt lat="45.97986" lon="0.54172">
        <ele>189.4</ele>
        <time>2022-04-03T13:54:10Z</time>
      </trkpt>
      <trkpt lat="45.97992" lon="0.54166">
        <ele>189</ele>
        <time>2022-04-03T13:54:11Z</time>
      </trkpt>
      <trkpt lat="45.97998" lon="0.54159">
        <ele>189</ele>
        <time>2022-04-03T13:54:12Z</time>
      </trkpt>
      <trkpt lat="45.98004" lon="0.54153">
        <ele>188.8</ele>
        <time>2022-04-03T13:54:13Z</time>
      </trkpt>
      <trkpt lat="45.98009" lon="0.54148">
        <ele>188.6</ele>
        <time>2022-04-03T13:54:14Z</time>
      </trkpt>
      <trkpt lat="45.98015" lon="0.54142">
        <ele>188.6</ele>
        <time>2022-04-03T13:54:15Z</time>
      </trkpt>
      <trkpt lat="45.98021" lon="0.54137">
        <ele>188.4</ele>
        <time>2022-04-03T13:54:16Z</time>
      </trkpt>
      <trkpt lat="45.98027" lon="0.54133">
        <ele>188</ele>
        <time>2022-04-03T13:54:17Z</time>
      </trkpt>
      <trkpt lat="45.98033" lon="0.54128">
        <ele>187.6</ele>
        <time>2022-04-03T13:54:18Z</time>
      </trkpt>
      <trkpt lat="45.98039" lon="0.54124">
        <ele>186.8</ele>
        <time>2022-04-03T13:54:19Z</time>
      </trkpt>
      <trkpt lat="45.98045" lon="0.5412">
        <ele>186.2</ele>
        <time>2022-04-03T13:54:20Z</time>
      </trkpt>
      <trkpt lat="45.98052" lon="0.54115">
        <ele>185.4</ele>
        <time>2022-04-03T13:54:21Z</time>
      </trkpt>
      <trkpt lat="45.98058" lon="0.54111">
        <ele>184.8</ele>
        <time>2022-04-03T13:54:22Z</time>
      </trkpt>
      <trkpt lat="45.98064" lon="0.54107">
        <ele>184.6</ele>
        <time>2022-04-03T13:54:23Z</time>
      </trkpt>
      <trkpt lat="45.98071" lon="0.54103">
        <ele>184.6</ele>
        <time>2022-04-03T13:54:24Z</time>
      </trkpt>
      <trkpt lat="45.98077" lon="0.541">
        <ele>184.2</ele>
        <time>2022-04-03T13:54:25Z</time>
      </trkpt>
      <trkpt lat="45.98083" lon="0.54097">
        <ele>184</ele>
        <time>2022-04-03T13:54:26Z</time>
      </trkpt>
      <trkpt lat="45.9809" lon="0.54095">
        <ele>183.8</ele>
        <time>2022-04-03T13:54:27Z</time>
      </trkpt>
      <trkpt lat="45.98096" lon="0.54093">
        <ele>183.8</ele>
        <time>2022-04-03T13:54:28Z</time>
      </trkpt>
      <trkpt lat="45.98103" lon="0.5409">
        <ele>183.6</ele>
        <time>2022-04-03T13:54:29Z</time>
      </trkpt>
      <trkpt lat="45.98108" lon="0.54088">
        <ele>183.4</ele>
        <time>2022-04-03T13:54:30Z</time>
      </trkpt>
      <trkpt lat="45.98114" lon="0.54086">
        <ele>183.4</ele>
        <time>2022-04-03T13:54:31Z</time>
      </trkpt>
      <trkpt lat="45.98119" lon="0.54083">
        <ele>183.2</ele>
        <time>2022-04-03T13:54:32Z</time>
      </trkpt>
      <trkpt lat="45.98125" lon="0.54081">
        <ele>183.2</ele>
        <time>2022-04-03T13:54:33Z</time>
      </trkpt>
      <trkpt lat="45.9813" lon="0.5408">
        <ele>183</ele>
        <time>2022-04-03T13:54:34Z</time>
      </trkpt>
      <trkpt lat="45.98135" lon="0.54078">
        <ele>183</ele>
        <time>2022-04-03T13:54:35Z</time>
      </trkpt>
      <trkpt lat="45.98141" lon="0.54075">
        <ele>182.8</ele>
        <time>2022-04-03T13:54:36Z</time>
      </trkpt>
      <trkpt lat="45.98146" lon="0.54072">
        <ele>182.6</ele>
        <time>2022-04-03T13:54:37Z</time>
      </trkpt>
      <trkpt lat="45.98151" lon="0.54068">
        <ele>182.6</ele>
        <time>2022-04-03T13:54:38Z</time>
      </trkpt>
      <trkpt lat="45.98155" lon="0.54064">
        <ele>182.6</ele>
        <time>2022-04-03T13:54:39Z</time>
      </trkpt>
      <trkpt lat="45.9816" lon="0.5406">
        <ele>182.4</ele>
        <time>2022-04-03T13:54:40Z</time>
      </trkpt>
      <trkpt lat="45.98164" lon="0.54055">
        <ele>182.6</ele>
        <time>2022-04-03T13:54:41Z</time>
      </trkpt>
      <trkpt lat="45.98168" lon="0.54049">
        <ele>182.4</ele>
        <time>2022-04-03T13:54:42Z</time>
      </trkpt>
      <trkpt lat="45.98172" lon="0.54042">
        <ele>182.4</ele>
        <time>2022-04-03T13:54:43Z</time>
      </trkpt>
      <trkpt lat="45.98176" lon="0.54035">
        <ele>182.4</ele>
        <time>2022-04-03T13:54:44Z</time>
      </trkpt>
      <trkpt lat="45.9818" lon="0.54027">
        <ele>182.4</ele>
        <time>2022-04-03T13:54:45Z</time>
      </trkpt>
      <trkpt lat="45.98184" lon="0.5402">
        <ele>182.2</ele>
        <time>2022-04-03T13:54:46Z</time>
      </trkpt>
      <trkpt lat="45.98188" lon="0.54012">
        <ele>182.2</ele>
        <time>2022-04-03T13:54:47Z</time>
      </trkpt>
      <trkpt lat="45.98192" lon="0.54004">
        <ele>182</ele>
        <time>2022-04-03T13:54:48Z</time>
      </trkpt>
      <trkpt lat="45.98196" lon="0.53997">
        <ele>181.2</ele>
        <time>2022-04-03T13:54:49Z</time>
      </trkpt>
      <trkpt lat="45.982" lon="0.53989">
        <ele>180.8</ele>
        <time>2022-04-03T13:54:50Z</time>
      </trkpt>
      <trkpt lat="45.98205" lon="0.53982">
        <ele>180.4</ele>
        <time>2022-04-03T13:54:51Z</time>
      </trkpt>
      <trkpt lat="45.98209" lon="0.53974">
        <ele>180.2</ele>
        <time>2022-04-03T13:54:52Z</time>
      </trkpt>
      <trkpt lat="45.98214" lon="0.53967">
        <ele>179.6</ele>
        <time>2022-04-03T13:54:53Z</time>
      </trkpt>
      <trkpt lat="45.98218" lon="0.53959">
        <ele>179.4</ele>
        <time>2022-04-03T13:54:54Z</time>
      </trkpt>
      <trkpt lat="45.98223" lon="0.53951">
        <ele>178.8</ele>
        <time>2022-04-03T13:54:55Z</time>
      </trkpt>
      <trkpt lat="45.98227" lon="0.53943">
        <ele>178.8</ele>
        <time>2022-04-03T13:54:56Z</time>
      </trkpt>
      <trkpt lat="45.98232" lon="0.53935">
        <ele>178.4</ele>
        <time>2022-04-03T13:54:57Z</time>
      </trkpt>
      <trkpt lat="45.98236" lon="0.53927">
        <ele>177.8</ele>
        <time>2022-04-03T13:54:58Z</time>
      </trkpt>
      <trkpt lat="45.98241" lon="0.5392">
        <ele>177.6</ele>
        <time>2022-04-03T13:54:59Z</time>
      </trkpt>
      <trkpt lat="45.98246" lon="0.53911">
        <ele>177.2</ele>
        <time>2022-04-03T13:55:00Z</time>
      </trkpt>
      <trkpt lat="45.9825" lon="0.53903">
        <ele>176.8</ele>
        <time>2022-04-03T13:55:01Z</time>
      </trkpt>
      <trkpt lat="45.98255" lon="0.53895">
        <ele>176.8</ele>
        <time>2022-04-03T13:55:02Z</time>
      </trkpt>
      <trkpt lat="45.9826" lon="0.53886">
        <ele>176.2</ele>
        <time>2022-04-03T13:55:03Z</time>
      </trkpt>
      <trkpt lat="45.98265" lon="0.53878">
        <ele>175.8</ele>
        <time>2022-04-03T13:55:04Z</time>
      </trkpt>
      <trkpt lat="45.9827" lon="0.53869">
        <ele>175.4</ele>
        <time>2022-04-03T13:55:05Z</time>
      </trkpt>
      <trkpt lat="45.98275" lon="0.5386">
        <ele>175</ele>
        <time>2022-04-03T13:55:06Z</time>
      </trkpt>
      <trkpt lat="45.9828" lon="0.53851">
        <ele>174.8</ele>
        <time>2022-04-03T13:55:07Z</time>
      </trkpt>
      <trkpt lat="45.98285" lon="0.53842">
        <ele>174.4</ele>
        <time>2022-04-03T13:55:08Z</time>
      </trkpt>
      <trkpt lat="45.9829" lon="0.53832">
        <ele>174.4</ele>
        <time>2022-04-03T13:55:09Z</time>
      </trkpt>
      <trkpt lat="45.98296" lon="0.53823">
        <ele>174</ele>
        <time>2022-04-03T13:55:10Z</time>
      </trkpt>
      <trkpt lat="45.98301" lon="0.53813">
        <ele>174</ele>
        <time>2022-04-03T13:55:11Z</time>
      </trkpt>
      <trkpt lat="45.98307" lon="0.53803">
        <ele>173.4</ele>
        <time>2022-04-03T13:55:12Z</time>
      </trkpt>
      <trkpt lat="45.98312" lon="0.53793">
        <ele>172.8</ele>
        <time>2022-04-03T13:55:13Z</time>
      </trkpt>
      <trkpt lat="45.98318" lon="0.53783">
        <ele>172.4</ele>
        <time>2022-04-03T13:55:14Z</time>
      </trkpt>
      <trkpt lat="45.98324" lon="0.53772">
        <ele>171.8</ele>
        <time>2022-04-03T13:55:15Z</time>
      </trkpt>
      <trkpt lat="45.9833" lon="0.53762">
        <ele>171</ele>
        <time>2022-04-03T13:55:16Z</time>
      </trkpt>
      <trkpt lat="45.98336" lon="0.53752">
        <ele>170.2</ele>
        <time>2022-04-03T13:55:17Z</time>
      </trkpt>
      <trkpt lat="45.98342" lon="0.53742">
        <ele>169.8</ele>
        <time>2022-04-03T13:55:18Z</time>
      </trkpt>
      <trkpt lat="45.98348" lon="0.53731">
        <ele>169.6</ele>
        <time>2022-04-03T13:55:19Z</time>
      </trkpt>
      <trkpt lat="45.98354" lon="0.53721">
        <ele>169</ele>
        <time>2022-04-03T13:55:20Z</time>
      </trkpt>
      <trkpt lat="45.9836" lon="0.53711">
        <ele>169</ele>
        <time>2022-04-03T13:55:21Z</time>
      </trkpt>
      <trkpt lat="45.98366" lon="0.537">
        <ele>168.6</ele>
        <time>2022-04-03T13:55:22Z</time>
      </trkpt>
      <trkpt lat="45.98372" lon="0.5369">
        <ele>167.8</ele>
        <time>2022-04-03T13:55:23Z</time>
      </trkpt>
      <trkpt lat="45.98379" lon="0.5368">
        <ele>167</ele>
        <time>2022-04-03T13:55:24Z</time>
      </trkpt>
      <trkpt lat="45.98385" lon="0.5367">
        <ele>166.2</ele>
        <time>2022-04-03T13:55:25Z</time>
      </trkpt>
      <trkpt lat="45.98392" lon="0.53659">
        <ele>165.6</ele>
        <time>2022-04-03T13:55:26Z</time>
      </trkpt>
      <trkpt lat="45.98398" lon="0.53648">
        <ele>165</ele>
        <time>2022-04-03T13:55:27Z</time>
      </trkpt>
      <trkpt lat="45.98405" lon="0.53637">
        <ele>164.6</ele>
        <time>2022-04-03T13:55:28Z</time>
      </trkpt>
      <trkpt lat="45.98411" lon="0.53626">
        <ele>163.8</ele>
        <time>2022-04-03T13:55:29Z</time>
      </trkpt>
      <trkpt lat="45.98418" lon="0.53615">
        <ele>163.6</ele>
        <time>2022-04-03T13:55:30Z</time>
      </trkpt>
      <trkpt lat="45.98424" lon="0.53603">
        <ele>162.8</ele>
        <time>2022-04-03T13:55:31Z</time>
      </trkpt>
      <trkpt lat="45.9843" lon="0.53592">
        <ele>162.4</ele>
        <time>2022-04-03T13:55:32Z</time>
      </trkpt>
      <trkpt lat="45.98437" lon="0.5358">
        <ele>161.8</ele>
        <time>2022-04-03T13:55:33Z</time>
      </trkpt>
      <trkpt lat="45.98443" lon="0.53569">
        <ele>161.4</ele>
        <time>2022-04-03T13:55:34Z</time>
      </trkpt>
      <trkpt lat="45.98449" lon="0.53559">
        <ele>161</ele>
        <time>2022-04-03T13:55:35Z</time>
      </trkpt>
      <trkpt lat="45.98456" lon="0.53548">
        <ele>160</ele>
        <time>2022-04-03T13:55:36Z</time>
      </trkpt>
      <trkpt lat="45.98462" lon="0.53539">
        <ele>158.8</ele>
        <time>2022-04-03T13:55:37Z</time>
      </trkpt>
      <trkpt lat="45.98468" lon="0.53529">
        <ele>158</ele>
        <time>2022-04-03T13:55:38Z</time>
      </trkpt>
      <trkpt lat="45.98474" lon="0.53519">
        <ele>158</ele>
        <time>2022-04-03T13:55:39Z</time>
      </trkpt>
      <trkpt lat="45.98479" lon="0.5351">
        <ele>157.2</ele>
        <time>2022-04-03T13:55:40Z</time>
      </trkpt>
      <trkpt lat="45.98485" lon="0.53501">
        <ele>156.6</ele>
        <time>2022-04-03T13:55:41Z</time>
      </trkpt>
      <trkpt lat="45.9849" lon="0.53492">
        <ele>156.2</ele>
        <time>2022-04-03T13:55:42Z</time>
      </trkpt>
      <trkpt lat="45.98495" lon="0.53483">
        <ele>156.2</ele>
        <time>2022-04-03T13:55:43Z</time>
      </trkpt>
      <trkpt lat="45.985" lon="0.53474">
        <ele>156.2</ele>
        <time>2022-04-03T13:55:44Z</time>
      </trkpt>
      <trkpt lat="45.98505" lon="0.53466">
        <ele>156</ele>
        <time>2022-04-03T13:55:45Z</time>
      </trkpt>
      <trkpt lat="45.9851" lon="0.53458">
        <ele>156.2</ele>
        <time>2022-04-03T13:55:46Z</time>
      </trkpt>
      <trkpt lat="45.98515" lon="0.5345">
        <ele>156</ele>
        <time>2022-04-03T13:55:47Z</time>
      </trkpt>
      <trkpt lat="45.98519" lon="0.53441">
        <ele>156</ele>
        <time>2022-04-03T13:55:48Z</time>
      </trkpt>
      <trkpt lat="45.98524" lon="0.53433">
        <ele>155.8</ele>
        <time>2022-04-03T13:55:49Z</time>
      </trkpt>
      <trkpt lat="45.98528" lon="0.53425">
        <ele>155.6</ele>
        <time>2022-04-03T13:55:50Z</time>
      </trkpt>
      <trkpt lat="45.98533" lon="0.53418">
        <ele>155.6</ele>
        <time>2022-04-03T13:55:51Z</time>
      </trkpt>
      <trkpt lat="45.98538" lon="0.5341">
        <ele>155.6</ele>
        <time>2022-04-03T13:55:52Z</time>
      </trkpt>
      <trkpt lat="45.98542" lon="0.53402">
        <ele>155.6</ele>
        <time>2022-04-03T13:55:53Z</time>
      </trkpt>
      <trkpt lat="45.98546" lon="0.53394">
        <ele>155.6</ele>
        <time>2022-04-03T13:55:54Z</time>
      </trkpt>
      <trkpt lat="45.98551" lon="0.53386">
        <ele>155.4</ele>
        <time>2022-04-03T13:55:55Z</time>
      </trkpt>
      <trkpt lat="45.98556" lon="0.53379">
        <ele>155.4</ele>
        <time>2022-04-03T13:55:56Z</time>
      </trkpt>
      <trkpt lat="45.98561" lon="0.53371">
        <ele>155.6</ele>
        <time>2022-04-03T13:55:57Z</time>
      </trkpt>
      <trkpt lat="45.98566" lon="0.53363">
        <ele>155.6</ele>
        <time>2022-04-03T13:55:58Z</time>
      </trkpt>
      <trkpt lat="45.9857" lon="0.53354">
        <ele>155.4</ele>
        <time>2022-04-03T13:55:59Z</time>
      </trkpt>
      <trkpt lat="45.98575" lon="0.53346">
        <ele>155.4</ele>
        <time>2022-04-03T13:56:00Z</time>
      </trkpt>
      <trkpt lat="45.9858" lon="0.53337">
        <ele>155.4</ele>
        <time>2022-04-03T13:56:01Z</time>
      </trkpt>
      <trkpt lat="45.98585" lon="0.53328">
        <ele>155.2</ele>
        <time>2022-04-03T13:56:02Z</time>
      </trkpt>
      <trkpt lat="45.98591" lon="0.53319">
        <ele>155</ele>
        <time>2022-04-03T13:56:03Z</time>
      </trkpt>
      <trkpt lat="45.98596" lon="0.53309">
        <ele>154.8</ele>
        <time>2022-04-03T13:56:04Z</time>
      </trkpt>
      <trkpt lat="45.98601" lon="0.53299">
        <ele>154.4</ele>
        <time>2022-04-03T13:56:05Z</time>
      </trkpt>
      <trkpt lat="45.98607" lon="0.53288">
        <ele>154</ele>
        <time>2022-04-03T13:56:06Z</time>
      </trkpt>
      <trkpt lat="45.98612" lon="0.53278">
        <ele>153.8</ele>
        <time>2022-04-03T13:56:07Z</time>
      </trkpt>
      <trkpt lat="45.98616" lon="0.53266">
        <ele>152.8</ele>
        <time>2022-04-03T13:56:08Z</time>
      </trkpt>
      <trkpt lat="45.98621" lon="0.53255">
        <ele>152.4</ele>
        <time>2022-04-03T13:56:09Z</time>
      </trkpt>
      <trkpt lat="45.98625" lon="0.53244">
        <ele>152</ele>
        <time>2022-04-03T13:56:10Z</time>
      </trkpt>
      <trkpt lat="45.98628" lon="0.53232">
        <ele>151.2</ele>
        <time>2022-04-03T13:56:11Z</time>
      </trkpt>
      <trkpt lat="45.98631" lon="0.5322">
        <ele>150.8</ele>
        <time>2022-04-03T13:56:12Z</time>
      </trkpt>
      <trkpt lat="45.98632" lon="0.53208">
        <ele>150.4</ele>
        <time>2022-04-03T13:56:13Z</time>
      </trkpt>
      <trkpt lat="45.98634" lon="0.53196">
        <ele>149.8</ele>
        <time>2022-04-03T13:56:14Z</time>
      </trkpt>
      <trkpt lat="45.98635" lon="0.53184">
        <ele>148.8</ele>
        <time>2022-04-03T13:56:15Z</time>
      </trkpt>
      <trkpt lat="45.98636" lon="0.53173">
        <ele>148</ele>
        <time>2022-04-03T13:56:16Z</time>
      </trkpt>
      <trkpt lat="45.98638" lon="0.53163">
        <ele>148</ele>
        <time>2022-04-03T13:56:17Z</time>
      </trkpt>
      <trkpt lat="45.98639" lon="0.53152">
        <ele>147.4</ele>
        <time>2022-04-03T13:56:18Z</time>
      </trkpt>
      <trkpt lat="45.9864" lon="0.53142">
        <ele>147</ele>
        <time>2022-04-03T13:56:19Z</time>
      </trkpt>
      <trkpt lat="45.9864" lon="0.53132">
        <ele>147</ele>
        <time>2022-04-03T13:56:20Z</time>
      </trkpt>
      <trkpt lat="45.98641" lon="0.53122">
        <ele>146.8</ele>
        <time>2022-04-03T13:56:21Z</time>
      </trkpt>
      <trkpt lat="45.98642" lon="0.53113">
        <ele>146.6</ele>
        <time>2022-04-03T13:56:22Z</time>
      </trkpt>
      <trkpt lat="45.98643" lon="0.53104">
        <ele>146.6</ele>
        <time>2022-04-03T13:56:23Z</time>
      </trkpt>
      <trkpt lat="45.98644" lon="0.53096">
        <ele>146.6</ele>
        <time>2022-04-03T13:56:24Z</time>
      </trkpt>
      <trkpt lat="45.98645" lon="0.53087">
        <ele>146.6</ele>
        <time>2022-04-03T13:56:25Z</time>
      </trkpt>
      <trkpt lat="45.98646" lon="0.53079">
        <ele>146.4</ele>
        <time>2022-04-03T13:56:26Z</time>
      </trkpt>
      <trkpt lat="45.98647" lon="0.53072">
        <ele>146.4</ele>
        <time>2022-04-03T13:56:27Z</time>
      </trkpt>
      <trkpt lat="45.98648" lon="0.53064">
        <ele>146.4</ele>
        <time>2022-04-03T13:56:28Z</time>
      </trkpt>
      <trkpt lat="45.98648" lon="0.53057">
        <ele>146.4</ele>
        <time>2022-04-03T13:56:29Z</time>
      </trkpt>
      <trkpt lat="45.98649" lon="0.5305">
        <ele>146.4</ele>
        <time>2022-04-03T13:56:30Z</time>
      </trkpt>
      <trkpt lat="45.98649" lon="0.53043">
        <ele>146.6</ele>
        <time>2022-04-03T13:56:31Z</time>
      </trkpt>
      <trkpt lat="45.9865" lon="0.53036">
        <ele>146.6</ele>
        <time>2022-04-03T13:56:32Z</time>
      </trkpt>
      <trkpt lat="45.98651" lon="0.5303">
        <ele>146.8</ele>
        <time>2022-04-03T13:56:33Z</time>
      </trkpt>
      <trkpt lat="45.98651" lon="0.53023">
        <ele>146.8</ele>
        <time>2022-04-03T13:56:34Z</time>
      </trkpt>
      <trkpt lat="45.98652" lon="0.53017">
        <ele>147.2</ele>
        <time>2022-04-03T13:56:35Z</time>
      </trkpt>
      <trkpt lat="45.98653" lon="0.53011">
        <ele>147.2</ele>
        <time>2022-04-03T13:56:36Z</time>
      </trkpt>
      <trkpt lat="45.98654" lon="0.53006">
        <ele>147.4</ele>
        <time>2022-04-03T13:56:37Z</time>
      </trkpt>
      <trkpt lat="45.98655" lon="0.53">
        <ele>147.6</ele>
        <time>2022-04-03T13:56:38Z</time>
      </trkpt>
      <trkpt lat="45.98656" lon="0.52995">
        <ele>147.8</ele>
        <time>2022-04-03T13:56:39Z</time>
      </trkpt>
      <trkpt lat="45.98656" lon="0.5299">
        <ele>147.8</ele>
        <time>2022-04-03T13:56:40Z</time>
      </trkpt>
      <trkpt lat="45.98657" lon="0.52986">
        <ele>148</ele>
        <time>2022-04-03T13:56:41Z</time>
      </trkpt>
      <trkpt lat="45.98658" lon="0.52981">
        <ele>148</ele>
        <time>2022-04-03T13:56:42Z</time>
      </trkpt>
      <trkpt lat="45.98658" lon="0.52977">
        <ele>148.2</ele>
        <time>2022-04-03T13:56:43Z</time>
      </trkpt>
      <trkpt lat="45.98659" lon="0.52973">
        <ele>148.4</ele>
        <time>2022-04-03T13:56:44Z</time>
      </trkpt>
      <trkpt lat="45.9866" lon="0.52969">
        <ele>148.6</ele>
        <time>2022-04-03T13:56:45Z</time>
      </trkpt>
      <trkpt lat="45.9866" lon="0.52966">
        <ele>148.6</ele>
        <time>2022-04-03T13:56:46Z</time>
      </trkpt>
      <trkpt lat="45.98661" lon="0.52962">
        <ele>148.8</ele>
        <time>2022-04-03T13:56:47Z</time>
      </trkpt>
      <trkpt lat="45.98661" lon="0.52958">
        <ele>149</ele>
        <time>2022-04-03T13:56:48Z</time>
      </trkpt>
      <trkpt lat="45.98661" lon="0.52955">
        <ele>149.4</ele>
        <time>2022-04-03T13:56:49Z</time>
      </trkpt>
      <trkpt lat="45.98662" lon="0.52951">
        <ele>149.8</ele>
        <time>2022-04-03T13:56:50Z</time>
      </trkpt>
      <trkpt lat="45.98663" lon="0.52947">
        <ele>149.8</ele>
        <time>2022-04-03T13:56:51Z</time>
      </trkpt>
      <trkpt lat="45.98664" lon="0.52943">
        <ele>149.8</ele>
        <time>2022-04-03T13:56:52Z</time>
      </trkpt>
      <trkpt lat="45.98665" lon="0.52938">
        <ele>150</ele>
        <time>2022-04-03T13:56:53Z</time>
      </trkpt>
      <trkpt lat="45.98666" lon="0.52933">
        <ele>150</ele>
        <time>2022-04-03T13:56:54Z</time>
      </trkpt>
      <trkpt lat="45.98667" lon="0.52927">
        <ele>150</ele>
        <time>2022-04-03T13:56:55Z</time>
      </trkpt>
      <trkpt lat="45.98668" lon="0.5292">
        <ele>150</ele>
        <time>2022-04-03T13:56:56Z</time>
      </trkpt>
      <trkpt lat="45.98669" lon="0.52914">
        <ele>150</ele>
        <time>2022-04-03T13:56:57Z</time>
      </trkpt>
      <trkpt lat="45.9867" lon="0.52906">
        <ele>150</ele>
        <time>2022-04-03T13:56:58Z</time>
      </trkpt>
      <trkpt lat="45.98669" lon="0.52899">
        <ele>150</ele>
        <time>2022-04-03T13:56:59Z</time>
      </trkpt>
      <trkpt lat="45.98669" lon="0.52892">
        <ele>150</ele>
        <time>2022-04-03T13:57:00Z</time>
      </trkpt>
      <trkpt lat="45.98668" lon="0.52885">
        <ele>149.6</ele>
        <time>2022-04-03T13:57:01Z</time>
      </trkpt>
      <trkpt lat="45.98667" lon="0.52879">
        <ele>149.6</ele>
        <time>2022-04-03T13:57:02Z</time>
      </trkpt>
      <trkpt lat="45.98666" lon="0.52874">
        <ele>149.2</ele>
        <time>2022-04-03T13:57:03Z</time>
      </trkpt>
      <trkpt lat="45.98665" lon="0.52869">
        <ele>149</ele>
        <time>2022-04-03T13:57:04Z</time>
      </trkpt>
      <trkpt lat="45.98664" lon="0.52864">
        <ele>149</ele>
        <time>2022-04-03T13:57:05Z</time>
      </trkpt>
      <trkpt lat="45.98663" lon="0.52859">
        <ele>149</ele>
        <time>2022-04-03T13:57:06Z</time>
      </trkpt>
      <trkpt lat="45.98661" lon="0.52855">
        <ele>149</ele>
        <time>2022-04-03T13:57:07Z</time>
      </trkpt>
      <trkpt lat="45.9866" lon="0.52851">
        <ele>149</ele>
        <time>2022-04-03T13:57:08Z</time>
      </trkpt>
      <trkpt lat="45.98659" lon="0.52847">
        <ele>149</ele>
        <time>2022-04-03T13:57:09Z</time>
      </trkpt>
      <trkpt lat="45.98658" lon="0.52843">
        <ele>148.8</ele>
        <time>2022-04-03T13:57:10Z</time>
      </trkpt>
      <trkpt lat="45.98657" lon="0.5284">
        <ele>149</ele>
        <time>2022-04-03T13:57:11Z</time>
      </trkpt>
      <trkpt lat="45.98656" lon="0.52836">
        <ele>148.8</ele>
        <time>2022-04-03T13:57:12Z</time>
      </trkpt>
      <trkpt lat="45.98655" lon="0.52832">
        <ele>148.8</ele>
        <time>2022-04-03T13:57:13Z</time>
      </trkpt>
      <trkpt lat="45.98654" lon="0.52828">
        <ele>149</ele>
        <time>2022-04-03T13:57:14Z</time>
      </trkpt>
      <trkpt lat="45.98654" lon="0.52825">
        <ele>149.2</ele>
        <time>2022-04-03T13:57:15Z</time>
      </trkpt>
      <trkpt lat="45.98653" lon="0.52821">
        <ele>149.6</ele>
        <time>2022-04-03T13:57:16Z</time>
      </trkpt>
      <trkpt lat="45.98652" lon="0.52817">
        <ele>149.6</ele>
        <time>2022-04-03T13:57:17Z</time>
      </trkpt>
      <trkpt lat="45.98651" lon="0.52813">
        <ele>150</ele>
        <time>2022-04-03T13:57:18Z</time>
      </trkpt>
      <trkpt lat="45.9865" lon="0.5281">
        <ele>150.4</ele>
        <time>2022-04-03T13:57:19Z</time>
      </trkpt>
      <trkpt lat="45.98649" lon="0.52806">
        <ele>150.2</ele>
        <time>2022-04-03T13:57:20Z</time>
      </trkpt>
      <trkpt lat="45.98648" lon="0.52802">
        <ele>150.6</ele>
        <time>2022-04-03T13:57:21Z</time>
      </trkpt>
      <trkpt lat="45.98647" lon="0.52799">
        <ele>150.6</ele>
        <time>2022-04-03T13:57:22Z</time>
      </trkpt>
      <trkpt lat="45.98647" lon="0.52795">
        <ele>151.2</ele>
        <time>2022-04-03T13:57:23Z</time>
      </trkpt>
      <trkpt lat="45.98646" lon="0.52792">
        <ele>151.4</ele>
        <time>2022-04-03T13:57:24Z</time>
      </trkpt>
      <trkpt lat="45.98644" lon="0.52788">
        <ele>151.4</ele>
        <time>2022-04-03T13:57:25Z</time>
      </trkpt>
      <trkpt lat="45.98643" lon="0.52785">
        <ele>151.6</ele>
        <time>2022-04-03T13:57:26Z</time>
      </trkpt>
      <trkpt lat="45.98642" lon="0.52781">
        <ele>151.6</ele>
        <time>2022-04-03T13:57:27Z</time>
      </trkpt>
      <trkpt lat="45.98641" lon="0.52778">
        <ele>151.6</ele>
        <time>2022-04-03T13:57:28Z</time>
      </trkpt>
      <trkpt lat="45.9864" lon="0.52774">
        <ele>152</ele>
        <time>2022-04-03T13:57:29Z</time>
      </trkpt>
      <trkpt lat="45.98639" lon="0.52771">
        <ele>152.2</ele>
        <time>2022-04-03T13:57:30Z</time>
      </trkpt>
      <trkpt lat="45.98638" lon="0.52767">
        <ele>152.4</ele>
        <time>2022-04-03T13:57:31Z</time>
      </trkpt>
      <trkpt lat="45.98637" lon="0.52764">
        <ele>152.4</ele>
        <time>2022-04-03T13:57:32Z</time>
      </trkpt>
      <trkpt lat="45.98636" lon="0.52761">
        <ele>152.8</ele>
        <time>2022-04-03T13:57:33Z</time>
      </trkpt>
      <trkpt lat="45.98635" lon="0.52758">
        <ele>152.8</ele>
        <time>2022-04-03T13:57:34Z</time>
      </trkpt>
      <trkpt lat="45.98634" lon="0.52754">
        <ele>152.8</ele>
        <time>2022-04-03T13:57:35Z</time>
      </trkpt>
      <trkpt lat="45.98633" lon="0.52751">
        <ele>152.8</ele>
        <time>2022-04-03T13:57:36Z</time>
      </trkpt>
      <trkpt lat="45.98632" lon="0.52747">
        <ele>153</ele>
        <time>2022-04-03T13:57:37Z</time>
      </trkpt>
      <trkpt lat="45.98631" lon="0.52744">
        <ele>153.4</ele>
        <time>2022-04-03T13:57:38Z</time>
      </trkpt>
      <trkpt lat="45.9863" lon="0.5274">
        <ele>153.6</ele>
        <time>2022-04-03T13:57:39Z</time>
      </trkpt>
      <trkpt lat="45.9863" lon="0.52736">
        <ele>153.8</ele>
        <time>2022-04-03T13:57:40Z</time>
      </trkpt>
      <trkpt lat="45.98629" lon="0.52733">
        <ele>154</ele>
        <time>2022-04-03T13:57:41Z</time>
      </trkpt>
      <trkpt lat="45.98628" lon="0.52729">
        <ele>154.2</ele>
        <time>2022-04-03T13:57:42Z</time>
      </trkpt>
      <trkpt lat="45.98627" lon="0.52726">
        <ele>154.6</ele>
        <time>2022-04-03T13:57:43Z</time>
      </trkpt>
      <trkpt lat="45.98626" lon="0.52722">
        <ele>155</ele>
        <time>2022-04-03T13:57:44Z</time>
      </trkpt>
      <trkpt lat="45.98625" lon="0.52719">
        <ele>155.2</ele>
        <time>2022-04-03T13:57:45Z</time>
      </trkpt>
      <trkpt lat="45.98624" lon="0.52715">
        <ele>155.4</ele>
        <time>2022-04-03T13:57:46Z</time>
      </trkpt>
      <trkpt lat="45.98623" lon="0.52712">
        <ele>155.6</ele>
        <time>2022-04-03T13:57:47Z</time>
      </trkpt>
      <trkpt lat="45.98623" lon="0.52708">
        <ele>155.6</ele>
        <time>2022-04-03T13:57:48Z</time>
      </trkpt>
      <trkpt lat="45.98621" lon="0.52704">
        <ele>155.6</ele>
        <time>2022-04-03T13:57:49Z</time>
      </trkpt>
      <trkpt lat="45.9862" lon="0.52701">
        <ele>155.6</ele>
        <time>2022-04-03T13:57:50Z</time>
      </trkpt>
      <trkpt lat="45.98619" lon="0.52698">
        <ele>155.6</ele>
        <time>2022-04-03T13:57:51Z</time>
      </trkpt>
      <trkpt lat="45.98618" lon="0.52694">
        <ele>155.8</ele>
        <time>2022-04-03T13:57:52Z</time>
      </trkpt>
      <trkpt lat="45.98617" lon="0.52691">
        <ele>155.8</ele>
        <time>2022-04-03T13:57:53Z</time>
      </trkpt>
      <trkpt lat="45.98617" lon="0.52687">
        <ele>156</ele>
        <time>2022-04-03T13:57:54Z</time>
      </trkpt>
      <trkpt lat="45.98616" lon="0.52683">
        <ele>156</ele>
        <time>2022-04-03T13:57:55Z</time>
      </trkpt>
      <trkpt lat="45.98615" lon="0.5268">
        <ele>156.2</ele>
        <time>2022-04-03T13:57:56Z</time>
      </trkpt>
      <trkpt lat="45.98614" lon="0.52676">
        <ele>156.4</ele>
        <time>2022-04-03T13:57:57Z</time>
      </trkpt>
      <trkpt lat="45.98613" lon="0.52673">
        <ele>156.6</ele>
        <time>2022-04-03T13:57:58Z</time>
      </trkpt>
      <trkpt lat="45.98612" lon="0.52669">
        <ele>157</ele>
        <time>2022-04-03T13:57:59Z</time>
      </trkpt>
      <trkpt lat="45.98611" lon="0.52666">
        <ele>157</ele>
        <time>2022-04-03T13:58:00Z</time>
      </trkpt>
      <trkpt lat="45.9861" lon="0.52662">
        <ele>157.2</ele>
        <time>2022-04-03T13:58:01Z</time>
      </trkpt>
      <trkpt lat="45.9861" lon="0.52659">
        <ele>157.2</ele>
        <time>2022-04-03T13:58:02Z</time>
      </trkpt>
      <trkpt lat="45.98609" lon="0.52656">
        <ele>157.6</ele>
        <time>2022-04-03T13:58:03Z</time>
      </trkpt>
      <trkpt lat="45.98608" lon="0.52653">
        <ele>157.6</ele>
        <time>2022-04-03T13:58:04Z</time>
      </trkpt>
      <trkpt lat="45.98607" lon="0.5265">
        <ele>157.8</ele>
        <time>2022-04-03T13:58:05Z</time>
      </trkpt>
      <trkpt lat="45.98606" lon="0.52647">
        <ele>157.8</ele>
        <time>2022-04-03T13:58:06Z</time>
      </trkpt>
      <trkpt lat="45.98606" lon="0.52645">
        <ele>158</ele>
        <time>2022-04-03T13:58:07Z</time>
      </trkpt>
      <trkpt lat="45.98605" lon="0.52643">
        <ele>158.2</ele>
        <time>2022-04-03T13:58:08Z</time>
      </trkpt>
      <trkpt lat="45.98605" lon="0.5264">
        <ele>158.6</ele>
        <time>2022-04-03T13:58:09Z</time>
      </trkpt>
      <trkpt lat="45.98604" lon="0.52637">
        <ele>158.6</ele>
        <time>2022-04-03T13:58:10Z</time>
      </trkpt>
      <trkpt lat="45.98603" lon="0.52634">
        <ele>158.6</ele>
        <time>2022-04-03T13:58:11Z</time>
      </trkpt>
      <trkpt lat="45.98602" lon="0.52631">
        <ele>159</ele>
        <time>2022-04-03T13:58:12Z</time>
      </trkpt>
      <trkpt lat="45.98602" lon="0.52628">
        <ele>159.2</ele>
        <time>2022-04-03T13:58:13Z</time>
      </trkpt>
      <trkpt lat="45.98601" lon="0.52625">
        <ele>159.4</ele>
        <time>2022-04-03T13:58:14Z</time>
      </trkpt>
      <trkpt lat="45.986" lon="0.52622">
        <ele>159.4</ele>
        <time>2022-04-03T13:58:15Z</time>
      </trkpt>
      <trkpt lat="45.98599" lon="0.5262">
        <ele>159.6</ele>
        <time>2022-04-03T13:58:16Z</time>
      </trkpt>
      <trkpt lat="45.98598" lon="0.52617">
        <ele>159.8</ele>
        <time>2022-04-03T13:58:17Z</time>
      </trkpt>
      <trkpt lat="45.98598" lon="0.52614">
        <ele>159.8</ele>
        <time>2022-04-03T13:58:18Z</time>
      </trkpt>
      <trkpt lat="45.98597" lon="0.52612">
        <ele>159.8</ele>
        <time>2022-04-03T13:58:19Z</time>
      </trkpt>
      <trkpt lat="45.98596" lon="0.52609">
        <ele>160</ele>
        <time>2022-04-03T13:58:20Z</time>
      </trkpt>
      <trkpt lat="45.98596" lon="0.52606">
        <ele>160.2</ele>
        <time>2022-04-03T13:58:21Z</time>
      </trkpt>
      <trkpt lat="45.98595" lon="0.52603">
        <ele>160.2</ele>
        <time>2022-04-03T13:58:22Z</time>
      </trkpt>
      <trkpt lat="45.98594" lon="0.526">
        <ele>160.4</ele>
        <time>2022-04-03T13:58:23Z</time>
      </trkpt>
      <trkpt lat="45.98593" lon="0.52597">
        <ele>160.4</ele>
        <time>2022-04-03T13:58:24Z</time>
      </trkpt>
      <trkpt lat="45.98593" lon="0.52595">
        <ele>160.6</ele>
        <time>2022-04-03T13:58:25Z</time>
      </trkpt>
      <trkpt lat="45.98592" lon="0.52592">
        <ele>161</ele>
        <time>2022-04-03T13:58:26Z</time>
      </trkpt>
      <trkpt lat="45.98591" lon="0.52589">
        <ele>161</ele>
        <time>2022-04-03T13:58:27Z</time>
      </trkpt>
      <trkpt lat="45.98591" lon="0.52586">
        <ele>161</ele>
        <time>2022-04-03T13:58:28Z</time>
      </trkpt>
      <trkpt lat="45.9859" lon="0.52584">
        <ele>161</ele>
        <time>2022-04-03T13:58:29Z</time>
      </trkpt>
      <trkpt lat="45.9859" lon="0.52581">
        <ele>161.2</ele>
        <time>2022-04-03T13:58:30Z</time>
      </trkpt>
      <trkpt lat="45.98589" lon="0.52578">
        <ele>161.2</ele>
        <time>2022-04-03T13:58:31Z</time>
      </trkpt>
      <trkpt lat="45.98588" lon="0.52575">
        <ele>161.4</ele>
        <time>2022-04-03T13:58:32Z</time>
      </trkpt>
      <trkpt lat="45.98587" lon="0.52572">
        <ele>161.4</ele>
        <time>2022-04-03T13:58:33Z</time>
      </trkpt>
      <trkpt lat="45.98587" lon="0.5257">
        <ele>161.4</ele>
        <time>2022-04-03T13:58:34Z</time>
      </trkpt>
      <trkpt lat="45.98586" lon="0.52567">
        <ele>161.6</ele>
        <time>2022-04-03T13:58:35Z</time>
      </trkpt>
      <trkpt lat="45.98585" lon="0.52564">
        <ele>161.6</ele>
        <time>2022-04-03T13:58:36Z</time>
      </trkpt>
      <trkpt lat="45.98584" lon="0.52561">
        <ele>161.8</ele>
        <time>2022-04-03T13:58:37Z</time>
      </trkpt>
      <trkpt lat="45.98584" lon="0.52558">
        <ele>162</ele>
        <time>2022-04-03T13:58:38Z</time>
      </trkpt>
      <trkpt lat="45.98583" lon="0.52556">
        <ele>162</ele>
        <time>2022-04-03T13:58:39Z</time>
      </trkpt>
      <trkpt lat="45.98583" lon="0.52553">
        <ele>162.2</ele>
        <time>2022-04-03T13:58:40Z</time>
      </trkpt>
      <trkpt lat="45.98582" lon="0.5255">
        <ele>162.4</ele>
        <time>2022-04-03T13:58:41Z</time>
      </trkpt>
      <trkpt lat="45.98581" lon="0.52548">
        <ele>162.4</ele>
        <time>2022-04-03T13:58:42Z</time>
      </trkpt>
      <trkpt lat="45.9858" lon="0.52545">
        <ele>162.6</ele>
        <time>2022-04-03T13:58:43Z</time>
      </trkpt>
      <trkpt lat="45.9858" lon="0.52542">
        <ele>162.6</ele>
        <time>2022-04-03T13:58:44Z</time>
      </trkpt>
      <trkpt lat="45.98579" lon="0.5254">
        <ele>162.8</ele>
        <time>2022-04-03T13:58:45Z</time>
      </trkpt>
      <trkpt lat="45.98578" lon="0.52537">
        <ele>163</ele>
        <time>2022-04-03T13:58:46Z</time>
      </trkpt>
      <trkpt lat="45.98578" lon="0.52535">
        <ele>163</ele>
        <time>2022-04-03T13:58:47Z</time>
      </trkpt>
      <trkpt lat="45.98577" lon="0.52532">
        <ele>163.2</ele>
        <time>2022-04-03T13:58:48Z</time>
      </trkpt>
      <trkpt lat="45.98576" lon="0.52529">
        <ele>163.4</ele>
        <time>2022-04-03T13:58:49Z</time>
      </trkpt>
      <trkpt lat="45.98576" lon="0.52526">
        <ele>163.6</ele>
        <time>2022-04-03T13:58:50Z</time>
      </trkpt>
      <trkpt lat="45.98575" lon="0.52523">
        <ele>163.6</ele>
        <time>2022-04-03T13:58:51Z</time>
      </trkpt>
      <trkpt lat="45.98574" lon="0.5252">
        <ele>163.8</ele>
        <time>2022-04-03T13:58:52Z</time>
      </trkpt>
      <trkpt lat="45.98573" lon="0.52518">
        <ele>163.8</ele>
        <time>2022-04-03T13:58:53Z</time>
      </trkpt>
      <trkpt lat="45.98572" lon="0.52515">
        <ele>163.8</ele>
        <time>2022-04-03T13:58:54Z</time>
      </trkpt>
      <trkpt lat="45.98571" lon="0.52512">
        <ele>164</ele>
        <time>2022-04-03T13:58:55Z</time>
      </trkpt>
      <trkpt lat="45.98571" lon="0.52509">
        <ele>164.2</ele>
        <time>2022-04-03T13:58:56Z</time>
      </trkpt>
      <trkpt lat="45.9857" lon="0.52507">
        <ele>164.4</ele>
        <time>2022-04-03T13:58:57Z</time>
      </trkpt>
      <trkpt lat="45.98569" lon="0.52504">
        <ele>164.4</ele>
        <time>2022-04-03T13:58:58Z</time>
      </trkpt>
      <trkpt lat="45.98569" lon="0.52502">
        <ele>164.8</ele>
        <time>2022-04-03T13:58:59Z</time>
      </trkpt>
      <trkpt lat="45.98568" lon="0.52499">
        <ele>165</ele>
        <time>2022-04-03T13:59:00Z</time>
      </trkpt>
      <trkpt lat="45.98567" lon="0.52496">
        <ele>165</ele>
        <time>2022-04-03T13:59:01Z</time>
      </trkpt>
      <trkpt lat="45.98566" lon="0.52494">
        <ele>165.4</ele>
        <time>2022-04-03T13:59:02Z</time>
      </trkpt>
      <trkpt lat="45.98566" lon="0.52491">
        <ele>165.4</ele>
        <time>2022-04-03T13:59:03Z</time>
      </trkpt>
      <trkpt lat="45.98565" lon="0.52488">
        <ele>165.6</ele>
        <time>2022-04-03T13:59:04Z</time>
      </trkpt>
      <trkpt lat="45.98564" lon="0.52485">
        <ele>165.8</ele>
        <time>2022-04-03T13:59:05Z</time>
      </trkpt>
      <trkpt lat="45.98564" lon="0.52482">
        <ele>165.8</ele>
        <time>2022-04-03T13:59:06Z</time>
      </trkpt>
      <trkpt lat="45.98563" lon="0.5248">
        <ele>166</ele>
        <time>2022-04-03T13:59:07Z</time>
      </trkpt>
      <trkpt lat="45.98562" lon="0.52477">
        <ele>166.2</ele>
        <time>2022-04-03T13:59:08Z</time>
      </trkpt>
      <trkpt lat="45.98561" lon="0.52475">
        <ele>166.2</ele>
        <time>2022-04-03T13:59:09Z</time>
      </trkpt>
      <trkpt lat="45.98561" lon="0.52472">
        <ele>166.6</ele>
        <time>2022-04-03T13:59:10Z</time>
      </trkpt>
      <trkpt lat="45.9856" lon="0.52469">
        <ele>166.6</ele>
        <time>2022-04-03T13:59:11Z</time>
      </trkpt>
      <trkpt lat="45.98559" lon="0.52467">
        <ele>166.6</ele>
        <time>2022-04-03T13:59:12Z</time>
      </trkpt>
      <trkpt lat="45.98559" lon="0.52464">
        <ele>166.8</ele>
        <time>2022-04-03T13:59:13Z</time>
      </trkpt>
      <trkpt lat="45.98558" lon="0.52462">
        <ele>166.8</ele>
        <time>2022-04-03T13:59:14Z</time>
      </trkpt>
      <trkpt lat="45.98557" lon="0.52459">
        <ele>167</ele>
        <time>2022-04-03T13:59:15Z</time>
      </trkpt>
      <trkpt lat="45.98556" lon="0.52457">
        <ele>167</ele>
        <time>2022-04-03T13:59:16Z</time>
      </trkpt>
      <trkpt lat="45.98556" lon="0.52454">
        <ele>167.2</ele>
        <time>2022-04-03T13:59:17Z</time>
      </trkpt>
      <trkpt lat="45.98555" lon="0.52451">
        <ele>167.6</ele>
        <time>2022-04-03T13:59:18Z</time>
      </trkpt>
      <trkpt lat="45.98554" lon="0.52448">
        <ele>167.8</ele>
        <time>2022-04-03T13:59:19Z</time>
      </trkpt>
      <trkpt lat="45.98554" lon="0.52445">
        <ele>167.8</ele>
        <time>2022-04-03T13:59:20Z</time>
      </trkpt>
      <trkpt lat="45.98553" lon="0.52443">
        <ele>167.8</ele>
        <time>2022-04-03T13:59:21Z</time>
      </trkpt>
      <trkpt lat="45.98552" lon="0.5244">
        <ele>168</ele>
        <time>2022-04-03T13:59:22Z</time>
      </trkpt>
      <trkpt lat="45.98551" lon="0.52437">
        <ele>168</ele>
        <time>2022-04-03T13:59:23Z</time>
      </trkpt>
      <trkpt lat="45.9855" lon="0.52435">
        <ele>168.2</ele>
        <time>2022-04-03T13:59:24Z</time>
      </trkpt>
      <trkpt lat="45.9855" lon="0.52432">
        <ele>168.2</ele>
        <time>2022-04-03T13:59:25Z</time>
      </trkpt>
      <trkpt lat="45.98549" lon="0.52429">
        <ele>168.2</ele>
        <time>2022-04-03T13:59:26Z</time>
      </trkpt>
      <trkpt lat="45.98548" lon="0.52426">
        <ele>168.4</ele>
        <time>2022-04-03T13:59:27Z</time>
      </trkpt>
      <trkpt lat="45.98547" lon="0.52423">
        <ele>168.4</ele>
        <time>2022-04-03T13:59:28Z</time>
      </trkpt>
      <trkpt lat="45.98547" lon="0.52421">
        <ele>168.4</ele>
        <time>2022-04-03T13:59:29Z</time>
      </trkpt>
      <trkpt lat="45.98546" lon="0.52418">
        <ele>168.8</ele>
        <time>2022-04-03T13:59:30Z</time>
      </trkpt>
      <trkpt lat="45.98545" lon="0.52415">
        <ele>169</ele>
        <time>2022-04-03T13:59:31Z</time>
      </trkpt>
      <trkpt lat="45.98545" lon="0.52413">
        <ele>169.2</ele>
        <time>2022-04-03T13:59:32Z</time>
      </trkpt>
      <trkpt lat="45.98544" lon="0.52411">
        <ele>169.2</ele>
        <time>2022-04-03T13:59:33Z</time>
      </trkpt>
      <trkpt lat="45.98543" lon="0.52408">
        <ele>169.4</ele>
        <time>2022-04-03T13:59:34Z</time>
      </trkpt>
      <trkpt lat="45.98542" lon="0.52406">
        <ele>169.4</ele>
        <time>2022-04-03T13:59:35Z</time>
      </trkpt>
      <trkpt lat="45.98542" lon="0.52403">
        <ele>169.6</ele>
        <time>2022-04-03T13:59:36Z</time>
      </trkpt>
      <trkpt lat="45.98541" lon="0.524">
        <ele>169.6</ele>
        <time>2022-04-03T13:59:37Z</time>
      </trkpt>
      <trkpt lat="45.9854" lon="0.52397">
        <ele>169.8</ele>
        <time>2022-04-03T13:59:38Z</time>
      </trkpt>
      <trkpt lat="45.9854" lon="0.52395">
        <ele>169.8</ele>
        <time>2022-04-03T13:59:39Z</time>
      </trkpt>
      <trkpt lat="45.98539" lon="0.52392">
        <ele>170.2</ele>
        <time>2022-04-03T13:59:40Z</time>
      </trkpt>
      <trkpt lat="45.98538" lon="0.52389">
        <ele>170.2</ele>
        <time>2022-04-03T13:59:41Z</time>
      </trkpt>
      <trkpt lat="45.98537" lon="0.52387">
        <ele>170.4</ele>
        <time>2022-04-03T13:59:42Z</time>
      </trkpt>
      <trkpt lat="45.98536" lon="0.52384">
        <ele>170.6</ele>
        <time>2022-04-03T13:59:43Z</time>
      </trkpt>
      <trkpt lat="45.98535" lon="0.52381">
        <ele>170.6</ele>
        <time>2022-04-03T13:59:44Z</time>
      </trkpt>
      <trkpt lat="45.98534" lon="0.52378">
        <ele>170.8</ele>
        <time>2022-04-03T13:59:45Z</time>
      </trkpt>
      <trkpt lat="45.98533" lon="0.52375">
        <ele>170.8</ele>
        <time>2022-04-03T13:59:46Z</time>
      </trkpt>
      <trkpt lat="45.98532" lon="0.52372">
        <ele>171</ele>
        <time>2022-04-03T13:59:47Z</time>
      </trkpt>
      <trkpt lat="45.98531" lon="0.5237">
        <ele>171</ele>
        <time>2022-04-03T13:59:48Z</time>
      </trkpt>
      <trkpt lat="45.9853" lon="0.52367">
        <ele>171.4</ele>
        <time>2022-04-03T13:59:49Z</time>
      </trkpt>
      <trkpt lat="45.9853" lon="0.52365">
        <ele>171.4</ele>
        <time>2022-04-03T13:59:50Z</time>
      </trkpt>
      <trkpt lat="45.98529" lon="0.52362">
        <ele>171.8</ele>
        <time>2022-04-03T13:59:51Z</time>
      </trkpt>
      <trkpt lat="45.98528" lon="0.52359">
        <ele>171.8</ele>
        <time>2022-04-03T13:59:52Z</time>
      </trkpt>
      <trkpt lat="45.98527" lon="0.52356">
        <ele>172.2</ele>
        <time>2022-04-03T13:59:53Z</time>
      </trkpt>
      <trkpt lat="45.98527" lon="0.52354">
        <ele>172.4</ele>
        <time>2022-04-03T13:59:54Z</time>
      </trkpt>
      <trkpt lat="45.98526" lon="0.52351">
        <ele>172.6</ele>
        <time>2022-04-03T13:59:55Z</time>
      </trkpt>
      <trkpt lat="45.98525" lon="0.52348">
        <ele>172.6</ele>
        <time>2022-04-03T13:59:56Z</time>
      </trkpt>
      <trkpt lat="45.98525" lon="0.52345">
        <ele>172.8</ele>
        <time>2022-04-03T13:59:57Z</time>
      </trkpt>
      <trkpt lat="45.98524" lon="0.52343">
        <ele>173</ele>
        <time>2022-04-03T13:59:58Z</time>
      </trkpt>
      <trkpt lat="45.98523" lon="0.5234">
        <ele>173.2</ele>
        <time>2022-04-03T13:59:59Z</time>
      </trkpt>
      <trkpt lat="45.98522" lon="0.52338">
        <ele>173.2</ele>
        <time>2022-04-03T14:00:00Z</time>
      </trkpt>
      <trkpt lat="45.98522" lon="0.52335">
        <ele>173.4</ele>
        <time>2022-04-03T14:00:01Z</time>
      </trkpt>
      <trkpt lat="45.98521" lon="0.52332">
        <ele>173.4</ele>
        <time>2022-04-03T14:00:02Z</time>
      </trkpt>
      <trkpt lat="45.98521" lon="0.52329">
        <ele>173.4</ele>
        <time>2022-04-03T14:00:03Z</time>
      </trkpt>
      <trkpt lat="45.9852" lon="0.52326">
        <ele>173.4</ele>
        <time>2022-04-03T14:00:04Z</time>
      </trkpt>
      <trkpt lat="45.98519" lon="0.52323">
        <ele>173.6</ele>
        <time>2022-04-03T14:00:05Z</time>
      </trkpt>
      <trkpt lat="45.98519" lon="0.5232">
        <ele>174</ele>
        <time>2022-04-03T14:00:06Z</time>
      </trkpt>
      <trkpt lat="45.98518" lon="0.52317">
        <ele>174</ele>
        <time>2022-04-03T14:00:07Z</time>
      </trkpt>
      <trkpt lat="45.98517" lon="0.52314">
        <ele>174.2</ele>
        <time>2022-04-03T14:00:08Z</time>
      </trkpt>
      <trkpt lat="45.98516" lon="0.52311">
        <ele>174.2</ele>
        <time>2022-04-03T14:00:09Z</time>
      </trkpt>
      <trkpt lat="45.98516" lon="0.52307">
        <ele>174.4</ele>
        <time>2022-04-03T14:00:10Z</time>
      </trkpt>
      <trkpt lat="45.98515" lon="0.52304">
        <ele>174.4</ele>
        <time>2022-04-03T14:00:11Z</time>
      </trkpt>
      <trkpt lat="45.98514" lon="0.523">
        <ele>174.6</ele>
        <time>2022-04-03T14:00:12Z</time>
      </trkpt>
      <trkpt lat="45.98513" lon="0.52297">
        <ele>174.8</ele>
        <time>2022-04-03T14:00:13Z</time>
      </trkpt>
      <trkpt lat="45.98513" lon="0.52294">
        <ele>174.8</ele>
        <time>2022-04-03T14:00:14Z</time>
      </trkpt>
      <trkpt lat="45.98512" lon="0.5229">
        <ele>174.8</ele>
        <time>2022-04-03T14:00:15Z</time>
      </trkpt>
      <trkpt lat="45.98511" lon="0.52287">
        <ele>175</ele>
        <time>2022-04-03T14:00:16Z</time>
      </trkpt>
      <trkpt lat="45.98509" lon="0.52283">
        <ele>175</ele>
        <time>2022-04-03T14:00:17Z</time>
      </trkpt>
      <trkpt lat="45.98508" lon="0.5228">
        <ele>175</ele>
        <time>2022-04-03T14:00:18Z</time>
      </trkpt>
      <trkpt lat="45.98507" lon="0.52276">
        <ele>175</ele>
        <time>2022-04-03T14:00:19Z</time>
      </trkpt>
      <trkpt lat="45.98506" lon="0.52273">
        <ele>175.2</ele>
        <time>2022-04-03T14:00:20Z</time>
      </trkpt>
      <trkpt lat="45.98505" lon="0.5227">
        <ele>175.2</ele>
        <time>2022-04-03T14:00:21Z</time>
      </trkpt>
      <trkpt lat="45.98504" lon="0.52267">
        <ele>175</ele>
        <time>2022-04-03T14:00:22Z</time>
      </trkpt>
      <trkpt lat="45.98504" lon="0.52263">
        <ele>175.2</ele>
        <time>2022-04-03T14:00:23Z</time>
      </trkpt>
      <trkpt lat="45.98503" lon="0.5226">
        <ele>175.2</ele>
        <time>2022-04-03T14:00:24Z</time>
      </trkpt>
      <trkpt lat="45.98502" lon="0.52257">
        <ele>175.2</ele>
        <time>2022-04-03T14:00:25Z</time>
      </trkpt>
      <trkpt lat="45.98501" lon="0.52253">
        <ele>175.2</ele>
        <time>2022-04-03T14:00:26Z</time>
      </trkpt>
      <trkpt lat="45.985" lon="0.5225">
        <ele>175.4</ele>
        <time>2022-04-03T14:00:27Z</time>
      </trkpt>
      <trkpt lat="45.98499" lon="0.52247">
        <ele>175.6</ele>
        <time>2022-04-03T14:00:28Z</time>
      </trkpt>
      <trkpt lat="45.98498" lon="0.52244">
        <ele>175.4</ele>
        <time>2022-04-03T14:00:29Z</time>
      </trkpt>
      <trkpt lat="45.98496" lon="0.52241">
        <ele>175.6</ele>
        <time>2022-04-03T14:00:30Z</time>
      </trkpt>
      <trkpt lat="45.98495" lon="0.52237">
        <ele>175.6</ele>
        <time>2022-04-03T14:00:31Z</time>
      </trkpt>
      <trkpt lat="45.98495" lon="0.52234">
        <ele>175.8</ele>
        <time>2022-04-03T14:00:32Z</time>
      </trkpt>
      <trkpt lat="45.98494" lon="0.52231">
        <ele>176</ele>
        <time>2022-04-03T14:00:33Z</time>
      </trkpt>
      <trkpt lat="45.98493" lon="0.52227">
        <ele>176</ele>
        <time>2022-04-03T14:00:34Z</time>
      </trkpt>
      <trkpt lat="45.98492" lon="0.52224">
        <ele>176.2</ele>
        <time>2022-04-03T14:00:35Z</time>
      </trkpt>
      <trkpt lat="45.98492" lon="0.5222">
        <ele>176.2</ele>
        <time>2022-04-03T14:00:36Z</time>
      </trkpt>
      <trkpt lat="45.98491" lon="0.52217">
        <ele>176.2</ele>
        <time>2022-04-03T14:00:37Z</time>
      </trkpt>
      <trkpt lat="45.9849" lon="0.52214">
        <ele>176.2</ele>
        <time>2022-04-03T14:00:38Z</time>
      </trkpt>
      <trkpt lat="45.9849" lon="0.5221">
        <ele>176.4</ele>
        <time>2022-04-03T14:00:39Z</time>
      </trkpt>
      <trkpt lat="45.98489" lon="0.52207">
        <ele>176.4</ele>
        <time>2022-04-03T14:00:40Z</time>
      </trkpt>
      <trkpt lat="45.98488" lon="0.52204">
        <ele>176.4</ele>
        <time>2022-04-03T14:00:41Z</time>
      </trkpt>
      <trkpt lat="45.98487" lon="0.52201">
        <ele>176.4</ele>
        <time>2022-04-03T14:00:42Z</time>
      </trkpt>
      <trkpt lat="45.98486" lon="0.52198">
        <ele>176.6</ele>
        <time>2022-04-03T14:00:43Z</time>
      </trkpt>
      <trkpt lat="45.98485" lon="0.52195">
        <ele>176.4</ele>
        <time>2022-04-03T14:00:44Z</time>
      </trkpt>
      <trkpt lat="45.98484" lon="0.52192">
        <ele>176.6</ele>
        <time>2022-04-03T14:00:45Z</time>
      </trkpt>
      <trkpt lat="45.98483" lon="0.52189">
        <ele>177</ele>
        <time>2022-04-03T14:00:46Z</time>
      </trkpt>
      <trkpt lat="45.98483" lon="0.52186">
        <ele>177</ele>
        <time>2022-04-03T14:00:47Z</time>
      </trkpt>
      <trkpt lat="45.98482" lon="0.52184">
        <ele>177</ele>
        <time>2022-04-03T14:00:48Z</time>
      </trkpt>
      <trkpt lat="45.98481" lon="0.52181">
        <ele>177</ele>
        <time>2022-04-03T14:00:49Z</time>
      </trkpt>
      <trkpt lat="45.9848" lon="0.52178">
        <ele>177.2</ele>
        <time>2022-04-03T14:00:50Z</time>
      </trkpt>
      <trkpt lat="45.9848" lon="0.52175">
        <ele>177.2</ele>
        <time>2022-04-03T14:00:51Z</time>
      </trkpt>
      <trkpt lat="45.98479" lon="0.52172">
        <ele>177.2</ele>
        <time>2022-04-03T14:00:52Z</time>
      </trkpt>
      <trkpt lat="45.98478" lon="0.52169">
        <ele>177.2</ele>
        <time>2022-04-03T14:00:53Z</time>
      </trkpt>
      <trkpt lat="45.98478" lon="0.52166">
        <ele>177.2</ele>
        <time>2022-04-03T14:00:54Z</time>
      </trkpt>
      <trkpt lat="45.98477" lon="0.52162">
        <ele>177.4</ele>
        <time>2022-04-03T14:00:55Z</time>
      </trkpt>
      <trkpt lat="45.98476" lon="0.52159">
        <ele>177.4</ele>
        <time>2022-04-03T14:00:56Z</time>
      </trkpt>
      <trkpt lat="45.98475" lon="0.52155">
        <ele>177.2</ele>
        <time>2022-04-03T14:00:57Z</time>
      </trkpt>
      <trkpt lat="45.98474" lon="0.52151">
        <ele>177.2</ele>
        <time>2022-04-03T14:00:58Z</time>
      </trkpt>
      <trkpt lat="45.98473" lon="0.52147">
        <ele>177.2</ele>
        <time>2022-04-03T14:00:59Z</time>
      </trkpt>
      <trkpt lat="45.98471" lon="0.52143">
        <ele>177.4</ele>
        <time>2022-04-03T14:01:00Z</time>
      </trkpt>
      <trkpt lat="45.9847" lon="0.52139">
        <ele>177.6</ele>
        <time>2022-04-03T14:01:01Z</time>
      </trkpt>
      <trkpt lat="45.98469" lon="0.52134">
        <ele>177.4</ele>
        <time>2022-04-03T14:01:02Z</time>
      </trkpt>
      <trkpt lat="45.98468" lon="0.5213">
        <ele>177.4</ele>
        <time>2022-04-03T14:01:03Z</time>
      </trkpt>
      <trkpt lat="45.98468" lon="0.52125">
        <ele>177.4</ele>
        <time>2022-04-03T14:01:04Z</time>
      </trkpt>
      <trkpt lat="45.98467" lon="0.5212">
        <ele>177.4</ele>
        <time>2022-04-03T14:01:05Z</time>
      </trkpt>
      <trkpt lat="45.98466" lon="0.52115">
        <ele>177.4</ele>
        <time>2022-04-03T14:01:06Z</time>
      </trkpt>
      <trkpt lat="45.98465" lon="0.52111">
        <ele>177.6</ele>
        <time>2022-04-03T14:01:07Z</time>
      </trkpt>
      <trkpt lat="45.98464" lon="0.52106">
        <ele>177.6</ele>
        <time>2022-04-03T14:01:08Z</time>
      </trkpt>
      <trkpt lat="45.98464" lon="0.52101">
        <ele>177.6</ele>
        <time>2022-04-03T14:01:09Z</time>
      </trkpt>
      <trkpt lat="45.98463" lon="0.52096">
        <ele>177.4</ele>
        <time>2022-04-03T14:01:10Z</time>
      </trkpt>
      <trkpt lat="45.98463" lon="0.5209">
        <ele>177.6</ele>
        <time>2022-04-03T14:01:11Z</time>
      </trkpt>
      <trkpt lat="45.98462" lon="0.52084">
        <ele>177.4</ele>
        <time>2022-04-03T14:01:12Z</time>
      </trkpt>
      <trkpt lat="45.98462" lon="0.52078">
        <ele>177.2</ele>
        <time>2022-04-03T14:01:13Z</time>
      </trkpt>
      <trkpt lat="45.98462" lon="0.52071">
        <ele>177.2</ele>
        <time>2022-04-03T14:01:14Z</time>
      </trkpt>
      <trkpt lat="45.98462" lon="0.52065">
        <ele>177.4</ele>
        <time>2022-04-03T14:01:15Z</time>
      </trkpt>
      <trkpt lat="45.98462" lon="0.52059">
        <ele>177.2</ele>
        <time>2022-04-03T14:01:16Z</time>
      </trkpt>
      <trkpt lat="45.98462" lon="0.52052">
        <ele>177.2</ele>
        <time>2022-04-03T14:01:17Z</time>
      </trkpt>
      <trkpt lat="45.98461" lon="0.52046">
        <ele>177.2</ele>
        <time>2022-04-03T14:01:18Z</time>
      </trkpt>
      <trkpt lat="45.98461" lon="0.52039">
        <ele>177.2</ele>
        <time>2022-04-03T14:01:19Z</time>
      </trkpt>
      <trkpt lat="45.9846" lon="0.52032">
        <ele>177.2</ele>
        <time>2022-04-03T14:01:20Z</time>
      </trkpt>
      <trkpt lat="45.9846" lon="0.52026">
        <ele>177</ele>
        <time>2022-04-03T14:01:21Z</time>
      </trkpt>
      <trkpt lat="45.9846" lon="0.52019">
        <ele>176.8</ele>
        <time>2022-04-03T14:01:22Z</time>
      </trkpt>
      <trkpt lat="45.9846" lon="0.52012">
        <ele>176.8</ele>
        <time>2022-04-03T14:01:23Z</time>
      </trkpt>
      <trkpt lat="45.98459" lon="0.52005">
        <ele>176.8</ele>
        <time>2022-04-03T14:01:24Z</time>
      </trkpt>
      <trkpt lat="45.98459" lon="0.51998">
        <ele>176.6</ele>
        <time>2022-04-03T14:01:25Z</time>
      </trkpt>
      <trkpt lat="45.98459" lon="0.51991">
        <ele>176.6</ele>
        <time>2022-04-03T14:01:26Z</time>
      </trkpt>
      <trkpt lat="45.98459" lon="0.51984">
        <ele>176.8</ele>
        <time>2022-04-03T14:01:27Z</time>
      </trkpt>
      <trkpt lat="45.98459" lon="0.51977">
        <ele>176.6</ele>
        <time>2022-04-03T14:01:28Z</time>
      </trkpt>
      <trkpt lat="45.98458" lon="0.5197">
        <ele>176.8</ele>
        <time>2022-04-03T14:01:29Z</time>
      </trkpt>
      <trkpt lat="45.98458" lon="0.51962">
        <ele>176.6</ele>
        <time>2022-04-03T14:01:30Z</time>
      </trkpt>
      <trkpt lat="45.98458" lon="0.51955">
        <ele>176.6</ele>
        <time>2022-04-03T14:01:31Z</time>
      </trkpt>
      <trkpt lat="45.98457" lon="0.51948">
        <ele>176.6</ele>
        <time>2022-04-03T14:01:32Z</time>
      </trkpt>
      <trkpt lat="45.98457" lon="0.51941">
        <ele>176.6</ele>
        <time>2022-04-03T14:01:33Z</time>
      </trkpt>
      <trkpt lat="45.98457" lon="0.51933">
        <ele>176.6</ele>
        <time>2022-04-03T14:01:34Z</time>
      </trkpt>
      <trkpt lat="45.98457" lon="0.51926">
        <ele>176.6</ele>
        <time>2022-04-03T14:01:35Z</time>
      </trkpt>
      <trkpt lat="45.98456" lon="0.51919">
        <ele>176.8</ele>
        <time>2022-04-03T14:01:36Z</time>
      </trkpt>
      <trkpt lat="45.98456" lon="0.51912">
        <ele>176.8</ele>
        <time>2022-04-03T14:01:37Z</time>
      </trkpt>
      <trkpt lat="45.98456" lon="0.51905">
        <ele>176.8</ele>
        <time>2022-04-03T14:01:38Z</time>
      </trkpt>
      <trkpt lat="45.98455" lon="0.51898">
        <ele>176.8</ele>
        <time>2022-04-03T14:01:39Z</time>
      </trkpt>
      <trkpt lat="45.98455" lon="0.51891">
        <ele>176.8</ele>
        <time>2022-04-03T14:01:40Z</time>
      </trkpt>
      <trkpt lat="45.98455" lon="0.51884">
        <ele>176.8</ele>
        <time>2022-04-03T14:01:41Z</time>
      </trkpt>
      <trkpt lat="45.98455" lon="0.51877">
        <ele>176.8</ele>
        <time>2022-04-03T14:01:42Z</time>
      </trkpt>
      <trkpt lat="45.98454" lon="0.5187">
        <ele>176.8</ele>
        <time>2022-04-03T14:01:43Z</time>
      </trkpt>
      <trkpt lat="45.98454" lon="0.51863">
        <ele>177</ele>
        <time>2022-04-03T14:01:44Z</time>
      </trkpt>
      <trkpt lat="45.98454" lon="0.51856">
        <ele>177</ele>
        <time>2022-04-03T14:01:45Z</time>
      </trkpt>
      <trkpt lat="45.98454" lon="0.51849">
        <ele>177</ele>
        <time>2022-04-03T14:01:46Z</time>
      </trkpt>
      <trkpt lat="45.98454" lon="0.51842">
        <ele>177</ele>
        <time>2022-04-03T14:01:47Z</time>
      </trkpt>
      <trkpt lat="45.98454" lon="0.51835">
        <ele>177.2</ele>
        <time>2022-04-03T14:01:48Z</time>
      </trkpt>
      <trkpt lat="45.98454" lon="0.51829">
        <ele>177.4</ele>
        <time>2022-04-03T14:01:49Z</time>
      </trkpt>
      <trkpt lat="45.98453" lon="0.51822">
        <ele>177.2</ele>
        <time>2022-04-03T14:01:50Z</time>
      </trkpt>
      <trkpt lat="45.98453" lon="0.51815">
        <ele>177.4</ele>
        <time>2022-04-03T14:01:51Z</time>
      </trkpt>
      <trkpt lat="45.98453" lon="0.51809">
        <ele>177.6</ele>
        <time>2022-04-03T14:01:52Z</time>
      </trkpt>
      <trkpt lat="45.98452" lon="0.51802">
        <ele>177.4</ele>
        <time>2022-04-03T14:01:53Z</time>
      </trkpt>
      <trkpt lat="45.98452" lon="0.51796">
        <ele>177.6</ele>
        <time>2022-04-03T14:01:54Z</time>
      </trkpt>
      <trkpt lat="45.98452" lon="0.51789">
        <ele>177.6</ele>
        <time>2022-04-03T14:01:55Z</time>
      </trkpt>
      <trkpt lat="45.98452" lon="0.51783">
        <ele>177.6</ele>
        <time>2022-04-03T14:01:56Z</time>
      </trkpt>
      <trkpt lat="45.98452" lon="0.51776">
        <ele>177.6</ele>
        <time>2022-04-03T14:01:57Z</time>
      </trkpt>
      <trkpt lat="45.98452" lon="0.5177">
        <ele>177.6</ele>
        <time>2022-04-03T14:01:58Z</time>
      </trkpt>
      <trkpt lat="45.98451" lon="0.51764">
        <ele>177.4</ele>
        <time>2022-04-03T14:01:59Z</time>
      </trkpt>
      <trkpt lat="45.98451" lon="0.51757">
        <ele>177.6</ele>
        <time>2022-04-03T14:02:00Z</time>
      </trkpt>
      <trkpt lat="45.98451" lon="0.51751">
        <ele>177.8</ele>
        <time>2022-04-03T14:02:01Z</time>
      </trkpt>
      <trkpt lat="45.9845" lon="0.51745">
        <ele>177.8</ele>
        <time>2022-04-03T14:02:02Z</time>
      </trkpt>
      <trkpt lat="45.9845" lon="0.51739">
        <ele>178</ele>
        <time>2022-04-03T14:02:03Z</time>
      </trkpt>
      <trkpt lat="45.9845" lon="0.51733">
        <ele>178.2</ele>
        <time>2022-04-03T14:02:04Z</time>
      </trkpt>
      <trkpt lat="45.98449" lon="0.51727">
        <ele>178.2</ele>
        <time>2022-04-03T14:02:05Z</time>
      </trkpt>
      <trkpt lat="45.98449" lon="0.51722">
        <ele>178.4</ele>
        <time>2022-04-03T14:02:06Z</time>
      </trkpt>
      <trkpt lat="45.98449" lon="0.51716">
        <ele>178.6</ele>
        <time>2022-04-03T14:02:07Z</time>
      </trkpt>
      <trkpt lat="45.98449" lon="0.5171">
        <ele>178.8</ele>
        <time>2022-04-03T14:02:08Z</time>
      </trkpt>
      <trkpt lat="45.98448" lon="0.51704">
        <ele>179</ele>
        <time>2022-04-03T14:02:09Z</time>
      </trkpt>
      <trkpt lat="45.98448" lon="0.51698">
        <ele>179.2</ele>
        <time>2022-04-03T14:02:10Z</time>
      </trkpt>
      <trkpt lat="45.98448" lon="0.51693">
        <ele>179.4</ele>
        <time>2022-04-03T14:02:11Z</time>
      </trkpt>
      <trkpt lat="45.98448" lon="0.51686">
        <ele>179.8</ele>
        <time>2022-04-03T14:02:12Z</time>
      </trkpt>
      <trkpt lat="45.98448" lon="0.5168">
        <ele>179.8</ele>
        <time>2022-04-03T14:02:13Z</time>
      </trkpt>
      <trkpt lat="45.98447" lon="0.51674">
        <ele>179.8</ele>
        <time>2022-04-03T14:02:14Z</time>
      </trkpt>
      <trkpt lat="45.98447" lon="0.51669">
        <ele>180.2</ele>
        <time>2022-04-03T14:02:15Z</time>
      </trkpt>
      <trkpt lat="45.98447" lon="0.51663">
        <ele>180</ele>
        <time>2022-04-03T14:02:16Z</time>
      </trkpt>
      <trkpt lat="45.98447" lon="0.51657">
        <ele>180.2</ele>
        <time>2022-04-03T14:02:17Z</time>
      </trkpt>
      <trkpt lat="45.98447" lon="0.51651">
        <ele>180.2</ele>
        <time>2022-04-03T14:02:18Z</time>
      </trkpt>
      <trkpt lat="45.98446" lon="0.51645">
        <ele>180.2</ele>
        <time>2022-04-03T14:02:19Z</time>
      </trkpt>
      <trkpt lat="45.98446" lon="0.51639">
        <ele>180.4</ele>
        <time>2022-04-03T14:02:20Z</time>
      </trkpt>
      <trkpt lat="45.98446" lon="0.51633">
        <ele>180.4</ele>
        <time>2022-04-03T14:02:21Z</time>
      </trkpt>
      <trkpt lat="45.98446" lon="0.51627">
        <ele>180.6</ele>
        <time>2022-04-03T14:02:22Z</time>
      </trkpt>
      <trkpt lat="45.98446" lon="0.51621">
        <ele>180.6</ele>
        <time>2022-04-03T14:02:23Z</time>
      </trkpt>
      <trkpt lat="45.98446" lon="0.51615">
        <ele>180.6</ele>
        <time>2022-04-03T14:02:24Z</time>
      </trkpt>
      <trkpt lat="45.98446" lon="0.51608">
        <ele>180.6</ele>
        <time>2022-04-03T14:02:25Z</time>
      </trkpt>
      <trkpt lat="45.98446" lon="0.51602">
        <ele>180.8</ele>
        <time>2022-04-03T14:02:26Z</time>
      </trkpt>
      <trkpt lat="45.98446" lon="0.51596">
        <ele>180.8</ele>
        <time>2022-04-03T14:02:27Z</time>
      </trkpt>
      <trkpt lat="45.98446" lon="0.51589">
        <ele>180.8</ele>
        <time>2022-04-03T14:02:28Z</time>
      </trkpt>
      <trkpt lat="45.98446" lon="0.51582">
        <ele>180.8</ele>
        <time>2022-04-03T14:02:29Z</time>
      </trkpt>
      <trkpt lat="45.98447" lon="0.51576">
        <ele>180.6</ele>
        <time>2022-04-03T14:02:30Z</time>
      </trkpt>
      <trkpt lat="45.98447" lon="0.51569">
        <ele>180.8</ele>
        <time>2022-04-03T14:02:31Z</time>
      </trkpt>
      <trkpt lat="45.98447" lon="0.51562">
        <ele>180.6</ele>
        <time>2022-04-03T14:02:32Z</time>
      </trkpt>
      <trkpt lat="45.98447" lon="0.51554">
        <ele>180.6</ele>
        <time>2022-04-03T14:02:33Z</time>
      </trkpt>
      <trkpt lat="45.98448" lon="0.51547">
        <ele>180.8</ele>
        <time>2022-04-03T14:02:34Z</time>
      </trkpt>
      <trkpt lat="45.98449" lon="0.5154">
        <ele>180.6</ele>
        <time>2022-04-03T14:02:35Z</time>
      </trkpt>
      <trkpt lat="45.98449" lon="0.51532">
        <ele>180.6</ele>
        <time>2022-04-03T14:02:36Z</time>
      </trkpt>
      <trkpt lat="45.98449" lon="0.51524">
        <ele>180.6</ele>
        <time>2022-04-03T14:02:37Z</time>
      </trkpt>
      <trkpt lat="45.9845" lon="0.51517">
        <ele>180.4</ele>
        <time>2022-04-03T14:02:38Z</time>
      </trkpt>
      <trkpt lat="45.9845" lon="0.51509">
        <ele>180.2</ele>
        <time>2022-04-03T14:02:39Z</time>
      </trkpt>
      <trkpt lat="45.98451" lon="0.51501">
        <ele>180</ele>
        <time>2022-04-03T14:02:40Z</time>
      </trkpt>
      <trkpt lat="45.98451" lon="0.51493">
        <ele>180</ele>
        <time>2022-04-03T14:02:41Z</time>
      </trkpt>
      <trkpt lat="45.98451" lon="0.51485">
        <ele>179.8</ele>
        <time>2022-04-03T14:02:42Z</time>
      </trkpt>
      <trkpt lat="45.98452" lon="0.51477">
        <ele>179.8</ele>
        <time>2022-04-03T14:02:43Z</time>
      </trkpt>
      <trkpt lat="45.98452" lon="0.51468">
        <ele>179.4</ele>
        <time>2022-04-03T14:02:44Z</time>
      </trkpt>
      <trkpt lat="45.98452" lon="0.5146">
        <ele>179.4</ele>
        <time>2022-04-03T14:02:45Z</time>
      </trkpt>
      <trkpt lat="45.98453" lon="0.51451">
        <ele>179.2</ele>
        <time>2022-04-03T14:02:46Z</time>
      </trkpt>
      <trkpt lat="45.98453" lon="0.51443">
        <ele>179</ele>
        <time>2022-04-03T14:02:47Z</time>
      </trkpt>
      <trkpt lat="45.98454" lon="0.51434">
        <ele>178.8</ele>
        <time>2022-04-03T14:02:48Z</time>
      </trkpt>
      <trkpt lat="45.98454" lon="0.51425">
        <ele>178.6</ele>
        <time>2022-04-03T14:02:49Z</time>
      </trkpt>
      <trkpt lat="45.98454" lon="0.51416">
        <ele>178.4</ele>
        <time>2022-04-03T14:02:50Z</time>
      </trkpt>
      <trkpt lat="45.98455" lon="0.51407">
        <ele>178.4</ele>
        <time>2022-04-03T14:02:51Z</time>
      </trkpt>
      <trkpt lat="45.98455" lon="0.51398">
        <ele>178.4</ele>
        <time>2022-04-03T14:02:52Z</time>
      </trkpt>
      <trkpt lat="45.98456" lon="0.51389">
        <ele>178</ele>
        <time>2022-04-03T14:02:53Z</time>
      </trkpt>
      <trkpt lat="45.98456" lon="0.51381">
        <ele>177.8</ele>
        <time>2022-04-03T14:02:54Z</time>
      </trkpt>
      <trkpt lat="45.98456" lon="0.51373">
        <ele>177.6</ele>
        <time>2022-04-03T14:02:55Z</time>
      </trkpt>
      <trkpt lat="45.98457" lon="0.51365">
        <ele>177.6</ele>
        <time>2022-04-03T14:02:56Z</time>
      </trkpt>
      <trkpt lat="45.98457" lon="0.51357">
        <ele>177.4</ele>
        <time>2022-04-03T14:02:57Z</time>
      </trkpt>
      <trkpt lat="45.98457" lon="0.51349">
        <ele>177.4</ele>
        <time>2022-04-03T14:02:58Z</time>
      </trkpt>
      <trkpt lat="45.98458" lon="0.51341">
        <ele>177.2</ele>
        <time>2022-04-03T14:02:59Z</time>
      </trkpt>
      <trkpt lat="45.98458" lon="0.51334">
        <ele>177.2</ele>
        <time>2022-04-03T14:03:00Z</time>
      </trkpt>
      <trkpt lat="45.98458" lon="0.51326">
        <ele>177.2</ele>
        <time>2022-04-03T14:03:01Z</time>
      </trkpt>
      <trkpt lat="45.98459" lon="0.51319">
        <ele>177</ele>
        <time>2022-04-03T14:03:02Z</time>
      </trkpt>
      <trkpt lat="45.98459" lon="0.51311">
        <ele>177</ele>
        <time>2022-04-03T14:03:03Z</time>
      </trkpt>
      <trkpt lat="45.9846" lon="0.51304">
        <ele>177.2</ele>
        <time>2022-04-03T14:03:04Z</time>
      </trkpt>
      <trkpt lat="45.9846" lon="0.51297">
        <ele>177</ele>
        <time>2022-04-03T14:03:05Z</time>
      </trkpt>
      <trkpt lat="45.9846" lon="0.51289">
        <ele>177</ele>
        <time>2022-04-03T14:03:06Z</time>
      </trkpt>
      <trkpt lat="45.9846" lon="0.51282">
        <ele>177</ele>
        <time>2022-04-03T14:03:07Z</time>
      </trkpt>
      <trkpt lat="45.9846" lon="0.51275">
        <ele>177</ele>
        <time>2022-04-03T14:03:08Z</time>
      </trkpt>
      <trkpt lat="45.98461" lon="0.51268">
        <ele>177</ele>
        <time>2022-04-03T14:03:09Z</time>
      </trkpt>
      <trkpt lat="45.98461" lon="0.51261">
        <ele>177.2</ele>
        <time>2022-04-03T14:03:10Z</time>
      </trkpt>
      <trkpt lat="45.98461" lon="0.51254">
        <ele>177.2</ele>
        <time>2022-04-03T14:03:11Z</time>
      </trkpt>
      <trkpt lat="45.98461" lon="0.51247">
        <ele>177</ele>
        <time>2022-04-03T14:03:12Z</time>
      </trkpt>
      <trkpt lat="45.98461" lon="0.5124">
        <ele>177</ele>
        <time>2022-04-03T14:03:13Z</time>
      </trkpt>
      <trkpt lat="45.98461" lon="0.51234">
        <ele>177</ele>
        <time>2022-04-03T14:03:14Z</time>
      </trkpt>
      <trkpt lat="45.98461" lon="0.51227">
        <ele>177</ele>
        <time>2022-04-03T14:03:15Z</time>
      </trkpt>
      <trkpt lat="45.98461" lon="0.51221">
        <ele>177</ele>
        <time>2022-04-03T14:03:16Z</time>
      </trkpt>
      <trkpt lat="45.98461" lon="0.51214">
        <ele>177</ele>
        <time>2022-04-03T14:03:17Z</time>
      </trkpt>
      <trkpt lat="45.98461" lon="0.51208">
        <ele>177</ele>
        <time>2022-04-03T14:03:18Z</time>
      </trkpt>
      <trkpt lat="45.9846" lon="0.51202">
        <ele>177.2</ele>
        <time>2022-04-03T14:03:19Z</time>
      </trkpt>
      <trkpt lat="45.9846" lon="0.51195">
        <ele>177.2</ele>
        <time>2022-04-03T14:03:20Z</time>
      </trkpt>
      <trkpt lat="45.9846" lon="0.51189">
        <ele>177.2</ele>
        <time>2022-04-03T14:03:21Z</time>
      </trkpt>
      <trkpt lat="45.9846" lon="0.51183">
        <ele>177.6</ele>
        <time>2022-04-03T14:03:22Z</time>
      </trkpt>
      <trkpt lat="45.9846" lon="0.51177">
        <ele>177.8</ele>
        <time>2022-04-03T14:03:23Z</time>
      </trkpt>
      <trkpt lat="45.98459" lon="0.51171">
        <ele>178</ele>
        <time>2022-04-03T14:03:24Z</time>
      </trkpt>
      <trkpt lat="45.98459" lon="0.51165">
        <ele>178.2</ele>
        <time>2022-04-03T14:03:25Z</time>
      </trkpt>
      <trkpt lat="45.98459" lon="0.51158">
        <ele>178.2</ele>
        <time>2022-04-03T14:03:26Z</time>
      </trkpt>
      <trkpt lat="45.98459" lon="0.51152">
        <ele>178.6</ele>
        <time>2022-04-03T14:03:27Z</time>
      </trkpt>
      <trkpt lat="45.98459" lon="0.51146">
        <ele>178.8</ele>
        <time>2022-04-03T14:03:28Z</time>
      </trkpt>
      <trkpt lat="45.98458" lon="0.5114">
        <ele>178.8</ele>
        <time>2022-04-03T14:03:29Z</time>
      </trkpt>
      <trkpt lat="45.98458" lon="0.51134">
        <ele>179</ele>
        <time>2022-04-03T14:03:30Z</time>
      </trkpt>
      <trkpt lat="45.98458" lon="0.51127">
        <ele>179</ele>
        <time>2022-04-03T14:03:31Z</time>
      </trkpt>
      <trkpt lat="45.98458" lon="0.51121">
        <ele>179</ele>
        <time>2022-04-03T14:03:32Z</time>
      </trkpt>
      <trkpt lat="45.98458" lon="0.51115">
        <ele>179.2</ele>
        <time>2022-04-03T14:03:33Z</time>
      </trkpt>
      <trkpt lat="45.98457" lon="0.51108">
        <ele>179.4</ele>
        <time>2022-04-03T14:03:34Z</time>
      </trkpt>
      <trkpt lat="45.98457" lon="0.51102">
        <ele>179.6</ele>
        <time>2022-04-03T14:03:35Z</time>
      </trkpt>
      <trkpt lat="45.98457" lon="0.51096">
        <ele>179.6</ele>
        <time>2022-04-03T14:03:36Z</time>
      </trkpt>
      <trkpt lat="45.98457" lon="0.5109">
        <ele>179.8</ele>
        <time>2022-04-03T14:03:37Z</time>
      </trkpt>
      <trkpt lat="45.98457" lon="0.51084">
        <ele>179.8</ele>
        <time>2022-04-03T14:03:38Z</time>
      </trkpt>
      <trkpt lat="45.98456" lon="0.51078">
        <ele>180</ele>
        <time>2022-04-03T14:03:39Z</time>
      </trkpt>
      <trkpt lat="45.98456" lon="0.51071">
        <ele>180</ele>
        <time>2022-04-03T14:03:40Z</time>
      </trkpt>
      <trkpt lat="45.98456" lon="0.51065">
        <ele>180.2</ele>
        <time>2022-04-03T14:03:41Z</time>
      </trkpt>
      <trkpt lat="45.98456" lon="0.51059">
        <ele>180.4</ele>
        <time>2022-04-03T14:03:42Z</time>
      </trkpt>
      <trkpt lat="45.98456" lon="0.51053">
        <ele>180.4</ele>
        <time>2022-04-03T14:03:43Z</time>
      </trkpt>
      <trkpt lat="45.98455" lon="0.51047">
        <ele>180.6</ele>
        <time>2022-04-03T14:03:44Z</time>
      </trkpt>
      <trkpt lat="45.98455" lon="0.5104">
        <ele>180.6</ele>
        <time>2022-04-03T14:03:45Z</time>
      </trkpt>
      <trkpt lat="45.98455" lon="0.51034">
        <ele>180.6</ele>
        <time>2022-04-03T14:03:46Z</time>
      </trkpt>
      <trkpt lat="45.98455" lon="0.51028">
        <ele>180.6</ele>
        <time>2022-04-03T14:03:47Z</time>
      </trkpt>
      <trkpt lat="45.98455" lon="0.51022">
        <ele>180.6</ele>
        <time>2022-04-03T14:03:48Z</time>
      </trkpt>
      <trkpt lat="45.98455" lon="0.51015">
        <ele>180.8</ele>
        <time>2022-04-03T14:03:49Z</time>
      </trkpt>
      <trkpt lat="45.98455" lon="0.51009">
        <ele>181</ele>
        <time>2022-04-03T14:03:50Z</time>
      </trkpt>
      <trkpt lat="45.98455" lon="0.51002">
        <ele>181</ele>
        <time>2022-04-03T14:03:51Z</time>
      </trkpt>
      <trkpt lat="45.98455" lon="0.50996">
        <ele>181.2</ele>
        <time>2022-04-03T14:03:52Z</time>
      </trkpt>
      <trkpt lat="45.98455" lon="0.5099">
        <ele>181.4</ele>
        <time>2022-04-03T14:03:53Z</time>
      </trkpt>
      <trkpt lat="45.98454" lon="0.50983">
        <ele>181.4</ele>
        <time>2022-04-03T14:03:54Z</time>
      </trkpt>
      <trkpt lat="45.98454" lon="0.50977">
        <ele>181.6</ele>
        <time>2022-04-03T14:03:55Z</time>
      </trkpt>
      <trkpt lat="45.98454" lon="0.50971">
        <ele>181.8</ele>
        <time>2022-04-03T14:03:56Z</time>
      </trkpt>
      <trkpt lat="45.98454" lon="0.50965">
        <ele>181.6</ele>
        <time>2022-04-03T14:03:57Z</time>
      </trkpt>
      <trkpt lat="45.98454" lon="0.50958">
        <ele>181.8</ele>
        <time>2022-04-03T14:03:58Z</time>
      </trkpt>
      <trkpt lat="45.98453" lon="0.50952">
        <ele>182</ele>
        <time>2022-04-03T14:03:59Z</time>
      </trkpt>
      <trkpt lat="45.98453" lon="0.50946">
        <ele>182</ele>
        <time>2022-04-03T14:04:00Z</time>
      </trkpt>
      <trkpt lat="45.98453" lon="0.5094">
        <ele>182.4</ele>
        <time>2022-04-03T14:04:01Z</time>
      </trkpt>
      <trkpt lat="45.98453" lon="0.50934">
        <ele>182.6</ele>
        <time>2022-04-03T14:04:02Z</time>
      </trkpt>
      <trkpt lat="45.98453" lon="0.50927">
        <ele>182.8</ele>
        <time>2022-04-03T14:04:03Z</time>
      </trkpt>
      <trkpt lat="45.98453" lon="0.50921">
        <ele>182.8</ele>
        <time>2022-04-03T14:04:04Z</time>
      </trkpt>
      <trkpt lat="45.98452" lon="0.50915">
        <ele>183</ele>
        <time>2022-04-03T14:04:05Z</time>
      </trkpt>
      <trkpt lat="45.98452" lon="0.50909">
        <ele>183.2</ele>
        <time>2022-04-03T14:04:06Z</time>
      </trkpt>
      <trkpt lat="45.98452" lon="0.50903">
        <ele>183.2</ele>
        <time>2022-04-03T14:04:07Z</time>
      </trkpt>
      <trkpt lat="45.98452" lon="0.50897">
        <ele>183.4</ele>
        <time>2022-04-03T14:04:08Z</time>
      </trkpt>
      <trkpt lat="45.98452" lon="0.50891">
        <ele>183.6</ele>
        <time>2022-04-03T14:04:09Z</time>
      </trkpt>
      <trkpt lat="45.98453" lon="0.50885">
        <ele>183.6</ele>
        <time>2022-04-03T14:04:10Z</time>
      </trkpt>
      <trkpt lat="45.98453" lon="0.50879">
        <ele>183.8</ele>
        <time>2022-04-03T14:04:11Z</time>
      </trkpt>
      <trkpt lat="45.98453" lon="0.50873">
        <ele>183.8</ele>
        <time>2022-04-03T14:04:12Z</time>
      </trkpt>
      <trkpt lat="45.98453" lon="0.50867">
        <ele>184</ele>
        <time>2022-04-03T14:04:13Z</time>
      </trkpt>
      <trkpt lat="45.98453" lon="0.50861">
        <ele>184.2</ele>
        <time>2022-04-03T14:04:14Z</time>
      </trkpt>
      <trkpt lat="45.98453" lon="0.50854">
        <ele>184.2</ele>
        <time>2022-04-03T14:04:15Z</time>
      </trkpt>
      <trkpt lat="45.98453" lon="0.50848">
        <ele>184.6</ele>
        <time>2022-04-03T14:04:16Z</time>
      </trkpt>
      <trkpt lat="45.98453" lon="0.50842">
        <ele>184.8</ele>
        <time>2022-04-03T14:04:17Z</time>
      </trkpt>
      <trkpt lat="45.98453" lon="0.50836">
        <ele>185</ele>
        <time>2022-04-03T14:04:18Z</time>
      </trkpt>
      <trkpt lat="45.98453" lon="0.50829">
        <ele>185</ele>
        <time>2022-04-03T14:04:19Z</time>
      </trkpt>
      <trkpt lat="45.98453" lon="0.50823">
        <ele>185</ele>
        <time>2022-04-03T14:04:20Z</time>
      </trkpt>
      <trkpt lat="45.98453" lon="0.50817">
        <ele>185</ele>
        <time>2022-04-03T14:04:21Z</time>
      </trkpt>
      <trkpt lat="45.98454" lon="0.5081">
        <ele>185.4</ele>
        <time>2022-04-03T14:04:22Z</time>
      </trkpt>
      <trkpt lat="45.98454" lon="0.50804">
        <ele>185.6</ele>
        <time>2022-04-03T14:04:23Z</time>
      </trkpt>
      <trkpt lat="45.98454" lon="0.50798">
        <ele>185.6</ele>
        <time>2022-04-03T14:04:24Z</time>
      </trkpt>
      <trkpt lat="45.98455" lon="0.50791">
        <ele>185.6</ele>
        <time>2022-04-03T14:04:25Z</time>
      </trkpt>
      <trkpt lat="45.98455" lon="0.50785">
        <ele>185.8</ele>
        <time>2022-04-03T14:04:26Z</time>
      </trkpt>
      <trkpt lat="45.98455" lon="0.50778">
        <ele>186.2</ele>
        <time>2022-04-03T14:04:27Z</time>
      </trkpt>
      <trkpt lat="45.98456" lon="0.50758">
        <ele>186.6</ele>
        <time>2022-04-03T14:04:30Z</time>
      </trkpt>
      <trkpt lat="45.98457" lon="0.50751">
        <ele>186.8</ele>
        <time>2022-04-03T14:04:31Z</time>
      </trkpt>
      <trkpt lat="45.98457" lon="0.50745">
        <ele>186.8</ele>
        <time>2022-04-03T14:04:32Z</time>
      </trkpt>
      <trkpt lat="45.98458" lon="0.50738">
        <ele>187</ele>
        <time>2022-04-03T14:04:33Z</time>
      </trkpt>
      <trkpt lat="45.98458" lon="0.50731">
        <ele>187</ele>
        <time>2022-04-03T14:04:34Z</time>
      </trkpt>
      <trkpt lat="45.98458" lon="0.50725">
        <ele>187.2</ele>
        <time>2022-04-03T14:04:35Z</time>
      </trkpt>
      <trkpt lat="45.98459" lon="0.50718">
        <ele>187.4</ele>
        <time>2022-04-03T14:04:36Z</time>
      </trkpt>
      <trkpt lat="45.9846" lon="0.50711">
        <ele>187.2</ele>
        <time>2022-04-03T14:04:37Z</time>
      </trkpt>
      <trkpt lat="45.9846" lon="0.50705">
        <ele>187.4</ele>
        <time>2022-04-03T14:04:38Z</time>
      </trkpt>
      <trkpt lat="45.9846" lon="0.50699">
        <ele>187.4</ele>
        <time>2022-04-03T14:04:39Z</time>
      </trkpt>
      <trkpt lat="45.98461" lon="0.50692">
        <ele>187.4</ele>
        <time>2022-04-03T14:04:40Z</time>
      </trkpt>
      <trkpt lat="45.98461" lon="0.50686">
        <ele>187.4</ele>
        <time>2022-04-03T14:04:41Z</time>
      </trkpt>
      <trkpt lat="45.98461" lon="0.5068">
        <ele>187.6</ele>
        <time>2022-04-03T14:04:42Z</time>
      </trkpt>
      <trkpt lat="45.98461" lon="0.50674">
        <ele>187.4</ele>
        <time>2022-04-03T14:04:43Z</time>
      </trkpt>
      <trkpt lat="45.98462" lon="0.50668">
        <ele>187.4</ele>
        <time>2022-04-03T14:04:44Z</time>
      </trkpt>
      <trkpt lat="45.98462" lon="0.50662">
        <ele>187.4</ele>
        <time>2022-04-03T14:04:45Z</time>
      </trkpt>
      <trkpt lat="45.98462" lon="0.50655">
        <ele>187.6</ele>
        <time>2022-04-03T14:04:46Z</time>
      </trkpt>
      <trkpt lat="45.98462" lon="0.50649">
        <ele>187.6</ele>
        <time>2022-04-03T14:04:47Z</time>
      </trkpt>
      <trkpt lat="45.98462" lon="0.50643">
        <ele>187.4</ele>
        <time>2022-04-03T14:04:48Z</time>
      </trkpt>
      <trkpt lat="45.98462" lon="0.50637">
        <ele>187.6</ele>
        <time>2022-04-03T14:04:49Z</time>
      </trkpt>
      <trkpt lat="45.98462" lon="0.5063">
        <ele>187.6</ele>
        <time>2022-04-03T14:04:50Z</time>
      </trkpt>
      <trkpt lat="45.98463" lon="0.50624">
        <ele>187.8</ele>
        <time>2022-04-03T14:04:51Z</time>
      </trkpt>
      <trkpt lat="45.98463" lon="0.50618">
        <ele>187.8</ele>
        <time>2022-04-03T14:04:52Z</time>
      </trkpt>
      <trkpt lat="45.98463" lon="0.50611">
        <ele>188</ele>
        <time>2022-04-03T14:04:53Z</time>
      </trkpt>
      <trkpt lat="45.98464" lon="0.50605">
        <ele>188.2</ele>
        <time>2022-04-03T14:04:54Z</time>
      </trkpt>
      <trkpt lat="45.98464" lon="0.50598">
        <ele>188.2</ele>
        <time>2022-04-03T14:04:55Z</time>
      </trkpt>
      <trkpt lat="45.98464" lon="0.50592">
        <ele>188</ele>
        <time>2022-04-03T14:04:56Z</time>
      </trkpt>
      <trkpt lat="45.98464" lon="0.50585">
        <ele>188.2</ele>
        <time>2022-04-03T14:04:57Z</time>
      </trkpt>
      <trkpt lat="45.98465" lon="0.50579">
        <ele>188.2</ele>
        <time>2022-04-03T14:04:58Z</time>
      </trkpt>
      <trkpt lat="45.98465" lon="0.50572">
        <ele>188.2</ele>
        <time>2022-04-03T14:04:59Z</time>
      </trkpt>
      <trkpt lat="45.98465" lon="0.50566">
        <ele>188.2</ele>
        <time>2022-04-03T14:05:00Z</time>
      </trkpt>
      <trkpt lat="45.98465" lon="0.50559">
        <ele>188.2</ele>
        <time>2022-04-03T14:05:01Z</time>
      </trkpt>
      <trkpt lat="45.98466" lon="0.50552">
        <ele>188.2</ele>
        <time>2022-04-03T14:05:02Z</time>
      </trkpt>
      <trkpt lat="45.98466" lon="0.50545">
        <ele>188.2</ele>
        <time>2022-04-03T14:05:03Z</time>
      </trkpt>
      <trkpt lat="45.98466" lon="0.50538">
        <ele>188.2</ele>
        <time>2022-04-03T14:05:04Z</time>
      </trkpt>
      <trkpt lat="45.98466" lon="0.50531">
        <ele>188.4</ele>
        <time>2022-04-03T14:05:05Z</time>
      </trkpt>
      <trkpt lat="45.98466" lon="0.50523">
        <ele>188.2</ele>
        <time>2022-04-03T14:05:06Z</time>
      </trkpt>
      <trkpt lat="45.98466" lon="0.50516">
        <ele>188.2</ele>
        <time>2022-04-03T14:05:07Z</time>
      </trkpt>
      <trkpt lat="45.98467" lon="0.50508">
        <ele>188</ele>
        <time>2022-04-03T14:05:08Z</time>
      </trkpt>
      <trkpt lat="45.98467" lon="0.50501">
        <ele>188.2</ele>
        <time>2022-04-03T14:05:09Z</time>
      </trkpt>
      <trkpt lat="45.98467" lon="0.50494">
        <ele>188</ele>
        <time>2022-04-03T14:05:10Z</time>
      </trkpt>
      <trkpt lat="45.98468" lon="0.50486">
        <ele>188.2</ele>
        <time>2022-04-03T14:05:11Z</time>
      </trkpt>
      <trkpt lat="45.98469" lon="0.50479">
        <ele>188</ele>
        <time>2022-04-03T14:05:12Z</time>
      </trkpt>
      <trkpt lat="45.98469" lon="0.50472">
        <ele>187.8</ele>
        <time>2022-04-03T14:05:13Z</time>
      </trkpt>
      <trkpt lat="45.98469" lon="0.50465">
        <ele>187.8</ele>
        <time>2022-04-03T14:05:14Z</time>
      </trkpt>
      <trkpt lat="45.98469" lon="0.50458">
        <ele>187.8</ele>
        <time>2022-04-03T14:05:15Z</time>
      </trkpt>
      <trkpt lat="45.9847" lon="0.50451">
        <ele>187.8</ele>
        <time>2022-04-03T14:05:16Z</time>
      </trkpt>
      <trkpt lat="45.9847" lon="0.50444">
        <ele>187.8</ele>
        <time>2022-04-03T14:05:17Z</time>
      </trkpt>
      <trkpt lat="45.9847" lon="0.50437">
        <ele>187.8</ele>
        <time>2022-04-03T14:05:18Z</time>
      </trkpt>
      <trkpt lat="45.9847" lon="0.50429">
        <ele>187.6</ele>
        <time>2022-04-03T14:05:19Z</time>
      </trkpt>
      <trkpt lat="45.9847" lon="0.50422">
        <ele>187.4</ele>
        <time>2022-04-03T14:05:20Z</time>
      </trkpt>
      <trkpt lat="45.98471" lon="0.50415">
        <ele>187.6</ele>
        <time>2022-04-03T14:05:21Z</time>
      </trkpt>
      <trkpt lat="45.98471" lon="0.50407">
        <ele>187.6</ele>
        <time>2022-04-03T14:05:22Z</time>
      </trkpt>
      <trkpt lat="45.98472" lon="0.504">
        <ele>187.4</ele>
        <time>2022-04-03T14:05:23Z</time>
      </trkpt>
      <trkpt lat="45.98472" lon="0.50392">
        <ele>187.2</ele>
        <time>2022-04-03T14:05:24Z</time>
      </trkpt>
      <trkpt lat="45.98473" lon="0.50384">
        <ele>187.4</ele>
        <time>2022-04-03T14:05:25Z</time>
      </trkpt>
      <trkpt lat="45.98473" lon="0.50377">
        <ele>187.2</ele>
        <time>2022-04-03T14:05:26Z</time>
      </trkpt>
      <trkpt lat="45.98473" lon="0.50369">
        <ele>187.2</ele>
        <time>2022-04-03T14:05:27Z</time>
      </trkpt>
      <trkpt lat="45.98473" lon="0.50361">
        <ele>187.2</ele>
        <time>2022-04-03T14:05:28Z</time>
      </trkpt>
      <trkpt lat="45.98474" lon="0.50353">
        <ele>187.2</ele>
        <time>2022-04-03T14:05:29Z</time>
      </trkpt>
      <trkpt lat="45.98474" lon="0.50346">
        <ele>187.2</ele>
        <time>2022-04-03T14:05:30Z</time>
      </trkpt>
      <trkpt lat="45.98475" lon="0.50338">
        <ele>187.2</ele>
        <time>2022-04-03T14:05:31Z</time>
      </trkpt>
      <trkpt lat="45.98475" lon="0.5033">
        <ele>187.2</ele>
        <time>2022-04-03T14:05:32Z</time>
      </trkpt>
      <trkpt lat="45.98475" lon="0.50323">
        <ele>187</ele>
        <time>2022-04-03T14:05:33Z</time>
      </trkpt>
      <trkpt lat="45.98476" lon="0.50315">
        <ele>187.2</ele>
        <time>2022-04-03T14:05:34Z</time>
      </trkpt>
      <trkpt lat="45.98476" lon="0.50307">
        <ele>187.2</ele>
        <time>2022-04-03T14:05:35Z</time>
      </trkpt>
      <trkpt lat="45.98477" lon="0.503">
        <ele>187</ele>
        <time>2022-04-03T14:05:36Z</time>
      </trkpt>
      <trkpt lat="45.98477" lon="0.50292">
        <ele>187</ele>
        <time>2022-04-03T14:05:37Z</time>
      </trkpt>
      <trkpt lat="45.98477" lon="0.50284">
        <ele>187.2</ele>
        <time>2022-04-03T14:05:38Z</time>
      </trkpt>
      <trkpt lat="45.98477" lon="0.50277">
        <ele>187</ele>
        <time>2022-04-03T14:05:39Z</time>
      </trkpt>
      <trkpt lat="45.98478" lon="0.50269">
        <ele>187.2</ele>
        <time>2022-04-03T14:05:40Z</time>
      </trkpt>
      <trkpt lat="45.98478" lon="0.50262">
        <ele>187.2</ele>
        <time>2022-04-03T14:05:41Z</time>
      </trkpt>
      <trkpt lat="45.98479" lon="0.50254">
        <ele>187.2</ele>
        <time>2022-04-03T14:05:42Z</time>
      </trkpt>
      <trkpt lat="45.98479" lon="0.50247">
        <ele>187</ele>
        <time>2022-04-03T14:05:43Z</time>
      </trkpt>
      <trkpt lat="45.9848" lon="0.50239">
        <ele>187</ele>
        <time>2022-04-03T14:05:44Z</time>
      </trkpt>
      <trkpt lat="45.9848" lon="0.50231">
        <ele>187.2</ele>
        <time>2022-04-03T14:05:45Z</time>
      </trkpt>
      <trkpt lat="45.98481" lon="0.50224">
        <ele>187</ele>
        <time>2022-04-03T14:05:46Z</time>
      </trkpt>
      <trkpt lat="45.98481" lon="0.50216">
        <ele>187</ele>
        <time>2022-04-03T14:05:47Z</time>
      </trkpt>
      <trkpt lat="45.98482" lon="0.50209">
        <ele>187</ele>
        <time>2022-04-03T14:05:48Z</time>
      </trkpt>
      <trkpt lat="45.98482" lon="0.50201">
        <ele>187</ele>
        <time>2022-04-03T14:05:49Z</time>
      </trkpt>
      <trkpt lat="45.98483" lon="0.50194">
        <ele>187.2</ele>
        <time>2022-04-03T14:05:50Z</time>
      </trkpt>
      <trkpt lat="45.98483" lon="0.50187">
        <ele>187.2</ele>
        <time>2022-04-03T14:05:51Z</time>
      </trkpt>
      <trkpt lat="45.98484" lon="0.5018">
        <ele>187.2</ele>
        <time>2022-04-03T14:05:52Z</time>
      </trkpt>
      <trkpt lat="45.98484" lon="0.50172">
        <ele>187</ele>
        <time>2022-04-03T14:05:53Z</time>
      </trkpt>
      <trkpt lat="45.98484" lon="0.50165">
        <ele>187.2</ele>
        <time>2022-04-03T14:05:54Z</time>
      </trkpt>
      <trkpt lat="45.98484" lon="0.50158">
        <ele>187.2</ele>
        <time>2022-04-03T14:05:55Z</time>
      </trkpt>
      <trkpt lat="45.98485" lon="0.50151">
        <ele>187.2</ele>
        <time>2022-04-03T14:05:56Z</time>
      </trkpt>
      <trkpt lat="45.98485" lon="0.50144">
        <ele>187.4</ele>
        <time>2022-04-03T14:05:57Z</time>
      </trkpt>
      <trkpt lat="45.98486" lon="0.50137">
        <ele>187.4</ele>
        <time>2022-04-03T14:05:58Z</time>
      </trkpt>
      <trkpt lat="45.98486" lon="0.5013">
        <ele>187.4</ele>
        <time>2022-04-03T14:05:59Z</time>
      </trkpt>
      <trkpt lat="45.98487" lon="0.50123">
        <ele>187.4</ele>
        <time>2022-04-03T14:06:00Z</time>
      </trkpt>
      <trkpt lat="45.98488" lon="0.50116">
        <ele>187.4</ele>
        <time>2022-04-03T14:06:01Z</time>
      </trkpt>
      <trkpt lat="45.98488" lon="0.5011">
        <ele>187.4</ele>
        <time>2022-04-03T14:06:02Z</time>
      </trkpt>
      <trkpt lat="45.98489" lon="0.50103">
        <ele>188</ele>
        <time>2022-04-03T14:06:03Z</time>
      </trkpt>
      <trkpt lat="45.98489" lon="0.50096">
        <ele>188.2</ele>
        <time>2022-04-03T14:06:04Z</time>
      </trkpt>
      <trkpt lat="45.9849" lon="0.50089">
        <ele>188.6</ele>
        <time>2022-04-03T14:06:05Z</time>
      </trkpt>
      <trkpt lat="45.9849" lon="0.50082">
        <ele>188.6</ele>
        <time>2022-04-03T14:06:06Z</time>
      </trkpt>
      <trkpt lat="45.98491" lon="0.50076">
        <ele>188.6</ele>
        <time>2022-04-03T14:06:07Z</time>
      </trkpt>
      <trkpt lat="45.98491" lon="0.50069">
        <ele>188.6</ele>
        <time>2022-04-03T14:06:08Z</time>
      </trkpt>
      <trkpt lat="45.98491" lon="0.50062">
        <ele>188.6</ele>
        <time>2022-04-03T14:06:09Z</time>
      </trkpt>
      <trkpt lat="45.98492" lon="0.50056">
        <ele>188.6</ele>
        <time>2022-04-03T14:06:10Z</time>
      </trkpt>
      <trkpt lat="45.98492" lon="0.50049">
        <ele>188.8</ele>
        <time>2022-04-03T14:06:11Z</time>
      </trkpt>
      <trkpt lat="45.98492" lon="0.50042">
        <ele>188.8</ele>
        <time>2022-04-03T14:06:12Z</time>
      </trkpt>
      <trkpt lat="45.98493" lon="0.50036">
        <ele>189</ele>
        <time>2022-04-03T14:06:13Z</time>
      </trkpt>
      <trkpt lat="45.98493" lon="0.50029">
        <ele>189</ele>
        <time>2022-04-03T14:06:14Z</time>
      </trkpt>
      <trkpt lat="45.98494" lon="0.50022">
        <ele>189</ele>
        <time>2022-04-03T14:06:15Z</time>
      </trkpt>
      <trkpt lat="45.98495" lon="0.50015">
        <ele>189.2</ele>
        <time>2022-04-03T14:06:16Z</time>
      </trkpt>
      <trkpt lat="45.98495" lon="0.50008">
        <ele>189.2</ele>
        <time>2022-04-03T14:06:17Z</time>
      </trkpt>
      <trkpt lat="45.98496" lon="0.50001">
        <ele>189.2</ele>
        <time>2022-04-03T14:06:18Z</time>
      </trkpt>
      <trkpt lat="45.98496" lon="0.49995">
        <ele>189.4</ele>
        <time>2022-04-03T14:06:19Z</time>
      </trkpt>
      <trkpt lat="45.98496" lon="0.49988">
        <ele>189.4</ele>
        <time>2022-04-03T14:06:20Z</time>
      </trkpt>
      <trkpt lat="45.98497" lon="0.49981">
        <ele>189.6</ele>
        <time>2022-04-03T14:06:21Z</time>
      </trkpt>
      <trkpt lat="45.98497" lon="0.49975">
        <ele>189.6</ele>
        <time>2022-04-03T14:06:22Z</time>
      </trkpt>
      <trkpt lat="45.98497" lon="0.49968">
        <ele>189.6</ele>
        <time>2022-04-03T14:06:23Z</time>
      </trkpt>
      <trkpt lat="45.98498" lon="0.49961">
        <ele>189.8</ele>
        <time>2022-04-03T14:06:24Z</time>
      </trkpt>
      <trkpt lat="45.98498" lon="0.49954">
        <ele>189.8</ele>
        <time>2022-04-03T14:06:25Z</time>
      </trkpt>
      <trkpt lat="45.98499" lon="0.49947">
        <ele>189.8</ele>
        <time>2022-04-03T14:06:26Z</time>
      </trkpt>
      <trkpt lat="45.98499" lon="0.4994">
        <ele>190</ele>
        <time>2022-04-03T14:06:27Z</time>
      </trkpt>
      <trkpt lat="45.985" lon="0.49934">
        <ele>190</ele>
        <time>2022-04-03T14:06:28Z</time>
      </trkpt>
      <trkpt lat="45.985" lon="0.49927">
        <ele>190</ele>
        <time>2022-04-03T14:06:29Z</time>
      </trkpt>
      <trkpt lat="45.98501" lon="0.49919">
        <ele>190</ele>
        <time>2022-04-03T14:06:30Z</time>
      </trkpt>
      <trkpt lat="45.98501" lon="0.49912">
        <ele>190.2</ele>
        <time>2022-04-03T14:06:31Z</time>
      </trkpt>
      <trkpt lat="45.98502" lon="0.49905">
        <ele>190.2</ele>
        <time>2022-04-03T14:06:32Z</time>
      </trkpt>
      <trkpt lat="45.98502" lon="0.49898">
        <ele>190.2</ele>
        <time>2022-04-03T14:06:33Z</time>
      </trkpt>
      <trkpt lat="45.98503" lon="0.49891">
        <ele>190.2</ele>
        <time>2022-04-03T14:06:34Z</time>
      </trkpt>
      <trkpt lat="45.98503" lon="0.49883">
        <ele>190.2</ele>
        <time>2022-04-03T14:06:35Z</time>
      </trkpt>
      <trkpt lat="45.98503" lon="0.49876">
        <ele>190.2</ele>
        <time>2022-04-03T14:06:36Z</time>
      </trkpt>
      <trkpt lat="45.98504" lon="0.49869">
        <ele>190.2</ele>
        <time>2022-04-03T14:06:37Z</time>
      </trkpt>
      <trkpt lat="45.98504" lon="0.49861">
        <ele>190.2</ele>
        <time>2022-04-03T14:06:38Z</time>
      </trkpt>
      <trkpt lat="45.98505" lon="0.49854">
        <ele>190.4</ele>
        <time>2022-04-03T14:06:39Z</time>
      </trkpt>
      <trkpt lat="45.98505" lon="0.49846">
        <ele>190.4</ele>
        <time>2022-04-03T14:06:40Z</time>
      </trkpt>
      <trkpt lat="45.98506" lon="0.49838">
        <ele>190.2</ele>
        <time>2022-04-03T14:06:41Z</time>
      </trkpt>
      <trkpt lat="45.98506" lon="0.49831">
        <ele>190.2</ele>
        <time>2022-04-03T14:06:42Z</time>
      </trkpt>
      <trkpt lat="45.98507" lon="0.49823">
        <ele>190.2</ele>
        <time>2022-04-03T14:06:43Z</time>
      </trkpt>
      <trkpt lat="45.98508" lon="0.49815">
        <ele>190</ele>
        <time>2022-04-03T14:06:44Z</time>
      </trkpt>
      <trkpt lat="45.98508" lon="0.49807">
        <ele>190</ele>
        <time>2022-04-03T14:06:45Z</time>
      </trkpt>
      <trkpt lat="45.98509" lon="0.498">
        <ele>189.8</ele>
        <time>2022-04-03T14:06:46Z</time>
      </trkpt>
      <trkpt lat="45.98509" lon="0.49792">
        <ele>189.8</ele>
        <time>2022-04-03T14:06:47Z</time>
      </trkpt>
      <trkpt lat="45.9851" lon="0.49784">
        <ele>189.6</ele>
        <time>2022-04-03T14:06:48Z</time>
      </trkpt>
      <trkpt lat="45.9851" lon="0.49776">
        <ele>189.6</ele>
        <time>2022-04-03T14:06:49Z</time>
      </trkpt>
      <trkpt lat="45.98511" lon="0.49769">
        <ele>189.6</ele>
        <time>2022-04-03T14:06:50Z</time>
      </trkpt>
      <trkpt lat="45.98511" lon="0.49762">
        <ele>189.4</ele>
        <time>2022-04-03T14:06:51Z</time>
      </trkpt>
      <trkpt lat="45.98512" lon="0.49755">
        <ele>189.2</ele>
        <time>2022-04-03T14:06:52Z</time>
      </trkpt>
      <trkpt lat="45.98512" lon="0.49748">
        <ele>189.2</ele>
        <time>2022-04-03T14:06:53Z</time>
      </trkpt>
      <trkpt lat="45.98513" lon="0.49741">
        <ele>189.2</ele>
        <time>2022-04-03T14:06:54Z</time>
      </trkpt>
      <trkpt lat="45.98513" lon="0.49733">
        <ele>189.2</ele>
        <time>2022-04-03T14:06:55Z</time>
      </trkpt>
      <trkpt lat="45.98514" lon="0.49726">
        <ele>189.2</ele>
        <time>2022-04-03T14:06:56Z</time>
      </trkpt>
      <trkpt lat="45.98514" lon="0.4972">
        <ele>189.2</ele>
        <time>2022-04-03T14:06:57Z</time>
      </trkpt>
      <trkpt lat="45.98515" lon="0.49713">
        <ele>189.2</ele>
        <time>2022-04-03T14:06:58Z</time>
      </trkpt>
      <trkpt lat="45.98515" lon="0.49706">
        <ele>189.2</ele>
        <time>2022-04-03T14:06:59Z</time>
      </trkpt>
      <trkpt lat="45.98516" lon="0.49699">
        <ele>189.4</ele>
        <time>2022-04-03T14:07:00Z</time>
      </trkpt>
      <trkpt lat="45.98516" lon="0.49692">
        <ele>189.4</ele>
        <time>2022-04-03T14:07:01Z</time>
      </trkpt>
      <trkpt lat="45.98517" lon="0.49686">
        <ele>189.4</ele>
        <time>2022-04-03T14:07:02Z</time>
      </trkpt>
      <trkpt lat="45.98517" lon="0.49679">
        <ele>189.4</ele>
        <time>2022-04-03T14:07:03Z</time>
      </trkpt>
      <trkpt lat="45.98517" lon="0.49672">
        <ele>189.6</ele>
        <time>2022-04-03T14:07:04Z</time>
      </trkpt>
      <trkpt lat="45.98518" lon="0.49666">
        <ele>189.6</ele>
        <time>2022-04-03T14:07:05Z</time>
      </trkpt>
      <trkpt lat="45.98518" lon="0.49659">
        <ele>189.8</ele>
        <time>2022-04-03T14:07:06Z</time>
      </trkpt>
      <trkpt lat="45.98519" lon="0.49652">
        <ele>189.6</ele>
        <time>2022-04-03T14:07:07Z</time>
      </trkpt>
      <trkpt lat="45.98519" lon="0.49645">
        <ele>189.8</ele>
        <time>2022-04-03T14:07:08Z</time>
      </trkpt>
      <trkpt lat="45.9852" lon="0.49638">
        <ele>190</ele>
        <time>2022-04-03T14:07:09Z</time>
      </trkpt>
      <trkpt lat="45.9852" lon="0.49632">
        <ele>190</ele>
        <time>2022-04-03T14:07:10Z</time>
      </trkpt>
      <trkpt lat="45.98521" lon="0.49625">
        <ele>190</ele>
        <time>2022-04-03T14:07:11Z</time>
      </trkpt>
      <trkpt lat="45.98521" lon="0.49618">
        <ele>190.4</ele>
        <time>2022-04-03T14:07:12Z</time>
      </trkpt>
      <trkpt lat="45.98522" lon="0.49611">
        <ele>190.4</ele>
        <time>2022-04-03T14:07:13Z</time>
      </trkpt>
      <trkpt lat="45.98522" lon="0.49605">
        <ele>190.4</ele>
        <time>2022-04-03T14:07:14Z</time>
      </trkpt>
      <trkpt lat="45.98523" lon="0.49598">
        <ele>190.4</ele>
        <time>2022-04-03T14:07:15Z</time>
      </trkpt>
      <trkpt lat="45.98523" lon="0.49592">
        <ele>190.6</ele>
        <time>2022-04-03T14:07:16Z</time>
      </trkpt>
      <trkpt lat="45.98524" lon="0.49585">
        <ele>190.8</ele>
        <time>2022-04-03T14:07:17Z</time>
      </trkpt>
      <trkpt lat="45.98524" lon="0.49579">
        <ele>191</ele>
        <time>2022-04-03T14:07:18Z</time>
      </trkpt>
      <trkpt lat="45.98524" lon="0.49572">
        <ele>191</ele>
        <time>2022-04-03T14:07:19Z</time>
      </trkpt>
      <trkpt lat="45.98525" lon="0.49566">
        <ele>191</ele>
        <time>2022-04-03T14:07:20Z</time>
      </trkpt>
      <trkpt lat="45.98526" lon="0.49559">
        <ele>191.6</ele>
        <time>2022-04-03T14:07:21Z</time>
      </trkpt>
      <trkpt lat="45.98526" lon="0.49553">
        <ele>191.8</ele>
        <time>2022-04-03T14:07:22Z</time>
      </trkpt>
      <trkpt lat="45.98526" lon="0.49547">
        <ele>192.2</ele>
        <time>2022-04-03T14:07:23Z</time>
      </trkpt>
      <trkpt lat="45.98527" lon="0.49541">
        <ele>192.4</ele>
        <time>2022-04-03T14:07:24Z</time>
      </trkpt>
      <trkpt lat="45.98527" lon="0.49535">
        <ele>192.6</ele>
        <time>2022-04-03T14:07:25Z</time>
      </trkpt>
      <trkpt lat="45.98528" lon="0.49528">
        <ele>193</ele>
        <time>2022-04-03T14:07:26Z</time>
      </trkpt>
      <trkpt lat="45.98528" lon="0.49522">
        <ele>193.2</ele>
        <time>2022-04-03T14:07:27Z</time>
      </trkpt>
      <trkpt lat="45.98529" lon="0.49516">
        <ele>193.4</ele>
        <time>2022-04-03T14:07:28Z</time>
      </trkpt>
      <trkpt lat="45.98529" lon="0.4951">
        <ele>193.6</ele>
        <time>2022-04-03T14:07:29Z</time>
      </trkpt>
      <trkpt lat="45.98529" lon="0.49504">
        <ele>193.6</ele>
        <time>2022-04-03T14:07:30Z</time>
      </trkpt>
      <trkpt lat="45.98529" lon="0.49498">
        <ele>193.8</ele>
        <time>2022-04-03T14:07:31Z</time>
      </trkpt>
      <trkpt lat="45.9853" lon="0.49492">
        <ele>193.8</ele>
        <time>2022-04-03T14:07:32Z</time>
      </trkpt>
      <trkpt lat="45.9853" lon="0.49486">
        <ele>193.8</ele>
        <time>2022-04-03T14:07:33Z</time>
      </trkpt>
      <trkpt lat="45.98531" lon="0.4948">
        <ele>194</ele>
        <time>2022-04-03T14:07:34Z</time>
      </trkpt>
      <trkpt lat="45.98531" lon="0.49473">
        <ele>194</ele>
        <time>2022-04-03T14:07:35Z</time>
      </trkpt>
      <trkpt lat="45.98531" lon="0.49467">
        <ele>194.2</ele>
        <time>2022-04-03T14:07:36Z</time>
      </trkpt>
      <trkpt lat="45.98532" lon="0.4946">
        <ele>194.2</ele>
        <time>2022-04-03T14:07:37Z</time>
      </trkpt>
      <trkpt lat="45.98532" lon="0.49454">
        <ele>194.2</ele>
        <time>2022-04-03T14:07:38Z</time>
      </trkpt>
      <trkpt lat="45.98533" lon="0.49447">
        <ele>194.6</ele>
        <time>2022-04-03T14:07:39Z</time>
      </trkpt>
      <trkpt lat="45.98533" lon="0.4944">
        <ele>194.4</ele>
        <time>2022-04-03T14:07:40Z</time>
      </trkpt>
      <trkpt lat="45.98534" lon="0.49433">
        <ele>194.6</ele>
        <time>2022-04-03T14:07:41Z</time>
      </trkpt>
      <trkpt lat="45.98534" lon="0.49426">
        <ele>194.6</ele>
        <time>2022-04-03T14:07:42Z</time>
      </trkpt>
      <trkpt lat="45.98535" lon="0.49419">
        <ele>194.8</ele>
        <time>2022-04-03T14:07:43Z</time>
      </trkpt>
      <trkpt lat="45.98535" lon="0.49411">
        <ele>194.8</ele>
        <time>2022-04-03T14:07:44Z</time>
      </trkpt>
      <trkpt lat="45.98536" lon="0.49404">
        <ele>194.8</ele>
        <time>2022-04-03T14:07:45Z</time>
      </trkpt>
      <trkpt lat="45.98537" lon="0.49397">
        <ele>194.8</ele>
        <time>2022-04-03T14:07:46Z</time>
      </trkpt>
      <trkpt lat="45.98538" lon="0.49389">
        <ele>194.8</ele>
        <time>2022-04-03T14:07:47Z</time>
      </trkpt>
      <trkpt lat="45.98539" lon="0.49382">
        <ele>194.8</ele>
        <time>2022-04-03T14:07:48Z</time>
      </trkpt>
      <trkpt lat="45.9854" lon="0.49374">
        <ele>194.8</ele>
        <time>2022-04-03T14:07:49Z</time>
      </trkpt>
      <trkpt lat="45.98542" lon="0.49367">
        <ele>194.6</ele>
        <time>2022-04-03T14:07:50Z</time>
      </trkpt>
      <trkpt lat="45.98544" lon="0.49359">
        <ele>194.8</ele>
        <time>2022-04-03T14:07:51Z</time>
      </trkpt>
      <trkpt lat="45.98545" lon="0.49352">
        <ele>194.8</ele>
        <time>2022-04-03T14:07:52Z</time>
      </trkpt>
      <trkpt lat="45.98547" lon="0.49344">
        <ele>194.4</ele>
        <time>2022-04-03T14:07:53Z</time>
      </trkpt>
      <trkpt lat="45.98549" lon="0.49337">
        <ele>194.2</ele>
        <time>2022-04-03T14:07:54Z</time>
      </trkpt>
      <trkpt lat="45.98551" lon="0.49329">
        <ele>194.2</ele>
        <time>2022-04-03T14:07:55Z</time>
      </trkpt>
      <trkpt lat="45.98553" lon="0.49322">
        <ele>193.8</ele>
        <time>2022-04-03T14:07:56Z</time>
      </trkpt>
      <trkpt lat="45.98555" lon="0.49315">
        <ele>194</ele>
        <time>2022-04-03T14:07:57Z</time>
      </trkpt>
      <trkpt lat="45.98557" lon="0.49307">
        <ele>193.8</ele>
        <time>2022-04-03T14:07:58Z</time>
      </trkpt>
      <trkpt lat="45.98559" lon="0.493">
        <ele>193.8</ele>
        <time>2022-04-03T14:07:59Z</time>
      </trkpt>
      <trkpt lat="45.98561" lon="0.49293">
        <ele>193.8</ele>
        <time>2022-04-03T14:08:00Z</time>
      </trkpt>
      <trkpt lat="45.98562" lon="0.49285">
        <ele>193.8</ele>
        <time>2022-04-03T14:08:01Z</time>
      </trkpt>
      <trkpt lat="45.98564" lon="0.49278">
        <ele>193.8</ele>
        <time>2022-04-03T14:08:02Z</time>
      </trkpt>
      <trkpt lat="45.98566" lon="0.49271">
        <ele>193.8</ele>
        <time>2022-04-03T14:08:03Z</time>
      </trkpt>
      <trkpt lat="45.98568" lon="0.49264">
        <ele>193.8</ele>
        <time>2022-04-03T14:08:04Z</time>
      </trkpt>
      <trkpt lat="45.9857" lon="0.49256">
        <ele>193.8</ele>
        <time>2022-04-03T14:08:05Z</time>
      </trkpt>
      <trkpt lat="45.98572" lon="0.49249">
        <ele>193.6</ele>
        <time>2022-04-03T14:08:06Z</time>
      </trkpt>
      <trkpt lat="45.98574" lon="0.49242">
        <ele>193.8</ele>
        <time>2022-04-03T14:08:07Z</time>
      </trkpt>
      <trkpt lat="45.98575" lon="0.49234">
        <ele>193.6</ele>
        <time>2022-04-03T14:08:08Z</time>
      </trkpt>
      <trkpt lat="45.98577" lon="0.49227">
        <ele>193.6</ele>
        <time>2022-04-03T14:08:09Z</time>
      </trkpt>
      <trkpt lat="45.98579" lon="0.49219">
        <ele>193.6</ele>
        <time>2022-04-03T14:08:10Z</time>
      </trkpt>
      <trkpt lat="45.98581" lon="0.49212">
        <ele>193.6</ele>
        <time>2022-04-03T14:08:11Z</time>
      </trkpt>
      <trkpt lat="45.98583" lon="0.49204">
        <ele>193.8</ele>
        <time>2022-04-03T14:08:12Z</time>
      </trkpt>
      <trkpt lat="45.98585" lon="0.49196">
        <ele>193.8</ele>
        <time>2022-04-03T14:08:13Z</time>
      </trkpt>
      <trkpt lat="45.98587" lon="0.49188">
        <ele>193.6</ele>
        <time>2022-04-03T14:08:14Z</time>
      </trkpt>
      <trkpt lat="45.98589" lon="0.49181">
        <ele>193.6</ele>
        <time>2022-04-03T14:08:15Z</time>
      </trkpt>
      <trkpt lat="45.98591" lon="0.49173">
        <ele>193.6</ele>
        <time>2022-04-03T14:08:16Z</time>
      </trkpt>
      <trkpt lat="45.98593" lon="0.49165">
        <ele>193.6</ele>
        <time>2022-04-03T14:08:17Z</time>
      </trkpt>
      <trkpt lat="45.98595" lon="0.49158">
        <ele>193.6</ele>
        <time>2022-04-03T14:08:18Z</time>
      </trkpt>
      <trkpt lat="45.98597" lon="0.4915">
        <ele>193.6</ele>
        <time>2022-04-03T14:08:19Z</time>
      </trkpt>
      <trkpt lat="45.98599" lon="0.49142">
        <ele>193.4</ele>
        <time>2022-04-03T14:08:20Z</time>
      </trkpt>
      <trkpt lat="45.98601" lon="0.49134">
        <ele>193.2</ele>
        <time>2022-04-03T14:08:21Z</time>
      </trkpt>
      <trkpt lat="45.98603" lon="0.49126">
        <ele>193.2</ele>
        <time>2022-04-03T14:08:22Z</time>
      </trkpt>
      <trkpt lat="45.98605" lon="0.49118">
        <ele>193.2</ele>
        <time>2022-04-03T14:08:23Z</time>
      </trkpt>
      <trkpt lat="45.98607" lon="0.49109">
        <ele>193.2</ele>
        <time>2022-04-03T14:08:24Z</time>
      </trkpt>
      <trkpt lat="45.98609" lon="0.49101">
        <ele>193.2</ele>
        <time>2022-04-03T14:08:25Z</time>
      </trkpt>
      <trkpt lat="45.98611" lon="0.49093">
        <ele>193.2</ele>
        <time>2022-04-03T14:08:26Z</time>
      </trkpt>
      <trkpt lat="45.98613" lon="0.49085">
        <ele>193.2</ele>
        <time>2022-04-03T14:08:27Z</time>
      </trkpt>
      <trkpt lat="45.98615" lon="0.49077">
        <ele>193.2</ele>
        <time>2022-04-03T14:08:28Z</time>
      </trkpt>
      <trkpt lat="45.98618" lon="0.49068">
        <ele>193</ele>
        <time>2022-04-03T14:08:29Z</time>
      </trkpt>
      <trkpt lat="45.9862" lon="0.4906">
        <ele>193</ele>
        <time>2022-04-03T14:08:30Z</time>
      </trkpt>
      <trkpt lat="45.98622" lon="0.49052">
        <ele>193.2</ele>
        <time>2022-04-03T14:08:31Z</time>
      </trkpt>
      <trkpt lat="45.98624" lon="0.49044">
        <ele>193</ele>
        <time>2022-04-03T14:08:32Z</time>
      </trkpt>
      <trkpt lat="45.98626" lon="0.49036">
        <ele>193.2</ele>
        <time>2022-04-03T14:08:33Z</time>
      </trkpt>
      <trkpt lat="45.98628" lon="0.49027">
        <ele>193.2</ele>
        <time>2022-04-03T14:08:34Z</time>
      </trkpt>
      <trkpt lat="45.9863" lon="0.49019">
        <ele>193.2</ele>
        <time>2022-04-03T14:08:35Z</time>
      </trkpt>
      <trkpt lat="45.98632" lon="0.49011">
        <ele>193.4</ele>
        <time>2022-04-03T14:08:36Z</time>
      </trkpt>
      <trkpt lat="45.98634" lon="0.49003">
        <ele>193.2</ele>
        <time>2022-04-03T14:08:37Z</time>
      </trkpt>
      <trkpt lat="45.98636" lon="0.48995">
        <ele>193.4</ele>
        <time>2022-04-03T14:08:38Z</time>
      </trkpt>
      <trkpt lat="45.98639" lon="0.48987">
        <ele>193.4</ele>
        <time>2022-04-03T14:08:39Z</time>
      </trkpt>
      <trkpt lat="45.98641" lon="0.48979">
        <ele>193.6</ele>
        <time>2022-04-03T14:08:40Z</time>
      </trkpt>
      <trkpt lat="45.98643" lon="0.48971">
        <ele>193.6</ele>
        <time>2022-04-03T14:08:41Z</time>
      </trkpt>
      <trkpt lat="45.98645" lon="0.48962">
        <ele>193.8</ele>
        <time>2022-04-03T14:08:42Z</time>
      </trkpt>
      <trkpt lat="45.98647" lon="0.48954">
        <ele>193.6</ele>
        <time>2022-04-03T14:08:43Z</time>
      </trkpt>
      <trkpt lat="45.98649" lon="0.48945">
        <ele>193.8</ele>
        <time>2022-04-03T14:08:44Z</time>
      </trkpt>
      <trkpt lat="45.98651" lon="0.48937">
        <ele>193.6</ele>
        <time>2022-04-03T14:08:45Z</time>
      </trkpt>
      <trkpt lat="45.98653" lon="0.48928">
        <ele>193.8</ele>
        <time>2022-04-03T14:08:46Z</time>
      </trkpt>
      <trkpt lat="45.98655" lon="0.4892">
        <ele>193.6</ele>
        <time>2022-04-03T14:08:47Z</time>
      </trkpt>
      <trkpt lat="45.98658" lon="0.48911">
        <ele>193.6</ele>
        <time>2022-04-03T14:08:48Z</time>
      </trkpt>
      <trkpt lat="45.9866" lon="0.48902">
        <ele>193.6</ele>
        <time>2022-04-03T14:08:49Z</time>
      </trkpt>
      <trkpt lat="45.98662" lon="0.48894">
        <ele>193.8</ele>
        <time>2022-04-03T14:08:50Z</time>
      </trkpt>
      <trkpt lat="45.98665" lon="0.48885">
        <ele>193.6</ele>
        <time>2022-04-03T14:08:51Z</time>
      </trkpt>
      <trkpt lat="45.98667" lon="0.48877">
        <ele>193.6</ele>
        <time>2022-04-03T14:08:52Z</time>
      </trkpt>
      <trkpt lat="45.98669" lon="0.48868">
        <ele>193.6</ele>
        <time>2022-04-03T14:08:53Z</time>
      </trkpt>
      <trkpt lat="45.98671" lon="0.48859">
        <ele>193.4</ele>
        <time>2022-04-03T14:08:54Z</time>
      </trkpt>
      <trkpt lat="45.98673" lon="0.48851">
        <ele>193.2</ele>
        <time>2022-04-03T14:08:55Z</time>
      </trkpt>
      <trkpt lat="45.98676" lon="0.48842">
        <ele>193</ele>
        <time>2022-04-03T14:08:56Z</time>
      </trkpt>
      <trkpt lat="45.98678" lon="0.48834">
        <ele>193</ele>
        <time>2022-04-03T14:08:57Z</time>
      </trkpt>
      <trkpt lat="45.9868" lon="0.48825">
        <ele>193</ele>
        <time>2022-04-03T14:08:58Z</time>
      </trkpt>
      <trkpt lat="45.98682" lon="0.48817">
        <ele>193</ele>
        <time>2022-04-03T14:08:59Z</time>
      </trkpt>
      <trkpt lat="45.98684" lon="0.48808">
        <ele>193</ele>
        <time>2022-04-03T14:09:00Z</time>
      </trkpt>
      <trkpt lat="45.98686" lon="0.488">
        <ele>192.8</ele>
        <time>2022-04-03T14:09:01Z</time>
      </trkpt>
      <trkpt lat="45.98688" lon="0.48791">
        <ele>192.6</ele>
        <time>2022-04-03T14:09:02Z</time>
      </trkpt>
      <trkpt lat="45.9869" lon="0.48782">
        <ele>192.4</ele>
        <time>2022-04-03T14:09:03Z</time>
      </trkpt>
      <trkpt lat="45.98692" lon="0.48774">
        <ele>192.4</ele>
        <time>2022-04-03T14:09:04Z</time>
      </trkpt>
      <trkpt lat="45.98695" lon="0.48765">
        <ele>192.4</ele>
        <time>2022-04-03T14:09:05Z</time>
      </trkpt>
      <trkpt lat="45.98697" lon="0.48757">
        <ele>192.2</ele>
        <time>2022-04-03T14:09:06Z</time>
      </trkpt>
      <trkpt lat="45.98699" lon="0.48748">
        <ele>192.2</ele>
        <time>2022-04-03T14:09:07Z</time>
      </trkpt>
      <trkpt lat="45.98701" lon="0.4874">
        <ele>192.2</ele>
        <time>2022-04-03T14:09:08Z</time>
      </trkpt>
      <trkpt lat="45.98704" lon="0.48731">
        <ele>192</ele>
        <time>2022-04-03T14:09:09Z</time>
      </trkpt>
      <trkpt lat="45.98706" lon="0.48722">
        <ele>192</ele>
        <time>2022-04-03T14:09:10Z</time>
      </trkpt>
      <trkpt lat="45.98708" lon="0.48713">
        <ele>192</ele>
        <time>2022-04-03T14:09:11Z</time>
      </trkpt>
      <trkpt lat="45.9871" lon="0.48704">
        <ele>192</ele>
        <time>2022-04-03T14:09:12Z</time>
      </trkpt>
      <trkpt lat="45.98712" lon="0.48695">
        <ele>192</ele>
        <time>2022-04-03T14:09:13Z</time>
      </trkpt>
      <trkpt lat="45.98715" lon="0.48686">
        <ele>192</ele>
        <time>2022-04-03T14:09:14Z</time>
      </trkpt>
      <trkpt lat="45.98717" lon="0.48678">
        <ele>192.2</ele>
        <time>2022-04-03T14:09:15Z</time>
      </trkpt>
      <trkpt lat="45.98719" lon="0.48669">
        <ele>192</ele>
        <time>2022-04-03T14:09:16Z</time>
      </trkpt>
      <trkpt lat="45.98722" lon="0.4866">
        <ele>191.8</ele>
        <time>2022-04-03T14:09:17Z</time>
      </trkpt>
      <trkpt lat="45.98724" lon="0.48651">
        <ele>192</ele>
        <time>2022-04-03T14:09:18Z</time>
      </trkpt>
      <trkpt lat="45.98726" lon="0.48642">
        <ele>191.6</ele>
        <time>2022-04-03T14:09:19Z</time>
      </trkpt>
      <trkpt lat="45.98728" lon="0.48634">
        <ele>191.4</ele>
        <time>2022-04-03T14:09:20Z</time>
      </trkpt>
      <trkpt lat="45.9873" lon="0.48625">
        <ele>191.4</ele>
        <time>2022-04-03T14:09:21Z</time>
      </trkpt>
      <trkpt lat="45.98732" lon="0.48617">
        <ele>191</ele>
        <time>2022-04-03T14:09:22Z</time>
      </trkpt>
      <trkpt lat="45.98734" lon="0.48609">
        <ele>190.8</ele>
        <time>2022-04-03T14:09:23Z</time>
      </trkpt>
      <trkpt lat="45.98736" lon="0.48601">
        <ele>190.6</ele>
        <time>2022-04-03T14:09:24Z</time>
      </trkpt>
      <trkpt lat="45.98737" lon="0.48593">
        <ele>190.4</ele>
        <time>2022-04-03T14:09:25Z</time>
      </trkpt>
      <trkpt lat="45.98739" lon="0.48585">
        <ele>190.4</ele>
        <time>2022-04-03T14:09:26Z</time>
      </trkpt>
      <trkpt lat="45.9874" lon="0.48576">
        <ele>190.4</ele>
        <time>2022-04-03T14:09:27Z</time>
      </trkpt>
      <trkpt lat="45.98741" lon="0.48567">
        <ele>190.4</ele>
        <time>2022-04-03T14:09:28Z</time>
      </trkpt>
      <trkpt lat="45.98742" lon="0.48558">
        <ele>190.4</ele>
        <time>2022-04-03T14:09:29Z</time>
      </trkpt>
      <trkpt lat="45.98743" lon="0.48549">
        <ele>190.2</ele>
        <time>2022-04-03T14:09:30Z</time>
      </trkpt>
      <trkpt lat="45.98743" lon="0.4854">
        <ele>190.2</ele>
        <time>2022-04-03T14:09:31Z</time>
      </trkpt>
      <trkpt lat="45.98744" lon="0.4853">
        <ele>190.2</ele>
        <time>2022-04-03T14:09:32Z</time>
      </trkpt>
      <trkpt lat="45.98745" lon="0.48521">
        <ele>190</ele>
        <time>2022-04-03T14:09:33Z</time>
      </trkpt>
      <trkpt lat="45.98746" lon="0.48511">
        <ele>190</ele>
        <time>2022-04-03T14:09:34Z</time>
      </trkpt>
      <trkpt lat="45.98748" lon="0.485">
        <ele>190</ele>
        <time>2022-04-03T14:09:35Z</time>
      </trkpt>
      <trkpt lat="45.98749" lon="0.4849">
        <ele>190</ele>
        <time>2022-04-03T14:09:36Z</time>
      </trkpt>
      <trkpt lat="45.9875" lon="0.4848">
        <ele>190</ele>
        <time>2022-04-03T14:09:37Z</time>
      </trkpt>
      <trkpt lat="45.98751" lon="0.48469">
        <ele>189.8</ele>
        <time>2022-04-03T14:09:38Z</time>
      </trkpt>
      <trkpt lat="45.98752" lon="0.48458">
        <ele>189.8</ele>
        <time>2022-04-03T14:09:39Z</time>
      </trkpt>
      <trkpt lat="45.98753" lon="0.48447">
        <ele>189.6</ele>
        <time>2022-04-03T14:09:40Z</time>
      </trkpt>
      <trkpt lat="45.98753" lon="0.48436">
        <ele>189.6</ele>
        <time>2022-04-03T14:09:41Z</time>
      </trkpt>
      <trkpt lat="45.98754" lon="0.48425">
        <ele>189.2</ele>
        <time>2022-04-03T14:09:42Z</time>
      </trkpt>
      <trkpt lat="45.98756" lon="0.48414">
        <ele>188.8</ele>
        <time>2022-04-03T14:09:43Z</time>
      </trkpt>
      <trkpt lat="45.98757" lon="0.48402">
        <ele>188.6</ele>
        <time>2022-04-03T14:09:44Z</time>
      </trkpt>
      <trkpt lat="45.98758" lon="0.48391">
        <ele>188.6</ele>
        <time>2022-04-03T14:09:45Z</time>
      </trkpt>
      <trkpt lat="45.98759" lon="0.48379">
        <ele>188.2</ele>
        <time>2022-04-03T14:09:46Z</time>
      </trkpt>
      <trkpt lat="45.98761" lon="0.48367">
        <ele>187.8</ele>
        <time>2022-04-03T14:09:47Z</time>
      </trkpt>
      <trkpt lat="45.98762" lon="0.48355">
        <ele>187.6</ele>
        <time>2022-04-03T14:09:48Z</time>
      </trkpt>
      <trkpt lat="45.98763" lon="0.48343">
        <ele>187.2</ele>
        <time>2022-04-03T14:09:49Z</time>
      </trkpt>
      <trkpt lat="45.98764" lon="0.48331">
        <ele>186.8</ele>
        <time>2022-04-03T14:09:50Z</time>
      </trkpt>
      <trkpt lat="45.98766" lon="0.48318">
        <ele>186.4</ele>
        <time>2022-04-03T14:09:51Z</time>
      </trkpt>
      <trkpt lat="45.98767" lon="0.48306">
        <ele>186.4</ele>
        <time>2022-04-03T14:09:52Z</time>
      </trkpt>
      <trkpt lat="45.98768" lon="0.48293">
        <ele>185.8</ele>
        <time>2022-04-03T14:09:53Z</time>
      </trkpt>
      <trkpt lat="45.98769" lon="0.4828">
        <ele>185.4</ele>
        <time>2022-04-03T14:09:54Z</time>
      </trkpt>
      <trkpt lat="45.98771" lon="0.48267">
        <ele>185.2</ele>
        <time>2022-04-03T14:09:55Z</time>
      </trkpt>
      <trkpt lat="45.98772" lon="0.48254">
        <ele>184.6</ele>
        <time>2022-04-03T14:09:56Z</time>
      </trkpt>
      <trkpt lat="45.98773" lon="0.48241">
        <ele>184</ele>
        <time>2022-04-03T14:09:57Z</time>
      </trkpt>
      <trkpt lat="45.98774" lon="0.48228">
        <ele>183.8</ele>
        <time>2022-04-03T14:09:58Z</time>
      </trkpt>
      <trkpt lat="45.98775" lon="0.48215">
        <ele>183</ele>
        <time>2022-04-03T14:09:59Z</time>
      </trkpt>
      <trkpt lat="45.98776" lon="0.48203">
        <ele>182.2</ele>
        <time>2022-04-03T14:10:00Z</time>
      </trkpt>
      <trkpt lat="45.98777" lon="0.4819">
        <ele>181.6</ele>
        <time>2022-04-03T14:10:01Z</time>
      </trkpt>
      <trkpt lat="45.98779" lon="0.48177">
        <ele>180.6</ele>
        <time>2022-04-03T14:10:02Z</time>
      </trkpt>
      <trkpt lat="45.9878" lon="0.48165">
        <ele>180.2</ele>
        <time>2022-04-03T14:10:03Z</time>
      </trkpt>
      <trkpt lat="45.98781" lon="0.48153">
        <ele>180.2</ele>
        <time>2022-04-03T14:10:04Z</time>
      </trkpt>
      <trkpt lat="45.98782" lon="0.48142">
        <ele>180</ele>
        <time>2022-04-03T14:10:05Z</time>
      </trkpt>
      <trkpt lat="45.98783" lon="0.48131">
        <ele>179.4</ele>
        <time>2022-04-03T14:10:06Z</time>
      </trkpt>
      <trkpt lat="45.98784" lon="0.4812">
        <ele>178.8</ele>
        <time>2022-04-03T14:10:07Z</time>
      </trkpt>
      <trkpt lat="45.98785" lon="0.4811">
        <ele>178.6</ele>
        <time>2022-04-03T14:10:08Z</time>
      </trkpt>
      <trkpt lat="45.98786" lon="0.48101">
        <ele>178.4</ele>
        <time>2022-04-03T14:10:09Z</time>
      </trkpt>
      <trkpt lat="45.98787" lon="0.48092">
        <ele>178.2</ele>
        <time>2022-04-03T14:10:10Z</time>
      </trkpt>
      <trkpt lat="45.98788" lon="0.48083">
        <ele>178.2</ele>
        <time>2022-04-03T14:10:11Z</time>
      </trkpt>
      <trkpt lat="45.98789" lon="0.48076">
        <ele>178.2</ele>
        <time>2022-04-03T14:10:12Z</time>
      </trkpt>
      <trkpt lat="45.9879" lon="0.48068">
        <ele>178.2</ele>
        <time>2022-04-03T14:10:13Z</time>
      </trkpt>
      <trkpt lat="45.9879" lon="0.48061">
        <ele>178.2</ele>
        <time>2022-04-03T14:10:14Z</time>
      </trkpt>
      <trkpt lat="45.98791" lon="0.48053">
        <ele>178.2</ele>
        <time>2022-04-03T14:10:15Z</time>
      </trkpt>
      <trkpt lat="45.98792" lon="0.48046">
        <ele>178</ele>
        <time>2022-04-03T14:10:16Z</time>
      </trkpt>
      <trkpt lat="45.98792" lon="0.48038">
        <ele>177.8</ele>
        <time>2022-04-03T14:10:17Z</time>
      </trkpt>
      <trkpt lat="45.98793" lon="0.4803">
        <ele>178</ele>
        <time>2022-04-03T14:10:18Z</time>
      </trkpt>
      <trkpt lat="45.98794" lon="0.48022">
        <ele>177.8</ele>
        <time>2022-04-03T14:10:19Z</time>
      </trkpt>
      <trkpt lat="45.98794" lon="0.48014">
        <ele>177.8</ele>
        <time>2022-04-03T14:10:20Z</time>
      </trkpt>
      <trkpt lat="45.98795" lon="0.48006">
        <ele>177.6</ele>
        <time>2022-04-03T14:10:21Z</time>
      </trkpt>
      <trkpt lat="45.98795" lon="0.47997">
        <ele>177.8</ele>
        <time>2022-04-03T14:10:22Z</time>
      </trkpt>
      <trkpt lat="45.98796" lon="0.47988">
        <ele>177.8</ele>
        <time>2022-04-03T14:10:23Z</time>
      </trkpt>
      <trkpt lat="45.98798" lon="0.4798">
        <ele>177.8</ele>
        <time>2022-04-03T14:10:24Z</time>
      </trkpt>
      <trkpt lat="45.988" lon="0.47972">
        <ele>177.8</ele>
        <time>2022-04-03T14:10:25Z</time>
      </trkpt>
      <trkpt lat="45.98803" lon="0.47963">
        <ele>177.6</ele>
        <time>2022-04-03T14:10:26Z</time>
      </trkpt>
      <trkpt lat="45.98805" lon="0.47955">
        <ele>177.6</ele>
        <time>2022-04-03T14:10:27Z</time>
      </trkpt>
      <trkpt lat="45.98808" lon="0.47948">
        <ele>177.4</ele>
        <time>2022-04-03T14:10:28Z</time>
      </trkpt>
      <trkpt lat="45.98811" lon="0.4794">
        <ele>177.4</ele>
        <time>2022-04-03T14:10:29Z</time>
      </trkpt>
      <trkpt lat="45.98814" lon="0.47933">
        <ele>177.2</ele>
        <time>2022-04-03T14:10:30Z</time>
      </trkpt>
      <trkpt lat="45.98817" lon="0.47925">
        <ele>176.8</ele>
        <time>2022-04-03T14:10:31Z</time>
      </trkpt>
      <trkpt lat="45.9882" lon="0.47918">
        <ele>176.6</ele>
        <time>2022-04-03T14:10:32Z</time>
      </trkpt>
      <trkpt lat="45.98823" lon="0.47911">
        <ele>176.2</ele>
        <time>2022-04-03T14:10:33Z</time>
      </trkpt>
      <trkpt lat="45.98826" lon="0.47905">
        <ele>175.8</ele>
        <time>2022-04-03T14:10:34Z</time>
      </trkpt>
      <trkpt lat="45.98828" lon="0.47898">
        <ele>175.6</ele>
        <time>2022-04-03T14:10:35Z</time>
      </trkpt>
      <trkpt lat="45.98831" lon="0.47892">
        <ele>175.8</ele>
        <time>2022-04-03T14:10:36Z</time>
      </trkpt>
      <trkpt lat="45.98834" lon="0.47885">
        <ele>175.8</ele>
        <time>2022-04-03T14:10:37Z</time>
      </trkpt>
      <trkpt lat="45.98836" lon="0.47879">
        <ele>175.6</ele>
        <time>2022-04-03T14:10:38Z</time>
      </trkpt>
      <trkpt lat="45.98839" lon="0.47874">
        <ele>175.6</ele>
        <time>2022-04-03T14:10:39Z</time>
      </trkpt>
      <trkpt lat="45.98842" lon="0.47868">
        <ele>175.6</ele>
        <time>2022-04-03T14:10:40Z</time>
      </trkpt>
      <trkpt lat="45.98844" lon="0.47862">
        <ele>175.6</ele>
        <time>2022-04-03T14:10:41Z</time>
      </trkpt>
      <trkpt lat="45.98847" lon="0.47857">
        <ele>175.6</ele>
        <time>2022-04-03T14:10:42Z</time>
      </trkpt>
      <trkpt lat="45.98849" lon="0.47851">
        <ele>175.6</ele>
        <time>2022-04-03T14:10:43Z</time>
      </trkpt>
      <trkpt lat="45.98852" lon="0.47845">
        <ele>175.6</ele>
        <time>2022-04-03T14:10:44Z</time>
      </trkpt>
      <trkpt lat="45.98854" lon="0.47839">
        <ele>176</ele>
        <time>2022-04-03T14:10:45Z</time>
      </trkpt>
      <trkpt lat="45.98856" lon="0.47833">
        <ele>176.6</ele>
        <time>2022-04-03T14:10:46Z</time>
      </trkpt>
      <trkpt lat="45.98859" lon="0.47827">
        <ele>176.8</ele>
        <time>2022-04-03T14:10:47Z</time>
      </trkpt>
      <trkpt lat="45.98861" lon="0.47821">
        <ele>177</ele>
        <time>2022-04-03T14:10:48Z</time>
      </trkpt>
      <trkpt lat="45.98864" lon="0.47815">
        <ele>177.6</ele>
        <time>2022-04-03T14:10:49Z</time>
      </trkpt>
      <trkpt lat="45.98867" lon="0.47808">
        <ele>178</ele>
        <time>2022-04-03T14:10:50Z</time>
      </trkpt>
      <trkpt lat="45.9887" lon="0.47802">
        <ele>178.2</ele>
        <time>2022-04-03T14:10:51Z</time>
      </trkpt>
      <trkpt lat="45.98872" lon="0.47795">
        <ele>178.4</ele>
        <time>2022-04-03T14:10:52Z</time>
      </trkpt>
      <trkpt lat="45.98875" lon="0.47789">
        <ele>178.4</ele>
        <time>2022-04-03T14:10:53Z</time>
      </trkpt>
      <trkpt lat="45.98878" lon="0.47782">
        <ele>178.4</ele>
        <time>2022-04-03T14:10:54Z</time>
      </trkpt>
      <trkpt lat="45.98881" lon="0.47775">
        <ele>178.6</ele>
        <time>2022-04-03T14:10:55Z</time>
      </trkpt>
      <trkpt lat="45.98883" lon="0.47768">
        <ele>178.6</ele>
        <time>2022-04-03T14:10:56Z</time>
      </trkpt>
      <trkpt lat="45.98886" lon="0.47761">
        <ele>178.6</ele>
        <time>2022-04-03T14:10:57Z</time>
      </trkpt>
      <trkpt lat="45.98889" lon="0.47755">
        <ele>178.6</ele>
        <time>2022-04-03T14:10:58Z</time>
      </trkpt>
      <trkpt lat="45.98892" lon="0.47748">
        <ele>178.6</ele>
        <time>2022-04-03T14:10:59Z</time>
      </trkpt>
      <trkpt lat="45.98894" lon="0.47742">
        <ele>178.6</ele>
        <time>2022-04-03T14:11:00Z</time>
      </trkpt>
      <trkpt lat="45.98897" lon="0.47735">
        <ele>178.6</ele>
        <time>2022-04-03T14:11:01Z</time>
      </trkpt>
      <trkpt lat="45.989" lon="0.47728">
        <ele>178.8</ele>
        <time>2022-04-03T14:11:02Z</time>
      </trkpt>
      <trkpt lat="45.98903" lon="0.47722">
        <ele>178.6</ele>
        <time>2022-04-03T14:11:03Z</time>
      </trkpt>
      <trkpt lat="45.98906" lon="0.47715">
        <ele>178.8</ele>
        <time>2022-04-03T14:11:04Z</time>
      </trkpt>
      <trkpt lat="45.98909" lon="0.47709">
        <ele>178.6</ele>
        <time>2022-04-03T14:11:05Z</time>
      </trkpt>
      <trkpt lat="45.98911" lon="0.47702">
        <ele>178.8</ele>
        <time>2022-04-03T14:11:06Z</time>
      </trkpt>
      <trkpt lat="45.98914" lon="0.47695">
        <ele>178.8</ele>
        <time>2022-04-03T14:11:07Z</time>
      </trkpt>
      <trkpt lat="45.98917" lon="0.47689">
        <ele>178.6</ele>
        <time>2022-04-03T14:11:08Z</time>
      </trkpt>
      <trkpt lat="45.9892" lon="0.47682">
        <ele>178.8</ele>
        <time>2022-04-03T14:11:09Z</time>
      </trkpt>
      <trkpt lat="45.98923" lon="0.47675">
        <ele>178.8</ele>
        <time>2022-04-03T14:11:10Z</time>
      </trkpt>
      <trkpt lat="45.98925" lon="0.47669">
        <ele>178.8</ele>
        <time>2022-04-03T14:11:11Z</time>
      </trkpt>
      <trkpt lat="45.98928" lon="0.47662">
        <ele>178.8</ele>
        <time>2022-04-03T14:11:12Z</time>
      </trkpt>
      <trkpt lat="45.98931" lon="0.47655">
        <ele>178.8</ele>
        <time>2022-04-03T14:11:13Z</time>
      </trkpt>
      <trkpt lat="45.98934" lon="0.47649">
        <ele>178.8</ele>
        <time>2022-04-03T14:11:14Z</time>
      </trkpt>
      <trkpt lat="45.98936" lon="0.47642">
        <ele>179</ele>
        <time>2022-04-03T14:11:15Z</time>
      </trkpt>
      <trkpt lat="45.98939" lon="0.47635">
        <ele>179</ele>
        <time>2022-04-03T14:11:16Z</time>
      </trkpt>
      <trkpt lat="45.98942" lon="0.47627">
        <ele>179</ele>
        <time>2022-04-03T14:11:17Z</time>
      </trkpt>
      <trkpt lat="45.98945" lon="0.4762">
        <ele>178.8</ele>
        <time>2022-04-03T14:11:18Z</time>
      </trkpt>
      <trkpt lat="45.98948" lon="0.47613">
        <ele>179</ele>
        <time>2022-04-03T14:11:19Z</time>
      </trkpt>
      <trkpt lat="45.98951" lon="0.47605">
        <ele>179</ele>
        <time>2022-04-03T14:11:20Z</time>
      </trkpt>
      <trkpt lat="45.98954" lon="0.47598">
        <ele>179</ele>
        <time>2022-04-03T14:11:21Z</time>
      </trkpt>
      <trkpt lat="45.98958" lon="0.4759">
        <ele>179</ele>
        <time>2022-04-03T14:11:22Z</time>
      </trkpt>
      <trkpt lat="45.98961" lon="0.47582">
        <ele>178.8</ele>
        <time>2022-04-03T14:11:23Z</time>
      </trkpt>
      <trkpt lat="45.98964" lon="0.47574">
        <ele>178.8</ele>
        <time>2022-04-03T14:11:24Z</time>
      </trkpt>
      <trkpt lat="45.98967" lon="0.47566">
        <ele>179</ele>
        <time>2022-04-03T14:11:25Z</time>
      </trkpt>
      <trkpt lat="45.9897" lon="0.47559">
        <ele>179</ele>
        <time>2022-04-03T14:11:26Z</time>
      </trkpt>
      <trkpt lat="45.98973" lon="0.47551">
        <ele>178.4</ele>
        <time>2022-04-03T14:11:27Z</time>
      </trkpt>
      <trkpt lat="45.98976" lon="0.47543">
        <ele>178</ele>
        <time>2022-04-03T14:11:28Z</time>
      </trkpt>
      <trkpt lat="45.98979" lon="0.47536">
        <ele>178</ele>
        <time>2022-04-03T14:11:29Z</time>
      </trkpt>
      <trkpt lat="45.98982" lon="0.47528">
        <ele>177.8</ele>
        <time>2022-04-03T14:11:30Z</time>
      </trkpt>
      <trkpt lat="45.98985" lon="0.47521">
        <ele>177.8</ele>
        <time>2022-04-03T14:11:31Z</time>
      </trkpt>
      <trkpt lat="45.98988" lon="0.47513">
        <ele>177.6</ele>
        <time>2022-04-03T14:11:32Z</time>
      </trkpt>
      <trkpt lat="45.98991" lon="0.47506">
        <ele>177.6</ele>
        <time>2022-04-03T14:11:33Z</time>
      </trkpt>
      <trkpt lat="45.98994" lon="0.47499">
        <ele>177.6</ele>
        <time>2022-04-03T14:11:34Z</time>
      </trkpt>
      <trkpt lat="45.98997" lon="0.47492">
        <ele>177.6</ele>
        <time>2022-04-03T14:11:35Z</time>
      </trkpt>
      <trkpt lat="45.99" lon="0.47485">
        <ele>177.6</ele>
        <time>2022-04-03T14:11:36Z</time>
      </trkpt>
      <trkpt lat="45.99003" lon="0.47478">
        <ele>177.6</ele>
        <time>2022-04-03T14:11:37Z</time>
      </trkpt>
      <trkpt lat="45.99006" lon="0.47471">
        <ele>177.4</ele>
        <time>2022-04-03T14:11:38Z</time>
      </trkpt>
      <trkpt lat="45.99009" lon="0.47463">
        <ele>177.4</ele>
        <time>2022-04-03T14:11:39Z</time>
      </trkpt>
      <trkpt lat="45.99012" lon="0.47456">
        <ele>177.6</ele>
        <time>2022-04-03T14:11:40Z</time>
      </trkpt>
      <trkpt lat="45.99016" lon="0.47448">
        <ele>177.6</ele>
        <time>2022-04-03T14:11:41Z</time>
      </trkpt>
      <trkpt lat="45.99019" lon="0.4744">
        <ele>177.6</ele>
        <time>2022-04-03T14:11:42Z</time>
      </trkpt>
      <trkpt lat="45.99022" lon="0.47432">
        <ele>177.4</ele>
        <time>2022-04-03T14:11:43Z</time>
      </trkpt>
      <trkpt lat="45.99026" lon="0.47424">
        <ele>177.6</ele>
        <time>2022-04-03T14:11:44Z</time>
      </trkpt>
      <trkpt lat="45.99029" lon="0.47415">
        <ele>177.6</ele>
        <time>2022-04-03T14:11:45Z</time>
      </trkpt>
      <trkpt lat="45.99033" lon="0.47406">
        <ele>177.4</ele>
        <time>2022-04-03T14:11:46Z</time>
      </trkpt>
      <trkpt lat="45.99036" lon="0.47397">
        <ele>177.4</ele>
        <time>2022-04-03T14:11:47Z</time>
      </trkpt>
      <trkpt lat="45.99039" lon="0.47388">
        <ele>177.2</ele>
        <time>2022-04-03T14:11:48Z</time>
      </trkpt>
      <trkpt lat="45.99042" lon="0.47378">
        <ele>177.4</ele>
        <time>2022-04-03T14:11:49Z</time>
      </trkpt>
      <trkpt lat="45.99044" lon="0.47369">
        <ele>177</ele>
        <time>2022-04-03T14:11:50Z</time>
      </trkpt>
      <trkpt lat="45.99046" lon="0.47359">
        <ele>176.8</ele>
        <time>2022-04-03T14:11:51Z</time>
      </trkpt>
      <trkpt lat="45.99047" lon="0.4735">
        <ele>176.4</ele>
        <time>2022-04-03T14:11:52Z</time>
      </trkpt>
      <trkpt lat="45.99048" lon="0.4734">
        <ele>176.2</ele>
        <time>2022-04-03T14:11:53Z</time>
      </trkpt>
      <trkpt lat="45.99049" lon="0.47331">
        <ele>175.8</ele>
        <time>2022-04-03T14:11:54Z</time>
      </trkpt>
      <trkpt lat="45.99049" lon="0.47321">
        <ele>175.6</ele>
        <time>2022-04-03T14:11:55Z</time>
      </trkpt>
      <trkpt lat="45.9905" lon="0.47312">
        <ele>175.4</ele>
        <time>2022-04-03T14:11:56Z</time>
      </trkpt>
      <trkpt lat="45.99049" lon="0.47303">
        <ele>175.4</ele>
        <time>2022-04-03T14:11:57Z</time>
      </trkpt>
      <trkpt lat="45.99049" lon="0.47294">
        <ele>175.4</ele>
        <time>2022-04-03T14:11:58Z</time>
      </trkpt>
      <trkpt lat="45.99049" lon="0.47286">
        <ele>175.4</ele>
        <time>2022-04-03T14:11:59Z</time>
      </trkpt>
      <trkpt lat="45.99049" lon="0.47277">
        <ele>175.4</ele>
        <time>2022-04-03T14:12:00Z</time>
      </trkpt>
      <trkpt lat="45.99048" lon="0.47268">
        <ele>175.4</ele>
        <time>2022-04-03T14:12:01Z</time>
      </trkpt>
      <trkpt lat="45.99048" lon="0.47259">
        <ele>175.2</ele>
        <time>2022-04-03T14:12:02Z</time>
      </trkpt>
      <trkpt lat="45.99048" lon="0.47249">
        <ele>175.2</ele>
        <time>2022-04-03T14:12:03Z</time>
      </trkpt>
      <trkpt lat="45.99047" lon="0.4724">
        <ele>175.2</ele>
        <time>2022-04-03T14:12:04Z</time>
      </trkpt>
      <trkpt lat="45.99047" lon="0.4723">
        <ele>175.2</ele>
        <time>2022-04-03T14:12:05Z</time>
      </trkpt>
      <trkpt lat="45.99047" lon="0.4722">
        <ele>175.2</ele>
        <time>2022-04-03T14:12:06Z</time>
      </trkpt>
      <trkpt lat="45.99046" lon="0.4721">
        <ele>175</ele>
        <time>2022-04-03T14:12:07Z</time>
      </trkpt>
      <trkpt lat="45.99046" lon="0.47199">
        <ele>175</ele>
        <time>2022-04-03T14:12:08Z</time>
      </trkpt>
      <trkpt lat="45.99046" lon="0.47188">
        <ele>175</ele>
        <time>2022-04-03T14:12:09Z</time>
      </trkpt>
      <trkpt lat="45.99047" lon="0.47178">
        <ele>175</ele>
        <time>2022-04-03T14:12:10Z</time>
      </trkpt>
      <trkpt lat="45.99048" lon="0.47167">
        <ele>174.8</ele>
        <time>2022-04-03T14:12:11Z</time>
      </trkpt>
      <trkpt lat="45.9905" lon="0.47156">
        <ele>174.8</ele>
        <time>2022-04-03T14:12:12Z</time>
      </trkpt>
      <trkpt lat="45.99052" lon="0.47146">
        <ele>174.4</ele>
        <time>2022-04-03T14:12:13Z</time>
      </trkpt>
      <trkpt lat="45.99055" lon="0.47136">
        <ele>174</ele>
        <time>2022-04-03T14:12:14Z</time>
      </trkpt>
      <trkpt lat="45.99058" lon="0.47126">
        <ele>173.6</ele>
        <time>2022-04-03T14:12:15Z</time>
      </trkpt>
      <trkpt lat="45.99061" lon="0.47117">
        <ele>173.6</ele>
        <time>2022-04-03T14:12:16Z</time>
      </trkpt>
      <trkpt lat="45.99064" lon="0.47108">
        <ele>173.6</ele>
        <time>2022-04-03T14:12:17Z</time>
      </trkpt>
      <trkpt lat="45.99068" lon="0.47099">
        <ele>173</ele>
        <time>2022-04-03T14:12:18Z</time>
      </trkpt>
      <trkpt lat="45.99072" lon="0.47091">
        <ele>172.8</ele>
        <time>2022-04-03T14:12:19Z</time>
      </trkpt>
      <trkpt lat="45.99076" lon="0.47083">
        <ele>172.4</ele>
        <time>2022-04-03T14:12:20Z</time>
      </trkpt>
      <trkpt lat="45.9908" lon="0.47075">
        <ele>172.4</ele>
        <time>2022-04-03T14:12:21Z</time>
      </trkpt>
      <trkpt lat="45.99083" lon="0.47067">
        <ele>172.4</ele>
        <time>2022-04-03T14:12:22Z</time>
      </trkpt>
      <trkpt lat="45.99087" lon="0.4706">
        <ele>172.2</ele>
        <time>2022-04-03T14:12:23Z</time>
      </trkpt>
      <trkpt lat="45.99091" lon="0.47052">
        <ele>172.2</ele>
        <time>2022-04-03T14:12:24Z</time>
      </trkpt>
      <trkpt lat="45.99095" lon="0.47044">
        <ele>172.2</ele>
        <time>2022-04-03T14:12:25Z</time>
      </trkpt>
      <trkpt lat="45.99098" lon="0.47036">
        <ele>172.2</ele>
        <time>2022-04-03T14:12:26Z</time>
      </trkpt>
      <trkpt lat="45.99102" lon="0.47029">
        <ele>172.2</ele>
        <time>2022-04-03T14:12:27Z</time>
      </trkpt>
      <trkpt lat="45.99106" lon="0.47021">
        <ele>172.2</ele>
        <time>2022-04-03T14:12:28Z</time>
      </trkpt>
      <trkpt lat="45.99109" lon="0.47013">
        <ele>172</ele>
        <time>2022-04-03T14:12:29Z</time>
      </trkpt>
      <trkpt lat="45.99113" lon="0.47005">
        <ele>172</ele>
        <time>2022-04-03T14:12:30Z</time>
      </trkpt>
      <trkpt lat="45.99116" lon="0.46998">
        <ele>172.2</ele>
        <time>2022-04-03T14:12:31Z</time>
      </trkpt>
      <trkpt lat="45.9912" lon="0.46991">
        <ele>172.2</ele>
        <time>2022-04-03T14:12:32Z</time>
      </trkpt>
      <trkpt lat="45.99124" lon="0.46983">
        <ele>172.2</ele>
        <time>2022-04-03T14:12:33Z</time>
      </trkpt>
      <trkpt lat="45.99128" lon="0.46976">
        <ele>172.2</ele>
        <time>2022-04-03T14:12:34Z</time>
      </trkpt>
      <trkpt lat="45.99131" lon="0.46968">
        <ele>172.2</ele>
        <time>2022-04-03T14:12:35Z</time>
      </trkpt>
      <trkpt lat="45.99135" lon="0.4696">
        <ele>172.2</ele>
        <time>2022-04-03T14:12:36Z</time>
      </trkpt>
      <trkpt lat="45.99139" lon="0.46953">
        <ele>172</ele>
        <time>2022-04-03T14:12:37Z</time>
      </trkpt>
      <trkpt lat="45.99142" lon="0.46945">
        <ele>172.2</ele>
        <time>2022-04-03T14:12:38Z</time>
      </trkpt>
      <trkpt lat="45.99147" lon="0.46937">
        <ele>172.2</ele>
        <time>2022-04-03T14:12:39Z</time>
      </trkpt>
      <trkpt lat="45.99151" lon="0.46929">
        <ele>172.2</ele>
        <time>2022-04-03T14:12:40Z</time>
      </trkpt>
      <trkpt lat="45.99155" lon="0.46921">
        <ele>172.2</ele>
        <time>2022-04-03T14:12:41Z</time>
      </trkpt>
      <trkpt lat="45.9916" lon="0.46913">
        <ele>172.2</ele>
        <time>2022-04-03T14:12:42Z</time>
      </trkpt>
      <trkpt lat="45.99164" lon="0.46905">
        <ele>172.2</ele>
        <time>2022-04-03T14:12:43Z</time>
      </trkpt>
      <trkpt lat="45.99169" lon="0.46897">
        <ele>172.2</ele>
        <time>2022-04-03T14:12:44Z</time>
      </trkpt>
      <trkpt lat="45.99174" lon="0.46889">
        <ele>172</ele>
        <time>2022-04-03T14:12:45Z</time>
      </trkpt>
      <trkpt lat="45.99179" lon="0.46882">
        <ele>171.8</ele>
        <time>2022-04-03T14:12:46Z</time>
      </trkpt>
      <trkpt lat="45.99184" lon="0.46874">
        <ele>171.6</ele>
        <time>2022-04-03T14:12:47Z</time>
      </trkpt>
      <trkpt lat="45.99189" lon="0.46867">
        <ele>171.4</ele>
        <time>2022-04-03T14:12:48Z</time>
      </trkpt>
      <trkpt lat="45.99195" lon="0.4686">
        <ele>171.4</ele>
        <time>2022-04-03T14:12:49Z</time>
      </trkpt>
      <trkpt lat="45.992" lon="0.46853">
        <ele>171</ele>
        <time>2022-04-03T14:12:50Z</time>
      </trkpt>
      <trkpt lat="45.99205" lon="0.46845">
        <ele>170.6</ele>
        <time>2022-04-03T14:12:51Z</time>
      </trkpt>
      <trkpt lat="45.9921" lon="0.46838">
        <ele>170.4</ele>
        <time>2022-04-03T14:12:52Z</time>
      </trkpt>
      <trkpt lat="45.99216" lon="0.46831">
        <ele>170.4</ele>
        <time>2022-04-03T14:12:53Z</time>
      </trkpt>
      <trkpt lat="45.99221" lon="0.46824">
        <ele>170.4</ele>
        <time>2022-04-03T14:12:54Z</time>
      </trkpt>
      <trkpt lat="45.99226" lon="0.46817">
        <ele>170.2</ele>
        <time>2022-04-03T14:12:55Z</time>
      </trkpt>
      <trkpt lat="45.99231" lon="0.46809">
        <ele>170.2</ele>
        <time>2022-04-03T14:12:56Z</time>
      </trkpt>
      <trkpt lat="45.99237" lon="0.46802">
        <ele>169.8</ele>
        <time>2022-04-03T14:12:57Z</time>
      </trkpt>
      <trkpt lat="45.99243" lon="0.46794">
        <ele>169.8</ele>
        <time>2022-04-03T14:12:58Z</time>
      </trkpt>
      <trkpt lat="45.99248" lon="0.46786">
        <ele>169.6</ele>
        <time>2022-04-03T14:12:59Z</time>
      </trkpt>
      <trkpt lat="45.99254" lon="0.46778">
        <ele>169.6</ele>
        <time>2022-04-03T14:13:00Z</time>
      </trkpt>
      <trkpt lat="45.9926" lon="0.4677">
        <ele>169.4</ele>
        <time>2022-04-03T14:13:01Z</time>
      </trkpt>
      <trkpt lat="45.99266" lon="0.46762">
        <ele>169.2</ele>
        <time>2022-04-03T14:13:02Z</time>
      </trkpt>
      <trkpt lat="45.99272" lon="0.46753">
        <ele>169.2</ele>
        <time>2022-04-03T14:13:03Z</time>
      </trkpt>
      <trkpt lat="45.99278" lon="0.46745">
        <ele>168.8</ele>
        <time>2022-04-03T14:13:04Z</time>
      </trkpt>
      <trkpt lat="45.99283" lon="0.46736">
        <ele>168.8</ele>
        <time>2022-04-03T14:13:05Z</time>
      </trkpt>
      <trkpt lat="45.99288" lon="0.46726">
        <ele>168.6</ele>
        <time>2022-04-03T14:13:06Z</time>
      </trkpt>
      <trkpt lat="45.99292" lon="0.46715">
        <ele>168.4</ele>
        <time>2022-04-03T14:13:07Z</time>
      </trkpt>
      <trkpt lat="45.99294" lon="0.46703">
        <ele>167.8</ele>
        <time>2022-04-03T14:13:08Z</time>
      </trkpt>
      <trkpt lat="45.99296" lon="0.46691">
        <ele>167.4</ele>
        <time>2022-04-03T14:13:09Z</time>
      </trkpt>
      <trkpt lat="45.99296" lon="0.46678">
        <ele>166.6</ele>
        <time>2022-04-03T14:13:10Z</time>
      </trkpt>
      <trkpt lat="45.99295" lon="0.46665">
        <ele>166</ele>
        <time>2022-04-03T14:13:11Z</time>
      </trkpt>
      <trkpt lat="45.99294" lon="0.46652">
        <ele>165.6</ele>
        <time>2022-04-03T14:13:12Z</time>
      </trkpt>
      <trkpt lat="45.99291" lon="0.46638">
        <ele>165.6</ele>
        <time>2022-04-03T14:13:13Z</time>
      </trkpt>
      <trkpt lat="45.99287" lon="0.46625">
        <ele>165</ele>
        <time>2022-04-03T14:13:14Z</time>
      </trkpt>
      <trkpt lat="45.99283" lon="0.46611">
        <ele>164.4</ele>
        <time>2022-04-03T14:13:15Z</time>
      </trkpt>
      <trkpt lat="45.99279" lon="0.46597">
        <ele>164.2</ele>
        <time>2022-04-03T14:13:16Z</time>
      </trkpt>
      <trkpt lat="45.99275" lon="0.46583">
        <ele>164</ele>
        <time>2022-04-03T14:13:17Z</time>
      </trkpt>
      <trkpt lat="45.99271" lon="0.46569">
        <ele>164</ele>
        <time>2022-04-03T14:13:18Z</time>
      </trkpt>
      <trkpt lat="45.99267" lon="0.46554">
        <ele>163.2</ele>
        <time>2022-04-03T14:13:19Z</time>
      </trkpt>
      <trkpt lat="45.99266" lon="0.4654">
        <ele>162.2</ele>
        <time>2022-04-03T14:13:20Z</time>
      </trkpt>
      <trkpt lat="45.99265" lon="0.46525">
        <ele>161.4</ele>
        <time>2022-04-03T14:13:21Z</time>
      </trkpt>
      <trkpt lat="45.99267" lon="0.46512">
        <ele>160.6</ele>
        <time>2022-04-03T14:13:22Z</time>
      </trkpt>
      <trkpt lat="45.99269" lon="0.46499">
        <ele>159.6</ele>
        <time>2022-04-03T14:13:23Z</time>
      </trkpt>
      <trkpt lat="45.99271" lon="0.46488">
        <ele>158.6</ele>
        <time>2022-04-03T14:13:24Z</time>
      </trkpt>
      <trkpt lat="45.99274" lon="0.46477">
        <ele>157.8</ele>
        <time>2022-04-03T14:13:25Z</time>
      </trkpt>
      <trkpt lat="45.99277" lon="0.46467">
        <ele>157.4</ele>
        <time>2022-04-03T14:13:26Z</time>
      </trkpt>
      <trkpt lat="45.99279" lon="0.46457">
        <ele>157.2</ele>
        <time>2022-04-03T14:13:27Z</time>
      </trkpt>
      <trkpt lat="45.99282" lon="0.46447">
        <ele>157.2</ele>
        <time>2022-04-03T14:13:28Z</time>
      </trkpt>
      <trkpt lat="45.99284" lon="0.46438">
        <ele>157</ele>
        <time>2022-04-03T14:13:29Z</time>
      </trkpt>
      <trkpt lat="45.99287" lon="0.46428">
        <ele>157.2</ele>
        <time>2022-04-03T14:13:30Z</time>
      </trkpt>
      <trkpt lat="45.99289" lon="0.46419">
        <ele>157</ele>
        <time>2022-04-03T14:13:31Z</time>
      </trkpt>
      <trkpt lat="45.99291" lon="0.46411">
        <ele>157</ele>
        <time>2022-04-03T14:13:32Z</time>
      </trkpt>
      <trkpt lat="45.99294" lon="0.46402">
        <ele>157</ele>
        <time>2022-04-03T14:13:33Z</time>
      </trkpt>
      <trkpt lat="45.99296" lon="0.46394">
        <ele>157</ele>
        <time>2022-04-03T14:13:34Z</time>
      </trkpt>
      <trkpt lat="45.99297" lon="0.46386">
        <ele>157.2</ele>
        <time>2022-04-03T14:13:35Z</time>
      </trkpt>
      <trkpt lat="45.99299" lon="0.46378">
        <ele>157.2</ele>
        <time>2022-04-03T14:13:36Z</time>
      </trkpt>
      <trkpt lat="45.993" lon="0.4637">
        <ele>158</ele>
        <time>2022-04-03T14:13:37Z</time>
      </trkpt>
      <trkpt lat="45.99302" lon="0.46362">
        <ele>158.4</ele>
        <time>2022-04-03T14:13:38Z</time>
      </trkpt>
      <trkpt lat="45.99304" lon="0.46354">
        <ele>158.8</ele>
        <time>2022-04-03T14:13:39Z</time>
      </trkpt>
      <trkpt lat="45.99306" lon="0.46346">
        <ele>159</ele>
        <time>2022-04-03T14:13:40Z</time>
      </trkpt>
      <trkpt lat="45.99307" lon="0.46337">
        <ele>159.4</ele>
        <time>2022-04-03T14:13:41Z</time>
      </trkpt>
      <trkpt lat="45.99309" lon="0.46328">
        <ele>159.8</ele>
        <time>2022-04-03T14:13:42Z</time>
      </trkpt>
      <trkpt lat="45.99311" lon="0.46318">
        <ele>160</ele>
        <time>2022-04-03T14:13:43Z</time>
      </trkpt>
      <trkpt lat="45.99313" lon="0.46308">
        <ele>160.2</ele>
        <time>2022-04-03T14:13:44Z</time>
      </trkpt>
      <trkpt lat="45.99315" lon="0.46298">
        <ele>160.2</ele>
        <time>2022-04-03T14:13:45Z</time>
      </trkpt>
      <trkpt lat="45.99317" lon="0.46289">
        <ele>160.2</ele>
        <time>2022-04-03T14:13:46Z</time>
      </trkpt>
      <trkpt lat="45.99319" lon="0.46279">
        <ele>160.2</ele>
        <time>2022-04-03T14:13:47Z</time>
      </trkpt>
      <trkpt lat="45.99322" lon="0.4627">
        <ele>160.4</ele>
        <time>2022-04-03T14:13:48Z</time>
      </trkpt>
      <trkpt lat="45.99324" lon="0.46261">
        <ele>160.4</ele>
        <time>2022-04-03T14:13:49Z</time>
      </trkpt>
      <trkpt lat="45.99326" lon="0.46253">
        <ele>160.4</ele>
        <time>2022-04-03T14:13:50Z</time>
      </trkpt>
      <trkpt lat="45.99329" lon="0.46245">
        <ele>160.4</ele>
        <time>2022-04-03T14:13:51Z</time>
      </trkpt>
      <trkpt lat="45.99331" lon="0.46237">
        <ele>160.4</ele>
        <time>2022-04-03T14:13:52Z</time>
      </trkpt>
      <trkpt lat="45.99333" lon="0.46231">
        <ele>160.6</ele>
        <time>2022-04-03T14:13:53Z</time>
      </trkpt>
      <trkpt lat="45.99335" lon="0.46225">
        <ele>160.8</ele>
        <time>2022-04-03T14:13:54Z</time>
      </trkpt>
      <trkpt lat="45.99337" lon="0.46219">
        <ele>160.8</ele>
        <time>2022-04-03T14:13:55Z</time>
      </trkpt>
      <trkpt lat="45.99339" lon="0.46214">
        <ele>160.8</ele>
        <time>2022-04-03T14:13:56Z</time>
      </trkpt>
      <trkpt lat="45.99341" lon="0.4621">
        <ele>160.8</ele>
        <time>2022-04-03T14:13:57Z</time>
      </trkpt>
      <trkpt lat="45.99343" lon="0.46205">
        <ele>161</ele>
        <time>2022-04-03T14:13:58Z</time>
      </trkpt>
      <trkpt lat="45.99344" lon="0.46201">
        <ele>160.8</ele>
        <time>2022-04-03T14:13:59Z</time>
      </trkpt>
      <trkpt lat="45.99346" lon="0.46198">
        <ele>161</ele>
        <time>2022-04-03T14:14:00Z</time>
      </trkpt>
      <trkpt lat="45.99347" lon="0.46194">
        <ele>161.2</ele>
        <time>2022-04-03T14:14:01Z</time>
      </trkpt>
      <trkpt lat="45.99349" lon="0.46191">
        <ele>161.2</ele>
        <time>2022-04-03T14:14:02Z</time>
      </trkpt>
      <trkpt lat="45.9935" lon="0.46188">
        <ele>161.8</ele>
        <time>2022-04-03T14:14:03Z</time>
      </trkpt>
      <trkpt lat="45.99351" lon="0.46185">
        <ele>162.2</ele>
        <time>2022-04-03T14:14:04Z</time>
      </trkpt>
      <trkpt lat="45.99353" lon="0.46182">
        <ele>162.6</ele>
        <time>2022-04-03T14:14:05Z</time>
      </trkpt>
      <trkpt lat="45.99355" lon="0.46179">
        <ele>163</ele>
        <time>2022-04-03T14:14:06Z</time>
      </trkpt>
      <trkpt lat="45.99356" lon="0.46176">
        <ele>163.2</ele>
        <time>2022-04-03T14:14:07Z</time>
      </trkpt>
      <trkpt lat="45.99357" lon="0.46173">
        <ele>163.4</ele>
        <time>2022-04-03T14:14:08Z</time>
      </trkpt>
      <trkpt lat="45.99359" lon="0.4617">
        <ele>163.4</ele>
        <time>2022-04-03T14:14:09Z</time>
      </trkpt>
      <trkpt lat="45.9936" lon="0.46167">
        <ele>163.8</ele>
        <time>2022-04-03T14:14:10Z</time>
      </trkpt>
      <trkpt lat="45.99361" lon="0.46164">
        <ele>164</ele>
        <time>2022-04-03T14:14:11Z</time>
      </trkpt>
      <trkpt lat="45.99363" lon="0.46161">
        <ele>164.4</ele>
        <time>2022-04-03T14:14:12Z</time>
      </trkpt>
      <trkpt lat="45.99364" lon="0.46159">
        <ele>164.6</ele>
        <time>2022-04-03T14:14:13Z</time>
      </trkpt>
      <trkpt lat="45.99365" lon="0.46156">
        <ele>164.6</ele>
        <time>2022-04-03T14:14:14Z</time>
      </trkpt>
      <trkpt lat="45.99366" lon="0.46153">
        <ele>164.8</ele>
        <time>2022-04-03T14:14:15Z</time>
      </trkpt>
      <trkpt lat="45.99367" lon="0.4615">
        <ele>165</ele>
        <time>2022-04-03T14:14:16Z</time>
      </trkpt>
      <trkpt lat="45.99368" lon="0.46147">
        <ele>165</ele>
        <time>2022-04-03T14:14:17Z</time>
      </trkpt>
      <trkpt lat="45.99369" lon="0.46145">
        <ele>165</ele>
        <time>2022-04-03T14:14:18Z</time>
      </trkpt>
      <trkpt lat="45.9937" lon="0.46142">
        <ele>165.4</ele>
        <time>2022-04-03T14:14:19Z</time>
      </trkpt>
      <trkpt lat="45.99371" lon="0.46139">
        <ele>165.6</ele>
        <time>2022-04-03T14:14:20Z</time>
      </trkpt>
      <trkpt lat="45.99373" lon="0.46137">
        <ele>165.8</ele>
        <time>2022-04-03T14:14:21Z</time>
      </trkpt>
      <trkpt lat="45.99374" lon="0.46134">
        <ele>166</ele>
        <time>2022-04-03T14:14:22Z</time>
      </trkpt>
      <trkpt lat="45.99375" lon="0.46132">
        <ele>166.2</ele>
        <time>2022-04-03T14:14:23Z</time>
      </trkpt>
      <trkpt lat="45.99376" lon="0.46129">
        <ele>166.4</ele>
        <time>2022-04-03T14:14:24Z</time>
      </trkpt>
      <trkpt lat="45.99378" lon="0.46126">
        <ele>166.6</ele>
        <time>2022-04-03T14:14:25Z</time>
      </trkpt>
      <trkpt lat="45.99379" lon="0.46123">
        <ele>166.8</ele>
        <time>2022-04-03T14:14:26Z</time>
      </trkpt>
      <trkpt lat="45.9938" lon="0.4612">
        <ele>167</ele>
        <time>2022-04-03T14:14:27Z</time>
      </trkpt>
      <trkpt lat="45.99381" lon="0.46118">
        <ele>167</ele>
        <time>2022-04-03T14:14:28Z</time>
      </trkpt>
      <trkpt lat="45.99383" lon="0.46115">
        <ele>167.2</ele>
        <time>2022-04-03T14:14:29Z</time>
      </trkpt>
      <trkpt lat="45.99384" lon="0.46112">
        <ele>167.4</ele>
        <time>2022-04-03T14:14:30Z</time>
      </trkpt>
      <trkpt lat="45.99385" lon="0.46109">
        <ele>167.6</ele>
        <time>2022-04-03T14:14:31Z</time>
      </trkpt>
      <trkpt lat="45.99386" lon="0.46107">
        <ele>167.6</ele>
        <time>2022-04-03T14:14:32Z</time>
      </trkpt>
      <trkpt lat="45.99388" lon="0.46104">
        <ele>167.8</ele>
        <time>2022-04-03T14:14:33Z</time>
      </trkpt>
      <trkpt lat="45.99389" lon="0.46101">
        <ele>168</ele>
        <time>2022-04-03T14:14:34Z</time>
      </trkpt>
      <trkpt lat="45.99391" lon="0.46099">
        <ele>168.2</ele>
        <time>2022-04-03T14:14:35Z</time>
      </trkpt>
      <trkpt lat="45.99392" lon="0.46096">
        <ele>168.4</ele>
        <time>2022-04-03T14:14:36Z</time>
      </trkpt>
      <trkpt lat="45.99394" lon="0.46094">
        <ele>168.6</ele>
        <time>2022-04-03T14:14:37Z</time>
      </trkpt>
      <trkpt lat="45.99395" lon="0.46091">
        <ele>168.4</ele>
        <time>2022-04-03T14:14:38Z</time>
      </trkpt>
      <trkpt lat="45.99396" lon="0.46088">
        <ele>168.6</ele>
        <time>2022-04-03T14:14:39Z</time>
      </trkpt>
      <trkpt lat="45.99397" lon="0.46085">
        <ele>168.8</ele>
        <time>2022-04-03T14:14:40Z</time>
      </trkpt>
      <trkpt lat="45.99399" lon="0.46082">
        <ele>168.8</ele>
        <time>2022-04-03T14:14:41Z</time>
      </trkpt>
      <trkpt lat="45.994" lon="0.46079">
        <ele>169</ele>
        <time>2022-04-03T14:14:42Z</time>
      </trkpt>
      <trkpt lat="45.99402" lon="0.46076">
        <ele>169.2</ele>
        <time>2022-04-03T14:14:43Z</time>
      </trkpt>
      <trkpt lat="45.99403" lon="0.46073">
        <ele>169.2</ele>
        <time>2022-04-03T14:14:44Z</time>
      </trkpt>
      <trkpt lat="45.99405" lon="0.4607">
        <ele>169.2</ele>
        <time>2022-04-03T14:14:45Z</time>
      </trkpt>
      <trkpt lat="45.99406" lon="0.46068">
        <ele>169.4</ele>
        <time>2022-04-03T14:14:46Z</time>
      </trkpt>
      <trkpt lat="45.99408" lon="0.46065">
        <ele>169.4</ele>
        <time>2022-04-03T14:14:47Z</time>
      </trkpt>
      <trkpt lat="45.99409" lon="0.46062">
        <ele>169.6</ele>
        <time>2022-04-03T14:14:48Z</time>
      </trkpt>
      <trkpt lat="45.9941" lon="0.46059">
        <ele>169.6</ele>
        <time>2022-04-03T14:14:49Z</time>
      </trkpt>
      <trkpt lat="45.99412" lon="0.46056">
        <ele>169.8</ele>
        <time>2022-04-03T14:14:50Z</time>
      </trkpt>
      <trkpt lat="45.99413" lon="0.46054">
        <ele>169.8</ele>
        <time>2022-04-03T14:14:51Z</time>
      </trkpt>
      <trkpt lat="45.99415" lon="0.46051">
        <ele>170</ele>
        <time>2022-04-03T14:14:52Z</time>
      </trkpt>
      <trkpt lat="45.99416" lon="0.46048">
        <ele>170.2</ele>
        <time>2022-04-03T14:14:53Z</time>
      </trkpt>
      <trkpt lat="45.99418" lon="0.46045">
        <ele>170.2</ele>
        <time>2022-04-03T14:14:54Z</time>
      </trkpt>
      <trkpt lat="45.9942" lon="0.46042">
        <ele>170.2</ele>
        <time>2022-04-03T14:14:55Z</time>
      </trkpt>
      <trkpt lat="45.99421" lon="0.46039">
        <ele>170.2</ele>
        <time>2022-04-03T14:14:56Z</time>
      </trkpt>
      <trkpt lat="45.99423" lon="0.46037">
        <ele>170.4</ele>
        <time>2022-04-03T14:14:57Z</time>
      </trkpt>
      <trkpt lat="45.99425" lon="0.46035">
        <ele>170.4</ele>
        <time>2022-04-03T14:14:58Z</time>
      </trkpt>
      <trkpt lat="45.99427" lon="0.46032">
        <ele>170.6</ele>
        <time>2022-04-03T14:14:59Z</time>
      </trkpt>
      <trkpt lat="45.99428" lon="0.4603">
        <ele>170.8</ele>
        <time>2022-04-03T14:15:00Z</time>
      </trkpt>
      <trkpt lat="45.9943" lon="0.46027">
        <ele>170.8</ele>
        <time>2022-04-03T14:15:01Z</time>
      </trkpt>
      <trkpt lat="45.99431" lon="0.46024">
        <ele>170.8</ele>
        <time>2022-04-03T14:15:02Z</time>
      </trkpt>
      <trkpt lat="45.99433" lon="0.46021">
        <ele>170.8</ele>
        <time>2022-04-03T14:15:03Z</time>
      </trkpt>
      <trkpt lat="45.99435" lon="0.46018">
        <ele>170.8</ele>
        <time>2022-04-03T14:15:04Z</time>
      </trkpt>
      <trkpt lat="45.99436" lon="0.46016">
        <ele>171</ele>
        <time>2022-04-03T14:15:05Z</time>
      </trkpt>
      <trkpt lat="45.99438" lon="0.46013">
        <ele>171</ele>
        <time>2022-04-03T14:15:06Z</time>
      </trkpt>
      <trkpt lat="45.9944" lon="0.4601">
        <ele>171.2</ele>
        <time>2022-04-03T14:15:07Z</time>
      </trkpt>
      <trkpt lat="45.99442" lon="0.46008">
        <ele>171.2</ele>
        <time>2022-04-03T14:15:08Z</time>
      </trkpt>
      <trkpt lat="45.99443" lon="0.46005">
        <ele>171.2</ele>
        <time>2022-04-03T14:15:09Z</time>
      </trkpt>
      <trkpt lat="45.99445" lon="0.46003">
        <ele>171.4</ele>
        <time>2022-04-03T14:15:10Z</time>
      </trkpt>
      <trkpt lat="45.99447" lon="0.46">
        <ele>171.4</ele>
        <time>2022-04-03T14:15:11Z</time>
      </trkpt>
      <trkpt lat="45.99449" lon="0.45998">
        <ele>171.4</ele>
        <time>2022-04-03T14:15:12Z</time>
      </trkpt>
      <trkpt lat="45.99451" lon="0.45995">
        <ele>171.4</ele>
        <time>2022-04-03T14:15:13Z</time>
      </trkpt>
      <trkpt lat="45.99452" lon="0.45992">
        <ele>171.6</ele>
        <time>2022-04-03T14:15:14Z</time>
      </trkpt>
      <trkpt lat="45.99454" lon="0.45989">
        <ele>171.8</ele>
        <time>2022-04-03T14:15:15Z</time>
      </trkpt>
      <trkpt lat="45.99456" lon="0.45986">
        <ele>171.8</ele>
        <time>2022-04-03T14:15:16Z</time>
      </trkpt>
      <trkpt lat="45.99458" lon="0.45984">
        <ele>172.2</ele>
        <time>2022-04-03T14:15:17Z</time>
      </trkpt>
      <trkpt lat="45.9946" lon="0.45981">
        <ele>172.2</ele>
        <time>2022-04-03T14:15:18Z</time>
      </trkpt>
      <trkpt lat="45.99462" lon="0.45978">
        <ele>172.4</ele>
        <time>2022-04-03T14:15:19Z</time>
      </trkpt>
      <trkpt lat="45.99464" lon="0.45975">
        <ele>172.6</ele>
        <time>2022-04-03T14:15:20Z</time>
      </trkpt>
      <trkpt lat="45.99466" lon="0.45972">
        <ele>172.6</ele>
        <time>2022-04-03T14:15:21Z</time>
      </trkpt>
      <trkpt lat="45.99468" lon="0.45969">
        <ele>172.6</ele>
        <time>2022-04-03T14:15:22Z</time>
      </trkpt>
      <trkpt lat="45.9947" lon="0.45966">
        <ele>172.6</ele>
        <time>2022-04-03T14:15:23Z</time>
      </trkpt>
      <trkpt lat="45.99472" lon="0.45963">
        <ele>172.6</ele>
        <time>2022-04-03T14:15:24Z</time>
      </trkpt>
      <trkpt lat="45.99474" lon="0.4596">
        <ele>172.6</ele>
        <time>2022-04-03T14:15:25Z</time>
      </trkpt>
      <trkpt lat="45.99475" lon="0.45958">
        <ele>172.6</ele>
        <time>2022-04-03T14:15:26Z</time>
      </trkpt>
      <trkpt lat="45.99478" lon="0.45955">
        <ele>172.8</ele>
        <time>2022-04-03T14:15:27Z</time>
      </trkpt>
      <trkpt lat="45.9948" lon="0.45952">
        <ele>172.8</ele>
        <time>2022-04-03T14:15:28Z</time>
      </trkpt>
      <trkpt lat="45.99482" lon="0.45948">
        <ele>172.6</ele>
        <time>2022-04-03T14:15:29Z</time>
      </trkpt>
      <trkpt lat="45.99485" lon="0.45945">
        <ele>172.8</ele>
        <time>2022-04-03T14:15:30Z</time>
      </trkpt>
      <trkpt lat="45.99487" lon="0.45941">
        <ele>172.8</ele>
        <time>2022-04-03T14:15:31Z</time>
      </trkpt>
      <trkpt lat="45.9949" lon="0.45938">
        <ele>172.8</ele>
        <time>2022-04-03T14:15:32Z</time>
      </trkpt>
      <trkpt lat="45.99492" lon="0.45934">
        <ele>173</ele>
        <time>2022-04-03T14:15:33Z</time>
      </trkpt>
      <trkpt lat="45.99495" lon="0.4593">
        <ele>172.8</ele>
        <time>2022-04-03T14:15:34Z</time>
      </trkpt>
      <trkpt lat="45.99498" lon="0.45926">
        <ele>172.8</ele>
        <time>2022-04-03T14:15:35Z</time>
      </trkpt>
      <trkpt lat="45.995" lon="0.45922">
        <ele>172.8</ele>
        <time>2022-04-03T14:15:36Z</time>
      </trkpt>
      <trkpt lat="45.99503" lon="0.45918">
        <ele>173</ele>
        <time>2022-04-03T14:15:37Z</time>
      </trkpt>
      <trkpt lat="45.99506" lon="0.45914">
        <ele>172.8</ele>
        <time>2022-04-03T14:15:38Z</time>
      </trkpt>
      <trkpt lat="45.99509" lon="0.45911">
        <ele>172.8</ele>
        <time>2022-04-03T14:15:39Z</time>
      </trkpt>
      <trkpt lat="45.99512" lon="0.45907">
        <ele>172.8</ele>
        <time>2022-04-03T14:15:40Z</time>
      </trkpt>
      <trkpt lat="45.99514" lon="0.45903">
        <ele>172.8</ele>
        <time>2022-04-03T14:15:41Z</time>
      </trkpt>
      <trkpt lat="45.99517" lon="0.459">
        <ele>172.6</ele>
        <time>2022-04-03T14:15:42Z</time>
      </trkpt>
      <trkpt lat="45.99519" lon="0.45896">
        <ele>172.6</ele>
        <time>2022-04-03T14:15:43Z</time>
      </trkpt>
      <trkpt lat="45.99521" lon="0.45891">
        <ele>172.6</ele>
        <time>2022-04-03T14:15:44Z</time>
      </trkpt>
      <trkpt lat="45.99523" lon="0.45886">
        <ele>172.6</ele>
        <time>2022-04-03T14:15:45Z</time>
      </trkpt>
      <trkpt lat="45.99525" lon="0.45881">
        <ele>172.6</ele>
        <time>2022-04-03T14:15:46Z</time>
      </trkpt>
      <trkpt lat="45.99525" lon="0.45874">
        <ele>172.4</ele>
        <time>2022-04-03T14:15:47Z</time>
      </trkpt>
      <trkpt lat="45.99525" lon="0.45868">
        <ele>172.4</ele>
        <time>2022-04-03T14:15:48Z</time>
      </trkpt>
      <trkpt lat="45.99525" lon="0.45861">
        <ele>172.4</ele>
        <time>2022-04-03T14:15:49Z</time>
      </trkpt>
      <trkpt lat="45.99525" lon="0.45854">
        <ele>172.2</ele>
        <time>2022-04-03T14:15:50Z</time>
      </trkpt>
      <trkpt lat="45.99524" lon="0.45848">
        <ele>172</ele>
        <time>2022-04-03T14:15:51Z</time>
      </trkpt>
      <trkpt lat="45.99523" lon="0.45841">
        <ele>172</ele>
        <time>2022-04-03T14:15:52Z</time>
      </trkpt>
      <trkpt lat="45.99522" lon="0.45833">
        <ele>171.8</ele>
        <time>2022-04-03T14:15:53Z</time>
      </trkpt>
      <trkpt lat="45.9952" lon="0.45826">
        <ele>171.6</ele>
        <time>2022-04-03T14:15:54Z</time>
      </trkpt>
      <trkpt lat="45.99518" lon="0.45819">
        <ele>171.4</ele>
        <time>2022-04-03T14:15:55Z</time>
      </trkpt>
      <trkpt lat="45.99516" lon="0.45811">
        <ele>171.4</ele>
        <time>2022-04-03T14:15:56Z</time>
      </trkpt>
      <trkpt lat="45.99513" lon="0.45803">
        <ele>171</ele>
        <time>2022-04-03T14:15:57Z</time>
      </trkpt>
      <trkpt lat="45.9951" lon="0.45796">
        <ele>170.8</ele>
        <time>2022-04-03T14:15:58Z</time>
      </trkpt>
      <trkpt lat="45.99506" lon="0.45788">
        <ele>170.6</ele>
        <time>2022-04-03T14:15:59Z</time>
      </trkpt>
      <trkpt lat="45.99502" lon="0.45779">
        <ele>170.4</ele>
        <time>2022-04-03T14:16:00Z</time>
      </trkpt>
      <trkpt lat="45.99499" lon="0.45771">
        <ele>170.2</ele>
        <time>2022-04-03T14:16:01Z</time>
      </trkpt>
      <trkpt lat="45.99495" lon="0.45762">
        <ele>170</ele>
        <time>2022-04-03T14:16:02Z</time>
      </trkpt>
      <trkpt lat="45.99491" lon="0.45753">
        <ele>169.8</ele>
        <time>2022-04-03T14:16:03Z</time>
      </trkpt>
      <trkpt lat="45.99488" lon="0.45744">
        <ele>169.2</ele>
        <time>2022-04-03T14:16:04Z</time>
      </trkpt>
      <trkpt lat="45.99487" lon="0.45734">
        <ele>169.2</ele>
        <time>2022-04-03T14:16:05Z</time>
      </trkpt>
      <trkpt lat="45.99489" lon="0.45725">
        <ele>168.8</ele>
        <time>2022-04-03T14:16:06Z</time>
      </trkpt>
      <trkpt lat="45.99493" lon="0.45718">
        <ele>168.2</ele>
        <time>2022-04-03T14:16:07Z</time>
      </trkpt>
      <trkpt lat="45.99498" lon="0.45713">
        <ele>167.8</ele>
        <time>2022-04-03T14:16:08Z</time>
      </trkpt>
      <trkpt lat="45.99503" lon="0.4571">
        <ele>167.2</ele>
        <time>2022-04-03T14:16:09Z</time>
      </trkpt>
      <trkpt lat="45.99506" lon="0.45706">
        <ele>166.6</ele>
        <time>2022-04-03T14:16:10Z</time>
      </trkpt>
      <trkpt lat="45.99509" lon="0.45702">
        <ele>166</ele>
        <time>2022-04-03T14:16:11Z</time>
      </trkpt>
      <trkpt lat="45.99511" lon="0.45697">
        <ele>165.6</ele>
        <time>2022-04-03T14:16:12Z</time>
      </trkpt>
      <trkpt lat="45.99512" lon="0.45692">
        <ele>165</ele>
        <time>2022-04-03T14:16:13Z</time>
      </trkpt>
      <trkpt lat="45.99513" lon="0.45687">
        <ele>164.8</ele>
        <time>2022-04-03T14:16:14Z</time>
      </trkpt>
      <trkpt lat="45.99513" lon="0.45681">
        <ele>164.8</ele>
        <time>2022-04-03T14:16:15Z</time>
      </trkpt>
      <trkpt lat="45.99513" lon="0.45676">
        <ele>164.8</ele>
        <time>2022-04-03T14:16:16Z</time>
      </trkpt>
      <trkpt lat="45.99512" lon="0.4567">
        <ele>164.6</ele>
        <time>2022-04-03T14:16:17Z</time>
      </trkpt>
      <trkpt lat="45.99512" lon="0.45665">
        <ele>164.6</ele>
        <time>2022-04-03T14:16:18Z</time>
      </trkpt>
      <trkpt lat="45.99511" lon="0.4566">
        <ele>164.8</ele>
        <time>2022-04-03T14:16:19Z</time>
      </trkpt>
      <trkpt lat="45.9951" lon="0.45654">
        <ele>164.6</ele>
        <time>2022-04-03T14:16:20Z</time>
      </trkpt>
      <trkpt lat="45.99509" lon="0.45649">
        <ele>164.8</ele>
        <time>2022-04-03T14:16:21Z</time>
      </trkpt>
      <trkpt lat="45.99509" lon="0.45644">
        <ele>164.8</ele>
        <time>2022-04-03T14:16:22Z</time>
      </trkpt>
      <trkpt lat="45.99508" lon="0.45638">
        <ele>164.8</ele>
        <time>2022-04-03T14:16:23Z</time>
      </trkpt>
      <trkpt lat="45.99508" lon="0.45633">
        <ele>164.8</ele>
        <time>2022-04-03T14:16:24Z</time>
      </trkpt>
      <trkpt lat="45.99507" lon="0.45628">
        <ele>165</ele>
        <time>2022-04-03T14:16:25Z</time>
      </trkpt>
      <trkpt lat="45.99506" lon="0.45623">
        <ele>165.2</ele>
        <time>2022-04-03T14:16:26Z</time>
      </trkpt>
      <trkpt lat="45.99506" lon="0.45618">
        <ele>165.2</ele>
        <time>2022-04-03T14:16:27Z</time>
      </trkpt>
      <trkpt lat="45.99505" lon="0.45614">
        <ele>165.4</ele>
        <time>2022-04-03T14:16:28Z</time>
      </trkpt>
      <trkpt lat="45.99504" lon="0.45609">
        <ele>165.8</ele>
        <time>2022-04-03T14:16:29Z</time>
      </trkpt>
      <trkpt lat="45.99503" lon="0.45604">
        <ele>165.8</ele>
        <time>2022-04-03T14:16:30Z</time>
      </trkpt>
      <trkpt lat="45.99502" lon="0.456">
        <ele>165.8</ele>
        <time>2022-04-03T14:16:31Z</time>
      </trkpt>
      <trkpt lat="45.99502" lon="0.45595">
        <ele>166.2</ele>
        <time>2022-04-03T14:16:32Z</time>
      </trkpt>
      <trkpt lat="45.99501" lon="0.45591">
        <ele>166.4</ele>
        <time>2022-04-03T14:16:33Z</time>
      </trkpt>
      <trkpt lat="45.995" lon="0.45586">
        <ele>166.8</ele>
        <time>2022-04-03T14:16:34Z</time>
      </trkpt>
      <trkpt lat="45.995" lon="0.45581">
        <ele>167</ele>
        <time>2022-04-03T14:16:35Z</time>
      </trkpt>
      <trkpt lat="45.99499" lon="0.45576">
        <ele>167</ele>
        <time>2022-04-03T14:16:36Z</time>
      </trkpt>
      <trkpt lat="45.99499" lon="0.45572">
        <ele>167.2</ele>
        <time>2022-04-03T14:16:37Z</time>
      </trkpt>
      <trkpt lat="45.99498" lon="0.45567">
        <ele>167.4</ele>
        <time>2022-04-03T14:16:38Z</time>
      </trkpt>
      <trkpt lat="45.99497" lon="0.45562">
        <ele>167.4</ele>
        <time>2022-04-03T14:16:39Z</time>
      </trkpt>
      <trkpt lat="45.99496" lon="0.45557">
        <ele>167.4</ele>
        <time>2022-04-03T14:16:40Z</time>
      </trkpt>
      <trkpt lat="45.99495" lon="0.45553">
        <ele>167.8</ele>
        <time>2022-04-03T14:16:41Z</time>
      </trkpt>
      <trkpt lat="45.99494" lon="0.45548">
        <ele>167.8</ele>
        <time>2022-04-03T14:16:42Z</time>
      </trkpt>
      <trkpt lat="45.99494" lon="0.45543">
        <ele>168</ele>
        <time>2022-04-03T14:16:43Z</time>
      </trkpt>
      <trkpt lat="45.99494" lon="0.45539">
        <ele>168</ele>
        <time>2022-04-03T14:16:44Z</time>
      </trkpt>
      <trkpt lat="45.99493" lon="0.45534">
        <ele>168.2</ele>
        <time>2022-04-03T14:16:45Z</time>
      </trkpt>
      <trkpt lat="45.99492" lon="0.4553">
        <ele>168.4</ele>
        <time>2022-04-03T14:16:46Z</time>
      </trkpt>
      <trkpt lat="45.99491" lon="0.45525">
        <ele>168.4</ele>
        <time>2022-04-03T14:16:47Z</time>
      </trkpt>
      <trkpt lat="45.99491" lon="0.45521">
        <ele>168.8</ele>
        <time>2022-04-03T14:16:48Z</time>
      </trkpt>
      <trkpt lat="45.9949" lon="0.45516">
        <ele>169</ele>
        <time>2022-04-03T14:16:49Z</time>
      </trkpt>
      <trkpt lat="45.99489" lon="0.45512">
        <ele>169.2</ele>
        <time>2022-04-03T14:16:50Z</time>
      </trkpt>
      <trkpt lat="45.99488" lon="0.45507">
        <ele>169.4</ele>
        <time>2022-04-03T14:16:51Z</time>
      </trkpt>
      <trkpt lat="45.99488" lon="0.45503">
        <ele>169.6</ele>
        <time>2022-04-03T14:16:52Z</time>
      </trkpt>
      <trkpt lat="45.99487" lon="0.45498">
        <ele>169.8</ele>
        <time>2022-04-03T14:16:53Z</time>
      </trkpt>
      <trkpt lat="45.99487" lon="0.45493">
        <ele>169.8</ele>
        <time>2022-04-03T14:16:54Z</time>
      </trkpt>
      <trkpt lat="45.99486" lon="0.45489">
        <ele>169.8</ele>
        <time>2022-04-03T14:16:55Z</time>
      </trkpt>
      <trkpt lat="45.99485" lon="0.45484">
        <ele>169.8</ele>
        <time>2022-04-03T14:16:56Z</time>
      </trkpt>
      <trkpt lat="45.99485" lon="0.45479">
        <ele>169.8</ele>
        <time>2022-04-03T14:16:57Z</time>
      </trkpt>
      <trkpt lat="45.99484" lon="0.45475">
        <ele>170.2</ele>
        <time>2022-04-03T14:16:58Z</time>
      </trkpt>
      <trkpt lat="45.99484" lon="0.4547">
        <ele>170.2</ele>
        <time>2022-04-03T14:16:59Z</time>
      </trkpt>
      <trkpt lat="45.99483" lon="0.45466">
        <ele>170.4</ele>
        <time>2022-04-03T14:17:00Z</time>
      </trkpt>
      <trkpt lat="45.99482" lon="0.45461">
        <ele>170.4</ele>
        <time>2022-04-03T14:17:01Z</time>
      </trkpt>
      <trkpt lat="45.99482" lon="0.45457">
        <ele>170.4</ele>
        <time>2022-04-03T14:17:02Z</time>
      </trkpt>
      <trkpt lat="45.99481" lon="0.45452">
        <ele>170.6</ele>
        <time>2022-04-03T14:17:03Z</time>
      </trkpt>
      <trkpt lat="45.9948" lon="0.45447">
        <ele>170.6</ele>
        <time>2022-04-03T14:17:04Z</time>
      </trkpt>
      <trkpt lat="45.99479" lon="0.45442">
        <ele>170.6</ele>
        <time>2022-04-03T14:17:05Z</time>
      </trkpt>
      <trkpt lat="45.99478" lon="0.45438">
        <ele>170.4</ele>
        <time>2022-04-03T14:17:06Z</time>
      </trkpt>
      <trkpt lat="45.99478" lon="0.45433">
        <ele>170.6</ele>
        <time>2022-04-03T14:17:07Z</time>
      </trkpt>
      <trkpt lat="45.99477" lon="0.45429">
        <ele>170.8</ele>
        <time>2022-04-03T14:17:08Z</time>
      </trkpt>
      <trkpt lat="45.99476" lon="0.45424">
        <ele>170.8</ele>
        <time>2022-04-03T14:17:09Z</time>
      </trkpt>
      <trkpt lat="45.99476" lon="0.45419">
        <ele>171</ele>
        <time>2022-04-03T14:17:10Z</time>
      </trkpt>
      <trkpt lat="45.99475" lon="0.45415">
        <ele>171</ele>
        <time>2022-04-03T14:17:11Z</time>
      </trkpt>
      <trkpt lat="45.99474" lon="0.4541">
        <ele>171.6</ele>
        <time>2022-04-03T14:17:12Z</time>
      </trkpt>
      <trkpt lat="45.99472" lon="0.45406">
        <ele>171.6</ele>
        <time>2022-04-03T14:17:13Z</time>
      </trkpt>
      <trkpt lat="45.99472" lon="0.45401">
        <ele>171.8</ele>
        <time>2022-04-03T14:17:14Z</time>
      </trkpt>
      <trkpt lat="45.99472" lon="0.45396">
        <ele>171.8</ele>
        <time>2022-04-03T14:17:15Z</time>
      </trkpt>
      <trkpt lat="45.99472" lon="0.45392">
        <ele>172.2</ele>
        <time>2022-04-03T14:17:16Z</time>
      </trkpt>
      <trkpt lat="45.99472" lon="0.45387">
        <ele>172.2</ele>
        <time>2022-04-03T14:17:17Z</time>
      </trkpt>
      <trkpt lat="45.99471" lon="0.45382">
        <ele>172.4</ele>
        <time>2022-04-03T14:17:18Z</time>
      </trkpt>
      <trkpt lat="45.99471" lon="0.45377">
        <ele>172.6</ele>
        <time>2022-04-03T14:17:19Z</time>
      </trkpt>
      <trkpt lat="45.9947" lon="0.45372">
        <ele>172.6</ele>
        <time>2022-04-03T14:17:20Z</time>
      </trkpt>
      <trkpt lat="45.9947" lon="0.45368">
        <ele>172.6</ele>
        <time>2022-04-03T14:17:21Z</time>
      </trkpt>
      <trkpt lat="45.99469" lon="0.45363">
        <ele>172.6</ele>
        <time>2022-04-03T14:17:22Z</time>
      </trkpt>
      <trkpt lat="45.99468" lon="0.45358">
        <ele>172.6</ele>
        <time>2022-04-03T14:17:23Z</time>
      </trkpt>
      <trkpt lat="45.99468" lon="0.45353">
        <ele>173</ele>
        <time>2022-04-03T14:17:24Z</time>
      </trkpt>
      <trkpt lat="45.99467" lon="0.45349">
        <ele>173</ele>
        <time>2022-04-03T14:17:25Z</time>
      </trkpt>
      <trkpt lat="45.99466" lon="0.45344">
        <ele>173</ele>
        <time>2022-04-03T14:17:26Z</time>
      </trkpt>
      <trkpt lat="45.99466" lon="0.45339">
        <ele>173.2</ele>
        <time>2022-04-03T14:17:27Z</time>
      </trkpt>
      <trkpt lat="45.99465" lon="0.45334">
        <ele>173.2</ele>
        <time>2022-04-03T14:17:28Z</time>
      </trkpt>
      <trkpt lat="45.99464" lon="0.45329">
        <ele>173.2</ele>
        <time>2022-04-03T14:17:29Z</time>
      </trkpt>
      <trkpt lat="45.99464" lon="0.45324">
        <ele>173.4</ele>
        <time>2022-04-03T14:17:30Z</time>
      </trkpt>
      <trkpt lat="45.99463" lon="0.45319">
        <ele>173.2</ele>
        <time>2022-04-03T14:17:31Z</time>
      </trkpt>
      <trkpt lat="45.99462" lon="0.45314">
        <ele>173.4</ele>
        <time>2022-04-03T14:17:32Z</time>
      </trkpt>
      <trkpt lat="45.99461" lon="0.45309">
        <ele>173.4</ele>
        <time>2022-04-03T14:17:33Z</time>
      </trkpt>
      <trkpt lat="45.9946" lon="0.45304">
        <ele>173.4</ele>
        <time>2022-04-03T14:17:34Z</time>
      </trkpt>
      <trkpt lat="45.9946" lon="0.45299">
        <ele>173.4</ele>
        <time>2022-04-03T14:17:35Z</time>
      </trkpt>
      <trkpt lat="45.99459" lon="0.45293">
        <ele>173.4</ele>
        <time>2022-04-03T14:17:36Z</time>
      </trkpt>
      <trkpt lat="45.99459" lon="0.45287">
        <ele>173.4</ele>
        <time>2022-04-03T14:17:37Z</time>
      </trkpt>
      <trkpt lat="45.99459" lon="0.45282">
        <ele>173.4</ele>
        <time>2022-04-03T14:17:38Z</time>
      </trkpt>
      <trkpt lat="45.99458" lon="0.45276">
        <ele>173.4</ele>
        <time>2022-04-03T14:17:39Z</time>
      </trkpt>
      <trkpt lat="45.99457" lon="0.4527">
        <ele>173.4</ele>
        <time>2022-04-03T14:17:40Z</time>
      </trkpt>
      <trkpt lat="45.99456" lon="0.45265">
        <ele>173.4</ele>
        <time>2022-04-03T14:17:41Z</time>
      </trkpt>
      <trkpt lat="45.99455" lon="0.45259">
        <ele>173.4</ele>
        <time>2022-04-03T14:17:42Z</time>
      </trkpt>
      <trkpt lat="45.99455" lon="0.45252">
        <ele>173.4</ele>
        <time>2022-04-03T14:17:43Z</time>
      </trkpt>
      <trkpt lat="45.99454" lon="0.45246">
        <ele>173.4</ele>
        <time>2022-04-03T14:17:44Z</time>
      </trkpt>
      <trkpt lat="45.99454" lon="0.45241">
        <ele>173.4</ele>
        <time>2022-04-03T14:17:45Z</time>
      </trkpt>
      <trkpt lat="45.99453" lon="0.45235">
        <ele>173.2</ele>
        <time>2022-04-03T14:17:46Z</time>
      </trkpt>
      <trkpt lat="45.99452" lon="0.45229">
        <ele>173</ele>
        <time>2022-04-03T14:17:47Z</time>
      </trkpt>
      <trkpt lat="45.99451" lon="0.45223">
        <ele>172.8</ele>
        <time>2022-04-03T14:17:48Z</time>
      </trkpt>
      <trkpt lat="45.9945" lon="0.45218">
        <ele>172.8</ele>
        <time>2022-04-03T14:17:49Z</time>
      </trkpt>
      <trkpt lat="45.99449" lon="0.45211">
        <ele>172.4</ele>
        <time>2022-04-03T14:17:50Z</time>
      </trkpt>
      <trkpt lat="45.99448" lon="0.45205">
        <ele>172.4</ele>
        <time>2022-04-03T14:17:51Z</time>
      </trkpt>
      <trkpt lat="45.99447" lon="0.45199">
        <ele>172.2</ele>
        <time>2022-04-03T14:17:52Z</time>
      </trkpt>
      <trkpt lat="45.99446" lon="0.45192">
        <ele>171.8</ele>
        <time>2022-04-03T14:17:53Z</time>
      </trkpt>
      <trkpt lat="45.99445" lon="0.45185">
        <ele>171.6</ele>
        <time>2022-04-03T14:17:54Z</time>
      </trkpt>
      <trkpt lat="45.99444" lon="0.45179">
        <ele>171.2</ele>
        <time>2022-04-03T14:17:55Z</time>
      </trkpt>
      <trkpt lat="45.99443" lon="0.45172">
        <ele>171</ele>
        <time>2022-04-03T14:17:56Z</time>
      </trkpt>
      <trkpt lat="45.99442" lon="0.45165">
        <ele>171.2</ele>
        <time>2022-04-03T14:17:57Z</time>
      </trkpt>
      <trkpt lat="45.99442" lon="0.45158">
        <ele>171.2</ele>
        <time>2022-04-03T14:17:58Z</time>
      </trkpt>
      <trkpt lat="45.99441" lon="0.45151">
        <ele>171.2</ele>
        <time>2022-04-03T14:17:59Z</time>
      </trkpt>
      <trkpt lat="45.9944" lon="0.45144">
        <ele>171</ele>
        <time>2022-04-03T14:18:00Z</time>
      </trkpt>
      <trkpt lat="45.99439" lon="0.45137">
        <ele>171</ele>
        <time>2022-04-03T14:18:01Z</time>
      </trkpt>
      <trkpt lat="45.99438" lon="0.45129">
        <ele>170.8</ele>
        <time>2022-04-03T14:18:02Z</time>
      </trkpt>
      <trkpt lat="45.99437" lon="0.45122">
        <ele>170.8</ele>
        <time>2022-04-03T14:18:03Z</time>
      </trkpt>
      <trkpt lat="45.99436" lon="0.45114">
        <ele>170.6</ele>
        <time>2022-04-03T14:18:04Z</time>
      </trkpt>
      <trkpt lat="45.99435" lon="0.45107">
        <ele>170.8</ele>
        <time>2022-04-03T14:18:05Z</time>
      </trkpt>
      <trkpt lat="45.99434" lon="0.45099">
        <ele>170.6</ele>
        <time>2022-04-03T14:18:06Z</time>
      </trkpt>
      <trkpt lat="45.99433" lon="0.45092">
        <ele>170.6</ele>
        <time>2022-04-03T14:18:07Z</time>
      </trkpt>
      <trkpt lat="45.99431" lon="0.45084">
        <ele>170.4</ele>
        <time>2022-04-03T14:18:08Z</time>
      </trkpt>
      <trkpt lat="45.9943" lon="0.45076">
        <ele>170.2</ele>
        <time>2022-04-03T14:18:09Z</time>
      </trkpt>
      <trkpt lat="45.99429" lon="0.45069">
        <ele>170.2</ele>
        <time>2022-04-03T14:18:10Z</time>
      </trkpt>
      <trkpt lat="45.99428" lon="0.45061">
        <ele>170</ele>
        <time>2022-04-03T14:18:11Z</time>
      </trkpt>
      <trkpt lat="45.99427" lon="0.45054">
        <ele>169.8</ele>
        <time>2022-04-03T14:18:12Z</time>
      </trkpt>
      <trkpt lat="45.99426" lon="0.45046">
        <ele>169.6</ele>
        <time>2022-04-03T14:18:13Z</time>
      </trkpt>
      <trkpt lat="45.99425" lon="0.45037">
        <ele>169.4</ele>
        <time>2022-04-03T14:18:14Z</time>
      </trkpt>
      <trkpt lat="45.99424" lon="0.45029">
        <ele>169</ele>
        <time>2022-04-03T14:18:15Z</time>
      </trkpt>
      <trkpt lat="45.99423" lon="0.45021">
        <ele>169</ele>
        <time>2022-04-03T14:18:16Z</time>
      </trkpt>
      <trkpt lat="45.99422" lon="0.45013">
        <ele>169.2</ele>
        <time>2022-04-03T14:18:17Z</time>
      </trkpt>
      <trkpt lat="45.99421" lon="0.45005">
        <ele>168.8</ele>
        <time>2022-04-03T14:18:18Z</time>
      </trkpt>
      <trkpt lat="45.99419" lon="0.44996">
        <ele>168.6</ele>
        <time>2022-04-03T14:18:19Z</time>
      </trkpt>
      <trkpt lat="45.99419" lon="0.44988">
        <ele>168.4</ele>
        <time>2022-04-03T14:18:20Z</time>
      </trkpt>
      <trkpt lat="45.99418" lon="0.4498">
        <ele>168.2</ele>
        <time>2022-04-03T14:18:21Z</time>
      </trkpt>
      <trkpt lat="45.99417" lon="0.44973">
        <ele>168.2</ele>
        <time>2022-04-03T14:18:22Z</time>
      </trkpt>
      <trkpt lat="45.99416" lon="0.44965">
        <ele>167.8</ele>
        <time>2022-04-03T14:18:23Z</time>
      </trkpt>
      <trkpt lat="45.99416" lon="0.44958">
        <ele>168</ele>
        <time>2022-04-03T14:18:24Z</time>
      </trkpt>
      <trkpt lat="45.99415" lon="0.44951">
        <ele>168</ele>
        <time>2022-04-03T14:18:25Z</time>
      </trkpt>
      <trkpt lat="45.99415" lon="0.44945">
        <ele>167.8</ele>
        <time>2022-04-03T14:18:26Z</time>
      </trkpt>
      <trkpt lat="45.99414" lon="0.44938">
        <ele>168</ele>
        <time>2022-04-03T14:18:27Z</time>
      </trkpt>
      <trkpt lat="45.99413" lon="0.44932">
        <ele>167.8</ele>
        <time>2022-04-03T14:18:28Z</time>
      </trkpt>
      <trkpt lat="45.99412" lon="0.44927">
        <ele>167.8</ele>
        <time>2022-04-03T14:18:29Z</time>
      </trkpt>
      <trkpt lat="45.99411" lon="0.44922">
        <ele>167.8</ele>
        <time>2022-04-03T14:18:30Z</time>
      </trkpt>
      <trkpt lat="45.99411" lon="0.44917">
        <ele>167.8</ele>
        <time>2022-04-03T14:18:31Z</time>
      </trkpt>
      <trkpt lat="45.9941" lon="0.44912">
        <ele>168</ele>
        <time>2022-04-03T14:18:32Z</time>
      </trkpt>
      <trkpt lat="45.9941" lon="0.44907">
        <ele>168</ele>
        <time>2022-04-03T14:18:33Z</time>
      </trkpt>
      <trkpt lat="45.99409" lon="0.44902">
        <ele>168.2</ele>
        <time>2022-04-03T14:18:34Z</time>
      </trkpt>
      <trkpt lat="45.99409" lon="0.44897">
        <ele>168.2</ele>
        <time>2022-04-03T14:18:35Z</time>
      </trkpt>
      <trkpt lat="45.99408" lon="0.44892">
        <ele>168.6</ele>
        <time>2022-04-03T14:18:36Z</time>
      </trkpt>
      <trkpt lat="45.99408" lon="0.44887">
        <ele>169</ele>
        <time>2022-04-03T14:18:37Z</time>
      </trkpt>
      <trkpt lat="45.99407" lon="0.44882">
        <ele>169.2</ele>
        <time>2022-04-03T14:18:38Z</time>
      </trkpt>
      <trkpt lat="45.99407" lon="0.44877">
        <ele>169.6</ele>
        <time>2022-04-03T14:18:39Z</time>
      </trkpt>
      <trkpt lat="45.99406" lon="0.44872">
        <ele>170</ele>
        <time>2022-04-03T14:18:40Z</time>
      </trkpt>
      <trkpt lat="45.99406" lon="0.44867">
        <ele>170</ele>
        <time>2022-04-03T14:18:41Z</time>
      </trkpt>
      <trkpt lat="45.99406" lon="0.44862">
        <ele>170.6</ele>
        <time>2022-04-03T14:18:42Z</time>
      </trkpt>
      <trkpt lat="45.99405" lon="0.44856">
        <ele>170.6</ele>
        <time>2022-04-03T14:18:43Z</time>
      </trkpt>
      <trkpt lat="45.99404" lon="0.44851">
        <ele>170.6</ele>
        <time>2022-04-03T14:18:44Z</time>
      </trkpt>
      <trkpt lat="45.99404" lon="0.44846">
        <ele>171</ele>
        <time>2022-04-03T14:18:45Z</time>
      </trkpt>
      <trkpt lat="45.99403" lon="0.4484">
        <ele>171</ele>
        <time>2022-04-03T14:18:46Z</time>
      </trkpt>
      <trkpt lat="45.99402" lon="0.44835">
        <ele>171.2</ele>
        <time>2022-04-03T14:18:47Z</time>
      </trkpt>
      <trkpt lat="45.99402" lon="0.4483">
        <ele>171.2</ele>
        <time>2022-04-03T14:18:48Z</time>
      </trkpt>
      <trkpt lat="45.99401" lon="0.44824">
        <ele>171.4</ele>
        <time>2022-04-03T14:18:49Z</time>
      </trkpt>
      <trkpt lat="45.994" lon="0.44818">
        <ele>171.4</ele>
        <time>2022-04-03T14:18:50Z</time>
      </trkpt>
      <trkpt lat="45.994" lon="0.44812">
        <ele>171.6</ele>
        <time>2022-04-03T14:18:51Z</time>
      </trkpt>
      <trkpt lat="45.99399" lon="0.44806">
        <ele>171.8</ele>
        <time>2022-04-03T14:18:52Z</time>
      </trkpt>
      <trkpt lat="45.99398" lon="0.448">
        <ele>171.8</ele>
        <time>2022-04-03T14:18:53Z</time>
      </trkpt>
      <trkpt lat="45.99397" lon="0.44793">
        <ele>171.8</ele>
        <time>2022-04-03T14:18:54Z</time>
      </trkpt>
      <trkpt lat="45.99396" lon="0.44787">
        <ele>172</ele>
        <time>2022-04-03T14:18:55Z</time>
      </trkpt>
      <trkpt lat="45.99395" lon="0.44781">
        <ele>171.8</ele>
        <time>2022-04-03T14:18:56Z</time>
      </trkpt>
      <trkpt lat="45.99394" lon="0.44774">
        <ele>172</ele>
        <time>2022-04-03T14:18:57Z</time>
      </trkpt>
      <trkpt lat="45.99392" lon="0.44768">
        <ele>172</ele>
        <time>2022-04-03T14:18:58Z</time>
      </trkpt>
      <trkpt lat="45.99392" lon="0.44762">
        <ele>172</ele>
        <time>2022-04-03T14:18:59Z</time>
      </trkpt>
      <trkpt lat="45.99391" lon="0.44756">
        <ele>172</ele>
        <time>2022-04-03T14:19:00Z</time>
      </trkpt>
      <trkpt lat="45.99391" lon="0.44749">
        <ele>172</ele>
        <time>2022-04-03T14:19:01Z</time>
      </trkpt>
      <trkpt lat="45.9939" lon="0.44743">
        <ele>172</ele>
        <time>2022-04-03T14:19:02Z</time>
      </trkpt>
      <trkpt lat="45.9939" lon="0.44737">
        <ele>172</ele>
        <time>2022-04-03T14:19:03Z</time>
      </trkpt>
      <trkpt lat="45.99389" lon="0.44731">
        <ele>172</ele>
        <time>2022-04-03T14:19:04Z</time>
      </trkpt>
      <trkpt lat="45.99388" lon="0.44724">
        <ele>172</ele>
        <time>2022-04-03T14:19:05Z</time>
      </trkpt>
      <trkpt lat="45.99387" lon="0.44718">
        <ele>172</ele>
        <time>2022-04-03T14:19:06Z</time>
      </trkpt>
      <trkpt lat="45.99387" lon="0.44712">
        <ele>171.8</ele>
        <time>2022-04-03T14:19:07Z</time>
      </trkpt>
      <trkpt lat="45.99386" lon="0.44706">
        <ele>171.8</ele>
        <time>2022-04-03T14:19:08Z</time>
      </trkpt>
      <trkpt lat="45.99385" lon="0.447">
        <ele>171.8</ele>
        <time>2022-04-03T14:19:09Z</time>
      </trkpt>
      <trkpt lat="45.99384" lon="0.44693">
        <ele>171.8</ele>
        <time>2022-04-03T14:19:10Z</time>
      </trkpt>
      <trkpt lat="45.99383" lon="0.44687">
        <ele>171.8</ele>
        <time>2022-04-03T14:19:11Z</time>
      </trkpt>
      <trkpt lat="45.99382" lon="0.44681">
        <ele>171.6</ele>
        <time>2022-04-03T14:19:12Z</time>
      </trkpt>
      <trkpt lat="45.99381" lon="0.44675">
        <ele>171.6</ele>
        <time>2022-04-03T14:19:13Z</time>
      </trkpt>
      <trkpt lat="45.99381" lon="0.44669">
        <ele>171.6</ele>
        <time>2022-04-03T14:19:14Z</time>
      </trkpt>
      <trkpt lat="45.9938" lon="0.44662">
        <ele>171.6</ele>
        <time>2022-04-03T14:19:15Z</time>
      </trkpt>
      <trkpt lat="45.99379" lon="0.44656">
        <ele>171.4</ele>
        <time>2022-04-03T14:19:16Z</time>
      </trkpt>
      <trkpt lat="45.99378" lon="0.44649">
        <ele>171.6</ele>
        <time>2022-04-03T14:19:17Z</time>
      </trkpt>
      <trkpt lat="45.99377" lon="0.44643">
        <ele>171.6</ele>
        <time>2022-04-03T14:19:18Z</time>
      </trkpt>
      <trkpt lat="45.99376" lon="0.44637">
        <ele>171.6</ele>
        <time>2022-04-03T14:19:19Z</time>
      </trkpt>
      <trkpt lat="45.99376" lon="0.4463">
        <ele>171.6</ele>
        <time>2022-04-03T14:19:20Z</time>
      </trkpt>
      <trkpt lat="45.99375" lon="0.44623">
        <ele>171.6</ele>
        <time>2022-04-03T14:19:21Z</time>
      </trkpt>
      <trkpt lat="45.99374" lon="0.44617">
        <ele>171.6</ele>
        <time>2022-04-03T14:19:22Z</time>
      </trkpt>
      <trkpt lat="45.99373" lon="0.44611">
        <ele>171.4</ele>
        <time>2022-04-03T14:19:23Z</time>
      </trkpt>
      <trkpt lat="45.99372" lon="0.44604">
        <ele>171.6</ele>
        <time>2022-04-03T14:19:24Z</time>
      </trkpt>
      <trkpt lat="45.99372" lon="0.44598">
        <ele>171.4</ele>
        <time>2022-04-03T14:19:25Z</time>
      </trkpt>
      <trkpt lat="45.99371" lon="0.44592">
        <ele>171.2</ele>
        <time>2022-04-03T14:19:26Z</time>
      </trkpt>
      <trkpt lat="45.9937" lon="0.44586">
        <ele>171.4</ele>
        <time>2022-04-03T14:19:27Z</time>
      </trkpt>
      <trkpt lat="45.99369" lon="0.44579">
        <ele>171.4</ele>
        <time>2022-04-03T14:19:28Z</time>
      </trkpt>
      <trkpt lat="45.99368" lon="0.44573">
        <ele>171.4</ele>
        <time>2022-04-03T14:19:29Z</time>
      </trkpt>
      <trkpt lat="45.99367" lon="0.44566">
        <ele>171.4</ele>
        <time>2022-04-03T14:19:30Z</time>
      </trkpt>
      <trkpt lat="45.99367" lon="0.44559">
        <ele>171.4</ele>
        <time>2022-04-03T14:19:31Z</time>
      </trkpt>
      <trkpt lat="45.99366" lon="0.44552">
        <ele>171.4</ele>
        <time>2022-04-03T14:19:32Z</time>
      </trkpt>
      <trkpt lat="45.99365" lon="0.44545">
        <ele>171.4</ele>
        <time>2022-04-03T14:19:33Z</time>
      </trkpt>
      <trkpt lat="45.99364" lon="0.44538">
        <ele>171.4</ele>
        <time>2022-04-03T14:19:34Z</time>
      </trkpt>
      <trkpt lat="45.99363" lon="0.4453">
        <ele>171.2</ele>
        <time>2022-04-03T14:19:35Z</time>
      </trkpt>
      <trkpt lat="45.99362" lon="0.44523">
        <ele>171.2</ele>
        <time>2022-04-03T14:19:36Z</time>
      </trkpt>
      <trkpt lat="45.99361" lon="0.44515">
        <ele>171.2</ele>
        <time>2022-04-03T14:19:37Z</time>
      </trkpt>
      <trkpt lat="45.9936" lon="0.44508">
        <ele>171</ele>
        <time>2022-04-03T14:19:38Z</time>
      </trkpt>
      <trkpt lat="45.99359" lon="0.445">
        <ele>171.2</ele>
        <time>2022-04-03T14:19:39Z</time>
      </trkpt>
      <trkpt lat="45.99358" lon="0.44493">
        <ele>171</ele>
        <time>2022-04-03T14:19:40Z</time>
      </trkpt>
      <trkpt lat="45.99357" lon="0.44485">
        <ele>171.2</ele>
        <time>2022-04-03T14:19:41Z</time>
      </trkpt>
      <trkpt lat="45.99356" lon="0.44478">
        <ele>171</ele>
        <time>2022-04-03T14:19:42Z</time>
      </trkpt>
      <trkpt lat="45.99355" lon="0.4447">
        <ele>171.2</ele>
        <time>2022-04-03T14:19:43Z</time>
      </trkpt>
      <trkpt lat="45.99354" lon="0.44462">
        <ele>171</ele>
        <time>2022-04-03T14:19:44Z</time>
      </trkpt>
      <trkpt lat="45.99353" lon="0.44455">
        <ele>171</ele>
        <time>2022-04-03T14:19:45Z</time>
      </trkpt>
      <trkpt lat="45.99352" lon="0.44448">
        <ele>171</ele>
        <time>2022-04-03T14:19:46Z</time>
      </trkpt>
      <trkpt lat="45.99351" lon="0.4444">
        <ele>171</ele>
        <time>2022-04-03T14:19:47Z</time>
      </trkpt>
      <trkpt lat="45.99351" lon="0.44433">
        <ele>171</ele>
        <time>2022-04-03T14:19:48Z</time>
      </trkpt>
      <trkpt lat="45.9935" lon="0.44426">
        <ele>171</ele>
        <time>2022-04-03T14:19:49Z</time>
      </trkpt>
      <trkpt lat="45.99349" lon="0.44419">
        <ele>171</ele>
        <time>2022-04-03T14:19:50Z</time>
      </trkpt>
      <trkpt lat="45.99348" lon="0.44413">
        <ele>171</ele>
        <time>2022-04-03T14:19:51Z</time>
      </trkpt>
      <trkpt lat="45.99347" lon="0.44406">
        <ele>171.2</ele>
        <time>2022-04-03T14:19:52Z</time>
      </trkpt>
      <trkpt lat="45.99346" lon="0.44399">
        <ele>171.2</ele>
        <time>2022-04-03T14:19:53Z</time>
      </trkpt>
      <trkpt lat="45.99345" lon="0.44393">
        <ele>171.2</ele>
        <time>2022-04-03T14:19:54Z</time>
      </trkpt>
      <trkpt lat="45.99344" lon="0.44386">
        <ele>171.2</ele>
        <time>2022-04-03T14:19:55Z</time>
      </trkpt>
      <trkpt lat="45.99343" lon="0.4438">
        <ele>171.2</ele>
        <time>2022-04-03T14:19:56Z</time>
      </trkpt>
      <trkpt lat="45.99343" lon="0.44374">
        <ele>171.6</ele>
        <time>2022-04-03T14:19:57Z</time>
      </trkpt>
      <trkpt lat="45.99342" lon="0.44367">
        <ele>171.8</ele>
        <time>2022-04-03T14:19:58Z</time>
      </trkpt>
      <trkpt lat="45.99341" lon="0.44361">
        <ele>172.2</ele>
        <time>2022-04-03T14:19:59Z</time>
      </trkpt>
      <trkpt lat="45.9934" lon="0.44355">
        <ele>172.2</ele>
        <time>2022-04-03T14:20:00Z</time>
      </trkpt>
      <trkpt lat="45.9934" lon="0.44349">
        <ele>172.2</ele>
        <time>2022-04-03T14:20:01Z</time>
      </trkpt>
      <trkpt lat="45.99339" lon="0.44343">
        <ele>172.2</ele>
        <time>2022-04-03T14:20:02Z</time>
      </trkpt>
      <trkpt lat="45.99338" lon="0.44337">
        <ele>172.4</ele>
        <time>2022-04-03T14:20:03Z</time>
      </trkpt>
      <trkpt lat="45.99337" lon="0.44331">
        <ele>172.8</ele>
        <time>2022-04-03T14:20:04Z</time>
      </trkpt>
      <trkpt lat="45.99337" lon="0.44325">
        <ele>173</ele>
        <time>2022-04-03T14:20:05Z</time>
      </trkpt>
      <trkpt lat="45.99336" lon="0.44319">
        <ele>173.2</ele>
        <time>2022-04-03T14:20:06Z</time>
      </trkpt>
      <trkpt lat="45.99335" lon="0.44313">
        <ele>173.2</ele>
        <time>2022-04-03T14:20:07Z</time>
      </trkpt>
      <trkpt lat="45.99334" lon="0.44307">
        <ele>173.6</ele>
        <time>2022-04-03T14:20:08Z</time>
      </trkpt>
      <trkpt lat="45.99333" lon="0.44295">
        <ele>173.6</ele>
        <time>2022-04-03T14:20:10Z</time>
      </trkpt>
      <trkpt lat="45.99332" lon="0.44289">
        <ele>173.8</ele>
        <time>2022-04-03T14:20:11Z</time>
      </trkpt>
      <trkpt lat="45.99332" lon="0.44284">
        <ele>174</ele>
        <time>2022-04-03T14:20:12Z</time>
      </trkpt>
      <trkpt lat="45.99331" lon="0.44278">
        <ele>174.2</ele>
        <time>2022-04-03T14:20:13Z</time>
      </trkpt>
      <trkpt lat="45.9933" lon="0.44272">
        <ele>174.2</ele>
        <time>2022-04-03T14:20:14Z</time>
      </trkpt>
      <trkpt lat="45.9933" lon="0.44267">
        <ele>174.4</ele>
        <time>2022-04-03T14:20:15Z</time>
      </trkpt>
      <trkpt lat="45.99329" lon="0.44261">
        <ele>174.4</ele>
        <time>2022-04-03T14:20:16Z</time>
      </trkpt>
      <trkpt lat="45.99328" lon="0.44255">
        <ele>174.6</ele>
        <time>2022-04-03T14:20:17Z</time>
      </trkpt>
      <trkpt lat="45.99327" lon="0.44249">
        <ele>174.8</ele>
        <time>2022-04-03T14:20:18Z</time>
      </trkpt>
      <trkpt lat="45.99327" lon="0.44244">
        <ele>175</ele>
        <time>2022-04-03T14:20:19Z</time>
      </trkpt>
      <trkpt lat="45.99326" lon="0.44238">
        <ele>175</ele>
        <time>2022-04-03T14:20:20Z</time>
      </trkpt>
      <trkpt lat="45.99325" lon="0.44232">
        <ele>175.2</ele>
        <time>2022-04-03T14:20:21Z</time>
      </trkpt>
      <trkpt lat="45.99325" lon="0.44226">
        <ele>175.4</ele>
        <time>2022-04-03T14:20:22Z</time>
      </trkpt>
      <trkpt lat="45.99324" lon="0.4422">
        <ele>175.4</ele>
        <time>2022-04-03T14:20:23Z</time>
      </trkpt>
      <trkpt lat="45.99323" lon="0.44215">
        <ele>175.6</ele>
        <time>2022-04-03T14:20:24Z</time>
      </trkpt>
      <trkpt lat="45.99322" lon="0.44209">
        <ele>175.6</ele>
        <time>2022-04-03T14:20:25Z</time>
      </trkpt>
      <trkpt lat="45.99322" lon="0.44203">
        <ele>175.8</ele>
        <time>2022-04-03T14:20:26Z</time>
      </trkpt>
      <trkpt lat="45.99321" lon="0.44197">
        <ele>176.2</ele>
        <time>2022-04-03T14:20:27Z</time>
      </trkpt>
      <trkpt lat="45.9932" lon="0.44191">
        <ele>176.2</ele>
        <time>2022-04-03T14:20:28Z</time>
      </trkpt>
      <trkpt lat="45.99319" lon="0.44185">
        <ele>176.2</ele>
        <time>2022-04-03T14:20:29Z</time>
      </trkpt>
      <trkpt lat="45.99319" lon="0.4418">
        <ele>176.4</ele>
        <time>2022-04-03T14:20:30Z</time>
      </trkpt>
      <trkpt lat="45.99318" lon="0.44174">
        <ele>176.4</ele>
        <time>2022-04-03T14:20:31Z</time>
      </trkpt>
      <trkpt lat="45.99317" lon="0.44168">
        <ele>176.6</ele>
        <time>2022-04-03T14:20:32Z</time>
      </trkpt>
      <trkpt lat="45.99316" lon="0.44162">
        <ele>176.8</ele>
        <time>2022-04-03T14:20:33Z</time>
      </trkpt>
      <trkpt lat="45.99316" lon="0.44156">
        <ele>176.8</ele>
        <time>2022-04-03T14:20:34Z</time>
      </trkpt>
      <trkpt lat="45.99315" lon="0.4415">
        <ele>177</ele>
        <time>2022-04-03T14:20:35Z</time>
      </trkpt>
      <trkpt lat="45.99314" lon="0.44144">
        <ele>177</ele>
        <time>2022-04-03T14:20:36Z</time>
      </trkpt>
      <trkpt lat="45.99313" lon="0.44138">
        <ele>177.2</ele>
        <time>2022-04-03T14:20:37Z</time>
      </trkpt>
      <trkpt lat="45.99313" lon="0.44132">
        <ele>177.2</ele>
        <time>2022-04-03T14:20:38Z</time>
      </trkpt>
      <trkpt lat="45.99312" lon="0.44126">
        <ele>177.2</ele>
        <time>2022-04-03T14:20:39Z</time>
      </trkpt>
      <trkpt lat="45.99311" lon="0.4412">
        <ele>177.2</ele>
        <time>2022-04-03T14:20:40Z</time>
      </trkpt>
      <trkpt lat="45.9931" lon="0.44113">
        <ele>177.4</ele>
        <time>2022-04-03T14:20:41Z</time>
      </trkpt>
      <trkpt lat="45.99309" lon="0.44107">
        <ele>177.8</ele>
        <time>2022-04-03T14:20:42Z</time>
      </trkpt>
      <trkpt lat="45.99308" lon="0.441">
        <ele>177.8</ele>
        <time>2022-04-03T14:20:43Z</time>
      </trkpt>
      <trkpt lat="45.99308" lon="0.44094">
        <ele>177.8</ele>
        <time>2022-04-03T14:20:44Z</time>
      </trkpt>
      <trkpt lat="45.99307" lon="0.44087">
        <ele>178</ele>
        <time>2022-04-03T14:20:45Z</time>
      </trkpt>
      <trkpt lat="45.99306" lon="0.4408">
        <ele>178</ele>
        <time>2022-04-03T14:20:46Z</time>
      </trkpt>
      <trkpt lat="45.99305" lon="0.44073">
        <ele>178</ele>
        <time>2022-04-03T14:20:47Z</time>
      </trkpt>
      <trkpt lat="45.99304" lon="0.44067">
        <ele>178</ele>
        <time>2022-04-03T14:20:48Z</time>
      </trkpt>
      <trkpt lat="45.99303" lon="0.4406">
        <ele>178.2</ele>
        <time>2022-04-03T14:20:49Z</time>
      </trkpt>
      <trkpt lat="45.99303" lon="0.44054">
        <ele>178.2</ele>
        <time>2022-04-03T14:20:50Z</time>
      </trkpt>
      <trkpt lat="45.99302" lon="0.44047">
        <ele>178.4</ele>
        <time>2022-04-03T14:20:51Z</time>
      </trkpt>
      <trkpt lat="45.99301" lon="0.44041">
        <ele>178.4</ele>
        <time>2022-04-03T14:20:52Z</time>
      </trkpt>
      <trkpt lat="45.993" lon="0.44034">
        <ele>178.2</ele>
        <time>2022-04-03T14:20:53Z</time>
      </trkpt>
      <trkpt lat="45.99299" lon="0.44028">
        <ele>178.2</ele>
        <time>2022-04-03T14:20:54Z</time>
      </trkpt>
      <trkpt lat="45.99298" lon="0.44022">
        <ele>178.4</ele>
        <time>2022-04-03T14:20:55Z</time>
      </trkpt>
      <trkpt lat="45.99297" lon="0.44015">
        <ele>178.4</ele>
        <time>2022-04-03T14:20:56Z</time>
      </trkpt>
      <trkpt lat="45.99296" lon="0.44008">
        <ele>178.2</ele>
        <time>2022-04-03T14:20:57Z</time>
      </trkpt>
      <trkpt lat="45.99295" lon="0.44001">
        <ele>178.4</ele>
        <time>2022-04-03T14:20:58Z</time>
      </trkpt>
      <trkpt lat="45.99294" lon="0.43993">
        <ele>178.2</ele>
        <time>2022-04-03T14:20:59Z</time>
      </trkpt>
      <trkpt lat="45.99294" lon="0.43986">
        <ele>178.4</ele>
        <time>2022-04-03T14:21:00Z</time>
      </trkpt>
      <trkpt lat="45.99293" lon="0.43978">
        <ele>178</ele>
        <time>2022-04-03T14:21:01Z</time>
      </trkpt>
      <trkpt lat="45.99292" lon="0.43969">
        <ele>178.2</ele>
        <time>2022-04-03T14:21:02Z</time>
      </trkpt>
      <trkpt lat="45.99291" lon="0.43961">
        <ele>178</ele>
        <time>2022-04-03T14:21:03Z</time>
      </trkpt>
      <trkpt lat="45.9929" lon="0.43953">
        <ele>178</ele>
        <time>2022-04-03T14:21:04Z</time>
      </trkpt>
      <trkpt lat="45.99289" lon="0.43945">
        <ele>178</ele>
        <time>2022-04-03T14:21:05Z</time>
      </trkpt>
      <trkpt lat="45.99287" lon="0.43936">
        <ele>177.6</ele>
        <time>2022-04-03T14:21:06Z</time>
      </trkpt>
      <trkpt lat="45.99286" lon="0.43928">
        <ele>177.2</ele>
        <time>2022-04-03T14:21:07Z</time>
      </trkpt>
      <trkpt lat="45.99285" lon="0.43919">
        <ele>177</ele>
        <time>2022-04-03T14:21:08Z</time>
      </trkpt>
      <trkpt lat="45.99284" lon="0.43911">
        <ele>176.8</ele>
        <time>2022-04-03T14:21:09Z</time>
      </trkpt>
      <trkpt lat="45.99283" lon="0.43902">
        <ele>176.6</ele>
        <time>2022-04-03T14:21:10Z</time>
      </trkpt>
      <trkpt lat="45.99282" lon="0.43893">
        <ele>176.4</ele>
        <time>2022-04-03T14:21:11Z</time>
      </trkpt>
      <trkpt lat="45.99281" lon="0.43885">
        <ele>176.4</ele>
        <time>2022-04-03T14:21:12Z</time>
      </trkpt>
      <trkpt lat="45.9928" lon="0.43876">
        <ele>176.2</ele>
        <time>2022-04-03T14:21:13Z</time>
      </trkpt>
      <trkpt lat="45.99279" lon="0.43867">
        <ele>176</ele>
        <time>2022-04-03T14:21:14Z</time>
      </trkpt>
      <trkpt lat="45.99278" lon="0.43859">
        <ele>176</ele>
        <time>2022-04-03T14:21:15Z</time>
      </trkpt>
      <trkpt lat="45.99277" lon="0.4385">
        <ele>175.6</ele>
        <time>2022-04-03T14:21:16Z</time>
      </trkpt>
      <trkpt lat="45.99276" lon="0.43841">
        <ele>175.8</ele>
        <time>2022-04-03T14:21:17Z</time>
      </trkpt>
      <trkpt lat="45.99274" lon="0.43833">
        <ele>175.6</ele>
        <time>2022-04-03T14:21:18Z</time>
      </trkpt>
      <trkpt lat="45.99273" lon="0.43824">
        <ele>175.6</ele>
        <time>2022-04-03T14:21:19Z</time>
      </trkpt>
      <trkpt lat="45.99272" lon="0.43816">
        <ele>175.8</ele>
        <time>2022-04-03T14:21:20Z</time>
      </trkpt>
      <trkpt lat="45.99271" lon="0.43807">
        <ele>175.6</ele>
        <time>2022-04-03T14:21:21Z</time>
      </trkpt>
      <trkpt lat="45.9927" lon="0.43798">
        <ele>175.6</ele>
        <time>2022-04-03T14:21:22Z</time>
      </trkpt>
      <trkpt lat="45.99269" lon="0.4379">
        <ele>175.8</ele>
        <time>2022-04-03T14:21:23Z</time>
      </trkpt>
      <trkpt lat="45.99268" lon="0.43782">
        <ele>175.8</ele>
        <time>2022-04-03T14:21:24Z</time>
      </trkpt>
      <trkpt lat="45.99267" lon="0.43773">
        <ele>175.8</ele>
        <time>2022-04-03T14:21:25Z</time>
      </trkpt>
      <trkpt lat="45.99266" lon="0.43765">
        <ele>176</ele>
        <time>2022-04-03T14:21:26Z</time>
      </trkpt>
      <trkpt lat="45.99265" lon="0.43757">
        <ele>176</ele>
        <time>2022-04-03T14:21:27Z</time>
      </trkpt>
      <trkpt lat="45.99264" lon="0.43749">
        <ele>176</ele>
        <time>2022-04-03T14:21:28Z</time>
      </trkpt>
      <trkpt lat="45.99263" lon="0.43741">
        <ele>176</ele>
        <time>2022-04-03T14:21:29Z</time>
      </trkpt>
      <trkpt lat="45.99262" lon="0.43734">
        <ele>176.2</ele>
        <time>2022-04-03T14:21:30Z</time>
      </trkpt>
      <trkpt lat="45.99261" lon="0.43726">
        <ele>176.2</ele>
        <time>2022-04-03T14:21:31Z</time>
      </trkpt>
      <trkpt lat="45.9926" lon="0.43719">
        <ele>176.2</ele>
        <time>2022-04-03T14:21:32Z</time>
      </trkpt>
      <trkpt lat="45.99259" lon="0.43711">
        <ele>176.4</ele>
        <time>2022-04-03T14:21:33Z</time>
      </trkpt>
      <trkpt lat="45.99258" lon="0.43704">
        <ele>176.6</ele>
        <time>2022-04-03T14:21:34Z</time>
      </trkpt>
      <trkpt lat="45.99257" lon="0.43696">
        <ele>176.6</ele>
        <time>2022-04-03T14:21:35Z</time>
      </trkpt>
      <trkpt lat="45.99256" lon="0.43689">
        <ele>176.8</ele>
        <time>2022-04-03T14:21:36Z</time>
      </trkpt>
      <trkpt lat="45.99255" lon="0.43681">
        <ele>177</ele>
        <time>2022-04-03T14:21:37Z</time>
      </trkpt>
      <trkpt lat="45.99254" lon="0.43674">
        <ele>177.2</ele>
        <time>2022-04-03T14:21:38Z</time>
      </trkpt>
      <trkpt lat="45.99253" lon="0.43667">
        <ele>177.4</ele>
        <time>2022-04-03T14:21:39Z</time>
      </trkpt>
      <trkpt lat="45.99252" lon="0.43659">
        <ele>177.8</ele>
        <time>2022-04-03T14:21:40Z</time>
      </trkpt>
      <trkpt lat="45.99251" lon="0.43652">
        <ele>178</ele>
        <time>2022-04-03T14:21:41Z</time>
      </trkpt>
      <trkpt lat="45.9925" lon="0.43644">
        <ele>178.2</ele>
        <time>2022-04-03T14:21:42Z</time>
      </trkpt>
      <trkpt lat="45.9925" lon="0.43637">
        <ele>178.2</ele>
        <time>2022-04-03T14:21:43Z</time>
      </trkpt>
      <trkpt lat="45.99249" lon="0.4363">
        <ele>178.6</ele>
        <time>2022-04-03T14:21:44Z</time>
      </trkpt>
      <trkpt lat="45.99248" lon="0.43622">
        <ele>178.8</ele>
        <time>2022-04-03T14:21:45Z</time>
      </trkpt>
      <trkpt lat="45.99247" lon="0.43615">
        <ele>179</ele>
        <time>2022-04-03T14:21:46Z</time>
      </trkpt>
      <trkpt lat="45.99246" lon="0.43608">
        <ele>179.2</ele>
        <time>2022-04-03T14:21:47Z</time>
      </trkpt>
      <trkpt lat="45.99245" lon="0.43601">
        <ele>179.4</ele>
        <time>2022-04-03T14:21:48Z</time>
      </trkpt>
      <trkpt lat="45.99244" lon="0.43593">
        <ele>179.8</ele>
        <time>2022-04-03T14:21:49Z</time>
      </trkpt>
      <trkpt lat="45.99243" lon="0.43586">
        <ele>180</ele>
        <time>2022-04-03T14:21:50Z</time>
      </trkpt>
      <trkpt lat="45.99242" lon="0.43579">
        <ele>180.6</ele>
        <time>2022-04-03T14:21:51Z</time>
      </trkpt>
      <trkpt lat="45.99241" lon="0.43571">
        <ele>181.2</ele>
        <time>2022-04-03T14:21:52Z</time>
      </trkpt>
      <trkpt lat="45.9924" lon="0.43564">
        <ele>181.6</ele>
        <time>2022-04-03T14:21:53Z</time>
      </trkpt>
      <trkpt lat="45.99239" lon="0.43556">
        <ele>182</ele>
        <time>2022-04-03T14:21:54Z</time>
      </trkpt>
      <trkpt lat="45.99239" lon="0.43549">
        <ele>182</ele>
        <time>2022-04-03T14:21:55Z</time>
      </trkpt>
      <trkpt lat="45.99238" lon="0.43541">
        <ele>182.2</ele>
        <time>2022-04-03T14:21:56Z</time>
      </trkpt>
      <trkpt lat="45.99237" lon="0.43533">
        <ele>182.6</ele>
        <time>2022-04-03T14:21:57Z</time>
      </trkpt>
      <trkpt lat="45.99237" lon="0.43525">
        <ele>183</ele>
        <time>2022-04-03T14:21:58Z</time>
      </trkpt>
      <trkpt lat="45.99236" lon="0.43517">
        <ele>183</ele>
        <time>2022-04-03T14:21:59Z</time>
      </trkpt>
      <trkpt lat="45.99236" lon="0.43509">
        <ele>183.4</ele>
        <time>2022-04-03T14:22:00Z</time>
      </trkpt>
      <trkpt lat="45.99235" lon="0.43502">
        <ele>183.4</ele>
        <time>2022-04-03T14:22:01Z</time>
      </trkpt>
      <trkpt lat="45.99234" lon="0.43494">
        <ele>183.4</ele>
        <time>2022-04-03T14:22:02Z</time>
      </trkpt>
      <trkpt lat="45.99234" lon="0.43486">
        <ele>183.6</ele>
        <time>2022-04-03T14:22:03Z</time>
      </trkpt>
      <trkpt lat="45.99233" lon="0.43478">
        <ele>183.6</ele>
        <time>2022-04-03T14:22:04Z</time>
      </trkpt>
      <trkpt lat="45.99233" lon="0.4347">
        <ele>183.6</ele>
        <time>2022-04-03T14:22:05Z</time>
      </trkpt>
      <trkpt lat="45.99233" lon="0.43461">
        <ele>183.8</ele>
        <time>2022-04-03T14:22:06Z</time>
      </trkpt>
      <trkpt lat="45.99232" lon="0.43452">
        <ele>183.8</ele>
        <time>2022-04-03T14:22:07Z</time>
      </trkpt>
      <trkpt lat="45.99232" lon="0.43443">
        <ele>183.6</ele>
        <time>2022-04-03T14:22:08Z</time>
      </trkpt>
      <trkpt lat="45.99231" lon="0.43433">
        <ele>183.8</ele>
        <time>2022-04-03T14:22:09Z</time>
      </trkpt>
      <trkpt lat="45.9923" lon="0.43423">
        <ele>183.8</ele>
        <time>2022-04-03T14:22:10Z</time>
      </trkpt>
      <trkpt lat="45.9923" lon="0.43413">
        <ele>183.8</ele>
        <time>2022-04-03T14:22:11Z</time>
      </trkpt>
      <trkpt lat="45.99229" lon="0.43401">
        <ele>183.6</ele>
        <time>2022-04-03T14:22:12Z</time>
      </trkpt>
      <trkpt lat="45.99229" lon="0.4339">
        <ele>183.8</ele>
        <time>2022-04-03T14:22:13Z</time>
      </trkpt>
      <trkpt lat="45.99229" lon="0.43379">
        <ele>183.6</ele>
        <time>2022-04-03T14:22:14Z</time>
      </trkpt>
      <trkpt lat="45.99228" lon="0.43367">
        <ele>183.6</ele>
        <time>2022-04-03T14:22:15Z</time>
      </trkpt>
      <trkpt lat="45.99227" lon="0.43354">
        <ele>183.6</ele>
        <time>2022-04-03T14:22:16Z</time>
      </trkpt>
      <trkpt lat="45.99227" lon="0.43342">
        <ele>183</ele>
        <time>2022-04-03T14:22:17Z</time>
      </trkpt>
      <trkpt lat="45.99226" lon="0.4333">
        <ele>182.4</ele>
        <time>2022-04-03T14:22:18Z</time>
      </trkpt>
      <trkpt lat="45.99225" lon="0.43317">
        <ele>181.8</ele>
        <time>2022-04-03T14:22:19Z</time>
      </trkpt>
      <trkpt lat="45.99225" lon="0.43304">
        <ele>181.8</ele>
        <time>2022-04-03T14:22:20Z</time>
      </trkpt>
      <trkpt lat="45.99224" lon="0.43291">
        <ele>181</ele>
        <time>2022-04-03T14:22:21Z</time>
      </trkpt>
      <trkpt lat="45.99224" lon="0.43277">
        <ele>180.4</ele>
        <time>2022-04-03T14:22:22Z</time>
      </trkpt>
      <trkpt lat="45.99223" lon="0.43263">
        <ele>179.6</ele>
        <time>2022-04-03T14:22:23Z</time>
      </trkpt>
      <trkpt lat="45.99223" lon="0.4325">
        <ele>179.2</ele>
        <time>2022-04-03T14:22:24Z</time>
      </trkpt>
      <trkpt lat="45.99222" lon="0.43236">
        <ele>179</ele>
        <time>2022-04-03T14:22:25Z</time>
      </trkpt>
      <trkpt lat="45.99222" lon="0.43222">
        <ele>178.8</ele>
        <time>2022-04-03T14:22:26Z</time>
      </trkpt>
      <trkpt lat="45.99221" lon="0.43208">
        <ele>178.2</ele>
        <time>2022-04-03T14:22:27Z</time>
      </trkpt>
      <trkpt lat="45.9922" lon="0.43195">
        <ele>177.8</ele>
        <time>2022-04-03T14:22:28Z</time>
      </trkpt>
      <trkpt lat="45.99219" lon="0.43181">
        <ele>177.4</ele>
        <time>2022-04-03T14:22:29Z</time>
      </trkpt>
      <trkpt lat="45.99218" lon="0.43168">
        <ele>176.4</ele>
        <time>2022-04-03T14:22:30Z</time>
      </trkpt>
      <trkpt lat="45.99217" lon="0.43155">
        <ele>175.4</ele>
        <time>2022-04-03T14:22:31Z</time>
      </trkpt>
      <trkpt lat="45.99217" lon="0.43142">
        <ele>175</ele>
        <time>2022-04-03T14:22:32Z</time>
      </trkpt>
      <trkpt lat="45.99216" lon="0.4313">
        <ele>174.6</ele>
        <time>2022-04-03T14:22:33Z</time>
      </trkpt>
      <trkpt lat="45.99215" lon="0.43117">
        <ele>174.2</ele>
        <time>2022-04-03T14:22:34Z</time>
      </trkpt>
      <trkpt lat="45.99215" lon="0.43105">
        <ele>173.8</ele>
        <time>2022-04-03T14:22:35Z</time>
      </trkpt>
      <trkpt lat="45.99214" lon="0.43093">
        <ele>173.6</ele>
        <time>2022-04-03T14:22:36Z</time>
      </trkpt>
      <trkpt lat="45.99213" lon="0.43081">
        <ele>173.4</ele>
        <time>2022-04-03T14:22:37Z</time>
      </trkpt>
      <trkpt lat="45.99213" lon="0.4307">
        <ele>173.2</ele>
        <time>2022-04-03T14:22:38Z</time>
      </trkpt>
      <trkpt lat="45.99212" lon="0.43059">
        <ele>173.2</ele>
        <time>2022-04-03T14:22:39Z</time>
      </trkpt>
      <trkpt lat="45.99212" lon="0.43048">
        <ele>173.2</ele>
        <time>2022-04-03T14:22:40Z</time>
      </trkpt>
      <trkpt lat="45.99211" lon="0.43036">
        <ele>173.2</ele>
        <time>2022-04-03T14:22:41Z</time>
      </trkpt>
      <trkpt lat="45.99211" lon="0.43025">
        <ele>173.2</ele>
        <time>2022-04-03T14:22:42Z</time>
      </trkpt>
      <trkpt lat="45.9921" lon="0.43015">
        <ele>173.2</ele>
        <time>2022-04-03T14:22:43Z</time>
      </trkpt>
      <trkpt lat="45.9921" lon="0.43004">
        <ele>173</ele>
        <time>2022-04-03T14:22:44Z</time>
      </trkpt>
      <trkpt lat="45.99209" lon="0.42993">
        <ele>172.8</ele>
        <time>2022-04-03T14:22:45Z</time>
      </trkpt>
      <trkpt lat="45.99209" lon="0.42982">
        <ele>172.8</ele>
        <time>2022-04-03T14:22:46Z</time>
      </trkpt>
      <trkpt lat="45.99208" lon="0.42972">
        <ele>172.8</ele>
        <time>2022-04-03T14:22:47Z</time>
      </trkpt>
      <trkpt lat="45.99207" lon="0.42961">
        <ele>172.4</ele>
        <time>2022-04-03T14:22:48Z</time>
      </trkpt>
      <trkpt lat="45.99207" lon="0.42951">
        <ele>172.2</ele>
        <time>2022-04-03T14:22:49Z</time>
      </trkpt>
      <trkpt lat="45.99206" lon="0.4294">
        <ele>172</ele>
        <time>2022-04-03T14:22:50Z</time>
      </trkpt>
      <trkpt lat="45.99206" lon="0.4293">
        <ele>172.2</ele>
        <time>2022-04-03T14:22:51Z</time>
      </trkpt>
      <trkpt lat="45.99206" lon="0.42919">
        <ele>172</ele>
        <time>2022-04-03T14:22:52Z</time>
      </trkpt>
      <trkpt lat="45.99205" lon="0.42909">
        <ele>172</ele>
        <time>2022-04-03T14:22:53Z</time>
      </trkpt>
      <trkpt lat="45.99205" lon="0.42899">
        <ele>172</ele>
        <time>2022-04-03T14:22:54Z</time>
      </trkpt>
      <trkpt lat="45.99204" lon="0.42888">
        <ele>171.8</ele>
        <time>2022-04-03T14:22:55Z</time>
      </trkpt>
      <trkpt lat="45.99204" lon="0.42878">
        <ele>171.8</ele>
        <time>2022-04-03T14:22:56Z</time>
      </trkpt>
      <trkpt lat="45.99203" lon="0.42868">
        <ele>171.6</ele>
        <time>2022-04-03T14:22:57Z</time>
      </trkpt>
      <trkpt lat="45.99203" lon="0.42858">
        <ele>171.6</ele>
        <time>2022-04-03T14:22:58Z</time>
      </trkpt>
      <trkpt lat="45.99202" lon="0.42848">
        <ele>171.6</ele>
        <time>2022-04-03T14:22:59Z</time>
      </trkpt>
      <trkpt lat="45.99202" lon="0.42839">
        <ele>171.6</ele>
        <time>2022-04-03T14:23:00Z</time>
      </trkpt>
      <trkpt lat="45.99202" lon="0.42829">
        <ele>171.4</ele>
        <time>2022-04-03T14:23:01Z</time>
      </trkpt>
      <trkpt lat="45.99202" lon="0.42819">
        <ele>171</ele>
        <time>2022-04-03T14:23:02Z</time>
      </trkpt>
      <trkpt lat="45.99201" lon="0.4281">
        <ele>171</ele>
        <time>2022-04-03T14:23:03Z</time>
      </trkpt>
      <trkpt lat="45.99201" lon="0.42801">
        <ele>170.6</ele>
        <time>2022-04-03T14:23:04Z</time>
      </trkpt>
      <trkpt lat="45.992" lon="0.42791">
        <ele>170.4</ele>
        <time>2022-04-03T14:23:05Z</time>
      </trkpt>
      <trkpt lat="45.992" lon="0.42782">
        <ele>170</ele>
        <time>2022-04-03T14:23:06Z</time>
      </trkpt>
      <trkpt lat="45.99199" lon="0.42772">
        <ele>169.8</ele>
        <time>2022-04-03T14:23:07Z</time>
      </trkpt>
      <trkpt lat="45.99199" lon="0.42762">
        <ele>169.4</ele>
        <time>2022-04-03T14:23:08Z</time>
      </trkpt>
      <trkpt lat="45.99199" lon="0.42753">
        <ele>169.4</ele>
        <time>2022-04-03T14:23:09Z</time>
      </trkpt>
      <trkpt lat="45.99198" lon="0.42743">
        <ele>169.2</ele>
        <time>2022-04-03T14:23:10Z</time>
      </trkpt>
      <trkpt lat="45.99198" lon="0.42733">
        <ele>169</ele>
        <time>2022-04-03T14:23:11Z</time>
      </trkpt>
      <trkpt lat="45.99197" lon="0.42723">
        <ele>169</ele>
        <time>2022-04-03T14:23:12Z</time>
      </trkpt>
      <trkpt lat="45.99197" lon="0.42712">
        <ele>169</ele>
        <time>2022-04-03T14:23:13Z</time>
      </trkpt>
      <trkpt lat="45.99196" lon="0.42702">
        <ele>169</ele>
        <time>2022-04-03T14:23:14Z</time>
      </trkpt>
      <trkpt lat="45.99196" lon="0.42692">
        <ele>169</ele>
        <time>2022-04-03T14:23:15Z</time>
      </trkpt>
      <trkpt lat="45.99195" lon="0.42681">
        <ele>168.8</ele>
        <time>2022-04-03T14:23:16Z</time>
      </trkpt>
      <trkpt lat="45.99195" lon="0.42671">
        <ele>168.8</ele>
        <time>2022-04-03T14:23:17Z</time>
      </trkpt>
      <trkpt lat="45.99194" lon="0.4266">
        <ele>168.6</ele>
        <time>2022-04-03T14:23:18Z</time>
      </trkpt>
      <trkpt lat="45.99194" lon="0.4265">
        <ele>168.6</ele>
        <time>2022-04-03T14:23:19Z</time>
      </trkpt>
      <trkpt lat="45.99193" lon="0.42639">
        <ele>168.4</ele>
        <time>2022-04-03T14:23:20Z</time>
      </trkpt>
      <trkpt lat="45.99193" lon="0.42628">
        <ele>168.2</ele>
        <time>2022-04-03T14:23:21Z</time>
      </trkpt>
      <trkpt lat="45.99192" lon="0.42617">
        <ele>168.2</ele>
        <time>2022-04-03T14:23:22Z</time>
      </trkpt>
      <trkpt lat="45.99191" lon="0.42606">
        <ele>168.2</ele>
        <time>2022-04-03T14:23:23Z</time>
      </trkpt>
      <trkpt lat="45.99191" lon="0.42595">
        <ele>168</ele>
        <time>2022-04-03T14:23:24Z</time>
      </trkpt>
      <trkpt lat="45.9919" lon="0.42584">
        <ele>167.8</ele>
        <time>2022-04-03T14:23:25Z</time>
      </trkpt>
      <trkpt lat="45.9919" lon="0.42573">
        <ele>167.8</ele>
        <time>2022-04-03T14:23:26Z</time>
      </trkpt>
      <trkpt lat="45.9919" lon="0.42562">
        <ele>167.8</ele>
        <time>2022-04-03T14:23:27Z</time>
      </trkpt>
      <trkpt lat="45.99189" lon="0.42551">
        <ele>167.4</ele>
        <time>2022-04-03T14:23:28Z</time>
      </trkpt>
      <trkpt lat="45.99188" lon="0.4254">
        <ele>167.4</ele>
        <time>2022-04-03T14:23:29Z</time>
      </trkpt>
      <trkpt lat="45.99188" lon="0.42529">
        <ele>167</ele>
        <time>2022-04-03T14:23:30Z</time>
      </trkpt>
      <trkpt lat="45.99187" lon="0.42517">
        <ele>167</ele>
        <time>2022-04-03T14:23:31Z</time>
      </trkpt>
      <trkpt lat="45.99187" lon="0.42506">
        <ele>166.4</ele>
        <time>2022-04-03T14:23:32Z</time>
      </trkpt>
      <trkpt lat="45.99186" lon="0.42495">
        <ele>166.2</ele>
        <time>2022-04-03T14:23:33Z</time>
      </trkpt>
      <trkpt lat="45.99185" lon="0.42484">
        <ele>165.8</ele>
        <time>2022-04-03T14:23:34Z</time>
      </trkpt>
      <trkpt lat="45.99185" lon="0.42473">
        <ele>165.2</ele>
        <time>2022-04-03T14:23:35Z</time>
      </trkpt>
      <trkpt lat="45.99184" lon="0.42462">
        <ele>165.2</ele>
        <time>2022-04-03T14:23:36Z</time>
      </trkpt>
      <trkpt lat="45.99184" lon="0.42451">
        <ele>165.2</ele>
        <time>2022-04-03T14:23:37Z</time>
      </trkpt>
      <trkpt lat="45.99184" lon="0.4244">
        <ele>164.8</ele>
        <time>2022-04-03T14:23:38Z</time>
      </trkpt>
      <trkpt lat="45.99183" lon="0.42429">
        <ele>164.8</ele>
        <time>2022-04-03T14:23:39Z</time>
      </trkpt>
      <trkpt lat="45.99183" lon="0.42418">
        <ele>164.6</ele>
        <time>2022-04-03T14:23:40Z</time>
      </trkpt>
      <trkpt lat="45.99182" lon="0.42407">
        <ele>164.4</ele>
        <time>2022-04-03T14:23:41Z</time>
      </trkpt>
      <trkpt lat="45.99182" lon="0.42396">
        <ele>164.6</ele>
        <time>2022-04-03T14:23:42Z</time>
      </trkpt>
      <trkpt lat="45.99181" lon="0.42384">
        <ele>164.6</ele>
        <time>2022-04-03T14:23:43Z</time>
      </trkpt>
      <trkpt lat="45.99181" lon="0.42373">
        <ele>164.6</ele>
        <time>2022-04-03T14:23:44Z</time>
      </trkpt>
      <trkpt lat="45.99181" lon="0.42361">
        <ele>164.6</ele>
        <time>2022-04-03T14:23:45Z</time>
      </trkpt>
      <trkpt lat="45.9918" lon="0.4235">
        <ele>164.6</ele>
        <time>2022-04-03T14:23:46Z</time>
      </trkpt>
      <trkpt lat="45.9918" lon="0.42338">
        <ele>164.4</ele>
        <time>2022-04-03T14:23:47Z</time>
      </trkpt>
      <trkpt lat="45.9918" lon="0.42327">
        <ele>164.4</ele>
        <time>2022-04-03T14:23:48Z</time>
      </trkpt>
      <trkpt lat="45.9918" lon="0.42315">
        <ele>164.2</ele>
        <time>2022-04-03T14:23:49Z</time>
      </trkpt>
      <trkpt lat="45.9918" lon="0.42304">
        <ele>164.2</ele>
        <time>2022-04-03T14:23:50Z</time>
      </trkpt>
      <trkpt lat="45.99181" lon="0.42292">
        <ele>164</ele>
        <time>2022-04-03T14:23:51Z</time>
      </trkpt>
      <trkpt lat="45.99181" lon="0.4228">
        <ele>164</ele>
        <time>2022-04-03T14:23:52Z</time>
      </trkpt>
      <trkpt lat="45.99182" lon="0.42268">
        <ele>164</ele>
        <time>2022-04-03T14:23:53Z</time>
      </trkpt>
      <trkpt lat="45.99182" lon="0.42256">
        <ele>163.8</ele>
        <time>2022-04-03T14:23:54Z</time>
      </trkpt>
      <trkpt lat="45.99183" lon="0.42244">
        <ele>163.8</ele>
        <time>2022-04-03T14:23:55Z</time>
      </trkpt>
      <trkpt lat="45.99183" lon="0.42231">
        <ele>163.8</ele>
        <time>2022-04-03T14:23:56Z</time>
      </trkpt>
      <trkpt lat="45.99183" lon="0.42218">
        <ele>163.6</ele>
        <time>2022-04-03T14:23:57Z</time>
      </trkpt>
      <trkpt lat="45.99183" lon="0.42205">
        <ele>163.2</ele>
        <time>2022-04-03T14:23:58Z</time>
      </trkpt>
      <trkpt lat="45.99183" lon="0.42192">
        <ele>162.8</ele>
        <time>2022-04-03T14:23:59Z</time>
      </trkpt>
      <trkpt lat="45.99183" lon="0.42178">
        <ele>162.2</ele>
        <time>2022-04-03T14:24:00Z</time>
      </trkpt>
      <trkpt lat="45.99183" lon="0.42165">
        <ele>162</ele>
        <time>2022-04-03T14:24:01Z</time>
      </trkpt>
      <trkpt lat="45.99184" lon="0.42151">
        <ele>161.4</ele>
        <time>2022-04-03T14:24:02Z</time>
      </trkpt>
      <trkpt lat="45.99184" lon="0.42137">
        <ele>161</ele>
        <time>2022-04-03T14:24:03Z</time>
      </trkpt>
      <trkpt lat="45.99184" lon="0.42122">
        <ele>160.4</ele>
        <time>2022-04-03T14:24:04Z</time>
      </trkpt>
      <trkpt lat="45.99185" lon="0.42107">
        <ele>159.8</ele>
        <time>2022-04-03T14:24:05Z</time>
      </trkpt>
      <trkpt lat="45.99185" lon="0.42092">
        <ele>159.2</ele>
        <time>2022-04-03T14:24:06Z</time>
      </trkpt>
      <trkpt lat="45.99184" lon="0.42077">
        <ele>158.6</ele>
        <time>2022-04-03T14:24:07Z</time>
      </trkpt>
      <trkpt lat="45.99184" lon="0.42061">
        <ele>158.2</ele>
        <time>2022-04-03T14:24:08Z</time>
      </trkpt>
      <trkpt lat="45.99184" lon="0.42045">
        <ele>157.4</ele>
        <time>2022-04-03T14:24:09Z</time>
      </trkpt>
      <trkpt lat="45.99184" lon="0.4203">
        <ele>156.6</ele>
        <time>2022-04-03T14:24:10Z</time>
      </trkpt>
      <trkpt lat="45.99184" lon="0.42014">
        <ele>156</ele>
        <time>2022-04-03T14:24:11Z</time>
      </trkpt>
      <trkpt lat="45.99184" lon="0.41998">
        <ele>155.2</ele>
        <time>2022-04-03T14:24:12Z</time>
      </trkpt>
      <trkpt lat="45.99184" lon="0.41981">
        <ele>154.8</ele>
        <time>2022-04-03T14:24:13Z</time>
      </trkpt>
      <trkpt lat="45.99184" lon="0.41965">
        <ele>154.8</ele>
        <time>2022-04-03T14:24:14Z</time>
      </trkpt>
      <trkpt lat="45.99184" lon="0.41949">
        <ele>154.2</ele>
        <time>2022-04-03T14:24:15Z</time>
      </trkpt>
      <trkpt lat="45.99184" lon="0.41933">
        <ele>152.6</ele>
        <time>2022-04-03T14:24:16Z</time>
      </trkpt>
      <trkpt lat="45.99184" lon="0.41917">
        <ele>151.6</ele>
        <time>2022-04-03T14:24:17Z</time>
      </trkpt>
      <trkpt lat="45.99184" lon="0.41901">
        <ele>150.8</ele>
        <time>2022-04-03T14:24:18Z</time>
      </trkpt>
      <trkpt lat="45.99184" lon="0.41885">
        <ele>149.8</ele>
        <time>2022-04-03T14:24:19Z</time>
      </trkpt>
      <trkpt lat="45.99185" lon="0.4187">
        <ele>148.2</ele>
        <time>2022-04-03T14:24:20Z</time>
      </trkpt>
      <trkpt lat="45.99185" lon="0.41854">
        <ele>147.2</ele>
        <time>2022-04-03T14:24:21Z</time>
      </trkpt>
      <trkpt lat="45.99185" lon="0.41838">
        <ele>146</ele>
        <time>2022-04-03T14:24:22Z</time>
      </trkpt>
      <trkpt lat="45.99186" lon="0.41823">
        <ele>145</ele>
        <time>2022-04-03T14:24:23Z</time>
      </trkpt>
      <trkpt lat="45.99186" lon="0.41807">
        <ele>144.6</ele>
        <time>2022-04-03T14:24:24Z</time>
      </trkpt>
      <trkpt lat="45.99186" lon="0.41792">
        <ele>144</ele>
        <time>2022-04-03T14:24:25Z</time>
      </trkpt>
      <trkpt lat="45.99187" lon="0.41776">
        <ele>143.2</ele>
        <time>2022-04-03T14:24:26Z</time>
      </trkpt>
      <trkpt lat="45.99187" lon="0.4176">
        <ele>142.6</ele>
        <time>2022-04-03T14:24:27Z</time>
      </trkpt>
      <trkpt lat="45.99188" lon="0.41745">
        <ele>142.4</ele>
        <time>2022-04-03T14:24:28Z</time>
      </trkpt>
      <trkpt lat="45.99188" lon="0.41729">
        <ele>142</ele>
        <time>2022-04-03T14:24:29Z</time>
      </trkpt>
      <trkpt lat="45.99188" lon="0.41713">
        <ele>142</ele>
        <time>2022-04-03T14:24:30Z</time>
      </trkpt>
      <trkpt lat="45.99189" lon="0.41697">
        <ele>141.6</ele>
        <time>2022-04-03T14:24:31Z</time>
      </trkpt>
      <trkpt lat="45.99189" lon="0.41681">
        <ele>141.4</ele>
        <time>2022-04-03T14:24:32Z</time>
      </trkpt>
      <trkpt lat="45.99189" lon="0.41664">
        <ele>141.4</ele>
        <time>2022-04-03T14:24:33Z</time>
      </trkpt>
      <trkpt lat="45.99189" lon="0.41648">
        <ele>140.8</ele>
        <time>2022-04-03T14:24:34Z</time>
      </trkpt>
      <trkpt lat="45.9919" lon="0.41631">
        <ele>140.6</ele>
        <time>2022-04-03T14:24:35Z</time>
      </trkpt>
      <trkpt lat="45.99191" lon="0.41614">
        <ele>139.8</ele>
        <time>2022-04-03T14:24:36Z</time>
      </trkpt>
      <trkpt lat="45.99191" lon="0.41598">
        <ele>138.6</ele>
        <time>2022-04-03T14:24:37Z</time>
      </trkpt>
      <trkpt lat="45.99191" lon="0.41581">
        <ele>136.8</ele>
        <time>2022-04-03T14:24:38Z</time>
      </trkpt>
      <trkpt lat="45.99192" lon="0.41565">
        <ele>136</ele>
        <time>2022-04-03T14:24:39Z</time>
      </trkpt>
      <trkpt lat="45.99193" lon="0.41549">
        <ele>135.2</ele>
        <time>2022-04-03T14:24:40Z</time>
      </trkpt>
      <trkpt lat="45.99193" lon="0.41533">
        <ele>134.6</ele>
        <time>2022-04-03T14:24:41Z</time>
      </trkpt>
      <trkpt lat="45.99194" lon="0.41518">
        <ele>134.4</ele>
        <time>2022-04-03T14:24:42Z</time>
      </trkpt>
      <trkpt lat="45.99194" lon="0.41503">
        <ele>133.8</ele>
        <time>2022-04-03T14:24:43Z</time>
      </trkpt>
      <trkpt lat="45.99194" lon="0.41488">
        <ele>133</ele>
        <time>2022-04-03T14:24:44Z</time>
      </trkpt>
      <trkpt lat="45.99195" lon="0.41474">
        <ele>131.6</ele>
        <time>2022-04-03T14:24:45Z</time>
      </trkpt>
      <trkpt lat="45.99195" lon="0.4146">
        <ele>130.4</ele>
        <time>2022-04-03T14:24:46Z</time>
      </trkpt>
      <trkpt lat="45.99195" lon="0.41447">
        <ele>129.8</ele>
        <time>2022-04-03T14:24:47Z</time>
      </trkpt>
      <trkpt lat="45.99195" lon="0.41434">
        <ele>128.8</ele>
        <time>2022-04-03T14:24:48Z</time>
      </trkpt>
      <trkpt lat="45.99195" lon="0.41421">
        <ele>128.4</ele>
        <time>2022-04-03T14:24:49Z</time>
      </trkpt>
      <trkpt lat="45.99196" lon="0.41408">
        <ele>128.2</ele>
        <time>2022-04-03T14:24:50Z</time>
      </trkpt>
      <trkpt lat="45.99196" lon="0.41396">
        <ele>128</ele>
        <time>2022-04-03T14:24:51Z</time>
      </trkpt>
      <trkpt lat="45.99196" lon="0.41384">
        <ele>128</ele>
        <time>2022-04-03T14:24:52Z</time>
      </trkpt>
      <trkpt lat="45.99197" lon="0.41373">
        <ele>128.2</ele>
        <time>2022-04-03T14:24:53Z</time>
      </trkpt>
      <trkpt lat="45.99197" lon="0.41362">
        <ele>128</ele>
        <time>2022-04-03T14:24:54Z</time>
      </trkpt>
      <trkpt lat="45.99197" lon="0.41351">
        <ele>128</ele>
        <time>2022-04-03T14:24:55Z</time>
      </trkpt>
      <trkpt lat="45.99197" lon="0.41341">
        <ele>128</ele>
        <time>2022-04-03T14:24:56Z</time>
      </trkpt>
      <trkpt lat="45.99198" lon="0.41331">
        <ele>128</ele>
        <time>2022-04-03T14:24:57Z</time>
      </trkpt>
      <trkpt lat="45.99198" lon="0.41321">
        <ele>128.2</ele>
        <time>2022-04-03T14:24:58Z</time>
      </trkpt>
      <trkpt lat="45.99198" lon="0.41312">
        <ele>128.4</ele>
        <time>2022-04-03T14:24:59Z</time>
      </trkpt>
      <trkpt lat="45.99198" lon="0.41303">
        <ele>128.6</ele>
        <time>2022-04-03T14:25:00Z</time>
      </trkpt>
      <trkpt lat="45.99199" lon="0.41295">
        <ele>128.6</ele>
        <time>2022-04-03T14:25:01Z</time>
      </trkpt>
      <trkpt lat="45.99199" lon="0.41287">
        <ele>128.8</ele>
        <time>2022-04-03T14:25:02Z</time>
      </trkpt>
      <trkpt lat="45.99198" lon="0.41279">
        <ele>128.8</ele>
        <time>2022-04-03T14:25:03Z</time>
      </trkpt>
      <trkpt lat="45.99198" lon="0.41271">
        <ele>128.8</ele>
        <time>2022-04-03T14:25:04Z</time>
      </trkpt>
      <trkpt lat="45.99198" lon="0.41264">
        <ele>128.8</ele>
        <time>2022-04-03T14:25:05Z</time>
      </trkpt>
      <trkpt lat="45.99197" lon="0.41257">
        <ele>129</ele>
        <time>2022-04-03T14:25:06Z</time>
      </trkpt>
      <trkpt lat="45.99198" lon="0.41252">
        <ele>129</ele>
        <time>2022-04-03T14:25:07Z</time>
      </trkpt>
      <trkpt lat="45.99198" lon="0.41246">
        <ele>129.2</ele>
        <time>2022-04-03T14:25:08Z</time>
      </trkpt>
      <trkpt lat="45.99198" lon="0.41241">
        <ele>129.2</ele>
        <time>2022-04-03T14:25:09Z</time>
      </trkpt>
      <trkpt lat="45.99198" lon="0.41236">
        <ele>129.2</ele>
        <time>2022-04-03T14:25:10Z</time>
      </trkpt>
      <trkpt lat="45.99199" lon="0.4123">
        <ele>129.2</ele>
        <time>2022-04-03T14:25:11Z</time>
      </trkpt>
      <trkpt lat="45.992" lon="0.41225">
        <ele>129.4</ele>
        <time>2022-04-03T14:25:12Z</time>
      </trkpt>
      <trkpt lat="45.99202" lon="0.41221">
        <ele>129.4</ele>
        <time>2022-04-03T14:25:13Z</time>
      </trkpt>
      <trkpt lat="45.99205" lon="0.41217">
        <ele>129.6</ele>
        <time>2022-04-03T14:25:14Z</time>
      </trkpt>
      <trkpt lat="45.99207" lon="0.41213">
        <ele>129.6</ele>
        <time>2022-04-03T14:25:15Z</time>
      </trkpt>
      <trkpt lat="45.9921" lon="0.41209">
        <ele>130.2</ele>
        <time>2022-04-03T14:25:16Z</time>
      </trkpt>
      <trkpt lat="45.99212" lon="0.41204">
        <ele>130.6</ele>
        <time>2022-04-03T14:25:17Z</time>
      </trkpt>
      <trkpt lat="45.99214" lon="0.412">
        <ele>131</ele>
        <time>2022-04-03T14:25:18Z</time>
      </trkpt>
      <trkpt lat="45.99217" lon="0.41196">
        <ele>131.2</ele>
        <time>2022-04-03T14:25:19Z</time>
      </trkpt>
      <trkpt lat="45.9922" lon="0.41192">
        <ele>131.4</ele>
        <time>2022-04-03T14:25:20Z</time>
      </trkpt>
      <trkpt lat="45.99223" lon="0.41188">
        <ele>131.6</ele>
        <time>2022-04-03T14:25:21Z</time>
      </trkpt>
      <trkpt lat="45.99225" lon="0.41184">
        <ele>131.8</ele>
        <time>2022-04-03T14:25:22Z</time>
      </trkpt>
      <trkpt lat="45.99228" lon="0.4118">
        <ele>132</ele>
        <time>2022-04-03T14:25:23Z</time>
      </trkpt>
      <trkpt lat="45.9923" lon="0.41177">
        <ele>132</ele>
        <time>2022-04-03T14:25:24Z</time>
      </trkpt>
      <trkpt lat="45.99233" lon="0.41173">
        <ele>132.2</ele>
        <time>2022-04-03T14:25:25Z</time>
      </trkpt>
      <trkpt lat="45.99236" lon="0.4117">
        <ele>132</ele>
        <time>2022-04-03T14:25:26Z</time>
      </trkpt>
      <trkpt lat="45.99239" lon="0.41167">
        <ele>132.2</ele>
        <time>2022-04-03T14:25:27Z</time>
      </trkpt>
      <trkpt lat="45.99242" lon="0.41164">
        <ele>132.2</ele>
        <time>2022-04-03T14:25:28Z</time>
      </trkpt>
      <trkpt lat="45.99244" lon="0.4116">
        <ele>132.2</ele>
        <time>2022-04-03T14:25:29Z</time>
      </trkpt>
      <trkpt lat="45.99247" lon="0.41157">
        <ele>132.2</ele>
        <time>2022-04-03T14:25:30Z</time>
      </trkpt>
      <trkpt lat="45.99249" lon="0.41152">
        <ele>132</ele>
        <time>2022-04-03T14:25:31Z</time>
      </trkpt>
      <trkpt lat="45.99251" lon="0.41148">
        <ele>132.4</ele>
        <time>2022-04-03T14:25:32Z</time>
      </trkpt>
      <trkpt lat="45.99253" lon="0.41144">
        <ele>132.2</ele>
        <time>2022-04-03T14:25:33Z</time>
      </trkpt>
      <trkpt lat="45.99255" lon="0.4114">
        <ele>132.2</ele>
        <time>2022-04-03T14:25:34Z</time>
      </trkpt>
      <trkpt lat="45.99258" lon="0.41136">
        <ele>132.2</ele>
        <time>2022-04-03T14:25:35Z</time>
      </trkpt>
      <trkpt lat="45.9926" lon="0.41132">
        <ele>132.2</ele>
        <time>2022-04-03T14:25:36Z</time>
      </trkpt>
      <trkpt lat="45.99262" lon="0.41129">
        <ele>132.2</ele>
        <time>2022-04-03T14:25:37Z</time>
      </trkpt>
      <trkpt lat="45.99265" lon="0.41125">
        <ele>132.2</ele>
        <time>2022-04-03T14:25:38Z</time>
      </trkpt>
      <trkpt lat="45.99267" lon="0.41121">
        <ele>132.2</ele>
        <time>2022-04-03T14:25:39Z</time>
      </trkpt>
      <trkpt lat="45.99269" lon="0.41118">
        <ele>132.2</ele>
        <time>2022-04-03T14:25:40Z</time>
      </trkpt>
      <trkpt lat="45.99272" lon="0.41114">
        <ele>132.2</ele>
        <time>2022-04-03T14:25:41Z</time>
      </trkpt>
      <trkpt lat="45.99274" lon="0.41111">
        <ele>132.2</ele>
        <time>2022-04-03T14:25:42Z</time>
      </trkpt>
      <trkpt lat="45.99277" lon="0.41107">
        <ele>132</ele>
        <time>2022-04-03T14:25:43Z</time>
      </trkpt>
      <trkpt lat="45.9928" lon="0.41104">
        <ele>132.2</ele>
        <time>2022-04-03T14:25:44Z</time>
      </trkpt>
      <trkpt lat="45.99282" lon="0.411">
        <ele>132.4</ele>
        <time>2022-04-03T14:25:45Z</time>
      </trkpt>
      <trkpt lat="45.99285" lon="0.41097">
        <ele>132.4</ele>
        <time>2022-04-03T14:25:46Z</time>
      </trkpt>
      <trkpt lat="45.99287" lon="0.41093">
        <ele>132.8</ele>
        <time>2022-04-03T14:25:47Z</time>
      </trkpt>
      <trkpt lat="45.9929" lon="0.4109">
        <ele>132.8</ele>
        <time>2022-04-03T14:25:48Z</time>
      </trkpt>
      <trkpt lat="45.99293" lon="0.41087">
        <ele>132.8</ele>
        <time>2022-04-03T14:25:49Z</time>
      </trkpt>
      <trkpt lat="45.99296" lon="0.41084">
        <ele>133.2</ele>
        <time>2022-04-03T14:25:50Z</time>
      </trkpt>
      <trkpt lat="45.99298" lon="0.41081">
        <ele>133.4</ele>
        <time>2022-04-03T14:25:51Z</time>
      </trkpt>
      <trkpt lat="45.993" lon="0.41078">
        <ele>133.6</ele>
        <time>2022-04-03T14:25:52Z</time>
      </trkpt>
      <trkpt lat="45.99303" lon="0.41075">
        <ele>133.8</ele>
        <time>2022-04-03T14:25:53Z</time>
      </trkpt>
      <trkpt lat="45.99305" lon="0.41072">
        <ele>134</ele>
        <time>2022-04-03T14:25:54Z</time>
      </trkpt>
      <trkpt lat="45.99308" lon="0.41069">
        <ele>134.2</ele>
        <time>2022-04-03T14:25:55Z</time>
      </trkpt>
      <trkpt lat="45.99311" lon="0.41066">
        <ele>134.2</ele>
        <time>2022-04-03T14:25:56Z</time>
      </trkpt>
      <trkpt lat="45.99315" lon="0.41064">
        <ele>134.4</ele>
        <time>2022-04-03T14:25:57Z</time>
      </trkpt>
      <trkpt lat="45.99318" lon="0.41061">
        <ele>134.4</ele>
        <time>2022-04-03T14:25:58Z</time>
      </trkpt>
      <trkpt lat="45.99321" lon="0.41058">
        <ele>134.6</ele>
        <time>2022-04-03T14:25:59Z</time>
      </trkpt>
      <trkpt lat="45.99324" lon="0.41055">
        <ele>134.6</ele>
        <time>2022-04-03T14:26:00Z</time>
      </trkpt>
      <trkpt lat="45.99328" lon="0.41052">
        <ele>134.8</ele>
        <time>2022-04-03T14:26:01Z</time>
      </trkpt>
      <trkpt lat="45.99331" lon="0.41048">
        <ele>134.8</ele>
        <time>2022-04-03T14:26:02Z</time>
      </trkpt>
      <trkpt lat="45.99334" lon="0.41045">
        <ele>135</ele>
        <time>2022-04-03T14:26:03Z</time>
      </trkpt>
      <trkpt lat="45.99337" lon="0.41041">
        <ele>135.2</ele>
        <time>2022-04-03T14:26:04Z</time>
      </trkpt>
      <trkpt lat="45.9934" lon="0.41037">
        <ele>135</ele>
        <time>2022-04-03T14:26:05Z</time>
      </trkpt>
      <trkpt lat="45.99342" lon="0.41033">
        <ele>135.2</ele>
        <time>2022-04-03T14:26:06Z</time>
      </trkpt>
      <trkpt lat="45.99345" lon="0.41029">
        <ele>135.2</ele>
        <time>2022-04-03T14:26:07Z</time>
      </trkpt>
      <trkpt lat="45.99346" lon="0.41024">
        <ele>135.2</ele>
        <time>2022-04-03T14:26:08Z</time>
      </trkpt>
      <trkpt lat="45.99348" lon="0.41018">
        <ele>135.4</ele>
        <time>2022-04-03T14:26:09Z</time>
      </trkpt>
      <trkpt lat="45.99349" lon="0.41013">
        <ele>135.6</ele>
        <time>2022-04-03T14:26:10Z</time>
      </trkpt>
      <trkpt lat="45.9935" lon="0.41008">
        <ele>135.8</ele>
        <time>2022-04-03T14:26:11Z</time>
      </trkpt>
      <trkpt lat="45.99351" lon="0.41003">
        <ele>135.8</ele>
        <time>2022-04-03T14:26:12Z</time>
      </trkpt>
      <trkpt lat="45.99352" lon="0.40997">
        <ele>136</ele>
        <time>2022-04-03T14:26:13Z</time>
      </trkpt>
      <trkpt lat="45.99353" lon="0.40992">
        <ele>136.2</ele>
        <time>2022-04-03T14:26:14Z</time>
      </trkpt>
      <trkpt lat="45.99354" lon="0.40987">
        <ele>136.2</ele>
        <time>2022-04-03T14:26:15Z</time>
      </trkpt>
      <trkpt lat="45.99354" lon="0.40982">
        <ele>136.4</ele>
        <time>2022-04-03T14:26:16Z</time>
      </trkpt>
      <trkpt lat="45.99355" lon="0.40977">
        <ele>136.6</ele>
        <time>2022-04-03T14:26:17Z</time>
      </trkpt>
      <trkpt lat="45.99356" lon="0.40972">
        <ele>136.6</ele>
        <time>2022-04-03T14:26:18Z</time>
      </trkpt>
      <trkpt lat="45.99357" lon="0.40968">
        <ele>136.6</ele>
        <time>2022-04-03T14:26:19Z</time>
      </trkpt>
      <trkpt lat="45.99358" lon="0.40963">
        <ele>136.8</ele>
        <time>2022-04-03T14:26:20Z</time>
      </trkpt>
      <trkpt lat="45.99359" lon="0.40958">
        <ele>136.8</ele>
        <time>2022-04-03T14:26:21Z</time>
      </trkpt>
      <trkpt lat="45.9936" lon="0.40954">
        <ele>136.6</ele>
        <time>2022-04-03T14:26:22Z</time>
      </trkpt>
      <trkpt lat="45.99361" lon="0.40949">
        <ele>136.8</ele>
        <time>2022-04-03T14:26:23Z</time>
      </trkpt>
      <trkpt lat="45.99362" lon="0.40945">
        <ele>136.8</ele>
        <time>2022-04-03T14:26:24Z</time>
      </trkpt>
      <trkpt lat="45.99362" lon="0.4094">
        <ele>137</ele>
        <time>2022-04-03T14:26:25Z</time>
      </trkpt>
      <trkpt lat="45.99363" lon="0.40935">
        <ele>137</ele>
        <time>2022-04-03T14:26:26Z</time>
      </trkpt>
      <trkpt lat="45.99363" lon="0.40931">
        <ele>137.4</ele>
        <time>2022-04-03T14:26:27Z</time>
      </trkpt>
      <trkpt lat="45.99364" lon="0.40927">
        <ele>137.6</ele>
        <time>2022-04-03T14:26:28Z</time>
      </trkpt>
      <trkpt lat="45.99365" lon="0.40922">
        <ele>137.8</ele>
        <time>2022-04-03T14:26:29Z</time>
      </trkpt>
      <trkpt lat="45.99366" lon="0.40917">
        <ele>137.8</ele>
        <time>2022-04-03T14:26:30Z</time>
      </trkpt>
      <trkpt lat="45.99367" lon="0.40913">
        <ele>138</ele>
        <time>2022-04-03T14:26:31Z</time>
      </trkpt>
      <trkpt lat="45.99368" lon="0.40908">
        <ele>138</ele>
        <time>2022-04-03T14:26:32Z</time>
      </trkpt>
      <trkpt lat="45.99369" lon="0.40903">
        <ele>138.2</ele>
        <time>2022-04-03T14:26:33Z</time>
      </trkpt>
      <trkpt lat="45.9937" lon="0.40898">
        <ele>138.6</ele>
        <time>2022-04-03T14:26:34Z</time>
      </trkpt>
      <trkpt lat="45.99371" lon="0.40893">
        <ele>138.8</ele>
        <time>2022-04-03T14:26:35Z</time>
      </trkpt>
      <trkpt lat="45.99372" lon="0.40889">
        <ele>138.8</ele>
        <time>2022-04-03T14:26:36Z</time>
      </trkpt>
      <trkpt lat="45.99372" lon="0.40884">
        <ele>139</ele>
        <time>2022-04-03T14:26:37Z</time>
      </trkpt>
      <trkpt lat="45.99374" lon="0.4088">
        <ele>139</ele>
        <time>2022-04-03T14:26:38Z</time>
      </trkpt>
      <trkpt lat="45.99375" lon="0.40875">
        <ele>139.2</ele>
        <time>2022-04-03T14:26:39Z</time>
      </trkpt>
      <trkpt lat="45.99376" lon="0.4087">
        <ele>139.6</ele>
        <time>2022-04-03T14:26:40Z</time>
      </trkpt>
      <trkpt lat="45.99376" lon="0.40866">
        <ele>139.6</ele>
        <time>2022-04-03T14:26:41Z</time>
      </trkpt>
      <trkpt lat="45.99377" lon="0.40861">
        <ele>139.8</ele>
        <time>2022-04-03T14:26:42Z</time>
      </trkpt>
      <trkpt lat="45.99377" lon="0.40856">
        <ele>140.2</ele>
        <time>2022-04-03T14:26:43Z</time>
      </trkpt>
      <trkpt lat="45.99378" lon="0.40851">
        <ele>140.4</ele>
        <time>2022-04-03T14:26:44Z</time>
      </trkpt>
      <trkpt lat="45.99379" lon="0.40846">
        <ele>140.4</ele>
        <time>2022-04-03T14:26:45Z</time>
      </trkpt>
      <trkpt lat="45.99379" lon="0.40841">
        <ele>140.6</ele>
        <time>2022-04-03T14:26:46Z</time>
      </trkpt>
      <trkpt lat="45.9938" lon="0.40836">
        <ele>140.8</ele>
        <time>2022-04-03T14:26:47Z</time>
      </trkpt>
      <trkpt lat="45.9938" lon="0.40831">
        <ele>141</ele>
        <time>2022-04-03T14:26:48Z</time>
      </trkpt>
      <trkpt lat="45.9938" lon="0.40826">
        <ele>141.2</ele>
        <time>2022-04-03T14:26:49Z</time>
      </trkpt>
      <trkpt lat="45.9938" lon="0.40821">
        <ele>141.4</ele>
        <time>2022-04-03T14:26:50Z</time>
      </trkpt>
      <trkpt lat="45.9938" lon="0.40816">
        <ele>141.8</ele>
        <time>2022-04-03T14:26:51Z</time>
      </trkpt>
      <trkpt lat="45.9938" lon="0.4081">
        <ele>141.6</ele>
        <time>2022-04-03T14:26:52Z</time>
      </trkpt>
      <trkpt lat="45.9938" lon="0.40806">
        <ele>141.8</ele>
        <time>2022-04-03T14:26:53Z</time>
      </trkpt>
      <trkpt lat="45.99381" lon="0.40801">
        <ele>141.8</ele>
        <time>2022-04-03T14:26:54Z</time>
      </trkpt>
      <trkpt lat="45.99383" lon="0.40796">
        <ele>142.2</ele>
        <time>2022-04-03T14:26:55Z</time>
      </trkpt>
      <trkpt lat="45.99385" lon="0.40792">
        <ele>142.2</ele>
        <time>2022-04-03T14:26:56Z</time>
      </trkpt>
      <trkpt lat="45.99388" lon="0.40787">
        <ele>142.2</ele>
        <time>2022-04-03T14:26:57Z</time>
      </trkpt>
      <trkpt lat="45.99391" lon="0.40783">
        <ele>142.2</ele>
        <time>2022-04-03T14:26:58Z</time>
      </trkpt>
      <trkpt lat="45.99394" lon="0.40777">
        <ele>142.2</ele>
        <time>2022-04-03T14:26:59Z</time>
      </trkpt>
      <trkpt lat="45.99398" lon="0.40771">
        <ele>142.4</ele>
        <time>2022-04-03T14:27:00Z</time>
      </trkpt>
      <trkpt lat="45.99401" lon="0.40765">
        <ele>142.2</ele>
        <time>2022-04-03T14:27:01Z</time>
      </trkpt>
      <trkpt lat="45.99405" lon="0.40758">
        <ele>142.4</ele>
        <time>2022-04-03T14:27:02Z</time>
      </trkpt>
      <trkpt lat="45.99408" lon="0.40751">
        <ele>142.2</ele>
        <time>2022-04-03T14:27:03Z</time>
      </trkpt>
      <trkpt lat="45.99412" lon="0.40743">
        <ele>142.2</ele>
        <time>2022-04-03T14:27:04Z</time>
      </trkpt>
      <trkpt lat="45.99416" lon="0.40736">
        <ele>142.2</ele>
        <time>2022-04-03T14:27:05Z</time>
      </trkpt>
      <trkpt lat="45.9942" lon="0.40728">
        <ele>142.2</ele>
        <time>2022-04-03T14:27:06Z</time>
      </trkpt>
      <trkpt lat="45.99424" lon="0.4072">
        <ele>141.6</ele>
        <time>2022-04-03T14:27:07Z</time>
      </trkpt>
      <trkpt lat="45.99428" lon="0.40712">
        <ele>141.2</ele>
        <time>2022-04-03T14:27:08Z</time>
      </trkpt>
      <trkpt lat="45.99433" lon="0.40704">
        <ele>140.8</ele>
        <time>2022-04-03T14:27:09Z</time>
      </trkpt>
      <trkpt lat="45.99437" lon="0.40696">
        <ele>140.4</ele>
        <time>2022-04-03T14:27:10Z</time>
      </trkpt>
      <trkpt lat="45.99441" lon="0.40688">
        <ele>140</ele>
        <time>2022-04-03T14:27:11Z</time>
      </trkpt>
      <trkpt lat="45.99446" lon="0.40679">
        <ele>139.6</ele>
        <time>2022-04-03T14:27:12Z</time>
      </trkpt>
      <trkpt lat="45.9945" lon="0.40671">
        <ele>139.4</ele>
        <time>2022-04-03T14:27:13Z</time>
      </trkpt>
      <trkpt lat="45.99455" lon="0.40663">
        <ele>139</ele>
        <time>2022-04-03T14:27:14Z</time>
      </trkpt>
      <trkpt lat="45.9946" lon="0.40655">
        <ele>138.4</ele>
        <time>2022-04-03T14:27:15Z</time>
      </trkpt>
      <trkpt lat="45.99465" lon="0.40646">
        <ele>138</ele>
        <time>2022-04-03T14:27:16Z</time>
      </trkpt>
      <trkpt lat="45.99469" lon="0.40638">
        <ele>137.4</ele>
        <time>2022-04-03T14:27:17Z</time>
      </trkpt>
      <trkpt lat="45.99474" lon="0.4063">
        <ele>136.8</ele>
        <time>2022-04-03T14:27:18Z</time>
      </trkpt>
      <trkpt lat="45.99478" lon="0.40621">
        <ele>136.8</ele>
        <time>2022-04-03T14:27:19Z</time>
      </trkpt>
      <trkpt lat="45.99482" lon="0.40612">
        <ele>136.2</ele>
        <time>2022-04-03T14:27:20Z</time>
      </trkpt>
      <trkpt lat="45.99487" lon="0.40604">
        <ele>136</ele>
        <time>2022-04-03T14:27:21Z</time>
      </trkpt>
      <trkpt lat="45.99491" lon="0.40597">
        <ele>135.8</ele>
        <time>2022-04-03T14:27:22Z</time>
      </trkpt>
      <trkpt lat="45.99495" lon="0.40589">
        <ele>135.8</ele>
        <time>2022-04-03T14:27:23Z</time>
      </trkpt>
      <trkpt lat="45.99499" lon="0.40582">
        <ele>135</ele>
        <time>2022-04-03T14:27:24Z</time>
      </trkpt>
      <trkpt lat="45.99503" lon="0.40575">
        <ele>134.4</ele>
        <time>2022-04-03T14:27:25Z</time>
      </trkpt>
      <trkpt lat="45.99507" lon="0.40569">
        <ele>134.2</ele>
        <time>2022-04-03T14:27:26Z</time>
      </trkpt>
      <trkpt lat="45.9951" lon="0.40563">
        <ele>134</ele>
        <time>2022-04-03T14:27:27Z</time>
      </trkpt>
      <trkpt lat="45.99514" lon="0.40557">
        <ele>134</ele>
        <time>2022-04-03T14:27:28Z</time>
      </trkpt>
      <trkpt lat="45.99517" lon="0.40552">
        <ele>133.8</ele>
        <time>2022-04-03T14:27:29Z</time>
      </trkpt>
      <trkpt lat="45.9952" lon="0.40547">
        <ele>134</ele>
        <time>2022-04-03T14:27:30Z</time>
      </trkpt>
      <trkpt lat="45.99522" lon="0.40541">
        <ele>133.8</ele>
        <time>2022-04-03T14:27:31Z</time>
      </trkpt>
      <trkpt lat="45.99525" lon="0.40536">
        <ele>133.8</ele>
        <time>2022-04-03T14:27:32Z</time>
      </trkpt>
      <trkpt lat="45.99528" lon="0.40532">
        <ele>133.8</ele>
        <time>2022-04-03T14:27:33Z</time>
      </trkpt>
      <trkpt lat="45.9953" lon="0.40526">
        <ele>133.8</ele>
        <time>2022-04-03T14:27:34Z</time>
      </trkpt>
      <trkpt lat="45.99532" lon="0.40521">
        <ele>134</ele>
        <time>2022-04-03T14:27:35Z</time>
      </trkpt>
      <trkpt lat="45.99535" lon="0.40516">
        <ele>134.6</ele>
        <time>2022-04-03T14:27:36Z</time>
      </trkpt>
      <trkpt lat="45.99537" lon="0.4051">
        <ele>134.8</ele>
        <time>2022-04-03T14:27:37Z</time>
      </trkpt>
      <trkpt lat="45.99539" lon="0.40505">
        <ele>135.2</ele>
        <time>2022-04-03T14:27:38Z</time>
      </trkpt>
      <trkpt lat="45.99542" lon="0.405">
        <ele>135.6</ele>
        <time>2022-04-03T14:27:39Z</time>
      </trkpt>
      <trkpt lat="45.99544" lon="0.40495">
        <ele>135.6</ele>
        <time>2022-04-03T14:27:40Z</time>
      </trkpt>
      <trkpt lat="45.99546" lon="0.4049">
        <ele>135.6</ele>
        <time>2022-04-03T14:27:41Z</time>
      </trkpt>
      <trkpt lat="45.99548" lon="0.40484">
        <ele>135.8</ele>
        <time>2022-04-03T14:27:42Z</time>
      </trkpt>
      <trkpt lat="45.9955" lon="0.40479">
        <ele>135.8</ele>
        <time>2022-04-03T14:27:43Z</time>
      </trkpt>
      <trkpt lat="45.99552" lon="0.40473">
        <ele>136</ele>
        <time>2022-04-03T14:27:44Z</time>
      </trkpt>
      <trkpt lat="45.99554" lon="0.40467">
        <ele>136.2</ele>
        <time>2022-04-03T14:27:45Z</time>
      </trkpt>
      <trkpt lat="45.99556" lon="0.40461">
        <ele>136.2</ele>
        <time>2022-04-03T14:27:46Z</time>
      </trkpt>
      <trkpt lat="45.99558" lon="0.40455">
        <ele>136.4</ele>
        <time>2022-04-03T14:27:47Z</time>
      </trkpt>
      <trkpt lat="45.9956" lon="0.40449">
        <ele>136.4</ele>
        <time>2022-04-03T14:27:48Z</time>
      </trkpt>
      <trkpt lat="45.99562" lon="0.40443">
        <ele>136.4</ele>
        <time>2022-04-03T14:27:49Z</time>
      </trkpt>
      <trkpt lat="45.99564" lon="0.40437">
        <ele>136.6</ele>
        <time>2022-04-03T14:27:50Z</time>
      </trkpt>
      <trkpt lat="45.99566" lon="0.40432">
        <ele>136.6</ele>
        <time>2022-04-03T14:27:51Z</time>
      </trkpt>
      <trkpt lat="45.99568" lon="0.40426">
        <ele>136.8</ele>
        <time>2022-04-03T14:27:52Z</time>
      </trkpt>
      <trkpt lat="45.99571" lon="0.40421">
        <ele>136.8</ele>
        <time>2022-04-03T14:27:53Z</time>
      </trkpt>
      <trkpt lat="45.99573" lon="0.40415">
        <ele>136.8</ele>
        <time>2022-04-03T14:27:54Z</time>
      </trkpt>
      <trkpt lat="45.99575" lon="0.40409">
        <ele>136.8</ele>
        <time>2022-04-03T14:27:55Z</time>
      </trkpt>
      <trkpt lat="45.99577" lon="0.40404">
        <ele>137</ele>
        <time>2022-04-03T14:27:56Z</time>
      </trkpt>
      <trkpt lat="45.99579" lon="0.40398">
        <ele>136.8</ele>
        <time>2022-04-03T14:27:57Z</time>
      </trkpt>
      <trkpt lat="45.99582" lon="0.40392">
        <ele>137</ele>
        <time>2022-04-03T14:27:58Z</time>
      </trkpt>
      <trkpt lat="45.99584" lon="0.40385">
        <ele>137</ele>
        <time>2022-04-03T14:27:59Z</time>
      </trkpt>
      <trkpt lat="45.99586" lon="0.40379">
        <ele>137</ele>
        <time>2022-04-03T14:28:00Z</time>
      </trkpt>
      <trkpt lat="45.99589" lon="0.40373">
        <ele>136.8</ele>
        <time>2022-04-03T14:28:01Z</time>
      </trkpt>
      <trkpt lat="45.99591" lon="0.40367">
        <ele>136.8</ele>
        <time>2022-04-03T14:28:02Z</time>
      </trkpt>
      <trkpt lat="45.99594" lon="0.40361">
        <ele>136.8</ele>
        <time>2022-04-03T14:28:03Z</time>
      </trkpt>
      <trkpt lat="45.99596" lon="0.40355">
        <ele>136.8</ele>
        <time>2022-04-03T14:28:04Z</time>
      </trkpt>
      <trkpt lat="45.99598" lon="0.40349">
        <ele>136.8</ele>
        <time>2022-04-03T14:28:05Z</time>
      </trkpt>
      <trkpt lat="45.99601" lon="0.40343">
        <ele>137</ele>
        <time>2022-04-03T14:28:06Z</time>
      </trkpt>
      <trkpt lat="45.99603" lon="0.40337">
        <ele>136.8</ele>
        <time>2022-04-03T14:28:07Z</time>
      </trkpt>
      <trkpt lat="45.99605" lon="0.40331">
        <ele>136.8</ele>
        <time>2022-04-03T14:28:08Z</time>
      </trkpt>
      <trkpt lat="45.99607" lon="0.40326">
        <ele>136.8</ele>
        <time>2022-04-03T14:28:09Z</time>
      </trkpt>
      <trkpt lat="45.9961" lon="0.4032">
        <ele>136.8</ele>
        <time>2022-04-03T14:28:10Z</time>
      </trkpt>
      <trkpt lat="45.99612" lon="0.40314">
        <ele>136.8</ele>
        <time>2022-04-03T14:28:11Z</time>
      </trkpt>
      <trkpt lat="45.99614" lon="0.40309">
        <ele>136.8</ele>
        <time>2022-04-03T14:28:12Z</time>
      </trkpt>
      <trkpt lat="45.99616" lon="0.40303">
        <ele>136.8</ele>
        <time>2022-04-03T14:28:13Z</time>
      </trkpt>
      <trkpt lat="45.99618" lon="0.40298">
        <ele>136.8</ele>
        <time>2022-04-03T14:28:14Z</time>
      </trkpt>
      <trkpt lat="45.9962" lon="0.40292">
        <ele>136.8</ele>
        <time>2022-04-03T14:28:15Z</time>
      </trkpt>
      <trkpt lat="45.99623" lon="0.40287">
        <ele>136.8</ele>
        <time>2022-04-03T14:28:16Z</time>
      </trkpt>
      <trkpt lat="45.99625" lon="0.40281">
        <ele>137</ele>
        <time>2022-04-03T14:28:17Z</time>
      </trkpt>
      <trkpt lat="45.99627" lon="0.40276">
        <ele>136.8</ele>
        <time>2022-04-03T14:28:18Z</time>
      </trkpt>
      <trkpt lat="45.99629" lon="0.40271">
        <ele>136.8</ele>
        <time>2022-04-03T14:28:19Z</time>
      </trkpt>
      <trkpt lat="45.99632" lon="0.40265">
        <ele>137</ele>
        <time>2022-04-03T14:28:20Z</time>
      </trkpt>
      <trkpt lat="45.99634" lon="0.40259">
        <ele>137</ele>
        <time>2022-04-03T14:28:21Z</time>
      </trkpt>
      <trkpt lat="45.99636" lon="0.40253">
        <ele>137.2</ele>
        <time>2022-04-03T14:28:22Z</time>
      </trkpt>
      <trkpt lat="45.99638" lon="0.40247">
        <ele>137.2</ele>
        <time>2022-04-03T14:28:23Z</time>
      </trkpt>
      <trkpt lat="45.99641" lon="0.40241">
        <ele>137.4</ele>
        <time>2022-04-03T14:28:24Z</time>
      </trkpt>
      <trkpt lat="45.99643" lon="0.40235">
        <ele>137.4</ele>
        <time>2022-04-03T14:28:25Z</time>
      </trkpt>
      <trkpt lat="45.99645" lon="0.40229">
        <ele>137.6</ele>
        <time>2022-04-03T14:28:26Z</time>
      </trkpt>
      <trkpt lat="45.99648" lon="0.40223">
        <ele>137.6</ele>
        <time>2022-04-03T14:28:27Z</time>
      </trkpt>
      <trkpt lat="45.9965" lon="0.40217">
        <ele>137.6</ele>
        <time>2022-04-03T14:28:28Z</time>
      </trkpt>
      <trkpt lat="45.99652" lon="0.40211">
        <ele>137.4</ele>
        <time>2022-04-03T14:28:29Z</time>
      </trkpt>
      <trkpt lat="45.99655" lon="0.40205">
        <ele>137.6</ele>
        <time>2022-04-03T14:28:30Z</time>
      </trkpt>
      <trkpt lat="45.99657" lon="0.40199">
        <ele>137.4</ele>
        <time>2022-04-03T14:28:31Z</time>
      </trkpt>
      <trkpt lat="45.9966" lon="0.40192">
        <ele>137.4</ele>
        <time>2022-04-03T14:28:32Z</time>
      </trkpt>
      <trkpt lat="45.99663" lon="0.40185">
        <ele>137.4</ele>
        <time>2022-04-03T14:28:33Z</time>
      </trkpt>
      <trkpt lat="45.99667" lon="0.40178">
        <ele>137.6</ele>
        <time>2022-04-03T14:28:34Z</time>
      </trkpt>
      <trkpt lat="45.9967" lon="0.4017">
        <ele>137.2</ele>
        <time>2022-04-03T14:28:35Z</time>
      </trkpt>
      <trkpt lat="45.99674" lon="0.40162">
        <ele>137.2</ele>
        <time>2022-04-03T14:28:36Z</time>
      </trkpt>
      <trkpt lat="45.99679" lon="0.40153">
        <ele>137.2</ele>
        <time>2022-04-03T14:28:37Z</time>
      </trkpt>
      <trkpt lat="45.99684" lon="0.40145">
        <ele>137.2</ele>
        <time>2022-04-03T14:28:38Z</time>
      </trkpt>
      <trkpt lat="45.99689" lon="0.40136">
        <ele>137.2</ele>
        <time>2022-04-03T14:28:39Z</time>
      </trkpt>
      <trkpt lat="45.99695" lon="0.40127">
        <ele>137.2</ele>
        <time>2022-04-03T14:28:40Z</time>
      </trkpt>
      <trkpt lat="45.99701" lon="0.40118">
        <ele>137</ele>
        <time>2022-04-03T14:28:41Z</time>
      </trkpt>
      <trkpt lat="45.99708" lon="0.4011">
        <ele>136.6</ele>
        <time>2022-04-03T14:28:42Z</time>
      </trkpt>
      <trkpt lat="45.99715" lon="0.40101">
        <ele>136.6</ele>
        <time>2022-04-03T14:28:43Z</time>
      </trkpt>
      <trkpt lat="45.99722" lon="0.40092">
        <ele>136.4</ele>
        <time>2022-04-03T14:28:44Z</time>
      </trkpt>
      <trkpt lat="45.9973" lon="0.40083">
        <ele>136.2</ele>
        <time>2022-04-03T14:28:45Z</time>
      </trkpt>
      <trkpt lat="45.99738" lon="0.40074">
        <ele>135.6</ele>
        <time>2022-04-03T14:28:46Z</time>
      </trkpt>
      <trkpt lat="45.99746" lon="0.40065">
        <ele>134.8</ele>
        <time>2022-04-03T14:28:47Z</time>
      </trkpt>
      <trkpt lat="45.99754" lon="0.40054">
        <ele>133.8</ele>
        <time>2022-04-03T14:28:48Z</time>
      </trkpt>
      <trkpt lat="45.9976" lon="0.40043">
        <ele>132.4</ele>
        <time>2022-04-03T14:28:49Z</time>
      </trkpt>
      <trkpt lat="45.99766" lon="0.4003">
        <ele>131.2</ele>
        <time>2022-04-03T14:28:50Z</time>
      </trkpt>
      <trkpt lat="45.99771" lon="0.40016">
        <ele>130</ele>
        <time>2022-04-03T14:28:51Z</time>
      </trkpt>
      <trkpt lat="45.99775" lon="0.40002">
        <ele>129</ele>
        <time>2022-04-03T14:28:52Z</time>
      </trkpt>
      <trkpt lat="45.99779" lon="0.39988">
        <ele>127.8</ele>
        <time>2022-04-03T14:28:53Z</time>
      </trkpt>
      <trkpt lat="45.99782" lon="0.39974">
        <ele>126.8</ele>
        <time>2022-04-03T14:28:54Z</time>
      </trkpt>
      <trkpt lat="45.99785" lon="0.3996">
        <ele>126.2</ele>
        <time>2022-04-03T14:28:55Z</time>
      </trkpt>
      <trkpt lat="45.99788" lon="0.39946">
        <ele>125.4</ele>
        <time>2022-04-03T14:28:56Z</time>
      </trkpt>
      <trkpt lat="45.99791" lon="0.39933">
        <ele>125.4</ele>
        <time>2022-04-03T14:28:57Z</time>
      </trkpt>
      <trkpt lat="45.99793" lon="0.39921">
        <ele>125</ele>
        <time>2022-04-03T14:28:58Z</time>
      </trkpt>
      <trkpt lat="45.99794" lon="0.39908">
        <ele>123.8</ele>
        <time>2022-04-03T14:28:59Z</time>
      </trkpt>
      <trkpt lat="45.99796" lon="0.39897">
        <ele>123</ele>
        <time>2022-04-03T14:29:00Z</time>
      </trkpt>
      <trkpt lat="45.99797" lon="0.39885">
        <ele>122.4</ele>
        <time>2022-04-03T14:29:01Z</time>
      </trkpt>
      <trkpt lat="45.99796" lon="0.39874">
        <ele>122.2</ele>
        <time>2022-04-03T14:29:02Z</time>
      </trkpt>
      <trkpt lat="45.99795" lon="0.39863">
        <ele>122</ele>
        <time>2022-04-03T14:29:03Z</time>
      </trkpt>
      <trkpt lat="45.99793" lon="0.39854">
        <ele>122</ele>
        <time>2022-04-03T14:29:04Z</time>
      </trkpt>
      <trkpt lat="45.9979" lon="0.39845">
        <ele>122</ele>
        <time>2022-04-03T14:29:05Z</time>
      </trkpt>
      <trkpt lat="45.99788" lon="0.39836">
        <ele>122</ele>
        <time>2022-04-03T14:29:06Z</time>
      </trkpt>
      <trkpt lat="45.99785" lon="0.39828">
        <ele>122</ele>
        <time>2022-04-03T14:29:07Z</time>
      </trkpt>
      <trkpt lat="45.99782" lon="0.39819">
        <ele>122</ele>
        <time>2022-04-03T14:29:08Z</time>
      </trkpt>
      <trkpt lat="45.9978" lon="0.3981">
        <ele>122</ele>
        <time>2022-04-03T14:29:09Z</time>
      </trkpt>
      <trkpt lat="45.99777" lon="0.39802">
        <ele>121.8</ele>
        <time>2022-04-03T14:29:10Z</time>
      </trkpt>
      <trkpt lat="45.99775" lon="0.39793">
        <ele>121.8</ele>
        <time>2022-04-03T14:29:11Z</time>
      </trkpt>
      <trkpt lat="45.99772" lon="0.39784">
        <ele>122.2</ele>
        <time>2022-04-03T14:29:12Z</time>
      </trkpt>
      <trkpt lat="45.99771" lon="0.39775">
        <ele>122.4</ele>
        <time>2022-04-03T14:29:13Z</time>
      </trkpt>
      <trkpt lat="45.99769" lon="0.39767">
        <ele>122.6</ele>
        <time>2022-04-03T14:29:14Z</time>
      </trkpt>
      <trkpt lat="45.99768" lon="0.39758">
        <ele>122.6</ele>
        <time>2022-04-03T14:29:15Z</time>
      </trkpt>
      <trkpt lat="45.99767" lon="0.39749">
        <ele>122.8</ele>
        <time>2022-04-03T14:29:16Z</time>
      </trkpt>
      <trkpt lat="45.99766" lon="0.3974">
        <ele>123</ele>
        <time>2022-04-03T14:29:17Z</time>
      </trkpt>
      <trkpt lat="45.99765" lon="0.39732">
        <ele>123.4</ele>
        <time>2022-04-03T14:29:18Z</time>
      </trkpt>
      <trkpt lat="45.99764" lon="0.39723">
        <ele>123.2</ele>
        <time>2022-04-03T14:29:19Z</time>
      </trkpt>
      <trkpt lat="45.99763" lon="0.39714">
        <ele>123.4</ele>
        <time>2022-04-03T14:29:20Z</time>
      </trkpt>
      <trkpt lat="45.99763" lon="0.39705">
        <ele>123.4</ele>
        <time>2022-04-03T14:29:21Z</time>
      </trkpt>
      <trkpt lat="45.99762" lon="0.39696">
        <ele>123.4</ele>
        <time>2022-04-03T14:29:22Z</time>
      </trkpt>
      <trkpt lat="45.99762" lon="0.39687">
        <ele>123.4</ele>
        <time>2022-04-03T14:29:23Z</time>
      </trkpt>
      <trkpt lat="45.99763" lon="0.39678">
        <ele>123.4</ele>
        <time>2022-04-03T14:29:24Z</time>
      </trkpt>
      <trkpt lat="45.99763" lon="0.39669">
        <ele>123.4</ele>
        <time>2022-04-03T14:29:25Z</time>
      </trkpt>
      <trkpt lat="45.99765" lon="0.3966">
        <ele>123.4</ele>
        <time>2022-04-03T14:29:26Z</time>
      </trkpt>
      <trkpt lat="45.99766" lon="0.39652">
        <ele>123.6</ele>
        <time>2022-04-03T14:29:27Z</time>
      </trkpt>
      <trkpt lat="45.99769" lon="0.39644">
        <ele>123.6</ele>
        <time>2022-04-03T14:29:28Z</time>
      </trkpt>
      <trkpt lat="45.99772" lon="0.39637">
        <ele>123.6</ele>
        <time>2022-04-03T14:29:29Z</time>
      </trkpt>
      <trkpt lat="45.99775" lon="0.39631">
        <ele>123.6</ele>
        <time>2022-04-03T14:29:30Z</time>
      </trkpt>
      <trkpt lat="45.99778" lon="0.39625">
        <ele>123.8</ele>
        <time>2022-04-03T14:29:31Z</time>
      </trkpt>
      <trkpt lat="45.99781" lon="0.3962">
        <ele>123.8</ele>
        <time>2022-04-03T14:29:32Z</time>
      </trkpt>
      <trkpt lat="45.99785" lon="0.39615">
        <ele>123.6</ele>
        <time>2022-04-03T14:29:33Z</time>
      </trkpt>
      <trkpt lat="45.99789" lon="0.39611">
        <ele>123.6</ele>
        <time>2022-04-03T14:29:34Z</time>
      </trkpt>
      <trkpt lat="45.99793" lon="0.39606">
        <ele>123.8</ele>
        <time>2022-04-03T14:29:35Z</time>
      </trkpt>
      <trkpt lat="45.99796" lon="0.39602">
        <ele>123.8</ele>
        <time>2022-04-03T14:29:36Z</time>
      </trkpt>
      <trkpt lat="45.998" lon="0.39598">
        <ele>124</ele>
        <time>2022-04-03T14:29:37Z</time>
      </trkpt>
      <trkpt lat="45.99805" lon="0.39594">
        <ele>124.2</ele>
        <time>2022-04-03T14:29:38Z</time>
      </trkpt>
      <trkpt lat="45.99809" lon="0.3959">
        <ele>124.4</ele>
        <time>2022-04-03T14:29:39Z</time>
      </trkpt>
      <trkpt lat="45.99814" lon="0.39585">
        <ele>124.6</ele>
        <time>2022-04-03T14:29:40Z</time>
      </trkpt>
      <trkpt lat="45.99818" lon="0.39581">
        <ele>125</ele>
        <time>2022-04-03T14:29:41Z</time>
      </trkpt>
      <trkpt lat="45.99823" lon="0.39577">
        <ele>125</ele>
        <time>2022-04-03T14:29:42Z</time>
      </trkpt>
      <trkpt lat="45.99827" lon="0.39574">
        <ele>125</ele>
        <time>2022-04-03T14:29:43Z</time>
      </trkpt>
      <trkpt lat="45.99831" lon="0.3957">
        <ele>125.2</ele>
        <time>2022-04-03T14:29:44Z</time>
      </trkpt>
      <trkpt lat="45.99836" lon="0.39566">
        <ele>125.2</ele>
        <time>2022-04-03T14:29:45Z</time>
      </trkpt>
      <trkpt lat="45.9984" lon="0.39563">
        <ele>125</ele>
        <time>2022-04-03T14:29:46Z</time>
      </trkpt>
      <trkpt lat="45.99844" lon="0.39559">
        <ele>125</ele>
        <time>2022-04-03T14:29:47Z</time>
      </trkpt>
      <trkpt lat="45.99848" lon="0.39555">
        <ele>125.2</ele>
        <time>2022-04-03T14:29:48Z</time>
      </trkpt>
      <trkpt lat="45.99853" lon="0.39551">
        <ele>125.2</ele>
        <time>2022-04-03T14:29:49Z</time>
      </trkpt>
      <trkpt lat="45.99857" lon="0.39547">
        <ele>125.2</ele>
        <time>2022-04-03T14:29:50Z</time>
      </trkpt>
      <trkpt lat="45.99862" lon="0.39543">
        <ele>125</ele>
        <time>2022-04-03T14:29:51Z</time>
      </trkpt>
      <trkpt lat="45.99867" lon="0.39538">
        <ele>125</ele>
        <time>2022-04-03T14:29:52Z</time>
      </trkpt>
      <trkpt lat="45.99871" lon="0.39533">
        <ele>125</ele>
        <time>2022-04-03T14:29:53Z</time>
      </trkpt>
      <trkpt lat="45.99876" lon="0.39528">
        <ele>124.8</ele>
        <time>2022-04-03T14:29:54Z</time>
      </trkpt>
      <trkpt lat="45.99881" lon="0.39521">
        <ele>124.8</ele>
        <time>2022-04-03T14:29:55Z</time>
      </trkpt>
      <trkpt lat="45.99886" lon="0.39514">
        <ele>124.4</ele>
        <time>2022-04-03T14:29:56Z</time>
      </trkpt>
      <trkpt lat="45.9989" lon="0.39507">
        <ele>124</ele>
        <time>2022-04-03T14:29:57Z</time>
      </trkpt>
      <trkpt lat="45.99893" lon="0.39498">
        <ele>124</ele>
        <time>2022-04-03T14:29:58Z</time>
      </trkpt>
      <trkpt lat="45.99896" lon="0.3949">
        <ele>124</ele>
        <time>2022-04-03T14:29:59Z</time>
      </trkpt>
      <trkpt lat="45.99899" lon="0.39481">
        <ele>123.8</ele>
        <time>2022-04-03T14:30:00Z</time>
      </trkpt>
      <trkpt lat="45.99902" lon="0.39474">
        <ele>123.6</ele>
        <time>2022-04-03T14:30:01Z</time>
      </trkpt>
      <trkpt lat="45.99905" lon="0.39467">
        <ele>123.6</ele>
        <time>2022-04-03T14:30:02Z</time>
      </trkpt>
      <trkpt lat="45.99907" lon="0.3946">
        <ele>123.4</ele>
        <time>2022-04-03T14:30:03Z</time>
      </trkpt>
      <trkpt lat="45.9991" lon="0.39454">
        <ele>122.8</ele>
        <time>2022-04-03T14:30:04Z</time>
      </trkpt>
      <trkpt lat="45.99912" lon="0.39447">
        <ele>122.6</ele>
        <time>2022-04-03T14:30:05Z</time>
      </trkpt>
      <trkpt lat="45.99915" lon="0.39441">
        <ele>122.4</ele>
        <time>2022-04-03T14:30:06Z</time>
      </trkpt>
      <trkpt lat="45.99917" lon="0.39434">
        <ele>122.2</ele>
        <time>2022-04-03T14:30:07Z</time>
      </trkpt>
      <trkpt lat="45.9992" lon="0.39429">
        <ele>122</ele>
        <time>2022-04-03T14:30:08Z</time>
      </trkpt>
      <trkpt lat="45.99923" lon="0.39423">
        <ele>122</ele>
        <time>2022-04-03T14:30:09Z</time>
      </trkpt>
      <trkpt lat="45.99926" lon="0.39418">
        <ele>121.8</ele>
        <time>2022-04-03T14:30:10Z</time>
      </trkpt>
      <trkpt lat="45.99929" lon="0.39413">
        <ele>121.8</ele>
        <time>2022-04-03T14:30:11Z</time>
      </trkpt>
      <trkpt lat="45.99933" lon="0.39409">
        <ele>121.8</ele>
        <time>2022-04-03T14:30:12Z</time>
      </trkpt>
      <trkpt lat="45.99937" lon="0.39405">
        <ele>121.8</ele>
        <time>2022-04-03T14:30:13Z</time>
      </trkpt>
      <trkpt lat="45.99942" lon="0.39402">
        <ele>121.6</ele>
        <time>2022-04-03T14:30:14Z</time>
      </trkpt>
      <trkpt lat="45.99946" lon="0.394">
        <ele>121.4</ele>
        <time>2022-04-03T14:30:15Z</time>
      </trkpt>
      <trkpt lat="45.99951" lon="0.39399">
        <ele>121.4</ele>
        <time>2022-04-03T14:30:16Z</time>
      </trkpt>
      <trkpt lat="45.99956" lon="0.39397">
        <ele>121.4</ele>
        <time>2022-04-03T14:30:17Z</time>
      </trkpt>
      <trkpt lat="45.99961" lon="0.39396">
        <ele>121.6</ele>
        <time>2022-04-03T14:30:18Z</time>
      </trkpt>
      <trkpt lat="45.99965" lon="0.39396">
        <ele>121.4</ele>
        <time>2022-04-03T14:30:19Z</time>
      </trkpt>
      <trkpt lat="45.9997" lon="0.39397">
        <ele>121.6</ele>
        <time>2022-04-03T14:30:20Z</time>
      </trkpt>
      <trkpt lat="45.99975" lon="0.39397">
        <ele>121.6</ele>
        <time>2022-04-03T14:30:21Z</time>
      </trkpt>
      <trkpt lat="45.99979" lon="0.39398">
        <ele>121.6</ele>
        <time>2022-04-03T14:30:22Z</time>
      </trkpt>
      <trkpt lat="45.99984" lon="0.39398">
        <ele>121.8</ele>
        <time>2022-04-03T14:30:23Z</time>
      </trkpt>
      <trkpt lat="45.99988" lon="0.39399">
        <ele>121.6</ele>
        <time>2022-04-03T14:30:24Z</time>
      </trkpt>
      <trkpt lat="45.99992" lon="0.394">
        <ele>121.6</ele>
        <time>2022-04-03T14:30:25Z</time>
      </trkpt>
      <trkpt lat="45.99997" lon="0.39402">
        <ele>121.8</ele>
        <time>2022-04-03T14:30:26Z</time>
      </trkpt>
      <trkpt lat="46.00002" lon="0.39403">
        <ele>121.8</ele>
        <time>2022-04-03T14:30:27Z</time>
      </trkpt>
      <trkpt lat="46.00006" lon="0.39404">
        <ele>122</ele>
        <time>2022-04-03T14:30:28Z</time>
      </trkpt>
      <trkpt lat="46.0001" lon="0.39406">
        <ele>122.2</ele>
        <time>2022-04-03T14:30:29Z</time>
      </trkpt>
      <trkpt lat="46.00014" lon="0.39408">
        <ele>122.4</ele>
        <time>2022-04-03T14:30:30Z</time>
      </trkpt>
      <trkpt lat="46.00019" lon="0.39409">
        <ele>122.4</ele>
        <time>2022-04-03T14:30:31Z</time>
      </trkpt>
      <trkpt lat="46.00023" lon="0.39411">
        <ele>122.6</ele>
        <time>2022-04-03T14:30:32Z</time>
      </trkpt>
      <trkpt lat="46.00027" lon="0.39413">
        <ele>122.6</ele>
        <time>2022-04-03T14:30:33Z</time>
      </trkpt>
      <trkpt lat="46.00031" lon="0.39414">
        <ele>122.4</ele>
        <time>2022-04-03T14:30:34Z</time>
      </trkpt>
      <trkpt lat="46.00035" lon="0.39416">
        <ele>122.6</ele>
        <time>2022-04-03T14:30:35Z</time>
      </trkpt>
      <trkpt lat="46.00039" lon="0.39418">
        <ele>122.6</ele>
        <time>2022-04-03T14:30:36Z</time>
      </trkpt>
      <trkpt lat="46.00043" lon="0.3942">
        <ele>122.8</ele>
        <time>2022-04-03T14:30:37Z</time>
      </trkpt>
      <trkpt lat="46.00047" lon="0.39421">
        <ele>122.6</ele>
        <time>2022-04-03T14:30:38Z</time>
      </trkpt>
      <trkpt lat="46.00051" lon="0.39423">
        <ele>122.6</ele>
        <time>2022-04-03T14:30:39Z</time>
      </trkpt>
      <trkpt lat="46.00054" lon="0.39424">
        <ele>122.6</ele>
        <time>2022-04-03T14:30:40Z</time>
      </trkpt>
      <trkpt lat="46.00058" lon="0.39426">
        <ele>122.8</ele>
        <time>2022-04-03T14:30:41Z</time>
      </trkpt>
      <trkpt lat="46.00061" lon="0.39428">
        <ele>123</ele>
        <time>2022-04-03T14:30:42Z</time>
      </trkpt>
      <trkpt lat="46.00065" lon="0.3943">
        <ele>123.4</ele>
        <time>2022-04-03T14:30:43Z</time>
      </trkpt>
      <trkpt lat="46.00068" lon="0.39431">
        <ele>123.4</ele>
        <time>2022-04-03T14:30:44Z</time>
      </trkpt>
      <trkpt lat="46.00072" lon="0.39432">
        <ele>123.4</ele>
        <time>2022-04-03T14:30:45Z</time>
      </trkpt>
      <trkpt lat="46.00075" lon="0.39433">
        <ele>123.6</ele>
        <time>2022-04-03T14:30:46Z</time>
      </trkpt>
      <trkpt lat="46.00078" lon="0.39435">
        <ele>123.8</ele>
        <time>2022-04-03T14:30:47Z</time>
      </trkpt>
      <trkpt lat="46.00081" lon="0.39436">
        <ele>123.8</ele>
        <time>2022-04-03T14:30:48Z</time>
      </trkpt>
      <trkpt lat="46.00083" lon="0.39437">
        <ele>124</ele>
        <time>2022-04-03T14:30:49Z</time>
      </trkpt>
      <trkpt lat="46.00086" lon="0.39438">
        <ele>124</ele>
        <time>2022-04-03T14:30:50Z</time>
      </trkpt>
      <trkpt lat="46.00089" lon="0.39439">
        <ele>124.2</ele>
        <time>2022-04-03T14:30:51Z</time>
      </trkpt>
      <trkpt lat="46.00092" lon="0.3944">
        <ele>124.2</ele>
        <time>2022-04-03T14:30:52Z</time>
      </trkpt>
      <trkpt lat="46.00095" lon="0.39441">
        <ele>124.2</ele>
        <time>2022-04-03T14:30:53Z</time>
      </trkpt>
      <trkpt lat="46.00098" lon="0.39443">
        <ele>124.2</ele>
        <time>2022-04-03T14:30:54Z</time>
      </trkpt>
      <trkpt lat="46.00101" lon="0.39444">
        <ele>124.4</ele>
        <time>2022-04-03T14:30:55Z</time>
      </trkpt>
      <trkpt lat="46.00104" lon="0.39445">
        <ele>124.4</ele>
        <time>2022-04-03T14:30:56Z</time>
      </trkpt>
      <trkpt lat="46.00107" lon="0.39446">
        <ele>124.6</ele>
        <time>2022-04-03T14:30:57Z</time>
      </trkpt>
      <trkpt lat="46.0011" lon="0.39447">
        <ele>124.6</ele>
        <time>2022-04-03T14:30:58Z</time>
      </trkpt>
      <trkpt lat="46.00113" lon="0.39448">
        <ele>125</ele>
        <time>2022-04-03T14:30:59Z</time>
      </trkpt>
      <trkpt lat="46.00116" lon="0.39448">
        <ele>125.2</ele>
        <time>2022-04-03T14:31:00Z</time>
      </trkpt>
      <trkpt lat="46.0012" lon="0.39448">
        <ele>125.4</ele>
        <time>2022-04-03T14:31:01Z</time>
      </trkpt>
      <trkpt lat="46.00124" lon="0.39448">
        <ele>125.4</ele>
        <time>2022-04-03T14:31:02Z</time>
      </trkpt>
      <trkpt lat="46.00127" lon="0.39448">
        <ele>125.6</ele>
        <time>2022-04-03T14:31:03Z</time>
      </trkpt>
      <trkpt lat="46.00131" lon="0.39448">
        <ele>125.6</ele>
        <time>2022-04-03T14:31:04Z</time>
      </trkpt>
      <trkpt lat="46.00135" lon="0.39447">
        <ele>125.6</ele>
        <time>2022-04-03T14:31:05Z</time>
      </trkpt>
      <trkpt lat="46.00139" lon="0.39445">
        <ele>125.8</ele>
        <time>2022-04-03T14:31:06Z</time>
      </trkpt>
      <trkpt lat="46.00143" lon="0.39442">
        <ele>125.8</ele>
        <time>2022-04-03T14:31:07Z</time>
      </trkpt>
      <trkpt lat="46.00147" lon="0.39438">
        <ele>125.8</ele>
        <time>2022-04-03T14:31:08Z</time>
      </trkpt>
      <trkpt lat="46.0015" lon="0.39434">
        <ele>125.8</ele>
        <time>2022-04-03T14:31:09Z</time>
      </trkpt>
      <trkpt lat="46.00153" lon="0.3943">
        <ele>125.8</ele>
        <time>2022-04-03T14:31:10Z</time>
      </trkpt>
      <trkpt lat="46.00155" lon="0.39426">
        <ele>125.8</ele>
        <time>2022-04-03T14:31:11Z</time>
      </trkpt>
      <trkpt lat="46.00157" lon="0.39421">
        <ele>125.8</ele>
        <time>2022-04-03T14:31:12Z</time>
      </trkpt>
      <trkpt lat="46.00158" lon="0.39417">
        <ele>125.8</ele>
        <time>2022-04-03T14:31:13Z</time>
      </trkpt>
      <trkpt lat="46.0016" lon="0.39412">
        <ele>125.8</ele>
        <time>2022-04-03T14:31:14Z</time>
      </trkpt>
      <trkpt lat="46.00162" lon="0.39407">
        <ele>126</ele>
        <time>2022-04-03T14:31:15Z</time>
      </trkpt>
      <trkpt lat="46.00163" lon="0.39402">
        <ele>126</ele>
        <time>2022-04-03T14:31:16Z</time>
      </trkpt>
      <trkpt lat="46.00165" lon="0.39397">
        <ele>126</ele>
        <time>2022-04-03T14:31:17Z</time>
      </trkpt>
      <trkpt lat="46.00166" lon="0.39391">
        <ele>125.8</ele>
        <time>2022-04-03T14:31:18Z</time>
      </trkpt>
      <trkpt lat="46.00168" lon="0.39385">
        <ele>125.8</ele>
        <time>2022-04-03T14:31:19Z</time>
      </trkpt>
      <trkpt lat="46.0017" lon="0.39379">
        <ele>125.8</ele>
        <time>2022-04-03T14:31:20Z</time>
      </trkpt>
      <trkpt lat="46.00172" lon="0.39373">
        <ele>126</ele>
        <time>2022-04-03T14:31:21Z</time>
      </trkpt>
      <trkpt lat="46.00173" lon="0.39367">
        <ele>126</ele>
        <time>2022-04-03T14:31:22Z</time>
      </trkpt>
      <trkpt lat="46.00175" lon="0.39361">
        <ele>126</ele>
        <time>2022-04-03T14:31:23Z</time>
      </trkpt>
      <trkpt lat="46.00177" lon="0.39355">
        <ele>126</ele>
        <time>2022-04-03T14:31:24Z</time>
      </trkpt>
      <trkpt lat="46.00179" lon="0.39348">
        <ele>126</ele>
        <time>2022-04-03T14:31:25Z</time>
      </trkpt>
      <trkpt lat="46.00181" lon="0.39342">
        <ele>126.2</ele>
        <time>2022-04-03T14:31:26Z</time>
      </trkpt>
      <trkpt lat="46.00184" lon="0.39337">
        <ele>126.2</ele>
        <time>2022-04-03T14:31:27Z</time>
      </trkpt>
      <trkpt lat="46.00186" lon="0.39331">
        <ele>126.2</ele>
        <time>2022-04-03T14:31:28Z</time>
      </trkpt>
      <trkpt lat="46.00188" lon="0.39325">
        <ele>126.4</ele>
        <time>2022-04-03T14:31:29Z</time>
      </trkpt>
      <trkpt lat="46.00191" lon="0.39319">
        <ele>126.4</ele>
        <time>2022-04-03T14:31:30Z</time>
      </trkpt>
      <trkpt lat="46.00193" lon="0.39314">
        <ele>126.4</ele>
        <time>2022-04-03T14:31:31Z</time>
      </trkpt>
      <trkpt lat="46.00196" lon="0.39309">
        <ele>126.6</ele>
        <time>2022-04-03T14:31:32Z</time>
      </trkpt>
      <trkpt lat="46.00199" lon="0.39304">
        <ele>126.6</ele>
        <time>2022-04-03T14:31:33Z</time>
      </trkpt>
      <trkpt lat="46.00201" lon="0.39298">
        <ele>126.4</ele>
        <time>2022-04-03T14:31:34Z</time>
      </trkpt>
      <trkpt lat="46.00204" lon="0.39294">
        <ele>126.6</ele>
        <time>2022-04-03T14:31:35Z</time>
      </trkpt>
      <trkpt lat="46.00206" lon="0.39289">
        <ele>126.6</ele>
        <time>2022-04-03T14:31:36Z</time>
      </trkpt>
      <trkpt lat="46.00209" lon="0.39284">
        <ele>126.6</ele>
        <time>2022-04-03T14:31:37Z</time>
      </trkpt>
      <trkpt lat="46.00211" lon="0.39279">
        <ele>126.6</ele>
        <time>2022-04-03T14:31:38Z</time>
      </trkpt>
      <trkpt lat="46.00214" lon="0.39275">
        <ele>126.6</ele>
        <time>2022-04-03T14:31:39Z</time>
      </trkpt>
      <trkpt lat="46.00216" lon="0.39271">
        <ele>126.6</ele>
        <time>2022-04-03T14:31:40Z</time>
      </trkpt>
      <trkpt lat="46.00219" lon="0.39267">
        <ele>126.6</ele>
        <time>2022-04-03T14:31:41Z</time>
      </trkpt>
      <trkpt lat="46.00222" lon="0.39264">
        <ele>126.6</ele>
        <time>2022-04-03T14:31:42Z</time>
      </trkpt>
      <trkpt lat="46.00225" lon="0.39261">
        <ele>126.6</ele>
        <time>2022-04-03T14:31:43Z</time>
      </trkpt>
      <trkpt lat="46.00228" lon="0.39258">
        <ele>126.6</ele>
        <time>2022-04-03T14:31:44Z</time>
      </trkpt>
      <trkpt lat="46.00231" lon="0.39255">
        <ele>126.8</ele>
        <time>2022-04-03T14:31:45Z</time>
      </trkpt>
      <trkpt lat="46.00235" lon="0.39252">
        <ele>126.8</ele>
        <time>2022-04-03T14:31:46Z</time>
      </trkpt>
      <trkpt lat="46.00239" lon="0.3925">
        <ele>126.8</ele>
        <time>2022-04-03T14:31:47Z</time>
      </trkpt>
      <trkpt lat="46.00243" lon="0.39249">
        <ele>126.8</ele>
        <time>2022-04-03T14:31:48Z</time>
      </trkpt>
      <trkpt lat="46.00247" lon="0.39246">
        <ele>126.8</ele>
        <time>2022-04-03T14:31:49Z</time>
      </trkpt>
      <trkpt lat="46.0025" lon="0.39243">
        <ele>126.8</ele>
        <time>2022-04-03T14:31:50Z</time>
      </trkpt>
      <trkpt lat="46.00253" lon="0.3924">
        <ele>127</ele>
        <time>2022-04-03T14:31:51Z</time>
      </trkpt>
      <trkpt lat="46.00257" lon="0.39238">
        <ele>127.2</ele>
        <time>2022-04-03T14:31:52Z</time>
      </trkpt>
      <trkpt lat="46.00261" lon="0.39235">
        <ele>127.2</ele>
        <time>2022-04-03T14:31:53Z</time>
      </trkpt>
      <trkpt lat="46.00264" lon="0.39232">
        <ele>127.2</ele>
        <time>2022-04-03T14:31:54Z</time>
      </trkpt>
      <trkpt lat="46.00267" lon="0.39228">
        <ele>127.2</ele>
        <time>2022-04-03T14:31:55Z</time>
      </trkpt>
      <trkpt lat="46.00271" lon="0.39225">
        <ele>127.4</ele>
        <time>2022-04-03T14:31:56Z</time>
      </trkpt>
      <trkpt lat="46.00274" lon="0.39222">
        <ele>127.4</ele>
        <time>2022-04-03T14:31:57Z</time>
      </trkpt>
      <trkpt lat="46.00277" lon="0.39218">
        <ele>127.8</ele>
        <time>2022-04-03T14:31:58Z</time>
      </trkpt>
      <trkpt lat="46.00281" lon="0.39214">
        <ele>127.8</ele>
        <time>2022-04-03T14:31:59Z</time>
      </trkpt>
      <trkpt lat="46.00284" lon="0.3921">
        <ele>127.8</ele>
        <time>2022-04-03T14:32:00Z</time>
      </trkpt>
      <trkpt lat="46.00287" lon="0.39206">
        <ele>128</ele>
        <time>2022-04-03T14:32:01Z</time>
      </trkpt>
      <trkpt lat="46.00289" lon="0.39202">
        <ele>128</ele>
        <time>2022-04-03T14:32:02Z</time>
      </trkpt>
      <trkpt lat="46.00292" lon="0.39198">
        <ele>128</ele>
        <time>2022-04-03T14:32:03Z</time>
      </trkpt>
      <trkpt lat="46.00295" lon="0.39195">
        <ele>128</ele>
        <time>2022-04-03T14:32:04Z</time>
      </trkpt>
      <trkpt lat="46.00297" lon="0.39191">
        <ele>128</ele>
        <time>2022-04-03T14:32:05Z</time>
      </trkpt>
      <trkpt lat="46.003" lon="0.39186">
        <ele>128</ele>
        <time>2022-04-03T14:32:06Z</time>
      </trkpt>
      <trkpt lat="46.00303" lon="0.39182">
        <ele>128.2</ele>
        <time>2022-04-03T14:32:07Z</time>
      </trkpt>
      <trkpt lat="46.00306" lon="0.39178">
        <ele>128.2</ele>
        <time>2022-04-03T14:32:08Z</time>
      </trkpt>
      <trkpt lat="46.00308" lon="0.39174">
        <ele>128.4</ele>
        <time>2022-04-03T14:32:09Z</time>
      </trkpt>
      <trkpt lat="46.00311" lon="0.39169">
        <ele>128.4</ele>
        <time>2022-04-03T14:32:10Z</time>
      </trkpt>
      <trkpt lat="46.00314" lon="0.39164">
        <ele>128.6</ele>
        <time>2022-04-03T14:32:11Z</time>
      </trkpt>
      <trkpt lat="46.00316" lon="0.39159">
        <ele>128.8</ele>
        <time>2022-04-03T14:32:12Z</time>
      </trkpt>
      <trkpt lat="46.00319" lon="0.39155">
        <ele>129</ele>
        <time>2022-04-03T14:32:13Z</time>
      </trkpt>
      <trkpt lat="46.00321" lon="0.3915">
        <ele>128.8</ele>
        <time>2022-04-03T14:32:14Z</time>
      </trkpt>
      <trkpt lat="46.00324" lon="0.39145">
        <ele>128.8</ele>
        <time>2022-04-03T14:32:15Z</time>
      </trkpt>
      <trkpt lat="46.00326" lon="0.3914">
        <ele>129</ele>
        <time>2022-04-03T14:32:16Z</time>
      </trkpt>
      <trkpt lat="46.00329" lon="0.39135">
        <ele>128.8</ele>
        <time>2022-04-03T14:32:17Z</time>
      </trkpt>
      <trkpt lat="46.00331" lon="0.39129">
        <ele>128.8</ele>
        <time>2022-04-03T14:32:18Z</time>
      </trkpt>
      <trkpt lat="46.00334" lon="0.39123">
        <ele>129</ele>
        <time>2022-04-03T14:32:19Z</time>
      </trkpt>
      <trkpt lat="46.00336" lon="0.39118">
        <ele>129</ele>
        <time>2022-04-03T14:32:20Z</time>
      </trkpt>
      <trkpt lat="46.00339" lon="0.39112">
        <ele>129</ele>
        <time>2022-04-03T14:32:21Z</time>
      </trkpt>
      <trkpt lat="46.00341" lon="0.39106">
        <ele>129.2</ele>
        <time>2022-04-03T14:32:22Z</time>
      </trkpt>
      <trkpt lat="46.00343" lon="0.391">
        <ele>129.2</ele>
        <time>2022-04-03T14:32:23Z</time>
      </trkpt>
      <trkpt lat="46.00346" lon="0.39094">
        <ele>129.2</ele>
        <time>2022-04-03T14:32:24Z</time>
      </trkpt>
      <trkpt lat="46.00349" lon="0.39088">
        <ele>129.2</ele>
        <time>2022-04-03T14:32:25Z</time>
      </trkpt>
      <trkpt lat="46.00352" lon="0.39083">
        <ele>129.4</ele>
        <time>2022-04-03T14:32:26Z</time>
      </trkpt>
      <trkpt lat="46.00355" lon="0.39078">
        <ele>129.2</ele>
        <time>2022-04-03T14:32:27Z</time>
      </trkpt>
      <trkpt lat="46.00358" lon="0.39074">
        <ele>129.4</ele>
        <time>2022-04-03T14:32:28Z</time>
      </trkpt>
      <trkpt lat="46.0036" lon="0.39069">
        <ele>129.4</ele>
        <time>2022-04-03T14:32:29Z</time>
      </trkpt>
      <trkpt lat="46.00363" lon="0.39064">
        <ele>129.4</ele>
        <time>2022-04-03T14:32:30Z</time>
      </trkpt>
      <trkpt lat="46.00365" lon="0.3906">
        <ele>129.4</ele>
        <time>2022-04-03T14:32:31Z</time>
      </trkpt>
      <trkpt lat="46.00368" lon="0.39055">
        <ele>129.4</ele>
        <time>2022-04-03T14:32:32Z</time>
      </trkpt>
      <trkpt lat="46.00371" lon="0.3905">
        <ele>129.4</ele>
        <time>2022-04-03T14:32:33Z</time>
      </trkpt>
      <trkpt lat="46.00374" lon="0.39046">
        <ele>129.4</ele>
        <time>2022-04-03T14:32:34Z</time>
      </trkpt>
      <trkpt lat="46.00377" lon="0.39041">
        <ele>129.4</ele>
        <time>2022-04-03T14:32:35Z</time>
      </trkpt>
      <trkpt lat="46.00379" lon="0.39036">
        <ele>129.4</ele>
        <time>2022-04-03T14:32:36Z</time>
      </trkpt>
      <trkpt lat="46.00381" lon="0.39031">
        <ele>129.4</ele>
        <time>2022-04-03T14:32:37Z</time>
      </trkpt>
      <trkpt lat="46.00384" lon="0.39026">
        <ele>129.4</ele>
        <time>2022-04-03T14:32:38Z</time>
      </trkpt>
      <trkpt lat="46.00387" lon="0.39021">
        <ele>129.4</ele>
        <time>2022-04-03T14:32:39Z</time>
      </trkpt>
      <trkpt lat="46.0039" lon="0.39015">
        <ele>129.4</ele>
        <time>2022-04-03T14:32:40Z</time>
      </trkpt>
      <trkpt lat="46.00393" lon="0.3901">
        <ele>129.4</ele>
        <time>2022-04-03T14:32:41Z</time>
      </trkpt>
      <trkpt lat="46.00395" lon="0.39005">
        <ele>129.4</ele>
        <time>2022-04-03T14:32:42Z</time>
      </trkpt>
      <trkpt lat="46.00398" lon="0.39">
        <ele>129.4</ele>
        <time>2022-04-03T14:32:43Z</time>
      </trkpt>
      <trkpt lat="46.00401" lon="0.38995">
        <ele>129.6</ele>
        <time>2022-04-03T14:32:44Z</time>
      </trkpt>
      <trkpt lat="46.00404" lon="0.3899">
        <ele>129.6</ele>
        <time>2022-04-03T14:32:45Z</time>
      </trkpt>
      <trkpt lat="46.00407" lon="0.38985">
        <ele>129.4</ele>
        <time>2022-04-03T14:32:46Z</time>
      </trkpt>
      <trkpt lat="46.0041" lon="0.3898">
        <ele>129.2</ele>
        <time>2022-04-03T14:32:47Z</time>
      </trkpt>
      <trkpt lat="46.00412" lon="0.38975">
        <ele>129.4</ele>
        <time>2022-04-03T14:32:48Z</time>
      </trkpt>
      <trkpt lat="46.00415" lon="0.38971">
        <ele>129.4</ele>
        <time>2022-04-03T14:32:49Z</time>
      </trkpt>
      <trkpt lat="46.00417" lon="0.38967">
        <ele>129.6</ele>
        <time>2022-04-03T14:32:50Z</time>
      </trkpt>
      <trkpt lat="46.0042" lon="0.38963">
        <ele>129.4</ele>
        <time>2022-04-03T14:32:51Z</time>
      </trkpt>
      <trkpt lat="46.00422" lon="0.38959">
        <ele>129.4</ele>
        <time>2022-04-03T14:32:52Z</time>
      </trkpt>
      <trkpt lat="46.00424" lon="0.38956">
        <ele>129.4</ele>
        <time>2022-04-03T14:32:53Z</time>
      </trkpt>
      <trkpt lat="46.00426" lon="0.38952">
        <ele>130</ele>
        <time>2022-04-03T14:32:54Z</time>
      </trkpt>
      <trkpt lat="46.00428" lon="0.38949">
        <ele>130.2</ele>
        <time>2022-04-03T14:32:55Z</time>
      </trkpt>
      <trkpt lat="46.0043" lon="0.38947">
        <ele>130.4</ele>
        <time>2022-04-03T14:32:56Z</time>
      </trkpt>
      <trkpt lat="46.00433" lon="0.38944">
        <ele>130.4</ele>
        <time>2022-04-03T14:32:57Z</time>
      </trkpt>
      <trkpt lat="46.00435" lon="0.38942">
        <ele>130.6</ele>
        <time>2022-04-03T14:32:58Z</time>
      </trkpt>
      <trkpt lat="46.00437" lon="0.3894">
        <ele>130.6</ele>
        <time>2022-04-03T14:32:59Z</time>
      </trkpt>
      <trkpt lat="46.00439" lon="0.38938">
        <ele>130.8</ele>
        <time>2022-04-03T14:33:00Z</time>
      </trkpt>
      <trkpt lat="46.00441" lon="0.38936">
        <ele>131</ele>
        <time>2022-04-03T14:33:01Z</time>
      </trkpt>
      <trkpt lat="46.00443" lon="0.38934">
        <ele>131</ele>
        <time>2022-04-03T14:33:02Z</time>
      </trkpt>
      <trkpt lat="46.00445" lon="0.38933">
        <ele>131.6</ele>
        <time>2022-04-03T14:33:03Z</time>
      </trkpt>
      <trkpt lat="46.00447" lon="0.38931">
        <ele>131.6</ele>
        <time>2022-04-03T14:33:04Z</time>
      </trkpt>
      <trkpt lat="46.00448" lon="0.38929">
        <ele>132</ele>
        <time>2022-04-03T14:33:05Z</time>
      </trkpt>
      <trkpt lat="46.00451" lon="0.38928">
        <ele>132.4</ele>
        <time>2022-04-03T14:33:06Z</time>
      </trkpt>
      <trkpt lat="46.00453" lon="0.38926">
        <ele>132.6</ele>
        <time>2022-04-03T14:33:07Z</time>
      </trkpt>
      <trkpt lat="46.00455" lon="0.38924">
        <ele>132.6</ele>
        <time>2022-04-03T14:33:08Z</time>
      </trkpt>
      <trkpt lat="46.00457" lon="0.38923">
        <ele>132.6</ele>
        <time>2022-04-03T14:33:09Z</time>
      </trkpt>
      <trkpt lat="46.00459" lon="0.38922">
        <ele>132.8</ele>
        <time>2022-04-03T14:33:10Z</time>
      </trkpt>
      <trkpt lat="46.00462" lon="0.3892">
        <ele>132.8</ele>
        <time>2022-04-03T14:33:11Z</time>
      </trkpt>
      <trkpt lat="46.00464" lon="0.38918">
        <ele>133</ele>
        <time>2022-04-03T14:33:12Z</time>
      </trkpt>
      <trkpt lat="46.00466" lon="0.38917">
        <ele>133</ele>
        <time>2022-04-03T14:33:13Z</time>
      </trkpt>
      <trkpt lat="46.00469" lon="0.38915">
        <ele>133.2</ele>
        <time>2022-04-03T14:33:14Z</time>
      </trkpt>
      <trkpt lat="46.00471" lon="0.38913">
        <ele>133.4</ele>
        <time>2022-04-03T14:33:15Z</time>
      </trkpt>
      <trkpt lat="46.00474" lon="0.38912">
        <ele>134</ele>
        <time>2022-04-03T14:33:16Z</time>
      </trkpt>
      <trkpt lat="46.00476" lon="0.3891">
        <ele>134.2</ele>
        <time>2022-04-03T14:33:17Z</time>
      </trkpt>
      <trkpt lat="46.00478" lon="0.38908">
        <ele>134.4</ele>
        <time>2022-04-03T14:33:18Z</time>
      </trkpt>
      <trkpt lat="46.00481" lon="0.38907">
        <ele>134.4</ele>
        <time>2022-04-03T14:33:19Z</time>
      </trkpt>
      <trkpt lat="46.00484" lon="0.38905">
        <ele>134.2</ele>
        <time>2022-04-03T14:33:20Z</time>
      </trkpt>
      <trkpt lat="46.00486" lon="0.38904">
        <ele>134.4</ele>
        <time>2022-04-03T14:33:21Z</time>
      </trkpt>
      <trkpt lat="46.00489" lon="0.38903">
        <ele>134.4</ele>
        <time>2022-04-03T14:33:22Z</time>
      </trkpt>
      <trkpt lat="46.00492" lon="0.38901">
        <ele>134.4</ele>
        <time>2022-04-03T14:33:23Z</time>
      </trkpt>
      <trkpt lat="46.00495" lon="0.38899">
        <ele>134.6</ele>
        <time>2022-04-03T14:33:24Z</time>
      </trkpt>
      <trkpt lat="46.00498" lon="0.38897">
        <ele>134.4</ele>
        <time>2022-04-03T14:33:25Z</time>
      </trkpt>
      <trkpt lat="46.00501" lon="0.38895">
        <ele>134.4</ele>
        <time>2022-04-03T14:33:26Z</time>
      </trkpt>
      <trkpt lat="46.00504" lon="0.38893">
        <ele>134.6</ele>
        <time>2022-04-03T14:33:27Z</time>
      </trkpt>
      <trkpt lat="46.00507" lon="0.38892">
        <ele>134.6</ele>
        <time>2022-04-03T14:33:28Z</time>
      </trkpt>
      <trkpt lat="46.0051" lon="0.3889">
        <ele>134.6</ele>
        <time>2022-04-03T14:33:29Z</time>
      </trkpt>
      <trkpt lat="46.00513" lon="0.38888">
        <ele>134.6</ele>
        <time>2022-04-03T14:33:30Z</time>
      </trkpt>
      <trkpt lat="46.00516" lon="0.38886">
        <ele>134.6</ele>
        <time>2022-04-03T14:33:31Z</time>
      </trkpt>
      <trkpt lat="46.00519" lon="0.38885">
        <ele>134.6</ele>
        <time>2022-04-03T14:33:32Z</time>
      </trkpt>
      <trkpt lat="46.00522" lon="0.38883">
        <ele>134.6</ele>
        <time>2022-04-03T14:33:33Z</time>
      </trkpt>
      <trkpt lat="46.00525" lon="0.38881">
        <ele>134.6</ele>
        <time>2022-04-03T14:33:34Z</time>
      </trkpt>
      <trkpt lat="46.00528" lon="0.38878">
        <ele>134.6</ele>
        <time>2022-04-03T14:33:35Z</time>
      </trkpt>
      <trkpt lat="46.00531" lon="0.38876">
        <ele>134.8</ele>
        <time>2022-04-03T14:33:36Z</time>
      </trkpt>
      <trkpt lat="46.00534" lon="0.38874">
        <ele>134.8</ele>
        <time>2022-04-03T14:33:37Z</time>
      </trkpt>
      <trkpt lat="46.00538" lon="0.38873">
        <ele>135</ele>
        <time>2022-04-03T14:33:38Z</time>
      </trkpt>
      <trkpt lat="46.00541" lon="0.38871">
        <ele>135</ele>
        <time>2022-04-03T14:33:39Z</time>
      </trkpt>
      <trkpt lat="46.00544" lon="0.38869">
        <ele>135.2</ele>
        <time>2022-04-03T14:33:40Z</time>
      </trkpt>
      <trkpt lat="46.00547" lon="0.38867">
        <ele>135.2</ele>
        <time>2022-04-03T14:33:41Z</time>
      </trkpt>
      <trkpt lat="46.0055" lon="0.38865">
        <ele>135.4</ele>
        <time>2022-04-03T14:33:42Z</time>
      </trkpt>
      <trkpt lat="46.00553" lon="0.38863">
        <ele>135.4</ele>
        <time>2022-04-03T14:33:43Z</time>
      </trkpt>
      <trkpt lat="46.00556" lon="0.38861">
        <ele>135.6</ele>
        <time>2022-04-03T14:33:44Z</time>
      </trkpt>
      <trkpt lat="46.00559" lon="0.3886">
        <ele>135.6</ele>
        <time>2022-04-03T14:33:45Z</time>
      </trkpt>
      <trkpt lat="46.00562" lon="0.38858">
        <ele>135.8</ele>
        <time>2022-04-03T14:33:46Z</time>
      </trkpt>
      <trkpt lat="46.00565" lon="0.38856">
        <ele>135.8</ele>
        <time>2022-04-03T14:33:47Z</time>
      </trkpt>
      <trkpt lat="46.00568" lon="0.38854">
        <ele>135.8</ele>
        <time>2022-04-03T14:33:48Z</time>
      </trkpt>
      <trkpt lat="46.00571" lon="0.38852">
        <ele>135.8</ele>
        <time>2022-04-03T14:33:49Z</time>
      </trkpt>
      <trkpt lat="46.00574" lon="0.3885">
        <ele>135.8</ele>
        <time>2022-04-03T14:33:50Z</time>
      </trkpt>
      <trkpt lat="46.00577" lon="0.38848">
        <ele>135.8</ele>
        <time>2022-04-03T14:33:51Z</time>
      </trkpt>
      <trkpt lat="46.0058" lon="0.38846">
        <ele>136</ele>
        <time>2022-04-03T14:33:52Z</time>
      </trkpt>
      <trkpt lat="46.00583" lon="0.38844">
        <ele>135.8</ele>
        <time>2022-04-03T14:33:53Z</time>
      </trkpt>
      <trkpt lat="46.00586" lon="0.38842">
        <ele>136</ele>
        <time>2022-04-03T14:33:54Z</time>
      </trkpt>
      <trkpt lat="46.00589" lon="0.3884">
        <ele>136</ele>
        <time>2022-04-03T14:33:55Z</time>
      </trkpt>
      <trkpt lat="46.00592" lon="0.38838">
        <ele>136</ele>
        <time>2022-04-03T14:33:56Z</time>
      </trkpt>
      <trkpt lat="46.00595" lon="0.38837">
        <ele>136.2</ele>
        <time>2022-04-03T14:33:57Z</time>
      </trkpt>
      <trkpt lat="46.00597" lon="0.38835">
        <ele>136.2</ele>
        <time>2022-04-03T14:33:58Z</time>
      </trkpt>
      <trkpt lat="46.006" lon="0.38833">
        <ele>136.2</ele>
        <time>2022-04-03T14:33:59Z</time>
      </trkpt>
      <trkpt lat="46.00603" lon="0.38831">
        <ele>136.2</ele>
        <time>2022-04-03T14:34:00Z</time>
      </trkpt>
      <trkpt lat="46.00606" lon="0.38829">
        <ele>136.2</ele>
        <time>2022-04-03T14:34:01Z</time>
      </trkpt>
      <trkpt lat="46.00608" lon="0.38828">
        <ele>136.4</ele>
        <time>2022-04-03T14:34:02Z</time>
      </trkpt>
      <trkpt lat="46.00611" lon="0.38826">
        <ele>136.2</ele>
        <time>2022-04-03T14:34:03Z</time>
      </trkpt>
      <trkpt lat="46.00614" lon="0.38825">
        <ele>136.4</ele>
        <time>2022-04-03T14:34:04Z</time>
      </trkpt>
      <trkpt lat="46.00617" lon="0.38823">
        <ele>136.4</ele>
        <time>2022-04-03T14:34:05Z</time>
      </trkpt>
      <trkpt lat="46.0062" lon="0.38821">
        <ele>136.4</ele>
        <time>2022-04-03T14:34:06Z</time>
      </trkpt>
      <trkpt lat="46.00623" lon="0.3882">
        <ele>136.4</ele>
        <time>2022-04-03T14:34:07Z</time>
      </trkpt>
      <trkpt lat="46.00626" lon="0.38818">
        <ele>136.6</ele>
        <time>2022-04-03T14:34:08Z</time>
      </trkpt>
      <trkpt lat="46.00629" lon="0.38817">
        <ele>136.6</ele>
        <time>2022-04-03T14:34:09Z</time>
      </trkpt>
      <trkpt lat="46.00632" lon="0.38816">
        <ele>136.8</ele>
        <time>2022-04-03T14:34:10Z</time>
      </trkpt>
      <trkpt lat="46.00635" lon="0.38814">
        <ele>136.8</ele>
        <time>2022-04-03T14:34:11Z</time>
      </trkpt>
      <trkpt lat="46.00638" lon="0.38813">
        <ele>137</ele>
        <time>2022-04-03T14:34:12Z</time>
      </trkpt>
      <trkpt lat="46.00641" lon="0.38812">
        <ele>137</ele>
        <time>2022-04-03T14:34:13Z</time>
      </trkpt>
      <trkpt lat="46.00644" lon="0.38811">
        <ele>137</ele>
        <time>2022-04-03T14:34:14Z</time>
      </trkpt>
      <trkpt lat="46.00647" lon="0.3881">
        <ele>137.2</ele>
        <time>2022-04-03T14:34:15Z</time>
      </trkpt>
      <trkpt lat="46.0065" lon="0.38809">
        <ele>137.2</ele>
        <time>2022-04-03T14:34:16Z</time>
      </trkpt>
      <trkpt lat="46.00653" lon="0.38808">
        <ele>137.2</ele>
        <time>2022-04-03T14:34:17Z</time>
      </trkpt>
      <trkpt lat="46.00657" lon="0.38807">
        <ele>137.4</ele>
        <time>2022-04-03T14:34:18Z</time>
      </trkpt>
      <trkpt lat="46.0066" lon="0.38807">
        <ele>137.4</ele>
        <time>2022-04-03T14:34:19Z</time>
      </trkpt>
      <trkpt lat="46.00663" lon="0.38806">
        <ele>137.6</ele>
        <time>2022-04-03T14:34:20Z</time>
      </trkpt>
      <trkpt lat="46.00666" lon="0.38806">
        <ele>137.6</ele>
        <time>2022-04-03T14:34:21Z</time>
      </trkpt>
      <trkpt lat="46.00669" lon="0.38807">
        <ele>137.8</ele>
        <time>2022-04-03T14:34:22Z</time>
      </trkpt>
      <trkpt lat="46.00673" lon="0.38807">
        <ele>138</ele>
        <time>2022-04-03T14:34:23Z</time>
      </trkpt>
      <trkpt lat="46.00676" lon="0.38806">
        <ele>138</ele>
        <time>2022-04-03T14:34:24Z</time>
      </trkpt>
      <trkpt lat="46.00679" lon="0.38806">
        <ele>138</ele>
        <time>2022-04-03T14:34:25Z</time>
      </trkpt>
      <trkpt lat="46.00682" lon="0.38806">
        <ele>138</ele>
        <time>2022-04-03T14:34:26Z</time>
      </trkpt>
      <trkpt lat="46.00685" lon="0.38806">
        <ele>138</ele>
        <time>2022-04-03T14:34:27Z</time>
      </trkpt>
      <trkpt lat="46.00689" lon="0.38807">
        <ele>138</ele>
        <time>2022-04-03T14:34:28Z</time>
      </trkpt>
      <trkpt lat="46.00693" lon="0.38808">
        <ele>138</ele>
        <time>2022-04-03T14:34:29Z</time>
      </trkpt>
      <trkpt lat="46.00698" lon="0.38809">
        <ele>138.2</ele>
        <time>2022-04-03T14:34:30Z</time>
      </trkpt>
      <trkpt lat="46.00703" lon="0.38811">
        <ele>138</ele>
        <time>2022-04-03T14:34:31Z</time>
      </trkpt>
      <trkpt lat="46.00708" lon="0.38813">
        <ele>138</ele>
        <time>2022-04-03T14:34:32Z</time>
      </trkpt>
      <trkpt lat="46.00713" lon="0.38815">
        <ele>138</ele>
        <time>2022-04-03T14:34:33Z</time>
      </trkpt>
      <trkpt lat="46.00718" lon="0.38817">
        <ele>138.2</ele>
        <time>2022-04-03T14:34:34Z</time>
      </trkpt>
      <trkpt lat="46.00723" lon="0.3882">
        <ele>138</ele>
        <time>2022-04-03T14:34:35Z</time>
      </trkpt>
      <trkpt lat="46.00729" lon="0.38822">
        <ele>138</ele>
        <time>2022-04-03T14:34:36Z</time>
      </trkpt>
      <trkpt lat="46.00734" lon="0.38824">
        <ele>137.6</ele>
        <time>2022-04-03T14:34:37Z</time>
      </trkpt>
      <trkpt lat="46.00739" lon="0.38826">
        <ele>137.6</ele>
        <time>2022-04-03T14:34:38Z</time>
      </trkpt>
      <trkpt lat="46.00743" lon="0.38827">
        <ele>137.2</ele>
        <time>2022-04-03T14:34:39Z</time>
      </trkpt>
      <trkpt lat="46.00748" lon="0.38829">
        <ele>136.8</ele>
        <time>2022-04-03T14:34:40Z</time>
      </trkpt>
      <trkpt lat="46.00752" lon="0.38831">
        <ele>136.6</ele>
        <time>2022-04-03T14:34:41Z</time>
      </trkpt>
      <trkpt lat="46.00755" lon="0.38832">
        <ele>136.6</ele>
        <time>2022-04-03T14:34:42Z</time>
      </trkpt>
      <trkpt lat="46.00758" lon="0.38834">
        <ele>136.6</ele>
        <time>2022-04-03T14:34:43Z</time>
      </trkpt>
      <trkpt lat="46.00761" lon="0.38835">
        <ele>136.6</ele>
        <time>2022-04-03T14:34:44Z</time>
      </trkpt>
      <trkpt lat="46.00764" lon="0.38837">
        <ele>136.6</ele>
        <time>2022-04-03T14:34:45Z</time>
      </trkpt>
      <trkpt lat="46.00767" lon="0.38838">
        <ele>136.6</ele>
        <time>2022-04-03T14:34:46Z</time>
      </trkpt>
      <trkpt lat="46.0077" lon="0.38839">
        <ele>136.4</ele>
        <time>2022-04-03T14:34:47Z</time>
      </trkpt>
      <trkpt lat="46.00773" lon="0.38841">
        <ele>136.6</ele>
        <time>2022-04-03T14:34:48Z</time>
      </trkpt>
      <trkpt lat="46.00776" lon="0.38842">
        <ele>136.6</ele>
        <time>2022-04-03T14:34:49Z</time>
      </trkpt>
      <trkpt lat="46.00778" lon="0.38844">
        <ele>136.8</ele>
        <time>2022-04-03T14:34:50Z</time>
      </trkpt>
      <trkpt lat="46.00781" lon="0.38845">
        <ele>137</ele>
        <time>2022-04-03T14:34:51Z</time>
      </trkpt>
      <trkpt lat="46.00784" lon="0.38846">
        <ele>137</ele>
        <time>2022-04-03T14:34:52Z</time>
      </trkpt>
      <trkpt lat="46.00787" lon="0.38847">
        <ele>137.2</ele>
        <time>2022-04-03T14:34:53Z</time>
      </trkpt>
      <trkpt lat="46.00789" lon="0.38849">
        <ele>137.4</ele>
        <time>2022-04-03T14:34:54Z</time>
      </trkpt>
      <trkpt lat="46.00792" lon="0.3885">
        <ele>137.6</ele>
        <time>2022-04-03T14:34:55Z</time>
      </trkpt>
      <trkpt lat="46.00794" lon="0.38851">
        <ele>137.6</ele>
        <time>2022-04-03T14:34:56Z</time>
      </trkpt>
      <trkpt lat="46.00797" lon="0.38853">
        <ele>137.6</ele>
        <time>2022-04-03T14:34:57Z</time>
      </trkpt>
      <trkpt lat="46.008" lon="0.38854">
        <ele>137.6</ele>
        <time>2022-04-03T14:34:58Z</time>
      </trkpt>
      <trkpt lat="46.00802" lon="0.38855">
        <ele>137.6</ele>
        <time>2022-04-03T14:34:59Z</time>
      </trkpt>
      <trkpt lat="46.00805" lon="0.38856">
        <ele>137.8</ele>
        <time>2022-04-03T14:35:00Z</time>
      </trkpt>
      <trkpt lat="46.00807" lon="0.38857">
        <ele>138</ele>
        <time>2022-04-03T14:35:01Z</time>
      </trkpt>
      <trkpt lat="46.0081" lon="0.38858">
        <ele>138.2</ele>
        <time>2022-04-03T14:35:02Z</time>
      </trkpt>
      <trkpt lat="46.00812" lon="0.38859">
        <ele>138.4</ele>
        <time>2022-04-03T14:35:03Z</time>
      </trkpt>
      <trkpt lat="46.00814" lon="0.38861">
        <ele>138.8</ele>
        <time>2022-04-03T14:35:04Z</time>
      </trkpt>
      <trkpt lat="46.00816" lon="0.38862">
        <ele>138.8</ele>
        <time>2022-04-03T14:35:05Z</time>
      </trkpt>
      <trkpt lat="46.00818" lon="0.38863">
        <ele>139</ele>
        <time>2022-04-03T14:35:06Z</time>
      </trkpt>
      <trkpt lat="46.0082" lon="0.38864">
        <ele>139</ele>
        <time>2022-04-03T14:35:07Z</time>
      </trkpt>
      <trkpt lat="46.00823" lon="0.38864">
        <ele>139.2</ele>
        <time>2022-04-03T14:35:08Z</time>
      </trkpt>
      <trkpt lat="46.00825" lon="0.38865">
        <ele>139.2</ele>
        <time>2022-04-03T14:35:09Z</time>
      </trkpt>
      <trkpt lat="46.00827" lon="0.38866">
        <ele>139.2</ele>
        <time>2022-04-03T14:35:10Z</time>
      </trkpt>
      <trkpt lat="46.00829" lon="0.38867">
        <ele>139.2</ele>
        <time>2022-04-03T14:35:11Z</time>
      </trkpt>
      <trkpt lat="46.00832" lon="0.38868">
        <ele>139.4</ele>
        <time>2022-04-03T14:35:12Z</time>
      </trkpt>
      <trkpt lat="46.00834" lon="0.38869">
        <ele>139.8</ele>
        <time>2022-04-03T14:35:13Z</time>
      </trkpt>
      <trkpt lat="46.00836" lon="0.3887">
        <ele>139.8</ele>
        <time>2022-04-03T14:35:14Z</time>
      </trkpt>
      <trkpt lat="46.00839" lon="0.38871">
        <ele>140.2</ele>
        <time>2022-04-03T14:35:15Z</time>
      </trkpt>
      <trkpt lat="46.00841" lon="0.38872">
        <ele>140.2</ele>
        <time>2022-04-03T14:35:16Z</time>
      </trkpt>
      <trkpt lat="46.00844" lon="0.38872">
        <ele>140.4</ele>
        <time>2022-04-03T14:35:17Z</time>
      </trkpt>
      <trkpt lat="46.00847" lon="0.38873">
        <ele>140.6</ele>
        <time>2022-04-03T14:35:18Z</time>
      </trkpt>
      <trkpt lat="46.00849" lon="0.38874">
        <ele>140.6</ele>
        <time>2022-04-03T14:35:19Z</time>
      </trkpt>
      <trkpt lat="46.00852" lon="0.38874">
        <ele>140.8</ele>
        <time>2022-04-03T14:35:20Z</time>
      </trkpt>
      <trkpt lat="46.00854" lon="0.38875">
        <ele>140.8</ele>
        <time>2022-04-03T14:35:21Z</time>
      </trkpt>
      <trkpt lat="46.00857" lon="0.38875">
        <ele>141.2</ele>
        <time>2022-04-03T14:35:22Z</time>
      </trkpt>
      <trkpt lat="46.00859" lon="0.38876">
        <ele>141.4</ele>
        <time>2022-04-03T14:35:23Z</time>
      </trkpt>
      <trkpt lat="46.00862" lon="0.38876">
        <ele>141.4</ele>
        <time>2022-04-03T14:35:24Z</time>
      </trkpt>
      <trkpt lat="46.00864" lon="0.38876">
        <ele>141.6</ele>
        <time>2022-04-03T14:35:25Z</time>
      </trkpt>
      <trkpt lat="46.00867" lon="0.38876">
        <ele>141.8</ele>
        <time>2022-04-03T14:35:26Z</time>
      </trkpt>
      <trkpt lat="46.0087" lon="0.38876">
        <ele>142</ele>
        <time>2022-04-03T14:35:27Z</time>
      </trkpt>
      <trkpt lat="46.00872" lon="0.38876">
        <ele>142.2</ele>
        <time>2022-04-03T14:35:28Z</time>
      </trkpt>
      <trkpt lat="46.00876" lon="0.38875">
        <ele>142.2</ele>
        <time>2022-04-03T14:35:29Z</time>
      </trkpt>
      <trkpt lat="46.00879" lon="0.38875">
        <ele>142.2</ele>
        <time>2022-04-03T14:35:30Z</time>
      </trkpt>
      <trkpt lat="46.00882" lon="0.38874">
        <ele>142.2</ele>
        <time>2022-04-03T14:35:31Z</time>
      </trkpt>
      <trkpt lat="46.00886" lon="0.38874">
        <ele>142.2</ele>
        <time>2022-04-03T14:35:32Z</time>
      </trkpt>
      <trkpt lat="46.00889" lon="0.38873">
        <ele>142.2</ele>
        <time>2022-04-03T14:35:33Z</time>
      </trkpt>
      <trkpt lat="46.00893" lon="0.38872">
        <ele>142.2</ele>
        <time>2022-04-03T14:35:34Z</time>
      </trkpt>
      <trkpt lat="46.00897" lon="0.38872">
        <ele>142.2</ele>
        <time>2022-04-03T14:35:35Z</time>
      </trkpt>
      <trkpt lat="46.00902" lon="0.3887">
        <ele>142.4</ele>
        <time>2022-04-03T14:35:36Z</time>
      </trkpt>
      <trkpt lat="46.00906" lon="0.38869">
        <ele>142.2</ele>
        <time>2022-04-03T14:35:37Z</time>
      </trkpt>
      <trkpt lat="46.00911" lon="0.38868">
        <ele>142.2</ele>
        <time>2022-04-03T14:35:38Z</time>
      </trkpt>
      <trkpt lat="46.00915" lon="0.38867">
        <ele>142</ele>
        <time>2022-04-03T14:35:39Z</time>
      </trkpt>
      <trkpt lat="46.0092" lon="0.38866">
        <ele>142</ele>
        <time>2022-04-03T14:35:40Z</time>
      </trkpt>
      <trkpt lat="46.00925" lon="0.38864">
        <ele>141.8</ele>
        <time>2022-04-03T14:35:41Z</time>
      </trkpt>
      <trkpt lat="46.0093" lon="0.38863">
        <ele>141.6</ele>
        <time>2022-04-03T14:35:42Z</time>
      </trkpt>
      <trkpt lat="46.00936" lon="0.38862">
        <ele>141.6</ele>
        <time>2022-04-03T14:35:43Z</time>
      </trkpt>
      <trkpt lat="46.00941" lon="0.38859">
        <ele>141.4</ele>
        <time>2022-04-03T14:35:44Z</time>
      </trkpt>
      <trkpt lat="46.00945" lon="0.38856">
        <ele>141.2</ele>
        <time>2022-04-03T14:35:45Z</time>
      </trkpt>
      <trkpt lat="46.0095" lon="0.38853">
        <ele>141.2</ele>
        <time>2022-04-03T14:35:46Z</time>
      </trkpt>
      <trkpt lat="46.00954" lon="0.38849">
        <ele>141.2</ele>
        <time>2022-04-03T14:35:47Z</time>
      </trkpt>
      <trkpt lat="46.00957" lon="0.38844">
        <ele>141</ele>
        <time>2022-04-03T14:35:48Z</time>
      </trkpt>
      <trkpt lat="46.0096" lon="0.38839">
        <ele>141</ele>
        <time>2022-04-03T14:35:49Z</time>
      </trkpt>
      <trkpt lat="46.00962" lon="0.38833">
        <ele>140.6</ele>
        <time>2022-04-03T14:35:50Z</time>
      </trkpt>
      <trkpt lat="46.00964" lon="0.38827">
        <ele>140.6</ele>
        <time>2022-04-03T14:35:51Z</time>
      </trkpt>
      <trkpt lat="46.00966" lon="0.38822">
        <ele>140.4</ele>
        <time>2022-04-03T14:35:52Z</time>
      </trkpt>
      <trkpt lat="46.00968" lon="0.38817">
        <ele>140.4</ele>
        <time>2022-04-03T14:35:53Z</time>
      </trkpt>
      <trkpt lat="46.00969" lon="0.38811">
        <ele>140.6</ele>
        <time>2022-04-03T14:35:54Z</time>
      </trkpt>
      <trkpt lat="46.00971" lon="0.38806">
        <ele>140.6</ele>
        <time>2022-04-03T14:35:55Z</time>
      </trkpt>
      <trkpt lat="46.00972" lon="0.38801">
        <ele>140.6</ele>
        <time>2022-04-03T14:35:56Z</time>
      </trkpt>
      <trkpt lat="46.00974" lon="0.38795">
        <ele>140.4</ele>
        <time>2022-04-03T14:35:57Z</time>
      </trkpt>
      <trkpt lat="46.00975" lon="0.3879">
        <ele>140.6</ele>
        <time>2022-04-03T14:35:58Z</time>
      </trkpt>
      <trkpt lat="46.00977" lon="0.38785">
        <ele>140.6</ele>
        <time>2022-04-03T14:35:59Z</time>
      </trkpt>
      <trkpt lat="46.00978" lon="0.3878">
        <ele>140.4</ele>
        <time>2022-04-03T14:36:00Z</time>
      </trkpt>
      <trkpt lat="46.00979" lon="0.38775">
        <ele>140.4</ele>
        <time>2022-04-03T14:36:01Z</time>
      </trkpt>
      <trkpt lat="46.0098" lon="0.3877">
        <ele>140.6</ele>
        <time>2022-04-03T14:36:02Z</time>
      </trkpt>
      <trkpt lat="46.00981" lon="0.38766">
        <ele>140.6</ele>
        <time>2022-04-03T14:36:03Z</time>
      </trkpt>
      <trkpt lat="46.00982" lon="0.38761">
        <ele>140.8</ele>
        <time>2022-04-03T14:36:04Z</time>
      </trkpt>
      <trkpt lat="46.00983" lon="0.38756">
        <ele>141</ele>
        <time>2022-04-03T14:36:05Z</time>
      </trkpt>
      <trkpt lat="46.00984" lon="0.38752">
        <ele>141</ele>
        <time>2022-04-03T14:36:06Z</time>
      </trkpt>
      <trkpt lat="46.00985" lon="0.38747">
        <ele>141</ele>
        <time>2022-04-03T14:36:07Z</time>
      </trkpt>
      <trkpt lat="46.00986" lon="0.38742">
        <ele>141.2</ele>
        <time>2022-04-03T14:36:08Z</time>
      </trkpt>
      <trkpt lat="46.00988" lon="0.38738">
        <ele>141.2</ele>
        <time>2022-04-03T14:36:09Z</time>
      </trkpt>
      <trkpt lat="46.00989" lon="0.38734">
        <ele>141.2</ele>
        <time>2022-04-03T14:36:10Z</time>
      </trkpt>
      <trkpt lat="46.00991" lon="0.38729">
        <ele>141.4</ele>
        <time>2022-04-03T14:36:11Z</time>
      </trkpt>
      <trkpt lat="46.00993" lon="0.38725">
        <ele>141.4</ele>
        <time>2022-04-03T14:36:12Z</time>
      </trkpt>
      <trkpt lat="46.00994" lon="0.38721">
        <ele>141.4</ele>
        <time>2022-04-03T14:36:13Z</time>
      </trkpt>
      <trkpt lat="46.00995" lon="0.38717">
        <ele>141.4</ele>
        <time>2022-04-03T14:36:14Z</time>
      </trkpt>
      <trkpt lat="46.00996" lon="0.38712">
        <ele>141.6</ele>
        <time>2022-04-03T14:36:15Z</time>
      </trkpt>
      <trkpt lat="46.00997" lon="0.38708">
        <ele>141.6</ele>
        <time>2022-04-03T14:36:16Z</time>
      </trkpt>
      <trkpt lat="46.00999" lon="0.38704">
        <ele>142</ele>
        <time>2022-04-03T14:36:17Z</time>
      </trkpt>
      <trkpt lat="46.01" lon="0.387">
        <ele>142</ele>
        <time>2022-04-03T14:36:18Z</time>
      </trkpt>
      <trkpt lat="46.01001" lon="0.38696">
        <ele>142</ele>
        <time>2022-04-03T14:36:19Z</time>
      </trkpt>
      <trkpt lat="46.01002" lon="0.38692">
        <ele>142</ele>
        <time>2022-04-03T14:36:20Z</time>
      </trkpt>
      <trkpt lat="46.01003" lon="0.38687">
        <ele>142.2</ele>
        <time>2022-04-03T14:36:21Z</time>
      </trkpt>
      <trkpt lat="46.01004" lon="0.38683">
        <ele>142.4</ele>
        <time>2022-04-03T14:36:22Z</time>
      </trkpt>
      <trkpt lat="46.01006" lon="0.38679">
        <ele>142.4</ele>
        <time>2022-04-03T14:36:23Z</time>
      </trkpt>
      <trkpt lat="46.01007" lon="0.38675">
        <ele>142.4</ele>
        <time>2022-04-03T14:36:24Z</time>
      </trkpt>
      <trkpt lat="46.01008" lon="0.38671">
        <ele>142.6</ele>
        <time>2022-04-03T14:36:25Z</time>
      </trkpt>
      <trkpt lat="46.0101" lon="0.38667">
        <ele>142.8</ele>
        <time>2022-04-03T14:36:26Z</time>
      </trkpt>
      <trkpt lat="46.01011" lon="0.38663">
        <ele>142.8</ele>
        <time>2022-04-03T14:36:27Z</time>
      </trkpt>
      <trkpt lat="46.01012" lon="0.38658">
        <ele>142.8</ele>
        <time>2022-04-03T14:36:28Z</time>
      </trkpt>
      <trkpt lat="46.01013" lon="0.38654">
        <ele>143</ele>
        <time>2022-04-03T14:36:29Z</time>
      </trkpt>
      <trkpt lat="46.01014" lon="0.3865">
        <ele>143</ele>
        <time>2022-04-03T14:36:30Z</time>
      </trkpt>
      <trkpt lat="46.01015" lon="0.38646">
        <ele>143</ele>
        <time>2022-04-03T14:36:31Z</time>
      </trkpt>
      <trkpt lat="46.01016" lon="0.38642">
        <ele>143</ele>
        <time>2022-04-03T14:36:32Z</time>
      </trkpt>
      <trkpt lat="46.01017" lon="0.38638">
        <ele>143.2</ele>
        <time>2022-04-03T14:36:33Z</time>
      </trkpt>
      <trkpt lat="46.01018" lon="0.38634">
        <ele>143.2</ele>
        <time>2022-04-03T14:36:34Z</time>
      </trkpt>
      <trkpt lat="46.01019" lon="0.3863">
        <ele>143.2</ele>
        <time>2022-04-03T14:36:35Z</time>
      </trkpt>
      <trkpt lat="46.01021" lon="0.38626">
        <ele>143.2</ele>
        <time>2022-04-03T14:36:36Z</time>
      </trkpt>
      <trkpt lat="46.01022" lon="0.38621">
        <ele>143.4</ele>
        <time>2022-04-03T14:36:37Z</time>
      </trkpt>
      <trkpt lat="46.01023" lon="0.38617">
        <ele>143.4</ele>
        <time>2022-04-03T14:36:38Z</time>
      </trkpt>
      <trkpt lat="46.01024" lon="0.38612">
        <ele>143.6</ele>
        <time>2022-04-03T14:36:39Z</time>
      </trkpt>
      <trkpt lat="46.01025" lon="0.38608">
        <ele>143.6</ele>
        <time>2022-04-03T14:36:40Z</time>
      </trkpt>
      <trkpt lat="46.01027" lon="0.38603">
        <ele>143.8</ele>
        <time>2022-04-03T14:36:41Z</time>
      </trkpt>
      <trkpt lat="46.01028" lon="0.38598">
        <ele>143.8</ele>
        <time>2022-04-03T14:36:42Z</time>
      </trkpt>
      <trkpt lat="46.01029" lon="0.38593">
        <ele>143.8</ele>
        <time>2022-04-03T14:36:43Z</time>
      </trkpt>
      <trkpt lat="46.01031" lon="0.38588">
        <ele>144.4</ele>
        <time>2022-04-03T14:36:44Z</time>
      </trkpt>
      <trkpt lat="46.01032" lon="0.38584">
        <ele>144.6</ele>
        <time>2022-04-03T14:36:45Z</time>
      </trkpt>
      <trkpt lat="46.01033" lon="0.38579">
        <ele>145</ele>
        <time>2022-04-03T14:36:46Z</time>
      </trkpt>
      <trkpt lat="46.01035" lon="0.38574">
        <ele>145.2</ele>
        <time>2022-04-03T14:36:47Z</time>
      </trkpt>
      <trkpt lat="46.01036" lon="0.38569">
        <ele>145.2</ele>
        <time>2022-04-03T14:36:48Z</time>
      </trkpt>
      <trkpt lat="46.01037" lon="0.38564">
        <ele>145.4</ele>
        <time>2022-04-03T14:36:49Z</time>
      </trkpt>
      <trkpt lat="46.01039" lon="0.38559">
        <ele>145.4</ele>
        <time>2022-04-03T14:36:50Z</time>
      </trkpt>
      <trkpt lat="46.0104" lon="0.38554">
        <ele>145.4</ele>
        <time>2022-04-03T14:36:51Z</time>
      </trkpt>
      <trkpt lat="46.01042" lon="0.3855">
        <ele>145.8</ele>
        <time>2022-04-03T14:36:52Z</time>
      </trkpt>
      <trkpt lat="46.01044" lon="0.38545">
        <ele>145.6</ele>
        <time>2022-04-03T14:36:53Z</time>
      </trkpt>
      <trkpt lat="46.01046" lon="0.38541">
        <ele>145.6</ele>
        <time>2022-04-03T14:36:54Z</time>
      </trkpt>
      <trkpt lat="46.01048" lon="0.38537">
        <ele>145.8</ele>
        <time>2022-04-03T14:36:55Z</time>
      </trkpt>
      <trkpt lat="46.01051" lon="0.38533">
        <ele>145.6</ele>
        <time>2022-04-03T14:36:56Z</time>
      </trkpt>
      <trkpt lat="46.01053" lon="0.38529">
        <ele>145.8</ele>
        <time>2022-04-03T14:36:57Z</time>
      </trkpt>
      <trkpt lat="46.01055" lon="0.38525">
        <ele>145.8</ele>
        <time>2022-04-03T14:36:58Z</time>
      </trkpt>
      <trkpt lat="46.01058" lon="0.38521">
        <ele>146</ele>
        <time>2022-04-03T14:36:59Z</time>
      </trkpt>
      <trkpt lat="46.01061" lon="0.38517">
        <ele>146</ele>
        <time>2022-04-03T14:37:00Z</time>
      </trkpt>
      <trkpt lat="46.01063" lon="0.38514">
        <ele>146</ele>
        <time>2022-04-03T14:37:01Z</time>
      </trkpt>
      <trkpt lat="46.01066" lon="0.3851">
        <ele>146</ele>
        <time>2022-04-03T14:37:02Z</time>
      </trkpt>
      <trkpt lat="46.01069" lon="0.38507">
        <ele>146.2</ele>
        <time>2022-04-03T14:37:03Z</time>
      </trkpt>
      <trkpt lat="46.01072" lon="0.38504">
        <ele>146</ele>
        <time>2022-04-03T14:37:04Z</time>
      </trkpt>
      <trkpt lat="46.01075" lon="0.38501">
        <ele>146</ele>
        <time>2022-04-03T14:37:05Z</time>
      </trkpt>
      <trkpt lat="46.01078" lon="0.38498">
        <ele>146.2</ele>
        <time>2022-04-03T14:37:06Z</time>
      </trkpt>
      <trkpt lat="46.01081" lon="0.38495">
        <ele>146</ele>
        <time>2022-04-03T14:37:07Z</time>
      </trkpt>
      <trkpt lat="46.01085" lon="0.38492">
        <ele>146</ele>
        <time>2022-04-03T14:37:08Z</time>
      </trkpt>
      <trkpt lat="46.01088" lon="0.38489">
        <ele>146.2</ele>
        <time>2022-04-03T14:37:09Z</time>
      </trkpt>
      <trkpt lat="46.01091" lon="0.38486">
        <ele>146.2</ele>
        <time>2022-04-03T14:37:10Z</time>
      </trkpt>
      <trkpt lat="46.01095" lon="0.38483">
        <ele>146</ele>
        <time>2022-04-03T14:37:11Z</time>
      </trkpt>
      <trkpt lat="46.01098" lon="0.3848">
        <ele>146.2</ele>
        <time>2022-04-03T14:37:12Z</time>
      </trkpt>
      <trkpt lat="46.01101" lon="0.38478">
        <ele>146.2</ele>
        <time>2022-04-03T14:37:13Z</time>
      </trkpt>
      <trkpt lat="46.01105" lon="0.38475">
        <ele>146.2</ele>
        <time>2022-04-03T14:37:14Z</time>
      </trkpt>
      <trkpt lat="46.01109" lon="0.38473">
        <ele>146.2</ele>
        <time>2022-04-03T14:37:15Z</time>
      </trkpt>
      <trkpt lat="46.01112" lon="0.3847">
        <ele>146.2</ele>
        <time>2022-04-03T14:37:16Z</time>
      </trkpt>
      <trkpt lat="46.01115" lon="0.38467">
        <ele>146.2</ele>
        <time>2022-04-03T14:37:17Z</time>
      </trkpt>
      <trkpt lat="46.01119" lon="0.38465">
        <ele>146.2</ele>
        <time>2022-04-03T14:37:18Z</time>
      </trkpt>
      <trkpt lat="46.01122" lon="0.38462">
        <ele>146</ele>
        <time>2022-04-03T14:37:19Z</time>
      </trkpt>
      <trkpt lat="46.01126" lon="0.3846">
        <ele>146.2</ele>
        <time>2022-04-03T14:37:20Z</time>
      </trkpt>
      <trkpt lat="46.01129" lon="0.38458">
        <ele>146</ele>
        <time>2022-04-03T14:37:21Z</time>
      </trkpt>
      <trkpt lat="46.01133" lon="0.38455">
        <ele>146</ele>
        <time>2022-04-03T14:37:22Z</time>
      </trkpt>
      <trkpt lat="46.01137" lon="0.38452">
        <ele>146</ele>
        <time>2022-04-03T14:37:23Z</time>
      </trkpt>
      <trkpt lat="46.0114" lon="0.3845">
        <ele>146.2</ele>
        <time>2022-04-03T14:37:24Z</time>
      </trkpt>
      <trkpt lat="46.01144" lon="0.38447">
        <ele>146</ele>
        <time>2022-04-03T14:37:25Z</time>
      </trkpt>
      <trkpt lat="46.01147" lon="0.38444">
        <ele>146</ele>
        <time>2022-04-03T14:37:26Z</time>
      </trkpt>
      <trkpt lat="46.01151" lon="0.38441">
        <ele>146</ele>
        <time>2022-04-03T14:37:27Z</time>
      </trkpt>
      <trkpt lat="46.01155" lon="0.38439">
        <ele>146</ele>
        <time>2022-04-03T14:37:28Z</time>
      </trkpt>
      <trkpt lat="46.01159" lon="0.38436">
        <ele>146.2</ele>
        <time>2022-04-03T14:37:29Z</time>
      </trkpt>
      <trkpt lat="46.01162" lon="0.38433">
        <ele>146</ele>
        <time>2022-04-03T14:37:30Z</time>
      </trkpt>
      <trkpt lat="46.01166" lon="0.3843">
        <ele>146</ele>
        <time>2022-04-03T14:37:31Z</time>
      </trkpt>
      <trkpt lat="46.0117" lon="0.38427">
        <ele>146.2</ele>
        <time>2022-04-03T14:37:32Z</time>
      </trkpt>
      <trkpt lat="46.01174" lon="0.38425">
        <ele>146</ele>
        <time>2022-04-03T14:37:33Z</time>
      </trkpt>
      <trkpt lat="46.01177" lon="0.38422">
        <ele>146.2</ele>
        <time>2022-04-03T14:37:34Z</time>
      </trkpt>
      <trkpt lat="46.01181" lon="0.38419">
        <ele>146</ele>
        <time>2022-04-03T14:37:35Z</time>
      </trkpt>
      <trkpt lat="46.01184" lon="0.38417">
        <ele>146.2</ele>
        <time>2022-04-03T14:37:36Z</time>
      </trkpt>
      <trkpt lat="46.01188" lon="0.38415">
        <ele>146.2</ele>
        <time>2022-04-03T14:37:37Z</time>
      </trkpt>
      <trkpt lat="46.01191" lon="0.38412">
        <ele>146</ele>
        <time>2022-04-03T14:37:38Z</time>
      </trkpt>
      <trkpt lat="46.01194" lon="0.3841">
        <ele>146</ele>
        <time>2022-04-03T14:37:39Z</time>
      </trkpt>
      <trkpt lat="46.01198" lon="0.38408">
        <ele>146.2</ele>
        <time>2022-04-03T14:37:40Z</time>
      </trkpt>
      <trkpt lat="46.01201" lon="0.38406">
        <ele>146.2</ele>
        <time>2022-04-03T14:37:41Z</time>
      </trkpt>
      <trkpt lat="46.01204" lon="0.38403">
        <ele>146.2</ele>
        <time>2022-04-03T14:37:42Z</time>
      </trkpt>
      <trkpt lat="46.01206" lon="0.38401">
        <ele>146.2</ele>
        <time>2022-04-03T14:37:43Z</time>
      </trkpt>
      <trkpt lat="46.01209" lon="0.38399">
        <ele>146</ele>
        <time>2022-04-03T14:37:44Z</time>
      </trkpt>
      <trkpt lat="46.01212" lon="0.38397">
        <ele>146.2</ele>
        <time>2022-04-03T14:37:45Z</time>
      </trkpt>
      <trkpt lat="46.01214" lon="0.38396">
        <ele>146.2</ele>
        <time>2022-04-03T14:37:46Z</time>
      </trkpt>
      <trkpt lat="46.01217" lon="0.38394">
        <ele>146.4</ele>
        <time>2022-04-03T14:37:47Z</time>
      </trkpt>
      <trkpt lat="46.01219" lon="0.38392">
        <ele>146.8</ele>
        <time>2022-04-03T14:37:48Z</time>
      </trkpt>
      <trkpt lat="46.01221" lon="0.3839">
        <ele>146.8</ele>
        <time>2022-04-03T14:37:49Z</time>
      </trkpt>
      <trkpt lat="46.01223" lon="0.38389">
        <ele>147.2</ele>
        <time>2022-04-03T14:37:50Z</time>
      </trkpt>
      <trkpt lat="46.01225" lon="0.38388">
        <ele>147.4</ele>
        <time>2022-04-03T14:37:51Z</time>
      </trkpt>
      <trkpt lat="46.01227" lon="0.38387">
        <ele>147.6</ele>
        <time>2022-04-03T14:37:52Z</time>
      </trkpt>
      <trkpt lat="46.01229" lon="0.38386">
        <ele>148</ele>
        <time>2022-04-03T14:37:53Z</time>
      </trkpt>
      <trkpt lat="46.01231" lon="0.38385">
        <ele>148.2</ele>
        <time>2022-04-03T14:37:54Z</time>
      </trkpt>
      <trkpt lat="46.01233" lon="0.38384">
        <ele>148.6</ele>
        <time>2022-04-03T14:37:55Z</time>
      </trkpt>
      <trkpt lat="46.01235" lon="0.38383">
        <ele>148.8</ele>
        <time>2022-04-03T14:37:56Z</time>
      </trkpt>
      <trkpt lat="46.01237" lon="0.38381">
        <ele>149.2</ele>
        <time>2022-04-03T14:37:57Z</time>
      </trkpt>
      <trkpt lat="46.01239" lon="0.3838">
        <ele>149.4</ele>
        <time>2022-04-03T14:37:58Z</time>
      </trkpt>
      <trkpt lat="46.01241" lon="0.38379">
        <ele>149.4</ele>
        <time>2022-04-03T14:37:59Z</time>
      </trkpt>
      <trkpt lat="46.01243" lon="0.38377">
        <ele>149.6</ele>
        <time>2022-04-03T14:38:00Z</time>
      </trkpt>
      <trkpt lat="46.01244" lon="0.38376">
        <ele>149.8</ele>
        <time>2022-04-03T14:38:01Z</time>
      </trkpt>
      <trkpt lat="46.01246" lon="0.38374">
        <ele>149.8</ele>
        <time>2022-04-03T14:38:02Z</time>
      </trkpt>
      <trkpt lat="46.01248" lon="0.38372">
        <ele>149.8</ele>
        <time>2022-04-03T14:38:03Z</time>
      </trkpt>
      <trkpt lat="46.0125" lon="0.3837">
        <ele>150</ele>
        <time>2022-04-03T14:38:04Z</time>
      </trkpt>
      <trkpt lat="46.01252" lon="0.38368">
        <ele>150</ele>
        <time>2022-04-03T14:38:05Z</time>
      </trkpt>
      <trkpt lat="46.01254" lon="0.38366">
        <ele>150.4</ele>
        <time>2022-04-03T14:38:06Z</time>
      </trkpt>
      <trkpt lat="46.01256" lon="0.38364">
        <ele>150.8</ele>
        <time>2022-04-03T14:38:07Z</time>
      </trkpt>
      <trkpt lat="46.01257" lon="0.38362">
        <ele>150.8</ele>
        <time>2022-04-03T14:38:08Z</time>
      </trkpt>
      <trkpt lat="46.01259" lon="0.3836">
        <ele>151</ele>
        <time>2022-04-03T14:38:09Z</time>
      </trkpt>
      <trkpt lat="46.01261" lon="0.38358">
        <ele>151.2</ele>
        <time>2022-04-03T14:38:10Z</time>
      </trkpt>
      <trkpt lat="46.01263" lon="0.38355">
        <ele>151.6</ele>
        <time>2022-04-03T14:38:11Z</time>
      </trkpt>
      <trkpt lat="46.01265" lon="0.38353">
        <ele>151.6</ele>
        <time>2022-04-03T14:38:12Z</time>
      </trkpt>
      <trkpt lat="46.01267" lon="0.3835">
        <ele>151.8</ele>
        <time>2022-04-03T14:38:13Z</time>
      </trkpt>
      <trkpt lat="46.01268" lon="0.38348">
        <ele>151.8</ele>
        <time>2022-04-03T14:38:14Z</time>
      </trkpt>
      <trkpt lat="46.0127" lon="0.38345">
        <ele>152</ele>
        <time>2022-04-03T14:38:15Z</time>
      </trkpt>
      <trkpt lat="46.01272" lon="0.38343">
        <ele>152.2</ele>
        <time>2022-04-03T14:38:16Z</time>
      </trkpt>
      <trkpt lat="46.01274" lon="0.3834">
        <ele>152.2</ele>
        <time>2022-04-03T14:38:17Z</time>
      </trkpt>
      <trkpt lat="46.01275" lon="0.38338">
        <ele>152.4</ele>
        <time>2022-04-03T14:38:18Z</time>
      </trkpt>
      <trkpt lat="46.01277" lon="0.38335">
        <ele>152.6</ele>
        <time>2022-04-03T14:38:19Z</time>
      </trkpt>
      <trkpt lat="46.01278" lon="0.38332">
        <ele>152.6</ele>
        <time>2022-04-03T14:38:20Z</time>
      </trkpt>
      <trkpt lat="46.01279" lon="0.38329">
        <ele>152.8</ele>
        <time>2022-04-03T14:38:21Z</time>
      </trkpt>
      <trkpt lat="46.01281" lon="0.38325">
        <ele>153.2</ele>
        <time>2022-04-03T14:38:22Z</time>
      </trkpt>
      <trkpt lat="46.01283" lon="0.38322">
        <ele>153.2</ele>
        <time>2022-04-03T14:38:23Z</time>
      </trkpt>
      <trkpt lat="46.01284" lon="0.38319">
        <ele>153.2</ele>
        <time>2022-04-03T14:38:24Z</time>
      </trkpt>
      <trkpt lat="46.01286" lon="0.38315">
        <ele>153.4</ele>
        <time>2022-04-03T14:38:25Z</time>
      </trkpt>
      <trkpt lat="46.01288" lon="0.38312">
        <ele>153.8</ele>
        <time>2022-04-03T14:38:26Z</time>
      </trkpt>
      <trkpt lat="46.01289" lon="0.38308">
        <ele>154</ele>
        <time>2022-04-03T14:38:27Z</time>
      </trkpt>
      <trkpt lat="46.0129" lon="0.38305">
        <ele>154</ele>
        <time>2022-04-03T14:38:28Z</time>
      </trkpt>
      <trkpt lat="46.01292" lon="0.38302">
        <ele>154.2</ele>
        <time>2022-04-03T14:38:29Z</time>
      </trkpt>
      <trkpt lat="46.01293" lon="0.38298">
        <ele>154.2</ele>
        <time>2022-04-03T14:38:30Z</time>
      </trkpt>
      <trkpt lat="46.01294" lon="0.38295">
        <ele>154.4</ele>
        <time>2022-04-03T14:38:31Z</time>
      </trkpt>
      <trkpt lat="46.01295" lon="0.38293">
        <ele>154.4</ele>
        <time>2022-04-03T14:38:32Z</time>
      </trkpt>
      <trkpt lat="46.01296" lon="0.3829">
        <ele>154.4</ele>
        <time>2022-04-03T14:38:33Z</time>
      </trkpt>
      <trkpt lat="46.01297" lon="0.38287">
        <ele>154.4</ele>
        <time>2022-04-03T14:38:34Z</time>
      </trkpt>
      <trkpt lat="46.01298" lon="0.38284">
        <ele>154.4</ele>
        <time>2022-04-03T14:38:35Z</time>
      </trkpt>
      <trkpt lat="46.01299" lon="0.38281">
        <ele>154.6</ele>
        <time>2022-04-03T14:38:36Z</time>
      </trkpt>
      <trkpt lat="46.013" lon="0.38279">
        <ele>154.6</ele>
        <time>2022-04-03T14:38:37Z</time>
      </trkpt>
      <trkpt lat="46.01301" lon="0.38276">
        <ele>154.8</ele>
        <time>2022-04-03T14:38:38Z</time>
      </trkpt>
      <trkpt lat="46.01302" lon="0.38273">
        <ele>154.6</ele>
        <time>2022-04-03T14:38:39Z</time>
      </trkpt>
      <trkpt lat="46.01303" lon="0.38269">
        <ele>154.8</ele>
        <time>2022-04-03T14:38:40Z</time>
      </trkpt>
      <trkpt lat="46.01305" lon="0.38266">
        <ele>154.8</ele>
        <time>2022-04-03T14:38:41Z</time>
      </trkpt>
      <trkpt lat="46.01306" lon="0.38262">
        <ele>154.8</ele>
        <time>2022-04-03T14:38:42Z</time>
      </trkpt>
      <trkpt lat="46.01307" lon="0.38258">
        <ele>154.8</ele>
        <time>2022-04-03T14:38:43Z</time>
      </trkpt>
      <trkpt lat="46.01309" lon="0.38254">
        <ele>154.8</ele>
        <time>2022-04-03T14:38:44Z</time>
      </trkpt>
      <trkpt lat="46.0131" lon="0.3825">
        <ele>154.8</ele>
        <time>2022-04-03T14:38:45Z</time>
      </trkpt>
      <trkpt lat="46.01312" lon="0.38246">
        <ele>155</ele>
        <time>2022-04-03T14:38:46Z</time>
      </trkpt>
      <trkpt lat="46.01314" lon="0.38241">
        <ele>155</ele>
        <time>2022-04-03T14:38:47Z</time>
      </trkpt>
      <trkpt lat="46.01315" lon="0.38237">
        <ele>155</ele>
        <time>2022-04-03T14:38:48Z</time>
      </trkpt>
      <trkpt lat="46.01317" lon="0.38232">
        <ele>155</ele>
        <time>2022-04-03T14:38:49Z</time>
      </trkpt>
      <trkpt lat="46.01318" lon="0.38228">
        <ele>155</ele>
        <time>2022-04-03T14:38:50Z</time>
      </trkpt>
      <trkpt lat="46.0132" lon="0.38223">
        <ele>155</ele>
        <time>2022-04-03T14:38:51Z</time>
      </trkpt>
      <trkpt lat="46.01321" lon="0.38219">
        <ele>155</ele>
        <time>2022-04-03T14:38:52Z</time>
      </trkpt>
      <trkpt lat="46.01323" lon="0.38215">
        <ele>155</ele>
        <time>2022-04-03T14:38:53Z</time>
      </trkpt>
      <trkpt lat="46.01324" lon="0.3821">
        <ele>155</ele>
        <time>2022-04-03T14:38:54Z</time>
      </trkpt>
      <trkpt lat="46.01326" lon="0.38206">
        <ele>155</ele>
        <time>2022-04-03T14:38:55Z</time>
      </trkpt>
      <trkpt lat="46.01327" lon="0.38202">
        <ele>155</ele>
        <time>2022-04-03T14:38:56Z</time>
      </trkpt>
      <trkpt lat="46.01328" lon="0.38198">
        <ele>155.2</ele>
        <time>2022-04-03T14:38:57Z</time>
      </trkpt>
      <trkpt lat="46.01329" lon="0.38193">
        <ele>155.2</ele>
        <time>2022-04-03T14:38:58Z</time>
      </trkpt>
      <trkpt lat="46.01331" lon="0.38189">
        <ele>155.2</ele>
        <time>2022-04-03T14:38:59Z</time>
      </trkpt>
      <trkpt lat="46.01332" lon="0.38185">
        <ele>155.2</ele>
        <time>2022-04-03T14:39:00Z</time>
      </trkpt>
      <trkpt lat="46.01334" lon="0.38181">
        <ele>155.2</ele>
        <time>2022-04-03T14:39:01Z</time>
      </trkpt>
      <trkpt lat="46.01335" lon="0.38176">
        <ele>155.2</ele>
        <time>2022-04-03T14:39:02Z</time>
      </trkpt>
      <trkpt lat="46.01336" lon="0.38172">
        <ele>155.2</ele>
        <time>2022-04-03T14:39:03Z</time>
      </trkpt>
      <trkpt lat="46.01337" lon="0.38167">
        <ele>155.4</ele>
        <time>2022-04-03T14:39:04Z</time>
      </trkpt>
      <trkpt lat="46.01338" lon="0.38163">
        <ele>155.6</ele>
        <time>2022-04-03T14:39:05Z</time>
      </trkpt>
      <trkpt lat="46.0134" lon="0.38158">
        <ele>155.6</ele>
        <time>2022-04-03T14:39:06Z</time>
      </trkpt>
      <trkpt lat="46.01341" lon="0.38154">
        <ele>155.8</ele>
        <time>2022-04-03T14:39:07Z</time>
      </trkpt>
      <trkpt lat="46.01342" lon="0.38149">
        <ele>155.6</ele>
        <time>2022-04-03T14:39:08Z</time>
      </trkpt>
      <trkpt lat="46.01344" lon="0.38144">
        <ele>155.8</ele>
        <time>2022-04-03T14:39:09Z</time>
      </trkpt>
      <trkpt lat="46.01345" lon="0.3814">
        <ele>155.8</ele>
        <time>2022-04-03T14:39:10Z</time>
      </trkpt>
      <trkpt lat="46.01346" lon="0.38135">
        <ele>155.8</ele>
        <time>2022-04-03T14:39:11Z</time>
      </trkpt>
      <trkpt lat="46.01348" lon="0.38131">
        <ele>155.8</ele>
        <time>2022-04-03T14:39:12Z</time>
      </trkpt>
      <trkpt lat="46.01349" lon="0.38126">
        <ele>155.8</ele>
        <time>2022-04-03T14:39:13Z</time>
      </trkpt>
      <trkpt lat="46.0135" lon="0.38121">
        <ele>155.8</ele>
        <time>2022-04-03T14:39:14Z</time>
      </trkpt>
      <trkpt lat="46.01351" lon="0.38116">
        <ele>156</ele>
        <time>2022-04-03T14:39:15Z</time>
      </trkpt>
      <trkpt lat="46.01353" lon="0.38111">
        <ele>155.8</ele>
        <time>2022-04-03T14:39:16Z</time>
      </trkpt>
      <trkpt lat="46.01354" lon="0.38106">
        <ele>156</ele>
        <time>2022-04-03T14:39:17Z</time>
      </trkpt>
      <trkpt lat="46.01355" lon="0.38101">
        <ele>156</ele>
        <time>2022-04-03T14:39:18Z</time>
      </trkpt>
      <trkpt lat="46.01356" lon="0.38096">
        <ele>156</ele>
        <time>2022-04-03T14:39:19Z</time>
      </trkpt>
      <trkpt lat="46.01358" lon="0.38091">
        <ele>156</ele>
        <time>2022-04-03T14:39:20Z</time>
      </trkpt>
      <trkpt lat="46.01359" lon="0.38085">
        <ele>156</ele>
        <time>2022-04-03T14:39:21Z</time>
      </trkpt>
      <trkpt lat="46.0136" lon="0.38081">
        <ele>156</ele>
        <time>2022-04-03T14:39:22Z</time>
      </trkpt>
      <trkpt lat="46.01361" lon="0.38076">
        <ele>156</ele>
        <time>2022-04-03T14:39:23Z</time>
      </trkpt>
      <trkpt lat="46.01362" lon="0.38072">
        <ele>156</ele>
        <time>2022-04-03T14:39:24Z</time>
      </trkpt>
      <trkpt lat="46.01364" lon="0.38067">
        <ele>155.8</ele>
        <time>2022-04-03T14:39:25Z</time>
      </trkpt>
      <trkpt lat="46.01365" lon="0.38062">
        <ele>155.8</ele>
        <time>2022-04-03T14:39:26Z</time>
      </trkpt>
      <trkpt lat="46.01367" lon="0.38058">
        <ele>155.8</ele>
        <time>2022-04-03T14:39:27Z</time>
      </trkpt>
      <trkpt lat="46.01368" lon="0.38053">
        <ele>156</ele>
        <time>2022-04-03T14:39:28Z</time>
      </trkpt>
      <trkpt lat="46.0137" lon="0.38048">
        <ele>155.8</ele>
        <time>2022-04-03T14:39:29Z</time>
      </trkpt>
      <trkpt lat="46.01372" lon="0.38043">
        <ele>156</ele>
        <time>2022-04-03T14:39:30Z</time>
      </trkpt>
      <trkpt lat="46.01373" lon="0.38039">
        <ele>155.8</ele>
        <time>2022-04-03T14:39:31Z</time>
      </trkpt>
      <trkpt lat="46.01375" lon="0.38034">
        <ele>155.8</ele>
        <time>2022-04-03T14:39:32Z</time>
      </trkpt>
      <trkpt lat="46.01377" lon="0.3803">
        <ele>156</ele>
        <time>2022-04-03T14:39:33Z</time>
      </trkpt>
      <trkpt lat="46.01378" lon="0.38026">
        <ele>155.8</ele>
        <time>2022-04-03T14:39:34Z</time>
      </trkpt>
      <trkpt lat="46.0138" lon="0.38023">
        <ele>156</ele>
        <time>2022-04-03T14:39:35Z</time>
      </trkpt>
      <trkpt lat="46.01381" lon="0.38019">
        <ele>155.8</ele>
        <time>2022-04-03T14:39:36Z</time>
      </trkpt>
      <trkpt lat="46.01382" lon="0.38016">
        <ele>156</ele>
        <time>2022-04-03T14:39:37Z</time>
      </trkpt>
      <trkpt lat="46.01383" lon="0.38012">
        <ele>156</ele>
        <time>2022-04-03T14:39:38Z</time>
      </trkpt>
      <trkpt lat="46.01384" lon="0.38009">
        <ele>156</ele>
        <time>2022-04-03T14:39:39Z</time>
      </trkpt>
      <trkpt lat="46.01385" lon="0.38007">
        <ele>156.2</ele>
        <time>2022-04-03T14:39:40Z</time>
      </trkpt>
      <trkpt lat="46.01386" lon="0.38004">
        <ele>156.4</ele>
        <time>2022-04-03T14:39:41Z</time>
      </trkpt>
      <trkpt lat="46.01388" lon="0.38001">
        <ele>156.8</ele>
        <time>2022-04-03T14:39:42Z</time>
      </trkpt>
      <trkpt lat="46.01389" lon="0.37998">
        <ele>157.2</ele>
        <time>2022-04-03T14:39:43Z</time>
      </trkpt>
      <trkpt lat="46.0139" lon="0.37996">
        <ele>157.2</ele>
        <time>2022-04-03T14:39:44Z</time>
      </trkpt>
      <trkpt lat="46.01391" lon="0.37993">
        <ele>157.4</ele>
        <time>2022-04-03T14:39:45Z</time>
      </trkpt>
      <trkpt lat="46.01392" lon="0.37991">
        <ele>157.4</ele>
        <time>2022-04-03T14:39:46Z</time>
      </trkpt>
      <trkpt lat="46.01393" lon="0.37989">
        <ele>157.8</ele>
        <time>2022-04-03T14:39:47Z</time>
      </trkpt>
      <trkpt lat="46.01395" lon="0.37986">
        <ele>158</ele>
        <time>2022-04-03T14:39:48Z</time>
      </trkpt>
      <trkpt lat="46.01396" lon="0.37983">
        <ele>158.2</ele>
        <time>2022-04-03T14:39:49Z</time>
      </trkpt>
      <trkpt lat="46.01397" lon="0.37981">
        <ele>158.4</ele>
        <time>2022-04-03T14:39:50Z</time>
      </trkpt>
      <trkpt lat="46.01398" lon="0.37978">
        <ele>158.6</ele>
        <time>2022-04-03T14:39:51Z</time>
      </trkpt>
      <trkpt lat="46.01399" lon="0.37975">
        <ele>158.6</ele>
        <time>2022-04-03T14:39:52Z</time>
      </trkpt>
      <trkpt lat="46.014" lon="0.37972">
        <ele>158.8</ele>
        <time>2022-04-03T14:39:53Z</time>
      </trkpt>
      <trkpt lat="46.01401" lon="0.3797">
        <ele>159.2</ele>
        <time>2022-04-03T14:39:54Z</time>
      </trkpt>
      <trkpt lat="46.01402" lon="0.37967">
        <ele>159.4</ele>
        <time>2022-04-03T14:39:55Z</time>
      </trkpt>
      <trkpt lat="46.01403" lon="0.37964">
        <ele>159.6</ele>
        <time>2022-04-03T14:39:56Z</time>
      </trkpt>
      <trkpt lat="46.01404" lon="0.37961">
        <ele>159.8</ele>
        <time>2022-04-03T14:39:57Z</time>
      </trkpt>
      <trkpt lat="46.01405" lon="0.37958">
        <ele>159.8</ele>
        <time>2022-04-03T14:39:58Z</time>
      </trkpt>
      <trkpt lat="46.01407" lon="0.37955">
        <ele>160</ele>
        <time>2022-04-03T14:39:59Z</time>
      </trkpt>
      <trkpt lat="46.01408" lon="0.37952">
        <ele>160.2</ele>
        <time>2022-04-03T14:40:00Z</time>
      </trkpt>
      <trkpt lat="46.01409" lon="0.3795">
        <ele>160.2</ele>
        <time>2022-04-03T14:40:01Z</time>
      </trkpt>
      <trkpt lat="46.0141" lon="0.37947">
        <ele>160.4</ele>
        <time>2022-04-03T14:40:02Z</time>
      </trkpt>
      <trkpt lat="46.01411" lon="0.37944">
        <ele>160.6</ele>
        <time>2022-04-03T14:40:03Z</time>
      </trkpt>
      <trkpt lat="46.01413" lon="0.37941">
        <ele>160.8</ele>
        <time>2022-04-03T14:40:04Z</time>
      </trkpt>
      <trkpt lat="46.01414" lon="0.37939">
        <ele>161</ele>
        <time>2022-04-03T14:40:05Z</time>
      </trkpt>
      <trkpt lat="46.01415" lon="0.37936">
        <ele>161.2</ele>
        <time>2022-04-03T14:40:06Z</time>
      </trkpt>
      <trkpt lat="46.01416" lon="0.37933">
        <ele>161.4</ele>
        <time>2022-04-03T14:40:07Z</time>
      </trkpt>
      <trkpt lat="46.01417" lon="0.3793">
        <ele>161.6</ele>
        <time>2022-04-03T14:40:08Z</time>
      </trkpt>
      <trkpt lat="46.01418" lon="0.37927">
        <ele>161.8</ele>
        <time>2022-04-03T14:40:09Z</time>
      </trkpt>
      <trkpt lat="46.0142" lon="0.37924">
        <ele>162</ele>
        <time>2022-04-03T14:40:10Z</time>
      </trkpt>
      <trkpt lat="46.01421" lon="0.37922">
        <ele>162.2</ele>
        <time>2022-04-03T14:40:11Z</time>
      </trkpt>
      <trkpt lat="46.01422" lon="0.37918">
        <ele>162.4</ele>
        <time>2022-04-03T14:40:12Z</time>
      </trkpt>
      <trkpt lat="46.01423" lon="0.37915">
        <ele>162.4</ele>
        <time>2022-04-03T14:40:13Z</time>
      </trkpt>
      <trkpt lat="46.01424" lon="0.37912">
        <ele>162.6</ele>
        <time>2022-04-03T14:40:14Z</time>
      </trkpt>
      <trkpt lat="46.01425" lon="0.37909">
        <ele>162.6</ele>
        <time>2022-04-03T14:40:15Z</time>
      </trkpt>
      <trkpt lat="46.01426" lon="0.37906">
        <ele>162.6</ele>
        <time>2022-04-03T14:40:16Z</time>
      </trkpt>
      <trkpt lat="46.01427" lon="0.37903">
        <ele>162.6</ele>
        <time>2022-04-03T14:40:17Z</time>
      </trkpt>
      <trkpt lat="46.01429" lon="0.37901">
        <ele>162.8</ele>
        <time>2022-04-03T14:40:18Z</time>
      </trkpt>
      <trkpt lat="46.0143" lon="0.37898">
        <ele>163</ele>
        <time>2022-04-03T14:40:19Z</time>
      </trkpt>
      <trkpt lat="46.01431" lon="0.37895">
        <ele>163.2</ele>
        <time>2022-04-03T14:40:20Z</time>
      </trkpt>
      <trkpt lat="46.01432" lon="0.37892">
        <ele>163.4</ele>
        <time>2022-04-03T14:40:21Z</time>
      </trkpt>
      <trkpt lat="46.01433" lon="0.37889">
        <ele>163.2</ele>
        <time>2022-04-03T14:40:22Z</time>
      </trkpt>
      <trkpt lat="46.01434" lon="0.37886">
        <ele>163.4</ele>
        <time>2022-04-03T14:40:23Z</time>
      </trkpt>
      <trkpt lat="46.01435" lon="0.37883">
        <ele>163.6</ele>
        <time>2022-04-03T14:40:24Z</time>
      </trkpt>
      <trkpt lat="46.01436" lon="0.3788">
        <ele>163.8</ele>
        <time>2022-04-03T14:40:25Z</time>
      </trkpt>
      <trkpt lat="46.01437" lon="0.37877">
        <ele>163.8</ele>
        <time>2022-04-03T14:40:26Z</time>
      </trkpt>
      <trkpt lat="46.01438" lon="0.37874">
        <ele>163.8</ele>
        <time>2022-04-03T14:40:27Z</time>
      </trkpt>
      <trkpt lat="46.01439" lon="0.37871">
        <ele>164.2</ele>
        <time>2022-04-03T14:40:28Z</time>
      </trkpt>
      <trkpt lat="46.0144" lon="0.37867">
        <ele>164.2</ele>
        <time>2022-04-03T14:40:29Z</time>
      </trkpt>
      <trkpt lat="46.01441" lon="0.37864">
        <ele>164.4</ele>
        <time>2022-04-03T14:40:30Z</time>
      </trkpt>
      <trkpt lat="46.01442" lon="0.37861">
        <ele>164.6</ele>
        <time>2022-04-03T14:40:31Z</time>
      </trkpt>
      <trkpt lat="46.01443" lon="0.37858">
        <ele>164.8</ele>
        <time>2022-04-03T14:40:32Z</time>
      </trkpt>
      <trkpt lat="46.01444" lon="0.37855">
        <ele>165</ele>
        <time>2022-04-03T14:40:33Z</time>
      </trkpt>
      <trkpt lat="46.01445" lon="0.37852">
        <ele>165.2</ele>
        <time>2022-04-03T14:40:34Z</time>
      </trkpt>
      <trkpt lat="46.01447" lon="0.37849">
        <ele>165.2</ele>
        <time>2022-04-03T14:40:35Z</time>
      </trkpt>
      <trkpt lat="46.01448" lon="0.37846">
        <ele>165.4</ele>
        <time>2022-04-03T14:40:36Z</time>
      </trkpt>
      <trkpt lat="46.01449" lon="0.37843">
        <ele>165.6</ele>
        <time>2022-04-03T14:40:37Z</time>
      </trkpt>
      <trkpt lat="46.0145" lon="0.3784">
        <ele>165.6</ele>
        <time>2022-04-03T14:40:38Z</time>
      </trkpt>
      <trkpt lat="46.01451" lon="0.37837">
        <ele>166</ele>
        <time>2022-04-03T14:40:39Z</time>
      </trkpt>
      <trkpt lat="46.01452" lon="0.37834">
        <ele>166</ele>
        <time>2022-04-03T14:40:40Z</time>
      </trkpt>
      <trkpt lat="46.01453" lon="0.37831">
        <ele>166.4</ele>
        <time>2022-04-03T14:40:41Z</time>
      </trkpt>
      <trkpt lat="46.01454" lon="0.37828">
        <ele>166.4</ele>
        <time>2022-04-03T14:40:42Z</time>
      </trkpt>
      <trkpt lat="46.01456" lon="0.37825">
        <ele>166.4</ele>
        <time>2022-04-03T14:40:43Z</time>
      </trkpt>
      <trkpt lat="46.01457" lon="0.37822">
        <ele>166.6</ele>
        <time>2022-04-03T14:40:44Z</time>
      </trkpt>
      <trkpt lat="46.01458" lon="0.37819">
        <ele>166.8</ele>
        <time>2022-04-03T14:40:45Z</time>
      </trkpt>
      <trkpt lat="46.01459" lon="0.37815">
        <ele>167</ele>
        <time>2022-04-03T14:40:46Z</time>
      </trkpt>
      <trkpt lat="46.0146" lon="0.37812">
        <ele>167.2</ele>
        <time>2022-04-03T14:40:47Z</time>
      </trkpt>
      <trkpt lat="46.01461" lon="0.37809">
        <ele>167.2</ele>
        <time>2022-04-03T14:40:48Z</time>
      </trkpt>
      <trkpt lat="46.01462" lon="0.37806">
        <ele>167.6</ele>
        <time>2022-04-03T14:40:49Z</time>
      </trkpt>
      <trkpt lat="46.01463" lon="0.37803">
        <ele>167.8</ele>
        <time>2022-04-03T14:40:50Z</time>
      </trkpt>
      <trkpt lat="46.01465" lon="0.378">
        <ele>167.8</ele>
        <time>2022-04-03T14:40:51Z</time>
      </trkpt>
      <trkpt lat="46.01466" lon="0.37797">
        <ele>168</ele>
        <time>2022-04-03T14:40:52Z</time>
      </trkpt>
      <trkpt lat="46.01467" lon="0.37794">
        <ele>168</ele>
        <time>2022-04-03T14:40:53Z</time>
      </trkpt>
      <trkpt lat="46.01468" lon="0.37791">
        <ele>168</ele>
        <time>2022-04-03T14:40:54Z</time>
      </trkpt>
      <trkpt lat="46.01469" lon="0.37787">
        <ele>168.2</ele>
        <time>2022-04-03T14:40:55Z</time>
      </trkpt>
      <trkpt lat="46.0147" lon="0.37784">
        <ele>168.2</ele>
        <time>2022-04-03T14:40:56Z</time>
      </trkpt>
      <trkpt lat="46.01472" lon="0.37781">
        <ele>168.2</ele>
        <time>2022-04-03T14:40:57Z</time>
      </trkpt>
      <trkpt lat="46.01473" lon="0.37778">
        <ele>168.2</ele>
        <time>2022-04-03T14:40:58Z</time>
      </trkpt>
      <trkpt lat="46.01475" lon="0.37775">
        <ele>168.4</ele>
        <time>2022-04-03T14:40:59Z</time>
      </trkpt>
      <trkpt lat="46.01476" lon="0.37771">
        <ele>168.4</ele>
        <time>2022-04-03T14:41:00Z</time>
      </trkpt>
      <trkpt lat="46.01477" lon="0.37768">
        <ele>168.4</ele>
        <time>2022-04-03T14:41:01Z</time>
      </trkpt>
      <trkpt lat="46.01479" lon="0.37764">
        <ele>168.6</ele>
        <time>2022-04-03T14:41:02Z</time>
      </trkpt>
      <trkpt lat="46.0148" lon="0.3776">
        <ele>168.8</ele>
        <time>2022-04-03T14:41:03Z</time>
      </trkpt>
      <trkpt lat="46.01482" lon="0.37756">
        <ele>168.8</ele>
        <time>2022-04-03T14:41:04Z</time>
      </trkpt>
      <trkpt lat="46.01484" lon="0.37752">
        <ele>168.8</ele>
        <time>2022-04-03T14:41:05Z</time>
      </trkpt>
      <trkpt lat="46.01485" lon="0.37747">
        <ele>169</ele>
        <time>2022-04-03T14:41:06Z</time>
      </trkpt>
      <trkpt lat="46.01486" lon="0.37743">
        <ele>168.8</ele>
        <time>2022-04-03T14:41:07Z</time>
      </trkpt>
      <trkpt lat="46.01488" lon="0.37739">
        <ele>169</ele>
        <time>2022-04-03T14:41:08Z</time>
      </trkpt>
      <trkpt lat="46.0149" lon="0.37735">
        <ele>169</ele>
        <time>2022-04-03T14:41:09Z</time>
      </trkpt>
      <trkpt lat="46.01492" lon="0.3773">
        <ele>169.2</ele>
        <time>2022-04-03T14:41:10Z</time>
      </trkpt>
      <trkpt lat="46.01493" lon="0.37726">
        <ele>169</ele>
        <time>2022-04-03T14:41:11Z</time>
      </trkpt>
      <trkpt lat="46.01495" lon="0.37722">
        <ele>169.2</ele>
        <time>2022-04-03T14:41:12Z</time>
      </trkpt>
      <trkpt lat="46.01497" lon="0.37718">
        <ele>169</ele>
        <time>2022-04-03T14:41:13Z</time>
      </trkpt>
      <trkpt lat="46.01499" lon="0.37714">
        <ele>169</ele>
        <time>2022-04-03T14:41:14Z</time>
      </trkpt>
      <trkpt lat="46.01501" lon="0.37709">
        <ele>169</ele>
        <time>2022-04-03T14:41:15Z</time>
      </trkpt>
      <trkpt lat="46.01503" lon="0.37705">
        <ele>169</ele>
        <time>2022-04-03T14:41:16Z</time>
      </trkpt>
      <trkpt lat="46.01504" lon="0.37702">
        <ele>169</ele>
        <time>2022-04-03T14:41:17Z</time>
      </trkpt>
      <trkpt lat="46.01506" lon="0.37698">
        <ele>168.8</ele>
        <time>2022-04-03T14:41:18Z</time>
      </trkpt>
      <trkpt lat="46.01509" lon="0.37695">
        <ele>168.8</ele>
        <time>2022-04-03T14:41:19Z</time>
      </trkpt>
      <trkpt lat="46.01511" lon="0.37692">
        <ele>168.8</ele>
        <time>2022-04-03T14:41:20Z</time>
      </trkpt>
      <trkpt lat="46.01513" lon="0.37688">
        <ele>169</ele>
        <time>2022-04-03T14:41:21Z</time>
      </trkpt>
      <trkpt lat="46.01515" lon="0.37685">
        <ele>169</ele>
        <time>2022-04-03T14:41:22Z</time>
      </trkpt>
      <trkpt lat="46.01517" lon="0.37682">
        <ele>168.8</ele>
        <time>2022-04-03T14:41:23Z</time>
      </trkpt>
      <trkpt lat="46.01519" lon="0.37679">
        <ele>169</ele>
        <time>2022-04-03T14:41:24Z</time>
      </trkpt>
      <trkpt lat="46.01521" lon="0.37676">
        <ele>169</ele>
        <time>2022-04-03T14:41:25Z</time>
      </trkpt>
      <trkpt lat="46.01523" lon="0.37674">
        <ele>169</ele>
        <time>2022-04-03T14:41:26Z</time>
      </trkpt>
      <trkpt lat="46.01526" lon="0.37671">
        <ele>169</ele>
        <time>2022-04-03T14:41:27Z</time>
      </trkpt>
      <trkpt lat="46.01528" lon="0.37668">
        <ele>169.2</ele>
        <time>2022-04-03T14:41:28Z</time>
      </trkpt>
      <trkpt lat="46.0153" lon="0.37665">
        <ele>169</ele>
        <time>2022-04-03T14:41:29Z</time>
      </trkpt>
      <trkpt lat="46.01532" lon="0.37662">
        <ele>169.4</ele>
        <time>2022-04-03T14:41:30Z</time>
      </trkpt>
      <trkpt lat="46.01534" lon="0.37659">
        <ele>169.4</ele>
        <time>2022-04-03T14:41:31Z</time>
      </trkpt>
      <trkpt lat="46.01537" lon="0.37656">
        <ele>169.6</ele>
        <time>2022-04-03T14:41:32Z</time>
      </trkpt>
      <trkpt lat="46.01539" lon="0.37653">
        <ele>169.6</ele>
        <time>2022-04-03T14:41:33Z</time>
      </trkpt>
      <trkpt lat="46.01541" lon="0.37651">
        <ele>169.8</ele>
        <time>2022-04-03T14:41:34Z</time>
      </trkpt>
      <trkpt lat="46.01543" lon="0.37647">
        <ele>169.8</ele>
        <time>2022-04-03T14:41:35Z</time>
      </trkpt>
      <trkpt lat="46.01545" lon="0.37644">
        <ele>169.8</ele>
        <time>2022-04-03T14:41:36Z</time>
      </trkpt>
      <trkpt lat="46.01547" lon="0.37641">
        <ele>169.8</ele>
        <time>2022-04-03T14:41:37Z</time>
      </trkpt>
      <trkpt lat="46.0155" lon="0.37638">
        <ele>170.2</ele>
        <time>2022-04-03T14:41:38Z</time>
      </trkpt>
      <trkpt lat="46.01552" lon="0.37635">
        <ele>170.2</ele>
        <time>2022-04-03T14:41:39Z</time>
      </trkpt>
      <trkpt lat="46.01553" lon="0.37631">
        <ele>170.6</ele>
        <time>2022-04-03T14:41:40Z</time>
      </trkpt>
      <trkpt lat="46.01555" lon="0.37627">
        <ele>170.6</ele>
        <time>2022-04-03T14:41:41Z</time>
      </trkpt>
      <trkpt lat="46.01556" lon="0.37622">
        <ele>170.8</ele>
        <time>2022-04-03T14:41:42Z</time>
      </trkpt>
      <trkpt lat="46.01557" lon="0.37617">
        <ele>170.8</ele>
        <time>2022-04-03T14:41:43Z</time>
      </trkpt>
      <trkpt lat="46.01558" lon="0.37613">
        <ele>171</ele>
        <time>2022-04-03T14:41:44Z</time>
      </trkpt>
      <trkpt lat="46.01559" lon="0.37608">
        <ele>171.2</ele>
        <time>2022-04-03T14:41:45Z</time>
      </trkpt>
      <trkpt lat="46.0156" lon="0.37602">
        <ele>171.2</ele>
        <time>2022-04-03T14:41:46Z</time>
      </trkpt>
      <trkpt lat="46.01561" lon="0.37597">
        <ele>171.2</ele>
        <time>2022-04-03T14:41:47Z</time>
      </trkpt>
      <trkpt lat="46.01562" lon="0.37592">
        <ele>171.2</ele>
        <time>2022-04-03T14:41:48Z</time>
      </trkpt>
      <trkpt lat="46.01563" lon="0.37587">
        <ele>171.4</ele>
        <time>2022-04-03T14:41:49Z</time>
      </trkpt>
      <trkpt lat="46.01565" lon="0.37582">
        <ele>171.2</ele>
        <time>2022-04-03T14:41:50Z</time>
      </trkpt>
      <trkpt lat="46.01566" lon="0.37577">
        <ele>171.2</ele>
        <time>2022-04-03T14:41:51Z</time>
      </trkpt>
      <trkpt lat="46.01568" lon="0.37573">
        <ele>171.4</ele>
        <time>2022-04-03T14:41:52Z</time>
      </trkpt>
      <trkpt lat="46.01569" lon="0.37567">
        <ele>171.2</ele>
        <time>2022-04-03T14:41:53Z</time>
      </trkpt>
      <trkpt lat="46.01571" lon="0.37562">
        <ele>171.4</ele>
        <time>2022-04-03T14:41:54Z</time>
      </trkpt>
      <trkpt lat="46.01572" lon="0.37557">
        <ele>171.4</ele>
        <time>2022-04-03T14:41:55Z</time>
      </trkpt>
      <trkpt lat="46.01573" lon="0.37551">
        <ele>171.4</ele>
        <time>2022-04-03T14:41:56Z</time>
      </trkpt>
      <trkpt lat="46.01574" lon="0.37545">
        <ele>171.4</ele>
        <time>2022-04-03T14:41:57Z</time>
      </trkpt>
      <trkpt lat="46.01575" lon="0.3754">
        <ele>171.4</ele>
        <time>2022-04-03T14:41:58Z</time>
      </trkpt>
      <trkpt lat="46.01576" lon="0.37534">
        <ele>171.2</ele>
        <time>2022-04-03T14:41:59Z</time>
      </trkpt>
      <trkpt lat="46.01577" lon="0.37528">
        <ele>171.2</ele>
        <time>2022-04-03T14:42:00Z</time>
      </trkpt>
      <trkpt lat="46.01579" lon="0.37523">
        <ele>170.8</ele>
        <time>2022-04-03T14:42:01Z</time>
      </trkpt>
      <trkpt lat="46.0158" lon="0.37517">
        <ele>171</ele>
        <time>2022-04-03T14:42:02Z</time>
      </trkpt>
      <trkpt lat="46.01582" lon="0.37512">
        <ele>171</ele>
        <time>2022-04-03T14:42:03Z</time>
      </trkpt>
      <trkpt lat="46.01583" lon="0.37506">
        <ele>170.8</ele>
        <time>2022-04-03T14:42:04Z</time>
      </trkpt>
      <trkpt lat="46.01585" lon="0.37501">
        <ele>170.8</ele>
        <time>2022-04-03T14:42:05Z</time>
      </trkpt>
      <trkpt lat="46.01586" lon="0.37496">
        <ele>170.8</ele>
        <time>2022-04-03T14:42:06Z</time>
      </trkpt>
      <trkpt lat="46.01588" lon="0.37491">
        <ele>170.6</ele>
        <time>2022-04-03T14:42:07Z</time>
      </trkpt>
      <trkpt lat="46.0159" lon="0.37486">
        <ele>170.8</ele>
        <time>2022-04-03T14:42:08Z</time>
      </trkpt>
      <trkpt lat="46.01592" lon="0.37481">
        <ele>170.8</ele>
        <time>2022-04-03T14:42:09Z</time>
      </trkpt>
      <trkpt lat="46.01593" lon="0.37476">
        <ele>170.8</ele>
        <time>2022-04-03T14:42:10Z</time>
      </trkpt>
      <trkpt lat="46.01595" lon="0.37472">
        <ele>170.6</ele>
        <time>2022-04-03T14:42:11Z</time>
      </trkpt>
      <trkpt lat="46.01596" lon="0.37467">
        <ele>170.4</ele>
        <time>2022-04-03T14:42:12Z</time>
      </trkpt>
      <trkpt lat="46.01598" lon="0.37463">
        <ele>170.2</ele>
        <time>2022-04-03T14:42:13Z</time>
      </trkpt>
      <trkpt lat="46.016" lon="0.37459">
        <ele>170.4</ele>
        <time>2022-04-03T14:42:14Z</time>
      </trkpt>
      <trkpt lat="46.01601" lon="0.37455">
        <ele>170.2</ele>
        <time>2022-04-03T14:42:15Z</time>
      </trkpt>
      <trkpt lat="46.01603" lon="0.3745">
        <ele>170.2</ele>
        <time>2022-04-03T14:42:16Z</time>
      </trkpt>
      <trkpt lat="46.01605" lon="0.37446">
        <ele>170.2</ele>
        <time>2022-04-03T14:42:17Z</time>
      </trkpt>
      <trkpt lat="46.01607" lon="0.37442">
        <ele>170.2</ele>
        <time>2022-04-03T14:42:18Z</time>
      </trkpt>
      <trkpt lat="46.01609" lon="0.37437">
        <ele>170.2</ele>
        <time>2022-04-03T14:42:19Z</time>
      </trkpt>
      <trkpt lat="46.0161" lon="0.37433">
        <ele>170.2</ele>
        <time>2022-04-03T14:42:20Z</time>
      </trkpt>
      <trkpt lat="46.01612" lon="0.37429">
        <ele>170.2</ele>
        <time>2022-04-03T14:42:21Z</time>
      </trkpt>
      <trkpt lat="46.01614" lon="0.37424">
        <ele>170.2</ele>
        <time>2022-04-03T14:42:22Z</time>
      </trkpt>
      <trkpt lat="46.01615" lon="0.3742">
        <ele>170</ele>
        <time>2022-04-03T14:42:23Z</time>
      </trkpt>
      <trkpt lat="46.01617" lon="0.37417">
        <ele>170.2</ele>
        <time>2022-04-03T14:42:24Z</time>
      </trkpt>
      <trkpt lat="46.01619" lon="0.37413">
        <ele>170.2</ele>
        <time>2022-04-03T14:42:25Z</time>
      </trkpt>
      <trkpt lat="46.0162" lon="0.37409">
        <ele>170.2</ele>
        <time>2022-04-03T14:42:26Z</time>
      </trkpt>
      <trkpt lat="46.01622" lon="0.37406">
        <ele>170.4</ele>
        <time>2022-04-03T14:42:27Z</time>
      </trkpt>
      <trkpt lat="46.01624" lon="0.37402">
        <ele>170.4</ele>
        <time>2022-04-03T14:42:28Z</time>
      </trkpt>
      <trkpt lat="46.01625" lon="0.37398">
        <ele>170.4</ele>
        <time>2022-04-03T14:42:29Z</time>
      </trkpt>
      <trkpt lat="46.01627" lon="0.37394">
        <ele>170.8</ele>
        <time>2022-04-03T14:42:30Z</time>
      </trkpt>
      <trkpt lat="46.01628" lon="0.3739">
        <ele>170.6</ele>
        <time>2022-04-03T14:42:31Z</time>
      </trkpt>
      <trkpt lat="46.0163" lon="0.37386">
        <ele>171</ele>
        <time>2022-04-03T14:42:32Z</time>
      </trkpt>
      <trkpt lat="46.01631" lon="0.37382">
        <ele>170.8</ele>
        <time>2022-04-03T14:42:33Z</time>
      </trkpt>
      <trkpt lat="46.01633" lon="0.37378">
        <ele>171.2</ele>
        <time>2022-04-03T14:42:34Z</time>
      </trkpt>
      <trkpt lat="46.01634" lon="0.37374">
        <ele>171.2</ele>
        <time>2022-04-03T14:42:35Z</time>
      </trkpt>
      <trkpt lat="46.01636" lon="0.3737">
        <ele>171.6</ele>
        <time>2022-04-03T14:42:36Z</time>
      </trkpt>
      <trkpt lat="46.01638" lon="0.37366">
        <ele>171.6</ele>
        <time>2022-04-03T14:42:37Z</time>
      </trkpt>
      <trkpt lat="46.01639" lon="0.37363">
        <ele>172</ele>
        <time>2022-04-03T14:42:38Z</time>
      </trkpt>
      <trkpt lat="46.01641" lon="0.37359">
        <ele>172.4</ele>
        <time>2022-04-03T14:42:39Z</time>
      </trkpt>
      <trkpt lat="46.01643" lon="0.37355">
        <ele>172.6</ele>
        <time>2022-04-03T14:42:40Z</time>
      </trkpt>
      <trkpt lat="46.01644" lon="0.37351">
        <ele>172.8</ele>
        <time>2022-04-03T14:42:41Z</time>
      </trkpt>
      <trkpt lat="46.01646" lon="0.37347">
        <ele>172.8</ele>
        <time>2022-04-03T14:42:42Z</time>
      </trkpt>
      <trkpt lat="46.01648" lon="0.37343">
        <ele>173</ele>
        <time>2022-04-03T14:42:43Z</time>
      </trkpt>
      <trkpt lat="46.01649" lon="0.37339">
        <ele>173.2</ele>
        <time>2022-04-03T14:42:44Z</time>
      </trkpt>
      <trkpt lat="46.0165" lon="0.37335">
        <ele>173.4</ele>
        <time>2022-04-03T14:42:45Z</time>
      </trkpt>
      <trkpt lat="46.01652" lon="0.37331">
        <ele>173.4</ele>
        <time>2022-04-03T14:42:46Z</time>
      </trkpt>
      <trkpt lat="46.01654" lon="0.37327">
        <ele>173.4</ele>
        <time>2022-04-03T14:42:47Z</time>
      </trkpt>
      <trkpt lat="46.01655" lon="0.37323">
        <ele>173.4</ele>
        <time>2022-04-03T14:42:48Z</time>
      </trkpt>
      <trkpt lat="46.01657" lon="0.3732">
        <ele>173.6</ele>
        <time>2022-04-03T14:42:49Z</time>
      </trkpt>
      <trkpt lat="46.01659" lon="0.37316">
        <ele>173.6</ele>
        <time>2022-04-03T14:42:50Z</time>
      </trkpt>
      <trkpt lat="46.0166" lon="0.37312">
        <ele>173.8</ele>
        <time>2022-04-03T14:42:51Z</time>
      </trkpt>
      <trkpt lat="46.01662" lon="0.37308">
        <ele>174</ele>
        <time>2022-04-03T14:42:52Z</time>
      </trkpt>
      <trkpt lat="46.01664" lon="0.37304">
        <ele>174</ele>
        <time>2022-04-03T14:42:53Z</time>
      </trkpt>
      <trkpt lat="46.01665" lon="0.373">
        <ele>174</ele>
        <time>2022-04-03T14:42:54Z</time>
      </trkpt>
      <trkpt lat="46.01667" lon="0.37296">
        <ele>174.2</ele>
        <time>2022-04-03T14:42:55Z</time>
      </trkpt>
      <trkpt lat="46.01668" lon="0.37292">
        <ele>174.4</ele>
        <time>2022-04-03T14:42:56Z</time>
      </trkpt>
      <trkpt lat="46.0167" lon="0.37288">
        <ele>174.6</ele>
        <time>2022-04-03T14:42:57Z</time>
      </trkpt>
      <trkpt lat="46.01671" lon="0.37284">
        <ele>174.6</ele>
        <time>2022-04-03T14:42:58Z</time>
      </trkpt>
      <trkpt lat="46.01673" lon="0.37279">
        <ele>174.8</ele>
        <time>2022-04-03T14:42:59Z</time>
      </trkpt>
      <trkpt lat="46.01674" lon="0.37275">
        <ele>175</ele>
        <time>2022-04-03T14:43:00Z</time>
      </trkpt>
      <trkpt lat="46.01675" lon="0.37271">
        <ele>175</ele>
        <time>2022-04-03T14:43:01Z</time>
      </trkpt>
      <trkpt lat="46.01676" lon="0.37267">
        <ele>175.4</ele>
        <time>2022-04-03T14:43:02Z</time>
      </trkpt>
      <trkpt lat="46.01678" lon="0.37262">
        <ele>175.6</ele>
        <time>2022-04-03T14:43:03Z</time>
      </trkpt>
      <trkpt lat="46.01679" lon="0.37258">
        <ele>175.8</ele>
        <time>2022-04-03T14:43:04Z</time>
      </trkpt>
      <trkpt lat="46.01681" lon="0.37254">
        <ele>175.8</ele>
        <time>2022-04-03T14:43:05Z</time>
      </trkpt>
      <trkpt lat="46.01682" lon="0.3725">
        <ele>176.2</ele>
        <time>2022-04-03T14:43:06Z</time>
      </trkpt>
      <trkpt lat="46.01683" lon="0.37245">
        <ele>176.2</ele>
        <time>2022-04-03T14:43:07Z</time>
      </trkpt>
      <trkpt lat="46.01684" lon="0.37239">
        <ele>176.2</ele>
        <time>2022-04-03T14:43:08Z</time>
      </trkpt>
      <trkpt lat="46.01685" lon="0.37234">
        <ele>176.4</ele>
        <time>2022-04-03T14:43:09Z</time>
      </trkpt>
      <trkpt lat="46.01686" lon="0.37228">
        <ele>176.6</ele>
        <time>2022-04-03T14:43:10Z</time>
      </trkpt>
      <trkpt lat="46.01688" lon="0.37223">
        <ele>176.6</ele>
        <time>2022-04-03T14:43:11Z</time>
      </trkpt>
      <trkpt lat="46.01689" lon="0.37217">
        <ele>176.8</ele>
        <time>2022-04-03T14:43:12Z</time>
      </trkpt>
      <trkpt lat="46.0169" lon="0.37211">
        <ele>176.6</ele>
        <time>2022-04-03T14:43:13Z</time>
      </trkpt>
      <trkpt lat="46.01691" lon="0.37206">
        <ele>176.6</ele>
        <time>2022-04-03T14:43:14Z</time>
      </trkpt>
      <trkpt lat="46.01692" lon="0.372">
        <ele>176.8</ele>
        <time>2022-04-03T14:43:15Z</time>
      </trkpt>
      <trkpt lat="46.01693" lon="0.37194">
        <ele>176.8</ele>
        <time>2022-04-03T14:43:16Z</time>
      </trkpt>
      <trkpt lat="46.01694" lon="0.37188">
        <ele>176.6</ele>
        <time>2022-04-03T14:43:17Z</time>
      </trkpt>
      <trkpt lat="46.01695" lon="0.37182">
        <ele>176.8</ele>
        <time>2022-04-03T14:43:18Z</time>
      </trkpt>
      <trkpt lat="46.01696" lon="0.37175">
        <ele>176.6</ele>
        <time>2022-04-03T14:43:19Z</time>
      </trkpt>
      <trkpt lat="46.01697" lon="0.37169">
        <ele>176.6</ele>
        <time>2022-04-03T14:43:20Z</time>
      </trkpt>
      <trkpt lat="46.01698" lon="0.37163">
        <ele>176.4</ele>
        <time>2022-04-03T14:43:21Z</time>
      </trkpt>
      <trkpt lat="46.017" lon="0.37156">
        <ele>176.4</ele>
        <time>2022-04-03T14:43:22Z</time>
      </trkpt>
      <trkpt lat="46.01701" lon="0.3715">
        <ele>176.2</ele>
        <time>2022-04-03T14:43:23Z</time>
      </trkpt>
      <trkpt lat="46.01702" lon="0.37144">
        <ele>176.4</ele>
        <time>2022-04-03T14:43:24Z</time>
      </trkpt>
      <trkpt lat="46.01703" lon="0.37138">
        <ele>176.4</ele>
        <time>2022-04-03T14:43:25Z</time>
      </trkpt>
      <trkpt lat="46.01704" lon="0.37132">
        <ele>176.2</ele>
        <time>2022-04-03T14:43:26Z</time>
      </trkpt>
      <trkpt lat="46.01706" lon="0.37126">
        <ele>176.2</ele>
        <time>2022-04-03T14:43:27Z</time>
      </trkpt>
      <trkpt lat="46.01707" lon="0.37121">
        <ele>176</ele>
        <time>2022-04-03T14:43:28Z</time>
      </trkpt>
      <trkpt lat="46.01709" lon="0.37115">
        <ele>176</ele>
        <time>2022-04-03T14:43:29Z</time>
      </trkpt>
      <trkpt lat="46.0171" lon="0.3711">
        <ele>176</ele>
        <time>2022-04-03T14:43:30Z</time>
      </trkpt>
      <trkpt lat="46.01711" lon="0.37105">
        <ele>175.8</ele>
        <time>2022-04-03T14:43:31Z</time>
      </trkpt>
      <trkpt lat="46.01712" lon="0.37099">
        <ele>176</ele>
        <time>2022-04-03T14:43:32Z</time>
      </trkpt>
      <trkpt lat="46.01714" lon="0.37093">
        <ele>175.8</ele>
        <time>2022-04-03T14:43:33Z</time>
      </trkpt>
      <trkpt lat="46.01715" lon="0.37088">
        <ele>175.8</ele>
        <time>2022-04-03T14:43:34Z</time>
      </trkpt>
      <trkpt lat="46.01717" lon="0.37083">
        <ele>175.6</ele>
        <time>2022-04-03T14:43:35Z</time>
      </trkpt>
      <trkpt lat="46.01718" lon="0.37077">
        <ele>175.6</ele>
        <time>2022-04-03T14:43:36Z</time>
      </trkpt>
      <trkpt lat="46.0172" lon="0.37072">
        <ele>175.6</ele>
        <time>2022-04-03T14:43:37Z</time>
      </trkpt>
      <trkpt lat="46.01722" lon="0.37066">
        <ele>175.6</ele>
        <time>2022-04-03T14:43:38Z</time>
      </trkpt>
      <trkpt lat="46.01724" lon="0.3706">
        <ele>175.6</ele>
        <time>2022-04-03T14:43:39Z</time>
      </trkpt>
      <trkpt lat="46.01726" lon="0.37055">
        <ele>175.4</ele>
        <time>2022-04-03T14:43:40Z</time>
      </trkpt>
      <trkpt lat="46.01727" lon="0.3705">
        <ele>175.6</ele>
        <time>2022-04-03T14:43:41Z</time>
      </trkpt>
      <trkpt lat="46.01729" lon="0.37045">
        <ele>175.6</ele>
        <time>2022-04-03T14:43:42Z</time>
      </trkpt>
      <trkpt lat="46.0173" lon="0.3704">
        <ele>175.4</ele>
        <time>2022-04-03T14:43:43Z</time>
      </trkpt>
      <trkpt lat="46.01732" lon="0.37034">
        <ele>175.4</ele>
        <time>2022-04-03T14:43:44Z</time>
      </trkpt>
      <trkpt lat="46.01734" lon="0.37029">
        <ele>175.6</ele>
        <time>2022-04-03T14:43:45Z</time>
      </trkpt>
      <trkpt lat="46.01735" lon="0.37024">
        <ele>175.6</ele>
        <time>2022-04-03T14:43:46Z</time>
      </trkpt>
      <trkpt lat="46.01737" lon="0.37019">
        <ele>175.8</ele>
        <time>2022-04-03T14:43:47Z</time>
      </trkpt>
      <trkpt lat="46.01739" lon="0.37013">
        <ele>176</ele>
        <time>2022-04-03T14:43:48Z</time>
      </trkpt>
      <trkpt lat="46.0174" lon="0.37008">
        <ele>176.4</ele>
        <time>2022-04-03T14:43:49Z</time>
      </trkpt>
      <trkpt lat="46.01742" lon="0.37003">
        <ele>176.4</ele>
        <time>2022-04-03T14:43:50Z</time>
      </trkpt>
      <trkpt lat="46.01744" lon="0.36997">
        <ele>176.4</ele>
        <time>2022-04-03T14:43:51Z</time>
      </trkpt>
      <trkpt lat="46.01745" lon="0.36992">
        <ele>176.6</ele>
        <time>2022-04-03T14:43:52Z</time>
      </trkpt>
      <trkpt lat="46.01747" lon="0.36987">
        <ele>176.6</ele>
        <time>2022-04-03T14:43:53Z</time>
      </trkpt>
      <trkpt lat="46.01749" lon="0.36982">
        <ele>176.8</ele>
        <time>2022-04-03T14:43:54Z</time>
      </trkpt>
      <trkpt lat="46.0175" lon="0.36977">
        <ele>176.8</ele>
        <time>2022-04-03T14:43:55Z</time>
      </trkpt>
      <trkpt lat="46.01752" lon="0.36971">
        <ele>176.8</ele>
        <time>2022-04-03T14:43:56Z</time>
      </trkpt>
      <trkpt lat="46.01754" lon="0.36966">
        <ele>177</ele>
        <time>2022-04-03T14:43:57Z</time>
      </trkpt>
      <trkpt lat="46.01755" lon="0.36961">
        <ele>177</ele>
        <time>2022-04-03T14:43:58Z</time>
      </trkpt>
      <trkpt lat="46.01757" lon="0.36956">
        <ele>177.2</ele>
        <time>2022-04-03T14:43:59Z</time>
      </trkpt>
      <trkpt lat="46.01759" lon="0.3695">
        <ele>177.4</ele>
        <time>2022-04-03T14:44:00Z</time>
      </trkpt>
      <trkpt lat="46.0176" lon="0.36945">
        <ele>177.4</ele>
        <time>2022-04-03T14:44:01Z</time>
      </trkpt>
      <trkpt lat="46.01762" lon="0.3694">
        <ele>177.6</ele>
        <time>2022-04-03T14:44:02Z</time>
      </trkpt>
      <trkpt lat="46.01764" lon="0.36934">
        <ele>177.6</ele>
        <time>2022-04-03T14:44:03Z</time>
      </trkpt>
      <trkpt lat="46.01766" lon="0.36928">
        <ele>177.6</ele>
        <time>2022-04-03T14:44:04Z</time>
      </trkpt>
      <trkpt lat="46.01768" lon="0.36923">
        <ele>177.6</ele>
        <time>2022-04-03T14:44:05Z</time>
      </trkpt>
      <trkpt lat="46.0177" lon="0.36916">
        <ele>177.6</ele>
        <time>2022-04-03T14:44:06Z</time>
      </trkpt>
      <trkpt lat="46.01772" lon="0.3691">
        <ele>177.6</ele>
        <time>2022-04-03T14:44:07Z</time>
      </trkpt>
      <trkpt lat="46.01774" lon="0.36904">
        <ele>177.8</ele>
        <time>2022-04-03T14:44:08Z</time>
      </trkpt>
      <trkpt lat="46.01776" lon="0.36897">
        <ele>177.8</ele>
        <time>2022-04-03T14:44:09Z</time>
      </trkpt>
      <trkpt lat="46.01778" lon="0.36891">
        <ele>177.8</ele>
        <time>2022-04-03T14:44:10Z</time>
      </trkpt>
      <trkpt lat="46.0178" lon="0.36884">
        <ele>177.8</ele>
        <time>2022-04-03T14:44:11Z</time>
      </trkpt>
      <trkpt lat="46.01782" lon="0.36878">
        <ele>177.8</ele>
        <time>2022-04-03T14:44:12Z</time>
      </trkpt>
      <trkpt lat="46.01784" lon="0.36871">
        <ele>177.8</ele>
        <time>2022-04-03T14:44:13Z</time>
      </trkpt>
      <trkpt lat="46.01786" lon="0.36865">
        <ele>177.8</ele>
        <time>2022-04-03T14:44:14Z</time>
      </trkpt>
      <trkpt lat="46.01788" lon="0.36858">
        <ele>177.8</ele>
        <time>2022-04-03T14:44:15Z</time>
      </trkpt>
      <trkpt lat="46.01791" lon="0.36852">
        <ele>177.8</ele>
        <time>2022-04-03T14:44:16Z</time>
      </trkpt>
      <trkpt lat="46.01793" lon="0.36846">
        <ele>177.6</ele>
        <time>2022-04-03T14:44:17Z</time>
      </trkpt>
      <trkpt lat="46.01795" lon="0.36839">
        <ele>177.4</ele>
        <time>2022-04-03T14:44:18Z</time>
      </trkpt>
      <trkpt lat="46.01797" lon="0.36833">
        <ele>177.2</ele>
        <time>2022-04-03T14:44:19Z</time>
      </trkpt>
      <trkpt lat="46.01799" lon="0.36826">
        <ele>177</ele>
        <time>2022-04-03T14:44:20Z</time>
      </trkpt>
      <trkpt lat="46.01801" lon="0.36819">
        <ele>176.8</ele>
        <time>2022-04-03T14:44:21Z</time>
      </trkpt>
      <trkpt lat="46.01803" lon="0.36813">
        <ele>176.8</ele>
        <time>2022-04-03T14:44:22Z</time>
      </trkpt>
      <trkpt lat="46.01806" lon="0.36806">
        <ele>176.8</ele>
        <time>2022-04-03T14:44:23Z</time>
      </trkpt>
      <trkpt lat="46.01808" lon="0.36799">
        <ele>176.8</ele>
        <time>2022-04-03T14:44:24Z</time>
      </trkpt>
      <trkpt lat="46.01811" lon="0.36792">
        <ele>176.6</ele>
        <time>2022-04-03T14:44:25Z</time>
      </trkpt>
      <trkpt lat="46.01813" lon="0.36785">
        <ele>176.6</ele>
        <time>2022-04-03T14:44:26Z</time>
      </trkpt>
      <trkpt lat="46.01815" lon="0.36778">
        <ele>176.6</ele>
        <time>2022-04-03T14:44:27Z</time>
      </trkpt>
      <trkpt lat="46.01817" lon="0.36771">
        <ele>176.6</ele>
        <time>2022-04-03T14:44:28Z</time>
      </trkpt>
      <trkpt lat="46.01819" lon="0.36764">
        <ele>176.4</ele>
        <time>2022-04-03T14:44:29Z</time>
      </trkpt>
      <trkpt lat="46.01822" lon="0.36757">
        <ele>176.4</ele>
        <time>2022-04-03T14:44:30Z</time>
      </trkpt>
      <trkpt lat="46.01824" lon="0.3675">
        <ele>176.2</ele>
        <time>2022-04-03T14:44:31Z</time>
      </trkpt>
      <trkpt lat="46.01827" lon="0.36743">
        <ele>175.8</ele>
        <time>2022-04-03T14:44:32Z</time>
      </trkpt>
      <trkpt lat="46.01831" lon="0.36735">
        <ele>175.6</ele>
        <time>2022-04-03T14:44:33Z</time>
      </trkpt>
      <trkpt lat="46.01834" lon="0.36728">
        <ele>175.6</ele>
        <time>2022-04-03T14:44:34Z</time>
      </trkpt>
      <trkpt lat="46.01837" lon="0.36721">
        <ele>175.4</ele>
        <time>2022-04-03T14:44:35Z</time>
      </trkpt>
      <trkpt lat="46.01841" lon="0.36714">
        <ele>175</ele>
        <time>2022-04-03T14:44:36Z</time>
      </trkpt>
      <trkpt lat="46.01844" lon="0.36706">
        <ele>174.8</ele>
        <time>2022-04-03T14:44:37Z</time>
      </trkpt>
      <trkpt lat="46.01847" lon="0.36699">
        <ele>174.8</ele>
        <time>2022-04-03T14:44:38Z</time>
      </trkpt>
      <trkpt lat="46.01851" lon="0.36691">
        <ele>174.4</ele>
        <time>2022-04-03T14:44:39Z</time>
      </trkpt>
      <trkpt lat="46.01855" lon="0.36683">
        <ele>174.4</ele>
        <time>2022-04-03T14:44:40Z</time>
      </trkpt>
      <trkpt lat="46.0186" lon="0.36675">
        <ele>174.2</ele>
        <time>2022-04-03T14:44:41Z</time>
      </trkpt>
      <trkpt lat="46.01864" lon="0.36667">
        <ele>174</ele>
        <time>2022-04-03T14:44:42Z</time>
      </trkpt>
      <trkpt lat="46.01869" lon="0.36658">
        <ele>173.6</ele>
        <time>2022-04-03T14:44:43Z</time>
      </trkpt>
      <trkpt lat="46.01873" lon="0.3665">
        <ele>173.2</ele>
        <time>2022-04-03T14:44:44Z</time>
      </trkpt>
      <trkpt lat="46.01878" lon="0.36641">
        <ele>172.8</ele>
        <time>2022-04-03T14:44:45Z</time>
      </trkpt>
      <trkpt lat="46.01883" lon="0.36633">
        <ele>172.4</ele>
        <time>2022-04-03T14:44:46Z</time>
      </trkpt>
      <trkpt lat="46.01888" lon="0.36625">
        <ele>172</ele>
        <time>2022-04-03T14:44:47Z</time>
      </trkpt>
      <trkpt lat="46.01893" lon="0.36617">
        <ele>171.8</ele>
        <time>2022-04-03T14:44:48Z</time>
      </trkpt>
      <trkpt lat="46.01898" lon="0.36609">
        <ele>171.4</ele>
        <time>2022-04-03T14:44:49Z</time>
      </trkpt>
      <trkpt lat="46.01903" lon="0.36601">
        <ele>171.2</ele>
        <time>2022-04-03T14:44:50Z</time>
      </trkpt>
      <trkpt lat="46.01907" lon="0.36592">
        <ele>170.8</ele>
        <time>2022-04-03T14:44:51Z</time>
      </trkpt>
      <trkpt lat="46.0191" lon="0.36583">
        <ele>170.4</ele>
        <time>2022-04-03T14:44:52Z</time>
      </trkpt>
      <trkpt lat="46.01914" lon="0.36573">
        <ele>170.2</ele>
        <time>2022-04-03T14:44:53Z</time>
      </trkpt>
      <trkpt lat="46.01918" lon="0.36564">
        <ele>170</ele>
        <time>2022-04-03T14:44:54Z</time>
      </trkpt>
      <trkpt lat="46.01922" lon="0.36556">
        <ele>169.8</ele>
        <time>2022-04-03T14:44:55Z</time>
      </trkpt>
      <trkpt lat="46.01926" lon="0.36548">
        <ele>169.6</ele>
        <time>2022-04-03T14:44:56Z</time>
      </trkpt>
      <trkpt lat="46.01929" lon="0.3654">
        <ele>169.4</ele>
        <time>2022-04-03T14:44:57Z</time>
      </trkpt>
      <trkpt lat="46.01933" lon="0.36532">
        <ele>169.4</ele>
        <time>2022-04-03T14:44:58Z</time>
      </trkpt>
      <trkpt lat="46.01937" lon="0.36524">
        <ele>169.4</ele>
        <time>2022-04-03T14:44:59Z</time>
      </trkpt>
      <trkpt lat="46.01941" lon="0.36517">
        <ele>169.2</ele>
        <time>2022-04-03T14:45:00Z</time>
      </trkpt>
      <trkpt lat="46.01944" lon="0.3651">
        <ele>169.2</ele>
        <time>2022-04-03T14:45:01Z</time>
      </trkpt>
      <trkpt lat="46.01947" lon="0.36503">
        <ele>169</ele>
        <time>2022-04-03T14:45:02Z</time>
      </trkpt>
      <trkpt lat="46.01951" lon="0.36496">
        <ele>168.4</ele>
        <time>2022-04-03T14:45:03Z</time>
      </trkpt>
      <trkpt lat="46.01954" lon="0.36489">
        <ele>168.2</ele>
        <time>2022-04-03T14:45:04Z</time>
      </trkpt>
      <trkpt lat="46.01957" lon="0.36483">
        <ele>167.8</ele>
        <time>2022-04-03T14:45:05Z</time>
      </trkpt>
      <trkpt lat="46.0196" lon="0.36476">
        <ele>167.8</ele>
        <time>2022-04-03T14:45:06Z</time>
      </trkpt>
      <trkpt lat="46.01963" lon="0.36469">
        <ele>167.8</ele>
        <time>2022-04-03T14:45:07Z</time>
      </trkpt>
      <trkpt lat="46.01967" lon="0.36462">
        <ele>167.8</ele>
        <time>2022-04-03T14:45:08Z</time>
      </trkpt>
      <trkpt lat="46.0197" lon="0.36456">
        <ele>167.8</ele>
        <time>2022-04-03T14:45:09Z</time>
      </trkpt>
      <trkpt lat="46.01973" lon="0.36449">
        <ele>167.8</ele>
        <time>2022-04-03T14:45:10Z</time>
      </trkpt>
      <trkpt lat="46.01977" lon="0.36442">
        <ele>167.8</ele>
        <time>2022-04-03T14:45:11Z</time>
      </trkpt>
      <trkpt lat="46.0198" lon="0.36435">
        <ele>167.6</ele>
        <time>2022-04-03T14:45:12Z</time>
      </trkpt>
      <trkpt lat="46.01983" lon="0.36429">
        <ele>167.6</ele>
        <time>2022-04-03T14:45:13Z</time>
      </trkpt>
      <trkpt lat="46.01986" lon="0.36422">
        <ele>167.6</ele>
        <time>2022-04-03T14:45:14Z</time>
      </trkpt>
      <trkpt lat="46.01989" lon="0.36416">
        <ele>167.6</ele>
        <time>2022-04-03T14:45:15Z</time>
      </trkpt>
      <trkpt lat="46.01992" lon="0.36409">
        <ele>167.6</ele>
        <time>2022-04-03T14:45:16Z</time>
      </trkpt>
      <trkpt lat="46.01995" lon="0.36403">
        <ele>167.6</ele>
        <time>2022-04-03T14:45:17Z</time>
      </trkpt>
      <trkpt lat="46.01998" lon="0.36397">
        <ele>167.6</ele>
        <time>2022-04-03T14:45:18Z</time>
      </trkpt>
      <trkpt lat="46.02001" lon="0.36391">
        <ele>167.6</ele>
        <time>2022-04-03T14:45:19Z</time>
      </trkpt>
      <trkpt lat="46.02004" lon="0.36385">
        <ele>167.4</ele>
        <time>2022-04-03T14:45:20Z</time>
      </trkpt>
      <trkpt lat="46.02007" lon="0.36379">
        <ele>167.6</ele>
        <time>2022-04-03T14:45:21Z</time>
      </trkpt>
      <trkpt lat="46.02009" lon="0.36373">
        <ele>167.6</ele>
        <time>2022-04-03T14:45:22Z</time>
      </trkpt>
      <trkpt lat="46.02012" lon="0.36366">
        <ele>167.6</ele>
        <time>2022-04-03T14:45:23Z</time>
      </trkpt>
      <trkpt lat="46.02015" lon="0.3636">
        <ele>167.6</ele>
        <time>2022-04-03T14:45:24Z</time>
      </trkpt>
      <trkpt lat="46.02018" lon="0.36354">
        <ele>167.6</ele>
        <time>2022-04-03T14:45:25Z</time>
      </trkpt>
      <trkpt lat="46.02021" lon="0.36347">
        <ele>167.4</ele>
        <time>2022-04-03T14:45:26Z</time>
      </trkpt>
      <trkpt lat="46.02024" lon="0.36341">
        <ele>167.4</ele>
        <time>2022-04-03T14:45:27Z</time>
      </trkpt>
      <trkpt lat="46.02028" lon="0.36335">
        <ele>167.4</ele>
        <time>2022-04-03T14:45:28Z</time>
      </trkpt>
      <trkpt lat="46.02031" lon="0.36329">
        <ele>167.2</ele>
        <time>2022-04-03T14:45:29Z</time>
      </trkpt>
      <trkpt lat="46.02035" lon="0.36323">
        <ele>167.4</ele>
        <time>2022-04-03T14:45:30Z</time>
      </trkpt>
      <trkpt lat="46.02039" lon="0.36316">
        <ele>167.2</ele>
        <time>2022-04-03T14:45:31Z</time>
      </trkpt>
      <trkpt lat="46.02042" lon="0.36311">
        <ele>167.2</ele>
        <time>2022-04-03T14:45:32Z</time>
      </trkpt>
      <trkpt lat="46.02046" lon="0.36305">
        <ele>167.2</ele>
        <time>2022-04-03T14:45:33Z</time>
      </trkpt>
      <trkpt lat="46.0205" lon="0.36299">
        <ele>167.4</ele>
        <time>2022-04-03T14:45:34Z</time>
      </trkpt>
      <trkpt lat="46.02054" lon="0.36294">
        <ele>167.2</ele>
        <time>2022-04-03T14:45:35Z</time>
      </trkpt>
      <trkpt lat="46.02058" lon="0.36289">
        <ele>167.2</ele>
        <time>2022-04-03T14:45:36Z</time>
      </trkpt>
      <trkpt lat="46.02062" lon="0.36284">
        <ele>167.2</ele>
        <time>2022-04-03T14:45:37Z</time>
      </trkpt>
      <trkpt lat="46.02066" lon="0.36279">
        <ele>167.2</ele>
        <time>2022-04-03T14:45:38Z</time>
      </trkpt>
      <trkpt lat="46.0207" lon="0.36274">
        <ele>167.2</ele>
        <time>2022-04-03T14:45:39Z</time>
      </trkpt>
      <trkpt lat="46.02073" lon="0.36269">
        <ele>167.4</ele>
        <time>2022-04-03T14:45:40Z</time>
      </trkpt>
      <trkpt lat="46.02078" lon="0.36264">
        <ele>167.2</ele>
        <time>2022-04-03T14:45:41Z</time>
      </trkpt>
      <trkpt lat="46.02082" lon="0.36259">
        <ele>167.2</ele>
        <time>2022-04-03T14:45:42Z</time>
      </trkpt>
      <trkpt lat="46.02085" lon="0.36254">
        <ele>167.2</ele>
        <time>2022-04-03T14:45:43Z</time>
      </trkpt>
      <trkpt lat="46.02089" lon="0.36249">
        <ele>167.4</ele>
        <time>2022-04-03T14:45:44Z</time>
      </trkpt>
      <trkpt lat="46.02093" lon="0.36243">
        <ele>167.4</ele>
        <time>2022-04-03T14:45:45Z</time>
      </trkpt>
      <trkpt lat="46.02097" lon="0.36238">
        <ele>167.4</ele>
        <time>2022-04-03T14:45:46Z</time>
      </trkpt>
      <trkpt lat="46.02101" lon="0.36232">
        <ele>167.4</ele>
        <time>2022-04-03T14:45:47Z</time>
      </trkpt>
      <trkpt lat="46.02105" lon="0.36226">
        <ele>167.4</ele>
        <time>2022-04-03T14:45:48Z</time>
      </trkpt>
      <trkpt lat="46.02108" lon="0.36219">
        <ele>167.4</ele>
        <time>2022-04-03T14:45:49Z</time>
      </trkpt>
      <trkpt lat="46.02111" lon="0.36213">
        <ele>167.2</ele>
        <time>2022-04-03T14:45:50Z</time>
      </trkpt>
      <trkpt lat="46.02115" lon="0.36206">
        <ele>167.4</ele>
        <time>2022-04-03T14:45:51Z</time>
      </trkpt>
      <trkpt lat="46.02118" lon="0.36198">
        <ele>167.2</ele>
        <time>2022-04-03T14:45:52Z</time>
      </trkpt>
      <trkpt lat="46.02121" lon="0.3619">
        <ele>167.2</ele>
        <time>2022-04-03T14:45:53Z</time>
      </trkpt>
      <trkpt lat="46.02124" lon="0.36182">
        <ele>167.2</ele>
        <time>2022-04-03T14:45:54Z</time>
      </trkpt>
      <trkpt lat="46.02127" lon="0.36174">
        <ele>167.2</ele>
        <time>2022-04-03T14:45:55Z</time>
      </trkpt>
      <trkpt lat="46.02131" lon="0.36166">
        <ele>167.2</ele>
        <time>2022-04-03T14:45:56Z</time>
      </trkpt>
      <trkpt lat="46.02134" lon="0.36157">
        <ele>166.8</ele>
        <time>2022-04-03T14:45:57Z</time>
      </trkpt>
      <trkpt lat="46.02137" lon="0.36149">
        <ele>166.4</ele>
        <time>2022-04-03T14:45:58Z</time>
      </trkpt>
      <trkpt lat="46.02139" lon="0.36141">
        <ele>166.2</ele>
        <time>2022-04-03T14:45:59Z</time>
      </trkpt>
      <trkpt lat="46.02142" lon="0.36133">
        <ele>166</ele>
        <time>2022-04-03T14:46:00Z</time>
      </trkpt>
      <trkpt lat="46.02144" lon="0.36125">
        <ele>165.6</ele>
        <time>2022-04-03T14:46:01Z</time>
      </trkpt>
      <trkpt lat="46.02147" lon="0.36117">
        <ele>165</ele>
        <time>2022-04-03T14:46:02Z</time>
      </trkpt>
      <trkpt lat="46.02149" lon="0.36109">
        <ele>164.8</ele>
        <time>2022-04-03T14:46:03Z</time>
      </trkpt>
      <trkpt lat="46.02151" lon="0.36102">
        <ele>164.8</ele>
        <time>2022-04-03T14:46:04Z</time>
      </trkpt>
      <trkpt lat="46.02153" lon="0.36094">
        <ele>164.8</ele>
        <time>2022-04-03T14:46:05Z</time>
      </trkpt>
      <trkpt lat="46.02156" lon="0.36087">
        <ele>164.8</ele>
        <time>2022-04-03T14:46:06Z</time>
      </trkpt>
      <trkpt lat="46.02158" lon="0.3608">
        <ele>164.6</ele>
        <time>2022-04-03T14:46:07Z</time>
      </trkpt>
      <trkpt lat="46.02161" lon="0.36073">
        <ele>164.4</ele>
        <time>2022-04-03T14:46:08Z</time>
      </trkpt>
      <trkpt lat="46.02163" lon="0.36065">
        <ele>164.4</ele>
        <time>2022-04-03T14:46:09Z</time>
      </trkpt>
      <trkpt lat="46.02165" lon="0.36058">
        <ele>164.4</ele>
        <time>2022-04-03T14:46:10Z</time>
      </trkpt>
      <trkpt lat="46.02167" lon="0.3605">
        <ele>164.2</ele>
        <time>2022-04-03T14:46:11Z</time>
      </trkpt>
      <trkpt lat="46.02169" lon="0.36043">
        <ele>164</ele>
        <time>2022-04-03T14:46:12Z</time>
      </trkpt>
      <trkpt lat="46.02172" lon="0.36035">
        <ele>164</ele>
        <time>2022-04-03T14:46:13Z</time>
      </trkpt>
      <trkpt lat="46.02174" lon="0.36028">
        <ele>163.8</ele>
        <time>2022-04-03T14:46:14Z</time>
      </trkpt>
      <trkpt lat="46.02178" lon="0.36021">
        <ele>163.8</ele>
        <time>2022-04-03T14:46:15Z</time>
      </trkpt>
      <trkpt lat="46.02181" lon="0.36014">
        <ele>163.6</ele>
        <time>2022-04-03T14:46:16Z</time>
      </trkpt>
      <trkpt lat="46.02183" lon="0.36007">
        <ele>163.6</ele>
        <time>2022-04-03T14:46:17Z</time>
      </trkpt>
      <trkpt lat="46.02186" lon="0.36">
        <ele>163.8</ele>
        <time>2022-04-03T14:46:18Z</time>
      </trkpt>
      <trkpt lat="46.02188" lon="0.35993">
        <ele>163.6</ele>
        <time>2022-04-03T14:46:19Z</time>
      </trkpt>
      <trkpt lat="46.02191" lon="0.35985">
        <ele>163.6</ele>
        <time>2022-04-03T14:46:20Z</time>
      </trkpt>
      <trkpt lat="46.02194" lon="0.35978">
        <ele>163.6</ele>
        <time>2022-04-03T14:46:21Z</time>
      </trkpt>
      <trkpt lat="46.02197" lon="0.35971">
        <ele>163.4</ele>
        <time>2022-04-03T14:46:22Z</time>
      </trkpt>
      <trkpt lat="46.022" lon="0.35963">
        <ele>163.4</ele>
        <time>2022-04-03T14:46:23Z</time>
      </trkpt>
      <trkpt lat="46.02204" lon="0.35956">
        <ele>163.4</ele>
        <time>2022-04-03T14:46:24Z</time>
      </trkpt>
      <trkpt lat="46.02208" lon="0.35949">
        <ele>163.2</ele>
        <time>2022-04-03T14:46:25Z</time>
      </trkpt>
      <trkpt lat="46.02211" lon="0.35941">
        <ele>163.2</ele>
        <time>2022-04-03T14:46:26Z</time>
      </trkpt>
      <trkpt lat="46.02215" lon="0.35934">
        <ele>162.8</ele>
        <time>2022-04-03T14:46:27Z</time>
      </trkpt>
      <trkpt lat="46.02219" lon="0.35927">
        <ele>162.6</ele>
        <time>2022-04-03T14:46:28Z</time>
      </trkpt>
      <trkpt lat="46.02223" lon="0.3592">
        <ele>162.4</ele>
        <time>2022-04-03T14:46:29Z</time>
      </trkpt>
      <trkpt lat="46.02227" lon="0.35914">
        <ele>162.4</ele>
        <time>2022-04-03T14:46:30Z</time>
      </trkpt>
      <trkpt lat="46.02231" lon="0.35907">
        <ele>162.2</ele>
        <time>2022-04-03T14:46:31Z</time>
      </trkpt>
      <trkpt lat="46.02235" lon="0.359">
        <ele>162.2</ele>
        <time>2022-04-03T14:46:32Z</time>
      </trkpt>
      <trkpt lat="46.0224" lon="0.35893">
        <ele>162.2</ele>
        <time>2022-04-03T14:46:33Z</time>
      </trkpt>
      <trkpt lat="46.02244" lon="0.35887">
        <ele>162.2</ele>
        <time>2022-04-03T14:46:34Z</time>
      </trkpt>
      <trkpt lat="46.02249" lon="0.35881">
        <ele>162</ele>
        <time>2022-04-03T14:46:35Z</time>
      </trkpt>
      <trkpt lat="46.02253" lon="0.35874">
        <ele>162</ele>
        <time>2022-04-03T14:46:36Z</time>
      </trkpt>
      <trkpt lat="46.02257" lon="0.35868">
        <ele>161.8</ele>
        <time>2022-04-03T14:46:37Z</time>
      </trkpt>
      <trkpt lat="46.02262" lon="0.35862">
        <ele>161.8</ele>
        <time>2022-04-03T14:46:38Z</time>
      </trkpt>
      <trkpt lat="46.02266" lon="0.35855">
        <ele>161.6</ele>
        <time>2022-04-03T14:46:39Z</time>
      </trkpt>
      <trkpt lat="46.0227" lon="0.35849">
        <ele>161.4</ele>
        <time>2022-04-03T14:46:40Z</time>
      </trkpt>
      <trkpt lat="46.02274" lon="0.35843">
        <ele>161.4</ele>
        <time>2022-04-03T14:46:41Z</time>
      </trkpt>
      <trkpt lat="46.02278" lon="0.35837">
        <ele>161.2</ele>
        <time>2022-04-03T14:46:42Z</time>
      </trkpt>
      <trkpt lat="46.02282" lon="0.35831">
        <ele>161.2</ele>
        <time>2022-04-03T14:46:43Z</time>
      </trkpt>
      <trkpt lat="46.02286" lon="0.35825">
        <ele>160.8</ele>
        <time>2022-04-03T14:46:44Z</time>
      </trkpt>
      <trkpt lat="46.0229" lon="0.35819">
        <ele>160.4</ele>
        <time>2022-04-03T14:46:45Z</time>
      </trkpt>
      <trkpt lat="46.02294" lon="0.35813">
        <ele>160.2</ele>
        <time>2022-04-03T14:46:46Z</time>
      </trkpt>
      <trkpt lat="46.02297" lon="0.35807">
        <ele>159.8</ele>
        <time>2022-04-03T14:46:47Z</time>
      </trkpt>
      <trkpt lat="46.02301" lon="0.358">
        <ele>159.6</ele>
        <time>2022-04-03T14:46:48Z</time>
      </trkpt>
      <trkpt lat="46.02305" lon="0.35794">
        <ele>159.4</ele>
        <time>2022-04-03T14:46:49Z</time>
      </trkpt>
      <trkpt lat="46.02309" lon="0.35788">
        <ele>159.2</ele>
        <time>2022-04-03T14:46:50Z</time>
      </trkpt>
      <trkpt lat="46.02313" lon="0.35781">
        <ele>158.8</ele>
        <time>2022-04-03T14:46:51Z</time>
      </trkpt>
      <trkpt lat="46.02317" lon="0.35775">
        <ele>158.4</ele>
        <time>2022-04-03T14:46:52Z</time>
      </trkpt>
      <trkpt lat="46.02321" lon="0.35769">
        <ele>158.4</ele>
        <time>2022-04-03T14:46:53Z</time>
      </trkpt>
      <trkpt lat="46.02325" lon="0.35763">
        <ele>158.2</ele>
        <time>2022-04-03T14:46:54Z</time>
      </trkpt>
      <trkpt lat="46.02329" lon="0.35757">
        <ele>158.2</ele>
        <time>2022-04-03T14:46:55Z</time>
      </trkpt>
      <trkpt lat="46.02333" lon="0.3575">
        <ele>158.2</ele>
        <time>2022-04-03T14:46:56Z</time>
      </trkpt>
      <trkpt lat="46.02337" lon="0.35744">
        <ele>157.8</ele>
        <time>2022-04-03T14:46:57Z</time>
      </trkpt>
      <trkpt lat="46.02341" lon="0.35738">
        <ele>157.4</ele>
        <time>2022-04-03T14:46:58Z</time>
      </trkpt>
      <trkpt lat="46.02345" lon="0.35732">
        <ele>157.4</ele>
        <time>2022-04-03T14:46:59Z</time>
      </trkpt>
      <trkpt lat="46.02349" lon="0.35726">
        <ele>157.2</ele>
        <time>2022-04-03T14:47:00Z</time>
      </trkpt>
      <trkpt lat="46.02352" lon="0.3572">
        <ele>157</ele>
        <time>2022-04-03T14:47:01Z</time>
      </trkpt>
      <trkpt lat="46.02355" lon="0.35714">
        <ele>157</ele>
        <time>2022-04-03T14:47:02Z</time>
      </trkpt>
      <trkpt lat="46.02358" lon="0.35707">
        <ele>157</ele>
        <time>2022-04-03T14:47:03Z</time>
      </trkpt>
      <trkpt lat="46.02361" lon="0.35701">
        <ele>157.2</ele>
        <time>2022-04-03T14:47:04Z</time>
      </trkpt>
      <trkpt lat="46.02364" lon="0.35694">
        <ele>157</ele>
        <time>2022-04-03T14:47:05Z</time>
      </trkpt>
      <trkpt lat="46.02366" lon="0.35687">
        <ele>157</ele>
        <time>2022-04-03T14:47:06Z</time>
      </trkpt>
      <trkpt lat="46.02369" lon="0.35681">
        <ele>157.2</ele>
        <time>2022-04-03T14:47:07Z</time>
      </trkpt>
      <trkpt lat="46.02371" lon="0.35674">
        <ele>157.2</ele>
        <time>2022-04-03T14:47:08Z</time>
      </trkpt>
      <trkpt lat="46.02373" lon="0.35668">
        <ele>157</ele>
        <time>2022-04-03T14:47:09Z</time>
      </trkpt>
      <trkpt lat="46.02375" lon="0.35661">
        <ele>157.2</ele>
        <time>2022-04-03T14:47:10Z</time>
      </trkpt>
      <trkpt lat="46.02376" lon="0.35654">
        <ele>157.2</ele>
        <time>2022-04-03T14:47:11Z</time>
      </trkpt>
      <trkpt lat="46.02378" lon="0.35647">
        <ele>157.2</ele>
        <time>2022-04-03T14:47:12Z</time>
      </trkpt>
      <trkpt lat="46.02379" lon="0.3564">
        <ele>157.4</ele>
        <time>2022-04-03T14:47:13Z</time>
      </trkpt>
      <trkpt lat="46.02381" lon="0.35633">
        <ele>157.4</ele>
        <time>2022-04-03T14:47:14Z</time>
      </trkpt>
      <trkpt lat="46.02382" lon="0.35626">
        <ele>157.4</ele>
        <time>2022-04-03T14:47:15Z</time>
      </trkpt>
      <trkpt lat="46.02383" lon="0.35619">
        <ele>157.6</ele>
        <time>2022-04-03T14:47:16Z</time>
      </trkpt>
      <trkpt lat="46.02385" lon="0.35612">
        <ele>157.8</ele>
        <time>2022-04-03T14:47:17Z</time>
      </trkpt>
      <trkpt lat="46.02386" lon="0.35604">
        <ele>157.8</ele>
        <time>2022-04-03T14:47:18Z</time>
      </trkpt>
      <trkpt lat="46.02387" lon="0.35597">
        <ele>157.8</ele>
        <time>2022-04-03T14:47:19Z</time>
      </trkpt>
      <trkpt lat="46.02388" lon="0.3559">
        <ele>158</ele>
        <time>2022-04-03T14:47:20Z</time>
      </trkpt>
      <trkpt lat="46.02388" lon="0.35583">
        <ele>158.4</ele>
        <time>2022-04-03T14:47:21Z</time>
      </trkpt>
      <trkpt lat="46.02389" lon="0.35576">
        <ele>158.8</ele>
        <time>2022-04-03T14:47:22Z</time>
      </trkpt>
      <trkpt lat="46.0239" lon="0.35569">
        <ele>159</ele>
        <time>2022-04-03T14:47:23Z</time>
      </trkpt>
      <trkpt lat="46.02391" lon="0.35562">
        <ele>159.2</ele>
        <time>2022-04-03T14:47:24Z</time>
      </trkpt>
      <trkpt lat="46.02392" lon="0.35555">
        <ele>159.4</ele>
        <time>2022-04-03T14:47:25Z</time>
      </trkpt>
      <trkpt lat="46.02392" lon="0.35548">
        <ele>159.6</ele>
        <time>2022-04-03T14:47:26Z</time>
      </trkpt>
      <trkpt lat="46.02392" lon="0.35541">
        <ele>159.6</ele>
        <time>2022-04-03T14:47:27Z</time>
      </trkpt>
      <trkpt lat="46.02393" lon="0.35533">
        <ele>159.6</ele>
        <time>2022-04-03T14:47:28Z</time>
      </trkpt>
      <trkpt lat="46.02393" lon="0.35525">
        <ele>159.6</ele>
        <time>2022-04-03T14:47:29Z</time>
      </trkpt>
      <trkpt lat="46.02394" lon="0.35517">
        <ele>159.6</ele>
        <time>2022-04-03T14:47:30Z</time>
      </trkpt>
      <trkpt lat="46.02395" lon="0.35508">
        <ele>159.6</ele>
        <time>2022-04-03T14:47:31Z</time>
      </trkpt>
      <trkpt lat="46.02395" lon="0.35499">
        <ele>159.8</ele>
        <time>2022-04-03T14:47:32Z</time>
      </trkpt>
      <trkpt lat="46.02396" lon="0.3549">
        <ele>159.6</ele>
        <time>2022-04-03T14:47:33Z</time>
      </trkpt>
      <trkpt lat="46.02396" lon="0.35481">
        <ele>159.6</ele>
        <time>2022-04-03T14:47:34Z</time>
      </trkpt>
      <trkpt lat="46.02396" lon="0.35472">
        <ele>159.6</ele>
        <time>2022-04-03T14:47:35Z</time>
      </trkpt>
      <trkpt lat="46.02397" lon="0.35462">
        <ele>159.6</ele>
        <time>2022-04-03T14:47:36Z</time>
      </trkpt>
      <trkpt lat="46.02397" lon="0.35452">
        <ele>159.8</ele>
        <time>2022-04-03T14:47:37Z</time>
      </trkpt>
      <trkpt lat="46.02397" lon="0.35443">
        <ele>159.4</ele>
        <time>2022-04-03T14:47:38Z</time>
      </trkpt>
      <trkpt lat="46.02398" lon="0.35432">
        <ele>159.2</ele>
        <time>2022-04-03T14:47:39Z</time>
      </trkpt>
      <trkpt lat="46.02399" lon="0.35422">
        <ele>159.2</ele>
        <time>2022-04-03T14:47:40Z</time>
      </trkpt>
      <trkpt lat="46.02399" lon="0.35412">
        <ele>159</ele>
        <time>2022-04-03T14:47:41Z</time>
      </trkpt>
      <trkpt lat="46.02399" lon="0.35401">
        <ele>158.8</ele>
        <time>2022-04-03T14:47:42Z</time>
      </trkpt>
      <trkpt lat="46.024" lon="0.3539">
        <ele>158.4</ele>
        <time>2022-04-03T14:47:43Z</time>
      </trkpt>
      <trkpt lat="46.02401" lon="0.3538">
        <ele>158.2</ele>
        <time>2022-04-03T14:47:44Z</time>
      </trkpt>
      <trkpt lat="46.02401" lon="0.35369">
        <ele>157.8</ele>
        <time>2022-04-03T14:47:45Z</time>
      </trkpt>
      <trkpt lat="46.02402" lon="0.35358">
        <ele>157.6</ele>
        <time>2022-04-03T14:47:46Z</time>
      </trkpt>
      <trkpt lat="46.02403" lon="0.35348">
        <ele>157</ele>
        <time>2022-04-03T14:47:47Z</time>
      </trkpt>
      <trkpt lat="46.02404" lon="0.35338">
        <ele>156.6</ele>
        <time>2022-04-03T14:47:48Z</time>
      </trkpt>
      <trkpt lat="46.02405" lon="0.35328">
        <ele>156.6</ele>
        <time>2022-04-03T14:47:49Z</time>
      </trkpt>
      <trkpt lat="46.02407" lon="0.35318">
        <ele>156.2</ele>
        <time>2022-04-03T14:47:50Z</time>
      </trkpt>
      <trkpt lat="46.02408" lon="0.35309">
        <ele>156.2</ele>
        <time>2022-04-03T14:47:51Z</time>
      </trkpt>
      <trkpt lat="46.02409" lon="0.353">
        <ele>155.6</ele>
        <time>2022-04-03T14:47:52Z</time>
      </trkpt>
      <trkpt lat="46.0241" lon="0.35291">
        <ele>155.2</ele>
        <time>2022-04-03T14:47:53Z</time>
      </trkpt>
      <trkpt lat="46.02412" lon="0.35283">
        <ele>154.8</ele>
        <time>2022-04-03T14:47:54Z</time>
      </trkpt>
      <trkpt lat="46.02413" lon="0.35275">
        <ele>154.4</ele>
        <time>2022-04-03T14:47:55Z</time>
      </trkpt>
      <trkpt lat="46.02414" lon="0.35267">
        <ele>154</ele>
        <time>2022-04-03T14:47:56Z</time>
      </trkpt>
      <trkpt lat="46.02415" lon="0.35259">
        <ele>153.8</ele>
        <time>2022-04-03T14:47:57Z</time>
      </trkpt>
      <trkpt lat="46.02417" lon="0.35252">
        <ele>153.8</ele>
        <time>2022-04-03T14:47:58Z</time>
      </trkpt>
      <trkpt lat="46.02418" lon="0.35245">
        <ele>153.6</ele>
        <time>2022-04-03T14:47:59Z</time>
      </trkpt>
      <trkpt lat="46.0242" lon="0.35239">
        <ele>153.8</ele>
        <time>2022-04-03T14:48:00Z</time>
      </trkpt>
      <trkpt lat="46.02421" lon="0.35233">
        <ele>153.6</ele>
        <time>2022-04-03T14:48:01Z</time>
      </trkpt>
      <trkpt lat="46.02422" lon="0.35226">
        <ele>153.8</ele>
        <time>2022-04-03T14:48:02Z</time>
      </trkpt>
      <trkpt lat="46.02423" lon="0.3522">
        <ele>153.6</ele>
        <time>2022-04-03T14:48:03Z</time>
      </trkpt>
      <trkpt lat="46.02424" lon="0.35214">
        <ele>153.6</ele>
        <time>2022-04-03T14:48:04Z</time>
      </trkpt>
      <trkpt lat="46.02425" lon="0.35208">
        <ele>153.6</ele>
        <time>2022-04-03T14:48:05Z</time>
      </trkpt>
      <trkpt lat="46.02426" lon="0.35202">
        <ele>153.6</ele>
        <time>2022-04-03T14:48:06Z</time>
      </trkpt>
      <trkpt lat="46.02427" lon="0.35196">
        <ele>153.6</ele>
        <time>2022-04-03T14:48:07Z</time>
      </trkpt>
      <trkpt lat="46.02428" lon="0.3519">
        <ele>153.6</ele>
        <time>2022-04-03T14:48:08Z</time>
      </trkpt>
      <trkpt lat="46.0243" lon="0.35184">
        <ele>153.6</ele>
        <time>2022-04-03T14:48:09Z</time>
      </trkpt>
      <trkpt lat="46.02431" lon="0.35178">
        <ele>153.6</ele>
        <time>2022-04-03T14:48:10Z</time>
      </trkpt>
      <trkpt lat="46.02432" lon="0.35172">
        <ele>153.8</ele>
        <time>2022-04-03T14:48:11Z</time>
      </trkpt>
      <trkpt lat="46.02433" lon="0.35165">
        <ele>153.6</ele>
        <time>2022-04-03T14:48:12Z</time>
      </trkpt>
      <trkpt lat="46.02434" lon="0.35159">
        <ele>153.8</ele>
        <time>2022-04-03T14:48:13Z</time>
      </trkpt>
      <trkpt lat="46.02435" lon="0.35153">
        <ele>154</ele>
        <time>2022-04-03T14:48:14Z</time>
      </trkpt>
      <trkpt lat="46.02436" lon="0.35147">
        <ele>154</ele>
        <time>2022-04-03T14:48:15Z</time>
      </trkpt>
      <trkpt lat="46.02437" lon="0.35141">
        <ele>154.2</ele>
        <time>2022-04-03T14:48:16Z</time>
      </trkpt>
      <trkpt lat="46.02438" lon="0.35135">
        <ele>154.2</ele>
        <time>2022-04-03T14:48:17Z</time>
      </trkpt>
      <trkpt lat="46.02439" lon="0.35128">
        <ele>154.2</ele>
        <time>2022-04-03T14:48:18Z</time>
      </trkpt>
      <trkpt lat="46.02441" lon="0.35122">
        <ele>154.6</ele>
        <time>2022-04-03T14:48:19Z</time>
      </trkpt>
      <trkpt lat="46.02442" lon="0.35116">
        <ele>154.8</ele>
        <time>2022-04-03T14:48:20Z</time>
      </trkpt>
      <trkpt lat="46.02444" lon="0.3511">
        <ele>155.2</ele>
        <time>2022-04-03T14:48:21Z</time>
      </trkpt>
      <trkpt lat="46.02445" lon="0.35104">
        <ele>155.2</ele>
        <time>2022-04-03T14:48:22Z</time>
      </trkpt>
      <trkpt lat="46.02447" lon="0.35098">
        <ele>155.4</ele>
        <time>2022-04-03T14:48:23Z</time>
      </trkpt>
      <trkpt lat="46.02449" lon="0.35092">
        <ele>155.4</ele>
        <time>2022-04-03T14:48:24Z</time>
      </trkpt>
      <trkpt lat="46.02451" lon="0.35085">
        <ele>155.8</ele>
        <time>2022-04-03T14:48:25Z</time>
      </trkpt>
      <trkpt lat="46.02453" lon="0.35079">
        <ele>155.8</ele>
        <time>2022-04-03T14:48:26Z</time>
      </trkpt>
      <trkpt lat="46.02454" lon="0.35072">
        <ele>155.6</ele>
        <time>2022-04-03T14:48:27Z</time>
      </trkpt>
      <trkpt lat="46.02457" lon="0.35065">
        <ele>155.6</ele>
        <time>2022-04-03T14:48:28Z</time>
      </trkpt>
      <trkpt lat="46.02459" lon="0.35058">
        <ele>155.8</ele>
        <time>2022-04-03T14:48:29Z</time>
      </trkpt>
      <trkpt lat="46.02461" lon="0.35051">
        <ele>155.6</ele>
        <time>2022-04-03T14:48:30Z</time>
      </trkpt>
      <trkpt lat="46.02463" lon="0.35043">
        <ele>155.6</ele>
        <time>2022-04-03T14:48:31Z</time>
      </trkpt>
      <trkpt lat="46.02466" lon="0.35036">
        <ele>155.8</ele>
        <time>2022-04-03T14:48:32Z</time>
      </trkpt>
      <trkpt lat="46.02468" lon="0.35028">
        <ele>155.8</ele>
        <time>2022-04-03T14:48:33Z</time>
      </trkpt>
      <trkpt lat="46.0247" lon="0.3502">
        <ele>155.8</ele>
        <time>2022-04-03T14:48:34Z</time>
      </trkpt>
      <trkpt lat="46.02472" lon="0.35011">
        <ele>155.6</ele>
        <time>2022-04-03T14:48:35Z</time>
      </trkpt>
      <trkpt lat="46.02475" lon="0.35002">
        <ele>155.4</ele>
        <time>2022-04-03T14:48:36Z</time>
      </trkpt>
      <trkpt lat="46.02477" lon="0.34994">
        <ele>155.2</ele>
        <time>2022-04-03T14:48:37Z</time>
      </trkpt>
      <trkpt lat="46.0248" lon="0.34985">
        <ele>154.8</ele>
        <time>2022-04-03T14:48:38Z</time>
      </trkpt>
      <trkpt lat="46.02482" lon="0.34976">
        <ele>154.6</ele>
        <time>2022-04-03T14:48:39Z</time>
      </trkpt>
      <trkpt lat="46.02485" lon="0.34968">
        <ele>154.2</ele>
        <time>2022-04-03T14:48:40Z</time>
      </trkpt>
      <trkpt lat="46.02487" lon="0.34959">
        <ele>154</ele>
        <time>2022-04-03T14:48:41Z</time>
      </trkpt>
      <trkpt lat="46.0249" lon="0.34951">
        <ele>153.8</ele>
        <time>2022-04-03T14:48:42Z</time>
      </trkpt>
      <trkpt lat="46.02493" lon="0.34943">
        <ele>153.4</ele>
        <time>2022-04-03T14:48:43Z</time>
      </trkpt>
      <trkpt lat="46.02495" lon="0.34935">
        <ele>152.8</ele>
        <time>2022-04-03T14:48:44Z</time>
      </trkpt>
      <trkpt lat="46.02498" lon="0.34927">
        <ele>152.8</ele>
        <time>2022-04-03T14:48:45Z</time>
      </trkpt>
      <trkpt lat="46.025" lon="0.34919">
        <ele>152.4</ele>
        <time>2022-04-03T14:48:46Z</time>
      </trkpt>
      <trkpt lat="46.02502" lon="0.34911">
        <ele>152</ele>
        <time>2022-04-03T14:48:47Z</time>
      </trkpt>
      <trkpt lat="46.02503" lon="0.34903">
        <ele>151.8</ele>
        <time>2022-04-03T14:48:48Z</time>
      </trkpt>
      <trkpt lat="46.02505" lon="0.34896">
        <ele>151.4</ele>
        <time>2022-04-03T14:48:49Z</time>
      </trkpt>
      <trkpt lat="46.02506" lon="0.34888">
        <ele>151.4</ele>
        <time>2022-04-03T14:48:50Z</time>
      </trkpt>
      <trkpt lat="46.02506" lon="0.34881">
        <ele>151.4</ele>
        <time>2022-04-03T14:48:51Z</time>
      </trkpt>
      <trkpt lat="46.02506" lon="0.34873">
        <ele>151.2</ele>
        <time>2022-04-03T14:48:52Z</time>
      </trkpt>
      <trkpt lat="46.02506" lon="0.34866">
        <ele>151.4</ele>
        <time>2022-04-03T14:48:53Z</time>
      </trkpt>
      <trkpt lat="46.02505" lon="0.34859">
        <ele>151.4</ele>
        <time>2022-04-03T14:48:54Z</time>
      </trkpt>
      <trkpt lat="46.02504" lon="0.34853">
        <ele>151.4</ele>
        <time>2022-04-03T14:48:55Z</time>
      </trkpt>
      <trkpt lat="46.02503" lon="0.34846">
        <ele>151.2</ele>
        <time>2022-04-03T14:48:56Z</time>
      </trkpt>
      <trkpt lat="46.02502" lon="0.34841">
        <ele>151.4</ele>
        <time>2022-04-03T14:48:57Z</time>
      </trkpt>
      <trkpt lat="46.025" lon="0.34835">
        <ele>151.4</ele>
        <time>2022-04-03T14:48:58Z</time>
      </trkpt>
      <trkpt lat="46.02498" lon="0.34829">
        <ele>151.6</ele>
        <time>2022-04-03T14:48:59Z</time>
      </trkpt>
      <trkpt lat="46.02496" lon="0.34824">
        <ele>151.6</ele>
        <time>2022-04-03T14:49:00Z</time>
      </trkpt>
      <trkpt lat="46.02494" lon="0.34819">
        <ele>151.8</ele>
        <time>2022-04-03T14:49:01Z</time>
      </trkpt>
      <trkpt lat="46.02493" lon="0.34814">
        <ele>152</ele>
        <time>2022-04-03T14:49:02Z</time>
      </trkpt>
      <trkpt lat="46.02491" lon="0.34809">
        <ele>152.4</ele>
        <time>2022-04-03T14:49:03Z</time>
      </trkpt>
      <trkpt lat="46.02489" lon="0.34804">
        <ele>152.4</ele>
        <time>2022-04-03T14:49:04Z</time>
      </trkpt>
      <trkpt lat="46.02488" lon="0.348">
        <ele>152.6</ele>
        <time>2022-04-03T14:49:05Z</time>
      </trkpt>
      <trkpt lat="46.02486" lon="0.34795">
        <ele>153</ele>
        <time>2022-04-03T14:49:06Z</time>
      </trkpt>
      <trkpt lat="46.02485" lon="0.3479">
        <ele>153.4</ele>
        <time>2022-04-03T14:49:07Z</time>
      </trkpt>
      <trkpt lat="46.02483" lon="0.34786">
        <ele>153.8</ele>
        <time>2022-04-03T14:49:08Z</time>
      </trkpt>
      <trkpt lat="46.02481" lon="0.34781">
        <ele>154.2</ele>
        <time>2022-04-03T14:49:09Z</time>
      </trkpt>
      <trkpt lat="46.0248" lon="0.34776">
        <ele>154.4</ele>
        <time>2022-04-03T14:49:10Z</time>
      </trkpt>
      <trkpt lat="46.02478" lon="0.34772">
        <ele>154.6</ele>
        <time>2022-04-03T14:49:11Z</time>
      </trkpt>
      <trkpt lat="46.02477" lon="0.34767">
        <ele>155.2</ele>
        <time>2022-04-03T14:49:12Z</time>
      </trkpt>
      <trkpt lat="46.02475" lon="0.34762">
        <ele>155.4</ele>
        <time>2022-04-03T14:49:13Z</time>
      </trkpt>
      <trkpt lat="46.02474" lon="0.34757">
        <ele>155.8</ele>
        <time>2022-04-03T14:49:14Z</time>
      </trkpt>
      <trkpt lat="46.02472" lon="0.34752">
        <ele>155.8</ele>
        <time>2022-04-03T14:49:15Z</time>
      </trkpt>
      <trkpt lat="46.02471" lon="0.34747">
        <ele>156.2</ele>
        <time>2022-04-03T14:49:16Z</time>
      </trkpt>
      <trkpt lat="46.0247" lon="0.34742">
        <ele>156.2</ele>
        <time>2022-04-03T14:49:17Z</time>
      </trkpt>
      <trkpt lat="46.02469" lon="0.34737">
        <ele>156.4</ele>
        <time>2022-04-03T14:49:18Z</time>
      </trkpt>
      <trkpt lat="46.02468" lon="0.34732">
        <ele>156.6</ele>
        <time>2022-04-03T14:49:19Z</time>
      </trkpt>
      <trkpt lat="46.02468" lon="0.34727">
        <ele>156.8</ele>
        <time>2022-04-03T14:49:20Z</time>
      </trkpt>
      <trkpt lat="46.02468" lon="0.34722">
        <ele>157.2</ele>
        <time>2022-04-03T14:49:21Z</time>
      </trkpt>
      <trkpt lat="46.02468" lon="0.34716">
        <ele>157.2</ele>
        <time>2022-04-03T14:49:22Z</time>
      </trkpt>
      <trkpt lat="46.02469" lon="0.34711">
        <ele>157.2</ele>
        <time>2022-04-03T14:49:23Z</time>
      </trkpt>
      <trkpt lat="46.0247" lon="0.34706">
        <ele>157.4</ele>
        <time>2022-04-03T14:49:24Z</time>
      </trkpt>
      <trkpt lat="46.02471" lon="0.34701">
        <ele>157.4</ele>
        <time>2022-04-03T14:49:25Z</time>
      </trkpt>
      <trkpt lat="46.02473" lon="0.34696">
        <ele>157.4</ele>
        <time>2022-04-03T14:49:26Z</time>
      </trkpt>
      <trkpt lat="46.02475" lon="0.34691">
        <ele>157.6</ele>
        <time>2022-04-03T14:49:27Z</time>
      </trkpt>
      <trkpt lat="46.02478" lon="0.34685">
        <ele>157.6</ele>
        <time>2022-04-03T14:49:28Z</time>
      </trkpt>
      <trkpt lat="46.02481" lon="0.34681">
        <ele>157.6</ele>
        <time>2022-04-03T14:49:29Z</time>
      </trkpt>
      <trkpt lat="46.02485" lon="0.34676">
        <ele>157.4</ele>
        <time>2022-04-03T14:49:30Z</time>
      </trkpt>
      <trkpt lat="46.02488" lon="0.34673">
        <ele>157.4</ele>
        <time>2022-04-03T14:49:31Z</time>
      </trkpt>
      <trkpt lat="46.02492" lon="0.34669">
        <ele>157.6</ele>
        <time>2022-04-03T14:49:32Z</time>
      </trkpt>
      <trkpt lat="46.02495" lon="0.34665">
        <ele>157.4</ele>
        <time>2022-04-03T14:49:33Z</time>
      </trkpt>
      <trkpt lat="46.02499" lon="0.34662">
        <ele>157.4</ele>
        <time>2022-04-03T14:49:34Z</time>
      </trkpt>
      <trkpt lat="46.02502" lon="0.34658">
        <ele>157.4</ele>
        <time>2022-04-03T14:49:35Z</time>
      </trkpt>
      <trkpt lat="46.02506" lon="0.34655">
        <ele>157.2</ele>
        <time>2022-04-03T14:49:36Z</time>
      </trkpt>
      <trkpt lat="46.0251" lon="0.34651">
        <ele>157</ele>
        <time>2022-04-03T14:49:37Z</time>
      </trkpt>
      <trkpt lat="46.02514" lon="0.34648">
        <ele>157</ele>
        <time>2022-04-03T14:49:38Z</time>
      </trkpt>
      <trkpt lat="46.02517" lon="0.34645">
        <ele>157</ele>
        <time>2022-04-03T14:49:39Z</time>
      </trkpt>
      <trkpt lat="46.02521" lon="0.34641">
        <ele>156.8</ele>
        <time>2022-04-03T14:49:40Z</time>
      </trkpt>
      <trkpt lat="46.02525" lon="0.34638">
        <ele>156.8</ele>
        <time>2022-04-03T14:49:41Z</time>
      </trkpt>
      <trkpt lat="46.02529" lon="0.34635">
        <ele>156.6</ele>
        <time>2022-04-03T14:49:42Z</time>
      </trkpt>
      <trkpt lat="46.02533" lon="0.34632">
        <ele>156.6</ele>
        <time>2022-04-03T14:49:43Z</time>
      </trkpt>
      <trkpt lat="46.02536" lon="0.34629">
        <ele>156.4</ele>
        <time>2022-04-03T14:49:44Z</time>
      </trkpt>
      <trkpt lat="46.0254" lon="0.34626">
        <ele>156.4</ele>
        <time>2022-04-03T14:49:45Z</time>
      </trkpt>
      <trkpt lat="46.02544" lon="0.34623">
        <ele>156.6</ele>
        <time>2022-04-03T14:49:46Z</time>
      </trkpt>
      <trkpt lat="46.02548" lon="0.3462">
        <ele>156.4</ele>
        <time>2022-04-03T14:49:47Z</time>
      </trkpt>
      <trkpt lat="46.02552" lon="0.34617">
        <ele>156.4</ele>
        <time>2022-04-03T14:49:48Z</time>
      </trkpt>
      <trkpt lat="46.02556" lon="0.34615">
        <ele>156.4</ele>
        <time>2022-04-03T14:49:49Z</time>
      </trkpt>
      <trkpt lat="46.02559" lon="0.34612">
        <ele>156.6</ele>
        <time>2022-04-03T14:49:50Z</time>
      </trkpt>
      <trkpt lat="46.02563" lon="0.34609">
        <ele>156.6</ele>
        <time>2022-04-03T14:49:51Z</time>
      </trkpt>
      <trkpt lat="46.02567" lon="0.34607">
        <ele>156.8</ele>
        <time>2022-04-03T14:49:52Z</time>
      </trkpt>
      <trkpt lat="46.02571" lon="0.34604">
        <ele>156.6</ele>
        <time>2022-04-03T14:49:53Z</time>
      </trkpt>
      <trkpt lat="46.02575" lon="0.34602">
        <ele>156.8</ele>
        <time>2022-04-03T14:49:54Z</time>
      </trkpt>
      <trkpt lat="46.02579" lon="0.346">
        <ele>156.8</ele>
        <time>2022-04-03T14:49:55Z</time>
      </trkpt>
      <trkpt lat="46.02583" lon="0.34597">
        <ele>156.8</ele>
        <time>2022-04-03T14:49:56Z</time>
      </trkpt>
      <trkpt lat="46.02587" lon="0.34595">
        <ele>157</ele>
        <time>2022-04-03T14:49:57Z</time>
      </trkpt>
      <trkpt lat="46.02591" lon="0.34592">
        <ele>157</ele>
        <time>2022-04-03T14:49:58Z</time>
      </trkpt>
      <trkpt lat="46.02595" lon="0.3459">
        <ele>157</ele>
        <time>2022-04-03T14:49:59Z</time>
      </trkpt>
      <trkpt lat="46.02599" lon="0.34587">
        <ele>157</ele>
        <time>2022-04-03T14:50:00Z</time>
      </trkpt>
      <trkpt lat="46.02603" lon="0.34585">
        <ele>157</ele>
        <time>2022-04-03T14:50:01Z</time>
      </trkpt>
      <trkpt lat="46.02608" lon="0.34583">
        <ele>157.2</ele>
        <time>2022-04-03T14:50:02Z</time>
      </trkpt>
      <trkpt lat="46.02613" lon="0.34581">
        <ele>157.4</ele>
        <time>2022-04-03T14:50:03Z</time>
      </trkpt>
      <trkpt lat="46.02617" lon="0.34578">
        <ele>157.4</ele>
        <time>2022-04-03T14:50:04Z</time>
      </trkpt>
      <trkpt lat="46.02621" lon="0.34576">
        <ele>157.6</ele>
        <time>2022-04-03T14:50:05Z</time>
      </trkpt>
      <trkpt lat="46.02626" lon="0.34573">
        <ele>157.4</ele>
        <time>2022-04-03T14:50:06Z</time>
      </trkpt>
      <trkpt lat="46.0263" lon="0.34571">
        <ele>157.4</ele>
        <time>2022-04-03T14:50:07Z</time>
      </trkpt>
      <trkpt lat="46.02634" lon="0.34568">
        <ele>157.4</ele>
        <time>2022-04-03T14:50:08Z</time>
      </trkpt>
      <trkpt lat="46.02639" lon="0.34566">
        <ele>157.4</ele>
        <time>2022-04-03T14:50:09Z</time>
      </trkpt>
      <trkpt lat="46.02643" lon="0.34564">
        <ele>157.4</ele>
        <time>2022-04-03T14:50:10Z</time>
      </trkpt>
      <trkpt lat="46.02648" lon="0.34562">
        <ele>157.4</ele>
        <time>2022-04-03T14:50:11Z</time>
      </trkpt>
      <trkpt lat="46.02652" lon="0.3456">
        <ele>157.4</ele>
        <time>2022-04-03T14:50:12Z</time>
      </trkpt>
      <trkpt lat="46.02657" lon="0.34558">
        <ele>157.4</ele>
        <time>2022-04-03T14:50:13Z</time>
      </trkpt>
      <trkpt lat="46.02661" lon="0.34556">
        <ele>157.4</ele>
        <time>2022-04-03T14:50:14Z</time>
      </trkpt>
      <trkpt lat="46.02665" lon="0.34553">
        <ele>157.4</ele>
        <time>2022-04-03T14:50:15Z</time>
      </trkpt>
      <trkpt lat="46.0267" lon="0.34551">
        <ele>157.4</ele>
        <time>2022-04-03T14:50:16Z</time>
      </trkpt>
      <trkpt lat="46.02674" lon="0.34549">
        <ele>157.2</ele>
        <time>2022-04-03T14:50:17Z</time>
      </trkpt>
      <trkpt lat="46.02679" lon="0.34547">
        <ele>157.4</ele>
        <time>2022-04-03T14:50:18Z</time>
      </trkpt>
      <trkpt lat="46.02683" lon="0.34544">
        <ele>157.4</ele>
        <time>2022-04-03T14:50:19Z</time>
      </trkpt>
      <trkpt lat="46.02687" lon="0.34541">
        <ele>157.2</ele>
        <time>2022-04-03T14:50:20Z</time>
      </trkpt>
      <trkpt lat="46.02692" lon="0.34538">
        <ele>157.4</ele>
        <time>2022-04-03T14:50:21Z</time>
      </trkpt>
      <trkpt lat="46.02696" lon="0.34535">
        <ele>157.2</ele>
        <time>2022-04-03T14:50:22Z</time>
      </trkpt>
      <trkpt lat="46.027" lon="0.34531">
        <ele>157</ele>
        <time>2022-04-03T14:50:23Z</time>
      </trkpt>
      <trkpt lat="46.02705" lon="0.34527">
        <ele>157</ele>
        <time>2022-04-03T14:50:24Z</time>
      </trkpt>
      <trkpt lat="46.02709" lon="0.34523">
        <ele>157</ele>
        <time>2022-04-03T14:50:25Z</time>
      </trkpt>
      <trkpt lat="46.02713" lon="0.34519">
        <ele>156.8</ele>
        <time>2022-04-03T14:50:26Z</time>
      </trkpt>
      <trkpt lat="46.02718" lon="0.34515">
        <ele>156.6</ele>
        <time>2022-04-03T14:50:27Z</time>
      </trkpt>
      <trkpt lat="46.02722" lon="0.34511">
        <ele>156.6</ele>
        <time>2022-04-03T14:50:28Z</time>
      </trkpt>
      <trkpt lat="46.02726" lon="0.34506">
        <ele>156.4</ele>
        <time>2022-04-03T14:50:29Z</time>
      </trkpt>
      <trkpt lat="46.02731" lon="0.34502">
        <ele>156.2</ele>
        <time>2022-04-03T14:50:30Z</time>
      </trkpt>
      <trkpt lat="46.02735" lon="0.34497">
        <ele>156.2</ele>
        <time>2022-04-03T14:50:31Z</time>
      </trkpt>
      <trkpt lat="46.02739" lon="0.34491">
        <ele>156</ele>
        <time>2022-04-03T14:50:32Z</time>
      </trkpt>
      <trkpt lat="46.02744" lon="0.34486">
        <ele>155.8</ele>
        <time>2022-04-03T14:50:33Z</time>
      </trkpt>
      <trkpt lat="46.02749" lon="0.3448">
        <ele>155.4</ele>
        <time>2022-04-03T14:50:34Z</time>
      </trkpt>
      <trkpt lat="46.02753" lon="0.34474">
        <ele>155.2</ele>
        <time>2022-04-03T14:50:35Z</time>
      </trkpt>
      <trkpt lat="46.02757" lon="0.34468">
        <ele>154.8</ele>
        <time>2022-04-03T14:50:36Z</time>
      </trkpt>
      <trkpt lat="46.02761" lon="0.34461">
        <ele>154.4</ele>
        <time>2022-04-03T14:50:37Z</time>
      </trkpt>
      <trkpt lat="46.02764" lon="0.34455">
        <ele>154.4</ele>
        <time>2022-04-03T14:50:38Z</time>
      </trkpt>
      <trkpt lat="46.02767" lon="0.34449">
        <ele>154.2</ele>
        <time>2022-04-03T14:50:39Z</time>
      </trkpt>
      <trkpt lat="46.0277" lon="0.34443">
        <ele>154</ele>
        <time>2022-04-03T14:50:40Z</time>
      </trkpt>
      <trkpt lat="46.02773" lon="0.34437">
        <ele>153.8</ele>
        <time>2022-04-03T14:50:41Z</time>
      </trkpt>
      <trkpt lat="46.02775" lon="0.34431">
        <ele>153.8</ele>
        <time>2022-04-03T14:50:42Z</time>
      </trkpt>
      <trkpt lat="46.02777" lon="0.34425">
        <ele>153.6</ele>
        <time>2022-04-03T14:50:43Z</time>
      </trkpt>
      <trkpt lat="46.02779" lon="0.34418">
        <ele>153.4</ele>
        <time>2022-04-03T14:50:44Z</time>
      </trkpt>
      <trkpt lat="46.02781" lon="0.34411">
        <ele>153.4</ele>
        <time>2022-04-03T14:50:45Z</time>
      </trkpt>
      <trkpt lat="46.02783" lon="0.34405">
        <ele>153.4</ele>
        <time>2022-04-03T14:50:46Z</time>
      </trkpt>
      <trkpt lat="46.02785" lon="0.34398">
        <ele>153.4</ele>
        <time>2022-04-03T14:50:47Z</time>
      </trkpt>
      <trkpt lat="46.02787" lon="0.34391">
        <ele>153.2</ele>
        <time>2022-04-03T14:50:48Z</time>
      </trkpt>
      <trkpt lat="46.02788" lon="0.34385">
        <ele>153.4</ele>
        <time>2022-04-03T14:50:49Z</time>
      </trkpt>
      <trkpt lat="46.02789" lon="0.34378">
        <ele>153.4</ele>
        <time>2022-04-03T14:50:50Z</time>
      </trkpt>
      <trkpt lat="46.02791" lon="0.34371">
        <ele>153.2</ele>
        <time>2022-04-03T14:50:51Z</time>
      </trkpt>
      <trkpt lat="46.02792" lon="0.34364">
        <ele>153.4</ele>
        <time>2022-04-03T14:50:52Z</time>
      </trkpt>
      <trkpt lat="46.02794" lon="0.34357">
        <ele>153.4</ele>
        <time>2022-04-03T14:50:53Z</time>
      </trkpt>
      <trkpt lat="46.02796" lon="0.34349">
        <ele>153.4</ele>
        <time>2022-04-03T14:50:54Z</time>
      </trkpt>
      <trkpt lat="46.02798" lon="0.34342">
        <ele>153.6</ele>
        <time>2022-04-03T14:50:55Z</time>
      </trkpt>
      <trkpt lat="46.028" lon="0.34334">
        <ele>153.6</ele>
        <time>2022-04-03T14:50:56Z</time>
      </trkpt>
      <trkpt lat="46.02803" lon="0.34326">
        <ele>153.6</ele>
        <time>2022-04-03T14:50:57Z</time>
      </trkpt>
      <trkpt lat="46.02805" lon="0.34317">
        <ele>153.4</ele>
        <time>2022-04-03T14:50:58Z</time>
      </trkpt>
      <trkpt lat="46.02808" lon="0.34308">
        <ele>153.6</ele>
        <time>2022-04-03T14:50:59Z</time>
      </trkpt>
      <trkpt lat="46.02811" lon="0.34299">
        <ele>153.6</ele>
        <time>2022-04-03T14:51:00Z</time>
      </trkpt>
      <trkpt lat="46.02813" lon="0.3429">
        <ele>153.6</ele>
        <time>2022-04-03T14:51:01Z</time>
      </trkpt>
      <trkpt lat="46.02816" lon="0.34281">
        <ele>153.4</ele>
        <time>2022-04-03T14:51:02Z</time>
      </trkpt>
      <trkpt lat="46.02818" lon="0.34272">
        <ele>153.2</ele>
        <time>2022-04-03T14:51:03Z</time>
      </trkpt>
      <trkpt lat="46.02821" lon="0.34262">
        <ele>153.4</ele>
        <time>2022-04-03T14:51:04Z</time>
      </trkpt>
      <trkpt lat="46.02823" lon="0.34253">
        <ele>153.2</ele>
        <time>2022-04-03T14:51:05Z</time>
      </trkpt>
      <trkpt lat="46.02826" lon="0.34244">
        <ele>152.8</ele>
        <time>2022-04-03T14:51:06Z</time>
      </trkpt>
      <trkpt lat="46.02829" lon="0.34235">
        <ele>152.2</ele>
        <time>2022-04-03T14:51:07Z</time>
      </trkpt>
      <trkpt lat="46.02832" lon="0.34226">
        <ele>151.8</ele>
        <time>2022-04-03T14:51:08Z</time>
      </trkpt>
      <trkpt lat="46.02834" lon="0.34218">
        <ele>151.6</ele>
        <time>2022-04-03T14:51:09Z</time>
      </trkpt>
      <trkpt lat="46.02837" lon="0.34209">
        <ele>151.2</ele>
        <time>2022-04-03T14:51:10Z</time>
      </trkpt>
      <trkpt lat="46.02839" lon="0.34201">
        <ele>151</ele>
        <time>2022-04-03T14:51:11Z</time>
      </trkpt>
      <trkpt lat="46.02841" lon="0.34193">
        <ele>150.8</ele>
        <time>2022-04-03T14:51:12Z</time>
      </trkpt>
      <trkpt lat="46.02844" lon="0.34185">
        <ele>150.6</ele>
        <time>2022-04-03T14:51:13Z</time>
      </trkpt>
      <trkpt lat="46.02846" lon="0.34177">
        <ele>150.6</ele>
        <time>2022-04-03T14:51:14Z</time>
      </trkpt>
      <trkpt lat="46.02848" lon="0.3417">
        <ele>150.6</ele>
        <time>2022-04-03T14:51:15Z</time>
      </trkpt>
      <trkpt lat="46.0285" lon="0.34162">
        <ele>150.6</ele>
        <time>2022-04-03T14:51:16Z</time>
      </trkpt>
      <trkpt lat="46.02852" lon="0.34154">
        <ele>150.6</ele>
        <time>2022-04-03T14:51:17Z</time>
      </trkpt>
      <trkpt lat="46.02854" lon="0.34147">
        <ele>150.6</ele>
        <time>2022-04-03T14:51:18Z</time>
      </trkpt>
      <trkpt lat="46.02856" lon="0.34139">
        <ele>150.4</ele>
        <time>2022-04-03T14:51:19Z</time>
      </trkpt>
      <trkpt lat="46.02858" lon="0.34132">
        <ele>150.6</ele>
        <time>2022-04-03T14:51:20Z</time>
      </trkpt>
      <trkpt lat="46.02861" lon="0.34125">
        <ele>150.6</ele>
        <time>2022-04-03T14:51:21Z</time>
      </trkpt>
      <trkpt lat="46.02863" lon="0.34118">
        <ele>150.4</ele>
        <time>2022-04-03T14:51:22Z</time>
      </trkpt>
      <trkpt lat="46.02866" lon="0.34111">
        <ele>150.4</ele>
        <time>2022-04-03T14:51:23Z</time>
      </trkpt>
      <trkpt lat="46.02868" lon="0.34104">
        <ele>150.8</ele>
        <time>2022-04-03T14:51:24Z</time>
      </trkpt>
      <trkpt lat="46.0287" lon="0.34097">
        <ele>151</ele>
        <time>2022-04-03T14:51:25Z</time>
      </trkpt>
      <trkpt lat="46.02872" lon="0.34089">
        <ele>151.2</ele>
        <time>2022-04-03T14:51:26Z</time>
      </trkpt>
      <trkpt lat="46.02874" lon="0.34082">
        <ele>151.6</ele>
        <time>2022-04-03T14:51:27Z</time>
      </trkpt>
      <trkpt lat="46.02876" lon="0.34075">
        <ele>151.6</ele>
        <time>2022-04-03T14:51:28Z</time>
      </trkpt>
      <trkpt lat="46.02878" lon="0.34068">
        <ele>151.6</ele>
        <time>2022-04-03T14:51:29Z</time>
      </trkpt>
      <trkpt lat="46.0288" lon="0.34061">
        <ele>151.8</ele>
        <time>2022-04-03T14:51:30Z</time>
      </trkpt>
      <trkpt lat="46.02882" lon="0.34053">
        <ele>151.8</ele>
        <time>2022-04-03T14:51:31Z</time>
      </trkpt>
      <trkpt lat="46.02884" lon="0.34046">
        <ele>152</ele>
        <time>2022-04-03T14:51:32Z</time>
      </trkpt>
      <trkpt lat="46.02886" lon="0.34039">
        <ele>152.2</ele>
        <time>2022-04-03T14:51:33Z</time>
      </trkpt>
      <trkpt lat="46.02888" lon="0.34032">
        <ele>152.2</ele>
        <time>2022-04-03T14:51:34Z</time>
      </trkpt>
      <trkpt lat="46.02889" lon="0.34025">
        <ele>152.2</ele>
        <time>2022-04-03T14:51:35Z</time>
      </trkpt>
      <trkpt lat="46.02891" lon="0.34018">
        <ele>152.4</ele>
        <time>2022-04-03T14:51:36Z</time>
      </trkpt>
      <trkpt lat="46.02892" lon="0.34011">
        <ele>152.6</ele>
        <time>2022-04-03T14:51:37Z</time>
      </trkpt>
      <trkpt lat="46.02893" lon="0.34004">
        <ele>152.8</ele>
        <time>2022-04-03T14:51:38Z</time>
      </trkpt>
      <trkpt lat="46.02893" lon="0.33998">
        <ele>153</ele>
        <time>2022-04-03T14:51:39Z</time>
      </trkpt>
      <trkpt lat="46.02894" lon="0.33991">
        <ele>153.2</ele>
        <time>2022-04-03T14:51:40Z</time>
      </trkpt>
      <trkpt lat="46.02894" lon="0.33985">
        <ele>153.4</ele>
        <time>2022-04-03T14:51:41Z</time>
      </trkpt>
      <trkpt lat="46.02895" lon="0.33979">
        <ele>154</ele>
        <time>2022-04-03T14:51:42Z</time>
      </trkpt>
      <trkpt lat="46.02895" lon="0.33973">
        <ele>154.4</ele>
        <time>2022-04-03T14:51:43Z</time>
      </trkpt>
      <trkpt lat="46.02895" lon="0.33967">
        <ele>154.8</ele>
        <time>2022-04-03T14:51:44Z</time>
      </trkpt>
      <trkpt lat="46.02895" lon="0.33961">
        <ele>155</ele>
        <time>2022-04-03T14:51:45Z</time>
      </trkpt>
      <trkpt lat="46.02895" lon="0.33955">
        <ele>155</ele>
        <time>2022-04-03T14:51:46Z</time>
      </trkpt>
      <trkpt lat="46.02895" lon="0.3395">
        <ele>155.2</ele>
        <time>2022-04-03T14:51:47Z</time>
      </trkpt>
      <trkpt lat="46.02894" lon="0.33944">
        <ele>155.4</ele>
        <time>2022-04-03T14:51:48Z</time>
      </trkpt>
      <trkpt lat="46.02894" lon="0.33938">
        <ele>155.6</ele>
        <time>2022-04-03T14:51:49Z</time>
      </trkpt>
      <trkpt lat="46.02893" lon="0.33933">
        <ele>155.8</ele>
        <time>2022-04-03T14:51:50Z</time>
      </trkpt>
      <trkpt lat="46.02893" lon="0.33927">
        <ele>155.8</ele>
        <time>2022-04-03T14:51:51Z</time>
      </trkpt>
      <trkpt lat="46.02893" lon="0.33922">
        <ele>156</ele>
        <time>2022-04-03T14:51:52Z</time>
      </trkpt>
      <trkpt lat="46.02892" lon="0.33916">
        <ele>156.2</ele>
        <time>2022-04-03T14:51:53Z</time>
      </trkpt>
      <trkpt lat="46.02892" lon="0.33911">
        <ele>156.2</ele>
        <time>2022-04-03T14:51:54Z</time>
      </trkpt>
      <trkpt lat="46.02891" lon="0.33905">
        <ele>156.4</ele>
        <time>2022-04-03T14:51:55Z</time>
      </trkpt>
      <trkpt lat="46.02891" lon="0.339">
        <ele>156.6</ele>
        <time>2022-04-03T14:51:56Z</time>
      </trkpt>
      <trkpt lat="46.02891" lon="0.33895">
        <ele>156.6</ele>
        <time>2022-04-03T14:51:57Z</time>
      </trkpt>
      <trkpt lat="46.0289" lon="0.33889">
        <ele>156.8</ele>
        <time>2022-04-03T14:51:58Z</time>
      </trkpt>
      <trkpt lat="46.0289" lon="0.33884">
        <ele>156.8</ele>
        <time>2022-04-03T14:51:59Z</time>
      </trkpt>
      <trkpt lat="46.0289" lon="0.33879">
        <ele>156.8</ele>
        <time>2022-04-03T14:52:00Z</time>
      </trkpt>
      <trkpt lat="46.02891" lon="0.33873">
        <ele>156.8</ele>
        <time>2022-04-03T14:52:01Z</time>
      </trkpt>
      <trkpt lat="46.02891" lon="0.33868">
        <ele>157</ele>
        <time>2022-04-03T14:52:02Z</time>
      </trkpt>
      <trkpt lat="46.02891" lon="0.33863">
        <ele>156.8</ele>
        <time>2022-04-03T14:52:03Z</time>
      </trkpt>
      <trkpt lat="46.02891" lon="0.33858">
        <ele>157</ele>
        <time>2022-04-03T14:52:04Z</time>
      </trkpt>
      <trkpt lat="46.02891" lon="0.33853">
        <ele>157</ele>
        <time>2022-04-03T14:52:05Z</time>
      </trkpt>
      <trkpt lat="46.02892" lon="0.33848">
        <ele>157.2</ele>
        <time>2022-04-03T14:52:06Z</time>
      </trkpt>
      <trkpt lat="46.02892" lon="0.33843">
        <ele>157.4</ele>
        <time>2022-04-03T14:52:07Z</time>
      </trkpt>
      <trkpt lat="46.02893" lon="0.33838">
        <ele>157.6</ele>
        <time>2022-04-03T14:52:08Z</time>
      </trkpt>
      <trkpt lat="46.02893" lon="0.33833">
        <ele>157.8</ele>
        <time>2022-04-03T14:52:09Z</time>
      </trkpt>
      <trkpt lat="46.02894" lon="0.33828">
        <ele>158</ele>
        <time>2022-04-03T14:52:10Z</time>
      </trkpt>
      <trkpt lat="46.02894" lon="0.33822">
        <ele>158.2</ele>
        <time>2022-04-03T14:52:11Z</time>
      </trkpt>
      <trkpt lat="46.02895" lon="0.33817">
        <ele>158.2</ele>
        <time>2022-04-03T14:52:12Z</time>
      </trkpt>
      <trkpt lat="46.02896" lon="0.33812">
        <ele>158.2</ele>
        <time>2022-04-03T14:52:13Z</time>
      </trkpt>
      <trkpt lat="46.02896" lon="0.33807">
        <ele>158.4</ele>
        <time>2022-04-03T14:52:14Z</time>
      </trkpt>
      <trkpt lat="46.02897" lon="0.33801">
        <ele>158.8</ele>
        <time>2022-04-03T14:52:15Z</time>
      </trkpt>
      <trkpt lat="46.02897" lon="0.33796">
        <ele>158.8</ele>
        <time>2022-04-03T14:52:16Z</time>
      </trkpt>
      <trkpt lat="46.02898" lon="0.3379">
        <ele>158.8</ele>
        <time>2022-04-03T14:52:17Z</time>
      </trkpt>
      <trkpt lat="46.02899" lon="0.33784">
        <ele>159</ele>
        <time>2022-04-03T14:52:18Z</time>
      </trkpt>
      <trkpt lat="46.02899" lon="0.33778">
        <ele>159</ele>
        <time>2022-04-03T14:52:19Z</time>
      </trkpt>
      <trkpt lat="46.029" lon="0.33773">
        <ele>159.2</ele>
        <time>2022-04-03T14:52:20Z</time>
      </trkpt>
      <trkpt lat="46.02901" lon="0.33767">
        <ele>159.2</ele>
        <time>2022-04-03T14:52:21Z</time>
      </trkpt>
      <trkpt lat="46.02901" lon="0.33761">
        <ele>159.4</ele>
        <time>2022-04-03T14:52:22Z</time>
      </trkpt>
      <trkpt lat="46.02902" lon="0.33755">
        <ele>159.4</ele>
        <time>2022-04-03T14:52:23Z</time>
      </trkpt>
      <trkpt lat="46.02903" lon="0.33749">
        <ele>159.6</ele>
        <time>2022-04-03T14:52:24Z</time>
      </trkpt>
      <trkpt lat="46.02904" lon="0.33743">
        <ele>159.6</ele>
        <time>2022-04-03T14:52:25Z</time>
      </trkpt>
      <trkpt lat="46.02904" lon="0.33737">
        <ele>159.4</ele>
        <time>2022-04-03T14:52:26Z</time>
      </trkpt>
      <trkpt lat="46.02905" lon="0.33731">
        <ele>159.4</ele>
        <time>2022-04-03T14:52:27Z</time>
      </trkpt>
      <trkpt lat="46.02906" lon="0.33725">
        <ele>159.4</ele>
        <time>2022-04-03T14:52:28Z</time>
      </trkpt>
      <trkpt lat="46.02906" lon="0.33718">
        <ele>159.4</ele>
        <time>2022-04-03T14:52:29Z</time>
      </trkpt>
      <trkpt lat="46.02907" lon="0.33712">
        <ele>159.4</ele>
        <time>2022-04-03T14:52:30Z</time>
      </trkpt>
      <trkpt lat="46.02908" lon="0.33705">
        <ele>159.4</ele>
        <time>2022-04-03T14:52:31Z</time>
      </trkpt>
      <trkpt lat="46.02909" lon="0.33698">
        <ele>159.4</ele>
        <time>2022-04-03T14:52:32Z</time>
      </trkpt>
      <trkpt lat="46.02909" lon="0.33692">
        <ele>159.6</ele>
        <time>2022-04-03T14:52:33Z</time>
      </trkpt>
      <trkpt lat="46.0291" lon="0.33685">
        <ele>159.4</ele>
        <time>2022-04-03T14:52:34Z</time>
      </trkpt>
      <trkpt lat="46.02911" lon="0.33677">
        <ele>159.6</ele>
        <time>2022-04-03T14:52:35Z</time>
      </trkpt>
      <trkpt lat="46.02911" lon="0.3367">
        <ele>159.4</ele>
        <time>2022-04-03T14:52:36Z</time>
      </trkpt>
      <trkpt lat="46.02912" lon="0.33663">
        <ele>159.4</ele>
        <time>2022-04-03T14:52:37Z</time>
      </trkpt>
      <trkpt lat="46.02913" lon="0.33655">
        <ele>159.4</ele>
        <time>2022-04-03T14:52:38Z</time>
      </trkpt>
      <trkpt lat="46.02914" lon="0.33648">
        <ele>159.4</ele>
        <time>2022-04-03T14:52:39Z</time>
      </trkpt>
      <trkpt lat="46.02915" lon="0.3364">
        <ele>159.2</ele>
        <time>2022-04-03T14:52:40Z</time>
      </trkpt>
      <trkpt lat="46.02916" lon="0.33633">
        <ele>159</ele>
        <time>2022-04-03T14:52:41Z</time>
      </trkpt>
      <trkpt lat="46.02917" lon="0.33625">
        <ele>159</ele>
        <time>2022-04-03T14:52:42Z</time>
      </trkpt>
      <trkpt lat="46.02917" lon="0.33618">
        <ele>158.8</ele>
        <time>2022-04-03T14:52:43Z</time>
      </trkpt>
      <trkpt lat="46.02918" lon="0.3361">
        <ele>158.8</ele>
        <time>2022-04-03T14:52:44Z</time>
      </trkpt>
      <trkpt lat="46.02919" lon="0.33602">
        <ele>158.6</ele>
        <time>2022-04-03T14:52:45Z</time>
      </trkpt>
      <trkpt lat="46.0292" lon="0.33595">
        <ele>158.6</ele>
        <time>2022-04-03T14:52:46Z</time>
      </trkpt>
      <trkpt lat="46.02921" lon="0.33587">
        <ele>158.8</ele>
        <time>2022-04-03T14:52:47Z</time>
      </trkpt>
      <trkpt lat="46.02922" lon="0.33579">
        <ele>158.8</ele>
        <time>2022-04-03T14:52:48Z</time>
      </trkpt>
      <trkpt lat="46.02922" lon="0.33571">
        <ele>158.8</ele>
        <time>2022-04-03T14:52:49Z</time>
      </trkpt>
      <trkpt lat="46.02923" lon="0.33563">
        <ele>158.8</ele>
        <time>2022-04-03T14:52:50Z</time>
      </trkpt>
      <trkpt lat="46.02924" lon="0.33556">
        <ele>158.8</ele>
        <time>2022-04-03T14:52:51Z</time>
      </trkpt>
      <trkpt lat="46.02925" lon="0.33548">
        <ele>158.6</ele>
        <time>2022-04-03T14:52:52Z</time>
      </trkpt>
      <trkpt lat="46.02926" lon="0.3354">
        <ele>158.6</ele>
        <time>2022-04-03T14:52:53Z</time>
      </trkpt>
      <trkpt lat="46.02927" lon="0.33533">
        <ele>158.6</ele>
        <time>2022-04-03T14:52:54Z</time>
      </trkpt>
      <trkpt lat="46.02928" lon="0.33525">
        <ele>158.6</ele>
        <time>2022-04-03T14:52:55Z</time>
      </trkpt>
      <trkpt lat="46.02929" lon="0.33518">
        <ele>158.6</ele>
        <time>2022-04-03T14:52:56Z</time>
      </trkpt>
      <trkpt lat="46.0293" lon="0.3351">
        <ele>158.4</ele>
        <time>2022-04-03T14:52:57Z</time>
      </trkpt>
      <trkpt lat="46.02931" lon="0.33503">
        <ele>158.6</ele>
        <time>2022-04-03T14:52:58Z</time>
      </trkpt>
      <trkpt lat="46.02932" lon="0.33495">
        <ele>158.8</ele>
        <time>2022-04-03T14:52:59Z</time>
      </trkpt>
      <trkpt lat="46.02933" lon="0.33488">
        <ele>158.8</ele>
        <time>2022-04-03T14:53:00Z</time>
      </trkpt>
      <trkpt lat="46.02933" lon="0.3348">
        <ele>158.8</ele>
        <time>2022-04-03T14:53:01Z</time>
      </trkpt>
      <trkpt lat="46.02934" lon="0.33472">
        <ele>158.8</ele>
        <time>2022-04-03T14:53:02Z</time>
      </trkpt>
      <trkpt lat="46.02935" lon="0.33464">
        <ele>158.8</ele>
        <time>2022-04-03T14:53:03Z</time>
      </trkpt>
      <trkpt lat="46.02936" lon="0.33455">
        <ele>158.8</ele>
        <time>2022-04-03T14:53:04Z</time>
      </trkpt>
      <trkpt lat="46.02937" lon="0.33447">
        <ele>158.8</ele>
        <time>2022-04-03T14:53:05Z</time>
      </trkpt>
      <trkpt lat="46.02938" lon="0.33438">
        <ele>158.8</ele>
        <time>2022-04-03T14:53:06Z</time>
      </trkpt>
      <trkpt lat="46.02939" lon="0.33429">
        <ele>158.8</ele>
        <time>2022-04-03T14:53:07Z</time>
      </trkpt>
      <trkpt lat="46.0294" lon="0.33421">
        <ele>158.6</ele>
        <time>2022-04-03T14:53:08Z</time>
      </trkpt>
      <trkpt lat="46.02941" lon="0.33412">
        <ele>158.6</ele>
        <time>2022-04-03T14:53:09Z</time>
      </trkpt>
      <trkpt lat="46.02942" lon="0.33403">
        <ele>158.6</ele>
        <time>2022-04-03T14:53:10Z</time>
      </trkpt>
      <trkpt lat="46.02944" lon="0.33394">
        <ele>158.4</ele>
        <time>2022-04-03T14:53:11Z</time>
      </trkpt>
      <trkpt lat="46.02945" lon="0.33385">
        <ele>158.2</ele>
        <time>2022-04-03T14:53:12Z</time>
      </trkpt>
      <trkpt lat="46.02946" lon="0.33376">
        <ele>158.2</ele>
        <time>2022-04-03T14:53:13Z</time>
      </trkpt>
      <trkpt lat="46.02947" lon="0.33367">
        <ele>158</ele>
        <time>2022-04-03T14:53:14Z</time>
      </trkpt>
      <trkpt lat="46.02948" lon="0.33358">
        <ele>158</ele>
        <time>2022-04-03T14:53:15Z</time>
      </trkpt>
      <trkpt lat="46.02949" lon="0.33348">
        <ele>157.6</ele>
        <time>2022-04-03T14:53:16Z</time>
      </trkpt>
      <trkpt lat="46.0295" lon="0.33339">
        <ele>157.4</ele>
        <time>2022-04-03T14:53:17Z</time>
      </trkpt>
      <trkpt lat="46.02951" lon="0.3333">
        <ele>157</ele>
        <time>2022-04-03T14:53:18Z</time>
      </trkpt>
      <trkpt lat="46.02952" lon="0.33321">
        <ele>157</ele>
        <time>2022-04-03T14:53:19Z</time>
      </trkpt>
      <trkpt lat="46.02953" lon="0.33312">
        <ele>156.6</ele>
        <time>2022-04-03T14:53:20Z</time>
      </trkpt>
      <trkpt lat="46.02954" lon="0.33303">
        <ele>156.6</ele>
        <time>2022-04-03T14:53:21Z</time>
      </trkpt>
      <trkpt lat="46.02955" lon="0.33294">
        <ele>156.2</ele>
        <time>2022-04-03T14:53:22Z</time>
      </trkpt>
      <trkpt lat="46.02956" lon="0.33286">
        <ele>156.4</ele>
        <time>2022-04-03T14:53:23Z</time>
      </trkpt>
      <trkpt lat="46.02957" lon="0.33277">
        <ele>156.2</ele>
        <time>2022-04-03T14:53:24Z</time>
      </trkpt>
      <trkpt lat="46.02958" lon="0.33269">
        <ele>156</ele>
        <time>2022-04-03T14:53:25Z</time>
      </trkpt>
      <trkpt lat="46.02959" lon="0.33261">
        <ele>155.8</ele>
        <time>2022-04-03T14:53:26Z</time>
      </trkpt>
      <trkpt lat="46.0296" lon="0.33253">
        <ele>155.8</ele>
        <time>2022-04-03T14:53:27Z</time>
      </trkpt>
      <trkpt lat="46.02961" lon="0.33244">
        <ele>155.8</ele>
        <time>2022-04-03T14:53:28Z</time>
      </trkpt>
      <trkpt lat="46.02962" lon="0.33235">
        <ele>155.8</ele>
        <time>2022-04-03T14:53:29Z</time>
      </trkpt>
      <trkpt lat="46.02963" lon="0.33227">
        <ele>155.6</ele>
        <time>2022-04-03T14:53:30Z</time>
      </trkpt>
      <trkpt lat="46.02964" lon="0.33218">
        <ele>155.6</ele>
        <time>2022-04-03T14:53:31Z</time>
      </trkpt>
      <trkpt lat="46.02965" lon="0.3321">
        <ele>155.6</ele>
        <time>2022-04-03T14:53:32Z</time>
      </trkpt>
      <trkpt lat="46.02966" lon="0.33201">
        <ele>155.6</ele>
        <time>2022-04-03T14:53:33Z</time>
      </trkpt>
      <trkpt lat="46.02967" lon="0.33193">
        <ele>155.6</ele>
        <time>2022-04-03T14:53:34Z</time>
      </trkpt>
      <trkpt lat="46.02967" lon="0.33184">
        <ele>155.6</ele>
        <time>2022-04-03T14:53:35Z</time>
      </trkpt>
      <trkpt lat="46.02968" lon="0.33176">
        <ele>155.4</ele>
        <time>2022-04-03T14:53:36Z</time>
      </trkpt>
      <trkpt lat="46.02969" lon="0.33168">
        <ele>155.4</ele>
        <time>2022-04-03T14:53:37Z</time>
      </trkpt>
      <trkpt lat="46.0297" lon="0.33159">
        <ele>155.4</ele>
        <time>2022-04-03T14:53:38Z</time>
      </trkpt>
      <trkpt lat="46.02971" lon="0.33151">
        <ele>155.4</ele>
        <time>2022-04-03T14:53:39Z</time>
      </trkpt>
      <trkpt lat="46.02972" lon="0.33143">
        <ele>155.6</ele>
        <time>2022-04-03T14:53:40Z</time>
      </trkpt>
      <trkpt lat="46.02973" lon="0.33135">
        <ele>155.6</ele>
        <time>2022-04-03T14:53:41Z</time>
      </trkpt>
      <trkpt lat="46.02974" lon="0.33127">
        <ele>155.6</ele>
        <time>2022-04-03T14:53:42Z</time>
      </trkpt>
      <trkpt lat="46.02975" lon="0.33119">
        <ele>155.6</ele>
        <time>2022-04-03T14:53:43Z</time>
      </trkpt>
      <trkpt lat="46.02976" lon="0.33111">
        <ele>155.6</ele>
        <time>2022-04-03T14:53:44Z</time>
      </trkpt>
      <trkpt lat="46.02977" lon="0.33103">
        <ele>155.6</ele>
        <time>2022-04-03T14:53:45Z</time>
      </trkpt>
      <trkpt lat="46.02978" lon="0.33096">
        <ele>155.6</ele>
        <time>2022-04-03T14:53:46Z</time>
      </trkpt>
      <trkpt lat="46.0298" lon="0.33088">
        <ele>155.6</ele>
        <time>2022-04-03T14:53:47Z</time>
      </trkpt>
      <trkpt lat="46.02981" lon="0.33081">
        <ele>155.6</ele>
        <time>2022-04-03T14:53:48Z</time>
      </trkpt>
      <trkpt lat="46.02982" lon="0.33073">
        <ele>155.6</ele>
        <time>2022-04-03T14:53:49Z</time>
      </trkpt>
      <trkpt lat="46.02982" lon="0.33066">
        <ele>155.6</ele>
        <time>2022-04-03T14:53:50Z</time>
      </trkpt>
      <trkpt lat="46.02983" lon="0.33059">
        <ele>155.6</ele>
        <time>2022-04-03T14:53:51Z</time>
      </trkpt>
      <trkpt lat="46.02984" lon="0.33051">
        <ele>155.6</ele>
        <time>2022-04-03T14:53:52Z</time>
      </trkpt>
      <trkpt lat="46.02985" lon="0.33044">
        <ele>155.6</ele>
        <time>2022-04-03T14:53:53Z</time>
      </trkpt>
      <trkpt lat="46.02986" lon="0.33037">
        <ele>155.6</ele>
        <time>2022-04-03T14:53:54Z</time>
      </trkpt>
      <trkpt lat="46.02987" lon="0.3303">
        <ele>155.6</ele>
        <time>2022-04-03T14:53:55Z</time>
      </trkpt>
      <trkpt lat="46.02988" lon="0.33023">
        <ele>155.8</ele>
        <time>2022-04-03T14:53:56Z</time>
      </trkpt>
      <trkpt lat="46.02989" lon="0.33016">
        <ele>155.8</ele>
        <time>2022-04-03T14:53:57Z</time>
      </trkpt>
      <trkpt lat="46.02989" lon="0.33009">
        <ele>156</ele>
        <time>2022-04-03T14:53:58Z</time>
      </trkpt>
      <trkpt lat="46.0299" lon="0.33002">
        <ele>156.2</ele>
        <time>2022-04-03T14:53:59Z</time>
      </trkpt>
      <trkpt lat="46.02991" lon="0.32995">
        <ele>156.2</ele>
        <time>2022-04-03T14:54:00Z</time>
      </trkpt>
      <trkpt lat="46.02991" lon="0.32989">
        <ele>156.4</ele>
        <time>2022-04-03T14:54:01Z</time>
      </trkpt>
      <trkpt lat="46.02992" lon="0.32982">
        <ele>156.4</ele>
        <time>2022-04-03T14:54:02Z</time>
      </trkpt>
      <trkpt lat="46.02993" lon="0.32975">
        <ele>156.6</ele>
        <time>2022-04-03T14:54:03Z</time>
      </trkpt>
      <trkpt lat="46.02994" lon="0.32968">
        <ele>156.6</ele>
        <time>2022-04-03T14:54:04Z</time>
      </trkpt>
      <trkpt lat="46.02994" lon="0.32962">
        <ele>156.6</ele>
        <time>2022-04-03T14:54:05Z</time>
      </trkpt>
      <trkpt lat="46.02995" lon="0.32955">
        <ele>156.8</ele>
        <time>2022-04-03T14:54:06Z</time>
      </trkpt>
      <trkpt lat="46.02996" lon="0.32949">
        <ele>157</ele>
        <time>2022-04-03T14:54:07Z</time>
      </trkpt>
      <trkpt lat="46.02997" lon="0.32942">
        <ele>157.2</ele>
        <time>2022-04-03T14:54:08Z</time>
      </trkpt>
      <trkpt lat="46.02997" lon="0.32936">
        <ele>157.2</ele>
        <time>2022-04-03T14:54:09Z</time>
      </trkpt>
      <trkpt lat="46.02998" lon="0.32929">
        <ele>157.2</ele>
        <time>2022-04-03T14:54:10Z</time>
      </trkpt>
      <trkpt lat="46.02999" lon="0.32923">
        <ele>157.4</ele>
        <time>2022-04-03T14:54:11Z</time>
      </trkpt>
      <trkpt lat="46.02999" lon="0.32916">
        <ele>157.4</ele>
        <time>2022-04-03T14:54:12Z</time>
      </trkpt>
      <trkpt lat="46.03" lon="0.3291">
        <ele>157.4</ele>
        <time>2022-04-03T14:54:13Z</time>
      </trkpt>
      <trkpt lat="46.03001" lon="0.32903">
        <ele>157.4</ele>
        <time>2022-04-03T14:54:14Z</time>
      </trkpt>
      <trkpt lat="46.03002" lon="0.32896">
        <ele>157.6</ele>
        <time>2022-04-03T14:54:15Z</time>
      </trkpt>
      <trkpt lat="46.03003" lon="0.3289">
        <ele>157.6</ele>
        <time>2022-04-03T14:54:16Z</time>
      </trkpt>
      <trkpt lat="46.03004" lon="0.32883">
        <ele>157.6</ele>
        <time>2022-04-03T14:54:17Z</time>
      </trkpt>
      <trkpt lat="46.03004" lon="0.32877">
        <ele>157.8</ele>
        <time>2022-04-03T14:54:18Z</time>
      </trkpt>
      <trkpt lat="46.03005" lon="0.3287">
        <ele>157.8</ele>
        <time>2022-04-03T14:54:19Z</time>
      </trkpt>
      <trkpt lat="46.03006" lon="0.32863">
        <ele>158</ele>
        <time>2022-04-03T14:54:20Z</time>
      </trkpt>
      <trkpt lat="46.03007" lon="0.32857">
        <ele>158</ele>
        <time>2022-04-03T14:54:21Z</time>
      </trkpt>
      <trkpt lat="46.03007" lon="0.3285">
        <ele>158</ele>
        <time>2022-04-03T14:54:22Z</time>
      </trkpt>
      <trkpt lat="46.03008" lon="0.32843">
        <ele>158.2</ele>
        <time>2022-04-03T14:54:23Z</time>
      </trkpt>
      <trkpt lat="46.03008" lon="0.32836">
        <ele>158.2</ele>
        <time>2022-04-03T14:54:24Z</time>
      </trkpt>
      <trkpt lat="46.03009" lon="0.3283">
        <ele>158.2</ele>
        <time>2022-04-03T14:54:25Z</time>
      </trkpt>
      <trkpt lat="46.0301" lon="0.32823">
        <ele>158.4</ele>
        <time>2022-04-03T14:54:26Z</time>
      </trkpt>
      <trkpt lat="46.0301" lon="0.32816">
        <ele>158.6</ele>
        <time>2022-04-03T14:54:27Z</time>
      </trkpt>
      <trkpt lat="46.03011" lon="0.32809">
        <ele>158.8</ele>
        <time>2022-04-03T14:54:28Z</time>
      </trkpt>
      <trkpt lat="46.03012" lon="0.32802">
        <ele>158.8</ele>
        <time>2022-04-03T14:54:29Z</time>
      </trkpt>
      <trkpt lat="46.03013" lon="0.32795">
        <ele>159</ele>
        <time>2022-04-03T14:54:30Z</time>
      </trkpt>
      <trkpt lat="46.03014" lon="0.32788">
        <ele>159</ele>
        <time>2022-04-03T14:54:31Z</time>
      </trkpt>
      <trkpt lat="46.03014" lon="0.32781">
        <ele>159</ele>
        <time>2022-04-03T14:54:32Z</time>
      </trkpt>
      <trkpt lat="46.03015" lon="0.32774">
        <ele>159</ele>
        <time>2022-04-03T14:54:33Z</time>
      </trkpt>
      <trkpt lat="46.03015" lon="0.32767">
        <ele>159</ele>
        <time>2022-04-03T14:54:34Z</time>
      </trkpt>
      <trkpt lat="46.03016" lon="0.3276">
        <ele>159</ele>
        <time>2022-04-03T14:54:35Z</time>
      </trkpt>
      <trkpt lat="46.03016" lon="0.32753">
        <ele>159</ele>
        <time>2022-04-03T14:54:36Z</time>
      </trkpt>
      <trkpt lat="46.03017" lon="0.32746">
        <ele>159</ele>
        <time>2022-04-03T14:54:37Z</time>
      </trkpt>
      <trkpt lat="46.03017" lon="0.32739">
        <ele>158.8</ele>
        <time>2022-04-03T14:54:38Z</time>
      </trkpt>
      <trkpt lat="46.03018" lon="0.32731">
        <ele>159</ele>
        <time>2022-04-03T14:54:39Z</time>
      </trkpt>
      <trkpt lat="46.03019" lon="0.32724">
        <ele>158.8</ele>
        <time>2022-04-03T14:54:40Z</time>
      </trkpt>
      <trkpt lat="46.03019" lon="0.32717">
        <ele>159</ele>
        <time>2022-04-03T14:54:41Z</time>
      </trkpt>
      <trkpt lat="46.0302" lon="0.3271">
        <ele>159</ele>
        <time>2022-04-03T14:54:42Z</time>
      </trkpt>
      <trkpt lat="46.03021" lon="0.32703">
        <ele>159</ele>
        <time>2022-04-03T14:54:43Z</time>
      </trkpt>
      <trkpt lat="46.03021" lon="0.32695">
        <ele>159</ele>
        <time>2022-04-03T14:54:44Z</time>
      </trkpt>
      <trkpt lat="46.03022" lon="0.32688">
        <ele>159</ele>
        <time>2022-04-03T14:54:45Z</time>
      </trkpt>
      <trkpt lat="46.03022" lon="0.32681">
        <ele>159</ele>
        <time>2022-04-03T14:54:46Z</time>
      </trkpt>
      <trkpt lat="46.03023" lon="0.32674">
        <ele>158.8</ele>
        <time>2022-04-03T14:54:47Z</time>
      </trkpt>
      <trkpt lat="46.03024" lon="0.32667">
        <ele>158.8</ele>
        <time>2022-04-03T14:54:48Z</time>
      </trkpt>
      <trkpt lat="46.03024" lon="0.3266">
        <ele>158.8</ele>
        <time>2022-04-03T14:54:49Z</time>
      </trkpt>
      <trkpt lat="46.03025" lon="0.32653">
        <ele>158.8</ele>
        <time>2022-04-03T14:54:50Z</time>
      </trkpt>
      <trkpt lat="46.03026" lon="0.32646">
        <ele>159</ele>
        <time>2022-04-03T14:54:51Z</time>
      </trkpt>
      <trkpt lat="46.03026" lon="0.32638">
        <ele>159.2</ele>
        <time>2022-04-03T14:54:52Z</time>
      </trkpt>
      <trkpt lat="46.03027" lon="0.32631">
        <ele>159.4</ele>
        <time>2022-04-03T14:54:53Z</time>
      </trkpt>
      <trkpt lat="46.03028" lon="0.32624">
        <ele>159.6</ele>
        <time>2022-04-03T14:54:54Z</time>
      </trkpt>
      <trkpt lat="46.03028" lon="0.32617">
        <ele>159.6</ele>
        <time>2022-04-03T14:54:55Z</time>
      </trkpt>
      <trkpt lat="46.03029" lon="0.3261">
        <ele>159.6</ele>
        <time>2022-04-03T14:54:56Z</time>
      </trkpt>
      <trkpt lat="46.0303" lon="0.32603">
        <ele>159.6</ele>
        <time>2022-04-03T14:54:57Z</time>
      </trkpt>
      <trkpt lat="46.0303" lon="0.32596">
        <ele>159.8</ele>
        <time>2022-04-03T14:54:58Z</time>
      </trkpt>
      <trkpt lat="46.03031" lon="0.32589">
        <ele>160</ele>
        <time>2022-04-03T14:54:59Z</time>
      </trkpt>
      <trkpt lat="46.03031" lon="0.32581">
        <ele>160</ele>
        <time>2022-04-03T14:55:00Z</time>
      </trkpt>
      <trkpt lat="46.03032" lon="0.32574">
        <ele>160</ele>
        <time>2022-04-03T14:55:01Z</time>
      </trkpt>
      <trkpt lat="46.03033" lon="0.32567">
        <ele>160</ele>
        <time>2022-04-03T14:55:02Z</time>
      </trkpt>
      <trkpt lat="46.03034" lon="0.3256">
        <ele>160</ele>
        <time>2022-04-03T14:55:03Z</time>
      </trkpt>
      <trkpt lat="46.03034" lon="0.32553">
        <ele>160.2</ele>
        <time>2022-04-03T14:55:04Z</time>
      </trkpt>
      <trkpt lat="46.03035" lon="0.32546">
        <ele>160.4</ele>
        <time>2022-04-03T14:55:05Z</time>
      </trkpt>
      <trkpt lat="46.03037" lon="0.32539">
        <ele>160.6</ele>
        <time>2022-04-03T14:55:06Z</time>
      </trkpt>
      <trkpt lat="46.03038" lon="0.32532">
        <ele>160.4</ele>
        <time>2022-04-03T14:55:07Z</time>
      </trkpt>
      <trkpt lat="46.03039" lon="0.32525">
        <ele>160.6</ele>
        <time>2022-04-03T14:55:08Z</time>
      </trkpt>
      <trkpt lat="46.03039" lon="0.32518">
        <ele>161</ele>
        <time>2022-04-03T14:55:09Z</time>
      </trkpt>
      <trkpt lat="46.0304" lon="0.32511">
        <ele>161</ele>
        <time>2022-04-03T14:55:10Z</time>
      </trkpt>
      <trkpt lat="46.03041" lon="0.32504">
        <ele>161.4</ele>
        <time>2022-04-03T14:55:11Z</time>
      </trkpt>
      <trkpt lat="46.03041" lon="0.32497">
        <ele>161.2</ele>
        <time>2022-04-03T14:55:12Z</time>
      </trkpt>
      <trkpt lat="46.03041" lon="0.32489">
        <ele>161.4</ele>
        <time>2022-04-03T14:55:13Z</time>
      </trkpt>
      <trkpt lat="46.03041" lon="0.32482">
        <ele>161.4</ele>
        <time>2022-04-03T14:55:14Z</time>
      </trkpt>
      <trkpt lat="46.03042" lon="0.32475">
        <ele>161.4</ele>
        <time>2022-04-03T14:55:15Z</time>
      </trkpt>
      <trkpt lat="46.03043" lon="0.32467">
        <ele>161.4</ele>
        <time>2022-04-03T14:55:16Z</time>
      </trkpt>
      <trkpt lat="46.03043" lon="0.3246">
        <ele>161.4</ele>
        <time>2022-04-03T14:55:17Z</time>
      </trkpt>
      <trkpt lat="46.03043" lon="0.32452">
        <ele>161.4</ele>
        <time>2022-04-03T14:55:18Z</time>
      </trkpt>
      <trkpt lat="46.03044" lon="0.32444">
        <ele>161.2</ele>
        <time>2022-04-03T14:55:19Z</time>
      </trkpt>
      <trkpt lat="46.03044" lon="0.32436">
        <ele>161.2</ele>
        <time>2022-04-03T14:55:20Z</time>
      </trkpt>
      <trkpt lat="46.03045" lon="0.32428">
        <ele>161.4</ele>
        <time>2022-04-03T14:55:21Z</time>
      </trkpt>
      <trkpt lat="46.03045" lon="0.3242">
        <ele>161.2</ele>
        <time>2022-04-03T14:55:22Z</time>
      </trkpt>
      <trkpt lat="46.03046" lon="0.32412">
        <ele>161</ele>
        <time>2022-04-03T14:55:23Z</time>
      </trkpt>
      <trkpt lat="46.03047" lon="0.32404">
        <ele>161</ele>
        <time>2022-04-03T14:55:24Z</time>
      </trkpt>
      <trkpt lat="46.03047" lon="0.32396">
        <ele>160.4</ele>
        <time>2022-04-03T14:55:25Z</time>
      </trkpt>
      <trkpt lat="46.03048" lon="0.32387">
        <ele>160.4</ele>
        <time>2022-04-03T14:55:26Z</time>
      </trkpt>
      <trkpt lat="46.03048" lon="0.32379">
        <ele>160.2</ele>
        <time>2022-04-03T14:55:27Z</time>
      </trkpt>
      <trkpt lat="46.03049" lon="0.3237">
        <ele>160.2</ele>
        <time>2022-04-03T14:55:28Z</time>
      </trkpt>
      <trkpt lat="46.03049" lon="0.32361">
        <ele>160</ele>
        <time>2022-04-03T14:55:29Z</time>
      </trkpt>
      <trkpt lat="46.0305" lon="0.32353">
        <ele>160</ele>
        <time>2022-04-03T14:55:30Z</time>
      </trkpt>
      <trkpt lat="46.03051" lon="0.32344">
        <ele>160</ele>
        <time>2022-04-03T14:55:31Z</time>
      </trkpt>
      <trkpt lat="46.03051" lon="0.32335">
        <ele>160</ele>
        <time>2022-04-03T14:55:32Z</time>
      </trkpt>
      <trkpt lat="46.03052" lon="0.32326">
        <ele>159.8</ele>
        <time>2022-04-03T14:55:33Z</time>
      </trkpt>
      <trkpt lat="46.03053" lon="0.32317">
        <ele>159.8</ele>
        <time>2022-04-03T14:55:34Z</time>
      </trkpt>
      <trkpt lat="46.03054" lon="0.32308">
        <ele>159.6</ele>
        <time>2022-04-03T14:55:35Z</time>
      </trkpt>
      <trkpt lat="46.03055" lon="0.32299">
        <ele>159.6</ele>
        <time>2022-04-03T14:55:36Z</time>
      </trkpt>
      <trkpt lat="46.03055" lon="0.3229">
        <ele>159.4</ele>
        <time>2022-04-03T14:55:37Z</time>
      </trkpt>
      <trkpt lat="46.03056" lon="0.32281">
        <ele>159.4</ele>
        <time>2022-04-03T14:55:38Z</time>
      </trkpt>
      <trkpt lat="46.03057" lon="0.32273">
        <ele>159.4</ele>
        <time>2022-04-03T14:55:39Z</time>
      </trkpt>
      <trkpt lat="46.03058" lon="0.32264">
        <ele>159.4</ele>
        <time>2022-04-03T14:55:40Z</time>
      </trkpt>
      <trkpt lat="46.03058" lon="0.32256">
        <ele>159.2</ele>
        <time>2022-04-03T14:55:41Z</time>
      </trkpt>
      <trkpt lat="46.03059" lon="0.32247">
        <ele>159.2</ele>
        <time>2022-04-03T14:55:42Z</time>
      </trkpt>
      <trkpt lat="46.0306" lon="0.32239">
        <ele>159.2</ele>
        <time>2022-04-03T14:55:43Z</time>
      </trkpt>
      <trkpt lat="46.0306" lon="0.3223">
        <ele>159.4</ele>
        <time>2022-04-03T14:55:44Z</time>
      </trkpt>
      <trkpt lat="46.03061" lon="0.32222">
        <ele>159.2</ele>
        <time>2022-04-03T14:55:45Z</time>
      </trkpt>
      <trkpt lat="46.03062" lon="0.32213">
        <ele>159.4</ele>
        <time>2022-04-03T14:55:46Z</time>
      </trkpt>
      <trkpt lat="46.03062" lon="0.32205">
        <ele>159.2</ele>
        <time>2022-04-03T14:55:47Z</time>
      </trkpt>
      <trkpt lat="46.03063" lon="0.32197">
        <ele>159.2</ele>
        <time>2022-04-03T14:55:48Z</time>
      </trkpt>
      <trkpt lat="46.03064" lon="0.32189">
        <ele>159.2</ele>
        <time>2022-04-03T14:55:49Z</time>
      </trkpt>
      <trkpt lat="46.03064" lon="0.3218">
        <ele>159.4</ele>
        <time>2022-04-03T14:55:50Z</time>
      </trkpt>
      <trkpt lat="46.03065" lon="0.32172">
        <ele>159.4</ele>
        <time>2022-04-03T14:55:51Z</time>
      </trkpt>
      <trkpt lat="46.03066" lon="0.32163">
        <ele>159.6</ele>
        <time>2022-04-03T14:55:52Z</time>
      </trkpt>
      <trkpt lat="46.03066" lon="0.32155">
        <ele>159.6</ele>
        <time>2022-04-03T14:55:53Z</time>
      </trkpt>
      <trkpt lat="46.03067" lon="0.32147">
        <ele>159.4</ele>
        <time>2022-04-03T14:55:54Z</time>
      </trkpt>
      <trkpt lat="46.03068" lon="0.32138">
        <ele>159.4</ele>
        <time>2022-04-03T14:55:55Z</time>
      </trkpt>
      <trkpt lat="46.03068" lon="0.3213">
        <ele>159.6</ele>
        <time>2022-04-03T14:55:56Z</time>
      </trkpt>
      <trkpt lat="46.03069" lon="0.32121">
        <ele>159.6</ele>
        <time>2022-04-03T14:55:57Z</time>
      </trkpt>
      <trkpt lat="46.03069" lon="0.32112">
        <ele>159.6</ele>
        <time>2022-04-03T14:55:58Z</time>
      </trkpt>
      <trkpt lat="46.0307" lon="0.32104">
        <ele>159.6</ele>
        <time>2022-04-03T14:55:59Z</time>
      </trkpt>
      <trkpt lat="46.03071" lon="0.32095">
        <ele>159.8</ele>
        <time>2022-04-03T14:56:00Z</time>
      </trkpt>
      <trkpt lat="46.03071" lon="0.32086">
        <ele>159.8</ele>
        <time>2022-04-03T14:56:01Z</time>
      </trkpt>
      <trkpt lat="46.03072" lon="0.32078">
        <ele>159.6</ele>
        <time>2022-04-03T14:56:02Z</time>
      </trkpt>
      <trkpt lat="46.03073" lon="0.32069">
        <ele>159.6</ele>
        <time>2022-04-03T14:56:03Z</time>
      </trkpt>
      <trkpt lat="46.03074" lon="0.3206">
        <ele>159.6</ele>
        <time>2022-04-03T14:56:04Z</time>
      </trkpt>
      <trkpt lat="46.03074" lon="0.32051">
        <ele>159.8</ele>
        <time>2022-04-03T14:56:05Z</time>
      </trkpt>
      <trkpt lat="46.03075" lon="0.32042">
        <ele>159.6</ele>
        <time>2022-04-03T14:56:06Z</time>
      </trkpt>
      <trkpt lat="46.03075" lon="0.32033">
        <ele>159.6</ele>
        <time>2022-04-03T14:56:07Z</time>
      </trkpt>
      <trkpt lat="46.03076" lon="0.32024">
        <ele>159.4</ele>
        <time>2022-04-03T14:56:08Z</time>
      </trkpt>
      <trkpt lat="46.03077" lon="0.32014">
        <ele>159.4</ele>
        <time>2022-04-03T14:56:09Z</time>
      </trkpt>
      <trkpt lat="46.03078" lon="0.32005">
        <ele>159.4</ele>
        <time>2022-04-03T14:56:10Z</time>
      </trkpt>
      <trkpt lat="46.03078" lon="0.31995">
        <ele>159.4</ele>
        <time>2022-04-03T14:56:11Z</time>
      </trkpt>
      <trkpt lat="46.03079" lon="0.31985">
        <ele>159.2</ele>
        <time>2022-04-03T14:56:12Z</time>
      </trkpt>
      <trkpt lat="46.03079" lon="0.31976">
        <ele>159.2</ele>
        <time>2022-04-03T14:56:13Z</time>
      </trkpt>
      <trkpt lat="46.0308" lon="0.31966">
        <ele>159</ele>
        <time>2022-04-03T14:56:14Z</time>
      </trkpt>
      <trkpt lat="46.0308" lon="0.31956">
        <ele>158.8</ele>
        <time>2022-04-03T14:56:15Z</time>
      </trkpt>
      <trkpt lat="46.03081" lon="0.31946">
        <ele>158.4</ele>
        <time>2022-04-03T14:56:16Z</time>
      </trkpt>
      <trkpt lat="46.03082" lon="0.31936">
        <ele>158.4</ele>
        <time>2022-04-03T14:56:17Z</time>
      </trkpt>
      <trkpt lat="46.03083" lon="0.31926">
        <ele>158.4</ele>
        <time>2022-04-03T14:56:18Z</time>
      </trkpt>
      <trkpt lat="46.03084" lon="0.31916">
        <ele>158.2</ele>
        <time>2022-04-03T14:56:19Z</time>
      </trkpt>
      <trkpt lat="46.03084" lon="0.31906">
        <ele>157.8</ele>
        <time>2022-04-03T14:56:20Z</time>
      </trkpt>
      <trkpt lat="46.03085" lon="0.31895">
        <ele>157.8</ele>
        <time>2022-04-03T14:56:21Z</time>
      </trkpt>
      <trkpt lat="46.03086" lon="0.31885">
        <ele>157.4</ele>
        <time>2022-04-03T14:56:22Z</time>
      </trkpt>
      <trkpt lat="46.03086" lon="0.31874">
        <ele>157.2</ele>
        <time>2022-04-03T14:56:23Z</time>
      </trkpt>
      <trkpt lat="46.03087" lon="0.31863">
        <ele>157</ele>
        <time>2022-04-03T14:56:24Z</time>
      </trkpt>
      <trkpt lat="46.03088" lon="0.31852">
        <ele>156.6</ele>
        <time>2022-04-03T14:56:25Z</time>
      </trkpt>
      <trkpt lat="46.03089" lon="0.31841">
        <ele>156.2</ele>
        <time>2022-04-03T14:56:26Z</time>
      </trkpt>
      <trkpt lat="46.0309" lon="0.3183">
        <ele>155.8</ele>
        <time>2022-04-03T14:56:27Z</time>
      </trkpt>
      <trkpt lat="46.03091" lon="0.31818">
        <ele>155.4</ele>
        <time>2022-04-03T14:56:28Z</time>
      </trkpt>
      <trkpt lat="46.03093" lon="0.31807">
        <ele>155.2</ele>
        <time>2022-04-03T14:56:29Z</time>
      </trkpt>
      <trkpt lat="46.03094" lon="0.31796">
        <ele>154.6</ele>
        <time>2022-04-03T14:56:30Z</time>
      </trkpt>
      <trkpt lat="46.03097" lon="0.31784">
        <ele>154.4</ele>
        <time>2022-04-03T14:56:31Z</time>
      </trkpt>
      <trkpt lat="46.03099" lon="0.31774">
        <ele>154</ele>
        <time>2022-04-03T14:56:32Z</time>
      </trkpt>
      <trkpt lat="46.03101" lon="0.31763">
        <ele>153.8</ele>
        <time>2022-04-03T14:56:33Z</time>
      </trkpt>
      <trkpt lat="46.03104" lon="0.31753">
        <ele>153</ele>
        <time>2022-04-03T14:56:34Z</time>
      </trkpt>
      <trkpt lat="46.03106" lon="0.31744">
        <ele>152.2</ele>
        <time>2022-04-03T14:56:35Z</time>
      </trkpt>
      <trkpt lat="46.03107" lon="0.31734">
        <ele>151.2</ele>
        <time>2022-04-03T14:56:36Z</time>
      </trkpt>
      <trkpt lat="46.03109" lon="0.31725">
        <ele>151.2</ele>
        <time>2022-04-03T14:56:37Z</time>
      </trkpt>
      <trkpt lat="46.03111" lon="0.31716">
        <ele>151</ele>
        <time>2022-04-03T14:56:38Z</time>
      </trkpt>
      <trkpt lat="46.03113" lon="0.31708">
        <ele>150.6</ele>
        <time>2022-04-03T14:56:39Z</time>
      </trkpt>
      <trkpt lat="46.03114" lon="0.317">
        <ele>150.6</ele>
        <time>2022-04-03T14:56:40Z</time>
      </trkpt>
      <trkpt lat="46.03116" lon="0.31692">
        <ele>150.6</ele>
        <time>2022-04-03T14:56:41Z</time>
      </trkpt>
      <trkpt lat="46.03117" lon="0.31685">
        <ele>150.4</ele>
        <time>2022-04-03T14:56:42Z</time>
      </trkpt>
      <trkpt lat="46.03119" lon="0.31677">
        <ele>150.4</ele>
        <time>2022-04-03T14:56:43Z</time>
      </trkpt>
      <trkpt lat="46.03121" lon="0.3167">
        <ele>150.4</ele>
        <time>2022-04-03T14:56:44Z</time>
      </trkpt>
      <trkpt lat="46.03122" lon="0.31661">
        <ele>150.6</ele>
        <time>2022-04-03T14:56:45Z</time>
      </trkpt>
      <trkpt lat="46.03124" lon="0.31653">
        <ele>150.4</ele>
        <time>2022-04-03T14:56:46Z</time>
      </trkpt>
      <trkpt lat="46.03125" lon="0.31644">
        <ele>150.4</ele>
        <time>2022-04-03T14:56:47Z</time>
      </trkpt>
      <trkpt lat="46.03127" lon="0.31636">
        <ele>150.2</ele>
        <time>2022-04-03T14:56:48Z</time>
      </trkpt>
      <trkpt lat="46.03129" lon="0.31627">
        <ele>150.2</ele>
        <time>2022-04-03T14:56:49Z</time>
      </trkpt>
      <trkpt lat="46.03131" lon="0.31618">
        <ele>150.4</ele>
        <time>2022-04-03T14:56:50Z</time>
      </trkpt>
      <trkpt lat="46.03132" lon="0.31609">
        <ele>150.2</ele>
        <time>2022-04-03T14:56:51Z</time>
      </trkpt>
      <trkpt lat="46.03134" lon="0.316">
        <ele>150.4</ele>
        <time>2022-04-03T14:56:52Z</time>
      </trkpt>
      <trkpt lat="46.03137" lon="0.31591">
        <ele>150.2</ele>
        <time>2022-04-03T14:56:53Z</time>
      </trkpt>
      <trkpt lat="46.03139" lon="0.31582">
        <ele>150.4</ele>
        <time>2022-04-03T14:56:54Z</time>
      </trkpt>
      <trkpt lat="46.03141" lon="0.31572">
        <ele>150.2</ele>
        <time>2022-04-03T14:56:55Z</time>
      </trkpt>
      <trkpt lat="46.03143" lon="0.31563">
        <ele>150.2</ele>
        <time>2022-04-03T14:56:56Z</time>
      </trkpt>
      <trkpt lat="46.03145" lon="0.31553">
        <ele>150.2</ele>
        <time>2022-04-03T14:56:57Z</time>
      </trkpt>
      <trkpt lat="46.03147" lon="0.31544">
        <ele>150.2</ele>
        <time>2022-04-03T14:56:58Z</time>
      </trkpt>
      <trkpt lat="46.03149" lon="0.31534">
        <ele>150</ele>
        <time>2022-04-03T14:56:59Z</time>
      </trkpt>
      <trkpt lat="46.03151" lon="0.31524">
        <ele>150.2</ele>
        <time>2022-04-03T14:57:00Z</time>
      </trkpt>
      <trkpt lat="46.03153" lon="0.31514">
        <ele>150</ele>
        <time>2022-04-03T14:57:01Z</time>
      </trkpt>
      <trkpt lat="46.03154" lon="0.31504">
        <ele>150</ele>
        <time>2022-04-03T14:57:02Z</time>
      </trkpt>
      <trkpt lat="46.03156" lon="0.31494">
        <ele>149.4</ele>
        <time>2022-04-03T14:57:03Z</time>
      </trkpt>
      <trkpt lat="46.03159" lon="0.31484">
        <ele>149.2</ele>
        <time>2022-04-03T14:57:04Z</time>
      </trkpt>
      <trkpt lat="46.0316" lon="0.31474">
        <ele>148.6</ele>
        <time>2022-04-03T14:57:05Z</time>
      </trkpt>
      <trkpt lat="46.03162" lon="0.31465">
        <ele>148.2</ele>
        <time>2022-04-03T14:57:06Z</time>
      </trkpt>
      <trkpt lat="46.03164" lon="0.31457">
        <ele>148</ele>
        <time>2022-04-03T14:57:07Z</time>
      </trkpt>
      <trkpt lat="46.03166" lon="0.31448">
        <ele>147.6</ele>
        <time>2022-04-03T14:57:08Z</time>
      </trkpt>
      <trkpt lat="46.03168" lon="0.31439">
        <ele>147.4</ele>
        <time>2022-04-03T14:57:09Z</time>
      </trkpt>
      <trkpt lat="46.0317" lon="0.31431">
        <ele>147.4</ele>
        <time>2022-04-03T14:57:10Z</time>
      </trkpt>
      <trkpt lat="46.03172" lon="0.31422">
        <ele>147.4</ele>
        <time>2022-04-03T14:57:11Z</time>
      </trkpt>
      <trkpt lat="46.03173" lon="0.31414">
        <ele>147.4</ele>
        <time>2022-04-03T14:57:12Z</time>
      </trkpt>
      <trkpt lat="46.03175" lon="0.31405">
        <ele>147.2</ele>
        <time>2022-04-03T14:57:13Z</time>
      </trkpt>
      <trkpt lat="46.03177" lon="0.31397">
        <ele>147</ele>
        <time>2022-04-03T14:57:14Z</time>
      </trkpt>
      <trkpt lat="46.03179" lon="0.31389">
        <ele>147</ele>
        <time>2022-04-03T14:57:15Z</time>
      </trkpt>
      <trkpt lat="46.0318" lon="0.31381">
        <ele>147</ele>
        <time>2022-04-03T14:57:16Z</time>
      </trkpt>
      <trkpt lat="46.03182" lon="0.31374">
        <ele>147</ele>
        <time>2022-04-03T14:57:17Z</time>
      </trkpt>
      <trkpt lat="46.03183" lon="0.31366">
        <ele>147</ele>
        <time>2022-04-03T14:57:18Z</time>
      </trkpt>
      <trkpt lat="46.03185" lon="0.31359">
        <ele>146.8</ele>
        <time>2022-04-03T14:57:19Z</time>
      </trkpt>
      <trkpt lat="46.03186" lon="0.31352">
        <ele>146.8</ele>
        <time>2022-04-03T14:57:20Z</time>
      </trkpt>
      <trkpt lat="46.03187" lon="0.31346">
        <ele>146.8</ele>
        <time>2022-04-03T14:57:21Z</time>
      </trkpt>
      <trkpt lat="46.03189" lon="0.31339">
        <ele>147</ele>
        <time>2022-04-03T14:57:22Z</time>
      </trkpt>
      <trkpt lat="46.0319" lon="0.31333">
        <ele>147.2</ele>
        <time>2022-04-03T14:57:23Z</time>
      </trkpt>
      <trkpt lat="46.03191" lon="0.31326">
        <ele>147.4</ele>
        <time>2022-04-03T14:57:24Z</time>
      </trkpt>
      <trkpt lat="46.03192" lon="0.3132">
        <ele>147.8</ele>
        <time>2022-04-03T14:57:25Z</time>
      </trkpt>
      <trkpt lat="46.03193" lon="0.31314">
        <ele>148.2</ele>
        <time>2022-04-03T14:57:26Z</time>
      </trkpt>
      <trkpt lat="46.03195" lon="0.31308">
        <ele>148.6</ele>
        <time>2022-04-03T14:57:27Z</time>
      </trkpt>
      <trkpt lat="46.03195" lon="0.31301">
        <ele>149</ele>
        <time>2022-04-03T14:57:28Z</time>
      </trkpt>
      <trkpt lat="46.03197" lon="0.31295">
        <ele>149.2</ele>
        <time>2022-04-03T14:57:29Z</time>
      </trkpt>
      <trkpt lat="46.03198" lon="0.31289">
        <ele>149.4</ele>
        <time>2022-04-03T14:57:30Z</time>
      </trkpt>
      <trkpt lat="46.03199" lon="0.31283">
        <ele>149.6</ele>
        <time>2022-04-03T14:57:31Z</time>
      </trkpt>
      <trkpt lat="46.032" lon="0.31277">
        <ele>149.8</ele>
        <time>2022-04-03T14:57:32Z</time>
      </trkpt>
      <trkpt lat="46.032" lon="0.31271">
        <ele>149.6</ele>
        <time>2022-04-03T14:57:33Z</time>
      </trkpt>
      <trkpt lat="46.03201" lon="0.31264">
        <ele>149.6</ele>
        <time>2022-04-03T14:57:34Z</time>
      </trkpt>
      <trkpt lat="46.03202" lon="0.31258">
        <ele>149.8</ele>
        <time>2022-04-03T14:57:35Z</time>
      </trkpt>
      <trkpt lat="46.03202" lon="0.31252">
        <ele>150.2</ele>
        <time>2022-04-03T14:57:36Z</time>
      </trkpt>
      <trkpt lat="46.03203" lon="0.31245">
        <ele>150.8</ele>
        <time>2022-04-03T14:57:37Z</time>
      </trkpt>
      <trkpt lat="46.03202" lon="0.31239">
        <ele>151.2</ele>
        <time>2022-04-03T14:57:38Z</time>
      </trkpt>
      <trkpt lat="46.03201" lon="0.31233">
        <ele>151.6</ele>
        <time>2022-04-03T14:57:39Z</time>
      </trkpt>
      <trkpt lat="46.03201" lon="0.31226">
        <ele>152</ele>
        <time>2022-04-03T14:57:40Z</time>
      </trkpt>
      <trkpt lat="46.032" lon="0.3122">
        <ele>152</ele>
        <time>2022-04-03T14:57:41Z</time>
      </trkpt>
      <trkpt lat="46.03201" lon="0.31213">
        <ele>152.2</ele>
        <time>2022-04-03T14:57:42Z</time>
      </trkpt>
      <trkpt lat="46.03201" lon="0.31207">
        <ele>152.6</ele>
        <time>2022-04-03T14:57:43Z</time>
      </trkpt>
      <trkpt lat="46.032" lon="0.312">
        <ele>152.6</ele>
        <time>2022-04-03T14:57:44Z</time>
      </trkpt>
      <trkpt lat="46.032" lon="0.31194">
        <ele>152.6</ele>
        <time>2022-04-03T14:57:45Z</time>
      </trkpt>
      <trkpt lat="46.032" lon="0.31187">
        <ele>153.2</ele>
        <time>2022-04-03T14:57:46Z</time>
      </trkpt>
      <trkpt lat="46.03199" lon="0.31181">
        <ele>153.6</ele>
        <time>2022-04-03T14:57:47Z</time>
      </trkpt>
      <trkpt lat="46.03199" lon="0.31174">
        <ele>154</ele>
        <time>2022-04-03T14:57:48Z</time>
      </trkpt>
      <trkpt lat="46.03198" lon="0.31168">
        <ele>154.4</ele>
        <time>2022-04-03T14:57:49Z</time>
      </trkpt>
      <trkpt lat="46.03197" lon="0.31162">
        <ele>154.4</ele>
        <time>2022-04-03T14:57:50Z</time>
      </trkpt>
      <trkpt lat="46.03196" lon="0.31156">
        <ele>154.6</ele>
        <time>2022-04-03T14:57:51Z</time>
      </trkpt>
      <trkpt lat="46.03195" lon="0.3115">
        <ele>154.8</ele>
        <time>2022-04-03T14:57:52Z</time>
      </trkpt>
      <trkpt lat="46.03194" lon="0.31145">
        <ele>154.8</ele>
        <time>2022-04-03T14:57:53Z</time>
      </trkpt>
      <trkpt lat="46.03194" lon="0.31139">
        <ele>155</ele>
        <time>2022-04-03T14:57:54Z</time>
      </trkpt>
      <trkpt lat="46.03193" lon="0.31133">
        <ele>155.2</ele>
        <time>2022-04-03T14:57:55Z</time>
      </trkpt>
      <trkpt lat="46.03192" lon="0.31127">
        <ele>155.2</ele>
        <time>2022-04-03T14:57:56Z</time>
      </trkpt>
      <trkpt lat="46.03192" lon="0.31122">
        <ele>155.6</ele>
        <time>2022-04-03T14:57:57Z</time>
      </trkpt>
      <trkpt lat="46.03192" lon="0.31116">
        <ele>156</ele>
        <time>2022-04-03T14:57:58Z</time>
      </trkpt>
      <trkpt lat="46.03191" lon="0.3111">
        <ele>156.2</ele>
        <time>2022-04-03T14:57:59Z</time>
      </trkpt>
      <trkpt lat="46.0319" lon="0.31104">
        <ele>156.6</ele>
        <time>2022-04-03T14:58:00Z</time>
      </trkpt>
      <trkpt lat="46.0319" lon="0.31098">
        <ele>156.8</ele>
        <time>2022-04-03T14:58:01Z</time>
      </trkpt>
      <trkpt lat="46.03189" lon="0.31092">
        <ele>157.2</ele>
        <time>2022-04-03T14:58:02Z</time>
      </trkpt>
      <trkpt lat="46.03189" lon="0.31086">
        <ele>157.4</ele>
        <time>2022-04-03T14:58:03Z</time>
      </trkpt>
      <trkpt lat="46.03188" lon="0.31079">
        <ele>157.4</ele>
        <time>2022-04-03T14:58:04Z</time>
      </trkpt>
      <trkpt lat="46.03188" lon="0.31073">
        <ele>157.6</ele>
        <time>2022-04-03T14:58:05Z</time>
      </trkpt>
      <trkpt lat="46.03187" lon="0.31066">
        <ele>157.6</ele>
        <time>2022-04-03T14:58:06Z</time>
      </trkpt>
      <trkpt lat="46.03186" lon="0.31059">
        <ele>157.6</ele>
        <time>2022-04-03T14:58:07Z</time>
      </trkpt>
      <trkpt lat="46.03185" lon="0.31052">
        <ele>157.6</ele>
        <time>2022-04-03T14:58:08Z</time>
      </trkpt>
      <trkpt lat="46.03184" lon="0.31044">
        <ele>157.6</ele>
        <time>2022-04-03T14:58:09Z</time>
      </trkpt>
      <trkpt lat="46.03183" lon="0.31036">
        <ele>157.6</ele>
        <time>2022-04-03T14:58:10Z</time>
      </trkpt>
      <trkpt lat="46.03182" lon="0.31028">
        <ele>157.6</ele>
        <time>2022-04-03T14:58:11Z</time>
      </trkpt>
      <trkpt lat="46.03181" lon="0.31019">
        <ele>157.6</ele>
        <time>2022-04-03T14:58:12Z</time>
      </trkpt>
      <trkpt lat="46.0318" lon="0.31011">
        <ele>157.4</ele>
        <time>2022-04-03T14:58:13Z</time>
      </trkpt>
      <trkpt lat="46.03179" lon="0.31001">
        <ele>157.8</ele>
        <time>2022-04-03T14:58:14Z</time>
      </trkpt>
      <trkpt lat="46.03178" lon="0.30992">
        <ele>157.6</ele>
        <time>2022-04-03T14:58:15Z</time>
      </trkpt>
      <trkpt lat="46.03177" lon="0.30982">
        <ele>157.4</ele>
        <time>2022-04-03T14:58:16Z</time>
      </trkpt>
      <trkpt lat="46.03176" lon="0.30972">
        <ele>157.4</ele>
        <time>2022-04-03T14:58:17Z</time>
      </trkpt>
      <trkpt lat="46.03175" lon="0.30962">
        <ele>156.8</ele>
        <time>2022-04-03T14:58:18Z</time>
      </trkpt>
      <trkpt lat="46.03174" lon="0.30952">
        <ele>156.6</ele>
        <time>2022-04-03T14:58:19Z</time>
      </trkpt>
      <trkpt lat="46.03174" lon="0.30941">
        <ele>156.4</ele>
        <time>2022-04-03T14:58:20Z</time>
      </trkpt>
      <trkpt lat="46.03173" lon="0.30931">
        <ele>156</ele>
        <time>2022-04-03T14:58:21Z</time>
      </trkpt>
      <trkpt lat="46.03172" lon="0.3092">
        <ele>155.8</ele>
        <time>2022-04-03T14:58:22Z</time>
      </trkpt>
      <trkpt lat="46.03172" lon="0.3091">
        <ele>155.2</ele>
        <time>2022-04-03T14:58:23Z</time>
      </trkpt>
      <trkpt lat="46.03172" lon="0.30899">
        <ele>155</ele>
        <time>2022-04-03T14:58:24Z</time>
      </trkpt>
      <trkpt lat="46.03172" lon="0.30889">
        <ele>154.8</ele>
        <time>2022-04-03T14:58:25Z</time>
      </trkpt>
      <trkpt lat="46.03172" lon="0.30878">
        <ele>154.6</ele>
        <time>2022-04-03T14:58:26Z</time>
      </trkpt>
      <trkpt lat="46.03172" lon="0.30868">
        <ele>154</ele>
        <time>2022-04-03T14:58:27Z</time>
      </trkpt>
      <trkpt lat="46.03172" lon="0.30858">
        <ele>153.4</ele>
        <time>2022-04-03T14:58:28Z</time>
      </trkpt>
      <trkpt lat="46.03173" lon="0.30847">
        <ele>153</ele>
        <time>2022-04-03T14:58:29Z</time>
      </trkpt>
      <trkpt lat="46.03174" lon="0.30837">
        <ele>152.8</ele>
        <time>2022-04-03T14:58:30Z</time>
      </trkpt>
      <trkpt lat="46.03175" lon="0.30827">
        <ele>152.8</ele>
        <time>2022-04-03T14:58:31Z</time>
      </trkpt>
      <trkpt lat="46.03176" lon="0.30817">
        <ele>152.4</ele>
        <time>2022-04-03T14:58:32Z</time>
      </trkpt>
      <trkpt lat="46.03177" lon="0.30806">
        <ele>152</ele>
        <time>2022-04-03T14:58:33Z</time>
      </trkpt>
      <trkpt lat="46.03178" lon="0.30796">
        <ele>151.6</ele>
        <time>2022-04-03T14:58:34Z</time>
      </trkpt>
      <trkpt lat="46.03179" lon="0.30785">
        <ele>151.4</ele>
        <time>2022-04-03T14:58:35Z</time>
      </trkpt>
      <trkpt lat="46.0318" lon="0.30775">
        <ele>151</ele>
        <time>2022-04-03T14:58:36Z</time>
      </trkpt>
      <trkpt lat="46.03181" lon="0.30765">
        <ele>150.6</ele>
        <time>2022-04-03T14:58:37Z</time>
      </trkpt>
      <trkpt lat="46.03182" lon="0.30754">
        <ele>150.6</ele>
        <time>2022-04-03T14:58:38Z</time>
      </trkpt>
      <trkpt lat="46.03183" lon="0.30744">
        <ele>150.4</ele>
        <time>2022-04-03T14:58:39Z</time>
      </trkpt>
      <trkpt lat="46.03184" lon="0.30733">
        <ele>150.4</ele>
        <time>2022-04-03T14:58:40Z</time>
      </trkpt>
      <trkpt lat="46.03185" lon="0.30723">
        <ele>150.2</ele>
        <time>2022-04-03T14:58:41Z</time>
      </trkpt>
      <trkpt lat="46.03186" lon="0.30713">
        <ele>150.2</ele>
        <time>2022-04-03T14:58:42Z</time>
      </trkpt>
      <trkpt lat="46.03186" lon="0.30702">
        <ele>150</ele>
        <time>2022-04-03T14:58:43Z</time>
      </trkpt>
      <trkpt lat="46.03187" lon="0.30692">
        <ele>149.8</ele>
        <time>2022-04-03T14:58:44Z</time>
      </trkpt>
      <trkpt lat="46.03188" lon="0.30682">
        <ele>149.6</ele>
        <time>2022-04-03T14:58:45Z</time>
      </trkpt>
      <trkpt lat="46.03189" lon="0.30672">
        <ele>149.4</ele>
        <time>2022-04-03T14:58:46Z</time>
      </trkpt>
      <trkpt lat="46.0319" lon="0.30662">
        <ele>149.2</ele>
        <time>2022-04-03T14:58:47Z</time>
      </trkpt>
      <trkpt lat="46.03191" lon="0.30652">
        <ele>149.2</ele>
        <time>2022-04-03T14:58:48Z</time>
      </trkpt>
      <trkpt lat="46.03192" lon="0.30642">
        <ele>149</ele>
        <time>2022-04-03T14:58:49Z</time>
      </trkpt>
      <trkpt lat="46.03193" lon="0.30631">
        <ele>149</ele>
        <time>2022-04-03T14:58:50Z</time>
      </trkpt>
      <trkpt lat="46.03194" lon="0.30621">
        <ele>148.6</ele>
        <time>2022-04-03T14:58:51Z</time>
      </trkpt>
      <trkpt lat="46.03195" lon="0.30611">
        <ele>148.2</ele>
        <time>2022-04-03T14:58:52Z</time>
      </trkpt>
      <trkpt lat="46.03196" lon="0.30601">
        <ele>147.8</ele>
        <time>2022-04-03T14:58:53Z</time>
      </trkpt>
      <trkpt lat="46.03197" lon="0.30591">
        <ele>147.6</ele>
        <time>2022-04-03T14:58:54Z</time>
      </trkpt>
      <trkpt lat="46.03198" lon="0.30582">
        <ele>147.6</ele>
        <time>2022-04-03T14:58:55Z</time>
      </trkpt>
      <trkpt lat="46.03198" lon="0.30572">
        <ele>147.4</ele>
        <time>2022-04-03T14:58:56Z</time>
      </trkpt>
      <trkpt lat="46.03199" lon="0.30562">
        <ele>147.4</ele>
        <time>2022-04-03T14:58:57Z</time>
      </trkpt>
      <trkpt lat="46.032" lon="0.30553">
        <ele>147.4</ele>
        <time>2022-04-03T14:58:58Z</time>
      </trkpt>
      <trkpt lat="46.03201" lon="0.30544">
        <ele>147.2</ele>
        <time>2022-04-03T14:58:59Z</time>
      </trkpt>
      <trkpt lat="46.03202" lon="0.30535">
        <ele>147.2</ele>
        <time>2022-04-03T14:59:00Z</time>
      </trkpt>
      <trkpt lat="46.03202" lon="0.30525">
        <ele>147.2</ele>
        <time>2022-04-03T14:59:01Z</time>
      </trkpt>
      <trkpt lat="46.03203" lon="0.30516">
        <ele>147.4</ele>
        <time>2022-04-03T14:59:02Z</time>
      </trkpt>
      <trkpt lat="46.03204" lon="0.30507">
        <ele>147.4</ele>
        <time>2022-04-03T14:59:03Z</time>
      </trkpt>
      <trkpt lat="46.03205" lon="0.30498">
        <ele>147.4</ele>
        <time>2022-04-03T14:59:04Z</time>
      </trkpt>
      <trkpt lat="46.03206" lon="0.30489">
        <ele>147.6</ele>
        <time>2022-04-03T14:59:05Z</time>
      </trkpt>
      <trkpt lat="46.03207" lon="0.3048">
        <ele>147.8</ele>
        <time>2022-04-03T14:59:06Z</time>
      </trkpt>
      <trkpt lat="46.03207" lon="0.3047">
        <ele>147.8</ele>
        <time>2022-04-03T14:59:07Z</time>
      </trkpt>
      <trkpt lat="46.03208" lon="0.30461">
        <ele>148</ele>
        <time>2022-04-03T14:59:08Z</time>
      </trkpt>
      <trkpt lat="46.03209" lon="0.30452">
        <ele>148</ele>
        <time>2022-04-03T14:59:09Z</time>
      </trkpt>
      <trkpt lat="46.0321" lon="0.30442">
        <ele>148.2</ele>
        <time>2022-04-03T14:59:10Z</time>
      </trkpt>
      <trkpt lat="46.03211" lon="0.30433">
        <ele>148.2</ele>
        <time>2022-04-03T14:59:11Z</time>
      </trkpt>
      <trkpt lat="46.03212" lon="0.30424">
        <ele>148.4</ele>
        <time>2022-04-03T14:59:12Z</time>
      </trkpt>
      <trkpt lat="46.03212" lon="0.30415">
        <ele>148.6</ele>
        <time>2022-04-03T14:59:13Z</time>
      </trkpt>
      <trkpt lat="46.03213" lon="0.30405">
        <ele>148.4</ele>
        <time>2022-04-03T14:59:14Z</time>
      </trkpt>
      <trkpt lat="46.03214" lon="0.30396">
        <ele>148.6</ele>
        <time>2022-04-03T14:59:15Z</time>
      </trkpt>
      <trkpt lat="46.03215" lon="0.30387">
        <ele>148.6</ele>
        <time>2022-04-03T14:59:16Z</time>
      </trkpt>
      <trkpt lat="46.03216" lon="0.30377">
        <ele>148.6</ele>
        <time>2022-04-03T14:59:17Z</time>
      </trkpt>
      <trkpt lat="46.03216" lon="0.30368">
        <ele>148.6</ele>
        <time>2022-04-03T14:59:18Z</time>
      </trkpt>
      <trkpt lat="46.03217" lon="0.30358">
        <ele>148.8</ele>
        <time>2022-04-03T14:59:19Z</time>
      </trkpt>
      <trkpt lat="46.03218" lon="0.30349">
        <ele>148.8</ele>
        <time>2022-04-03T14:59:20Z</time>
      </trkpt>
      <trkpt lat="46.03219" lon="0.30339">
        <ele>148.6</ele>
        <time>2022-04-03T14:59:21Z</time>
      </trkpt>
      <trkpt lat="46.03219" lon="0.30329">
        <ele>148.6</ele>
        <time>2022-04-03T14:59:22Z</time>
      </trkpt>
      <trkpt lat="46.0322" lon="0.3032">
        <ele>148.8</ele>
        <time>2022-04-03T14:59:23Z</time>
      </trkpt>
      <trkpt lat="46.03221" lon="0.3031">
        <ele>148.8</ele>
        <time>2022-04-03T14:59:24Z</time>
      </trkpt>
      <trkpt lat="46.03221" lon="0.30301">
        <ele>148.8</ele>
        <time>2022-04-03T14:59:25Z</time>
      </trkpt>
      <trkpt lat="46.03222" lon="0.30291">
        <ele>148.8</ele>
        <time>2022-04-03T14:59:26Z</time>
      </trkpt>
      <trkpt lat="46.03223" lon="0.30282">
        <ele>148.6</ele>
        <time>2022-04-03T14:59:27Z</time>
      </trkpt>
      <trkpt lat="46.03224" lon="0.30272">
        <ele>148.6</ele>
        <time>2022-04-03T14:59:28Z</time>
      </trkpt>
      <trkpt lat="46.03224" lon="0.30263">
        <ele>148.8</ele>
        <time>2022-04-03T14:59:29Z</time>
      </trkpt>
      <trkpt lat="46.03225" lon="0.30254">
        <ele>148.6</ele>
        <time>2022-04-03T14:59:30Z</time>
      </trkpt>
      <trkpt lat="46.03226" lon="0.30245">
        <ele>148.8</ele>
        <time>2022-04-03T14:59:31Z</time>
      </trkpt>
      <trkpt lat="46.03227" lon="0.30236">
        <ele>148.6</ele>
        <time>2022-04-03T14:59:32Z</time>
      </trkpt>
      <trkpt lat="46.03228" lon="0.30226">
        <ele>148.6</ele>
        <time>2022-04-03T14:59:33Z</time>
      </trkpt>
      <trkpt lat="46.03229" lon="0.30217">
        <ele>148.6</ele>
        <time>2022-04-03T14:59:34Z</time>
      </trkpt>
      <trkpt lat="46.0323" lon="0.30207">
        <ele>148.4</ele>
        <time>2022-04-03T14:59:35Z</time>
      </trkpt>
      <trkpt lat="46.03231" lon="0.30198">
        <ele>148.2</ele>
        <time>2022-04-03T14:59:36Z</time>
      </trkpt>
      <trkpt lat="46.03232" lon="0.30188">
        <ele>148.2</ele>
        <time>2022-04-03T14:59:37Z</time>
      </trkpt>
      <trkpt lat="46.03233" lon="0.30178">
        <ele>148.2</ele>
        <time>2022-04-03T14:59:38Z</time>
      </trkpt>
      <trkpt lat="46.03234" lon="0.30168">
        <ele>148.2</ele>
        <time>2022-04-03T14:59:39Z</time>
      </trkpt>
      <trkpt lat="46.03235" lon="0.30158">
        <ele>148.2</ele>
        <time>2022-04-03T14:59:40Z</time>
      </trkpt>
      <trkpt lat="46.03236" lon="0.30148">
        <ele>148.2</ele>
        <time>2022-04-03T14:59:41Z</time>
      </trkpt>
      <trkpt lat="46.03237" lon="0.30138">
        <ele>148</ele>
        <time>2022-04-03T14:59:42Z</time>
      </trkpt>
      <trkpt lat="46.03237" lon="0.30128">
        <ele>148</ele>
        <time>2022-04-03T14:59:43Z</time>
      </trkpt>
      <trkpt lat="46.03238" lon="0.30117">
        <ele>147.8</ele>
        <time>2022-04-03T14:59:44Z</time>
      </trkpt>
      <trkpt lat="46.03238" lon="0.30107">
        <ele>147.6</ele>
        <time>2022-04-03T14:59:45Z</time>
      </trkpt>
      <trkpt lat="46.03239" lon="0.30097">
        <ele>147.4</ele>
        <time>2022-04-03T14:59:46Z</time>
      </trkpt>
      <trkpt lat="46.0324" lon="0.30087">
        <ele>147.4</ele>
        <time>2022-04-03T14:59:47Z</time>
      </trkpt>
      <trkpt lat="46.03241" lon="0.30078">
        <ele>147.4</ele>
        <time>2022-04-03T14:59:48Z</time>
      </trkpt>
      <trkpt lat="46.03242" lon="0.30068">
        <ele>147.4</ele>
        <time>2022-04-03T14:59:49Z</time>
      </trkpt>
      <trkpt lat="46.03243" lon="0.30059">
        <ele>147.2</ele>
        <time>2022-04-03T14:59:50Z</time>
      </trkpt>
      <trkpt lat="46.03245" lon="0.3005">
        <ele>147.2</ele>
        <time>2022-04-03T14:59:51Z</time>
      </trkpt>
      <trkpt lat="46.03246" lon="0.3004">
        <ele>147</ele>
        <time>2022-04-03T14:59:52Z</time>
      </trkpt>
      <trkpt lat="46.03248" lon="0.30031">
        <ele>147</ele>
        <time>2022-04-03T14:59:53Z</time>
      </trkpt>
      <trkpt lat="46.0325" lon="0.30022">
        <ele>146.8</ele>
        <time>2022-04-03T14:59:54Z</time>
      </trkpt>
      <trkpt lat="46.03252" lon="0.30013">
        <ele>146.6</ele>
        <time>2022-04-03T14:59:55Z</time>
      </trkpt>
      <trkpt lat="46.03254" lon="0.30004">
        <ele>146.6</ele>
        <time>2022-04-03T14:59:56Z</time>
      </trkpt>
      <trkpt lat="46.03256" lon="0.29996">
        <ele>146.6</ele>
        <time>2022-04-03T14:59:57Z</time>
      </trkpt>
      <trkpt lat="46.03259" lon="0.29987">
        <ele>146.4</ele>
        <time>2022-04-03T14:59:58Z</time>
      </trkpt>
      <trkpt lat="46.03261" lon="0.29978">
        <ele>146.2</ele>
        <time>2022-04-03T14:59:59Z</time>
      </trkpt>
      <trkpt lat="46.03264" lon="0.2997">
        <ele>146.2</ele>
        <time>2022-04-03T15:00:00Z</time>
      </trkpt>
      <trkpt lat="46.03266" lon="0.29961">
        <ele>146.4</ele>
        <time>2022-04-03T15:00:01Z</time>
      </trkpt>
      <trkpt lat="46.03269" lon="0.29953">
        <ele>146.2</ele>
        <time>2022-04-03T15:00:02Z</time>
      </trkpt>
      <trkpt lat="46.03272" lon="0.29945">
        <ele>146.2</ele>
        <time>2022-04-03T15:00:03Z</time>
      </trkpt>
      <trkpt lat="46.03275" lon="0.29936">
        <ele>146.2</ele>
        <time>2022-04-03T15:00:04Z</time>
      </trkpt>
      <trkpt lat="46.03278" lon="0.29928">
        <ele>146.4</ele>
        <time>2022-04-03T15:00:05Z</time>
      </trkpt>
      <trkpt lat="46.03282" lon="0.2992">
        <ele>146.4</ele>
        <time>2022-04-03T15:00:06Z</time>
      </trkpt>
      <trkpt lat="46.03285" lon="0.29911">
        <ele>146.2</ele>
        <time>2022-04-03T15:00:07Z</time>
      </trkpt>
      <trkpt lat="46.03288" lon="0.29903">
        <ele>146.2</ele>
        <time>2022-04-03T15:00:08Z</time>
      </trkpt>
      <trkpt lat="46.03292" lon="0.29894">
        <ele>146.2</ele>
        <time>2022-04-03T15:00:09Z</time>
      </trkpt>
      <trkpt lat="46.03295" lon="0.29885">
        <ele>146</ele>
        <time>2022-04-03T15:00:10Z</time>
      </trkpt>
      <trkpt lat="46.03298" lon="0.29877">
        <ele>146</ele>
        <time>2022-04-03T15:00:11Z</time>
      </trkpt>
      <trkpt lat="46.03302" lon="0.29868">
        <ele>146</ele>
        <time>2022-04-03T15:00:12Z</time>
      </trkpt>
      <trkpt lat="46.03305" lon="0.29859">
        <ele>146</ele>
        <time>2022-04-03T15:00:13Z</time>
      </trkpt>
      <trkpt lat="46.03308" lon="0.29851">
        <ele>146</ele>
        <time>2022-04-03T15:00:14Z</time>
      </trkpt>
      <trkpt lat="46.03312" lon="0.29842">
        <ele>146.2</ele>
        <time>2022-04-03T15:00:15Z</time>
      </trkpt>
      <trkpt lat="46.03315" lon="0.29833">
        <ele>146</ele>
        <time>2022-04-03T15:00:16Z</time>
      </trkpt>
      <trkpt lat="46.03318" lon="0.29825">
        <ele>145.8</ele>
        <time>2022-04-03T15:00:17Z</time>
      </trkpt>
      <trkpt lat="46.03321" lon="0.29816">
        <ele>145.8</ele>
        <time>2022-04-03T15:00:18Z</time>
      </trkpt>
      <trkpt lat="46.03324" lon="0.29808">
        <ele>145.8</ele>
        <time>2022-04-03T15:00:19Z</time>
      </trkpt>
      <trkpt lat="46.03327" lon="0.298">
        <ele>145.6</ele>
        <time>2022-04-03T15:00:20Z</time>
      </trkpt>
      <trkpt lat="46.0333" lon="0.29792">
        <ele>145.4</ele>
        <time>2022-04-03T15:00:21Z</time>
      </trkpt>
      <trkpt lat="46.03333" lon="0.29784">
        <ele>145.2</ele>
        <time>2022-04-03T15:00:22Z</time>
      </trkpt>
      <trkpt lat="46.03336" lon="0.29776">
        <ele>145</ele>
        <time>2022-04-03T15:00:23Z</time>
      </trkpt>
      <trkpt lat="46.03339" lon="0.29768">
        <ele>144.8</ele>
        <time>2022-04-03T15:00:24Z</time>
      </trkpt>
      <trkpt lat="46.03342" lon="0.2976">
        <ele>144.8</ele>
        <time>2022-04-03T15:00:25Z</time>
      </trkpt>
      <trkpt lat="46.03345" lon="0.29752">
        <ele>144.8</ele>
        <time>2022-04-03T15:00:26Z</time>
      </trkpt>
      <trkpt lat="46.03349" lon="0.29744">
        <ele>144.8</ele>
        <time>2022-04-03T15:00:27Z</time>
      </trkpt>
      <trkpt lat="46.03352" lon="0.29736">
        <ele>144.8</ele>
        <time>2022-04-03T15:00:28Z</time>
      </trkpt>
      <trkpt lat="46.03355" lon="0.29727">
        <ele>144.8</ele>
        <time>2022-04-03T15:00:29Z</time>
      </trkpt>
      <trkpt lat="46.03358" lon="0.29719">
        <ele>145</ele>
        <time>2022-04-03T15:00:30Z</time>
      </trkpt>
      <trkpt lat="46.03361" lon="0.2971">
        <ele>144.8</ele>
        <time>2022-04-03T15:00:31Z</time>
      </trkpt>
      <trkpt lat="46.03364" lon="0.29702">
        <ele>144.6</ele>
        <time>2022-04-03T15:00:32Z</time>
      </trkpt>
      <trkpt lat="46.03367" lon="0.29694">
        <ele>144.6</ele>
        <time>2022-04-03T15:00:33Z</time>
      </trkpt>
      <trkpt lat="46.0337" lon="0.29686">
        <ele>144.6</ele>
        <time>2022-04-03T15:00:34Z</time>
      </trkpt>
      <trkpt lat="46.03373" lon="0.29678">
        <ele>144.6</ele>
        <time>2022-04-03T15:00:35Z</time>
      </trkpt>
      <trkpt lat="46.03375" lon="0.29671">
        <ele>144.6</ele>
        <time>2022-04-03T15:00:36Z</time>
      </trkpt>
      <trkpt lat="46.03378" lon="0.29663">
        <ele>144.6</ele>
        <time>2022-04-03T15:00:37Z</time>
      </trkpt>
      <trkpt lat="46.0338" lon="0.29656">
        <ele>144.2</ele>
        <time>2022-04-03T15:00:38Z</time>
      </trkpt>
      <trkpt lat="46.03383" lon="0.29649">
        <ele>144</ele>
        <time>2022-04-03T15:00:39Z</time>
      </trkpt>
      <trkpt lat="46.03386" lon="0.29642">
        <ele>143.6</ele>
        <time>2022-04-03T15:00:40Z</time>
      </trkpt>
      <trkpt lat="46.03388" lon="0.29635">
        <ele>143.2</ele>
        <time>2022-04-03T15:00:41Z</time>
      </trkpt>
      <trkpt lat="46.03391" lon="0.29628">
        <ele>143</ele>
        <time>2022-04-03T15:00:42Z</time>
      </trkpt>
      <trkpt lat="46.03393" lon="0.29621">
        <ele>143</ele>
        <time>2022-04-03T15:00:43Z</time>
      </trkpt>
      <trkpt lat="46.03396" lon="0.29615">
        <ele>143</ele>
        <time>2022-04-03T15:00:44Z</time>
      </trkpt>
      <trkpt lat="46.03399" lon="0.29609">
        <ele>143</ele>
        <time>2022-04-03T15:00:45Z</time>
      </trkpt>
      <trkpt lat="46.03401" lon="0.29602">
        <ele>142.8</ele>
        <time>2022-04-03T15:00:46Z</time>
      </trkpt>
      <trkpt lat="46.03403" lon="0.29596">
        <ele>143</ele>
        <time>2022-04-03T15:00:47Z</time>
      </trkpt>
      <trkpt lat="46.03406" lon="0.2959">
        <ele>142.8</ele>
        <time>2022-04-03T15:00:48Z</time>
      </trkpt>
      <trkpt lat="46.03408" lon="0.29585">
        <ele>142.8</ele>
        <time>2022-04-03T15:00:49Z</time>
      </trkpt>
      <trkpt lat="46.03411" lon="0.29579">
        <ele>142.8</ele>
        <time>2022-04-03T15:00:50Z</time>
      </trkpt>
      <trkpt lat="46.03413" lon="0.29573">
        <ele>143</ele>
        <time>2022-04-03T15:00:51Z</time>
      </trkpt>
      <trkpt lat="46.03415" lon="0.29567">
        <ele>143</ele>
        <time>2022-04-03T15:00:52Z</time>
      </trkpt>
      <trkpt lat="46.03417" lon="0.29561">
        <ele>143</ele>
        <time>2022-04-03T15:00:53Z</time>
      </trkpt>
      <trkpt lat="46.03419" lon="0.29555">
        <ele>143</ele>
        <time>2022-04-03T15:00:54Z</time>
      </trkpt>
      <trkpt lat="46.03421" lon="0.29549">
        <ele>143.2</ele>
        <time>2022-04-03T15:00:55Z</time>
      </trkpt>
      <trkpt lat="46.03423" lon="0.29544">
        <ele>143.4</ele>
        <time>2022-04-03T15:00:56Z</time>
      </trkpt>
      <trkpt lat="46.03426" lon="0.29538">
        <ele>143.4</ele>
        <time>2022-04-03T15:00:57Z</time>
      </trkpt>
      <trkpt lat="46.03427" lon="0.29533">
        <ele>143.4</ele>
        <time>2022-04-03T15:00:58Z</time>
      </trkpt>
      <trkpt lat="46.03429" lon="0.29528">
        <ele>143.6</ele>
        <time>2022-04-03T15:00:59Z</time>
      </trkpt>
      <trkpt lat="46.03431" lon="0.29523">
        <ele>143.8</ele>
        <time>2022-04-03T15:01:00Z</time>
      </trkpt>
      <trkpt lat="46.03433" lon="0.29518">
        <ele>143.8</ele>
        <time>2022-04-03T15:01:01Z</time>
      </trkpt>
      <trkpt lat="46.03435" lon="0.29513">
        <ele>143.8</ele>
        <time>2022-04-03T15:01:02Z</time>
      </trkpt>
      <trkpt lat="46.03435" lon="0.29507">
        <ele>143.8</ele>
        <time>2022-04-03T15:01:03Z</time>
      </trkpt>
      <trkpt lat="46.03435" lon="0.29501">
        <ele>144</ele>
        <time>2022-04-03T15:01:04Z</time>
      </trkpt>
      <trkpt lat="46.03436" lon="0.29496">
        <ele>144</ele>
        <time>2022-04-03T15:01:05Z</time>
      </trkpt>
      <trkpt lat="46.03436" lon="0.2949">
        <ele>144.2</ele>
        <time>2022-04-03T15:01:06Z</time>
      </trkpt>
      <trkpt lat="46.03436" lon="0.29484">
        <ele>144</ele>
        <time>2022-04-03T15:01:07Z</time>
      </trkpt>
      <trkpt lat="46.03435" lon="0.29477">
        <ele>144.2</ele>
        <time>2022-04-03T15:01:08Z</time>
      </trkpt>
      <trkpt lat="46.03434" lon="0.29471">
        <ele>144.2</ele>
        <time>2022-04-03T15:01:09Z</time>
      </trkpt>
      <trkpt lat="46.03432" lon="0.29464">
        <ele>144</ele>
        <time>2022-04-03T15:01:10Z</time>
      </trkpt>
      <trkpt lat="46.0343" lon="0.29457">
        <ele>144.2</ele>
        <time>2022-04-03T15:01:11Z</time>
      </trkpt>
      <trkpt lat="46.03428" lon="0.2945">
        <ele>144.2</ele>
        <time>2022-04-03T15:01:12Z</time>
      </trkpt>
      <trkpt lat="46.03425" lon="0.29442">
        <ele>144</ele>
        <time>2022-04-03T15:01:13Z</time>
      </trkpt>
      <trkpt lat="46.03422" lon="0.29434">
        <ele>144</ele>
        <time>2022-04-03T15:01:14Z</time>
      </trkpt>
      <trkpt lat="46.03419" lon="0.29426">
        <ele>144.2</ele>
        <time>2022-04-03T15:01:15Z</time>
      </trkpt>
      <trkpt lat="46.03416" lon="0.29417">
        <ele>144</ele>
        <time>2022-04-03T15:01:16Z</time>
      </trkpt>
      <trkpt lat="46.03412" lon="0.29409">
        <ele>143.8</ele>
        <time>2022-04-03T15:01:17Z</time>
      </trkpt>
      <trkpt lat="46.03409" lon="0.294">
        <ele>144</ele>
        <time>2022-04-03T15:01:18Z</time>
      </trkpt>
      <trkpt lat="46.03406" lon="0.2939">
        <ele>143.8</ele>
        <time>2022-04-03T15:01:19Z</time>
      </trkpt>
      <trkpt lat="46.03402" lon="0.2938">
        <ele>143.4</ele>
        <time>2022-04-03T15:01:20Z</time>
      </trkpt>
      <trkpt lat="46.03398" lon="0.2937">
        <ele>142.8</ele>
        <time>2022-04-03T15:01:21Z</time>
      </trkpt>
      <trkpt lat="46.03394" lon="0.2936">
        <ele>142.8</ele>
        <time>2022-04-03T15:01:22Z</time>
      </trkpt>
      <trkpt lat="46.03389" lon="0.29349">
        <ele>142.6</ele>
        <time>2022-04-03T15:01:23Z</time>
      </trkpt>
      <trkpt lat="46.03384" lon="0.29339">
        <ele>142</ele>
        <time>2022-04-03T15:01:24Z</time>
      </trkpt>
      <trkpt lat="46.03378" lon="0.29329">
        <ele>142</ele>
        <time>2022-04-03T15:01:25Z</time>
      </trkpt>
      <trkpt lat="46.03373" lon="0.29319">
        <ele>141.4</ele>
        <time>2022-04-03T15:01:26Z</time>
      </trkpt>
      <trkpt lat="46.03368" lon="0.2931">
        <ele>141</ele>
        <time>2022-04-03T15:01:27Z</time>
      </trkpt>
      <trkpt lat="46.03363" lon="0.293">
        <ele>140.6</ele>
        <time>2022-04-03T15:01:28Z</time>
      </trkpt>
      <trkpt lat="46.03359" lon="0.29291">
        <ele>140</ele>
        <time>2022-04-03T15:01:29Z</time>
      </trkpt>
      <trkpt lat="46.03354" lon="0.29282">
        <ele>139.4</ele>
        <time>2022-04-03T15:01:30Z</time>
      </trkpt>
      <trkpt lat="46.0335" lon="0.29273">
        <ele>138.4</ele>
        <time>2022-04-03T15:01:31Z</time>
      </trkpt>
      <trkpt lat="46.03345" lon="0.29265">
        <ele>137.4</ele>
        <time>2022-04-03T15:01:32Z</time>
      </trkpt>
      <trkpt lat="46.03341" lon="0.29256">
        <ele>137</ele>
        <time>2022-04-03T15:01:33Z</time>
      </trkpt>
      <trkpt lat="46.03336" lon="0.29249">
        <ele>137</ele>
        <time>2022-04-03T15:01:34Z</time>
      </trkpt>
      <trkpt lat="46.03332" lon="0.29241">
        <ele>136.8</ele>
        <time>2022-04-03T15:01:35Z</time>
      </trkpt>
      <trkpt lat="46.03327" lon="0.29232">
        <ele>136.6</ele>
        <time>2022-04-03T15:01:36Z</time>
      </trkpt>
      <trkpt lat="46.03323" lon="0.29225">
        <ele>136.8</ele>
        <time>2022-04-03T15:01:37Z</time>
      </trkpt>
      <trkpt lat="46.0332" lon="0.29217">
        <ele>136.8</ele>
        <time>2022-04-03T15:01:38Z</time>
      </trkpt>
      <trkpt lat="46.03316" lon="0.2921">
        <ele>136.8</ele>
        <time>2022-04-03T15:01:39Z</time>
      </trkpt>
      <trkpt lat="46.03313" lon="0.29202">
        <ele>136.6</ele>
        <time>2022-04-03T15:01:40Z</time>
      </trkpt>
      <trkpt lat="46.0331" lon="0.29196">
        <ele>136.6</ele>
        <time>2022-04-03T15:01:41Z</time>
      </trkpt>
      <trkpt lat="46.03307" lon="0.29189">
        <ele>136.6</ele>
        <time>2022-04-03T15:01:42Z</time>
      </trkpt>
      <trkpt lat="46.03304" lon="0.29183">
        <ele>137</ele>
        <time>2022-04-03T15:01:43Z</time>
      </trkpt>
      <trkpt lat="46.03301" lon="0.29176">
        <ele>137.2</ele>
        <time>2022-04-03T15:01:44Z</time>
      </trkpt>
      <trkpt lat="46.03298" lon="0.2917">
        <ele>137.6</ele>
        <time>2022-04-03T15:01:45Z</time>
      </trkpt>
      <trkpt lat="46.03295" lon="0.29164">
        <ele>137.8</ele>
        <time>2022-04-03T15:01:46Z</time>
      </trkpt>
      <trkpt lat="46.03292" lon="0.29158">
        <ele>138</ele>
        <time>2022-04-03T15:01:47Z</time>
      </trkpt>
      <trkpt lat="46.03289" lon="0.29153">
        <ele>138.6</ele>
        <time>2022-04-03T15:01:48Z</time>
      </trkpt>
      <trkpt lat="46.03285" lon="0.29147">
        <ele>139</ele>
        <time>2022-04-03T15:01:49Z</time>
      </trkpt>
      <trkpt lat="46.03282" lon="0.29142">
        <ele>139.4</ele>
        <time>2022-04-03T15:01:50Z</time>
      </trkpt>
      <trkpt lat="46.03279" lon="0.29136">
        <ele>139.6</ele>
        <time>2022-04-03T15:01:51Z</time>
      </trkpt>
      <trkpt lat="46.03277" lon="0.29131">
        <ele>140</ele>
        <time>2022-04-03T15:01:52Z</time>
      </trkpt>
      <trkpt lat="46.03274" lon="0.29126">
        <ele>140.2</ele>
        <time>2022-04-03T15:01:53Z</time>
      </trkpt>
      <trkpt lat="46.03272" lon="0.29121">
        <ele>140</ele>
        <time>2022-04-03T15:01:54Z</time>
      </trkpt>
      <trkpt lat="46.0327" lon="0.29116">
        <ele>140.6</ele>
        <time>2022-04-03T15:01:55Z</time>
      </trkpt>
      <trkpt lat="46.03268" lon="0.29111">
        <ele>141.2</ele>
        <time>2022-04-03T15:01:56Z</time>
      </trkpt>
      <trkpt lat="46.03266" lon="0.29107">
        <ele>141.4</ele>
        <time>2022-04-03T15:01:57Z</time>
      </trkpt>
      <trkpt lat="46.03264" lon="0.29103">
        <ele>141.6</ele>
        <time>2022-04-03T15:01:58Z</time>
      </trkpt>
      <trkpt lat="46.03261" lon="0.29099">
        <ele>142</ele>
        <time>2022-04-03T15:01:59Z</time>
      </trkpt>
      <trkpt lat="46.03258" lon="0.29094">
        <ele>142</ele>
        <time>2022-04-03T15:02:00Z</time>
      </trkpt>
      <trkpt lat="46.03256" lon="0.29089">
        <ele>142.4</ele>
        <time>2022-04-03T15:02:01Z</time>
      </trkpt>
      <trkpt lat="46.03253" lon="0.29084">
        <ele>142.6</ele>
        <time>2022-04-03T15:02:02Z</time>
      </trkpt>
      <trkpt lat="46.03251" lon="0.2908">
        <ele>142.8</ele>
        <time>2022-04-03T15:02:03Z</time>
      </trkpt>
      <trkpt lat="46.03249" lon="0.29076">
        <ele>143</ele>
        <time>2022-04-03T15:02:04Z</time>
      </trkpt>
      <trkpt lat="46.03246" lon="0.29071">
        <ele>143.2</ele>
        <time>2022-04-03T15:02:05Z</time>
      </trkpt>
      <trkpt lat="46.03244" lon="0.29066">
        <ele>143.4</ele>
        <time>2022-04-03T15:02:06Z</time>
      </trkpt>
      <trkpt lat="46.03242" lon="0.29061">
        <ele>143.4</ele>
        <time>2022-04-03T15:02:07Z</time>
      </trkpt>
      <trkpt lat="46.03239" lon="0.29056">
        <ele>143.8</ele>
        <time>2022-04-03T15:02:08Z</time>
      </trkpt>
      <trkpt lat="46.03237" lon="0.29051">
        <ele>144</ele>
        <time>2022-04-03T15:02:09Z</time>
      </trkpt>
      <trkpt lat="46.03234" lon="0.29046">
        <ele>144.4</ele>
        <time>2022-04-03T15:02:10Z</time>
      </trkpt>
      <trkpt lat="46.03232" lon="0.29041">
        <ele>144.8</ele>
        <time>2022-04-03T15:02:11Z</time>
      </trkpt>
      <trkpt lat="46.03229" lon="0.29037">
        <ele>144.8</ele>
        <time>2022-04-03T15:02:12Z</time>
      </trkpt>
      <trkpt lat="46.03227" lon="0.29032">
        <ele>144.8</ele>
        <time>2022-04-03T15:02:13Z</time>
      </trkpt>
      <trkpt lat="46.03225" lon="0.29027">
        <ele>145</ele>
        <time>2022-04-03T15:02:14Z</time>
      </trkpt>
      <trkpt lat="46.03223" lon="0.29023">
        <ele>145</ele>
        <time>2022-04-03T15:02:15Z</time>
      </trkpt>
      <trkpt lat="46.03221" lon="0.29017">
        <ele>145.2</ele>
        <time>2022-04-03T15:02:16Z</time>
      </trkpt>
      <trkpt lat="46.03218" lon="0.29011">
        <ele>145</ele>
        <time>2022-04-03T15:02:17Z</time>
      </trkpt>
      <trkpt lat="46.03215" lon="0.29006">
        <ele>145.2</ele>
        <time>2022-04-03T15:02:18Z</time>
      </trkpt>
      <trkpt lat="46.03213" lon="0.29001">
        <ele>145.2</ele>
        <time>2022-04-03T15:02:19Z</time>
      </trkpt>
      <trkpt lat="46.03211" lon="0.28996">
        <ele>145.2</ele>
        <time>2022-04-03T15:02:20Z</time>
      </trkpt>
      <trkpt lat="46.03208" lon="0.28992">
        <ele>145.2</ele>
        <time>2022-04-03T15:02:21Z</time>
      </trkpt>
      <trkpt lat="46.03206" lon="0.28986">
        <ele>145.2</ele>
        <time>2022-04-03T15:02:22Z</time>
      </trkpt>
      <trkpt lat="46.03203" lon="0.28981">
        <ele>145.2</ele>
        <time>2022-04-03T15:02:23Z</time>
      </trkpt>
      <trkpt lat="46.032" lon="0.28975">
        <ele>145.2</ele>
        <time>2022-04-03T15:02:24Z</time>
      </trkpt>
      <trkpt lat="46.03198" lon="0.2897">
        <ele>145.2</ele>
        <time>2022-04-03T15:02:25Z</time>
      </trkpt>
      <trkpt lat="46.03195" lon="0.28964">
        <ele>145.2</ele>
        <time>2022-04-03T15:02:26Z</time>
      </trkpt>
      <trkpt lat="46.03192" lon="0.28958">
        <ele>145.2</ele>
        <time>2022-04-03T15:02:27Z</time>
      </trkpt>
      <trkpt lat="46.03189" lon="0.28953">
        <ele>145</ele>
        <time>2022-04-03T15:02:28Z</time>
      </trkpt>
      <trkpt lat="46.03185" lon="0.28948">
        <ele>145.2</ele>
        <time>2022-04-03T15:02:29Z</time>
      </trkpt>
      <trkpt lat="46.03181" lon="0.28941">
        <ele>145</ele>
        <time>2022-04-03T15:02:30Z</time>
      </trkpt>
      <trkpt lat="46.03177" lon="0.28934">
        <ele>145</ele>
        <time>2022-04-03T15:02:31Z</time>
      </trkpt>
      <trkpt lat="46.03174" lon="0.28929">
        <ele>145</ele>
        <time>2022-04-03T15:02:32Z</time>
      </trkpt>
      <trkpt lat="46.03171" lon="0.28923">
        <ele>145</ele>
        <time>2022-04-03T15:02:33Z</time>
      </trkpt>
      <trkpt lat="46.03168" lon="0.28918">
        <ele>145</ele>
        <time>2022-04-03T15:02:34Z</time>
      </trkpt>
      <trkpt lat="46.03164" lon="0.28912">
        <ele>145</ele>
        <time>2022-04-03T15:02:35Z</time>
      </trkpt>
      <trkpt lat="46.03162" lon="0.28906">
        <ele>144.8</ele>
        <time>2022-04-03T15:02:36Z</time>
      </trkpt>
      <trkpt lat="46.03158" lon="0.289">
        <ele>144.8</ele>
        <time>2022-04-03T15:02:37Z</time>
      </trkpt>
      <trkpt lat="46.03155" lon="0.28894">
        <ele>144.6</ele>
        <time>2022-04-03T15:02:38Z</time>
      </trkpt>
      <trkpt lat="46.03152" lon="0.28888">
        <ele>144.6</ele>
        <time>2022-04-03T15:02:39Z</time>
      </trkpt>
      <trkpt lat="46.03149" lon="0.28881">
        <ele>144.4</ele>
        <time>2022-04-03T15:02:40Z</time>
      </trkpt>
      <trkpt lat="46.03145" lon="0.28874">
        <ele>144.4</ele>
        <time>2022-04-03T15:02:41Z</time>
      </trkpt>
      <trkpt lat="46.0314" lon="0.28866">
        <ele>144.4</ele>
        <time>2022-04-03T15:02:42Z</time>
      </trkpt>
      <trkpt lat="46.03136" lon="0.28859">
        <ele>144.2</ele>
        <time>2022-04-03T15:02:43Z</time>
      </trkpt>
      <trkpt lat="46.03132" lon="0.28852">
        <ele>144</ele>
        <time>2022-04-03T15:02:44Z</time>
      </trkpt>
      <trkpt lat="46.03129" lon="0.28845">
        <ele>144</ele>
        <time>2022-04-03T15:02:45Z</time>
      </trkpt>
      <trkpt lat="46.03126" lon="0.28838">
        <ele>144</ele>
        <time>2022-04-03T15:02:46Z</time>
      </trkpt>
      <trkpt lat="46.03122" lon="0.2883">
        <ele>143.8</ele>
        <time>2022-04-03T15:02:47Z</time>
      </trkpt>
      <trkpt lat="46.03119" lon="0.28823">
        <ele>143.6</ele>
        <time>2022-04-03T15:02:48Z</time>
      </trkpt>
      <trkpt lat="46.03116" lon="0.28814">
        <ele>143.4</ele>
        <time>2022-04-03T15:02:49Z</time>
      </trkpt>
      <trkpt lat="46.03112" lon="0.28805">
        <ele>143.2</ele>
        <time>2022-04-03T15:02:50Z</time>
      </trkpt>
      <trkpt lat="46.03108" lon="0.28797">
        <ele>143</ele>
        <time>2022-04-03T15:02:51Z</time>
      </trkpt>
      <trkpt lat="46.03104" lon="0.28787">
        <ele>143</ele>
        <time>2022-04-03T15:02:52Z</time>
      </trkpt>
      <trkpt lat="46.03101" lon="0.28778">
        <ele>143</ele>
        <time>2022-04-03T15:02:53Z</time>
      </trkpt>
      <trkpt lat="46.03099" lon="0.2877">
        <ele>142.8</ele>
        <time>2022-04-03T15:02:54Z</time>
      </trkpt>
      <trkpt lat="46.03096" lon="0.28761">
        <ele>142.8</ele>
        <time>2022-04-03T15:02:55Z</time>
      </trkpt>
      <trkpt lat="46.03093" lon="0.28752">
        <ele>142.6</ele>
        <time>2022-04-03T15:02:56Z</time>
      </trkpt>
      <trkpt lat="46.0309" lon="0.28743">
        <ele>142.6</ele>
        <time>2022-04-03T15:02:57Z</time>
      </trkpt>
      <trkpt lat="46.03088" lon="0.28735">
        <ele>142.4</ele>
        <time>2022-04-03T15:02:58Z</time>
      </trkpt>
      <trkpt lat="46.03085" lon="0.28727">
        <ele>142.4</ele>
        <time>2022-04-03T15:02:59Z</time>
      </trkpt>
      <trkpt lat="46.03083" lon="0.28719">
        <ele>142.4</ele>
        <time>2022-04-03T15:03:00Z</time>
      </trkpt>
      <trkpt lat="46.03081" lon="0.28711">
        <ele>142.4</ele>
        <time>2022-04-03T15:03:01Z</time>
      </trkpt>
      <trkpt lat="46.03078" lon="0.28704">
        <ele>142.2</ele>
        <time>2022-04-03T15:03:02Z</time>
      </trkpt>
      <trkpt lat="46.03076" lon="0.28697">
        <ele>142.2</ele>
        <time>2022-04-03T15:03:03Z</time>
      </trkpt>
      <trkpt lat="46.03074" lon="0.2869">
        <ele>142.2</ele>
        <time>2022-04-03T15:03:04Z</time>
      </trkpt>
      <trkpt lat="46.03073" lon="0.28683">
        <ele>142.2</ele>
        <time>2022-04-03T15:03:05Z</time>
      </trkpt>
      <trkpt lat="46.0307" lon="0.28676">
        <ele>142.2</ele>
        <time>2022-04-03T15:03:06Z</time>
      </trkpt>
      <trkpt lat="46.03069" lon="0.28669">
        <ele>142.2</ele>
        <time>2022-04-03T15:03:07Z</time>
      </trkpt>
      <trkpt lat="46.03067" lon="0.28663">
        <ele>142.2</ele>
        <time>2022-04-03T15:03:08Z</time>
      </trkpt>
      <trkpt lat="46.03065" lon="0.28656">
        <ele>142</ele>
        <time>2022-04-03T15:03:09Z</time>
      </trkpt>
      <trkpt lat="46.03063" lon="0.28649">
        <ele>142.2</ele>
        <time>2022-04-03T15:03:10Z</time>
      </trkpt>
      <trkpt lat="46.03062" lon="0.28643">
        <ele>142.2</ele>
        <time>2022-04-03T15:03:11Z</time>
      </trkpt>
      <trkpt lat="46.0306" lon="0.28636">
        <ele>142.2</ele>
        <time>2022-04-03T15:03:12Z</time>
      </trkpt>
      <trkpt lat="46.03059" lon="0.28629">
        <ele>142.2</ele>
        <time>2022-04-03T15:03:13Z</time>
      </trkpt>
      <trkpt lat="46.03057" lon="0.28622">
        <ele>142.2</ele>
        <time>2022-04-03T15:03:14Z</time>
      </trkpt>
      <trkpt lat="46.03056" lon="0.28616">
        <ele>142</ele>
        <time>2022-04-03T15:03:15Z</time>
      </trkpt>
      <trkpt lat="46.03054" lon="0.28609">
        <ele>141.8</ele>
        <time>2022-04-03T15:03:16Z</time>
      </trkpt>
      <trkpt lat="46.03052" lon="0.28602">
        <ele>142</ele>
        <time>2022-04-03T15:03:17Z</time>
      </trkpt>
      <trkpt lat="46.0305" lon="0.28595">
        <ele>142</ele>
        <time>2022-04-03T15:03:18Z</time>
      </trkpt>
      <trkpt lat="46.03048" lon="0.28589">
        <ele>141.8</ele>
        <time>2022-04-03T15:03:19Z</time>
      </trkpt>
      <trkpt lat="46.03046" lon="0.28582">
        <ele>141.8</ele>
        <time>2022-04-03T15:03:20Z</time>
      </trkpt>
      <trkpt lat="46.03044" lon="0.28575">
        <ele>141.8</ele>
        <time>2022-04-03T15:03:21Z</time>
      </trkpt>
      <trkpt lat="46.03042" lon="0.28567">
        <ele>141.8</ele>
        <time>2022-04-03T15:03:22Z</time>
      </trkpt>
      <trkpt lat="46.0304" lon="0.2856">
        <ele>141.8</ele>
        <time>2022-04-03T15:03:23Z</time>
      </trkpt>
      <trkpt lat="46.03038" lon="0.28552">
        <ele>141.6</ele>
        <time>2022-04-03T15:03:24Z</time>
      </trkpt>
      <trkpt lat="46.03036" lon="0.28544">
        <ele>141.6</ele>
        <time>2022-04-03T15:03:25Z</time>
      </trkpt>
      <trkpt lat="46.03034" lon="0.28536">
        <ele>141.4</ele>
        <time>2022-04-03T15:03:26Z</time>
      </trkpt>
      <trkpt lat="46.03032" lon="0.28528">
        <ele>141.4</ele>
        <time>2022-04-03T15:03:27Z</time>
      </trkpt>
      <trkpt lat="46.0303" lon="0.2852">
        <ele>141.4</ele>
        <time>2022-04-03T15:03:28Z</time>
      </trkpt>
      <trkpt lat="46.03029" lon="0.28512">
        <ele>141.4</ele>
        <time>2022-04-03T15:03:29Z</time>
      </trkpt>
      <trkpt lat="46.03026" lon="0.28503">
        <ele>141.4</ele>
        <time>2022-04-03T15:03:30Z</time>
      </trkpt>
      <trkpt lat="46.03024" lon="0.28495">
        <ele>141.2</ele>
        <time>2022-04-03T15:03:31Z</time>
      </trkpt>
      <trkpt lat="46.03021" lon="0.28486">
        <ele>141</ele>
        <time>2022-04-03T15:03:32Z</time>
      </trkpt>
      <trkpt lat="46.03019" lon="0.28478">
        <ele>140.6</ele>
        <time>2022-04-03T15:03:33Z</time>
      </trkpt>
      <trkpt lat="46.03017" lon="0.28469">
        <ele>140.2</ele>
        <time>2022-04-03T15:03:34Z</time>
      </trkpt>
      <trkpt lat="46.03015" lon="0.2846">
        <ele>139.8</ele>
        <time>2022-04-03T15:03:35Z</time>
      </trkpt>
      <trkpt lat="46.03013" lon="0.28452">
        <ele>139.8</ele>
        <time>2022-04-03T15:03:36Z</time>
      </trkpt>
      <trkpt lat="46.03011" lon="0.28443">
        <ele>139.8</ele>
        <time>2022-04-03T15:03:37Z</time>
      </trkpt>
      <trkpt lat="46.03006" lon="0.28424">
        <ele>139.2</ele>
        <time>2022-04-03T15:03:39Z</time>
      </trkpt>
      <trkpt lat="46.03003" lon="0.28415">
        <ele>138.8</ele>
        <time>2022-04-03T15:03:40Z</time>
      </trkpt>
      <trkpt lat="46.03" lon="0.28405">
        <ele>138.6</ele>
        <time>2022-04-03T15:03:41Z</time>
      </trkpt>
      <trkpt lat="46.02998" lon="0.28395">
        <ele>138.2</ele>
        <time>2022-04-03T15:03:42Z</time>
      </trkpt>
      <trkpt lat="46.02995" lon="0.28385">
        <ele>138</ele>
        <time>2022-04-03T15:03:43Z</time>
      </trkpt>
      <trkpt lat="46.02992" lon="0.28374">
        <ele>137.6</ele>
        <time>2022-04-03T15:03:44Z</time>
      </trkpt>
      <trkpt lat="46.02989" lon="0.28363">
        <ele>137.4</ele>
        <time>2022-04-03T15:03:45Z</time>
      </trkpt>
      <trkpt lat="46.02986" lon="0.28352">
        <ele>137.2</ele>
        <time>2022-04-03T15:03:46Z</time>
      </trkpt>
      <trkpt lat="46.02983" lon="0.28341">
        <ele>137.2</ele>
        <time>2022-04-03T15:03:47Z</time>
      </trkpt>
      <trkpt lat="46.0298" lon="0.28329">
        <ele>137</ele>
        <time>2022-04-03T15:03:48Z</time>
      </trkpt>
      <trkpt lat="46.02977" lon="0.28317">
        <ele>136.6</ele>
        <time>2022-04-03T15:03:49Z</time>
      </trkpt>
      <trkpt lat="46.02974" lon="0.28305">
        <ele>136.2</ele>
        <time>2022-04-03T15:03:50Z</time>
      </trkpt>
      <trkpt lat="46.02971" lon="0.28293">
        <ele>135.4</ele>
        <time>2022-04-03T15:03:51Z</time>
      </trkpt>
      <trkpt lat="46.02968" lon="0.2828">
        <ele>134.8</ele>
        <time>2022-04-03T15:03:52Z</time>
      </trkpt>
      <trkpt lat="46.02964" lon="0.28267">
        <ele>134.6</ele>
        <time>2022-04-03T15:03:53Z</time>
      </trkpt>
      <trkpt lat="46.02961" lon="0.28253">
        <ele>133.2</ele>
        <time>2022-04-03T15:03:54Z</time>
      </trkpt>
      <trkpt lat="46.02957" lon="0.2824">
        <ele>132.4</ele>
        <time>2022-04-03T15:03:55Z</time>
      </trkpt>
      <trkpt lat="46.02954" lon="0.28227">
        <ele>132.4</ele>
        <time>2022-04-03T15:03:56Z</time>
      </trkpt>
      <trkpt lat="46.0295" lon="0.28214">
        <ele>131.4</ele>
        <time>2022-04-03T15:03:57Z</time>
      </trkpt>
      <trkpt lat="46.02947" lon="0.28201">
        <ele>130.4</ele>
        <time>2022-04-03T15:03:58Z</time>
      </trkpt>
      <trkpt lat="46.02943" lon="0.28189">
        <ele>130.2</ele>
        <time>2022-04-03T15:03:59Z</time>
      </trkpt>
      <trkpt lat="46.0294" lon="0.28177">
        <ele>129.8</ele>
        <time>2022-04-03T15:04:00Z</time>
      </trkpt>
      <trkpt lat="46.02937" lon="0.28166">
        <ele>129.2</ele>
        <time>2022-04-03T15:04:01Z</time>
      </trkpt>
      <trkpt lat="46.02935" lon="0.28156">
        <ele>128.6</ele>
        <time>2022-04-03T15:04:02Z</time>
      </trkpt>
      <trkpt lat="46.02933" lon="0.28147">
        <ele>128</ele>
        <time>2022-04-03T15:04:03Z</time>
      </trkpt>
      <trkpt lat="46.02931" lon="0.28138">
        <ele>127.8</ele>
        <time>2022-04-03T15:04:04Z</time>
      </trkpt>
      <trkpt lat="46.02929" lon="0.28129">
        <ele>127.6</ele>
        <time>2022-04-03T15:04:05Z</time>
      </trkpt>
      <trkpt lat="46.02927" lon="0.2812">
        <ele>127.6</ele>
        <time>2022-04-03T15:04:06Z</time>
      </trkpt>
      <trkpt lat="46.02925" lon="0.28112">
        <ele>127.6</ele>
        <time>2022-04-03T15:04:07Z</time>
      </trkpt>
      <trkpt lat="46.02923" lon="0.28104">
        <ele>127.4</ele>
        <time>2022-04-03T15:04:08Z</time>
      </trkpt>
      <trkpt lat="46.02921" lon="0.28096">
        <ele>127.6</ele>
        <time>2022-04-03T15:04:09Z</time>
      </trkpt>
      <trkpt lat="46.02919" lon="0.28088">
        <ele>127.4</ele>
        <time>2022-04-03T15:04:10Z</time>
      </trkpt>
      <trkpt lat="46.02917" lon="0.2808">
        <ele>127.6</ele>
        <time>2022-04-03T15:04:11Z</time>
      </trkpt>
      <trkpt lat="46.02915" lon="0.28073">
        <ele>127.6</ele>
        <time>2022-04-03T15:04:12Z</time>
      </trkpt>
      <trkpt lat="46.02913" lon="0.28065">
        <ele>128</ele>
        <time>2022-04-03T15:04:13Z</time>
      </trkpt>
      <trkpt lat="46.02911" lon="0.28057">
        <ele>128.8</ele>
        <time>2022-04-03T15:04:14Z</time>
      </trkpt>
      <trkpt lat="46.02909" lon="0.2805">
        <ele>128.8</ele>
        <time>2022-04-03T15:04:15Z</time>
      </trkpt>
      <trkpt lat="46.02907" lon="0.28042">
        <ele>129</ele>
        <time>2022-04-03T15:04:16Z</time>
      </trkpt>
      <trkpt lat="46.02905" lon="0.28034">
        <ele>129</ele>
        <time>2022-04-03T15:04:17Z</time>
      </trkpt>
      <trkpt lat="46.02904" lon="0.28025">
        <ele>129.4</ele>
        <time>2022-04-03T15:04:18Z</time>
      </trkpt>
      <trkpt lat="46.02902" lon="0.28017">
        <ele>129.4</ele>
        <time>2022-04-03T15:04:19Z</time>
      </trkpt>
      <trkpt lat="46.02901" lon="0.28008">
        <ele>129.6</ele>
        <time>2022-04-03T15:04:20Z</time>
      </trkpt>
      <trkpt lat="46.029" lon="0.27999">
        <ele>129.6</ele>
        <time>2022-04-03T15:04:21Z</time>
      </trkpt>
      <trkpt lat="46.02899" lon="0.2799">
        <ele>129.8</ele>
        <time>2022-04-03T15:04:22Z</time>
      </trkpt>
      <trkpt lat="46.02898" lon="0.27981">
        <ele>130.2</ele>
        <time>2022-04-03T15:04:23Z</time>
      </trkpt>
      <trkpt lat="46.02898" lon="0.27972">
        <ele>130.4</ele>
        <time>2022-04-03T15:04:24Z</time>
      </trkpt>
      <trkpt lat="46.02898" lon="0.27962">
        <ele>130.4</ele>
        <time>2022-04-03T15:04:25Z</time>
      </trkpt>
      <trkpt lat="46.02897" lon="0.27953">
        <ele>130.4</ele>
        <time>2022-04-03T15:04:26Z</time>
      </trkpt>
      <trkpt lat="46.02897" lon="0.27944">
        <ele>130.4</ele>
        <time>2022-04-03T15:04:27Z</time>
      </trkpt>
      <trkpt lat="46.02898" lon="0.27935">
        <ele>130.4</ele>
        <time>2022-04-03T15:04:28Z</time>
      </trkpt>
      <trkpt lat="46.02898" lon="0.27926">
        <ele>130.2</ele>
        <time>2022-04-03T15:04:29Z</time>
      </trkpt>
      <trkpt lat="46.02899" lon="0.27917">
        <ele>130.4</ele>
        <time>2022-04-03T15:04:30Z</time>
      </trkpt>
      <trkpt lat="46.02899" lon="0.27908">
        <ele>130.4</ele>
        <time>2022-04-03T15:04:31Z</time>
      </trkpt>
      <trkpt lat="46.029" lon="0.279">
        <ele>130.2</ele>
        <time>2022-04-03T15:04:32Z</time>
      </trkpt>
      <trkpt lat="46.02901" lon="0.27891">
        <ele>130.2</ele>
        <time>2022-04-03T15:04:33Z</time>
      </trkpt>
      <trkpt lat="46.02902" lon="0.27883">
        <ele>130.2</ele>
        <time>2022-04-03T15:04:34Z</time>
      </trkpt>
      <trkpt lat="46.02902" lon="0.27874">
        <ele>130.4</ele>
        <time>2022-04-03T15:04:35Z</time>
      </trkpt>
      <trkpt lat="46.02903" lon="0.27866">
        <ele>130.4</ele>
        <time>2022-04-03T15:04:36Z</time>
      </trkpt>
      <trkpt lat="46.02903" lon="0.27858">
        <ele>130.2</ele>
        <time>2022-04-03T15:04:37Z</time>
      </trkpt>
      <trkpt lat="46.02904" lon="0.2785">
        <ele>130.4</ele>
        <time>2022-04-03T15:04:38Z</time>
      </trkpt>
      <trkpt lat="46.02904" lon="0.27842">
        <ele>130.2</ele>
        <time>2022-04-03T15:04:39Z</time>
      </trkpt>
      <trkpt lat="46.02905" lon="0.27834">
        <ele>130.2</ele>
        <time>2022-04-03T15:04:40Z</time>
      </trkpt>
      <trkpt lat="46.02905" lon="0.27827">
        <ele>130.2</ele>
        <time>2022-04-03T15:04:41Z</time>
      </trkpt>
      <trkpt lat="46.02905" lon="0.27819">
        <ele>130.4</ele>
        <time>2022-04-03T15:04:42Z</time>
      </trkpt>
      <trkpt lat="46.02906" lon="0.27812">
        <ele>130.4</ele>
        <time>2022-04-03T15:04:43Z</time>
      </trkpt>
      <trkpt lat="46.02906" lon="0.27804">
        <ele>130.4</ele>
        <time>2022-04-03T15:04:44Z</time>
      </trkpt>
      <trkpt lat="46.02906" lon="0.27797">
        <ele>130.6</ele>
        <time>2022-04-03T15:04:45Z</time>
      </trkpt>
      <trkpt lat="46.02907" lon="0.27789">
        <ele>130.4</ele>
        <time>2022-04-03T15:04:46Z</time>
      </trkpt>
      <trkpt lat="46.02907" lon="0.27782">
        <ele>130.6</ele>
        <time>2022-04-03T15:04:47Z</time>
      </trkpt>
      <trkpt lat="46.02908" lon="0.27775">
        <ele>130.6</ele>
        <time>2022-04-03T15:04:48Z</time>
      </trkpt>
      <trkpt lat="46.02908" lon="0.27768">
        <ele>130.6</ele>
        <time>2022-04-03T15:04:49Z</time>
      </trkpt>
      <trkpt lat="46.02909" lon="0.27761">
        <ele>131</ele>
        <time>2022-04-03T15:04:50Z</time>
      </trkpt>
      <trkpt lat="46.02909" lon="0.27753">
        <ele>131.2</ele>
        <time>2022-04-03T15:04:51Z</time>
      </trkpt>
      <trkpt lat="46.0291" lon="0.27746">
        <ele>131.2</ele>
        <time>2022-04-03T15:04:52Z</time>
      </trkpt>
      <trkpt lat="46.0291" lon="0.27739">
        <ele>131.2</ele>
        <time>2022-04-03T15:04:53Z</time>
      </trkpt>
      <trkpt lat="46.02911" lon="0.27732">
        <ele>131.4</ele>
        <time>2022-04-03T15:04:54Z</time>
      </trkpt>
      <trkpt lat="46.02912" lon="0.27725">
        <ele>131.6</ele>
        <time>2022-04-03T15:04:55Z</time>
      </trkpt>
      <trkpt lat="46.02912" lon="0.27718">
        <ele>131.6</ele>
        <time>2022-04-03T15:04:56Z</time>
      </trkpt>
      <trkpt lat="46.02913" lon="0.27711">
        <ele>131.8</ele>
        <time>2022-04-03T15:04:57Z</time>
      </trkpt>
      <trkpt lat="46.02913" lon="0.27704">
        <ele>131.8</ele>
        <time>2022-04-03T15:04:58Z</time>
      </trkpt>
      <trkpt lat="46.02914" lon="0.27697">
        <ele>132</ele>
        <time>2022-04-03T15:04:59Z</time>
      </trkpt>
      <trkpt lat="46.02914" lon="0.2769">
        <ele>132</ele>
        <time>2022-04-03T15:05:00Z</time>
      </trkpt>
      <trkpt lat="46.02914" lon="0.27683">
        <ele>132</ele>
        <time>2022-04-03T15:05:01Z</time>
      </trkpt>
      <trkpt lat="46.02915" lon="0.27676">
        <ele>132.2</ele>
        <time>2022-04-03T15:05:02Z</time>
      </trkpt>
      <trkpt lat="46.02915" lon="0.27669">
        <ele>132</ele>
        <time>2022-04-03T15:05:03Z</time>
      </trkpt>
      <trkpt lat="46.02916" lon="0.27662">
        <ele>132.4</ele>
        <time>2022-04-03T15:05:04Z</time>
      </trkpt>
      <trkpt lat="46.02917" lon="0.27656">
        <ele>132.4</ele>
        <time>2022-04-03T15:05:05Z</time>
      </trkpt>
      <trkpt lat="46.02917" lon="0.27649">
        <ele>132.4</ele>
        <time>2022-04-03T15:05:06Z</time>
      </trkpt>
      <trkpt lat="46.02917" lon="0.27643">
        <ele>132.4</ele>
        <time>2022-04-03T15:05:07Z</time>
      </trkpt>
      <trkpt lat="46.02918" lon="0.27636">
        <ele>132.6</ele>
        <time>2022-04-03T15:05:08Z</time>
      </trkpt>
      <trkpt lat="46.02918" lon="0.2763">
        <ele>132.6</ele>
        <time>2022-04-03T15:05:09Z</time>
      </trkpt>
      <trkpt lat="46.02918" lon="0.27623">
        <ele>132.8</ele>
        <time>2022-04-03T15:05:10Z</time>
      </trkpt>
      <trkpt lat="46.02919" lon="0.27616">
        <ele>132.8</ele>
        <time>2022-04-03T15:05:11Z</time>
      </trkpt>
      <trkpt lat="46.02919" lon="0.2761">
        <ele>132.8</ele>
        <time>2022-04-03T15:05:12Z</time>
      </trkpt>
      <trkpt lat="46.0292" lon="0.27603">
        <ele>132.8</ele>
        <time>2022-04-03T15:05:13Z</time>
      </trkpt>
      <trkpt lat="46.0292" lon="0.27596">
        <ele>133</ele>
        <time>2022-04-03T15:05:14Z</time>
      </trkpt>
      <trkpt lat="46.02921" lon="0.27589">
        <ele>133</ele>
        <time>2022-04-03T15:05:15Z</time>
      </trkpt>
      <trkpt lat="46.02921" lon="0.27582">
        <ele>133.2</ele>
        <time>2022-04-03T15:05:16Z</time>
      </trkpt>
      <trkpt lat="46.02921" lon="0.27575">
        <ele>133.6</ele>
        <time>2022-04-03T15:05:17Z</time>
      </trkpt>
      <trkpt lat="46.02922" lon="0.27567">
        <ele>133.6</ele>
        <time>2022-04-03T15:05:18Z</time>
      </trkpt>
      <trkpt lat="46.02922" lon="0.27559">
        <ele>133.6</ele>
        <time>2022-04-03T15:05:19Z</time>
      </trkpt>
      <trkpt lat="46.02922" lon="0.27551">
        <ele>133.6</ele>
        <time>2022-04-03T15:05:20Z</time>
      </trkpt>
      <trkpt lat="46.02921" lon="0.27543">
        <ele>133.6</ele>
        <time>2022-04-03T15:05:21Z</time>
      </trkpt>
      <trkpt lat="46.02921" lon="0.27535">
        <ele>133.8</ele>
        <time>2022-04-03T15:05:22Z</time>
      </trkpt>
      <trkpt lat="46.0292" lon="0.27526">
        <ele>133.8</ele>
        <time>2022-04-03T15:05:23Z</time>
      </trkpt>
      <trkpt lat="46.02919" lon="0.27518">
        <ele>133.8</ele>
        <time>2022-04-03T15:05:24Z</time>
      </trkpt>
      <trkpt lat="46.02918" lon="0.2751">
        <ele>133.6</ele>
        <time>2022-04-03T15:05:25Z</time>
      </trkpt>
      <trkpt lat="46.02917" lon="0.27502">
        <ele>133.8</ele>
        <time>2022-04-03T15:05:26Z</time>
      </trkpt>
      <trkpt lat="46.02916" lon="0.27494">
        <ele>133.8</ele>
        <time>2022-04-03T15:05:27Z</time>
      </trkpt>
      <trkpt lat="46.02915" lon="0.27487">
        <ele>134</ele>
        <time>2022-04-03T15:05:28Z</time>
      </trkpt>
      <trkpt lat="46.02914" lon="0.27479">
        <ele>133.8</ele>
        <time>2022-04-03T15:05:29Z</time>
      </trkpt>
      <trkpt lat="46.02913" lon="0.27471">
        <ele>133.8</ele>
        <time>2022-04-03T15:05:30Z</time>
      </trkpt>
      <trkpt lat="46.02911" lon="0.27463">
        <ele>133.8</ele>
        <time>2022-04-03T15:05:31Z</time>
      </trkpt>
      <trkpt lat="46.0291" lon="0.27456">
        <ele>134</ele>
        <time>2022-04-03T15:05:32Z</time>
      </trkpt>
      <trkpt lat="46.02907" lon="0.27448">
        <ele>133.8</ele>
        <time>2022-04-03T15:05:33Z</time>
      </trkpt>
      <trkpt lat="46.02905" lon="0.2744">
        <ele>133.8</ele>
        <time>2022-04-03T15:05:34Z</time>
      </trkpt>
      <trkpt lat="46.02903" lon="0.27431">
        <ele>133.6</ele>
        <time>2022-04-03T15:05:35Z</time>
      </trkpt>
      <trkpt lat="46.029" lon="0.27422">
        <ele>133.6</ele>
        <time>2022-04-03T15:05:36Z</time>
      </trkpt>
      <trkpt lat="46.02898" lon="0.27413">
        <ele>133.6</ele>
        <time>2022-04-03T15:05:37Z</time>
      </trkpt>
      <trkpt lat="46.02896" lon="0.27404">
        <ele>133.6</ele>
        <time>2022-04-03T15:05:38Z</time>
      </trkpt>
      <trkpt lat="46.02893" lon="0.27394">
        <ele>133.4</ele>
        <time>2022-04-03T15:05:39Z</time>
      </trkpt>
      <trkpt lat="46.02891" lon="0.27385">
        <ele>133.4</ele>
        <time>2022-04-03T15:05:40Z</time>
      </trkpt>
      <trkpt lat="46.02888" lon="0.27374">
        <ele>133.2</ele>
        <time>2022-04-03T15:05:41Z</time>
      </trkpt>
      <trkpt lat="46.02886" lon="0.27364">
        <ele>133</ele>
        <time>2022-04-03T15:05:42Z</time>
      </trkpt>
      <trkpt lat="46.02883" lon="0.27353">
        <ele>133</ele>
        <time>2022-04-03T15:05:43Z</time>
      </trkpt>
      <trkpt lat="46.02881" lon="0.27342">
        <ele>132.4</ele>
        <time>2022-04-03T15:05:44Z</time>
      </trkpt>
      <trkpt lat="46.02878" lon="0.27331">
        <ele>132.2</ele>
        <time>2022-04-03T15:05:45Z</time>
      </trkpt>
      <trkpt lat="46.02875" lon="0.27319">
        <ele>132</ele>
        <time>2022-04-03T15:05:46Z</time>
      </trkpt>
      <trkpt lat="46.02873" lon="0.27307">
        <ele>131.6</ele>
        <time>2022-04-03T15:05:47Z</time>
      </trkpt>
      <trkpt lat="46.0287" lon="0.27295">
        <ele>131</ele>
        <time>2022-04-03T15:05:48Z</time>
      </trkpt>
      <trkpt lat="46.02866" lon="0.27282">
        <ele>130.4</ele>
        <time>2022-04-03T15:05:49Z</time>
      </trkpt>
      <trkpt lat="46.02863" lon="0.2727">
        <ele>130.4</ele>
        <time>2022-04-03T15:05:50Z</time>
      </trkpt>
      <trkpt lat="46.02859" lon="0.27257">
        <ele>130</ele>
        <time>2022-04-03T15:05:51Z</time>
      </trkpt>
      <trkpt lat="46.02856" lon="0.27244">
        <ele>129.4</ele>
        <time>2022-04-03T15:05:52Z</time>
      </trkpt>
      <trkpt lat="46.02853" lon="0.27232">
        <ele>128.8</ele>
        <time>2022-04-03T15:05:53Z</time>
      </trkpt>
      <trkpt lat="46.0285" lon="0.2722">
        <ele>128.2</ele>
        <time>2022-04-03T15:05:54Z</time>
      </trkpt>
      <trkpt lat="46.02847" lon="0.27209">
        <ele>126.6</ele>
        <time>2022-04-03T15:05:55Z</time>
      </trkpt>
      <trkpt lat="46.02845" lon="0.27198">
        <ele>125.8</ele>
        <time>2022-04-03T15:05:56Z</time>
      </trkpt>
      <trkpt lat="46.02843" lon="0.27188">
        <ele>125.4</ele>
        <time>2022-04-03T15:05:57Z</time>
      </trkpt>
      <trkpt lat="46.02841" lon="0.27178">
        <ele>125</ele>
        <time>2022-04-03T15:05:58Z</time>
      </trkpt>
      <trkpt lat="46.02839" lon="0.27169">
        <ele>124.6</ele>
        <time>2022-04-03T15:05:59Z</time>
      </trkpt>
      <trkpt lat="46.02837" lon="0.2716">
        <ele>124.4</ele>
        <time>2022-04-03T15:06:00Z</time>
      </trkpt>
      <trkpt lat="46.02835" lon="0.27151">
        <ele>124.4</ele>
        <time>2022-04-03T15:06:01Z</time>
      </trkpt>
      <trkpt lat="46.02833" lon="0.27143">
        <ele>124.4</ele>
        <time>2022-04-03T15:06:02Z</time>
      </trkpt>
      <trkpt lat="46.02831" lon="0.27135">
        <ele>124.4</ele>
        <time>2022-04-03T15:06:03Z</time>
      </trkpt>
      <trkpt lat="46.02829" lon="0.27128">
        <ele>124.4</ele>
        <time>2022-04-03T15:06:04Z</time>
      </trkpt>
      <trkpt lat="46.02828" lon="0.2712">
        <ele>124.4</ele>
        <time>2022-04-03T15:06:05Z</time>
      </trkpt>
      <trkpt lat="46.02826" lon="0.27114">
        <ele>124.4</ele>
        <time>2022-04-03T15:06:06Z</time>
      </trkpt>
      <trkpt lat="46.02825" lon="0.27107">
        <ele>124.4</ele>
        <time>2022-04-03T15:06:07Z</time>
      </trkpt>
      <trkpt lat="46.02824" lon="0.27101">
        <ele>124.6</ele>
        <time>2022-04-03T15:06:08Z</time>
      </trkpt>
      <trkpt lat="46.02823" lon="0.27095">
        <ele>124.8</ele>
        <time>2022-04-03T15:06:09Z</time>
      </trkpt>
      <trkpt lat="46.02822" lon="0.27088">
        <ele>124.8</ele>
        <time>2022-04-03T15:06:10Z</time>
      </trkpt>
      <trkpt lat="46.02821" lon="0.27081">
        <ele>125</ele>
        <time>2022-04-03T15:06:11Z</time>
      </trkpt>
      <trkpt lat="46.0282" lon="0.27073">
        <ele>125.2</ele>
        <time>2022-04-03T15:06:12Z</time>
      </trkpt>
      <trkpt lat="46.02819" lon="0.27065">
        <ele>125.2</ele>
        <time>2022-04-03T15:06:13Z</time>
      </trkpt>
      <trkpt lat="46.02818" lon="0.27057">
        <ele>125.4</ele>
        <time>2022-04-03T15:06:14Z</time>
      </trkpt>
      <trkpt lat="46.02817" lon="0.27049">
        <ele>125.4</ele>
        <time>2022-04-03T15:06:15Z</time>
      </trkpt>
      <trkpt lat="46.02816" lon="0.27041">
        <ele>125.2</ele>
        <time>2022-04-03T15:06:16Z</time>
      </trkpt>
      <trkpt lat="46.02816" lon="0.27032">
        <ele>125.4</ele>
        <time>2022-04-03T15:06:17Z</time>
      </trkpt>
      <trkpt lat="46.02817" lon="0.27023">
        <ele>125.4</ele>
        <time>2022-04-03T15:06:18Z</time>
      </trkpt>
      <trkpt lat="46.02817" lon="0.27014">
        <ele>125.4</ele>
        <time>2022-04-03T15:06:19Z</time>
      </trkpt>
      <trkpt lat="46.02817" lon="0.27005">
        <ele>125.4</ele>
        <time>2022-04-03T15:06:20Z</time>
      </trkpt>
      <trkpt lat="46.02819" lon="0.26996">
        <ele>125</ele>
        <time>2022-04-03T15:06:21Z</time>
      </trkpt>
      <trkpt lat="46.0282" lon="0.26987">
        <ele>125</ele>
        <time>2022-04-03T15:06:22Z</time>
      </trkpt>
      <trkpt lat="46.02822" lon="0.26977">
        <ele>124.6</ele>
        <time>2022-04-03T15:06:23Z</time>
      </trkpt>
      <trkpt lat="46.02824" lon="0.26968">
        <ele>124.6</ele>
        <time>2022-04-03T15:06:24Z</time>
      </trkpt>
      <trkpt lat="46.02826" lon="0.26959">
        <ele>124.4</ele>
        <time>2022-04-03T15:06:25Z</time>
      </trkpt>
      <trkpt lat="46.02828" lon="0.2695">
        <ele>124</ele>
        <time>2022-04-03T15:06:26Z</time>
      </trkpt>
      <trkpt lat="46.02829" lon="0.2694">
        <ele>123.6</ele>
        <time>2022-04-03T15:06:27Z</time>
      </trkpt>
      <trkpt lat="46.02831" lon="0.2693">
        <ele>123.6</ele>
        <time>2022-04-03T15:06:28Z</time>
      </trkpt>
      <trkpt lat="46.02833" lon="0.2692">
        <ele>123.4</ele>
        <time>2022-04-03T15:06:29Z</time>
      </trkpt>
      <trkpt lat="46.02835" lon="0.2691">
        <ele>123</ele>
        <time>2022-04-03T15:06:30Z</time>
      </trkpt>
      <trkpt lat="46.02837" lon="0.269">
        <ele>123</ele>
        <time>2022-04-03T15:06:31Z</time>
      </trkpt>
      <trkpt lat="46.02838" lon="0.26889">
        <ele>122</ele>
        <time>2022-04-03T15:06:32Z</time>
      </trkpt>
      <trkpt lat="46.0284" lon="0.26878">
        <ele>121.6</ele>
        <time>2022-04-03T15:06:33Z</time>
      </trkpt>
      <trkpt lat="46.02841" lon="0.26866">
        <ele>121.2</ele>
        <time>2022-04-03T15:06:34Z</time>
      </trkpt>
      <trkpt lat="46.02843" lon="0.26854">
        <ele>120.8</ele>
        <time>2022-04-03T15:06:35Z</time>
      </trkpt>
      <trkpt lat="46.02845" lon="0.26843">
        <ele>120.2</ele>
        <time>2022-04-03T15:06:36Z</time>
      </trkpt>
      <trkpt lat="46.02847" lon="0.26831">
        <ele>119.4</ele>
        <time>2022-04-03T15:06:37Z</time>
      </trkpt>
      <trkpt lat="46.02849" lon="0.26819">
        <ele>119</ele>
        <time>2022-04-03T15:06:38Z</time>
      </trkpt>
      <trkpt lat="46.02851" lon="0.26808">
        <ele>119</ele>
        <time>2022-04-03T15:06:39Z</time>
      </trkpt>
      <trkpt lat="46.02853" lon="0.26797">
        <ele>119</ele>
        <time>2022-04-03T15:06:40Z</time>
      </trkpt>
      <trkpt lat="46.02854" lon="0.26787">
        <ele>118.6</ele>
        <time>2022-04-03T15:06:41Z</time>
      </trkpt>
      <trkpt lat="46.02856" lon="0.26776">
        <ele>118.4</ele>
        <time>2022-04-03T15:06:42Z</time>
      </trkpt>
      <trkpt lat="46.02857" lon="0.26767">
        <ele>118.2</ele>
        <time>2022-04-03T15:06:43Z</time>
      </trkpt>
      <trkpt lat="46.02859" lon="0.26758">
        <ele>117.8</ele>
        <time>2022-04-03T15:06:44Z</time>
      </trkpt>
      <trkpt lat="46.02861" lon="0.26749">
        <ele>117.6</ele>
        <time>2022-04-03T15:06:45Z</time>
      </trkpt>
      <trkpt lat="46.02862" lon="0.26741">
        <ele>117.6</ele>
        <time>2022-04-03T15:06:46Z</time>
      </trkpt>
      <trkpt lat="46.02864" lon="0.26733">
        <ele>117.6</ele>
        <time>2022-04-03T15:06:47Z</time>
      </trkpt>
      <trkpt lat="46.02865" lon="0.26725">
        <ele>117.4</ele>
        <time>2022-04-03T15:06:48Z</time>
      </trkpt>
      <trkpt lat="46.02866" lon="0.26718">
        <ele>117.6</ele>
        <time>2022-04-03T15:06:49Z</time>
      </trkpt>
      <trkpt lat="46.02868" lon="0.2671">
        <ele>117.4</ele>
        <time>2022-04-03T15:06:50Z</time>
      </trkpt>
      <trkpt lat="46.02869" lon="0.26703">
        <ele>117.8</ele>
        <time>2022-04-03T15:06:51Z</time>
      </trkpt>
      <trkpt lat="46.02871" lon="0.26696">
        <ele>118</ele>
        <time>2022-04-03T15:06:52Z</time>
      </trkpt>
      <trkpt lat="46.02872" lon="0.26689">
        <ele>117.8</ele>
        <time>2022-04-03T15:06:53Z</time>
      </trkpt>
      <trkpt lat="46.02873" lon="0.26682">
        <ele>118</ele>
        <time>2022-04-03T15:06:54Z</time>
      </trkpt>
      <trkpt lat="46.02874" lon="0.26676">
        <ele>118</ele>
        <time>2022-04-03T15:06:55Z</time>
      </trkpt>
      <trkpt lat="46.02875" lon="0.26669">
        <ele>118.2</ele>
        <time>2022-04-03T15:06:56Z</time>
      </trkpt>
      <trkpt lat="46.02876" lon="0.26663">
        <ele>118.6</ele>
        <time>2022-04-03T15:06:57Z</time>
      </trkpt>
      <trkpt lat="46.02878" lon="0.26656">
        <ele>118.8</ele>
        <time>2022-04-03T15:06:58Z</time>
      </trkpt>
      <trkpt lat="46.02879" lon="0.2665">
        <ele>119</ele>
        <time>2022-04-03T15:06:59Z</time>
      </trkpt>
      <trkpt lat="46.0288" lon="0.26644">
        <ele>119.4</ele>
        <time>2022-04-03T15:07:00Z</time>
      </trkpt>
      <trkpt lat="46.02881" lon="0.26637">
        <ele>119.6</ele>
        <time>2022-04-03T15:07:01Z</time>
      </trkpt>
      <trkpt lat="46.02882" lon="0.26631">
        <ele>120</ele>
        <time>2022-04-03T15:07:02Z</time>
      </trkpt>
      <trkpt lat="46.02883" lon="0.26625">
        <ele>120.2</ele>
        <time>2022-04-03T15:07:03Z</time>
      </trkpt>
      <trkpt lat="46.02884" lon="0.26619">
        <ele>120.2</ele>
        <time>2022-04-03T15:07:04Z</time>
      </trkpt>
      <trkpt lat="46.02885" lon="0.26613">
        <ele>120.2</ele>
        <time>2022-04-03T15:07:05Z</time>
      </trkpt>
      <trkpt lat="46.02886" lon="0.26606">
        <ele>120.2</ele>
        <time>2022-04-03T15:07:06Z</time>
      </trkpt>
      <trkpt lat="46.02887" lon="0.266">
        <ele>120.4</ele>
        <time>2022-04-03T15:07:07Z</time>
      </trkpt>
      <trkpt lat="46.02888" lon="0.26593">
        <ele>120.6</ele>
        <time>2022-04-03T15:07:08Z</time>
      </trkpt>
      <trkpt lat="46.0289" lon="0.26586">
        <ele>120.6</ele>
        <time>2022-04-03T15:07:09Z</time>
      </trkpt>
      <trkpt lat="46.02891" lon="0.2658">
        <ele>120.8</ele>
        <time>2022-04-03T15:07:10Z</time>
      </trkpt>
      <trkpt lat="46.02892" lon="0.26573">
        <ele>120.8</ele>
        <time>2022-04-03T15:07:11Z</time>
      </trkpt>
      <trkpt lat="46.02893" lon="0.26566">
        <ele>121</ele>
        <time>2022-04-03T15:07:12Z</time>
      </trkpt>
      <trkpt lat="46.02894" lon="0.26559">
        <ele>121</ele>
        <time>2022-04-03T15:07:13Z</time>
      </trkpt>
      <trkpt lat="46.02895" lon="0.26553">
        <ele>121.2</ele>
        <time>2022-04-03T15:07:14Z</time>
      </trkpt>
      <trkpt lat="46.02896" lon="0.26546">
        <ele>121</ele>
        <time>2022-04-03T15:07:15Z</time>
      </trkpt>
      <trkpt lat="46.02898" lon="0.26539">
        <ele>121.2</ele>
        <time>2022-04-03T15:07:16Z</time>
      </trkpt>
      <trkpt lat="46.02899" lon="0.26532">
        <ele>121.4</ele>
        <time>2022-04-03T15:07:17Z</time>
      </trkpt>
      <trkpt lat="46.029" lon="0.26526">
        <ele>121.2</ele>
        <time>2022-04-03T15:07:18Z</time>
      </trkpt>
      <trkpt lat="46.02901" lon="0.26519">
        <ele>121.4</ele>
        <time>2022-04-03T15:07:19Z</time>
      </trkpt>
      <trkpt lat="46.02902" lon="0.26512">
        <ele>121.4</ele>
        <time>2022-04-03T15:07:20Z</time>
      </trkpt>
      <trkpt lat="46.02903" lon="0.26505">
        <ele>121.4</ele>
        <time>2022-04-03T15:07:21Z</time>
      </trkpt>
      <trkpt lat="46.02904" lon="0.26499">
        <ele>121.4</ele>
        <time>2022-04-03T15:07:22Z</time>
      </trkpt>
      <trkpt lat="46.02905" lon="0.26492">
        <ele>121.6</ele>
        <time>2022-04-03T15:07:23Z</time>
      </trkpt>
      <trkpt lat="46.02905" lon="0.26486">
        <ele>121.4</ele>
        <time>2022-04-03T15:07:24Z</time>
      </trkpt>
      <trkpt lat="46.02906" lon="0.26479">
        <ele>121.4</ele>
        <time>2022-04-03T15:07:25Z</time>
      </trkpt>
      <trkpt lat="46.02907" lon="0.26472">
        <ele>121.6</ele>
        <time>2022-04-03T15:07:26Z</time>
      </trkpt>
      <trkpt lat="46.02907" lon="0.26466">
        <ele>121.6</ele>
        <time>2022-04-03T15:07:27Z</time>
      </trkpt>
      <trkpt lat="46.02907" lon="0.26459">
        <ele>121.8</ele>
        <time>2022-04-03T15:07:28Z</time>
      </trkpt>
      <trkpt lat="46.02907" lon="0.26452">
        <ele>121.8</ele>
        <time>2022-04-03T15:07:29Z</time>
      </trkpt>
      <trkpt lat="46.02907" lon="0.26445">
        <ele>122</ele>
        <time>2022-04-03T15:07:30Z</time>
      </trkpt>
      <trkpt lat="46.02907" lon="0.26438">
        <ele>122</ele>
        <time>2022-04-03T15:07:31Z</time>
      </trkpt>
      <trkpt lat="46.02907" lon="0.2643">
        <ele>122</ele>
        <time>2022-04-03T15:07:32Z</time>
      </trkpt>
      <trkpt lat="46.02906" lon="0.26423">
        <ele>122</ele>
        <time>2022-04-03T15:07:33Z</time>
      </trkpt>
      <trkpt lat="46.02906" lon="0.26416">
        <ele>122</ele>
        <time>2022-04-03T15:07:34Z</time>
      </trkpt>
      <trkpt lat="46.02905" lon="0.26408">
        <ele>122.2</ele>
        <time>2022-04-03T15:07:35Z</time>
      </trkpt>
      <trkpt lat="46.02904" lon="0.26401">
        <ele>122</ele>
        <time>2022-04-03T15:07:36Z</time>
      </trkpt>
      <trkpt lat="46.02903" lon="0.26393">
        <ele>122</ele>
        <time>2022-04-03T15:07:37Z</time>
      </trkpt>
      <trkpt lat="46.02901" lon="0.26386">
        <ele>122</ele>
        <time>2022-04-03T15:07:38Z</time>
      </trkpt>
      <trkpt lat="46.029" lon="0.26378">
        <ele>122</ele>
        <time>2022-04-03T15:07:39Z</time>
      </trkpt>
      <trkpt lat="46.02898" lon="0.26371">
        <ele>122</ele>
        <time>2022-04-03T15:07:40Z</time>
      </trkpt>
      <trkpt lat="46.02896" lon="0.26364">
        <ele>122</ele>
        <time>2022-04-03T15:07:41Z</time>
      </trkpt>
      <trkpt lat="46.02895" lon="0.26356">
        <ele>122</ele>
        <time>2022-04-03T15:07:42Z</time>
      </trkpt>
      <trkpt lat="46.02892" lon="0.26349">
        <ele>122</ele>
        <time>2022-04-03T15:07:43Z</time>
      </trkpt>
      <trkpt lat="46.02891" lon="0.26341">
        <ele>122</ele>
        <time>2022-04-03T15:07:44Z</time>
      </trkpt>
      <trkpt lat="46.02889" lon="0.26333">
        <ele>121.8</ele>
        <time>2022-04-03T15:07:45Z</time>
      </trkpt>
      <trkpt lat="46.02887" lon="0.26326">
        <ele>121.8</ele>
        <time>2022-04-03T15:07:46Z</time>
      </trkpt>
      <trkpt lat="46.02885" lon="0.26318">
        <ele>121.6</ele>
        <time>2022-04-03T15:07:47Z</time>
      </trkpt>
      <trkpt lat="46.02883" lon="0.2631">
        <ele>121.6</ele>
        <time>2022-04-03T15:07:48Z</time>
      </trkpt>
      <trkpt lat="46.02881" lon="0.26302">
        <ele>121.4</ele>
        <time>2022-04-03T15:07:49Z</time>
      </trkpt>
      <trkpt lat="46.0288" lon="0.26294">
        <ele>121.4</ele>
        <time>2022-04-03T15:07:50Z</time>
      </trkpt>
      <trkpt lat="46.02878" lon="0.26286">
        <ele>121.4</ele>
        <time>2022-04-03T15:07:51Z</time>
      </trkpt>
      <trkpt lat="46.02876" lon="0.26278">
        <ele>121.4</ele>
        <time>2022-04-03T15:07:52Z</time>
      </trkpt>
      <trkpt lat="46.02874" lon="0.2627">
        <ele>121.4</ele>
        <time>2022-04-03T15:07:53Z</time>
      </trkpt>
      <trkpt lat="46.02872" lon="0.26263">
        <ele>121.2</ele>
        <time>2022-04-03T15:07:54Z</time>
      </trkpt>
      <trkpt lat="46.0287" lon="0.26255">
        <ele>121.2</ele>
        <time>2022-04-03T15:07:55Z</time>
      </trkpt>
      <trkpt lat="46.02868" lon="0.26247">
        <ele>121.2</ele>
        <time>2022-04-03T15:07:56Z</time>
      </trkpt>
      <trkpt lat="46.02866" lon="0.26239">
        <ele>121</ele>
        <time>2022-04-03T15:07:57Z</time>
      </trkpt>
      <trkpt lat="46.02864" lon="0.26231">
        <ele>120.8</ele>
        <time>2022-04-03T15:07:58Z</time>
      </trkpt>
      <trkpt lat="46.02862" lon="0.26222">
        <ele>120.8</ele>
        <time>2022-04-03T15:07:59Z</time>
      </trkpt>
      <trkpt lat="46.0286" lon="0.26214">
        <ele>120.8</ele>
        <time>2022-04-03T15:08:00Z</time>
      </trkpt>
      <trkpt lat="46.02858" lon="0.26206">
        <ele>120.8</ele>
        <time>2022-04-03T15:08:01Z</time>
      </trkpt>
      <trkpt lat="46.02856" lon="0.26198">
        <ele>120.6</ele>
        <time>2022-04-03T15:08:02Z</time>
      </trkpt>
      <trkpt lat="46.02855" lon="0.26189">
        <ele>120.6</ele>
        <time>2022-04-03T15:08:03Z</time>
      </trkpt>
      <trkpt lat="46.02853" lon="0.26181">
        <ele>120.4</ele>
        <time>2022-04-03T15:08:04Z</time>
      </trkpt>
      <trkpt lat="46.02851" lon="0.26174">
        <ele>120.4</ele>
        <time>2022-04-03T15:08:05Z</time>
      </trkpt>
      <trkpt lat="46.02849" lon="0.26166">
        <ele>120.4</ele>
        <time>2022-04-03T15:08:06Z</time>
      </trkpt>
      <trkpt lat="46.02847" lon="0.26158">
        <ele>120.4</ele>
        <time>2022-04-03T15:08:07Z</time>
      </trkpt>
      <trkpt lat="46.02845" lon="0.2615">
        <ele>120.4</ele>
        <time>2022-04-03T15:08:08Z</time>
      </trkpt>
      <trkpt lat="46.02844" lon="0.26142">
        <ele>120.2</ele>
        <time>2022-04-03T15:08:09Z</time>
      </trkpt>
      <trkpt lat="46.02842" lon="0.26134">
        <ele>120.4</ele>
        <time>2022-04-03T15:08:10Z</time>
      </trkpt>
      <trkpt lat="46.0284" lon="0.26126">
        <ele>120.4</ele>
        <time>2022-04-03T15:08:11Z</time>
      </trkpt>
      <trkpt lat="46.02838" lon="0.26118">
        <ele>120.2</ele>
        <time>2022-04-03T15:08:12Z</time>
      </trkpt>
      <trkpt lat="46.02836" lon="0.26109">
        <ele>120.2</ele>
        <time>2022-04-03T15:08:13Z</time>
      </trkpt>
      <trkpt lat="46.02834" lon="0.26101">
        <ele>120.4</ele>
        <time>2022-04-03T15:08:14Z</time>
      </trkpt>
      <trkpt lat="46.02832" lon="0.26093">
        <ele>120.8</ele>
        <time>2022-04-03T15:08:15Z</time>
      </trkpt>
      <trkpt lat="46.0283" lon="0.26084">
        <ele>120.8</ele>
        <time>2022-04-03T15:08:16Z</time>
      </trkpt>
      <trkpt lat="46.02828" lon="0.26076">
        <ele>120.8</ele>
        <time>2022-04-03T15:08:17Z</time>
      </trkpt>
      <trkpt lat="46.02825" lon="0.26068">
        <ele>120.6</ele>
        <time>2022-04-03T15:08:18Z</time>
      </trkpt>
      <trkpt lat="46.02823" lon="0.2606">
        <ele>120.4</ele>
        <time>2022-04-03T15:08:19Z</time>
      </trkpt>
      <trkpt lat="46.02821" lon="0.26052">
        <ele>120.4</ele>
        <time>2022-04-03T15:08:20Z</time>
      </trkpt>
      <trkpt lat="46.02819" lon="0.26044">
        <ele>120.4</ele>
        <time>2022-04-03T15:08:21Z</time>
      </trkpt>
      <trkpt lat="46.02817" lon="0.26036">
        <ele>120.2</ele>
        <time>2022-04-03T15:08:22Z</time>
      </trkpt>
      <trkpt lat="46.02816" lon="0.26028">
        <ele>120.4</ele>
        <time>2022-04-03T15:08:23Z</time>
      </trkpt>
      <trkpt lat="46.02814" lon="0.26021">
        <ele>120.4</ele>
        <time>2022-04-03T15:08:24Z</time>
      </trkpt>
      <trkpt lat="46.02812" lon="0.26013">
        <ele>120.6</ele>
        <time>2022-04-03T15:08:25Z</time>
      </trkpt>
      <trkpt lat="46.02811" lon="0.26005">
        <ele>120.8</ele>
        <time>2022-04-03T15:08:26Z</time>
      </trkpt>
      <trkpt lat="46.0281" lon="0.25998">
        <ele>120.8</ele>
        <time>2022-04-03T15:08:27Z</time>
      </trkpt>
      <trkpt lat="46.02809" lon="0.25991">
        <ele>120.8</ele>
        <time>2022-04-03T15:08:28Z</time>
      </trkpt>
      <trkpt lat="46.02808" lon="0.25983">
        <ele>120.8</ele>
        <time>2022-04-03T15:08:29Z</time>
      </trkpt>
      <trkpt lat="46.02807" lon="0.25976">
        <ele>120.8</ele>
        <time>2022-04-03T15:08:30Z</time>
      </trkpt>
      <trkpt lat="46.02806" lon="0.25969">
        <ele>120.8</ele>
        <time>2022-04-03T15:08:31Z</time>
      </trkpt>
      <trkpt lat="46.02806" lon="0.25962">
        <ele>120.6</ele>
        <time>2022-04-03T15:08:32Z</time>
      </trkpt>
      <trkpt lat="46.02805" lon="0.25955">
        <ele>120.6</ele>
        <time>2022-04-03T15:08:33Z</time>
      </trkpt>
      <trkpt lat="46.02804" lon="0.25948">
        <ele>120.6</ele>
        <time>2022-04-03T15:08:34Z</time>
      </trkpt>
      <trkpt lat="46.02804" lon="0.25941">
        <ele>120.8</ele>
        <time>2022-04-03T15:08:35Z</time>
      </trkpt>
      <trkpt lat="46.02803" lon="0.25934">
        <ele>120.6</ele>
        <time>2022-04-03T15:08:36Z</time>
      </trkpt>
      <trkpt lat="46.02803" lon="0.25928">
        <ele>120.8</ele>
        <time>2022-04-03T15:08:37Z</time>
      </trkpt>
      <trkpt lat="46.02802" lon="0.25922">
        <ele>120.8</ele>
        <time>2022-04-03T15:08:38Z</time>
      </trkpt>
      <trkpt lat="46.02802" lon="0.25916">
        <ele>120.8</ele>
        <time>2022-04-03T15:08:39Z</time>
      </trkpt>
      <trkpt lat="46.02801" lon="0.2591">
        <ele>120.8</ele>
        <time>2022-04-03T15:08:40Z</time>
      </trkpt>
      <trkpt lat="46.02801" lon="0.25905">
        <ele>121</ele>
        <time>2022-04-03T15:08:41Z</time>
      </trkpt>
      <trkpt lat="46.02801" lon="0.25901">
        <ele>121</ele>
        <time>2022-04-03T15:08:42Z</time>
      </trkpt>
      <trkpt lat="46.028" lon="0.25896">
        <ele>121.4</ele>
        <time>2022-04-03T15:08:43Z</time>
      </trkpt>
      <trkpt lat="46.028" lon="0.25892">
        <ele>121.6</ele>
        <time>2022-04-03T15:08:44Z</time>
      </trkpt>
      <trkpt lat="46.028" lon="0.25888">
        <ele>122</ele>
        <time>2022-04-03T15:08:45Z</time>
      </trkpt>
      <trkpt lat="46.02799" lon="0.25884">
        <ele>122</ele>
        <time>2022-04-03T15:08:46Z</time>
      </trkpt>
      <trkpt lat="46.02799" lon="0.2588">
        <ele>122.2</ele>
        <time>2022-04-03T15:08:47Z</time>
      </trkpt>
      <trkpt lat="46.02799" lon="0.25876">
        <ele>122.2</ele>
        <time>2022-04-03T15:08:48Z</time>
      </trkpt>
      <trkpt lat="46.02798" lon="0.25871">
        <ele>122.4</ele>
        <time>2022-04-03T15:08:49Z</time>
      </trkpt>
      <trkpt lat="46.02798" lon="0.25868">
        <ele>122.8</ele>
        <time>2022-04-03T15:08:50Z</time>
      </trkpt>
      <trkpt lat="46.02798" lon="0.25864">
        <ele>123.2</ele>
        <time>2022-04-03T15:08:51Z</time>
      </trkpt>
      <trkpt lat="46.02798" lon="0.2586">
        <ele>123.4</ele>
        <time>2022-04-03T15:08:52Z</time>
      </trkpt>
      <trkpt lat="46.02797" lon="0.25856">
        <ele>123.8</ele>
        <time>2022-04-03T15:08:53Z</time>
      </trkpt>
      <trkpt lat="46.02797" lon="0.25852">
        <ele>124</ele>
        <time>2022-04-03T15:08:54Z</time>
      </trkpt>
      <trkpt lat="46.02797" lon="0.25849">
        <ele>124.2</ele>
        <time>2022-04-03T15:08:55Z</time>
      </trkpt>
      <trkpt lat="46.02796" lon="0.25845">
        <ele>124.4</ele>
        <time>2022-04-03T15:08:56Z</time>
      </trkpt>
      <trkpt lat="46.02796" lon="0.25841">
        <ele>124.6</ele>
        <time>2022-04-03T15:08:57Z</time>
      </trkpt>
      <trkpt lat="46.02796" lon="0.25837">
        <ele>124.8</ele>
        <time>2022-04-03T15:08:58Z</time>
      </trkpt>
      <trkpt lat="46.02795" lon="0.25833">
        <ele>125</ele>
        <time>2022-04-03T15:08:59Z</time>
      </trkpt>
      <trkpt lat="46.02795" lon="0.25829">
        <ele>125</ele>
        <time>2022-04-03T15:09:00Z</time>
      </trkpt>
      <trkpt lat="46.02795" lon="0.25825">
        <ele>125</ele>
        <time>2022-04-03T15:09:01Z</time>
      </trkpt>
      <trkpt lat="46.02795" lon="0.25821">
        <ele>125.2</ele>
        <time>2022-04-03T15:09:02Z</time>
      </trkpt>
      <trkpt lat="46.02794" lon="0.25818">
        <ele>125.2</ele>
        <time>2022-04-03T15:09:03Z</time>
      </trkpt>
      <trkpt lat="46.02794" lon="0.25814">
        <ele>125.2</ele>
        <time>2022-04-03T15:09:04Z</time>
      </trkpt>
      <trkpt lat="46.02794" lon="0.2581">
        <ele>125.4</ele>
        <time>2022-04-03T15:09:05Z</time>
      </trkpt>
      <trkpt lat="46.02794" lon="0.25806">
        <ele>125.8</ele>
        <time>2022-04-03T15:09:06Z</time>
      </trkpt>
      <trkpt lat="46.02793" lon="0.25802">
        <ele>125.8</ele>
        <time>2022-04-03T15:09:07Z</time>
      </trkpt>
      <trkpt lat="46.02793" lon="0.25798">
        <ele>126.2</ele>
        <time>2022-04-03T15:09:08Z</time>
      </trkpt>
      <trkpt lat="46.02793" lon="0.25795">
        <ele>126.4</ele>
        <time>2022-04-03T15:09:09Z</time>
      </trkpt>
      <trkpt lat="46.02793" lon="0.25791">
        <ele>126.6</ele>
        <time>2022-04-03T15:09:10Z</time>
      </trkpt>
      <trkpt lat="46.02793" lon="0.25787">
        <ele>126.6</ele>
        <time>2022-04-03T15:09:11Z</time>
      </trkpt>
      <trkpt lat="46.02793" lon="0.25784">
        <ele>126.6</ele>
        <time>2022-04-03T15:09:12Z</time>
      </trkpt>
      <trkpt lat="46.02793" lon="0.2578">
        <ele>126.8</ele>
        <time>2022-04-03T15:09:13Z</time>
      </trkpt>
      <trkpt lat="46.02793" lon="0.25777">
        <ele>127</ele>
        <time>2022-04-03T15:09:14Z</time>
      </trkpt>
      <trkpt lat="46.02793" lon="0.25774">
        <ele>127.4</ele>
        <time>2022-04-03T15:09:15Z</time>
      </trkpt>
      <trkpt lat="46.02792" lon="0.2577">
        <ele>127.6</ele>
        <time>2022-04-03T15:09:16Z</time>
      </trkpt>
      <trkpt lat="46.02792" lon="0.25766">
        <ele>127.8</ele>
        <time>2022-04-03T15:09:17Z</time>
      </trkpt>
      <trkpt lat="46.02792" lon="0.25763">
        <ele>127.8</ele>
        <time>2022-04-03T15:09:18Z</time>
      </trkpt>
      <trkpt lat="46.02792" lon="0.2576">
        <ele>128</ele>
        <time>2022-04-03T15:09:19Z</time>
      </trkpt>
      <trkpt lat="46.02791" lon="0.25757">
        <ele>128</ele>
        <time>2022-04-03T15:09:20Z</time>
      </trkpt>
      <trkpt lat="46.02791" lon="0.25754">
        <ele>128.2</ele>
        <time>2022-04-03T15:09:21Z</time>
      </trkpt>
      <trkpt lat="46.02791" lon="0.25751">
        <ele>128.6</ele>
        <time>2022-04-03T15:09:22Z</time>
      </trkpt>
      <trkpt lat="46.02791" lon="0.25748">
        <ele>128.8</ele>
        <time>2022-04-03T15:09:23Z</time>
      </trkpt>
      <trkpt lat="46.0279" lon="0.25744">
        <ele>128.8</ele>
        <time>2022-04-03T15:09:24Z</time>
      </trkpt>
      <trkpt lat="46.0279" lon="0.25741">
        <ele>129</ele>
        <time>2022-04-03T15:09:25Z</time>
      </trkpt>
      <trkpt lat="46.02789" lon="0.25738">
        <ele>129.2</ele>
        <time>2022-04-03T15:09:26Z</time>
      </trkpt>
      <trkpt lat="46.02789" lon="0.25735">
        <ele>129.6</ele>
        <time>2022-04-03T15:09:27Z</time>
      </trkpt>
      <trkpt lat="46.02788" lon="0.25732">
        <ele>129.8</ele>
        <time>2022-04-03T15:09:28Z</time>
      </trkpt>
      <trkpt lat="46.02788" lon="0.25729">
        <ele>130</ele>
        <time>2022-04-03T15:09:29Z</time>
      </trkpt>
      <trkpt lat="46.02787" lon="0.25726">
        <ele>130</ele>
        <time>2022-04-03T15:09:30Z</time>
      </trkpt>
      <trkpt lat="46.02787" lon="0.25724">
        <ele>130.2</ele>
        <time>2022-04-03T15:09:31Z</time>
      </trkpt>
      <trkpt lat="46.02787" lon="0.25721">
        <ele>130.4</ele>
        <time>2022-04-03T15:09:32Z</time>
      </trkpt>
      <trkpt lat="46.02786" lon="0.25718">
        <ele>130.6</ele>
        <time>2022-04-03T15:09:33Z</time>
      </trkpt>
      <trkpt lat="46.02785" lon="0.25715">
        <ele>130.6</ele>
        <time>2022-04-03T15:09:34Z</time>
      </trkpt>
      <trkpt lat="46.02784" lon="0.25712">
        <ele>131</ele>
        <time>2022-04-03T15:09:35Z</time>
      </trkpt>
      <trkpt lat="46.02784" lon="0.25709">
        <ele>131</ele>
        <time>2022-04-03T15:09:36Z</time>
      </trkpt>
      <trkpt lat="46.02783" lon="0.25706">
        <ele>131</ele>
        <time>2022-04-03T15:09:37Z</time>
      </trkpt>
      <trkpt lat="46.02782" lon="0.25703">
        <ele>131.2</ele>
        <time>2022-04-03T15:09:38Z</time>
      </trkpt>
      <trkpt lat="46.02782" lon="0.257">
        <ele>131.2</ele>
        <time>2022-04-03T15:09:39Z</time>
      </trkpt>
      <trkpt lat="46.02781" lon="0.25697">
        <ele>131.4</ele>
        <time>2022-04-03T15:09:40Z</time>
      </trkpt>
      <trkpt lat="46.02781" lon="0.25694">
        <ele>131.8</ele>
        <time>2022-04-03T15:09:41Z</time>
      </trkpt>
      <trkpt lat="46.0278" lon="0.25691">
        <ele>131.8</ele>
        <time>2022-04-03T15:09:42Z</time>
      </trkpt>
      <trkpt lat="46.02779" lon="0.25689">
        <ele>132</ele>
        <time>2022-04-03T15:09:43Z</time>
      </trkpt>
      <trkpt lat="46.02778" lon="0.25686">
        <ele>132</ele>
        <time>2022-04-03T15:09:44Z</time>
      </trkpt>
      <trkpt lat="46.02778" lon="0.25684">
        <ele>132.2</ele>
        <time>2022-04-03T15:09:45Z</time>
      </trkpt>
      <trkpt lat="46.02777" lon="0.25681">
        <ele>132.4</ele>
        <time>2022-04-03T15:09:46Z</time>
      </trkpt>
      <trkpt lat="46.02776" lon="0.25678">
        <ele>132.4</ele>
        <time>2022-04-03T15:09:47Z</time>
      </trkpt>
      <trkpt lat="46.02775" lon="0.25675">
        <ele>132.8</ele>
        <time>2022-04-03T15:09:48Z</time>
      </trkpt>
      <trkpt lat="46.02775" lon="0.25673">
        <ele>132.8</ele>
        <time>2022-04-03T15:09:49Z</time>
      </trkpt>
      <trkpt lat="46.02774" lon="0.2567">
        <ele>133</ele>
        <time>2022-04-03T15:09:50Z</time>
      </trkpt>
      <trkpt lat="46.02774" lon="0.25667">
        <ele>133.2</ele>
        <time>2022-04-03T15:09:51Z</time>
      </trkpt>
      <trkpt lat="46.02774" lon="0.25665">
        <ele>133.2</ele>
        <time>2022-04-03T15:09:52Z</time>
      </trkpt>
      <trkpt lat="46.02773" lon="0.25662">
        <ele>133.4</ele>
        <time>2022-04-03T15:09:53Z</time>
      </trkpt>
      <trkpt lat="46.02773" lon="0.25659">
        <ele>133.6</ele>
        <time>2022-04-03T15:09:54Z</time>
      </trkpt>
      <trkpt lat="46.02772" lon="0.25656">
        <ele>133.6</ele>
        <time>2022-04-03T15:09:55Z</time>
      </trkpt>
      <trkpt lat="46.02771" lon="0.25653">
        <ele>133.6</ele>
        <time>2022-04-03T15:09:56Z</time>
      </trkpt>
      <trkpt lat="46.0277" lon="0.2565">
        <ele>133.8</ele>
        <time>2022-04-03T15:09:57Z</time>
      </trkpt>
      <trkpt lat="46.02769" lon="0.25647">
        <ele>134</ele>
        <time>2022-04-03T15:09:58Z</time>
      </trkpt>
      <trkpt lat="46.02769" lon="0.25645">
        <ele>134</ele>
        <time>2022-04-03T15:09:59Z</time>
      </trkpt>
      <trkpt lat="46.02768" lon="0.25642">
        <ele>134.2</ele>
        <time>2022-04-03T15:10:00Z</time>
      </trkpt>
      <trkpt lat="46.02766" lon="0.25638">
        <ele>134.2</ele>
        <time>2022-04-03T15:10:01Z</time>
      </trkpt>
      <trkpt lat="46.02765" lon="0.25635">
        <ele>134.4</ele>
        <time>2022-04-03T15:10:02Z</time>
      </trkpt>
      <trkpt lat="46.02763" lon="0.25632">
        <ele>134.6</ele>
        <time>2022-04-03T15:10:03Z</time>
      </trkpt>
      <trkpt lat="46.02762" lon="0.25628">
        <ele>134.6</ele>
        <time>2022-04-03T15:10:04Z</time>
      </trkpt>
      <trkpt lat="46.0276" lon="0.25626">
        <ele>134.8</ele>
        <time>2022-04-03T15:10:05Z</time>
      </trkpt>
      <trkpt lat="46.02759" lon="0.25623">
        <ele>135</ele>
        <time>2022-04-03T15:10:06Z</time>
      </trkpt>
      <trkpt lat="46.02758" lon="0.2562">
        <ele>135</ele>
        <time>2022-04-03T15:10:07Z</time>
      </trkpt>
      <trkpt lat="46.02757" lon="0.25618">
        <ele>135</ele>
        <time>2022-04-03T15:10:08Z</time>
      </trkpt>
      <trkpt lat="46.02757" lon="0.25615">
        <ele>135.2</ele>
        <time>2022-04-03T15:10:09Z</time>
      </trkpt>
      <trkpt lat="46.02756" lon="0.25612">
        <ele>135.2</ele>
        <time>2022-04-03T15:10:10Z</time>
      </trkpt>
      <trkpt lat="46.02755" lon="0.25609">
        <ele>135.4</ele>
        <time>2022-04-03T15:10:11Z</time>
      </trkpt>
      <trkpt lat="46.02754" lon="0.25607">
        <ele>135.6</ele>
        <time>2022-04-03T15:10:12Z</time>
      </trkpt>
      <trkpt lat="46.02752" lon="0.25605">
        <ele>135.6</ele>
        <time>2022-04-03T15:10:13Z</time>
      </trkpt>
      <trkpt lat="46.02751" lon="0.25602">
        <ele>135.6</ele>
        <time>2022-04-03T15:10:14Z</time>
      </trkpt>
      <trkpt lat="46.0275" lon="0.25599">
        <ele>135.6</ele>
        <time>2022-04-03T15:10:15Z</time>
      </trkpt>
      <trkpt lat="46.02749" lon="0.25596">
        <ele>135.8</ele>
        <time>2022-04-03T15:10:16Z</time>
      </trkpt>
      <trkpt lat="46.02748" lon="0.25593">
        <ele>135.8</ele>
        <time>2022-04-03T15:10:17Z</time>
      </trkpt>
      <trkpt lat="46.02747" lon="0.25591">
        <ele>136</ele>
        <time>2022-04-03T15:10:18Z</time>
      </trkpt>
      <trkpt lat="46.02746" lon="0.25589">
        <ele>136.2</ele>
        <time>2022-04-03T15:10:19Z</time>
      </trkpt>
      <trkpt lat="46.02745" lon="0.25586">
        <ele>136.4</ele>
        <time>2022-04-03T15:10:20Z</time>
      </trkpt>
      <trkpt lat="46.02743" lon="0.25582">
        <ele>136.6</ele>
        <time>2022-04-03T15:10:21Z</time>
      </trkpt>
      <trkpt lat="46.02742" lon="0.2558">
        <ele>136.6</ele>
        <time>2022-04-03T15:10:22Z</time>
      </trkpt>
      <trkpt lat="46.02742" lon="0.25578">
        <ele>136.6</ele>
        <time>2022-04-03T15:10:23Z</time>
      </trkpt>
      <trkpt lat="46.02741" lon="0.25576">
        <ele>136.6</ele>
        <time>2022-04-03T15:10:24Z</time>
      </trkpt>
      <trkpt lat="46.0274" lon="0.25572">
        <ele>136.8</ele>
        <time>2022-04-03T15:10:25Z</time>
      </trkpt>
      <trkpt lat="46.02738" lon="0.25568">
        <ele>137</ele>
        <time>2022-04-03T15:10:26Z</time>
      </trkpt>
      <trkpt lat="46.02736" lon="0.25565">
        <ele>137.2</ele>
        <time>2022-04-03T15:10:27Z</time>
      </trkpt>
      <trkpt lat="46.02735" lon="0.25562">
        <ele>137.2</ele>
        <time>2022-04-03T15:10:28Z</time>
      </trkpt>
      <trkpt lat="46.02734" lon="0.25559">
        <ele>137.4</ele>
        <time>2022-04-03T15:10:29Z</time>
      </trkpt>
      <trkpt lat="46.02733" lon="0.25556">
        <ele>137.2</ele>
        <time>2022-04-03T15:10:30Z</time>
      </trkpt>
      <trkpt lat="46.02732" lon="0.25553">
        <ele>137.4</ele>
        <time>2022-04-03T15:10:31Z</time>
      </trkpt>
      <trkpt lat="46.0273" lon="0.2555">
        <ele>137.6</ele>
        <time>2022-04-03T15:10:32Z</time>
      </trkpt>
      <trkpt lat="46.02729" lon="0.25546">
        <ele>137.8</ele>
        <time>2022-04-03T15:10:33Z</time>
      </trkpt>
      <trkpt lat="46.02727" lon="0.25542">
        <ele>137.8</ele>
        <time>2022-04-03T15:10:34Z</time>
      </trkpt>
      <trkpt lat="46.02725" lon="0.25539">
        <ele>137.8</ele>
        <time>2022-04-03T15:10:35Z</time>
      </trkpt>
      <trkpt lat="46.02724" lon="0.25535">
        <ele>137.8</ele>
        <time>2022-04-03T15:10:36Z</time>
      </trkpt>
      <trkpt lat="46.02722" lon="0.25531">
        <ele>138</ele>
        <time>2022-04-03T15:10:37Z</time>
      </trkpt>
      <trkpt lat="46.0272" lon="0.25527">
        <ele>138</ele>
        <time>2022-04-03T15:10:38Z</time>
      </trkpt>
      <trkpt lat="46.02718" lon="0.25523">
        <ele>138</ele>
        <time>2022-04-03T15:10:39Z</time>
      </trkpt>
      <trkpt lat="46.02716" lon="0.25518">
        <ele>138.2</ele>
        <time>2022-04-03T15:10:40Z</time>
      </trkpt>
      <trkpt lat="46.02714" lon="0.25513">
        <ele>138</ele>
        <time>2022-04-03T15:10:41Z</time>
      </trkpt>
      <trkpt lat="46.02711" lon="0.25507">
        <ele>138.2</ele>
        <time>2022-04-03T15:10:42Z</time>
      </trkpt>
      <trkpt lat="46.02709" lon="0.25502">
        <ele>138.2</ele>
        <time>2022-04-03T15:10:43Z</time>
      </trkpt>
      <trkpt lat="46.02707" lon="0.25496">
        <ele>138.2</ele>
        <time>2022-04-03T15:10:44Z</time>
      </trkpt>
      <trkpt lat="46.02705" lon="0.25491">
        <ele>138.4</ele>
        <time>2022-04-03T15:10:45Z</time>
      </trkpt>
      <trkpt lat="46.02703" lon="0.25485">
        <ele>138.2</ele>
        <time>2022-04-03T15:10:46Z</time>
      </trkpt>
      <trkpt lat="46.027" lon="0.25479">
        <ele>138.4</ele>
        <time>2022-04-03T15:10:47Z</time>
      </trkpt>
      <trkpt lat="46.02697" lon="0.25473">
        <ele>138.4</ele>
        <time>2022-04-03T15:10:48Z</time>
      </trkpt>
      <trkpt lat="46.02695" lon="0.25466">
        <ele>138.4</ele>
        <time>2022-04-03T15:10:49Z</time>
      </trkpt>
      <trkpt lat="46.02693" lon="0.2546">
        <ele>138.2</ele>
        <time>2022-04-03T15:10:50Z</time>
      </trkpt>
      <trkpt lat="46.02692" lon="0.25454">
        <ele>138.2</ele>
        <time>2022-04-03T15:10:51Z</time>
      </trkpt>
      <trkpt lat="46.0269" lon="0.25448">
        <ele>138.2</ele>
        <time>2022-04-03T15:10:52Z</time>
      </trkpt>
      <trkpt lat="46.02688" lon="0.25441">
        <ele>138.2</ele>
        <time>2022-04-03T15:10:53Z</time>
      </trkpt>
      <trkpt lat="46.02686" lon="0.25435">
        <ele>138.2</ele>
        <time>2022-04-03T15:10:54Z</time>
      </trkpt>
      <trkpt lat="46.02685" lon="0.25429">
        <ele>138</ele>
        <time>2022-04-03T15:10:55Z</time>
      </trkpt>
      <trkpt lat="46.02683" lon="0.25423">
        <ele>138</ele>
        <time>2022-04-03T15:10:56Z</time>
      </trkpt>
      <trkpt lat="46.02681" lon="0.25417">
        <ele>137.8</ele>
        <time>2022-04-03T15:10:57Z</time>
      </trkpt>
      <trkpt lat="46.02679" lon="0.2541">
        <ele>137.8</ele>
        <time>2022-04-03T15:10:58Z</time>
      </trkpt>
      <trkpt lat="46.02677" lon="0.25404">
        <ele>137.8</ele>
        <time>2022-04-03T15:10:59Z</time>
      </trkpt>
      <trkpt lat="46.02676" lon="0.25398">
        <ele>137.6</ele>
        <time>2022-04-03T15:11:00Z</time>
      </trkpt>
      <trkpt lat="46.02674" lon="0.25391">
        <ele>137.6</ele>
        <time>2022-04-03T15:11:01Z</time>
      </trkpt>
      <trkpt lat="46.02672" lon="0.25385">
        <ele>137.4</ele>
        <time>2022-04-03T15:11:02Z</time>
      </trkpt>
      <trkpt lat="46.0267" lon="0.25378">
        <ele>137.2</ele>
        <time>2022-04-03T15:11:03Z</time>
      </trkpt>
      <trkpt lat="46.02669" lon="0.25371">
        <ele>137.2</ele>
        <time>2022-04-03T15:11:04Z</time>
      </trkpt>
      <trkpt lat="46.02667" lon="0.25364">
        <ele>137.2</ele>
        <time>2022-04-03T15:11:05Z</time>
      </trkpt>
      <trkpt lat="46.02665" lon="0.25357">
        <ele>137.2</ele>
        <time>2022-04-03T15:11:06Z</time>
      </trkpt>
      <trkpt lat="46.02663" lon="0.2535">
        <ele>137</ele>
        <time>2022-04-03T15:11:07Z</time>
      </trkpt>
      <trkpt lat="46.02661" lon="0.25343">
        <ele>136.8</ele>
        <time>2022-04-03T15:11:08Z</time>
      </trkpt>
      <trkpt lat="46.0266" lon="0.25335">
        <ele>136.8</ele>
        <time>2022-04-03T15:11:09Z</time>
      </trkpt>
      <trkpt lat="46.02659" lon="0.25327">
        <ele>136.6</ele>
        <time>2022-04-03T15:11:10Z</time>
      </trkpt>
      <trkpt lat="46.02657" lon="0.25319">
        <ele>136.6</ele>
        <time>2022-04-03T15:11:11Z</time>
      </trkpt>
      <trkpt lat="46.02657" lon="0.25311">
        <ele>136.8</ele>
        <time>2022-04-03T15:11:12Z</time>
      </trkpt>
      <trkpt lat="46.02656" lon="0.25302">
        <ele>136.8</ele>
        <time>2022-04-03T15:11:13Z</time>
      </trkpt>
      <trkpt lat="46.02656" lon="0.25293">
        <ele>136.6</ele>
        <time>2022-04-03T15:11:14Z</time>
      </trkpt>
      <trkpt lat="46.02655" lon="0.25283">
        <ele>136.4</ele>
        <time>2022-04-03T15:11:15Z</time>
      </trkpt>
      <trkpt lat="46.02655" lon="0.25274">
        <ele>136.6</ele>
        <time>2022-04-03T15:11:16Z</time>
      </trkpt>
      <trkpt lat="46.02655" lon="0.25265">
        <ele>136.4</ele>
        <time>2022-04-03T15:11:17Z</time>
      </trkpt>
      <trkpt lat="46.02655" lon="0.25257">
        <ele>136.2</ele>
        <time>2022-04-03T15:11:18Z</time>
      </trkpt>
      <trkpt lat="46.02655" lon="0.25248">
        <ele>135.8</ele>
        <time>2022-04-03T15:11:19Z</time>
      </trkpt>
      <trkpt lat="46.02656" lon="0.2524">
        <ele>135.6</ele>
        <time>2022-04-03T15:11:20Z</time>
      </trkpt>
      <trkpt lat="46.02656" lon="0.25232">
        <ele>135.6</ele>
        <time>2022-04-03T15:11:21Z</time>
      </trkpt>
      <trkpt lat="46.02657" lon="0.25223">
        <ele>135.2</ele>
        <time>2022-04-03T15:11:22Z</time>
      </trkpt>
      <trkpt lat="46.02657" lon="0.25215">
        <ele>135.2</ele>
        <time>2022-04-03T15:11:23Z</time>
      </trkpt>
      <trkpt lat="46.02657" lon="0.25205">
        <ele>134.8</ele>
        <time>2022-04-03T15:11:24Z</time>
      </trkpt>
      <trkpt lat="46.02657" lon="0.25196">
        <ele>134.4</ele>
        <time>2022-04-03T15:11:25Z</time>
      </trkpt>
      <trkpt lat="46.02657" lon="0.25186">
        <ele>134.2</ele>
        <time>2022-04-03T15:11:26Z</time>
      </trkpt>
      <trkpt lat="46.02656" lon="0.25176">
        <ele>134</ele>
        <time>2022-04-03T15:11:27Z</time>
      </trkpt>
      <trkpt lat="46.02656" lon="0.25167">
        <ele>133.8</ele>
        <time>2022-04-03T15:11:28Z</time>
      </trkpt>
      <trkpt lat="46.02656" lon="0.25157">
        <ele>133.6</ele>
        <time>2022-04-03T15:11:29Z</time>
      </trkpt>
      <trkpt lat="46.02655" lon="0.25147">
        <ele>133.6</ele>
        <time>2022-04-03T15:11:30Z</time>
      </trkpt>
      <trkpt lat="46.02654" lon="0.25138">
        <ele>133.4</ele>
        <time>2022-04-03T15:11:31Z</time>
      </trkpt>
      <trkpt lat="46.02653" lon="0.25129">
        <ele>133.4</ele>
        <time>2022-04-03T15:11:32Z</time>
      </trkpt>
      <trkpt lat="46.02652" lon="0.2512">
        <ele>133.2</ele>
        <time>2022-04-03T15:11:33Z</time>
      </trkpt>
      <trkpt lat="46.02651" lon="0.2511">
        <ele>133</ele>
        <time>2022-04-03T15:11:34Z</time>
      </trkpt>
      <trkpt lat="46.0265" lon="0.25101">
        <ele>133.2</ele>
        <time>2022-04-03T15:11:35Z</time>
      </trkpt>
      <trkpt lat="46.02648" lon="0.25092">
        <ele>132.8</ele>
        <time>2022-04-03T15:11:36Z</time>
      </trkpt>
      <trkpt lat="46.02647" lon="0.25082">
        <ele>132.6</ele>
        <time>2022-04-03T15:11:37Z</time>
      </trkpt>
      <trkpt lat="46.02646" lon="0.25073">
        <ele>132.6</ele>
        <time>2022-04-03T15:11:38Z</time>
      </trkpt>
      <trkpt lat="46.02644" lon="0.25064">
        <ele>132.6</ele>
        <time>2022-04-03T15:11:39Z</time>
      </trkpt>
      <trkpt lat="46.02643" lon="0.25054">
        <ele>132.4</ele>
        <time>2022-04-03T15:11:40Z</time>
      </trkpt>
      <trkpt lat="46.02641" lon="0.25045">
        <ele>132.2</ele>
        <time>2022-04-03T15:11:41Z</time>
      </trkpt>
      <trkpt lat="46.02639" lon="0.25035">
        <ele>132.2</ele>
        <time>2022-04-03T15:11:42Z</time>
      </trkpt>
      <trkpt lat="46.02637" lon="0.25025">
        <ele>132.2</ele>
        <time>2022-04-03T15:11:43Z</time>
      </trkpt>
      <trkpt lat="46.02635" lon="0.25016">
        <ele>132.2</ele>
        <time>2022-04-03T15:11:44Z</time>
      </trkpt>
      <trkpt lat="46.02634" lon="0.25006">
        <ele>132</ele>
        <time>2022-04-03T15:11:45Z</time>
      </trkpt>
      <trkpt lat="46.02632" lon="0.24996">
        <ele>132</ele>
        <time>2022-04-03T15:11:46Z</time>
      </trkpt>
      <trkpt lat="46.0263" lon="0.24987">
        <ele>131.8</ele>
        <time>2022-04-03T15:11:47Z</time>
      </trkpt>
      <trkpt lat="46.02628" lon="0.24976">
        <ele>131.8</ele>
        <time>2022-04-03T15:11:48Z</time>
      </trkpt>
      <trkpt lat="46.02626" lon="0.24966">
        <ele>131.8</ele>
        <time>2022-04-03T15:11:49Z</time>
      </trkpt>
      <trkpt lat="46.02624" lon="0.24956">
        <ele>131.6</ele>
        <time>2022-04-03T15:11:50Z</time>
      </trkpt>
      <trkpt lat="46.02622" lon="0.24945">
        <ele>131.8</ele>
        <time>2022-04-03T15:11:51Z</time>
      </trkpt>
      <trkpt lat="46.0262" lon="0.24934">
        <ele>131.6</ele>
        <time>2022-04-03T15:11:52Z</time>
      </trkpt>
      <trkpt lat="46.02618" lon="0.24924">
        <ele>131.6</ele>
        <time>2022-04-03T15:11:53Z</time>
      </trkpt>
      <trkpt lat="46.02616" lon="0.24912">
        <ele>131.2</ele>
        <time>2022-04-03T15:11:54Z</time>
      </trkpt>
      <trkpt lat="46.02614" lon="0.24901">
        <ele>131.4</ele>
        <time>2022-04-03T15:11:55Z</time>
      </trkpt>
      <trkpt lat="46.02612" lon="0.2489">
        <ele>131</ele>
        <time>2022-04-03T15:11:56Z</time>
      </trkpt>
      <trkpt lat="46.0261" lon="0.24878">
        <ele>130.8</ele>
        <time>2022-04-03T15:11:57Z</time>
      </trkpt>
      <trkpt lat="46.02608" lon="0.24866">
        <ele>130.2</ele>
        <time>2022-04-03T15:11:58Z</time>
      </trkpt>
      <trkpt lat="46.02606" lon="0.24854">
        <ele>129.8</ele>
        <time>2022-04-03T15:11:59Z</time>
      </trkpt>
      <trkpt lat="46.02604" lon="0.24842">
        <ele>129.2</ele>
        <time>2022-04-03T15:12:00Z</time>
      </trkpt>
      <trkpt lat="46.02602" lon="0.2483">
        <ele>128.8</ele>
        <time>2022-04-03T15:12:01Z</time>
      </trkpt>
      <trkpt lat="46.026" lon="0.24818">
        <ele>128.6</ele>
        <time>2022-04-03T15:12:02Z</time>
      </trkpt>
      <trkpt lat="46.02598" lon="0.24807">
        <ele>128.6</ele>
        <time>2022-04-03T15:12:03Z</time>
      </trkpt>
      <trkpt lat="46.02596" lon="0.24795">
        <ele>128</ele>
        <time>2022-04-03T15:12:04Z</time>
      </trkpt>
      <trkpt lat="46.02594" lon="0.24783">
        <ele>127.6</ele>
        <time>2022-04-03T15:12:05Z</time>
      </trkpt>
      <trkpt lat="46.02592" lon="0.24771">
        <ele>126.6</ele>
        <time>2022-04-03T15:12:06Z</time>
      </trkpt>
      <trkpt lat="46.0259" lon="0.24759">
        <ele>126</ele>
        <time>2022-04-03T15:12:07Z</time>
      </trkpt>
      <trkpt lat="46.02587" lon="0.24748">
        <ele>126</ele>
        <time>2022-04-03T15:12:08Z</time>
      </trkpt>
      <trkpt lat="46.02585" lon="0.24737">
        <ele>125.6</ele>
        <time>2022-04-03T15:12:09Z</time>
      </trkpt>
      <trkpt lat="46.02582" lon="0.24726">
        <ele>125.2</ele>
        <time>2022-04-03T15:12:10Z</time>
      </trkpt>
      <trkpt lat="46.02579" lon="0.24716">
        <ele>125</ele>
        <time>2022-04-03T15:12:11Z</time>
      </trkpt>
      <trkpt lat="46.02575" lon="0.24707">
        <ele>124.8</ele>
        <time>2022-04-03T15:12:12Z</time>
      </trkpt>
      <trkpt lat="46.02571" lon="0.24698">
        <ele>124.8</ele>
        <time>2022-04-03T15:12:13Z</time>
      </trkpt>
      <trkpt lat="46.02567" lon="0.2469">
        <ele>124.6</ele>
        <time>2022-04-03T15:12:14Z</time>
      </trkpt>
      <trkpt lat="46.02562" lon="0.24682">
        <ele>124.6</ele>
        <time>2022-04-03T15:12:15Z</time>
      </trkpt>
      <trkpt lat="46.02558" lon="0.24675">
        <ele>124.6</ele>
        <time>2022-04-03T15:12:16Z</time>
      </trkpt>
      <trkpt lat="46.02553" lon="0.24668">
        <ele>124.6</ele>
        <time>2022-04-03T15:12:17Z</time>
      </trkpt>
      <trkpt lat="46.02547" lon="0.24661">
        <ele>124.6</ele>
        <time>2022-04-03T15:12:18Z</time>
      </trkpt>
      <trkpt lat="46.02542" lon="0.24655">
        <ele>124.6</ele>
        <time>2022-04-03T15:12:19Z</time>
      </trkpt>
      <trkpt lat="46.02537" lon="0.24649">
        <ele>124.6</ele>
        <time>2022-04-03T15:12:20Z</time>
      </trkpt>
      <trkpt lat="46.02532" lon="0.24643">
        <ele>124.6</ele>
        <time>2022-04-03T15:12:21Z</time>
      </trkpt>
      <trkpt lat="46.02526" lon="0.24637">
        <ele>124.8</ele>
        <time>2022-04-03T15:12:22Z</time>
      </trkpt>
      <trkpt lat="46.02521" lon="0.24632">
        <ele>124.8</ele>
        <time>2022-04-03T15:12:23Z</time>
      </trkpt>
      <trkpt lat="46.02516" lon="0.24626">
        <ele>125</ele>
        <time>2022-04-03T15:12:24Z</time>
      </trkpt>
      <trkpt lat="46.02511" lon="0.2462">
        <ele>125</ele>
        <time>2022-04-03T15:12:25Z</time>
      </trkpt>
      <trkpt lat="46.02506" lon="0.24614">
        <ele>125.2</ele>
        <time>2022-04-03T15:12:26Z</time>
      </trkpt>
      <trkpt lat="46.02501" lon="0.24609">
        <ele>125.2</ele>
        <time>2022-04-03T15:12:27Z</time>
      </trkpt>
      <trkpt lat="46.02496" lon="0.24603">
        <ele>125.2</ele>
        <time>2022-04-03T15:12:28Z</time>
      </trkpt>
      <trkpt lat="46.02491" lon="0.24598">
        <ele>125.2</ele>
        <time>2022-04-03T15:12:29Z</time>
      </trkpt>
      <trkpt lat="46.02486" lon="0.24594">
        <ele>125</ele>
        <time>2022-04-03T15:12:30Z</time>
      </trkpt>
      <trkpt lat="46.02481" lon="0.24589">
        <ele>125</ele>
        <time>2022-04-03T15:12:31Z</time>
      </trkpt>
      <trkpt lat="46.02476" lon="0.24583">
        <ele>125.2</ele>
        <time>2022-04-03T15:12:32Z</time>
      </trkpt>
      <trkpt lat="46.02472" lon="0.24578">
        <ele>125.2</ele>
        <time>2022-04-03T15:12:33Z</time>
      </trkpt>
      <trkpt lat="46.02469" lon="0.24572">
        <ele>125.2</ele>
        <time>2022-04-03T15:12:34Z</time>
      </trkpt>
      <trkpt lat="46.02466" lon="0.24564">
        <ele>125.2</ele>
        <time>2022-04-03T15:12:35Z</time>
      </trkpt>
      <trkpt lat="46.02464" lon="0.24556">
        <ele>125.2</ele>
        <time>2022-04-03T15:12:36Z</time>
      </trkpt>
      <trkpt lat="46.02464" lon="0.24547">
        <ele>125.2</ele>
        <time>2022-04-03T15:12:37Z</time>
      </trkpt>
      <trkpt lat="46.02464" lon="0.24538">
        <ele>125.4</ele>
        <time>2022-04-03T15:12:38Z</time>
      </trkpt>
      <trkpt lat="46.02466" lon="0.24528">
        <ele>125.4</ele>
        <time>2022-04-03T15:12:39Z</time>
      </trkpt>
      <trkpt lat="46.02467" lon="0.24519">
        <ele>125.4</ele>
        <time>2022-04-03T15:12:40Z</time>
      </trkpt>
      <trkpt lat="46.02468" lon="0.24509">
        <ele>125.2</ele>
        <time>2022-04-03T15:12:41Z</time>
      </trkpt>
      <trkpt lat="46.0247" lon="0.245">
        <ele>125.2</ele>
        <time>2022-04-03T15:12:42Z</time>
      </trkpt>
      <trkpt lat="46.02471" lon="0.2449">
        <ele>125.4</ele>
        <time>2022-04-03T15:12:43Z</time>
      </trkpt>
      <trkpt lat="46.02472" lon="0.2448">
        <ele>125.2</ele>
        <time>2022-04-03T15:12:44Z</time>
      </trkpt>
      <trkpt lat="46.02473" lon="0.2447">
        <ele>125</ele>
        <time>2022-04-03T15:12:45Z</time>
      </trkpt>
      <trkpt lat="46.02474" lon="0.2446">
        <ele>125</ele>
        <time>2022-04-03T15:12:46Z</time>
      </trkpt>
      <trkpt lat="46.02475" lon="0.2445">
        <ele>125</ele>
        <time>2022-04-03T15:12:47Z</time>
      </trkpt>
      <trkpt lat="46.02476" lon="0.24441">
        <ele>125</ele>
        <time>2022-04-03T15:12:48Z</time>
      </trkpt>
      <trkpt lat="46.02477" lon="0.24431">
        <ele>124.4</ele>
        <time>2022-04-03T15:12:49Z</time>
      </trkpt>
      <trkpt lat="46.02478" lon="0.24421">
        <ele>124</ele>
        <time>2022-04-03T15:12:50Z</time>
      </trkpt>
      <trkpt lat="46.02479" lon="0.24411">
        <ele>123.8</ele>
        <time>2022-04-03T15:12:51Z</time>
      </trkpt>
      <trkpt lat="46.0248" lon="0.24402">
        <ele>123.6</ele>
        <time>2022-04-03T15:12:52Z</time>
      </trkpt>
      <trkpt lat="46.02481" lon="0.24392">
        <ele>123.6</ele>
        <time>2022-04-03T15:12:53Z</time>
      </trkpt>
      <trkpt lat="46.02482" lon="0.24383">
        <ele>123.6</ele>
        <time>2022-04-03T15:12:54Z</time>
      </trkpt>
      <trkpt lat="46.02483" lon="0.24373">
        <ele>123.6</ele>
        <time>2022-04-03T15:12:55Z</time>
      </trkpt>
      <trkpt lat="46.02484" lon="0.24363">
        <ele>123.6</ele>
        <time>2022-04-03T15:12:56Z</time>
      </trkpt>
      <trkpt lat="46.02485" lon="0.24354">
        <ele>123.6</ele>
        <time>2022-04-03T15:12:57Z</time>
      </trkpt>
      <trkpt lat="46.02486" lon="0.24344">
        <ele>123.4</ele>
        <time>2022-04-03T15:12:58Z</time>
      </trkpt>
      <trkpt lat="46.02488" lon="0.24334">
        <ele>123.4</ele>
        <time>2022-04-03T15:12:59Z</time>
      </trkpt>
      <trkpt lat="46.02489" lon="0.24324">
        <ele>123.4</ele>
        <time>2022-04-03T15:13:00Z</time>
      </trkpt>
      <trkpt lat="46.0249" lon="0.24314">
        <ele>123.4</ele>
        <time>2022-04-03T15:13:01Z</time>
      </trkpt>
      <trkpt lat="46.02491" lon="0.24304">
        <ele>123.4</ele>
        <time>2022-04-03T15:13:02Z</time>
      </trkpt>
      <trkpt lat="46.02492" lon="0.24293">
        <ele>123.4</ele>
        <time>2022-04-03T15:13:03Z</time>
      </trkpt>
      <trkpt lat="46.02493" lon="0.24283">
        <ele>123.4</ele>
        <time>2022-04-03T15:13:04Z</time>
      </trkpt>
      <trkpt lat="46.02494" lon="0.24273">
        <ele>123.4</ele>
        <time>2022-04-03T15:13:05Z</time>
      </trkpt>
      <trkpt lat="46.02495" lon="0.24262">
        <ele>123.2</ele>
        <time>2022-04-03T15:13:06Z</time>
      </trkpt>
      <trkpt lat="46.02496" lon="0.24252">
        <ele>123.2</ele>
        <time>2022-04-03T15:13:07Z</time>
      </trkpt>
      <trkpt lat="46.02497" lon="0.24241">
        <ele>123</ele>
        <time>2022-04-03T15:13:08Z</time>
      </trkpt>
      <trkpt lat="46.02498" lon="0.2423">
        <ele>122.6</ele>
        <time>2022-04-03T15:13:09Z</time>
      </trkpt>
      <trkpt lat="46.025" lon="0.2422">
        <ele>122.2</ele>
        <time>2022-04-03T15:13:10Z</time>
      </trkpt>
      <trkpt lat="46.02501" lon="0.24209">
        <ele>122</ele>
        <time>2022-04-03T15:13:11Z</time>
      </trkpt>
      <trkpt lat="46.02502" lon="0.24198">
        <ele>121.6</ele>
        <time>2022-04-03T15:13:12Z</time>
      </trkpt>
      <trkpt lat="46.02503" lon="0.24188">
        <ele>121.4</ele>
        <time>2022-04-03T15:13:13Z</time>
      </trkpt>
      <trkpt lat="46.02504" lon="0.24177">
        <ele>121.2</ele>
        <time>2022-04-03T15:13:14Z</time>
      </trkpt>
      <trkpt lat="46.02505" lon="0.24166">
        <ele>121</ele>
        <time>2022-04-03T15:13:15Z</time>
      </trkpt>
      <trkpt lat="46.02506" lon="0.24156">
        <ele>121</ele>
        <time>2022-04-03T15:13:16Z</time>
      </trkpt>
      <trkpt lat="46.02507" lon="0.24145">
        <ele>120.8</ele>
        <time>2022-04-03T15:13:17Z</time>
      </trkpt>
      <trkpt lat="46.02508" lon="0.24135">
        <ele>120.6</ele>
        <time>2022-04-03T15:13:18Z</time>
      </trkpt>
      <trkpt lat="46.0251" lon="0.24125">
        <ele>120.4</ele>
        <time>2022-04-03T15:13:19Z</time>
      </trkpt>
      <trkpt lat="46.02511" lon="0.24114">
        <ele>120</ele>
        <time>2022-04-03T15:13:20Z</time>
      </trkpt>
      <trkpt lat="46.02512" lon="0.24104">
        <ele>119.6</ele>
        <time>2022-04-03T15:13:21Z</time>
      </trkpt>
      <trkpt lat="46.02513" lon="0.24093">
        <ele>119.2</ele>
        <time>2022-04-03T15:13:22Z</time>
      </trkpt>
      <trkpt lat="46.02514" lon="0.24083">
        <ele>119.2</ele>
        <time>2022-04-03T15:13:23Z</time>
      </trkpt>
      <trkpt lat="46.02515" lon="0.24072">
        <ele>119.2</ele>
        <time>2022-04-03T15:13:24Z</time>
      </trkpt>
      <trkpt lat="46.02516" lon="0.24062">
        <ele>118.8</ele>
        <time>2022-04-03T15:13:25Z</time>
      </trkpt>
      <trkpt lat="46.02518" lon="0.24052">
        <ele>118.8</ele>
        <time>2022-04-03T15:13:26Z</time>
      </trkpt>
      <trkpt lat="46.02519" lon="0.24042">
        <ele>118.6</ele>
        <time>2022-04-03T15:13:27Z</time>
      </trkpt>
      <trkpt lat="46.0252" lon="0.24031">
        <ele>118.4</ele>
        <time>2022-04-03T15:13:28Z</time>
      </trkpt>
      <trkpt lat="46.02521" lon="0.24022">
        <ele>118.2</ele>
        <time>2022-04-03T15:13:29Z</time>
      </trkpt>
      <trkpt lat="46.02522" lon="0.24012">
        <ele>118</ele>
        <time>2022-04-03T15:13:30Z</time>
      </trkpt>
      <trkpt lat="46.02522" lon="0.24002">
        <ele>117.8</ele>
        <time>2022-04-03T15:13:31Z</time>
      </trkpt>
      <trkpt lat="46.02523" lon="0.23993">
        <ele>117.4</ele>
        <time>2022-04-03T15:13:32Z</time>
      </trkpt>
      <trkpt lat="46.02524" lon="0.23983">
        <ele>117.4</ele>
        <time>2022-04-03T15:13:33Z</time>
      </trkpt>
      <trkpt lat="46.02525" lon="0.23973">
        <ele>116.8</ele>
        <time>2022-04-03T15:13:34Z</time>
      </trkpt>
      <trkpt lat="46.02526" lon="0.23964">
        <ele>116.4</ele>
        <time>2022-04-03T15:13:35Z</time>
      </trkpt>
      <trkpt lat="46.02527" lon="0.23954">
        <ele>116.4</ele>
        <time>2022-04-03T15:13:36Z</time>
      </trkpt>
      <trkpt lat="46.02528" lon="0.23945">
        <ele>116.4</ele>
        <time>2022-04-03T15:13:37Z</time>
      </trkpt>
      <trkpt lat="46.02529" lon="0.23935">
        <ele>116.2</ele>
        <time>2022-04-03T15:13:38Z</time>
      </trkpt>
      <trkpt lat="46.0253" lon="0.23926">
        <ele>116</ele>
        <time>2022-04-03T15:13:39Z</time>
      </trkpt>
      <trkpt lat="46.02532" lon="0.23917">
        <ele>115.4</ele>
        <time>2022-04-03T15:13:40Z</time>
      </trkpt>
      <trkpt lat="46.02534" lon="0.23907">
        <ele>115.4</ele>
        <time>2022-04-03T15:13:41Z</time>
      </trkpt>
      <trkpt lat="46.02536" lon="0.23897">
        <ele>115.4</ele>
        <time>2022-04-03T15:13:42Z</time>
      </trkpt>
      <trkpt lat="46.02538" lon="0.23888">
        <ele>115.2</ele>
        <time>2022-04-03T15:13:43Z</time>
      </trkpt>
      <trkpt lat="46.0254" lon="0.23878">
        <ele>115</ele>
        <time>2022-04-03T15:13:44Z</time>
      </trkpt>
      <trkpt lat="46.02543" lon="0.23869">
        <ele>115</ele>
        <time>2022-04-03T15:13:45Z</time>
      </trkpt>
      <trkpt lat="46.02547" lon="0.2386">
        <ele>114.8</ele>
        <time>2022-04-03T15:13:46Z</time>
      </trkpt>
      <trkpt lat="46.0255" lon="0.23851">
        <ele>114.8</ele>
        <time>2022-04-03T15:13:47Z</time>
      </trkpt>
      <trkpt lat="46.02554" lon="0.23842">
        <ele>114.6</ele>
        <time>2022-04-03T15:13:48Z</time>
      </trkpt>
      <trkpt lat="46.02559" lon="0.23833">
        <ele>114</ele>
        <time>2022-04-03T15:13:49Z</time>
      </trkpt>
      <trkpt lat="46.02564" lon="0.23825">
        <ele>113.6</ele>
        <time>2022-04-03T15:13:50Z</time>
      </trkpt>
      <trkpt lat="46.02569" lon="0.23818">
        <ele>113.2</ele>
        <time>2022-04-03T15:13:51Z</time>
      </trkpt>
      <trkpt lat="46.02574" lon="0.2381">
        <ele>113</ele>
        <time>2022-04-03T15:13:52Z</time>
      </trkpt>
      <trkpt lat="46.02579" lon="0.23802">
        <ele>113</ele>
        <time>2022-04-03T15:13:53Z</time>
      </trkpt>
      <trkpt lat="46.02584" lon="0.23795">
        <ele>112.4</ele>
        <time>2022-04-03T15:13:54Z</time>
      </trkpt>
      <trkpt lat="46.02589" lon="0.23787">
        <ele>112</ele>
        <time>2022-04-03T15:13:55Z</time>
      </trkpt>
      <trkpt lat="46.02595" lon="0.23779">
        <ele>111.6</ele>
        <time>2022-04-03T15:13:56Z</time>
      </trkpt>
      <trkpt lat="46.026" lon="0.23771">
        <ele>110.8</ele>
        <time>2022-04-03T15:13:57Z</time>
      </trkpt>
      <trkpt lat="46.02605" lon="0.23764">
        <ele>110.4</ele>
        <time>2022-04-03T15:13:58Z</time>
      </trkpt>
      <trkpt lat="46.0261" lon="0.23756">
        <ele>110.2</ele>
        <time>2022-04-03T15:13:59Z</time>
      </trkpt>
      <trkpt lat="46.02615" lon="0.23749">
        <ele>110</ele>
        <time>2022-04-03T15:14:00Z</time>
      </trkpt>
      <trkpt lat="46.0262" lon="0.23742">
        <ele>110</ele>
        <time>2022-04-03T15:14:01Z</time>
      </trkpt>
      <trkpt lat="46.02626" lon="0.23735">
        <ele>109.4</ele>
        <time>2022-04-03T15:14:02Z</time>
      </trkpt>
      <trkpt lat="46.02631" lon="0.23727">
        <ele>108.8</ele>
        <time>2022-04-03T15:14:03Z</time>
      </trkpt>
      <trkpt lat="46.02636" lon="0.2372">
        <ele>108.6</ele>
        <time>2022-04-03T15:14:04Z</time>
      </trkpt>
      <trkpt lat="46.0264" lon="0.23713">
        <ele>107.8</ele>
        <time>2022-04-03T15:14:05Z</time>
      </trkpt>
      <trkpt lat="46.02645" lon="0.23706">
        <ele>107.4</ele>
        <time>2022-04-03T15:14:06Z</time>
      </trkpt>
      <trkpt lat="46.0265" lon="0.23699">
        <ele>107</ele>
        <time>2022-04-03T15:14:07Z</time>
      </trkpt>
      <trkpt lat="46.02654" lon="0.23692">
        <ele>106.6</ele>
        <time>2022-04-03T15:14:08Z</time>
      </trkpt>
      <trkpt lat="46.02659" lon="0.23685">
        <ele>106.2</ele>
        <time>2022-04-03T15:14:09Z</time>
      </trkpt>
      <trkpt lat="46.02664" lon="0.23679">
        <ele>105.6</ele>
        <time>2022-04-03T15:14:10Z</time>
      </trkpt>
      <trkpt lat="46.02669" lon="0.23672">
        <ele>105.4</ele>
        <time>2022-04-03T15:14:11Z</time>
      </trkpt>
      <trkpt lat="46.02673" lon="0.23666">
        <ele>105.2</ele>
        <time>2022-04-03T15:14:12Z</time>
      </trkpt>
      <trkpt lat="46.02678" lon="0.2366">
        <ele>105</ele>
        <time>2022-04-03T15:14:13Z</time>
      </trkpt>
      <trkpt lat="46.02682" lon="0.23653">
        <ele>105</ele>
        <time>2022-04-03T15:14:14Z</time>
      </trkpt>
      <trkpt lat="46.02687" lon="0.23647">
        <ele>104.8</ele>
        <time>2022-04-03T15:14:15Z</time>
      </trkpt>
      <trkpt lat="46.02691" lon="0.23641">
        <ele>104.8</ele>
        <time>2022-04-03T15:14:16Z</time>
      </trkpt>
      <trkpt lat="46.02695" lon="0.23634">
        <ele>104.8</ele>
        <time>2022-04-03T15:14:17Z</time>
      </trkpt>
      <trkpt lat="46.027" lon="0.23628">
        <ele>104.8</ele>
        <time>2022-04-03T15:14:18Z</time>
      </trkpt>
      <trkpt lat="46.02704" lon="0.23621">
        <ele>104.6</ele>
        <time>2022-04-03T15:14:19Z</time>
      </trkpt>
      <trkpt lat="46.02708" lon="0.23615">
        <ele>104.6</ele>
        <time>2022-04-03T15:14:20Z</time>
      </trkpt>
      <trkpt lat="46.02712" lon="0.23609">
        <ele>104.6</ele>
        <time>2022-04-03T15:14:21Z</time>
      </trkpt>
      <trkpt lat="46.02716" lon="0.23602">
        <ele>104.6</ele>
        <time>2022-04-03T15:14:22Z</time>
      </trkpt>
      <trkpt lat="46.0272" lon="0.23595">
        <ele>104.6</ele>
        <time>2022-04-03T15:14:23Z</time>
      </trkpt>
      <trkpt lat="46.02723" lon="0.23587">
        <ele>104.6</ele>
        <time>2022-04-03T15:14:24Z</time>
      </trkpt>
      <trkpt lat="46.02726" lon="0.2358">
        <ele>104.6</ele>
        <time>2022-04-03T15:14:25Z</time>
      </trkpt>
      <trkpt lat="46.02729" lon="0.23572">
        <ele>104.6</ele>
        <time>2022-04-03T15:14:26Z</time>
      </trkpt>
      <trkpt lat="46.02732" lon="0.23564">
        <ele>104.4</ele>
        <time>2022-04-03T15:14:27Z</time>
      </trkpt>
      <trkpt lat="46.02733" lon="0.23555">
        <ele>104.4</ele>
        <time>2022-04-03T15:14:28Z</time>
      </trkpt>
      <trkpt lat="46.02734" lon="0.23546">
        <ele>104.4</ele>
        <time>2022-04-03T15:14:29Z</time>
      </trkpt>
      <trkpt lat="46.02734" lon="0.23536">
        <ele>104.2</ele>
        <time>2022-04-03T15:14:30Z</time>
      </trkpt>
      <trkpt lat="46.02734" lon="0.23526">
        <ele>104.2</ele>
        <time>2022-04-03T15:14:31Z</time>
      </trkpt>
      <trkpt lat="46.02733" lon="0.23517">
        <ele>104.2</ele>
        <time>2022-04-03T15:14:32Z</time>
      </trkpt>
      <trkpt lat="46.02732" lon="0.23507">
        <ele>104.2</ele>
        <time>2022-04-03T15:14:33Z</time>
      </trkpt>
      <trkpt lat="46.02731" lon="0.23497">
        <ele>104.2</ele>
        <time>2022-04-03T15:14:34Z</time>
      </trkpt>
      <trkpt lat="46.02728" lon="0.23487">
        <ele>104.2</ele>
        <time>2022-04-03T15:14:35Z</time>
      </trkpt>
      <trkpt lat="46.02725" lon="0.23478">
        <ele>104</ele>
        <time>2022-04-03T15:14:36Z</time>
      </trkpt>
      <trkpt lat="46.02721" lon="0.23469">
        <ele>103.8</ele>
        <time>2022-04-03T15:14:37Z</time>
      </trkpt>
      <trkpt lat="46.02717" lon="0.2346">
        <ele>103.6</ele>
        <time>2022-04-03T15:14:38Z</time>
      </trkpt>
      <trkpt lat="46.02712" lon="0.23451">
        <ele>103.6</ele>
        <time>2022-04-03T15:14:39Z</time>
      </trkpt>
      <trkpt lat="46.02707" lon="0.23443">
        <ele>103.4</ele>
        <time>2022-04-03T15:14:40Z</time>
      </trkpt>
      <trkpt lat="46.02701" lon="0.23435">
        <ele>103.2</ele>
        <time>2022-04-03T15:14:41Z</time>
      </trkpt>
      <trkpt lat="46.02696" lon="0.23428">
        <ele>103</ele>
        <time>2022-04-03T15:14:42Z</time>
      </trkpt>
      <trkpt lat="46.0269" lon="0.23421">
        <ele>102.8</ele>
        <time>2022-04-03T15:14:43Z</time>
      </trkpt>
      <trkpt lat="46.02683" lon="0.23415">
        <ele>102.6</ele>
        <time>2022-04-03T15:14:44Z</time>
      </trkpt>
      <trkpt lat="46.02676" lon="0.2341">
        <ele>102.6</ele>
        <time>2022-04-03T15:14:45Z</time>
      </trkpt>
      <trkpt lat="46.02669" lon="0.23406">
        <ele>102.2</ele>
        <time>2022-04-03T15:14:46Z</time>
      </trkpt>
      <trkpt lat="46.02662" lon="0.23401">
        <ele>102</ele>
        <time>2022-04-03T15:14:47Z</time>
      </trkpt>
      <trkpt lat="46.02655" lon="0.23397">
        <ele>102.2</ele>
        <time>2022-04-03T15:14:48Z</time>
      </trkpt>
      <trkpt lat="46.02648" lon="0.23394">
        <ele>101.6</ele>
        <time>2022-04-03T15:14:49Z</time>
      </trkpt>
      <trkpt lat="46.0264" lon="0.23391">
        <ele>101.6</ele>
        <time>2022-04-03T15:14:50Z</time>
      </trkpt>
      <trkpt lat="46.02633" lon="0.23388">
        <ele>101.2</ele>
        <time>2022-04-03T15:14:51Z</time>
      </trkpt>
      <trkpt lat="46.02625" lon="0.23385">
        <ele>101</ele>
        <time>2022-04-03T15:14:52Z</time>
      </trkpt>
      <trkpt lat="46.02617" lon="0.23382">
        <ele>101</ele>
        <time>2022-04-03T15:14:53Z</time>
      </trkpt>
      <trkpt lat="46.0261" lon="0.23379">
        <ele>100.8</ele>
        <time>2022-04-03T15:14:54Z</time>
      </trkpt>
      <trkpt lat="46.02601" lon="0.23376">
        <ele>100.8</ele>
        <time>2022-04-03T15:14:55Z</time>
      </trkpt>
      <trkpt lat="46.02594" lon="0.23372">
        <ele>100.8</ele>
        <time>2022-04-03T15:14:56Z</time>
      </trkpt>
      <trkpt lat="46.02586" lon="0.23368">
        <ele>100.8</ele>
        <time>2022-04-03T15:14:57Z</time>
      </trkpt>
      <trkpt lat="46.02577" lon="0.23365">
        <ele>100.2</ele>
        <time>2022-04-03T15:14:58Z</time>
      </trkpt>
      <trkpt lat="46.02568" lon="0.23362">
        <ele>100</ele>
        <time>2022-04-03T15:14:59Z</time>
      </trkpt>
      <trkpt lat="46.0256" lon="0.23359">
        <ele>99.8</ele>
        <time>2022-04-03T15:15:00Z</time>
      </trkpt>
      <trkpt lat="46.02551" lon="0.23355">
        <ele>99.2</ele>
        <time>2022-04-03T15:15:01Z</time>
      </trkpt>
      <trkpt lat="46.02542" lon="0.23352">
        <ele>98.8</ele>
        <time>2022-04-03T15:15:02Z</time>
      </trkpt>
      <trkpt lat="46.02532" lon="0.23349">
        <ele>98.6</ele>
        <time>2022-04-03T15:15:03Z</time>
      </trkpt>
      <trkpt lat="46.02523" lon="0.23345">
        <ele>98.2</ele>
        <time>2022-04-03T15:15:04Z</time>
      </trkpt>
      <trkpt lat="46.02513" lon="0.2334">
        <ele>98</ele>
        <time>2022-04-03T15:15:05Z</time>
      </trkpt>
      <trkpt lat="46.02504" lon="0.23336">
        <ele>97.4</ele>
        <time>2022-04-03T15:15:06Z</time>
      </trkpt>
      <trkpt lat="46.02494" lon="0.23332">
        <ele>97.2</ele>
        <time>2022-04-03T15:15:07Z</time>
      </trkpt>
      <trkpt lat="46.02484" lon="0.23327">
        <ele>96.6</ele>
        <time>2022-04-03T15:15:08Z</time>
      </trkpt>
      <trkpt lat="46.02474" lon="0.23323">
        <ele>95.6</ele>
        <time>2022-04-03T15:15:09Z</time>
      </trkpt>
      <trkpt lat="46.02464" lon="0.23319">
        <ele>95</ele>
        <time>2022-04-03T15:15:10Z</time>
      </trkpt>
      <trkpt lat="46.02454" lon="0.23314">
        <ele>94.6</ele>
        <time>2022-04-03T15:15:11Z</time>
      </trkpt>
      <trkpt lat="46.02444" lon="0.23308">
        <ele>93.6</ele>
        <time>2022-04-03T15:15:12Z</time>
      </trkpt>
      <trkpt lat="46.02434" lon="0.23301">
        <ele>93.2</ele>
        <time>2022-04-03T15:15:13Z</time>
      </trkpt>
      <trkpt lat="46.02425" lon="0.23292">
        <ele>92.2</ele>
        <time>2022-04-03T15:15:14Z</time>
      </trkpt>
      <trkpt lat="46.02417" lon="0.23282">
        <ele>91.2</ele>
        <time>2022-04-03T15:15:15Z</time>
      </trkpt>
      <trkpt lat="46.0241" lon="0.2327">
        <ele>91.2</ele>
        <time>2022-04-03T15:15:16Z</time>
      </trkpt>
      <trkpt lat="46.02405" lon="0.23256">
        <ele>90.6</ele>
        <time>2022-04-03T15:15:17Z</time>
      </trkpt>
      <trkpt lat="46.02401" lon="0.23241">
        <ele>89.8</ele>
        <time>2022-04-03T15:15:18Z</time>
      </trkpt>
      <trkpt lat="46.02399" lon="0.23225">
        <ele>89.2</ele>
        <time>2022-04-03T15:15:19Z</time>
      </trkpt>
      <trkpt lat="46.02399" lon="0.23209">
        <ele>88.8</ele>
        <time>2022-04-03T15:15:20Z</time>
      </trkpt>
      <trkpt lat="46.024" lon="0.23193">
        <ele>87.8</ele>
        <time>2022-04-03T15:15:21Z</time>
      </trkpt>
      <trkpt lat="46.024" lon="0.23177">
        <ele>87.2</ele>
        <time>2022-04-03T15:15:22Z</time>
      </trkpt>
      <trkpt lat="46.02401" lon="0.23162">
        <ele>86.4</ele>
        <time>2022-04-03T15:15:23Z</time>
      </trkpt>
      <trkpt lat="46.02401" lon="0.23147">
        <ele>85.6</ele>
        <time>2022-04-03T15:15:24Z</time>
      </trkpt>
      <trkpt lat="46.02401" lon="0.23132">
        <ele>84.8</ele>
        <time>2022-04-03T15:15:25Z</time>
      </trkpt>
      <trkpt lat="46.02402" lon="0.23118">
        <ele>84</ele>
        <time>2022-04-03T15:15:26Z</time>
      </trkpt>
      <trkpt lat="46.02402" lon="0.23103">
        <ele>83</ele>
        <time>2022-04-03T15:15:27Z</time>
      </trkpt>
      <trkpt lat="46.02403" lon="0.23089">
        <ele>81.6</ele>
        <time>2022-04-03T15:15:28Z</time>
      </trkpt>
      <trkpt lat="46.02403" lon="0.23076">
        <ele>80.6</ele>
        <time>2022-04-03T15:15:29Z</time>
      </trkpt>
      <trkpt lat="46.02404" lon="0.23062">
        <ele>80</ele>
        <time>2022-04-03T15:15:30Z</time>
      </trkpt>
      <trkpt lat="46.02405" lon="0.23049">
        <ele>79.6</ele>
        <time>2022-04-03T15:15:31Z</time>
      </trkpt>
      <trkpt lat="46.02406" lon="0.23036">
        <ele>79.4</ele>
        <time>2022-04-03T15:15:32Z</time>
      </trkpt>
      <trkpt lat="46.02406" lon="0.23024">
        <ele>79.2</ele>
        <time>2022-04-03T15:15:33Z</time>
      </trkpt>
      <trkpt lat="46.02407" lon="0.23012">
        <ele>79</ele>
        <time>2022-04-03T15:15:34Z</time>
      </trkpt>
      <trkpt lat="46.02407" lon="0.23001">
        <ele>79</ele>
        <time>2022-04-03T15:15:35Z</time>
      </trkpt>
      <trkpt lat="46.02408" lon="0.2299">
        <ele>78.8</ele>
        <time>2022-04-03T15:15:36Z</time>
      </trkpt>
      <trkpt lat="46.02409" lon="0.2298">
        <ele>79</ele>
        <time>2022-04-03T15:15:37Z</time>
      </trkpt>
      <trkpt lat="46.0241" lon="0.22971">
        <ele>79</ele>
        <time>2022-04-03T15:15:38Z</time>
      </trkpt>
      <trkpt lat="46.0241" lon="0.22962">
        <ele>79</ele>
        <time>2022-04-03T15:15:39Z</time>
      </trkpt>
      <trkpt lat="46.02411" lon="0.22953">
        <ele>79</ele>
        <time>2022-04-03T15:15:40Z</time>
      </trkpt>
      <trkpt lat="46.02413" lon="0.22945">
        <ele>79.2</ele>
        <time>2022-04-03T15:15:41Z</time>
      </trkpt>
      <trkpt lat="46.02414" lon="0.22938">
        <ele>79</ele>
        <time>2022-04-03T15:15:42Z</time>
      </trkpt>
      <trkpt lat="46.02415" lon="0.2293">
        <ele>79.2</ele>
        <time>2022-04-03T15:15:43Z</time>
      </trkpt>
      <trkpt lat="46.02416" lon="0.22923">
        <ele>79.2</ele>
        <time>2022-04-03T15:15:44Z</time>
      </trkpt>
      <trkpt lat="46.02417" lon="0.22916">
        <ele>79.2</ele>
        <time>2022-04-03T15:15:45Z</time>
      </trkpt>
      <trkpt lat="46.02419" lon="0.22909">
        <ele>79.2</ele>
        <time>2022-04-03T15:15:46Z</time>
      </trkpt>
      <trkpt lat="46.0242" lon="0.22901">
        <ele>80</ele>
        <time>2022-04-03T15:15:47Z</time>
      </trkpt>
      <trkpt lat="46.02422" lon="0.22894">
        <ele>80.6</ele>
        <time>2022-04-03T15:15:48Z</time>
      </trkpt>
      <trkpt lat="46.02423" lon="0.22886">
        <ele>80.8</ele>
        <time>2022-04-03T15:15:49Z</time>
      </trkpt>
      <trkpt lat="46.02424" lon="0.22878">
        <ele>80.8</ele>
        <time>2022-04-03T15:15:50Z</time>
      </trkpt>
      <trkpt lat="46.02425" lon="0.22869">
        <ele>81</ele>
        <time>2022-04-03T15:15:51Z</time>
      </trkpt>
      <trkpt lat="46.02427" lon="0.22861">
        <ele>81</ele>
        <time>2022-04-03T15:15:52Z</time>
      </trkpt>
      <trkpt lat="46.02427" lon="0.22853">
        <ele>81</ele>
        <time>2022-04-03T15:15:53Z</time>
      </trkpt>
      <trkpt lat="46.02428" lon="0.22846">
        <ele>81</ele>
        <time>2022-04-03T15:15:54Z</time>
      </trkpt>
      <trkpt lat="46.02429" lon="0.22839">
        <ele>81</ele>
        <time>2022-04-03T15:15:55Z</time>
      </trkpt>
      <trkpt lat="46.0243" lon="0.22832">
        <ele>81</ele>
        <time>2022-04-03T15:15:56Z</time>
      </trkpt>
      <trkpt lat="46.02431" lon="0.22826">
        <ele>81</ele>
        <time>2022-04-03T15:15:57Z</time>
      </trkpt>
      <trkpt lat="46.02432" lon="0.22821">
        <ele>81.4</ele>
        <time>2022-04-03T15:15:58Z</time>
      </trkpt>
      <trkpt lat="46.02433" lon="0.22816">
        <ele>81.4</ele>
        <time>2022-04-03T15:15:59Z</time>
      </trkpt>
      <trkpt lat="46.02434" lon="0.22812">
        <ele>81.6</ele>
        <time>2022-04-03T15:16:00Z</time>
      </trkpt>
      <trkpt lat="46.02434" lon="0.22808">
        <ele>81.8</ele>
        <time>2022-04-03T15:16:01Z</time>
      </trkpt>
      <trkpt lat="46.02435" lon="0.22804">
        <ele>81.8</ele>
        <time>2022-04-03T15:16:02Z</time>
      </trkpt>
      <trkpt lat="46.02436" lon="0.22801">
        <ele>81.6</ele>
        <time>2022-04-03T15:16:03Z</time>
      </trkpt>
      <trkpt lat="46.02437" lon="0.22799">
        <ele>81.6</ele>
        <time>2022-04-03T15:16:04Z</time>
      </trkpt>
      <trkpt lat="46.02438" lon="0.22796">
        <ele>81.8</ele>
        <time>2022-04-03T15:16:05Z</time>
      </trkpt>
      <trkpt lat="46.02439" lon="0.22793">
        <ele>82.2</ele>
        <time>2022-04-03T15:16:06Z</time>
      </trkpt>
      <trkpt lat="46.02439" lon="0.2279">
        <ele>82.4</ele>
        <time>2022-04-03T15:16:07Z</time>
      </trkpt>
      <trkpt lat="46.0244" lon="0.22787">
        <ele>82.6</ele>
        <time>2022-04-03T15:16:08Z</time>
      </trkpt>
      <trkpt lat="46.02441" lon="0.22784">
        <ele>82.8</ele>
        <time>2022-04-03T15:16:09Z</time>
      </trkpt>
      <trkpt lat="46.02441" lon="0.22782">
        <ele>83</ele>
        <time>2022-04-03T15:16:10Z</time>
      </trkpt>
      <trkpt lat="46.02442" lon="0.22779">
        <ele>83.2</ele>
        <time>2022-04-03T15:16:11Z</time>
      </trkpt>
      <trkpt lat="46.02442" lon="0.22777">
        <ele>83.4</ele>
        <time>2022-04-03T15:16:12Z</time>
      </trkpt>
      <trkpt lat="46.02443" lon="0.22774">
        <ele>83.6</ele>
        <time>2022-04-03T15:16:13Z</time>
      </trkpt>
      <trkpt lat="46.02443" lon="0.22771">
        <ele>83.6</ele>
        <time>2022-04-03T15:16:14Z</time>
      </trkpt>
      <trkpt lat="46.02444" lon="0.22769">
        <ele>83.8</ele>
        <time>2022-04-03T15:16:15Z</time>
      </trkpt>
      <trkpt lat="46.02444" lon="0.22766">
        <ele>84</ele>
        <time>2022-04-03T15:16:16Z</time>
      </trkpt>
      <trkpt lat="46.02445" lon="0.22763">
        <ele>84</ele>
        <time>2022-04-03T15:16:17Z</time>
      </trkpt>
      <trkpt lat="46.02446" lon="0.2276">
        <ele>84.4</ele>
        <time>2022-04-03T15:16:18Z</time>
      </trkpt>
      <trkpt lat="46.02446" lon="0.22757">
        <ele>84.6</ele>
        <time>2022-04-03T15:16:19Z</time>
      </trkpt>
      <trkpt lat="46.02447" lon="0.22754">
        <ele>84.8</ele>
        <time>2022-04-03T15:16:20Z</time>
      </trkpt>
      <trkpt lat="46.02448" lon="0.22752">
        <ele>84.8</ele>
        <time>2022-04-03T15:16:21Z</time>
      </trkpt>
      <trkpt lat="46.02448" lon="0.22749">
        <ele>85</ele>
        <time>2022-04-03T15:16:22Z</time>
      </trkpt>
      <trkpt lat="46.02448" lon="0.22746">
        <ele>85.2</ele>
        <time>2022-04-03T15:16:23Z</time>
      </trkpt>
      <trkpt lat="46.02448" lon="0.22743">
        <ele>85.4</ele>
        <time>2022-04-03T15:16:24Z</time>
      </trkpt>
      <trkpt lat="46.02448" lon="0.22739">
        <ele>85.4</ele>
        <time>2022-04-03T15:16:25Z</time>
      </trkpt>
      <trkpt lat="46.02448" lon="0.22736">
        <ele>85.4</ele>
        <time>2022-04-03T15:16:26Z</time>
      </trkpt>
      <trkpt lat="46.02448" lon="0.22733">
        <ele>85.8</ele>
        <time>2022-04-03T15:16:27Z</time>
      </trkpt>
      <trkpt lat="46.02449" lon="0.2273">
        <ele>85.8</ele>
        <time>2022-04-03T15:16:28Z</time>
      </trkpt>
      <trkpt lat="46.02449" lon="0.22727">
        <ele>86</ele>
        <time>2022-04-03T15:16:29Z</time>
      </trkpt>
      <trkpt lat="46.0245" lon="0.22724">
        <ele>86</ele>
        <time>2022-04-03T15:16:31Z</time>
      </trkpt>
      <trkpt lat="46.0245" lon="0.22721">
        <ele>86.2</ele>
        <time>2022-04-03T15:16:32Z</time>
      </trkpt>
      <trkpt lat="46.0245" lon="0.22718">
        <ele>86.2</ele>
        <time>2022-04-03T15:16:33Z</time>
      </trkpt>
      <trkpt lat="46.0245" lon="0.22714">
        <ele>86.2</ele>
        <time>2022-04-03T15:16:34Z</time>
      </trkpt>
      <trkpt lat="46.0245" lon="0.22711">
        <ele>86.4</ele>
        <time>2022-04-03T15:16:35Z</time>
      </trkpt>
      <trkpt lat="46.0245" lon="0.22708">
        <ele>86.6</ele>
        <time>2022-04-03T15:16:36Z</time>
      </trkpt>
      <trkpt lat="46.02451" lon="0.22705">
        <ele>86.6</ele>
        <time>2022-04-03T15:16:37Z</time>
      </trkpt>
      <trkpt lat="46.02451" lon="0.22702">
        <ele>86.8</ele>
        <time>2022-04-03T15:16:38Z</time>
      </trkpt>
      <trkpt lat="46.02451" lon="0.22699">
        <ele>87</ele>
        <time>2022-04-03T15:16:39Z</time>
      </trkpt>
      <trkpt lat="46.02452" lon="0.22696">
        <ele>87.2</ele>
        <time>2022-04-03T15:16:40Z</time>
      </trkpt>
      <trkpt lat="46.02453" lon="0.22693">
        <ele>87.2</ele>
        <time>2022-04-03T15:16:41Z</time>
      </trkpt>
      <trkpt lat="46.02453" lon="0.2269">
        <ele>87.6</ele>
        <time>2022-04-03T15:16:42Z</time>
      </trkpt>
      <trkpt lat="46.02454" lon="0.22687">
        <ele>87.6</ele>
        <time>2022-04-03T15:16:43Z</time>
      </trkpt>
      <trkpt lat="46.02455" lon="0.22684">
        <ele>87.8</ele>
        <time>2022-04-03T15:16:44Z</time>
      </trkpt>
      <trkpt lat="46.02455" lon="0.22681">
        <ele>87.8</ele>
        <time>2022-04-03T15:16:45Z</time>
      </trkpt>
      <trkpt lat="46.02456" lon="0.22678">
        <ele>87.8</ele>
        <time>2022-04-03T15:16:46Z</time>
      </trkpt>
      <trkpt lat="46.02456" lon="0.22675">
        <ele>87.8</ele>
        <time>2022-04-03T15:16:47Z</time>
      </trkpt>
      <trkpt lat="46.02456" lon="0.22671">
        <ele>88</ele>
        <time>2022-04-03T15:16:48Z</time>
      </trkpt>
      <trkpt lat="46.02456" lon="0.22667">
        <ele>88</ele>
        <time>2022-04-03T15:16:49Z</time>
      </trkpt>
      <trkpt lat="46.02456" lon="0.22663">
        <ele>88.2</ele>
        <time>2022-04-03T15:16:50Z</time>
      </trkpt>
      <trkpt lat="46.02457" lon="0.2266">
        <ele>88.4</ele>
        <time>2022-04-03T15:16:51Z</time>
      </trkpt>
      <trkpt lat="46.02457" lon="0.22657">
        <ele>88.4</ele>
        <time>2022-04-03T15:16:52Z</time>
      </trkpt>
      <trkpt lat="46.02457" lon="0.22653">
        <ele>88.4</ele>
        <time>2022-04-03T15:16:53Z</time>
      </trkpt>
      <trkpt lat="46.02458" lon="0.2265">
        <ele>88.6</ele>
        <time>2022-04-03T15:16:54Z</time>
      </trkpt>
      <trkpt lat="46.02458" lon="0.22647">
        <ele>88.6</ele>
        <time>2022-04-03T15:16:55Z</time>
      </trkpt>
      <trkpt lat="46.02459" lon="0.22644">
        <ele>88.6</ele>
        <time>2022-04-03T15:16:56Z</time>
      </trkpt>
      <trkpt lat="46.02459" lon="0.2264">
        <ele>88.6</ele>
        <time>2022-04-03T15:16:57Z</time>
      </trkpt>
      <trkpt lat="46.0246" lon="0.22637">
        <ele>89</ele>
        <time>2022-04-03T15:16:58Z</time>
      </trkpt>
      <trkpt lat="46.0246" lon="0.22634">
        <ele>89</ele>
        <time>2022-04-03T15:16:59Z</time>
      </trkpt>
      <trkpt lat="46.02461" lon="0.2263">
        <ele>89</ele>
        <time>2022-04-03T15:17:00Z</time>
      </trkpt>
      <trkpt lat="46.02461" lon="0.22627">
        <ele>89.2</ele>
        <time>2022-04-03T15:17:01Z</time>
      </trkpt>
      <trkpt lat="46.02461" lon="0.22624">
        <ele>89.2</ele>
        <time>2022-04-03T15:17:02Z</time>
      </trkpt>
      <trkpt lat="46.02462" lon="0.22621">
        <ele>89.2</ele>
        <time>2022-04-03T15:17:03Z</time>
      </trkpt>
      <trkpt lat="46.02462" lon="0.22618">
        <ele>89.4</ele>
        <time>2022-04-03T15:17:04Z</time>
      </trkpt>
      <trkpt lat="46.02463" lon="0.22615">
        <ele>89.4</ele>
        <time>2022-04-03T15:17:05Z</time>
      </trkpt>
      <trkpt lat="46.02463" lon="0.22611">
        <ele>89.4</ele>
        <time>2022-04-03T15:17:06Z</time>
      </trkpt>
      <trkpt lat="46.02464" lon="0.22608">
        <ele>89.6</ele>
        <time>2022-04-03T15:17:07Z</time>
      </trkpt>
      <trkpt lat="46.02465" lon="0.22605">
        <ele>89.8</ele>
        <time>2022-04-03T15:17:08Z</time>
      </trkpt>
      <trkpt lat="46.02465" lon="0.22602">
        <ele>89.8</ele>
        <time>2022-04-03T15:17:09Z</time>
      </trkpt>
      <trkpt lat="46.02465" lon="0.22599">
        <ele>90</ele>
        <time>2022-04-03T15:17:10Z</time>
      </trkpt>
      <trkpt lat="46.02466" lon="0.22596">
        <ele>90</ele>
        <time>2022-04-03T15:17:11Z</time>
      </trkpt>
      <trkpt lat="46.02466" lon="0.22593">
        <ele>90</ele>
        <time>2022-04-03T15:17:12Z</time>
      </trkpt>
      <trkpt lat="46.02467" lon="0.2259">
        <ele>90</ele>
        <time>2022-04-03T15:17:13Z</time>
      </trkpt>
      <trkpt lat="46.02467" lon="0.22586">
        <ele>90.2</ele>
        <time>2022-04-03T15:17:14Z</time>
      </trkpt>
      <trkpt lat="46.02468" lon="0.22583">
        <ele>90.4</ele>
        <time>2022-04-03T15:17:15Z</time>
      </trkpt>
      <trkpt lat="46.02468" lon="0.2258">
        <ele>90.6</ele>
        <time>2022-04-03T15:17:16Z</time>
      </trkpt>
      <trkpt lat="46.02469" lon="0.22577">
        <ele>91</ele>
        <time>2022-04-03T15:17:17Z</time>
      </trkpt>
      <trkpt lat="46.02469" lon="0.22574">
        <ele>91</ele>
        <time>2022-04-03T15:17:18Z</time>
      </trkpt>
      <trkpt lat="46.0247" lon="0.2257">
        <ele>91.2</ele>
        <time>2022-04-03T15:17:19Z</time>
      </trkpt>
      <trkpt lat="46.0247" lon="0.22567">
        <ele>91.2</ele>
        <time>2022-04-03T15:17:20Z</time>
      </trkpt>
      <trkpt lat="46.02471" lon="0.22564">
        <ele>91.4</ele>
        <time>2022-04-03T15:17:21Z</time>
      </trkpt>
      <trkpt lat="46.02472" lon="0.22561">
        <ele>91.4</ele>
        <time>2022-04-03T15:17:22Z</time>
      </trkpt>
      <trkpt lat="46.02472" lon="0.22558">
        <ele>91.6</ele>
        <time>2022-04-03T15:17:23Z</time>
      </trkpt>
      <trkpt lat="46.02473" lon="0.22555">
        <ele>91.6</ele>
        <time>2022-04-03T15:17:24Z</time>
      </trkpt>
      <trkpt lat="46.02473" lon="0.22551">
        <ele>91.8</ele>
        <time>2022-04-03T15:17:25Z</time>
      </trkpt>
      <trkpt lat="46.02474" lon="0.22548">
        <ele>91.8</ele>
        <time>2022-04-03T15:17:26Z</time>
      </trkpt>
      <trkpt lat="46.02474" lon="0.22545">
        <ele>92</ele>
        <time>2022-04-03T15:17:27Z</time>
      </trkpt>
      <trkpt lat="46.02474" lon="0.22542">
        <ele>92</ele>
        <time>2022-04-03T15:17:28Z</time>
      </trkpt>
      <trkpt lat="46.02475" lon="0.22538">
        <ele>92.2</ele>
        <time>2022-04-03T15:17:29Z</time>
      </trkpt>
      <trkpt lat="46.02475" lon="0.22535">
        <ele>92.2</ele>
        <time>2022-04-03T15:17:30Z</time>
      </trkpt>
      <trkpt lat="46.02476" lon="0.22532">
        <ele>92.4</ele>
        <time>2022-04-03T15:17:31Z</time>
      </trkpt>
      <trkpt lat="46.02476" lon="0.22529">
        <ele>92.6</ele>
        <time>2022-04-03T15:17:32Z</time>
      </trkpt>
      <trkpt lat="46.02476" lon="0.22525">
        <ele>92.6</ele>
        <time>2022-04-03T15:17:33Z</time>
      </trkpt>
      <trkpt lat="46.02477" lon="0.22522">
        <ele>92.6</ele>
        <time>2022-04-03T15:17:34Z</time>
      </trkpt>
      <trkpt lat="46.02478" lon="0.22519">
        <ele>93</ele>
        <time>2022-04-03T15:17:35Z</time>
      </trkpt>
      <trkpt lat="46.02478" lon="0.22516">
        <ele>93</ele>
        <time>2022-04-03T15:17:36Z</time>
      </trkpt>
      <trkpt lat="46.02479" lon="0.22513">
        <ele>93</ele>
        <time>2022-04-03T15:17:37Z</time>
      </trkpt>
      <trkpt lat="46.0248" lon="0.2251">
        <ele>93.2</ele>
        <time>2022-04-03T15:17:38Z</time>
      </trkpt>
      <trkpt lat="46.0248" lon="0.22506">
        <ele>93.4</ele>
        <time>2022-04-03T15:17:39Z</time>
      </trkpt>
      <trkpt lat="46.02481" lon="0.22503">
        <ele>93.6</ele>
        <time>2022-04-03T15:17:40Z</time>
      </trkpt>
      <trkpt lat="46.02481" lon="0.225">
        <ele>93.6</ele>
        <time>2022-04-03T15:17:41Z</time>
      </trkpt>
      <trkpt lat="46.02482" lon="0.22497">
        <ele>93.6</ele>
        <time>2022-04-03T15:17:42Z</time>
      </trkpt>
      <trkpt lat="46.02482" lon="0.22493">
        <ele>93.6</ele>
        <time>2022-04-03T15:17:43Z</time>
      </trkpt>
      <trkpt lat="46.02483" lon="0.2249">
        <ele>94</ele>
        <time>2022-04-03T15:17:44Z</time>
      </trkpt>
      <trkpt lat="46.02483" lon="0.22487">
        <ele>94.2</ele>
        <time>2022-04-03T15:17:45Z</time>
      </trkpt>
      <trkpt lat="46.02484" lon="0.22484">
        <ele>94.2</ele>
        <time>2022-04-03T15:17:46Z</time>
      </trkpt>
      <trkpt lat="46.02484" lon="0.2248">
        <ele>94.4</ele>
        <time>2022-04-03T15:17:47Z</time>
      </trkpt>
      <trkpt lat="46.02485" lon="0.22477">
        <ele>94.8</ele>
        <time>2022-04-03T15:17:48Z</time>
      </trkpt>
      <trkpt lat="46.02485" lon="0.22474">
        <ele>94.8</ele>
        <time>2022-04-03T15:17:49Z</time>
      </trkpt>
      <trkpt lat="46.02486" lon="0.22471">
        <ele>95</ele>
        <time>2022-04-03T15:17:50Z</time>
      </trkpt>
      <trkpt lat="46.02486" lon="0.22467">
        <ele>95</ele>
        <time>2022-04-03T15:17:51Z</time>
      </trkpt>
      <trkpt lat="46.02487" lon="0.22464">
        <ele>95.2</ele>
        <time>2022-04-03T15:17:52Z</time>
      </trkpt>
      <trkpt lat="46.02487" lon="0.22461">
        <ele>95.4</ele>
        <time>2022-04-03T15:17:53Z</time>
      </trkpt>
      <trkpt lat="46.02487" lon="0.22457">
        <ele>95.6</ele>
        <time>2022-04-03T15:17:54Z</time>
      </trkpt>
      <trkpt lat="46.02488" lon="0.22454">
        <ele>95.6</ele>
        <time>2022-04-03T15:17:55Z</time>
      </trkpt>
      <trkpt lat="46.02488" lon="0.2245">
        <ele>95.6</ele>
        <time>2022-04-03T15:17:56Z</time>
      </trkpt>
      <trkpt lat="46.02488" lon="0.22447">
        <ele>96</ele>
        <time>2022-04-03T15:17:57Z</time>
      </trkpt>
      <trkpt lat="46.02489" lon="0.22444">
        <ele>96</ele>
        <time>2022-04-03T15:17:58Z</time>
      </trkpt>
      <trkpt lat="46.0249" lon="0.22441">
        <ele>96.2</ele>
        <time>2022-04-03T15:17:59Z</time>
      </trkpt>
      <trkpt lat="46.0249" lon="0.22437">
        <ele>96.2</ele>
        <time>2022-04-03T15:18:00Z</time>
      </trkpt>
      <trkpt lat="46.02491" lon="0.22434">
        <ele>96.2</ele>
        <time>2022-04-03T15:18:01Z</time>
      </trkpt>
      <trkpt lat="46.02492" lon="0.22431">
        <ele>96.2</ele>
        <time>2022-04-03T15:18:02Z</time>
      </trkpt>
      <trkpt lat="46.02492" lon="0.22428">
        <ele>96.4</ele>
        <time>2022-04-03T15:18:03Z</time>
      </trkpt>
      <trkpt lat="46.02493" lon="0.22424">
        <ele>96.8</ele>
        <time>2022-04-03T15:18:04Z</time>
      </trkpt>
      <trkpt lat="46.02493" lon="0.22421">
        <ele>97</ele>
        <time>2022-04-03T15:18:05Z</time>
      </trkpt>
      <trkpt lat="46.02493" lon="0.22418">
        <ele>97.2</ele>
        <time>2022-04-03T15:18:06Z</time>
      </trkpt>
      <trkpt lat="46.02494" lon="0.22414">
        <ele>97.2</ele>
        <time>2022-04-03T15:18:07Z</time>
      </trkpt>
      <trkpt lat="46.02494" lon="0.22411">
        <ele>97.2</ele>
        <time>2022-04-03T15:18:08Z</time>
      </trkpt>
      <trkpt lat="46.02495" lon="0.22408">
        <ele>97.4</ele>
        <time>2022-04-03T15:18:09Z</time>
      </trkpt>
      <trkpt lat="46.02495" lon="0.22404">
        <ele>97.4</ele>
        <time>2022-04-03T15:18:10Z</time>
      </trkpt>
      <trkpt lat="46.02496" lon="0.22401">
        <ele>97.6</ele>
        <time>2022-04-03T15:18:11Z</time>
      </trkpt>
      <trkpt lat="46.02496" lon="0.22398">
        <ele>97.4</ele>
        <time>2022-04-03T15:18:12Z</time>
      </trkpt>
      <trkpt lat="46.02496" lon="0.22395">
        <ele>97.6</ele>
        <time>2022-04-03T15:18:13Z</time>
      </trkpt>
      <trkpt lat="46.02497" lon="0.22391">
        <ele>97.8</ele>
        <time>2022-04-03T15:18:14Z</time>
      </trkpt>
      <trkpt lat="46.02497" lon="0.22388">
        <ele>97.8</ele>
        <time>2022-04-03T15:18:15Z</time>
      </trkpt>
      <trkpt lat="46.02497" lon="0.22385">
        <ele>97.8</ele>
        <time>2022-04-03T15:18:16Z</time>
      </trkpt>
      <trkpt lat="46.02498" lon="0.22382">
        <ele>98</ele>
        <time>2022-04-03T15:18:17Z</time>
      </trkpt>
      <trkpt lat="46.02498" lon="0.22379">
        <ele>98.2</ele>
        <time>2022-04-03T15:18:18Z</time>
      </trkpt>
      <trkpt lat="46.02499" lon="0.22376">
        <ele>98.2</ele>
        <time>2022-04-03T15:18:19Z</time>
      </trkpt>
      <trkpt lat="46.025" lon="0.22373">
        <ele>98.4</ele>
        <time>2022-04-03T15:18:20Z</time>
      </trkpt>
      <trkpt lat="46.025" lon="0.2237">
        <ele>98.6</ele>
        <time>2022-04-03T15:18:21Z</time>
      </trkpt>
      <trkpt lat="46.02501" lon="0.22366">
        <ele>98.4</ele>
        <time>2022-04-03T15:18:22Z</time>
      </trkpt>
      <trkpt lat="46.02501" lon="0.22363">
        <ele>98.8</ele>
        <time>2022-04-03T15:18:23Z</time>
      </trkpt>
      <trkpt lat="46.02502" lon="0.2236">
        <ele>98.8</ele>
        <time>2022-04-03T15:18:24Z</time>
      </trkpt>
      <trkpt lat="46.02502" lon="0.22357">
        <ele>98.8</ele>
        <time>2022-04-03T15:18:25Z</time>
      </trkpt>
      <trkpt lat="46.02503" lon="0.22353">
        <ele>98.8</ele>
        <time>2022-04-03T15:18:26Z</time>
      </trkpt>
      <trkpt lat="46.02503" lon="0.2235">
        <ele>99</ele>
        <time>2022-04-03T15:18:27Z</time>
      </trkpt>
      <trkpt lat="46.02504" lon="0.22347">
        <ele>99.2</ele>
        <time>2022-04-03T15:18:28Z</time>
      </trkpt>
      <trkpt lat="46.02504" lon="0.22344">
        <ele>99.2</ele>
        <time>2022-04-03T15:18:29Z</time>
      </trkpt>
      <trkpt lat="46.02504" lon="0.2234">
        <ele>99.4</ele>
        <time>2022-04-03T15:18:30Z</time>
      </trkpt>
      <trkpt lat="46.02505" lon="0.22337">
        <ele>99.4</ele>
        <time>2022-04-03T15:18:31Z</time>
      </trkpt>
      <trkpt lat="46.02505" lon="0.22334">
        <ele>99.4</ele>
        <time>2022-04-03T15:18:32Z</time>
      </trkpt>
      <trkpt lat="46.02506" lon="0.22331">
        <ele>99.8</ele>
        <time>2022-04-03T15:18:33Z</time>
      </trkpt>
      <trkpt lat="46.02506" lon="0.22327">
        <ele>99.8</ele>
        <time>2022-04-03T15:18:34Z</time>
      </trkpt>
      <trkpt lat="46.02507" lon="0.22324">
        <ele>100</ele>
        <time>2022-04-03T15:18:35Z</time>
      </trkpt>
      <trkpt lat="46.02507" lon="0.2232">
        <ele>100.2</ele>
        <time>2022-04-03T15:18:36Z</time>
      </trkpt>
      <trkpt lat="46.02508" lon="0.22317">
        <ele>100.4</ele>
        <time>2022-04-03T15:18:37Z</time>
      </trkpt>
      <trkpt lat="46.02508" lon="0.22314">
        <ele>100.4</ele>
        <time>2022-04-03T15:18:38Z</time>
      </trkpt>
      <trkpt lat="46.02509" lon="0.2231">
        <ele>100.6</ele>
        <time>2022-04-03T15:18:39Z</time>
      </trkpt>
      <trkpt lat="46.02509" lon="0.22307">
        <ele>100.4</ele>
        <time>2022-04-03T15:18:40Z</time>
      </trkpt>
      <trkpt lat="46.0251" lon="0.22304">
        <ele>100.4</ele>
        <time>2022-04-03T15:18:41Z</time>
      </trkpt>
      <trkpt lat="46.0251" lon="0.22301">
        <ele>100.4</ele>
        <time>2022-04-03T15:18:42Z</time>
      </trkpt>
      <trkpt lat="46.02511" lon="0.22297">
        <ele>100.6</ele>
        <time>2022-04-03T15:18:43Z</time>
      </trkpt>
      <trkpt lat="46.02511" lon="0.22294">
        <ele>100.8</ele>
        <time>2022-04-03T15:18:44Z</time>
      </trkpt>
      <trkpt lat="46.02512" lon="0.22291">
        <ele>100.8</ele>
        <time>2022-04-03T15:18:45Z</time>
      </trkpt>
      <trkpt lat="46.02512" lon="0.22287">
        <ele>101</ele>
        <time>2022-04-03T15:18:46Z</time>
      </trkpt>
      <trkpt lat="46.02513" lon="0.22284">
        <ele>101.4</ele>
        <time>2022-04-03T15:18:47Z</time>
      </trkpt>
      <trkpt lat="46.02513" lon="0.22281">
        <ele>101.6</ele>
        <time>2022-04-03T15:18:48Z</time>
      </trkpt>
      <trkpt lat="46.02513" lon="0.22277">
        <ele>101.8</ele>
        <time>2022-04-03T15:18:49Z</time>
      </trkpt>
      <trkpt lat="46.02514" lon="0.22274">
        <ele>102</ele>
        <time>2022-04-03T15:18:50Z</time>
      </trkpt>
      <trkpt lat="46.02514" lon="0.22271">
        <ele>102.2</ele>
        <time>2022-04-03T15:18:51Z</time>
      </trkpt>
      <trkpt lat="46.02515" lon="0.22268">
        <ele>102</ele>
        <time>2022-04-03T15:18:52Z</time>
      </trkpt>
      <trkpt lat="46.02515" lon="0.22264">
        <ele>102.2</ele>
        <time>2022-04-03T15:18:53Z</time>
      </trkpt>
      <trkpt lat="46.02516" lon="0.22261">
        <ele>102.4</ele>
        <time>2022-04-03T15:18:54Z</time>
      </trkpt>
      <trkpt lat="46.02516" lon="0.22258">
        <ele>102.6</ele>
        <time>2022-04-03T15:18:55Z</time>
      </trkpt>
      <trkpt lat="46.02517" lon="0.22255">
        <ele>102.8</ele>
        <time>2022-04-03T15:18:56Z</time>
      </trkpt>
      <trkpt lat="46.02517" lon="0.22251">
        <ele>102.8</ele>
        <time>2022-04-03T15:18:57Z</time>
      </trkpt>
      <trkpt lat="46.02517" lon="0.22248">
        <ele>102.8</ele>
        <time>2022-04-03T15:18:58Z</time>
      </trkpt>
      <trkpt lat="46.02518" lon="0.22245">
        <ele>103</ele>
        <time>2022-04-03T15:18:59Z</time>
      </trkpt>
      <trkpt lat="46.02519" lon="0.22242">
        <ele>102.8</ele>
        <time>2022-04-03T15:19:00Z</time>
      </trkpt>
      <trkpt lat="46.02519" lon="0.22238">
        <ele>103.2</ele>
        <time>2022-04-03T15:19:01Z</time>
      </trkpt>
      <trkpt lat="46.02519" lon="0.22235">
        <ele>103.4</ele>
        <time>2022-04-03T15:19:02Z</time>
      </trkpt>
      <trkpt lat="46.0252" lon="0.22232">
        <ele>103.4</ele>
        <time>2022-04-03T15:19:03Z</time>
      </trkpt>
      <trkpt lat="46.0252" lon="0.22228">
        <ele>103.4</ele>
        <time>2022-04-03T15:19:04Z</time>
      </trkpt>
      <trkpt lat="46.02521" lon="0.22225">
        <ele>103.6</ele>
        <time>2022-04-03T15:19:05Z</time>
      </trkpt>
      <trkpt lat="46.02521" lon="0.22222">
        <ele>103.8</ele>
        <time>2022-04-03T15:19:06Z</time>
      </trkpt>
      <trkpt lat="46.02522" lon="0.22219">
        <ele>104</ele>
        <time>2022-04-03T15:19:07Z</time>
      </trkpt>
      <trkpt lat="46.02523" lon="0.22216">
        <ele>104.2</ele>
        <time>2022-04-03T15:19:08Z</time>
      </trkpt>
      <trkpt lat="46.02523" lon="0.22212">
        <ele>104.2</ele>
        <time>2022-04-03T15:19:09Z</time>
      </trkpt>
      <trkpt lat="46.02524" lon="0.22209">
        <ele>104.4</ele>
        <time>2022-04-03T15:19:10Z</time>
      </trkpt>
      <trkpt lat="46.02524" lon="0.22206">
        <ele>104.2</ele>
        <time>2022-04-03T15:19:11Z</time>
      </trkpt>
      <trkpt lat="46.02525" lon="0.22202">
        <ele>104.4</ele>
        <time>2022-04-03T15:19:12Z</time>
      </trkpt>
      <trkpt lat="46.02525" lon="0.22199">
        <ele>104.6</ele>
        <time>2022-04-03T15:19:13Z</time>
      </trkpt>
      <trkpt lat="46.02526" lon="0.22196">
        <ele>104.6</ele>
        <time>2022-04-03T15:19:14Z</time>
      </trkpt>
      <trkpt lat="46.02526" lon="0.22192">
        <ele>104.6</ele>
        <time>2022-04-03T15:19:15Z</time>
      </trkpt>
      <trkpt lat="46.02527" lon="0.22189">
        <ele>104.8</ele>
        <time>2022-04-03T15:19:16Z</time>
      </trkpt>
      <trkpt lat="46.02527" lon="0.22185">
        <ele>104.8</ele>
        <time>2022-04-03T15:19:17Z</time>
      </trkpt>
      <trkpt lat="46.02528" lon="0.22182">
        <ele>104.8</ele>
        <time>2022-04-03T15:19:18Z</time>
      </trkpt>
      <trkpt lat="46.02528" lon="0.22179">
        <ele>104.8</ele>
        <time>2022-04-03T15:19:19Z</time>
      </trkpt>
      <trkpt lat="46.02529" lon="0.22175">
        <ele>105</ele>
        <time>2022-04-03T15:19:20Z</time>
      </trkpt>
      <trkpt lat="46.02529" lon="0.22172">
        <ele>105.2</ele>
        <time>2022-04-03T15:19:21Z</time>
      </trkpt>
      <trkpt lat="46.0253" lon="0.22168">
        <ele>105.2</ele>
        <time>2022-04-03T15:19:22Z</time>
      </trkpt>
      <trkpt lat="46.0253" lon="0.22165">
        <ele>105.4</ele>
        <time>2022-04-03T15:19:23Z</time>
      </trkpt>
      <trkpt lat="46.02531" lon="0.22161">
        <ele>105.6</ele>
        <time>2022-04-03T15:19:24Z</time>
      </trkpt>
      <trkpt lat="46.02531" lon="0.22158">
        <ele>105.8</ele>
        <time>2022-04-03T15:19:25Z</time>
      </trkpt>
      <trkpt lat="46.02532" lon="0.22154">
        <ele>105.8</ele>
        <time>2022-04-03T15:19:26Z</time>
      </trkpt>
      <trkpt lat="46.02532" lon="0.22151">
        <ele>105.8</ele>
        <time>2022-04-03T15:19:27Z</time>
      </trkpt>
      <trkpt lat="46.02533" lon="0.22147">
        <ele>106</ele>
        <time>2022-04-03T15:19:28Z</time>
      </trkpt>
      <trkpt lat="46.02533" lon="0.22144">
        <ele>106</ele>
        <time>2022-04-03T15:19:29Z</time>
      </trkpt>
      <trkpt lat="46.02534" lon="0.2214">
        <ele>106.2</ele>
        <time>2022-04-03T15:19:30Z</time>
      </trkpt>
      <trkpt lat="46.02534" lon="0.22137">
        <ele>106.4</ele>
        <time>2022-04-03T15:19:31Z</time>
      </trkpt>
      <trkpt lat="46.02535" lon="0.22133">
        <ele>106.4</ele>
        <time>2022-04-03T15:19:32Z</time>
      </trkpt>
      <trkpt lat="46.02535" lon="0.2213">
        <ele>106.6</ele>
        <time>2022-04-03T15:19:33Z</time>
      </trkpt>
      <trkpt lat="46.02536" lon="0.22126">
        <ele>106.6</ele>
        <time>2022-04-03T15:19:34Z</time>
      </trkpt>
      <trkpt lat="46.02537" lon="0.22123">
        <ele>106.8</ele>
        <time>2022-04-03T15:19:35Z</time>
      </trkpt>
      <trkpt lat="46.02537" lon="0.22119">
        <ele>107</ele>
        <time>2022-04-03T15:19:36Z</time>
      </trkpt>
      <trkpt lat="46.02537" lon="0.22116">
        <ele>107</ele>
        <time>2022-04-03T15:19:37Z</time>
      </trkpt>
      <trkpt lat="46.02538" lon="0.22112">
        <ele>107.2</ele>
        <time>2022-04-03T15:19:38Z</time>
      </trkpt>
      <trkpt lat="46.02538" lon="0.22109">
        <ele>107.4</ele>
        <time>2022-04-03T15:19:39Z</time>
      </trkpt>
      <trkpt lat="46.02539" lon="0.22105">
        <ele>107.6</ele>
        <time>2022-04-03T15:19:40Z</time>
      </trkpt>
      <trkpt lat="46.0254" lon="0.22101">
        <ele>107.6</ele>
        <time>2022-04-03T15:19:41Z</time>
      </trkpt>
      <trkpt lat="46.0254" lon="0.22098">
        <ele>107.6</ele>
        <time>2022-04-03T15:19:42Z</time>
      </trkpt>
      <trkpt lat="46.02541" lon="0.22094">
        <ele>107.6</ele>
        <time>2022-04-03T15:19:43Z</time>
      </trkpt>
      <trkpt lat="46.02541" lon="0.2209">
        <ele>107.8</ele>
        <time>2022-04-03T15:19:44Z</time>
      </trkpt>
      <trkpt lat="46.02542" lon="0.22087">
        <ele>108</ele>
        <time>2022-04-03T15:19:45Z</time>
      </trkpt>
      <trkpt lat="46.02542" lon="0.22083">
        <ele>108.2</ele>
        <time>2022-04-03T15:19:46Z</time>
      </trkpt>
      <trkpt lat="46.02543" lon="0.22079">
        <ele>108.2</ele>
        <time>2022-04-03T15:19:47Z</time>
      </trkpt>
      <trkpt lat="46.02544" lon="0.22076">
        <ele>108.2</ele>
        <time>2022-04-03T15:19:48Z</time>
      </trkpt>
      <trkpt lat="46.02544" lon="0.22072">
        <ele>108.2</ele>
        <time>2022-04-03T15:19:49Z</time>
      </trkpt>
      <trkpt lat="46.02545" lon="0.22068">
        <ele>108.2</ele>
        <time>2022-04-03T15:19:50Z</time>
      </trkpt>
      <trkpt lat="46.02545" lon="0.22064">
        <ele>108.2</ele>
        <time>2022-04-03T15:19:51Z</time>
      </trkpt>
      <trkpt lat="46.02546" lon="0.2206">
        <ele>108.4</ele>
        <time>2022-04-03T15:19:52Z</time>
      </trkpt>
      <trkpt lat="46.02546" lon="0.22056">
        <ele>108.4</ele>
        <time>2022-04-03T15:19:53Z</time>
      </trkpt>
      <trkpt lat="46.02547" lon="0.22052">
        <ele>108.4</ele>
        <time>2022-04-03T15:19:54Z</time>
      </trkpt>
      <trkpt lat="46.02548" lon="0.22047">
        <ele>108.4</ele>
        <time>2022-04-03T15:19:55Z</time>
      </trkpt>
      <trkpt lat="46.02548" lon="0.22043">
        <ele>108.4</ele>
        <time>2022-04-03T15:19:56Z</time>
      </trkpt>
      <trkpt lat="46.02549" lon="0.22038">
        <ele>108.6</ele>
        <time>2022-04-03T15:19:57Z</time>
      </trkpt>
      <trkpt lat="46.0255" lon="0.22033">
        <ele>108.6</ele>
        <time>2022-04-03T15:19:58Z</time>
      </trkpt>
      <trkpt lat="46.0255" lon="0.22028">
        <ele>108.6</ele>
        <time>2022-04-03T15:19:59Z</time>
      </trkpt>
      <trkpt lat="46.02551" lon="0.22023">
        <ele>108.6</ele>
        <time>2022-04-03T15:20:00Z</time>
      </trkpt>
      <trkpt lat="46.02552" lon="0.22018">
        <ele>108.6</ele>
        <time>2022-04-03T15:20:01Z</time>
      </trkpt>
      <trkpt lat="46.02553" lon="0.22013">
        <ele>108.6</ele>
        <time>2022-04-03T15:20:02Z</time>
      </trkpt>
      <trkpt lat="46.02553" lon="0.22008">
        <ele>108.6</ele>
        <time>2022-04-03T15:20:03Z</time>
      </trkpt>
      <trkpt lat="46.02554" lon="0.22002">
        <ele>108.8</ele>
        <time>2022-04-03T15:20:04Z</time>
      </trkpt>
      <trkpt lat="46.02555" lon="0.21997">
        <ele>108.8</ele>
        <time>2022-04-03T15:20:05Z</time>
      </trkpt>
      <trkpt lat="46.02556" lon="0.21992">
        <ele>108.8</ele>
        <time>2022-04-03T15:20:06Z</time>
      </trkpt>
      <trkpt lat="46.02556" lon="0.21986">
        <ele>109</ele>
        <time>2022-04-03T15:20:07Z</time>
      </trkpt>
      <trkpt lat="46.02557" lon="0.21981">
        <ele>109.2</ele>
        <time>2022-04-03T15:20:08Z</time>
      </trkpt>
      <trkpt lat="46.02558" lon="0.21976">
        <ele>109</ele>
        <time>2022-04-03T15:20:09Z</time>
      </trkpt>
      <trkpt lat="46.02559" lon="0.2197">
        <ele>109</ele>
        <time>2022-04-03T15:20:10Z</time>
      </trkpt>
      <trkpt lat="46.0256" lon="0.21965">
        <ele>109.2</ele>
        <time>2022-04-03T15:20:11Z</time>
      </trkpt>
      <trkpt lat="46.0256" lon="0.21959">
        <ele>109.2</ele>
        <time>2022-04-03T15:20:12Z</time>
      </trkpt>
      <trkpt lat="46.02561" lon="0.21953">
        <ele>109.4</ele>
        <time>2022-04-03T15:20:13Z</time>
      </trkpt>
      <trkpt lat="46.02562" lon="0.21947">
        <ele>109.2</ele>
        <time>2022-04-03T15:20:14Z</time>
      </trkpt>
      <trkpt lat="46.02562" lon="0.21941">
        <ele>109.2</ele>
        <time>2022-04-03T15:20:15Z</time>
      </trkpt>
      <trkpt lat="46.02563" lon="0.21934">
        <ele>109.4</ele>
        <time>2022-04-03T15:20:16Z</time>
      </trkpt>
      <trkpt lat="46.02565" lon="0.21928">
        <ele>109.2</ele>
        <time>2022-04-03T15:20:17Z</time>
      </trkpt>
      <trkpt lat="46.02566" lon="0.21921">
        <ele>109.4</ele>
        <time>2022-04-03T15:20:18Z</time>
      </trkpt>
      <trkpt lat="46.02566" lon="0.21914">
        <ele>109.4</ele>
        <time>2022-04-03T15:20:19Z</time>
      </trkpt>
      <trkpt lat="46.02568" lon="0.21908">
        <ele>109.4</ele>
        <time>2022-04-03T15:20:20Z</time>
      </trkpt>
      <trkpt lat="46.02569" lon="0.21901">
        <ele>109.2</ele>
        <time>2022-04-03T15:20:21Z</time>
      </trkpt>
      <trkpt lat="46.02569" lon="0.21894">
        <ele>109.4</ele>
        <time>2022-04-03T15:20:22Z</time>
      </trkpt>
      <trkpt lat="46.0257" lon="0.21888">
        <ele>109.4</ele>
        <time>2022-04-03T15:20:23Z</time>
      </trkpt>
      <trkpt lat="46.02571" lon="0.21881">
        <ele>109.2</ele>
        <time>2022-04-03T15:20:24Z</time>
      </trkpt>
      <trkpt lat="46.02572" lon="0.21874">
        <ele>109.2</ele>
        <time>2022-04-03T15:20:25Z</time>
      </trkpt>
      <trkpt lat="46.02573" lon="0.21867">
        <ele>108.8</ele>
        <time>2022-04-03T15:20:26Z</time>
      </trkpt>
      <trkpt lat="46.02574" lon="0.2186">
        <ele>108.8</ele>
        <time>2022-04-03T15:20:27Z</time>
      </trkpt>
      <trkpt lat="46.02575" lon="0.21853">
        <ele>108.8</ele>
        <time>2022-04-03T15:20:28Z</time>
      </trkpt>
      <trkpt lat="46.02576" lon="0.21846">
        <ele>108.6</ele>
        <time>2022-04-03T15:20:29Z</time>
      </trkpt>
      <trkpt lat="46.02577" lon="0.21839">
        <ele>108.6</ele>
        <time>2022-04-03T15:20:30Z</time>
      </trkpt>
      <trkpt lat="46.02578" lon="0.21832">
        <ele>108.4</ele>
        <time>2022-04-03T15:20:31Z</time>
      </trkpt>
      <trkpt lat="46.02579" lon="0.21824">
        <ele>108.4</ele>
        <time>2022-04-03T15:20:32Z</time>
      </trkpt>
      <trkpt lat="46.0258" lon="0.21817">
        <ele>108.2</ele>
        <time>2022-04-03T15:20:33Z</time>
      </trkpt>
      <trkpt lat="46.02581" lon="0.2181">
        <ele>108.2</ele>
        <time>2022-04-03T15:20:34Z</time>
      </trkpt>
      <trkpt lat="46.02582" lon="0.21802">
        <ele>108</ele>
        <time>2022-04-03T15:20:35Z</time>
      </trkpt>
      <trkpt lat="46.02583" lon="0.21795">
        <ele>107.8</ele>
        <time>2022-04-03T15:20:36Z</time>
      </trkpt>
      <trkpt lat="46.02584" lon="0.21787">
        <ele>107.8</ele>
        <time>2022-04-03T15:20:37Z</time>
      </trkpt>
      <trkpt lat="46.02585" lon="0.2178">
        <ele>107.6</ele>
        <time>2022-04-03T15:20:38Z</time>
      </trkpt>
      <trkpt lat="46.02587" lon="0.21772">
        <ele>107.8</ele>
        <time>2022-04-03T15:20:39Z</time>
      </trkpt>
      <trkpt lat="46.02588" lon="0.21763">
        <ele>107.6</ele>
        <time>2022-04-03T15:20:40Z</time>
      </trkpt>
      <trkpt lat="46.02589" lon="0.21755">
        <ele>107.6</ele>
        <time>2022-04-03T15:20:41Z</time>
      </trkpt>
      <trkpt lat="46.02591" lon="0.21746">
        <ele>107.6</ele>
        <time>2022-04-03T15:20:42Z</time>
      </trkpt>
      <trkpt lat="46.02592" lon="0.21737">
        <ele>107.4</ele>
        <time>2022-04-03T15:20:43Z</time>
      </trkpt>
      <trkpt lat="46.02593" lon="0.21728">
        <ele>107.2</ele>
        <time>2022-04-03T15:20:44Z</time>
      </trkpt>
      <trkpt lat="46.02595" lon="0.21719">
        <ele>107.2</ele>
        <time>2022-04-03T15:20:45Z</time>
      </trkpt>
      <trkpt lat="46.02596" lon="0.21709">
        <ele>106.8</ele>
        <time>2022-04-03T15:20:46Z</time>
      </trkpt>
      <trkpt lat="46.02598" lon="0.217">
        <ele>106.6</ele>
        <time>2022-04-03T15:20:47Z</time>
      </trkpt>
      <trkpt lat="46.02599" lon="0.2169">
        <ele>106.2</ele>
        <time>2022-04-03T15:20:48Z</time>
      </trkpt>
      <trkpt lat="46.026" lon="0.2168">
        <ele>106</ele>
        <time>2022-04-03T15:20:49Z</time>
      </trkpt>
      <trkpt lat="46.02602" lon="0.21671">
        <ele>105.8</ele>
        <time>2022-04-03T15:20:50Z</time>
      </trkpt>
      <trkpt lat="46.02603" lon="0.21661">
        <ele>105.2</ele>
        <time>2022-04-03T15:20:51Z</time>
      </trkpt>
      <trkpt lat="46.02605" lon="0.21651">
        <ele>105</ele>
        <time>2022-04-03T15:20:52Z</time>
      </trkpt>
      <trkpt lat="46.02606" lon="0.21641">
        <ele>104.4</ele>
        <time>2022-04-03T15:20:53Z</time>
      </trkpt>
      <trkpt lat="46.02608" lon="0.21631">
        <ele>104.4</ele>
        <time>2022-04-03T15:20:54Z</time>
      </trkpt>
      <trkpt lat="46.0261" lon="0.21621">
        <ele>104.4</ele>
        <time>2022-04-03T15:20:55Z</time>
      </trkpt>
      <trkpt lat="46.02611" lon="0.21611">
        <ele>104.4</ele>
        <time>2022-04-03T15:20:56Z</time>
      </trkpt>
      <trkpt lat="46.02613" lon="0.21601">
        <ele>104</ele>
        <time>2022-04-03T15:20:57Z</time>
      </trkpt>
      <trkpt lat="46.02614" lon="0.21591">
        <ele>104.2</ele>
        <time>2022-04-03T15:20:58Z</time>
      </trkpt>
      <trkpt lat="46.02616" lon="0.21581">
        <ele>103.8</ele>
        <time>2022-04-03T15:20:59Z</time>
      </trkpt>
      <trkpt lat="46.02618" lon="0.21572">
        <ele>103.8</ele>
        <time>2022-04-03T15:21:00Z</time>
      </trkpt>
      <trkpt lat="46.02619" lon="0.21563">
        <ele>103.6</ele>
        <time>2022-04-03T15:21:01Z</time>
      </trkpt>
      <trkpt lat="46.02621" lon="0.21553">
        <ele>103.4</ele>
        <time>2022-04-03T15:21:02Z</time>
      </trkpt>
      <trkpt lat="46.02623" lon="0.21544">
        <ele>103.2</ele>
        <time>2022-04-03T15:21:03Z</time>
      </trkpt>
      <trkpt lat="46.02624" lon="0.21535">
        <ele>103.2</ele>
        <time>2022-04-03T15:21:04Z</time>
      </trkpt>
      <trkpt lat="46.02626" lon="0.21525">
        <ele>103</ele>
        <time>2022-04-03T15:21:05Z</time>
      </trkpt>
      <trkpt lat="46.02628" lon="0.21516">
        <ele>102.8</ele>
        <time>2022-04-03T15:21:06Z</time>
      </trkpt>
      <trkpt lat="46.0263" lon="0.21507">
        <ele>102.8</ele>
        <time>2022-04-03T15:21:07Z</time>
      </trkpt>
      <trkpt lat="46.02632" lon="0.21498">
        <ele>102.8</ele>
        <time>2022-04-03T15:21:08Z</time>
      </trkpt>
      <trkpt lat="46.02633" lon="0.21488">
        <ele>102.8</ele>
        <time>2022-04-03T15:21:09Z</time>
      </trkpt>
      <trkpt lat="46.02635" lon="0.21479">
        <ele>102.6</ele>
        <time>2022-04-03T15:21:10Z</time>
      </trkpt>
      <trkpt lat="46.02637" lon="0.2147">
        <ele>102.6</ele>
        <time>2022-04-03T15:21:11Z</time>
      </trkpt>
      <trkpt lat="46.02638" lon="0.21461">
        <ele>102.6</ele>
        <time>2022-04-03T15:21:12Z</time>
      </trkpt>
      <trkpt lat="46.0264" lon="0.21452">
        <ele>102.2</ele>
        <time>2022-04-03T15:21:13Z</time>
      </trkpt>
      <trkpt lat="46.02641" lon="0.21443">
        <ele>102.2</ele>
        <time>2022-04-03T15:21:14Z</time>
      </trkpt>
      <trkpt lat="46.02643" lon="0.21435">
        <ele>101.8</ele>
        <time>2022-04-03T15:21:15Z</time>
      </trkpt>
      <trkpt lat="46.02645" lon="0.21426">
        <ele>101.8</ele>
        <time>2022-04-03T15:21:16Z</time>
      </trkpt>
      <trkpt lat="46.02647" lon="0.21418">
        <ele>101.8</ele>
        <time>2022-04-03T15:21:17Z</time>
      </trkpt>
      <trkpt lat="46.02648" lon="0.21409">
        <ele>101.6</ele>
        <time>2022-04-03T15:21:18Z</time>
      </trkpt>
      <trkpt lat="46.0265" lon="0.21401">
        <ele>101.4</ele>
        <time>2022-04-03T15:21:19Z</time>
      </trkpt>
      <trkpt lat="46.02652" lon="0.21393">
        <ele>101.2</ele>
        <time>2022-04-03T15:21:20Z</time>
      </trkpt>
      <trkpt lat="46.02653" lon="0.21385">
        <ele>101.2</ele>
        <time>2022-04-03T15:21:21Z</time>
      </trkpt>
      <trkpt lat="46.02655" lon="0.21377">
        <ele>101</ele>
        <time>2022-04-03T15:21:22Z</time>
      </trkpt>
      <trkpt lat="46.02656" lon="0.21369">
        <ele>101</ele>
        <time>2022-04-03T15:21:23Z</time>
      </trkpt>
      <trkpt lat="46.02658" lon="0.21361">
        <ele>101</ele>
        <time>2022-04-03T15:21:24Z</time>
      </trkpt>
      <trkpt lat="46.0266" lon="0.21353">
        <ele>100.8</ele>
        <time>2022-04-03T15:21:25Z</time>
      </trkpt>
      <trkpt lat="46.02662" lon="0.21345">
        <ele>100.8</ele>
        <time>2022-04-03T15:21:26Z</time>
      </trkpt>
      <trkpt lat="46.02663" lon="0.21336">
        <ele>100.6</ele>
        <time>2022-04-03T15:21:27Z</time>
      </trkpt>
      <trkpt lat="46.02665" lon="0.21328">
        <ele>100.8</ele>
        <time>2022-04-03T15:21:28Z</time>
      </trkpt>
      <trkpt lat="46.02667" lon="0.2132">
        <ele>100.8</ele>
        <time>2022-04-03T15:21:29Z</time>
      </trkpt>
      <trkpt lat="46.02668" lon="0.21312">
        <ele>100.8</ele>
        <time>2022-04-03T15:21:30Z</time>
      </trkpt>
      <trkpt lat="46.0267" lon="0.21304">
        <ele>100.8</ele>
        <time>2022-04-03T15:21:31Z</time>
      </trkpt>
      <trkpt lat="46.02671" lon="0.21296">
        <ele>100.8</ele>
        <time>2022-04-03T15:21:32Z</time>
      </trkpt>
      <trkpt lat="46.02673" lon="0.21288">
        <ele>100.8</ele>
        <time>2022-04-03T15:21:33Z</time>
      </trkpt>
      <trkpt lat="46.02675" lon="0.2128">
        <ele>100.8</ele>
        <time>2022-04-03T15:21:34Z</time>
      </trkpt>
      <trkpt lat="46.02676" lon="0.21272">
        <ele>100.8</ele>
        <time>2022-04-03T15:21:35Z</time>
      </trkpt>
      <trkpt lat="46.02678" lon="0.21264">
        <ele>100.6</ele>
        <time>2022-04-03T15:21:36Z</time>
      </trkpt>
      <trkpt lat="46.0268" lon="0.21257">
        <ele>100.6</ele>
        <time>2022-04-03T15:21:37Z</time>
      </trkpt>
      <trkpt lat="46.02681" lon="0.21249">
        <ele>100.4</ele>
        <time>2022-04-03T15:21:38Z</time>
      </trkpt>
      <trkpt lat="46.02683" lon="0.21241">
        <ele>100.4</ele>
        <time>2022-04-03T15:21:39Z</time>
      </trkpt>
      <trkpt lat="46.02685" lon="0.21233">
        <ele>100.4</ele>
        <time>2022-04-03T15:21:40Z</time>
      </trkpt>
      <trkpt lat="46.02686" lon="0.21224">
        <ele>100.6</ele>
        <time>2022-04-03T15:21:41Z</time>
      </trkpt>
      <trkpt lat="46.02688" lon="0.21216">
        <ele>100.6</ele>
        <time>2022-04-03T15:21:42Z</time>
      </trkpt>
      <trkpt lat="46.0269" lon="0.21209">
        <ele>100.6</ele>
        <time>2022-04-03T15:21:43Z</time>
      </trkpt>
      <trkpt lat="46.02692" lon="0.21201">
        <ele>100.8</ele>
        <time>2022-04-03T15:21:44Z</time>
      </trkpt>
      <trkpt lat="46.02693" lon="0.21193">
        <ele>100.6</ele>
        <time>2022-04-03T15:21:45Z</time>
      </trkpt>
      <trkpt lat="46.02695" lon="0.21185">
        <ele>100.8</ele>
        <time>2022-04-03T15:21:46Z</time>
      </trkpt>
      <trkpt lat="46.02697" lon="0.21178">
        <ele>101</ele>
        <time>2022-04-03T15:21:47Z</time>
      </trkpt>
      <trkpt lat="46.02698" lon="0.2117">
        <ele>101</ele>
        <time>2022-04-03T15:21:48Z</time>
      </trkpt>
      <trkpt lat="46.027" lon="0.21162">
        <ele>101.2</ele>
        <time>2022-04-03T15:21:49Z</time>
      </trkpt>
      <trkpt lat="46.02701" lon="0.21155">
        <ele>101.4</ele>
        <time>2022-04-03T15:21:50Z</time>
      </trkpt>
      <trkpt lat="46.02703" lon="0.21147">
        <ele>101.4</ele>
        <time>2022-04-03T15:21:51Z</time>
      </trkpt>
      <trkpt lat="46.02704" lon="0.21139">
        <ele>101.4</ele>
        <time>2022-04-03T15:21:52Z</time>
      </trkpt>
      <trkpt lat="46.02705" lon="0.21131">
        <ele>101.4</ele>
        <time>2022-04-03T15:21:53Z</time>
      </trkpt>
      <trkpt lat="46.02707" lon="0.21124">
        <ele>101.4</ele>
        <time>2022-04-03T15:21:54Z</time>
      </trkpt>
      <trkpt lat="46.02708" lon="0.21116">
        <ele>101.4</ele>
        <time>2022-04-03T15:21:55Z</time>
      </trkpt>
      <trkpt lat="46.0271" lon="0.21108">
        <ele>101.6</ele>
        <time>2022-04-03T15:21:56Z</time>
      </trkpt>
      <trkpt lat="46.02712" lon="0.211">
        <ele>101.6</ele>
        <time>2022-04-03T15:21:57Z</time>
      </trkpt>
      <trkpt lat="46.02713" lon="0.21093">
        <ele>101.8</ele>
        <time>2022-04-03T15:21:58Z</time>
      </trkpt>
      <trkpt lat="46.02715" lon="0.21085">
        <ele>101.8</ele>
        <time>2022-04-03T15:21:59Z</time>
      </trkpt>
      <trkpt lat="46.02716" lon="0.21077">
        <ele>101.6</ele>
        <time>2022-04-03T15:22:00Z</time>
      </trkpt>
      <trkpt lat="46.02718" lon="0.2107">
        <ele>101.8</ele>
        <time>2022-04-03T15:22:01Z</time>
      </trkpt>
      <trkpt lat="46.0272" lon="0.21062">
        <ele>101.8</ele>
        <time>2022-04-03T15:22:02Z</time>
      </trkpt>
      <trkpt lat="46.02721" lon="0.21054">
        <ele>101.6</ele>
        <time>2022-04-03T15:22:03Z</time>
      </trkpt>
      <trkpt lat="46.02723" lon="0.21045">
        <ele>101.8</ele>
        <time>2022-04-03T15:22:04Z</time>
      </trkpt>
      <trkpt lat="46.02724" lon="0.21037">
        <ele>101.8</ele>
        <time>2022-04-03T15:22:05Z</time>
      </trkpt>
      <trkpt lat="46.02725" lon="0.21029">
        <ele>101.8</ele>
        <time>2022-04-03T15:22:06Z</time>
      </trkpt>
      <trkpt lat="46.02727" lon="0.21021">
        <ele>101.8</ele>
        <time>2022-04-03T15:22:07Z</time>
      </trkpt>
      <trkpt lat="46.02728" lon="0.21013">
        <ele>101.8</ele>
        <time>2022-04-03T15:22:08Z</time>
      </trkpt>
      <trkpt lat="46.0273" lon="0.21004">
        <ele>101.8</ele>
        <time>2022-04-03T15:22:09Z</time>
      </trkpt>
      <trkpt lat="46.02731" lon="0.20996">
        <ele>101.8</ele>
        <time>2022-04-03T15:22:10Z</time>
      </trkpt>
      <trkpt lat="46.02733" lon="0.20988">
        <ele>101.8</ele>
        <time>2022-04-03T15:22:11Z</time>
      </trkpt>
      <trkpt lat="46.02735" lon="0.20979">
        <ele>101.8</ele>
        <time>2022-04-03T15:22:12Z</time>
      </trkpt>
      <trkpt lat="46.02737" lon="0.20971">
        <ele>101.8</ele>
        <time>2022-04-03T15:22:13Z</time>
      </trkpt>
      <trkpt lat="46.02738" lon="0.20962">
        <ele>101.6</ele>
        <time>2022-04-03T15:22:14Z</time>
      </trkpt>
      <trkpt lat="46.0274" lon="0.20954">
        <ele>101.6</ele>
        <time>2022-04-03T15:22:15Z</time>
      </trkpt>
      <trkpt lat="46.02742" lon="0.20946">
        <ele>101.6</ele>
        <time>2022-04-03T15:22:16Z</time>
      </trkpt>
      <trkpt lat="46.02744" lon="0.20937">
        <ele>101.2</ele>
        <time>2022-04-03T15:22:17Z</time>
      </trkpt>
      <trkpt lat="46.02745" lon="0.20929">
        <ele>101.2</ele>
        <time>2022-04-03T15:22:18Z</time>
      </trkpt>
      <trkpt lat="46.02747" lon="0.2092">
        <ele>101.2</ele>
        <time>2022-04-03T15:22:19Z</time>
      </trkpt>
      <trkpt lat="46.02749" lon="0.20912">
        <ele>101</ele>
        <time>2022-04-03T15:22:20Z</time>
      </trkpt>
      <trkpt lat="46.02751" lon="0.20904">
        <ele>101</ele>
        <time>2022-04-03T15:22:21Z</time>
      </trkpt>
      <trkpt lat="46.02753" lon="0.20895">
        <ele>100.8</ele>
        <time>2022-04-03T15:22:22Z</time>
      </trkpt>
      <trkpt lat="46.02754" lon="0.20887">
        <ele>101</ele>
        <time>2022-04-03T15:22:23Z</time>
      </trkpt>
      <trkpt lat="46.02756" lon="0.20878">
        <ele>100.6</ele>
        <time>2022-04-03T15:22:24Z</time>
      </trkpt>
      <trkpt lat="46.02758" lon="0.2087">
        <ele>100.6</ele>
        <time>2022-04-03T15:22:25Z</time>
      </trkpt>
      <trkpt lat="46.02759" lon="0.20861">
        <ele>100.4</ele>
        <time>2022-04-03T15:22:26Z</time>
      </trkpt>
      <trkpt lat="46.02761" lon="0.20853">
        <ele>100.2</ele>
        <time>2022-04-03T15:22:27Z</time>
      </trkpt>
      <trkpt lat="46.02763" lon="0.20844">
        <ele>100.2</ele>
        <time>2022-04-03T15:22:28Z</time>
      </trkpt>
      <trkpt lat="46.02764" lon="0.20836">
        <ele>100</ele>
        <time>2022-04-03T15:22:29Z</time>
      </trkpt>
      <trkpt lat="46.02766" lon="0.20828">
        <ele>100</ele>
        <time>2022-04-03T15:22:30Z</time>
      </trkpt>
      <trkpt lat="46.02768" lon="0.2082">
        <ele>100</ele>
        <time>2022-04-03T15:22:31Z</time>
      </trkpt>
      <trkpt lat="46.0277" lon="0.20813">
        <ele>99.8</ele>
        <time>2022-04-03T15:22:32Z</time>
      </trkpt>
      <trkpt lat="46.02771" lon="0.20805">
        <ele>99.8</ele>
        <time>2022-04-03T15:22:33Z</time>
      </trkpt>
      <trkpt lat="46.02773" lon="0.20797">
        <ele>99.6</ele>
        <time>2022-04-03T15:22:34Z</time>
      </trkpt>
      <trkpt lat="46.02775" lon="0.2079">
        <ele>99.4</ele>
        <time>2022-04-03T15:22:35Z</time>
      </trkpt>
      <trkpt lat="46.02776" lon="0.20782">
        <ele>99.2</ele>
        <time>2022-04-03T15:22:36Z</time>
      </trkpt>
      <trkpt lat="46.02778" lon="0.20774">
        <ele>99.2</ele>
        <time>2022-04-03T15:22:37Z</time>
      </trkpt>
      <trkpt lat="46.02779" lon="0.20767">
        <ele>99.2</ele>
        <time>2022-04-03T15:22:38Z</time>
      </trkpt>
      <trkpt lat="46.02781" lon="0.20759">
        <ele>99</ele>
        <time>2022-04-03T15:22:39Z</time>
      </trkpt>
      <trkpt lat="46.02782" lon="0.20752">
        <ele>99</ele>
        <time>2022-04-03T15:22:40Z</time>
      </trkpt>
      <trkpt lat="46.02784" lon="0.20744">
        <ele>99</ele>
        <time>2022-04-03T15:22:41Z</time>
      </trkpt>
      <trkpt lat="46.02785" lon="0.20736">
        <ele>98.8</ele>
        <time>2022-04-03T15:22:42Z</time>
      </trkpt>
      <trkpt lat="46.02786" lon="0.20728">
        <ele>98.8</ele>
        <time>2022-04-03T15:22:43Z</time>
      </trkpt>
      <trkpt lat="46.02788" lon="0.20719">
        <ele>98.8</ele>
        <time>2022-04-03T15:22:44Z</time>
      </trkpt>
      <trkpt lat="46.0279" lon="0.20711">
        <ele>98.8</ele>
        <time>2022-04-03T15:22:45Z</time>
      </trkpt>
      <trkpt lat="46.02792" lon="0.20703">
        <ele>98.6</ele>
        <time>2022-04-03T15:22:46Z</time>
      </trkpt>
      <trkpt lat="46.02794" lon="0.20694">
        <ele>98.4</ele>
        <time>2022-04-03T15:22:47Z</time>
      </trkpt>
      <trkpt lat="46.02795" lon="0.20685">
        <ele>98.6</ele>
        <time>2022-04-03T15:22:48Z</time>
      </trkpt>
      <trkpt lat="46.02797" lon="0.20677">
        <ele>98.6</ele>
        <time>2022-04-03T15:22:49Z</time>
      </trkpt>
      <trkpt lat="46.02799" lon="0.20668">
        <ele>98.4</ele>
        <time>2022-04-03T15:22:50Z</time>
      </trkpt>
      <trkpt lat="46.02801" lon="0.20659">
        <ele>98.2</ele>
        <time>2022-04-03T15:22:51Z</time>
      </trkpt>
      <trkpt lat="46.02803" lon="0.2065">
        <ele>98</ele>
        <time>2022-04-03T15:22:52Z</time>
      </trkpt>
      <trkpt lat="46.02804" lon="0.20641">
        <ele>97.2</ele>
        <time>2022-04-03T15:22:53Z</time>
      </trkpt>
      <trkpt lat="46.02806" lon="0.20632">
        <ele>96.6</ele>
        <time>2022-04-03T15:22:54Z</time>
      </trkpt>
      <trkpt lat="46.02808" lon="0.20623">
        <ele>95.8</ele>
        <time>2022-04-03T15:22:55Z</time>
      </trkpt>
      <trkpt lat="46.0281" lon="0.20614">
        <ele>95.4</ele>
        <time>2022-04-03T15:22:56Z</time>
      </trkpt>
      <trkpt lat="46.02812" lon="0.20604">
        <ele>95.4</ele>
        <time>2022-04-03T15:22:57Z</time>
      </trkpt>
      <trkpt lat="46.02813" lon="0.20594">
        <ele>94.8</ele>
        <time>2022-04-03T15:22:58Z</time>
      </trkpt>
      <trkpt lat="46.02815" lon="0.20584">
        <ele>94.4</ele>
        <time>2022-04-03T15:22:59Z</time>
      </trkpt>
      <trkpt lat="46.02816" lon="0.20574">
        <ele>94.2</ele>
        <time>2022-04-03T15:23:00Z</time>
      </trkpt>
      <trkpt lat="46.02818" lon="0.20563">
        <ele>93.8</ele>
        <time>2022-04-03T15:23:01Z</time>
      </trkpt>
      <trkpt lat="46.0282" lon="0.20553">
        <ele>93.6</ele>
        <time>2022-04-03T15:23:02Z</time>
      </trkpt>
      <trkpt lat="46.02822" lon="0.20542">
        <ele>93.2</ele>
        <time>2022-04-03T15:23:03Z</time>
      </trkpt>
      <trkpt lat="46.02824" lon="0.20532">
        <ele>93.2</ele>
        <time>2022-04-03T15:23:04Z</time>
      </trkpt>
      <trkpt lat="46.02826" lon="0.20521">
        <ele>93</ele>
        <time>2022-04-03T15:23:05Z</time>
      </trkpt>
      <trkpt lat="46.02828" lon="0.20512">
        <ele>92.8</ele>
        <time>2022-04-03T15:23:06Z</time>
      </trkpt>
      <trkpt lat="46.02831" lon="0.20503">
        <ele>92.4</ele>
        <time>2022-04-03T15:23:07Z</time>
      </trkpt>
      <trkpt lat="46.02833" lon="0.20495">
        <ele>92.4</ele>
        <time>2022-04-03T15:23:08Z</time>
      </trkpt>
      <trkpt lat="46.02835" lon="0.20487">
        <ele>92.2</ele>
        <time>2022-04-03T15:23:09Z</time>
      </trkpt>
      <trkpt lat="46.02837" lon="0.20479">
        <ele>92.2</ele>
        <time>2022-04-03T15:23:10Z</time>
      </trkpt>
      <trkpt lat="46.02838" lon="0.20472">
        <ele>91.8</ele>
        <time>2022-04-03T15:23:11Z</time>
      </trkpt>
      <trkpt lat="46.02839" lon="0.20465">
        <ele>91.4</ele>
        <time>2022-04-03T15:23:12Z</time>
      </trkpt>
      <trkpt lat="46.02841" lon="0.20458">
        <ele>91.4</ele>
        <time>2022-04-03T15:23:13Z</time>
      </trkpt>
      <trkpt lat="46.02843" lon="0.20451">
        <ele>91.2</ele>
        <time>2022-04-03T15:23:14Z</time>
      </trkpt>
      <trkpt lat="46.02845" lon="0.20445">
        <ele>91.2</ele>
        <time>2022-04-03T15:23:15Z</time>
      </trkpt>
      <trkpt lat="46.02847" lon="0.20438">
        <ele>91.2</ele>
        <time>2022-04-03T15:23:16Z</time>
      </trkpt>
      <trkpt lat="46.02848" lon="0.20431">
        <ele>91.4</ele>
        <time>2022-04-03T15:23:17Z</time>
      </trkpt>
      <trkpt lat="46.02849" lon="0.20424">
        <ele>91.4</ele>
        <time>2022-04-03T15:23:18Z</time>
      </trkpt>
      <trkpt lat="46.0285" lon="0.20417">
        <ele>91.4</ele>
        <time>2022-04-03T15:23:19Z</time>
      </trkpt>
      <trkpt lat="46.02851" lon="0.20411">
        <ele>91.4</ele>
        <time>2022-04-03T15:23:20Z</time>
      </trkpt>
      <trkpt lat="46.02853" lon="0.20404">
        <ele>91.4</ele>
        <time>2022-04-03T15:23:21Z</time>
      </trkpt>
      <trkpt lat="46.02854" lon="0.20397">
        <ele>91.4</ele>
        <time>2022-04-03T15:23:22Z</time>
      </trkpt>
      <trkpt lat="46.02856" lon="0.2039">
        <ele>91.6</ele>
        <time>2022-04-03T15:23:23Z</time>
      </trkpt>
      <trkpt lat="46.02857" lon="0.20384">
        <ele>91.4</ele>
        <time>2022-04-03T15:23:24Z</time>
      </trkpt>
      <trkpt lat="46.02858" lon="0.20378">
        <ele>91.8</ele>
        <time>2022-04-03T15:23:25Z</time>
      </trkpt>
      <trkpt lat="46.02859" lon="0.20372">
        <ele>91.8</ele>
        <time>2022-04-03T15:23:26Z</time>
      </trkpt>
      <trkpt lat="46.0286" lon="0.20367">
        <ele>91.8</ele>
        <time>2022-04-03T15:23:27Z</time>
      </trkpt>
      <trkpt lat="46.02861" lon="0.20362">
        <ele>92</ele>
        <time>2022-04-03T15:23:28Z</time>
      </trkpt>
      <trkpt lat="46.02862" lon="0.20357">
        <ele>92</ele>
        <time>2022-04-03T15:23:29Z</time>
      </trkpt>
      <trkpt lat="46.02863" lon="0.20352">
        <ele>92</ele>
        <time>2022-04-03T15:23:30Z</time>
      </trkpt>
      <trkpt lat="46.02864" lon="0.20347">
        <ele>92.2</ele>
        <time>2022-04-03T15:23:31Z</time>
      </trkpt>
      <trkpt lat="46.02866" lon="0.20343">
        <ele>92.2</ele>
        <time>2022-04-03T15:23:32Z</time>
      </trkpt>
      <trkpt lat="46.02867" lon="0.20338">
        <ele>92.4</ele>
        <time>2022-04-03T15:23:33Z</time>
      </trkpt>
      <trkpt lat="46.02868" lon="0.20334">
        <ele>92.4</ele>
        <time>2022-04-03T15:23:34Z</time>
      </trkpt>
      <trkpt lat="46.02869" lon="0.2033">
        <ele>92.8</ele>
        <time>2022-04-03T15:23:35Z</time>
      </trkpt>
      <trkpt lat="46.0287" lon="0.20326">
        <ele>93.2</ele>
        <time>2022-04-03T15:23:36Z</time>
      </trkpt>
      <trkpt lat="46.02871" lon="0.20322">
        <ele>93.4</ele>
        <time>2022-04-03T15:23:37Z</time>
      </trkpt>
      <trkpt lat="46.02873" lon="0.20319">
        <ele>93.6</ele>
        <time>2022-04-03T15:23:38Z</time>
      </trkpt>
      <trkpt lat="46.02874" lon="0.20315">
        <ele>93.8</ele>
        <time>2022-04-03T15:23:39Z</time>
      </trkpt>
      <trkpt lat="46.02875" lon="0.20312">
        <ele>93.8</ele>
        <time>2022-04-03T15:23:40Z</time>
      </trkpt>
      <trkpt lat="46.02876" lon="0.20309">
        <ele>94</ele>
        <time>2022-04-03T15:23:41Z</time>
      </trkpt>
      <trkpt lat="46.02877" lon="0.20306">
        <ele>94.2</ele>
        <time>2022-04-03T15:23:42Z</time>
      </trkpt>
      <trkpt lat="46.02878" lon="0.20303">
        <ele>94.4</ele>
        <time>2022-04-03T15:23:43Z</time>
      </trkpt>
      <trkpt lat="46.02879" lon="0.203">
        <ele>94.6</ele>
        <time>2022-04-03T15:23:44Z</time>
      </trkpt>
      <trkpt lat="46.0288" lon="0.20296">
        <ele>94.8</ele>
        <time>2022-04-03T15:23:45Z</time>
      </trkpt>
      <trkpt lat="46.0288" lon="0.20292">
        <ele>94.8</ele>
        <time>2022-04-03T15:23:46Z</time>
      </trkpt>
      <trkpt lat="46.02881" lon="0.20289">
        <ele>94.8</ele>
        <time>2022-04-03T15:23:47Z</time>
      </trkpt>
      <trkpt lat="46.02882" lon="0.20285">
        <ele>94.8</ele>
        <time>2022-04-03T15:23:48Z</time>
      </trkpt>
      <trkpt lat="46.02882" lon="0.20281">
        <ele>95</ele>
        <time>2022-04-03T15:23:49Z</time>
      </trkpt>
      <trkpt lat="46.02882" lon="0.20277">
        <ele>95.4</ele>
        <time>2022-04-03T15:23:50Z</time>
      </trkpt>
      <trkpt lat="46.02882" lon="0.20273">
        <ele>95.6</ele>
        <time>2022-04-03T15:23:51Z</time>
      </trkpt>
      <trkpt lat="46.02883" lon="0.20269">
        <ele>96</ele>
        <time>2022-04-03T15:23:52Z</time>
      </trkpt>
      <trkpt lat="46.02883" lon="0.20266">
        <ele>96</ele>
        <time>2022-04-03T15:23:53Z</time>
      </trkpt>
      <trkpt lat="46.02883" lon="0.20262">
        <ele>96</ele>
        <time>2022-04-03T15:23:54Z</time>
      </trkpt>
      <trkpt lat="46.02883" lon="0.20258">
        <ele>96.2</ele>
        <time>2022-04-03T15:23:55Z</time>
      </trkpt>
      <trkpt lat="46.02883" lon="0.20254">
        <ele>96.2</ele>
        <time>2022-04-03T15:23:56Z</time>
      </trkpt>
      <trkpt lat="46.02884" lon="0.2025">
        <ele>96.2</ele>
        <time>2022-04-03T15:23:57Z</time>
      </trkpt>
      <trkpt lat="46.02884" lon="0.20246">
        <ele>96.4</ele>
        <time>2022-04-03T15:23:58Z</time>
      </trkpt>
      <trkpt lat="46.02884" lon="0.20242">
        <ele>96.2</ele>
        <time>2022-04-03T15:23:59Z</time>
      </trkpt>
      <trkpt lat="46.02885" lon="0.20238">
        <ele>96.2</ele>
        <time>2022-04-03T15:24:00Z</time>
      </trkpt>
      <trkpt lat="46.02886" lon="0.20235">
        <ele>96.4</ele>
        <time>2022-04-03T15:24:01Z</time>
      </trkpt>
      <trkpt lat="46.02887" lon="0.20231">
        <ele>96.6</ele>
        <time>2022-04-03T15:24:02Z</time>
      </trkpt>
      <trkpt lat="46.02887" lon="0.20227">
        <ele>96.8</ele>
        <time>2022-04-03T15:24:03Z</time>
      </trkpt>
      <trkpt lat="46.02888" lon="0.20223">
        <ele>96.8</ele>
        <time>2022-04-03T15:24:04Z</time>
      </trkpt>
      <trkpt lat="46.02888" lon="0.20219">
        <ele>97.2</ele>
        <time>2022-04-03T15:24:05Z</time>
      </trkpt>
      <trkpt lat="46.02889" lon="0.20215">
        <ele>97.4</ele>
        <time>2022-04-03T15:24:06Z</time>
      </trkpt>
      <trkpt lat="46.0289" lon="0.20211">
        <ele>97.6</ele>
        <time>2022-04-03T15:24:07Z</time>
      </trkpt>
      <trkpt lat="46.0289" lon="0.20208">
        <ele>98</ele>
        <time>2022-04-03T15:24:08Z</time>
      </trkpt>
      <trkpt lat="46.02891" lon="0.20204">
        <ele>98</ele>
        <time>2022-04-03T15:24:09Z</time>
      </trkpt>
      <trkpt lat="46.02891" lon="0.202">
        <ele>98.2</ele>
        <time>2022-04-03T15:24:10Z</time>
      </trkpt>
      <trkpt lat="46.02892" lon="0.20196">
        <ele>98.2</ele>
        <time>2022-04-03T15:24:11Z</time>
      </trkpt>
      <trkpt lat="46.02893" lon="0.20193">
        <ele>98.4</ele>
        <time>2022-04-03T15:24:12Z</time>
      </trkpt>
      <trkpt lat="46.02894" lon="0.20189">
        <ele>98.6</ele>
        <time>2022-04-03T15:24:13Z</time>
      </trkpt>
      <trkpt lat="46.02895" lon="0.20185">
        <ele>98.8</ele>
        <time>2022-04-03T15:24:14Z</time>
      </trkpt>
      <trkpt lat="46.02895" lon="0.20181">
        <ele>98.6</ele>
        <time>2022-04-03T15:24:15Z</time>
      </trkpt>
      <trkpt lat="46.02895" lon="0.20178">
        <ele>98.8</ele>
        <time>2022-04-03T15:24:16Z</time>
      </trkpt>
      <trkpt lat="46.02896" lon="0.20174">
        <ele>99</ele>
        <time>2022-04-03T15:24:17Z</time>
      </trkpt>
      <trkpt lat="46.02896" lon="0.2017">
        <ele>98.8</ele>
        <time>2022-04-03T15:24:18Z</time>
      </trkpt>
      <trkpt lat="46.02897" lon="0.20167">
        <ele>99.2</ele>
        <time>2022-04-03T15:24:19Z</time>
      </trkpt>
      <trkpt lat="46.02897" lon="0.20163">
        <ele>99.2</ele>
        <time>2022-04-03T15:24:20Z</time>
      </trkpt>
      <trkpt lat="46.02898" lon="0.2016">
        <ele>99.2</ele>
        <time>2022-04-03T15:24:21Z</time>
      </trkpt>
      <trkpt lat="46.02897" lon="0.20156">
        <ele>99.2</ele>
        <time>2022-04-03T15:24:22Z</time>
      </trkpt>
      <trkpt lat="46.02897" lon="0.20152">
        <ele>99.2</ele>
        <time>2022-04-03T15:24:23Z</time>
      </trkpt>
      <trkpt lat="46.02897" lon="0.20149">
        <ele>99.4</ele>
        <time>2022-04-03T15:24:24Z</time>
      </trkpt>
      <trkpt lat="46.02897" lon="0.20145">
        <ele>99.6</ele>
        <time>2022-04-03T15:24:25Z</time>
      </trkpt>
      <trkpt lat="46.02897" lon="0.20142">
        <ele>99.6</ele>
        <time>2022-04-03T15:24:26Z</time>
      </trkpt>
      <trkpt lat="46.02897" lon="0.20138">
        <ele>99.8</ele>
        <time>2022-04-03T15:24:27Z</time>
      </trkpt>
      <trkpt lat="46.02897" lon="0.20135">
        <ele>99.8</ele>
        <time>2022-04-03T15:24:28Z</time>
      </trkpt>
      <trkpt lat="46.02897" lon="0.20131">
        <ele>100</ele>
        <time>2022-04-03T15:24:29Z</time>
      </trkpt>
      <trkpt lat="46.02898" lon="0.20128">
        <ele>100</ele>
        <time>2022-04-03T15:24:30Z</time>
      </trkpt>
      <trkpt lat="46.02898" lon="0.20125">
        <ele>100</ele>
        <time>2022-04-03T15:24:31Z</time>
      </trkpt>
      <trkpt lat="46.02898" lon="0.20122">
        <ele>100.4</ele>
        <time>2022-04-03T15:24:32Z</time>
      </trkpt>
      <trkpt lat="46.02898" lon="0.20119">
        <ele>100.4</ele>
        <time>2022-04-03T15:24:33Z</time>
      </trkpt>
      <trkpt lat="46.02898" lon="0.20115">
        <ele>100.6</ele>
        <time>2022-04-03T15:24:34Z</time>
      </trkpt>
      <trkpt lat="46.02898" lon="0.20111">
        <ele>100.6</ele>
        <time>2022-04-03T15:24:35Z</time>
      </trkpt>
      <trkpt lat="46.02898" lon="0.20108">
        <ele>101</ele>
        <time>2022-04-03T15:24:36Z</time>
      </trkpt>
      <trkpt lat="46.02898" lon="0.20104">
        <ele>101.2</ele>
        <time>2022-04-03T15:24:37Z</time>
      </trkpt>
      <trkpt lat="46.02897" lon="0.201">
        <ele>101.4</ele>
        <time>2022-04-03T15:24:38Z</time>
      </trkpt>
      <trkpt lat="46.02897" lon="0.20096">
        <ele>101.6</ele>
        <time>2022-04-03T15:24:39Z</time>
      </trkpt>
      <trkpt lat="46.02896" lon="0.20092">
        <ele>101.8</ele>
        <time>2022-04-03T15:24:40Z</time>
      </trkpt>
      <trkpt lat="46.02895" lon="0.20089">
        <ele>102</ele>
        <time>2022-04-03T15:24:41Z</time>
      </trkpt>
      <trkpt lat="46.02895" lon="0.20085">
        <ele>102</ele>
        <time>2022-04-03T15:24:42Z</time>
      </trkpt>
      <trkpt lat="46.02895" lon="0.20082">
        <ele>102.4</ele>
        <time>2022-04-03T15:24:43Z</time>
      </trkpt>
      <trkpt lat="46.02895" lon="0.20079">
        <ele>102.6</ele>
        <time>2022-04-03T15:24:44Z</time>
      </trkpt>
      <trkpt lat="46.02894" lon="0.20076">
        <ele>103</ele>
        <time>2022-04-03T15:24:45Z</time>
      </trkpt>
      <trkpt lat="46.02894" lon="0.20073">
        <ele>103</ele>
        <time>2022-04-03T15:24:46Z</time>
      </trkpt>
      <trkpt lat="46.02893" lon="0.2007">
        <ele>103.4</ele>
        <time>2022-04-03T15:24:47Z</time>
      </trkpt>
      <trkpt lat="46.02892" lon="0.20067">
        <ele>103.4</ele>
        <time>2022-04-03T15:24:48Z</time>
      </trkpt>
      <trkpt lat="46.02891" lon="0.20063">
        <ele>103.4</ele>
        <time>2022-04-03T15:24:49Z</time>
      </trkpt>
      <trkpt lat="46.02891" lon="0.20061">
        <ele>103.4</ele>
        <time>2022-04-03T15:24:50Z</time>
      </trkpt>
      <trkpt lat="46.0289" lon="0.20058">
        <ele>103.4</ele>
        <time>2022-04-03T15:24:51Z</time>
      </trkpt>
      <trkpt lat="46.0289" lon="0.20055">
        <ele>103.6</ele>
        <time>2022-04-03T15:24:52Z</time>
      </trkpt>
      <trkpt lat="46.02889" lon="0.20052">
        <ele>103.6</ele>
        <time>2022-04-03T15:24:53Z</time>
      </trkpt>
      <trkpt lat="46.02889" lon="0.20049">
        <ele>103.8</ele>
        <time>2022-04-03T15:24:54Z</time>
      </trkpt>
      <trkpt lat="46.02888" lon="0.20045">
        <ele>104</ele>
        <time>2022-04-03T15:24:55Z</time>
      </trkpt>
      <trkpt lat="46.02887" lon="0.20041">
        <ele>104.4</ele>
        <time>2022-04-03T15:24:56Z</time>
      </trkpt>
      <trkpt lat="46.02886" lon="0.20036">
        <ele>104.4</ele>
        <time>2022-04-03T15:24:57Z</time>
      </trkpt>
      <trkpt lat="46.02885" lon="0.20032">
        <ele>104.4</ele>
        <time>2022-04-03T15:24:58Z</time>
      </trkpt>
      <trkpt lat="46.02884" lon="0.20028">
        <ele>104.6</ele>
        <time>2022-04-03T15:24:59Z</time>
      </trkpt>
      <trkpt lat="46.02884" lon="0.20024">
        <ele>104.6</ele>
        <time>2022-04-03T15:25:00Z</time>
      </trkpt>
      <trkpt lat="46.02883" lon="0.2002">
        <ele>104.6</ele>
        <time>2022-04-03T15:25:01Z</time>
      </trkpt>
      <trkpt lat="46.02882" lon="0.20016">
        <ele>104.8</ele>
        <time>2022-04-03T15:25:02Z</time>
      </trkpt>
      <trkpt lat="46.02882" lon="0.20013">
        <ele>104.8</ele>
        <time>2022-04-03T15:25:03Z</time>
      </trkpt>
      <trkpt lat="46.02883" lon="0.2001">
        <ele>104.8</ele>
        <time>2022-04-03T15:25:04Z</time>
      </trkpt>
      <trkpt lat="46.02884" lon="0.20007">
        <ele>104.8</ele>
        <time>2022-04-03T15:25:05Z</time>
      </trkpt>
      <trkpt lat="46.02884" lon="0.20004">
        <ele>105.2</ele>
        <time>2022-04-03T15:25:06Z</time>
      </trkpt>
      <trkpt lat="46.02884" lon="0.2">
        <ele>105</ele>
        <time>2022-04-03T15:25:07Z</time>
      </trkpt>
      <trkpt lat="46.02884" lon="0.19996">
        <ele>105</ele>
        <time>2022-04-03T15:25:08Z</time>
      </trkpt>
      <trkpt lat="46.02884" lon="0.19992">
        <ele>105</ele>
        <time>2022-04-03T15:25:09Z</time>
      </trkpt>
      <trkpt lat="46.02883" lon="0.19987">
        <ele>105</ele>
        <time>2022-04-03T15:25:10Z</time>
      </trkpt>
      <trkpt lat="46.02884" lon="0.19983">
        <ele>105.2</ele>
        <time>2022-04-03T15:25:11Z</time>
      </trkpt>
      <trkpt lat="46.02884" lon="0.1998">
        <ele>105</ele>
        <time>2022-04-03T15:25:12Z</time>
      </trkpt>
      <trkpt lat="46.02885" lon="0.19976">
        <ele>105.2</ele>
        <time>2022-04-03T15:25:13Z</time>
      </trkpt>
      <trkpt lat="46.02886" lon="0.19973">
        <ele>105.2</ele>
        <time>2022-04-03T15:25:14Z</time>
      </trkpt>
      <trkpt lat="46.02886" lon="0.1997">
        <ele>105.2</ele>
        <time>2022-04-03T15:25:15Z</time>
      </trkpt>
      <trkpt lat="46.02887" lon="0.19967">
        <ele>105.2</ele>
        <time>2022-04-03T15:25:16Z</time>
      </trkpt>
      <trkpt lat="46.02888" lon="0.19964">
        <ele>105.2</ele>
        <time>2022-04-03T15:25:17Z</time>
      </trkpt>
      <trkpt lat="46.02889" lon="0.1996">
        <ele>105.2</ele>
        <time>2022-04-03T15:25:18Z</time>
      </trkpt>
      <trkpt lat="46.02889" lon="0.19956">
        <ele>105.2</ele>
        <time>2022-04-03T15:25:19Z</time>
      </trkpt>
      <trkpt lat="46.02889" lon="0.19951">
        <ele>105.2</ele>
        <time>2022-04-03T15:25:20Z</time>
      </trkpt>
      <trkpt lat="46.02889" lon="0.19947">
        <ele>105.2</ele>
        <time>2022-04-03T15:25:21Z</time>
      </trkpt>
      <trkpt lat="46.02889" lon="0.19942">
        <ele>105.4</ele>
        <time>2022-04-03T15:25:22Z</time>
      </trkpt>
      <trkpt lat="46.02889" lon="0.19937">
        <ele>105.6</ele>
        <time>2022-04-03T15:25:23Z</time>
      </trkpt>
      <trkpt lat="46.02888" lon="0.19933">
        <ele>105.6</ele>
        <time>2022-04-03T15:25:24Z</time>
      </trkpt>
      <trkpt lat="46.02888" lon="0.19928">
        <ele>105.6</ele>
        <time>2022-04-03T15:25:25Z</time>
      </trkpt>
      <trkpt lat="46.02889" lon="0.19924">
        <ele>105.6</ele>
        <time>2022-04-03T15:25:26Z</time>
      </trkpt>
      <trkpt lat="46.0289" lon="0.1992">
        <ele>105.8</ele>
        <time>2022-04-03T15:25:27Z</time>
      </trkpt>
      <trkpt lat="46.02892" lon="0.19917">
        <ele>106</ele>
        <time>2022-04-03T15:25:28Z</time>
      </trkpt>
      <trkpt lat="46.02892" lon="0.19912">
        <ele>105.8</ele>
        <time>2022-04-03T15:25:29Z</time>
      </trkpt>
      <trkpt lat="46.02893" lon="0.19908">
        <ele>106.2</ele>
        <time>2022-04-03T15:25:30Z</time>
      </trkpt>
      <trkpt lat="46.02895" lon="0.19904">
        <ele>106.2</ele>
        <time>2022-04-03T15:25:31Z</time>
      </trkpt>
      <trkpt lat="46.02895" lon="0.199">
        <ele>106.2</ele>
        <time>2022-04-03T15:25:32Z</time>
      </trkpt>
      <trkpt lat="46.02896" lon="0.19896">
        <ele>106.4</ele>
        <time>2022-04-03T15:25:33Z</time>
      </trkpt>
      <trkpt lat="46.02896" lon="0.19892">
        <ele>106.4</ele>
        <time>2022-04-03T15:25:34Z</time>
      </trkpt>
      <trkpt lat="46.02896" lon="0.19887">
        <ele>106.6</ele>
        <time>2022-04-03T15:25:35Z</time>
      </trkpt>
      <trkpt lat="46.02896" lon="0.19881">
        <ele>106.6</ele>
        <time>2022-04-03T15:25:36Z</time>
      </trkpt>
      <trkpt lat="46.02895" lon="0.19876">
        <ele>106.6</ele>
        <time>2022-04-03T15:25:37Z</time>
      </trkpt>
      <trkpt lat="46.02895" lon="0.19871">
        <ele>106.6</ele>
        <time>2022-04-03T15:25:38Z</time>
      </trkpt>
      <trkpt lat="46.02895" lon="0.19867">
        <ele>106.6</ele>
        <time>2022-04-03T15:25:39Z</time>
      </trkpt>
      <trkpt lat="46.02896" lon="0.19863">
        <ele>106.8</ele>
        <time>2022-04-03T15:25:40Z</time>
      </trkpt>
      <trkpt lat="46.02896" lon="0.19859">
        <ele>106.8</ele>
        <time>2022-04-03T15:25:41Z</time>
      </trkpt>
      <trkpt lat="46.02897" lon="0.19854">
        <ele>106.8</ele>
        <time>2022-04-03T15:25:42Z</time>
      </trkpt>
      <trkpt lat="46.02897" lon="0.19849">
        <ele>106.6</ele>
        <time>2022-04-03T15:25:43Z</time>
      </trkpt>
      <trkpt lat="46.02896" lon="0.19843">
        <ele>106.6</ele>
        <time>2022-04-03T15:25:44Z</time>
      </trkpt>
      <trkpt lat="46.02896" lon="0.19837">
        <ele>106.8</ele>
        <time>2022-04-03T15:25:45Z</time>
      </trkpt>
      <trkpt lat="46.02896" lon="0.19831">
        <ele>107</ele>
        <time>2022-04-03T15:25:46Z</time>
      </trkpt>
      <trkpt lat="46.02896" lon="0.19826">
        <ele>106.8</ele>
        <time>2022-04-03T15:25:47Z</time>
      </trkpt>
      <trkpt lat="46.02896" lon="0.1982">
        <ele>106.8</ele>
        <time>2022-04-03T15:25:48Z</time>
      </trkpt>
      <trkpt lat="46.02896" lon="0.19813">
        <ele>106.8</ele>
        <time>2022-04-03T15:25:49Z</time>
      </trkpt>
      <trkpt lat="46.02897" lon="0.19807">
        <ele>106.8</ele>
        <time>2022-04-03T15:25:50Z</time>
      </trkpt>
      <trkpt lat="46.02897" lon="0.19801">
        <ele>106.6</ele>
        <time>2022-04-03T15:25:51Z</time>
      </trkpt>
      <trkpt lat="46.02898" lon="0.19795">
        <ele>106.8</ele>
        <time>2022-04-03T15:25:52Z</time>
      </trkpt>
      <trkpt lat="46.02899" lon="0.19789">
        <ele>106.6</ele>
        <time>2022-04-03T15:25:53Z</time>
      </trkpt>
      <trkpt lat="46.029" lon="0.19783">
        <ele>106.4</ele>
        <time>2022-04-03T15:25:54Z</time>
      </trkpt>
      <trkpt lat="46.029" lon="0.19776">
        <ele>106.4</ele>
        <time>2022-04-03T15:25:55Z</time>
      </trkpt>
      <trkpt lat="46.02899" lon="0.19768">
        <ele>106.4</ele>
        <time>2022-04-03T15:25:56Z</time>
      </trkpt>
      <trkpt lat="46.02899" lon="0.19762">
        <ele>106</ele>
        <time>2022-04-03T15:25:57Z</time>
      </trkpt>
      <trkpt lat="46.02899" lon="0.19754">
        <ele>106</ele>
        <time>2022-04-03T15:25:58Z</time>
      </trkpt>
      <trkpt lat="46.02898" lon="0.19747">
        <ele>105.8</ele>
        <time>2022-04-03T15:25:59Z</time>
      </trkpt>
      <trkpt lat="46.02898" lon="0.1974">
        <ele>105.4</ele>
        <time>2022-04-03T15:26:00Z</time>
      </trkpt>
      <trkpt lat="46.02898" lon="0.19734">
        <ele>105.2</ele>
        <time>2022-04-03T15:26:01Z</time>
      </trkpt>
      <trkpt lat="46.02898" lon="0.1973">
        <ele>105.2</ele>
        <time>2022-04-03T15:26:02Z</time>
      </trkpt>
      <trkpt lat="46.02898" lon="0.19728">
        <ele>105</ele>
        <time>2022-04-03T15:26:03Z</time>
      </trkpt>
      <trkpt lat="46.02897" lon="0.19726">
        <ele>104.8</ele>
        <time>2022-04-03T15:26:04Z</time>
      </trkpt>
      <trkpt lat="46.02897" lon="0.19725">
        <ele>104.6</ele>
        <time>2022-04-03T15:26:05Z</time>
      </trkpt>
      <trkpt lat="46.02897" lon="0.19725">
        <ele>104.4</ele>
        <time>2022-04-03T15:26:06Z</time>
      </trkpt>
      <trkpt lat="46.02897" lon="0.19718">
        <ele>104</ele>
        <time>2022-04-03T15:26:14Z</time>
      </trkpt>
      <trkpt lat="46.02896" lon="0.19716">
        <ele>104</ele>
        <time>2022-04-03T15:26:15Z</time>
      </trkpt>
      <trkpt lat="46.02896" lon="0.19713">
        <ele>104</ele>
        <time>2022-04-03T15:26:16Z</time>
      </trkpt>
      <trkpt lat="46.02896" lon="0.19709">
        <ele>104</ele>
        <time>2022-04-03T15:26:17Z</time>
      </trkpt>
      <trkpt lat="46.02897" lon="0.19706">
        <ele>104</ele>
        <time>2022-04-03T15:26:18Z</time>
      </trkpt>
      <trkpt lat="46.02897" lon="0.19704">
        <ele>104</ele>
        <time>2022-04-03T15:26:19Z</time>
      </trkpt>
      <trkpt lat="46.02897" lon="0.197">
        <ele>104</ele>
        <time>2022-04-03T15:26:20Z</time>
      </trkpt>
      <trkpt lat="46.02897" lon="0.19697">
        <ele>104</ele>
        <time>2022-04-03T15:26:21Z</time>
      </trkpt>
      <trkpt lat="46.02897" lon="0.19693">
        <ele>104</ele>
        <time>2022-04-03T15:26:22Z</time>
      </trkpt>
      <trkpt lat="46.02897" lon="0.19689">
        <ele>104.2</ele>
        <time>2022-04-03T15:26:23Z</time>
      </trkpt>
      <trkpt lat="46.02897" lon="0.19685">
        <ele>104</ele>
        <time>2022-04-03T15:26:24Z</time>
      </trkpt>
      <trkpt lat="46.02897" lon="0.19681">
        <ele>104.2</ele>
        <time>2022-04-03T15:26:25Z</time>
      </trkpt>
      <trkpt lat="46.02897" lon="0.19677">
        <ele>104.2</ele>
        <time>2022-04-03T15:26:26Z</time>
      </trkpt>
      <trkpt lat="46.02898" lon="0.19673">
        <ele>104</ele>
        <time>2022-04-03T15:26:27Z</time>
      </trkpt>
      <trkpt lat="46.02898" lon="0.19669">
        <ele>104.2</ele>
        <time>2022-04-03T15:26:28Z</time>
      </trkpt>
      <trkpt lat="46.02898" lon="0.19665">
        <ele>104.2</ele>
        <time>2022-04-03T15:26:29Z</time>
      </trkpt>
      <trkpt lat="46.02899" lon="0.19661">
        <ele>104.2</ele>
        <time>2022-04-03T15:26:30Z</time>
      </trkpt>
      <trkpt lat="46.02899" lon="0.19657">
        <ele>104.2</ele>
        <time>2022-04-03T15:26:31Z</time>
      </trkpt>
      <trkpt lat="46.02899" lon="0.19654">
        <ele>104.2</ele>
        <time>2022-04-03T15:26:32Z</time>
      </trkpt>
      <trkpt lat="46.02899" lon="0.1965">
        <ele>104.2</ele>
        <time>2022-04-03T15:26:33Z</time>
      </trkpt>
      <trkpt lat="46.02898" lon="0.19646">
        <ele>104.2</ele>
        <time>2022-04-03T15:26:34Z</time>
      </trkpt>
      <trkpt lat="46.02898" lon="0.19641">
        <ele>104.4</ele>
        <time>2022-04-03T15:26:35Z</time>
      </trkpt>
      <trkpt lat="46.02898" lon="0.19637">
        <ele>104.4</ele>
        <time>2022-04-03T15:26:36Z</time>
      </trkpt>
      <trkpt lat="46.02897" lon="0.19632">
        <ele>104.4</ele>
        <time>2022-04-03T15:26:37Z</time>
      </trkpt>
      <trkpt lat="46.02897" lon="0.19628">
        <ele>104.6</ele>
        <time>2022-04-03T15:26:38Z</time>
      </trkpt>
      <trkpt lat="46.02896" lon="0.19625">
        <ele>104.6</ele>
        <time>2022-04-03T15:26:39Z</time>
      </trkpt>
      <trkpt lat="46.02896" lon="0.19621">
        <ele>105</ele>
        <time>2022-04-03T15:26:40Z</time>
      </trkpt>
      <trkpt lat="46.02896" lon="0.19617">
        <ele>105</ele>
        <time>2022-04-03T15:26:41Z</time>
      </trkpt>
      <trkpt lat="46.02896" lon="0.19613">
        <ele>105</ele>
        <time>2022-04-03T15:26:42Z</time>
      </trkpt>
      <trkpt lat="46.02896" lon="0.19608">
        <ele>105.2</ele>
        <time>2022-04-03T15:26:43Z</time>
      </trkpt>
      <trkpt lat="46.02897" lon="0.19604">
        <ele>105.4</ele>
        <time>2022-04-03T15:26:44Z</time>
      </trkpt>
      <trkpt lat="46.02896" lon="0.19599">
        <ele>105.4</ele>
        <time>2022-04-03T15:26:45Z</time>
      </trkpt>
      <trkpt lat="46.02896" lon="0.19595">
        <ele>105.2</ele>
        <time>2022-04-03T15:26:46Z</time>
      </trkpt>
      <trkpt lat="46.02896" lon="0.1959">
        <ele>105.4</ele>
        <time>2022-04-03T15:26:47Z</time>
      </trkpt>
      <trkpt lat="46.02896" lon="0.19586">
        <ele>105.4</ele>
        <time>2022-04-03T15:26:48Z</time>
      </trkpt>
      <trkpt lat="46.02897" lon="0.19581">
        <ele>105.4</ele>
        <time>2022-04-03T15:26:49Z</time>
      </trkpt>
      <trkpt lat="46.02896" lon="0.19577">
        <ele>105.6</ele>
        <time>2022-04-03T15:26:50Z</time>
      </trkpt>
      <trkpt lat="46.02896" lon="0.19572">
        <ele>105.6</ele>
        <time>2022-04-03T15:26:51Z</time>
      </trkpt>
      <trkpt lat="46.02896" lon="0.19568">
        <ele>105.6</ele>
        <time>2022-04-03T15:26:52Z</time>
      </trkpt>
      <trkpt lat="46.02895" lon="0.19563">
        <ele>105.6</ele>
        <time>2022-04-03T15:26:53Z</time>
      </trkpt>
      <trkpt lat="46.02895" lon="0.19558">
        <ele>105.6</ele>
        <time>2022-04-03T15:26:54Z</time>
      </trkpt>
      <trkpt lat="46.02894" lon="0.19553">
        <ele>106</ele>
        <time>2022-04-03T15:26:55Z</time>
      </trkpt>
      <trkpt lat="46.02893" lon="0.19548">
        <ele>106</ele>
        <time>2022-04-03T15:26:56Z</time>
      </trkpt>
      <trkpt lat="46.02893" lon="0.19543">
        <ele>106</ele>
        <time>2022-04-03T15:26:57Z</time>
      </trkpt>
      <trkpt lat="46.02892" lon="0.19537">
        <ele>106</ele>
        <time>2022-04-03T15:26:58Z</time>
      </trkpt>
      <trkpt lat="46.02892" lon="0.19532">
        <ele>106.2</ele>
        <time>2022-04-03T15:26:59Z</time>
      </trkpt>
      <trkpt lat="46.02891" lon="0.19527">
        <ele>106.2</ele>
        <time>2022-04-03T15:27:00Z</time>
      </trkpt>
      <trkpt lat="46.02891" lon="0.19521">
        <ele>106.2</ele>
        <time>2022-04-03T15:27:01Z</time>
      </trkpt>
      <trkpt lat="46.0289" lon="0.19516">
        <ele>106.2</ele>
        <time>2022-04-03T15:27:02Z</time>
      </trkpt>
      <trkpt lat="46.0289" lon="0.19511">
        <ele>106.2</ele>
        <time>2022-04-03T15:27:03Z</time>
      </trkpt>
      <trkpt lat="46.02889" lon="0.19505">
        <ele>106.4</ele>
        <time>2022-04-03T15:27:04Z</time>
      </trkpt>
      <trkpt lat="46.02889" lon="0.195">
        <ele>106.2</ele>
        <time>2022-04-03T15:27:05Z</time>
      </trkpt>
      <trkpt lat="46.02888" lon="0.19494">
        <ele>106.2</ele>
        <time>2022-04-03T15:27:06Z</time>
      </trkpt>
      <trkpt lat="46.02888" lon="0.19488">
        <ele>106.2</ele>
        <time>2022-04-03T15:27:07Z</time>
      </trkpt>
      <trkpt lat="46.02887" lon="0.19482">
        <ele>106.2</ele>
        <time>2022-04-03T15:27:08Z</time>
      </trkpt>
      <trkpt lat="46.02887" lon="0.19475">
        <ele>106.2</ele>
        <time>2022-04-03T15:27:09Z</time>
      </trkpt>
      <trkpt lat="46.02886" lon="0.19469">
        <ele>106.2</ele>
        <time>2022-04-03T15:27:10Z</time>
      </trkpt>
      <trkpt lat="46.02885" lon="0.19462">
        <ele>106.4</ele>
        <time>2022-04-03T15:27:11Z</time>
      </trkpt>
      <trkpt lat="46.02884" lon="0.19456">
        <ele>106.4</ele>
        <time>2022-04-03T15:27:12Z</time>
      </trkpt>
      <trkpt lat="46.02883" lon="0.1945">
        <ele>106.4</ele>
        <time>2022-04-03T15:27:13Z</time>
      </trkpt>
      <trkpt lat="46.02882" lon="0.19443">
        <ele>106.4</ele>
        <time>2022-04-03T15:27:14Z</time>
      </trkpt>
      <trkpt lat="46.02882" lon="0.19437">
        <ele>106.2</ele>
        <time>2022-04-03T15:27:15Z</time>
      </trkpt>
      <trkpt lat="46.02881" lon="0.1943">
        <ele>106.2</ele>
        <time>2022-04-03T15:27:16Z</time>
      </trkpt>
      <trkpt lat="46.02881" lon="0.19422">
        <ele>106.2</ele>
        <time>2022-04-03T15:27:17Z</time>
      </trkpt>
      <trkpt lat="46.0288" lon="0.19415">
        <ele>106</ele>
        <time>2022-04-03T15:27:18Z</time>
      </trkpt>
      <trkpt lat="46.02881" lon="0.19408">
        <ele>106</ele>
        <time>2022-04-03T15:27:19Z</time>
      </trkpt>
      <trkpt lat="46.02881" lon="0.19401">
        <ele>105.8</ele>
        <time>2022-04-03T15:27:20Z</time>
      </trkpt>
      <trkpt lat="46.02881" lon="0.19393">
        <ele>105.8</ele>
        <time>2022-04-03T15:27:21Z</time>
      </trkpt>
      <trkpt lat="46.02882" lon="0.19386">
        <ele>105.6</ele>
        <time>2022-04-03T15:27:22Z</time>
      </trkpt>
      <trkpt lat="46.02882" lon="0.19379">
        <ele>105.6</ele>
        <time>2022-04-03T15:27:23Z</time>
      </trkpt>
      <trkpt lat="46.02884" lon="0.19372">
        <ele>105.4</ele>
        <time>2022-04-03T15:27:24Z</time>
      </trkpt>
      <trkpt lat="46.02884" lon="0.19365">
        <ele>105</ele>
        <time>2022-04-03T15:27:25Z</time>
      </trkpt>
      <trkpt lat="46.02884" lon="0.19358">
        <ele>105</ele>
        <time>2022-04-03T15:27:26Z</time>
      </trkpt>
      <trkpt lat="46.02884" lon="0.1935">
        <ele>105</ele>
        <time>2022-04-03T15:27:27Z</time>
      </trkpt>
      <trkpt lat="46.02884" lon="0.19341">
        <ele>104.8</ele>
        <time>2022-04-03T15:27:28Z</time>
      </trkpt>
      <trkpt lat="46.02884" lon="0.19332">
        <ele>104.8</ele>
        <time>2022-04-03T15:27:29Z</time>
      </trkpt>
      <trkpt lat="46.02883" lon="0.19323">
        <ele>104.2</ele>
        <time>2022-04-03T15:27:30Z</time>
      </trkpt>
      <trkpt lat="46.02882" lon="0.19313">
        <ele>103.8</ele>
        <time>2022-04-03T15:27:31Z</time>
      </trkpt>
      <trkpt lat="46.02882" lon="0.19304">
        <ele>103.8</ele>
        <time>2022-04-03T15:27:32Z</time>
      </trkpt>
      <trkpt lat="46.02882" lon="0.19294">
        <ele>103.6</ele>
        <time>2022-04-03T15:27:33Z</time>
      </trkpt>
      <trkpt lat="46.02882" lon="0.19284">
        <ele>103.4</ele>
        <time>2022-04-03T15:27:34Z</time>
      </trkpt>
      <trkpt lat="46.02881" lon="0.19275">
        <ele>103.2</ele>
        <time>2022-04-03T15:27:35Z</time>
      </trkpt>
      <trkpt lat="46.02881" lon="0.19265">
        <ele>103</ele>
        <time>2022-04-03T15:27:36Z</time>
      </trkpt>
      <trkpt lat="46.02882" lon="0.19255">
        <ele>102.8</ele>
        <time>2022-04-03T15:27:37Z</time>
      </trkpt>
      <trkpt lat="46.02882" lon="0.19246">
        <ele>102.4</ele>
        <time>2022-04-03T15:27:38Z</time>
      </trkpt>
      <trkpt lat="46.02881" lon="0.19236">
        <ele>102.2</ele>
        <time>2022-04-03T15:27:39Z</time>
      </trkpt>
      <trkpt lat="46.02881" lon="0.19226">
        <ele>102</ele>
        <time>2022-04-03T15:27:40Z</time>
      </trkpt>
      <trkpt lat="46.02881" lon="0.19217">
        <ele>101.6</ele>
        <time>2022-04-03T15:27:41Z</time>
      </trkpt>
      <trkpt lat="46.02881" lon="0.19207">
        <ele>100.6</ele>
        <time>2022-04-03T15:27:42Z</time>
      </trkpt>
      <trkpt lat="46.0288" lon="0.19198">
        <ele>100.4</ele>
        <time>2022-04-03T15:27:43Z</time>
      </trkpt>
      <trkpt lat="46.0288" lon="0.1919">
        <ele>99.8</ele>
        <time>2022-04-03T15:27:44Z</time>
      </trkpt>
      <trkpt lat="46.0288" lon="0.19182">
        <ele>99.8</ele>
        <time>2022-04-03T15:27:45Z</time>
      </trkpt>
      <trkpt lat="46.02879" lon="0.19174">
        <ele>99.6</ele>
        <time>2022-04-03T15:27:46Z</time>
      </trkpt>
      <trkpt lat="46.0288" lon="0.19167">
        <ele>99.6</ele>
        <time>2022-04-03T15:27:47Z</time>
      </trkpt>
      <trkpt lat="46.0288" lon="0.19159">
        <ele>99.4</ele>
        <time>2022-04-03T15:27:48Z</time>
      </trkpt>
      <trkpt lat="46.0288" lon="0.19152">
        <ele>99.6</ele>
        <time>2022-04-03T15:27:49Z</time>
      </trkpt>
      <trkpt lat="46.0288" lon="0.19145">
        <ele>99.6</ele>
        <time>2022-04-03T15:27:50Z</time>
      </trkpt>
      <trkpt lat="46.0288" lon="0.19137">
        <ele>99.6</ele>
        <time>2022-04-03T15:27:51Z</time>
      </trkpt>
      <trkpt lat="46.0288" lon="0.1913">
        <ele>99.6</ele>
        <time>2022-04-03T15:27:52Z</time>
      </trkpt>
      <trkpt lat="46.0288" lon="0.19123">
        <ele>99.4</ele>
        <time>2022-04-03T15:27:53Z</time>
      </trkpt>
      <trkpt lat="46.0288" lon="0.19116">
        <ele>99.6</ele>
        <time>2022-04-03T15:27:54Z</time>
      </trkpt>
      <trkpt lat="46.02879" lon="0.19109">
        <ele>100</ele>
        <time>2022-04-03T15:27:55Z</time>
      </trkpt>
      <trkpt lat="46.02879" lon="0.19102">
        <ele>100</ele>
        <time>2022-04-03T15:27:56Z</time>
      </trkpt>
      <trkpt lat="46.02879" lon="0.19095">
        <ele>100.2</ele>
        <time>2022-04-03T15:27:57Z</time>
      </trkpt>
      <trkpt lat="46.02879" lon="0.19089">
        <ele>100.4</ele>
        <time>2022-04-03T15:27:58Z</time>
      </trkpt>
      <trkpt lat="46.02879" lon="0.19083">
        <ele>100.4</ele>
        <time>2022-04-03T15:27:59Z</time>
      </trkpt>
      <trkpt lat="46.02879" lon="0.19077">
        <ele>100.8</ele>
        <time>2022-04-03T15:28:00Z</time>
      </trkpt>
      <trkpt lat="46.02879" lon="0.19071">
        <ele>100.8</ele>
        <time>2022-04-03T15:28:01Z</time>
      </trkpt>
      <trkpt lat="46.02878" lon="0.19065">
        <ele>101</ele>
        <time>2022-04-03T15:28:02Z</time>
      </trkpt>
      <trkpt lat="46.02878" lon="0.1906">
        <ele>101.2</ele>
        <time>2022-04-03T15:28:03Z</time>
      </trkpt>
      <trkpt lat="46.02878" lon="0.19055">
        <ele>101.4</ele>
        <time>2022-04-03T15:28:04Z</time>
      </trkpt>
      <trkpt lat="46.02878" lon="0.1905">
        <ele>101.4</ele>
        <time>2022-04-03T15:28:05Z</time>
      </trkpt>
      <trkpt lat="46.02878" lon="0.19045">
        <ele>101.6</ele>
        <time>2022-04-03T15:28:06Z</time>
      </trkpt>
      <trkpt lat="46.02878" lon="0.1904">
        <ele>102</ele>
        <time>2022-04-03T15:28:07Z</time>
      </trkpt>
      <trkpt lat="46.02877" lon="0.19037">
        <ele>102</ele>
        <time>2022-04-03T15:28:08Z</time>
      </trkpt>
      <trkpt lat="46.02876" lon="0.19035">
        <ele>102</ele>
        <time>2022-04-03T15:28:09Z</time>
      </trkpt>
      <trkpt lat="46.02875" lon="0.19035">
        <ele>102</ele>
        <time>2022-04-03T15:28:10Z</time>
      </trkpt>
      <trkpt lat="46.02874" lon="0.19036">
        <ele>102.4</ele>
        <time>2022-04-03T15:28:11Z</time>
      </trkpt>
      <trkpt lat="46.02874" lon="0.19039">
        <ele>102.8</ele>
        <time>2022-04-03T15:28:12Z</time>
      </trkpt>
      <trkpt lat="46.02874" lon="0.19043">
        <ele>103</ele>
        <time>2022-04-03T15:28:13Z</time>
      </trkpt>
      <trkpt lat="46.02874" lon="0.19046">
        <ele>103.2</ele>
        <time>2022-04-03T15:28:14Z</time>
      </trkpt>
      <trkpt lat="46.02874" lon="0.1905">
        <ele>103.6</ele>
        <time>2022-04-03T15:28:15Z</time>
      </trkpt>
      <trkpt lat="46.02874" lon="0.19055">
        <ele>103.6</ele>
        <time>2022-04-03T15:28:16Z</time>
      </trkpt>
      <trkpt lat="46.02874" lon="0.1906">
        <ele>103.6</ele>
        <time>2022-04-03T15:28:17Z</time>
      </trkpt>
      <trkpt lat="46.02874" lon="0.19066">
        <ele>103.6</ele>
        <time>2022-04-03T15:28:18Z</time>
      </trkpt>
      <trkpt lat="46.02874" lon="0.19072">
        <ele>103.8</ele>
        <time>2022-04-03T15:28:19Z</time>
      </trkpt>
      <trkpt lat="46.02874" lon="0.19079">
        <ele>103.8</ele>
        <time>2022-04-03T15:28:20Z</time>
      </trkpt>
      <trkpt lat="46.02874" lon="0.19085">
        <ele>103.8</ele>
        <time>2022-04-03T15:28:21Z</time>
      </trkpt>
      <trkpt lat="46.02874" lon="0.19092">
        <ele>103.8</ele>
        <time>2022-04-03T15:28:22Z</time>
      </trkpt>
      <trkpt lat="46.02874" lon="0.19099">
        <ele>103.8</ele>
        <time>2022-04-03T15:28:23Z</time>
      </trkpt>
      <trkpt lat="46.02874" lon="0.19107">
        <ele>103.8</ele>
        <time>2022-04-03T15:28:24Z</time>
      </trkpt>
      <trkpt lat="46.02875" lon="0.19115">
        <ele>103.6</ele>
        <time>2022-04-03T15:28:25Z</time>
      </trkpt>
      <trkpt lat="46.02875" lon="0.19122">
        <ele>103.6</ele>
        <time>2022-04-03T15:28:26Z</time>
      </trkpt>
      <trkpt lat="46.02876" lon="0.19129">
        <ele>103.6</ele>
        <time>2022-04-03T15:28:27Z</time>
      </trkpt>
      <trkpt lat="46.02874" lon="0.19135">
        <ele>103.6</ele>
        <time>2022-04-03T15:28:28Z</time>
      </trkpt>
      <trkpt lat="46.02872" lon="0.19139">
        <ele>103.6</ele>
        <time>2022-04-03T15:28:29Z</time>
      </trkpt>
      <trkpt lat="46.0287" lon="0.1914">
        <ele>103</ele>
        <time>2022-04-03T15:28:30Z</time>
      </trkpt>
      <trkpt lat="46.02867" lon="0.1914">
        <ele>102.4</ele>
        <time>2022-04-03T15:28:31Z</time>
      </trkpt>
      <trkpt lat="46.02865" lon="0.19138">
        <ele>102.2</ele>
        <time>2022-04-03T15:28:32Z</time>
      </trkpt>
      <trkpt lat="46.02863" lon="0.19134">
        <ele>101.6</ele>
        <time>2022-04-03T15:28:33Z</time>
      </trkpt>
      <trkpt lat="46.02861" lon="0.1913">
        <ele>101.6</ele>
        <time>2022-04-03T15:28:34Z</time>
      </trkpt>
      <trkpt lat="46.02858" lon="0.19127">
        <ele>101.4</ele>
        <time>2022-04-03T15:28:35Z</time>
      </trkpt>
      <trkpt lat="46.02856" lon="0.19123">
        <ele>101.4</ele>
        <time>2022-04-03T15:28:36Z</time>
      </trkpt>
      <trkpt lat="46.02854" lon="0.19119">
        <ele>101.2</ele>
        <time>2022-04-03T15:28:37Z</time>
      </trkpt>
      <trkpt lat="46.02851" lon="0.19115">
        <ele>101.2</ele>
        <time>2022-04-03T15:28:38Z</time>
      </trkpt>
      <trkpt lat="46.02849" lon="0.1911">
        <ele>101.2</ele>
        <time>2022-04-03T15:28:39Z</time>
      </trkpt>
      <trkpt lat="46.02846" lon="0.19106">
        <ele>101.2</ele>
        <time>2022-04-03T15:28:40Z</time>
      </trkpt>
      <trkpt lat="46.02843" lon="0.19101">
        <ele>101.2</ele>
        <time>2022-04-03T15:28:41Z</time>
      </trkpt>
      <trkpt lat="46.0284" lon="0.19097">
        <ele>101.4</ele>
        <time>2022-04-03T15:28:42Z</time>
      </trkpt>
      <trkpt lat="46.02838" lon="0.19093">
        <ele>101.4</ele>
        <time>2022-04-03T15:28:43Z</time>
      </trkpt>
      <trkpt lat="46.02835" lon="0.19089">
        <ele>101.4</ele>
        <time>2022-04-03T15:28:44Z</time>
      </trkpt>
      <trkpt lat="46.02832" lon="0.19085">
        <ele>101.4</ele>
        <time>2022-04-03T15:28:45Z</time>
      </trkpt>
      <trkpt lat="46.02829" lon="0.19081">
        <ele>101.4</ele>
        <time>2022-04-03T15:28:46Z</time>
      </trkpt>
      <trkpt lat="46.02826" lon="0.19077">
        <ele>101.6</ele>
        <time>2022-04-03T15:28:47Z</time>
      </trkpt>
      <trkpt lat="46.02823" lon="0.19073">
        <ele>101.6</ele>
        <time>2022-04-03T15:28:48Z</time>
      </trkpt>
      <trkpt lat="46.0282" lon="0.19069">
        <ele>101.8</ele>
        <time>2022-04-03T15:28:49Z</time>
      </trkpt>
      <trkpt lat="46.02817" lon="0.19065">
        <ele>101.8</ele>
        <time>2022-04-03T15:28:50Z</time>
      </trkpt>
      <trkpt lat="46.02814" lon="0.19061">
        <ele>101.8</ele>
        <time>2022-04-03T15:28:51Z</time>
      </trkpt>
      <trkpt lat="46.02812" lon="0.19058">
        <ele>101.8</ele>
        <time>2022-04-03T15:28:52Z</time>
      </trkpt>
      <trkpt lat="46.02809" lon="0.19054">
        <ele>101.6</ele>
        <time>2022-04-03T15:28:53Z</time>
      </trkpt>
      <trkpt lat="46.02807" lon="0.1905">
        <ele>102</ele>
        <time>2022-04-03T15:28:54Z</time>
      </trkpt>
      <trkpt lat="46.02804" lon="0.19047">
        <ele>102</ele>
        <time>2022-04-03T15:28:55Z</time>
      </trkpt>
      <trkpt lat="46.02802" lon="0.19043">
        <ele>102.2</ele>
        <time>2022-04-03T15:28:56Z</time>
      </trkpt>
      <trkpt lat="46.02799" lon="0.1904">
        <ele>102.4</ele>
        <time>2022-04-03T15:28:57Z</time>
      </trkpt>
      <trkpt lat="46.02796" lon="0.19037">
        <ele>102.4</ele>
        <time>2022-04-03T15:28:58Z</time>
      </trkpt>
      <trkpt lat="46.02793" lon="0.19033">
        <ele>102.4</ele>
        <time>2022-04-03T15:28:59Z</time>
      </trkpt>
      <trkpt lat="46.0279" lon="0.1903">
        <ele>102.4</ele>
        <time>2022-04-03T15:29:00Z</time>
      </trkpt>
      <trkpt lat="46.02787" lon="0.19027">
        <ele>102.4</ele>
        <time>2022-04-03T15:29:01Z</time>
      </trkpt>
      <trkpt lat="46.02784" lon="0.19024">
        <ele>102.6</ele>
        <time>2022-04-03T15:29:02Z</time>
      </trkpt>
      <trkpt lat="46.0278" lon="0.19022">
        <ele>103</ele>
        <time>2022-04-03T15:29:03Z</time>
      </trkpt>
      <trkpt lat="46.02777" lon="0.19019">
        <ele>103.2</ele>
        <time>2022-04-03T15:29:04Z</time>
      </trkpt>
      <trkpt lat="46.02773" lon="0.19015">
        <ele>103.2</ele>
        <time>2022-04-03T15:29:05Z</time>
      </trkpt>
      <trkpt lat="46.0277" lon="0.19012">
        <ele>103.2</ele>
        <time>2022-04-03T15:29:06Z</time>
      </trkpt>
      <trkpt lat="46.02767" lon="0.19008">
        <ele>103.4</ele>
        <time>2022-04-03T15:29:07Z</time>
      </trkpt>
      <trkpt lat="46.02763" lon="0.19005">
        <ele>103.6</ele>
        <time>2022-04-03T15:29:08Z</time>
      </trkpt>
      <trkpt lat="46.02759" lon="0.19001">
        <ele>103.6</ele>
        <time>2022-04-03T15:29:09Z</time>
      </trkpt>
      <trkpt lat="46.02756" lon="0.18998">
        <ele>103.6</ele>
        <time>2022-04-03T15:29:10Z</time>
      </trkpt>
      <trkpt lat="46.02752" lon="0.18995">
        <ele>103.6</ele>
        <time>2022-04-03T15:29:11Z</time>
      </trkpt>
      <trkpt lat="46.02748" lon="0.18992">
        <ele>103.6</ele>
        <time>2022-04-03T15:29:12Z</time>
      </trkpt>
      <trkpt lat="46.02745" lon="0.18989">
        <ele>103.8</ele>
        <time>2022-04-03T15:29:13Z</time>
      </trkpt>
      <trkpt lat="46.02741" lon="0.18986">
        <ele>103.8</ele>
        <time>2022-04-03T15:29:14Z</time>
      </trkpt>
      <trkpt lat="46.02738" lon="0.18983">
        <ele>103.8</ele>
        <time>2022-04-03T15:29:15Z</time>
      </trkpt>
      <trkpt lat="46.02734" lon="0.1898">
        <ele>103.8</ele>
        <time>2022-04-03T15:29:16Z</time>
      </trkpt>
      <trkpt lat="46.0273" lon="0.18976">
        <ele>103.8</ele>
        <time>2022-04-03T15:29:17Z</time>
      </trkpt>
      <trkpt lat="46.02727" lon="0.18973">
        <ele>103.8</ele>
        <time>2022-04-03T15:29:18Z</time>
      </trkpt>
      <trkpt lat="46.02723" lon="0.1897">
        <ele>103.8</ele>
        <time>2022-04-03T15:29:19Z</time>
      </trkpt>
      <trkpt lat="46.02719" lon="0.18967">
        <ele>103.8</ele>
        <time>2022-04-03T15:29:20Z</time>
      </trkpt>
      <trkpt lat="46.02716" lon="0.18964">
        <ele>104</ele>
        <time>2022-04-03T15:29:21Z</time>
      </trkpt>
      <trkpt lat="46.02712" lon="0.1896">
        <ele>104</ele>
        <time>2022-04-03T15:29:22Z</time>
      </trkpt>
      <trkpt lat="46.02709" lon="0.18957">
        <ele>104.4</ele>
        <time>2022-04-03T15:29:23Z</time>
      </trkpt>
      <trkpt lat="46.02705" lon="0.18954">
        <ele>104.4</ele>
        <time>2022-04-03T15:29:24Z</time>
      </trkpt>
      <trkpt lat="46.02701" lon="0.18951">
        <ele>104.4</ele>
        <time>2022-04-03T15:29:25Z</time>
      </trkpt>
      <trkpt lat="46.02697" lon="0.18948">
        <ele>104.6</ele>
        <time>2022-04-03T15:29:26Z</time>
      </trkpt>
      <trkpt lat="46.02693" lon="0.18945">
        <ele>104.6</ele>
        <time>2022-04-03T15:29:27Z</time>
      </trkpt>
      <trkpt lat="46.02689" lon="0.18943">
        <ele>104.6</ele>
        <time>2022-04-03T15:29:28Z</time>
      </trkpt>
      <trkpt lat="46.02685" lon="0.1894">
        <ele>104.8</ele>
        <time>2022-04-03T15:29:29Z</time>
      </trkpt>
      <trkpt lat="46.02681" lon="0.18937">
        <ele>104.8</ele>
        <time>2022-04-03T15:29:30Z</time>
      </trkpt>
      <trkpt lat="46.02677" lon="0.18935">
        <ele>104.8</ele>
        <time>2022-04-03T15:29:31Z</time>
      </trkpt>
      <trkpt lat="46.02673" lon="0.18933">
        <ele>104.8</ele>
        <time>2022-04-03T15:29:32Z</time>
      </trkpt>
      <trkpt lat="46.02669" lon="0.1893">
        <ele>105</ele>
        <time>2022-04-03T15:29:33Z</time>
      </trkpt>
      <trkpt lat="46.02665" lon="0.18927">
        <ele>105</ele>
        <time>2022-04-03T15:29:34Z</time>
      </trkpt>
      <trkpt lat="46.02662" lon="0.18925">
        <ele>105</ele>
        <time>2022-04-03T15:29:35Z</time>
      </trkpt>
      <trkpt lat="46.02658" lon="0.18922">
        <ele>105.2</ele>
        <time>2022-04-03T15:29:36Z</time>
      </trkpt>
      <trkpt lat="46.02654" lon="0.18919">
        <ele>105.2</ele>
        <time>2022-04-03T15:29:37Z</time>
      </trkpt>
      <trkpt lat="46.02649" lon="0.18917">
        <ele>105.2</ele>
        <time>2022-04-03T15:29:38Z</time>
      </trkpt>
      <trkpt lat="46.02645" lon="0.18916">
        <ele>105.4</ele>
        <time>2022-04-03T15:29:39Z</time>
      </trkpt>
      <trkpt lat="46.02641" lon="0.18916">
        <ele>105.4</ele>
        <time>2022-04-03T15:29:40Z</time>
      </trkpt>
      <trkpt lat="46.02636" lon="0.18916">
        <ele>105.4</ele>
        <time>2022-04-03T15:29:41Z</time>
      </trkpt>
      <trkpt lat="46.02632" lon="0.18914">
        <ele>105.4</ele>
        <time>2022-04-03T15:29:42Z</time>
      </trkpt>
      <trkpt lat="46.02629" lon="0.18911">
        <ele>105.2</ele>
        <time>2022-04-03T15:29:43Z</time>
      </trkpt>
      <trkpt lat="46.02626" lon="0.18908">
        <ele>105.4</ele>
        <time>2022-04-03T15:29:44Z</time>
      </trkpt>
      <trkpt lat="46.02623" lon="0.18904">
        <ele>105.4</ele>
        <time>2022-04-03T15:29:45Z</time>
      </trkpt>
      <trkpt lat="46.0262" lon="0.18901">
        <ele>105.4</ele>
        <time>2022-04-03T15:29:46Z</time>
      </trkpt>
      <trkpt lat="46.02618" lon="0.18897">
        <ele>105.4</ele>
        <time>2022-04-03T15:29:47Z</time>
      </trkpt>
      <trkpt lat="46.02615" lon="0.18893">
        <ele>105.4</ele>
        <time>2022-04-03T15:29:48Z</time>
      </trkpt>
      <trkpt lat="46.02613" lon="0.18888">
        <ele>105.6</ele>
        <time>2022-04-03T15:29:49Z</time>
      </trkpt>
      <trkpt lat="46.02611" lon="0.18883">
        <ele>105.6</ele>
        <time>2022-04-03T15:29:50Z</time>
      </trkpt>
      <trkpt lat="46.0261" lon="0.18878">
        <ele>105.6</ele>
        <time>2022-04-03T15:29:51Z</time>
      </trkpt>
      <trkpt lat="46.02609" lon="0.18872">
        <ele>105.6</ele>
        <time>2022-04-03T15:29:52Z</time>
      </trkpt>
      <trkpt lat="46.02608" lon="0.18867">
        <ele>105.6</ele>
        <time>2022-04-03T15:29:53Z</time>
      </trkpt>
      <trkpt lat="46.02607" lon="0.18862">
        <ele>105.6</ele>
        <time>2022-04-03T15:29:54Z</time>
      </trkpt>
      <trkpt lat="46.02607" lon="0.18856">
        <ele>105.4</ele>
        <time>2022-04-03T15:29:55Z</time>
      </trkpt>
      <trkpt lat="46.02606" lon="0.18851">
        <ele>105.8</ele>
        <time>2022-04-03T15:29:56Z</time>
      </trkpt>
      <trkpt lat="46.02605" lon="0.18846">
        <ele>105.6</ele>
        <time>2022-04-03T15:29:57Z</time>
      </trkpt>
      <trkpt lat="46.02605" lon="0.18841">
        <ele>105.8</ele>
        <time>2022-04-03T15:29:58Z</time>
      </trkpt>
      <trkpt lat="46.02604" lon="0.18836">
        <ele>105.8</ele>
        <time>2022-04-03T15:29:59Z</time>
      </trkpt>
      <trkpt lat="46.02603" lon="0.18831">
        <ele>105.8</ele>
        <time>2022-04-03T15:30:00Z</time>
      </trkpt>
      <trkpt lat="46.02602" lon="0.18826">
        <ele>105.8</ele>
        <time>2022-04-03T15:30:01Z</time>
      </trkpt>
      <trkpt lat="46.02602" lon="0.1882">
        <ele>106</ele>
        <time>2022-04-03T15:30:02Z</time>
      </trkpt>
      <trkpt lat="46.02601" lon="0.18815">
        <ele>106</ele>
        <time>2022-04-03T15:30:03Z</time>
      </trkpt>
      <trkpt lat="46.026" lon="0.18811">
        <ele>106.2</ele>
        <time>2022-04-03T15:30:04Z</time>
      </trkpt>
      <trkpt lat="46.02599" lon="0.18806">
        <ele>106.2</ele>
        <time>2022-04-03T15:30:05Z</time>
      </trkpt>
      <trkpt lat="46.02598" lon="0.18801">
        <ele>106.6</ele>
        <time>2022-04-03T15:30:06Z</time>
      </trkpt>
      <trkpt lat="46.02597" lon="0.18796">
        <ele>106.6</ele>
        <time>2022-04-03T15:30:07Z</time>
      </trkpt>
      <trkpt lat="46.02596" lon="0.18791">
        <ele>106.6</ele>
        <time>2022-04-03T15:30:08Z</time>
      </trkpt>
      <trkpt lat="46.02595" lon="0.18786">
        <ele>107</ele>
        <time>2022-04-03T15:30:09Z</time>
      </trkpt>
      <trkpt lat="46.02595" lon="0.18781">
        <ele>107</ele>
        <time>2022-04-03T15:30:10Z</time>
      </trkpt>
      <trkpt lat="46.02594" lon="0.18776">
        <ele>107</ele>
        <time>2022-04-03T15:30:11Z</time>
      </trkpt>
      <trkpt lat="46.02593" lon="0.1877">
        <ele>107.2</ele>
        <time>2022-04-03T15:30:12Z</time>
      </trkpt>
      <trkpt lat="46.02592" lon="0.18765">
        <ele>107.2</ele>
        <time>2022-04-03T15:30:13Z</time>
      </trkpt>
      <trkpt lat="46.02591" lon="0.1876">
        <ele>107.6</ele>
        <time>2022-04-03T15:30:14Z</time>
      </trkpt>
      <trkpt lat="46.0259" lon="0.18755">
        <ele>107.8</ele>
        <time>2022-04-03T15:30:15Z</time>
      </trkpt>
      <trkpt lat="46.02589" lon="0.1875">
        <ele>107.8</ele>
        <time>2022-04-03T15:30:16Z</time>
      </trkpt>
      <trkpt lat="46.02588" lon="0.18745">
        <ele>108</ele>
        <time>2022-04-03T15:30:17Z</time>
      </trkpt>
      <trkpt lat="46.02587" lon="0.1874">
        <ele>108.2</ele>
        <time>2022-04-03T15:30:18Z</time>
      </trkpt>
      <trkpt lat="46.02587" lon="0.18734">
        <ele>108.4</ele>
        <time>2022-04-03T15:30:19Z</time>
      </trkpt>
      <trkpt lat="46.02586" lon="0.18729">
        <ele>108.4</ele>
        <time>2022-04-03T15:30:20Z</time>
      </trkpt>
      <trkpt lat="46.02585" lon="0.18724">
        <ele>108.6</ele>
        <time>2022-04-03T15:30:21Z</time>
      </trkpt>
      <trkpt lat="46.02584" lon="0.18719">
        <ele>108.8</ele>
        <time>2022-04-03T15:30:22Z</time>
      </trkpt>
      <trkpt lat="46.02584" lon="0.18714">
        <ele>109</ele>
        <time>2022-04-03T15:30:23Z</time>
      </trkpt>
      <trkpt lat="46.02583" lon="0.18709">
        <ele>109.2</ele>
        <time>2022-04-03T15:30:24Z</time>
      </trkpt>
      <trkpt lat="46.02582" lon="0.18704">
        <ele>109</ele>
        <time>2022-04-03T15:30:25Z</time>
      </trkpt>
      <trkpt lat="46.02581" lon="0.18699">
        <ele>109.2</ele>
        <time>2022-04-03T15:30:26Z</time>
      </trkpt>
      <trkpt lat="46.02581" lon="0.18694">
        <ele>109.4</ele>
        <time>2022-04-03T15:30:27Z</time>
      </trkpt>
      <trkpt lat="46.0258" lon="0.18688">
        <ele>109.4</ele>
        <time>2022-04-03T15:30:28Z</time>
      </trkpt>
      <trkpt lat="46.02579" lon="0.18683">
        <ele>109.4</ele>
        <time>2022-04-03T15:30:29Z</time>
      </trkpt>
      <trkpt lat="46.02578" lon="0.18677">
        <ele>109.6</ele>
        <time>2022-04-03T15:30:30Z</time>
      </trkpt>
      <trkpt lat="46.02578" lon="0.18672">
        <ele>109.6</ele>
        <time>2022-04-03T15:30:31Z</time>
      </trkpt>
      <trkpt lat="46.02577" lon="0.18667">
        <ele>110</ele>
        <time>2022-04-03T15:30:32Z</time>
      </trkpt>
      <trkpt lat="46.02576" lon="0.18661">
        <ele>110</ele>
        <time>2022-04-03T15:30:33Z</time>
      </trkpt>
      <trkpt lat="46.02575" lon="0.18656">
        <ele>110.2</ele>
        <time>2022-04-03T15:30:34Z</time>
      </trkpt>
      <trkpt lat="46.02574" lon="0.1865">
        <ele>110.4</ele>
        <time>2022-04-03T15:30:35Z</time>
      </trkpt>
      <trkpt lat="46.02574" lon="0.18645">
        <ele>110.4</ele>
        <time>2022-04-03T15:30:36Z</time>
      </trkpt>
      <trkpt lat="46.02573" lon="0.1864">
        <ele>110.4</ele>
        <time>2022-04-03T15:30:37Z</time>
      </trkpt>
      <trkpt lat="46.02572" lon="0.18634">
        <ele>110.4</ele>
        <time>2022-04-03T15:30:38Z</time>
      </trkpt>
      <trkpt lat="46.02572" lon="0.18629">
        <ele>110.6</ele>
        <time>2022-04-03T15:30:39Z</time>
      </trkpt>
      <trkpt lat="46.02571" lon="0.18624">
        <ele>110.6</ele>
        <time>2022-04-03T15:30:40Z</time>
      </trkpt>
      <trkpt lat="46.0257" lon="0.18618">
        <ele>110.6</ele>
        <time>2022-04-03T15:30:41Z</time>
      </trkpt>
      <trkpt lat="46.02569" lon="0.18613">
        <ele>110.8</ele>
        <time>2022-04-03T15:30:42Z</time>
      </trkpt>
      <trkpt lat="46.02569" lon="0.18607">
        <ele>110.8</ele>
        <time>2022-04-03T15:30:43Z</time>
      </trkpt>
      <trkpt lat="46.02568" lon="0.18602">
        <ele>110.8</ele>
        <time>2022-04-03T15:30:44Z</time>
      </trkpt>
      <trkpt lat="46.02567" lon="0.18596">
        <ele>111</ele>
        <time>2022-04-03T15:30:45Z</time>
      </trkpt>
      <trkpt lat="46.02566" lon="0.18591">
        <ele>111</ele>
        <time>2022-04-03T15:30:46Z</time>
      </trkpt>
      <trkpt lat="46.02566" lon="0.18586">
        <ele>110.8</ele>
        <time>2022-04-03T15:30:47Z</time>
      </trkpt>
      <trkpt lat="46.02565" lon="0.1858">
        <ele>111</ele>
        <time>2022-04-03T15:30:48Z</time>
      </trkpt>
      <trkpt lat="46.02564" lon="0.18575">
        <ele>111.2</ele>
        <time>2022-04-03T15:30:49Z</time>
      </trkpt>
      <trkpt lat="46.02563" lon="0.18569">
        <ele>111.2</ele>
        <time>2022-04-03T15:30:50Z</time>
      </trkpt>
      <trkpt lat="46.02562" lon="0.18564">
        <ele>111.2</ele>
        <time>2022-04-03T15:30:51Z</time>
      </trkpt>
      <trkpt lat="46.02561" lon="0.18558">
        <ele>111.4</ele>
        <time>2022-04-03T15:30:52Z</time>
      </trkpt>
      <trkpt lat="46.02561" lon="0.18552">
        <ele>111.6</ele>
        <time>2022-04-03T15:30:53Z</time>
      </trkpt>
      <trkpt lat="46.0256" lon="0.18547">
        <ele>111.8</ele>
        <time>2022-04-03T15:30:54Z</time>
      </trkpt>
      <trkpt lat="46.02559" lon="0.18542">
        <ele>112</ele>
        <time>2022-04-03T15:30:55Z</time>
      </trkpt>
      <trkpt lat="46.02559" lon="0.18536">
        <ele>112</ele>
        <time>2022-04-03T15:30:56Z</time>
      </trkpt>
      <trkpt lat="46.02558" lon="0.18531">
        <ele>112</ele>
        <time>2022-04-03T15:30:57Z</time>
      </trkpt>
      <trkpt lat="46.02557" lon="0.18525">
        <ele>112.2</ele>
        <time>2022-04-03T15:30:58Z</time>
      </trkpt>
      <trkpt lat="46.02556" lon="0.1852">
        <ele>112.2</ele>
        <time>2022-04-03T15:30:59Z</time>
      </trkpt>
      <trkpt lat="46.02556" lon="0.18515">
        <ele>112.4</ele>
        <time>2022-04-03T15:31:00Z</time>
      </trkpt>
      <trkpt lat="46.02555" lon="0.18509">
        <ele>112.2</ele>
        <time>2022-04-03T15:31:01Z</time>
      </trkpt>
      <trkpt lat="46.02555" lon="0.18503">
        <ele>112.4</ele>
        <time>2022-04-03T15:31:02Z</time>
      </trkpt>
      <trkpt lat="46.02555" lon="0.18498">
        <ele>112.4</ele>
        <time>2022-04-03T15:31:03Z</time>
      </trkpt>
      <trkpt lat="46.02554" lon="0.18492">
        <ele>112.4</ele>
        <time>2022-04-03T15:31:04Z</time>
      </trkpt>
      <trkpt lat="46.02554" lon="0.18487">
        <ele>112.8</ele>
        <time>2022-04-03T15:31:05Z</time>
      </trkpt>
      <trkpt lat="46.02553" lon="0.18481">
        <ele>112.8</ele>
        <time>2022-04-03T15:31:06Z</time>
      </trkpt>
      <trkpt lat="46.02553" lon="0.18476">
        <ele>112.8</ele>
        <time>2022-04-03T15:31:07Z</time>
      </trkpt>
      <trkpt lat="46.02552" lon="0.1847">
        <ele>113.2</ele>
        <time>2022-04-03T15:31:08Z</time>
      </trkpt>
      <trkpt lat="46.02552" lon="0.18465">
        <ele>113</ele>
        <time>2022-04-03T15:31:09Z</time>
      </trkpt>
      <trkpt lat="46.02551" lon="0.18459">
        <ele>113.2</ele>
        <time>2022-04-03T15:31:10Z</time>
      </trkpt>
      <trkpt lat="46.02551" lon="0.18454">
        <ele>113.2</ele>
        <time>2022-04-03T15:31:11Z</time>
      </trkpt>
      <trkpt lat="46.02551" lon="0.18448">
        <ele>113.2</ele>
        <time>2022-04-03T15:31:12Z</time>
      </trkpt>
      <trkpt lat="46.02551" lon="0.18443">
        <ele>113.2</ele>
        <time>2022-04-03T15:31:13Z</time>
      </trkpt>
      <trkpt lat="46.02551" lon="0.18437">
        <ele>113.2</ele>
        <time>2022-04-03T15:31:14Z</time>
      </trkpt>
      <trkpt lat="46.02551" lon="0.18432">
        <ele>113.2</ele>
        <time>2022-04-03T15:31:15Z</time>
      </trkpt>
      <trkpt lat="46.02552" lon="0.18426">
        <ele>113.2</ele>
        <time>2022-04-03T15:31:16Z</time>
      </trkpt>
      <trkpt lat="46.02552" lon="0.18421">
        <ele>113.4</ele>
        <time>2022-04-03T15:31:17Z</time>
      </trkpt>
      <trkpt lat="46.02552" lon="0.18416">
        <ele>113.2</ele>
        <time>2022-04-03T15:31:18Z</time>
      </trkpt>
      <trkpt lat="46.02552" lon="0.1841">
        <ele>113.2</ele>
        <time>2022-04-03T15:31:19Z</time>
      </trkpt>
      <trkpt lat="46.0255" lon="0.18405">
        <ele>113.4</ele>
        <time>2022-04-03T15:31:20Z</time>
      </trkpt>
      <trkpt lat="46.02548" lon="0.184">
        <ele>113.2</ele>
        <time>2022-04-03T15:31:21Z</time>
      </trkpt>
      <trkpt lat="46.02546" lon="0.18395">
        <ele>113.2</ele>
        <time>2022-04-03T15:31:22Z</time>
      </trkpt>
      <trkpt lat="46.02544" lon="0.18391">
        <ele>113.4</ele>
        <time>2022-04-03T15:31:23Z</time>
      </trkpt>
      <trkpt lat="46.02542" lon="0.18386">
        <ele>113.4</ele>
        <time>2022-04-03T15:31:24Z</time>
      </trkpt>
      <trkpt lat="46.02541" lon="0.1838">
        <ele>113.2</ele>
        <time>2022-04-03T15:31:25Z</time>
      </trkpt>
      <trkpt lat="46.0254" lon="0.18374">
        <ele>113.4</ele>
        <time>2022-04-03T15:31:26Z</time>
      </trkpt>
      <trkpt lat="46.02539" lon="0.18368">
        <ele>113.4</ele>
        <time>2022-04-03T15:31:27Z</time>
      </trkpt>
      <trkpt lat="46.02538" lon="0.18363">
        <ele>113.4</ele>
        <time>2022-04-03T15:31:28Z</time>
      </trkpt>
      <trkpt lat="46.02537" lon="0.18357">
        <ele>113.6</ele>
        <time>2022-04-03T15:31:29Z</time>
      </trkpt>
      <trkpt lat="46.02536" lon="0.18352">
        <ele>113.4</ele>
        <time>2022-04-03T15:31:30Z</time>
      </trkpt>
      <trkpt lat="46.02535" lon="0.18346">
        <ele>113.4</ele>
        <time>2022-04-03T15:31:31Z</time>
      </trkpt>
      <trkpt lat="46.02534" lon="0.1834">
        <ele>113.6</ele>
        <time>2022-04-03T15:31:32Z</time>
      </trkpt>
      <trkpt lat="46.02533" lon="0.18334">
        <ele>113.6</ele>
        <time>2022-04-03T15:31:33Z</time>
      </trkpt>
      <trkpt lat="46.02533" lon="0.18327">
        <ele>113.4</ele>
        <time>2022-04-03T15:31:34Z</time>
      </trkpt>
      <trkpt lat="46.02532" lon="0.18321">
        <ele>113.4</ele>
        <time>2022-04-03T15:31:35Z</time>
      </trkpt>
      <trkpt lat="46.02531" lon="0.18315">
        <ele>113.6</ele>
        <time>2022-04-03T15:31:36Z</time>
      </trkpt>
      <trkpt lat="46.0253" lon="0.18309">
        <ele>113.6</ele>
        <time>2022-04-03T15:31:37Z</time>
      </trkpt>
      <trkpt lat="46.02529" lon="0.18302">
        <ele>113.6</ele>
        <time>2022-04-03T15:31:38Z</time>
      </trkpt>
      <trkpt lat="46.02528" lon="0.18296">
        <ele>113.6</ele>
        <time>2022-04-03T15:31:39Z</time>
      </trkpt>
      <trkpt lat="46.02527" lon="0.18289">
        <ele>113.8</ele>
        <time>2022-04-03T15:31:40Z</time>
      </trkpt>
      <trkpt lat="46.02526" lon="0.18282">
        <ele>113.8</ele>
        <time>2022-04-03T15:31:41Z</time>
      </trkpt>
      <trkpt lat="46.02525" lon="0.18274">
        <ele>113.8</ele>
        <time>2022-04-03T15:31:42Z</time>
      </trkpt>
      <trkpt lat="46.02524" lon="0.18267">
        <ele>113.8</ele>
        <time>2022-04-03T15:31:43Z</time>
      </trkpt>
      <trkpt lat="46.02523" lon="0.18261">
        <ele>113.8</ele>
        <time>2022-04-03T15:31:44Z</time>
      </trkpt>
      <trkpt lat="46.02522" lon="0.18254">
        <ele>113.8</ele>
        <time>2022-04-03T15:31:45Z</time>
      </trkpt>
      <trkpt lat="46.02521" lon="0.18247">
        <ele>113.8</ele>
        <time>2022-04-03T15:31:46Z</time>
      </trkpt>
      <trkpt lat="46.0252" lon="0.1824">
        <ele>113.8</ele>
        <time>2022-04-03T15:31:47Z</time>
      </trkpt>
      <trkpt lat="46.02519" lon="0.18233">
        <ele>114</ele>
        <time>2022-04-03T15:31:48Z</time>
      </trkpt>
      <trkpt lat="46.02518" lon="0.18226">
        <ele>113.8</ele>
        <time>2022-04-03T15:31:49Z</time>
      </trkpt>
      <trkpt lat="46.02517" lon="0.18219">
        <ele>113.8</ele>
        <time>2022-04-03T15:31:50Z</time>
      </trkpt>
      <trkpt lat="46.02516" lon="0.18212">
        <ele>113.8</ele>
        <time>2022-04-03T15:31:51Z</time>
      </trkpt>
      <trkpt lat="46.02515" lon="0.18205">
        <ele>113.6</ele>
        <time>2022-04-03T15:31:52Z</time>
      </trkpt>
      <trkpt lat="46.02514" lon="0.18198">
        <ele>113.2</ele>
        <time>2022-04-03T15:31:53Z</time>
      </trkpt>
      <trkpt lat="46.02513" lon="0.18191">
        <ele>113.2</ele>
        <time>2022-04-03T15:31:54Z</time>
      </trkpt>
      <trkpt lat="46.02512" lon="0.18184">
        <ele>112.8</ele>
        <time>2022-04-03T15:31:55Z</time>
      </trkpt>
      <trkpt lat="46.02511" lon="0.18177">
        <ele>112.8</ele>
        <time>2022-04-03T15:31:56Z</time>
      </trkpt>
      <trkpt lat="46.0251" lon="0.18171">
        <ele>112.8</ele>
        <time>2022-04-03T15:31:57Z</time>
      </trkpt>
      <trkpt lat="46.02509" lon="0.18164">
        <ele>112.8</ele>
        <time>2022-04-03T15:31:58Z</time>
      </trkpt>
      <trkpt lat="46.02508" lon="0.18158">
        <ele>112.8</ele>
        <time>2022-04-03T15:31:59Z</time>
      </trkpt>
      <trkpt lat="46.02507" lon="0.18152">
        <ele>112.6</ele>
        <time>2022-04-03T15:32:00Z</time>
      </trkpt>
      <trkpt lat="46.02507" lon="0.18146">
        <ele>112.6</ele>
        <time>2022-04-03T15:32:01Z</time>
      </trkpt>
      <trkpt lat="46.02506" lon="0.1814">
        <ele>112.6</ele>
        <time>2022-04-03T15:32:02Z</time>
      </trkpt>
      <trkpt lat="46.02505" lon="0.18134">
        <ele>112.8</ele>
        <time>2022-04-03T15:32:03Z</time>
      </trkpt>
      <trkpt lat="46.02504" lon="0.18127">
        <ele>112.6</ele>
        <time>2022-04-03T15:32:04Z</time>
      </trkpt>
      <trkpt lat="46.02503" lon="0.18121">
        <ele>113.2</ele>
        <time>2022-04-03T15:32:05Z</time>
      </trkpt>
      <trkpt lat="46.02502" lon="0.18115">
        <ele>113.4</ele>
        <time>2022-04-03T15:32:06Z</time>
      </trkpt>
      <trkpt lat="46.02501" lon="0.18109">
        <ele>114</ele>
        <time>2022-04-03T15:32:07Z</time>
      </trkpt>
      <trkpt lat="46.025" lon="0.18103">
        <ele>114.4</ele>
        <time>2022-04-03T15:32:08Z</time>
      </trkpt>
      <trkpt lat="46.02499" lon="0.18096">
        <ele>114.4</ele>
        <time>2022-04-03T15:32:09Z</time>
      </trkpt>
      <trkpt lat="46.02499" lon="0.1809">
        <ele>114.6</ele>
        <time>2022-04-03T15:32:10Z</time>
      </trkpt>
      <trkpt lat="46.02498" lon="0.18084">
        <ele>114.8</ele>
        <time>2022-04-03T15:32:11Z</time>
      </trkpt>
      <trkpt lat="46.02496" lon="0.18078">
        <ele>114.8</ele>
        <time>2022-04-03T15:32:12Z</time>
      </trkpt>
      <trkpt lat="46.02495" lon="0.18072">
        <ele>115.2</ele>
        <time>2022-04-03T15:32:13Z</time>
      </trkpt>
      <trkpt lat="46.02494" lon="0.18066">
        <ele>115.4</ele>
        <time>2022-04-03T15:32:14Z</time>
      </trkpt>
      <trkpt lat="46.02493" lon="0.1806">
        <ele>115.4</ele>
        <time>2022-04-03T15:32:15Z</time>
      </trkpt>
      <trkpt lat="46.02491" lon="0.18054">
        <ele>116</ele>
        <time>2022-04-03T15:32:16Z</time>
      </trkpt>
      <trkpt lat="46.0249" lon="0.18049">
        <ele>116.2</ele>
        <time>2022-04-03T15:32:17Z</time>
      </trkpt>
      <trkpt lat="46.02489" lon="0.18043">
        <ele>116.6</ele>
        <time>2022-04-03T15:32:18Z</time>
      </trkpt>
      <trkpt lat="46.02487" lon="0.18038">
        <ele>116.8</ele>
        <time>2022-04-03T15:32:19Z</time>
      </trkpt>
      <trkpt lat="46.02486" lon="0.18033">
        <ele>117.2</ele>
        <time>2022-04-03T15:32:20Z</time>
      </trkpt>
      <trkpt lat="46.02484" lon="0.18027">
        <ele>117.6</ele>
        <time>2022-04-03T15:32:21Z</time>
      </trkpt>
      <trkpt lat="46.02483" lon="0.18022">
        <ele>117.8</ele>
        <time>2022-04-03T15:32:22Z</time>
      </trkpt>
      <trkpt lat="46.02481" lon="0.18016">
        <ele>118</ele>
        <time>2022-04-03T15:32:23Z</time>
      </trkpt>
      <trkpt lat="46.0248" lon="0.18011">
        <ele>118.2</ele>
        <time>2022-04-03T15:32:24Z</time>
      </trkpt>
      <trkpt lat="46.02478" lon="0.18005">
        <ele>118.4</ele>
        <time>2022-04-03T15:32:25Z</time>
      </trkpt>
      <trkpt lat="46.02476" lon="0.18">
        <ele>118.6</ele>
        <time>2022-04-03T15:32:26Z</time>
      </trkpt>
      <trkpt lat="46.02474" lon="0.17994">
        <ele>118.8</ele>
        <time>2022-04-03T15:32:27Z</time>
      </trkpt>
      <trkpt lat="46.02472" lon="0.17989">
        <ele>118.6</ele>
        <time>2022-04-03T15:32:28Z</time>
      </trkpt>
      <trkpt lat="46.0247" lon="0.17984">
        <ele>119</ele>
        <time>2022-04-03T15:32:29Z</time>
      </trkpt>
      <trkpt lat="46.02468" lon="0.17978">
        <ele>119</ele>
        <time>2022-04-03T15:32:30Z</time>
      </trkpt>
      <trkpt lat="46.02466" lon="0.17973">
        <ele>119</ele>
        <time>2022-04-03T15:32:31Z</time>
      </trkpt>
      <trkpt lat="46.02464" lon="0.17968">
        <ele>119.4</ele>
        <time>2022-04-03T15:32:32Z</time>
      </trkpt>
      <trkpt lat="46.02462" lon="0.17962">
        <ele>119.4</ele>
        <time>2022-04-03T15:32:33Z</time>
      </trkpt>
      <trkpt lat="46.0246" lon="0.17957">
        <ele>119.6</ele>
        <time>2022-04-03T15:32:34Z</time>
      </trkpt>
      <trkpt lat="46.02458" lon="0.17952">
        <ele>119.6</ele>
        <time>2022-04-03T15:32:35Z</time>
      </trkpt>
      <trkpt lat="46.02456" lon="0.17947">
        <ele>119.6</ele>
        <time>2022-04-03T15:32:36Z</time>
      </trkpt>
      <trkpt lat="46.02453" lon="0.17941">
        <ele>119.8</ele>
        <time>2022-04-03T15:32:37Z</time>
      </trkpt>
      <trkpt lat="46.02451" lon="0.17936">
        <ele>119.8</ele>
        <time>2022-04-03T15:32:38Z</time>
      </trkpt>
      <trkpt lat="46.02448" lon="0.1793">
        <ele>119.8</ele>
        <time>2022-04-03T15:32:39Z</time>
      </trkpt>
      <trkpt lat="46.02446" lon="0.17925">
        <ele>119.8</ele>
        <time>2022-04-03T15:32:40Z</time>
      </trkpt>
      <trkpt lat="46.02443" lon="0.1792">
        <ele>119.8</ele>
        <time>2022-04-03T15:32:41Z</time>
      </trkpt>
      <trkpt lat="46.02441" lon="0.17915">
        <ele>120</ele>
        <time>2022-04-03T15:32:42Z</time>
      </trkpt>
      <trkpt lat="46.02438" lon="0.1791">
        <ele>120</ele>
        <time>2022-04-03T15:32:43Z</time>
      </trkpt>
      <trkpt lat="46.02435" lon="0.17905">
        <ele>119.8</ele>
        <time>2022-04-03T15:32:44Z</time>
      </trkpt>
      <trkpt lat="46.02432" lon="0.179">
        <ele>120</ele>
        <time>2022-04-03T15:32:45Z</time>
      </trkpt>
      <trkpt lat="46.02429" lon="0.17895">
        <ele>120</ele>
        <time>2022-04-03T15:32:46Z</time>
      </trkpt>
      <trkpt lat="46.02427" lon="0.1789">
        <ele>119.8</ele>
        <time>2022-04-03T15:32:47Z</time>
      </trkpt>
      <trkpt lat="46.02424" lon="0.17885">
        <ele>120</ele>
        <time>2022-04-03T15:32:48Z</time>
      </trkpt>
      <trkpt lat="46.02421" lon="0.1788">
        <ele>120</ele>
        <time>2022-04-03T15:32:49Z</time>
      </trkpt>
      <trkpt lat="46.02418" lon="0.17874">
        <ele>120</ele>
        <time>2022-04-03T15:32:50Z</time>
      </trkpt>
      <trkpt lat="46.02415" lon="0.17869">
        <ele>120</ele>
        <time>2022-04-03T15:32:51Z</time>
      </trkpt>
      <trkpt lat="46.02411" lon="0.17864">
        <ele>119.8</ele>
        <time>2022-04-03T15:32:52Z</time>
      </trkpt>
      <trkpt lat="46.02408" lon="0.17859">
        <ele>119.8</ele>
        <time>2022-04-03T15:32:53Z</time>
      </trkpt>
      <trkpt lat="46.02404" lon="0.17854">
        <ele>119.8</ele>
        <time>2022-04-03T15:32:54Z</time>
      </trkpt>
      <trkpt lat="46.02401" lon="0.17848">
        <ele>119.8</ele>
        <time>2022-04-03T15:32:55Z</time>
      </trkpt>
      <trkpt lat="46.02398" lon="0.17842">
        <ele>119.6</ele>
        <time>2022-04-03T15:32:56Z</time>
      </trkpt>
      <trkpt lat="46.02395" lon="0.17835">
        <ele>119.4</ele>
        <time>2022-04-03T15:32:57Z</time>
      </trkpt>
      <trkpt lat="46.02392" lon="0.17828">
        <ele>119.2</ele>
        <time>2022-04-03T15:32:58Z</time>
      </trkpt>
      <trkpt lat="46.0239" lon="0.1782">
        <ele>119.2</ele>
        <time>2022-04-03T15:32:59Z</time>
      </trkpt>
      <trkpt lat="46.02389" lon="0.17812">
        <ele>119</ele>
        <time>2022-04-03T15:33:00Z</time>
      </trkpt>
      <trkpt lat="46.02387" lon="0.17804">
        <ele>118.8</ele>
        <time>2022-04-03T15:33:01Z</time>
      </trkpt>
      <trkpt lat="46.02387" lon="0.17795">
        <ele>118.6</ele>
        <time>2022-04-03T15:33:02Z</time>
      </trkpt>
      <trkpt lat="46.02386" lon="0.17785">
        <ele>118.6</ele>
        <time>2022-04-03T15:33:03Z</time>
      </trkpt>
      <trkpt lat="46.02386" lon="0.17776">
        <ele>118.2</ele>
        <time>2022-04-03T15:33:04Z</time>
      </trkpt>
      <trkpt lat="46.02387" lon="0.17766">
        <ele>117.8</ele>
        <time>2022-04-03T15:33:05Z</time>
      </trkpt>
      <trkpt lat="46.02389" lon="0.17757">
        <ele>117.6</ele>
        <time>2022-04-03T15:33:06Z</time>
      </trkpt>
      <trkpt lat="46.02391" lon="0.17748">
        <ele>117.4</ele>
        <time>2022-04-03T15:33:07Z</time>
      </trkpt>
      <trkpt lat="46.02394" lon="0.17739">
        <ele>117.2</ele>
        <time>2022-04-03T15:33:08Z</time>
      </trkpt>
      <trkpt lat="46.02398" lon="0.1773">
        <ele>117.2</ele>
        <time>2022-04-03T15:33:09Z</time>
      </trkpt>
      <trkpt lat="46.02402" lon="0.17722">
        <ele>117.2</ele>
        <time>2022-04-03T15:33:10Z</time>
      </trkpt>
      <trkpt lat="46.02406" lon="0.17713">
        <ele>116.8</ele>
        <time>2022-04-03T15:33:11Z</time>
      </trkpt>
      <trkpt lat="46.0241" lon="0.17706">
        <ele>116.4</ele>
        <time>2022-04-03T15:33:12Z</time>
      </trkpt>
      <trkpt lat="46.02415" lon="0.17698">
        <ele>116</ele>
        <time>2022-04-03T15:33:13Z</time>
      </trkpt>
      <trkpt lat="46.02419" lon="0.1769">
        <ele>115.8</ele>
        <time>2022-04-03T15:33:14Z</time>
      </trkpt>
      <trkpt lat="46.02422" lon="0.17682">
        <ele>115.4</ele>
        <time>2022-04-03T15:33:15Z</time>
      </trkpt>
      <trkpt lat="46.02426" lon="0.17673">
        <ele>115</ele>
        <time>2022-04-03T15:33:16Z</time>
      </trkpt>
      <trkpt lat="46.02429" lon="0.17664">
        <ele>114.6</ele>
        <time>2022-04-03T15:33:17Z</time>
      </trkpt>
      <trkpt lat="46.02431" lon="0.17655">
        <ele>114</ele>
        <time>2022-04-03T15:33:18Z</time>
      </trkpt>
      <trkpt lat="46.02433" lon="0.17644">
        <ele>113.8</ele>
        <time>2022-04-03T15:33:19Z</time>
      </trkpt>
      <trkpt lat="46.02435" lon="0.17634">
        <ele>113.4</ele>
        <time>2022-04-03T15:33:20Z</time>
      </trkpt>
      <trkpt lat="46.02436" lon="0.17624">
        <ele>113</ele>
        <time>2022-04-03T15:33:21Z</time>
      </trkpt>
      <trkpt lat="46.02438" lon="0.17613">
        <ele>112.6</ele>
        <time>2022-04-03T15:33:22Z</time>
      </trkpt>
      <trkpt lat="46.0244" lon="0.17603">
        <ele>112</ele>
        <time>2022-04-03T15:33:23Z</time>
      </trkpt>
      <trkpt lat="46.02441" lon="0.17594">
        <ele>111.8</ele>
        <time>2022-04-03T15:33:24Z</time>
      </trkpt>
      <trkpt lat="46.02443" lon="0.17585">
        <ele>111.4</ele>
        <time>2022-04-03T15:33:25Z</time>
      </trkpt>
      <trkpt lat="46.02444" lon="0.17577">
        <ele>111.4</ele>
        <time>2022-04-03T15:33:26Z</time>
      </trkpt>
      <trkpt lat="46.02446" lon="0.17569">
        <ele>111.4</ele>
        <time>2022-04-03T15:33:27Z</time>
      </trkpt>
      <trkpt lat="46.02447" lon="0.17561">
        <ele>111.4</ele>
        <time>2022-04-03T15:33:28Z</time>
      </trkpt>
      <trkpt lat="46.02447" lon="0.17554">
        <ele>111.2</ele>
        <time>2022-04-03T15:33:29Z</time>
      </trkpt>
      <trkpt lat="46.02447" lon="0.17547">
        <ele>111.2</ele>
        <time>2022-04-03T15:33:30Z</time>
      </trkpt>
      <trkpt lat="46.02447" lon="0.1754">
        <ele>111.2</ele>
        <time>2022-04-03T15:33:31Z</time>
      </trkpt>
      <trkpt lat="46.02446" lon="0.17534">
        <ele>111.2</ele>
        <time>2022-04-03T15:33:32Z</time>
      </trkpt>
      <trkpt lat="46.02444" lon="0.17528">
        <ele>111.2</ele>
        <time>2022-04-03T15:33:33Z</time>
      </trkpt>
      <trkpt lat="46.02442" lon="0.17522">
        <ele>111.2</ele>
        <time>2022-04-03T15:33:34Z</time>
      </trkpt>
      <trkpt lat="46.0244" lon="0.17517">
        <ele>111.4</ele>
        <time>2022-04-03T15:33:35Z</time>
      </trkpt>
      <trkpt lat="46.02438" lon="0.17511">
        <ele>111.8</ele>
        <time>2022-04-03T15:33:36Z</time>
      </trkpt>
      <trkpt lat="46.02436" lon="0.17506">
        <ele>112.2</ele>
        <time>2022-04-03T15:33:37Z</time>
      </trkpt>
      <trkpt lat="46.02433" lon="0.17501">
        <ele>112.6</ele>
        <time>2022-04-03T15:33:38Z</time>
      </trkpt>
      <trkpt lat="46.0243" lon="0.17496">
        <ele>112.8</ele>
        <time>2022-04-03T15:33:39Z</time>
      </trkpt>
      <trkpt lat="46.02426" lon="0.17492">
        <ele>113</ele>
        <time>2022-04-03T15:33:40Z</time>
      </trkpt>
      <trkpt lat="46.02423" lon="0.17487">
        <ele>113</ele>
        <time>2022-04-03T15:33:41Z</time>
      </trkpt>
      <trkpt lat="46.0242" lon="0.17482">
        <ele>113.4</ele>
        <time>2022-04-03T15:33:42Z</time>
      </trkpt>
      <trkpt lat="46.02417" lon="0.17477">
        <ele>113.4</ele>
        <time>2022-04-03T15:33:43Z</time>
      </trkpt>
      <trkpt lat="46.02414" lon="0.17472">
        <ele>113.4</ele>
        <time>2022-04-03T15:33:44Z</time>
      </trkpt>
      <trkpt lat="46.02412" lon="0.17466">
        <ele>113.6</ele>
        <time>2022-04-03T15:33:45Z</time>
      </trkpt>
      <trkpt lat="46.0241" lon="0.1746">
        <ele>113.6</ele>
        <time>2022-04-03T15:33:46Z</time>
      </trkpt>
      <trkpt lat="46.02409" lon="0.17454">
        <ele>114</ele>
        <time>2022-04-03T15:33:47Z</time>
      </trkpt>
      <trkpt lat="46.02407" lon="0.17448">
        <ele>114</ele>
        <time>2022-04-03T15:33:48Z</time>
      </trkpt>
      <trkpt lat="46.02406" lon="0.17442">
        <ele>114.2</ele>
        <time>2022-04-03T15:33:49Z</time>
      </trkpt>
      <trkpt lat="46.02405" lon="0.17435">
        <ele>114.2</ele>
        <time>2022-04-03T15:33:50Z</time>
      </trkpt>
      <trkpt lat="46.02404" lon="0.17429">
        <ele>114.4</ele>
        <time>2022-04-03T15:33:51Z</time>
      </trkpt>
      <trkpt lat="46.02402" lon="0.17423">
        <ele>114.6</ele>
        <time>2022-04-03T15:33:52Z</time>
      </trkpt>
      <trkpt lat="46.02401" lon="0.17416">
        <ele>114.4</ele>
        <time>2022-04-03T15:33:53Z</time>
      </trkpt>
      <trkpt lat="46.024" lon="0.1741">
        <ele>114.4</ele>
        <time>2022-04-03T15:33:54Z</time>
      </trkpt>
      <trkpt lat="46.024" lon="0.17403">
        <ele>114.6</ele>
        <time>2022-04-03T15:33:55Z</time>
      </trkpt>
      <trkpt lat="46.02399" lon="0.17397">
        <ele>114.6</ele>
        <time>2022-04-03T15:33:56Z</time>
      </trkpt>
      <trkpt lat="46.02398" lon="0.1739">
        <ele>114.6</ele>
        <time>2022-04-03T15:33:57Z</time>
      </trkpt>
      <trkpt lat="46.02397" lon="0.17384">
        <ele>114.8</ele>
        <time>2022-04-03T15:33:58Z</time>
      </trkpt>
      <trkpt lat="46.02396" lon="0.17378">
        <ele>114.8</ele>
        <time>2022-04-03T15:33:59Z</time>
      </trkpt>
      <trkpt lat="46.02395" lon="0.17372">
        <ele>115</ele>
        <time>2022-04-03T15:34:00Z</time>
      </trkpt>
      <trkpt lat="46.02394" lon="0.17366">
        <ele>115</ele>
        <time>2022-04-03T15:34:01Z</time>
      </trkpt>
      <trkpt lat="46.02393" lon="0.1736">
        <ele>115</ele>
        <time>2022-04-03T15:34:02Z</time>
      </trkpt>
      <trkpt lat="46.02392" lon="0.17354">
        <ele>115.2</ele>
        <time>2022-04-03T15:34:03Z</time>
      </trkpt>
      <trkpt lat="46.02392" lon="0.17348">
        <ele>115.2</ele>
        <time>2022-04-03T15:34:04Z</time>
      </trkpt>
      <trkpt lat="46.02391" lon="0.17342">
        <ele>115.2</ele>
        <time>2022-04-03T15:34:05Z</time>
      </trkpt>
      <trkpt lat="46.0239" lon="0.17336">
        <ele>115.4</ele>
        <time>2022-04-03T15:34:06Z</time>
      </trkpt>
      <trkpt lat="46.02389" lon="0.17331">
        <ele>115.4</ele>
        <time>2022-04-03T15:34:07Z</time>
      </trkpt>
      <trkpt lat="46.02388" lon="0.17325">
        <ele>115.4</ele>
        <time>2022-04-03T15:34:08Z</time>
      </trkpt>
      <trkpt lat="46.02387" lon="0.17319">
        <ele>115.6</ele>
        <time>2022-04-03T15:34:09Z</time>
      </trkpt>
      <trkpt lat="46.02386" lon="0.17313">
        <ele>115.6</ele>
        <time>2022-04-03T15:34:10Z</time>
      </trkpt>
      <trkpt lat="46.02385" lon="0.17306">
        <ele>115.8</ele>
        <time>2022-04-03T15:34:11Z</time>
      </trkpt>
      <trkpt lat="46.02384" lon="0.173">
        <ele>116</ele>
        <time>2022-04-03T15:34:12Z</time>
      </trkpt>
      <trkpt lat="46.02383" lon="0.17294">
        <ele>116.2</ele>
        <time>2022-04-03T15:34:13Z</time>
      </trkpt>
      <trkpt lat="46.02382" lon="0.17288">
        <ele>116.4</ele>
        <time>2022-04-03T15:34:14Z</time>
      </trkpt>
      <trkpt lat="46.02381" lon="0.17281">
        <ele>116.4</ele>
        <time>2022-04-03T15:34:15Z</time>
      </trkpt>
      <trkpt lat="46.0238" lon="0.17275">
        <ele>116.4</ele>
        <time>2022-04-03T15:34:16Z</time>
      </trkpt>
      <trkpt lat="46.02379" lon="0.17269">
        <ele>116.4</ele>
        <time>2022-04-03T15:34:17Z</time>
      </trkpt>
      <trkpt lat="46.02378" lon="0.17262">
        <ele>116.6</ele>
        <time>2022-04-03T15:34:18Z</time>
      </trkpt>
      <trkpt lat="46.02377" lon="0.17256">
        <ele>116.6</ele>
        <time>2022-04-03T15:34:19Z</time>
      </trkpt>
      <trkpt lat="46.02376" lon="0.1725">
        <ele>116.8</ele>
        <time>2022-04-03T15:34:20Z</time>
      </trkpt>
      <trkpt lat="46.02375" lon="0.17244">
        <ele>116.6</ele>
        <time>2022-04-03T15:34:21Z</time>
      </trkpt>
      <trkpt lat="46.02374" lon="0.17238">
        <ele>116.8</ele>
        <time>2022-04-03T15:34:22Z</time>
      </trkpt>
      <trkpt lat="46.02373" lon="0.17232">
        <ele>117</ele>
        <time>2022-04-03T15:34:23Z</time>
      </trkpt>
      <trkpt lat="46.02373" lon="0.17226">
        <ele>117</ele>
        <time>2022-04-03T15:34:24Z</time>
      </trkpt>
      <trkpt lat="46.02372" lon="0.1722">
        <ele>117.2</ele>
        <time>2022-04-03T15:34:25Z</time>
      </trkpt>
      <trkpt lat="46.02371" lon="0.17214">
        <ele>117.4</ele>
        <time>2022-04-03T15:34:26Z</time>
      </trkpt>
      <trkpt lat="46.0237" lon="0.17208">
        <ele>117.6</ele>
        <time>2022-04-03T15:34:27Z</time>
      </trkpt>
      <trkpt lat="46.02369" lon="0.17203">
        <ele>117.6</ele>
        <time>2022-04-03T15:34:28Z</time>
      </trkpt>
      <trkpt lat="46.02368" lon="0.17197">
        <ele>117.6</ele>
        <time>2022-04-03T15:34:29Z</time>
      </trkpt>
      <trkpt lat="46.02367" lon="0.17191">
        <ele>117.8</ele>
        <time>2022-04-03T15:34:30Z</time>
      </trkpt>
      <trkpt lat="46.02366" lon="0.17186">
        <ele>117.8</ele>
        <time>2022-04-03T15:34:31Z</time>
      </trkpt>
      <trkpt lat="46.02366" lon="0.1718">
        <ele>118</ele>
        <time>2022-04-03T15:34:32Z</time>
      </trkpt>
      <trkpt lat="46.02365" lon="0.17174">
        <ele>118</ele>
        <time>2022-04-03T15:34:33Z</time>
      </trkpt>
      <trkpt lat="46.02364" lon="0.17168">
        <ele>118</ele>
        <time>2022-04-03T15:34:34Z</time>
      </trkpt>
      <trkpt lat="46.02363" lon="0.17162">
        <ele>118.2</ele>
        <time>2022-04-03T15:34:35Z</time>
      </trkpt>
      <trkpt lat="46.02362" lon="0.17156">
        <ele>118</ele>
        <time>2022-04-03T15:34:36Z</time>
      </trkpt>
      <trkpt lat="46.02361" lon="0.1715">
        <ele>118.2</ele>
        <time>2022-04-03T15:34:37Z</time>
      </trkpt>
      <trkpt lat="46.0236" lon="0.17144">
        <ele>118.2</ele>
        <time>2022-04-03T15:34:38Z</time>
      </trkpt>
      <trkpt lat="46.0236" lon="0.17138">
        <ele>118.4</ele>
        <time>2022-04-03T15:34:39Z</time>
      </trkpt>
      <trkpt lat="46.02359" lon="0.17131">
        <ele>118.6</ele>
        <time>2022-04-03T15:34:40Z</time>
      </trkpt>
      <trkpt lat="46.02358" lon="0.17125">
        <ele>118.6</ele>
        <time>2022-04-03T15:34:41Z</time>
      </trkpt>
      <trkpt lat="46.02357" lon="0.17119">
        <ele>118.6</ele>
        <time>2022-04-03T15:34:42Z</time>
      </trkpt>
      <trkpt lat="46.02356" lon="0.17112">
        <ele>118.8</ele>
        <time>2022-04-03T15:34:43Z</time>
      </trkpt>
      <trkpt lat="46.02355" lon="0.17106">
        <ele>118.8</ele>
        <time>2022-04-03T15:34:44Z</time>
      </trkpt>
      <trkpt lat="46.02355" lon="0.171">
        <ele>119</ele>
        <time>2022-04-03T15:34:45Z</time>
      </trkpt>
      <trkpt lat="46.02354" lon="0.17094">
        <ele>119</ele>
        <time>2022-04-03T15:34:46Z</time>
      </trkpt>
      <trkpt lat="46.02353" lon="0.17087">
        <ele>119</ele>
        <time>2022-04-03T15:34:47Z</time>
      </trkpt>
      <trkpt lat="46.02352" lon="0.17081">
        <ele>119</ele>
        <time>2022-04-03T15:34:48Z</time>
      </trkpt>
      <trkpt lat="46.02351" lon="0.17075">
        <ele>119</ele>
        <time>2022-04-03T15:34:49Z</time>
      </trkpt>
      <trkpt lat="46.0235" lon="0.17069">
        <ele>119</ele>
        <time>2022-04-03T15:34:50Z</time>
      </trkpt>
      <trkpt lat="46.02349" lon="0.17062">
        <ele>119</ele>
        <time>2022-04-03T15:34:51Z</time>
      </trkpt>
      <trkpt lat="46.02349" lon="0.17056">
        <ele>119.2</ele>
        <time>2022-04-03T15:34:52Z</time>
      </trkpt>
      <trkpt lat="46.02348" lon="0.1705">
        <ele>119</ele>
        <time>2022-04-03T15:34:53Z</time>
      </trkpt>
      <trkpt lat="46.02347" lon="0.17043">
        <ele>119.2</ele>
        <time>2022-04-03T15:34:54Z</time>
      </trkpt>
      <trkpt lat="46.02346" lon="0.17037">
        <ele>119.2</ele>
        <time>2022-04-03T15:34:55Z</time>
      </trkpt>
      <trkpt lat="46.02345" lon="0.1703">
        <ele>119.4</ele>
        <time>2022-04-03T15:34:56Z</time>
      </trkpt>
      <trkpt lat="46.02344" lon="0.17024">
        <ele>119.6</ele>
        <time>2022-04-03T15:34:57Z</time>
      </trkpt>
      <trkpt lat="46.02343" lon="0.17018">
        <ele>119.8</ele>
        <time>2022-04-03T15:34:58Z</time>
      </trkpt>
      <trkpt lat="46.02342" lon="0.17011">
        <ele>119.6</ele>
        <time>2022-04-03T15:34:59Z</time>
      </trkpt>
      <trkpt lat="46.02341" lon="0.17005">
        <ele>119.8</ele>
        <time>2022-04-03T15:35:00Z</time>
      </trkpt>
      <trkpt lat="46.0234" lon="0.16999">
        <ele>119.8</ele>
        <time>2022-04-03T15:35:01Z</time>
      </trkpt>
      <trkpt lat="46.0234" lon="0.16992">
        <ele>120</ele>
        <time>2022-04-03T15:35:02Z</time>
      </trkpt>
      <trkpt lat="46.02339" lon="0.16986">
        <ele>120</ele>
        <time>2022-04-03T15:35:03Z</time>
      </trkpt>
      <trkpt lat="46.02338" lon="0.16979">
        <ele>120</ele>
        <time>2022-04-03T15:35:04Z</time>
      </trkpt>
      <trkpt lat="46.02337" lon="0.16973">
        <ele>120</ele>
        <time>2022-04-03T15:35:05Z</time>
      </trkpt>
      <trkpt lat="46.02336" lon="0.16967">
        <ele>120</ele>
        <time>2022-04-03T15:35:06Z</time>
      </trkpt>
      <trkpt lat="46.02335" lon="0.16961">
        <ele>120</ele>
        <time>2022-04-03T15:35:07Z</time>
      </trkpt>
      <trkpt lat="46.02334" lon="0.16954">
        <ele>120.2</ele>
        <time>2022-04-03T15:35:08Z</time>
      </trkpt>
      <trkpt lat="46.02333" lon="0.16948">
        <ele>120.2</ele>
        <time>2022-04-03T15:35:09Z</time>
      </trkpt>
      <trkpt lat="46.02332" lon="0.16942">
        <ele>120.2</ele>
        <time>2022-04-03T15:35:10Z</time>
      </trkpt>
      <trkpt lat="46.02332" lon="0.16935">
        <ele>120.4</ele>
        <time>2022-04-03T15:35:11Z</time>
      </trkpt>
      <trkpt lat="46.02331" lon="0.16929">
        <ele>120.4</ele>
        <time>2022-04-03T15:35:12Z</time>
      </trkpt>
      <trkpt lat="46.0233" lon="0.16923">
        <ele>120.6</ele>
        <time>2022-04-03T15:35:13Z</time>
      </trkpt>
      <trkpt lat="46.02329" lon="0.16916">
        <ele>120.6</ele>
        <time>2022-04-03T15:35:14Z</time>
      </trkpt>
      <trkpt lat="46.02328" lon="0.1691">
        <ele>120.6</ele>
        <time>2022-04-03T15:35:15Z</time>
      </trkpt>
      <trkpt lat="46.02327" lon="0.16904">
        <ele>120.8</ele>
        <time>2022-04-03T15:35:16Z</time>
      </trkpt>
      <trkpt lat="46.02326" lon="0.16897">
        <ele>120.8</ele>
        <time>2022-04-03T15:35:17Z</time>
      </trkpt>
      <trkpt lat="46.02325" lon="0.16891">
        <ele>120.8</ele>
        <time>2022-04-03T15:35:18Z</time>
      </trkpt>
      <trkpt lat="46.02324" lon="0.16885">
        <ele>121</ele>
        <time>2022-04-03T15:35:19Z</time>
      </trkpt>
      <trkpt lat="46.02323" lon="0.16878">
        <ele>121</ele>
        <time>2022-04-03T15:35:20Z</time>
      </trkpt>
      <trkpt lat="46.02322" lon="0.16872">
        <ele>121</ele>
        <time>2022-04-03T15:35:21Z</time>
      </trkpt>
      <trkpt lat="46.02321" lon="0.16865">
        <ele>121</ele>
        <time>2022-04-03T15:35:22Z</time>
      </trkpt>
      <trkpt lat="46.0232" lon="0.16859">
        <ele>121.2</ele>
        <time>2022-04-03T15:35:23Z</time>
      </trkpt>
      <trkpt lat="46.02319" lon="0.16852">
        <ele>121.4</ele>
        <time>2022-04-03T15:35:24Z</time>
      </trkpt>
      <trkpt lat="46.02318" lon="0.16846">
        <ele>121.4</ele>
        <time>2022-04-03T15:35:25Z</time>
      </trkpt>
      <trkpt lat="46.02318" lon="0.16839">
        <ele>121.4</ele>
        <time>2022-04-03T15:35:26Z</time>
      </trkpt>
      <trkpt lat="46.02317" lon="0.16833">
        <ele>121.4</ele>
        <time>2022-04-03T15:35:27Z</time>
      </trkpt>
      <trkpt lat="46.02316" lon="0.16826">
        <ele>121.6</ele>
        <time>2022-04-03T15:35:28Z</time>
      </trkpt>
      <trkpt lat="46.02315" lon="0.16819">
        <ele>121.8</ele>
        <time>2022-04-03T15:35:29Z</time>
      </trkpt>
      <trkpt lat="46.02314" lon="0.16813">
        <ele>121.8</ele>
        <time>2022-04-03T15:35:30Z</time>
      </trkpt>
      <trkpt lat="46.02313" lon="0.16806">
        <ele>121.8</ele>
        <time>2022-04-03T15:35:31Z</time>
      </trkpt>
      <trkpt lat="46.02312" lon="0.168">
        <ele>121.8</ele>
        <time>2022-04-03T15:35:32Z</time>
      </trkpt>
      <trkpt lat="46.02311" lon="0.16793">
        <ele>121.8</ele>
        <time>2022-04-03T15:35:33Z</time>
      </trkpt>
      <trkpt lat="46.0231" lon="0.16787">
        <ele>121.8</ele>
        <time>2022-04-03T15:35:34Z</time>
      </trkpt>
      <trkpt lat="46.02309" lon="0.1678">
        <ele>121.8</ele>
        <time>2022-04-03T15:35:35Z</time>
      </trkpt>
      <trkpt lat="46.02308" lon="0.16774">
        <ele>122.2</ele>
        <time>2022-04-03T15:35:36Z</time>
      </trkpt>
      <trkpt lat="46.02307" lon="0.16767">
        <ele>122.2</ele>
        <time>2022-04-03T15:35:37Z</time>
      </trkpt>
      <trkpt lat="46.02307" lon="0.16761">
        <ele>122.4</ele>
        <time>2022-04-03T15:35:38Z</time>
      </trkpt>
      <trkpt lat="46.02306" lon="0.16754">
        <ele>122.4</ele>
        <time>2022-04-03T15:35:39Z</time>
      </trkpt>
      <trkpt lat="46.02305" lon="0.16748">
        <ele>122.2</ele>
        <time>2022-04-03T15:35:40Z</time>
      </trkpt>
      <trkpt lat="46.02304" lon="0.16742">
        <ele>122.4</ele>
        <time>2022-04-03T15:35:41Z</time>
      </trkpt>
      <trkpt lat="46.02303" lon="0.16736">
        <ele>122.4</ele>
        <time>2022-04-03T15:35:42Z</time>
      </trkpt>
      <trkpt lat="46.02302" lon="0.16729">
        <ele>122.4</ele>
        <time>2022-04-03T15:35:43Z</time>
      </trkpt>
      <trkpt lat="46.02301" lon="0.16723">
        <ele>122.6</ele>
        <time>2022-04-03T15:35:44Z</time>
      </trkpt>
      <trkpt lat="46.023" lon="0.16717">
        <ele>122.4</ele>
        <time>2022-04-03T15:35:45Z</time>
      </trkpt>
      <trkpt lat="46.02299" lon="0.16711">
        <ele>122.6</ele>
        <time>2022-04-03T15:35:46Z</time>
      </trkpt>
      <trkpt lat="46.02298" lon="0.16704">
        <ele>122.6</ele>
        <time>2022-04-03T15:35:47Z</time>
      </trkpt>
      <trkpt lat="46.02298" lon="0.16698">
        <ele>122.6</ele>
        <time>2022-04-03T15:35:48Z</time>
      </trkpt>
      <trkpt lat="46.02297" lon="0.16692">
        <ele>122.6</ele>
        <time>2022-04-03T15:35:49Z</time>
      </trkpt>
      <trkpt lat="46.02296" lon="0.16686">
        <ele>122.8</ele>
        <time>2022-04-03T15:35:50Z</time>
      </trkpt>
      <trkpt lat="46.02295" lon="0.1668">
        <ele>122.8</ele>
        <time>2022-04-03T15:35:51Z</time>
      </trkpt>
      <trkpt lat="46.02294" lon="0.16674">
        <ele>122.8</ele>
        <time>2022-04-03T15:35:52Z</time>
      </trkpt>
      <trkpt lat="46.02293" lon="0.16668">
        <ele>123.2</ele>
        <time>2022-04-03T15:35:53Z</time>
      </trkpt>
      <trkpt lat="46.02292" lon="0.16663">
        <ele>123.2</ele>
        <time>2022-04-03T15:35:54Z</time>
      </trkpt>
      <trkpt lat="46.02291" lon="0.16657">
        <ele>123.4</ele>
        <time>2022-04-03T15:35:55Z</time>
      </trkpt>
      <trkpt lat="46.02291" lon="0.16651">
        <ele>123.6</ele>
        <time>2022-04-03T15:35:56Z</time>
      </trkpt>
      <trkpt lat="46.0229" lon="0.16646">
        <ele>123.8</ele>
        <time>2022-04-03T15:35:57Z</time>
      </trkpt>
      <trkpt lat="46.02289" lon="0.1664">
        <ele>123.8</ele>
        <time>2022-04-03T15:35:58Z</time>
      </trkpt>
      <trkpt lat="46.02288" lon="0.16634">
        <ele>124</ele>
        <time>2022-04-03T15:35:59Z</time>
      </trkpt>
      <trkpt lat="46.02287" lon="0.16628">
        <ele>124.2</ele>
        <time>2022-04-03T15:36:00Z</time>
      </trkpt>
      <trkpt lat="46.02286" lon="0.16623">
        <ele>124.4</ele>
        <time>2022-04-03T15:36:01Z</time>
      </trkpt>
      <trkpt lat="46.02286" lon="0.16617">
        <ele>124.6</ele>
        <time>2022-04-03T15:36:02Z</time>
      </trkpt>
      <trkpt lat="46.02285" lon="0.16612">
        <ele>125.2</ele>
        <time>2022-04-03T15:36:03Z</time>
      </trkpt>
      <trkpt lat="46.02284" lon="0.16606">
        <ele>125.4</ele>
        <time>2022-04-03T15:36:04Z</time>
      </trkpt>
      <trkpt lat="46.02283" lon="0.166">
        <ele>125.8</ele>
        <time>2022-04-03T15:36:05Z</time>
      </trkpt>
      <trkpt lat="46.02282" lon="0.16595">
        <ele>126</ele>
        <time>2022-04-03T15:36:06Z</time>
      </trkpt>
      <trkpt lat="46.02281" lon="0.16589">
        <ele>126.2</ele>
        <time>2022-04-03T15:36:07Z</time>
      </trkpt>
      <trkpt lat="46.02281" lon="0.16583">
        <ele>126.4</ele>
        <time>2022-04-03T15:36:08Z</time>
      </trkpt>
      <trkpt lat="46.0228" lon="0.16577">
        <ele>126.6</ele>
        <time>2022-04-03T15:36:09Z</time>
      </trkpt>
      <trkpt lat="46.02279" lon="0.16572">
        <ele>126.8</ele>
        <time>2022-04-03T15:36:10Z</time>
      </trkpt>
      <trkpt lat="46.02279" lon="0.16566">
        <ele>127</ele>
        <time>2022-04-03T15:36:11Z</time>
      </trkpt>
      <trkpt lat="46.02278" lon="0.1656">
        <ele>127</ele>
        <time>2022-04-03T15:36:12Z</time>
      </trkpt>
      <trkpt lat="46.02277" lon="0.16554">
        <ele>127.2</ele>
        <time>2022-04-03T15:36:13Z</time>
      </trkpt>
      <trkpt lat="46.02276" lon="0.16548">
        <ele>127.4</ele>
        <time>2022-04-03T15:36:14Z</time>
      </trkpt>
      <trkpt lat="46.02275" lon="0.16543">
        <ele>127.6</ele>
        <time>2022-04-03T15:36:15Z</time>
      </trkpt>
      <trkpt lat="46.02274" lon="0.16537">
        <ele>127.8</ele>
        <time>2022-04-03T15:36:16Z</time>
      </trkpt>
      <trkpt lat="46.02273" lon="0.1653">
        <ele>127.8</ele>
        <time>2022-04-03T15:36:17Z</time>
      </trkpt>
      <trkpt lat="46.02273" lon="0.16524">
        <ele>128</ele>
        <time>2022-04-03T15:36:18Z</time>
      </trkpt>
      <trkpt lat="46.02272" lon="0.16518">
        <ele>128.2</ele>
        <time>2022-04-03T15:36:19Z</time>
      </trkpt>
      <trkpt lat="46.02271" lon="0.16513">
        <ele>128.2</ele>
        <time>2022-04-03T15:36:20Z</time>
      </trkpt>
      <trkpt lat="46.0227" lon="0.16507">
        <ele>128.4</ele>
        <time>2022-04-03T15:36:21Z</time>
      </trkpt>
      <trkpt lat="46.02269" lon="0.16501">
        <ele>128.6</ele>
        <time>2022-04-03T15:36:22Z</time>
      </trkpt>
      <trkpt lat="46.02268" lon="0.16495">
        <ele>128.8</ele>
        <time>2022-04-03T15:36:23Z</time>
      </trkpt>
      <trkpt lat="46.02268" lon="0.16489">
        <ele>129</ele>
        <time>2022-04-03T15:36:24Z</time>
      </trkpt>
      <trkpt lat="46.02267" lon="0.16484">
        <ele>129</ele>
        <time>2022-04-03T15:36:25Z</time>
      </trkpt>
      <trkpt lat="46.02266" lon="0.16478">
        <ele>129.2</ele>
        <time>2022-04-03T15:36:26Z</time>
      </trkpt>
      <trkpt lat="46.02265" lon="0.16472">
        <ele>129.2</ele>
        <time>2022-04-03T15:36:27Z</time>
      </trkpt>
      <trkpt lat="46.02264" lon="0.16466">
        <ele>129.4</ele>
        <time>2022-04-03T15:36:28Z</time>
      </trkpt>
      <trkpt lat="46.02263" lon="0.16461">
        <ele>129.4</ele>
        <time>2022-04-03T15:36:29Z</time>
      </trkpt>
      <trkpt lat="46.02262" lon="0.16455">
        <ele>129.6</ele>
        <time>2022-04-03T15:36:30Z</time>
      </trkpt>
      <trkpt lat="46.02262" lon="0.16449">
        <ele>129.4</ele>
        <time>2022-04-03T15:36:31Z</time>
      </trkpt>
      <trkpt lat="46.02261" lon="0.16443">
        <ele>129.6</ele>
        <time>2022-04-03T15:36:32Z</time>
      </trkpt>
      <trkpt lat="46.0226" lon="0.16437">
        <ele>129.6</ele>
        <time>2022-04-03T15:36:33Z</time>
      </trkpt>
      <trkpt lat="46.02259" lon="0.16431">
        <ele>130</ele>
        <time>2022-04-03T15:36:34Z</time>
      </trkpt>
      <trkpt lat="46.02259" lon="0.16425">
        <ele>130.2</ele>
        <time>2022-04-03T15:36:35Z</time>
      </trkpt>
      <trkpt lat="46.02258" lon="0.16419">
        <ele>130.2</ele>
        <time>2022-04-03T15:36:36Z</time>
      </trkpt>
      <trkpt lat="46.02257" lon="0.16413">
        <ele>130.2</ele>
        <time>2022-04-03T15:36:37Z</time>
      </trkpt>
      <trkpt lat="46.02256" lon="0.16407">
        <ele>130.2</ele>
        <time>2022-04-03T15:36:38Z</time>
      </trkpt>
      <trkpt lat="46.02255" lon="0.164">
        <ele>130.4</ele>
        <time>2022-04-03T15:36:39Z</time>
      </trkpt>
      <trkpt lat="46.02254" lon="0.16394">
        <ele>130.6</ele>
        <time>2022-04-03T15:36:40Z</time>
      </trkpt>
      <trkpt lat="46.02253" lon="0.16388">
        <ele>130.8</ele>
        <time>2022-04-03T15:36:41Z</time>
      </trkpt>
      <trkpt lat="46.02252" lon="0.16382">
        <ele>130.8</ele>
        <time>2022-04-03T15:36:42Z</time>
      </trkpt>
      <trkpt lat="46.02251" lon="0.16376">
        <ele>131</ele>
        <time>2022-04-03T15:36:43Z</time>
      </trkpt>
      <trkpt lat="46.0225" lon="0.1637">
        <ele>131</ele>
        <time>2022-04-03T15:36:44Z</time>
      </trkpt>
      <trkpt lat="46.02249" lon="0.16364">
        <ele>131</ele>
        <time>2022-04-03T15:36:45Z</time>
      </trkpt>
      <trkpt lat="46.02248" lon="0.16358">
        <ele>131</ele>
        <time>2022-04-03T15:36:46Z</time>
      </trkpt>
      <trkpt lat="46.02247" lon="0.16352">
        <ele>131.2</ele>
        <time>2022-04-03T15:36:47Z</time>
      </trkpt>
      <trkpt lat="46.02247" lon="0.16346">
        <ele>131.4</ele>
        <time>2022-04-03T15:36:48Z</time>
      </trkpt>
      <trkpt lat="46.02246" lon="0.1634">
        <ele>131.4</ele>
        <time>2022-04-03T15:36:49Z</time>
      </trkpt>
      <trkpt lat="46.02245" lon="0.16334">
        <ele>131.4</ele>
        <time>2022-04-03T15:36:50Z</time>
      </trkpt>
      <trkpt lat="46.02244" lon="0.16328">
        <ele>131.8</ele>
        <time>2022-04-03T15:36:51Z</time>
      </trkpt>
      <trkpt lat="46.02244" lon="0.16321">
        <ele>132</ele>
        <time>2022-04-03T15:36:52Z</time>
      </trkpt>
      <trkpt lat="46.02243" lon="0.16315">
        <ele>132.2</ele>
        <time>2022-04-03T15:36:53Z</time>
      </trkpt>
      <trkpt lat="46.02242" lon="0.16309">
        <ele>132.2</ele>
        <time>2022-04-03T15:36:54Z</time>
      </trkpt>
      <trkpt lat="46.02241" lon="0.16303">
        <ele>132.2</ele>
        <time>2022-04-03T15:36:55Z</time>
      </trkpt>
      <trkpt lat="46.0224" lon="0.16296">
        <ele>132.2</ele>
        <time>2022-04-03T15:36:56Z</time>
      </trkpt>
      <trkpt lat="46.02239" lon="0.1629">
        <ele>132.2</ele>
        <time>2022-04-03T15:36:57Z</time>
      </trkpt>
      <trkpt lat="46.02238" lon="0.16283">
        <ele>132.4</ele>
        <time>2022-04-03T15:36:58Z</time>
      </trkpt>
      <trkpt lat="46.02237" lon="0.16277">
        <ele>132.6</ele>
        <time>2022-04-03T15:36:59Z</time>
      </trkpt>
      <trkpt lat="46.02236" lon="0.1627">
        <ele>132.4</ele>
        <time>2022-04-03T15:37:00Z</time>
      </trkpt>
      <trkpt lat="46.02235" lon="0.16264">
        <ele>132.6</ele>
        <time>2022-04-03T15:37:01Z</time>
      </trkpt>
      <trkpt lat="46.02234" lon="0.16257">
        <ele>132.6</ele>
        <time>2022-04-03T15:37:02Z</time>
      </trkpt>
      <trkpt lat="46.02233" lon="0.1625">
        <ele>132.6</ele>
        <time>2022-04-03T15:37:03Z</time>
      </trkpt>
      <trkpt lat="46.02232" lon="0.16243">
        <ele>132.8</ele>
        <time>2022-04-03T15:37:04Z</time>
      </trkpt>
      <trkpt lat="46.02231" lon="0.16235">
        <ele>132.8</ele>
        <time>2022-04-03T15:37:05Z</time>
      </trkpt>
      <trkpt lat="46.0223" lon="0.16228">
        <ele>132.6</ele>
        <time>2022-04-03T15:37:06Z</time>
      </trkpt>
      <trkpt lat="46.02229" lon="0.1622">
        <ele>132.6</ele>
        <time>2022-04-03T15:37:07Z</time>
      </trkpt>
      <trkpt lat="46.02228" lon="0.16212">
        <ele>132.6</ele>
        <time>2022-04-03T15:37:08Z</time>
      </trkpt>
      <trkpt lat="46.02227" lon="0.16204">
        <ele>132.6</ele>
        <time>2022-04-03T15:37:09Z</time>
      </trkpt>
      <trkpt lat="46.02225" lon="0.16196">
        <ele>132.6</ele>
        <time>2022-04-03T15:37:10Z</time>
      </trkpt>
      <trkpt lat="46.02224" lon="0.16188">
        <ele>132.4</ele>
        <time>2022-04-03T15:37:11Z</time>
      </trkpt>
      <trkpt lat="46.02223" lon="0.1618">
        <ele>132.4</ele>
        <time>2022-04-03T15:37:12Z</time>
      </trkpt>
      <trkpt lat="46.02222" lon="0.16171">
        <ele>132.4</ele>
        <time>2022-04-03T15:37:13Z</time>
      </trkpt>
      <trkpt lat="46.02221" lon="0.16163">
        <ele>132.4</ele>
        <time>2022-04-03T15:37:14Z</time>
      </trkpt>
      <trkpt lat="46.0222" lon="0.16154">
        <ele>132.4</ele>
        <time>2022-04-03T15:37:15Z</time>
      </trkpt>
      <trkpt lat="46.02219" lon="0.16146">
        <ele>132.4</ele>
        <time>2022-04-03T15:37:16Z</time>
      </trkpt>
      <trkpt lat="46.02217" lon="0.16137">
        <ele>132.2</ele>
        <time>2022-04-03T15:37:17Z</time>
      </trkpt>
      <trkpt lat="46.02216" lon="0.16128">
        <ele>132</ele>
        <time>2022-04-03T15:37:18Z</time>
      </trkpt>
      <trkpt lat="46.02215" lon="0.1612">
        <ele>131.8</ele>
        <time>2022-04-03T15:37:19Z</time>
      </trkpt>
      <trkpt lat="46.02214" lon="0.16111">
        <ele>131.6</ele>
        <time>2022-04-03T15:37:20Z</time>
      </trkpt>
      <trkpt lat="46.02212" lon="0.16102">
        <ele>131.4</ele>
        <time>2022-04-03T15:37:21Z</time>
      </trkpt>
      <trkpt lat="46.02211" lon="0.16093">
        <ele>131.2</ele>
        <time>2022-04-03T15:37:22Z</time>
      </trkpt>
      <trkpt lat="46.0221" lon="0.16084">
        <ele>131</ele>
        <time>2022-04-03T15:37:23Z</time>
      </trkpt>
      <trkpt lat="46.02208" lon="0.16074">
        <ele>131</ele>
        <time>2022-04-03T15:37:24Z</time>
      </trkpt>
      <trkpt lat="46.02207" lon="0.16065">
        <ele>130.8</ele>
        <time>2022-04-03T15:37:25Z</time>
      </trkpt>
      <trkpt lat="46.02206" lon="0.16056">
        <ele>130.6</ele>
        <time>2022-04-03T15:37:26Z</time>
      </trkpt>
      <trkpt lat="46.02204" lon="0.16046">
        <ele>130.4</ele>
        <time>2022-04-03T15:37:27Z</time>
      </trkpt>
      <trkpt lat="46.02203" lon="0.16037">
        <ele>130.4</ele>
        <time>2022-04-03T15:37:28Z</time>
      </trkpt>
      <trkpt lat="46.02202" lon="0.16027">
        <ele>130</ele>
        <time>2022-04-03T15:37:29Z</time>
      </trkpt>
      <trkpt lat="46.022" lon="0.16017">
        <ele>129.6</ele>
        <time>2022-04-03T15:37:30Z</time>
      </trkpt>
      <trkpt lat="46.02199" lon="0.16008">
        <ele>129.4</ele>
        <time>2022-04-03T15:37:31Z</time>
      </trkpt>
      <trkpt lat="46.02198" lon="0.15998">
        <ele>129.4</ele>
        <time>2022-04-03T15:37:32Z</time>
      </trkpt>
      <trkpt lat="46.02196" lon="0.15988">
        <ele>129.4</ele>
        <time>2022-04-03T15:37:33Z</time>
      </trkpt>
      <trkpt lat="46.02195" lon="0.15979">
        <ele>129</ele>
        <time>2022-04-03T15:37:34Z</time>
      </trkpt>
      <trkpt lat="46.02193" lon="0.15969">
        <ele>129</ele>
        <time>2022-04-03T15:37:35Z</time>
      </trkpt>
      <trkpt lat="46.02192" lon="0.15959">
        <ele>128.6</ele>
        <time>2022-04-03T15:37:36Z</time>
      </trkpt>
      <trkpt lat="46.0219" lon="0.1595">
        <ele>128.2</ele>
        <time>2022-04-03T15:37:37Z</time>
      </trkpt>
      <trkpt lat="46.02189" lon="0.1594">
        <ele>128</ele>
        <time>2022-04-03T15:37:38Z</time>
      </trkpt>
      <trkpt lat="46.02188" lon="0.1593">
        <ele>127.8</ele>
        <time>2022-04-03T15:37:39Z</time>
      </trkpt>
      <trkpt lat="46.02186" lon="0.1592">
        <ele>127.6</ele>
        <time>2022-04-03T15:37:40Z</time>
      </trkpt>
      <trkpt lat="46.02185" lon="0.15911">
        <ele>127.2</ele>
        <time>2022-04-03T15:37:41Z</time>
      </trkpt>
      <trkpt lat="46.02184" lon="0.15901">
        <ele>127</ele>
        <time>2022-04-03T15:37:42Z</time>
      </trkpt>
      <trkpt lat="46.02182" lon="0.15891">
        <ele>126.6</ele>
        <time>2022-04-03T15:37:43Z</time>
      </trkpt>
      <trkpt lat="46.02181" lon="0.15881">
        <ele>126.4</ele>
        <time>2022-04-03T15:37:44Z</time>
      </trkpt>
      <trkpt lat="46.02179" lon="0.15872">
        <ele>126.4</ele>
        <time>2022-04-03T15:37:45Z</time>
      </trkpt>
      <trkpt lat="46.02178" lon="0.15862">
        <ele>125.8</ele>
        <time>2022-04-03T15:37:46Z</time>
      </trkpt>
      <trkpt lat="46.02177" lon="0.15852">
        <ele>125.8</ele>
        <time>2022-04-03T15:37:47Z</time>
      </trkpt>
      <trkpt lat="46.02175" lon="0.15843">
        <ele>125.6</ele>
        <time>2022-04-03T15:37:48Z</time>
      </trkpt>
      <trkpt lat="46.02174" lon="0.15833">
        <ele>125.2</ele>
        <time>2022-04-03T15:37:49Z</time>
      </trkpt>
      <trkpt lat="46.02172" lon="0.15824">
        <ele>125</ele>
        <time>2022-04-03T15:37:50Z</time>
      </trkpt>
      <trkpt lat="46.02171" lon="0.15814">
        <ele>125</ele>
        <time>2022-04-03T15:37:51Z</time>
      </trkpt>
      <trkpt lat="46.02169" lon="0.15805">
        <ele>124.8</ele>
        <time>2022-04-03T15:37:52Z</time>
      </trkpt>
      <trkpt lat="46.02168" lon="0.15795">
        <ele>124.4</ele>
        <time>2022-04-03T15:37:53Z</time>
      </trkpt>
      <trkpt lat="46.02167" lon="0.15785">
        <ele>123.6</ele>
        <time>2022-04-03T15:37:54Z</time>
      </trkpt>
      <trkpt lat="46.02165" lon="0.15776">
        <ele>123.2</ele>
        <time>2022-04-03T15:37:55Z</time>
      </trkpt>
      <trkpt lat="46.02164" lon="0.15766">
        <ele>123</ele>
        <time>2022-04-03T15:37:56Z</time>
      </trkpt>
      <trkpt lat="46.02163" lon="0.15757">
        <ele>123</ele>
        <time>2022-04-03T15:37:57Z</time>
      </trkpt>
      <trkpt lat="46.02161" lon="0.15747">
        <ele>122.8</ele>
        <time>2022-04-03T15:37:58Z</time>
      </trkpt>
      <trkpt lat="46.0216" lon="0.15738">
        <ele>122.8</ele>
        <time>2022-04-03T15:37:59Z</time>
      </trkpt>
      <trkpt lat="46.02159" lon="0.15728">
        <ele>122.8</ele>
        <time>2022-04-03T15:38:00Z</time>
      </trkpt>
      <trkpt lat="46.02157" lon="0.15719">
        <ele>122.6</ele>
        <time>2022-04-03T15:38:01Z</time>
      </trkpt>
      <trkpt lat="46.02156" lon="0.15709">
        <ele>122.2</ele>
        <time>2022-04-03T15:38:02Z</time>
      </trkpt>
      <trkpt lat="46.02154" lon="0.157">
        <ele>122</ele>
        <time>2022-04-03T15:38:03Z</time>
      </trkpt>
      <trkpt lat="46.02153" lon="0.15691">
        <ele>121.8</ele>
        <time>2022-04-03T15:38:04Z</time>
      </trkpt>
      <trkpt lat="46.02151" lon="0.15682">
        <ele>121.4</ele>
        <time>2022-04-03T15:38:05Z</time>
      </trkpt>
      <trkpt lat="46.0215" lon="0.15673">
        <ele>121.2</ele>
        <time>2022-04-03T15:38:06Z</time>
      </trkpt>
      <trkpt lat="46.02149" lon="0.15663">
        <ele>121</ele>
        <time>2022-04-03T15:38:07Z</time>
      </trkpt>
      <trkpt lat="46.02147" lon="0.15654">
        <ele>121</ele>
        <time>2022-04-03T15:38:08Z</time>
      </trkpt>
      <trkpt lat="46.02146" lon="0.15645">
        <ele>120.6</ele>
        <time>2022-04-03T15:38:09Z</time>
      </trkpt>
      <trkpt lat="46.02145" lon="0.15636">
        <ele>120.6</ele>
        <time>2022-04-03T15:38:10Z</time>
      </trkpt>
      <trkpt lat="46.02144" lon="0.15626">
        <ele>120.4</ele>
        <time>2022-04-03T15:38:11Z</time>
      </trkpt>
      <trkpt lat="46.02142" lon="0.15617">
        <ele>120.4</ele>
        <time>2022-04-03T15:38:12Z</time>
      </trkpt>
      <trkpt lat="46.02141" lon="0.15608">
        <ele>120.2</ele>
        <time>2022-04-03T15:38:13Z</time>
      </trkpt>
      <trkpt lat="46.0214" lon="0.156">
        <ele>120</ele>
        <time>2022-04-03T15:38:14Z</time>
      </trkpt>
      <trkpt lat="46.02138" lon="0.15591">
        <ele>120.2</ele>
        <time>2022-04-03T15:38:15Z</time>
      </trkpt>
      <trkpt lat="46.02137" lon="0.15582">
        <ele>120</ele>
        <time>2022-04-03T15:38:16Z</time>
      </trkpt>
      <trkpt lat="46.02136" lon="0.15574">
        <ele>119.8</ele>
        <time>2022-04-03T15:38:17Z</time>
      </trkpt>
      <trkpt lat="46.02135" lon="0.15565">
        <ele>119.6</ele>
        <time>2022-04-03T15:38:18Z</time>
      </trkpt>
      <trkpt lat="46.02134" lon="0.15557">
        <ele>119.4</ele>
        <time>2022-04-03T15:38:19Z</time>
      </trkpt>
      <trkpt lat="46.02132" lon="0.15548">
        <ele>119.2</ele>
        <time>2022-04-03T15:38:20Z</time>
      </trkpt>
      <trkpt lat="46.02131" lon="0.1554">
        <ele>119</ele>
        <time>2022-04-03T15:38:21Z</time>
      </trkpt>
      <trkpt lat="46.0213" lon="0.15531">
        <ele>118.8</ele>
        <time>2022-04-03T15:38:22Z</time>
      </trkpt>
      <trkpt lat="46.02129" lon="0.15523">
        <ele>118.8</ele>
        <time>2022-04-03T15:38:23Z</time>
      </trkpt>
      <trkpt lat="46.02127" lon="0.15514">
        <ele>118.8</ele>
        <time>2022-04-03T15:38:24Z</time>
      </trkpt>
      <trkpt lat="46.02126" lon="0.15506">
        <ele>118.8</ele>
        <time>2022-04-03T15:38:25Z</time>
      </trkpt>
      <trkpt lat="46.02125" lon="0.15497">
        <ele>118.8</ele>
        <time>2022-04-03T15:38:26Z</time>
      </trkpt>
      <trkpt lat="46.02124" lon="0.15489">
        <ele>118.8</ele>
        <time>2022-04-03T15:38:27Z</time>
      </trkpt>
      <trkpt lat="46.02123" lon="0.1548">
        <ele>118.8</ele>
        <time>2022-04-03T15:38:28Z</time>
      </trkpt>
      <trkpt lat="46.02121" lon="0.15472">
        <ele>118.8</ele>
        <time>2022-04-03T15:38:29Z</time>
      </trkpt>
      <trkpt lat="46.0212" lon="0.15463">
        <ele>118.8</ele>
        <time>2022-04-03T15:38:30Z</time>
      </trkpt>
      <trkpt lat="46.02119" lon="0.15455">
        <ele>119</ele>
        <time>2022-04-03T15:38:31Z</time>
      </trkpt>
      <trkpt lat="46.02118" lon="0.15446">
        <ele>119</ele>
        <time>2022-04-03T15:38:32Z</time>
      </trkpt>
      <trkpt lat="46.02116" lon="0.15438">
        <ele>119</ele>
        <time>2022-04-03T15:38:33Z</time>
      </trkpt>
      <trkpt lat="46.02115" lon="0.1543">
        <ele>119</ele>
        <time>2022-04-03T15:38:34Z</time>
      </trkpt>
      <trkpt lat="46.02114" lon="0.15421">
        <ele>119.2</ele>
        <time>2022-04-03T15:38:35Z</time>
      </trkpt>
      <trkpt lat="46.02113" lon="0.15413">
        <ele>119.2</ele>
        <time>2022-04-03T15:38:36Z</time>
      </trkpt>
      <trkpt lat="46.02112" lon="0.15405">
        <ele>119.4</ele>
        <time>2022-04-03T15:38:37Z</time>
      </trkpt>
      <trkpt lat="46.0211" lon="0.15396">
        <ele>119.2</ele>
        <time>2022-04-03T15:38:38Z</time>
      </trkpt>
      <trkpt lat="46.02109" lon="0.15388">
        <ele>119.4</ele>
        <time>2022-04-03T15:38:39Z</time>
      </trkpt>
      <trkpt lat="46.02108" lon="0.1538">
        <ele>119.4</ele>
        <time>2022-04-03T15:38:40Z</time>
      </trkpt>
      <trkpt lat="46.02107" lon="0.15371">
        <ele>119.4</ele>
        <time>2022-04-03T15:38:41Z</time>
      </trkpt>
      <trkpt lat="46.02105" lon="0.15363">
        <ele>119.6</ele>
        <time>2022-04-03T15:38:42Z</time>
      </trkpt>
      <trkpt lat="46.02104" lon="0.15354">
        <ele>119.4</ele>
        <time>2022-04-03T15:38:43Z</time>
      </trkpt>
      <trkpt lat="46.02103" lon="0.15346">
        <ele>119.6</ele>
        <time>2022-04-03T15:38:44Z</time>
      </trkpt>
      <trkpt lat="46.02102" lon="0.15337">
        <ele>119.6</ele>
        <time>2022-04-03T15:38:45Z</time>
      </trkpt>
      <trkpt lat="46.02101" lon="0.15329">
        <ele>119.6</ele>
        <time>2022-04-03T15:38:46Z</time>
      </trkpt>
      <trkpt lat="46.02099" lon="0.1532">
        <ele>119.8</ele>
        <time>2022-04-03T15:38:47Z</time>
      </trkpt>
      <trkpt lat="46.02098" lon="0.15312">
        <ele>119.8</ele>
        <time>2022-04-03T15:38:48Z</time>
      </trkpt>
      <trkpt lat="46.02097" lon="0.15303">
        <ele>119.6</ele>
        <time>2022-04-03T15:38:49Z</time>
      </trkpt>
      <trkpt lat="46.02096" lon="0.15295">
        <ele>119.6</ele>
        <time>2022-04-03T15:38:50Z</time>
      </trkpt>
      <trkpt lat="46.02095" lon="0.15286">
        <ele>119.8</ele>
        <time>2022-04-03T15:38:51Z</time>
      </trkpt>
      <trkpt lat="46.02093" lon="0.15278">
        <ele>119.8</ele>
        <time>2022-04-03T15:38:52Z</time>
      </trkpt>
      <trkpt lat="46.02092" lon="0.1527">
        <ele>119.6</ele>
        <time>2022-04-03T15:38:53Z</time>
      </trkpt>
      <trkpt lat="46.02091" lon="0.15262">
        <ele>119.8</ele>
        <time>2022-04-03T15:38:54Z</time>
      </trkpt>
      <trkpt lat="46.0209" lon="0.15253">
        <ele>119.6</ele>
        <time>2022-04-03T15:38:55Z</time>
      </trkpt>
      <trkpt lat="46.02089" lon="0.15245">
        <ele>119.8</ele>
        <time>2022-04-03T15:38:56Z</time>
      </trkpt>
      <trkpt lat="46.02088" lon="0.15237">
        <ele>119.6</ele>
        <time>2022-04-03T15:38:57Z</time>
      </trkpt>
      <trkpt lat="46.02086" lon="0.15229">
        <ele>119.8</ele>
        <time>2022-04-03T15:38:58Z</time>
      </trkpt>
      <trkpt lat="46.02085" lon="0.1522">
        <ele>119.8</ele>
        <time>2022-04-03T15:38:59Z</time>
      </trkpt>
      <trkpt lat="46.02084" lon="0.15212">
        <ele>119.8</ele>
        <time>2022-04-03T15:39:00Z</time>
      </trkpt>
      <trkpt lat="46.02083" lon="0.15204">
        <ele>119.8</ele>
        <time>2022-04-03T15:39:01Z</time>
      </trkpt>
      <trkpt lat="46.02082" lon="0.15196">
        <ele>119.8</ele>
        <time>2022-04-03T15:39:02Z</time>
      </trkpt>
      <trkpt lat="46.02081" lon="0.15188">
        <ele>119.8</ele>
        <time>2022-04-03T15:39:03Z</time>
      </trkpt>
      <trkpt lat="46.02079" lon="0.1518">
        <ele>119.8</ele>
        <time>2022-04-03T15:39:04Z</time>
      </trkpt>
      <trkpt lat="46.02078" lon="0.15172">
        <ele>119.8</ele>
        <time>2022-04-03T15:39:05Z</time>
      </trkpt>
      <trkpt lat="46.02077" lon="0.15164">
        <ele>120</ele>
        <time>2022-04-03T15:39:06Z</time>
      </trkpt>
      <trkpt lat="46.02076" lon="0.15156">
        <ele>120</ele>
        <time>2022-04-03T15:39:07Z</time>
      </trkpt>
      <trkpt lat="46.02074" lon="0.15148">
        <ele>120</ele>
        <time>2022-04-03T15:39:08Z</time>
      </trkpt>
      <trkpt lat="46.02073" lon="0.15139">
        <ele>120</ele>
        <time>2022-04-03T15:39:09Z</time>
      </trkpt>
      <trkpt lat="46.02072" lon="0.15131">
        <ele>120.2</ele>
        <time>2022-04-03T15:39:10Z</time>
      </trkpt>
      <trkpt lat="46.02071" lon="0.15123">
        <ele>120.2</ele>
        <time>2022-04-03T15:39:11Z</time>
      </trkpt>
      <trkpt lat="46.0207" lon="0.15114">
        <ele>120.4</ele>
        <time>2022-04-03T15:39:12Z</time>
      </trkpt>
      <trkpt lat="46.02068" lon="0.15106">
        <ele>120.6</ele>
        <time>2022-04-03T15:39:13Z</time>
      </trkpt>
      <trkpt lat="46.02067" lon="0.15098">
        <ele>120.4</ele>
        <time>2022-04-03T15:39:14Z</time>
      </trkpt>
      <trkpt lat="46.02066" lon="0.1509">
        <ele>120.4</ele>
        <time>2022-04-03T15:39:15Z</time>
      </trkpt>
      <trkpt lat="46.02065" lon="0.15081">
        <ele>120.4</ele>
        <time>2022-04-03T15:39:16Z</time>
      </trkpt>
      <trkpt lat="46.02064" lon="0.15073">
        <ele>120.6</ele>
        <time>2022-04-03T15:39:17Z</time>
      </trkpt>
      <trkpt lat="46.02063" lon="0.15064">
        <ele>120.6</ele>
        <time>2022-04-03T15:39:18Z</time>
      </trkpt>
      <trkpt lat="46.02061" lon="0.15056">
        <ele>120.6</ele>
        <time>2022-04-03T15:39:19Z</time>
      </trkpt>
      <trkpt lat="46.0206" lon="0.15047">
        <ele>120.8</ele>
        <time>2022-04-03T15:39:20Z</time>
      </trkpt>
      <trkpt lat="46.02059" lon="0.15039">
        <ele>120.6</ele>
        <time>2022-04-03T15:39:21Z</time>
      </trkpt>
      <trkpt lat="46.02058" lon="0.1503">
        <ele>120.6</ele>
        <time>2022-04-03T15:39:22Z</time>
      </trkpt>
      <trkpt lat="46.02057" lon="0.15022">
        <ele>120.8</ele>
        <time>2022-04-03T15:39:23Z</time>
      </trkpt>
      <trkpt lat="46.02056" lon="0.15013">
        <ele>120.8</ele>
        <time>2022-04-03T15:39:24Z</time>
      </trkpt>
      <trkpt lat="46.02055" lon="0.15004">
        <ele>121</ele>
        <time>2022-04-03T15:39:25Z</time>
      </trkpt>
      <trkpt lat="46.02054" lon="0.14996">
        <ele>121</ele>
        <time>2022-04-03T15:39:26Z</time>
      </trkpt>
      <trkpt lat="46.02054" lon="0.14987">
        <ele>120.8</ele>
        <time>2022-04-03T15:39:27Z</time>
      </trkpt>
      <trkpt lat="46.02054" lon="0.14978">
        <ele>121</ele>
        <time>2022-04-03T15:39:28Z</time>
      </trkpt>
      <trkpt lat="46.02054" lon="0.14969">
        <ele>121</ele>
        <time>2022-04-03T15:39:29Z</time>
      </trkpt>
      <trkpt lat="46.02055" lon="0.1496">
        <ele>121</ele>
        <time>2022-04-03T15:39:30Z</time>
      </trkpt>
      <trkpt lat="46.02055" lon="0.14952">
        <ele>121</ele>
        <time>2022-04-03T15:39:31Z</time>
      </trkpt>
      <trkpt lat="46.02056" lon="0.14943">
        <ele>121</ele>
        <time>2022-04-03T15:39:32Z</time>
      </trkpt>
      <trkpt lat="46.02058" lon="0.14935">
        <ele>121</ele>
        <time>2022-04-03T15:39:33Z</time>
      </trkpt>
      <trkpt lat="46.0206" lon="0.14927">
        <ele>121</ele>
        <time>2022-04-03T15:39:34Z</time>
      </trkpt>
      <trkpt lat="46.02062" lon="0.14919">
        <ele>121</ele>
        <time>2022-04-03T15:39:35Z</time>
      </trkpt>
      <trkpt lat="46.02064" lon="0.14911">
        <ele>121.2</ele>
        <time>2022-04-03T15:39:36Z</time>
      </trkpt>
      <trkpt lat="46.02066" lon="0.14903">
        <ele>121.2</ele>
        <time>2022-04-03T15:39:37Z</time>
      </trkpt>
      <trkpt lat="46.02068" lon="0.14896">
        <ele>121</ele>
        <time>2022-04-03T15:39:38Z</time>
      </trkpt>
      <trkpt lat="46.0207" lon="0.14888">
        <ele>121.2</ele>
        <time>2022-04-03T15:39:39Z</time>
      </trkpt>
      <trkpt lat="46.02072" lon="0.14881">
        <ele>121</ele>
        <time>2022-04-03T15:39:40Z</time>
      </trkpt>
      <trkpt lat="46.02073" lon="0.14874">
        <ele>121</ele>
        <time>2022-04-03T15:39:41Z</time>
      </trkpt>
      <trkpt lat="46.02074" lon="0.14866">
        <ele>121.2</ele>
        <time>2022-04-03T15:39:42Z</time>
      </trkpt>
      <trkpt lat="46.02075" lon="0.14859">
        <ele>121</ele>
        <time>2022-04-03T15:39:43Z</time>
      </trkpt>
      <trkpt lat="46.02075" lon="0.14852">
        <ele>121.2</ele>
        <time>2022-04-03T15:39:44Z</time>
      </trkpt>
      <trkpt lat="46.02075" lon="0.14845">
        <ele>121.2</ele>
        <time>2022-04-03T15:39:45Z</time>
      </trkpt>
      <trkpt lat="46.02075" lon="0.14838">
        <ele>121.2</ele>
        <time>2022-04-03T15:39:46Z</time>
      </trkpt>
      <trkpt lat="46.02075" lon="0.14831">
        <ele>121.2</ele>
        <time>2022-04-03T15:39:47Z</time>
      </trkpt>
      <trkpt lat="46.02075" lon="0.14824">
        <ele>121.2</ele>
        <time>2022-04-03T15:39:48Z</time>
      </trkpt>
      <trkpt lat="46.02074" lon="0.14817">
        <ele>121.4</ele>
        <time>2022-04-03T15:39:49Z</time>
      </trkpt>
      <trkpt lat="46.02074" lon="0.14811">
        <ele>121.4</ele>
        <time>2022-04-03T15:39:50Z</time>
      </trkpt>
      <trkpt lat="46.02073" lon="0.14804">
        <ele>121.8</ele>
        <time>2022-04-03T15:39:51Z</time>
      </trkpt>
      <trkpt lat="46.02073" lon="0.14797">
        <ele>122.2</ele>
        <time>2022-04-03T15:39:52Z</time>
      </trkpt>
      <trkpt lat="46.02073" lon="0.1479">
        <ele>122.6</ele>
        <time>2022-04-03T15:39:53Z</time>
      </trkpt>
      <trkpt lat="46.02072" lon="0.14783">
        <ele>122.8</ele>
        <time>2022-04-03T15:39:54Z</time>
      </trkpt>
      <trkpt lat="46.02072" lon="0.14776">
        <ele>123</ele>
        <time>2022-04-03T15:39:55Z</time>
      </trkpt>
      <trkpt lat="46.02072" lon="0.14769">
        <ele>123</ele>
        <time>2022-04-03T15:39:56Z</time>
      </trkpt>
      <trkpt lat="46.02071" lon="0.14762">
        <ele>123</ele>
        <time>2022-04-03T15:39:57Z</time>
      </trkpt>
      <trkpt lat="46.02071" lon="0.14755">
        <ele>123</ele>
        <time>2022-04-03T15:39:58Z</time>
      </trkpt>
      <trkpt lat="46.02071" lon="0.14748">
        <ele>123.2</ele>
        <time>2022-04-03T15:39:59Z</time>
      </trkpt>
      <trkpt lat="46.0207" lon="0.14742">
        <ele>123.4</ele>
        <time>2022-04-03T15:40:00Z</time>
      </trkpt>
      <trkpt lat="46.0207" lon="0.14735">
        <ele>123.4</ele>
        <time>2022-04-03T15:40:01Z</time>
      </trkpt>
      <trkpt lat="46.02069" lon="0.14728">
        <ele>123.8</ele>
        <time>2022-04-03T15:40:02Z</time>
      </trkpt>
      <trkpt lat="46.02069" lon="0.14721">
        <ele>123.8</ele>
        <time>2022-04-03T15:40:03Z</time>
      </trkpt>
      <trkpt lat="46.02069" lon="0.14714">
        <ele>123.6</ele>
        <time>2022-04-03T15:40:04Z</time>
      </trkpt>
      <trkpt lat="46.02069" lon="0.14707">
        <ele>124</ele>
        <time>2022-04-03T15:40:05Z</time>
      </trkpt>
      <trkpt lat="46.02068" lon="0.147">
        <ele>124.2</ele>
        <time>2022-04-03T15:40:06Z</time>
      </trkpt>
      <trkpt lat="46.02068" lon="0.14693">
        <ele>124.4</ele>
        <time>2022-04-03T15:40:07Z</time>
      </trkpt>
      <trkpt lat="46.02068" lon="0.14687">
        <ele>124.6</ele>
        <time>2022-04-03T15:40:08Z</time>
      </trkpt>
      <trkpt lat="46.02068" lon="0.14681">
        <ele>124.8</ele>
        <time>2022-04-03T15:40:09Z</time>
      </trkpt>
      <trkpt lat="46.02068" lon="0.14675">
        <ele>124.8</ele>
        <time>2022-04-03T15:40:10Z</time>
      </trkpt>
      <trkpt lat="46.02068" lon="0.14669">
        <ele>124.8</ele>
        <time>2022-04-03T15:40:11Z</time>
      </trkpt>
      <trkpt lat="46.02068" lon="0.14663">
        <ele>125.2</ele>
        <time>2022-04-03T15:40:12Z</time>
      </trkpt>
      <trkpt lat="46.02068" lon="0.14657">
        <ele>125.4</ele>
        <time>2022-04-03T15:40:13Z</time>
      </trkpt>
      <trkpt lat="46.02068" lon="0.1465">
        <ele>125.6</ele>
        <time>2022-04-03T15:40:14Z</time>
      </trkpt>
      <trkpt lat="46.02068" lon="0.14643">
        <ele>125.6</ele>
        <time>2022-04-03T15:40:15Z</time>
      </trkpt>
      <trkpt lat="46.02067" lon="0.14636">
        <ele>125.8</ele>
        <time>2022-04-03T15:40:16Z</time>
      </trkpt>
      <trkpt lat="46.02067" lon="0.14629">
        <ele>126</ele>
        <time>2022-04-03T15:40:17Z</time>
      </trkpt>
      <trkpt lat="46.02066" lon="0.14622">
        <ele>126</ele>
        <time>2022-04-03T15:40:18Z</time>
      </trkpt>
      <trkpt lat="46.02065" lon="0.14615">
        <ele>126</ele>
        <time>2022-04-03T15:40:19Z</time>
      </trkpt>
      <trkpt lat="46.02064" lon="0.14608">
        <ele>126</ele>
        <time>2022-04-03T15:40:20Z</time>
      </trkpt>
      <trkpt lat="46.02064" lon="0.14601">
        <ele>126</ele>
        <time>2022-04-03T15:40:21Z</time>
      </trkpt>
      <trkpt lat="46.02064" lon="0.14594">
        <ele>126</ele>
        <time>2022-04-03T15:40:22Z</time>
      </trkpt>
      <trkpt lat="46.02064" lon="0.14587">
        <ele>126</ele>
        <time>2022-04-03T15:40:23Z</time>
      </trkpt>
      <trkpt lat="46.02063" lon="0.1458">
        <ele>126.2</ele>
        <time>2022-04-03T15:40:24Z</time>
      </trkpt>
      <trkpt lat="46.02063" lon="0.14573">
        <ele>126.2</ele>
        <time>2022-04-03T15:40:25Z</time>
      </trkpt>
      <trkpt lat="46.02062" lon="0.14566">
        <ele>126.2</ele>
        <time>2022-04-03T15:40:26Z</time>
      </trkpt>
      <trkpt lat="46.02062" lon="0.14558">
        <ele>126.4</ele>
        <time>2022-04-03T15:40:27Z</time>
      </trkpt>
      <trkpt lat="46.02061" lon="0.14551">
        <ele>126.4</ele>
        <time>2022-04-03T15:40:28Z</time>
      </trkpt>
      <trkpt lat="46.02061" lon="0.14544">
        <ele>126.6</ele>
        <time>2022-04-03T15:40:29Z</time>
      </trkpt>
      <trkpt lat="46.0206" lon="0.14537">
        <ele>126.6</ele>
        <time>2022-04-03T15:40:30Z</time>
      </trkpt>
      <trkpt lat="46.0206" lon="0.14529">
        <ele>126.8</ele>
        <time>2022-04-03T15:40:31Z</time>
      </trkpt>
      <trkpt lat="46.02059" lon="0.14522">
        <ele>126.8</ele>
        <time>2022-04-03T15:40:32Z</time>
      </trkpt>
      <trkpt lat="46.02059" lon="0.14515">
        <ele>126.8</ele>
        <time>2022-04-03T15:40:33Z</time>
      </trkpt>
      <trkpt lat="46.02059" lon="0.14508">
        <ele>127</ele>
        <time>2022-04-03T15:40:34Z</time>
      </trkpt>
      <trkpt lat="46.02058" lon="0.145">
        <ele>127.4</ele>
        <time>2022-04-03T15:40:35Z</time>
      </trkpt>
      <trkpt lat="46.02058" lon="0.14493">
        <ele>127.4</ele>
        <time>2022-04-03T15:40:36Z</time>
      </trkpt>
      <trkpt lat="46.02058" lon="0.14486">
        <ele>127.8</ele>
        <time>2022-04-03T15:40:37Z</time>
      </trkpt>
      <trkpt lat="46.02057" lon="0.14478">
        <ele>128</ele>
        <time>2022-04-03T15:40:38Z</time>
      </trkpt>
      <trkpt lat="46.02057" lon="0.14471">
        <ele>128.2</ele>
        <time>2022-04-03T15:40:39Z</time>
      </trkpt>
      <trkpt lat="46.02057" lon="0.14464">
        <ele>128.2</ele>
        <time>2022-04-03T15:40:40Z</time>
      </trkpt>
      <trkpt lat="46.02057" lon="0.14456">
        <ele>128.2</ele>
        <time>2022-04-03T15:40:41Z</time>
      </trkpt>
      <trkpt lat="46.02057" lon="0.14449">
        <ele>128.2</ele>
        <time>2022-04-03T15:40:42Z</time>
      </trkpt>
      <trkpt lat="46.02056" lon="0.14441">
        <ele>128.4</ele>
        <time>2022-04-03T15:40:43Z</time>
      </trkpt>
      <trkpt lat="46.02055" lon="0.14433">
        <ele>128.6</ele>
        <time>2022-04-03T15:40:44Z</time>
      </trkpt>
      <trkpt lat="46.02054" lon="0.14426">
        <ele>128.4</ele>
        <time>2022-04-03T15:40:45Z</time>
      </trkpt>
      <trkpt lat="46.02053" lon="0.14418">
        <ele>128.4</ele>
        <time>2022-04-03T15:40:46Z</time>
      </trkpt>
      <trkpt lat="46.02052" lon="0.14411">
        <ele>128.6</ele>
        <time>2022-04-03T15:40:47Z</time>
      </trkpt>
      <trkpt lat="46.0205" lon="0.14403">
        <ele>128.4</ele>
        <time>2022-04-03T15:40:48Z</time>
      </trkpt>
      <trkpt lat="46.02048" lon="0.14396">
        <ele>128.4</ele>
        <time>2022-04-03T15:40:49Z</time>
      </trkpt>
      <trkpt lat="46.02046" lon="0.14389">
        <ele>128.6</ele>
        <time>2022-04-03T15:40:50Z</time>
      </trkpt>
      <trkpt lat="46.02044" lon="0.14382">
        <ele>128.6</ele>
        <time>2022-04-03T15:40:51Z</time>
      </trkpt>
      <trkpt lat="46.02043" lon="0.14375">
        <ele>128.4</ele>
        <time>2022-04-03T15:40:52Z</time>
      </trkpt>
      <trkpt lat="46.02041" lon="0.14367">
        <ele>128.4</ele>
        <time>2022-04-03T15:40:53Z</time>
      </trkpt>
      <trkpt lat="46.02039" lon="0.14359">
        <ele>128.4</ele>
        <time>2022-04-03T15:40:54Z</time>
      </trkpt>
      <trkpt lat="46.02037" lon="0.14351">
        <ele>128.2</ele>
        <time>2022-04-03T15:40:55Z</time>
      </trkpt>
      <trkpt lat="46.02035" lon="0.14344">
        <ele>128.2</ele>
        <time>2022-04-03T15:40:56Z</time>
      </trkpt>
      <trkpt lat="46.02033" lon="0.14336">
        <ele>128.2</ele>
        <time>2022-04-03T15:40:57Z</time>
      </trkpt>
      <trkpt lat="46.02031" lon="0.14327">
        <ele>128</ele>
        <time>2022-04-03T15:40:58Z</time>
      </trkpt>
      <trkpt lat="46.02028" lon="0.14319">
        <ele>128.2</ele>
        <time>2022-04-03T15:40:59Z</time>
      </trkpt>
      <trkpt lat="46.02026" lon="0.14311">
        <ele>128.2</ele>
        <time>2022-04-03T15:41:00Z</time>
      </trkpt>
      <trkpt lat="46.02024" lon="0.14302">
        <ele>128</ele>
        <time>2022-04-03T15:41:01Z</time>
      </trkpt>
      <trkpt lat="46.02022" lon="0.14293">
        <ele>128</ele>
        <time>2022-04-03T15:41:02Z</time>
      </trkpt>
      <trkpt lat="46.0202" lon="0.14284">
        <ele>127.8</ele>
        <time>2022-04-03T15:41:03Z</time>
      </trkpt>
      <trkpt lat="46.02018" lon="0.14275">
        <ele>127.6</ele>
        <time>2022-04-03T15:41:04Z</time>
      </trkpt>
      <trkpt lat="46.02016" lon="0.14266">
        <ele>127.6</ele>
        <time>2022-04-03T15:41:05Z</time>
      </trkpt>
      <trkpt lat="46.02014" lon="0.14258">
        <ele>127.4</ele>
        <time>2022-04-03T15:41:06Z</time>
      </trkpt>
      <trkpt lat="46.02012" lon="0.14249">
        <ele>127.4</ele>
        <time>2022-04-03T15:41:07Z</time>
      </trkpt>
      <trkpt lat="46.0201" lon="0.14241">
        <ele>127.2</ele>
        <time>2022-04-03T15:41:08Z</time>
      </trkpt>
      <trkpt lat="46.02008" lon="0.14232">
        <ele>127.2</ele>
        <time>2022-04-03T15:41:09Z</time>
      </trkpt>
      <trkpt lat="46.02006" lon="0.14224">
        <ele>127</ele>
        <time>2022-04-03T15:41:10Z</time>
      </trkpt>
      <trkpt lat="46.02004" lon="0.14215">
        <ele>126.8</ele>
        <time>2022-04-03T15:41:11Z</time>
      </trkpt>
      <trkpt lat="46.02002" lon="0.14207">
        <ele>126.8</ele>
        <time>2022-04-03T15:41:12Z</time>
      </trkpt>
      <trkpt lat="46.02" lon="0.14198">
        <ele>126.4</ele>
        <time>2022-04-03T15:41:13Z</time>
      </trkpt>
      <trkpt lat="46.01998" lon="0.1419">
        <ele>126.4</ele>
        <time>2022-04-03T15:41:14Z</time>
      </trkpt>
      <trkpt lat="46.01996" lon="0.14182">
        <ele>126.4</ele>
        <time>2022-04-03T15:41:15Z</time>
      </trkpt>
      <trkpt lat="46.01994" lon="0.14174">
        <ele>126.4</ele>
        <time>2022-04-03T15:41:16Z</time>
      </trkpt>
      <trkpt lat="46.01992" lon="0.14166">
        <ele>126.4</ele>
        <time>2022-04-03T15:41:17Z</time>
      </trkpt>
      <trkpt lat="46.0199" lon="0.14158">
        <ele>126.4</ele>
        <time>2022-04-03T15:41:18Z</time>
      </trkpt>
      <trkpt lat="46.01988" lon="0.1415">
        <ele>126.4</ele>
        <time>2022-04-03T15:41:19Z</time>
      </trkpt>
      <trkpt lat="46.01986" lon="0.14142">
        <ele>126.4</ele>
        <time>2022-04-03T15:41:20Z</time>
      </trkpt>
      <trkpt lat="46.01984" lon="0.14135">
        <ele>126.2</ele>
        <time>2022-04-03T15:41:21Z</time>
      </trkpt>
      <trkpt lat="46.01982" lon="0.14127">
        <ele>126.4</ele>
        <time>2022-04-03T15:41:22Z</time>
      </trkpt>
      <trkpt lat="46.01981" lon="0.1412">
        <ele>126.2</ele>
        <time>2022-04-03T15:41:23Z</time>
      </trkpt>
      <trkpt lat="46.01979" lon="0.14113">
        <ele>126.4</ele>
        <time>2022-04-03T15:41:24Z</time>
      </trkpt>
      <trkpt lat="46.01977" lon="0.14105">
        <ele>126.4</ele>
        <time>2022-04-03T15:41:25Z</time>
      </trkpt>
      <trkpt lat="46.01975" lon="0.14098">
        <ele>126.4</ele>
        <time>2022-04-03T15:41:26Z</time>
      </trkpt>
      <trkpt lat="46.01973" lon="0.1409">
        <ele>126.4</ele>
        <time>2022-04-03T15:41:27Z</time>
      </trkpt>
      <trkpt lat="46.01972" lon="0.14083">
        <ele>126.4</ele>
        <time>2022-04-03T15:41:28Z</time>
      </trkpt>
      <trkpt lat="46.0197" lon="0.14076">
        <ele>126.8</ele>
        <time>2022-04-03T15:41:29Z</time>
      </trkpt>
      <trkpt lat="46.01968" lon="0.14069">
        <ele>127.2</ele>
        <time>2022-04-03T15:41:30Z</time>
      </trkpt>
      <trkpt lat="46.01966" lon="0.14061">
        <ele>127.2</ele>
        <time>2022-04-03T15:41:31Z</time>
      </trkpt>
      <trkpt lat="46.01964" lon="0.14054">
        <ele>127.4</ele>
        <time>2022-04-03T15:41:32Z</time>
      </trkpt>
      <trkpt lat="46.01962" lon="0.14047">
        <ele>127.2</ele>
        <time>2022-04-03T15:41:33Z</time>
      </trkpt>
      <trkpt lat="46.01961" lon="0.1404">
        <ele>127.4</ele>
        <time>2022-04-03T15:41:34Z</time>
      </trkpt>
      <trkpt lat="46.01959" lon="0.14032">
        <ele>127.6</ele>
        <time>2022-04-03T15:41:35Z</time>
      </trkpt>
      <trkpt lat="46.01957" lon="0.14025">
        <ele>127.4</ele>
        <time>2022-04-03T15:41:36Z</time>
      </trkpt>
      <trkpt lat="46.01955" lon="0.14017">
        <ele>127.8</ele>
        <time>2022-04-03T15:41:37Z</time>
      </trkpt>
      <trkpt lat="46.01953" lon="0.14009">
        <ele>127.8</ele>
        <time>2022-04-03T15:41:38Z</time>
      </trkpt>
      <trkpt lat="46.01951" lon="0.14002">
        <ele>127.8</ele>
        <time>2022-04-03T15:41:39Z</time>
      </trkpt>
      <trkpt lat="46.01949" lon="0.13995">
        <ele>128</ele>
        <time>2022-04-03T15:41:40Z</time>
      </trkpt>
      <trkpt lat="46.01947" lon="0.13987">
        <ele>128.2</ele>
        <time>2022-04-03T15:41:41Z</time>
      </trkpt>
      <trkpt lat="46.01946" lon="0.1398">
        <ele>128.2</ele>
        <time>2022-04-03T15:41:42Z</time>
      </trkpt>
      <trkpt lat="46.01944" lon="0.13972">
        <ele>128.2</ele>
        <time>2022-04-03T15:41:43Z</time>
      </trkpt>
      <trkpt lat="46.01942" lon="0.13965">
        <ele>128.4</ele>
        <time>2022-04-03T15:41:44Z</time>
      </trkpt>
      <trkpt lat="46.0194" lon="0.13957">
        <ele>128.4</ele>
        <time>2022-04-03T15:41:45Z</time>
      </trkpt>
      <trkpt lat="46.01938" lon="0.13949">
        <ele>128.6</ele>
        <time>2022-04-03T15:41:46Z</time>
      </trkpt>
      <trkpt lat="46.01936" lon="0.13941">
        <ele>128.6</ele>
        <time>2022-04-03T15:41:47Z</time>
      </trkpt>
      <trkpt lat="46.01934" lon="0.13934">
        <ele>128.6</ele>
        <time>2022-04-03T15:41:48Z</time>
      </trkpt>
      <trkpt lat="46.01932" lon="0.13926">
        <ele>128.6</ele>
        <time>2022-04-03T15:41:49Z</time>
      </trkpt>
      <trkpt lat="46.0193" lon="0.13918">
        <ele>128.8</ele>
        <time>2022-04-03T15:41:50Z</time>
      </trkpt>
      <trkpt lat="46.01928" lon="0.1391">
        <ele>128.8</ele>
        <time>2022-04-03T15:41:51Z</time>
      </trkpt>
      <trkpt lat="46.01926" lon="0.13903">
        <ele>129</ele>
        <time>2022-04-03T15:41:52Z</time>
      </trkpt>
      <trkpt lat="46.01924" lon="0.13895">
        <ele>129</ele>
        <time>2022-04-03T15:41:53Z</time>
      </trkpt>
      <trkpt lat="46.01923" lon="0.13887">
        <ele>129.4</ele>
        <time>2022-04-03T15:41:54Z</time>
      </trkpt>
      <trkpt lat="46.01921" lon="0.1388">
        <ele>129.8</ele>
        <time>2022-04-03T15:41:55Z</time>
      </trkpt>
      <trkpt lat="46.01919" lon="0.13872">
        <ele>129.8</ele>
        <time>2022-04-03T15:41:56Z</time>
      </trkpt>
      <trkpt lat="46.01917" lon="0.13864">
        <ele>130</ele>
        <time>2022-04-03T15:41:57Z</time>
      </trkpt>
      <trkpt lat="46.01915" lon="0.13857">
        <ele>130</ele>
        <time>2022-04-03T15:41:58Z</time>
      </trkpt>
      <trkpt lat="46.01913" lon="0.13849">
        <ele>130.4</ele>
        <time>2022-04-03T15:41:59Z</time>
      </trkpt>
      <trkpt lat="46.01911" lon="0.13841">
        <ele>130.4</ele>
        <time>2022-04-03T15:42:00Z</time>
      </trkpt>
      <trkpt lat="46.0191" lon="0.13834">
        <ele>130.6</ele>
        <time>2022-04-03T15:42:01Z</time>
      </trkpt>
      <trkpt lat="46.01908" lon="0.13826">
        <ele>130.6</ele>
        <time>2022-04-03T15:42:02Z</time>
      </trkpt>
      <trkpt lat="46.01906" lon="0.13818">
        <ele>130.8</ele>
        <time>2022-04-03T15:42:03Z</time>
      </trkpt>
      <trkpt lat="46.01904" lon="0.13811">
        <ele>130.8</ele>
        <time>2022-04-03T15:42:04Z</time>
      </trkpt>
      <trkpt lat="46.01902" lon="0.13803">
        <ele>130.8</ele>
        <time>2022-04-03T15:42:05Z</time>
      </trkpt>
      <trkpt lat="46.019" lon="0.13796">
        <ele>131.2</ele>
        <time>2022-04-03T15:42:06Z</time>
      </trkpt>
      <trkpt lat="46.01898" lon="0.13789">
        <ele>131.2</ele>
        <time>2022-04-03T15:42:07Z</time>
      </trkpt>
      <trkpt lat="46.01896" lon="0.13781">
        <ele>131.4</ele>
        <time>2022-04-03T15:42:08Z</time>
      </trkpt>
      <trkpt lat="46.01894" lon="0.13774">
        <ele>131.8</ele>
        <time>2022-04-03T15:42:09Z</time>
      </trkpt>
      <trkpt lat="46.01893" lon="0.13767">
        <ele>132.2</ele>
        <time>2022-04-03T15:42:10Z</time>
      </trkpt>
      <trkpt lat="46.01891" lon="0.13759">
        <ele>132.4</ele>
        <time>2022-04-03T15:42:11Z</time>
      </trkpt>
      <trkpt lat="46.0189" lon="0.13752">
        <ele>132.6</ele>
        <time>2022-04-03T15:42:12Z</time>
      </trkpt>
      <trkpt lat="46.01888" lon="0.13745">
        <ele>132.8</ele>
        <time>2022-04-03T15:42:13Z</time>
      </trkpt>
      <trkpt lat="46.01886" lon="0.13737">
        <ele>132.8</ele>
        <time>2022-04-03T15:42:14Z</time>
      </trkpt>
      <trkpt lat="46.01884" lon="0.1373">
        <ele>132.8</ele>
        <time>2022-04-03T15:42:15Z</time>
      </trkpt>
      <trkpt lat="46.01882" lon="0.13723">
        <ele>132.8</ele>
        <time>2022-04-03T15:42:16Z</time>
      </trkpt>
      <trkpt lat="46.01881" lon="0.13716">
        <ele>133</ele>
        <time>2022-04-03T15:42:17Z</time>
      </trkpt>
      <trkpt lat="46.01879" lon="0.13709">
        <ele>133.4</ele>
        <time>2022-04-03T15:42:18Z</time>
      </trkpt>
      <trkpt lat="46.01877" lon="0.13702">
        <ele>133.4</ele>
        <time>2022-04-03T15:42:19Z</time>
      </trkpt>
      <trkpt lat="46.01875" lon="0.13695">
        <ele>133.6</ele>
        <time>2022-04-03T15:42:20Z</time>
      </trkpt>
      <trkpt lat="46.01873" lon="0.13689">
        <ele>133.6</ele>
        <time>2022-04-03T15:42:21Z</time>
      </trkpt>
      <trkpt lat="46.01872" lon="0.13682">
        <ele>133.6</ele>
        <time>2022-04-03T15:42:22Z</time>
      </trkpt>
      <trkpt lat="46.0187" lon="0.13675">
        <ele>133.8</ele>
        <time>2022-04-03T15:42:23Z</time>
      </trkpt>
      <trkpt lat="46.01869" lon="0.13668">
        <ele>134</ele>
        <time>2022-04-03T15:42:24Z</time>
      </trkpt>
      <trkpt lat="46.01867" lon="0.13662">
        <ele>134.2</ele>
        <time>2022-04-03T15:42:25Z</time>
      </trkpt>
      <trkpt lat="46.01865" lon="0.13655">
        <ele>134.4</ele>
        <time>2022-04-03T15:42:26Z</time>
      </trkpt>
      <trkpt lat="46.01863" lon="0.13648">
        <ele>134.6</ele>
        <time>2022-04-03T15:42:27Z</time>
      </trkpt>
      <trkpt lat="46.01862" lon="0.13641">
        <ele>134.8</ele>
        <time>2022-04-03T15:42:28Z</time>
      </trkpt>
      <trkpt lat="46.01861" lon="0.13634">
        <ele>135</ele>
        <time>2022-04-03T15:42:29Z</time>
      </trkpt>
      <trkpt lat="46.01859" lon="0.13627">
        <ele>135</ele>
        <time>2022-04-03T15:42:30Z</time>
      </trkpt>
      <trkpt lat="46.01858" lon="0.13619">
        <ele>135</ele>
        <time>2022-04-03T15:42:31Z</time>
      </trkpt>
      <trkpt lat="46.01857" lon="0.13612">
        <ele>135</ele>
        <time>2022-04-03T15:42:32Z</time>
      </trkpt>
      <trkpt lat="46.01856" lon="0.13604">
        <ele>135.2</ele>
        <time>2022-04-03T15:42:33Z</time>
      </trkpt>
      <trkpt lat="46.01854" lon="0.13597">
        <ele>135.2</ele>
        <time>2022-04-03T15:42:34Z</time>
      </trkpt>
      <trkpt lat="46.01853" lon="0.13589">
        <ele>135.2</ele>
        <time>2022-04-03T15:42:35Z</time>
      </trkpt>
      <trkpt lat="46.01852" lon="0.13581">
        <ele>135.2</ele>
        <time>2022-04-03T15:42:36Z</time>
      </trkpt>
      <trkpt lat="46.0185" lon="0.13573">
        <ele>135</ele>
        <time>2022-04-03T15:42:37Z</time>
      </trkpt>
      <trkpt lat="46.01849" lon="0.13565">
        <ele>135.2</ele>
        <time>2022-04-03T15:42:38Z</time>
      </trkpt>
      <trkpt lat="46.01848" lon="0.13557">
        <ele>135</ele>
        <time>2022-04-03T15:42:39Z</time>
      </trkpt>
      <trkpt lat="46.01847" lon="0.13548">
        <ele>135</ele>
        <time>2022-04-03T15:42:40Z</time>
      </trkpt>
      <trkpt lat="46.01845" lon="0.1354">
        <ele>135</ele>
        <time>2022-04-03T15:42:41Z</time>
      </trkpt>
      <trkpt lat="46.01844" lon="0.13531">
        <ele>135</ele>
        <time>2022-04-03T15:42:42Z</time>
      </trkpt>
      <trkpt lat="46.01843" lon="0.13522">
        <ele>134.6</ele>
        <time>2022-04-03T15:42:43Z</time>
      </trkpt>
      <trkpt lat="46.01842" lon="0.13514">
        <ele>134.6</ele>
        <time>2022-04-03T15:42:44Z</time>
      </trkpt>
      <trkpt lat="46.0184" lon="0.13505">
        <ele>134.6</ele>
        <time>2022-04-03T15:42:45Z</time>
      </trkpt>
      <trkpt lat="46.01839" lon="0.13496">
        <ele>134.4</ele>
        <time>2022-04-03T15:42:46Z</time>
      </trkpt>
      <trkpt lat="46.01838" lon="0.13487">
        <ele>134.2</ele>
        <time>2022-04-03T15:42:47Z</time>
      </trkpt>
      <trkpt lat="46.01836" lon="0.13478">
        <ele>134.2</ele>
        <time>2022-04-03T15:42:48Z</time>
      </trkpt>
      <trkpt lat="46.01835" lon="0.13469">
        <ele>134</ele>
        <time>2022-04-03T15:42:49Z</time>
      </trkpt>
      <trkpt lat="46.01834" lon="0.1346">
        <ele>134</ele>
        <time>2022-04-03T15:42:50Z</time>
      </trkpt>
      <trkpt lat="46.01832" lon="0.1345">
        <ele>133.8</ele>
        <time>2022-04-03T15:42:51Z</time>
      </trkpt>
      <trkpt lat="46.01831" lon="0.13441">
        <ele>133.6</ele>
        <time>2022-04-03T15:42:52Z</time>
      </trkpt>
      <trkpt lat="46.0183" lon="0.13432">
        <ele>133.6</ele>
        <time>2022-04-03T15:42:53Z</time>
      </trkpt>
      <trkpt lat="46.01828" lon="0.13422">
        <ele>133.6</ele>
        <time>2022-04-03T15:42:54Z</time>
      </trkpt>
      <trkpt lat="46.01827" lon="0.13413">
        <ele>133.4</ele>
        <time>2022-04-03T15:42:55Z</time>
      </trkpt>
      <trkpt lat="46.01825" lon="0.13403">
        <ele>133.4</ele>
        <time>2022-04-03T15:42:56Z</time>
      </trkpt>
      <trkpt lat="46.01824" lon="0.13394">
        <ele>133.2</ele>
        <time>2022-04-03T15:42:57Z</time>
      </trkpt>
      <trkpt lat="46.01823" lon="0.13384">
        <ele>133.2</ele>
        <time>2022-04-03T15:42:58Z</time>
      </trkpt>
      <trkpt lat="46.01821" lon="0.13374">
        <ele>133.2</ele>
        <time>2022-04-03T15:42:59Z</time>
      </trkpt>
      <trkpt lat="46.01819" lon="0.13365">
        <ele>133</ele>
        <time>2022-04-03T15:43:00Z</time>
      </trkpt>
      <trkpt lat="46.01818" lon="0.13355">
        <ele>133</ele>
        <time>2022-04-03T15:43:01Z</time>
      </trkpt>
      <trkpt lat="46.01817" lon="0.13345">
        <ele>132.8</ele>
        <time>2022-04-03T15:43:02Z</time>
      </trkpt>
      <trkpt lat="46.01815" lon="0.13336">
        <ele>132.4</ele>
        <time>2022-04-03T15:43:03Z</time>
      </trkpt>
      <trkpt lat="46.01814" lon="0.13326">
        <ele>132.2</ele>
        <time>2022-04-03T15:43:04Z</time>
      </trkpt>
      <trkpt lat="46.01812" lon="0.13316">
        <ele>131.8</ele>
        <time>2022-04-03T15:43:05Z</time>
      </trkpt>
      <trkpt lat="46.01811" lon="0.13306">
        <ele>131.6</ele>
        <time>2022-04-03T15:43:06Z</time>
      </trkpt>
      <trkpt lat="46.0181" lon="0.13297">
        <ele>131.6</ele>
        <time>2022-04-03T15:43:07Z</time>
      </trkpt>
      <trkpt lat="46.01808" lon="0.13287">
        <ele>131.2</ele>
        <time>2022-04-03T15:43:08Z</time>
      </trkpt>
      <trkpt lat="46.01807" lon="0.13277">
        <ele>131</ele>
        <time>2022-04-03T15:43:09Z</time>
      </trkpt>
      <trkpt lat="46.01805" lon="0.13267">
        <ele>131</ele>
        <time>2022-04-03T15:43:10Z</time>
      </trkpt>
      <trkpt lat="46.01804" lon="0.13258">
        <ele>131</ele>
        <time>2022-04-03T15:43:11Z</time>
      </trkpt>
      <trkpt lat="46.01802" lon="0.13248">
        <ele>131</ele>
        <time>2022-04-03T15:43:12Z</time>
      </trkpt>
      <trkpt lat="46.01801" lon="0.13238">
        <ele>131</ele>
        <time>2022-04-03T15:43:13Z</time>
      </trkpt>
      <trkpt lat="46.01799" lon="0.13228">
        <ele>130.8</ele>
        <time>2022-04-03T15:43:14Z</time>
      </trkpt>
      <trkpt lat="46.01798" lon="0.13219">
        <ele>130.8</ele>
        <time>2022-04-03T15:43:15Z</time>
      </trkpt>
      <trkpt lat="46.01796" lon="0.13209">
        <ele>130.8</ele>
        <time>2022-04-03T15:43:16Z</time>
      </trkpt>
      <trkpt lat="46.01795" lon="0.13199">
        <ele>130.8</ele>
        <time>2022-04-03T15:43:17Z</time>
      </trkpt>
      <trkpt lat="46.01793" lon="0.1319">
        <ele>131</ele>
        <time>2022-04-03T15:43:18Z</time>
      </trkpt>
      <trkpt lat="46.01792" lon="0.1318">
        <ele>130.6</ele>
        <time>2022-04-03T15:43:19Z</time>
      </trkpt>
      <trkpt lat="46.01791" lon="0.1317">
        <ele>130.6</ele>
        <time>2022-04-03T15:43:20Z</time>
      </trkpt>
      <trkpt lat="46.01789" lon="0.13161">
        <ele>130.6</ele>
        <time>2022-04-03T15:43:21Z</time>
      </trkpt>
      <trkpt lat="46.01788" lon="0.13151">
        <ele>130.6</ele>
        <time>2022-04-03T15:43:22Z</time>
      </trkpt>
      <trkpt lat="46.01786" lon="0.13141">
        <ele>130.4</ele>
        <time>2022-04-03T15:43:23Z</time>
      </trkpt>
      <trkpt lat="46.01785" lon="0.13131">
        <ele>130.2</ele>
        <time>2022-04-03T15:43:24Z</time>
      </trkpt>
      <trkpt lat="46.01783" lon="0.13121">
        <ele>130</ele>
        <time>2022-04-03T15:43:25Z</time>
      </trkpt>
      <trkpt lat="46.01782" lon="0.13111">
        <ele>130</ele>
        <time>2022-04-03T15:43:26Z</time>
      </trkpt>
      <trkpt lat="46.0178" lon="0.13101">
        <ele>130</ele>
        <time>2022-04-03T15:43:27Z</time>
      </trkpt>
      <trkpt lat="46.01779" lon="0.13091">
        <ele>130</ele>
        <time>2022-04-03T15:43:28Z</time>
      </trkpt>
      <trkpt lat="46.01777" lon="0.13081">
        <ele>130</ele>
        <time>2022-04-03T15:43:29Z</time>
      </trkpt>
      <trkpt lat="46.01776" lon="0.13071">
        <ele>129.8</ele>
        <time>2022-04-03T15:43:30Z</time>
      </trkpt>
      <trkpt lat="46.01774" lon="0.13061">
        <ele>129.8</ele>
        <time>2022-04-03T15:43:31Z</time>
      </trkpt>
      <trkpt lat="46.01773" lon="0.13051">
        <ele>129.8</ele>
        <time>2022-04-03T15:43:32Z</time>
      </trkpt>
      <trkpt lat="46.01772" lon="0.13041">
        <ele>129.6</ele>
        <time>2022-04-03T15:43:33Z</time>
      </trkpt>
      <trkpt lat="46.0177" lon="0.1303">
        <ele>129.6</ele>
        <time>2022-04-03T15:43:34Z</time>
      </trkpt>
      <trkpt lat="46.01769" lon="0.1302">
        <ele>129.4</ele>
        <time>2022-04-03T15:43:35Z</time>
      </trkpt>
      <trkpt lat="46.01767" lon="0.1301">
        <ele>129.4</ele>
        <time>2022-04-03T15:43:36Z</time>
      </trkpt>
      <trkpt lat="46.01766" lon="0.13">
        <ele>129.4</ele>
        <time>2022-04-03T15:43:37Z</time>
      </trkpt>
      <trkpt lat="46.01764" lon="0.1299">
        <ele>129</ele>
        <time>2022-04-03T15:43:38Z</time>
      </trkpt>
      <trkpt lat="46.01763" lon="0.1298">
        <ele>129</ele>
        <time>2022-04-03T15:43:39Z</time>
      </trkpt>
      <trkpt lat="46.01762" lon="0.1297">
        <ele>128.4</ele>
        <time>2022-04-03T15:43:40Z</time>
      </trkpt>
      <trkpt lat="46.0176" lon="0.1296">
        <ele>128.4</ele>
        <time>2022-04-03T15:43:41Z</time>
      </trkpt>
      <trkpt lat="46.01759" lon="0.12949">
        <ele>128.2</ele>
        <time>2022-04-03T15:43:42Z</time>
      </trkpt>
      <trkpt lat="46.01757" lon="0.12939">
        <ele>128</ele>
        <time>2022-04-03T15:43:43Z</time>
      </trkpt>
      <trkpt lat="46.01756" lon="0.12929">
        <ele>127.8</ele>
        <time>2022-04-03T15:43:44Z</time>
      </trkpt>
      <trkpt lat="46.01754" lon="0.12919">
        <ele>127.8</ele>
        <time>2022-04-03T15:43:45Z</time>
      </trkpt>
      <trkpt lat="46.01753" lon="0.12909">
        <ele>127.8</ele>
        <time>2022-04-03T15:43:46Z</time>
      </trkpt>
      <trkpt lat="46.01751" lon="0.12899">
        <ele>127.6</ele>
        <time>2022-04-03T15:43:47Z</time>
      </trkpt>
      <trkpt lat="46.0175" lon="0.12889">
        <ele>127.8</ele>
        <time>2022-04-03T15:43:48Z</time>
      </trkpt>
      <trkpt lat="46.01749" lon="0.12879">
        <ele>127.6</ele>
        <time>2022-04-03T15:43:49Z</time>
      </trkpt>
      <trkpt lat="46.01747" lon="0.12869">
        <ele>127.6</ele>
        <time>2022-04-03T15:43:50Z</time>
      </trkpt>
      <trkpt lat="46.01746" lon="0.12858">
        <ele>127.6</ele>
        <time>2022-04-03T15:43:51Z</time>
      </trkpt>
      <trkpt lat="46.01745" lon="0.12848">
        <ele>127.4</ele>
        <time>2022-04-03T15:43:52Z</time>
      </trkpt>
      <trkpt lat="46.01743" lon="0.12838">
        <ele>127.4</ele>
        <time>2022-04-03T15:43:53Z</time>
      </trkpt>
      <trkpt lat="46.01742" lon="0.12828">
        <ele>127</ele>
        <time>2022-04-03T15:43:54Z</time>
      </trkpt>
      <trkpt lat="46.0174" lon="0.12818">
        <ele>127</ele>
        <time>2022-04-03T15:43:55Z</time>
      </trkpt>
      <trkpt lat="46.01739" lon="0.12809">
        <ele>126.8</ele>
        <time>2022-04-03T15:43:56Z</time>
      </trkpt>
      <trkpt lat="46.01737" lon="0.12798">
        <ele>126.8</ele>
        <time>2022-04-03T15:43:57Z</time>
      </trkpt>
      <trkpt lat="46.01736" lon="0.12789">
        <ele>126.6</ele>
        <time>2022-04-03T15:43:58Z</time>
      </trkpt>
      <trkpt lat="46.01734" lon="0.12779">
        <ele>126.6</ele>
        <time>2022-04-03T15:43:59Z</time>
      </trkpt>
      <trkpt lat="46.01733" lon="0.12769">
        <ele>126.6</ele>
        <time>2022-04-03T15:44:00Z</time>
      </trkpt>
      <trkpt lat="46.01731" lon="0.12759">
        <ele>126.6</ele>
        <time>2022-04-03T15:44:01Z</time>
      </trkpt>
      <trkpt lat="46.0173" lon="0.1275">
        <ele>126.6</ele>
        <time>2022-04-03T15:44:02Z</time>
      </trkpt>
      <trkpt lat="46.01729" lon="0.1274">
        <ele>126.4</ele>
        <time>2022-04-03T15:44:03Z</time>
      </trkpt>
      <trkpt lat="46.01728" lon="0.12731">
        <ele>126.6</ele>
        <time>2022-04-03T15:44:04Z</time>
      </trkpt>
      <trkpt lat="46.01726" lon="0.12721">
        <ele>126.4</ele>
        <time>2022-04-03T15:44:05Z</time>
      </trkpt>
      <trkpt lat="46.01725" lon="0.12711">
        <ele>126.4</ele>
        <time>2022-04-03T15:44:06Z</time>
      </trkpt>
      <trkpt lat="46.01723" lon="0.12702">
        <ele>126.2</ele>
        <time>2022-04-03T15:44:07Z</time>
      </trkpt>
      <trkpt lat="46.01722" lon="0.12692">
        <ele>126.4</ele>
        <time>2022-04-03T15:44:08Z</time>
      </trkpt>
      <trkpt lat="46.01721" lon="0.12683">
        <ele>126.4</ele>
        <time>2022-04-03T15:44:09Z</time>
      </trkpt>
      <trkpt lat="46.0172" lon="0.12673">
        <ele>126.4</ele>
        <time>2022-04-03T15:44:10Z</time>
      </trkpt>
      <trkpt lat="46.01718" lon="0.12664">
        <ele>126.2</ele>
        <time>2022-04-03T15:44:11Z</time>
      </trkpt>
      <trkpt lat="46.01717" lon="0.12655">
        <ele>126.2</ele>
        <time>2022-04-03T15:44:12Z</time>
      </trkpt>
      <trkpt lat="46.01716" lon="0.12646">
        <ele>126</ele>
        <time>2022-04-03T15:44:13Z</time>
      </trkpt>
      <trkpt lat="46.01715" lon="0.12637">
        <ele>126</ele>
        <time>2022-04-03T15:44:14Z</time>
      </trkpt>
      <trkpt lat="46.01713" lon="0.12628">
        <ele>126</ele>
        <time>2022-04-03T15:44:15Z</time>
      </trkpt>
      <trkpt lat="46.01712" lon="0.1262">
        <ele>126.2</ele>
        <time>2022-04-03T15:44:16Z</time>
      </trkpt>
      <trkpt lat="46.01711" lon="0.12611">
        <ele>126</ele>
        <time>2022-04-03T15:44:17Z</time>
      </trkpt>
      <trkpt lat="46.0171" lon="0.12603">
        <ele>126</ele>
        <time>2022-04-03T15:44:18Z</time>
      </trkpt>
      <trkpt lat="46.01708" lon="0.12594">
        <ele>126.2</ele>
        <time>2022-04-03T15:44:19Z</time>
      </trkpt>
      <trkpt lat="46.01707" lon="0.12586">
        <ele>126</ele>
        <time>2022-04-03T15:44:20Z</time>
      </trkpt>
      <trkpt lat="46.01706" lon="0.12578">
        <ele>126</ele>
        <time>2022-04-03T15:44:21Z</time>
      </trkpt>
      <trkpt lat="46.01705" lon="0.1257">
        <ele>126</ele>
        <time>2022-04-03T15:44:22Z</time>
      </trkpt>
      <trkpt lat="46.01704" lon="0.12562">
        <ele>126.2</ele>
        <time>2022-04-03T15:44:23Z</time>
      </trkpt>
      <trkpt lat="46.01702" lon="0.12554">
        <ele>126.4</ele>
        <time>2022-04-03T15:44:24Z</time>
      </trkpt>
      <trkpt lat="46.01701" lon="0.12546">
        <ele>126.4</ele>
        <time>2022-04-03T15:44:25Z</time>
      </trkpt>
      <trkpt lat="46.017" lon="0.12538">
        <ele>126.8</ele>
        <time>2022-04-03T15:44:26Z</time>
      </trkpt>
      <trkpt lat="46.01699" lon="0.12531">
        <ele>127</ele>
        <time>2022-04-03T15:44:27Z</time>
      </trkpt>
      <trkpt lat="46.01698" lon="0.12523">
        <ele>127</ele>
        <time>2022-04-03T15:44:28Z</time>
      </trkpt>
      <trkpt lat="46.01697" lon="0.12516">
        <ele>127</ele>
        <time>2022-04-03T15:44:29Z</time>
      </trkpt>
      <trkpt lat="46.01696" lon="0.12508">
        <ele>127.2</ele>
        <time>2022-04-03T15:44:30Z</time>
      </trkpt>
      <trkpt lat="46.01695" lon="0.12501">
        <ele>127.6</ele>
        <time>2022-04-03T15:44:31Z</time>
      </trkpt>
      <trkpt lat="46.01694" lon="0.12494">
        <ele>127.8</ele>
        <time>2022-04-03T15:44:32Z</time>
      </trkpt>
      <trkpt lat="46.01693" lon="0.12487">
        <ele>128</ele>
        <time>2022-04-03T15:44:33Z</time>
      </trkpt>
      <trkpt lat="46.01691" lon="0.12479">
        <ele>128</ele>
        <time>2022-04-03T15:44:34Z</time>
      </trkpt>
      <trkpt lat="46.01691" lon="0.12472">
        <ele>128.2</ele>
        <time>2022-04-03T15:44:35Z</time>
      </trkpt>
      <trkpt lat="46.0169" lon="0.12465">
        <ele>128.2</ele>
        <time>2022-04-03T15:44:36Z</time>
      </trkpt>
      <trkpt lat="46.01689" lon="0.12458">
        <ele>128.4</ele>
        <time>2022-04-03T15:44:37Z</time>
      </trkpt>
      <trkpt lat="46.01688" lon="0.12452">
        <ele>128.8</ele>
        <time>2022-04-03T15:44:38Z</time>
      </trkpt>
      <trkpt lat="46.01687" lon="0.12445">
        <ele>129</ele>
        <time>2022-04-03T15:44:39Z</time>
      </trkpt>
      <trkpt lat="46.01686" lon="0.12438">
        <ele>128.8</ele>
        <time>2022-04-03T15:44:40Z</time>
      </trkpt>
      <trkpt lat="46.01685" lon="0.1243">
        <ele>129.2</ele>
        <time>2022-04-03T15:44:41Z</time>
      </trkpt>
      <trkpt lat="46.01684" lon="0.12422">
        <ele>129.2</ele>
        <time>2022-04-03T15:44:42Z</time>
      </trkpt>
      <trkpt lat="46.01683" lon="0.12414">
        <ele>129.6</ele>
        <time>2022-04-03T15:44:43Z</time>
      </trkpt>
      <trkpt lat="46.01682" lon="0.12407">
        <ele>129.8</ele>
        <time>2022-04-03T15:44:44Z</time>
      </trkpt>
      <trkpt lat="46.0168" lon="0.12399">
        <ele>129.8</ele>
        <time>2022-04-03T15:44:45Z</time>
      </trkpt>
      <trkpt lat="46.01679" lon="0.12392">
        <ele>130</ele>
        <time>2022-04-03T15:44:46Z</time>
      </trkpt>
      <trkpt lat="46.01678" lon="0.12385">
        <ele>130</ele>
        <time>2022-04-03T15:44:47Z</time>
      </trkpt>
      <trkpt lat="46.01677" lon="0.12377">
        <ele>130.2</ele>
        <time>2022-04-03T15:44:48Z</time>
      </trkpt>
      <trkpt lat="46.01676" lon="0.1237">
        <ele>130.2</ele>
        <time>2022-04-03T15:44:49Z</time>
      </trkpt>
      <trkpt lat="46.01675" lon="0.12363">
        <ele>130.4</ele>
        <time>2022-04-03T15:44:50Z</time>
      </trkpt>
      <trkpt lat="46.01674" lon="0.12356">
        <ele>130.4</ele>
        <time>2022-04-03T15:44:51Z</time>
      </trkpt>
      <trkpt lat="46.01672" lon="0.12348">
        <ele>130.6</ele>
        <time>2022-04-03T15:44:52Z</time>
      </trkpt>
      <trkpt lat="46.01671" lon="0.12342">
        <ele>130.6</ele>
        <time>2022-04-03T15:44:53Z</time>
      </trkpt>
      <trkpt lat="46.0167" lon="0.12334">
        <ele>130.8</ele>
        <time>2022-04-03T15:44:54Z</time>
      </trkpt>
      <trkpt lat="46.01669" lon="0.12327">
        <ele>131</ele>
        <time>2022-04-03T15:44:55Z</time>
      </trkpt>
      <trkpt lat="46.01668" lon="0.1232">
        <ele>131</ele>
        <time>2022-04-03T15:44:56Z</time>
      </trkpt>
      <trkpt lat="46.01667" lon="0.12313">
        <ele>131.2</ele>
        <time>2022-04-03T15:44:57Z</time>
      </trkpt>
      <trkpt lat="46.01667" lon="0.12306">
        <ele>131.2</ele>
        <time>2022-04-03T15:44:58Z</time>
      </trkpt>
      <trkpt lat="46.01666" lon="0.12299">
        <ele>131.2</ele>
        <time>2022-04-03T15:44:59Z</time>
      </trkpt>
      <trkpt lat="46.01665" lon="0.12291">
        <ele>131.6</ele>
        <time>2022-04-03T15:45:00Z</time>
      </trkpt>
      <trkpt lat="46.01664" lon="0.12284">
        <ele>132</ele>
        <time>2022-04-03T15:45:01Z</time>
      </trkpt>
      <trkpt lat="46.01662" lon="0.12277">
        <ele>132.2</ele>
        <time>2022-04-03T15:45:02Z</time>
      </trkpt>
      <trkpt lat="46.01661" lon="0.1227">
        <ele>132.4</ele>
        <time>2022-04-03T15:45:03Z</time>
      </trkpt>
      <trkpt lat="46.0166" lon="0.12263">
        <ele>132.4</ele>
        <time>2022-04-03T15:45:04Z</time>
      </trkpt>
      <trkpt lat="46.01659" lon="0.12256">
        <ele>132.6</ele>
        <time>2022-04-03T15:45:05Z</time>
      </trkpt>
      <trkpt lat="46.01658" lon="0.12249">
        <ele>132.6</ele>
        <time>2022-04-03T15:45:06Z</time>
      </trkpt>
      <trkpt lat="46.01657" lon="0.12242">
        <ele>132.6</ele>
        <time>2022-04-03T15:45:07Z</time>
      </trkpt>
      <trkpt lat="46.01656" lon="0.12235">
        <ele>132.8</ele>
        <time>2022-04-03T15:45:08Z</time>
      </trkpt>
      <trkpt lat="46.01655" lon="0.12229">
        <ele>132.8</ele>
        <time>2022-04-03T15:45:09Z</time>
      </trkpt>
      <trkpt lat="46.01654" lon="0.12222">
        <ele>133</ele>
        <time>2022-04-03T15:45:10Z</time>
      </trkpt>
      <trkpt lat="46.01653" lon="0.12215">
        <ele>133.2</ele>
        <time>2022-04-03T15:45:11Z</time>
      </trkpt>
      <trkpt lat="46.01652" lon="0.12208">
        <ele>133.2</ele>
        <time>2022-04-03T15:45:12Z</time>
      </trkpt>
      <trkpt lat="46.01652" lon="0.12202">
        <ele>133.2</ele>
        <time>2022-04-03T15:45:13Z</time>
      </trkpt>
      <trkpt lat="46.01651" lon="0.12195">
        <ele>133.4</ele>
        <time>2022-04-03T15:45:14Z</time>
      </trkpt>
      <trkpt lat="46.0165" lon="0.12189">
        <ele>133.2</ele>
        <time>2022-04-03T15:45:15Z</time>
      </trkpt>
      <trkpt lat="46.01649" lon="0.12182">
        <ele>133.4</ele>
        <time>2022-04-03T15:45:16Z</time>
      </trkpt>
      <trkpt lat="46.01648" lon="0.12176">
        <ele>133.6</ele>
        <time>2022-04-03T15:45:17Z</time>
      </trkpt>
      <trkpt lat="46.01647" lon="0.1217">
        <ele>133.6</ele>
        <time>2022-04-03T15:45:18Z</time>
      </trkpt>
      <trkpt lat="46.01646" lon="0.12165">
        <ele>134</ele>
        <time>2022-04-03T15:45:19Z</time>
      </trkpt>
      <trkpt lat="46.01645" lon="0.12159">
        <ele>134</ele>
        <time>2022-04-03T15:45:20Z</time>
      </trkpt>
      <trkpt lat="46.01644" lon="0.12154">
        <ele>134.4</ele>
        <time>2022-04-03T15:45:21Z</time>
      </trkpt>
      <trkpt lat="46.01643" lon="0.12149">
        <ele>134.4</ele>
        <time>2022-04-03T15:45:22Z</time>
      </trkpt>
      <trkpt lat="46.01643" lon="0.12144">
        <ele>134.8</ele>
        <time>2022-04-03T15:45:23Z</time>
      </trkpt>
      <trkpt lat="46.01642" lon="0.12139">
        <ele>134.8</ele>
        <time>2022-04-03T15:45:24Z</time>
      </trkpt>
      <trkpt lat="46.01641" lon="0.12134">
        <ele>135.2</ele>
        <time>2022-04-03T15:45:25Z</time>
      </trkpt>
      <trkpt lat="46.01641" lon="0.12129">
        <ele>135.2</ele>
        <time>2022-04-03T15:45:26Z</time>
      </trkpt>
      <trkpt lat="46.0164" lon="0.12124">
        <ele>135.4</ele>
        <time>2022-04-03T15:45:27Z</time>
      </trkpt>
      <trkpt lat="46.01639" lon="0.12118">
        <ele>135.4</ele>
        <time>2022-04-03T15:45:28Z</time>
      </trkpt>
      <trkpt lat="46.01639" lon="0.12113">
        <ele>135.6</ele>
        <time>2022-04-03T15:45:29Z</time>
      </trkpt>
      <trkpt lat="46.01638" lon="0.12108">
        <ele>135.6</ele>
        <time>2022-04-03T15:45:30Z</time>
      </trkpt>
      <trkpt lat="46.01637" lon="0.12102">
        <ele>136</ele>
        <time>2022-04-03T15:45:31Z</time>
      </trkpt>
      <trkpt lat="46.01636" lon="0.12097">
        <ele>136</ele>
        <time>2022-04-03T15:45:32Z</time>
      </trkpt>
      <trkpt lat="46.01635" lon="0.12091">
        <ele>136.2</ele>
        <time>2022-04-03T15:45:33Z</time>
      </trkpt>
      <trkpt lat="46.01634" lon="0.12086">
        <ele>136.6</ele>
        <time>2022-04-03T15:45:34Z</time>
      </trkpt>
      <trkpt lat="46.01633" lon="0.1208">
        <ele>136.8</ele>
        <time>2022-04-03T15:45:35Z</time>
      </trkpt>
      <trkpt lat="46.01633" lon="0.12074">
        <ele>137</ele>
        <time>2022-04-03T15:45:36Z</time>
      </trkpt>
      <trkpt lat="46.01632" lon="0.12069">
        <ele>136.8</ele>
        <time>2022-04-03T15:45:37Z</time>
      </trkpt>
      <trkpt lat="46.01631" lon="0.12063">
        <ele>137</ele>
        <time>2022-04-03T15:45:38Z</time>
      </trkpt>
      <trkpt lat="46.0163" lon="0.12057">
        <ele>137.2</ele>
        <time>2022-04-03T15:45:39Z</time>
      </trkpt>
      <trkpt lat="46.01629" lon="0.12052">
        <ele>137.2</ele>
        <time>2022-04-03T15:45:40Z</time>
      </trkpt>
      <trkpt lat="46.01628" lon="0.12046">
        <ele>137.4</ele>
        <time>2022-04-03T15:45:41Z</time>
      </trkpt>
      <trkpt lat="46.01627" lon="0.1204">
        <ele>137.4</ele>
        <time>2022-04-03T15:45:42Z</time>
      </trkpt>
      <trkpt lat="46.01627" lon="0.12034">
        <ele>137.4</ele>
        <time>2022-04-03T15:45:43Z</time>
      </trkpt>
      <trkpt lat="46.01626" lon="0.12028">
        <ele>137.4</ele>
        <time>2022-04-03T15:45:44Z</time>
      </trkpt>
      <trkpt lat="46.01625" lon="0.12022">
        <ele>137.4</ele>
        <time>2022-04-03T15:45:45Z</time>
      </trkpt>
      <trkpt lat="46.01624" lon="0.12016">
        <ele>137.4</ele>
        <time>2022-04-03T15:45:46Z</time>
      </trkpt>
      <trkpt lat="46.01624" lon="0.1201">
        <ele>137.4</ele>
        <time>2022-04-03T15:45:47Z</time>
      </trkpt>
      <trkpt lat="46.01623" lon="0.12004">
        <ele>137.6</ele>
        <time>2022-04-03T15:45:48Z</time>
      </trkpt>
      <trkpt lat="46.01622" lon="0.11997">
        <ele>137.8</ele>
        <time>2022-04-03T15:45:49Z</time>
      </trkpt>
      <trkpt lat="46.01621" lon="0.11991">
        <ele>137.8</ele>
        <time>2022-04-03T15:45:50Z</time>
      </trkpt>
      <trkpt lat="46.0162" lon="0.11985">
        <ele>137.8</ele>
        <time>2022-04-03T15:45:51Z</time>
      </trkpt>
      <trkpt lat="46.01619" lon="0.11979">
        <ele>138</ele>
        <time>2022-04-03T15:45:52Z</time>
      </trkpt>
      <trkpt lat="46.01618" lon="0.11973">
        <ele>138.2</ele>
        <time>2022-04-03T15:45:53Z</time>
      </trkpt>
      <trkpt lat="46.01617" lon="0.11967">
        <ele>138.2</ele>
        <time>2022-04-03T15:45:54Z</time>
      </trkpt>
      <trkpt lat="46.01616" lon="0.11961">
        <ele>138.6</ele>
        <time>2022-04-03T15:45:55Z</time>
      </trkpt>
      <trkpt lat="46.01615" lon="0.11955">
        <ele>138.6</ele>
        <time>2022-04-03T15:45:56Z</time>
      </trkpt>
      <trkpt lat="46.01615" lon="0.11949">
        <ele>138.8</ele>
        <time>2022-04-03T15:45:57Z</time>
      </trkpt>
      <trkpt lat="46.01614" lon="0.11942">
        <ele>138.8</ele>
        <time>2022-04-03T15:45:58Z</time>
      </trkpt>
      <trkpt lat="46.01613" lon="0.11936">
        <ele>139</ele>
        <time>2022-04-03T15:45:59Z</time>
      </trkpt>
      <trkpt lat="46.01612" lon="0.1193">
        <ele>138.8</ele>
        <time>2022-04-03T15:46:00Z</time>
      </trkpt>
      <trkpt lat="46.01611" lon="0.11924">
        <ele>138.8</ele>
        <time>2022-04-03T15:46:01Z</time>
      </trkpt>
      <trkpt lat="46.0161" lon="0.11918">
        <ele>138.8</ele>
        <time>2022-04-03T15:46:02Z</time>
      </trkpt>
      <trkpt lat="46.01609" lon="0.11911">
        <ele>138.8</ele>
        <time>2022-04-03T15:46:03Z</time>
      </trkpt>
      <trkpt lat="46.01608" lon="0.11905">
        <ele>139</ele>
        <time>2022-04-03T15:46:04Z</time>
      </trkpt>
      <trkpt lat="46.01608" lon="0.11899">
        <ele>139</ele>
        <time>2022-04-03T15:46:05Z</time>
      </trkpt>
      <trkpt lat="46.01607" lon="0.11893">
        <ele>139.2</ele>
        <time>2022-04-03T15:46:06Z</time>
      </trkpt>
      <trkpt lat="46.01606" lon="0.11887">
        <ele>139.4</ele>
        <time>2022-04-03T15:46:07Z</time>
      </trkpt>
      <trkpt lat="46.01605" lon="0.1188">
        <ele>139.4</ele>
        <time>2022-04-03T15:46:08Z</time>
      </trkpt>
      <trkpt lat="46.01604" lon="0.11874">
        <ele>140</ele>
        <time>2022-04-03T15:46:09Z</time>
      </trkpt>
      <trkpt lat="46.01603" lon="0.11868">
        <ele>140.2</ele>
        <time>2022-04-03T15:46:10Z</time>
      </trkpt>
      <trkpt lat="46.01602" lon="0.11862">
        <ele>140.4</ele>
        <time>2022-04-03T15:46:11Z</time>
      </trkpt>
      <trkpt lat="46.01601" lon="0.11856">
        <ele>140.6</ele>
        <time>2022-04-03T15:46:12Z</time>
      </trkpt>
      <trkpt lat="46.016" lon="0.1185">
        <ele>140.4</ele>
        <time>2022-04-03T15:46:13Z</time>
      </trkpt>
      <trkpt lat="46.01599" lon="0.11844">
        <ele>140.6</ele>
        <time>2022-04-03T15:46:14Z</time>
      </trkpt>
      <trkpt lat="46.01599" lon="0.11838">
        <ele>140.8</ele>
        <time>2022-04-03T15:46:15Z</time>
      </trkpt>
      <trkpt lat="46.01598" lon="0.11832">
        <ele>141</ele>
        <time>2022-04-03T15:46:16Z</time>
      </trkpt>
      <trkpt lat="46.01597" lon="0.11826">
        <ele>141.2</ele>
        <time>2022-04-03T15:46:17Z</time>
      </trkpt>
      <trkpt lat="46.01596" lon="0.1182">
        <ele>141.2</ele>
        <time>2022-04-03T15:46:18Z</time>
      </trkpt>
      <trkpt lat="46.01595" lon="0.11813">
        <ele>141.2</ele>
        <time>2022-04-03T15:46:19Z</time>
      </trkpt>
      <trkpt lat="46.01594" lon="0.11807">
        <ele>141.2</ele>
        <time>2022-04-03T15:46:20Z</time>
      </trkpt>
      <trkpt lat="46.01593" lon="0.11801">
        <ele>141.2</ele>
        <time>2022-04-03T15:46:21Z</time>
      </trkpt>
      <trkpt lat="46.01592" lon="0.11794">
        <ele>141.4</ele>
        <time>2022-04-03T15:46:22Z</time>
      </trkpt>
      <trkpt lat="46.01591" lon="0.11788">
        <ele>141.4</ele>
        <time>2022-04-03T15:46:23Z</time>
      </trkpt>
      <trkpt lat="46.0159" lon="0.11782">
        <ele>141.4</ele>
        <time>2022-04-03T15:46:24Z</time>
      </trkpt>
      <trkpt lat="46.01589" lon="0.11776">
        <ele>141.6</ele>
        <time>2022-04-03T15:46:25Z</time>
      </trkpt>
      <trkpt lat="46.01588" lon="0.11771">
        <ele>141.6</ele>
        <time>2022-04-03T15:46:26Z</time>
      </trkpt>
      <trkpt lat="46.01588" lon="0.11765">
        <ele>141.6</ele>
        <time>2022-04-03T15:46:27Z</time>
      </trkpt>
      <trkpt lat="46.01587" lon="0.1176">
        <ele>141.6</ele>
        <time>2022-04-03T15:46:28Z</time>
      </trkpt>
      <trkpt lat="46.01586" lon="0.11754">
        <ele>141.8</ele>
        <time>2022-04-03T15:46:29Z</time>
      </trkpt>
      <trkpt lat="46.01585" lon="0.11748">
        <ele>141.8</ele>
        <time>2022-04-03T15:46:30Z</time>
      </trkpt>
      <trkpt lat="46.01584" lon="0.11743">
        <ele>141.8</ele>
        <time>2022-04-03T15:46:31Z</time>
      </trkpt>
      <trkpt lat="46.01583" lon="0.11737">
        <ele>141.8</ele>
        <time>2022-04-03T15:46:32Z</time>
      </trkpt>
      <trkpt lat="46.01582" lon="0.11731">
        <ele>141.8</ele>
        <time>2022-04-03T15:46:33Z</time>
      </trkpt>
      <trkpt lat="46.01581" lon="0.11725">
        <ele>142</ele>
        <time>2022-04-03T15:46:34Z</time>
      </trkpt>
      <trkpt lat="46.0158" lon="0.11718">
        <ele>142</ele>
        <time>2022-04-03T15:46:35Z</time>
      </trkpt>
      <trkpt lat="46.01579" lon="0.11711">
        <ele>142</ele>
        <time>2022-04-03T15:46:36Z</time>
      </trkpt>
      <trkpt lat="46.01578" lon="0.11704">
        <ele>141.8</ele>
        <time>2022-04-03T15:46:37Z</time>
      </trkpt>
      <trkpt lat="46.01577" lon="0.11698">
        <ele>142</ele>
        <time>2022-04-03T15:46:38Z</time>
      </trkpt>
      <trkpt lat="46.01576" lon="0.11691">
        <ele>142</ele>
        <time>2022-04-03T15:46:39Z</time>
      </trkpt>
      <trkpt lat="46.01574" lon="0.11683">
        <ele>142</ele>
        <time>2022-04-03T15:46:40Z</time>
      </trkpt>
      <trkpt lat="46.01573" lon="0.11676">
        <ele>141.8</ele>
        <time>2022-04-03T15:46:41Z</time>
      </trkpt>
      <trkpt lat="46.01572" lon="0.11669">
        <ele>142</ele>
        <time>2022-04-03T15:46:42Z</time>
      </trkpt>
      <trkpt lat="46.01571" lon="0.11662">
        <ele>141.8</ele>
        <time>2022-04-03T15:46:43Z</time>
      </trkpt>
      <trkpt lat="46.0157" lon="0.11655">
        <ele>141.8</ele>
        <time>2022-04-03T15:46:44Z</time>
      </trkpt>
      <trkpt lat="46.01569" lon="0.11649">
        <ele>141.8</ele>
        <time>2022-04-03T15:46:45Z</time>
      </trkpt>
      <trkpt lat="46.01568" lon="0.11642">
        <ele>141.6</ele>
        <time>2022-04-03T15:46:46Z</time>
      </trkpt>
      <trkpt lat="46.01567" lon="0.11635">
        <ele>141.6</ele>
        <time>2022-04-03T15:46:47Z</time>
      </trkpt>
      <trkpt lat="46.01566" lon="0.11628">
        <ele>141.6</ele>
        <time>2022-04-03T15:46:48Z</time>
      </trkpt>
      <trkpt lat="46.01565" lon="0.11621">
        <ele>141.6</ele>
        <time>2022-04-03T15:46:49Z</time>
      </trkpt>
      <trkpt lat="46.01564" lon="0.11614">
        <ele>141.2</ele>
        <time>2022-04-03T15:46:50Z</time>
      </trkpt>
      <trkpt lat="46.01564" lon="0.11606">
        <ele>141.2</ele>
        <time>2022-04-03T15:46:51Z</time>
      </trkpt>
      <trkpt lat="46.01563" lon="0.11599">
        <ele>141</ele>
        <time>2022-04-03T15:46:52Z</time>
      </trkpt>
      <trkpt lat="46.01562" lon="0.11591">
        <ele>141</ele>
        <time>2022-04-03T15:46:53Z</time>
      </trkpt>
      <trkpt lat="46.01561" lon="0.11584">
        <ele>140.8</ele>
        <time>2022-04-03T15:46:54Z</time>
      </trkpt>
      <trkpt lat="46.0156" lon="0.11576">
        <ele>140.8</ele>
        <time>2022-04-03T15:46:55Z</time>
      </trkpt>
      <trkpt lat="46.01559" lon="0.11568">
        <ele>140.8</ele>
        <time>2022-04-03T15:46:56Z</time>
      </trkpt>
      <trkpt lat="46.01557" lon="0.1156">
        <ele>140.8</ele>
        <time>2022-04-03T15:46:57Z</time>
      </trkpt>
      <trkpt lat="46.01556" lon="0.11553">
        <ele>140.6</ele>
        <time>2022-04-03T15:46:58Z</time>
      </trkpt>
      <trkpt lat="46.01555" lon="0.11545">
        <ele>140.6</ele>
        <time>2022-04-03T15:46:59Z</time>
      </trkpt>
      <trkpt lat="46.01555" lon="0.11538">
        <ele>140.6</ele>
        <time>2022-04-03T15:47:00Z</time>
      </trkpt>
      <trkpt lat="46.01554" lon="0.1153">
        <ele>140.4</ele>
        <time>2022-04-03T15:47:01Z</time>
      </trkpt>
      <trkpt lat="46.01553" lon="0.11522">
        <ele>140.6</ele>
        <time>2022-04-03T15:47:02Z</time>
      </trkpt>
      <trkpt lat="46.01552" lon="0.11515">
        <ele>140.2</ele>
        <time>2022-04-03T15:47:03Z</time>
      </trkpt>
      <trkpt lat="46.01551" lon="0.11507">
        <ele>140.2</ele>
        <time>2022-04-03T15:47:04Z</time>
      </trkpt>
      <trkpt lat="46.0155" lon="0.11499">
        <ele>140.2</ele>
        <time>2022-04-03T15:47:05Z</time>
      </trkpt>
      <trkpt lat="46.01549" lon="0.11491">
        <ele>140.2</ele>
        <time>2022-04-03T15:47:06Z</time>
      </trkpt>
      <trkpt lat="46.01547" lon="0.11484">
        <ele>140.2</ele>
        <time>2022-04-03T15:47:07Z</time>
      </trkpt>
      <trkpt lat="46.01546" lon="0.11476">
        <ele>140</ele>
        <time>2022-04-03T15:47:08Z</time>
      </trkpt>
      <trkpt lat="46.01545" lon="0.11468">
        <ele>139.6</ele>
        <time>2022-04-03T15:47:09Z</time>
      </trkpt>
      <trkpt lat="46.01544" lon="0.1146">
        <ele>139.4</ele>
        <time>2022-04-03T15:47:10Z</time>
      </trkpt>
      <trkpt lat="46.01543" lon="0.11453">
        <ele>139.2</ele>
        <time>2022-04-03T15:47:11Z</time>
      </trkpt>
      <trkpt lat="46.01542" lon="0.11445">
        <ele>139</ele>
        <time>2022-04-03T15:47:12Z</time>
      </trkpt>
      <trkpt lat="46.01541" lon="0.11438">
        <ele>139</ele>
        <time>2022-04-03T15:47:13Z</time>
      </trkpt>
      <trkpt lat="46.01539" lon="0.11429">
        <ele>138.8</ele>
        <time>2022-04-03T15:47:14Z</time>
      </trkpt>
      <trkpt lat="46.01538" lon="0.11421">
        <ele>138.8</ele>
        <time>2022-04-03T15:47:15Z</time>
      </trkpt>
      <trkpt lat="46.01537" lon="0.11413">
        <ele>138.6</ele>
        <time>2022-04-03T15:47:16Z</time>
      </trkpt>
      <trkpt lat="46.01536" lon="0.11405">
        <ele>138.6</ele>
        <time>2022-04-03T15:47:17Z</time>
      </trkpt>
      <trkpt lat="46.01534" lon="0.11396">
        <ele>138.4</ele>
        <time>2022-04-03T15:47:18Z</time>
      </trkpt>
      <trkpt lat="46.01533" lon="0.11388">
        <ele>138.4</ele>
        <time>2022-04-03T15:47:19Z</time>
      </trkpt>
      <trkpt lat="46.01532" lon="0.11379">
        <ele>138.4</ele>
        <time>2022-04-03T15:47:20Z</time>
      </trkpt>
      <trkpt lat="46.01531" lon="0.11371">
        <ele>138.2</ele>
        <time>2022-04-03T15:47:21Z</time>
      </trkpt>
      <trkpt lat="46.01529" lon="0.11362">
        <ele>138.2</ele>
        <time>2022-04-03T15:47:22Z</time>
      </trkpt>
      <trkpt lat="46.01528" lon="0.11353">
        <ele>138</ele>
        <time>2022-04-03T15:47:23Z</time>
      </trkpt>
      <trkpt lat="46.01527" lon="0.11344">
        <ele>138</ele>
        <time>2022-04-03T15:47:24Z</time>
      </trkpt>
      <trkpt lat="46.01525" lon="0.11335">
        <ele>137.8</ele>
        <time>2022-04-03T15:47:25Z</time>
      </trkpt>
      <trkpt lat="46.01524" lon="0.11326">
        <ele>137.6</ele>
        <time>2022-04-03T15:47:26Z</time>
      </trkpt>
      <trkpt lat="46.01523" lon="0.11316">
        <ele>137.8</ele>
        <time>2022-04-03T15:47:27Z</time>
      </trkpt>
      <trkpt lat="46.01521" lon="0.11307">
        <ele>137.4</ele>
        <time>2022-04-03T15:47:28Z</time>
      </trkpt>
      <trkpt lat="46.0152" lon="0.11297">
        <ele>137.2</ele>
        <time>2022-04-03T15:47:29Z</time>
      </trkpt>
      <trkpt lat="46.01518" lon="0.11287">
        <ele>137</ele>
        <time>2022-04-03T15:47:30Z</time>
      </trkpt>
      <trkpt lat="46.01517" lon="0.11277">
        <ele>136.8</ele>
        <time>2022-04-03T15:47:31Z</time>
      </trkpt>
      <trkpt lat="46.01515" lon="0.11267">
        <ele>136.6</ele>
        <time>2022-04-03T15:47:32Z</time>
      </trkpt>
      <trkpt lat="46.01514" lon="0.11256">
        <ele>136</ele>
        <time>2022-04-03T15:47:33Z</time>
      </trkpt>
      <trkpt lat="46.01512" lon="0.11246">
        <ele>135.6</ele>
        <time>2022-04-03T15:47:34Z</time>
      </trkpt>
      <trkpt lat="46.01511" lon="0.11235">
        <ele>135.4</ele>
        <time>2022-04-03T15:47:35Z</time>
      </trkpt>
      <trkpt lat="46.01509" lon="0.11224">
        <ele>135.4</ele>
        <time>2022-04-03T15:47:36Z</time>
      </trkpt>
      <trkpt lat="46.01507" lon="0.11214">
        <ele>135.2</ele>
        <time>2022-04-03T15:47:37Z</time>
      </trkpt>
      <trkpt lat="46.01505" lon="0.11203">
        <ele>135</ele>
        <time>2022-04-03T15:47:38Z</time>
      </trkpt>
      <trkpt lat="46.01504" lon="0.11192">
        <ele>134.6</ele>
        <time>2022-04-03T15:47:39Z</time>
      </trkpt>
      <trkpt lat="46.01502" lon="0.11181">
        <ele>134.4</ele>
        <time>2022-04-03T15:47:40Z</time>
      </trkpt>
      <trkpt lat="46.01501" lon="0.1117">
        <ele>134.2</ele>
        <time>2022-04-03T15:47:41Z</time>
      </trkpt>
      <trkpt lat="46.01499" lon="0.11158">
        <ele>133.8</ele>
        <time>2022-04-03T15:47:42Z</time>
      </trkpt>
      <trkpt lat="46.01497" lon="0.11147">
        <ele>132.8</ele>
        <time>2022-04-03T15:47:43Z</time>
      </trkpt>
      <trkpt lat="46.01496" lon="0.11136">
        <ele>132</ele>
        <time>2022-04-03T15:47:44Z</time>
      </trkpt>
      <trkpt lat="46.01494" lon="0.11124">
        <ele>131.4</ele>
        <time>2022-04-03T15:47:45Z</time>
      </trkpt>
      <trkpt lat="46.01493" lon="0.11112">
        <ele>131</ele>
        <time>2022-04-03T15:47:46Z</time>
      </trkpt>
      <trkpt lat="46.01491" lon="0.11101">
        <ele>130.6</ele>
        <time>2022-04-03T15:47:47Z</time>
      </trkpt>
      <trkpt lat="46.01489" lon="0.11088">
        <ele>130.4</ele>
        <time>2022-04-03T15:47:48Z</time>
      </trkpt>
      <trkpt lat="46.01487" lon="0.11076">
        <ele>130</ele>
        <time>2022-04-03T15:47:49Z</time>
      </trkpt>
      <trkpt lat="46.01486" lon="0.11064">
        <ele>129.8</ele>
        <time>2022-04-03T15:47:50Z</time>
      </trkpt>
      <trkpt lat="46.01484" lon="0.11051">
        <ele>129</ele>
        <time>2022-04-03T15:47:51Z</time>
      </trkpt>
      <trkpt lat="46.01482" lon="0.11039">
        <ele>128.6</ele>
        <time>2022-04-03T15:47:52Z</time>
      </trkpt>
      <trkpt lat="46.0148" lon="0.11026">
        <ele>128.4</ele>
        <time>2022-04-03T15:47:53Z</time>
      </trkpt>
      <trkpt lat="46.01479" lon="0.11014">
        <ele>127.6</ele>
        <time>2022-04-03T15:47:54Z</time>
      </trkpt>
      <trkpt lat="46.01477" lon="0.11001">
        <ele>127.6</ele>
        <time>2022-04-03T15:47:55Z</time>
      </trkpt>
      <trkpt lat="46.01475" lon="0.10988">
        <ele>127.4</ele>
        <time>2022-04-03T15:47:56Z</time>
      </trkpt>
      <trkpt lat="46.01473" lon="0.10976">
        <ele>127</ele>
        <time>2022-04-03T15:47:57Z</time>
      </trkpt>
      <trkpt lat="46.01471" lon="0.10964">
        <ele>126</ele>
        <time>2022-04-03T15:47:58Z</time>
      </trkpt>
      <trkpt lat="46.0147" lon="0.10951">
        <ele>125.6</ele>
        <time>2022-04-03T15:47:59Z</time>
      </trkpt>
      <trkpt lat="46.01468" lon="0.10939">
        <ele>125.2</ele>
        <time>2022-04-03T15:48:00Z</time>
      </trkpt>
      <trkpt lat="46.01466" lon="0.10928">
        <ele>125</ele>
        <time>2022-04-03T15:48:01Z</time>
      </trkpt>
      <trkpt lat="46.01464" lon="0.10916">
        <ele>124.8</ele>
        <time>2022-04-03T15:48:02Z</time>
      </trkpt>
      <trkpt lat="46.01463" lon="0.10904">
        <ele>124.2</ele>
        <time>2022-04-03T15:48:03Z</time>
      </trkpt>
      <trkpt lat="46.01461" lon="0.10893">
        <ele>123.4</ele>
        <time>2022-04-03T15:48:04Z</time>
      </trkpt>
      <trkpt lat="46.0146" lon="0.10882">
        <ele>123</ele>
        <time>2022-04-03T15:48:05Z</time>
      </trkpt>
      <trkpt lat="46.01458" lon="0.10871">
        <ele>122.8</ele>
        <time>2022-04-03T15:48:06Z</time>
      </trkpt>
      <trkpt lat="46.01457" lon="0.10861">
        <ele>122.6</ele>
        <time>2022-04-03T15:48:07Z</time>
      </trkpt>
      <trkpt lat="46.01455" lon="0.10851">
        <ele>122.6</ele>
        <time>2022-04-03T15:48:08Z</time>
      </trkpt>
      <trkpt lat="46.01454" lon="0.10841">
        <ele>122.6</ele>
        <time>2022-04-03T15:48:09Z</time>
      </trkpt>
      <trkpt lat="46.01452" lon="0.10831">
        <ele>122.6</ele>
        <time>2022-04-03T15:48:10Z</time>
      </trkpt>
      <trkpt lat="46.01451" lon="0.1082">
        <ele>122.4</ele>
        <time>2022-04-03T15:48:11Z</time>
      </trkpt>
      <trkpt lat="46.01449" lon="0.1081">
        <ele>122.4</ele>
        <time>2022-04-03T15:48:12Z</time>
      </trkpt>
      <trkpt lat="46.01448" lon="0.108">
        <ele>122.4</ele>
        <time>2022-04-03T15:48:13Z</time>
      </trkpt>
      <trkpt lat="46.01446" lon="0.1079">
        <ele>122.4</ele>
        <time>2022-04-03T15:48:14Z</time>
      </trkpt>
      <trkpt lat="46.01445" lon="0.1078">
        <ele>122.4</ele>
        <time>2022-04-03T15:48:15Z</time>
      </trkpt>
      <trkpt lat="46.01444" lon="0.10771">
        <ele>122.4</ele>
        <time>2022-04-03T15:48:16Z</time>
      </trkpt>
      <trkpt lat="46.01442" lon="0.10761">
        <ele>122.4</ele>
        <time>2022-04-03T15:48:17Z</time>
      </trkpt>
      <trkpt lat="46.01441" lon="0.10751">
        <ele>122.6</ele>
        <time>2022-04-03T15:48:18Z</time>
      </trkpt>
      <trkpt lat="46.0144" lon="0.10742">
        <ele>122.8</ele>
        <time>2022-04-03T15:48:19Z</time>
      </trkpt>
      <trkpt lat="46.01438" lon="0.10732">
        <ele>122.8</ele>
        <time>2022-04-03T15:48:20Z</time>
      </trkpt>
      <trkpt lat="46.01437" lon="0.10723">
        <ele>122.8</ele>
        <time>2022-04-03T15:48:21Z</time>
      </trkpt>
      <trkpt lat="46.01435" lon="0.10713">
        <ele>123</ele>
        <time>2022-04-03T15:48:22Z</time>
      </trkpt>
      <trkpt lat="46.01434" lon="0.10704">
        <ele>123</ele>
        <time>2022-04-03T15:48:23Z</time>
      </trkpt>
      <trkpt lat="46.01433" lon="0.10694">
        <ele>123</ele>
        <time>2022-04-03T15:48:24Z</time>
      </trkpt>
      <trkpt lat="46.01431" lon="0.10685">
        <ele>123.2</ele>
        <time>2022-04-03T15:48:25Z</time>
      </trkpt>
      <trkpt lat="46.0143" lon="0.10675">
        <ele>123.2</ele>
        <time>2022-04-03T15:48:26Z</time>
      </trkpt>
      <trkpt lat="46.01429" lon="0.10665">
        <ele>123.6</ele>
        <time>2022-04-03T15:48:27Z</time>
      </trkpt>
      <trkpt lat="46.01427" lon="0.10656">
        <ele>123.8</ele>
        <time>2022-04-03T15:48:28Z</time>
      </trkpt>
      <trkpt lat="46.01426" lon="0.10646">
        <ele>123.8</ele>
        <time>2022-04-03T15:48:29Z</time>
      </trkpt>
      <trkpt lat="46.01424" lon="0.10636">
        <ele>124</ele>
        <time>2022-04-03T15:48:30Z</time>
      </trkpt>
      <trkpt lat="46.01423" lon="0.10626">
        <ele>124.2</ele>
        <time>2022-04-03T15:48:31Z</time>
      </trkpt>
      <trkpt lat="46.01422" lon="0.10616">
        <ele>124.2</ele>
        <time>2022-04-03T15:48:32Z</time>
      </trkpt>
      <trkpt lat="46.0142" lon="0.10606">
        <ele>124.2</ele>
        <time>2022-04-03T15:48:33Z</time>
      </trkpt>
      <trkpt lat="46.01418" lon="0.10595">
        <ele>124.2</ele>
        <time>2022-04-03T15:48:34Z</time>
      </trkpt>
      <trkpt lat="46.01417" lon="0.10585">
        <ele>124.4</ele>
        <time>2022-04-03T15:48:35Z</time>
      </trkpt>
      <trkpt lat="46.01415" lon="0.10575">
        <ele>124.2</ele>
        <time>2022-04-03T15:48:36Z</time>
      </trkpt>
      <trkpt lat="46.01414" lon="0.10565">
        <ele>124.2</ele>
        <time>2022-04-03T15:48:37Z</time>
      </trkpt>
      <trkpt lat="46.01412" lon="0.10554">
        <ele>124.2</ele>
        <time>2022-04-03T15:48:38Z</time>
      </trkpt>
      <trkpt lat="46.01411" lon="0.10544">
        <ele>124.2</ele>
        <time>2022-04-03T15:48:39Z</time>
      </trkpt>
      <trkpt lat="46.01409" lon="0.10534">
        <ele>124.2</ele>
        <time>2022-04-03T15:48:40Z</time>
      </trkpt>
      <trkpt lat="46.01408" lon="0.10523">
        <ele>124.2</ele>
        <time>2022-04-03T15:48:41Z</time>
      </trkpt>
      <trkpt lat="46.01406" lon="0.10513">
        <ele>124.2</ele>
        <time>2022-04-03T15:48:42Z</time>
      </trkpt>
      <trkpt lat="46.01405" lon="0.10503">
        <ele>124</ele>
        <time>2022-04-03T15:48:43Z</time>
      </trkpt>
      <trkpt lat="46.01403" lon="0.10492">
        <ele>124</ele>
        <time>2022-04-03T15:48:44Z</time>
      </trkpt>
      <trkpt lat="46.01402" lon="0.10482">
        <ele>123.8</ele>
        <time>2022-04-03T15:48:45Z</time>
      </trkpt>
      <trkpt lat="46.014" lon="0.10471">
        <ele>123.8</ele>
        <time>2022-04-03T15:48:46Z</time>
      </trkpt>
      <trkpt lat="46.01399" lon="0.10461">
        <ele>123.4</ele>
        <time>2022-04-03T15:48:47Z</time>
      </trkpt>
      <trkpt lat="46.01397" lon="0.10451">
        <ele>123.2</ele>
        <time>2022-04-03T15:48:48Z</time>
      </trkpt>
      <trkpt lat="46.01396" lon="0.10441">
        <ele>123</ele>
        <time>2022-04-03T15:48:49Z</time>
      </trkpt>
      <trkpt lat="46.01394" lon="0.1043">
        <ele>122.8</ele>
        <time>2022-04-03T15:48:50Z</time>
      </trkpt>
      <trkpt lat="46.01393" lon="0.1042">
        <ele>122.6</ele>
        <time>2022-04-03T15:48:51Z</time>
      </trkpt>
      <trkpt lat="46.01391" lon="0.1041">
        <ele>122.6</ele>
        <time>2022-04-03T15:48:52Z</time>
      </trkpt>
      <trkpt lat="46.0139" lon="0.10401">
        <ele>122.4</ele>
        <time>2022-04-03T15:48:53Z</time>
      </trkpt>
      <trkpt lat="46.01388" lon="0.10391">
        <ele>122.6</ele>
        <time>2022-04-03T15:48:54Z</time>
      </trkpt>
      <trkpt lat="46.01387" lon="0.10382">
        <ele>122.4</ele>
        <time>2022-04-03T15:48:55Z</time>
      </trkpt>
      <trkpt lat="46.01386" lon="0.10372">
        <ele>122.6</ele>
        <time>2022-04-03T15:48:56Z</time>
      </trkpt>
      <trkpt lat="46.01384" lon="0.10363">
        <ele>122.6</ele>
        <time>2022-04-03T15:48:57Z</time>
      </trkpt>
      <trkpt lat="46.01383" lon="0.10354">
        <ele>122.4</ele>
        <time>2022-04-03T15:48:58Z</time>
      </trkpt>
      <trkpt lat="46.01382" lon="0.10345">
        <ele>122.6</ele>
        <time>2022-04-03T15:48:59Z</time>
      </trkpt>
      <trkpt lat="46.01381" lon="0.10337">
        <ele>122.6</ele>
        <time>2022-04-03T15:49:00Z</time>
      </trkpt>
      <trkpt lat="46.0138" lon="0.10329">
        <ele>122.6</ele>
        <time>2022-04-03T15:49:01Z</time>
      </trkpt>
      <trkpt lat="46.01379" lon="0.10321">
        <ele>122.6</ele>
        <time>2022-04-03T15:49:02Z</time>
      </trkpt>
      <trkpt lat="46.01378" lon="0.10314">
        <ele>122.8</ele>
        <time>2022-04-03T15:49:03Z</time>
      </trkpt>
      <trkpt lat="46.01377" lon="0.10306">
        <ele>122.8</ele>
        <time>2022-04-03T15:49:04Z</time>
      </trkpt>
      <trkpt lat="46.01376" lon="0.10299">
        <ele>122.8</ele>
        <time>2022-04-03T15:49:05Z</time>
      </trkpt>
      <trkpt lat="46.01374" lon="0.10292">
        <ele>123.6</ele>
        <time>2022-04-03T15:49:06Z</time>
      </trkpt>
      <trkpt lat="46.01373" lon="0.10285">
        <ele>123.8</ele>
        <time>2022-04-03T15:49:07Z</time>
      </trkpt>
      <trkpt lat="46.01372" lon="0.10278">
        <ele>124.2</ele>
        <time>2022-04-03T15:49:08Z</time>
      </trkpt>
      <trkpt lat="46.01372" lon="0.10271">
        <ele>124.6</ele>
        <time>2022-04-03T15:49:09Z</time>
      </trkpt>
      <trkpt lat="46.01371" lon="0.10265">
        <ele>125.2</ele>
        <time>2022-04-03T15:49:10Z</time>
      </trkpt>
      <trkpt lat="46.0137" lon="0.10258">
        <ele>125.2</ele>
        <time>2022-04-03T15:49:11Z</time>
      </trkpt>
      <trkpt lat="46.01369" lon="0.10251">
        <ele>125.4</ele>
        <time>2022-04-03T15:49:12Z</time>
      </trkpt>
      <trkpt lat="46.01367" lon="0.10244">
        <ele>126</ele>
        <time>2022-04-03T15:49:13Z</time>
      </trkpt>
      <trkpt lat="46.01366" lon="0.10237">
        <ele>126.2</ele>
        <time>2022-04-03T15:49:14Z</time>
      </trkpt>
      <trkpt lat="46.01365" lon="0.1023">
        <ele>126.6</ele>
        <time>2022-04-03T15:49:15Z</time>
      </trkpt>
      <trkpt lat="46.01365" lon="0.10223">
        <ele>126.8</ele>
        <time>2022-04-03T15:49:16Z</time>
      </trkpt>
      <trkpt lat="46.01364" lon="0.10216">
        <ele>127.2</ele>
        <time>2022-04-03T15:49:17Z</time>
      </trkpt>
      <trkpt lat="46.01362" lon="0.10209">
        <ele>127.4</ele>
        <time>2022-04-03T15:49:18Z</time>
      </trkpt>
      <trkpt lat="46.01361" lon="0.10202">
        <ele>127.6</ele>
        <time>2022-04-03T15:49:19Z</time>
      </trkpt>
      <trkpt lat="46.0136" lon="0.10195">
        <ele>128</ele>
        <time>2022-04-03T15:49:20Z</time>
      </trkpt>
      <trkpt lat="46.01359" lon="0.10188">
        <ele>128.2</ele>
        <time>2022-04-03T15:49:21Z</time>
      </trkpt>
      <trkpt lat="46.01358" lon="0.1018">
        <ele>128.4</ele>
        <time>2022-04-03T15:49:22Z</time>
      </trkpt>
      <trkpt lat="46.01357" lon="0.10173">
        <ele>128.4</ele>
        <time>2022-04-03T15:49:23Z</time>
      </trkpt>
      <trkpt lat="46.01356" lon="0.10165">
        <ele>128.6</ele>
        <time>2022-04-03T15:49:24Z</time>
      </trkpt>
      <trkpt lat="46.01355" lon="0.10158">
        <ele>128.6</ele>
        <time>2022-04-03T15:49:25Z</time>
      </trkpt>
      <trkpt lat="46.01354" lon="0.1015">
        <ele>128.8</ele>
        <time>2022-04-03T15:49:26Z</time>
      </trkpt>
      <trkpt lat="46.01353" lon="0.10142">
        <ele>129</ele>
        <time>2022-04-03T15:49:27Z</time>
      </trkpt>
      <trkpt lat="46.01352" lon="0.10135">
        <ele>129.4</ele>
        <time>2022-04-03T15:49:28Z</time>
      </trkpt>
      <trkpt lat="46.0135" lon="0.10127">
        <ele>129.6</ele>
        <time>2022-04-03T15:49:29Z</time>
      </trkpt>
      <trkpt lat="46.01349" lon="0.1012">
        <ele>129.6</ele>
        <time>2022-04-03T15:49:30Z</time>
      </trkpt>
      <trkpt lat="46.01348" lon="0.10112">
        <ele>130</ele>
        <time>2022-04-03T15:49:31Z</time>
      </trkpt>
      <trkpt lat="46.01347" lon="0.10105">
        <ele>130</ele>
        <time>2022-04-03T15:49:32Z</time>
      </trkpt>
      <trkpt lat="46.01346" lon="0.10097">
        <ele>130.2</ele>
        <time>2022-04-03T15:49:33Z</time>
      </trkpt>
      <trkpt lat="46.01345" lon="0.1009">
        <ele>130.2</ele>
        <time>2022-04-03T15:49:34Z</time>
      </trkpt>
      <trkpt lat="46.01344" lon="0.10082">
        <ele>130.4</ele>
        <time>2022-04-03T15:49:35Z</time>
      </trkpt>
      <trkpt lat="46.01343" lon="0.10075">
        <ele>130.6</ele>
        <time>2022-04-03T15:49:36Z</time>
      </trkpt>
      <trkpt lat="46.01342" lon="0.10067">
        <ele>130.4</ele>
        <time>2022-04-03T15:49:37Z</time>
      </trkpt>
      <trkpt lat="46.0134" lon="0.1006">
        <ele>130.6</ele>
        <time>2022-04-03T15:49:38Z</time>
      </trkpt>
      <trkpt lat="46.01339" lon="0.10053">
        <ele>130.8</ele>
        <time>2022-04-03T15:49:39Z</time>
      </trkpt>
      <trkpt lat="46.01338" lon="0.10045">
        <ele>130.8</ele>
        <time>2022-04-03T15:49:40Z</time>
      </trkpt>
      <trkpt lat="46.01337" lon="0.10038">
        <ele>130.8</ele>
        <time>2022-04-03T15:49:41Z</time>
      </trkpt>
      <trkpt lat="46.01336" lon="0.1003">
        <ele>130.8</ele>
        <time>2022-04-03T15:49:42Z</time>
      </trkpt>
      <trkpt lat="46.01335" lon="0.10022">
        <ele>131</ele>
        <time>2022-04-03T15:49:43Z</time>
      </trkpt>
      <trkpt lat="46.01334" lon="0.10015">
        <ele>130.8</ele>
        <time>2022-04-03T15:49:44Z</time>
      </trkpt>
      <trkpt lat="46.01333" lon="0.10007">
        <ele>131</ele>
        <time>2022-04-03T15:49:45Z</time>
      </trkpt>
      <trkpt lat="46.01332" lon="0.09999">
        <ele>131</ele>
        <time>2022-04-03T15:49:46Z</time>
      </trkpt>
      <trkpt lat="46.0133" lon="0.09991">
        <ele>131</ele>
        <time>2022-04-03T15:49:47Z</time>
      </trkpt>
      <trkpt lat="46.01329" lon="0.09982">
        <ele>131</ele>
        <time>2022-04-03T15:49:48Z</time>
      </trkpt>
      <trkpt lat="46.01328" lon="0.09974">
        <ele>131</ele>
        <time>2022-04-03T15:49:49Z</time>
      </trkpt>
      <trkpt lat="46.01327" lon="0.09965">
        <ele>130.8</ele>
        <time>2022-04-03T15:49:50Z</time>
      </trkpt>
      <trkpt lat="46.01326" lon="0.09957">
        <ele>131</ele>
        <time>2022-04-03T15:49:51Z</time>
      </trkpt>
      <trkpt lat="46.01324" lon="0.09948">
        <ele>131</ele>
        <time>2022-04-03T15:49:52Z</time>
      </trkpt>
      <trkpt lat="46.01323" lon="0.09939">
        <ele>131</ele>
        <time>2022-04-03T15:49:53Z</time>
      </trkpt>
      <trkpt lat="46.01322" lon="0.09929">
        <ele>130.8</ele>
        <time>2022-04-03T15:49:54Z</time>
      </trkpt>
      <trkpt lat="46.0132" lon="0.0992">
        <ele>130.8</ele>
        <time>2022-04-03T15:49:55Z</time>
      </trkpt>
      <trkpt lat="46.01319" lon="0.0991">
        <ele>130.8</ele>
        <time>2022-04-03T15:49:56Z</time>
      </trkpt>
      <trkpt lat="46.01317" lon="0.099">
        <ele>131</ele>
        <time>2022-04-03T15:49:57Z</time>
      </trkpt>
      <trkpt lat="46.01316" lon="0.09889">
        <ele>130.8</ele>
        <time>2022-04-03T15:49:58Z</time>
      </trkpt>
      <trkpt lat="46.01315" lon="0.09879">
        <ele>130.6</ele>
        <time>2022-04-03T15:49:59Z</time>
      </trkpt>
      <trkpt lat="46.01313" lon="0.09869">
        <ele>130.2</ele>
        <time>2022-04-03T15:50:00Z</time>
      </trkpt>
      <trkpt lat="46.01312" lon="0.09859">
        <ele>129.8</ele>
        <time>2022-04-03T15:50:01Z</time>
      </trkpt>
      <trkpt lat="46.0131" lon="0.09848">
        <ele>129.6</ele>
        <time>2022-04-03T15:50:02Z</time>
      </trkpt>
      <trkpt lat="46.01308" lon="0.09838">
        <ele>129.4</ele>
        <time>2022-04-03T15:50:03Z</time>
      </trkpt>
      <trkpt lat="46.01307" lon="0.09827">
        <ele>129</ele>
        <time>2022-04-03T15:50:04Z</time>
      </trkpt>
      <trkpt lat="46.01305" lon="0.09817">
        <ele>128.6</ele>
        <time>2022-04-03T15:50:05Z</time>
      </trkpt>
      <trkpt lat="46.01304" lon="0.09806">
        <ele>128.4</ele>
        <time>2022-04-03T15:50:06Z</time>
      </trkpt>
      <trkpt lat="46.01302" lon="0.09796">
        <ele>128</ele>
        <time>2022-04-03T15:50:07Z</time>
      </trkpt>
      <trkpt lat="46.01301" lon="0.09785">
        <ele>127.8</ele>
        <time>2022-04-03T15:50:08Z</time>
      </trkpt>
      <trkpt lat="46.01299" lon="0.09774">
        <ele>127.8</ele>
        <time>2022-04-03T15:50:09Z</time>
      </trkpt>
      <trkpt lat="46.01298" lon="0.09763">
        <ele>127.2</ele>
        <time>2022-04-03T15:50:10Z</time>
      </trkpt>
      <trkpt lat="46.01296" lon="0.09752">
        <ele>126.8</ele>
        <time>2022-04-03T15:50:11Z</time>
      </trkpt>
      <trkpt lat="46.01294" lon="0.0974">
        <ele>126.6</ele>
        <time>2022-04-03T15:50:12Z</time>
      </trkpt>
      <trkpt lat="46.01292" lon="0.09729">
        <ele>126.2</ele>
        <time>2022-04-03T15:50:13Z</time>
      </trkpt>
      <trkpt lat="46.01291" lon="0.09718">
        <ele>126.2</ele>
        <time>2022-04-03T15:50:14Z</time>
      </trkpt>
      <trkpt lat="46.01289" lon="0.09706">
        <ele>126</ele>
        <time>2022-04-03T15:50:15Z</time>
      </trkpt>
      <trkpt lat="46.01288" lon="0.09694">
        <ele>125.8</ele>
        <time>2022-04-03T15:50:16Z</time>
      </trkpt>
      <trkpt lat="46.01286" lon="0.09682">
        <ele>125.2</ele>
        <time>2022-04-03T15:50:17Z</time>
      </trkpt>
      <trkpt lat="46.01285" lon="0.0967">
        <ele>124.8</ele>
        <time>2022-04-03T15:50:18Z</time>
      </trkpt>
      <trkpt lat="46.01284" lon="0.09658">
        <ele>124.6</ele>
        <time>2022-04-03T15:50:19Z</time>
      </trkpt>
      <trkpt lat="46.01284" lon="0.09645">
        <ele>124.4</ele>
        <time>2022-04-03T15:50:20Z</time>
      </trkpt>
      <trkpt lat="46.01284" lon="0.09631">
        <ele>123.8</ele>
        <time>2022-04-03T15:50:21Z</time>
      </trkpt>
      <trkpt lat="46.01284" lon="0.09618">
        <ele>123.6</ele>
        <time>2022-04-03T15:50:22Z</time>
      </trkpt>
      <trkpt lat="46.01285" lon="0.09604">
        <ele>123.4</ele>
        <time>2022-04-03T15:50:23Z</time>
      </trkpt>
      <trkpt lat="46.01287" lon="0.0959">
        <ele>123.2</ele>
        <time>2022-04-03T15:50:24Z</time>
      </trkpt>
      <trkpt lat="46.01288" lon="0.09576">
        <ele>122.8</ele>
        <time>2022-04-03T15:50:25Z</time>
      </trkpt>
      <trkpt lat="46.01289" lon="0.09561">
        <ele>122.4</ele>
        <time>2022-04-03T15:50:26Z</time>
      </trkpt>
      <trkpt lat="46.01291" lon="0.09547">
        <ele>122.4</ele>
        <time>2022-04-03T15:50:27Z</time>
      </trkpt>
      <trkpt lat="46.01292" lon="0.09533">
        <ele>122.2</ele>
        <time>2022-04-03T15:50:28Z</time>
      </trkpt>
      <trkpt lat="46.01293" lon="0.0952">
        <ele>121.2</ele>
        <time>2022-04-03T15:50:29Z</time>
      </trkpt>
      <trkpt lat="46.01295" lon="0.09506">
        <ele>120.4</ele>
        <time>2022-04-03T15:50:30Z</time>
      </trkpt>
      <trkpt lat="46.01296" lon="0.09492">
        <ele>119.6</ele>
        <time>2022-04-03T15:50:31Z</time>
      </trkpt>
      <trkpt lat="46.01298" lon="0.09478">
        <ele>118.6</ele>
        <time>2022-04-03T15:50:32Z</time>
      </trkpt>
      <trkpt lat="46.01299" lon="0.09465">
        <ele>117.6</ele>
        <time>2022-04-03T15:50:33Z</time>
      </trkpt>
      <trkpt lat="46.013" lon="0.09451">
        <ele>117</ele>
        <time>2022-04-03T15:50:34Z</time>
      </trkpt>
      <trkpt lat="46.01301" lon="0.09438">
        <ele>116.2</ele>
        <time>2022-04-03T15:50:35Z</time>
      </trkpt>
      <trkpt lat="46.01302" lon="0.09425">
        <ele>115.6</ele>
        <time>2022-04-03T15:50:36Z</time>
      </trkpt>
      <trkpt lat="46.01301" lon="0.09412">
        <ele>115</ele>
        <time>2022-04-03T15:50:37Z</time>
      </trkpt>
      <trkpt lat="46.013" lon="0.09399">
        <ele>114.6</ele>
        <time>2022-04-03T15:50:38Z</time>
      </trkpt>
      <trkpt lat="46.01297" lon="0.09387">
        <ele>114.4</ele>
        <time>2022-04-03T15:50:39Z</time>
      </trkpt>
      <trkpt lat="46.01293" lon="0.09375">
        <ele>114</ele>
        <time>2022-04-03T15:50:40Z</time>
      </trkpt>
      <trkpt lat="46.01288" lon="0.09363">
        <ele>113.8</ele>
        <time>2022-04-03T15:50:41Z</time>
      </trkpt>
      <trkpt lat="46.01284" lon="0.09352">
        <ele>113.4</ele>
        <time>2022-04-03T15:50:42Z</time>
      </trkpt>
      <trkpt lat="46.01279" lon="0.0934">
        <ele>113</ele>
        <time>2022-04-03T15:50:43Z</time>
      </trkpt>
      <trkpt lat="46.01275" lon="0.09328">
        <ele>112.6</ele>
        <time>2022-04-03T15:50:44Z</time>
      </trkpt>
      <trkpt lat="46.01271" lon="0.09316">
        <ele>112.4</ele>
        <time>2022-04-03T15:50:45Z</time>
      </trkpt>
      <trkpt lat="46.01269" lon="0.09303">
        <ele>112.4</ele>
        <time>2022-04-03T15:50:46Z</time>
      </trkpt>
      <trkpt lat="46.01266" lon="0.0929">
        <ele>112.4</ele>
        <time>2022-04-03T15:50:47Z</time>
      </trkpt>
      <trkpt lat="46.01264" lon="0.09277">
        <ele>112.4</ele>
        <time>2022-04-03T15:50:48Z</time>
      </trkpt>
      <trkpt lat="46.01263" lon="0.09263">
        <ele>112.2</ele>
        <time>2022-04-03T15:50:49Z</time>
      </trkpt>
      <trkpt lat="46.01261" lon="0.0925">
        <ele>112.2</ele>
        <time>2022-04-03T15:50:50Z</time>
      </trkpt>
      <trkpt lat="46.01259" lon="0.09236">
        <ele>112</ele>
        <time>2022-04-03T15:50:51Z</time>
      </trkpt>
      <trkpt lat="46.01257" lon="0.09223">
        <ele>112</ele>
        <time>2022-04-03T15:50:52Z</time>
      </trkpt>
      <trkpt lat="46.01255" lon="0.09209">
        <ele>111.8</ele>
        <time>2022-04-03T15:50:53Z</time>
      </trkpt>
      <trkpt lat="46.01254" lon="0.09196">
        <ele>111.4</ele>
        <time>2022-04-03T15:50:54Z</time>
      </trkpt>
      <trkpt lat="46.01252" lon="0.09182">
        <ele>110.8</ele>
        <time>2022-04-03T15:50:55Z</time>
      </trkpt>
      <trkpt lat="46.01249" lon="0.09169">
        <ele>110.2</ele>
        <time>2022-04-03T15:50:56Z</time>
      </trkpt>
      <trkpt lat="46.01247" lon="0.09156">
        <ele>110</ele>
        <time>2022-04-03T15:50:57Z</time>
      </trkpt>
      <trkpt lat="46.01245" lon="0.09143">
        <ele>109.6</ele>
        <time>2022-04-03T15:50:58Z</time>
      </trkpt>
      <trkpt lat="46.01242" lon="0.09131">
        <ele>109.4</ele>
        <time>2022-04-03T15:50:59Z</time>
      </trkpt>
      <trkpt lat="46.01239" lon="0.09118">
        <ele>109</ele>
        <time>2022-04-03T15:51:00Z</time>
      </trkpt>
      <trkpt lat="46.01236" lon="0.09106">
        <ele>108.8</ele>
        <time>2022-04-03T15:51:01Z</time>
      </trkpt>
      <trkpt lat="46.01232" lon="0.09095">
        <ele>108.6</ele>
        <time>2022-04-03T15:51:02Z</time>
      </trkpt>
      <trkpt lat="46.01228" lon="0.09084">
        <ele>108.6</ele>
        <time>2022-04-03T15:51:03Z</time>
      </trkpt>
      <trkpt lat="46.01224" lon="0.09073">
        <ele>108.4</ele>
        <time>2022-04-03T15:51:04Z</time>
      </trkpt>
      <trkpt lat="46.0122" lon="0.09062">
        <ele>108.2</ele>
        <time>2022-04-03T15:51:05Z</time>
      </trkpt>
      <trkpt lat="46.01215" lon="0.09052">
        <ele>108.2</ele>
        <time>2022-04-03T15:51:06Z</time>
      </trkpt>
      <trkpt lat="46.0121" lon="0.09041">
        <ele>108.4</ele>
        <time>2022-04-03T15:51:07Z</time>
      </trkpt>
      <trkpt lat="46.01205" lon="0.09031">
        <ele>108.4</ele>
        <time>2022-04-03T15:51:08Z</time>
      </trkpt>
      <trkpt lat="46.01201" lon="0.09021">
        <ele>108.4</ele>
        <time>2022-04-03T15:51:09Z</time>
      </trkpt>
      <trkpt lat="46.01196" lon="0.0901">
        <ele>108.2</ele>
        <time>2022-04-03T15:51:10Z</time>
      </trkpt>
      <trkpt lat="46.01191" lon="0.09">
        <ele>108.4</ele>
        <time>2022-04-03T15:51:11Z</time>
      </trkpt>
      <trkpt lat="46.01186" lon="0.0899">
        <ele>108.4</ele>
        <time>2022-04-03T15:51:12Z</time>
      </trkpt>
      <trkpt lat="46.01182" lon="0.08979">
        <ele>108.6</ele>
        <time>2022-04-03T15:51:13Z</time>
      </trkpt>
      <trkpt lat="46.01177" lon="0.08969">
        <ele>108.6</ele>
        <time>2022-04-03T15:51:14Z</time>
      </trkpt>
      <trkpt lat="46.01172" lon="0.08959">
        <ele>108.8</ele>
        <time>2022-04-03T15:51:15Z</time>
      </trkpt>
      <trkpt lat="46.01168" lon="0.08949">
        <ele>108.6</ele>
        <time>2022-04-03T15:51:16Z</time>
      </trkpt>
      <trkpt lat="46.01163" lon="0.08939">
        <ele>108.8</ele>
        <time>2022-04-03T15:51:17Z</time>
      </trkpt>
      <trkpt lat="46.01158" lon="0.08929">
        <ele>108.8</ele>
        <time>2022-04-03T15:51:18Z</time>
      </trkpt>
      <trkpt lat="46.01154" lon="0.08919">
        <ele>108.8</ele>
        <time>2022-04-03T15:51:19Z</time>
      </trkpt>
      <trkpt lat="46.0115" lon="0.08908">
        <ele>108.8</ele>
        <time>2022-04-03T15:51:20Z</time>
      </trkpt>
      <trkpt lat="46.01146" lon="0.08898">
        <ele>109</ele>
        <time>2022-04-03T15:51:21Z</time>
      </trkpt>
      <trkpt lat="46.01143" lon="0.08887">
        <ele>109</ele>
        <time>2022-04-03T15:51:22Z</time>
      </trkpt>
      <trkpt lat="46.01139" lon="0.08876">
        <ele>109</ele>
        <time>2022-04-03T15:51:23Z</time>
      </trkpt>
      <trkpt lat="46.01137" lon="0.08865">
        <ele>108.8</ele>
        <time>2022-04-03T15:51:24Z</time>
      </trkpt>
      <trkpt lat="46.01134" lon="0.08854">
        <ele>108.8</ele>
        <time>2022-04-03T15:51:25Z</time>
      </trkpt>
      <trkpt lat="46.01132" lon="0.08844">
        <ele>109</ele>
        <time>2022-04-03T15:51:26Z</time>
      </trkpt>
      <trkpt lat="46.0113" lon="0.08833">
        <ele>109</ele>
        <time>2022-04-03T15:51:27Z</time>
      </trkpt>
      <trkpt lat="46.01128" lon="0.08823">
        <ele>109</ele>
        <time>2022-04-03T15:51:28Z</time>
      </trkpt>
      <trkpt lat="46.01125" lon="0.08813">
        <ele>108.8</ele>
        <time>2022-04-03T15:51:29Z</time>
      </trkpt>
      <trkpt lat="46.01122" lon="0.08804">
        <ele>109</ele>
        <time>2022-04-03T15:51:30Z</time>
      </trkpt>
      <trkpt lat="46.01119" lon="0.08794">
        <ele>109.2</ele>
        <time>2022-04-03T15:51:31Z</time>
      </trkpt>
      <trkpt lat="46.01115" lon="0.08785">
        <ele>109.2</ele>
        <time>2022-04-03T15:51:32Z</time>
      </trkpt>
      <trkpt lat="46.01111" lon="0.08776">
        <ele>109.2</ele>
        <time>2022-04-03T15:51:33Z</time>
      </trkpt>
      <trkpt lat="46.01107" lon="0.08767">
        <ele>109.2</ele>
        <time>2022-04-03T15:51:34Z</time>
      </trkpt>
      <trkpt lat="46.01103" lon="0.08759">
        <ele>109.2</ele>
        <time>2022-04-03T15:51:35Z</time>
      </trkpt>
      <trkpt lat="46.01099" lon="0.0875">
        <ele>109.2</ele>
        <time>2022-04-03T15:51:36Z</time>
      </trkpt>
      <trkpt lat="46.01095" lon="0.08741">
        <ele>109.2</ele>
        <time>2022-04-03T15:51:37Z</time>
      </trkpt>
      <trkpt lat="46.01091" lon="0.08733">
        <ele>109.4</ele>
        <time>2022-04-03T15:51:38Z</time>
      </trkpt>
      <trkpt lat="46.01087" lon="0.08725">
        <ele>109.4</ele>
        <time>2022-04-03T15:51:39Z</time>
      </trkpt>
      <trkpt lat="46.01084" lon="0.08716">
        <ele>109.4</ele>
        <time>2022-04-03T15:51:40Z</time>
      </trkpt>
      <trkpt lat="46.01081" lon="0.08707">
        <ele>109.4</ele>
        <time>2022-04-03T15:51:41Z</time>
      </trkpt>
      <trkpt lat="46.01078" lon="0.08698">
        <ele>109.6</ele>
        <time>2022-04-03T15:51:42Z</time>
      </trkpt>
      <trkpt lat="46.01077" lon="0.08688">
        <ele>109.6</ele>
        <time>2022-04-03T15:51:43Z</time>
      </trkpt>
      <trkpt lat="46.01076" lon="0.08679">
        <ele>109.6</ele>
        <time>2022-04-03T15:51:44Z</time>
      </trkpt>
      <trkpt lat="46.01075" lon="0.0867">
        <ele>109.6</ele>
        <time>2022-04-03T15:51:45Z</time>
      </trkpt>
      <trkpt lat="46.01075" lon="0.08661">
        <ele>109.8</ele>
        <time>2022-04-03T15:51:46Z</time>
      </trkpt>
      <trkpt lat="46.01074" lon="0.08652">
        <ele>109.8</ele>
        <time>2022-04-03T15:51:47Z</time>
      </trkpt>
      <trkpt lat="46.01074" lon="0.08643">
        <ele>109.8</ele>
        <time>2022-04-03T15:51:48Z</time>
      </trkpt>
      <trkpt lat="46.01073" lon="0.08635">
        <ele>109.8</ele>
        <time>2022-04-03T15:51:49Z</time>
      </trkpt>
      <trkpt lat="46.01073" lon="0.08626">
        <ele>109.8</ele>
        <time>2022-04-03T15:51:50Z</time>
      </trkpt>
      <trkpt lat="46.01073" lon="0.08618">
        <ele>109.8</ele>
        <time>2022-04-03T15:51:51Z</time>
      </trkpt>
      <trkpt lat="46.01073" lon="0.0861">
        <ele>109.8</ele>
        <time>2022-04-03T15:51:52Z</time>
      </trkpt>
      <trkpt lat="46.01073" lon="0.08602">
        <ele>109.8</ele>
        <time>2022-04-03T15:51:53Z</time>
      </trkpt>
      <trkpt lat="46.01073" lon="0.08594">
        <ele>109.8</ele>
        <time>2022-04-03T15:51:54Z</time>
      </trkpt>
      <trkpt lat="46.01073" lon="0.08586">
        <ele>110</ele>
        <time>2022-04-03T15:51:55Z</time>
      </trkpt>
      <trkpt lat="46.01073" lon="0.08578">
        <ele>110</ele>
        <time>2022-04-03T15:51:56Z</time>
      </trkpt>
      <trkpt lat="46.01073" lon="0.0857">
        <ele>110.2</ele>
        <time>2022-04-03T15:51:57Z</time>
      </trkpt>
      <trkpt lat="46.01074" lon="0.08562">
        <ele>110.4</ele>
        <time>2022-04-03T15:51:58Z</time>
      </trkpt>
      <trkpt lat="46.01074" lon="0.08554">
        <ele>110.4</ele>
        <time>2022-04-03T15:51:59Z</time>
      </trkpt>
      <trkpt lat="46.01074" lon="0.08546">
        <ele>110.4</ele>
        <time>2022-04-03T15:52:00Z</time>
      </trkpt>
      <trkpt lat="46.01075" lon="0.08537">
        <ele>110.4</ele>
        <time>2022-04-03T15:52:01Z</time>
      </trkpt>
      <trkpt lat="46.01075" lon="0.08529">
        <ele>110.4</ele>
        <time>2022-04-03T15:52:02Z</time>
      </trkpt>
      <trkpt lat="46.01075" lon="0.0852">
        <ele>110.4</ele>
        <time>2022-04-03T15:52:03Z</time>
      </trkpt>
      <trkpt lat="46.01074" lon="0.08512">
        <ele>110.6</ele>
        <time>2022-04-03T15:52:04Z</time>
      </trkpt>
      <trkpt lat="46.01073" lon="0.08503">
        <ele>110.6</ele>
        <time>2022-04-03T15:52:05Z</time>
      </trkpt>
      <trkpt lat="46.01072" lon="0.08494">
        <ele>110.6</ele>
        <time>2022-04-03T15:52:06Z</time>
      </trkpt>
      <trkpt lat="46.01071" lon="0.08485">
        <ele>110.4</ele>
        <time>2022-04-03T15:52:07Z</time>
      </trkpt>
      <trkpt lat="46.01069" lon="0.08476">
        <ele>110.6</ele>
        <time>2022-04-03T15:52:08Z</time>
      </trkpt>
      <trkpt lat="46.01067" lon="0.08467">
        <ele>110.6</ele>
        <time>2022-04-03T15:52:09Z</time>
      </trkpt>
      <trkpt lat="46.01064" lon="0.08457">
        <ele>110.6</ele>
        <time>2022-04-03T15:52:10Z</time>
      </trkpt>
      <trkpt lat="46.01062" lon="0.08448">
        <ele>110.4</ele>
        <time>2022-04-03T15:52:11Z</time>
      </trkpt>
      <trkpt lat="46.01059" lon="0.08437">
        <ele>110.4</ele>
        <time>2022-04-03T15:52:12Z</time>
      </trkpt>
      <trkpt lat="46.01056" lon="0.08427">
        <ele>110.4</ele>
        <time>2022-04-03T15:52:13Z</time>
      </trkpt>
      <trkpt lat="46.01053" lon="0.08416">
        <ele>110.4</ele>
        <time>2022-04-03T15:52:14Z</time>
      </trkpt>
      <trkpt lat="46.0105" lon="0.08404">
        <ele>110.4</ele>
        <time>2022-04-03T15:52:15Z</time>
      </trkpt>
      <trkpt lat="46.01048" lon="0.08393">
        <ele>110.2</ele>
        <time>2022-04-03T15:52:16Z</time>
      </trkpt>
      <trkpt lat="46.01046" lon="0.08381">
        <ele>109.8</ele>
        <time>2022-04-03T15:52:17Z</time>
      </trkpt>
      <trkpt lat="46.01046" lon="0.08369">
        <ele>109.2</ele>
        <time>2022-04-03T15:52:18Z</time>
      </trkpt>
      <trkpt lat="46.01047" lon="0.08358">
        <ele>108.8</ele>
        <time>2022-04-03T15:52:19Z</time>
      </trkpt>
      <trkpt lat="46.01049" lon="0.08347">
        <ele>108.6</ele>
        <time>2022-04-03T15:52:20Z</time>
      </trkpt>
      <trkpt lat="46.01052" lon="0.08337">
        <ele>108</ele>
        <time>2022-04-03T15:52:21Z</time>
      </trkpt>
      <trkpt lat="46.01054" lon="0.08327">
        <ele>108</ele>
        <time>2022-04-03T15:52:22Z</time>
      </trkpt>
      <trkpt lat="46.01056" lon="0.08317">
        <ele>107.2</ele>
        <time>2022-04-03T15:52:23Z</time>
      </trkpt>
      <trkpt lat="46.01059" lon="0.08308">
        <ele>106.6</ele>
        <time>2022-04-03T15:52:24Z</time>
      </trkpt>
      <trkpt lat="46.01062" lon="0.08299">
        <ele>106.2</ele>
        <time>2022-04-03T15:52:25Z</time>
      </trkpt>
      <trkpt lat="46.01064" lon="0.0829">
        <ele>105.8</ele>
        <time>2022-04-03T15:52:26Z</time>
      </trkpt>
      <trkpt lat="46.01066" lon="0.08281">
        <ele>105.8</ele>
        <time>2022-04-03T15:52:27Z</time>
      </trkpt>
      <trkpt lat="46.01069" lon="0.08273">
        <ele>105.6</ele>
        <time>2022-04-03T15:52:28Z</time>
      </trkpt>
      <trkpt lat="46.01071" lon="0.08265">
        <ele>105.6</ele>
        <time>2022-04-03T15:52:29Z</time>
      </trkpt>
      <trkpt lat="46.01073" lon="0.08258">
        <ele>105.6</ele>
        <time>2022-04-03T15:52:30Z</time>
      </trkpt>
      <trkpt lat="46.01075" lon="0.08251">
        <ele>105.6</ele>
        <time>2022-04-03T15:52:31Z</time>
      </trkpt>
      <trkpt lat="46.01077" lon="0.08245">
        <ele>105.6</ele>
        <time>2022-04-03T15:52:32Z</time>
      </trkpt>
      <trkpt lat="46.0108" lon="0.08239">
        <ele>105.6</ele>
        <time>2022-04-03T15:52:33Z</time>
      </trkpt>
      <trkpt lat="46.01082" lon="0.08233">
        <ele>105.6</ele>
        <time>2022-04-03T15:52:34Z</time>
      </trkpt>
      <trkpt lat="46.01084" lon="0.08227">
        <ele>105.8</ele>
        <time>2022-04-03T15:52:35Z</time>
      </trkpt>
      <trkpt lat="46.01085" lon="0.0822">
        <ele>106.2</ele>
        <time>2022-04-03T15:52:36Z</time>
      </trkpt>
      <trkpt lat="46.01087" lon="0.08215">
        <ele>106.8</ele>
        <time>2022-04-03T15:52:37Z</time>
      </trkpt>
      <trkpt lat="46.01089" lon="0.08209">
        <ele>107.4</ele>
        <time>2022-04-03T15:52:38Z</time>
      </trkpt>
      <trkpt lat="46.0109" lon="0.08203">
        <ele>107.8</ele>
        <time>2022-04-03T15:52:39Z</time>
      </trkpt>
      <trkpt lat="46.01092" lon="0.08198">
        <ele>107.8</ele>
        <time>2022-04-03T15:52:40Z</time>
      </trkpt>
      <trkpt lat="46.01094" lon="0.08193">
        <ele>108</ele>
        <time>2022-04-03T15:52:41Z</time>
      </trkpt>
      <trkpt lat="46.01096" lon="0.08187">
        <ele>108.4</ele>
        <time>2022-04-03T15:52:42Z</time>
      </trkpt>
      <trkpt lat="46.01098" lon="0.08182">
        <ele>108.4</ele>
        <time>2022-04-03T15:52:43Z</time>
      </trkpt>
      <trkpt lat="46.011" lon="0.08177">
        <ele>109</ele>
        <time>2022-04-03T15:52:44Z</time>
      </trkpt>
      <trkpt lat="46.01101" lon="0.08172">
        <ele>109.2</ele>
        <time>2022-04-03T15:52:45Z</time>
      </trkpt>
      <trkpt lat="46.01103" lon="0.08166">
        <ele>109.4</ele>
        <time>2022-04-03T15:52:46Z</time>
      </trkpt>
      <trkpt lat="46.01105" lon="0.08161">
        <ele>109.4</ele>
        <time>2022-04-03T15:52:47Z</time>
      </trkpt>
      <trkpt lat="46.01107" lon="0.08156">
        <ele>109.6</ele>
        <time>2022-04-03T15:52:48Z</time>
      </trkpt>
      <trkpt lat="46.01108" lon="0.0815">
        <ele>110</ele>
        <time>2022-04-03T15:52:49Z</time>
      </trkpt>
      <trkpt lat="46.0111" lon="0.08145">
        <ele>110.4</ele>
        <time>2022-04-03T15:52:50Z</time>
      </trkpt>
      <trkpt lat="46.01112" lon="0.08139">
        <ele>110.6</ele>
        <time>2022-04-03T15:52:51Z</time>
      </trkpt>
      <trkpt lat="46.01113" lon="0.08133">
        <ele>110.8</ele>
        <time>2022-04-03T15:52:52Z</time>
      </trkpt>
      <trkpt lat="46.01115" lon="0.08128">
        <ele>110.8</ele>
        <time>2022-04-03T15:52:53Z</time>
      </trkpt>
      <trkpt lat="46.01117" lon="0.08122">
        <ele>111</ele>
        <time>2022-04-03T15:52:54Z</time>
      </trkpt>
      <trkpt lat="46.01119" lon="0.08117">
        <ele>111.2</ele>
        <time>2022-04-03T15:52:55Z</time>
      </trkpt>
      <trkpt lat="46.01121" lon="0.08111">
        <ele>111.2</ele>
        <time>2022-04-03T15:52:56Z</time>
      </trkpt>
      <trkpt lat="46.01123" lon="0.08106">
        <ele>111.6</ele>
        <time>2022-04-03T15:52:57Z</time>
      </trkpt>
      <trkpt lat="46.01125" lon="0.08101">
        <ele>111.6</ele>
        <time>2022-04-03T15:52:58Z</time>
      </trkpt>
      <trkpt lat="46.01127" lon="0.08096">
        <ele>111.6</ele>
        <time>2022-04-03T15:52:59Z</time>
      </trkpt>
      <trkpt lat="46.0113" lon="0.08092">
        <ele>111.8</ele>
        <time>2022-04-03T15:53:00Z</time>
      </trkpt>
      <trkpt lat="46.01133" lon="0.08089">
        <ele>111.8</ele>
        <time>2022-04-03T15:53:01Z</time>
      </trkpt>
      <trkpt lat="46.01137" lon="0.08087">
        <ele>111.8</ele>
        <time>2022-04-03T15:53:02Z</time>
      </trkpt>
      <trkpt lat="46.01141" lon="0.08086">
        <ele>111.8</ele>
        <time>2022-04-03T15:53:03Z</time>
      </trkpt>
      <trkpt lat="46.01145" lon="0.08087">
        <ele>112</ele>
        <time>2022-04-03T15:53:04Z</time>
      </trkpt>
      <trkpt lat="46.01149" lon="0.08087">
        <ele>112</ele>
        <time>2022-04-03T15:53:05Z</time>
      </trkpt>
      <trkpt lat="46.01153" lon="0.08088">
        <ele>112.2</ele>
        <time>2022-04-03T15:53:06Z</time>
      </trkpt>
      <trkpt lat="46.01157" lon="0.08089">
        <ele>112.2</ele>
        <time>2022-04-03T15:53:07Z</time>
      </trkpt>
      <trkpt lat="46.01161" lon="0.08089">
        <ele>112.4</ele>
        <time>2022-04-03T15:53:08Z</time>
      </trkpt>
      <trkpt lat="46.01164" lon="0.0809">
        <ele>112.2</ele>
        <time>2022-04-03T15:53:09Z</time>
      </trkpt>
      <trkpt lat="46.01168" lon="0.08091">
        <ele>112.4</ele>
        <time>2022-04-03T15:53:10Z</time>
      </trkpt>
      <trkpt lat="46.01172" lon="0.08093">
        <ele>112.4</ele>
        <time>2022-04-03T15:53:11Z</time>
      </trkpt>
      <trkpt lat="46.01176" lon="0.08095">
        <ele>112.6</ele>
        <time>2022-04-03T15:53:12Z</time>
      </trkpt>
      <trkpt lat="46.01181" lon="0.08095">
        <ele>112.4</ele>
        <time>2022-04-03T15:53:13Z</time>
      </trkpt>
      <trkpt lat="46.01185" lon="0.08093">
        <ele>112.4</ele>
        <time>2022-04-03T15:53:14Z</time>
      </trkpt>
      <trkpt lat="46.01189" lon="0.08091">
        <ele>112.4</ele>
        <time>2022-04-03T15:53:15Z</time>
      </trkpt>
      <trkpt lat="46.01193" lon="0.08088">
        <ele>112.6</ele>
        <time>2022-04-03T15:53:16Z</time>
      </trkpt>
      <trkpt lat="46.01196" lon="0.08084">
        <ele>112.6</ele>
        <time>2022-04-03T15:53:17Z</time>
      </trkpt>
      <trkpt lat="46.01199" lon="0.08079">
        <ele>112.6</ele>
        <time>2022-04-03T15:53:18Z</time>
      </trkpt>
      <trkpt lat="46.01201" lon="0.08074">
        <ele>112.6</ele>
        <time>2022-04-03T15:53:19Z</time>
      </trkpt>
      <trkpt lat="46.01203" lon="0.08069">
        <ele>112.8</ele>
        <time>2022-04-03T15:53:20Z</time>
      </trkpt>
      <trkpt lat="46.01205" lon="0.08064">
        <ele>112.6</ele>
        <time>2022-04-03T15:53:21Z</time>
      </trkpt>
      <trkpt lat="46.01208" lon="0.08059">
        <ele>112.8</ele>
        <time>2022-04-03T15:53:22Z</time>
      </trkpt>
      <trkpt lat="46.0121" lon="0.08054">
        <ele>112.8</ele>
        <time>2022-04-03T15:53:23Z</time>
      </trkpt>
      <trkpt lat="46.01212" lon="0.08048">
        <ele>113</ele>
        <time>2022-04-03T15:53:24Z</time>
      </trkpt>
      <trkpt lat="46.01214" lon="0.08043">
        <ele>113</ele>
        <time>2022-04-03T15:53:25Z</time>
      </trkpt>
      <trkpt lat="46.01216" lon="0.08038">
        <ele>113</ele>
        <time>2022-04-03T15:53:26Z</time>
      </trkpt>
      <trkpt lat="46.01218" lon="0.08033">
        <ele>113.2</ele>
        <time>2022-04-03T15:53:27Z</time>
      </trkpt>
      <trkpt lat="46.01221" lon="0.08028">
        <ele>113.4</ele>
        <time>2022-04-03T15:53:28Z</time>
      </trkpt>
      <trkpt lat="46.01223" lon="0.08023">
        <ele>113.4</ele>
        <time>2022-04-03T15:53:29Z</time>
      </trkpt>
      <trkpt lat="46.01225" lon="0.08019">
        <ele>113.4</ele>
        <time>2022-04-03T15:53:30Z</time>
      </trkpt>
      <trkpt lat="46.01228" lon="0.08015">
        <ele>113.8</ele>
        <time>2022-04-03T15:53:31Z</time>
      </trkpt>
      <trkpt lat="46.01231" lon="0.0801">
        <ele>113.8</ele>
        <time>2022-04-03T15:53:32Z</time>
      </trkpt>
      <trkpt lat="46.01233" lon="0.08005">
        <ele>114</ele>
        <time>2022-04-03T15:53:33Z</time>
      </trkpt>
      <trkpt lat="46.01235" lon="0.08">
        <ele>114</ele>
        <time>2022-04-03T15:53:34Z</time>
      </trkpt>
      <trkpt lat="46.01237" lon="0.07994">
        <ele>114.2</ele>
        <time>2022-04-03T15:53:35Z</time>
      </trkpt>
      <trkpt lat="46.0124" lon="0.0799">
        <ele>114.4</ele>
        <time>2022-04-03T15:53:36Z</time>
      </trkpt>
      <trkpt lat="46.01242" lon="0.07985">
        <ele>114.4</ele>
        <time>2022-04-03T15:53:37Z</time>
      </trkpt>
      <trkpt lat="46.01244" lon="0.07981">
        <ele>114.4</ele>
        <time>2022-04-03T15:53:38Z</time>
      </trkpt>
      <trkpt lat="46.01247" lon="0.07976">
        <ele>114.6</ele>
        <time>2022-04-03T15:53:39Z</time>
      </trkpt>
      <trkpt lat="46.01249" lon="0.07972">
        <ele>114.6</ele>
        <time>2022-04-03T15:53:40Z</time>
      </trkpt>
      <trkpt lat="46.01252" lon="0.07968">
        <ele>114.6</ele>
        <time>2022-04-03T15:53:41Z</time>
      </trkpt>
      <trkpt lat="46.01254" lon="0.07964">
        <ele>114.6</ele>
        <time>2022-04-03T15:53:42Z</time>
      </trkpt>
      <trkpt lat="46.01257" lon="0.07959">
        <ele>114.8</ele>
        <time>2022-04-03T15:53:43Z</time>
      </trkpt>
      <trkpt lat="46.01259" lon="0.07954">
        <ele>114.8</ele>
        <time>2022-04-03T15:53:44Z</time>
      </trkpt>
      <trkpt lat="46.01261" lon="0.07949">
        <ele>115</ele>
        <time>2022-04-03T15:53:45Z</time>
      </trkpt>
      <trkpt lat="46.01264" lon="0.07944">
        <ele>115</ele>
        <time>2022-04-03T15:53:46Z</time>
      </trkpt>
      <trkpt lat="46.01266" lon="0.07939">
        <ele>115.2</ele>
        <time>2022-04-03T15:53:47Z</time>
      </trkpt>
      <trkpt lat="46.01267" lon="0.07934">
        <ele>115.2</ele>
        <time>2022-04-03T15:53:48Z</time>
      </trkpt>
      <trkpt lat="46.01269" lon="0.07929">
        <ele>115.2</ele>
        <time>2022-04-03T15:53:49Z</time>
      </trkpt>
      <trkpt lat="46.0127" lon="0.07923">
        <ele>115.4</ele>
        <time>2022-04-03T15:53:50Z</time>
      </trkpt>
      <trkpt lat="46.01271" lon="0.07918">
        <ele>115.6</ele>
        <time>2022-04-03T15:53:51Z</time>
      </trkpt>
      <trkpt lat="46.01273" lon="0.07912">
        <ele>115.6</ele>
        <time>2022-04-03T15:53:52Z</time>
      </trkpt>
      <trkpt lat="46.01274" lon="0.07908">
        <ele>115.8</ele>
        <time>2022-04-03T15:53:53Z</time>
      </trkpt>
      <trkpt lat="46.01275" lon="0.07902">
        <ele>115.8</ele>
        <time>2022-04-03T15:53:54Z</time>
      </trkpt>
      <trkpt lat="46.01276" lon="0.07896">
        <ele>115.8</ele>
        <time>2022-04-03T15:53:55Z</time>
      </trkpt>
      <trkpt lat="46.01276" lon="0.07889">
        <ele>115.8</ele>
        <time>2022-04-03T15:53:56Z</time>
      </trkpt>
      <trkpt lat="46.01277" lon="0.07883">
        <ele>115.6</ele>
        <time>2022-04-03T15:53:57Z</time>
      </trkpt>
      <trkpt lat="46.01279" lon="0.07876">
        <ele>116</ele>
        <time>2022-04-03T15:53:58Z</time>
      </trkpt>
      <trkpt lat="46.01281" lon="0.0787">
        <ele>115.8</ele>
        <time>2022-04-03T15:53:59Z</time>
      </trkpt>
      <trkpt lat="46.01284" lon="0.07864">
        <ele>115.8</ele>
        <time>2022-04-03T15:54:00Z</time>
      </trkpt>
      <trkpt lat="46.01286" lon="0.07858">
        <ele>115.8</ele>
        <time>2022-04-03T15:54:01Z</time>
      </trkpt>
      <trkpt lat="46.01289" lon="0.07852">
        <ele>115.8</ele>
        <time>2022-04-03T15:54:02Z</time>
      </trkpt>
      <trkpt lat="46.01292" lon="0.07847">
        <ele>116</ele>
        <time>2022-04-03T15:54:03Z</time>
      </trkpt>
      <trkpt lat="46.01295" lon="0.07842">
        <ele>115.8</ele>
        <time>2022-04-03T15:54:04Z</time>
      </trkpt>
      <trkpt lat="46.01299" lon="0.07837">
        <ele>115.8</ele>
        <time>2022-04-03T15:54:05Z</time>
      </trkpt>
      <trkpt lat="46.01303" lon="0.07833">
        <ele>115.8</ele>
        <time>2022-04-03T15:54:06Z</time>
      </trkpt>
      <trkpt lat="46.01307" lon="0.07829">
        <ele>115.8</ele>
        <time>2022-04-03T15:54:07Z</time>
      </trkpt>
      <trkpt lat="46.0131" lon="0.07825">
        <ele>115.6</ele>
        <time>2022-04-03T15:54:08Z</time>
      </trkpt>
      <trkpt lat="46.01314" lon="0.07821">
        <ele>115.4</ele>
        <time>2022-04-03T15:54:09Z</time>
      </trkpt>
      <trkpt lat="46.01318" lon="0.07816">
        <ele>115.4</ele>
        <time>2022-04-03T15:54:10Z</time>
      </trkpt>
      <trkpt lat="46.01321" lon="0.07811">
        <ele>115.4</ele>
        <time>2022-04-03T15:54:11Z</time>
      </trkpt>
      <trkpt lat="46.01325" lon="0.07806">
        <ele>115.4</ele>
        <time>2022-04-03T15:54:12Z</time>
      </trkpt>
      <trkpt lat="46.01328" lon="0.078">
        <ele>115.2</ele>
        <time>2022-04-03T15:54:13Z</time>
      </trkpt>
      <trkpt lat="46.01331" lon="0.07795">
        <ele>115.2</ele>
        <time>2022-04-03T15:54:14Z</time>
      </trkpt>
      <trkpt lat="46.01334" lon="0.07789">
        <ele>115.2</ele>
        <time>2022-04-03T15:54:15Z</time>
      </trkpt>
      <trkpt lat="46.01337" lon="0.07783">
        <ele>115.2</ele>
        <time>2022-04-03T15:54:16Z</time>
      </trkpt>
      <trkpt lat="46.0134" lon="0.07777">
        <ele>115.2</ele>
        <time>2022-04-03T15:54:17Z</time>
      </trkpt>
      <trkpt lat="46.01342" lon="0.07771">
        <ele>115.2</ele>
        <time>2022-04-03T15:54:18Z</time>
      </trkpt>
      <trkpt lat="46.01344" lon="0.07764">
        <ele>115.2</ele>
        <time>2022-04-03T15:54:19Z</time>
      </trkpt>
      <trkpt lat="46.01347" lon="0.07758">
        <ele>115.2</ele>
        <time>2022-04-03T15:54:20Z</time>
      </trkpt>
      <trkpt lat="46.01349" lon="0.07752">
        <ele>115.2</ele>
        <time>2022-04-03T15:54:21Z</time>
      </trkpt>
      <trkpt lat="46.01351" lon="0.07746">
        <ele>115.2</ele>
        <time>2022-04-03T15:54:22Z</time>
      </trkpt>
      <trkpt lat="46.01353" lon="0.07739">
        <ele>115.4</ele>
        <time>2022-04-03T15:54:23Z</time>
      </trkpt>
      <trkpt lat="46.01355" lon="0.07733">
        <ele>115.2</ele>
        <time>2022-04-03T15:54:24Z</time>
      </trkpt>
      <trkpt lat="46.01358" lon="0.07727">
        <ele>115.2</ele>
        <time>2022-04-03T15:54:25Z</time>
      </trkpt>
      <trkpt lat="46.0136" lon="0.07721">
        <ele>115.2</ele>
        <time>2022-04-03T15:54:26Z</time>
      </trkpt>
      <trkpt lat="46.01362" lon="0.07715">
        <ele>115.4</ele>
        <time>2022-04-03T15:54:27Z</time>
      </trkpt>
      <trkpt lat="46.01365" lon="0.0771">
        <ele>115.2</ele>
        <time>2022-04-03T15:54:28Z</time>
      </trkpt>
      <trkpt lat="46.01367" lon="0.07704">
        <ele>115.4</ele>
        <time>2022-04-03T15:54:29Z</time>
      </trkpt>
      <trkpt lat="46.0137" lon="0.07699">
        <ele>115.4</ele>
        <time>2022-04-03T15:54:30Z</time>
      </trkpt>
      <trkpt lat="46.01372" lon="0.07694">
        <ele>115.4</ele>
        <time>2022-04-03T15:54:31Z</time>
      </trkpt>
      <trkpt lat="46.01375" lon="0.0769">
        <ele>115.6</ele>
        <time>2022-04-03T15:54:32Z</time>
      </trkpt>
      <trkpt lat="46.01378" lon="0.07685">
        <ele>115.4</ele>
        <time>2022-04-03T15:54:33Z</time>
      </trkpt>
      <trkpt lat="46.01381" lon="0.0768">
        <ele>115.4</ele>
        <time>2022-04-03T15:54:34Z</time>
      </trkpt>
      <trkpt lat="46.01384" lon="0.07676">
        <ele>115.6</ele>
        <time>2022-04-03T15:54:35Z</time>
      </trkpt>
      <trkpt lat="46.01386" lon="0.07671">
        <ele>115.6</ele>
        <time>2022-04-03T15:54:36Z</time>
      </trkpt>
      <trkpt lat="46.01389" lon="0.07665">
        <ele>115.6</ele>
        <time>2022-04-03T15:54:37Z</time>
      </trkpt>
      <trkpt lat="46.01392" lon="0.0766">
        <ele>116</ele>
        <time>2022-04-03T15:54:38Z</time>
      </trkpt>
      <trkpt lat="46.01395" lon="0.07655">
        <ele>116</ele>
        <time>2022-04-03T15:54:39Z</time>
      </trkpt>
      <trkpt lat="46.01398" lon="0.0765">
        <ele>116.2</ele>
        <time>2022-04-03T15:54:40Z</time>
      </trkpt>
      <trkpt lat="46.01401" lon="0.07645">
        <ele>116.2</ele>
        <time>2022-04-03T15:54:41Z</time>
      </trkpt>
      <trkpt lat="46.01404" lon="0.07639">
        <ele>116.4</ele>
        <time>2022-04-03T15:54:42Z</time>
      </trkpt>
      <trkpt lat="46.01407" lon="0.07633">
        <ele>116.2</ele>
        <time>2022-04-03T15:54:43Z</time>
      </trkpt>
      <trkpt lat="46.01411" lon="0.07627">
        <ele>116.2</ele>
        <time>2022-04-03T15:54:44Z</time>
      </trkpt>
      <trkpt lat="46.01414" lon="0.07622">
        <ele>116.2</ele>
        <time>2022-04-03T15:54:45Z</time>
      </trkpt>
      <trkpt lat="46.01417" lon="0.07616">
        <ele>116.2</ele>
        <time>2022-04-03T15:54:46Z</time>
      </trkpt>
      <trkpt lat="46.01421" lon="0.0761">
        <ele>116.2</ele>
        <time>2022-04-03T15:54:47Z</time>
      </trkpt>
      <trkpt lat="46.01423" lon="0.07604">
        <ele>116.2</ele>
        <time>2022-04-03T15:54:48Z</time>
      </trkpt>
      <trkpt lat="46.01426" lon="0.07598">
        <ele>116.4</ele>
        <time>2022-04-03T15:54:49Z</time>
      </trkpt>
      <trkpt lat="46.01428" lon="0.07591">
        <ele>116.4</ele>
        <time>2022-04-03T15:54:50Z</time>
      </trkpt>
      <trkpt lat="46.0143" lon="0.07584">
        <ele>116.4</ele>
        <time>2022-04-03T15:54:51Z</time>
      </trkpt>
      <trkpt lat="46.01432" lon="0.07577">
        <ele>116</ele>
        <time>2022-04-03T15:54:52Z</time>
      </trkpt>
      <trkpt lat="46.01434" lon="0.0757">
        <ele>116</ele>
        <time>2022-04-03T15:54:53Z</time>
      </trkpt>
      <trkpt lat="46.01435" lon="0.07563">
        <ele>116</ele>
        <time>2022-04-03T15:54:54Z</time>
      </trkpt>
      <trkpt lat="46.01437" lon="0.07556">
        <ele>116</ele>
        <time>2022-04-03T15:54:55Z</time>
      </trkpt>
      <trkpt lat="46.01438" lon="0.07549">
        <ele>116</ele>
        <time>2022-04-03T15:54:56Z</time>
      </trkpt>
      <trkpt lat="46.01439" lon="0.07542">
        <ele>116</ele>
        <time>2022-04-03T15:54:57Z</time>
      </trkpt>
      <trkpt lat="46.0144" lon="0.07534">
        <ele>115.8</ele>
        <time>2022-04-03T15:54:58Z</time>
      </trkpt>
      <trkpt lat="46.0144" lon="0.07527">
        <ele>115.8</ele>
        <time>2022-04-03T15:54:59Z</time>
      </trkpt>
      <trkpt lat="46.01441" lon="0.0752">
        <ele>115.8</ele>
        <time>2022-04-03T15:55:00Z</time>
      </trkpt>
      <trkpt lat="46.01441" lon="0.07512">
        <ele>115.6</ele>
        <time>2022-04-03T15:55:01Z</time>
      </trkpt>
      <trkpt lat="46.01442" lon="0.07505">
        <ele>115.8</ele>
        <time>2022-04-03T15:55:02Z</time>
      </trkpt>
      <trkpt lat="46.01442" lon="0.07498">
        <ele>115.6</ele>
        <time>2022-04-03T15:55:03Z</time>
      </trkpt>
      <trkpt lat="46.01442" lon="0.07491">
        <ele>115.6</ele>
        <time>2022-04-03T15:55:04Z</time>
      </trkpt>
      <trkpt lat="46.01443" lon="0.07484">
        <ele>115.4</ele>
        <time>2022-04-03T15:55:05Z</time>
      </trkpt>
      <trkpt lat="46.01443" lon="0.07477">
        <ele>115.4</ele>
        <time>2022-04-03T15:55:06Z</time>
      </trkpt>
      <trkpt lat="46.01444" lon="0.0747">
        <ele>115.4</ele>
        <time>2022-04-03T15:55:07Z</time>
      </trkpt>
      <trkpt lat="46.01445" lon="0.07463">
        <ele>115.4</ele>
        <time>2022-04-03T15:55:08Z</time>
      </trkpt>
      <trkpt lat="46.01447" lon="0.07457">
        <ele>115.4</ele>
        <time>2022-04-03T15:55:09Z</time>
      </trkpt>
      <trkpt lat="46.01448" lon="0.07451">
        <ele>115.4</ele>
        <time>2022-04-03T15:55:10Z</time>
      </trkpt>
      <trkpt lat="46.0145" lon="0.07445">
        <ele>115.4</ele>
        <time>2022-04-03T15:55:11Z</time>
      </trkpt>
      <trkpt lat="46.01451" lon="0.07439">
        <ele>115.4</ele>
        <time>2022-04-03T15:55:12Z</time>
      </trkpt>
      <trkpt lat="46.01453" lon="0.07434">
        <ele>115.4</ele>
        <time>2022-04-03T15:55:13Z</time>
      </trkpt>
      <trkpt lat="46.01454" lon="0.07428">
        <ele>115.4</ele>
        <time>2022-04-03T15:55:14Z</time>
      </trkpt>
      <trkpt lat="46.01456" lon="0.07423">
        <ele>115.4</ele>
        <time>2022-04-03T15:55:15Z</time>
      </trkpt>
      <trkpt lat="46.01458" lon="0.07418">
        <ele>115.4</ele>
        <time>2022-04-03T15:55:16Z</time>
      </trkpt>
      <trkpt lat="46.0146" lon="0.07413">
        <ele>115.4</ele>
        <time>2022-04-03T15:55:17Z</time>
      </trkpt>
      <trkpt lat="46.01461" lon="0.07409">
        <ele>115.4</ele>
        <time>2022-04-03T15:55:18Z</time>
      </trkpt>
      <trkpt lat="46.01463" lon="0.07404">
        <ele>115.6</ele>
        <time>2022-04-03T15:55:19Z</time>
      </trkpt>
      <trkpt lat="46.01465" lon="0.074">
        <ele>115.6</ele>
        <time>2022-04-03T15:55:20Z</time>
      </trkpt>
      <trkpt lat="46.01466" lon="0.07397">
        <ele>115.8</ele>
        <time>2022-04-03T15:55:21Z</time>
      </trkpt>
      <trkpt lat="46.01468" lon="0.07394">
        <ele>115.8</ele>
        <time>2022-04-03T15:55:22Z</time>
      </trkpt>
      <trkpt lat="46.01469" lon="0.0739">
        <ele>115.8</ele>
        <time>2022-04-03T15:55:23Z</time>
      </trkpt>
      <trkpt lat="46.01471" lon="0.07387">
        <ele>116.2</ele>
        <time>2022-04-03T15:55:24Z</time>
      </trkpt>
      <trkpt lat="46.01472" lon="0.07383">
        <ele>116.6</ele>
        <time>2022-04-03T15:55:25Z</time>
      </trkpt>
      <trkpt lat="46.01474" lon="0.0738">
        <ele>117.2</ele>
        <time>2022-04-03T15:55:26Z</time>
      </trkpt>
      <trkpt lat="46.01476" lon="0.07377">
        <ele>117.6</ele>
        <time>2022-04-03T15:55:27Z</time>
      </trkpt>
      <trkpt lat="46.01477" lon="0.07374">
        <ele>118</ele>
        <time>2022-04-03T15:55:28Z</time>
      </trkpt>
      <trkpt lat="46.01479" lon="0.07371">
        <ele>118.4</ele>
        <time>2022-04-03T15:55:29Z</time>
      </trkpt>
      <trkpt lat="46.01481" lon="0.07368">
        <ele>118.4</ele>
        <time>2022-04-03T15:55:30Z</time>
      </trkpt>
      <trkpt lat="46.01482" lon="0.07365">
        <ele>118.6</ele>
        <time>2022-04-03T15:55:31Z</time>
      </trkpt>
      <trkpt lat="46.01484" lon="0.07362">
        <ele>118.6</ele>
        <time>2022-04-03T15:55:32Z</time>
      </trkpt>
      <trkpt lat="46.01486" lon="0.07359">
        <ele>118.8</ele>
        <time>2022-04-03T15:55:33Z</time>
      </trkpt>
      <trkpt lat="46.01487" lon="0.07355">
        <ele>118.8</ele>
        <time>2022-04-03T15:55:34Z</time>
      </trkpt>
      <trkpt lat="46.01488" lon="0.07352">
        <ele>119</ele>
        <time>2022-04-03T15:55:35Z</time>
      </trkpt>
      <trkpt lat="46.0149" lon="0.07348">
        <ele>119.2</ele>
        <time>2022-04-03T15:55:36Z</time>
      </trkpt>
      <trkpt lat="46.01491" lon="0.07345">
        <ele>119.6</ele>
        <time>2022-04-03T15:55:37Z</time>
      </trkpt>
      <trkpt lat="46.01493" lon="0.07341">
        <ele>119.6</ele>
        <time>2022-04-03T15:55:38Z</time>
      </trkpt>
      <trkpt lat="46.01495" lon="0.07337">
        <ele>120</ele>
        <time>2022-04-03T15:55:39Z</time>
      </trkpt>
      <trkpt lat="46.01497" lon="0.07333">
        <ele>120</ele>
        <time>2022-04-03T15:55:40Z</time>
      </trkpt>
      <trkpt lat="46.01499" lon="0.07329">
        <ele>120.2</ele>
        <time>2022-04-03T15:55:41Z</time>
      </trkpt>
      <trkpt lat="46.01502" lon="0.07325">
        <ele>120.2</ele>
        <time>2022-04-03T15:55:42Z</time>
      </trkpt>
      <trkpt lat="46.01504" lon="0.0732">
        <ele>120.4</ele>
        <time>2022-04-03T15:55:43Z</time>
      </trkpt>
      <trkpt lat="46.01507" lon="0.07315">
        <ele>120.4</ele>
        <time>2022-04-03T15:55:44Z</time>
      </trkpt>
      <trkpt lat="46.0151" lon="0.0731">
        <ele>120.6</ele>
        <time>2022-04-03T15:55:45Z</time>
      </trkpt>
      <trkpt lat="46.01512" lon="0.07305">
        <ele>120.4</ele>
        <time>2022-04-03T15:55:46Z</time>
      </trkpt>
      <trkpt lat="46.01515" lon="0.073">
        <ele>120.6</ele>
        <time>2022-04-03T15:55:47Z</time>
      </trkpt>
      <trkpt lat="46.01518" lon="0.07295">
        <ele>120.4</ele>
        <time>2022-04-03T15:55:48Z</time>
      </trkpt>
      <trkpt lat="46.0152" lon="0.0729">
        <ele>120.4</ele>
        <time>2022-04-03T15:55:49Z</time>
      </trkpt>
      <trkpt lat="46.01523" lon="0.07285">
        <ele>120.8</ele>
        <time>2022-04-03T15:55:50Z</time>
      </trkpt>
      <trkpt lat="46.01526" lon="0.07279">
        <ele>120.8</ele>
        <time>2022-04-03T15:55:51Z</time>
      </trkpt>
      <trkpt lat="46.01529" lon="0.07274">
        <ele>120.8</ele>
        <time>2022-04-03T15:55:52Z</time>
      </trkpt>
      <trkpt lat="46.01532" lon="0.07268">
        <ele>120.8</ele>
        <time>2022-04-03T15:55:53Z</time>
      </trkpt>
      <trkpt lat="46.01535" lon="0.07263">
        <ele>121</ele>
        <time>2022-04-03T15:55:54Z</time>
      </trkpt>
      <trkpt lat="46.01538" lon="0.07258">
        <ele>121</ele>
        <time>2022-04-03T15:55:55Z</time>
      </trkpt>
      <trkpt lat="46.0154" lon="0.07252">
        <ele>121</ele>
        <time>2022-04-03T15:55:56Z</time>
      </trkpt>
      <trkpt lat="46.01543" lon="0.07246">
        <ele>120.8</ele>
        <time>2022-04-03T15:55:57Z</time>
      </trkpt>
      <trkpt lat="46.01546" lon="0.0724">
        <ele>120.8</ele>
        <time>2022-04-03T15:55:58Z</time>
      </trkpt>
      <trkpt lat="46.01549" lon="0.07234">
        <ele>121</ele>
        <time>2022-04-03T15:55:59Z</time>
      </trkpt>
      <trkpt lat="46.01552" lon="0.07228">
        <ele>121</ele>
        <time>2022-04-03T15:56:00Z</time>
      </trkpt>
      <trkpt lat="46.01555" lon="0.07222">
        <ele>121</ele>
        <time>2022-04-03T15:56:01Z</time>
      </trkpt>
      <trkpt lat="46.01558" lon="0.07216">
        <ele>121.2</ele>
        <time>2022-04-03T15:56:02Z</time>
      </trkpt>
      <trkpt lat="46.01561" lon="0.0721">
        <ele>121.2</ele>
        <time>2022-04-03T15:56:03Z</time>
      </trkpt>
      <trkpt lat="46.01564" lon="0.07204">
        <ele>121</ele>
        <time>2022-04-03T15:56:04Z</time>
      </trkpt>
      <trkpt lat="46.01567" lon="0.07198">
        <ele>121.2</ele>
        <time>2022-04-03T15:56:05Z</time>
      </trkpt>
      <trkpt lat="46.0157" lon="0.07193">
        <ele>121.2</ele>
        <time>2022-04-03T15:56:06Z</time>
      </trkpt>
      <trkpt lat="46.01573" lon="0.07187">
        <ele>121.2</ele>
        <time>2022-04-03T15:56:07Z</time>
      </trkpt>
      <trkpt lat="46.01576" lon="0.07182">
        <ele>121.2</ele>
        <time>2022-04-03T15:56:08Z</time>
      </trkpt>
      <trkpt lat="46.01579" lon="0.07176">
        <ele>121.2</ele>
        <time>2022-04-03T15:56:09Z</time>
      </trkpt>
      <trkpt lat="46.01582" lon="0.0717">
        <ele>121.2</ele>
        <time>2022-04-03T15:56:10Z</time>
      </trkpt>
      <trkpt lat="46.01585" lon="0.07164">
        <ele>121.2</ele>
        <time>2022-04-03T15:56:11Z</time>
      </trkpt>
      <trkpt lat="46.01588" lon="0.07157">
        <ele>121.2</ele>
        <time>2022-04-03T15:56:12Z</time>
      </trkpt>
      <trkpt lat="46.01591" lon="0.07151">
        <ele>121.2</ele>
        <time>2022-04-03T15:56:13Z</time>
      </trkpt>
      <trkpt lat="46.01594" lon="0.07145">
        <ele>121.4</ele>
        <time>2022-04-03T15:56:14Z</time>
      </trkpt>
      <trkpt lat="46.01597" lon="0.07139">
        <ele>121.2</ele>
        <time>2022-04-03T15:56:15Z</time>
      </trkpt>
      <trkpt lat="46.016" lon="0.07133">
        <ele>121.2</ele>
        <time>2022-04-03T15:56:16Z</time>
      </trkpt>
      <trkpt lat="46.01603" lon="0.07127">
        <ele>121.2</ele>
        <time>2022-04-03T15:56:17Z</time>
      </trkpt>
      <trkpt lat="46.01607" lon="0.0712">
        <ele>121.2</ele>
        <time>2022-04-03T15:56:18Z</time>
      </trkpt>
      <trkpt lat="46.0161" lon="0.07114">
        <ele>121.2</ele>
        <time>2022-04-03T15:56:19Z</time>
      </trkpt>
      <trkpt lat="46.01613" lon="0.07108">
        <ele>121.2</ele>
        <time>2022-04-03T15:56:20Z</time>
      </trkpt>
      <trkpt lat="46.01616" lon="0.07102">
        <ele>121.2</ele>
        <time>2022-04-03T15:56:21Z</time>
      </trkpt>
      <trkpt lat="46.01619" lon="0.07096">
        <ele>121.2</ele>
        <time>2022-04-03T15:56:22Z</time>
      </trkpt>
      <trkpt lat="46.01622" lon="0.0709">
        <ele>121.4</ele>
        <time>2022-04-03T15:56:23Z</time>
      </trkpt>
      <trkpt lat="46.01625" lon="0.07084">
        <ele>121.4</ele>
        <time>2022-04-03T15:56:24Z</time>
      </trkpt>
      <trkpt lat="46.01628" lon="0.07078">
        <ele>121.4</ele>
        <time>2022-04-03T15:56:25Z</time>
      </trkpt>
      <trkpt lat="46.01631" lon="0.07071">
        <ele>121.4</ele>
        <time>2022-04-03T15:56:26Z</time>
      </trkpt>
      <trkpt lat="46.01634" lon="0.07065">
        <ele>121.4</ele>
        <time>2022-04-03T15:56:27Z</time>
      </trkpt>
      <trkpt lat="46.01637" lon="0.07059">
        <ele>121.4</ele>
        <time>2022-04-03T15:56:28Z</time>
      </trkpt>
      <trkpt lat="46.0164" lon="0.07053">
        <ele>121.6</ele>
        <time>2022-04-03T15:56:29Z</time>
      </trkpt>
      <trkpt lat="46.01643" lon="0.07047">
        <ele>121.8</ele>
        <time>2022-04-03T15:56:30Z</time>
      </trkpt>
      <trkpt lat="46.01646" lon="0.07041">
        <ele>121.6</ele>
        <time>2022-04-03T15:56:31Z</time>
      </trkpt>
      <trkpt lat="46.01649" lon="0.07035">
        <ele>121.8</ele>
        <time>2022-04-03T15:56:32Z</time>
      </trkpt>
      <trkpt lat="46.01652" lon="0.0703">
        <ele>122</ele>
        <time>2022-04-03T15:56:33Z</time>
      </trkpt>
      <trkpt lat="46.01655" lon="0.07024">
        <ele>121.8</ele>
        <time>2022-04-03T15:56:34Z</time>
      </trkpt>
      <trkpt lat="46.01657" lon="0.07018">
        <ele>122</ele>
        <time>2022-04-03T15:56:35Z</time>
      </trkpt>
      <trkpt lat="46.0166" lon="0.07012">
        <ele>122</ele>
        <time>2022-04-03T15:56:36Z</time>
      </trkpt>
      <trkpt lat="46.01663" lon="0.07006">
        <ele>122</ele>
        <time>2022-04-03T15:56:37Z</time>
      </trkpt>
      <trkpt lat="46.01666" lon="0.07">
        <ele>122</ele>
        <time>2022-04-03T15:56:38Z</time>
      </trkpt>
      <trkpt lat="46.01669" lon="0.06993">
        <ele>122.4</ele>
        <time>2022-04-03T15:56:39Z</time>
      </trkpt>
      <trkpt lat="46.01672" lon="0.06987">
        <ele>122.2</ele>
        <time>2022-04-03T15:56:40Z</time>
      </trkpt>
      <trkpt lat="46.01676" lon="0.0698">
        <ele>122.4</ele>
        <time>2022-04-03T15:56:41Z</time>
      </trkpt>
      <trkpt lat="46.01679" lon="0.06973">
        <ele>122.4</ele>
        <time>2022-04-03T15:56:42Z</time>
      </trkpt>
      <trkpt lat="46.01682" lon="0.06967">
        <ele>122.4</ele>
        <time>2022-04-03T15:56:43Z</time>
      </trkpt>
      <trkpt lat="46.01685" lon="0.0696">
        <ele>122.4</ele>
        <time>2022-04-03T15:56:44Z</time>
      </trkpt>
      <trkpt lat="46.01688" lon="0.06953">
        <ele>122.4</ele>
        <time>2022-04-03T15:56:45Z</time>
      </trkpt>
      <trkpt lat="46.01692" lon="0.06946">
        <ele>122.4</ele>
        <time>2022-04-03T15:56:46Z</time>
      </trkpt>
      <trkpt lat="46.01696" lon="0.0694">
        <ele>122.6</ele>
        <time>2022-04-03T15:56:47Z</time>
      </trkpt>
      <trkpt lat="46.01699" lon="0.06933">
        <ele>122.4</ele>
        <time>2022-04-03T15:56:48Z</time>
      </trkpt>
      <trkpt lat="46.01703" lon="0.06926">
        <ele>122.4</ele>
        <time>2022-04-03T15:56:49Z</time>
      </trkpt>
      <trkpt lat="46.01706" lon="0.06919">
        <ele>122.4</ele>
        <time>2022-04-03T15:56:50Z</time>
      </trkpt>
      <trkpt lat="46.0171" lon="0.06912">
        <ele>122.4</ele>
        <time>2022-04-03T15:56:51Z</time>
      </trkpt>
      <trkpt lat="46.01713" lon="0.06906">
        <ele>122.2</ele>
        <time>2022-04-03T15:56:52Z</time>
      </trkpt>
      <trkpt lat="46.01717" lon="0.06899">
        <ele>121.6</ele>
        <time>2022-04-03T15:56:53Z</time>
      </trkpt>
      <trkpt lat="46.0172" lon="0.06893">
        <ele>121</ele>
        <time>2022-04-03T15:56:54Z</time>
      </trkpt>
      <trkpt lat="46.01723" lon="0.06886">
        <ele>120.6</ele>
        <time>2022-04-03T15:56:55Z</time>
      </trkpt>
      <trkpt lat="46.01726" lon="0.0688">
        <ele>120</ele>
        <time>2022-04-03T15:56:56Z</time>
      </trkpt>
      <trkpt lat="46.01729" lon="0.06873">
        <ele>119.4</ele>
        <time>2022-04-03T15:56:57Z</time>
      </trkpt>
      <trkpt lat="46.01733" lon="0.06867">
        <ele>119.2</ele>
        <time>2022-04-03T15:56:58Z</time>
      </trkpt>
      <trkpt lat="46.01736" lon="0.06861">
        <ele>119</ele>
        <time>2022-04-03T15:56:59Z</time>
      </trkpt>
      <trkpt lat="46.01739" lon="0.06855">
        <ele>118.8</ele>
        <time>2022-04-03T15:57:00Z</time>
      </trkpt>
      <trkpt lat="46.01742" lon="0.06848">
        <ele>118.6</ele>
        <time>2022-04-03T15:57:01Z</time>
      </trkpt>
      <trkpt lat="46.01746" lon="0.06842">
        <ele>118.6</ele>
        <time>2022-04-03T15:57:02Z</time>
      </trkpt>
      <trkpt lat="46.01749" lon="0.06835">
        <ele>118.4</ele>
        <time>2022-04-03T15:57:03Z</time>
      </trkpt>
      <trkpt lat="46.01752" lon="0.06829">
        <ele>118.6</ele>
        <time>2022-04-03T15:57:04Z</time>
      </trkpt>
      <trkpt lat="46.01755" lon="0.06822">
        <ele>118.6</ele>
        <time>2022-04-03T15:57:05Z</time>
      </trkpt>
      <trkpt lat="46.01758" lon="0.06816">
        <ele>118.2</ele>
        <time>2022-04-03T15:57:06Z</time>
      </trkpt>
      <trkpt lat="46.01761" lon="0.0681">
        <ele>118.2</ele>
        <time>2022-04-03T15:57:07Z</time>
      </trkpt>
      <trkpt lat="46.01764" lon="0.06804">
        <ele>118.4</ele>
        <time>2022-04-03T15:57:08Z</time>
      </trkpt>
      <trkpt lat="46.01767" lon="0.06799">
        <ele>118.2</ele>
        <time>2022-04-03T15:57:09Z</time>
      </trkpt>
      <trkpt lat="46.0177" lon="0.06793">
        <ele>118.2</ele>
        <time>2022-04-03T15:57:10Z</time>
      </trkpt>
      <trkpt lat="46.01773" lon="0.06787">
        <ele>118.2</ele>
        <time>2022-04-03T15:57:11Z</time>
      </trkpt>
      <trkpt lat="46.01776" lon="0.06781">
        <ele>118.2</ele>
        <time>2022-04-03T15:57:12Z</time>
      </trkpt>
      <trkpt lat="46.01779" lon="0.06775">
        <ele>118.2</ele>
        <time>2022-04-03T15:57:13Z</time>
      </trkpt>
      <trkpt lat="46.01783" lon="0.06769">
        <ele>118.2</ele>
        <time>2022-04-03T15:57:14Z</time>
      </trkpt>
      <trkpt lat="46.01786" lon="0.06763">
        <ele>118</ele>
        <time>2022-04-03T15:57:15Z</time>
      </trkpt>
      <trkpt lat="46.01789" lon="0.06756">
        <ele>118</ele>
        <time>2022-04-03T15:57:16Z</time>
      </trkpt>
      <trkpt lat="46.01793" lon="0.0675">
        <ele>118</ele>
        <time>2022-04-03T15:57:17Z</time>
      </trkpt>
      <trkpt lat="46.01796" lon="0.06743">
        <ele>118</ele>
        <time>2022-04-03T15:57:18Z</time>
      </trkpt>
      <trkpt lat="46.01799" lon="0.06737">
        <ele>118</ele>
        <time>2022-04-03T15:57:19Z</time>
      </trkpt>
      <trkpt lat="46.01803" lon="0.0673">
        <ele>117.8</ele>
        <time>2022-04-03T15:57:20Z</time>
      </trkpt>
      <trkpt lat="46.01806" lon="0.06724">
        <ele>117.8</ele>
        <time>2022-04-03T15:57:21Z</time>
      </trkpt>
      <trkpt lat="46.01809" lon="0.06717">
        <ele>117.8</ele>
        <time>2022-04-03T15:57:22Z</time>
      </trkpt>
      <trkpt lat="46.01812" lon="0.0671">
        <ele>117.8</ele>
        <time>2022-04-03T15:57:23Z</time>
      </trkpt>
      <trkpt lat="46.01816" lon="0.06704">
        <ele>117.8</ele>
        <time>2022-04-03T15:57:24Z</time>
      </trkpt>
      <trkpt lat="46.01819" lon="0.06697">
        <ele>117.8</ele>
        <time>2022-04-03T15:57:25Z</time>
      </trkpt>
      <trkpt lat="46.01823" lon="0.06691">
        <ele>117.6</ele>
        <time>2022-04-03T15:57:26Z</time>
      </trkpt>
      <trkpt lat="46.01826" lon="0.06684">
        <ele>117.4</ele>
        <time>2022-04-03T15:57:27Z</time>
      </trkpt>
      <trkpt lat="46.01829" lon="0.06678">
        <ele>117.2</ele>
        <time>2022-04-03T15:57:28Z</time>
      </trkpt>
      <trkpt lat="46.01832" lon="0.06671">
        <ele>117</ele>
        <time>2022-04-03T15:57:29Z</time>
      </trkpt>
      <trkpt lat="46.01836" lon="0.06664">
        <ele>117.2</ele>
        <time>2022-04-03T15:57:30Z</time>
      </trkpt>
      <trkpt lat="46.01839" lon="0.06658">
        <ele>117</ele>
        <time>2022-04-03T15:57:31Z</time>
      </trkpt>
      <trkpt lat="46.01842" lon="0.06651">
        <ele>116.6</ele>
        <time>2022-04-03T15:57:32Z</time>
      </trkpt>
      <trkpt lat="46.01846" lon="0.06645">
        <ele>116.6</ele>
        <time>2022-04-03T15:57:33Z</time>
      </trkpt>
      <trkpt lat="46.01849" lon="0.06638">
        <ele>116.6</ele>
        <time>2022-04-03T15:57:34Z</time>
      </trkpt>
      <trkpt lat="46.01853" lon="0.06631">
        <ele>116.4</ele>
        <time>2022-04-03T15:57:35Z</time>
      </trkpt>
      <trkpt lat="46.01856" lon="0.06624">
        <ele>116.4</ele>
        <time>2022-04-03T15:57:36Z</time>
      </trkpt>
      <trkpt lat="46.0186" lon="0.06617">
        <ele>116.4</ele>
        <time>2022-04-03T15:57:37Z</time>
      </trkpt>
      <trkpt lat="46.01863" lon="0.0661">
        <ele>116.4</ele>
        <time>2022-04-03T15:57:38Z</time>
      </trkpt>
      <trkpt lat="46.01867" lon="0.06603">
        <ele>116.2</ele>
        <time>2022-04-03T15:57:39Z</time>
      </trkpt>
      <trkpt lat="46.01871" lon="0.06596">
        <ele>116.4</ele>
        <time>2022-04-03T15:57:40Z</time>
      </trkpt>
      <trkpt lat="46.01874" lon="0.06589">
        <ele>116.4</ele>
        <time>2022-04-03T15:57:41Z</time>
      </trkpt>
      <trkpt lat="46.01878" lon="0.06582">
        <ele>116.4</ele>
        <time>2022-04-03T15:57:42Z</time>
      </trkpt>
      <trkpt lat="46.01882" lon="0.06574">
        <ele>116.4</ele>
        <time>2022-04-03T15:57:43Z</time>
      </trkpt>
      <trkpt lat="46.01885" lon="0.06567">
        <ele>116.2</ele>
        <time>2022-04-03T15:57:44Z</time>
      </trkpt>
      <trkpt lat="46.01889" lon="0.06559">
        <ele>115.8</ele>
        <time>2022-04-03T15:57:45Z</time>
      </trkpt>
      <trkpt lat="46.01892" lon="0.06551">
        <ele>115.8</ele>
        <time>2022-04-03T15:57:46Z</time>
      </trkpt>
      <trkpt lat="46.01896" lon="0.06543">
        <ele>115.6</ele>
        <time>2022-04-03T15:57:47Z</time>
      </trkpt>
      <trkpt lat="46.01901" lon="0.06536">
        <ele>115.4</ele>
        <time>2022-04-03T15:57:48Z</time>
      </trkpt>
      <trkpt lat="46.01905" lon="0.06528">
        <ele>115.4</ele>
        <time>2022-04-03T15:57:49Z</time>
      </trkpt>
      <trkpt lat="46.01909" lon="0.0652">
        <ele>115.2</ele>
        <time>2022-04-03T15:57:50Z</time>
      </trkpt>
      <trkpt lat="46.01913" lon="0.06511">
        <ele>115.2</ele>
        <time>2022-04-03T15:57:51Z</time>
      </trkpt>
      <trkpt lat="46.01917" lon="0.06503">
        <ele>115</ele>
        <time>2022-04-03T15:57:52Z</time>
      </trkpt>
      <trkpt lat="46.01922" lon="0.06494">
        <ele>115</ele>
        <time>2022-04-03T15:57:53Z</time>
      </trkpt>
      <trkpt lat="46.01926" lon="0.06486">
        <ele>114.8</ele>
        <time>2022-04-03T15:57:54Z</time>
      </trkpt>
      <trkpt lat="46.0193" lon="0.06477">
        <ele>114.6</ele>
        <time>2022-04-03T15:57:55Z</time>
      </trkpt>
      <trkpt lat="46.01934" lon="0.06468">
        <ele>114.4</ele>
        <time>2022-04-03T15:57:56Z</time>
      </trkpt>
      <trkpt lat="46.01939" lon="0.06458">
        <ele>114.2</ele>
        <time>2022-04-03T15:57:57Z</time>
      </trkpt>
      <trkpt lat="46.01944" lon="0.06449">
        <ele>113.6</ele>
        <time>2022-04-03T15:57:58Z</time>
      </trkpt>
      <trkpt lat="46.01948" lon="0.06441">
        <ele>113.2</ele>
        <time>2022-04-03T15:57:59Z</time>
      </trkpt>
      <trkpt lat="46.01952" lon="0.06432">
        <ele>113</ele>
        <time>2022-04-03T15:58:00Z</time>
      </trkpt>
      <trkpt lat="46.01957" lon="0.06424">
        <ele>113</ele>
        <time>2022-04-03T15:58:01Z</time>
      </trkpt>
      <trkpt lat="46.01961" lon="0.06415">
        <ele>112.6</ele>
        <time>2022-04-03T15:58:02Z</time>
      </trkpt>
      <trkpt lat="46.01965" lon="0.06408">
        <ele>112</ele>
        <time>2022-04-03T15:58:03Z</time>
      </trkpt>
      <trkpt lat="46.01969" lon="0.064">
        <ele>111.4</ele>
        <time>2022-04-03T15:58:04Z</time>
      </trkpt>
      <trkpt lat="46.01972" lon="0.06392">
        <ele>111</ele>
        <time>2022-04-03T15:58:05Z</time>
      </trkpt>
      <trkpt lat="46.01976" lon="0.06385">
        <ele>110.6</ele>
        <time>2022-04-03T15:58:06Z</time>
      </trkpt>
      <trkpt lat="46.0198" lon="0.06378">
        <ele>110.4</ele>
        <time>2022-04-03T15:58:07Z</time>
      </trkpt>
      <trkpt lat="46.01983" lon="0.06371">
        <ele>110.4</ele>
        <time>2022-04-03T15:58:08Z</time>
      </trkpt>
      <trkpt lat="46.01987" lon="0.06364">
        <ele>110.4</ele>
        <time>2022-04-03T15:58:09Z</time>
      </trkpt>
      <trkpt lat="46.0199" lon="0.06357">
        <ele>110.4</ele>
        <time>2022-04-03T15:58:10Z</time>
      </trkpt>
      <trkpt lat="46.01993" lon="0.0635">
        <ele>110.4</ele>
        <time>2022-04-03T15:58:11Z</time>
      </trkpt>
      <trkpt lat="46.01997" lon="0.06344">
        <ele>110.4</ele>
        <time>2022-04-03T15:58:12Z</time>
      </trkpt>
      <trkpt lat="46.02" lon="0.06337">
        <ele>110.4</ele>
        <time>2022-04-03T15:58:13Z</time>
      </trkpt>
      <trkpt lat="46.02003" lon="0.0633">
        <ele>110.4</ele>
        <time>2022-04-03T15:58:14Z</time>
      </trkpt>
      <trkpt lat="46.02007" lon="0.06323">
        <ele>110.4</ele>
        <time>2022-04-03T15:58:15Z</time>
      </trkpt>
      <trkpt lat="46.0201" lon="0.06317">
        <ele>110.8</ele>
        <time>2022-04-03T15:58:16Z</time>
      </trkpt>
      <trkpt lat="46.02014" lon="0.0631">
        <ele>111.2</ele>
        <time>2022-04-03T15:58:17Z</time>
      </trkpt>
      <trkpt lat="46.02017" lon="0.06303">
        <ele>111.6</ele>
        <time>2022-04-03T15:58:18Z</time>
      </trkpt>
      <trkpt lat="46.02021" lon="0.06296">
        <ele>112</ele>
        <time>2022-04-03T15:58:19Z</time>
      </trkpt>
      <trkpt lat="46.02024" lon="0.06289">
        <ele>112</ele>
        <time>2022-04-03T15:58:20Z</time>
      </trkpt>
      <trkpt lat="46.02028" lon="0.06282">
        <ele>112.2</ele>
        <time>2022-04-03T15:58:21Z</time>
      </trkpt>
      <trkpt lat="46.02031" lon="0.06275">
        <ele>112.6</ele>
        <time>2022-04-03T15:58:22Z</time>
      </trkpt>
      <trkpt lat="46.02034" lon="0.06268">
        <ele>112.8</ele>
        <time>2022-04-03T15:58:23Z</time>
      </trkpt>
      <trkpt lat="46.02038" lon="0.06261">
        <ele>113</ele>
        <time>2022-04-03T15:58:24Z</time>
      </trkpt>
      <trkpt lat="46.02041" lon="0.06255">
        <ele>113</ele>
        <time>2022-04-03T15:58:25Z</time>
      </trkpt>
      <trkpt lat="46.02044" lon="0.06248">
        <ele>113.2</ele>
        <time>2022-04-03T15:58:26Z</time>
      </trkpt>
      <trkpt lat="46.02048" lon="0.06242">
        <ele>113.4</ele>
        <time>2022-04-03T15:58:27Z</time>
      </trkpt>
      <trkpt lat="46.02051" lon="0.06236">
        <ele>113.4</ele>
        <time>2022-04-03T15:58:28Z</time>
      </trkpt>
      <trkpt lat="46.02054" lon="0.0623">
        <ele>113.6</ele>
        <time>2022-04-03T15:58:29Z</time>
      </trkpt>
      <trkpt lat="46.02057" lon="0.06224">
        <ele>113.6</ele>
        <time>2022-04-03T15:58:30Z</time>
      </trkpt>
      <trkpt lat="46.02059" lon="0.06218">
        <ele>114.2</ele>
        <time>2022-04-03T15:58:31Z</time>
      </trkpt>
      <trkpt lat="46.02062" lon="0.06213">
        <ele>114.4</ele>
        <time>2022-04-03T15:58:32Z</time>
      </trkpt>
      <trkpt lat="46.02064" lon="0.06208">
        <ele>114.8</ele>
        <time>2022-04-03T15:58:33Z</time>
      </trkpt>
      <trkpt lat="46.02067" lon="0.06203">
        <ele>114.8</ele>
        <time>2022-04-03T15:58:34Z</time>
      </trkpt>
      <trkpt lat="46.02069" lon="0.06199">
        <ele>115</ele>
        <time>2022-04-03T15:58:35Z</time>
      </trkpt>
      <trkpt lat="46.02071" lon="0.06195">
        <ele>115</ele>
        <time>2022-04-03T15:58:36Z</time>
      </trkpt>
      <trkpt lat="46.02073" lon="0.0619">
        <ele>115.2</ele>
        <time>2022-04-03T15:58:37Z</time>
      </trkpt>
      <trkpt lat="46.02075" lon="0.06186">
        <ele>115.6</ele>
        <time>2022-04-03T15:58:38Z</time>
      </trkpt>
      <trkpt lat="46.02077" lon="0.06182">
        <ele>115.6</ele>
        <time>2022-04-03T15:58:39Z</time>
      </trkpt>
      <trkpt lat="46.02079" lon="0.06178">
        <ele>115.8</ele>
        <time>2022-04-03T15:58:40Z</time>
      </trkpt>
      <trkpt lat="46.02081" lon="0.06175">
        <ele>116</ele>
        <time>2022-04-03T15:58:41Z</time>
      </trkpt>
      <trkpt lat="46.02083" lon="0.06171">
        <ele>116.2</ele>
        <time>2022-04-03T15:58:42Z</time>
      </trkpt>
      <trkpt lat="46.02085" lon="0.06167">
        <ele>116.6</ele>
        <time>2022-04-03T15:58:43Z</time>
      </trkpt>
      <trkpt lat="46.02086" lon="0.06163">
        <ele>117</ele>
        <time>2022-04-03T15:58:44Z</time>
      </trkpt>
      <trkpt lat="46.02088" lon="0.0616">
        <ele>117.6</ele>
        <time>2022-04-03T15:58:45Z</time>
      </trkpt>
      <trkpt lat="46.0209" lon="0.06156">
        <ele>117.8</ele>
        <time>2022-04-03T15:58:46Z</time>
      </trkpt>
      <trkpt lat="46.02092" lon="0.06152">
        <ele>118.2</ele>
        <time>2022-04-03T15:58:47Z</time>
      </trkpt>
      <trkpt lat="46.02094" lon="0.06148">
        <ele>118.4</ele>
        <time>2022-04-03T15:58:48Z</time>
      </trkpt>
      <trkpt lat="46.02096" lon="0.06145">
        <ele>118.6</ele>
        <time>2022-04-03T15:58:49Z</time>
      </trkpt>
      <trkpt lat="46.02098" lon="0.06141">
        <ele>118.6</ele>
        <time>2022-04-03T15:58:50Z</time>
      </trkpt>
      <trkpt lat="46.02099" lon="0.06137">
        <ele>119</ele>
        <time>2022-04-03T15:58:51Z</time>
      </trkpt>
      <trkpt lat="46.02101" lon="0.06134">
        <ele>119</ele>
        <time>2022-04-03T15:58:52Z</time>
      </trkpt>
      <trkpt lat="46.02103" lon="0.0613">
        <ele>119.2</ele>
        <time>2022-04-03T15:58:53Z</time>
      </trkpt>
      <trkpt lat="46.02105" lon="0.06126">
        <ele>119.2</ele>
        <time>2022-04-03T15:58:54Z</time>
      </trkpt>
      <trkpt lat="46.02107" lon="0.06123">
        <ele>119.4</ele>
        <time>2022-04-03T15:58:55Z</time>
      </trkpt>
      <trkpt lat="46.02109" lon="0.06119">
        <ele>119.2</ele>
        <time>2022-04-03T15:58:56Z</time>
      </trkpt>
      <trkpt lat="46.02111" lon="0.06115">
        <ele>119.4</ele>
        <time>2022-04-03T15:58:57Z</time>
      </trkpt>
      <trkpt lat="46.02112" lon="0.06112">
        <ele>119.4</ele>
        <time>2022-04-03T15:58:58Z</time>
      </trkpt>
      <trkpt lat="46.02114" lon="0.06108">
        <ele>119.2</ele>
        <time>2022-04-03T15:58:59Z</time>
      </trkpt>
      <trkpt lat="46.02116" lon="0.06104">
        <ele>119.6</ele>
        <time>2022-04-03T15:59:00Z</time>
      </trkpt>
      <trkpt lat="46.02118" lon="0.061">
        <ele>119.4</ele>
        <time>2022-04-03T15:59:01Z</time>
      </trkpt>
      <trkpt lat="46.0212" lon="0.06097">
        <ele>119.6</ele>
        <time>2022-04-03T15:59:02Z</time>
      </trkpt>
      <trkpt lat="46.02122" lon="0.06093">
        <ele>119.8</ele>
        <time>2022-04-03T15:59:03Z</time>
      </trkpt>
      <trkpt lat="46.02123" lon="0.06089">
        <ele>119.8</ele>
        <time>2022-04-03T15:59:04Z</time>
      </trkpt>
      <trkpt lat="46.02125" lon="0.06085">
        <ele>119.8</ele>
        <time>2022-04-03T15:59:05Z</time>
      </trkpt>
      <trkpt lat="46.02127" lon="0.06081">
        <ele>120</ele>
        <time>2022-04-03T15:59:06Z</time>
      </trkpt>
      <trkpt lat="46.02129" lon="0.06077">
        <ele>120.2</ele>
        <time>2022-04-03T15:59:07Z</time>
      </trkpt>
      <trkpt lat="46.02132" lon="0.06073">
        <ele>120.2</ele>
        <time>2022-04-03T15:59:08Z</time>
      </trkpt>
      <trkpt lat="46.02134" lon="0.06068">
        <ele>120.6</ele>
        <time>2022-04-03T15:59:09Z</time>
      </trkpt>
      <trkpt lat="46.02136" lon="0.06064">
        <ele>121</ele>
        <time>2022-04-03T15:59:10Z</time>
      </trkpt>
      <trkpt lat="46.02138" lon="0.0606">
        <ele>121.2</ele>
        <time>2022-04-03T15:59:11Z</time>
      </trkpt>
      <trkpt lat="46.0214" lon="0.06056">
        <ele>121.2</ele>
        <time>2022-04-03T15:59:12Z</time>
      </trkpt>
      <trkpt lat="46.02143" lon="0.06051">
        <ele>121.8</ele>
        <time>2022-04-03T15:59:13Z</time>
      </trkpt>
      <trkpt lat="46.02145" lon="0.06047">
        <ele>122</ele>
        <time>2022-04-03T15:59:14Z</time>
      </trkpt>
      <trkpt lat="46.02147" lon="0.06042">
        <ele>122.2</ele>
        <time>2022-04-03T15:59:15Z</time>
      </trkpt>
      <trkpt lat="46.02149" lon="0.06038">
        <ele>122.2</ele>
        <time>2022-04-03T15:59:16Z</time>
      </trkpt>
      <trkpt lat="46.02152" lon="0.06034">
        <ele>122.2</ele>
        <time>2022-04-03T15:59:17Z</time>
      </trkpt>
      <trkpt lat="46.02154" lon="0.06029">
        <ele>122.4</ele>
        <time>2022-04-03T15:59:18Z</time>
      </trkpt>
      <trkpt lat="46.02156" lon="0.06025">
        <ele>122.4</ele>
        <time>2022-04-03T15:59:19Z</time>
      </trkpt>
      <trkpt lat="46.02158" lon="0.06021">
        <ele>122.4</ele>
        <time>2022-04-03T15:59:20Z</time>
      </trkpt>
      <trkpt lat="46.02161" lon="0.06016">
        <ele>122.6</ele>
        <time>2022-04-03T15:59:21Z</time>
      </trkpt>
      <trkpt lat="46.02163" lon="0.06012">
        <ele>122.8</ele>
        <time>2022-04-03T15:59:22Z</time>
      </trkpt>
      <trkpt lat="46.02165" lon="0.06007">
        <ele>122.6</ele>
        <time>2022-04-03T15:59:23Z</time>
      </trkpt>
      <trkpt lat="46.02167" lon="0.06003">
        <ele>122.8</ele>
        <time>2022-04-03T15:59:24Z</time>
      </trkpt>
      <trkpt lat="46.0217" lon="0.05998">
        <ele>122.8</ele>
        <time>2022-04-03T15:59:25Z</time>
      </trkpt>
      <trkpt lat="46.02172" lon="0.05994">
        <ele>123</ele>
        <time>2022-04-03T15:59:26Z</time>
      </trkpt>
      <trkpt lat="46.02175" lon="0.05989">
        <ele>123</ele>
        <time>2022-04-03T15:59:27Z</time>
      </trkpt>
      <trkpt lat="46.02177" lon="0.05984">
        <ele>123.2</ele>
        <time>2022-04-03T15:59:28Z</time>
      </trkpt>
      <trkpt lat="46.02179" lon="0.05979">
        <ele>123.2</ele>
        <time>2022-04-03T15:59:29Z</time>
      </trkpt>
      <trkpt lat="46.02181" lon="0.05974">
        <ele>123.2</ele>
        <time>2022-04-03T15:59:30Z</time>
      </trkpt>
      <trkpt lat="46.02184" lon="0.05969">
        <ele>123.2</ele>
        <time>2022-04-03T15:59:31Z</time>
      </trkpt>
      <trkpt lat="46.02186" lon="0.05964">
        <ele>123.2</ele>
        <time>2022-04-03T15:59:32Z</time>
      </trkpt>
      <trkpt lat="46.02189" lon="0.05959">
        <ele>123.2</ele>
        <time>2022-04-03T15:59:33Z</time>
      </trkpt>
      <trkpt lat="46.02191" lon="0.05954">
        <ele>123.4</ele>
        <time>2022-04-03T15:59:34Z</time>
      </trkpt>
      <trkpt lat="46.02193" lon="0.05949">
        <ele>123.2</ele>
        <time>2022-04-03T15:59:35Z</time>
      </trkpt>
      <trkpt lat="46.02196" lon="0.05944">
        <ele>123.2</ele>
        <time>2022-04-03T15:59:36Z</time>
      </trkpt>
      <trkpt lat="46.02199" lon="0.05939">
        <ele>123.2</ele>
        <time>2022-04-03T15:59:37Z</time>
      </trkpt>
      <trkpt lat="46.02201" lon="0.05934">
        <ele>123.2</ele>
        <time>2022-04-03T15:59:38Z</time>
      </trkpt>
      <trkpt lat="46.02204" lon="0.05928">
        <ele>123.2</ele>
        <time>2022-04-03T15:59:39Z</time>
      </trkpt>
      <trkpt lat="46.02207" lon="0.05923">
        <ele>123</ele>
        <time>2022-04-03T15:59:40Z</time>
      </trkpt>
      <trkpt lat="46.0221" lon="0.05917">
        <ele>123</ele>
        <time>2022-04-03T15:59:41Z</time>
      </trkpt>
      <trkpt lat="46.02212" lon="0.05911">
        <ele>123</ele>
        <time>2022-04-03T15:59:42Z</time>
      </trkpt>
      <trkpt lat="46.02215" lon="0.05906">
        <ele>122.8</ele>
        <time>2022-04-03T15:59:43Z</time>
      </trkpt>
      <trkpt lat="46.02218" lon="0.059">
        <ele>123</ele>
        <time>2022-04-03T15:59:44Z</time>
      </trkpt>
      <trkpt lat="46.02221" lon="0.05895">
        <ele>122.8</ele>
        <time>2022-04-03T15:59:45Z</time>
      </trkpt>
      <trkpt lat="46.02223" lon="0.05889">
        <ele>122.8</ele>
        <time>2022-04-03T15:59:46Z</time>
      </trkpt>
      <trkpt lat="46.02226" lon="0.05884">
        <ele>122.6</ele>
        <time>2022-04-03T15:59:47Z</time>
      </trkpt>
      <trkpt lat="46.02229" lon="0.05879">
        <ele>122.4</ele>
        <time>2022-04-03T15:59:48Z</time>
      </trkpt>
      <trkpt lat="46.02231" lon="0.05874">
        <ele>122.6</ele>
        <time>2022-04-03T15:59:49Z</time>
      </trkpt>
      <trkpt lat="46.02234" lon="0.05869">
        <ele>122.6</ele>
        <time>2022-04-03T15:59:50Z</time>
      </trkpt>
      <trkpt lat="46.02237" lon="0.05863">
        <ele>122.6</ele>
        <time>2022-04-03T15:59:51Z</time>
      </trkpt>
      <trkpt lat="46.02239" lon="0.05858">
        <ele>122.6</ele>
        <time>2022-04-03T15:59:52Z</time>
      </trkpt>
      <trkpt lat="46.02242" lon="0.05853">
        <ele>122.4</ele>
        <time>2022-04-03T15:59:53Z</time>
      </trkpt>
      <trkpt lat="46.02244" lon="0.05847">
        <ele>122.6</ele>
        <time>2022-04-03T15:59:54Z</time>
      </trkpt>
      <trkpt lat="46.02247" lon="0.05842">
        <ele>122.6</ele>
        <time>2022-04-03T15:59:55Z</time>
      </trkpt>
      <trkpt lat="46.02249" lon="0.05836">
        <ele>122.8</ele>
        <time>2022-04-03T15:59:56Z</time>
      </trkpt>
      <trkpt lat="46.02252" lon="0.05831">
        <ele>122.8</ele>
        <time>2022-04-03T15:59:57Z</time>
      </trkpt>
      <trkpt lat="46.02255" lon="0.05826">
        <ele>122.8</ele>
        <time>2022-04-03T15:59:58Z</time>
      </trkpt>
      <trkpt lat="46.02258" lon="0.0582">
        <ele>122.8</ele>
        <time>2022-04-03T15:59:59Z</time>
      </trkpt>
      <trkpt lat="46.02261" lon="0.05815">
        <ele>122.8</ele>
        <time>2022-04-03T16:00:00Z</time>
      </trkpt>
      <trkpt lat="46.02263" lon="0.0581">
        <ele>123</ele>
        <time>2022-04-03T16:00:01Z</time>
      </trkpt>
      <trkpt lat="46.02266" lon="0.05804">
        <ele>123</ele>
        <time>2022-04-03T16:00:02Z</time>
      </trkpt>
      <trkpt lat="46.02269" lon="0.05799">
        <ele>123.2</ele>
        <time>2022-04-03T16:00:03Z</time>
      </trkpt>
      <trkpt lat="46.02272" lon="0.05793">
        <ele>123.2</ele>
        <time>2022-04-03T16:00:04Z</time>
      </trkpt>
      <trkpt lat="46.02274" lon="0.05787">
        <ele>123</ele>
        <time>2022-04-03T16:00:05Z</time>
      </trkpt>
      <trkpt lat="46.02277" lon="0.05782">
        <ele>123.2</ele>
        <time>2022-04-03T16:00:06Z</time>
      </trkpt>
      <trkpt lat="46.0228" lon="0.05776">
        <ele>123.2</ele>
        <time>2022-04-03T16:00:07Z</time>
      </trkpt>
      <trkpt lat="46.02283" lon="0.0577">
        <ele>123.2</ele>
        <time>2022-04-03T16:00:08Z</time>
      </trkpt>
      <trkpt lat="46.02286" lon="0.05764">
        <ele>123</ele>
        <time>2022-04-03T16:00:09Z</time>
      </trkpt>
      <trkpt lat="46.02289" lon="0.05758">
        <ele>123.2</ele>
        <time>2022-04-03T16:00:10Z</time>
      </trkpt>
      <trkpt lat="46.02292" lon="0.05753">
        <ele>123</ele>
        <time>2022-04-03T16:00:11Z</time>
      </trkpt>
      <trkpt lat="46.02295" lon="0.05747">
        <ele>122.8</ele>
        <time>2022-04-03T16:00:12Z</time>
      </trkpt>
      <trkpt lat="46.02298" lon="0.05741">
        <ele>122.6</ele>
        <time>2022-04-03T16:00:13Z</time>
      </trkpt>
      <trkpt lat="46.023" lon="0.05736">
        <ele>122.6</ele>
        <time>2022-04-03T16:00:14Z</time>
      </trkpt>
      <trkpt lat="46.02303" lon="0.0573">
        <ele>122.2</ele>
        <time>2022-04-03T16:00:15Z</time>
      </trkpt>
      <trkpt lat="46.02306" lon="0.05725">
        <ele>122.2</ele>
        <time>2022-04-03T16:00:16Z</time>
      </trkpt>
      <trkpt lat="46.02309" lon="0.05719">
        <ele>122.2</ele>
        <time>2022-04-03T16:00:17Z</time>
      </trkpt>
      <trkpt lat="46.02312" lon="0.05713">
        <ele>122.2</ele>
        <time>2022-04-03T16:00:18Z</time>
      </trkpt>
      <trkpt lat="46.02314" lon="0.05708">
        <ele>122.2</ele>
        <time>2022-04-03T16:00:19Z</time>
      </trkpt>
      <trkpt lat="46.02318" lon="0.05702">
        <ele>122</ele>
        <time>2022-04-03T16:00:20Z</time>
      </trkpt>
      <trkpt lat="46.02321" lon="0.05696">
        <ele>122.2</ele>
        <time>2022-04-03T16:00:21Z</time>
      </trkpt>
      <trkpt lat="46.02324" lon="0.0569">
        <ele>122.2</ele>
        <time>2022-04-03T16:00:22Z</time>
      </trkpt>
      <trkpt lat="46.02327" lon="0.05684">
        <ele>122</ele>
        <time>2022-04-03T16:00:23Z</time>
      </trkpt>
      <trkpt lat="46.02329" lon="0.05678">
        <ele>122</ele>
        <time>2022-04-03T16:00:24Z</time>
      </trkpt>
      <trkpt lat="46.02332" lon="0.05672">
        <ele>122</ele>
        <time>2022-04-03T16:00:25Z</time>
      </trkpt>
      <trkpt lat="46.02335" lon="0.05666">
        <ele>121.8</ele>
        <time>2022-04-03T16:00:26Z</time>
      </trkpt>
      <trkpt lat="46.02338" lon="0.0566">
        <ele>121.8</ele>
        <time>2022-04-03T16:00:27Z</time>
      </trkpt>
      <trkpt lat="46.02341" lon="0.05654">
        <ele>122</ele>
        <time>2022-04-03T16:00:28Z</time>
      </trkpt>
      <trkpt lat="46.02343" lon="0.05647">
        <ele>121.8</ele>
        <time>2022-04-03T16:00:29Z</time>
      </trkpt>
      <trkpt lat="46.02346" lon="0.05641">
        <ele>121.8</ele>
        <time>2022-04-03T16:00:30Z</time>
      </trkpt>
      <trkpt lat="46.0235" lon="0.05635">
        <ele>121.8</ele>
        <time>2022-04-03T16:00:31Z</time>
      </trkpt>
      <trkpt lat="46.02354" lon="0.05628">
        <ele>121.6</ele>
        <time>2022-04-03T16:00:32Z</time>
      </trkpt>
      <trkpt lat="46.02357" lon="0.05621">
        <ele>121.6</ele>
        <time>2022-04-03T16:00:33Z</time>
      </trkpt>
      <trkpt lat="46.02361" lon="0.05613">
        <ele>121.8</ele>
        <time>2022-04-03T16:00:34Z</time>
      </trkpt>
      <trkpt lat="46.02365" lon="0.05606">
        <ele>121.6</ele>
        <time>2022-04-03T16:00:35Z</time>
      </trkpt>
      <trkpt lat="46.02369" lon="0.05598">
        <ele>121.6</ele>
        <time>2022-04-03T16:00:36Z</time>
      </trkpt>
      <trkpt lat="46.02373" lon="0.0559">
        <ele>121.6</ele>
        <time>2022-04-03T16:00:37Z</time>
      </trkpt>
      <trkpt lat="46.02377" lon="0.05581">
        <ele>121.4</ele>
        <time>2022-04-03T16:00:38Z</time>
      </trkpt>
      <trkpt lat="46.02381" lon="0.05573">
        <ele>121.2</ele>
        <time>2022-04-03T16:00:39Z</time>
      </trkpt>
      <trkpt lat="46.02385" lon="0.05565">
        <ele>121.2</ele>
        <time>2022-04-03T16:00:40Z</time>
      </trkpt>
      <trkpt lat="46.0239" lon="0.05556">
        <ele>121</ele>
        <time>2022-04-03T16:00:41Z</time>
      </trkpt>
      <trkpt lat="46.02394" lon="0.05547">
        <ele>120.6</ele>
        <time>2022-04-03T16:00:42Z</time>
      </trkpt>
      <trkpt lat="46.02398" lon="0.05538">
        <ele>120.2</ele>
        <time>2022-04-03T16:00:43Z</time>
      </trkpt>
      <trkpt lat="46.02403" lon="0.05529">
        <ele>120</ele>
        <time>2022-04-03T16:00:44Z</time>
      </trkpt>
      <trkpt lat="46.02408" lon="0.05519">
        <ele>119.6</ele>
        <time>2022-04-03T16:00:45Z</time>
      </trkpt>
      <trkpt lat="46.02413" lon="0.0551">
        <ele>119.2</ele>
        <time>2022-04-03T16:00:46Z</time>
      </trkpt>
      <trkpt lat="46.02417" lon="0.055">
        <ele>119</ele>
        <time>2022-04-03T16:00:47Z</time>
      </trkpt>
      <trkpt lat="46.02422" lon="0.0549">
        <ele>118.4</ele>
        <time>2022-04-03T16:00:48Z</time>
      </trkpt>
      <trkpt lat="46.02427" lon="0.0548">
        <ele>117.8</ele>
        <time>2022-04-03T16:00:49Z</time>
      </trkpt>
      <trkpt lat="46.02432" lon="0.0547">
        <ele>117</ele>
        <time>2022-04-03T16:00:50Z</time>
      </trkpt>
      <trkpt lat="46.02437" lon="0.0546">
        <ele>116.8</ele>
        <time>2022-04-03T16:00:51Z</time>
      </trkpt>
      <trkpt lat="46.02442" lon="0.0545">
        <ele>116.8</ele>
        <time>2022-04-03T16:00:52Z</time>
      </trkpt>
      <trkpt lat="46.02448" lon="0.0544">
        <ele>116.4</ele>
        <time>2022-04-03T16:00:53Z</time>
      </trkpt>
      <trkpt lat="46.02453" lon="0.0543">
        <ele>115.6</ele>
        <time>2022-04-03T16:00:54Z</time>
      </trkpt>
      <trkpt lat="46.02458" lon="0.05419">
        <ele>115</ele>
        <time>2022-04-03T16:00:55Z</time>
      </trkpt>
      <trkpt lat="46.02463" lon="0.05409">
        <ele>114.4</ele>
        <time>2022-04-03T16:00:56Z</time>
      </trkpt>
      <trkpt lat="46.02468" lon="0.05398">
        <ele>113.6</ele>
        <time>2022-04-03T16:00:57Z</time>
      </trkpt>
      <trkpt lat="46.02473" lon="0.05388">
        <ele>112.8</ele>
        <time>2022-04-03T16:00:58Z</time>
      </trkpt>
      <trkpt lat="46.02478" lon="0.05378">
        <ele>112</ele>
        <time>2022-04-03T16:00:59Z</time>
      </trkpt>
      <trkpt lat="46.02483" lon="0.05368">
        <ele>110.8</ele>
        <time>2022-04-03T16:01:00Z</time>
      </trkpt>
      <trkpt lat="46.02488" lon="0.05357">
        <ele>110.2</ele>
        <time>2022-04-03T16:01:01Z</time>
      </trkpt>
      <trkpt lat="46.02493" lon="0.05347">
        <ele>109.8</ele>
        <time>2022-04-03T16:01:02Z</time>
      </trkpt>
      <trkpt lat="46.02498" lon="0.05337">
        <ele>109.4</ele>
        <time>2022-04-03T16:01:03Z</time>
      </trkpt>
      <trkpt lat="46.02503" lon="0.05327">
        <ele>109</ele>
        <time>2022-04-03T16:01:04Z</time>
      </trkpt>
      <trkpt lat="46.02507" lon="0.05318">
        <ele>108.2</ele>
        <time>2022-04-03T16:01:05Z</time>
      </trkpt>
      <trkpt lat="46.02512" lon="0.05309">
        <ele>107.8</ele>
        <time>2022-04-03T16:01:06Z</time>
      </trkpt>
      <trkpt lat="46.02516" lon="0.053">
        <ele>107.4</ele>
        <time>2022-04-03T16:01:07Z</time>
      </trkpt>
      <trkpt lat="46.0252" lon="0.05293">
        <ele>107.6</ele>
        <time>2022-04-03T16:01:08Z</time>
      </trkpt>
      <trkpt lat="46.02524" lon="0.05285">
        <ele>107.2</ele>
        <time>2022-04-03T16:01:09Z</time>
      </trkpt>
      <trkpt lat="46.02527" lon="0.05279">
        <ele>107.4</ele>
        <time>2022-04-03T16:01:10Z</time>
      </trkpt>
      <trkpt lat="46.0253" lon="0.05272">
        <ele>107.2</ele>
        <time>2022-04-03T16:01:11Z</time>
      </trkpt>
      <trkpt lat="46.02533" lon="0.05266">
        <ele>107.2</ele>
        <time>2022-04-03T16:01:12Z</time>
      </trkpt>
      <trkpt lat="46.02536" lon="0.0526">
        <ele>107.2</ele>
        <time>2022-04-03T16:01:13Z</time>
      </trkpt>
      <trkpt lat="46.02539" lon="0.05255">
        <ele>107.2</ele>
        <time>2022-04-03T16:01:14Z</time>
      </trkpt>
      <trkpt lat="46.02542" lon="0.05249">
        <ele>107.2</ele>
        <time>2022-04-03T16:01:15Z</time>
      </trkpt>
      <trkpt lat="46.02544" lon="0.05244">
        <ele>107.6</ele>
        <time>2022-04-03T16:01:16Z</time>
      </trkpt>
      <trkpt lat="46.02547" lon="0.0524">
        <ele>108</ele>
        <time>2022-04-03T16:01:17Z</time>
      </trkpt>
      <trkpt lat="46.02549" lon="0.05235">
        <ele>108.4</ele>
        <time>2022-04-03T16:01:18Z</time>
      </trkpt>
      <trkpt lat="46.02551" lon="0.05231">
        <ele>108.6</ele>
        <time>2022-04-03T16:01:19Z</time>
      </trkpt>
      <trkpt lat="46.02553" lon="0.05227">
        <ele>109.4</ele>
        <time>2022-04-03T16:01:20Z</time>
      </trkpt>
      <trkpt lat="46.02555" lon="0.05223">
        <ele>109.8</ele>
        <time>2022-04-03T16:01:21Z</time>
      </trkpt>
      <trkpt lat="46.02557" lon="0.05219">
        <ele>110</ele>
        <time>2022-04-03T16:01:22Z</time>
      </trkpt>
      <trkpt lat="46.02559" lon="0.05215">
        <ele>110.4</ele>
        <time>2022-04-03T16:01:23Z</time>
      </trkpt>
      <trkpt lat="46.02561" lon="0.05211">
        <ele>110.6</ele>
        <time>2022-04-03T16:01:24Z</time>
      </trkpt>
      <trkpt lat="46.02563" lon="0.05208">
        <ele>111</ele>
        <time>2022-04-03T16:01:25Z</time>
      </trkpt>
      <trkpt lat="46.02565" lon="0.05204">
        <ele>111.4</ele>
        <time>2022-04-03T16:01:26Z</time>
      </trkpt>
      <trkpt lat="46.02567" lon="0.05201">
        <ele>111.6</ele>
        <time>2022-04-03T16:01:27Z</time>
      </trkpt>
      <trkpt lat="46.02569" lon="0.05197">
        <ele>111.8</ele>
        <time>2022-04-03T16:01:28Z</time>
      </trkpt>
      <trkpt lat="46.02571" lon="0.05193">
        <ele>111.8</ele>
        <time>2022-04-03T16:01:29Z</time>
      </trkpt>
      <trkpt lat="46.02572" lon="0.05189">
        <ele>111.8</ele>
        <time>2022-04-03T16:01:30Z</time>
      </trkpt>
      <trkpt lat="46.02574" lon="0.05186">
        <ele>112.2</ele>
        <time>2022-04-03T16:01:31Z</time>
      </trkpt>
      <trkpt lat="46.02576" lon="0.05182">
        <ele>112.4</ele>
        <time>2022-04-03T16:01:32Z</time>
      </trkpt>
      <trkpt lat="46.02578" lon="0.05179">
        <ele>112.6</ele>
        <time>2022-04-03T16:01:33Z</time>
      </trkpt>
      <trkpt lat="46.0258" lon="0.05175">
        <ele>112.6</ele>
        <time>2022-04-03T16:01:34Z</time>
      </trkpt>
      <trkpt lat="46.02582" lon="0.05172">
        <ele>112.8</ele>
        <time>2022-04-03T16:01:35Z</time>
      </trkpt>
      <trkpt lat="46.02584" lon="0.05168">
        <ele>113</ele>
        <time>2022-04-03T16:01:36Z</time>
      </trkpt>
      <trkpt lat="46.02585" lon="0.05164">
        <ele>113.2</ele>
        <time>2022-04-03T16:01:37Z</time>
      </trkpt>
      <trkpt lat="46.02587" lon="0.05161">
        <ele>113.6</ele>
        <time>2022-04-03T16:01:38Z</time>
      </trkpt>
      <trkpt lat="46.02589" lon="0.05157">
        <ele>114</ele>
        <time>2022-04-03T16:01:39Z</time>
      </trkpt>
      <trkpt lat="46.0259" lon="0.05154">
        <ele>114</ele>
        <time>2022-04-03T16:01:40Z</time>
      </trkpt>
      <trkpt lat="46.02592" lon="0.0515">
        <ele>114.2</ele>
        <time>2022-04-03T16:01:41Z</time>
      </trkpt>
      <trkpt lat="46.02593" lon="0.05147">
        <ele>114.2</ele>
        <time>2022-04-03T16:01:42Z</time>
      </trkpt>
      <trkpt lat="46.02595" lon="0.05144">
        <ele>114.4</ele>
        <time>2022-04-03T16:01:43Z</time>
      </trkpt>
      <trkpt lat="46.02597" lon="0.05141">
        <ele>114.4</ele>
        <time>2022-04-03T16:01:44Z</time>
      </trkpt>
      <trkpt lat="46.02598" lon="0.05137">
        <ele>114.8</ele>
        <time>2022-04-03T16:01:45Z</time>
      </trkpt>
      <trkpt lat="46.026" lon="0.05134">
        <ele>114.8</ele>
        <time>2022-04-03T16:01:46Z</time>
      </trkpt>
      <trkpt lat="46.02601" lon="0.05131">
        <ele>115</ele>
        <time>2022-04-03T16:01:47Z</time>
      </trkpt>
      <trkpt lat="46.02602" lon="0.05128">
        <ele>115.2</ele>
        <time>2022-04-03T16:01:48Z</time>
      </trkpt>
      <trkpt lat="46.02604" lon="0.05124">
        <ele>115.2</ele>
        <time>2022-04-03T16:01:49Z</time>
      </trkpt>
      <trkpt lat="46.02606" lon="0.05121">
        <ele>115.4</ele>
        <time>2022-04-03T16:01:50Z</time>
      </trkpt>
      <trkpt lat="46.02608" lon="0.05119">
        <ele>115.6</ele>
        <time>2022-04-03T16:01:51Z</time>
      </trkpt>
      <trkpt lat="46.02609" lon="0.05116">
        <ele>115.6</ele>
        <time>2022-04-03T16:01:52Z</time>
      </trkpt>
      <trkpt lat="46.02611" lon="0.05113">
        <ele>115.6</ele>
        <time>2022-04-03T16:01:53Z</time>
      </trkpt>
      <trkpt lat="46.02612" lon="0.0511">
        <ele>115.8</ele>
        <time>2022-04-03T16:01:54Z</time>
      </trkpt>
      <trkpt lat="46.02614" lon="0.05107">
        <ele>115.8</ele>
        <time>2022-04-03T16:01:55Z</time>
      </trkpt>
      <trkpt lat="46.02615" lon="0.05103">
        <ele>116</ele>
        <time>2022-04-03T16:01:56Z</time>
      </trkpt>
      <trkpt lat="46.02617" lon="0.051">
        <ele>116.4</ele>
        <time>2022-04-03T16:01:57Z</time>
      </trkpt>
      <trkpt lat="46.02619" lon="0.05097">
        <ele>116.2</ele>
        <time>2022-04-03T16:01:58Z</time>
      </trkpt>
      <trkpt lat="46.0262" lon="0.05094">
        <ele>116.6</ele>
        <time>2022-04-03T16:01:59Z</time>
      </trkpt>
      <trkpt lat="46.02622" lon="0.05092">
        <ele>116.8</ele>
        <time>2022-04-03T16:02:00Z</time>
      </trkpt>
      <trkpt lat="46.02624" lon="0.05089">
        <ele>116.8</ele>
        <time>2022-04-03T16:02:01Z</time>
      </trkpt>
      <trkpt lat="46.02626" lon="0.05086">
        <ele>117</ele>
        <time>2022-04-03T16:02:02Z</time>
      </trkpt>
      <trkpt lat="46.02627" lon="0.05083">
        <ele>116.8</ele>
        <time>2022-04-03T16:02:03Z</time>
      </trkpt>
      <trkpt lat="46.02629" lon="0.0508">
        <ele>117.2</ele>
        <time>2022-04-03T16:02:04Z</time>
      </trkpt>
      <trkpt lat="46.0263" lon="0.05077">
        <ele>117.2</ele>
        <time>2022-04-03T16:02:05Z</time>
      </trkpt>
      <trkpt lat="46.02632" lon="0.05074">
        <ele>117.4</ele>
        <time>2022-04-03T16:02:06Z</time>
      </trkpt>
      <trkpt lat="46.02633" lon="0.05071">
        <ele>117.4</ele>
        <time>2022-04-03T16:02:07Z</time>
      </trkpt>
      <trkpt lat="46.02635" lon="0.05068">
        <ele>117.4</ele>
        <time>2022-04-03T16:02:08Z</time>
      </trkpt>
      <trkpt lat="46.02637" lon="0.05065">
        <ele>117.4</ele>
        <time>2022-04-03T16:02:09Z</time>
      </trkpt>
      <trkpt lat="46.02638" lon="0.05063">
        <ele>117.4</ele>
        <time>2022-04-03T16:02:10Z</time>
      </trkpt>
      <trkpt lat="46.0264" lon="0.0506">
        <ele>117.6</ele>
        <time>2022-04-03T16:02:11Z</time>
      </trkpt>
      <trkpt lat="46.02642" lon="0.05057">
        <ele>117.6</ele>
        <time>2022-04-03T16:02:12Z</time>
      </trkpt>
      <trkpt lat="46.02644" lon="0.05055">
        <ele>117.8</ele>
        <time>2022-04-03T16:02:13Z</time>
      </trkpt>
      <trkpt lat="46.02645" lon="0.05052">
        <ele>117.6</ele>
        <time>2022-04-03T16:02:14Z</time>
      </trkpt>
      <trkpt lat="46.02647" lon="0.05049">
        <ele>117.8</ele>
        <time>2022-04-03T16:02:15Z</time>
      </trkpt>
      <trkpt lat="46.02649" lon="0.05047">
        <ele>118</ele>
        <time>2022-04-03T16:02:16Z</time>
      </trkpt>
      <trkpt lat="46.02651" lon="0.05044">
        <ele>118.4</ele>
        <time>2022-04-03T16:02:17Z</time>
      </trkpt>
      <trkpt lat="46.02652" lon="0.05042">
        <ele>118.4</ele>
        <time>2022-04-03T16:02:18Z</time>
      </trkpt>
      <trkpt lat="46.02654" lon="0.05039">
        <ele>118.6</ele>
        <time>2022-04-03T16:02:19Z</time>
      </trkpt>
      <trkpt lat="46.02656" lon="0.05036">
        <ele>118.8</ele>
        <time>2022-04-03T16:02:20Z</time>
      </trkpt>
      <trkpt lat="46.02658" lon="0.05034">
        <ele>119</ele>
        <time>2022-04-03T16:02:21Z</time>
      </trkpt>
      <trkpt lat="46.0266" lon="0.05032">
        <ele>119.2</ele>
        <time>2022-04-03T16:02:22Z</time>
      </trkpt>
      <trkpt lat="46.02662" lon="0.05029">
        <ele>119.4</ele>
        <time>2022-04-03T16:02:23Z</time>
      </trkpt>
      <trkpt lat="46.02664" lon="0.05027">
        <ele>119.6</ele>
        <time>2022-04-03T16:02:24Z</time>
      </trkpt>
      <trkpt lat="46.02666" lon="0.05024">
        <ele>119.8</ele>
        <time>2022-04-03T16:02:25Z</time>
      </trkpt>
      <trkpt lat="46.02668" lon="0.05021">
        <ele>120</ele>
        <time>2022-04-03T16:02:26Z</time>
      </trkpt>
      <trkpt lat="46.0267" lon="0.05019">
        <ele>120.2</ele>
        <time>2022-04-03T16:02:27Z</time>
      </trkpt>
      <trkpt lat="46.02672" lon="0.05016">
        <ele>120.2</ele>
        <time>2022-04-03T16:02:28Z</time>
      </trkpt>
      <trkpt lat="46.02674" lon="0.05013">
        <ele>120.2</ele>
        <time>2022-04-03T16:02:29Z</time>
      </trkpt>
      <trkpt lat="46.02676" lon="0.0501">
        <ele>120.4</ele>
        <time>2022-04-03T16:02:30Z</time>
      </trkpt>
      <trkpt lat="46.02678" lon="0.05008">
        <ele>120.4</ele>
        <time>2022-04-03T16:02:31Z</time>
      </trkpt>
      <trkpt lat="46.0268" lon="0.05006">
        <ele>120.6</ele>
        <time>2022-04-03T16:02:32Z</time>
      </trkpt>
      <trkpt lat="46.02682" lon="0.05003">
        <ele>120.4</ele>
        <time>2022-04-03T16:02:33Z</time>
      </trkpt>
      <trkpt lat="46.02683" lon="0.05001">
        <ele>120.6</ele>
        <time>2022-04-03T16:02:34Z</time>
      </trkpt>
      <trkpt lat="46.02685" lon="0.04998">
        <ele>120.6</ele>
        <time>2022-04-03T16:02:35Z</time>
      </trkpt>
      <trkpt lat="46.02687" lon="0.04996">
        <ele>120.6</ele>
        <time>2022-04-03T16:02:36Z</time>
      </trkpt>
      <trkpt lat="46.02689" lon="0.04993">
        <ele>121</ele>
        <time>2022-04-03T16:02:37Z</time>
      </trkpt>
      <trkpt lat="46.02692" lon="0.04991">
        <ele>121.4</ele>
        <time>2022-04-03T16:02:38Z</time>
      </trkpt>
      <trkpt lat="46.02693" lon="0.04988">
        <ele>121.4</ele>
        <time>2022-04-03T16:02:39Z</time>
      </trkpt>
      <trkpt lat="46.02695" lon="0.04986">
        <ele>121.6</ele>
        <time>2022-04-03T16:02:40Z</time>
      </trkpt>
      <trkpt lat="46.02697" lon="0.04984">
        <ele>122</ele>
        <time>2022-04-03T16:02:41Z</time>
      </trkpt>
      <trkpt lat="46.02699" lon="0.04981">
        <ele>122.2</ele>
        <time>2022-04-03T16:02:42Z</time>
      </trkpt>
      <trkpt lat="46.02701" lon="0.04979">
        <ele>122.2</ele>
        <time>2022-04-03T16:02:43Z</time>
      </trkpt>
      <trkpt lat="46.02703" lon="0.04977">
        <ele>122.4</ele>
        <time>2022-04-03T16:02:44Z</time>
      </trkpt>
      <trkpt lat="46.02705" lon="0.04974">
        <ele>122.4</ele>
        <time>2022-04-03T16:02:45Z</time>
      </trkpt>
      <trkpt lat="46.02707" lon="0.04972">
        <ele>122.6</ele>
        <time>2022-04-03T16:02:46Z</time>
      </trkpt>
      <trkpt lat="46.02709" lon="0.0497">
        <ele>122.6</ele>
        <time>2022-04-03T16:02:47Z</time>
      </trkpt>
      <trkpt lat="46.02711" lon="0.04968">
        <ele>122.6</ele>
        <time>2022-04-03T16:02:48Z</time>
      </trkpt>
      <trkpt lat="46.02713" lon="0.04965">
        <ele>122.8</ele>
        <time>2022-04-03T16:02:49Z</time>
      </trkpt>
      <trkpt lat="46.02715" lon="0.04963">
        <ele>123.2</ele>
        <time>2022-04-03T16:02:50Z</time>
      </trkpt>
      <trkpt lat="46.02717" lon="0.0496">
        <ele>123.2</ele>
        <time>2022-04-03T16:02:51Z</time>
      </trkpt>
      <trkpt lat="46.02719" lon="0.04958">
        <ele>123.2</ele>
        <time>2022-04-03T16:02:52Z</time>
      </trkpt>
      <trkpt lat="46.02721" lon="0.04956">
        <ele>123.4</ele>
        <time>2022-04-03T16:02:53Z</time>
      </trkpt>
      <trkpt lat="46.02723" lon="0.04953">
        <ele>123.4</ele>
        <time>2022-04-03T16:02:54Z</time>
      </trkpt>
      <trkpt lat="46.02725" lon="0.04951">
        <ele>123.6</ele>
        <time>2022-04-03T16:02:55Z</time>
      </trkpt>
      <trkpt lat="46.02727" lon="0.04949">
        <ele>124</ele>
        <time>2022-04-03T16:02:56Z</time>
      </trkpt>
      <trkpt lat="46.02729" lon="0.04947">
        <ele>124</ele>
        <time>2022-04-03T16:02:57Z</time>
      </trkpt>
      <trkpt lat="46.02731" lon="0.04945">
        <ele>124.4</ele>
        <time>2022-04-03T16:02:58Z</time>
      </trkpt>
      <trkpt lat="46.02733" lon="0.04943">
        <ele>124.2</ele>
        <time>2022-04-03T16:02:59Z</time>
      </trkpt>
      <trkpt lat="46.02735" lon="0.04941">
        <ele>124.6</ele>
        <time>2022-04-03T16:03:00Z</time>
      </trkpt>
      <trkpt lat="46.02737" lon="0.04939">
        <ele>124.6</ele>
        <time>2022-04-03T16:03:01Z</time>
      </trkpt>
      <trkpt lat="46.02739" lon="0.04937">
        <ele>124.6</ele>
        <time>2022-04-03T16:03:02Z</time>
      </trkpt>
      <trkpt lat="46.02742" lon="0.04935">
        <ele>124.6</ele>
        <time>2022-04-03T16:03:03Z</time>
      </trkpt>
      <trkpt lat="46.02743" lon="0.04933">
        <ele>124.8</ele>
        <time>2022-04-03T16:03:04Z</time>
      </trkpt>
      <trkpt lat="46.02745" lon="0.04931">
        <ele>125.2</ele>
        <time>2022-04-03T16:03:05Z</time>
      </trkpt>
      <trkpt lat="46.02747" lon="0.04929">
        <ele>125.2</ele>
        <time>2022-04-03T16:03:06Z</time>
      </trkpt>
      <trkpt lat="46.02749" lon="0.04927">
        <ele>125.4</ele>
        <time>2022-04-03T16:03:07Z</time>
      </trkpt>
      <trkpt lat="46.02751" lon="0.04925">
        <ele>125.4</ele>
        <time>2022-04-03T16:03:08Z</time>
      </trkpt>
      <trkpt lat="46.02753" lon="0.04923">
        <ele>125.4</ele>
        <time>2022-04-03T16:03:09Z</time>
      </trkpt>
      <trkpt lat="46.02755" lon="0.04921">
        <ele>125.4</ele>
        <time>2022-04-03T16:03:10Z</time>
      </trkpt>
      <trkpt lat="46.02757" lon="0.04919">
        <ele>125.6</ele>
        <time>2022-04-03T16:03:11Z</time>
      </trkpt>
      <trkpt lat="46.02759" lon="0.04917">
        <ele>125.8</ele>
        <time>2022-04-03T16:03:12Z</time>
      </trkpt>
      <trkpt lat="46.02762" lon="0.04915">
        <ele>125.8</ele>
        <time>2022-04-03T16:03:13Z</time>
      </trkpt>
      <trkpt lat="46.02764" lon="0.04913">
        <ele>126</ele>
        <time>2022-04-03T16:03:14Z</time>
      </trkpt>
      <trkpt lat="46.02766" lon="0.04911">
        <ele>126.2</ele>
        <time>2022-04-03T16:03:15Z</time>
      </trkpt>
      <trkpt lat="46.02769" lon="0.04909">
        <ele>126.4</ele>
        <time>2022-04-03T16:03:16Z</time>
      </trkpt>
      <trkpt lat="46.02771" lon="0.04907">
        <ele>126.6</ele>
        <time>2022-04-03T16:03:17Z</time>
      </trkpt>
      <trkpt lat="46.02773" lon="0.04905">
        <ele>126.6</ele>
        <time>2022-04-03T16:03:18Z</time>
      </trkpt>
      <trkpt lat="46.02775" lon="0.04903">
        <ele>126.8</ele>
        <time>2022-04-03T16:03:19Z</time>
      </trkpt>
      <trkpt lat="46.02778" lon="0.04901">
        <ele>126.8</ele>
        <time>2022-04-03T16:03:20Z</time>
      </trkpt>
      <trkpt lat="46.0278" lon="0.049">
        <ele>127</ele>
        <time>2022-04-03T16:03:21Z</time>
      </trkpt>
      <trkpt lat="46.02783" lon="0.04898">
        <ele>127</ele>
        <time>2022-04-03T16:03:22Z</time>
      </trkpt>
      <trkpt lat="46.02786" lon="0.04896">
        <ele>127</ele>
        <time>2022-04-03T16:03:23Z</time>
      </trkpt>
      <trkpt lat="46.02789" lon="0.04895">
        <ele>127</ele>
        <time>2022-04-03T16:03:24Z</time>
      </trkpt>
      <trkpt lat="46.02791" lon="0.04893">
        <ele>127</ele>
        <time>2022-04-03T16:03:25Z</time>
      </trkpt>
      <trkpt lat="46.02795" lon="0.04891">
        <ele>127.2</ele>
        <time>2022-04-03T16:03:26Z</time>
      </trkpt>
      <trkpt lat="46.02797" lon="0.04889">
        <ele>127.2</ele>
        <time>2022-04-03T16:03:27Z</time>
      </trkpt>
      <trkpt lat="46.028" lon="0.04887">
        <ele>127.2</ele>
        <time>2022-04-03T16:03:28Z</time>
      </trkpt>
      <trkpt lat="46.02803" lon="0.04885">
        <ele>127.2</ele>
        <time>2022-04-03T16:03:29Z</time>
      </trkpt>
      <trkpt lat="46.02806" lon="0.04884">
        <ele>127.4</ele>
        <time>2022-04-03T16:03:30Z</time>
      </trkpt>
      <trkpt lat="46.02809" lon="0.04882">
        <ele>127.4</ele>
        <time>2022-04-03T16:03:31Z</time>
      </trkpt>
      <trkpt lat="46.02811" lon="0.0488">
        <ele>127.6</ele>
        <time>2022-04-03T16:03:32Z</time>
      </trkpt>
      <trkpt lat="46.02814" lon="0.04878">
        <ele>127.6</ele>
        <time>2022-04-03T16:03:33Z</time>
      </trkpt>
      <trkpt lat="46.02816" lon="0.04877">
        <ele>127.6</ele>
        <time>2022-04-03T16:03:34Z</time>
      </trkpt>
      <trkpt lat="46.02819" lon="0.04875">
        <ele>127.6</ele>
        <time>2022-04-03T16:03:35Z</time>
      </trkpt>
      <trkpt lat="46.02822" lon="0.04873">
        <ele>127.8</ele>
        <time>2022-04-03T16:03:36Z</time>
      </trkpt>
      <trkpt lat="46.02826" lon="0.04872">
        <ele>128</ele>
        <time>2022-04-03T16:03:37Z</time>
      </trkpt>
      <trkpt lat="46.02829" lon="0.04871">
        <ele>128</ele>
        <time>2022-04-03T16:03:38Z</time>
      </trkpt>
      <trkpt lat="46.02832" lon="0.04869">
        <ele>128.2</ele>
        <time>2022-04-03T16:03:39Z</time>
      </trkpt>
      <trkpt lat="46.02836" lon="0.04867">
        <ele>128.2</ele>
        <time>2022-04-03T16:03:40Z</time>
      </trkpt>
      <trkpt lat="46.02839" lon="0.04865">
        <ele>128.2</ele>
        <time>2022-04-03T16:03:41Z</time>
      </trkpt>
      <trkpt lat="46.02842" lon="0.04863">
        <ele>128.2</ele>
        <time>2022-04-03T16:03:42Z</time>
      </trkpt>
      <trkpt lat="46.02846" lon="0.04861">
        <ele>128.2</ele>
        <time>2022-04-03T16:03:43Z</time>
      </trkpt>
      <trkpt lat="46.02849" lon="0.04859">
        <ele>128.2</ele>
        <time>2022-04-03T16:03:44Z</time>
      </trkpt>
      <trkpt lat="46.02853" lon="0.04857">
        <ele>128.2</ele>
        <time>2022-04-03T16:03:45Z</time>
      </trkpt>
      <trkpt lat="46.02857" lon="0.04855">
        <ele>128.2</ele>
        <time>2022-04-03T16:03:46Z</time>
      </trkpt>
      <trkpt lat="46.0286" lon="0.04853">
        <ele>128.2</ele>
        <time>2022-04-03T16:03:47Z</time>
      </trkpt>
      <trkpt lat="46.02864" lon="0.04851">
        <ele>128.4</ele>
        <time>2022-04-03T16:03:48Z</time>
      </trkpt>
      <trkpt lat="46.02868" lon="0.04849">
        <ele>128.2</ele>
        <time>2022-04-03T16:03:49Z</time>
      </trkpt>
      <trkpt lat="46.02872" lon="0.04847">
        <ele>128.2</ele>
        <time>2022-04-03T16:03:50Z</time>
      </trkpt>
      <trkpt lat="46.02875" lon="0.04844">
        <ele>128.4</ele>
        <time>2022-04-03T16:03:51Z</time>
      </trkpt>
      <trkpt lat="46.02879" lon="0.04843">
        <ele>128.2</ele>
        <time>2022-04-03T16:03:52Z</time>
      </trkpt>
      <trkpt lat="46.02882" lon="0.04841">
        <ele>128.2</ele>
        <time>2022-04-03T16:03:53Z</time>
      </trkpt>
      <trkpt lat="46.02886" lon="0.04839">
        <ele>128.2</ele>
        <time>2022-04-03T16:03:54Z</time>
      </trkpt>
      <trkpt lat="46.02889" lon="0.04837">
        <ele>128.2</ele>
        <time>2022-04-03T16:03:55Z</time>
      </trkpt>
      <trkpt lat="46.02892" lon="0.04835">
        <ele>128.2</ele>
        <time>2022-04-03T16:03:56Z</time>
      </trkpt>
      <trkpt lat="46.02895" lon="0.04833">
        <ele>128.2</ele>
        <time>2022-04-03T16:03:57Z</time>
      </trkpt>
      <trkpt lat="46.02898" lon="0.04831">
        <ele>128</ele>
        <time>2022-04-03T16:03:58Z</time>
      </trkpt>
      <trkpt lat="46.02902" lon="0.04829">
        <ele>128.2</ele>
        <time>2022-04-03T16:03:59Z</time>
      </trkpt>
      <trkpt lat="46.02905" lon="0.04827">
        <ele>128.2</ele>
        <time>2022-04-03T16:04:00Z</time>
      </trkpt>
      <trkpt lat="46.02908" lon="0.04825">
        <ele>128.2</ele>
        <time>2022-04-03T16:04:01Z</time>
      </trkpt>
      <trkpt lat="46.02912" lon="0.04823">
        <ele>128.2</ele>
        <time>2022-04-03T16:04:02Z</time>
      </trkpt>
      <trkpt lat="46.02915" lon="0.04822">
        <ele>128.4</ele>
        <time>2022-04-03T16:04:03Z</time>
      </trkpt>
      <trkpt lat="46.02919" lon="0.0482">
        <ele>128.2</ele>
        <time>2022-04-03T16:04:04Z</time>
      </trkpt>
      <trkpt lat="46.02923" lon="0.04817">
        <ele>128.4</ele>
        <time>2022-04-03T16:04:05Z</time>
      </trkpt>
      <trkpt lat="46.02926" lon="0.04816">
        <ele>128.2</ele>
        <time>2022-04-03T16:04:06Z</time>
      </trkpt>
      <trkpt lat="46.0293" lon="0.04814">
        <ele>128.2</ele>
        <time>2022-04-03T16:04:07Z</time>
      </trkpt>
      <trkpt lat="46.02933" lon="0.04812">
        <ele>128.2</ele>
        <time>2022-04-03T16:04:08Z</time>
      </trkpt>
      <trkpt lat="46.02937" lon="0.0481">
        <ele>128.2</ele>
        <time>2022-04-03T16:04:09Z</time>
      </trkpt>
      <trkpt lat="46.0294" lon="0.04808">
        <ele>128.2</ele>
        <time>2022-04-03T16:04:10Z</time>
      </trkpt>
      <trkpt lat="46.02944" lon="0.04806">
        <ele>128.2</ele>
        <time>2022-04-03T16:04:11Z</time>
      </trkpt>
      <trkpt lat="46.02947" lon="0.04804">
        <ele>128.4</ele>
        <time>2022-04-03T16:04:12Z</time>
      </trkpt>
      <trkpt lat="46.02951" lon="0.04802">
        <ele>128.2</ele>
        <time>2022-04-03T16:04:13Z</time>
      </trkpt>
      <trkpt lat="46.02954" lon="0.048">
        <ele>128.2</ele>
        <time>2022-04-03T16:04:14Z</time>
      </trkpt>
      <trkpt lat="46.02957" lon="0.04799">
        <ele>128.2</ele>
        <time>2022-04-03T16:04:15Z</time>
      </trkpt>
      <trkpt lat="46.0296" lon="0.04797">
        <ele>128</ele>
        <time>2022-04-03T16:04:16Z</time>
      </trkpt>
      <trkpt lat="46.02963" lon="0.04795">
        <ele>128.2</ele>
        <time>2022-04-03T16:04:17Z</time>
      </trkpt>
      <trkpt lat="46.02966" lon="0.04793">
        <ele>128</ele>
        <time>2022-04-03T16:04:18Z</time>
      </trkpt>
      <trkpt lat="46.0297" lon="0.04791">
        <ele>128</ele>
        <time>2022-04-03T16:04:19Z</time>
      </trkpt>
      <trkpt lat="46.02974" lon="0.04789">
        <ele>128</ele>
        <time>2022-04-03T16:04:20Z</time>
      </trkpt>
      <trkpt lat="46.02977" lon="0.04787">
        <ele>128</ele>
        <time>2022-04-03T16:04:21Z</time>
      </trkpt>
      <trkpt lat="46.02981" lon="0.04784">
        <ele>128.2</ele>
        <time>2022-04-03T16:04:22Z</time>
      </trkpt>
      <trkpt lat="46.02985" lon="0.04782">
        <ele>128</ele>
        <time>2022-04-03T16:04:23Z</time>
      </trkpt>
      <trkpt lat="46.02988" lon="0.0478">
        <ele>128</ele>
        <time>2022-04-03T16:04:24Z</time>
      </trkpt>
      <trkpt lat="46.02992" lon="0.04778">
        <ele>127.8</ele>
        <time>2022-04-03T16:04:25Z</time>
      </trkpt>
      <trkpt lat="46.02995" lon="0.04776">
        <ele>128</ele>
        <time>2022-04-03T16:04:26Z</time>
      </trkpt>
      <trkpt lat="46.02998" lon="0.04775">
        <ele>128</ele>
        <time>2022-04-03T16:04:27Z</time>
      </trkpt>
      <trkpt lat="46.03002" lon="0.04773">
        <ele>128</ele>
        <time>2022-04-03T16:04:28Z</time>
      </trkpt>
      <trkpt lat="46.03005" lon="0.04771">
        <ele>128</ele>
        <time>2022-04-03T16:04:29Z</time>
      </trkpt>
      <trkpt lat="46.03009" lon="0.04769">
        <ele>127.8</ele>
        <time>2022-04-03T16:04:30Z</time>
      </trkpt>
      <trkpt lat="46.03012" lon="0.04767">
        <ele>127.8</ele>
        <time>2022-04-03T16:04:31Z</time>
      </trkpt>
      <trkpt lat="46.03016" lon="0.04765">
        <ele>127.8</ele>
        <time>2022-04-03T16:04:32Z</time>
      </trkpt>
      <trkpt lat="46.0302" lon="0.04763">
        <ele>127.8</ele>
        <time>2022-04-03T16:04:33Z</time>
      </trkpt>
      <trkpt lat="46.03024" lon="0.04761">
        <ele>127.8</ele>
        <time>2022-04-03T16:04:34Z</time>
      </trkpt>
      <trkpt lat="46.03027" lon="0.04759">
        <ele>127.8</ele>
        <time>2022-04-03T16:04:35Z</time>
      </trkpt>
      <trkpt lat="46.03031" lon="0.04756">
        <ele>127.8</ele>
        <time>2022-04-03T16:04:36Z</time>
      </trkpt>
      <trkpt lat="46.03035" lon="0.04754">
        <ele>127.8</ele>
        <time>2022-04-03T16:04:37Z</time>
      </trkpt>
      <trkpt lat="46.03039" lon="0.04752">
        <ele>127.8</ele>
        <time>2022-04-03T16:04:38Z</time>
      </trkpt>
      <trkpt lat="46.03043" lon="0.0475">
        <ele>128</ele>
        <time>2022-04-03T16:04:39Z</time>
      </trkpt>
      <trkpt lat="46.03047" lon="0.04748">
        <ele>128</ele>
        <time>2022-04-03T16:04:40Z</time>
      </trkpt>
      <trkpt lat="46.03051" lon="0.04745">
        <ele>127.8</ele>
        <time>2022-04-03T16:04:41Z</time>
      </trkpt>
      <trkpt lat="46.03056" lon="0.04743">
        <ele>127.8</ele>
        <time>2022-04-03T16:04:42Z</time>
      </trkpt>
      <trkpt lat="46.0306" lon="0.0474">
        <ele>127.8</ele>
        <time>2022-04-03T16:04:43Z</time>
      </trkpt>
      <trkpt lat="46.03064" lon="0.04738">
        <ele>127.8</ele>
        <time>2022-04-03T16:04:44Z</time>
      </trkpt>
      <trkpt lat="46.03068" lon="0.04735">
        <ele>127.8</ele>
        <time>2022-04-03T16:04:45Z</time>
      </trkpt>
      <trkpt lat="46.03072" lon="0.04733">
        <ele>127.8</ele>
        <time>2022-04-03T16:04:46Z</time>
      </trkpt>
      <trkpt lat="46.03076" lon="0.04731">
        <ele>127.6</ele>
        <time>2022-04-03T16:04:47Z</time>
      </trkpt>
      <trkpt lat="46.0308" lon="0.04729">
        <ele>127.6</ele>
        <time>2022-04-03T16:04:48Z</time>
      </trkpt>
      <trkpt lat="46.03083" lon="0.04727">
        <ele>127.8</ele>
        <time>2022-04-03T16:04:49Z</time>
      </trkpt>
      <trkpt lat="46.03087" lon="0.04725">
        <ele>127.6</ele>
        <time>2022-04-03T16:04:50Z</time>
      </trkpt>
      <trkpt lat="46.0309" lon="0.04723">
        <ele>127.6</ele>
        <time>2022-04-03T16:04:51Z</time>
      </trkpt>
      <trkpt lat="46.03093" lon="0.04721">
        <ele>127.8</ele>
        <time>2022-04-03T16:04:52Z</time>
      </trkpt>
      <trkpt lat="46.03096" lon="0.04719">
        <ele>127.8</ele>
        <time>2022-04-03T16:04:53Z</time>
      </trkpt>
      <trkpt lat="46.03099" lon="0.04718">
        <ele>127.8</ele>
        <time>2022-04-03T16:04:54Z</time>
      </trkpt>
      <trkpt lat="46.03102" lon="0.04716">
        <ele>127.8</ele>
        <time>2022-04-03T16:04:55Z</time>
      </trkpt>
      <trkpt lat="46.03105" lon="0.04714">
        <ele>127.8</ele>
        <time>2022-04-03T16:04:56Z</time>
      </trkpt>
      <trkpt lat="46.03108" lon="0.04713">
        <ele>127.6</ele>
        <time>2022-04-03T16:04:57Z</time>
      </trkpt>
      <trkpt lat="46.03111" lon="0.04711">
        <ele>127.6</ele>
        <time>2022-04-03T16:04:58Z</time>
      </trkpt>
      <trkpt lat="46.03113" lon="0.0471">
        <ele>127.6</ele>
        <time>2022-04-03T16:04:59Z</time>
      </trkpt>
      <trkpt lat="46.03116" lon="0.04708">
        <ele>127.6</ele>
        <time>2022-04-03T16:05:00Z</time>
      </trkpt>
      <trkpt lat="46.0312" lon="0.04706">
        <ele>127.6</ele>
        <time>2022-04-03T16:05:01Z</time>
      </trkpt>
      <trkpt lat="46.03123" lon="0.04704">
        <ele>127.6</ele>
        <time>2022-04-03T16:05:02Z</time>
      </trkpt>
      <trkpt lat="46.03127" lon="0.04702">
        <ele>127.6</ele>
        <time>2022-04-03T16:05:03Z</time>
      </trkpt>
      <trkpt lat="46.03131" lon="0.047">
        <ele>127.6</ele>
        <time>2022-04-03T16:05:04Z</time>
      </trkpt>
      <trkpt lat="46.03134" lon="0.04698">
        <ele>127.4</ele>
        <time>2022-04-03T16:05:05Z</time>
      </trkpt>
      <trkpt lat="46.03138" lon="0.04696">
        <ele>127.4</ele>
        <time>2022-04-03T16:05:06Z</time>
      </trkpt>
      <trkpt lat="46.03142" lon="0.04694">
        <ele>127.4</ele>
        <time>2022-04-03T16:05:07Z</time>
      </trkpt>
      <trkpt lat="46.03146" lon="0.04691">
        <ele>127.4</ele>
        <time>2022-04-03T16:05:08Z</time>
      </trkpt>
      <trkpt lat="46.03149" lon="0.0469">
        <ele>127.4</ele>
        <time>2022-04-03T16:05:09Z</time>
      </trkpt>
      <trkpt lat="46.03153" lon="0.04688">
        <ele>127.4</ele>
        <time>2022-04-03T16:05:10Z</time>
      </trkpt>
      <trkpt lat="46.03157" lon="0.04686">
        <ele>127.2</ele>
        <time>2022-04-03T16:05:11Z</time>
      </trkpt>
      <trkpt lat="46.0316" lon="0.04684">
        <ele>127</ele>
        <time>2022-04-03T16:05:12Z</time>
      </trkpt>
      <trkpt lat="46.03164" lon="0.04682">
        <ele>127</ele>
        <time>2022-04-03T16:05:13Z</time>
      </trkpt>
      <trkpt lat="46.03168" lon="0.0468">
        <ele>126.8</ele>
        <time>2022-04-03T16:05:14Z</time>
      </trkpt>
      <trkpt lat="46.03172" lon="0.04678">
        <ele>126.6</ele>
        <time>2022-04-03T16:05:15Z</time>
      </trkpt>
      <trkpt lat="46.03175" lon="0.04676">
        <ele>126.6</ele>
        <time>2022-04-03T16:05:16Z</time>
      </trkpt>
      <trkpt lat="46.03179" lon="0.04674">
        <ele>126.6</ele>
        <time>2022-04-03T16:05:17Z</time>
      </trkpt>
      <trkpt lat="46.03183" lon="0.04672">
        <ele>126.6</ele>
        <time>2022-04-03T16:05:18Z</time>
      </trkpt>
      <trkpt lat="46.03186" lon="0.0467">
        <ele>126.2</ele>
        <time>2022-04-03T16:05:19Z</time>
      </trkpt>
      <trkpt lat="46.0319" lon="0.04667">
        <ele>126</ele>
        <time>2022-04-03T16:05:20Z</time>
      </trkpt>
      <trkpt lat="46.03194" lon="0.04665">
        <ele>125.8</ele>
        <time>2022-04-03T16:05:21Z</time>
      </trkpt>
      <trkpt lat="46.03198" lon="0.04663">
        <ele>125.6</ele>
        <time>2022-04-03T16:05:22Z</time>
      </trkpt>
      <trkpt lat="46.03202" lon="0.0466">
        <ele>125.6</ele>
        <time>2022-04-03T16:05:23Z</time>
      </trkpt>
      <trkpt lat="46.03205" lon="0.04658">
        <ele>125.6</ele>
        <time>2022-04-03T16:05:24Z</time>
      </trkpt>
      <trkpt lat="46.03209" lon="0.04656">
        <ele>125.6</ele>
        <time>2022-04-03T16:05:25Z</time>
      </trkpt>
      <trkpt lat="46.03214" lon="0.04654">
        <ele>125.6</ele>
        <time>2022-04-03T16:05:26Z</time>
      </trkpt>
      <trkpt lat="46.03218" lon="0.04652">
        <ele>125.4</ele>
        <time>2022-04-03T16:05:27Z</time>
      </trkpt>
      <trkpt lat="46.03222" lon="0.04649">
        <ele>125.2</ele>
        <time>2022-04-03T16:05:28Z</time>
      </trkpt>
      <trkpt lat="46.03226" lon="0.04647">
        <ele>125.2</ele>
        <time>2022-04-03T16:05:29Z</time>
      </trkpt>
      <trkpt lat="46.03231" lon="0.04644">
        <ele>124.8</ele>
        <time>2022-04-03T16:05:30Z</time>
      </trkpt>
      <trkpt lat="46.03236" lon="0.04642">
        <ele>124.8</ele>
        <time>2022-04-03T16:05:31Z</time>
      </trkpt>
      <trkpt lat="46.0324" lon="0.04639">
        <ele>124.4</ele>
        <time>2022-04-03T16:05:32Z</time>
      </trkpt>
      <trkpt lat="46.03246" lon="0.04636">
        <ele>124.2</ele>
        <time>2022-04-03T16:05:33Z</time>
      </trkpt>
      <trkpt lat="46.03251" lon="0.04633">
        <ele>124</ele>
        <time>2022-04-03T16:05:34Z</time>
      </trkpt>
      <trkpt lat="46.03256" lon="0.0463">
        <ele>123.6</ele>
        <time>2022-04-03T16:05:35Z</time>
      </trkpt>
      <trkpt lat="46.03261" lon="0.04627">
        <ele>123.6</ele>
        <time>2022-04-03T16:05:36Z</time>
      </trkpt>
      <trkpt lat="46.03267" lon="0.04624">
        <ele>123.4</ele>
        <time>2022-04-03T16:05:37Z</time>
      </trkpt>
      <trkpt lat="46.03272" lon="0.04621">
        <ele>123.4</ele>
        <time>2022-04-03T16:05:38Z</time>
      </trkpt>
      <trkpt lat="46.03278" lon="0.04618">
        <ele>122.8</ele>
        <time>2022-04-03T16:05:39Z</time>
      </trkpt>
      <trkpt lat="46.03284" lon="0.04614">
        <ele>122.6</ele>
        <time>2022-04-03T16:05:40Z</time>
      </trkpt>
      <trkpt lat="46.0329" lon="0.04611">
        <ele>122.4</ele>
        <time>2022-04-03T16:05:41Z</time>
      </trkpt>
      <trkpt lat="46.03296" lon="0.04607">
        <ele>122.4</ele>
        <time>2022-04-03T16:05:42Z</time>
      </trkpt>
      <trkpt lat="46.03302" lon="0.04604">
        <ele>122.2</ele>
        <time>2022-04-03T16:05:43Z</time>
      </trkpt>
      <trkpt lat="46.03308" lon="0.04601">
        <ele>122.2</ele>
        <time>2022-04-03T16:05:44Z</time>
      </trkpt>
      <trkpt lat="46.03314" lon="0.04597">
        <ele>121.2</ele>
        <time>2022-04-03T16:05:45Z</time>
      </trkpt>
      <trkpt lat="46.0332" lon="0.04593">
        <ele>120.4</ele>
        <time>2022-04-03T16:05:46Z</time>
      </trkpt>
      <trkpt lat="46.03326" lon="0.0459">
        <ele>120</ele>
        <time>2022-04-03T16:05:47Z</time>
      </trkpt>
      <trkpt lat="46.03332" lon="0.04587">
        <ele>119.6</ele>
        <time>2022-04-03T16:05:48Z</time>
      </trkpt>
      <trkpt lat="46.03338" lon="0.04584">
        <ele>119.2</ele>
        <time>2022-04-03T16:05:49Z</time>
      </trkpt>
      <trkpt lat="46.03344" lon="0.0458">
        <ele>118.8</ele>
        <time>2022-04-03T16:05:50Z</time>
      </trkpt>
      <trkpt lat="46.03349" lon="0.04577">
        <ele>118</ele>
        <time>2022-04-03T16:05:51Z</time>
      </trkpt>
      <trkpt lat="46.03355" lon="0.04574">
        <ele>117.6</ele>
        <time>2022-04-03T16:05:52Z</time>
      </trkpt>
      <trkpt lat="46.0336" lon="0.04571">
        <ele>117.2</ele>
        <time>2022-04-03T16:05:53Z</time>
      </trkpt>
      <trkpt lat="46.03365" lon="0.04569">
        <ele>117</ele>
        <time>2022-04-03T16:05:54Z</time>
      </trkpt>
      <trkpt lat="46.0337" lon="0.04566">
        <ele>117</ele>
        <time>2022-04-03T16:05:55Z</time>
      </trkpt>
      <trkpt lat="46.03374" lon="0.04563">
        <ele>117</ele>
        <time>2022-04-03T16:05:56Z</time>
      </trkpt>
      <trkpt lat="46.03378" lon="0.0456">
        <ele>117</ele>
        <time>2022-04-03T16:05:57Z</time>
      </trkpt>
      <trkpt lat="46.03382" lon="0.04558">
        <ele>117</ele>
        <time>2022-04-03T16:05:58Z</time>
      </trkpt>
      <trkpt lat="46.03385" lon="0.04556">
        <ele>117</ele>
        <time>2022-04-03T16:05:59Z</time>
      </trkpt>
      <trkpt lat="46.03389" lon="0.04554">
        <ele>117</ele>
        <time>2022-04-03T16:06:00Z</time>
      </trkpt>
      <trkpt lat="46.03392" lon="0.04553">
        <ele>117</ele>
        <time>2022-04-03T16:06:01Z</time>
      </trkpt>
      <trkpt lat="46.03395" lon="0.04551">
        <ele>117</ele>
        <time>2022-04-03T16:06:02Z</time>
      </trkpt>
      <trkpt lat="46.03399" lon="0.04549">
        <ele>117</ele>
        <time>2022-04-03T16:06:03Z</time>
      </trkpt>
      <trkpt lat="46.03401" lon="0.04547">
        <ele>117.6</ele>
        <time>2022-04-03T16:06:04Z</time>
      </trkpt>
      <trkpt lat="46.03404" lon="0.04545">
        <ele>118.4</ele>
        <time>2022-04-03T16:06:05Z</time>
      </trkpt>
      <trkpt lat="46.03407" lon="0.04544">
        <ele>118.8</ele>
        <time>2022-04-03T16:06:06Z</time>
      </trkpt>
      <trkpt lat="46.0341" lon="0.04542">
        <ele>119.2</ele>
        <time>2022-04-03T16:06:07Z</time>
      </trkpt>
      <trkpt lat="46.03413" lon="0.04541">
        <ele>119.6</ele>
        <time>2022-04-03T16:06:08Z</time>
      </trkpt>
      <trkpt lat="46.03415" lon="0.04539">
        <ele>119.6</ele>
        <time>2022-04-03T16:06:09Z</time>
      </trkpt>
      <trkpt lat="46.03418" lon="0.04538">
        <ele>119.6</ele>
        <time>2022-04-03T16:06:10Z</time>
      </trkpt>
      <trkpt lat="46.03421" lon="0.04536">
        <ele>119.8</ele>
        <time>2022-04-03T16:06:11Z</time>
      </trkpt>
      <trkpt lat="46.03424" lon="0.04535">
        <ele>120</ele>
        <time>2022-04-03T16:06:12Z</time>
      </trkpt>
      <trkpt lat="46.03426" lon="0.04534">
        <ele>120</ele>
        <time>2022-04-03T16:06:13Z</time>
      </trkpt>
      <trkpt lat="46.03429" lon="0.04532">
        <ele>120</ele>
        <time>2022-04-03T16:06:14Z</time>
      </trkpt>
      <trkpt lat="46.03432" lon="0.04531">
        <ele>120.4</ele>
        <time>2022-04-03T16:06:15Z</time>
      </trkpt>
      <trkpt lat="46.03435" lon="0.04529">
        <ele>120.2</ele>
        <time>2022-04-03T16:06:16Z</time>
      </trkpt>
      <trkpt lat="46.03437" lon="0.04528">
        <ele>120.6</ele>
        <time>2022-04-03T16:06:17Z</time>
      </trkpt>
      <trkpt lat="46.0344" lon="0.04526">
        <ele>120.4</ele>
        <time>2022-04-03T16:06:18Z</time>
      </trkpt>
      <trkpt lat="46.03443" lon="0.04525">
        <ele>120.6</ele>
        <time>2022-04-03T16:06:19Z</time>
      </trkpt>
      <trkpt lat="46.03446" lon="0.04523">
        <ele>120.6</ele>
        <time>2022-04-03T16:06:20Z</time>
      </trkpt>
      <trkpt lat="46.03449" lon="0.04522">
        <ele>120.6</ele>
        <time>2022-04-03T16:06:21Z</time>
      </trkpt>
      <trkpt lat="46.03452" lon="0.0452">
        <ele>121</ele>
        <time>2022-04-03T16:06:22Z</time>
      </trkpt>
      <trkpt lat="46.03454" lon="0.04518">
        <ele>121</ele>
        <time>2022-04-03T16:06:23Z</time>
      </trkpt>
      <trkpt lat="46.03457" lon="0.04517">
        <ele>121.2</ele>
        <time>2022-04-03T16:06:24Z</time>
      </trkpt>
      <trkpt lat="46.0346" lon="0.04515">
        <ele>121.2</ele>
        <time>2022-04-03T16:06:25Z</time>
      </trkpt>
      <trkpt lat="46.03463" lon="0.04513">
        <ele>121.2</ele>
        <time>2022-04-03T16:06:26Z</time>
      </trkpt>
      <trkpt lat="46.03466" lon="0.04512">
        <ele>121.4</ele>
        <time>2022-04-03T16:06:27Z</time>
      </trkpt>
      <trkpt lat="46.03469" lon="0.0451">
        <ele>121.6</ele>
        <time>2022-04-03T16:06:28Z</time>
      </trkpt>
      <trkpt lat="46.03472" lon="0.04509">
        <ele>121.8</ele>
        <time>2022-04-03T16:06:29Z</time>
      </trkpt>
      <trkpt lat="46.03474" lon="0.04507">
        <ele>121.8</ele>
        <time>2022-04-03T16:06:30Z</time>
      </trkpt>
      <trkpt lat="46.03477" lon="0.04506">
        <ele>122</ele>
        <time>2022-04-03T16:06:31Z</time>
      </trkpt>
      <trkpt lat="46.0348" lon="0.04504">
        <ele>122</ele>
        <time>2022-04-03T16:06:32Z</time>
      </trkpt>
      <trkpt lat="46.03483" lon="0.04502">
        <ele>122</ele>
        <time>2022-04-03T16:06:33Z</time>
      </trkpt>
      <trkpt lat="46.03486" lon="0.045">
        <ele>122.2</ele>
        <time>2022-04-03T16:06:34Z</time>
      </trkpt>
      <trkpt lat="46.03489" lon="0.04499">
        <ele>122.2</ele>
        <time>2022-04-03T16:06:35Z</time>
      </trkpt>
      <trkpt lat="46.03492" lon="0.04497">
        <ele>122.2</ele>
        <time>2022-04-03T16:06:36Z</time>
      </trkpt>
      <trkpt lat="46.03495" lon="0.04495">
        <ele>122.4</ele>
        <time>2022-04-03T16:06:37Z</time>
      </trkpt>
      <trkpt lat="46.03499" lon="0.04493">
        <ele>122.4</ele>
        <time>2022-04-03T16:06:38Z</time>
      </trkpt>
      <trkpt lat="46.03502" lon="0.04491">
        <ele>122.4</ele>
        <time>2022-04-03T16:06:39Z</time>
      </trkpt>
      <trkpt lat="46.03505" lon="0.0449">
        <ele>122.4</ele>
        <time>2022-04-03T16:06:40Z</time>
      </trkpt>
      <trkpt lat="46.03508" lon="0.04488">
        <ele>122.4</ele>
        <time>2022-04-03T16:06:41Z</time>
      </trkpt>
      <trkpt lat="46.03512" lon="0.04486">
        <ele>122.4</ele>
        <time>2022-04-03T16:06:42Z</time>
      </trkpt>
      <trkpt lat="46.03515" lon="0.04484">
        <ele>122.6</ele>
        <time>2022-04-03T16:06:43Z</time>
      </trkpt>
      <trkpt lat="46.03518" lon="0.04482">
        <ele>122.8</ele>
        <time>2022-04-03T16:06:44Z</time>
      </trkpt>
      <trkpt lat="46.03521" lon="0.0448">
        <ele>123</ele>
        <time>2022-04-03T16:06:45Z</time>
      </trkpt>
      <trkpt lat="46.03525" lon="0.04478">
        <ele>123.2</ele>
        <time>2022-04-03T16:06:46Z</time>
      </trkpt>
      <trkpt lat="46.03528" lon="0.04477">
        <ele>123.6</ele>
        <time>2022-04-03T16:06:47Z</time>
      </trkpt>
      <trkpt lat="46.03531" lon="0.04475">
        <ele>123.6</ele>
        <time>2022-04-03T16:06:48Z</time>
      </trkpt>
      <trkpt lat="46.03534" lon="0.04473">
        <ele>123.6</ele>
        <time>2022-04-03T16:06:49Z</time>
      </trkpt>
      <trkpt lat="46.03538" lon="0.04471">
        <ele>123.8</ele>
        <time>2022-04-03T16:06:50Z</time>
      </trkpt>
      <trkpt lat="46.03541" lon="0.04469">
        <ele>124</ele>
        <time>2022-04-03T16:06:51Z</time>
      </trkpt>
      <trkpt lat="46.03544" lon="0.04467">
        <ele>124</ele>
        <time>2022-04-03T16:06:52Z</time>
      </trkpt>
      <trkpt lat="46.03548" lon="0.04465">
        <ele>124.2</ele>
        <time>2022-04-03T16:06:53Z</time>
      </trkpt>
      <trkpt lat="46.03551" lon="0.04463">
        <ele>124.2</ele>
        <time>2022-04-03T16:06:54Z</time>
      </trkpt>
      <trkpt lat="46.03555" lon="0.04461">
        <ele>124.2</ele>
        <time>2022-04-03T16:06:55Z</time>
      </trkpt>
      <trkpt lat="46.03558" lon="0.04459">
        <ele>124.2</ele>
        <time>2022-04-03T16:06:56Z</time>
      </trkpt>
      <trkpt lat="46.03562" lon="0.04457">
        <ele>124.4</ele>
        <time>2022-04-03T16:06:57Z</time>
      </trkpt>
      <trkpt lat="46.03565" lon="0.04455">
        <ele>124.4</ele>
        <time>2022-04-03T16:06:58Z</time>
      </trkpt>
      <trkpt lat="46.03569" lon="0.04453">
        <ele>124.2</ele>
        <time>2022-04-03T16:06:59Z</time>
      </trkpt>
      <trkpt lat="46.03572" lon="0.04451">
        <ele>124.4</ele>
        <time>2022-04-03T16:07:00Z</time>
      </trkpt>
      <trkpt lat="46.03576" lon="0.04449">
        <ele>124.6</ele>
        <time>2022-04-03T16:07:01Z</time>
      </trkpt>
      <trkpt lat="46.0358" lon="0.04447">
        <ele>124.4</ele>
        <time>2022-04-03T16:07:02Z</time>
      </trkpt>
      <trkpt lat="46.03583" lon="0.04445">
        <ele>124.6</ele>
        <time>2022-04-03T16:07:03Z</time>
      </trkpt>
      <trkpt lat="46.03587" lon="0.04443">
        <ele>124.6</ele>
        <time>2022-04-03T16:07:04Z</time>
      </trkpt>
      <trkpt lat="46.0359" lon="0.04441">
        <ele>124.6</ele>
        <time>2022-04-03T16:07:05Z</time>
      </trkpt>
      <trkpt lat="46.03594" lon="0.04439">
        <ele>124.6</ele>
        <time>2022-04-03T16:07:06Z</time>
      </trkpt>
      <trkpt lat="46.03598" lon="0.04437">
        <ele>124.6</ele>
        <time>2022-04-03T16:07:07Z</time>
      </trkpt>
      <trkpt lat="46.03601" lon="0.04435">
        <ele>124.6</ele>
        <time>2022-04-03T16:07:08Z</time>
      </trkpt>
      <trkpt lat="46.03604" lon="0.04433">
        <ele>124.6</ele>
        <time>2022-04-03T16:07:09Z</time>
      </trkpt>
      <trkpt lat="46.03608" lon="0.0443">
        <ele>124.6</ele>
        <time>2022-04-03T16:07:10Z</time>
      </trkpt>
      <trkpt lat="46.03611" lon="0.04428">
        <ele>124.6</ele>
        <time>2022-04-03T16:07:11Z</time>
      </trkpt>
      <trkpt lat="46.03615" lon="0.04426">
        <ele>124.6</ele>
        <time>2022-04-03T16:07:12Z</time>
      </trkpt>
      <trkpt lat="46.03618" lon="0.04424">
        <ele>124.6</ele>
        <time>2022-04-03T16:07:13Z</time>
      </trkpt>
      <trkpt lat="46.03622" lon="0.04423">
        <ele>124.6</ele>
        <time>2022-04-03T16:07:14Z</time>
      </trkpt>
      <trkpt lat="46.03625" lon="0.04421">
        <ele>124.6</ele>
        <time>2022-04-03T16:07:15Z</time>
      </trkpt>
      <trkpt lat="46.03629" lon="0.04419">
        <ele>124.6</ele>
        <time>2022-04-03T16:07:16Z</time>
      </trkpt>
      <trkpt lat="46.03633" lon="0.04417">
        <ele>124.6</ele>
        <time>2022-04-03T16:07:17Z</time>
      </trkpt>
      <trkpt lat="46.03636" lon="0.04415">
        <ele>124.6</ele>
        <time>2022-04-03T16:07:18Z</time>
      </trkpt>
      <trkpt lat="46.03639" lon="0.04413">
        <ele>124.6</ele>
        <time>2022-04-03T16:07:19Z</time>
      </trkpt>
      <trkpt lat="46.03643" lon="0.04411">
        <ele>124.6</ele>
        <time>2022-04-03T16:07:20Z</time>
      </trkpt>
      <trkpt lat="46.03646" lon="0.04409">
        <ele>124.6</ele>
        <time>2022-04-03T16:07:21Z</time>
      </trkpt>
      <trkpt lat="46.03649" lon="0.04407">
        <ele>124.6</ele>
        <time>2022-04-03T16:07:22Z</time>
      </trkpt>
      <trkpt lat="46.03653" lon="0.04405">
        <ele>124.6</ele>
        <time>2022-04-03T16:07:23Z</time>
      </trkpt>
      <trkpt lat="46.03657" lon="0.04403">
        <ele>124.4</ele>
        <time>2022-04-03T16:07:24Z</time>
      </trkpt>
      <trkpt lat="46.0366" lon="0.04401">
        <ele>124.4</ele>
        <time>2022-04-03T16:07:25Z</time>
      </trkpt>
      <trkpt lat="46.03664" lon="0.04399">
        <ele>124.4</ele>
        <time>2022-04-03T16:07:26Z</time>
      </trkpt>
      <trkpt lat="46.03668" lon="0.04397">
        <ele>124.4</ele>
        <time>2022-04-03T16:07:27Z</time>
      </trkpt>
      <trkpt lat="46.03671" lon="0.04395">
        <ele>124.4</ele>
        <time>2022-04-03T16:07:28Z</time>
      </trkpt>
      <trkpt lat="46.03675" lon="0.04393">
        <ele>124.2</ele>
        <time>2022-04-03T16:07:29Z</time>
      </trkpt>
      <trkpt lat="46.03678" lon="0.04392">
        <ele>124.2</ele>
        <time>2022-04-03T16:07:30Z</time>
      </trkpt>
      <trkpt lat="46.03681" lon="0.0439">
        <ele>124.2</ele>
        <time>2022-04-03T16:07:31Z</time>
      </trkpt>
      <trkpt lat="46.03684" lon="0.04388">
        <ele>124.2</ele>
        <time>2022-04-03T16:07:32Z</time>
      </trkpt>
      <trkpt lat="46.03687" lon="0.04386">
        <ele>124.2</ele>
        <time>2022-04-03T16:07:33Z</time>
      </trkpt>
      <trkpt lat="46.0369" lon="0.04384">
        <ele>124.2</ele>
        <time>2022-04-03T16:07:34Z</time>
      </trkpt>
      <trkpt lat="46.03693" lon="0.04383">
        <ele>124</ele>
        <time>2022-04-03T16:07:35Z</time>
      </trkpt>
      <trkpt lat="46.03697" lon="0.04381">
        <ele>123.8</ele>
        <time>2022-04-03T16:07:36Z</time>
      </trkpt>
      <trkpt lat="46.037" lon="0.04379">
        <ele>123.6</ele>
        <time>2022-04-03T16:07:37Z</time>
      </trkpt>
      <trkpt lat="46.03704" lon="0.04377">
        <ele>123.6</ele>
        <time>2022-04-03T16:07:38Z</time>
      </trkpt>
      <trkpt lat="46.03707" lon="0.04375">
        <ele>123.4</ele>
        <time>2022-04-03T16:07:39Z</time>
      </trkpt>
      <trkpt lat="46.03711" lon="0.04373">
        <ele>123.4</ele>
        <time>2022-04-03T16:07:40Z</time>
      </trkpt>
      <trkpt lat="46.03714" lon="0.04371">
        <ele>123.4</ele>
        <time>2022-04-03T16:07:41Z</time>
      </trkpt>
      <trkpt lat="46.03718" lon="0.04369">
        <ele>123.2</ele>
        <time>2022-04-03T16:07:42Z</time>
      </trkpt>
      <trkpt lat="46.03721" lon="0.04367">
        <ele>123.2</ele>
        <time>2022-04-03T16:07:43Z</time>
      </trkpt>
      <trkpt lat="46.03724" lon="0.04364">
        <ele>123.2</ele>
        <time>2022-04-03T16:07:44Z</time>
      </trkpt>
      <trkpt lat="46.03728" lon="0.04362">
        <ele>123.2</ele>
        <time>2022-04-03T16:07:45Z</time>
      </trkpt>
      <trkpt lat="46.03732" lon="0.0436">
        <ele>123</ele>
        <time>2022-04-03T16:07:46Z</time>
      </trkpt>
      <trkpt lat="46.03735" lon="0.04358">
        <ele>123</ele>
        <time>2022-04-03T16:07:47Z</time>
      </trkpt>
      <trkpt lat="46.03739" lon="0.04355">
        <ele>123</ele>
        <time>2022-04-03T16:07:48Z</time>
      </trkpt>
      <trkpt lat="46.03743" lon="0.04352">
        <ele>123</ele>
        <time>2022-04-03T16:07:49Z</time>
      </trkpt>
      <trkpt lat="46.03747" lon="0.04349">
        <ele>122.8</ele>
        <time>2022-04-03T16:07:50Z</time>
      </trkpt>
      <trkpt lat="46.03751" lon="0.04346">
        <ele>122.8</ele>
        <time>2022-04-03T16:07:51Z</time>
      </trkpt>
      <trkpt lat="46.03755" lon="0.04343">
        <ele>122.8</ele>
        <time>2022-04-03T16:07:52Z</time>
      </trkpt>
      <trkpt lat="46.03759" lon="0.0434">
        <ele>122.6</ele>
        <time>2022-04-03T16:07:53Z</time>
      </trkpt>
      <trkpt lat="46.03763" lon="0.04335">
        <ele>122.4</ele>
        <time>2022-04-03T16:07:54Z</time>
      </trkpt>
      <trkpt lat="46.03768" lon="0.04331">
        <ele>122.4</ele>
        <time>2022-04-03T16:07:55Z</time>
      </trkpt>
      <trkpt lat="46.03773" lon="0.04327">
        <ele>122.2</ele>
        <time>2022-04-03T16:07:56Z</time>
      </trkpt>
      <trkpt lat="46.03778" lon="0.04322">
        <ele>122.2</ele>
        <time>2022-04-03T16:07:57Z</time>
      </trkpt>
      <trkpt lat="46.03782" lon="0.04317">
        <ele>121.8</ele>
        <time>2022-04-03T16:07:58Z</time>
      </trkpt>
      <trkpt lat="46.03787" lon="0.04311">
        <ele>121.6</ele>
        <time>2022-04-03T16:07:59Z</time>
      </trkpt>
      <trkpt lat="46.03792" lon="0.04305">
        <ele>121.6</ele>
        <time>2022-04-03T16:08:00Z</time>
      </trkpt>
      <trkpt lat="46.03797" lon="0.04298">
        <ele>121.4</ele>
        <time>2022-04-03T16:08:01Z</time>
      </trkpt>
      <trkpt lat="46.03802" lon="0.04291">
        <ele>121.2</ele>
        <time>2022-04-03T16:08:02Z</time>
      </trkpt>
      <trkpt lat="46.03806" lon="0.04283">
        <ele>120.8</ele>
        <time>2022-04-03T16:08:03Z</time>
      </trkpt>
      <trkpt lat="46.03811" lon="0.04274">
        <ele>120.8</ele>
        <time>2022-04-03T16:08:04Z</time>
      </trkpt>
      <trkpt lat="46.03815" lon="0.04266">
        <ele>120.6</ele>
        <time>2022-04-03T16:08:05Z</time>
      </trkpt>
      <trkpt lat="46.03819" lon="0.04257">
        <ele>120.4</ele>
        <time>2022-04-03T16:08:06Z</time>
      </trkpt>
      <trkpt lat="46.03823" lon="0.04249">
        <ele>120.4</ele>
        <time>2022-04-03T16:08:07Z</time>
      </trkpt>
      <trkpt lat="46.03827" lon="0.04239">
        <ele>119.8</ele>
        <time>2022-04-03T16:08:08Z</time>
      </trkpt>
      <trkpt lat="46.03831" lon="0.0423">
        <ele>119.6</ele>
        <time>2022-04-03T16:08:09Z</time>
      </trkpt>
      <trkpt lat="46.03835" lon="0.0422">
        <ele>119.2</ele>
        <time>2022-04-03T16:08:10Z</time>
      </trkpt>
      <trkpt lat="46.03839" lon="0.0421">
        <ele>118.6</ele>
        <time>2022-04-03T16:08:11Z</time>
      </trkpt>
      <trkpt lat="46.03843" lon="0.04201">
        <ele>118.2</ele>
        <time>2022-04-03T16:08:12Z</time>
      </trkpt>
      <trkpt lat="46.03847" lon="0.04191">
        <ele>117.8</ele>
        <time>2022-04-03T16:08:13Z</time>
      </trkpt>
      <trkpt lat="46.0385" lon="0.04182">
        <ele>117.2</ele>
        <time>2022-04-03T16:08:14Z</time>
      </trkpt>
      <trkpt lat="46.03854" lon="0.04172">
        <ele>116.8</ele>
        <time>2022-04-03T16:08:15Z</time>
      </trkpt>
      <trkpt lat="46.03858" lon="0.04163">
        <ele>116.4</ele>
        <time>2022-04-03T16:08:16Z</time>
      </trkpt>
      <trkpt lat="46.03862" lon="0.04153">
        <ele>116</ele>
        <time>2022-04-03T16:08:17Z</time>
      </trkpt>
      <trkpt lat="46.03866" lon="0.04144">
        <ele>115.4</ele>
        <time>2022-04-03T16:08:18Z</time>
      </trkpt>
      <trkpt lat="46.0387" lon="0.04133">
        <ele>114.8</ele>
        <time>2022-04-03T16:08:19Z</time>
      </trkpt>
      <trkpt lat="46.03873" lon="0.04124">
        <ele>114</ele>
        <time>2022-04-03T16:08:20Z</time>
      </trkpt>
      <trkpt lat="46.03878" lon="0.04114">
        <ele>113.6</ele>
        <time>2022-04-03T16:08:21Z</time>
      </trkpt>
      <trkpt lat="46.03882" lon="0.04105">
        <ele>113</ele>
        <time>2022-04-03T16:08:22Z</time>
      </trkpt>
      <trkpt lat="46.03886" lon="0.04095">
        <ele>112.6</ele>
        <time>2022-04-03T16:08:23Z</time>
      </trkpt>
      <trkpt lat="46.0389" lon="0.04086">
        <ele>112</ele>
        <time>2022-04-03T16:08:24Z</time>
      </trkpt>
      <trkpt lat="46.03894" lon="0.04077">
        <ele>111.4</ele>
        <time>2022-04-03T16:08:25Z</time>
      </trkpt>
      <trkpt lat="46.03898" lon="0.04068">
        <ele>111.4</ele>
        <time>2022-04-03T16:08:26Z</time>
      </trkpt>
      <trkpt lat="46.03902" lon="0.04059">
        <ele>110.8</ele>
        <time>2022-04-03T16:08:27Z</time>
      </trkpt>
      <trkpt lat="46.03905" lon="0.04051">
        <ele>110.6</ele>
        <time>2022-04-03T16:08:28Z</time>
      </trkpt>
      <trkpt lat="46.03909" lon="0.04043">
        <ele>110.4</ele>
        <time>2022-04-03T16:08:29Z</time>
      </trkpt>
      <trkpt lat="46.03912" lon="0.04035">
        <ele>110.2</ele>
        <time>2022-04-03T16:08:30Z</time>
      </trkpt>
      <trkpt lat="46.03914" lon="0.04027">
        <ele>110</ele>
        <time>2022-04-03T16:08:31Z</time>
      </trkpt>
      <trkpt lat="46.03916" lon="0.04019">
        <ele>110</ele>
        <time>2022-04-03T16:08:32Z</time>
      </trkpt>
      <trkpt lat="46.03918" lon="0.04011">
        <ele>110.2</ele>
        <time>2022-04-03T16:08:33Z</time>
      </trkpt>
      <trkpt lat="46.0392" lon="0.04002">
        <ele>110</ele>
        <time>2022-04-03T16:08:34Z</time>
      </trkpt>
      <trkpt lat="46.03921" lon="0.03994">
        <ele>110</ele>
        <time>2022-04-03T16:08:35Z</time>
      </trkpt>
      <trkpt lat="46.03922" lon="0.03985">
        <ele>109.8</ele>
        <time>2022-04-03T16:08:36Z</time>
      </trkpt>
      <trkpt lat="46.03923" lon="0.03976">
        <ele>109.8</ele>
        <time>2022-04-03T16:08:37Z</time>
      </trkpt>
      <trkpt lat="46.03924" lon="0.03967">
        <ele>109.6</ele>
        <time>2022-04-03T16:08:38Z</time>
      </trkpt>
      <trkpt lat="46.03925" lon="0.03958">
        <ele>109.6</ele>
        <time>2022-04-03T16:08:39Z</time>
      </trkpt>
      <trkpt lat="46.03926" lon="0.03948">
        <ele>109.4</ele>
        <time>2022-04-03T16:08:40Z</time>
      </trkpt>
      <trkpt lat="46.03927" lon="0.03938">
        <ele>109.4</ele>
        <time>2022-04-03T16:08:41Z</time>
      </trkpt>
      <trkpt lat="46.03927" lon="0.03928">
        <ele>109.4</ele>
        <time>2022-04-03T16:08:42Z</time>
      </trkpt>
      <trkpt lat="46.03928" lon="0.03917">
        <ele>109.2</ele>
        <time>2022-04-03T16:08:43Z</time>
      </trkpt>
      <trkpt lat="46.03929" lon="0.03906">
        <ele>109.2</ele>
        <time>2022-04-03T16:08:44Z</time>
      </trkpt>
      <trkpt lat="46.0393" lon="0.03895">
        <ele>109.2</ele>
        <time>2022-04-03T16:08:45Z</time>
      </trkpt>
      <trkpt lat="46.0393" lon="0.03884">
        <ele>109</ele>
        <time>2022-04-03T16:08:46Z</time>
      </trkpt>
      <trkpt lat="46.03932" lon="0.03872">
        <ele>108.6</ele>
        <time>2022-04-03T16:08:47Z</time>
      </trkpt>
      <trkpt lat="46.03933" lon="0.0386">
        <ele>108.4</ele>
        <time>2022-04-03T16:08:48Z</time>
      </trkpt>
      <trkpt lat="46.03935" lon="0.03847">
        <ele>107.6</ele>
        <time>2022-04-03T16:08:49Z</time>
      </trkpt>
      <trkpt lat="46.03936" lon="0.03835">
        <ele>107.2</ele>
        <time>2022-04-03T16:08:50Z</time>
      </trkpt>
      <trkpt lat="46.03938" lon="0.03822">
        <ele>107</ele>
        <time>2022-04-03T16:08:51Z</time>
      </trkpt>
      <trkpt lat="46.03941" lon="0.0381">
        <ele>106.8</ele>
        <time>2022-04-03T16:08:52Z</time>
      </trkpt>
      <trkpt lat="46.03944" lon="0.03798">
        <ele>106.6</ele>
        <time>2022-04-03T16:08:53Z</time>
      </trkpt>
      <trkpt lat="46.03948" lon="0.03786">
        <ele>106.2</ele>
        <time>2022-04-03T16:08:54Z</time>
      </trkpt>
      <trkpt lat="46.03951" lon="0.03774">
        <ele>105.6</ele>
        <time>2022-04-03T16:08:55Z</time>
      </trkpt>
      <trkpt lat="46.03956" lon="0.03763">
        <ele>105</ele>
        <time>2022-04-03T16:08:56Z</time>
      </trkpt>
      <trkpt lat="46.03961" lon="0.03752">
        <ele>104.2</ele>
        <time>2022-04-03T16:08:57Z</time>
      </trkpt>
      <trkpt lat="46.03966" lon="0.03741">
        <ele>103</ele>
        <time>2022-04-03T16:08:58Z</time>
      </trkpt>
      <trkpt lat="46.03972" lon="0.03731">
        <ele>101.6</ele>
        <time>2022-04-03T16:08:59Z</time>
      </trkpt>
      <trkpt lat="46.03977" lon="0.0372">
        <ele>100.8</ele>
        <time>2022-04-03T16:09:00Z</time>
      </trkpt>
      <trkpt lat="46.03983" lon="0.0371">
        <ele>100.2</ele>
        <time>2022-04-03T16:09:01Z</time>
      </trkpt>
      <trkpt lat="46.03988" lon="0.037">
        <ele>99.6</ele>
        <time>2022-04-03T16:09:02Z</time>
      </trkpt>
      <trkpt lat="46.03993" lon="0.03691">
        <ele>98.8</ele>
        <time>2022-04-03T16:09:03Z</time>
      </trkpt>
      <trkpt lat="46.03997" lon="0.03682">
        <ele>98.8</ele>
        <time>2022-04-03T16:09:04Z</time>
      </trkpt>
      <trkpt lat="46.04001" lon="0.03674">
        <ele>98.4</ele>
        <time>2022-04-03T16:09:05Z</time>
      </trkpt>
      <trkpt lat="46.04005" lon="0.03666">
        <ele>98</ele>
        <time>2022-04-03T16:09:06Z</time>
      </trkpt>
      <trkpt lat="46.04009" lon="0.03659">
        <ele>98</ele>
        <time>2022-04-03T16:09:07Z</time>
      </trkpt>
      <trkpt lat="46.04012" lon="0.03652">
        <ele>97.8</ele>
        <time>2022-04-03T16:09:08Z</time>
      </trkpt>
      <trkpt lat="46.04015" lon="0.03647">
        <ele>98</ele>
        <time>2022-04-03T16:09:09Z</time>
      </trkpt>
      <trkpt lat="46.04018" lon="0.03642">
        <ele>98</ele>
        <time>2022-04-03T16:09:10Z</time>
      </trkpt>
      <trkpt lat="46.04021" lon="0.03637">
        <ele>98</ele>
        <time>2022-04-03T16:09:11Z</time>
      </trkpt>
      <trkpt lat="46.04023" lon="0.03633">
        <ele>98</ele>
        <time>2022-04-03T16:09:12Z</time>
      </trkpt>
      <trkpt lat="46.04025" lon="0.03629">
        <ele>98</ele>
        <time>2022-04-03T16:09:13Z</time>
      </trkpt>
      <trkpt lat="46.04027" lon="0.03625">
        <ele>97.8</ele>
        <time>2022-04-03T16:09:14Z</time>
      </trkpt>
      <trkpt lat="46.04029" lon="0.03622">
        <ele>98.2</ele>
        <time>2022-04-03T16:09:15Z</time>
      </trkpt>
      <trkpt lat="46.0403" lon="0.03618">
        <ele>98.4</ele>
        <time>2022-04-03T16:09:16Z</time>
      </trkpt>
      <trkpt lat="46.04032" lon="0.03615">
        <ele>99</ele>
        <time>2022-04-03T16:09:17Z</time>
      </trkpt>
      <trkpt lat="46.04034" lon="0.03612">
        <ele>99.6</ele>
        <time>2022-04-03T16:09:18Z</time>
      </trkpt>
      <trkpt lat="46.04035" lon="0.0361">
        <ele>100.2</ele>
        <time>2022-04-03T16:09:19Z</time>
      </trkpt>
      <trkpt lat="46.04037" lon="0.03607">
        <ele>100.8</ele>
        <time>2022-04-03T16:09:20Z</time>
      </trkpt>
      <trkpt lat="46.04038" lon="0.03605">
        <ele>101.2</ele>
        <time>2022-04-03T16:09:21Z</time>
      </trkpt>
      <trkpt lat="46.04039" lon="0.03602">
        <ele>101.6</ele>
        <time>2022-04-03T16:09:22Z</time>
      </trkpt>
      <trkpt lat="46.0404" lon="0.036">
        <ele>101.6</ele>
        <time>2022-04-03T16:09:23Z</time>
      </trkpt>
      <trkpt lat="46.04041" lon="0.03598">
        <ele>101.8</ele>
        <time>2022-04-03T16:09:24Z</time>
      </trkpt>
      <trkpt lat="46.04042" lon="0.03596">
        <ele>102</ele>
        <time>2022-04-03T16:09:25Z</time>
      </trkpt>
      <trkpt lat="46.04043" lon="0.03595">
        <ele>102.2</ele>
        <time>2022-04-03T16:09:26Z</time>
      </trkpt>
      <trkpt lat="46.04045" lon="0.03593">
        <ele>102.6</ele>
        <time>2022-04-03T16:09:27Z</time>
      </trkpt>
      <trkpt lat="46.04046" lon="0.03592">
        <ele>102.6</ele>
        <time>2022-04-03T16:09:28Z</time>
      </trkpt>
      <trkpt lat="46.04047" lon="0.0359">
        <ele>102.8</ele>
        <time>2022-04-03T16:09:29Z</time>
      </trkpt>
      <trkpt lat="46.04048" lon="0.03588">
        <ele>103.2</ele>
        <time>2022-04-03T16:09:30Z</time>
      </trkpt>
      <trkpt lat="46.04049" lon="0.03586">
        <ele>103.4</ele>
        <time>2022-04-03T16:09:31Z</time>
      </trkpt>
      <trkpt lat="46.0405" lon="0.03584">
        <ele>103.8</ele>
        <time>2022-04-03T16:09:32Z</time>
      </trkpt>
      <trkpt lat="46.04051" lon="0.03582">
        <ele>104</ele>
        <time>2022-04-03T16:09:33Z</time>
      </trkpt>
      <trkpt lat="46.04052" lon="0.0358">
        <ele>104</ele>
        <time>2022-04-03T16:09:34Z</time>
      </trkpt>
      <trkpt lat="46.04053" lon="0.03578">
        <ele>104.2</ele>
        <time>2022-04-03T16:09:35Z</time>
      </trkpt>
      <trkpt lat="46.04054" lon="0.03577">
        <ele>104.2</ele>
        <time>2022-04-03T16:09:36Z</time>
      </trkpt>
      <trkpt lat="46.04055" lon="0.03575">
        <ele>104.4</ele>
        <time>2022-04-03T16:09:37Z</time>
      </trkpt>
      <trkpt lat="46.04056" lon="0.03573">
        <ele>104.6</ele>
        <time>2022-04-03T16:09:38Z</time>
      </trkpt>
      <trkpt lat="46.04057" lon="0.03571">
        <ele>104.8</ele>
        <time>2022-04-03T16:09:39Z</time>
      </trkpt>
      <trkpt lat="46.04058" lon="0.03569">
        <ele>105</ele>
        <time>2022-04-03T16:09:40Z</time>
      </trkpt>
      <trkpt lat="46.04059" lon="0.03568">
        <ele>105</ele>
        <time>2022-04-03T16:09:41Z</time>
      </trkpt>
      <trkpt lat="46.0406" lon="0.03566">
        <ele>105.2</ele>
        <time>2022-04-03T16:09:42Z</time>
      </trkpt>
      <trkpt lat="46.04061" lon="0.03564">
        <ele>105.4</ele>
        <time>2022-04-03T16:09:43Z</time>
      </trkpt>
      <trkpt lat="46.04062" lon="0.03561">
        <ele>105.4</ele>
        <time>2022-04-03T16:09:44Z</time>
      </trkpt>
      <trkpt lat="46.04063" lon="0.03559">
        <ele>105.6</ele>
        <time>2022-04-03T16:09:45Z</time>
      </trkpt>
      <trkpt lat="46.04064" lon="0.03557">
        <ele>105.6</ele>
        <time>2022-04-03T16:09:46Z</time>
      </trkpt>
      <trkpt lat="46.04065" lon="0.03555">
        <ele>105.8</ele>
        <time>2022-04-03T16:09:47Z</time>
      </trkpt>
      <trkpt lat="46.04067" lon="0.03553">
        <ele>105.8</ele>
        <time>2022-04-03T16:09:48Z</time>
      </trkpt>
      <trkpt lat="46.04068" lon="0.03551">
        <ele>106</ele>
        <time>2022-04-03T16:09:49Z</time>
      </trkpt>
      <trkpt lat="46.04069" lon="0.03549">
        <ele>106.2</ele>
        <time>2022-04-03T16:09:50Z</time>
      </trkpt>
      <trkpt lat="46.0407" lon="0.03547">
        <ele>106.2</ele>
        <time>2022-04-03T16:09:51Z</time>
      </trkpt>
      <trkpt lat="46.04071" lon="0.03545">
        <ele>106.2</ele>
        <time>2022-04-03T16:09:52Z</time>
      </trkpt>
      <trkpt lat="46.04072" lon="0.03543">
        <ele>106.4</ele>
        <time>2022-04-03T16:09:53Z</time>
      </trkpt>
      <trkpt lat="46.04072" lon="0.03541">
        <ele>106.4</ele>
        <time>2022-04-03T16:09:54Z</time>
      </trkpt>
      <trkpt lat="46.04073" lon="0.03539">
        <ele>106.6</ele>
        <time>2022-04-03T16:09:55Z</time>
      </trkpt>
      <trkpt lat="46.04075" lon="0.03537">
        <ele>106.8</ele>
        <time>2022-04-03T16:09:56Z</time>
      </trkpt>
      <trkpt lat="46.04076" lon="0.03535">
        <ele>107</ele>
        <time>2022-04-03T16:09:57Z</time>
      </trkpt>
      <trkpt lat="46.04077" lon="0.03533">
        <ele>107.4</ele>
        <time>2022-04-03T16:09:58Z</time>
      </trkpt>
      <trkpt lat="46.04078" lon="0.03531">
        <ele>107.6</ele>
        <time>2022-04-03T16:09:59Z</time>
      </trkpt>
      <trkpt lat="46.04079" lon="0.03529">
        <ele>107.6</ele>
        <time>2022-04-03T16:10:00Z</time>
      </trkpt>
      <trkpt lat="46.0408" lon="0.03527">
        <ele>107.6</ele>
        <time>2022-04-03T16:10:01Z</time>
      </trkpt>
      <trkpt lat="46.04082" lon="0.03526">
        <ele>107.8</ele>
        <time>2022-04-03T16:10:02Z</time>
      </trkpt>
      <trkpt lat="46.04083" lon="0.03524">
        <ele>107.8</ele>
        <time>2022-04-03T16:10:03Z</time>
      </trkpt>
      <trkpt lat="46.04084" lon="0.03522">
        <ele>107.8</ele>
        <time>2022-04-03T16:10:04Z</time>
      </trkpt>
      <trkpt lat="46.04085" lon="0.0352">
        <ele>108</ele>
        <time>2022-04-03T16:10:05Z</time>
      </trkpt>
      <trkpt lat="46.04086" lon="0.03518">
        <ele>107.8</ele>
        <time>2022-04-03T16:10:06Z</time>
      </trkpt>
      <trkpt lat="46.04087" lon="0.03516">
        <ele>108</ele>
        <time>2022-04-03T16:10:07Z</time>
      </trkpt>
      <trkpt lat="46.04088" lon="0.03514">
        <ele>108.4</ele>
        <time>2022-04-03T16:10:08Z</time>
      </trkpt>
      <trkpt lat="46.04089" lon="0.03512">
        <ele>108.4</ele>
        <time>2022-04-03T16:10:09Z</time>
      </trkpt>
      <trkpt lat="46.0409" lon="0.03511">
        <ele>108.8</ele>
        <time>2022-04-03T16:10:10Z</time>
      </trkpt>
      <trkpt lat="46.04091" lon="0.03509">
        <ele>108.8</ele>
        <time>2022-04-03T16:10:11Z</time>
      </trkpt>
      <trkpt lat="46.04092" lon="0.03508">
        <ele>109.2</ele>
        <time>2022-04-03T16:10:12Z</time>
      </trkpt>
      <trkpt lat="46.04092" lon="0.03506">
        <ele>109.4</ele>
        <time>2022-04-03T16:10:13Z</time>
      </trkpt>
      <trkpt lat="46.04093" lon="0.03504">
        <ele>109.4</ele>
        <time>2022-04-03T16:10:14Z</time>
      </trkpt>
      <trkpt lat="46.04094" lon="0.03502">
        <ele>109.6</ele>
        <time>2022-04-03T16:10:15Z</time>
      </trkpt>
      <trkpt lat="46.04095" lon="0.03501">
        <ele>109.6</ele>
        <time>2022-04-03T16:10:16Z</time>
      </trkpt>
      <trkpt lat="46.04096" lon="0.03499">
        <ele>109.8</ele>
        <time>2022-04-03T16:10:17Z</time>
      </trkpt>
      <trkpt lat="46.04097" lon="0.03498">
        <ele>110</ele>
        <time>2022-04-03T16:10:18Z</time>
      </trkpt>
      <trkpt lat="46.04098" lon="0.03496">
        <ele>110</ele>
        <time>2022-04-03T16:10:19Z</time>
      </trkpt>
      <trkpt lat="46.04099" lon="0.03495">
        <ele>110</ele>
        <time>2022-04-03T16:10:20Z</time>
      </trkpt>
      <trkpt lat="46.04101" lon="0.03493">
        <ele>110.2</ele>
        <time>2022-04-03T16:10:21Z</time>
      </trkpt>
      <trkpt lat="46.04102" lon="0.03492">
        <ele>110.4</ele>
        <time>2022-04-03T16:10:22Z</time>
      </trkpt>
      <trkpt lat="46.04103" lon="0.0349">
        <ele>110.6</ele>
        <time>2022-04-03T16:10:23Z</time>
      </trkpt>
      <trkpt lat="46.04104" lon="0.03488">
        <ele>110.8</ele>
        <time>2022-04-03T16:10:24Z</time>
      </trkpt>
      <trkpt lat="46.04105" lon="0.03486">
        <ele>110.8</ele>
        <time>2022-04-03T16:10:25Z</time>
      </trkpt>
      <trkpt lat="46.04106" lon="0.03485">
        <ele>111</ele>
        <time>2022-04-03T16:10:26Z</time>
      </trkpt>
      <trkpt lat="46.04107" lon="0.03483">
        <ele>111</ele>
        <time>2022-04-03T16:10:27Z</time>
      </trkpt>
      <trkpt lat="46.04108" lon="0.03482">
        <ele>111</ele>
        <time>2022-04-03T16:10:28Z</time>
      </trkpt>
      <trkpt lat="46.04109" lon="0.0348">
        <ele>111</ele>
        <time>2022-04-03T16:10:29Z</time>
      </trkpt>
      <trkpt lat="46.0411" lon="0.03479">
        <ele>111.2</ele>
        <time>2022-04-03T16:10:30Z</time>
      </trkpt>
      <trkpt lat="46.04111" lon="0.03477">
        <ele>111.4</ele>
        <time>2022-04-03T16:10:31Z</time>
      </trkpt>
      <trkpt lat="46.04112" lon="0.03475">
        <ele>111.8</ele>
        <time>2022-04-03T16:10:32Z</time>
      </trkpt>
      <trkpt lat="46.04113" lon="0.03474">
        <ele>111.8</ele>
        <time>2022-04-03T16:10:33Z</time>
      </trkpt>
      <trkpt lat="46.04114" lon="0.03473">
        <ele>112</ele>
        <time>2022-04-03T16:10:34Z</time>
      </trkpt>
      <trkpt lat="46.04115" lon="0.03471">
        <ele>112</ele>
        <time>2022-04-03T16:10:35Z</time>
      </trkpt>
      <trkpt lat="46.04116" lon="0.0347">
        <ele>112.2</ele>
        <time>2022-04-03T16:10:36Z</time>
      </trkpt>
      <trkpt lat="46.04117" lon="0.03468">
        <ele>112.2</ele>
        <time>2022-04-03T16:10:37Z</time>
      </trkpt>
      <trkpt lat="46.04119" lon="0.03467">
        <ele>112.2</ele>
        <time>2022-04-03T16:10:38Z</time>
      </trkpt>
      <trkpt lat="46.0412" lon="0.03465">
        <ele>112.4</ele>
        <time>2022-04-03T16:10:39Z</time>
      </trkpt>
      <trkpt lat="46.04121" lon="0.03464">
        <ele>112.6</ele>
        <time>2022-04-03T16:10:40Z</time>
      </trkpt>
      <trkpt lat="46.04122" lon="0.03462">
        <ele>112.8</ele>
        <time>2022-04-03T16:10:41Z</time>
      </trkpt>
      <trkpt lat="46.04123" lon="0.03461">
        <ele>112.8</ele>
        <time>2022-04-03T16:10:42Z</time>
      </trkpt>
      <trkpt lat="46.04124" lon="0.03459">
        <ele>113</ele>
        <time>2022-04-03T16:10:43Z</time>
      </trkpt>
      <trkpt lat="46.04125" lon="0.03458">
        <ele>113</ele>
        <time>2022-04-03T16:10:44Z</time>
      </trkpt>
      <trkpt lat="46.04126" lon="0.03456">
        <ele>113.2</ele>
        <time>2022-04-03T16:10:45Z</time>
      </trkpt>
      <trkpt lat="46.04128" lon="0.03455">
        <ele>113.2</ele>
        <time>2022-04-03T16:10:46Z</time>
      </trkpt>
      <trkpt lat="46.04129" lon="0.03453">
        <ele>113.2</ele>
        <time>2022-04-03T16:10:47Z</time>
      </trkpt>
      <trkpt lat="46.0413" lon="0.03452">
        <ele>113.6</ele>
        <time>2022-04-03T16:10:48Z</time>
      </trkpt>
      <trkpt lat="46.04131" lon="0.0345">
        <ele>113.6</ele>
        <time>2022-04-03T16:10:49Z</time>
      </trkpt>
      <trkpt lat="46.04132" lon="0.03448">
        <ele>113.6</ele>
        <time>2022-04-03T16:10:50Z</time>
      </trkpt>
      <trkpt lat="46.04133" lon="0.03447">
        <ele>113.6</ele>
        <time>2022-04-03T16:10:51Z</time>
      </trkpt>
      <trkpt lat="46.04134" lon="0.03446">
        <ele>113.6</ele>
        <time>2022-04-03T16:10:52Z</time>
      </trkpt>
      <trkpt lat="46.04135" lon="0.03444">
        <ele>113.6</ele>
        <time>2022-04-03T16:10:53Z</time>
      </trkpt>
      <trkpt lat="46.04137" lon="0.03443">
        <ele>113.6</ele>
        <time>2022-04-03T16:10:54Z</time>
      </trkpt>
      <trkpt lat="46.04138" lon="0.03441">
        <ele>113.8</ele>
        <time>2022-04-03T16:10:55Z</time>
      </trkpt>
      <trkpt lat="46.04139" lon="0.0344">
        <ele>113.8</ele>
        <time>2022-04-03T16:10:56Z</time>
      </trkpt>
      <trkpt lat="46.0414" lon="0.03439">
        <ele>113.8</ele>
        <time>2022-04-03T16:10:57Z</time>
      </trkpt>
      <trkpt lat="46.04142" lon="0.03437">
        <ele>114</ele>
        <time>2022-04-03T16:10:58Z</time>
      </trkpt>
      <trkpt lat="46.04143" lon="0.03436">
        <ele>114</ele>
        <time>2022-04-03T16:10:59Z</time>
      </trkpt>
      <trkpt lat="46.04144" lon="0.03434">
        <ele>114</ele>
        <time>2022-04-03T16:11:00Z</time>
      </trkpt>
      <trkpt lat="46.04146" lon="0.03433">
        <ele>114.2</ele>
        <time>2022-04-03T16:11:01Z</time>
      </trkpt>
      <trkpt lat="46.04147" lon="0.03431">
        <ele>114.2</ele>
        <time>2022-04-03T16:11:02Z</time>
      </trkpt>
      <trkpt lat="46.04148" lon="0.0343">
        <ele>114.4</ele>
        <time>2022-04-03T16:11:03Z</time>
      </trkpt>
      <trkpt lat="46.04149" lon="0.03428">
        <ele>114.6</ele>
        <time>2022-04-03T16:11:04Z</time>
      </trkpt>
      <trkpt lat="46.0415" lon="0.03427">
        <ele>114.8</ele>
        <time>2022-04-03T16:11:05Z</time>
      </trkpt>
      <trkpt lat="46.04152" lon="0.03426">
        <ele>114.8</ele>
        <time>2022-04-03T16:11:06Z</time>
      </trkpt>
      <trkpt lat="46.04153" lon="0.03424">
        <ele>115</ele>
        <time>2022-04-03T16:11:07Z</time>
      </trkpt>
      <trkpt lat="46.04154" lon="0.03423">
        <ele>115.2</ele>
        <time>2022-04-03T16:11:08Z</time>
      </trkpt>
      <trkpt lat="46.04156" lon="0.03421">
        <ele>115.2</ele>
        <time>2022-04-03T16:11:09Z</time>
      </trkpt>
      <trkpt lat="46.04157" lon="0.0342">
        <ele>115.4</ele>
        <time>2022-04-03T16:11:10Z</time>
      </trkpt>
      <trkpt lat="46.04158" lon="0.03418">
        <ele>115.4</ele>
        <time>2022-04-03T16:11:11Z</time>
      </trkpt>
      <trkpt lat="46.04159" lon="0.03417">
        <ele>115.6</ele>
        <time>2022-04-03T16:11:12Z</time>
      </trkpt>
      <trkpt lat="46.04161" lon="0.03415">
        <ele>115.6</ele>
        <time>2022-04-03T16:11:13Z</time>
      </trkpt>
      <trkpt lat="46.04162" lon="0.03414">
        <ele>116</ele>
        <time>2022-04-03T16:11:14Z</time>
      </trkpt>
      <trkpt lat="46.04164" lon="0.03413">
        <ele>116.2</ele>
        <time>2022-04-03T16:11:15Z</time>
      </trkpt>
      <trkpt lat="46.04165" lon="0.03411">
        <ele>116.2</ele>
        <time>2022-04-03T16:11:16Z</time>
      </trkpt>
      <trkpt lat="46.04167" lon="0.0341">
        <ele>116.4</ele>
        <time>2022-04-03T16:11:17Z</time>
      </trkpt>
      <trkpt lat="46.04168" lon="0.03408">
        <ele>116.4</ele>
        <time>2022-04-03T16:11:18Z</time>
      </trkpt>
      <trkpt lat="46.0417" lon="0.03406">
        <ele>116.8</ele>
        <time>2022-04-03T16:11:19Z</time>
      </trkpt>
      <trkpt lat="46.04172" lon="0.03405">
        <ele>116.8</ele>
        <time>2022-04-03T16:11:20Z</time>
      </trkpt>
      <trkpt lat="46.04173" lon="0.03403">
        <ele>116.8</ele>
        <time>2022-04-03T16:11:21Z</time>
      </trkpt>
      <trkpt lat="46.04175" lon="0.03401">
        <ele>117</ele>
        <time>2022-04-03T16:11:22Z</time>
      </trkpt>
      <trkpt lat="46.04177" lon="0.034">
        <ele>117</ele>
        <time>2022-04-03T16:11:23Z</time>
      </trkpt>
      <trkpt lat="46.04178" lon="0.03398">
        <ele>117.2</ele>
        <time>2022-04-03T16:11:24Z</time>
      </trkpt>
      <trkpt lat="46.0418" lon="0.03396">
        <ele>117.2</ele>
        <time>2022-04-03T16:11:25Z</time>
      </trkpt>
      <trkpt lat="46.04182" lon="0.03395">
        <ele>117.2</ele>
        <time>2022-04-03T16:11:26Z</time>
      </trkpt>
      <trkpt lat="46.04184" lon="0.03393">
        <ele>117.2</ele>
        <time>2022-04-03T16:11:27Z</time>
      </trkpt>
      <trkpt lat="46.04185" lon="0.03391">
        <ele>117.2</ele>
        <time>2022-04-03T16:11:28Z</time>
      </trkpt>
      <trkpt lat="46.04187" lon="0.03389">
        <ele>117.4</ele>
        <time>2022-04-03T16:11:29Z</time>
      </trkpt>
      <trkpt lat="46.04189" lon="0.03388">
        <ele>117.6</ele>
        <time>2022-04-03T16:11:30Z</time>
      </trkpt>
      <trkpt lat="46.04191" lon="0.03386">
        <ele>117.8</ele>
        <time>2022-04-03T16:11:31Z</time>
      </trkpt>
      <trkpt lat="46.04193" lon="0.03384">
        <ele>117.8</ele>
        <time>2022-04-03T16:11:32Z</time>
      </trkpt>
      <trkpt lat="46.04194" lon="0.03382">
        <ele>118</ele>
        <time>2022-04-03T16:11:33Z</time>
      </trkpt>
      <trkpt lat="46.04196" lon="0.03381">
        <ele>118</ele>
        <time>2022-04-03T16:11:34Z</time>
      </trkpt>
      <trkpt lat="46.04198" lon="0.03379">
        <ele>118</ele>
        <time>2022-04-03T16:11:35Z</time>
      </trkpt>
      <trkpt lat="46.042" lon="0.03377">
        <ele>118</ele>
        <time>2022-04-03T16:11:36Z</time>
      </trkpt>
      <trkpt lat="46.04202" lon="0.03375">
        <ele>118</ele>
        <time>2022-04-03T16:11:37Z</time>
      </trkpt>
      <trkpt lat="46.04204" lon="0.03374">
        <ele>118.2</ele>
        <time>2022-04-03T16:11:38Z</time>
      </trkpt>
      <trkpt lat="46.04205" lon="0.03372">
        <ele>118.6</ele>
        <time>2022-04-03T16:11:39Z</time>
      </trkpt>
      <trkpt lat="46.04207" lon="0.0337">
        <ele>118.6</ele>
        <time>2022-04-03T16:11:40Z</time>
      </trkpt>
      <trkpt lat="46.04209" lon="0.03368">
        <ele>118.8</ele>
        <time>2022-04-03T16:11:41Z</time>
      </trkpt>
      <trkpt lat="46.04211" lon="0.03366">
        <ele>119</ele>
        <time>2022-04-03T16:11:42Z</time>
      </trkpt>
      <trkpt lat="46.04213" lon="0.03365">
        <ele>119</ele>
        <time>2022-04-03T16:11:43Z</time>
      </trkpt>
      <trkpt lat="46.04215" lon="0.03363">
        <ele>119</ele>
        <time>2022-04-03T16:11:44Z</time>
      </trkpt>
      <trkpt lat="46.04217" lon="0.03361">
        <ele>119.2</ele>
        <time>2022-04-03T16:11:45Z</time>
      </trkpt>
      <trkpt lat="46.04219" lon="0.03359">
        <ele>119.2</ele>
        <time>2022-04-03T16:11:46Z</time>
      </trkpt>
      <trkpt lat="46.04221" lon="0.03357">
        <ele>119.2</ele>
        <time>2022-04-03T16:11:47Z</time>
      </trkpt>
      <trkpt lat="46.04222" lon="0.03355">
        <ele>119.4</ele>
        <time>2022-04-03T16:11:48Z</time>
      </trkpt>
      <trkpt lat="46.04224" lon="0.03353">
        <ele>119.6</ele>
        <time>2022-04-03T16:11:49Z</time>
      </trkpt>
      <trkpt lat="46.04226" lon="0.03351">
        <ele>119.8</ele>
        <time>2022-04-03T16:11:50Z</time>
      </trkpt>
      <trkpt lat="46.04228" lon="0.0335">
        <ele>119.8</ele>
        <time>2022-04-03T16:11:51Z</time>
      </trkpt>
      <trkpt lat="46.0423" lon="0.03348">
        <ele>120</ele>
        <time>2022-04-03T16:11:52Z</time>
      </trkpt>
      <trkpt lat="46.04232" lon="0.03346">
        <ele>120</ele>
        <time>2022-04-03T16:11:53Z</time>
      </trkpt>
      <trkpt lat="46.04234" lon="0.03344">
        <ele>120</ele>
        <time>2022-04-03T16:11:54Z</time>
      </trkpt>
      <trkpt lat="46.04236" lon="0.03342">
        <ele>120</ele>
        <time>2022-04-03T16:11:55Z</time>
      </trkpt>
      <trkpt lat="46.04238" lon="0.0334">
        <ele>120.2</ele>
        <time>2022-04-03T16:11:56Z</time>
      </trkpt>
      <trkpt lat="46.0424" lon="0.03338">
        <ele>120.2</ele>
        <time>2022-04-03T16:11:57Z</time>
      </trkpt>
      <trkpt lat="46.04242" lon="0.03336">
        <ele>120.4</ele>
        <time>2022-04-03T16:11:58Z</time>
      </trkpt>
      <trkpt lat="46.04244" lon="0.03335">
        <ele>120.6</ele>
        <time>2022-04-03T16:11:59Z</time>
      </trkpt>
      <trkpt lat="46.04246" lon="0.03333">
        <ele>120.6</ele>
        <time>2022-04-03T16:12:00Z</time>
      </trkpt>
      <trkpt lat="46.04248" lon="0.03331">
        <ele>120.8</ele>
        <time>2022-04-03T16:12:01Z</time>
      </trkpt>
      <trkpt lat="46.0425" lon="0.03329">
        <ele>121</ele>
        <time>2022-04-03T16:12:02Z</time>
      </trkpt>
      <trkpt lat="46.04252" lon="0.03327">
        <ele>121.2</ele>
        <time>2022-04-03T16:12:03Z</time>
      </trkpt>
      <trkpt lat="46.04254" lon="0.03325">
        <ele>121.2</ele>
        <time>2022-04-03T16:12:04Z</time>
      </trkpt>
      <trkpt lat="46.04256" lon="0.03323">
        <ele>121.6</ele>
        <time>2022-04-03T16:12:05Z</time>
      </trkpt>
      <trkpt lat="46.04258" lon="0.03321">
        <ele>121.6</ele>
        <time>2022-04-03T16:12:06Z</time>
      </trkpt>
      <trkpt lat="46.0426" lon="0.03319">
        <ele>121.8</ele>
        <time>2022-04-03T16:12:07Z</time>
      </trkpt>
      <trkpt lat="46.04262" lon="0.03317">
        <ele>122</ele>
        <time>2022-04-03T16:12:08Z</time>
      </trkpt>
      <trkpt lat="46.04264" lon="0.03315">
        <ele>122</ele>
        <time>2022-04-03T16:12:09Z</time>
      </trkpt>
      <trkpt lat="46.04267" lon="0.03313">
        <ele>122.2</ele>
        <time>2022-04-03T16:12:10Z</time>
      </trkpt>
      <trkpt lat="46.04269" lon="0.0331">
        <ele>122.2</ele>
        <time>2022-04-03T16:12:11Z</time>
      </trkpt>
      <trkpt lat="46.04271" lon="0.03308">
        <ele>122.4</ele>
        <time>2022-04-03T16:12:12Z</time>
      </trkpt>
      <trkpt lat="46.04273" lon="0.03306">
        <ele>122.4</ele>
        <time>2022-04-03T16:12:13Z</time>
      </trkpt>
      <trkpt lat="46.04276" lon="0.03304">
        <ele>122.4</ele>
        <time>2022-04-03T16:12:14Z</time>
      </trkpt>
      <trkpt lat="46.04278" lon="0.03301">
        <ele>122.6</ele>
        <time>2022-04-03T16:12:15Z</time>
      </trkpt>
      <trkpt lat="46.04281" lon="0.03299">
        <ele>122.6</ele>
        <time>2022-04-03T16:12:16Z</time>
      </trkpt>
      <trkpt lat="46.04283" lon="0.03296">
        <ele>122.6</ele>
        <time>2022-04-03T16:12:17Z</time>
      </trkpt>
      <trkpt lat="46.04286" lon="0.03293">
        <ele>122.6</ele>
        <time>2022-04-03T16:12:18Z</time>
      </trkpt>
      <trkpt lat="46.04288" lon="0.03291">
        <ele>122.8</ele>
        <time>2022-04-03T16:12:19Z</time>
      </trkpt>
      <trkpt lat="46.04291" lon="0.03288">
        <ele>122.8</ele>
        <time>2022-04-03T16:12:20Z</time>
      </trkpt>
      <trkpt lat="46.04294" lon="0.03286">
        <ele>122.8</ele>
        <time>2022-04-03T16:12:21Z</time>
      </trkpt>
      <trkpt lat="46.04296" lon="0.03283">
        <ele>122.8</ele>
        <time>2022-04-03T16:12:22Z</time>
      </trkpt>
      <trkpt lat="46.04299" lon="0.03281">
        <ele>123</ele>
        <time>2022-04-03T16:12:23Z</time>
      </trkpt>
      <trkpt lat="46.04302" lon="0.03278">
        <ele>123</ele>
        <time>2022-04-03T16:12:24Z</time>
      </trkpt>
      <trkpt lat="46.04304" lon="0.03276">
        <ele>123.2</ele>
        <time>2022-04-03T16:12:25Z</time>
      </trkpt>
      <trkpt lat="46.04307" lon="0.03273">
        <ele>123.2</ele>
        <time>2022-04-03T16:12:26Z</time>
      </trkpt>
      <trkpt lat="46.04309" lon="0.0327">
        <ele>123.4</ele>
        <time>2022-04-03T16:12:27Z</time>
      </trkpt>
      <trkpt lat="46.04312" lon="0.03267">
        <ele>123.4</ele>
        <time>2022-04-03T16:12:28Z</time>
      </trkpt>
      <trkpt lat="46.04314" lon="0.03264">
        <ele>123.4</ele>
        <time>2022-04-03T16:12:29Z</time>
      </trkpt>
      <trkpt lat="46.04317" lon="0.03262">
        <ele>123.6</ele>
        <time>2022-04-03T16:12:30Z</time>
      </trkpt>
      <trkpt lat="46.04319" lon="0.03259">
        <ele>123.8</ele>
        <time>2022-04-03T16:12:31Z</time>
      </trkpt>
      <trkpt lat="46.04322" lon="0.03257">
        <ele>123.8</ele>
        <time>2022-04-03T16:12:32Z</time>
      </trkpt>
      <trkpt lat="46.04324" lon="0.03254">
        <ele>124</ele>
        <time>2022-04-03T16:12:33Z</time>
      </trkpt>
      <trkpt lat="46.04327" lon="0.03252">
        <ele>124</ele>
        <time>2022-04-03T16:12:34Z</time>
      </trkpt>
      <trkpt lat="46.0433" lon="0.0325">
        <ele>124.2</ele>
        <time>2022-04-03T16:12:35Z</time>
      </trkpt>
      <trkpt lat="46.04333" lon="0.03247">
        <ele>124.2</ele>
        <time>2022-04-03T16:12:36Z</time>
      </trkpt>
      <trkpt lat="46.04336" lon="0.03244">
        <ele>124.2</ele>
        <time>2022-04-03T16:12:37Z</time>
      </trkpt>
      <trkpt lat="46.04339" lon="0.03242">
        <ele>124.4</ele>
        <time>2022-04-03T16:12:38Z</time>
      </trkpt>
      <trkpt lat="46.04342" lon="0.03239">
        <ele>124.6</ele>
        <time>2022-04-03T16:12:39Z</time>
      </trkpt>
      <trkpt lat="46.04344" lon="0.03236">
        <ele>124.6</ele>
        <time>2022-04-03T16:12:40Z</time>
      </trkpt>
      <trkpt lat="46.04347" lon="0.03233">
        <ele>124.8</ele>
        <time>2022-04-03T16:12:41Z</time>
      </trkpt>
      <trkpt lat="46.0435" lon="0.03231">
        <ele>125</ele>
        <time>2022-04-03T16:12:42Z</time>
      </trkpt>
      <trkpt lat="46.04352" lon="0.03228">
        <ele>125</ele>
        <time>2022-04-03T16:12:43Z</time>
      </trkpt>
      <trkpt lat="46.04355" lon="0.03226">
        <ele>125</ele>
        <time>2022-04-03T16:12:44Z</time>
      </trkpt>
      <trkpt lat="46.04358" lon="0.03223">
        <ele>125.2</ele>
        <time>2022-04-03T16:12:45Z</time>
      </trkpt>
      <trkpt lat="46.04361" lon="0.0322">
        <ele>125.2</ele>
        <time>2022-04-03T16:12:46Z</time>
      </trkpt>
      <trkpt lat="46.04364" lon="0.03217">
        <ele>125.2</ele>
        <time>2022-04-03T16:12:47Z</time>
      </trkpt>
      <trkpt lat="46.04367" lon="0.03215">
        <ele>125.2</ele>
        <time>2022-04-03T16:12:48Z</time>
      </trkpt>
      <trkpt lat="46.0437" lon="0.03212">
        <ele>125.2</ele>
        <time>2022-04-03T16:12:49Z</time>
      </trkpt>
      <trkpt lat="46.04372" lon="0.03209">
        <ele>125.4</ele>
        <time>2022-04-03T16:12:50Z</time>
      </trkpt>
      <trkpt lat="46.04375" lon="0.03207">
        <ele>125.4</ele>
        <time>2022-04-03T16:12:51Z</time>
      </trkpt>
      <trkpt lat="46.04378" lon="0.03204">
        <ele>125.4</ele>
        <time>2022-04-03T16:12:52Z</time>
      </trkpt>
      <trkpt lat="46.04381" lon="0.03201">
        <ele>125.4</ele>
        <time>2022-04-03T16:12:53Z</time>
      </trkpt>
      <trkpt lat="46.04384" lon="0.03198">
        <ele>125.4</ele>
        <time>2022-04-03T16:12:54Z</time>
      </trkpt>
      <trkpt lat="46.04387" lon="0.03195">
        <ele>125.6</ele>
        <time>2022-04-03T16:12:55Z</time>
      </trkpt>
      <trkpt lat="46.0439" lon="0.03192">
        <ele>125.6</ele>
        <time>2022-04-03T16:12:56Z</time>
      </trkpt>
      <trkpt lat="46.04393" lon="0.0319">
        <ele>125.4</ele>
        <time>2022-04-03T16:12:57Z</time>
      </trkpt>
      <trkpt lat="46.04396" lon="0.03187">
        <ele>125.4</ele>
        <time>2022-04-03T16:12:58Z</time>
      </trkpt>
      <trkpt lat="46.04399" lon="0.03184">
        <ele>125.6</ele>
        <time>2022-04-03T16:12:59Z</time>
      </trkpt>
      <trkpt lat="46.04401" lon="0.03181">
        <ele>125.4</ele>
        <time>2022-04-03T16:13:00Z</time>
      </trkpt>
      <trkpt lat="46.04404" lon="0.03178">
        <ele>125.4</ele>
        <time>2022-04-03T16:13:01Z</time>
      </trkpt>
      <trkpt lat="46.04407" lon="0.03176">
        <ele>125.4</ele>
        <time>2022-04-03T16:13:02Z</time>
      </trkpt>
      <trkpt lat="46.0441" lon="0.03173">
        <ele>125.4</ele>
        <time>2022-04-03T16:13:03Z</time>
      </trkpt>
      <trkpt lat="46.04413" lon="0.0317">
        <ele>125.6</ele>
        <time>2022-04-03T16:13:04Z</time>
      </trkpt>
      <trkpt lat="46.04416" lon="0.03167">
        <ele>125.6</ele>
        <time>2022-04-03T16:13:05Z</time>
      </trkpt>
      <trkpt lat="46.04418" lon="0.03164">
        <ele>125.6</ele>
        <time>2022-04-03T16:13:06Z</time>
      </trkpt>
      <trkpt lat="46.04422" lon="0.03161">
        <ele>125.8</ele>
        <time>2022-04-03T16:13:07Z</time>
      </trkpt>
      <trkpt lat="46.04425" lon="0.03159">
        <ele>125.8</ele>
        <time>2022-04-03T16:13:08Z</time>
      </trkpt>
      <trkpt lat="46.04428" lon="0.03156">
        <ele>125.8</ele>
        <time>2022-04-03T16:13:09Z</time>
      </trkpt>
      <trkpt lat="46.0443" lon="0.03153">
        <ele>125.8</ele>
        <time>2022-04-03T16:13:10Z</time>
      </trkpt>
      <trkpt lat="46.04433" lon="0.0315">
        <ele>125.8</ele>
        <time>2022-04-03T16:13:11Z</time>
      </trkpt>
      <trkpt lat="46.04436" lon="0.03147">
        <ele>126</ele>
        <time>2022-04-03T16:13:12Z</time>
      </trkpt>
      <trkpt lat="46.04439" lon="0.03145">
        <ele>126</ele>
        <time>2022-04-03T16:13:13Z</time>
      </trkpt>
      <trkpt lat="46.04442" lon="0.03142">
        <ele>125.8</ele>
        <time>2022-04-03T16:13:14Z</time>
      </trkpt>
      <trkpt lat="46.04445" lon="0.03139">
        <ele>126.2</ele>
        <time>2022-04-03T16:13:15Z</time>
      </trkpt>
      <trkpt lat="46.04448" lon="0.03136">
        <ele>126.2</ele>
        <time>2022-04-03T16:13:16Z</time>
      </trkpt>
      <trkpt lat="46.0445" lon="0.03133">
        <ele>126.2</ele>
        <time>2022-04-03T16:13:17Z</time>
      </trkpt>
      <trkpt lat="46.04453" lon="0.0313">
        <ele>126.4</ele>
        <time>2022-04-03T16:13:18Z</time>
      </trkpt>
      <trkpt lat="46.04456" lon="0.03128">
        <ele>126.4</ele>
        <time>2022-04-03T16:13:19Z</time>
      </trkpt>
      <trkpt lat="46.04459" lon="0.03125">
        <ele>126.6</ele>
        <time>2022-04-03T16:13:20Z</time>
      </trkpt>
      <trkpt lat="46.04462" lon="0.03122">
        <ele>126.8</ele>
        <time>2022-04-03T16:13:21Z</time>
      </trkpt>
      <trkpt lat="46.04465" lon="0.03119">
        <ele>126.8</ele>
        <time>2022-04-03T16:13:22Z</time>
      </trkpt>
      <trkpt lat="46.04468" lon="0.03116">
        <ele>126.8</ele>
        <time>2022-04-03T16:13:23Z</time>
      </trkpt>
      <trkpt lat="46.04471" lon="0.03113">
        <ele>127</ele>
        <time>2022-04-03T16:13:24Z</time>
      </trkpt>
      <trkpt lat="46.04474" lon="0.0311">
        <ele>127</ele>
        <time>2022-04-03T16:13:25Z</time>
      </trkpt>
      <trkpt lat="46.04477" lon="0.03107">
        <ele>127.2</ele>
        <time>2022-04-03T16:13:26Z</time>
      </trkpt>
      <trkpt lat="46.04479" lon="0.03104">
        <ele>127.4</ele>
        <time>2022-04-03T16:13:27Z</time>
      </trkpt>
      <trkpt lat="46.04482" lon="0.03101">
        <ele>127.4</ele>
        <time>2022-04-03T16:13:28Z</time>
      </trkpt>
      <trkpt lat="46.04485" lon="0.03099">
        <ele>127.4</ele>
        <time>2022-04-03T16:13:29Z</time>
      </trkpt>
      <trkpt lat="46.04488" lon="0.03096">
        <ele>127.4</ele>
        <time>2022-04-03T16:13:30Z</time>
      </trkpt>
      <trkpt lat="46.04491" lon="0.03093">
        <ele>127.6</ele>
        <time>2022-04-03T16:13:31Z</time>
      </trkpt>
      <trkpt lat="46.04494" lon="0.0309">
        <ele>127.6</ele>
        <time>2022-04-03T16:13:32Z</time>
      </trkpt>
      <trkpt lat="46.04497" lon="0.03087">
        <ele>127.6</ele>
        <time>2022-04-03T16:13:33Z</time>
      </trkpt>
      <trkpt lat="46.045" lon="0.03084">
        <ele>127.8</ele>
        <time>2022-04-03T16:13:34Z</time>
      </trkpt>
      <trkpt lat="46.04503" lon="0.03082">
        <ele>128</ele>
        <time>2022-04-03T16:13:35Z</time>
      </trkpt>
      <trkpt lat="46.04506" lon="0.03079">
        <ele>128.4</ele>
        <time>2022-04-03T16:13:36Z</time>
      </trkpt>
      <trkpt lat="46.04509" lon="0.03076">
        <ele>128.4</ele>
        <time>2022-04-03T16:13:37Z</time>
      </trkpt>
      <trkpt lat="46.04512" lon="0.03073">
        <ele>128.6</ele>
        <time>2022-04-03T16:13:38Z</time>
      </trkpt>
      <trkpt lat="46.04516" lon="0.0307">
        <ele>128.6</ele>
        <time>2022-04-03T16:13:39Z</time>
      </trkpt>
      <trkpt lat="46.04519" lon="0.03067">
        <ele>128.8</ele>
        <time>2022-04-03T16:13:40Z</time>
      </trkpt>
      <trkpt lat="46.04522" lon="0.03064">
        <ele>128.8</ele>
        <time>2022-04-03T16:13:41Z</time>
      </trkpt>
      <trkpt lat="46.04525" lon="0.03061">
        <ele>128.8</ele>
        <time>2022-04-03T16:13:42Z</time>
      </trkpt>
      <trkpt lat="46.04528" lon="0.03057">
        <ele>128.8</ele>
        <time>2022-04-03T16:13:43Z</time>
      </trkpt>
      <trkpt lat="46.04532" lon="0.03054">
        <ele>128.8</ele>
        <time>2022-04-03T16:13:44Z</time>
      </trkpt>
      <trkpt lat="46.04535" lon="0.03051">
        <ele>129</ele>
        <time>2022-04-03T16:13:45Z</time>
      </trkpt>
      <trkpt lat="46.04538" lon="0.03048">
        <ele>129</ele>
        <time>2022-04-03T16:13:46Z</time>
      </trkpt>
      <trkpt lat="46.04541" lon="0.03045">
        <ele>129</ele>
        <time>2022-04-03T16:13:47Z</time>
      </trkpt>
      <trkpt lat="46.04544" lon="0.03042">
        <ele>129</ele>
        <time>2022-04-03T16:13:48Z</time>
      </trkpt>
      <trkpt lat="46.04547" lon="0.03039">
        <ele>129</ele>
        <time>2022-04-03T16:13:49Z</time>
      </trkpt>
      <trkpt lat="46.04551" lon="0.03036">
        <ele>129</ele>
        <time>2022-04-03T16:13:50Z</time>
      </trkpt>
      <trkpt lat="46.04554" lon="0.03033">
        <ele>129</ele>
        <time>2022-04-03T16:13:51Z</time>
      </trkpt>
      <trkpt lat="46.04557" lon="0.0303">
        <ele>129</ele>
        <time>2022-04-03T16:13:52Z</time>
      </trkpt>
      <trkpt lat="46.0456" lon="0.03027">
        <ele>129</ele>
        <time>2022-04-03T16:13:53Z</time>
      </trkpt>
      <trkpt lat="46.04563" lon="0.03024">
        <ele>129</ele>
        <time>2022-04-03T16:13:54Z</time>
      </trkpt>
      <trkpt lat="46.04566" lon="0.03021">
        <ele>128.8</ele>
        <time>2022-04-03T16:13:55Z</time>
      </trkpt>
      <trkpt lat="46.04569" lon="0.03018">
        <ele>129</ele>
        <time>2022-04-03T16:13:56Z</time>
      </trkpt>
      <trkpt lat="46.04572" lon="0.03015">
        <ele>129</ele>
        <time>2022-04-03T16:13:57Z</time>
      </trkpt>
      <trkpt lat="46.04575" lon="0.03012">
        <ele>129</ele>
        <time>2022-04-03T16:13:58Z</time>
      </trkpt>
      <trkpt lat="46.04578" lon="0.03009">
        <ele>129</ele>
        <time>2022-04-03T16:13:59Z</time>
      </trkpt>
      <trkpt lat="46.04582" lon="0.03006">
        <ele>129</ele>
        <time>2022-04-03T16:14:00Z</time>
      </trkpt>
      <trkpt lat="46.04584" lon="0.03003">
        <ele>129</ele>
        <time>2022-04-03T16:14:01Z</time>
      </trkpt>
      <trkpt lat="46.04587" lon="0.03001">
        <ele>129.2</ele>
        <time>2022-04-03T16:14:02Z</time>
      </trkpt>
      <trkpt lat="46.04591" lon="0.02998">
        <ele>129.2</ele>
        <time>2022-04-03T16:14:03Z</time>
      </trkpt>
      <trkpt lat="46.04594" lon="0.02995">
        <ele>129</ele>
        <time>2022-04-03T16:14:04Z</time>
      </trkpt>
      <trkpt lat="46.04597" lon="0.02992">
        <ele>128.8</ele>
        <time>2022-04-03T16:14:05Z</time>
      </trkpt>
      <trkpt lat="46.046" lon="0.02989">
        <ele>128.8</ele>
        <time>2022-04-03T16:14:06Z</time>
      </trkpt>
      <trkpt lat="46.04603" lon="0.02986">
        <ele>129</ele>
        <time>2022-04-03T16:14:07Z</time>
      </trkpt>
      <trkpt lat="46.04606" lon="0.02983">
        <ele>128.8</ele>
        <time>2022-04-03T16:14:08Z</time>
      </trkpt>
      <trkpt lat="46.04609" lon="0.0298">
        <ele>129</ele>
        <time>2022-04-03T16:14:09Z</time>
      </trkpt>
      <trkpt lat="46.04612" lon="0.02977">
        <ele>128.8</ele>
        <time>2022-04-03T16:14:10Z</time>
      </trkpt>
      <trkpt lat="46.04615" lon="0.02974">
        <ele>128.8</ele>
        <time>2022-04-03T16:14:11Z</time>
      </trkpt>
      <trkpt lat="46.04618" lon="0.02971">
        <ele>129</ele>
        <time>2022-04-03T16:14:12Z</time>
      </trkpt>
      <trkpt lat="46.04621" lon="0.02968">
        <ele>129</ele>
        <time>2022-04-03T16:14:13Z</time>
      </trkpt>
      <trkpt lat="46.04624" lon="0.02965">
        <ele>129.2</ele>
        <time>2022-04-03T16:14:14Z</time>
      </trkpt>
      <trkpt lat="46.04627" lon="0.02962">
        <ele>129.2</ele>
        <time>2022-04-03T16:14:15Z</time>
      </trkpt>
      <trkpt lat="46.0463" lon="0.02959">
        <ele>129.6</ele>
        <time>2022-04-03T16:14:16Z</time>
      </trkpt>
      <trkpt lat="46.04633" lon="0.02956">
        <ele>129.6</ele>
        <time>2022-04-03T16:14:17Z</time>
      </trkpt>
      <trkpt lat="46.04636" lon="0.02953">
        <ele>129.6</ele>
        <time>2022-04-03T16:14:18Z</time>
      </trkpt>
      <trkpt lat="46.04639" lon="0.0295">
        <ele>130</ele>
        <time>2022-04-03T16:14:19Z</time>
      </trkpt>
      <trkpt lat="46.04642" lon="0.02947">
        <ele>130</ele>
        <time>2022-04-03T16:14:20Z</time>
      </trkpt>
      <trkpt lat="46.04645" lon="0.02944">
        <ele>130</ele>
        <time>2022-04-03T16:14:21Z</time>
      </trkpt>
      <trkpt lat="46.04648" lon="0.02941">
        <ele>130</ele>
        <time>2022-04-03T16:14:22Z</time>
      </trkpt>
      <trkpt lat="46.04651" lon="0.02939">
        <ele>130</ele>
        <time>2022-04-03T16:14:23Z</time>
      </trkpt>
      <trkpt lat="46.04654" lon="0.02936">
        <ele>130.2</ele>
        <time>2022-04-03T16:14:24Z</time>
      </trkpt>
      <trkpt lat="46.04657" lon="0.02933">
        <ele>130.2</ele>
        <time>2022-04-03T16:14:25Z</time>
      </trkpt>
      <trkpt lat="46.0466" lon="0.0293">
        <ele>130.2</ele>
        <time>2022-04-03T16:14:26Z</time>
      </trkpt>
      <trkpt lat="46.04663" lon="0.02927">
        <ele>130.2</ele>
        <time>2022-04-03T16:14:27Z</time>
      </trkpt>
      <trkpt lat="46.04665" lon="0.02924">
        <ele>130.4</ele>
        <time>2022-04-03T16:14:28Z</time>
      </trkpt>
      <trkpt lat="46.04668" lon="0.02921">
        <ele>130.4</ele>
        <time>2022-04-03T16:14:29Z</time>
      </trkpt>
      <trkpt lat="46.04671" lon="0.02918">
        <ele>130.4</ele>
        <time>2022-04-03T16:14:30Z</time>
      </trkpt>
      <trkpt lat="46.04674" lon="0.02916">
        <ele>130.4</ele>
        <time>2022-04-03T16:14:31Z</time>
      </trkpt>
      <trkpt lat="46.04677" lon="0.02913">
        <ele>130.4</ele>
        <time>2022-04-03T16:14:32Z</time>
      </trkpt>
      <trkpt lat="46.0468" lon="0.0291">
        <ele>130.6</ele>
        <time>2022-04-03T16:14:33Z</time>
      </trkpt>
      <trkpt lat="46.04683" lon="0.02907">
        <ele>130.6</ele>
        <time>2022-04-03T16:14:34Z</time>
      </trkpt>
      <trkpt lat="46.04686" lon="0.02904">
        <ele>130.8</ele>
        <time>2022-04-03T16:14:35Z</time>
      </trkpt>
      <trkpt lat="46.04689" lon="0.02902">
        <ele>130.8</ele>
        <time>2022-04-03T16:14:36Z</time>
      </trkpt>
      <trkpt lat="46.04692" lon="0.02899">
        <ele>131</ele>
        <time>2022-04-03T16:14:37Z</time>
      </trkpt>
      <trkpt lat="46.04694" lon="0.02896">
        <ele>131</ele>
        <time>2022-04-03T16:14:38Z</time>
      </trkpt>
      <trkpt lat="46.04697" lon="0.02893">
        <ele>131.2</ele>
        <time>2022-04-03T16:14:39Z</time>
      </trkpt>
      <trkpt lat="46.047" lon="0.0289">
        <ele>131.4</ele>
        <time>2022-04-03T16:14:40Z</time>
      </trkpt>
      <trkpt lat="46.04703" lon="0.02887">
        <ele>131.2</ele>
        <time>2022-04-03T16:14:41Z</time>
      </trkpt>
      <trkpt lat="46.04706" lon="0.02885">
        <ele>131.4</ele>
        <time>2022-04-03T16:14:42Z</time>
      </trkpt>
      <trkpt lat="46.04708" lon="0.02883">
        <ele>131.8</ele>
        <time>2022-04-03T16:14:43Z</time>
      </trkpt>
      <trkpt lat="46.04711" lon="0.0288">
        <ele>131.8</ele>
        <time>2022-04-03T16:14:44Z</time>
      </trkpt>
      <trkpt lat="46.04713" lon="0.02877">
        <ele>131.8</ele>
        <time>2022-04-03T16:14:45Z</time>
      </trkpt>
      <trkpt lat="46.04716" lon="0.02875">
        <ele>132</ele>
        <time>2022-04-03T16:14:46Z</time>
      </trkpt>
      <trkpt lat="46.04718" lon="0.02873">
        <ele>132.2</ele>
        <time>2022-04-03T16:14:47Z</time>
      </trkpt>
      <trkpt lat="46.04721" lon="0.0287">
        <ele>132.4</ele>
        <time>2022-04-03T16:14:48Z</time>
      </trkpt>
      <trkpt lat="46.04723" lon="0.02868">
        <ele>132.4</ele>
        <time>2022-04-03T16:14:49Z</time>
      </trkpt>
      <trkpt lat="46.04725" lon="0.02866">
        <ele>132.6</ele>
        <time>2022-04-03T16:14:50Z</time>
      </trkpt>
      <trkpt lat="46.04728" lon="0.02864">
        <ele>132.8</ele>
        <time>2022-04-03T16:14:51Z</time>
      </trkpt>
      <trkpt lat="46.0473" lon="0.02862">
        <ele>132.8</ele>
        <time>2022-04-03T16:14:52Z</time>
      </trkpt>
      <trkpt lat="46.04732" lon="0.02859">
        <ele>133.2</ele>
        <time>2022-04-03T16:14:53Z</time>
      </trkpt>
      <trkpt lat="46.04734" lon="0.02857">
        <ele>133.4</ele>
        <time>2022-04-03T16:14:54Z</time>
      </trkpt>
      <trkpt lat="46.04736" lon="0.02855">
        <ele>133.6</ele>
        <time>2022-04-03T16:14:55Z</time>
      </trkpt>
      <trkpt lat="46.04738" lon="0.02853">
        <ele>133.6</ele>
        <time>2022-04-03T16:14:56Z</time>
      </trkpt>
      <trkpt lat="46.04741" lon="0.02851">
        <ele>133.8</ele>
        <time>2022-04-03T16:14:57Z</time>
      </trkpt>
      <trkpt lat="46.04743" lon="0.02849">
        <ele>133.8</ele>
        <time>2022-04-03T16:14:58Z</time>
      </trkpt>
      <trkpt lat="46.04745" lon="0.02847">
        <ele>134</ele>
        <time>2022-04-03T16:14:59Z</time>
      </trkpt>
      <trkpt lat="46.04747" lon="0.02844">
        <ele>134.2</ele>
        <time>2022-04-03T16:15:00Z</time>
      </trkpt>
      <trkpt lat="46.0475" lon="0.02842">
        <ele>134.2</ele>
        <time>2022-04-03T16:15:01Z</time>
      </trkpt>
      <trkpt lat="46.04752" lon="0.0284">
        <ele>134.4</ele>
        <time>2022-04-03T16:15:02Z</time>
      </trkpt>
      <trkpt lat="46.04754" lon="0.02838">
        <ele>134.4</ele>
        <time>2022-04-03T16:15:03Z</time>
      </trkpt>
      <trkpt lat="46.04757" lon="0.02836">
        <ele>134.4</ele>
        <time>2022-04-03T16:15:04Z</time>
      </trkpt>
      <trkpt lat="46.04759" lon="0.02833">
        <ele>134.4</ele>
        <time>2022-04-03T16:15:05Z</time>
      </trkpt>
      <trkpt lat="46.04761" lon="0.02831">
        <ele>134.6</ele>
        <time>2022-04-03T16:15:06Z</time>
      </trkpt>
      <trkpt lat="46.04764" lon="0.02829">
        <ele>134.8</ele>
        <time>2022-04-03T16:15:07Z</time>
      </trkpt>
      <trkpt lat="46.04766" lon="0.02827">
        <ele>134.8</ele>
        <time>2022-04-03T16:15:08Z</time>
      </trkpt>
      <trkpt lat="46.04768" lon="0.02825">
        <ele>135</ele>
        <time>2022-04-03T16:15:09Z</time>
      </trkpt>
      <trkpt lat="46.0477" lon="0.02822">
        <ele>135.2</ele>
        <time>2022-04-03T16:15:10Z</time>
      </trkpt>
      <trkpt lat="46.04773" lon="0.0282">
        <ele>135.2</ele>
        <time>2022-04-03T16:15:11Z</time>
      </trkpt>
      <trkpt lat="46.04775" lon="0.02818">
        <ele>135.4</ele>
        <time>2022-04-03T16:15:12Z</time>
      </trkpt>
      <trkpt lat="46.04777" lon="0.02816">
        <ele>135.4</ele>
        <time>2022-04-03T16:15:13Z</time>
      </trkpt>
      <trkpt lat="46.04779" lon="0.02814">
        <ele>135.4</ele>
        <time>2022-04-03T16:15:14Z</time>
      </trkpt>
      <trkpt lat="46.04782" lon="0.02812">
        <ele>135.4</ele>
        <time>2022-04-03T16:15:15Z</time>
      </trkpt>
      <trkpt lat="46.04784" lon="0.02809">
        <ele>135.6</ele>
        <time>2022-04-03T16:15:16Z</time>
      </trkpt>
      <trkpt lat="46.04786" lon="0.02807">
        <ele>135.6</ele>
        <time>2022-04-03T16:15:17Z</time>
      </trkpt>
      <trkpt lat="46.04788" lon="0.02805">
        <ele>136</ele>
        <time>2022-04-03T16:15:18Z</time>
      </trkpt>
      <trkpt lat="46.04791" lon="0.02803">
        <ele>136</ele>
        <time>2022-04-03T16:15:19Z</time>
      </trkpt>
      <trkpt lat="46.04793" lon="0.02801">
        <ele>136</ele>
        <time>2022-04-03T16:15:20Z</time>
      </trkpt>
      <trkpt lat="46.04795" lon="0.02799">
        <ele>136.2</ele>
        <time>2022-04-03T16:15:21Z</time>
      </trkpt>
      <trkpt lat="46.04797" lon="0.02796">
        <ele>136.2</ele>
        <time>2022-04-03T16:15:22Z</time>
      </trkpt>
      <trkpt lat="46.04799" lon="0.02794">
        <ele>136.2</ele>
        <time>2022-04-03T16:15:23Z</time>
      </trkpt>
      <trkpt lat="46.04802" lon="0.02792">
        <ele>136.2</ele>
        <time>2022-04-03T16:15:24Z</time>
      </trkpt>
      <trkpt lat="46.04804" lon="0.0279">
        <ele>136.4</ele>
        <time>2022-04-03T16:15:25Z</time>
      </trkpt>
      <trkpt lat="46.04807" lon="0.02787">
        <ele>136.8</ele>
        <time>2022-04-03T16:15:26Z</time>
      </trkpt>
      <trkpt lat="46.04809" lon="0.02785">
        <ele>136.8</ele>
        <time>2022-04-03T16:15:27Z</time>
      </trkpt>
      <trkpt lat="46.04812" lon="0.02783">
        <ele>137</ele>
        <time>2022-04-03T16:15:28Z</time>
      </trkpt>
      <trkpt lat="46.04814" lon="0.0278">
        <ele>137.2</ele>
        <time>2022-04-03T16:15:29Z</time>
      </trkpt>
      <trkpt lat="46.04817" lon="0.02778">
        <ele>137.4</ele>
        <time>2022-04-03T16:15:30Z</time>
      </trkpt>
      <trkpt lat="46.04819" lon="0.02775">
        <ele>137.4</ele>
        <time>2022-04-03T16:15:31Z</time>
      </trkpt>
      <trkpt lat="46.04821" lon="0.02773">
        <ele>137.4</ele>
        <time>2022-04-03T16:15:32Z</time>
      </trkpt>
      <trkpt lat="46.04824" lon="0.0277">
        <ele>137.4</ele>
        <time>2022-04-03T16:15:33Z</time>
      </trkpt>
      <trkpt lat="46.04826" lon="0.02768">
        <ele>137.6</ele>
        <time>2022-04-03T16:15:34Z</time>
      </trkpt>
      <trkpt lat="46.04828" lon="0.02765">
        <ele>137.6</ele>
        <time>2022-04-03T16:15:35Z</time>
      </trkpt>
      <trkpt lat="46.04831" lon="0.02763">
        <ele>137.8</ele>
        <time>2022-04-03T16:15:36Z</time>
      </trkpt>
      <trkpt lat="46.04833" lon="0.0276">
        <ele>137.8</ele>
        <time>2022-04-03T16:15:37Z</time>
      </trkpt>
      <trkpt lat="46.04835" lon="0.02758">
        <ele>138</ele>
        <time>2022-04-03T16:15:38Z</time>
      </trkpt>
      <trkpt lat="46.04838" lon="0.02755">
        <ele>138</ele>
        <time>2022-04-03T16:15:39Z</time>
      </trkpt>
      <trkpt lat="46.0484" lon="0.02753">
        <ele>138.2</ele>
        <time>2022-04-03T16:15:40Z</time>
      </trkpt>
      <trkpt lat="46.04842" lon="0.02751">
        <ele>138.2</ele>
        <time>2022-04-03T16:15:41Z</time>
      </trkpt>
      <trkpt lat="46.04844" lon="0.02749">
        <ele>138.4</ele>
        <time>2022-04-03T16:15:42Z</time>
      </trkpt>
      <trkpt lat="46.04846" lon="0.02746">
        <ele>138.4</ele>
        <time>2022-04-03T16:15:43Z</time>
      </trkpt>
      <trkpt lat="46.04848" lon="0.02743">
        <ele>138.4</ele>
        <time>2022-04-03T16:15:44Z</time>
      </trkpt>
      <trkpt lat="46.0485" lon="0.02741">
        <ele>138.6</ele>
        <time>2022-04-03T16:15:45Z</time>
      </trkpt>
      <trkpt lat="46.04852" lon="0.02738">
        <ele>138.4</ele>
        <time>2022-04-03T16:15:46Z</time>
      </trkpt>
      <trkpt lat="46.04853" lon="0.02735">
        <ele>138.4</ele>
        <time>2022-04-03T16:15:47Z</time>
      </trkpt>
      <trkpt lat="46.04855" lon="0.02733">
        <ele>138.4</ele>
        <time>2022-04-03T16:15:48Z</time>
      </trkpt>
      <trkpt lat="46.04856" lon="0.0273">
        <ele>138.6</ele>
        <time>2022-04-03T16:15:49Z</time>
      </trkpt>
      <trkpt lat="46.04859" lon="0.02727">
        <ele>138.6</ele>
        <time>2022-04-03T16:15:50Z</time>
      </trkpt>
      <trkpt lat="46.04861" lon="0.02724">
        <ele>138.6</ele>
        <time>2022-04-03T16:15:51Z</time>
      </trkpt>
      <trkpt lat="46.04864" lon="0.02722">
        <ele>138.4</ele>
        <time>2022-04-03T16:15:52Z</time>
      </trkpt>
      <trkpt lat="46.04867" lon="0.02719">
        <ele>138.6</ele>
        <time>2022-04-03T16:15:53Z</time>
      </trkpt>
      <trkpt lat="46.04869" lon="0.02715">
        <ele>138.4</ele>
        <time>2022-04-03T16:15:54Z</time>
      </trkpt>
      <trkpt lat="46.04872" lon="0.02711">
        <ele>138.6</ele>
        <time>2022-04-03T16:15:55Z</time>
      </trkpt>
      <trkpt lat="46.04874" lon="0.02707">
        <ele>138.4</ele>
        <time>2022-04-03T16:15:56Z</time>
      </trkpt>
      <trkpt lat="46.04877" lon="0.02703">
        <ele>138.6</ele>
        <time>2022-04-03T16:15:57Z</time>
      </trkpt>
      <trkpt lat="46.0488" lon="0.02699">
        <ele>138.6</ele>
        <time>2022-04-03T16:15:58Z</time>
      </trkpt>
      <trkpt lat="46.04882" lon="0.02695">
        <ele>138.6</ele>
        <time>2022-04-03T16:15:59Z</time>
      </trkpt>
      <trkpt lat="46.04885" lon="0.0269">
        <ele>138.6</ele>
        <time>2022-04-03T16:16:00Z</time>
      </trkpt>
      <trkpt lat="46.04887" lon="0.02685">
        <ele>138.8</ele>
        <time>2022-04-03T16:16:01Z</time>
      </trkpt>
      <trkpt lat="46.04889" lon="0.02681">
        <ele>138.6</ele>
        <time>2022-04-03T16:16:02Z</time>
      </trkpt>
      <trkpt lat="46.04892" lon="0.02676">
        <ele>138.6</ele>
        <time>2022-04-03T16:16:03Z</time>
      </trkpt>
      <trkpt lat="46.04895" lon="0.02672">
        <ele>138.8</ele>
        <time>2022-04-03T16:16:04Z</time>
      </trkpt>
      <trkpt lat="46.04897" lon="0.02668">
        <ele>138.6</ele>
        <time>2022-04-03T16:16:05Z</time>
      </trkpt>
      <trkpt lat="46.049" lon="0.02663">
        <ele>138.6</ele>
        <time>2022-04-03T16:16:06Z</time>
      </trkpt>
      <trkpt lat="46.04902" lon="0.02659">
        <ele>138.8</ele>
        <time>2022-04-03T16:16:07Z</time>
      </trkpt>
      <trkpt lat="46.04905" lon="0.02655">
        <ele>138.6</ele>
        <time>2022-04-03T16:16:08Z</time>
      </trkpt>
      <trkpt lat="46.04907" lon="0.02651">
        <ele>138.8</ele>
        <time>2022-04-03T16:16:09Z</time>
      </trkpt>
      <trkpt lat="46.0491" lon="0.02646">
        <ele>138.8</ele>
        <time>2022-04-03T16:16:10Z</time>
      </trkpt>
      <trkpt lat="46.04912" lon="0.02641">
        <ele>138.8</ele>
        <time>2022-04-03T16:16:11Z</time>
      </trkpt>
      <trkpt lat="46.04914" lon="0.02637">
        <ele>138.8</ele>
        <time>2022-04-03T16:16:12Z</time>
      </trkpt>
      <trkpt lat="46.04917" lon="0.02632">
        <ele>138.6</ele>
        <time>2022-04-03T16:16:13Z</time>
      </trkpt>
      <trkpt lat="46.0492" lon="0.02627">
        <ele>138.8</ele>
        <time>2022-04-03T16:16:14Z</time>
      </trkpt>
      <trkpt lat="46.04924" lon="0.02622">
        <ele>138.6</ele>
        <time>2022-04-03T16:16:15Z</time>
      </trkpt>
      <trkpt lat="46.04928" lon="0.02616">
        <ele>138.8</ele>
        <time>2022-04-03T16:16:16Z</time>
      </trkpt>
      <trkpt lat="46.04931" lon="0.0261">
        <ele>138.6</ele>
        <time>2022-04-03T16:16:17Z</time>
      </trkpt>
      <trkpt lat="46.04935" lon="0.02603">
        <ele>138.6</ele>
        <time>2022-04-03T16:16:18Z</time>
      </trkpt>
      <trkpt lat="46.04939" lon="0.02597">
        <ele>138.6</ele>
        <time>2022-04-03T16:16:19Z</time>
      </trkpt>
      <trkpt lat="46.04942" lon="0.0259">
        <ele>138.6</ele>
        <time>2022-04-03T16:16:20Z</time>
      </trkpt>
      <trkpt lat="46.04946" lon="0.02584">
        <ele>138.6</ele>
        <time>2022-04-03T16:16:21Z</time>
      </trkpt>
      <trkpt lat="46.0495" lon="0.02577">
        <ele>138.6</ele>
        <time>2022-04-03T16:16:22Z</time>
      </trkpt>
      <trkpt lat="46.04955" lon="0.02571">
        <ele>138.4</ele>
        <time>2022-04-03T16:16:23Z</time>
      </trkpt>
      <trkpt lat="46.04959" lon="0.02564">
        <ele>137.8</ele>
        <time>2022-04-03T16:16:24Z</time>
      </trkpt>
      <trkpt lat="46.04963" lon="0.02557">
        <ele>137.4</ele>
        <time>2022-04-03T16:16:25Z</time>
      </trkpt>
      <trkpt lat="46.04967" lon="0.0255">
        <ele>137.2</ele>
        <time>2022-04-03T16:16:26Z</time>
      </trkpt>
      <trkpt lat="46.04971" lon="0.02543">
        <ele>136.8</ele>
        <time>2022-04-03T16:16:27Z</time>
      </trkpt>
      <trkpt lat="46.04975" lon="0.02535">
        <ele>136.8</ele>
        <time>2022-04-03T16:16:28Z</time>
      </trkpt>
      <trkpt lat="46.04979" lon="0.02528">
        <ele>136.6</ele>
        <time>2022-04-03T16:16:29Z</time>
      </trkpt>
      <trkpt lat="46.04983" lon="0.02521">
        <ele>136.4</ele>
        <time>2022-04-03T16:16:30Z</time>
      </trkpt>
      <trkpt lat="46.04987" lon="0.02514">
        <ele>136</ele>
        <time>2022-04-03T16:16:31Z</time>
      </trkpt>
      <trkpt lat="46.04991" lon="0.02508">
        <ele>136</ele>
        <time>2022-04-03T16:16:32Z</time>
      </trkpt>
      <trkpt lat="46.04996" lon="0.025">
        <ele>135.4</ele>
        <time>2022-04-03T16:16:33Z</time>
      </trkpt>
      <trkpt lat="46.05" lon="0.02494">
        <ele>134.6</ele>
        <time>2022-04-03T16:16:34Z</time>
      </trkpt>
      <trkpt lat="46.05004" lon="0.02487">
        <ele>134.2</ele>
        <time>2022-04-03T16:16:35Z</time>
      </trkpt>
      <trkpt lat="46.05008" lon="0.0248">
        <ele>133.6</ele>
        <time>2022-04-03T16:16:36Z</time>
      </trkpt>
      <trkpt lat="46.05012" lon="0.02473">
        <ele>133</ele>
        <time>2022-04-03T16:16:37Z</time>
      </trkpt>
      <trkpt lat="46.05016" lon="0.02466">
        <ele>133</ele>
        <time>2022-04-03T16:16:38Z</time>
      </trkpt>
      <trkpt lat="46.0502" lon="0.02459">
        <ele>132.6</ele>
        <time>2022-04-03T16:16:39Z</time>
      </trkpt>
      <trkpt lat="46.05025" lon="0.02453">
        <ele>132.6</ele>
        <time>2022-04-03T16:16:40Z</time>
      </trkpt>
      <trkpt lat="46.05029" lon="0.02446">
        <ele>132.4</ele>
        <time>2022-04-03T16:16:41Z</time>
      </trkpt>
      <trkpt lat="46.05033" lon="0.0244">
        <ele>132.2</ele>
        <time>2022-04-03T16:16:42Z</time>
      </trkpt>
      <trkpt lat="46.05036" lon="0.02433">
        <ele>132</ele>
        <time>2022-04-03T16:16:43Z</time>
      </trkpt>
      <trkpt lat="46.0504" lon="0.02427">
        <ele>131.8</ele>
        <time>2022-04-03T16:16:44Z</time>
      </trkpt>
      <trkpt lat="46.05043" lon="0.02421">
        <ele>131.8</ele>
        <time>2022-04-03T16:16:45Z</time>
      </trkpt>
      <trkpt lat="46.05047" lon="0.02415">
        <ele>131.8</ele>
        <time>2022-04-03T16:16:46Z</time>
      </trkpt>
      <trkpt lat="46.05051" lon="0.0241">
        <ele>131.8</ele>
        <time>2022-04-03T16:16:47Z</time>
      </trkpt>
      <trkpt lat="46.05054" lon="0.02404">
        <ele>131.6</ele>
        <time>2022-04-03T16:16:48Z</time>
      </trkpt>
      <trkpt lat="46.05057" lon="0.02398">
        <ele>131.8</ele>
        <time>2022-04-03T16:16:49Z</time>
      </trkpt>
      <trkpt lat="46.05061" lon="0.02392">
        <ele>131.8</ele>
        <time>2022-04-03T16:16:50Z</time>
      </trkpt>
      <trkpt lat="46.05064" lon="0.02386">
        <ele>131.6</ele>
        <time>2022-04-03T16:16:51Z</time>
      </trkpt>
      <trkpt lat="46.05068" lon="0.02381">
        <ele>131.6</ele>
        <time>2022-04-03T16:16:52Z</time>
      </trkpt>
      <trkpt lat="46.05071" lon="0.02375">
        <ele>131.6</ele>
        <time>2022-04-03T16:16:53Z</time>
      </trkpt>
      <trkpt lat="46.05075" lon="0.02369">
        <ele>131.6</ele>
        <time>2022-04-03T16:16:54Z</time>
      </trkpt>
      <trkpt lat="46.05079" lon="0.02363">
        <ele>131.4</ele>
        <time>2022-04-03T16:16:55Z</time>
      </trkpt>
      <trkpt lat="46.05082" lon="0.02357">
        <ele>131.6</ele>
        <time>2022-04-03T16:16:56Z</time>
      </trkpt>
      <trkpt lat="46.05086" lon="0.02351">
        <ele>131.6</ele>
        <time>2022-04-03T16:16:57Z</time>
      </trkpt>
      <trkpt lat="46.05089" lon="0.02344">
        <ele>131.4</ele>
        <time>2022-04-03T16:16:58Z</time>
      </trkpt>
      <trkpt lat="46.05093" lon="0.02338">
        <ele>131.4</ele>
        <time>2022-04-03T16:16:59Z</time>
      </trkpt>
      <trkpt lat="46.05096" lon="0.02332">
        <ele>131.4</ele>
        <time>2022-04-03T16:17:00Z</time>
      </trkpt>
      <trkpt lat="46.051" lon="0.02326">
        <ele>131.4</ele>
        <time>2022-04-03T16:17:01Z</time>
      </trkpt>
      <trkpt lat="46.05103" lon="0.02319">
        <ele>131.6</ele>
        <time>2022-04-03T16:17:02Z</time>
      </trkpt>
      <trkpt lat="46.05107" lon="0.02313">
        <ele>131.4</ele>
        <time>2022-04-03T16:17:03Z</time>
      </trkpt>
      <trkpt lat="46.0511" lon="0.02307">
        <ele>131.6</ele>
        <time>2022-04-03T16:17:04Z</time>
      </trkpt>
      <trkpt lat="46.05114" lon="0.02301">
        <ele>131.6</ele>
        <time>2022-04-03T16:17:05Z</time>
      </trkpt>
      <trkpt lat="46.05118" lon="0.02295">
        <ele>131.4</ele>
        <time>2022-04-03T16:17:06Z</time>
      </trkpt>
      <trkpt lat="46.05121" lon="0.02289">
        <ele>131.4</ele>
        <time>2022-04-03T16:17:07Z</time>
      </trkpt>
      <trkpt lat="46.05125" lon="0.02283">
        <ele>131.6</ele>
        <time>2022-04-03T16:17:08Z</time>
      </trkpt>
      <trkpt lat="46.05128" lon="0.02277">
        <ele>131.4</ele>
        <time>2022-04-03T16:17:09Z</time>
      </trkpt>
      <trkpt lat="46.05131" lon="0.02271">
        <ele>131.4</ele>
        <time>2022-04-03T16:17:10Z</time>
      </trkpt>
      <trkpt lat="46.05135" lon="0.02265">
        <ele>131.4</ele>
        <time>2022-04-03T16:17:11Z</time>
      </trkpt>
      <trkpt lat="46.05138" lon="0.02258">
        <ele>131.4</ele>
        <time>2022-04-03T16:17:12Z</time>
      </trkpt>
      <trkpt lat="46.05142" lon="0.02252">
        <ele>131.4</ele>
        <time>2022-04-03T16:17:13Z</time>
      </trkpt>
      <trkpt lat="46.05145" lon="0.02246">
        <ele>131.4</ele>
        <time>2022-04-03T16:17:14Z</time>
      </trkpt>
      <trkpt lat="46.05148" lon="0.02239">
        <ele>131.4</ele>
        <time>2022-04-03T16:17:15Z</time>
      </trkpt>
      <trkpt lat="46.05152" lon="0.02233">
        <ele>131.4</ele>
        <time>2022-04-03T16:17:16Z</time>
      </trkpt>
      <trkpt lat="46.05155" lon="0.02226">
        <ele>131.4</ele>
        <time>2022-04-03T16:17:17Z</time>
      </trkpt>
      <trkpt lat="46.05158" lon="0.0222">
        <ele>131.2</ele>
        <time>2022-04-03T16:17:18Z</time>
      </trkpt>
      <trkpt lat="46.05162" lon="0.02214">
        <ele>131.2</ele>
        <time>2022-04-03T16:17:19Z</time>
      </trkpt>
      <trkpt lat="46.05165" lon="0.02207">
        <ele>131.4</ele>
        <time>2022-04-03T16:17:20Z</time>
      </trkpt>
      <trkpt lat="46.05169" lon="0.022">
        <ele>131</ele>
        <time>2022-04-03T16:17:21Z</time>
      </trkpt>
      <trkpt lat="46.05172" lon="0.02193">
        <ele>130.8</ele>
        <time>2022-04-03T16:17:22Z</time>
      </trkpt>
      <trkpt lat="46.05175" lon="0.02186">
        <ele>130.8</ele>
        <time>2022-04-03T16:17:23Z</time>
      </trkpt>
      <trkpt lat="46.05179" lon="0.02179">
        <ele>130.6</ele>
        <time>2022-04-03T16:17:24Z</time>
      </trkpt>
      <trkpt lat="46.05182" lon="0.02172">
        <ele>130.4</ele>
        <time>2022-04-03T16:17:25Z</time>
      </trkpt>
      <trkpt lat="46.05186" lon="0.02164">
        <ele>129.8</ele>
        <time>2022-04-03T16:17:26Z</time>
      </trkpt>
      <trkpt lat="46.05189" lon="0.02156">
        <ele>129.4</ele>
        <time>2022-04-03T16:17:27Z</time>
      </trkpt>
      <trkpt lat="46.05193" lon="0.02149">
        <ele>129.4</ele>
        <time>2022-04-03T16:17:28Z</time>
      </trkpt>
      <trkpt lat="46.05196" lon="0.02141">
        <ele>129</ele>
        <time>2022-04-03T16:17:29Z</time>
      </trkpt>
      <trkpt lat="46.052" lon="0.02133">
        <ele>129</ele>
        <time>2022-04-03T16:17:30Z</time>
      </trkpt>
      <trkpt lat="46.05204" lon="0.02125">
        <ele>128.8</ele>
        <time>2022-04-03T16:17:31Z</time>
      </trkpt>
      <trkpt lat="46.05208" lon="0.02116">
        <ele>128.2</ele>
        <time>2022-04-03T16:17:32Z</time>
      </trkpt>
      <trkpt lat="46.05212" lon="0.02108">
        <ele>127.8</ele>
        <time>2022-04-03T16:17:33Z</time>
      </trkpt>
      <trkpt lat="46.05216" lon="0.02099">
        <ele>127.8</ele>
        <time>2022-04-03T16:17:34Z</time>
      </trkpt>
      <trkpt lat="46.0522" lon="0.0209">
        <ele>127.6</ele>
        <time>2022-04-03T16:17:35Z</time>
      </trkpt>
      <trkpt lat="46.05224" lon="0.0208">
        <ele>127.4</ele>
        <time>2022-04-03T16:17:36Z</time>
      </trkpt>
      <trkpt lat="46.05228" lon="0.02071">
        <ele>127.2</ele>
        <time>2022-04-03T16:17:37Z</time>
      </trkpt>
      <trkpt lat="46.05232" lon="0.02062">
        <ele>126.8</ele>
        <time>2022-04-03T16:17:38Z</time>
      </trkpt>
      <trkpt lat="46.05237" lon="0.02052">
        <ele>126.4</ele>
        <time>2022-04-03T16:17:39Z</time>
      </trkpt>
      <trkpt lat="46.05241" lon="0.02043">
        <ele>125.6</ele>
        <time>2022-04-03T16:17:40Z</time>
      </trkpt>
      <trkpt lat="46.05245" lon="0.02033">
        <ele>125.2</ele>
        <time>2022-04-03T16:17:41Z</time>
      </trkpt>
      <trkpt lat="46.0525" lon="0.02023">
        <ele>124.6</ele>
        <time>2022-04-03T16:17:42Z</time>
      </trkpt>
      <trkpt lat="46.05254" lon="0.02013">
        <ele>124.2</ele>
        <time>2022-04-03T16:17:43Z</time>
      </trkpt>
      <trkpt lat="46.05259" lon="0.02002">
        <ele>123.6</ele>
        <time>2022-04-03T16:17:44Z</time>
      </trkpt>
      <trkpt lat="46.05264" lon="0.01992">
        <ele>123</ele>
        <time>2022-04-03T16:17:45Z</time>
      </trkpt>
      <trkpt lat="46.05268" lon="0.01981">
        <ele>122.6</ele>
        <time>2022-04-03T16:17:46Z</time>
      </trkpt>
      <trkpt lat="46.05273" lon="0.01971">
        <ele>122</ele>
        <time>2022-04-03T16:17:47Z</time>
      </trkpt>
      <trkpt lat="46.05278" lon="0.0196">
        <ele>121.4</ele>
        <time>2022-04-03T16:17:48Z</time>
      </trkpt>
      <trkpt lat="46.05282" lon="0.01949">
        <ele>120.8</ele>
        <time>2022-04-03T16:17:49Z</time>
      </trkpt>
      <trkpt lat="46.05287" lon="0.01937">
        <ele>120.2</ele>
        <time>2022-04-03T16:17:50Z</time>
      </trkpt>
      <trkpt lat="46.05292" lon="0.01926">
        <ele>119.6</ele>
        <time>2022-04-03T16:17:51Z</time>
      </trkpt>
      <trkpt lat="46.05296" lon="0.01915">
        <ele>119.4</ele>
        <time>2022-04-03T16:17:52Z</time>
      </trkpt>
      <trkpt lat="46.05301" lon="0.01905">
        <ele>119.4</ele>
        <time>2022-04-03T16:17:53Z</time>
      </trkpt>
      <trkpt lat="46.05305" lon="0.01896">
        <ele>119</ele>
        <time>2022-04-03T16:17:54Z</time>
      </trkpt>
      <trkpt lat="46.05309" lon="0.01888">
        <ele>119</ele>
        <time>2022-04-03T16:17:55Z</time>
      </trkpt>
      <trkpt lat="46.05312" lon="0.0188">
        <ele>118.8</ele>
        <time>2022-04-03T16:17:56Z</time>
      </trkpt>
      <trkpt lat="46.05316" lon="0.01873">
        <ele>118.8</ele>
        <time>2022-04-03T16:17:57Z</time>
      </trkpt>
      <trkpt lat="46.05319" lon="0.01866">
        <ele>118.6</ele>
        <time>2022-04-03T16:17:58Z</time>
      </trkpt>
      <trkpt lat="46.05322" lon="0.01861">
        <ele>118.6</ele>
        <time>2022-04-03T16:17:59Z</time>
      </trkpt>
      <trkpt lat="46.05324" lon="0.01856">
        <ele>118.6</ele>
        <time>2022-04-03T16:18:00Z</time>
      </trkpt>
      <trkpt lat="46.05327" lon="0.01851">
        <ele>118.6</ele>
        <time>2022-04-03T16:18:01Z</time>
      </trkpt>
      <trkpt lat="46.05329" lon="0.01847">
        <ele>118.8</ele>
        <time>2022-04-03T16:18:02Z</time>
      </trkpt>
      <trkpt lat="46.05331" lon="0.01843">
        <ele>118.6</ele>
        <time>2022-04-03T16:18:03Z</time>
      </trkpt>
      <trkpt lat="46.05334" lon="0.01839">
        <ele>118.8</ele>
        <time>2022-04-03T16:18:04Z</time>
      </trkpt>
      <trkpt lat="46.05336" lon="0.01836">
        <ele>119</ele>
        <time>2022-04-03T16:18:05Z</time>
      </trkpt>
      <trkpt lat="46.05338" lon="0.01832">
        <ele>119.4</ele>
        <time>2022-04-03T16:18:06Z</time>
      </trkpt>
      <trkpt lat="46.0534" lon="0.01829">
        <ele>119.8</ele>
        <time>2022-04-03T16:18:07Z</time>
      </trkpt>
      <trkpt lat="46.05342" lon="0.01826">
        <ele>120.6</ele>
        <time>2022-04-03T16:18:08Z</time>
      </trkpt>
      <trkpt lat="46.05343" lon="0.01823">
        <ele>121.2</ele>
        <time>2022-04-03T16:18:09Z</time>
      </trkpt>
      <trkpt lat="46.05345" lon="0.0182">
        <ele>121.6</ele>
        <time>2022-04-03T16:18:10Z</time>
      </trkpt>
      <trkpt lat="46.05347" lon="0.01816">
        <ele>122</ele>
        <time>2022-04-03T16:18:11Z</time>
      </trkpt>
      <trkpt lat="46.05348" lon="0.01813">
        <ele>122.2</ele>
        <time>2022-04-03T16:18:12Z</time>
      </trkpt>
      <trkpt lat="46.0535" lon="0.0181">
        <ele>122.2</ele>
        <time>2022-04-03T16:18:13Z</time>
      </trkpt>
      <trkpt lat="46.05352" lon="0.01807">
        <ele>122.4</ele>
        <time>2022-04-03T16:18:14Z</time>
      </trkpt>
      <trkpt lat="46.05354" lon="0.01804">
        <ele>122.6</ele>
        <time>2022-04-03T16:18:15Z</time>
      </trkpt>
      <trkpt lat="46.05355" lon="0.01801">
        <ele>123</ele>
        <time>2022-04-03T16:18:16Z</time>
      </trkpt>
      <trkpt lat="46.05357" lon="0.01798">
        <ele>123</ele>
        <time>2022-04-03T16:18:17Z</time>
      </trkpt>
      <trkpt lat="46.05359" lon="0.01795">
        <ele>123.2</ele>
        <time>2022-04-03T16:18:18Z</time>
      </trkpt>
      <trkpt lat="46.05361" lon="0.01792">
        <ele>123.2</ele>
        <time>2022-04-03T16:18:19Z</time>
      </trkpt>
      <trkpt lat="46.05363" lon="0.01789">
        <ele>123.6</ele>
        <time>2022-04-03T16:18:20Z</time>
      </trkpt>
      <trkpt lat="46.05364" lon="0.01786">
        <ele>123.6</ele>
        <time>2022-04-03T16:18:21Z</time>
      </trkpt>
      <trkpt lat="46.05366" lon="0.01783">
        <ele>123.8</ele>
        <time>2022-04-03T16:18:22Z</time>
      </trkpt>
      <trkpt lat="46.05368" lon="0.0178">
        <ele>123.8</ele>
        <time>2022-04-03T16:18:23Z</time>
      </trkpt>
      <trkpt lat="46.0537" lon="0.01777">
        <ele>124</ele>
        <time>2022-04-03T16:18:24Z</time>
      </trkpt>
      <trkpt lat="46.05371" lon="0.01774">
        <ele>124</ele>
        <time>2022-04-03T16:18:25Z</time>
      </trkpt>
      <trkpt lat="46.05373" lon="0.01771">
        <ele>124.2</ele>
        <time>2022-04-03T16:18:26Z</time>
      </trkpt>
      <trkpt lat="46.05375" lon="0.01768">
        <ele>124.2</ele>
        <time>2022-04-03T16:18:27Z</time>
      </trkpt>
      <trkpt lat="46.05377" lon="0.01765">
        <ele>124.2</ele>
        <time>2022-04-03T16:18:28Z</time>
      </trkpt>
      <trkpt lat="46.05379" lon="0.01762">
        <ele>124.2</ele>
        <time>2022-04-03T16:18:29Z</time>
      </trkpt>
      <trkpt lat="46.05381" lon="0.01759">
        <ele>124.2</ele>
        <time>2022-04-03T16:18:30Z</time>
      </trkpt>
      <trkpt lat="46.05383" lon="0.01756">
        <ele>124.4</ele>
        <time>2022-04-03T16:18:31Z</time>
      </trkpt>
      <trkpt lat="46.05385" lon="0.01753">
        <ele>124.4</ele>
        <time>2022-04-03T16:18:32Z</time>
      </trkpt>
      <trkpt lat="46.05387" lon="0.0175">
        <ele>124.4</ele>
        <time>2022-04-03T16:18:33Z</time>
      </trkpt>
      <trkpt lat="46.05389" lon="0.01747">
        <ele>124.4</ele>
        <time>2022-04-03T16:18:34Z</time>
      </trkpt>
      <trkpt lat="46.05392" lon="0.01744">
        <ele>124.4</ele>
        <time>2022-04-03T16:18:35Z</time>
      </trkpt>
      <trkpt lat="46.05394" lon="0.01741">
        <ele>124.6</ele>
        <time>2022-04-03T16:18:36Z</time>
      </trkpt>
      <trkpt lat="46.05396" lon="0.01738">
        <ele>124.8</ele>
        <time>2022-04-03T16:18:37Z</time>
      </trkpt>
      <trkpt lat="46.05398" lon="0.01735">
        <ele>124.8</ele>
        <time>2022-04-03T16:18:38Z</time>
      </trkpt>
      <trkpt lat="46.05399" lon="0.01732">
        <ele>125.2</ele>
        <time>2022-04-03T16:18:39Z</time>
      </trkpt>
      <trkpt lat="46.05401" lon="0.01729">
        <ele>125.6</ele>
        <time>2022-04-03T16:18:40Z</time>
      </trkpt>
      <trkpt lat="46.05403" lon="0.01727">
        <ele>125.6</ele>
        <time>2022-04-03T16:18:41Z</time>
      </trkpt>
      <trkpt lat="46.05405" lon="0.01725">
        <ele>125.8</ele>
        <time>2022-04-03T16:18:42Z</time>
      </trkpt>
      <trkpt lat="46.05407" lon="0.01722">
        <ele>125.8</ele>
        <time>2022-04-03T16:18:43Z</time>
      </trkpt>
      <trkpt lat="46.05409" lon="0.01718">
        <ele>125.8</ele>
        <time>2022-04-03T16:18:44Z</time>
      </trkpt>
      <trkpt lat="46.05412" lon="0.01715">
        <ele>125.8</ele>
        <time>2022-04-03T16:18:45Z</time>
      </trkpt>
      <trkpt lat="46.05414" lon="0.01712">
        <ele>125.8</ele>
        <time>2022-04-03T16:18:46Z</time>
      </trkpt>
      <trkpt lat="46.05416" lon="0.01708">
        <ele>125.8</ele>
        <time>2022-04-03T16:18:47Z</time>
      </trkpt>
      <trkpt lat="46.05419" lon="0.01705">
        <ele>126</ele>
        <time>2022-04-03T16:18:48Z</time>
      </trkpt>
      <trkpt lat="46.05421" lon="0.01702">
        <ele>125.8</ele>
        <time>2022-04-03T16:18:49Z</time>
      </trkpt>
      <trkpt lat="46.05424" lon="0.01698">
        <ele>125.8</ele>
        <time>2022-04-03T16:18:50Z</time>
      </trkpt>
      <trkpt lat="46.05427" lon="0.01695">
        <ele>126</ele>
        <time>2022-04-03T16:18:51Z</time>
      </trkpt>
      <trkpt lat="46.05429" lon="0.01691">
        <ele>125.8</ele>
        <time>2022-04-03T16:18:52Z</time>
      </trkpt>
      <trkpt lat="46.05432" lon="0.01687">
        <ele>125.8</ele>
        <time>2022-04-03T16:18:53Z</time>
      </trkpt>
      <trkpt lat="46.05435" lon="0.01683">
        <ele>125.8</ele>
        <time>2022-04-03T16:18:54Z</time>
      </trkpt>
      <trkpt lat="46.05438" lon="0.01679">
        <ele>125.8</ele>
        <time>2022-04-03T16:18:55Z</time>
      </trkpt>
      <trkpt lat="46.0544" lon="0.01675">
        <ele>125.8</ele>
        <time>2022-04-03T16:18:56Z</time>
      </trkpt>
      <trkpt lat="46.05443" lon="0.0167">
        <ele>125.6</ele>
        <time>2022-04-03T16:18:57Z</time>
      </trkpt>
      <trkpt lat="46.05446" lon="0.01666">
        <ele>125.8</ele>
        <time>2022-04-03T16:18:58Z</time>
      </trkpt>
      <trkpt lat="46.05449" lon="0.01662">
        <ele>125.8</ele>
        <time>2022-04-03T16:18:59Z</time>
      </trkpt>
      <trkpt lat="46.05452" lon="0.01658">
        <ele>125.6</ele>
        <time>2022-04-03T16:19:00Z</time>
      </trkpt>
      <trkpt lat="46.05455" lon="0.01653">
        <ele>125.6</ele>
        <time>2022-04-03T16:19:01Z</time>
      </trkpt>
      <trkpt lat="46.05458" lon="0.01649">
        <ele>125.6</ele>
        <time>2022-04-03T16:19:02Z</time>
      </trkpt>
      <trkpt lat="46.05461" lon="0.01644">
        <ele>125.4</ele>
        <time>2022-04-03T16:19:03Z</time>
      </trkpt>
      <trkpt lat="46.05464" lon="0.01639">
        <ele>125.4</ele>
        <time>2022-04-03T16:19:04Z</time>
      </trkpt>
      <trkpt lat="46.05467" lon="0.01634">
        <ele>125.2</ele>
        <time>2022-04-03T16:19:05Z</time>
      </trkpt>
      <trkpt lat="46.05471" lon="0.01628">
        <ele>125.4</ele>
        <time>2022-04-03T16:19:06Z</time>
      </trkpt>
      <trkpt lat="46.05474" lon="0.01623">
        <ele>125.2</ele>
        <time>2022-04-03T16:19:07Z</time>
      </trkpt>
      <trkpt lat="46.05478" lon="0.01618">
        <ele>125</ele>
        <time>2022-04-03T16:19:08Z</time>
      </trkpt>
      <trkpt lat="46.05482" lon="0.01613">
        <ele>125</ele>
        <time>2022-04-03T16:19:09Z</time>
      </trkpt>
      <trkpt lat="46.05486" lon="0.01608">
        <ele>125</ele>
        <time>2022-04-03T16:19:10Z</time>
      </trkpt>
      <trkpt lat="46.05489" lon="0.01602">
        <ele>124.8</ele>
        <time>2022-04-03T16:19:11Z</time>
      </trkpt>
      <trkpt lat="46.05493" lon="0.01597">
        <ele>124.8</ele>
        <time>2022-04-03T16:19:12Z</time>
      </trkpt>
      <trkpt lat="46.05497" lon="0.01591">
        <ele>124.8</ele>
        <time>2022-04-03T16:19:13Z</time>
      </trkpt>
      <trkpt lat="46.05501" lon="0.01586">
        <ele>124.6</ele>
        <time>2022-04-03T16:19:14Z</time>
      </trkpt>
      <trkpt lat="46.05506" lon="0.0158">
        <ele>124.2</ele>
        <time>2022-04-03T16:19:15Z</time>
      </trkpt>
      <trkpt lat="46.0551" lon="0.01574">
        <ele>123.8</ele>
        <time>2022-04-03T16:19:16Z</time>
      </trkpt>
      <trkpt lat="46.05514" lon="0.01567">
        <ele>123.4</ele>
        <time>2022-04-03T16:19:17Z</time>
      </trkpt>
      <trkpt lat="46.05518" lon="0.01561">
        <ele>123.4</ele>
        <time>2022-04-03T16:19:18Z</time>
      </trkpt>
      <trkpt lat="46.05522" lon="0.01555">
        <ele>123.2</ele>
        <time>2022-04-03T16:19:19Z</time>
      </trkpt>
      <trkpt lat="46.05527" lon="0.01548">
        <ele>122.8</ele>
        <time>2022-04-03T16:19:20Z</time>
      </trkpt>
      <trkpt lat="46.05532" lon="0.01542">
        <ele>122.4</ele>
        <time>2022-04-03T16:19:21Z</time>
      </trkpt>
      <trkpt lat="46.05536" lon="0.01536">
        <ele>121.8</ele>
        <time>2022-04-03T16:19:22Z</time>
      </trkpt>
      <trkpt lat="46.05541" lon="0.01529">
        <ele>121.4</ele>
        <time>2022-04-03T16:19:23Z</time>
      </trkpt>
      <trkpt lat="46.05545" lon="0.01523">
        <ele>121.2</ele>
        <time>2022-04-03T16:19:24Z</time>
      </trkpt>
      <trkpt lat="46.05549" lon="0.01517">
        <ele>121</ele>
        <time>2022-04-03T16:19:25Z</time>
      </trkpt>
      <trkpt lat="46.05553" lon="0.01512">
        <ele>121</ele>
        <time>2022-04-03T16:19:26Z</time>
      </trkpt>
      <trkpt lat="46.05556" lon="0.01506">
        <ele>120.6</ele>
        <time>2022-04-03T16:19:27Z</time>
      </trkpt>
      <trkpt lat="46.05559" lon="0.01501">
        <ele>120.6</ele>
        <time>2022-04-03T16:19:28Z</time>
      </trkpt>
      <trkpt lat="46.05562" lon="0.01497">
        <ele>120.4</ele>
        <time>2022-04-03T16:19:29Z</time>
      </trkpt>
      <trkpt lat="46.05565" lon="0.01494">
        <ele>120.4</ele>
        <time>2022-04-03T16:19:30Z</time>
      </trkpt>
      <trkpt lat="46.05568" lon="0.0149">
        <ele>120.2</ele>
        <time>2022-04-03T16:19:31Z</time>
      </trkpt>
      <trkpt lat="46.05571" lon="0.01487">
        <ele>120.2</ele>
        <time>2022-04-03T16:19:32Z</time>
      </trkpt>
      <trkpt lat="46.05573" lon="0.01483">
        <ele>120.2</ele>
        <time>2022-04-03T16:19:33Z</time>
      </trkpt>
      <trkpt lat="46.05575" lon="0.0148">
        <ele>120.2</ele>
        <time>2022-04-03T16:19:34Z</time>
      </trkpt>
      <trkpt lat="46.05577" lon="0.01477">
        <ele>120.2</ele>
        <time>2022-04-03T16:19:35Z</time>
      </trkpt>
      <trkpt lat="46.05579" lon="0.01474">
        <ele>120.2</ele>
        <time>2022-04-03T16:19:36Z</time>
      </trkpt>
      <trkpt lat="46.05582" lon="0.01471">
        <ele>120.2</ele>
        <time>2022-04-03T16:19:37Z</time>
      </trkpt>
      <trkpt lat="46.05584" lon="0.01468">
        <ele>120.2</ele>
        <time>2022-04-03T16:19:38Z</time>
      </trkpt>
      <trkpt lat="46.05586" lon="0.01465">
        <ele>120.4</ele>
        <time>2022-04-03T16:19:39Z</time>
      </trkpt>
      <trkpt lat="46.05588" lon="0.01462">
        <ele>120.8</ele>
        <time>2022-04-03T16:19:40Z</time>
      </trkpt>
      <trkpt lat="46.0559" lon="0.01459">
        <ele>121.4</ele>
        <time>2022-04-03T16:19:41Z</time>
      </trkpt>
      <trkpt lat="46.05592" lon="0.01456">
        <ele>121.6</ele>
        <time>2022-04-03T16:19:42Z</time>
      </trkpt>
      <trkpt lat="46.05594" lon="0.01453">
        <ele>122</ele>
        <time>2022-04-03T16:19:43Z</time>
      </trkpt>
      <trkpt lat="46.05597" lon="0.0145">
        <ele>122</ele>
        <time>2022-04-03T16:19:44Z</time>
      </trkpt>
      <trkpt lat="46.05599" lon="0.01447">
        <ele>122.2</ele>
        <time>2022-04-03T16:19:45Z</time>
      </trkpt>
      <trkpt lat="46.05601" lon="0.01444">
        <ele>122.2</ele>
        <time>2022-04-03T16:19:46Z</time>
      </trkpt>
      <trkpt lat="46.05603" lon="0.01441">
        <ele>122.2</ele>
        <time>2022-04-03T16:19:47Z</time>
      </trkpt>
      <trkpt lat="46.05605" lon="0.01438">
        <ele>122.4</ele>
        <time>2022-04-03T16:19:48Z</time>
      </trkpt>
      <trkpt lat="46.05607" lon="0.01435">
        <ele>122.6</ele>
        <time>2022-04-03T16:19:49Z</time>
      </trkpt>
      <trkpt lat="46.05609" lon="0.01432">
        <ele>122.8</ele>
        <time>2022-04-03T16:19:50Z</time>
      </trkpt>
      <trkpt lat="46.05611" lon="0.01429">
        <ele>122.8</ele>
        <time>2022-04-03T16:19:51Z</time>
      </trkpt>
      <trkpt lat="46.05613" lon="0.01426">
        <ele>123.2</ele>
        <time>2022-04-03T16:19:52Z</time>
      </trkpt>
      <trkpt lat="46.05615" lon="0.01423">
        <ele>123.6</ele>
        <time>2022-04-03T16:19:53Z</time>
      </trkpt>
      <trkpt lat="46.05617" lon="0.0142">
        <ele>123.6</ele>
        <time>2022-04-03T16:19:54Z</time>
      </trkpt>
      <trkpt lat="46.05619" lon="0.01417">
        <ele>123.8</ele>
        <time>2022-04-03T16:19:55Z</time>
      </trkpt>
      <trkpt lat="46.05621" lon="0.01414">
        <ele>124.2</ele>
        <time>2022-04-03T16:19:56Z</time>
      </trkpt>
      <trkpt lat="46.05623" lon="0.01411">
        <ele>124.4</ele>
        <time>2022-04-03T16:19:57Z</time>
      </trkpt>
      <trkpt lat="46.05626" lon="0.01408">
        <ele>124.6</ele>
        <time>2022-04-03T16:19:58Z</time>
      </trkpt>
      <trkpt lat="46.05628" lon="0.01405">
        <ele>124.8</ele>
        <time>2022-04-03T16:19:59Z</time>
      </trkpt>
      <trkpt lat="46.0563" lon="0.01402">
        <ele>124.6</ele>
        <time>2022-04-03T16:20:00Z</time>
      </trkpt>
      <trkpt lat="46.05633" lon="0.01398">
        <ele>125</ele>
        <time>2022-04-03T16:20:01Z</time>
      </trkpt>
      <trkpt lat="46.05635" lon="0.01395">
        <ele>125</ele>
        <time>2022-04-03T16:20:02Z</time>
      </trkpt>
      <trkpt lat="46.05637" lon="0.01391">
        <ele>125.2</ele>
        <time>2022-04-03T16:20:03Z</time>
      </trkpt>
      <trkpt lat="46.0564" lon="0.01388">
        <ele>125.2</ele>
        <time>2022-04-03T16:20:04Z</time>
      </trkpt>
      <trkpt lat="46.05642" lon="0.01384">
        <ele>125</ele>
        <time>2022-04-03T16:20:05Z</time>
      </trkpt>
      <trkpt lat="46.05645" lon="0.01381">
        <ele>125</ele>
        <time>2022-04-03T16:20:06Z</time>
      </trkpt>
      <trkpt lat="46.05647" lon="0.01377">
        <ele>125</ele>
        <time>2022-04-03T16:20:07Z</time>
      </trkpt>
      <trkpt lat="46.0565" lon="0.01374">
        <ele>125</ele>
        <time>2022-04-03T16:20:08Z</time>
      </trkpt>
      <trkpt lat="46.05652" lon="0.0137">
        <ele>125.2</ele>
        <time>2022-04-03T16:20:09Z</time>
      </trkpt>
      <trkpt lat="46.05655" lon="0.01366">
        <ele>125</ele>
        <time>2022-04-03T16:20:10Z</time>
      </trkpt>
      <trkpt lat="46.05657" lon="0.01363">
        <ele>125</ele>
        <time>2022-04-03T16:20:11Z</time>
      </trkpt>
      <trkpt lat="46.0566" lon="0.01359">
        <ele>125.2</ele>
        <time>2022-04-03T16:20:12Z</time>
      </trkpt>
      <trkpt lat="46.05663" lon="0.01355">
        <ele>125.2</ele>
        <time>2022-04-03T16:20:13Z</time>
      </trkpt>
      <trkpt lat="46.05665" lon="0.01352">
        <ele>125.4</ele>
        <time>2022-04-03T16:20:14Z</time>
      </trkpt>
      <trkpt lat="46.05668" lon="0.01348">
        <ele>125.6</ele>
        <time>2022-04-03T16:20:15Z</time>
      </trkpt>
      <trkpt lat="46.05671" lon="0.01345">
        <ele>125.8</ele>
        <time>2022-04-03T16:20:16Z</time>
      </trkpt>
      <trkpt lat="46.05674" lon="0.01341">
        <ele>125.8</ele>
        <time>2022-04-03T16:20:17Z</time>
      </trkpt>
      <trkpt lat="46.05676" lon="0.01338">
        <ele>126</ele>
        <time>2022-04-03T16:20:18Z</time>
      </trkpt>
      <trkpt lat="46.05679" lon="0.01334">
        <ele>126</ele>
        <time>2022-04-03T16:20:19Z</time>
      </trkpt>
      <trkpt lat="46.05682" lon="0.01331">
        <ele>126</ele>
        <time>2022-04-03T16:20:20Z</time>
      </trkpt>
      <trkpt lat="46.05685" lon="0.01327">
        <ele>126.2</ele>
        <time>2022-04-03T16:20:21Z</time>
      </trkpt>
      <trkpt lat="46.05688" lon="0.01324">
        <ele>126.4</ele>
        <time>2022-04-03T16:20:22Z</time>
      </trkpt>
      <trkpt lat="46.05691" lon="0.0132">
        <ele>126.4</ele>
        <time>2022-04-03T16:20:23Z</time>
      </trkpt>
      <trkpt lat="46.05694" lon="0.01317">
        <ele>126.4</ele>
        <time>2022-04-03T16:20:24Z</time>
      </trkpt>
      <trkpt lat="46.05697" lon="0.01313">
        <ele>126.4</ele>
        <time>2022-04-03T16:20:25Z</time>
      </trkpt>
      <trkpt lat="46.057" lon="0.0131">
        <ele>126.4</ele>
        <time>2022-04-03T16:20:26Z</time>
      </trkpt>
      <trkpt lat="46.05703" lon="0.01307">
        <ele>126.4</ele>
        <time>2022-04-03T16:20:27Z</time>
      </trkpt>
      <trkpt lat="46.05706" lon="0.01304">
        <ele>126.4</ele>
        <time>2022-04-03T16:20:28Z</time>
      </trkpt>
      <trkpt lat="46.0571" lon="0.013">
        <ele>126.4</ele>
        <time>2022-04-03T16:20:29Z</time>
      </trkpt>
      <trkpt lat="46.05713" lon="0.01297">
        <ele>126.4</ele>
        <time>2022-04-03T16:20:30Z</time>
      </trkpt>
      <trkpt lat="46.05716" lon="0.01293">
        <ele>126.6</ele>
        <time>2022-04-03T16:20:31Z</time>
      </trkpt>
      <trkpt lat="46.05719" lon="0.0129">
        <ele>126.4</ele>
        <time>2022-04-03T16:20:32Z</time>
      </trkpt>
      <trkpt lat="46.05722" lon="0.01287">
        <ele>126.6</ele>
        <time>2022-04-03T16:20:33Z</time>
      </trkpt>
      <trkpt lat="46.05725" lon="0.01284">
        <ele>126.6</ele>
        <time>2022-04-03T16:20:34Z</time>
      </trkpt>
      <trkpt lat="46.05729" lon="0.01281">
        <ele>126.6</ele>
        <time>2022-04-03T16:20:35Z</time>
      </trkpt>
      <trkpt lat="46.05732" lon="0.01277">
        <ele>126.6</ele>
        <time>2022-04-03T16:20:36Z</time>
      </trkpt>
      <trkpt lat="46.05735" lon="0.01274">
        <ele>126.6</ele>
        <time>2022-04-03T16:20:37Z</time>
      </trkpt>
      <trkpt lat="46.05738" lon="0.01271">
        <ele>126.8</ele>
        <time>2022-04-03T16:20:38Z</time>
      </trkpt>
      <trkpt lat="46.05741" lon="0.01268">
        <ele>126.6</ele>
        <time>2022-04-03T16:20:39Z</time>
      </trkpt>
      <trkpt lat="46.05745" lon="0.01265">
        <ele>126.6</ele>
        <time>2022-04-03T16:20:40Z</time>
      </trkpt>
      <trkpt lat="46.05748" lon="0.01262">
        <ele>126.8</ele>
        <time>2022-04-03T16:20:41Z</time>
      </trkpt>
      <trkpt lat="46.05751" lon="0.01258">
        <ele>126.6</ele>
        <time>2022-04-03T16:20:42Z</time>
      </trkpt>
      <trkpt lat="46.05754" lon="0.01255">
        <ele>126.6</ele>
        <time>2022-04-03T16:20:43Z</time>
      </trkpt>
      <trkpt lat="46.05758" lon="0.01252">
        <ele>126.6</ele>
        <time>2022-04-03T16:20:44Z</time>
      </trkpt>
      <trkpt lat="46.05761" lon="0.01249">
        <ele>126.6</ele>
        <time>2022-04-03T16:20:45Z</time>
      </trkpt>
      <trkpt lat="46.05764" lon="0.01246">
        <ele>126.6</ele>
        <time>2022-04-03T16:20:46Z</time>
      </trkpt>
      <trkpt lat="46.05767" lon="0.01244">
        <ele>126.6</ele>
        <time>2022-04-03T16:20:47Z</time>
      </trkpt>
      <trkpt lat="46.0577" lon="0.01241">
        <ele>126.6</ele>
        <time>2022-04-03T16:20:48Z</time>
      </trkpt>
      <trkpt lat="46.05774" lon="0.01238">
        <ele>126.6</ele>
        <time>2022-04-03T16:20:49Z</time>
      </trkpt>
      <trkpt lat="46.05777" lon="0.01235">
        <ele>126.4</ele>
        <time>2022-04-03T16:20:50Z</time>
      </trkpt>
      <trkpt lat="46.0578" lon="0.01232">
        <ele>126.6</ele>
        <time>2022-04-03T16:20:51Z</time>
      </trkpt>
      <trkpt lat="46.05783" lon="0.01229">
        <ele>126.6</ele>
        <time>2022-04-03T16:20:52Z</time>
      </trkpt>
      <trkpt lat="46.05786" lon="0.01226">
        <ele>126.6</ele>
        <time>2022-04-03T16:20:53Z</time>
      </trkpt>
      <trkpt lat="46.05789" lon="0.01223">
        <ele>126.6</ele>
        <time>2022-04-03T16:20:54Z</time>
      </trkpt>
      <trkpt lat="46.05793" lon="0.01219">
        <ele>126.6</ele>
        <time>2022-04-03T16:20:55Z</time>
      </trkpt>
      <trkpt lat="46.05796" lon="0.01216">
        <ele>126.6</ele>
        <time>2022-04-03T16:20:56Z</time>
      </trkpt>
      <trkpt lat="46.05799" lon="0.01213">
        <ele>126.6</ele>
        <time>2022-04-03T16:20:57Z</time>
      </trkpt>
      <trkpt lat="46.05802" lon="0.0121">
        <ele>126.4</ele>
        <time>2022-04-03T16:20:58Z</time>
      </trkpt>
      <trkpt lat="46.05805" lon="0.01207">
        <ele>126.6</ele>
        <time>2022-04-03T16:20:59Z</time>
      </trkpt>
      <trkpt lat="46.05809" lon="0.01204">
        <ele>126.4</ele>
        <time>2022-04-03T16:21:00Z</time>
      </trkpt>
      <trkpt lat="46.05812" lon="0.01201">
        <ele>126.6</ele>
        <time>2022-04-03T16:21:01Z</time>
      </trkpt>
      <trkpt lat="46.05815" lon="0.01198">
        <ele>126.6</ele>
        <time>2022-04-03T16:21:02Z</time>
      </trkpt>
      <trkpt lat="46.05818" lon="0.01194">
        <ele>126.6</ele>
        <time>2022-04-03T16:21:03Z</time>
      </trkpt>
      <trkpt lat="46.05821" lon="0.01191">
        <ele>126.6</ele>
        <time>2022-04-03T16:21:04Z</time>
      </trkpt>
      <trkpt lat="46.05825" lon="0.01188">
        <ele>126.6</ele>
        <time>2022-04-03T16:21:05Z</time>
      </trkpt>
      <trkpt lat="46.05828" lon="0.01184">
        <ele>126.6</ele>
        <time>2022-04-03T16:21:06Z</time>
      </trkpt>
      <trkpt lat="46.05831" lon="0.01181">
        <ele>126.6</ele>
        <time>2022-04-03T16:21:07Z</time>
      </trkpt>
      <trkpt lat="46.05835" lon="0.01178">
        <ele>126.6</ele>
        <time>2022-04-03T16:21:08Z</time>
      </trkpt>
      <trkpt lat="46.05838" lon="0.01174">
        <ele>126.6</ele>
        <time>2022-04-03T16:21:09Z</time>
      </trkpt>
      <trkpt lat="46.05842" lon="0.0117">
        <ele>126.8</ele>
        <time>2022-04-03T16:21:10Z</time>
      </trkpt>
      <trkpt lat="46.05846" lon="0.01166">
        <ele>126.6</ele>
        <time>2022-04-03T16:21:11Z</time>
      </trkpt>
      <trkpt lat="46.0585" lon="0.01163">
        <ele>126.6</ele>
        <time>2022-04-03T16:21:12Z</time>
      </trkpt>
      <trkpt lat="46.05855" lon="0.01159">
        <ele>126.6</ele>
        <time>2022-04-03T16:21:13Z</time>
      </trkpt>
      <trkpt lat="46.05859" lon="0.01154">
        <ele>126.8</ele>
        <time>2022-04-03T16:21:14Z</time>
      </trkpt>
      <trkpt lat="46.05864" lon="0.0115">
        <ele>126.6</ele>
        <time>2022-04-03T16:21:15Z</time>
      </trkpt>
      <trkpt lat="46.05868" lon="0.01145">
        <ele>126.6</ele>
        <time>2022-04-03T16:21:16Z</time>
      </trkpt>
      <trkpt lat="46.05873" lon="0.0114">
        <ele>126.6</ele>
        <time>2022-04-03T16:21:17Z</time>
      </trkpt>
      <trkpt lat="46.05878" lon="0.01135">
        <ele>126.4</ele>
        <time>2022-04-03T16:21:18Z</time>
      </trkpt>
      <trkpt lat="46.05883" lon="0.0113">
        <ele>126.4</ele>
        <time>2022-04-03T16:21:19Z</time>
      </trkpt>
      <trkpt lat="46.05889" lon="0.01125">
        <ele>126.2</ele>
        <time>2022-04-03T16:21:20Z</time>
      </trkpt>
      <trkpt lat="46.05894" lon="0.0112">
        <ele>125.8</ele>
        <time>2022-04-03T16:21:21Z</time>
      </trkpt>
      <trkpt lat="46.059" lon="0.01115">
        <ele>125.8</ele>
        <time>2022-04-03T16:21:22Z</time>
      </trkpt>
      <trkpt lat="46.05906" lon="0.01109">
        <ele>125.4</ele>
        <time>2022-04-03T16:21:23Z</time>
      </trkpt>
      <trkpt lat="46.05912" lon="0.01104">
        <ele>125.2</ele>
        <time>2022-04-03T16:21:24Z</time>
      </trkpt>
      <trkpt lat="46.05918" lon="0.01098">
        <ele>124.8</ele>
        <time>2022-04-03T16:21:25Z</time>
      </trkpt>
      <trkpt lat="46.05923" lon="0.01092">
        <ele>124.4</ele>
        <time>2022-04-03T16:21:26Z</time>
      </trkpt>
      <trkpt lat="46.0593" lon="0.01086">
        <ele>124</ele>
        <time>2022-04-03T16:21:27Z</time>
      </trkpt>
      <trkpt lat="46.05936" lon="0.0108">
        <ele>123.6</ele>
        <time>2022-04-03T16:21:28Z</time>
      </trkpt>
      <trkpt lat="46.05942" lon="0.01074">
        <ele>123</ele>
        <time>2022-04-03T16:21:29Z</time>
      </trkpt>
      <trkpt lat="46.05948" lon="0.01068">
        <ele>122.8</ele>
        <time>2022-04-03T16:21:30Z</time>
      </trkpt>
      <trkpt lat="46.05955" lon="0.01062">
        <ele>122.6</ele>
        <time>2022-04-03T16:21:31Z</time>
      </trkpt>
      <trkpt lat="46.05961" lon="0.01055">
        <ele>122.2</ele>
        <time>2022-04-03T16:21:32Z</time>
      </trkpt>
      <trkpt lat="46.05968" lon="0.01049">
        <ele>121.2</ele>
        <time>2022-04-03T16:21:33Z</time>
      </trkpt>
      <trkpt lat="46.05975" lon="0.01042">
        <ele>120.6</ele>
        <time>2022-04-03T16:21:34Z</time>
      </trkpt>
      <trkpt lat="46.05981" lon="0.01036">
        <ele>120</ele>
        <time>2022-04-03T16:21:35Z</time>
      </trkpt>
      <trkpt lat="46.05987" lon="0.0103">
        <ele>120</ele>
        <time>2022-04-03T16:21:36Z</time>
      </trkpt>
      <trkpt lat="46.05993" lon="0.01024">
        <ele>119.6</ele>
        <time>2022-04-03T16:21:37Z</time>
      </trkpt>
      <trkpt lat="46.05999" lon="0.01019">
        <ele>119.2</ele>
        <time>2022-04-03T16:21:38Z</time>
      </trkpt>
      <trkpt lat="46.06004" lon="0.01014">
        <ele>119.2</ele>
        <time>2022-04-03T16:21:39Z</time>
      </trkpt>
      <trkpt lat="46.06008" lon="0.0101">
        <ele>119.2</ele>
        <time>2022-04-03T16:21:40Z</time>
      </trkpt>
      <trkpt lat="46.06013" lon="0.01006">
        <ele>119.2</ele>
        <time>2022-04-03T16:21:41Z</time>
      </trkpt>
      <trkpt lat="46.06017" lon="0.01002">
        <ele>119</ele>
        <time>2022-04-03T16:21:42Z</time>
      </trkpt>
      <trkpt lat="46.0602" lon="0.00999">
        <ele>119.2</ele>
        <time>2022-04-03T16:21:43Z</time>
      </trkpt>
      <trkpt lat="46.06024" lon="0.00996">
        <ele>119</ele>
        <time>2022-04-03T16:21:44Z</time>
      </trkpt>
      <trkpt lat="46.06027" lon="0.00992">
        <ele>119.2</ele>
        <time>2022-04-03T16:21:45Z</time>
      </trkpt>
      <trkpt lat="46.0603" lon="0.00989">
        <ele>119</ele>
        <time>2022-04-03T16:21:46Z</time>
      </trkpt>
      <trkpt lat="46.06033" lon="0.00986">
        <ele>119</ele>
        <time>2022-04-03T16:21:47Z</time>
      </trkpt>
      <trkpt lat="46.06036" lon="0.00983">
        <ele>119</ele>
        <time>2022-04-03T16:21:48Z</time>
      </trkpt>
      <trkpt lat="46.06039" lon="0.00981">
        <ele>119.2</ele>
        <time>2022-04-03T16:21:49Z</time>
      </trkpt>
      <trkpt lat="46.06042" lon="0.00978">
        <ele>119.6</ele>
        <time>2022-04-03T16:21:50Z</time>
      </trkpt>
      <trkpt lat="46.06044" lon="0.00975">
        <ele>120.2</ele>
        <time>2022-04-03T16:21:51Z</time>
      </trkpt>
      <trkpt lat="46.06047" lon="0.00973">
        <ele>120.6</ele>
        <time>2022-04-03T16:21:52Z</time>
      </trkpt>
      <trkpt lat="46.06049" lon="0.0097">
        <ele>120.8</ele>
        <time>2022-04-03T16:21:53Z</time>
      </trkpt>
      <trkpt lat="46.06052" lon="0.00968">
        <ele>121.4</ele>
        <time>2022-04-03T16:21:54Z</time>
      </trkpt>
      <trkpt lat="46.06054" lon="0.00966">
        <ele>121.8</ele>
        <time>2022-04-03T16:21:55Z</time>
      </trkpt>
      <trkpt lat="46.06057" lon="0.00963">
        <ele>122.2</ele>
        <time>2022-04-03T16:21:56Z</time>
      </trkpt>
      <trkpt lat="46.06059" lon="0.00961">
        <ele>122.8</ele>
        <time>2022-04-03T16:21:57Z</time>
      </trkpt>
      <trkpt lat="46.06061" lon="0.00959">
        <ele>123</ele>
        <time>2022-04-03T16:21:58Z</time>
      </trkpt>
      <trkpt lat="46.06064" lon="0.00957">
        <ele>123.4</ele>
        <time>2022-04-03T16:21:59Z</time>
      </trkpt>
      <trkpt lat="46.06066" lon="0.00955">
        <ele>123.4</ele>
        <time>2022-04-03T16:22:00Z</time>
      </trkpt>
      <trkpt lat="46.06068" lon="0.00953">
        <ele>123.4</ele>
        <time>2022-04-03T16:22:01Z</time>
      </trkpt>
      <trkpt lat="46.06071" lon="0.00951">
        <ele>123.6</ele>
        <time>2022-04-03T16:22:02Z</time>
      </trkpt>
      <trkpt lat="46.06073" lon="0.00949">
        <ele>124</ele>
        <time>2022-04-03T16:22:03Z</time>
      </trkpt>
      <trkpt lat="46.06075" lon="0.00946">
        <ele>124.4</ele>
        <time>2022-04-03T16:22:04Z</time>
      </trkpt>
      <trkpt lat="46.06078" lon="0.00944">
        <ele>124.4</ele>
        <time>2022-04-03T16:22:05Z</time>
      </trkpt>
      <trkpt lat="46.0608" lon="0.00942">
        <ele>124.6</ele>
        <time>2022-04-03T16:22:06Z</time>
      </trkpt>
      <trkpt lat="46.06082" lon="0.0094">
        <ele>124.6</ele>
        <time>2022-04-03T16:22:07Z</time>
      </trkpt>
      <trkpt lat="46.06085" lon="0.00937">
        <ele>124.8</ele>
        <time>2022-04-03T16:22:08Z</time>
      </trkpt>
      <trkpt lat="46.06087" lon="0.00935">
        <ele>124.8</ele>
        <time>2022-04-03T16:22:09Z</time>
      </trkpt>
      <trkpt lat="46.06089" lon="0.00933">
        <ele>125</ele>
        <time>2022-04-03T16:22:10Z</time>
      </trkpt>
      <trkpt lat="46.06092" lon="0.00931">
        <ele>125.2</ele>
        <time>2022-04-03T16:22:11Z</time>
      </trkpt>
      <trkpt lat="46.06094" lon="0.00928">
        <ele>125.6</ele>
        <time>2022-04-03T16:22:12Z</time>
      </trkpt>
      <trkpt lat="46.06097" lon="0.00926">
        <ele>125.6</ele>
        <time>2022-04-03T16:22:13Z</time>
      </trkpt>
      <trkpt lat="46.06099" lon="0.00923">
        <ele>125.6</ele>
        <time>2022-04-03T16:22:14Z</time>
      </trkpt>
      <trkpt lat="46.06101" lon="0.00921">
        <ele>125.8</ele>
        <time>2022-04-03T16:22:15Z</time>
      </trkpt>
      <trkpt lat="46.06104" lon="0.00919">
        <ele>125.8</ele>
        <time>2022-04-03T16:22:16Z</time>
      </trkpt>
      <trkpt lat="46.06106" lon="0.00917">
        <ele>126</ele>
        <time>2022-04-03T16:22:17Z</time>
      </trkpt>
      <trkpt lat="46.06109" lon="0.00914">
        <ele>126</ele>
        <time>2022-04-03T16:22:18Z</time>
      </trkpt>
      <trkpt lat="46.06111" lon="0.00912">
        <ele>126</ele>
        <time>2022-04-03T16:22:19Z</time>
      </trkpt>
      <trkpt lat="46.06114" lon="0.00909">
        <ele>126.2</ele>
        <time>2022-04-03T16:22:20Z</time>
      </trkpt>
      <trkpt lat="46.06116" lon="0.00907">
        <ele>126.4</ele>
        <time>2022-04-03T16:22:21Z</time>
      </trkpt>
      <trkpt lat="46.06119" lon="0.00904">
        <ele>126.6</ele>
        <time>2022-04-03T16:22:22Z</time>
      </trkpt>
      <trkpt lat="46.06121" lon="0.00901">
        <ele>126.6</ele>
        <time>2022-04-03T16:22:23Z</time>
      </trkpt>
      <trkpt lat="46.06124" lon="0.00899">
        <ele>126.6</ele>
        <time>2022-04-03T16:22:24Z</time>
      </trkpt>
      <trkpt lat="46.06127" lon="0.00896">
        <ele>126.6</ele>
        <time>2022-04-03T16:22:25Z</time>
      </trkpt>
      <trkpt lat="46.0613" lon="0.00894">
        <ele>127</ele>
        <time>2022-04-03T16:22:26Z</time>
      </trkpt>
      <trkpt lat="46.06133" lon="0.00891">
        <ele>127.4</ele>
        <time>2022-04-03T16:22:27Z</time>
      </trkpt>
      <trkpt lat="46.06135" lon="0.00888">
        <ele>127.6</ele>
        <time>2022-04-03T16:22:28Z</time>
      </trkpt>
      <trkpt lat="46.06138" lon="0.00885">
        <ele>127.8</ele>
        <time>2022-04-03T16:22:29Z</time>
      </trkpt>
      <trkpt lat="46.06141" lon="0.00882">
        <ele>127.8</ele>
        <time>2022-04-03T16:22:30Z</time>
      </trkpt>
      <trkpt lat="46.06144" lon="0.00879">
        <ele>127.8</ele>
        <time>2022-04-03T16:22:31Z</time>
      </trkpt>
      <trkpt lat="46.06147" lon="0.00876">
        <ele>127.8</ele>
        <time>2022-04-03T16:22:32Z</time>
      </trkpt>
      <trkpt lat="46.0615" lon="0.00873">
        <ele>127.8</ele>
        <time>2022-04-03T16:22:33Z</time>
      </trkpt>
      <trkpt lat="46.06153" lon="0.0087">
        <ele>127.8</ele>
        <time>2022-04-03T16:22:34Z</time>
      </trkpt>
      <trkpt lat="46.06156" lon="0.00867">
        <ele>128</ele>
        <time>2022-04-03T16:22:35Z</time>
      </trkpt>
      <trkpt lat="46.06159" lon="0.00864">
        <ele>128</ele>
        <time>2022-04-03T16:22:36Z</time>
      </trkpt>
      <trkpt lat="46.06162" lon="0.00861">
        <ele>128</ele>
        <time>2022-04-03T16:22:37Z</time>
      </trkpt>
      <trkpt lat="46.06166" lon="0.00858">
        <ele>128</ele>
        <time>2022-04-03T16:22:38Z</time>
      </trkpt>
      <trkpt lat="46.06169" lon="0.00855">
        <ele>127.8</ele>
        <time>2022-04-03T16:22:39Z</time>
      </trkpt>
      <trkpt lat="46.06172" lon="0.00852">
        <ele>127.8</ele>
        <time>2022-04-03T16:22:40Z</time>
      </trkpt>
      <trkpt lat="46.06176" lon="0.00849">
        <ele>127.8</ele>
        <time>2022-04-03T16:22:41Z</time>
      </trkpt>
      <trkpt lat="46.06179" lon="0.00845">
        <ele>127.6</ele>
        <time>2022-04-03T16:22:42Z</time>
      </trkpt>
      <trkpt lat="46.06183" lon="0.00842">
        <ele>127.4</ele>
        <time>2022-04-03T16:22:43Z</time>
      </trkpt>
      <trkpt lat="46.06186" lon="0.00839">
        <ele>127.4</ele>
        <time>2022-04-03T16:22:44Z</time>
      </trkpt>
      <trkpt lat="46.0619" lon="0.00835">
        <ele>127.2</ele>
        <time>2022-04-03T16:22:45Z</time>
      </trkpt>
      <trkpt lat="46.06193" lon="0.00832">
        <ele>127.2</ele>
        <time>2022-04-03T16:22:46Z</time>
      </trkpt>
      <trkpt lat="46.06197" lon="0.00828">
        <ele>127</ele>
        <time>2022-04-03T16:22:47Z</time>
      </trkpt>
      <trkpt lat="46.06201" lon="0.00824">
        <ele>127</ele>
        <time>2022-04-03T16:22:48Z</time>
      </trkpt>
      <trkpt lat="46.06204" lon="0.0082">
        <ele>126.8</ele>
        <time>2022-04-03T16:22:49Z</time>
      </trkpt>
      <trkpt lat="46.06208" lon="0.00817">
        <ele>126.6</ele>
        <time>2022-04-03T16:22:50Z</time>
      </trkpt>
      <trkpt lat="46.06212" lon="0.00813">
        <ele>126.6</ele>
        <time>2022-04-03T16:22:51Z</time>
      </trkpt>
      <trkpt lat="46.06216" lon="0.00809">
        <ele>126.6</ele>
        <time>2022-04-03T16:22:52Z</time>
      </trkpt>
      <trkpt lat="46.0622" lon="0.00805">
        <ele>126.6</ele>
        <time>2022-04-03T16:22:53Z</time>
      </trkpt>
      <trkpt lat="46.06225" lon="0.00801">
        <ele>126.6</ele>
        <time>2022-04-03T16:22:54Z</time>
      </trkpt>
      <trkpt lat="46.06229" lon="0.00797">
        <ele>126.8</ele>
        <time>2022-04-03T16:22:55Z</time>
      </trkpt>
      <trkpt lat="46.06233" lon="0.00793">
        <ele>126.6</ele>
        <time>2022-04-03T16:22:56Z</time>
      </trkpt>
      <trkpt lat="46.06237" lon="0.00789">
        <ele>126.6</ele>
        <time>2022-04-03T16:22:57Z</time>
      </trkpt>
      <trkpt lat="46.06242" lon="0.00785">
        <ele>126.6</ele>
        <time>2022-04-03T16:22:58Z</time>
      </trkpt>
      <trkpt lat="46.06246" lon="0.0078">
        <ele>126.6</ele>
        <time>2022-04-03T16:22:59Z</time>
      </trkpt>
      <trkpt lat="46.06251" lon="0.00776">
        <ele>126.4</ele>
        <time>2022-04-03T16:23:00Z</time>
      </trkpt>
      <trkpt lat="46.06256" lon="0.00771">
        <ele>126.2</ele>
        <time>2022-04-03T16:23:01Z</time>
      </trkpt>
      <trkpt lat="46.0626" lon="0.00767">
        <ele>126.2</ele>
        <time>2022-04-03T16:23:02Z</time>
      </trkpt>
      <trkpt lat="46.06265" lon="0.00762">
        <ele>126</ele>
        <time>2022-04-03T16:23:03Z</time>
      </trkpt>
      <trkpt lat="46.0627" lon="0.00758">
        <ele>126</ele>
        <time>2022-04-03T16:23:04Z</time>
      </trkpt>
      <trkpt lat="46.06275" lon="0.00753">
        <ele>125.6</ele>
        <time>2022-04-03T16:23:05Z</time>
      </trkpt>
      <trkpt lat="46.06279" lon="0.00748">
        <ele>125.4</ele>
        <time>2022-04-03T16:23:06Z</time>
      </trkpt>
      <trkpt lat="46.06284" lon="0.00743">
        <ele>125.2</ele>
        <time>2022-04-03T16:23:07Z</time>
      </trkpt>
      <trkpt lat="46.06289" lon="0.00739">
        <ele>125</ele>
        <time>2022-04-03T16:23:08Z</time>
      </trkpt>
      <trkpt lat="46.06293" lon="0.00735">
        <ele>124.6</ele>
        <time>2022-04-03T16:23:09Z</time>
      </trkpt>
      <trkpt lat="46.06297" lon="0.0073">
        <ele>124.2</ele>
        <time>2022-04-03T16:23:10Z</time>
      </trkpt>
      <trkpt lat="46.06301" lon="0.00727">
        <ele>124</ele>
        <time>2022-04-03T16:23:11Z</time>
      </trkpt>
      <trkpt lat="46.06305" lon="0.00723">
        <ele>123.8</ele>
        <time>2022-04-03T16:23:12Z</time>
      </trkpt>
      <trkpt lat="46.06309" lon="0.0072">
        <ele>123.8</ele>
        <time>2022-04-03T16:23:13Z</time>
      </trkpt>
      <trkpt lat="46.06312" lon="0.00716">
        <ele>123.8</ele>
        <time>2022-04-03T16:23:14Z</time>
      </trkpt>
      <trkpt lat="46.06316" lon="0.00713">
        <ele>123.8</ele>
        <time>2022-04-03T16:23:15Z</time>
      </trkpt>
      <trkpt lat="46.06319" lon="0.00709">
        <ele>123.8</ele>
        <time>2022-04-03T16:23:16Z</time>
      </trkpt>
      <trkpt lat="46.06323" lon="0.00706">
        <ele>124</ele>
        <time>2022-04-03T16:23:17Z</time>
      </trkpt>
      <trkpt lat="46.06326" lon="0.00703">
        <ele>123.8</ele>
        <time>2022-04-03T16:23:18Z</time>
      </trkpt>
      <trkpt lat="46.06329" lon="0.007">
        <ele>123.8</ele>
        <time>2022-04-03T16:23:19Z</time>
      </trkpt>
      <trkpt lat="46.06332" lon="0.00697">
        <ele>123.8</ele>
        <time>2022-04-03T16:23:20Z</time>
      </trkpt>
      <trkpt lat="46.06335" lon="0.00694">
        <ele>124</ele>
        <time>2022-04-03T16:23:21Z</time>
      </trkpt>
      <trkpt lat="46.06338" lon="0.00691">
        <ele>124.2</ele>
        <time>2022-04-03T16:23:22Z</time>
      </trkpt>
      <trkpt lat="46.06341" lon="0.00688">
        <ele>124.4</ele>
        <time>2022-04-03T16:23:23Z</time>
      </trkpt>
      <trkpt lat="46.06345" lon="0.00685">
        <ele>124.6</ele>
        <time>2022-04-03T16:23:24Z</time>
      </trkpt>
      <trkpt lat="46.06348" lon="0.00683">
        <ele>124.8</ele>
        <time>2022-04-03T16:23:25Z</time>
      </trkpt>
      <trkpt lat="46.06351" lon="0.0068">
        <ele>125</ele>
        <time>2022-04-03T16:23:26Z</time>
      </trkpt>
      <trkpt lat="46.06354" lon="0.00677">
        <ele>125.4</ele>
        <time>2022-04-03T16:23:27Z</time>
      </trkpt>
      <trkpt lat="46.06357" lon="0.00674">
        <ele>125.6</ele>
        <time>2022-04-03T16:23:28Z</time>
      </trkpt>
      <trkpt lat="46.0636" lon="0.00671">
        <ele>126</ele>
        <time>2022-04-03T16:23:29Z</time>
      </trkpt>
      <trkpt lat="46.06363" lon="0.00668">
        <ele>126.2</ele>
        <time>2022-04-03T16:23:30Z</time>
      </trkpt>
      <trkpt lat="46.06366" lon="0.00665">
        <ele>126.4</ele>
        <time>2022-04-03T16:23:31Z</time>
      </trkpt>
      <trkpt lat="46.06369" lon="0.00662">
        <ele>126.6</ele>
        <time>2022-04-03T16:23:32Z</time>
      </trkpt>
      <trkpt lat="46.06372" lon="0.00659">
        <ele>126.6</ele>
        <time>2022-04-03T16:23:33Z</time>
      </trkpt>
      <trkpt lat="46.06375" lon="0.00656">
        <ele>127</ele>
        <time>2022-04-03T16:23:34Z</time>
      </trkpt>
      <trkpt lat="46.06378" lon="0.00653">
        <ele>127</ele>
        <time>2022-04-03T16:23:35Z</time>
      </trkpt>
      <trkpt lat="46.06381" lon="0.0065">
        <ele>127</ele>
        <time>2022-04-03T16:23:36Z</time>
      </trkpt>
      <trkpt lat="46.06384" lon="0.00647">
        <ele>127.4</ele>
        <time>2022-04-03T16:23:37Z</time>
      </trkpt>
      <trkpt lat="46.06387" lon="0.00644">
        <ele>127.6</ele>
        <time>2022-04-03T16:23:38Z</time>
      </trkpt>
      <trkpt lat="46.0639" lon="0.00642">
        <ele>127.8</ele>
        <time>2022-04-03T16:23:39Z</time>
      </trkpt>
      <trkpt lat="46.06393" lon="0.00639">
        <ele>128</ele>
        <time>2022-04-03T16:23:40Z</time>
      </trkpt>
      <trkpt lat="46.06396" lon="0.00636">
        <ele>128.2</ele>
        <time>2022-04-03T16:23:41Z</time>
      </trkpt>
      <trkpt lat="46.06399" lon="0.00633">
        <ele>128.4</ele>
        <time>2022-04-03T16:23:42Z</time>
      </trkpt>
      <trkpt lat="46.06402" lon="0.0063">
        <ele>128.8</ele>
        <time>2022-04-03T16:23:43Z</time>
      </trkpt>
      <trkpt lat="46.06405" lon="0.00627">
        <ele>129</ele>
        <time>2022-04-03T16:23:44Z</time>
      </trkpt>
      <trkpt lat="46.06408" lon="0.00625">
        <ele>129.4</ele>
        <time>2022-04-03T16:23:45Z</time>
      </trkpt>
      <trkpt lat="46.06411" lon="0.00622">
        <ele>129.6</ele>
        <time>2022-04-03T16:23:46Z</time>
      </trkpt>
      <trkpt lat="46.06413" lon="0.0062">
        <ele>129.8</ele>
        <time>2022-04-03T16:23:47Z</time>
      </trkpt>
      <trkpt lat="46.06416" lon="0.00618">
        <ele>130</ele>
        <time>2022-04-03T16:23:48Z</time>
      </trkpt>
      <trkpt lat="46.06418" lon="0.00615">
        <ele>130.2</ele>
        <time>2022-04-03T16:23:49Z</time>
      </trkpt>
      <trkpt lat="46.0642" lon="0.00613">
        <ele>130.2</ele>
        <time>2022-04-03T16:23:50Z</time>
      </trkpt>
      <trkpt lat="46.06422" lon="0.00611">
        <ele>130.4</ele>
        <time>2022-04-03T16:23:51Z</time>
      </trkpt>
      <trkpt lat="46.06425" lon="0.00608">
        <ele>130.4</ele>
        <time>2022-04-03T16:23:52Z</time>
      </trkpt>
      <trkpt lat="46.06427" lon="0.00606">
        <ele>130.6</ele>
        <time>2022-04-03T16:23:53Z</time>
      </trkpt>
      <trkpt lat="46.06429" lon="0.00604">
        <ele>130.6</ele>
        <time>2022-04-03T16:23:54Z</time>
      </trkpt>
      <trkpt lat="46.06431" lon="0.00602">
        <ele>130.8</ele>
        <time>2022-04-03T16:23:55Z</time>
      </trkpt>
      <trkpt lat="46.06434" lon="0.006">
        <ele>130.8</ele>
        <time>2022-04-03T16:23:56Z</time>
      </trkpt>
      <trkpt lat="46.06436" lon="0.00598">
        <ele>131</ele>
        <time>2022-04-03T16:23:57Z</time>
      </trkpt>
      <trkpt lat="46.06438" lon="0.00595">
        <ele>131.4</ele>
        <time>2022-04-03T16:23:58Z</time>
      </trkpt>
      <trkpt lat="46.06441" lon="0.00593">
        <ele>131.6</ele>
        <time>2022-04-03T16:23:59Z</time>
      </trkpt>
      <trkpt lat="46.06443" lon="0.00591">
        <ele>131.6</ele>
        <time>2022-04-03T16:24:00Z</time>
      </trkpt>
      <trkpt lat="46.06446" lon="0.00589">
        <ele>132</ele>
        <time>2022-04-03T16:24:01Z</time>
      </trkpt>
      <trkpt lat="46.06448" lon="0.00586">
        <ele>132</ele>
        <time>2022-04-03T16:24:02Z</time>
      </trkpt>
      <trkpt lat="46.06451" lon="0.00584">
        <ele>132.4</ele>
        <time>2022-04-03T16:24:03Z</time>
      </trkpt>
      <trkpt lat="46.06453" lon="0.00582">
        <ele>132.4</ele>
        <time>2022-04-03T16:24:04Z</time>
      </trkpt>
      <trkpt lat="46.06456" lon="0.00579">
        <ele>132.6</ele>
        <time>2022-04-03T16:24:05Z</time>
      </trkpt>
      <trkpt lat="46.06458" lon="0.00577">
        <ele>132.8</ele>
        <time>2022-04-03T16:24:06Z</time>
      </trkpt>
      <trkpt lat="46.06461" lon="0.00574">
        <ele>132.8</ele>
        <time>2022-04-03T16:24:07Z</time>
      </trkpt>
      <trkpt lat="46.06463" lon="0.00572">
        <ele>132.8</ele>
        <time>2022-04-03T16:24:08Z</time>
      </trkpt>
      <trkpt lat="46.06466" lon="0.00569">
        <ele>133</ele>
        <time>2022-04-03T16:24:09Z</time>
      </trkpt>
      <trkpt lat="46.06469" lon="0.00566">
        <ele>133</ele>
        <time>2022-04-03T16:24:10Z</time>
      </trkpt>
      <trkpt lat="46.06472" lon="0.00564">
        <ele>133.2</ele>
        <time>2022-04-03T16:24:11Z</time>
      </trkpt>
      <trkpt lat="46.06474" lon="0.00561">
        <ele>133.2</ele>
        <time>2022-04-03T16:24:12Z</time>
      </trkpt>
      <trkpt lat="46.06477" lon="0.00559">
        <ele>133</ele>
        <time>2022-04-03T16:24:13Z</time>
      </trkpt>
      <trkpt lat="46.06479" lon="0.00556">
        <ele>133.2</ele>
        <time>2022-04-03T16:24:14Z</time>
      </trkpt>
      <trkpt lat="46.06482" lon="0.00553">
        <ele>133.2</ele>
        <time>2022-04-03T16:24:15Z</time>
      </trkpt>
      <trkpt lat="46.06485" lon="0.00551">
        <ele>133.2</ele>
        <time>2022-04-03T16:24:16Z</time>
      </trkpt>
      <trkpt lat="46.06487" lon="0.00548">
        <ele>133.2</ele>
        <time>2022-04-03T16:24:17Z</time>
      </trkpt>
      <trkpt lat="46.0649" lon="0.00545">
        <ele>133.2</ele>
        <time>2022-04-03T16:24:18Z</time>
      </trkpt>
      <trkpt lat="46.06493" lon="0.00543">
        <ele>133.4</ele>
        <time>2022-04-03T16:24:19Z</time>
      </trkpt>
      <trkpt lat="46.06495" lon="0.0054">
        <ele>133.4</ele>
        <time>2022-04-03T16:24:20Z</time>
      </trkpt>
      <trkpt lat="46.06498" lon="0.00538">
        <ele>133.4</ele>
        <time>2022-04-03T16:24:21Z</time>
      </trkpt>
      <trkpt lat="46.06501" lon="0.00535">
        <ele>133.2</ele>
        <time>2022-04-03T16:24:22Z</time>
      </trkpt>
      <trkpt lat="46.06504" lon="0.00533">
        <ele>133.4</ele>
        <time>2022-04-03T16:24:23Z</time>
      </trkpt>
      <trkpt lat="46.06506" lon="0.0053">
        <ele>133.6</ele>
        <time>2022-04-03T16:24:24Z</time>
      </trkpt>
      <trkpt lat="46.06509" lon="0.00527">
        <ele>133.6</ele>
        <time>2022-04-03T16:24:25Z</time>
      </trkpt>
      <trkpt lat="46.06512" lon="0.00525">
        <ele>133.8</ele>
        <time>2022-04-03T16:24:26Z</time>
      </trkpt>
      <trkpt lat="46.06514" lon="0.00522">
        <ele>134</ele>
        <time>2022-04-03T16:24:27Z</time>
      </trkpt>
      <trkpt lat="46.06517" lon="0.00519">
        <ele>134</ele>
        <time>2022-04-03T16:24:28Z</time>
      </trkpt>
      <trkpt lat="46.0652" lon="0.00516">
        <ele>134</ele>
        <time>2022-04-03T16:24:29Z</time>
      </trkpt>
      <trkpt lat="46.06523" lon="0.00514">
        <ele>134</ele>
        <time>2022-04-03T16:24:30Z</time>
      </trkpt>
      <trkpt lat="46.06526" lon="0.00511">
        <ele>134.2</ele>
        <time>2022-04-03T16:24:31Z</time>
      </trkpt>
      <trkpt lat="46.06529" lon="0.00508">
        <ele>134.2</ele>
        <time>2022-04-03T16:24:32Z</time>
      </trkpt>
      <trkpt lat="46.06532" lon="0.00506">
        <ele>134.2</ele>
        <time>2022-04-03T16:24:33Z</time>
      </trkpt>
      <trkpt lat="46.06534" lon="0.00503">
        <ele>134.2</ele>
        <time>2022-04-03T16:24:34Z</time>
      </trkpt>
      <trkpt lat="46.06537" lon="0.005">
        <ele>134.4</ele>
        <time>2022-04-03T16:24:35Z</time>
      </trkpt>
      <trkpt lat="46.0654" lon="0.00497">
        <ele>134.2</ele>
        <time>2022-04-03T16:24:36Z</time>
      </trkpt>
      <trkpt lat="46.06543" lon="0.00494">
        <ele>134.2</ele>
        <time>2022-04-03T16:24:37Z</time>
      </trkpt>
      <trkpt lat="46.06546" lon="0.00491">
        <ele>134.2</ele>
        <time>2022-04-03T16:24:38Z</time>
      </trkpt>
      <trkpt lat="46.06549" lon="0.00489">
        <ele>134.4</ele>
        <time>2022-04-03T16:24:39Z</time>
      </trkpt>
      <trkpt lat="46.06552" lon="0.00486">
        <ele>134.4</ele>
        <time>2022-04-03T16:24:40Z</time>
      </trkpt>
      <trkpt lat="46.06555" lon="0.00483">
        <ele>134.4</ele>
        <time>2022-04-03T16:24:41Z</time>
      </trkpt>
      <trkpt lat="46.06558" lon="0.0048">
        <ele>134.4</ele>
        <time>2022-04-03T16:24:42Z</time>
      </trkpt>
      <trkpt lat="46.06561" lon="0.00477">
        <ele>134.2</ele>
        <time>2022-04-03T16:24:43Z</time>
      </trkpt>
      <trkpt lat="46.06564" lon="0.00474">
        <ele>134.2</ele>
        <time>2022-04-03T16:24:44Z</time>
      </trkpt>
      <trkpt lat="46.06567" lon="0.00471">
        <ele>134.2</ele>
        <time>2022-04-03T16:24:45Z</time>
      </trkpt>
      <trkpt lat="46.0657" lon="0.00468">
        <ele>134.4</ele>
        <time>2022-04-03T16:24:46Z</time>
      </trkpt>
      <trkpt lat="46.06573" lon="0.00465">
        <ele>134.2</ele>
        <time>2022-04-03T16:24:47Z</time>
      </trkpt>
      <trkpt lat="46.06576" lon="0.00462">
        <ele>134.2</ele>
        <time>2022-04-03T16:24:48Z</time>
      </trkpt>
      <trkpt lat="46.06579" lon="0.00459">
        <ele>134.2</ele>
        <time>2022-04-03T16:24:49Z</time>
      </trkpt>
      <trkpt lat="46.06582" lon="0.00456">
        <ele>134.2</ele>
        <time>2022-04-03T16:24:50Z</time>
      </trkpt>
      <trkpt lat="46.06585" lon="0.00453">
        <ele>134.2</ele>
        <time>2022-04-03T16:24:51Z</time>
      </trkpt>
      <trkpt lat="46.06589" lon="0.0045">
        <ele>134.2</ele>
        <time>2022-04-03T16:24:52Z</time>
      </trkpt>
      <trkpt lat="46.06592" lon="0.00447">
        <ele>134.2</ele>
        <time>2022-04-03T16:24:53Z</time>
      </trkpt>
      <trkpt lat="46.06595" lon="0.00444">
        <ele>134.2</ele>
        <time>2022-04-03T16:24:54Z</time>
      </trkpt>
      <trkpt lat="46.06598" lon="0.00441">
        <ele>134.4</ele>
        <time>2022-04-03T16:24:55Z</time>
      </trkpt>
      <trkpt lat="46.06601" lon="0.00438">
        <ele>134.4</ele>
        <time>2022-04-03T16:24:56Z</time>
      </trkpt>
      <trkpt lat="46.06605" lon="0.00435">
        <ele>134.4</ele>
        <time>2022-04-03T16:24:57Z</time>
      </trkpt>
      <trkpt lat="46.06608" lon="0.00432">
        <ele>134.4</ele>
        <time>2022-04-03T16:24:58Z</time>
      </trkpt>
      <trkpt lat="46.06611" lon="0.00428">
        <ele>134.6</ele>
        <time>2022-04-03T16:24:59Z</time>
      </trkpt>
      <trkpt lat="46.06615" lon="0.00425">
        <ele>134.6</ele>
        <time>2022-04-03T16:25:00Z</time>
      </trkpt>
      <trkpt lat="46.06618" lon="0.00422">
        <ele>134.8</ele>
        <time>2022-04-03T16:25:01Z</time>
      </trkpt>
      <trkpt lat="46.06622" lon="0.00418">
        <ele>134.6</ele>
        <time>2022-04-03T16:25:02Z</time>
      </trkpt>
      <trkpt lat="46.06626" lon="0.00415">
        <ele>134.8</ele>
        <time>2022-04-03T16:25:03Z</time>
      </trkpt>
      <trkpt lat="46.06629" lon="0.00411">
        <ele>134.8</ele>
        <time>2022-04-03T16:25:04Z</time>
      </trkpt>
      <trkpt lat="46.06633" lon="0.00408">
        <ele>134.8</ele>
        <time>2022-04-03T16:25:05Z</time>
      </trkpt>
      <trkpt lat="46.06636" lon="0.00404">
        <ele>134.6</ele>
        <time>2022-04-03T16:25:06Z</time>
      </trkpt>
      <trkpt lat="46.0664" lon="0.00401">
        <ele>134.8</ele>
        <time>2022-04-03T16:25:07Z</time>
      </trkpt>
      <trkpt lat="46.06644" lon="0.00397">
        <ele>134.6</ele>
        <time>2022-04-03T16:25:08Z</time>
      </trkpt>
      <trkpt lat="46.06647" lon="0.00393">
        <ele>134.6</ele>
        <time>2022-04-03T16:25:09Z</time>
      </trkpt>
      <trkpt lat="46.06651" lon="0.00389">
        <ele>134.6</ele>
        <time>2022-04-03T16:25:10Z</time>
      </trkpt>
      <trkpt lat="46.06655" lon="0.00386">
        <ele>134.6</ele>
        <time>2022-04-03T16:25:11Z</time>
      </trkpt>
      <trkpt lat="46.06659" lon="0.00382">
        <ele>134.6</ele>
        <time>2022-04-03T16:25:12Z</time>
      </trkpt>
      <trkpt lat="46.06663" lon="0.00378">
        <ele>134.4</ele>
        <time>2022-04-03T16:25:13Z</time>
      </trkpt>
      <trkpt lat="46.06667" lon="0.00375">
        <ele>134.4</ele>
        <time>2022-04-03T16:25:14Z</time>
      </trkpt>
      <trkpt lat="46.06671" lon="0.00371">
        <ele>134.4</ele>
        <time>2022-04-03T16:25:15Z</time>
      </trkpt>
      <trkpt lat="46.06675" lon="0.00367">
        <ele>134.4</ele>
        <time>2022-04-03T16:25:16Z</time>
      </trkpt>
      <trkpt lat="46.06679" lon="0.00363">
        <ele>134.2</ele>
        <time>2022-04-03T16:25:17Z</time>
      </trkpt>
      <trkpt lat="46.06683" lon="0.00359">
        <ele>134.2</ele>
        <time>2022-04-03T16:25:18Z</time>
      </trkpt>
      <trkpt lat="46.06687" lon="0.00355">
        <ele>134.2</ele>
        <time>2022-04-03T16:25:19Z</time>
      </trkpt>
      <trkpt lat="46.06691" lon="0.00352">
        <ele>134</ele>
        <time>2022-04-03T16:25:20Z</time>
      </trkpt>
      <trkpt lat="46.06695" lon="0.00348">
        <ele>133.8</ele>
        <time>2022-04-03T16:25:21Z</time>
      </trkpt>
      <trkpt lat="46.06699" lon="0.00344">
        <ele>133.6</ele>
        <time>2022-04-03T16:25:22Z</time>
      </trkpt>
      <trkpt lat="46.06703" lon="0.0034">
        <ele>133.6</ele>
        <time>2022-04-03T16:25:23Z</time>
      </trkpt>
      <trkpt lat="46.06707" lon="0.00336">
        <ele>133.4</ele>
        <time>2022-04-03T16:25:24Z</time>
      </trkpt>
      <trkpt lat="46.06711" lon="0.00331">
        <ele>133.4</ele>
        <time>2022-04-03T16:25:25Z</time>
      </trkpt>
      <trkpt lat="46.06716" lon="0.00328">
        <ele>133.4</ele>
        <time>2022-04-03T16:25:26Z</time>
      </trkpt>
      <trkpt lat="46.0672" lon="0.00324">
        <ele>133.2</ele>
        <time>2022-04-03T16:25:27Z</time>
      </trkpt>
      <trkpt lat="46.06724" lon="0.0032">
        <ele>133.2</ele>
        <time>2022-04-03T16:25:28Z</time>
      </trkpt>
      <trkpt lat="46.06728" lon="0.00316">
        <ele>133.2</ele>
        <time>2022-04-03T16:25:29Z</time>
      </trkpt>
      <trkpt lat="46.06732" lon="0.00312">
        <ele>133.2</ele>
        <time>2022-04-03T16:25:30Z</time>
      </trkpt>
      <trkpt lat="46.06736" lon="0.00308">
        <ele>133</ele>
        <time>2022-04-03T16:25:31Z</time>
      </trkpt>
      <trkpt lat="46.0674" lon="0.00305">
        <ele>133</ele>
        <time>2022-04-03T16:25:32Z</time>
      </trkpt>
      <trkpt lat="46.06744" lon="0.00301">
        <ele>132.6</ele>
        <time>2022-04-03T16:25:33Z</time>
      </trkpt>
      <trkpt lat="46.06748" lon="0.00297">
        <ele>132.4</ele>
        <time>2022-04-03T16:25:34Z</time>
      </trkpt>
      <trkpt lat="46.06752" lon="0.00293">
        <ele>132.2</ele>
        <time>2022-04-03T16:25:35Z</time>
      </trkpt>
      <trkpt lat="46.06756" lon="0.00289">
        <ele>131.4</ele>
        <time>2022-04-03T16:25:36Z</time>
      </trkpt>
      <trkpt lat="46.0676" lon="0.00286">
        <ele>131.2</ele>
        <time>2022-04-03T16:25:37Z</time>
      </trkpt>
      <trkpt lat="46.06764" lon="0.00282">
        <ele>130.8</ele>
        <time>2022-04-03T16:25:38Z</time>
      </trkpt>
      <trkpt lat="46.06768" lon="0.00278">
        <ele>130.8</ele>
        <time>2022-04-03T16:25:39Z</time>
      </trkpt>
      <trkpt lat="46.06772" lon="0.00273">
        <ele>130.8</ele>
        <time>2022-04-03T16:25:40Z</time>
      </trkpt>
      <trkpt lat="46.06776" lon="0.00269">
        <ele>130.6</ele>
        <time>2022-04-03T16:25:41Z</time>
      </trkpt>
      <trkpt lat="46.0678" lon="0.00265">
        <ele>130.6</ele>
        <time>2022-04-03T16:25:42Z</time>
      </trkpt>
      <trkpt lat="46.06784" lon="0.00261">
        <ele>130.6</ele>
        <time>2022-04-03T16:25:43Z</time>
      </trkpt>
      <trkpt lat="46.06788" lon="0.00258">
        <ele>130.4</ele>
        <time>2022-04-03T16:25:44Z</time>
      </trkpt>
      <trkpt lat="46.06792" lon="0.00254">
        <ele>130.4</ele>
        <time>2022-04-03T16:25:45Z</time>
      </trkpt>
      <trkpt lat="46.06796" lon="0.0025">
        <ele>130.4</ele>
        <time>2022-04-03T16:25:46Z</time>
      </trkpt>
      <trkpt lat="46.068" lon="0.00246">
        <ele>130.4</ele>
        <time>2022-04-03T16:25:47Z</time>
      </trkpt>
      <trkpt lat="46.06805" lon="0.00242">
        <ele>130.2</ele>
        <time>2022-04-03T16:25:48Z</time>
      </trkpt>
      <trkpt lat="46.06809" lon="0.00238">
        <ele>130</ele>
        <time>2022-04-03T16:25:49Z</time>
      </trkpt>
      <trkpt lat="46.06813" lon="0.00234">
        <ele>129.8</ele>
        <time>2022-04-03T16:25:50Z</time>
      </trkpt>
      <trkpt lat="46.06817" lon="0.0023">
        <ele>129.6</ele>
        <time>2022-04-03T16:25:51Z</time>
      </trkpt>
      <trkpt lat="46.06821" lon="0.00226">
        <ele>129.4</ele>
        <time>2022-04-03T16:25:52Z</time>
      </trkpt>
      <trkpt lat="46.06825" lon="0.00222">
        <ele>129.2</ele>
        <time>2022-04-03T16:25:53Z</time>
      </trkpt>
      <trkpt lat="46.06829" lon="0.00218">
        <ele>129</ele>
        <time>2022-04-03T16:25:54Z</time>
      </trkpt>
      <trkpt lat="46.06833" lon="0.00214">
        <ele>129</ele>
        <time>2022-04-03T16:25:55Z</time>
      </trkpt>
      <trkpt lat="46.06838" lon="0.0021">
        <ele>128.6</ele>
        <time>2022-04-03T16:25:56Z</time>
      </trkpt>
      <trkpt lat="46.06842" lon="0.00206">
        <ele>128.6</ele>
        <time>2022-04-03T16:25:57Z</time>
      </trkpt>
      <trkpt lat="46.06846" lon="0.00202">
        <ele>128.6</ele>
        <time>2022-04-03T16:25:58Z</time>
      </trkpt>
      <trkpt lat="46.06851" lon="0.00197">
        <ele>128.4</ele>
        <time>2022-04-03T16:25:59Z</time>
      </trkpt>
      <trkpt lat="46.06855" lon="0.00193">
        <ele>128.2</ele>
        <time>2022-04-03T16:26:00Z</time>
      </trkpt>
      <trkpt lat="46.06859" lon="0.00189">
        <ele>128.2</ele>
        <time>2022-04-03T16:26:01Z</time>
      </trkpt>
      <trkpt lat="46.06864" lon="0.00185">
        <ele>128</ele>
        <time>2022-04-03T16:26:02Z</time>
      </trkpt>
      <trkpt lat="46.06868" lon="0.0018">
        <ele>128</ele>
        <time>2022-04-03T16:26:03Z</time>
      </trkpt>
      <trkpt lat="46.06873" lon="0.00176">
        <ele>127.8</ele>
        <time>2022-04-03T16:26:04Z</time>
      </trkpt>
      <trkpt lat="46.06877" lon="0.00172">
        <ele>127.6</ele>
        <time>2022-04-03T16:26:05Z</time>
      </trkpt>
      <trkpt lat="46.06881" lon="0.00168">
        <ele>127.4</ele>
        <time>2022-04-03T16:26:06Z</time>
      </trkpt>
      <trkpt lat="46.06885" lon="0.00164">
        <ele>127.4</ele>
        <time>2022-04-03T16:26:07Z</time>
      </trkpt>
      <trkpt lat="46.06889" lon="0.0016">
        <ele>127.4</ele>
        <time>2022-04-03T16:26:08Z</time>
      </trkpt>
      <trkpt lat="46.06893" lon="0.00156">
        <ele>127.4</ele>
        <time>2022-04-03T16:26:09Z</time>
      </trkpt>
      <trkpt lat="46.06897" lon="0.00152">
        <ele>127.2</ele>
        <time>2022-04-03T16:26:10Z</time>
      </trkpt>
      <trkpt lat="46.06901" lon="0.00148">
        <ele>127.2</ele>
        <time>2022-04-03T16:26:11Z</time>
      </trkpt>
      <trkpt lat="46.06905" lon="0.00145">
        <ele>127.2</ele>
        <time>2022-04-03T16:26:12Z</time>
      </trkpt>
      <trkpt lat="46.06908" lon="0.00141">
        <ele>127.2</ele>
        <time>2022-04-03T16:26:13Z</time>
      </trkpt>
      <trkpt lat="46.06912" lon="0.00137">
        <ele>127.4</ele>
        <time>2022-04-03T16:26:14Z</time>
      </trkpt>
      <trkpt lat="46.06916" lon="0.00134">
        <ele>127.2</ele>
        <time>2022-04-03T16:26:15Z</time>
      </trkpt>
      <trkpt lat="46.06919" lon="0.00131">
        <ele>127.2</ele>
        <time>2022-04-03T16:26:16Z</time>
      </trkpt>
      <trkpt lat="46.06923" lon="0.00127">
        <ele>127.2</ele>
        <time>2022-04-03T16:26:17Z</time>
      </trkpt>
      <trkpt lat="46.06927" lon="0.00124">
        <ele>127.2</ele>
        <time>2022-04-03T16:26:18Z</time>
      </trkpt>
      <trkpt lat="46.0693" lon="0.0012">
        <ele>127.2</ele>
        <time>2022-04-03T16:26:19Z</time>
      </trkpt>
      <trkpt lat="46.06933" lon="0.00117">
        <ele>127.2</ele>
        <time>2022-04-03T16:26:20Z</time>
      </trkpt>
      <trkpt lat="46.06937" lon="0.00114">
        <ele>127.4</ele>
        <time>2022-04-03T16:26:21Z</time>
      </trkpt>
      <trkpt lat="46.0694" lon="0.0011">
        <ele>127.4</ele>
        <time>2022-04-03T16:26:22Z</time>
      </trkpt>
      <trkpt lat="46.06944" lon="0.00107">
        <ele>127.4</ele>
        <time>2022-04-03T16:26:23Z</time>
      </trkpt>
      <trkpt lat="46.06947" lon="0.00104">
        <ele>127.4</ele>
        <time>2022-04-03T16:26:24Z</time>
      </trkpt>
      <trkpt lat="46.06951" lon="0.001">
        <ele>127.8</ele>
        <time>2022-04-03T16:26:25Z</time>
      </trkpt>
      <trkpt lat="46.06954" lon="0.00097">
        <ele>127.8</ele>
        <time>2022-04-03T16:26:26Z</time>
      </trkpt>
      <trkpt lat="46.06957" lon="0.00094">
        <ele>128</ele>
        <time>2022-04-03T16:26:27Z</time>
      </trkpt>
      <trkpt lat="46.06961" lon="0.00091">
        <ele>128.2</ele>
        <time>2022-04-03T16:26:28Z</time>
      </trkpt>
      <trkpt lat="46.06964" lon="0.00088">
        <ele>128.2</ele>
        <time>2022-04-03T16:26:29Z</time>
      </trkpt>
      <trkpt lat="46.06967" lon="0.00085">
        <ele>128.8</ele>
        <time>2022-04-03T16:26:30Z</time>
      </trkpt>
      <trkpt lat="46.0697" lon="0.00081">
        <ele>129</ele>
        <time>2022-04-03T16:26:31Z</time>
      </trkpt>
      <trkpt lat="46.06974" lon="0.00078">
        <ele>129.2</ele>
        <time>2022-04-03T16:26:32Z</time>
      </trkpt>
      <trkpt lat="46.06977" lon="0.00075">
        <ele>129.2</ele>
        <time>2022-04-03T16:26:33Z</time>
      </trkpt>
      <trkpt lat="46.06981" lon="0.00071">
        <ele>129.6</ele>
        <time>2022-04-03T16:26:34Z</time>
      </trkpt>
      <trkpt lat="46.06984" lon="0.00068">
        <ele>129.8</ele>
        <time>2022-04-03T16:26:35Z</time>
      </trkpt>
      <trkpt lat="46.06987" lon="0.00065">
        <ele>130</ele>
        <time>2022-04-03T16:26:36Z</time>
      </trkpt>
      <trkpt lat="46.06991" lon="0.00061">
        <ele>130</ele>
        <time>2022-04-03T16:26:37Z</time>
      </trkpt>
      <trkpt lat="46.06994" lon="0.00058">
        <ele>130.4</ele>
        <time>2022-04-03T16:26:38Z</time>
      </trkpt>
      <trkpt lat="46.06998" lon="0.00055">
        <ele>130.4</ele>
        <time>2022-04-03T16:26:39Z</time>
      </trkpt>
      <trkpt lat="46.07001" lon="0.00051">
        <ele>130.2</ele>
        <time>2022-04-03T16:26:40Z</time>
      </trkpt>
      <trkpt lat="46.07005" lon="0.00048">
        <ele>130.2</ele>
        <time>2022-04-03T16:26:41Z</time>
      </trkpt>
      <trkpt lat="46.07008" lon="0.00045">
        <ele>130.4</ele>
        <time>2022-04-03T16:26:42Z</time>
      </trkpt>
      <trkpt lat="46.07011" lon="0.00042">
        <ele>130.6</ele>
        <time>2022-04-03T16:26:43Z</time>
      </trkpt>
      <trkpt lat="46.07015" lon="0.00038">
        <ele>130.6</ele>
        <time>2022-04-03T16:26:44Z</time>
      </trkpt>
      <trkpt lat="46.07018" lon="0.00035">
        <ele>130.6</ele>
        <time>2022-04-03T16:26:45Z</time>
      </trkpt>
      <trkpt lat="46.07022" lon="0.00031">
        <ele>131</ele>
        <time>2022-04-03T16:26:46Z</time>
      </trkpt>
      <trkpt lat="46.07025" lon="0.00028">
        <ele>131.2</ele>
        <time>2022-04-03T16:26:47Z</time>
      </trkpt>
      <trkpt lat="46.07029" lon="0.00025">
        <ele>131.4</ele>
        <time>2022-04-03T16:26:48Z</time>
      </trkpt>
      <trkpt lat="46.07032" lon="0.00021">
        <ele>131.6</ele>
        <time>2022-04-03T16:26:49Z</time>
      </trkpt>
      <trkpt lat="46.07036" lon="0.00018">
        <ele>131.8</ele>
        <time>2022-04-03T16:26:50Z</time>
      </trkpt>
      <trkpt lat="46.07039" lon="0.00015">
        <ele>132</ele>
        <time>2022-04-03T16:26:51Z</time>
      </trkpt>
      <trkpt lat="46.07042" lon="0.00012">
        <ele>132</ele>
        <time>2022-04-03T16:26:52Z</time>
      </trkpt>
      <trkpt lat="46.07046" lon="9.0E-5">
        <ele>132.2</ele>
        <time>2022-04-03T16:26:53Z</time>
      </trkpt>
      <trkpt lat="46.07049" lon="5.0E-5">
        <ele>132.2</ele>
        <time>2022-04-03T16:26:54Z</time>
      </trkpt>
      <trkpt lat="46.07052" lon="2.0E-5">
        <ele>132.2</ele>
        <time>2022-04-03T16:26:55Z</time>
      </trkpt>
      <trkpt lat="46.07056" lon="-2.0E-5">
        <ele>132.4</ele>
        <time>2022-04-03T16:26:56Z</time>
      </trkpt>
      <trkpt lat="46.07059" lon="-5.0E-5">
        <ele>132.4</ele>
        <time>2022-04-03T16:26:57Z</time>
      </trkpt>
      <trkpt lat="46.07063" lon="-9.0E-5">
        <ele>132.6</ele>
        <time>2022-04-03T16:26:58Z</time>
      </trkpt>
      <trkpt lat="46.07066" lon="-0.00012">
        <ele>132.6</ele>
        <time>2022-04-03T16:26:59Z</time>
      </trkpt>
      <trkpt lat="46.0707" lon="-0.00016">
        <ele>132.4</ele>
        <time>2022-04-03T16:27:00Z</time>
      </trkpt>
      <trkpt lat="46.07073" lon="-0.00019">
        <ele>132.4</ele>
        <time>2022-04-03T16:27:01Z</time>
      </trkpt>
      <trkpt lat="46.07077" lon="-0.00023">
        <ele>132.6</ele>
        <time>2022-04-03T16:27:02Z</time>
      </trkpt>
      <trkpt lat="46.07081" lon="-0.00026">
        <ele>132.6</ele>
        <time>2022-04-03T16:27:03Z</time>
      </trkpt>
      <trkpt lat="46.07085" lon="-0.00029">
        <ele>132.6</ele>
        <time>2022-04-03T16:27:04Z</time>
      </trkpt>
      <trkpt lat="46.07088" lon="-0.00032">
        <ele>132.6</ele>
        <time>2022-04-03T16:27:05Z</time>
      </trkpt>
      <trkpt lat="46.07092" lon="-0.00036">
        <ele>132.6</ele>
        <time>2022-04-03T16:27:06Z</time>
      </trkpt>
      <trkpt lat="46.07096" lon="-0.00039">
        <ele>132.8</ele>
        <time>2022-04-03T16:27:07Z</time>
      </trkpt>
      <trkpt lat="46.07099" lon="-0.00043">
        <ele>132.6</ele>
        <time>2022-04-03T16:27:08Z</time>
      </trkpt>
      <trkpt lat="46.07103" lon="-0.00046">
        <ele>132.6</ele>
        <time>2022-04-03T16:27:09Z</time>
      </trkpt>
      <trkpt lat="46.07106" lon="-0.0005">
        <ele>132.8</ele>
        <time>2022-04-03T16:27:10Z</time>
      </trkpt>
      <trkpt lat="46.0711" lon="-0.00054">
        <ele>132.6</ele>
        <time>2022-04-03T16:27:11Z</time>
      </trkpt>
      <trkpt lat="46.07113" lon="-0.00057">
        <ele>132.8</ele>
        <time>2022-04-03T16:27:12Z</time>
      </trkpt>
      <trkpt lat="46.07117" lon="-0.00061">
        <ele>132.8</ele>
        <time>2022-04-03T16:27:13Z</time>
      </trkpt>
      <trkpt lat="46.07121" lon="-0.00064">
        <ele>133</ele>
        <time>2022-04-03T16:27:14Z</time>
      </trkpt>
      <trkpt lat="46.07125" lon="-0.00068">
        <ele>132.8</ele>
        <time>2022-04-03T16:27:15Z</time>
      </trkpt>
      <trkpt lat="46.07128" lon="-0.00072">
        <ele>132.8</ele>
        <time>2022-04-03T16:27:16Z</time>
      </trkpt>
      <trkpt lat="46.07132" lon="-0.00075">
        <ele>133</ele>
        <time>2022-04-03T16:27:17Z</time>
      </trkpt>
      <trkpt lat="46.07136" lon="-0.00079">
        <ele>133</ele>
        <time>2022-04-03T16:27:18Z</time>
      </trkpt>
      <trkpt lat="46.0714" lon="-0.00083">
        <ele>133</ele>
        <time>2022-04-03T16:27:19Z</time>
      </trkpt>
      <trkpt lat="46.07144" lon="-0.00087">
        <ele>133</ele>
        <time>2022-04-03T16:27:20Z</time>
      </trkpt>
      <trkpt lat="46.07148" lon="-0.00091">
        <ele>132.8</ele>
        <time>2022-04-03T16:27:21Z</time>
      </trkpt>
      <trkpt lat="46.07152" lon="-0.00095">
        <ele>133</ele>
        <time>2022-04-03T16:27:22Z</time>
      </trkpt>
      <trkpt lat="46.07156" lon="-0.00099">
        <ele>133</ele>
        <time>2022-04-03T16:27:23Z</time>
      </trkpt>
      <trkpt lat="46.0716" lon="-0.00103">
        <ele>133</ele>
        <time>2022-04-03T16:27:24Z</time>
      </trkpt>
      <trkpt lat="46.07165" lon="-0.00107">
        <ele>133</ele>
        <time>2022-04-03T16:27:25Z</time>
      </trkpt>
      <trkpt lat="46.07169" lon="-0.00111">
        <ele>133</ele>
        <time>2022-04-03T16:27:26Z</time>
      </trkpt>
      <trkpt lat="46.07174" lon="-0.00116">
        <ele>133</ele>
        <time>2022-04-03T16:27:27Z</time>
      </trkpt>
      <trkpt lat="46.07178" lon="-0.0012">
        <ele>133</ele>
        <time>2022-04-03T16:27:28Z</time>
      </trkpt>
      <trkpt lat="46.07183" lon="-0.00125">
        <ele>132.8</ele>
        <time>2022-04-03T16:27:29Z</time>
      </trkpt>
      <trkpt lat="46.07187" lon="-0.0013">
        <ele>132.8</ele>
        <time>2022-04-03T16:27:30Z</time>
      </trkpt>
      <trkpt lat="46.07192" lon="-0.00134">
        <ele>133</ele>
        <time>2022-04-03T16:27:31Z</time>
      </trkpt>
      <trkpt lat="46.07197" lon="-0.00139">
        <ele>133</ele>
        <time>2022-04-03T16:27:32Z</time>
      </trkpt>
      <trkpt lat="46.07202" lon="-0.00144">
        <ele>133</ele>
        <time>2022-04-03T16:27:33Z</time>
      </trkpt>
      <trkpt lat="46.07207" lon="-0.00148">
        <ele>133</ele>
        <time>2022-04-03T16:27:34Z</time>
      </trkpt>
      <trkpt lat="46.07213" lon="-0.00153">
        <ele>132.8</ele>
        <time>2022-04-03T16:27:35Z</time>
      </trkpt>
      <trkpt lat="46.07218" lon="-0.00158">
        <ele>132.8</ele>
        <time>2022-04-03T16:27:36Z</time>
      </trkpt>
      <trkpt lat="46.07223" lon="-0.00163">
        <ele>132.4</ele>
        <time>2022-04-03T16:27:37Z</time>
      </trkpt>
      <trkpt lat="46.07229" lon="-0.00169">
        <ele>132.4</ele>
        <time>2022-04-03T16:27:38Z</time>
      </trkpt>
      <trkpt lat="46.07234" lon="-0.00174">
        <ele>132</ele>
        <time>2022-04-03T16:27:39Z</time>
      </trkpt>
      <trkpt lat="46.0724" lon="-0.00179">
        <ele>131.8</ele>
        <time>2022-04-03T16:27:40Z</time>
      </trkpt>
      <trkpt lat="46.07245" lon="-0.00184">
        <ele>131.6</ele>
        <time>2022-04-03T16:27:41Z</time>
      </trkpt>
      <trkpt lat="46.07251" lon="-0.0019">
        <ele>131.6</ele>
        <time>2022-04-03T16:27:42Z</time>
      </trkpt>
      <trkpt lat="46.07257" lon="-0.00195">
        <ele>131.2</ele>
        <time>2022-04-03T16:27:43Z</time>
      </trkpt>
      <trkpt lat="46.07262" lon="-0.00201">
        <ele>131.2</ele>
        <time>2022-04-03T16:27:44Z</time>
      </trkpt>
      <trkpt lat="46.07268" lon="-0.00207">
        <ele>131</ele>
        <time>2022-04-03T16:27:45Z</time>
      </trkpt>
      <trkpt lat="46.07274" lon="-0.00212">
        <ele>130.8</ele>
        <time>2022-04-03T16:27:46Z</time>
      </trkpt>
      <trkpt lat="46.07279" lon="-0.00218">
        <ele>130.8</ele>
        <time>2022-04-03T16:27:47Z</time>
      </trkpt>
      <trkpt lat="46.07285" lon="-0.00224">
        <ele>130.2</ele>
        <time>2022-04-03T16:27:48Z</time>
      </trkpt>
      <trkpt lat="46.07291" lon="-0.00229">
        <ele>129.6</ele>
        <time>2022-04-03T16:27:49Z</time>
      </trkpt>
      <trkpt lat="46.07297" lon="-0.00235">
        <ele>129.2</ele>
        <time>2022-04-03T16:27:50Z</time>
      </trkpt>
      <trkpt lat="46.07303" lon="-0.0024">
        <ele>128.8</ele>
        <time>2022-04-03T16:27:51Z</time>
      </trkpt>
      <trkpt lat="46.07309" lon="-0.00246">
        <ele>128.8</ele>
        <time>2022-04-03T16:27:52Z</time>
      </trkpt>
      <trkpt lat="46.07314" lon="-0.00252">
        <ele>128.6</ele>
        <time>2022-04-03T16:27:53Z</time>
      </trkpt>
      <trkpt lat="46.0732" lon="-0.00257">
        <ele>128.6</ele>
        <time>2022-04-03T16:27:54Z</time>
      </trkpt>
      <trkpt lat="46.07326" lon="-0.00263">
        <ele>128.2</ele>
        <time>2022-04-03T16:27:55Z</time>
      </trkpt>
      <trkpt lat="46.07332" lon="-0.00268">
        <ele>128.2</ele>
        <time>2022-04-03T16:27:56Z</time>
      </trkpt>
      <trkpt lat="46.07337" lon="-0.00273">
        <ele>128.4</ele>
        <time>2022-04-03T16:27:57Z</time>
      </trkpt>
      <trkpt lat="46.07343" lon="-0.00278">
        <ele>128</ele>
        <time>2022-04-03T16:27:58Z</time>
      </trkpt>
      <trkpt lat="46.07348" lon="-0.00284">
        <ele>127.8</ele>
        <time>2022-04-03T16:27:59Z</time>
      </trkpt>
      <trkpt lat="46.07353" lon="-0.00289">
        <ele>127.6</ele>
        <time>2022-04-03T16:28:00Z</time>
      </trkpt>
      <trkpt lat="46.07369" lon="-0.00304">
        <ele>127.2</ele>
        <time>2022-04-03T16:28:03Z</time>
      </trkpt>
      <trkpt lat="46.07375" lon="-0.00309">
        <ele>127</ele>
        <time>2022-04-03T16:28:04Z</time>
      </trkpt>
      <trkpt lat="46.0738" lon="-0.00314">
        <ele>127</ele>
        <time>2022-04-03T16:28:05Z</time>
      </trkpt>
      <trkpt lat="46.07385" lon="-0.00319">
        <ele>127</ele>
        <time>2022-04-03T16:28:06Z</time>
      </trkpt>
      <trkpt lat="46.0739" lon="-0.00324">
        <ele>126.8</ele>
        <time>2022-04-03T16:28:07Z</time>
      </trkpt>
      <trkpt lat="46.07395" lon="-0.00329">
        <ele>126.8</ele>
        <time>2022-04-03T16:28:08Z</time>
      </trkpt>
      <trkpt lat="46.074" lon="-0.00334">
        <ele>126.8</ele>
        <time>2022-04-03T16:28:09Z</time>
      </trkpt>
      <trkpt lat="46.07406" lon="-0.00339">
        <ele>126.8</ele>
        <time>2022-04-03T16:28:10Z</time>
      </trkpt>
      <trkpt lat="46.07411" lon="-0.00343">
        <ele>126.8</ele>
        <time>2022-04-03T16:28:11Z</time>
      </trkpt>
      <trkpt lat="46.07416" lon="-0.00348">
        <ele>126.6</ele>
        <time>2022-04-03T16:28:12Z</time>
      </trkpt>
      <trkpt lat="46.0742" lon="-0.00353">
        <ele>126.6</ele>
        <time>2022-04-03T16:28:13Z</time>
      </trkpt>
      <trkpt lat="46.07425" lon="-0.00358">
        <ele>126.8</ele>
        <time>2022-04-03T16:28:14Z</time>
      </trkpt>
      <trkpt lat="46.0743" lon="-0.00363">
        <ele>126.6</ele>
        <time>2022-04-03T16:28:15Z</time>
      </trkpt>
      <trkpt lat="46.07435" lon="-0.00368">
        <ele>126.4</ele>
        <time>2022-04-03T16:28:16Z</time>
      </trkpt>
      <trkpt lat="46.0744" lon="-0.00372">
        <ele>126.4</ele>
        <time>2022-04-03T16:28:17Z</time>
      </trkpt>
      <trkpt lat="46.07445" lon="-0.00377">
        <ele>126.4</ele>
        <time>2022-04-03T16:28:18Z</time>
      </trkpt>
      <trkpt lat="46.0745" lon="-0.00382">
        <ele>126.2</ele>
        <time>2022-04-03T16:28:19Z</time>
      </trkpt>
      <trkpt lat="46.07455" lon="-0.00386">
        <ele>126.2</ele>
        <time>2022-04-03T16:28:20Z</time>
      </trkpt>
      <trkpt lat="46.07459" lon="-0.00391">
        <ele>126.2</ele>
        <time>2022-04-03T16:28:21Z</time>
      </trkpt>
      <trkpt lat="46.07464" lon="-0.00396">
        <ele>126.2</ele>
        <time>2022-04-03T16:28:22Z</time>
      </trkpt>
      <trkpt lat="46.07468" lon="-0.004">
        <ele>126.2</ele>
        <time>2022-04-03T16:28:23Z</time>
      </trkpt>
      <trkpt lat="46.07473" lon="-0.00405">
        <ele>126</ele>
        <time>2022-04-03T16:28:24Z</time>
      </trkpt>
      <trkpt lat="46.07477" lon="-0.00409">
        <ele>126</ele>
        <time>2022-04-03T16:28:25Z</time>
      </trkpt>
      <trkpt lat="46.07482" lon="-0.00413">
        <ele>126</ele>
        <time>2022-04-03T16:28:26Z</time>
      </trkpt>
      <trkpt lat="46.07487" lon="-0.00418">
        <ele>126</ele>
        <time>2022-04-03T16:28:27Z</time>
      </trkpt>
      <trkpt lat="46.07491" lon="-0.00422">
        <ele>126</ele>
        <time>2022-04-03T16:28:28Z</time>
      </trkpt>
      <trkpt lat="46.07496" lon="-0.00427">
        <ele>126</ele>
        <time>2022-04-03T16:28:29Z</time>
      </trkpt>
      <trkpt lat="46.075" lon="-0.00431">
        <ele>126</ele>
        <time>2022-04-03T16:28:30Z</time>
      </trkpt>
      <trkpt lat="46.07505" lon="-0.00435">
        <ele>126</ele>
        <time>2022-04-03T16:28:31Z</time>
      </trkpt>
      <trkpt lat="46.07509" lon="-0.0044">
        <ele>126</ele>
        <time>2022-04-03T16:28:32Z</time>
      </trkpt>
      <trkpt lat="46.07514" lon="-0.00444">
        <ele>126.2</ele>
        <time>2022-04-03T16:28:33Z</time>
      </trkpt>
      <trkpt lat="46.07518" lon="-0.00448">
        <ele>126.2</ele>
        <time>2022-04-03T16:28:34Z</time>
      </trkpt>
      <trkpt lat="46.07523" lon="-0.00452">
        <ele>126.2</ele>
        <time>2022-04-03T16:28:35Z</time>
      </trkpt>
      <trkpt lat="46.07527" lon="-0.00456">
        <ele>126.4</ele>
        <time>2022-04-03T16:28:36Z</time>
      </trkpt>
      <trkpt lat="46.07532" lon="-0.00461">
        <ele>126.4</ele>
        <time>2022-04-03T16:28:37Z</time>
      </trkpt>
      <trkpt lat="46.07536" lon="-0.00465">
        <ele>126.6</ele>
        <time>2022-04-03T16:28:38Z</time>
      </trkpt>
      <trkpt lat="46.07541" lon="-0.00469">
        <ele>126.6</ele>
        <time>2022-04-03T16:28:39Z</time>
      </trkpt>
      <trkpt lat="46.07546" lon="-0.00474">
        <ele>127</ele>
        <time>2022-04-03T16:28:40Z</time>
      </trkpt>
      <trkpt lat="46.0755" lon="-0.00478">
        <ele>127</ele>
        <time>2022-04-03T16:28:41Z</time>
      </trkpt>
      <trkpt lat="46.07555" lon="-0.00483">
        <ele>127.2</ele>
        <time>2022-04-03T16:28:42Z</time>
      </trkpt>
      <trkpt lat="46.0756" lon="-0.00488">
        <ele>127.2</ele>
        <time>2022-04-03T16:28:43Z</time>
      </trkpt>
      <trkpt lat="46.07565" lon="-0.00492">
        <ele>127.4</ele>
        <time>2022-04-03T16:28:44Z</time>
      </trkpt>
      <trkpt lat="46.07569" lon="-0.00497">
        <ele>127.4</ele>
        <time>2022-04-03T16:28:45Z</time>
      </trkpt>
      <trkpt lat="46.07574" lon="-0.00502">
        <ele>127.4</ele>
        <time>2022-04-03T16:28:46Z</time>
      </trkpt>
      <trkpt lat="46.07579" lon="-0.00507">
        <ele>127.4</ele>
        <time>2022-04-03T16:28:47Z</time>
      </trkpt>
      <trkpt lat="46.07584" lon="-0.00512">
        <ele>127.2</ele>
        <time>2022-04-03T16:28:48Z</time>
      </trkpt>
      <trkpt lat="46.07589" lon="-0.00516">
        <ele>127.2</ele>
        <time>2022-04-03T16:28:49Z</time>
      </trkpt>
      <trkpt lat="46.07595" lon="-0.00521">
        <ele>127.2</ele>
        <time>2022-04-03T16:28:50Z</time>
      </trkpt>
      <trkpt lat="46.076" lon="-0.00526">
        <ele>127.2</ele>
        <time>2022-04-03T16:28:51Z</time>
      </trkpt>
      <trkpt lat="46.07605" lon="-0.00531">
        <ele>127.2</ele>
        <time>2022-04-03T16:28:52Z</time>
      </trkpt>
      <trkpt lat="46.0761" lon="-0.00536">
        <ele>127.2</ele>
        <time>2022-04-03T16:28:53Z</time>
      </trkpt>
      <trkpt lat="46.07616" lon="-0.00542">
        <ele>127.2</ele>
        <time>2022-04-03T16:28:54Z</time>
      </trkpt>
      <trkpt lat="46.07621" lon="-0.00547">
        <ele>126.8</ele>
        <time>2022-04-03T16:28:55Z</time>
      </trkpt>
      <trkpt lat="46.07626" lon="-0.00552">
        <ele>126.6</ele>
        <time>2022-04-03T16:28:56Z</time>
      </trkpt>
      <trkpt lat="46.07632" lon="-0.00557">
        <ele>126.4</ele>
        <time>2022-04-03T16:28:57Z</time>
      </trkpt>
      <trkpt lat="46.07637" lon="-0.00563">
        <ele>126.4</ele>
        <time>2022-04-03T16:28:58Z</time>
      </trkpt>
      <trkpt lat="46.07643" lon="-0.00568">
        <ele>126.4</ele>
        <time>2022-04-03T16:28:59Z</time>
      </trkpt>
      <trkpt lat="46.07648" lon="-0.00573">
        <ele>126.2</ele>
        <time>2022-04-03T16:29:00Z</time>
      </trkpt>
      <trkpt lat="46.07654" lon="-0.00578">
        <ele>126</ele>
        <time>2022-04-03T16:29:01Z</time>
      </trkpt>
      <trkpt lat="46.07659" lon="-0.00584">
        <ele>126</ele>
        <time>2022-04-03T16:29:02Z</time>
      </trkpt>
      <trkpt lat="46.07665" lon="-0.00589">
        <ele>125.8</ele>
        <time>2022-04-03T16:29:03Z</time>
      </trkpt>
      <trkpt lat="46.0767" lon="-0.00595">
        <ele>125.6</ele>
        <time>2022-04-03T16:29:04Z</time>
      </trkpt>
      <trkpt lat="46.07676" lon="-0.00601">
        <ele>125.2</ele>
        <time>2022-04-03T16:29:05Z</time>
      </trkpt>
      <trkpt lat="46.07682" lon="-0.00606">
        <ele>125</ele>
        <time>2022-04-03T16:29:06Z</time>
      </trkpt>
      <trkpt lat="46.07687" lon="-0.00611">
        <ele>124.4</ele>
        <time>2022-04-03T16:29:07Z</time>
      </trkpt>
      <trkpt lat="46.07693" lon="-0.00617">
        <ele>124.2</ele>
        <time>2022-04-03T16:29:08Z</time>
      </trkpt>
      <trkpt lat="46.07698" lon="-0.00622">
        <ele>124</ele>
        <time>2022-04-03T16:29:09Z</time>
      </trkpt>
      <trkpt lat="46.07703" lon="-0.00627">
        <ele>123.8</ele>
        <time>2022-04-03T16:29:10Z</time>
      </trkpt>
      <trkpt lat="46.07709" lon="-0.00632">
        <ele>123.8</ele>
        <time>2022-04-03T16:29:11Z</time>
      </trkpt>
      <trkpt lat="46.07714" lon="-0.00637">
        <ele>123.8</ele>
        <time>2022-04-03T16:29:12Z</time>
      </trkpt>
      <trkpt lat="46.07719" lon="-0.00642">
        <ele>123.8</ele>
        <time>2022-04-03T16:29:13Z</time>
      </trkpt>
      <trkpt lat="46.07723" lon="-0.00646">
        <ele>123.8</ele>
        <time>2022-04-03T16:29:14Z</time>
      </trkpt>
      <trkpt lat="46.07728" lon="-0.0065">
        <ele>123.8</ele>
        <time>2022-04-03T16:29:15Z</time>
      </trkpt>
      <trkpt lat="46.07732" lon="-0.00655">
        <ele>123.6</ele>
        <time>2022-04-03T16:29:16Z</time>
      </trkpt>
      <trkpt lat="46.07736" lon="-0.00659">
        <ele>123.6</ele>
        <time>2022-04-03T16:29:17Z</time>
      </trkpt>
      <trkpt lat="46.0774" lon="-0.00663">
        <ele>123.8</ele>
        <time>2022-04-03T16:29:18Z</time>
      </trkpt>
      <trkpt lat="46.07744" lon="-0.00666">
        <ele>123.8</ele>
        <time>2022-04-03T16:29:19Z</time>
      </trkpt>
      <trkpt lat="46.07748" lon="-0.0067">
        <ele>123.8</ele>
        <time>2022-04-03T16:29:20Z</time>
      </trkpt>
      <trkpt lat="46.07751" lon="-0.00673">
        <ele>124</ele>
        <time>2022-04-03T16:29:21Z</time>
      </trkpt>
      <trkpt lat="46.07755" lon="-0.00677">
        <ele>124</ele>
        <time>2022-04-03T16:29:22Z</time>
      </trkpt>
      <trkpt lat="46.07759" lon="-0.0068">
        <ele>124.2</ele>
        <time>2022-04-03T16:29:23Z</time>
      </trkpt>
      <trkpt lat="46.07762" lon="-0.00684">
        <ele>124.4</ele>
        <time>2022-04-03T16:29:24Z</time>
      </trkpt>
      <trkpt lat="46.07766" lon="-0.00687">
        <ele>124.8</ele>
        <time>2022-04-03T16:29:25Z</time>
      </trkpt>
      <trkpt lat="46.07769" lon="-0.0069">
        <ele>125</ele>
        <time>2022-04-03T16:29:26Z</time>
      </trkpt>
      <trkpt lat="46.07773" lon="-0.00694">
        <ele>125</ele>
        <time>2022-04-03T16:29:27Z</time>
      </trkpt>
      <trkpt lat="46.07776" lon="-0.00697">
        <ele>125.2</ele>
        <time>2022-04-03T16:29:28Z</time>
      </trkpt>
      <trkpt lat="46.0778" lon="-0.007">
        <ele>125.4</ele>
        <time>2022-04-03T16:29:29Z</time>
      </trkpt>
      <trkpt lat="46.07783" lon="-0.00703">
        <ele>125.6</ele>
        <time>2022-04-03T16:29:30Z</time>
      </trkpt>
      <trkpt lat="46.07787" lon="-0.00707">
        <ele>125.6</ele>
        <time>2022-04-03T16:29:31Z</time>
      </trkpt>
      <trkpt lat="46.0779" lon="-0.0071">
        <ele>125.8</ele>
        <time>2022-04-03T16:29:32Z</time>
      </trkpt>
      <trkpt lat="46.07794" lon="-0.00714">
        <ele>126.4</ele>
        <time>2022-04-03T16:29:33Z</time>
      </trkpt>
      <trkpt lat="46.07797" lon="-0.00717">
        <ele>126.6</ele>
        <time>2022-04-03T16:29:34Z</time>
      </trkpt>
      <trkpt lat="46.07801" lon="-0.0072">
        <ele>126.8</ele>
        <time>2022-04-03T16:29:35Z</time>
      </trkpt>
      <trkpt lat="46.07804" lon="-0.00724">
        <ele>126.8</ele>
        <time>2022-04-03T16:29:36Z</time>
      </trkpt>
      <trkpt lat="46.07808" lon="-0.00727">
        <ele>126.8</ele>
        <time>2022-04-03T16:29:37Z</time>
      </trkpt>
      <trkpt lat="46.07811" lon="-0.00731">
        <ele>127</ele>
        <time>2022-04-03T16:29:38Z</time>
      </trkpt>
      <trkpt lat="46.07815" lon="-0.00734">
        <ele>127</ele>
        <time>2022-04-03T16:29:39Z</time>
      </trkpt>
      <trkpt lat="46.07818" lon="-0.00738">
        <ele>127</ele>
        <time>2022-04-03T16:29:40Z</time>
      </trkpt>
      <trkpt lat="46.07822" lon="-0.00741">
        <ele>127</ele>
        <time>2022-04-03T16:29:41Z</time>
      </trkpt>
      <trkpt lat="46.07826" lon="-0.00745">
        <ele>127</ele>
        <time>2022-04-03T16:29:42Z</time>
      </trkpt>
      <trkpt lat="46.0783" lon="-0.00749">
        <ele>127.2</ele>
        <time>2022-04-03T16:29:43Z</time>
      </trkpt>
      <trkpt lat="46.07833" lon="-0.00752">
        <ele>127.2</ele>
        <time>2022-04-03T16:29:44Z</time>
      </trkpt>
      <trkpt lat="46.07837" lon="-0.00756">
        <ele>127.2</ele>
        <time>2022-04-03T16:29:45Z</time>
      </trkpt>
      <trkpt lat="46.07841" lon="-0.00759">
        <ele>127.2</ele>
        <time>2022-04-03T16:29:46Z</time>
      </trkpt>
      <trkpt lat="46.07845" lon="-0.00763">
        <ele>127.4</ele>
        <time>2022-04-03T16:29:47Z</time>
      </trkpt>
      <trkpt lat="46.07848" lon="-0.00767">
        <ele>127.4</ele>
        <time>2022-04-03T16:29:48Z</time>
      </trkpt>
      <trkpt lat="46.07852" lon="-0.0077">
        <ele>127.4</ele>
        <time>2022-04-03T16:29:49Z</time>
      </trkpt>
      <trkpt lat="46.07856" lon="-0.00774">
        <ele>127.6</ele>
        <time>2022-04-03T16:29:50Z</time>
      </trkpt>
      <trkpt lat="46.0786" lon="-0.00778">
        <ele>127.6</ele>
        <time>2022-04-03T16:29:51Z</time>
      </trkpt>
      <trkpt lat="46.07864" lon="-0.00782">
        <ele>127.6</ele>
        <time>2022-04-03T16:29:52Z</time>
      </trkpt>
      <trkpt lat="46.07868" lon="-0.00786">
        <ele>127.6</ele>
        <time>2022-04-03T16:29:53Z</time>
      </trkpt>
      <trkpt lat="46.07872" lon="-0.0079">
        <ele>127.8</ele>
        <time>2022-04-03T16:29:54Z</time>
      </trkpt>
      <trkpt lat="46.07876" lon="-0.00794">
        <ele>127.8</ele>
        <time>2022-04-03T16:29:55Z</time>
      </trkpt>
      <trkpt lat="46.0788" lon="-0.00797">
        <ele>127.6</ele>
        <time>2022-04-03T16:29:56Z</time>
      </trkpt>
      <trkpt lat="46.07884" lon="-0.00801">
        <ele>127.6</ele>
        <time>2022-04-03T16:29:57Z</time>
      </trkpt>
      <trkpt lat="46.07888" lon="-0.00805">
        <ele>127.6</ele>
        <time>2022-04-03T16:29:58Z</time>
      </trkpt>
      <trkpt lat="46.07892" lon="-0.00808">
        <ele>127.6</ele>
        <time>2022-04-03T16:29:59Z</time>
      </trkpt>
      <trkpt lat="46.07895" lon="-0.00811">
        <ele>127.6</ele>
        <time>2022-04-03T16:30:00Z</time>
      </trkpt>
      <trkpt lat="46.07899" lon="-0.00815">
        <ele>127.6</ele>
        <time>2022-04-03T16:30:01Z</time>
      </trkpt>
      <trkpt lat="46.07903" lon="-0.00819">
        <ele>127.6</ele>
        <time>2022-04-03T16:30:02Z</time>
      </trkpt>
      <trkpt lat="46.07906" lon="-0.00822">
        <ele>127.6</ele>
        <time>2022-04-03T16:30:03Z</time>
      </trkpt>
      <trkpt lat="46.07909" lon="-0.00825">
        <ele>127.6</ele>
        <time>2022-04-03T16:30:04Z</time>
      </trkpt>
      <trkpt lat="46.07913" lon="-0.00828">
        <ele>127.6</ele>
        <time>2022-04-03T16:30:05Z</time>
      </trkpt>
      <trkpt lat="46.07916" lon="-0.00832">
        <ele>127.6</ele>
        <time>2022-04-03T16:30:06Z</time>
      </trkpt>
      <trkpt lat="46.0792" lon="-0.00835">
        <ele>127.8</ele>
        <time>2022-04-03T16:30:07Z</time>
      </trkpt>
      <trkpt lat="46.07923" lon="-0.00838">
        <ele>127.6</ele>
        <time>2022-04-03T16:30:08Z</time>
      </trkpt>
      <trkpt lat="46.07926" lon="-0.00842">
        <ele>127.6</ele>
        <time>2022-04-03T16:30:09Z</time>
      </trkpt>
      <trkpt lat="46.0793" lon="-0.00845">
        <ele>127.6</ele>
        <time>2022-04-03T16:30:10Z</time>
      </trkpt>
      <trkpt lat="46.07933" lon="-0.00848">
        <ele>127.4</ele>
        <time>2022-04-03T16:30:11Z</time>
      </trkpt>
      <trkpt lat="46.07937" lon="-0.00851">
        <ele>127.4</ele>
        <time>2022-04-03T16:30:12Z</time>
      </trkpt>
      <trkpt lat="46.0794" lon="-0.00854">
        <ele>127.2</ele>
        <time>2022-04-03T16:30:13Z</time>
      </trkpt>
      <trkpt lat="46.07943" lon="-0.00858">
        <ele>127.2</ele>
        <time>2022-04-03T16:30:14Z</time>
      </trkpt>
      <trkpt lat="46.07947" lon="-0.00861">
        <ele>127</ele>
        <time>2022-04-03T16:30:15Z</time>
      </trkpt>
      <trkpt lat="46.0795" lon="-0.00865">
        <ele>126.8</ele>
        <time>2022-04-03T16:30:16Z</time>
      </trkpt>
      <trkpt lat="46.07954" lon="-0.00868">
        <ele>126.8</ele>
        <time>2022-04-03T16:30:17Z</time>
      </trkpt>
      <trkpt lat="46.07957" lon="-0.00872">
        <ele>127</ele>
        <time>2022-04-03T16:30:18Z</time>
      </trkpt>
      <trkpt lat="46.07961" lon="-0.00876">
        <ele>127</ele>
        <time>2022-04-03T16:30:19Z</time>
      </trkpt>
      <trkpt lat="46.07964" lon="-0.00879">
        <ele>126.8</ele>
        <time>2022-04-03T16:30:20Z</time>
      </trkpt>
      <trkpt lat="46.07968" lon="-0.00883">
        <ele>126.6</ele>
        <time>2022-04-03T16:30:21Z</time>
      </trkpt>
      <trkpt lat="46.07972" lon="-0.00886">
        <ele>126.8</ele>
        <time>2022-04-03T16:30:22Z</time>
      </trkpt>
      <trkpt lat="46.07976" lon="-0.0089">
        <ele>126.6</ele>
        <time>2022-04-03T16:30:23Z</time>
      </trkpt>
      <trkpt lat="46.0798" lon="-0.00894">
        <ele>126.4</ele>
        <time>2022-04-03T16:30:24Z</time>
      </trkpt>
      <trkpt lat="46.07985" lon="-0.00898">
        <ele>126.4</ele>
        <time>2022-04-03T16:30:25Z</time>
      </trkpt>
      <trkpt lat="46.07989" lon="-0.00902">
        <ele>126.2</ele>
        <time>2022-04-03T16:30:26Z</time>
      </trkpt>
      <trkpt lat="46.07993" lon="-0.00907">
        <ele>126.4</ele>
        <time>2022-04-03T16:30:27Z</time>
      </trkpt>
      <trkpt lat="46.07997" lon="-0.00911">
        <ele>126.2</ele>
        <time>2022-04-03T16:30:28Z</time>
      </trkpt>
      <trkpt lat="46.08001" lon="-0.00915">
        <ele>126</ele>
        <time>2022-04-03T16:30:29Z</time>
      </trkpt>
      <trkpt lat="46.08006" lon="-0.0092">
        <ele>125.6</ele>
        <time>2022-04-03T16:30:30Z</time>
      </trkpt>
      <trkpt lat="46.0801" lon="-0.00924">
        <ele>125.6</ele>
        <time>2022-04-03T16:30:31Z</time>
      </trkpt>
      <trkpt lat="46.08015" lon="-0.00928">
        <ele>125.2</ele>
        <time>2022-04-03T16:30:32Z</time>
      </trkpt>
      <trkpt lat="46.0802" lon="-0.00933">
        <ele>125.2</ele>
        <time>2022-04-03T16:30:33Z</time>
      </trkpt>
      <trkpt lat="46.08024" lon="-0.00937">
        <ele>125</ele>
        <time>2022-04-03T16:30:34Z</time>
      </trkpt>
      <trkpt lat="46.08029" lon="-0.00942">
        <ele>125</ele>
        <time>2022-04-03T16:30:35Z</time>
      </trkpt>
      <trkpt lat="46.08034" lon="-0.00947">
        <ele>124.6</ele>
        <time>2022-04-03T16:30:36Z</time>
      </trkpt>
      <trkpt lat="46.08039" lon="-0.00952">
        <ele>124.6</ele>
        <time>2022-04-03T16:30:37Z</time>
      </trkpt>
      <trkpt lat="46.08044" lon="-0.00956">
        <ele>124.6</ele>
        <time>2022-04-03T16:30:38Z</time>
      </trkpt>
      <trkpt lat="46.08049" lon="-0.00961">
        <ele>124.2</ele>
        <time>2022-04-03T16:30:39Z</time>
      </trkpt>
      <trkpt lat="46.08054" lon="-0.00966">
        <ele>124</ele>
        <time>2022-04-03T16:30:40Z</time>
      </trkpt>
      <trkpt lat="46.08059" lon="-0.00971">
        <ele>123.6</ele>
        <time>2022-04-03T16:30:41Z</time>
      </trkpt>
      <trkpt lat="46.08064" lon="-0.00975">
        <ele>123.2</ele>
        <time>2022-04-03T16:30:42Z</time>
      </trkpt>
      <trkpt lat="46.08069" lon="-0.0098">
        <ele>123</ele>
        <time>2022-04-03T16:30:43Z</time>
      </trkpt>
      <trkpt lat="46.08074" lon="-0.00985">
        <ele>122.6</ele>
        <time>2022-04-03T16:30:44Z</time>
      </trkpt>
      <trkpt lat="46.08079" lon="-0.0099">
        <ele>122.6</ele>
        <time>2022-04-03T16:30:45Z</time>
      </trkpt>
      <trkpt lat="46.08084" lon="-0.00995">
        <ele>122.6</ele>
        <time>2022-04-03T16:30:46Z</time>
      </trkpt>
      <trkpt lat="46.08089" lon="-0.01">
        <ele>122.2</ele>
        <time>2022-04-03T16:30:47Z</time>
      </trkpt>
      <trkpt lat="46.08094" lon="-0.01005">
        <ele>122.2</ele>
        <time>2022-04-03T16:30:48Z</time>
      </trkpt>
      <trkpt lat="46.08099" lon="-0.0101">
        <ele>121.6</ele>
        <time>2022-04-03T16:30:49Z</time>
      </trkpt>
      <trkpt lat="46.08104" lon="-0.01015">
        <ele>121.2</ele>
        <time>2022-04-03T16:30:50Z</time>
      </trkpt>
      <trkpt lat="46.08109" lon="-0.01019">
        <ele>121</ele>
        <time>2022-04-03T16:30:51Z</time>
      </trkpt>
      <trkpt lat="46.08114" lon="-0.01024">
        <ele>121</ele>
        <time>2022-04-03T16:30:52Z</time>
      </trkpt>
      <trkpt lat="46.08119" lon="-0.01029">
        <ele>121</ele>
        <time>2022-04-03T16:30:53Z</time>
      </trkpt>
      <trkpt lat="46.08124" lon="-0.01034">
        <ele>120.6</ele>
        <time>2022-04-03T16:30:54Z</time>
      </trkpt>
      <trkpt lat="46.0813" lon="-0.01039">
        <ele>120.4</ele>
        <time>2022-04-03T16:30:55Z</time>
      </trkpt>
      <trkpt lat="46.08134" lon="-0.01044">
        <ele>120.2</ele>
        <time>2022-04-03T16:30:56Z</time>
      </trkpt>
      <trkpt lat="46.08139" lon="-0.01049">
        <ele>120.2</ele>
        <time>2022-04-03T16:30:57Z</time>
      </trkpt>
      <trkpt lat="46.08144" lon="-0.01054">
        <ele>120</ele>
        <time>2022-04-03T16:30:58Z</time>
      </trkpt>
      <trkpt lat="46.0815" lon="-0.01059">
        <ele>120</ele>
        <time>2022-04-03T16:30:59Z</time>
      </trkpt>
      <trkpt lat="46.08155" lon="-0.01065">
        <ele>119.8</ele>
        <time>2022-04-03T16:31:00Z</time>
      </trkpt>
      <trkpt lat="46.08161" lon="-0.0107">
        <ele>119.8</ele>
        <time>2022-04-03T16:31:01Z</time>
      </trkpt>
      <trkpt lat="46.08166" lon="-0.01076">
        <ele>119.6</ele>
        <time>2022-04-03T16:31:02Z</time>
      </trkpt>
      <trkpt lat="46.08172" lon="-0.01081">
        <ele>119.4</ele>
        <time>2022-04-03T16:31:03Z</time>
      </trkpt>
      <trkpt lat="46.08179" lon="-0.01087">
        <ele>119.2</ele>
        <time>2022-04-03T16:31:04Z</time>
      </trkpt>
      <trkpt lat="46.08185" lon="-0.01093">
        <ele>119</ele>
        <time>2022-04-03T16:31:05Z</time>
      </trkpt>
      <trkpt lat="46.08192" lon="-0.01099">
        <ele>119</ele>
        <time>2022-04-03T16:31:06Z</time>
      </trkpt>
      <trkpt lat="46.08198" lon="-0.01105">
        <ele>118.8</ele>
        <time>2022-04-03T16:31:07Z</time>
      </trkpt>
      <trkpt lat="46.08205" lon="-0.01112">
        <ele>118.4</ele>
        <time>2022-04-03T16:31:08Z</time>
      </trkpt>
      <trkpt lat="46.08212" lon="-0.01118">
        <ele>118.4</ele>
        <time>2022-04-03T16:31:09Z</time>
      </trkpt>
      <trkpt lat="46.08219" lon="-0.01125">
        <ele>118</ele>
        <time>2022-04-03T16:31:10Z</time>
      </trkpt>
      <trkpt lat="46.08226" lon="-0.01132">
        <ele>118</ele>
        <time>2022-04-03T16:31:11Z</time>
      </trkpt>
      <trkpt lat="46.08233" lon="-0.01139">
        <ele>117.4</ele>
        <time>2022-04-03T16:31:12Z</time>
      </trkpt>
      <trkpt lat="46.0824" lon="-0.01147">
        <ele>117</ele>
        <time>2022-04-03T16:31:13Z</time>
      </trkpt>
      <trkpt lat="46.08248" lon="-0.01154">
        <ele>116.6</ele>
        <time>2022-04-03T16:31:14Z</time>
      </trkpt>
      <trkpt lat="46.08255" lon="-0.01161">
        <ele>115.6</ele>
        <time>2022-04-03T16:31:15Z</time>
      </trkpt>
      <trkpt lat="46.08262" lon="-0.01169">
        <ele>114.6</ele>
        <time>2022-04-03T16:31:16Z</time>
      </trkpt>
      <trkpt lat="46.0827" lon="-0.01177">
        <ele>114</ele>
        <time>2022-04-03T16:31:17Z</time>
      </trkpt>
      <trkpt lat="46.08277" lon="-0.01185">
        <ele>113.2</ele>
        <time>2022-04-03T16:31:18Z</time>
      </trkpt>
      <trkpt lat="46.08285" lon="-0.01192">
        <ele>112.6</ele>
        <time>2022-04-03T16:31:19Z</time>
      </trkpt>
      <trkpt lat="46.08293" lon="-0.01199">
        <ele>112</ele>
        <time>2022-04-03T16:31:20Z</time>
      </trkpt>
      <trkpt lat="46.083" lon="-0.01207">
        <ele>111</ele>
        <time>2022-04-03T16:31:21Z</time>
      </trkpt>
      <trkpt lat="46.08308" lon="-0.01215">
        <ele>110.4</ele>
        <time>2022-04-03T16:31:22Z</time>
      </trkpt>
      <trkpt lat="46.08316" lon="-0.01223">
        <ele>109.4</ele>
        <time>2022-04-03T16:31:23Z</time>
      </trkpt>
      <trkpt lat="46.08324" lon="-0.0123">
        <ele>109</ele>
        <time>2022-04-03T16:31:24Z</time>
      </trkpt>
      <trkpt lat="46.08332" lon="-0.01237">
        <ele>108.6</ele>
        <time>2022-04-03T16:31:25Z</time>
      </trkpt>
      <trkpt lat="46.08339" lon="-0.01244">
        <ele>107.8</ele>
        <time>2022-04-03T16:31:26Z</time>
      </trkpt>
      <trkpt lat="46.08346" lon="-0.01251">
        <ele>107.2</ele>
        <time>2022-04-03T16:31:27Z</time>
      </trkpt>
      <trkpt lat="46.08354" lon="-0.01258">
        <ele>106.8</ele>
        <time>2022-04-03T16:31:28Z</time>
      </trkpt>
      <trkpt lat="46.08361" lon="-0.01265">
        <ele>106</ele>
        <time>2022-04-03T16:31:29Z</time>
      </trkpt>
      <trkpt lat="46.08367" lon="-0.01272">
        <ele>106</ele>
        <time>2022-04-03T16:31:30Z</time>
      </trkpt>
      <trkpt lat="46.08374" lon="-0.0128">
        <ele>105.2</ele>
        <time>2022-04-03T16:31:31Z</time>
      </trkpt>
      <trkpt lat="46.0838" lon="-0.01287">
        <ele>104.8</ele>
        <time>2022-04-03T16:31:32Z</time>
      </trkpt>
      <trkpt lat="46.08386" lon="-0.01295">
        <ele>104.6</ele>
        <time>2022-04-03T16:31:33Z</time>
      </trkpt>
      <trkpt lat="46.08391" lon="-0.01302">
        <ele>104.2</ele>
        <time>2022-04-03T16:31:34Z</time>
      </trkpt>
      <trkpt lat="46.08396" lon="-0.01309">
        <ele>104</ele>
        <time>2022-04-03T16:31:35Z</time>
      </trkpt>
      <trkpt lat="46.08401" lon="-0.01316">
        <ele>104</ele>
        <time>2022-04-03T16:31:36Z</time>
      </trkpt>
      <trkpt lat="46.08406" lon="-0.01323">
        <ele>103.8</ele>
        <time>2022-04-03T16:31:37Z</time>
      </trkpt>
      <trkpt lat="46.08411" lon="-0.01331">
        <ele>103.8</ele>
        <time>2022-04-03T16:31:38Z</time>
      </trkpt>
      <trkpt lat="46.08415" lon="-0.01338">
        <ele>103.6</ele>
        <time>2022-04-03T16:31:39Z</time>
      </trkpt>
      <trkpt lat="46.08419" lon="-0.01345">
        <ele>103.8</ele>
        <time>2022-04-03T16:31:40Z</time>
      </trkpt>
      <trkpt lat="46.08423" lon="-0.01352">
        <ele>103.6</ele>
        <time>2022-04-03T16:31:41Z</time>
      </trkpt>
      <trkpt lat="46.08427" lon="-0.01359">
        <ele>103.6</ele>
        <time>2022-04-03T16:31:42Z</time>
      </trkpt>
      <trkpt lat="46.08431" lon="-0.01366">
        <ele>103.6</ele>
        <time>2022-04-03T16:31:43Z</time>
      </trkpt>
      <trkpt lat="46.08434" lon="-0.01373">
        <ele>103.6</ele>
        <time>2022-04-03T16:31:44Z</time>
      </trkpt>
      <trkpt lat="46.08438" lon="-0.01379">
        <ele>103.8</ele>
        <time>2022-04-03T16:31:45Z</time>
      </trkpt>
      <trkpt lat="46.08442" lon="-0.01386">
        <ele>103.6</ele>
        <time>2022-04-03T16:31:46Z</time>
      </trkpt>
      <trkpt lat="46.08446" lon="-0.01393">
        <ele>103.8</ele>
        <time>2022-04-03T16:31:47Z</time>
      </trkpt>
      <trkpt lat="46.0845" lon="-0.01399">
        <ele>103.6</ele>
        <time>2022-04-03T16:31:48Z</time>
      </trkpt>
      <trkpt lat="46.08455" lon="-0.01405">
        <ele>103.6</ele>
        <time>2022-04-03T16:31:49Z</time>
      </trkpt>
      <trkpt lat="46.0846" lon="-0.0141">
        <ele>103.8</ele>
        <time>2022-04-03T16:31:50Z</time>
      </trkpt>
      <trkpt lat="46.08464" lon="-0.01415">
        <ele>103.8</ele>
        <time>2022-04-03T16:31:51Z</time>
      </trkpt>
      <trkpt lat="46.08468" lon="-0.0142">
        <ele>103.6</ele>
        <time>2022-04-03T16:31:52Z</time>
      </trkpt>
      <trkpt lat="46.08472" lon="-0.01426">
        <ele>103.8</ele>
        <time>2022-04-03T16:31:53Z</time>
      </trkpt>
      <trkpt lat="46.08476" lon="-0.0143">
        <ele>103.8</ele>
        <time>2022-04-03T16:31:54Z</time>
      </trkpt>
      <trkpt lat="46.0848" lon="-0.01435">
        <ele>103.6</ele>
        <time>2022-04-03T16:31:55Z</time>
      </trkpt>
      <trkpt lat="46.08485" lon="-0.0144">
        <ele>103.6</ele>
        <time>2022-04-03T16:31:56Z</time>
      </trkpt>
      <trkpt lat="46.08489" lon="-0.01446">
        <ele>103.6</ele>
        <time>2022-04-03T16:31:57Z</time>
      </trkpt>
      <trkpt lat="46.08493" lon="-0.01451">
        <ele>103.6</ele>
        <time>2022-04-03T16:31:58Z</time>
      </trkpt>
      <trkpt lat="46.08497" lon="-0.01457">
        <ele>103.4</ele>
        <time>2022-04-03T16:31:59Z</time>
      </trkpt>
      <trkpt lat="46.08501" lon="-0.01463">
        <ele>103.2</ele>
        <time>2022-04-03T16:32:00Z</time>
      </trkpt>
      <trkpt lat="46.08505" lon="-0.01469">
        <ele>103.4</ele>
        <time>2022-04-03T16:32:01Z</time>
      </trkpt>
      <trkpt lat="46.08509" lon="-0.01476">
        <ele>103.2</ele>
        <time>2022-04-03T16:32:02Z</time>
      </trkpt>
      <trkpt lat="46.08513" lon="-0.01482">
        <ele>103</ele>
        <time>2022-04-03T16:32:03Z</time>
      </trkpt>
      <trkpt lat="46.08516" lon="-0.0149">
        <ele>102.8</ele>
        <time>2022-04-03T16:32:04Z</time>
      </trkpt>
      <trkpt lat="46.08519" lon="-0.01498">
        <ele>102.8</ele>
        <time>2022-04-03T16:32:05Z</time>
      </trkpt>
      <trkpt lat="46.08522" lon="-0.01506">
        <ele>102.8</ele>
        <time>2022-04-03T16:32:06Z</time>
      </trkpt>
      <trkpt lat="46.08524" lon="-0.01514">
        <ele>102.6</ele>
        <time>2022-04-03T16:32:07Z</time>
      </trkpt>
      <trkpt lat="46.08527" lon="-0.01523">
        <ele>102.6</ele>
        <time>2022-04-03T16:32:08Z</time>
      </trkpt>
      <trkpt lat="46.08529" lon="-0.01532">
        <ele>102.4</ele>
        <time>2022-04-03T16:32:09Z</time>
      </trkpt>
      <trkpt lat="46.08532" lon="-0.01541">
        <ele>102.2</ele>
        <time>2022-04-03T16:32:10Z</time>
      </trkpt>
      <trkpt lat="46.08535" lon="-0.0155">
        <ele>102.2</ele>
        <time>2022-04-03T16:32:11Z</time>
      </trkpt>
      <trkpt lat="46.08538" lon="-0.01559">
        <ele>102</ele>
        <time>2022-04-03T16:32:12Z</time>
      </trkpt>
      <trkpt lat="46.08542" lon="-0.01568">
        <ele>101.6</ele>
        <time>2022-04-03T16:32:13Z</time>
      </trkpt>
      <trkpt lat="46.08545" lon="-0.01577">
        <ele>101.4</ele>
        <time>2022-04-03T16:32:14Z</time>
      </trkpt>
      <trkpt lat="46.08548" lon="-0.01586">
        <ele>101.2</ele>
        <time>2022-04-03T16:32:15Z</time>
      </trkpt>
      <trkpt lat="46.08551" lon="-0.01595">
        <ele>101.2</ele>
        <time>2022-04-03T16:32:16Z</time>
      </trkpt>
      <trkpt lat="46.08555" lon="-0.01604">
        <ele>100.8</ele>
        <time>2022-04-03T16:32:17Z</time>
      </trkpt>
      <trkpt lat="46.08558" lon="-0.01612">
        <ele>100.6</ele>
        <time>2022-04-03T16:32:18Z</time>
      </trkpt>
      <trkpt lat="46.08561" lon="-0.01621">
        <ele>100.4</ele>
        <time>2022-04-03T16:32:19Z</time>
      </trkpt>
      <trkpt lat="46.08564" lon="-0.01629">
        <ele>100.2</ele>
        <time>2022-04-03T16:32:20Z</time>
      </trkpt>
      <trkpt lat="46.08568" lon="-0.01638">
        <ele>100</ele>
        <time>2022-04-03T16:32:21Z</time>
      </trkpt>
      <trkpt lat="46.08571" lon="-0.01646">
        <ele>100</ele>
        <time>2022-04-03T16:32:22Z</time>
      </trkpt>
      <trkpt lat="46.08574" lon="-0.01654">
        <ele>99.8</ele>
        <time>2022-04-03T16:32:23Z</time>
      </trkpt>
      <trkpt lat="46.08577" lon="-0.01663">
        <ele>99.8</ele>
        <time>2022-04-03T16:32:24Z</time>
      </trkpt>
      <trkpt lat="46.0858" lon="-0.01672">
        <ele>99.8</ele>
        <time>2022-04-03T16:32:25Z</time>
      </trkpt>
      <trkpt lat="46.08583" lon="-0.0168">
        <ele>99.8</ele>
        <time>2022-04-03T16:32:26Z</time>
      </trkpt>
      <trkpt lat="46.08586" lon="-0.01689">
        <ele>99.8</ele>
        <time>2022-04-03T16:32:27Z</time>
      </trkpt>
      <trkpt lat="46.08589" lon="-0.01697">
        <ele>99.6</ele>
        <time>2022-04-03T16:32:28Z</time>
      </trkpt>
      <trkpt lat="46.08592" lon="-0.01706">
        <ele>99.6</ele>
        <time>2022-04-03T16:32:29Z</time>
      </trkpt>
      <trkpt lat="46.08595" lon="-0.01714">
        <ele>99.4</ele>
        <time>2022-04-03T16:32:30Z</time>
      </trkpt>
      <trkpt lat="46.08598" lon="-0.01722">
        <ele>99.4</ele>
        <time>2022-04-03T16:32:31Z</time>
      </trkpt>
      <trkpt lat="46.08601" lon="-0.0173">
        <ele>99.4</ele>
        <time>2022-04-03T16:32:32Z</time>
      </trkpt>
      <trkpt lat="46.08605" lon="-0.01739">
        <ele>99.4</ele>
        <time>2022-04-03T16:32:33Z</time>
      </trkpt>
      <trkpt lat="46.08608" lon="-0.01746">
        <ele>99.4</ele>
        <time>2022-04-03T16:32:34Z</time>
      </trkpt>
      <trkpt lat="46.08611" lon="-0.01754">
        <ele>99.2</ele>
        <time>2022-04-03T16:32:35Z</time>
      </trkpt>
      <trkpt lat="46.08615" lon="-0.01762">
        <ele>99.2</ele>
        <time>2022-04-03T16:32:36Z</time>
      </trkpt>
      <trkpt lat="46.08618" lon="-0.0177">
        <ele>99.4</ele>
        <time>2022-04-03T16:32:37Z</time>
      </trkpt>
      <trkpt lat="46.0862" lon="-0.01779">
        <ele>99.2</ele>
        <time>2022-04-03T16:32:38Z</time>
      </trkpt>
      <trkpt lat="46.08624" lon="-0.01787">
        <ele>99.2</ele>
        <time>2022-04-03T16:32:39Z</time>
      </trkpt>
      <trkpt lat="46.08627" lon="-0.01795">
        <ele>99</ele>
        <time>2022-04-03T16:32:40Z</time>
      </trkpt>
      <trkpt lat="46.0863" lon="-0.01803">
        <ele>99</ele>
        <time>2022-04-03T16:32:41Z</time>
      </trkpt>
      <trkpt lat="46.08633" lon="-0.01811">
        <ele>99.2</ele>
        <time>2022-04-03T16:32:42Z</time>
      </trkpt>
      <trkpt lat="46.08636" lon="-0.01819">
        <ele>99.2</ele>
        <time>2022-04-03T16:32:43Z</time>
      </trkpt>
      <trkpt lat="46.08639" lon="-0.01827">
        <ele>99.2</ele>
        <time>2022-04-03T16:32:44Z</time>
      </trkpt>
      <trkpt lat="46.08642" lon="-0.01835">
        <ele>99.2</ele>
        <time>2022-04-03T16:32:45Z</time>
      </trkpt>
      <trkpt lat="46.08646" lon="-0.01843">
        <ele>99.2</ele>
        <time>2022-04-03T16:32:46Z</time>
      </trkpt>
      <trkpt lat="46.08649" lon="-0.0185">
        <ele>99.2</ele>
        <time>2022-04-03T16:32:47Z</time>
      </trkpt>
      <trkpt lat="46.08653" lon="-0.01858">
        <ele>99.2</ele>
        <time>2022-04-03T16:32:48Z</time>
      </trkpt>
      <trkpt lat="46.08656" lon="-0.01865">
        <ele>99</ele>
        <time>2022-04-03T16:32:49Z</time>
      </trkpt>
      <trkpt lat="46.0866" lon="-0.01873">
        <ele>99.2</ele>
        <time>2022-04-03T16:32:50Z</time>
      </trkpt>
      <trkpt lat="46.08663" lon="-0.01881">
        <ele>99.2</ele>
        <time>2022-04-03T16:32:51Z</time>
      </trkpt>
      <trkpt lat="46.08667" lon="-0.01889">
        <ele>99</ele>
        <time>2022-04-03T16:32:52Z</time>
      </trkpt>
      <trkpt lat="46.0867" lon="-0.01897">
        <ele>99.2</ele>
        <time>2022-04-03T16:32:53Z</time>
      </trkpt>
      <trkpt lat="46.08674" lon="-0.01906">
        <ele>99</ele>
        <time>2022-04-03T16:32:54Z</time>
      </trkpt>
      <trkpt lat="46.08677" lon="-0.01914">
        <ele>99</ele>
        <time>2022-04-03T16:32:55Z</time>
      </trkpt>
      <trkpt lat="46.08681" lon="-0.01922">
        <ele>99</ele>
        <time>2022-04-03T16:32:56Z</time>
      </trkpt>
      <trkpt lat="46.08685" lon="-0.0193">
        <ele>98.6</ele>
        <time>2022-04-03T16:32:57Z</time>
      </trkpt>
      <trkpt lat="46.08688" lon="-0.01939">
        <ele>98.6</ele>
        <time>2022-04-03T16:32:58Z</time>
      </trkpt>
      <trkpt lat="46.08692" lon="-0.01947">
        <ele>98.4</ele>
        <time>2022-04-03T16:32:59Z</time>
      </trkpt>
      <trkpt lat="46.08695" lon="-0.01955">
        <ele>98.6</ele>
        <time>2022-04-03T16:33:00Z</time>
      </trkpt>
      <trkpt lat="46.08699" lon="-0.01963">
        <ele>98.2</ele>
        <time>2022-04-03T16:33:01Z</time>
      </trkpt>
      <trkpt lat="46.08703" lon="-0.01971">
        <ele>98</ele>
        <time>2022-04-03T16:33:02Z</time>
      </trkpt>
      <trkpt lat="46.08706" lon="-0.01979">
        <ele>97.8</ele>
        <time>2022-04-03T16:33:03Z</time>
      </trkpt>
      <trkpt lat="46.0871" lon="-0.01987">
        <ele>97.6</ele>
        <time>2022-04-03T16:33:04Z</time>
      </trkpt>
      <trkpt lat="46.08713" lon="-0.01994">
        <ele>97.4</ele>
        <time>2022-04-03T16:33:05Z</time>
      </trkpt>
      <trkpt lat="46.08717" lon="-0.02002">
        <ele>97.4</ele>
        <time>2022-04-03T16:33:06Z</time>
      </trkpt>
      <trkpt lat="46.08721" lon="-0.0201">
        <ele>97.4</ele>
        <time>2022-04-03T16:33:07Z</time>
      </trkpt>
      <trkpt lat="46.08724" lon="-0.02017">
        <ele>97.2</ele>
        <time>2022-04-03T16:33:08Z</time>
      </trkpt>
      <trkpt lat="46.08728" lon="-0.02025">
        <ele>97</ele>
        <time>2022-04-03T16:33:09Z</time>
      </trkpt>
      <trkpt lat="46.08731" lon="-0.02033">
        <ele>96.6</ele>
        <time>2022-04-03T16:33:10Z</time>
      </trkpt>
      <trkpt lat="46.08735" lon="-0.0204">
        <ele>96.6</ele>
        <time>2022-04-03T16:33:11Z</time>
      </trkpt>
      <trkpt lat="46.08738" lon="-0.02048">
        <ele>96.4</ele>
        <time>2022-04-03T16:33:12Z</time>
      </trkpt>
      <trkpt lat="46.08741" lon="-0.02056">
        <ele>96.2</ele>
        <time>2022-04-03T16:33:13Z</time>
      </trkpt>
      <trkpt lat="46.08745" lon="-0.02063">
        <ele>96</ele>
        <time>2022-04-03T16:33:14Z</time>
      </trkpt>
      <trkpt lat="46.08748" lon="-0.02071">
        <ele>95.8</ele>
        <time>2022-04-03T16:33:15Z</time>
      </trkpt>
      <trkpt lat="46.08752" lon="-0.02079">
        <ele>95.8</ele>
        <time>2022-04-03T16:33:16Z</time>
      </trkpt>
      <trkpt lat="46.08756" lon="-0.02087">
        <ele>95.6</ele>
        <time>2022-04-03T16:33:17Z</time>
      </trkpt>
      <trkpt lat="46.08759" lon="-0.02095">
        <ele>95.6</ele>
        <time>2022-04-03T16:33:18Z</time>
      </trkpt>
      <trkpt lat="46.08763" lon="-0.02104">
        <ele>95.4</ele>
        <time>2022-04-03T16:33:19Z</time>
      </trkpt>
      <trkpt lat="46.08766" lon="-0.02112">
        <ele>95.4</ele>
        <time>2022-04-03T16:33:20Z</time>
      </trkpt>
      <trkpt lat="46.0877" lon="-0.0212">
        <ele>95.4</ele>
        <time>2022-04-03T16:33:21Z</time>
      </trkpt>
      <trkpt lat="46.08774" lon="-0.02128">
        <ele>95</ele>
        <time>2022-04-03T16:33:22Z</time>
      </trkpt>
      <trkpt lat="46.08777" lon="-0.02136">
        <ele>95</ele>
        <time>2022-04-03T16:33:23Z</time>
      </trkpt>
      <trkpt lat="46.08781" lon="-0.02144">
        <ele>95</ele>
        <time>2022-04-03T16:33:24Z</time>
      </trkpt>
      <trkpt lat="46.08784" lon="-0.02152">
        <ele>94.6</ele>
        <time>2022-04-03T16:33:25Z</time>
      </trkpt>
      <trkpt lat="46.08788" lon="-0.02159">
        <ele>94.4</ele>
        <time>2022-04-03T16:33:26Z</time>
      </trkpt>
      <trkpt lat="46.08791" lon="-0.02167">
        <ele>94.2</ele>
        <time>2022-04-03T16:33:27Z</time>
      </trkpt>
      <trkpt lat="46.08795" lon="-0.02175">
        <ele>94.2</ele>
        <time>2022-04-03T16:33:28Z</time>
      </trkpt>
      <trkpt lat="46.08798" lon="-0.02183">
        <ele>93.8</ele>
        <time>2022-04-03T16:33:29Z</time>
      </trkpt>
      <trkpt lat="46.08802" lon="-0.0219">
        <ele>93.8</ele>
        <time>2022-04-03T16:33:30Z</time>
      </trkpt>
      <trkpt lat="46.08805" lon="-0.02198">
        <ele>93.6</ele>
        <time>2022-04-03T16:33:31Z</time>
      </trkpt>
      <trkpt lat="46.08809" lon="-0.02206">
        <ele>93.6</ele>
        <time>2022-04-03T16:33:32Z</time>
      </trkpt>
      <trkpt lat="46.08812" lon="-0.02214">
        <ele>93.6</ele>
        <time>2022-04-03T16:33:33Z</time>
      </trkpt>
      <trkpt lat="46.08816" lon="-0.02222">
        <ele>93.6</ele>
        <time>2022-04-03T16:33:34Z</time>
      </trkpt>
      <trkpt lat="46.08819" lon="-0.0223">
        <ele>93.4</ele>
        <time>2022-04-03T16:33:35Z</time>
      </trkpt>
      <trkpt lat="46.08823" lon="-0.02238">
        <ele>93.4</ele>
        <time>2022-04-03T16:33:36Z</time>
      </trkpt>
      <trkpt lat="46.08827" lon="-0.02245">
        <ele>93.2</ele>
        <time>2022-04-03T16:33:37Z</time>
      </trkpt>
      <trkpt lat="46.0883" lon="-0.02253">
        <ele>93.2</ele>
        <time>2022-04-03T16:33:38Z</time>
      </trkpt>
      <trkpt lat="46.08834" lon="-0.02261">
        <ele>93.2</ele>
        <time>2022-04-03T16:33:39Z</time>
      </trkpt>
      <trkpt lat="46.08837" lon="-0.02269">
        <ele>93</ele>
        <time>2022-04-03T16:33:40Z</time>
      </trkpt>
      <trkpt lat="46.0884" lon="-0.02276">
        <ele>93.2</ele>
        <time>2022-04-03T16:33:41Z</time>
      </trkpt>
      <trkpt lat="46.08844" lon="-0.02284">
        <ele>93</ele>
        <time>2022-04-03T16:33:42Z</time>
      </trkpt>
      <trkpt lat="46.08847" lon="-0.02291">
        <ele>93</ele>
        <time>2022-04-03T16:33:43Z</time>
      </trkpt>
      <trkpt lat="46.0885" lon="-0.02298">
        <ele>93.2</ele>
        <time>2022-04-03T16:33:44Z</time>
      </trkpt>
      <trkpt lat="46.08854" lon="-0.02305">
        <ele>93</ele>
        <time>2022-04-03T16:33:45Z</time>
      </trkpt>
      <trkpt lat="46.08857" lon="-0.02312">
        <ele>93</ele>
        <time>2022-04-03T16:33:46Z</time>
      </trkpt>
      <trkpt lat="46.0886" lon="-0.02319">
        <ele>93.2</ele>
        <time>2022-04-03T16:33:47Z</time>
      </trkpt>
      <trkpt lat="46.08863" lon="-0.02326">
        <ele>93</ele>
        <time>2022-04-03T16:33:48Z</time>
      </trkpt>
      <trkpt lat="46.08866" lon="-0.02333">
        <ele>93.2</ele>
        <time>2022-04-03T16:33:49Z</time>
      </trkpt>
      <trkpt lat="46.08869" lon="-0.0234">
        <ele>93</ele>
        <time>2022-04-03T16:33:50Z</time>
      </trkpt>
      <trkpt lat="46.08872" lon="-0.02346">
        <ele>93.2</ele>
        <time>2022-04-03T16:33:51Z</time>
      </trkpt>
      <trkpt lat="46.08875" lon="-0.02353">
        <ele>93</ele>
        <time>2022-04-03T16:33:52Z</time>
      </trkpt>
      <trkpt lat="46.08878" lon="-0.0236">
        <ele>93.2</ele>
        <time>2022-04-03T16:33:53Z</time>
      </trkpt>
      <trkpt lat="46.08881" lon="-0.02366">
        <ele>93.2</ele>
        <time>2022-04-03T16:33:54Z</time>
      </trkpt>
      <trkpt lat="46.08884" lon="-0.02373">
        <ele>94</ele>
        <time>2022-04-03T16:33:55Z</time>
      </trkpt>
      <trkpt lat="46.08887" lon="-0.02379">
        <ele>94.4</ele>
        <time>2022-04-03T16:33:56Z</time>
      </trkpt>
      <trkpt lat="46.0889" lon="-0.02386">
        <ele>94.8</ele>
        <time>2022-04-03T16:33:57Z</time>
      </trkpt>
      <trkpt lat="46.08893" lon="-0.02392">
        <ele>94.8</ele>
        <time>2022-04-03T16:33:58Z</time>
      </trkpt>
      <trkpt lat="46.08896" lon="-0.02399">
        <ele>95</ele>
        <time>2022-04-03T16:33:59Z</time>
      </trkpt>
      <trkpt lat="46.08899" lon="-0.02405">
        <ele>95.4</ele>
        <time>2022-04-03T16:34:00Z</time>
      </trkpt>
      <trkpt lat="46.08902" lon="-0.02412">
        <ele>95.8</ele>
        <time>2022-04-03T16:34:01Z</time>
      </trkpt>
      <trkpt lat="46.08905" lon="-0.02418">
        <ele>95.8</ele>
        <time>2022-04-03T16:34:02Z</time>
      </trkpt>
      <trkpt lat="46.08908" lon="-0.02425">
        <ele>95.8</ele>
        <time>2022-04-03T16:34:03Z</time>
      </trkpt>
      <trkpt lat="46.0891" lon="-0.02431">
        <ele>96</ele>
        <time>2022-04-03T16:34:04Z</time>
      </trkpt>
      <trkpt lat="46.08913" lon="-0.02437">
        <ele>96</ele>
        <time>2022-04-03T16:34:05Z</time>
      </trkpt>
      <trkpt lat="46.08916" lon="-0.02444">
        <ele>96</ele>
        <time>2022-04-03T16:34:06Z</time>
      </trkpt>
      <trkpt lat="46.08919" lon="-0.0245">
        <ele>96.2</ele>
        <time>2022-04-03T16:34:07Z</time>
      </trkpt>
      <trkpt lat="46.08922" lon="-0.02456">
        <ele>96.2</ele>
        <time>2022-04-03T16:34:08Z</time>
      </trkpt>
      <trkpt lat="46.08925" lon="-0.02463">
        <ele>96.2</ele>
        <time>2022-04-03T16:34:09Z</time>
      </trkpt>
      <trkpt lat="46.08928" lon="-0.02469">
        <ele>96.2</ele>
        <time>2022-04-03T16:34:10Z</time>
      </trkpt>
      <trkpt lat="46.08931" lon="-0.02476">
        <ele>96.4</ele>
        <time>2022-04-03T16:34:11Z</time>
      </trkpt>
      <trkpt lat="46.08933" lon="-0.02482">
        <ele>96.4</ele>
        <time>2022-04-03T16:34:12Z</time>
      </trkpt>
      <trkpt lat="46.08936" lon="-0.02489">
        <ele>96.6</ele>
        <time>2022-04-03T16:34:13Z</time>
      </trkpt>
      <trkpt lat="46.0894" lon="-0.02496">
        <ele>96.6</ele>
        <time>2022-04-03T16:34:14Z</time>
      </trkpt>
      <trkpt lat="46.08943" lon="-0.02503">
        <ele>96.6</ele>
        <time>2022-04-03T16:34:15Z</time>
      </trkpt>
      <trkpt lat="46.08946" lon="-0.0251">
        <ele>96.6</ele>
        <time>2022-04-03T16:34:16Z</time>
      </trkpt>
      <trkpt lat="46.08949" lon="-0.02516">
        <ele>96.8</ele>
        <time>2022-04-03T16:34:17Z</time>
      </trkpt>
      <trkpt lat="46.08952" lon="-0.02523">
        <ele>96.8</ele>
        <time>2022-04-03T16:34:18Z</time>
      </trkpt>
      <trkpt lat="46.08955" lon="-0.0253">
        <ele>96.8</ele>
        <time>2022-04-03T16:34:19Z</time>
      </trkpt>
      <trkpt lat="46.08958" lon="-0.02538">
        <ele>97</ele>
        <time>2022-04-03T16:34:20Z</time>
      </trkpt>
      <trkpt lat="46.08961" lon="-0.02545">
        <ele>97</ele>
        <time>2022-04-03T16:34:21Z</time>
      </trkpt>
      <trkpt lat="46.08965" lon="-0.02553">
        <ele>97</ele>
        <time>2022-04-03T16:34:22Z</time>
      </trkpt>
      <trkpt lat="46.08968" lon="-0.0256">
        <ele>96.8</ele>
        <time>2022-04-03T16:34:23Z</time>
      </trkpt>
      <trkpt lat="46.08971" lon="-0.02568">
        <ele>97</ele>
        <time>2022-04-03T16:34:24Z</time>
      </trkpt>
      <trkpt lat="46.08975" lon="-0.02575">
        <ele>96.8</ele>
        <time>2022-04-03T16:34:25Z</time>
      </trkpt>
      <trkpt lat="46.08978" lon="-0.02583">
        <ele>96.8</ele>
        <time>2022-04-03T16:34:26Z</time>
      </trkpt>
      <trkpt lat="46.08981" lon="-0.0259">
        <ele>96.8</ele>
        <time>2022-04-03T16:34:27Z</time>
      </trkpt>
      <trkpt lat="46.08985" lon="-0.02597">
        <ele>96.8</ele>
        <time>2022-04-03T16:34:28Z</time>
      </trkpt>
      <trkpt lat="46.08988" lon="-0.02605">
        <ele>96.8</ele>
        <time>2022-04-03T16:34:29Z</time>
      </trkpt>
      <trkpt lat="46.08991" lon="-0.02612">
        <ele>96.6</ele>
        <time>2022-04-03T16:34:30Z</time>
      </trkpt>
      <trkpt lat="46.08995" lon="-0.02619">
        <ele>96.6</ele>
        <time>2022-04-03T16:34:31Z</time>
      </trkpt>
      <trkpt lat="46.08998" lon="-0.02627">
        <ele>96.4</ele>
        <time>2022-04-03T16:34:32Z</time>
      </trkpt>
      <trkpt lat="46.09001" lon="-0.02634">
        <ele>96.2</ele>
        <time>2022-04-03T16:34:33Z</time>
      </trkpt>
      <trkpt lat="46.09004" lon="-0.0264">
        <ele>96</ele>
        <time>2022-04-03T16:34:34Z</time>
      </trkpt>
      <trkpt lat="46.09007" lon="-0.02647">
        <ele>96</ele>
        <time>2022-04-03T16:34:35Z</time>
      </trkpt>
      <trkpt lat="46.0901" lon="-0.02654">
        <ele>95.8</ele>
        <time>2022-04-03T16:34:36Z</time>
      </trkpt>
      <trkpt lat="46.09013" lon="-0.02662">
        <ele>95.6</ele>
        <time>2022-04-03T16:34:37Z</time>
      </trkpt>
      <trkpt lat="46.09017" lon="-0.02669">
        <ele>95.4</ele>
        <time>2022-04-03T16:34:38Z</time>
      </trkpt>
      <trkpt lat="46.0902" lon="-0.02676">
        <ele>95.4</ele>
        <time>2022-04-03T16:34:39Z</time>
      </trkpt>
      <trkpt lat="46.09023" lon="-0.02683">
        <ele>95.4</ele>
        <time>2022-04-03T16:34:40Z</time>
      </trkpt>
      <trkpt lat="46.09027" lon="-0.02691">
        <ele>95.2</ele>
        <time>2022-04-03T16:34:41Z</time>
      </trkpt>
      <trkpt lat="46.0903" lon="-0.02699">
        <ele>95.2</ele>
        <time>2022-04-03T16:34:42Z</time>
      </trkpt>
      <trkpt lat="46.09034" lon="-0.02706">
        <ele>95</ele>
        <time>2022-04-03T16:34:43Z</time>
      </trkpt>
      <trkpt lat="46.09037" lon="-0.02714">
        <ele>95</ele>
        <time>2022-04-03T16:34:44Z</time>
      </trkpt>
      <trkpt lat="46.09041" lon="-0.02722">
        <ele>94.8</ele>
        <time>2022-04-03T16:34:45Z</time>
      </trkpt>
      <trkpt lat="46.09044" lon="-0.0273">
        <ele>94.8</ele>
        <time>2022-04-03T16:34:46Z</time>
      </trkpt>
      <trkpt lat="46.09048" lon="-0.02737">
        <ele>94.6</ele>
        <time>2022-04-03T16:34:47Z</time>
      </trkpt>
      <trkpt lat="46.09051" lon="-0.02745">
        <ele>94.6</ele>
        <time>2022-04-03T16:34:48Z</time>
      </trkpt>
      <trkpt lat="46.09055" lon="-0.02753">
        <ele>94.4</ele>
        <time>2022-04-03T16:34:49Z</time>
      </trkpt>
      <trkpt lat="46.09058" lon="-0.02761">
        <ele>94.2</ele>
        <time>2022-04-03T16:34:50Z</time>
      </trkpt>
      <trkpt lat="46.09062" lon="-0.02768">
        <ele>94.2</ele>
        <time>2022-04-03T16:34:51Z</time>
      </trkpt>
      <trkpt lat="46.09065" lon="-0.02776">
        <ele>94.4</ele>
        <time>2022-04-03T16:34:52Z</time>
      </trkpt>
      <trkpt lat="46.09068" lon="-0.02784">
        <ele>94.2</ele>
        <time>2022-04-03T16:34:53Z</time>
      </trkpt>
      <trkpt lat="46.09072" lon="-0.02791">
        <ele>94.2</ele>
        <time>2022-04-03T16:34:54Z</time>
      </trkpt>
      <trkpt lat="46.09075" lon="-0.02799">
        <ele>94</ele>
        <time>2022-04-03T16:34:55Z</time>
      </trkpt>
      <trkpt lat="46.09078" lon="-0.02806">
        <ele>94.2</ele>
        <time>2022-04-03T16:34:56Z</time>
      </trkpt>
      <trkpt lat="46.09082" lon="-0.02814">
        <ele>94</ele>
        <time>2022-04-03T16:34:57Z</time>
      </trkpt>
      <trkpt lat="46.09085" lon="-0.02821">
        <ele>93.8</ele>
        <time>2022-04-03T16:34:58Z</time>
      </trkpt>
      <trkpt lat="46.09088" lon="-0.02829">
        <ele>93.8</ele>
        <time>2022-04-03T16:34:59Z</time>
      </trkpt>
      <trkpt lat="46.09092" lon="-0.02836">
        <ele>94</ele>
        <time>2022-04-03T16:35:00Z</time>
      </trkpt>
      <trkpt lat="46.09095" lon="-0.02844">
        <ele>93.8</ele>
        <time>2022-04-03T16:35:01Z</time>
      </trkpt>
      <trkpt lat="46.09099" lon="-0.02851">
        <ele>93.8</ele>
        <time>2022-04-03T16:35:02Z</time>
      </trkpt>
      <trkpt lat="46.09102" lon="-0.02858">
        <ele>93.8</ele>
        <time>2022-04-03T16:35:03Z</time>
      </trkpt>
      <trkpt lat="46.09105" lon="-0.02866">
        <ele>94</ele>
        <time>2022-04-03T16:35:04Z</time>
      </trkpt>
      <trkpt lat="46.09109" lon="-0.02873">
        <ele>93.8</ele>
        <time>2022-04-03T16:35:05Z</time>
      </trkpt>
      <trkpt lat="46.09112" lon="-0.0288">
        <ele>93.8</ele>
        <time>2022-04-03T16:35:06Z</time>
      </trkpt>
      <trkpt lat="46.09116" lon="-0.02888">
        <ele>93.8</ele>
        <time>2022-04-03T16:35:07Z</time>
      </trkpt>
      <trkpt lat="46.09119" lon="-0.02895">
        <ele>94</ele>
        <time>2022-04-03T16:35:08Z</time>
      </trkpt>
      <trkpt lat="46.09122" lon="-0.02903">
        <ele>93.8</ele>
        <time>2022-04-03T16:35:09Z</time>
      </trkpt>
      <trkpt lat="46.09125" lon="-0.0291">
        <ele>93.8</ele>
        <time>2022-04-03T16:35:10Z</time>
      </trkpt>
      <trkpt lat="46.09129" lon="-0.02917">
        <ele>93.8</ele>
        <time>2022-04-03T16:35:11Z</time>
      </trkpt>
      <trkpt lat="46.09132" lon="-0.02924">
        <ele>93.8</ele>
        <time>2022-04-03T16:35:12Z</time>
      </trkpt>
      <trkpt lat="46.09135" lon="-0.02931">
        <ele>94</ele>
        <time>2022-04-03T16:35:13Z</time>
      </trkpt>
      <trkpt lat="46.09138" lon="-0.02939">
        <ele>93.8</ele>
        <time>2022-04-03T16:35:14Z</time>
      </trkpt>
      <trkpt lat="46.09141" lon="-0.02946">
        <ele>94</ele>
        <time>2022-04-03T16:35:15Z</time>
      </trkpt>
      <trkpt lat="46.09144" lon="-0.02953">
        <ele>94</ele>
        <time>2022-04-03T16:35:16Z</time>
      </trkpt>
      <trkpt lat="46.09148" lon="-0.0296">
        <ele>94</ele>
        <time>2022-04-03T16:35:17Z</time>
      </trkpt>
      <trkpt lat="46.09151" lon="-0.02966">
        <ele>94</ele>
        <time>2022-04-03T16:35:18Z</time>
      </trkpt>
      <trkpt lat="46.09154" lon="-0.02973">
        <ele>94</ele>
        <time>2022-04-03T16:35:19Z</time>
      </trkpt>
      <trkpt lat="46.09157" lon="-0.0298">
        <ele>94</ele>
        <time>2022-04-03T16:35:20Z</time>
      </trkpt>
      <trkpt lat="46.0916" lon="-0.02986">
        <ele>94.2</ele>
        <time>2022-04-03T16:35:21Z</time>
      </trkpt>
      <trkpt lat="46.09163" lon="-0.02992">
        <ele>94.2</ele>
        <time>2022-04-03T16:35:22Z</time>
      </trkpt>
      <trkpt lat="46.09165" lon="-0.02998">
        <ele>94.2</ele>
        <time>2022-04-03T16:35:23Z</time>
      </trkpt>
      <trkpt lat="46.09168" lon="-0.03004">
        <ele>94.2</ele>
        <time>2022-04-03T16:35:24Z</time>
      </trkpt>
      <trkpt lat="46.0917" lon="-0.0301">
        <ele>94.2</ele>
        <time>2022-04-03T16:35:25Z</time>
      </trkpt>
      <trkpt lat="46.09173" lon="-0.03015">
        <ele>94.2</ele>
        <time>2022-04-03T16:35:26Z</time>
      </trkpt>
      <trkpt lat="46.09175" lon="-0.03021">
        <ele>94.4</ele>
        <time>2022-04-03T16:35:27Z</time>
      </trkpt>
      <trkpt lat="46.09178" lon="-0.03026">
        <ele>94.4</ele>
        <time>2022-04-03T16:35:28Z</time>
      </trkpt>
      <trkpt lat="46.0918" lon="-0.03031">
        <ele>94.8</ele>
        <time>2022-04-03T16:35:29Z</time>
      </trkpt>
      <trkpt lat="46.09183" lon="-0.03037">
        <ele>94.8</ele>
        <time>2022-04-03T16:35:30Z</time>
      </trkpt>
      <trkpt lat="46.09185" lon="-0.03042">
        <ele>95</ele>
        <time>2022-04-03T16:35:31Z</time>
      </trkpt>
      <trkpt lat="46.09187" lon="-0.03048">
        <ele>95</ele>
        <time>2022-04-03T16:35:32Z</time>
      </trkpt>
      <trkpt lat="46.0919" lon="-0.03053">
        <ele>95.2</ele>
        <time>2022-04-03T16:35:33Z</time>
      </trkpt>
      <trkpt lat="46.09192" lon="-0.03058">
        <ele>95.6</ele>
        <time>2022-04-03T16:35:34Z</time>
      </trkpt>
      <trkpt lat="46.09195" lon="-0.03064">
        <ele>96.2</ele>
        <time>2022-04-03T16:35:35Z</time>
      </trkpt>
      <trkpt lat="46.09197" lon="-0.03069">
        <ele>96.4</ele>
        <time>2022-04-03T16:35:36Z</time>
      </trkpt>
      <trkpt lat="46.092" lon="-0.03075">
        <ele>96.4</ele>
        <time>2022-04-03T16:35:37Z</time>
      </trkpt>
      <trkpt lat="46.09202" lon="-0.0308">
        <ele>96.4</ele>
        <time>2022-04-03T16:35:38Z</time>
      </trkpt>
      <trkpt lat="46.09205" lon="-0.03086">
        <ele>96.6</ele>
        <time>2022-04-03T16:35:39Z</time>
      </trkpt>
      <trkpt lat="46.09207" lon="-0.03091">
        <ele>96.6</ele>
        <time>2022-04-03T16:35:40Z</time>
      </trkpt>
      <trkpt lat="46.0921" lon="-0.03097">
        <ele>96.6</ele>
        <time>2022-04-03T16:35:41Z</time>
      </trkpt>
      <trkpt lat="46.09212" lon="-0.03102">
        <ele>96.8</ele>
        <time>2022-04-03T16:35:42Z</time>
      </trkpt>
      <trkpt lat="46.09214" lon="-0.03108">
        <ele>96.8</ele>
        <time>2022-04-03T16:35:43Z</time>
      </trkpt>
      <trkpt lat="46.09217" lon="-0.03113">
        <ele>96.8</ele>
        <time>2022-04-03T16:35:44Z</time>
      </trkpt>
      <trkpt lat="46.09219" lon="-0.03119">
        <ele>96.8</ele>
        <time>2022-04-03T16:35:45Z</time>
      </trkpt>
      <trkpt lat="46.09222" lon="-0.03124">
        <ele>96.8</ele>
        <time>2022-04-03T16:35:46Z</time>
      </trkpt>
      <trkpt lat="46.09225" lon="-0.0313">
        <ele>97</ele>
        <time>2022-04-03T16:35:47Z</time>
      </trkpt>
      <trkpt lat="46.09227" lon="-0.03135">
        <ele>97.2</ele>
        <time>2022-04-03T16:35:48Z</time>
      </trkpt>
      <trkpt lat="46.0923" lon="-0.03141">
        <ele>97.2</ele>
        <time>2022-04-03T16:35:49Z</time>
      </trkpt>
      <trkpt lat="46.09232" lon="-0.03147">
        <ele>97.4</ele>
        <time>2022-04-03T16:35:50Z</time>
      </trkpt>
      <trkpt lat="46.09234" lon="-0.03152">
        <ele>97.6</ele>
        <time>2022-04-03T16:35:51Z</time>
      </trkpt>
      <trkpt lat="46.09237" lon="-0.03158">
        <ele>97.6</ele>
        <time>2022-04-03T16:35:52Z</time>
      </trkpt>
      <trkpt lat="46.09239" lon="-0.03163">
        <ele>97.8</ele>
        <time>2022-04-03T16:35:53Z</time>
      </trkpt>
      <trkpt lat="46.09242" lon="-0.03168">
        <ele>98.2</ele>
        <time>2022-04-03T16:35:54Z</time>
      </trkpt>
      <trkpt lat="46.09244" lon="-0.03174">
        <ele>98.2</ele>
        <time>2022-04-03T16:35:55Z</time>
      </trkpt>
      <trkpt lat="46.09247" lon="-0.03179">
        <ele>98.2</ele>
        <time>2022-04-03T16:35:56Z</time>
      </trkpt>
      <trkpt lat="46.09249" lon="-0.03185">
        <ele>98.2</ele>
        <time>2022-04-03T16:35:57Z</time>
      </trkpt>
      <trkpt lat="46.09252" lon="-0.0319">
        <ele>98.4</ele>
        <time>2022-04-03T16:35:58Z</time>
      </trkpt>
      <trkpt lat="46.09254" lon="-0.03196">
        <ele>98.6</ele>
        <time>2022-04-03T16:35:59Z</time>
      </trkpt>
      <trkpt lat="46.09257" lon="-0.03201">
        <ele>98.4</ele>
        <time>2022-04-03T16:36:00Z</time>
      </trkpt>
      <trkpt lat="46.09259" lon="-0.03207">
        <ele>98.4</ele>
        <time>2022-04-03T16:36:01Z</time>
      </trkpt>
      <trkpt lat="46.09261" lon="-0.03213">
        <ele>98.8</ele>
        <time>2022-04-03T16:36:02Z</time>
      </trkpt>
      <trkpt lat="46.09264" lon="-0.03218">
        <ele>98.8</ele>
        <time>2022-04-03T16:36:03Z</time>
      </trkpt>
      <trkpt lat="46.09267" lon="-0.03224">
        <ele>98.8</ele>
        <time>2022-04-03T16:36:04Z</time>
      </trkpt>
      <trkpt lat="46.09269" lon="-0.0323">
        <ele>99</ele>
        <time>2022-04-03T16:36:05Z</time>
      </trkpt>
      <trkpt lat="46.09272" lon="-0.03236">
        <ele>99.2</ele>
        <time>2022-04-03T16:36:06Z</time>
      </trkpt>
      <trkpt lat="46.09274" lon="-0.03242">
        <ele>99.2</ele>
        <time>2022-04-03T16:36:07Z</time>
      </trkpt>
      <trkpt lat="46.09277" lon="-0.03248">
        <ele>99.2</ele>
        <time>2022-04-03T16:36:08Z</time>
      </trkpt>
      <trkpt lat="46.0928" lon="-0.03254">
        <ele>99.2</ele>
        <time>2022-04-03T16:36:09Z</time>
      </trkpt>
      <trkpt lat="46.09283" lon="-0.0326">
        <ele>99.2</ele>
        <time>2022-04-03T16:36:10Z</time>
      </trkpt>
      <trkpt lat="46.09285" lon="-0.03266">
        <ele>99.4</ele>
        <time>2022-04-03T16:36:11Z</time>
      </trkpt>
      <trkpt lat="46.09288" lon="-0.03272">
        <ele>99.4</ele>
        <time>2022-04-03T16:36:12Z</time>
      </trkpt>
      <trkpt lat="46.09291" lon="-0.03279">
        <ele>99.2</ele>
        <time>2022-04-03T16:36:13Z</time>
      </trkpt>
      <trkpt lat="46.09294" lon="-0.03285">
        <ele>99.4</ele>
        <time>2022-04-03T16:36:14Z</time>
      </trkpt>
      <trkpt lat="46.09297" lon="-0.03292">
        <ele>99.4</ele>
        <time>2022-04-03T16:36:15Z</time>
      </trkpt>
      <trkpt lat="46.093" lon="-0.03298">
        <ele>99.4</ele>
        <time>2022-04-03T16:36:16Z</time>
      </trkpt>
      <trkpt lat="46.09303" lon="-0.03305">
        <ele>99.2</ele>
        <time>2022-04-03T16:36:17Z</time>
      </trkpt>
      <trkpt lat="46.09306" lon="-0.03312">
        <ele>99.4</ele>
        <time>2022-04-03T16:36:18Z</time>
      </trkpt>
      <trkpt lat="46.09309" lon="-0.03319">
        <ele>99.4</ele>
        <time>2022-04-03T16:36:19Z</time>
      </trkpt>
      <trkpt lat="46.09312" lon="-0.03326">
        <ele>99.4</ele>
        <time>2022-04-03T16:36:20Z</time>
      </trkpt>
      <trkpt lat="46.09315" lon="-0.03333">
        <ele>99.4</ele>
        <time>2022-04-03T16:36:21Z</time>
      </trkpt>
      <trkpt lat="46.09318" lon="-0.0334">
        <ele>99.4</ele>
        <time>2022-04-03T16:36:22Z</time>
      </trkpt>
      <trkpt lat="46.09321" lon="-0.03347">
        <ele>99.6</ele>
        <time>2022-04-03T16:36:23Z</time>
      </trkpt>
      <trkpt lat="46.09324" lon="-0.03354">
        <ele>99.4</ele>
        <time>2022-04-03T16:36:24Z</time>
      </trkpt>
      <trkpt lat="46.09328" lon="-0.03361">
        <ele>99.4</ele>
        <time>2022-04-03T16:36:25Z</time>
      </trkpt>
      <trkpt lat="46.09331" lon="-0.03368">
        <ele>99.6</ele>
        <time>2022-04-03T16:36:26Z</time>
      </trkpt>
      <trkpt lat="46.09334" lon="-0.03375">
        <ele>99.6</ele>
        <time>2022-04-03T16:36:27Z</time>
      </trkpt>
      <trkpt lat="46.09337" lon="-0.03381">
        <ele>99.6</ele>
        <time>2022-04-03T16:36:28Z</time>
      </trkpt>
      <trkpt lat="46.0934" lon="-0.03388">
        <ele>99.4</ele>
        <time>2022-04-03T16:36:29Z</time>
      </trkpt>
      <trkpt lat="46.09343" lon="-0.03396">
        <ele>99.4</ele>
        <time>2022-04-03T16:36:30Z</time>
      </trkpt>
      <trkpt lat="46.09346" lon="-0.03403">
        <ele>99.4</ele>
        <time>2022-04-03T16:36:31Z</time>
      </trkpt>
      <trkpt lat="46.09349" lon="-0.0341">
        <ele>99.6</ele>
        <time>2022-04-03T16:36:32Z</time>
      </trkpt>
      <trkpt lat="46.09353" lon="-0.03417">
        <ele>99.8</ele>
        <time>2022-04-03T16:36:33Z</time>
      </trkpt>
      <trkpt lat="46.09356" lon="-0.03424">
        <ele>99.6</ele>
        <time>2022-04-03T16:36:34Z</time>
      </trkpt>
      <trkpt lat="46.09359" lon="-0.03431">
        <ele>99.6</ele>
        <time>2022-04-03T16:36:35Z</time>
      </trkpt>
      <trkpt lat="46.09362" lon="-0.03438">
        <ele>99.6</ele>
        <time>2022-04-03T16:36:36Z</time>
      </trkpt>
      <trkpt lat="46.09365" lon="-0.03445">
        <ele>99.8</ele>
        <time>2022-04-03T16:36:37Z</time>
      </trkpt>
      <trkpt lat="46.09369" lon="-0.03452">
        <ele>99.6</ele>
        <time>2022-04-03T16:36:38Z</time>
      </trkpt>
      <trkpt lat="46.09372" lon="-0.03459">
        <ele>99.6</ele>
        <time>2022-04-03T16:36:39Z</time>
      </trkpt>
      <trkpt lat="46.09375" lon="-0.03467">
        <ele>99.6</ele>
        <time>2022-04-03T16:36:40Z</time>
      </trkpt>
      <trkpt lat="46.09379" lon="-0.03474">
        <ele>99.8</ele>
        <time>2022-04-03T16:36:41Z</time>
      </trkpt>
      <trkpt lat="46.09382" lon="-0.03482">
        <ele>99.8</ele>
        <time>2022-04-03T16:36:42Z</time>
      </trkpt>
      <trkpt lat="46.09385" lon="-0.03489">
        <ele>99.8</ele>
        <time>2022-04-03T16:36:43Z</time>
      </trkpt>
      <trkpt lat="46.09389" lon="-0.03497">
        <ele>99.6</ele>
        <time>2022-04-03T16:36:44Z</time>
      </trkpt>
      <trkpt lat="46.09392" lon="-0.03504">
        <ele>99.8</ele>
        <time>2022-04-03T16:36:45Z</time>
      </trkpt>
      <trkpt lat="46.09395" lon="-0.03512">
        <ele>99.6</ele>
        <time>2022-04-03T16:36:46Z</time>
      </trkpt>
      <trkpt lat="46.09398" lon="-0.03519">
        <ele>99.6</ele>
        <time>2022-04-03T16:36:47Z</time>
      </trkpt>
      <trkpt lat="46.09402" lon="-0.03526">
        <ele>99.6</ele>
        <time>2022-04-03T16:36:48Z</time>
      </trkpt>
      <trkpt lat="46.09405" lon="-0.03533">
        <ele>99.6</ele>
        <time>2022-04-03T16:36:49Z</time>
      </trkpt>
      <trkpt lat="46.09408" lon="-0.03541">
        <ele>99.6</ele>
        <time>2022-04-03T16:36:50Z</time>
      </trkpt>
      <trkpt lat="46.09412" lon="-0.03548">
        <ele>99.6</ele>
        <time>2022-04-03T16:36:51Z</time>
      </trkpt>
      <trkpt lat="46.09415" lon="-0.03556">
        <ele>99.4</ele>
        <time>2022-04-03T16:36:52Z</time>
      </trkpt>
      <trkpt lat="46.09418" lon="-0.03563">
        <ele>99.4</ele>
        <time>2022-04-03T16:36:53Z</time>
      </trkpt>
      <trkpt lat="46.09422" lon="-0.0357">
        <ele>99.4</ele>
        <time>2022-04-03T16:36:54Z</time>
      </trkpt>
      <trkpt lat="46.09425" lon="-0.03578">
        <ele>99.4</ele>
        <time>2022-04-03T16:36:55Z</time>
      </trkpt>
      <trkpt lat="46.09428" lon="-0.03585">
        <ele>99.4</ele>
        <time>2022-04-03T16:36:56Z</time>
      </trkpt>
      <trkpt lat="46.09432" lon="-0.03592">
        <ele>99.4</ele>
        <time>2022-04-03T16:36:57Z</time>
      </trkpt>
      <trkpt lat="46.09435" lon="-0.036">
        <ele>99.4</ele>
        <time>2022-04-03T16:36:58Z</time>
      </trkpt>
      <trkpt lat="46.09438" lon="-0.03607">
        <ele>99.4</ele>
        <time>2022-04-03T16:36:59Z</time>
      </trkpt>
      <trkpt lat="46.09442" lon="-0.03615">
        <ele>99.6</ele>
        <time>2022-04-03T16:37:00Z</time>
      </trkpt>
      <trkpt lat="46.09445" lon="-0.03622">
        <ele>99.4</ele>
        <time>2022-04-03T16:37:01Z</time>
      </trkpt>
      <trkpt lat="46.09448" lon="-0.0363">
        <ele>99.6</ele>
        <time>2022-04-03T16:37:02Z</time>
      </trkpt>
      <trkpt lat="46.09452" lon="-0.03637">
        <ele>99.6</ele>
        <time>2022-04-03T16:37:03Z</time>
      </trkpt>
      <trkpt lat="46.09455" lon="-0.03644">
        <ele>99.4</ele>
        <time>2022-04-03T16:37:04Z</time>
      </trkpt>
      <trkpt lat="46.09459" lon="-0.03652">
        <ele>99.6</ele>
        <time>2022-04-03T16:37:05Z</time>
      </trkpt>
      <trkpt lat="46.09462" lon="-0.0366">
        <ele>99.6</ele>
        <time>2022-04-03T16:37:06Z</time>
      </trkpt>
      <trkpt lat="46.09466" lon="-0.03667">
        <ele>99.6</ele>
        <time>2022-04-03T16:37:07Z</time>
      </trkpt>
      <trkpt lat="46.09469" lon="-0.03675">
        <ele>99.6</ele>
        <time>2022-04-03T16:37:08Z</time>
      </trkpt>
      <trkpt lat="46.09473" lon="-0.03683">
        <ele>99.6</ele>
        <time>2022-04-03T16:37:09Z</time>
      </trkpt>
      <trkpt lat="46.09476" lon="-0.03691">
        <ele>99.6</ele>
        <time>2022-04-03T16:37:10Z</time>
      </trkpt>
      <trkpt lat="46.0948" lon="-0.03698">
        <ele>99.6</ele>
        <time>2022-04-03T16:37:11Z</time>
      </trkpt>
      <trkpt lat="46.09483" lon="-0.03706">
        <ele>99.6</ele>
        <time>2022-04-03T16:37:12Z</time>
      </trkpt>
      <trkpt lat="46.09487" lon="-0.03714">
        <ele>99.6</ele>
        <time>2022-04-03T16:37:13Z</time>
      </trkpt>
      <trkpt lat="46.0949" lon="-0.03722">
        <ele>99.6</ele>
        <time>2022-04-03T16:37:14Z</time>
      </trkpt>
      <trkpt lat="46.09494" lon="-0.0373">
        <ele>99.6</ele>
        <time>2022-04-03T16:37:15Z</time>
      </trkpt>
      <trkpt lat="46.09497" lon="-0.03738">
        <ele>99.6</ele>
        <time>2022-04-03T16:37:16Z</time>
      </trkpt>
      <trkpt lat="46.09501" lon="-0.03746">
        <ele>99.6</ele>
        <time>2022-04-03T16:37:17Z</time>
      </trkpt>
      <trkpt lat="46.09504" lon="-0.03755">
        <ele>99.4</ele>
        <time>2022-04-03T16:37:18Z</time>
      </trkpt>
      <trkpt lat="46.09508" lon="-0.03763">
        <ele>99.4</ele>
        <time>2022-04-03T16:37:19Z</time>
      </trkpt>
      <trkpt lat="46.09512" lon="-0.03771">
        <ele>99.4</ele>
        <time>2022-04-03T16:37:20Z</time>
      </trkpt>
      <trkpt lat="46.09515" lon="-0.03779">
        <ele>99</ele>
        <time>2022-04-03T16:37:21Z</time>
      </trkpt>
      <trkpt lat="46.09519" lon="-0.03787">
        <ele>99</ele>
        <time>2022-04-03T16:37:22Z</time>
      </trkpt>
      <trkpt lat="46.09522" lon="-0.03794">
        <ele>98.8</ele>
        <time>2022-04-03T16:37:23Z</time>
      </trkpt>
      <trkpt lat="46.09525" lon="-0.03802">
        <ele>98.8</ele>
        <time>2022-04-03T16:37:24Z</time>
      </trkpt>
      <trkpt lat="46.09529" lon="-0.03809">
        <ele>98.6</ele>
        <time>2022-04-03T16:37:25Z</time>
      </trkpt>
      <trkpt lat="46.09532" lon="-0.03817">
        <ele>98.4</ele>
        <time>2022-04-03T16:37:26Z</time>
      </trkpt>
      <trkpt lat="46.09535" lon="-0.03824">
        <ele>98.2</ele>
        <time>2022-04-03T16:37:27Z</time>
      </trkpt>
      <trkpt lat="46.09538" lon="-0.03831">
        <ele>98.2</ele>
        <time>2022-04-03T16:37:28Z</time>
      </trkpt>
      <trkpt lat="46.09541" lon="-0.03838">
        <ele>98</ele>
        <time>2022-04-03T16:37:29Z</time>
      </trkpt>
      <trkpt lat="46.09544" lon="-0.03845">
        <ele>97.8</ele>
        <time>2022-04-03T16:37:30Z</time>
      </trkpt>
      <trkpt lat="46.09548" lon="-0.03852">
        <ele>97.6</ele>
        <time>2022-04-03T16:37:31Z</time>
      </trkpt>
      <trkpt lat="46.09551" lon="-0.03859">
        <ele>97.6</ele>
        <time>2022-04-03T16:37:32Z</time>
      </trkpt>
      <trkpt lat="46.09554" lon="-0.03866">
        <ele>97.6</ele>
        <time>2022-04-03T16:37:33Z</time>
      </trkpt>
      <trkpt lat="46.09557" lon="-0.03873">
        <ele>97.6</ele>
        <time>2022-04-03T16:37:34Z</time>
      </trkpt>
      <trkpt lat="46.0956" lon="-0.0388">
        <ele>97.6</ele>
        <time>2022-04-03T16:37:35Z</time>
      </trkpt>
      <trkpt lat="46.09564" lon="-0.03888">
        <ele>97.4</ele>
        <time>2022-04-03T16:37:36Z</time>
      </trkpt>
      <trkpt lat="46.09567" lon="-0.03895">
        <ele>97.6</ele>
        <time>2022-04-03T16:37:37Z</time>
      </trkpt>
      <trkpt lat="46.09571" lon="-0.03903">
        <ele>97.6</ele>
        <time>2022-04-03T16:37:38Z</time>
      </trkpt>
      <trkpt lat="46.09574" lon="-0.03911">
        <ele>97.4</ele>
        <time>2022-04-03T16:37:39Z</time>
      </trkpt>
      <trkpt lat="46.09578" lon="-0.03918">
        <ele>97.2</ele>
        <time>2022-04-03T16:37:40Z</time>
      </trkpt>
      <trkpt lat="46.09581" lon="-0.03926">
        <ele>97.2</ele>
        <time>2022-04-03T16:37:41Z</time>
      </trkpt>
      <trkpt lat="46.09585" lon="-0.03934">
        <ele>97</ele>
        <time>2022-04-03T16:37:42Z</time>
      </trkpt>
      <trkpt lat="46.09588" lon="-0.03941">
        <ele>97</ele>
        <time>2022-04-03T16:37:43Z</time>
      </trkpt>
      <trkpt lat="46.09591" lon="-0.03949">
        <ele>96.6</ele>
        <time>2022-04-03T16:37:44Z</time>
      </trkpt>
      <trkpt lat="46.09595" lon="-0.03957">
        <ele>96.4</ele>
        <time>2022-04-03T16:37:45Z</time>
      </trkpt>
      <trkpt lat="46.09598" lon="-0.03965">
        <ele>96.4</ele>
        <time>2022-04-03T16:37:46Z</time>
      </trkpt>
      <trkpt lat="46.09602" lon="-0.03973">
        <ele>96</ele>
        <time>2022-04-03T16:37:47Z</time>
      </trkpt>
      <trkpt lat="46.09606" lon="-0.03981">
        <ele>95.8</ele>
        <time>2022-04-03T16:37:48Z</time>
      </trkpt>
      <trkpt lat="46.09609" lon="-0.03989">
        <ele>95.8</ele>
        <time>2022-04-03T16:37:49Z</time>
      </trkpt>
      <trkpt lat="46.09613" lon="-0.03997">
        <ele>95.8</ele>
        <time>2022-04-03T16:37:50Z</time>
      </trkpt>
      <trkpt lat="46.09617" lon="-0.04005">
        <ele>95.8</ele>
        <time>2022-04-03T16:37:51Z</time>
      </trkpt>
      <trkpt lat="46.0962" lon="-0.04013">
        <ele>95.8</ele>
        <time>2022-04-03T16:37:52Z</time>
      </trkpt>
      <trkpt lat="46.09624" lon="-0.04021">
        <ele>95.8</ele>
        <time>2022-04-03T16:37:53Z</time>
      </trkpt>
      <trkpt lat="46.09627" lon="-0.04029">
        <ele>95.6</ele>
        <time>2022-04-03T16:37:54Z</time>
      </trkpt>
      <trkpt lat="46.09631" lon="-0.04037">
        <ele>95.6</ele>
        <time>2022-04-03T16:37:55Z</time>
      </trkpt>
      <trkpt lat="46.09635" lon="-0.04045">
        <ele>95.4</ele>
        <time>2022-04-03T16:37:56Z</time>
      </trkpt>
      <trkpt lat="46.09638" lon="-0.04053">
        <ele>95.4</ele>
        <time>2022-04-03T16:37:57Z</time>
      </trkpt>
      <trkpt lat="46.09642" lon="-0.04062">
        <ele>95.6</ele>
        <time>2022-04-03T16:37:58Z</time>
      </trkpt>
      <trkpt lat="46.09645" lon="-0.0407">
        <ele>95.4</ele>
        <time>2022-04-03T16:37:59Z</time>
      </trkpt>
      <trkpt lat="46.09649" lon="-0.04078">
        <ele>95.4</ele>
        <time>2022-04-03T16:38:00Z</time>
      </trkpt>
      <trkpt lat="46.09652" lon="-0.04086">
        <ele>95.4</ele>
        <time>2022-04-03T16:38:01Z</time>
      </trkpt>
      <trkpt lat="46.09656" lon="-0.04093">
        <ele>95.4</ele>
        <time>2022-04-03T16:38:02Z</time>
      </trkpt>
      <trkpt lat="46.09659" lon="-0.04101">
        <ele>95.2</ele>
        <time>2022-04-03T16:38:03Z</time>
      </trkpt>
      <trkpt lat="46.09663" lon="-0.04109">
        <ele>95.2</ele>
        <time>2022-04-03T16:38:04Z</time>
      </trkpt>
      <trkpt lat="46.09666" lon="-0.04116">
        <ele>95.4</ele>
        <time>2022-04-03T16:38:05Z</time>
      </trkpt>
      <trkpt lat="46.09669" lon="-0.04124">
        <ele>95.4</ele>
        <time>2022-04-03T16:38:06Z</time>
      </trkpt>
      <trkpt lat="46.09672" lon="-0.04131">
        <ele>95.4</ele>
        <time>2022-04-03T16:38:07Z</time>
      </trkpt>
      <trkpt lat="46.09676" lon="-0.04139">
        <ele>95.4</ele>
        <time>2022-04-03T16:38:08Z</time>
      </trkpt>
      <trkpt lat="46.09679" lon="-0.04146">
        <ele>95.4</ele>
        <time>2022-04-03T16:38:09Z</time>
      </trkpt>
      <trkpt lat="46.09682" lon="-0.04153">
        <ele>95.4</ele>
        <time>2022-04-03T16:38:10Z</time>
      </trkpt>
      <trkpt lat="46.09685" lon="-0.0416">
        <ele>95.4</ele>
        <time>2022-04-03T16:38:11Z</time>
      </trkpt>
      <trkpt lat="46.09689" lon="-0.04167">
        <ele>95.4</ele>
        <time>2022-04-03T16:38:12Z</time>
      </trkpt>
      <trkpt lat="46.09692" lon="-0.04174">
        <ele>95.4</ele>
        <time>2022-04-03T16:38:13Z</time>
      </trkpt>
      <trkpt lat="46.09695" lon="-0.04181">
        <ele>95.4</ele>
        <time>2022-04-03T16:38:14Z</time>
      </trkpt>
      <trkpt lat="46.09698" lon="-0.04188">
        <ele>95.4</ele>
        <time>2022-04-03T16:38:15Z</time>
      </trkpt>
      <trkpt lat="46.09701" lon="-0.04195">
        <ele>95.6</ele>
        <time>2022-04-03T16:38:16Z</time>
      </trkpt>
      <trkpt lat="46.09704" lon="-0.04202">
        <ele>95.6</ele>
        <time>2022-04-03T16:38:17Z</time>
      </trkpt>
      <trkpt lat="46.09707" lon="-0.04209">
        <ele>95.6</ele>
        <time>2022-04-03T16:38:18Z</time>
      </trkpt>
      <trkpt lat="46.09711" lon="-0.04216">
        <ele>95.6</ele>
        <time>2022-04-03T16:38:19Z</time>
      </trkpt>
      <trkpt lat="46.09714" lon="-0.04223">
        <ele>95.6</ele>
        <time>2022-04-03T16:38:20Z</time>
      </trkpt>
      <trkpt lat="46.09717" lon="-0.0423">
        <ele>95.6</ele>
        <time>2022-04-03T16:38:21Z</time>
      </trkpt>
      <trkpt lat="46.0972" lon="-0.04237">
        <ele>95.8</ele>
        <time>2022-04-03T16:38:22Z</time>
      </trkpt>
      <trkpt lat="46.09723" lon="-0.04244">
        <ele>95.6</ele>
        <time>2022-04-03T16:38:23Z</time>
      </trkpt>
      <trkpt lat="46.09726" lon="-0.04251">
        <ele>96</ele>
        <time>2022-04-03T16:38:24Z</time>
      </trkpt>
      <trkpt lat="46.09729" lon="-0.04257">
        <ele>96.4</ele>
        <time>2022-04-03T16:38:25Z</time>
      </trkpt>
      <trkpt lat="46.09732" lon="-0.04264">
        <ele>96.6</ele>
        <time>2022-04-03T16:38:26Z</time>
      </trkpt>
      <trkpt lat="46.09736" lon="-0.04271">
        <ele>96.8</ele>
        <time>2022-04-03T16:38:27Z</time>
      </trkpt>
      <trkpt lat="46.09739" lon="-0.04278">
        <ele>96.8</ele>
        <time>2022-04-03T16:38:28Z</time>
      </trkpt>
      <trkpt lat="46.09742" lon="-0.04285">
        <ele>96.8</ele>
        <time>2022-04-03T16:38:29Z</time>
      </trkpt>
      <trkpt lat="46.09745" lon="-0.04293">
        <ele>97</ele>
        <time>2022-04-03T16:38:30Z</time>
      </trkpt>
      <trkpt lat="46.09748" lon="-0.043">
        <ele>97</ele>
        <time>2022-04-03T16:38:31Z</time>
      </trkpt>
      <trkpt lat="46.09751" lon="-0.04307">
        <ele>97.2</ele>
        <time>2022-04-03T16:38:32Z</time>
      </trkpt>
      <trkpt lat="46.09754" lon="-0.04314">
        <ele>97.4</ele>
        <time>2022-04-03T16:38:33Z</time>
      </trkpt>
      <trkpt lat="46.09757" lon="-0.04321">
        <ele>97.4</ele>
        <time>2022-04-03T16:38:34Z</time>
      </trkpt>
      <trkpt lat="46.09761" lon="-0.04328">
        <ele>97.4</ele>
        <time>2022-04-03T16:38:35Z</time>
      </trkpt>
      <trkpt lat="46.09764" lon="-0.04336">
        <ele>97.4</ele>
        <time>2022-04-03T16:38:36Z</time>
      </trkpt>
      <trkpt lat="46.09767" lon="-0.04343">
        <ele>97.4</ele>
        <time>2022-04-03T16:38:37Z</time>
      </trkpt>
      <trkpt lat="46.0977" lon="-0.0435">
        <ele>97.4</ele>
        <time>2022-04-03T16:38:38Z</time>
      </trkpt>
      <trkpt lat="46.09774" lon="-0.04357">
        <ele>97.4</ele>
        <time>2022-04-03T16:38:39Z</time>
      </trkpt>
      <trkpt lat="46.09777" lon="-0.04364">
        <ele>97.4</ele>
        <time>2022-04-03T16:38:40Z</time>
      </trkpt>
      <trkpt lat="46.0978" lon="-0.04371">
        <ele>97.4</ele>
        <time>2022-04-03T16:38:41Z</time>
      </trkpt>
      <trkpt lat="46.09784" lon="-0.04379">
        <ele>97.4</ele>
        <time>2022-04-03T16:38:42Z</time>
      </trkpt>
      <trkpt lat="46.09787" lon="-0.04386">
        <ele>97.4</ele>
        <time>2022-04-03T16:38:43Z</time>
      </trkpt>
      <trkpt lat="46.0979" lon="-0.04393">
        <ele>97.4</ele>
        <time>2022-04-03T16:38:44Z</time>
      </trkpt>
      <trkpt lat="46.09793" lon="-0.044">
        <ele>97.4</ele>
        <time>2022-04-03T16:38:45Z</time>
      </trkpt>
      <trkpt lat="46.09796" lon="-0.04408">
        <ele>97.4</ele>
        <time>2022-04-03T16:38:46Z</time>
      </trkpt>
      <trkpt lat="46.09799" lon="-0.04415">
        <ele>97.4</ele>
        <time>2022-04-03T16:38:47Z</time>
      </trkpt>
      <trkpt lat="46.09802" lon="-0.04422">
        <ele>97.4</ele>
        <time>2022-04-03T16:38:48Z</time>
      </trkpt>
      <trkpt lat="46.09806" lon="-0.04429">
        <ele>97.4</ele>
        <time>2022-04-03T16:38:49Z</time>
      </trkpt>
      <trkpt lat="46.09809" lon="-0.04437">
        <ele>97.2</ele>
        <time>2022-04-03T16:38:50Z</time>
      </trkpt>
      <trkpt lat="46.09813" lon="-0.04444">
        <ele>97.2</ele>
        <time>2022-04-03T16:38:51Z</time>
      </trkpt>
      <trkpt lat="46.09816" lon="-0.04451">
        <ele>97.2</ele>
        <time>2022-04-03T16:38:52Z</time>
      </trkpt>
      <trkpt lat="46.0982" lon="-0.04458">
        <ele>97.2</ele>
        <time>2022-04-03T16:38:53Z</time>
      </trkpt>
      <trkpt lat="46.09823" lon="-0.04465">
        <ele>97</ele>
        <time>2022-04-03T16:38:54Z</time>
      </trkpt>
      <trkpt lat="46.09826" lon="-0.04473">
        <ele>97</ele>
        <time>2022-04-03T16:38:55Z</time>
      </trkpt>
      <trkpt lat="46.0983" lon="-0.04481">
        <ele>97</ele>
        <time>2022-04-03T16:38:56Z</time>
      </trkpt>
      <trkpt lat="46.09833" lon="-0.04488">
        <ele>97</ele>
        <time>2022-04-03T16:38:57Z</time>
      </trkpt>
      <trkpt lat="46.09836" lon="-0.04496">
        <ele>97</ele>
        <time>2022-04-03T16:38:58Z</time>
      </trkpt>
      <trkpt lat="46.0984" lon="-0.04504">
        <ele>96.8</ele>
        <time>2022-04-03T16:38:59Z</time>
      </trkpt>
      <trkpt lat="46.09843" lon="-0.04512">
        <ele>96.8</ele>
        <time>2022-04-03T16:39:00Z</time>
      </trkpt>
      <trkpt lat="46.09847" lon="-0.0452">
        <ele>96.8</ele>
        <time>2022-04-03T16:39:01Z</time>
      </trkpt>
      <trkpt lat="46.0985" lon="-0.04528">
        <ele>96.6</ele>
        <time>2022-04-03T16:39:02Z</time>
      </trkpt>
      <trkpt lat="46.09854" lon="-0.04536">
        <ele>96.6</ele>
        <time>2022-04-03T16:39:03Z</time>
      </trkpt>
      <trkpt lat="46.09857" lon="-0.04543">
        <ele>96.4</ele>
        <time>2022-04-03T16:39:04Z</time>
      </trkpt>
      <trkpt lat="46.09861" lon="-0.04551">
        <ele>96.4</ele>
        <time>2022-04-03T16:39:05Z</time>
      </trkpt>
      <trkpt lat="46.09865" lon="-0.0456">
        <ele>96.2</ele>
        <time>2022-04-03T16:39:06Z</time>
      </trkpt>
      <trkpt lat="46.09868" lon="-0.04568">
        <ele>96.2</ele>
        <time>2022-04-03T16:39:07Z</time>
      </trkpt>
      <trkpt lat="46.09872" lon="-0.04576">
        <ele>96</ele>
        <time>2022-04-03T16:39:08Z</time>
      </trkpt>
      <trkpt lat="46.09876" lon="-0.04584">
        <ele>96.2</ele>
        <time>2022-04-03T16:39:09Z</time>
      </trkpt>
      <trkpt lat="46.09879" lon="-0.04592">
        <ele>95.6</ele>
        <time>2022-04-03T16:39:10Z</time>
      </trkpt>
      <trkpt lat="46.09883" lon="-0.04601">
        <ele>95.4</ele>
        <time>2022-04-03T16:39:11Z</time>
      </trkpt>
      <trkpt lat="46.09887" lon="-0.04609">
        <ele>95</ele>
        <time>2022-04-03T16:39:12Z</time>
      </trkpt>
      <trkpt lat="46.09891" lon="-0.04618">
        <ele>94.6</ele>
        <time>2022-04-03T16:39:13Z</time>
      </trkpt>
      <trkpt lat="46.09894" lon="-0.04626">
        <ele>94.4</ele>
        <time>2022-04-03T16:39:14Z</time>
      </trkpt>
      <trkpt lat="46.09898" lon="-0.04634">
        <ele>94.2</ele>
        <time>2022-04-03T16:39:15Z</time>
      </trkpt>
      <trkpt lat="46.09902" lon="-0.04643">
        <ele>94</ele>
        <time>2022-04-03T16:39:16Z</time>
      </trkpt>
      <trkpt lat="46.09905" lon="-0.04651">
        <ele>94</ele>
        <time>2022-04-03T16:39:17Z</time>
      </trkpt>
      <trkpt lat="46.09909" lon="-0.04659">
        <ele>94</ele>
        <time>2022-04-03T16:39:18Z</time>
      </trkpt>
      <trkpt lat="46.09913" lon="-0.04667">
        <ele>94</ele>
        <time>2022-04-03T16:39:19Z</time>
      </trkpt>
      <trkpt lat="46.09917" lon="-0.04675">
        <ele>93.8</ele>
        <time>2022-04-03T16:39:20Z</time>
      </trkpt>
      <trkpt lat="46.0992" lon="-0.04683">
        <ele>93.6</ele>
        <time>2022-04-03T16:39:21Z</time>
      </trkpt>
      <trkpt lat="46.09924" lon="-0.04691">
        <ele>93.8</ele>
        <time>2022-04-03T16:39:22Z</time>
      </trkpt>
      <trkpt lat="46.09927" lon="-0.04699">
        <ele>93.6</ele>
        <time>2022-04-03T16:39:23Z</time>
      </trkpt>
      <trkpt lat="46.09931" lon="-0.04707">
        <ele>93.6</ele>
        <time>2022-04-03T16:39:24Z</time>
      </trkpt>
      <trkpt lat="46.09935" lon="-0.04716">
        <ele>93.4</ele>
        <time>2022-04-03T16:39:25Z</time>
      </trkpt>
      <trkpt lat="46.09938" lon="-0.04724">
        <ele>93.4</ele>
        <time>2022-04-03T16:39:26Z</time>
      </trkpt>
      <trkpt lat="46.09942" lon="-0.04733">
        <ele>93.4</ele>
        <time>2022-04-03T16:39:27Z</time>
      </trkpt>
      <trkpt lat="46.09946" lon="-0.04741">
        <ele>93.4</ele>
        <time>2022-04-03T16:39:28Z</time>
      </trkpt>
      <trkpt lat="46.0995" lon="-0.0475">
        <ele>93.2</ele>
        <time>2022-04-03T16:39:29Z</time>
      </trkpt>
      <trkpt lat="46.09954" lon="-0.04759">
        <ele>93.2</ele>
        <time>2022-04-03T16:39:30Z</time>
      </trkpt>
      <trkpt lat="46.09958" lon="-0.04768">
        <ele>93.2</ele>
        <time>2022-04-03T16:39:31Z</time>
      </trkpt>
      <trkpt lat="46.09962" lon="-0.04777">
        <ele>93.2</ele>
        <time>2022-04-03T16:39:32Z</time>
      </trkpt>
      <trkpt lat="46.09966" lon="-0.04785">
        <ele>93</ele>
        <time>2022-04-03T16:39:33Z</time>
      </trkpt>
      <trkpt lat="46.0997" lon="-0.04794">
        <ele>92.8</ele>
        <time>2022-04-03T16:39:34Z</time>
      </trkpt>
      <trkpt lat="46.09974" lon="-0.04803">
        <ele>92.4</ele>
        <time>2022-04-03T16:39:35Z</time>
      </trkpt>
      <trkpt lat="46.09978" lon="-0.04812">
        <ele>92</ele>
        <time>2022-04-03T16:39:36Z</time>
      </trkpt>
      <trkpt lat="46.09982" lon="-0.04821">
        <ele>91.8</ele>
        <time>2022-04-03T16:39:37Z</time>
      </trkpt>
      <trkpt lat="46.09986" lon="-0.04829">
        <ele>91.2</ele>
        <time>2022-04-03T16:39:38Z</time>
      </trkpt>
      <trkpt lat="46.0999" lon="-0.04838">
        <ele>91.2</ele>
        <time>2022-04-03T16:39:39Z</time>
      </trkpt>
      <trkpt lat="46.09994" lon="-0.04847">
        <ele>91.2</ele>
        <time>2022-04-03T16:39:40Z</time>
      </trkpt>
      <trkpt lat="46.09998" lon="-0.04856">
        <ele>91</ele>
        <time>2022-04-03T16:39:41Z</time>
      </trkpt>
      <trkpt lat="46.10001" lon="-0.04865">
        <ele>90.8</ele>
        <time>2022-04-03T16:39:42Z</time>
      </trkpt>
      <trkpt lat="46.10005" lon="-0.04873">
        <ele>90.6</ele>
        <time>2022-04-03T16:39:43Z</time>
      </trkpt>
      <trkpt lat="46.10009" lon="-0.04882">
        <ele>90.6</ele>
        <time>2022-04-03T16:39:44Z</time>
      </trkpt>
      <trkpt lat="46.10012" lon="-0.04891">
        <ele>90.6</ele>
        <time>2022-04-03T16:39:45Z</time>
      </trkpt>
      <trkpt lat="46.10016" lon="-0.04899">
        <ele>90.4</ele>
        <time>2022-04-03T16:39:46Z</time>
      </trkpt>
      <trkpt lat="46.1002" lon="-0.04908">
        <ele>90.4</ele>
        <time>2022-04-03T16:39:47Z</time>
      </trkpt>
      <trkpt lat="46.10024" lon="-0.04916">
        <ele>90.4</ele>
        <time>2022-04-03T16:39:48Z</time>
      </trkpt>
      <trkpt lat="46.10028" lon="-0.04924">
        <ele>90.2</ele>
        <time>2022-04-03T16:39:49Z</time>
      </trkpt>
      <trkpt lat="46.10032" lon="-0.04932">
        <ele>90</ele>
        <time>2022-04-03T16:39:50Z</time>
      </trkpt>
      <trkpt lat="46.10036" lon="-0.04941">
        <ele>89.8</ele>
        <time>2022-04-03T16:39:51Z</time>
      </trkpt>
      <trkpt lat="46.10039" lon="-0.04949">
        <ele>89.8</ele>
        <time>2022-04-03T16:39:52Z</time>
      </trkpt>
      <trkpt lat="46.10043" lon="-0.04958">
        <ele>89.6</ele>
        <time>2022-04-03T16:39:53Z</time>
      </trkpt>
      <trkpt lat="46.10047" lon="-0.04966">
        <ele>89.6</ele>
        <time>2022-04-03T16:39:54Z</time>
      </trkpt>
      <trkpt lat="46.1005" lon="-0.04975">
        <ele>89.6</ele>
        <time>2022-04-03T16:39:55Z</time>
      </trkpt>
      <trkpt lat="46.10054" lon="-0.04983">
        <ele>89.6</ele>
        <time>2022-04-03T16:39:56Z</time>
      </trkpt>
      <trkpt lat="46.10058" lon="-0.04992">
        <ele>89.6</ele>
        <time>2022-04-03T16:39:57Z</time>
      </trkpt>
      <trkpt lat="46.10062" lon="-0.05">
        <ele>89.4</ele>
        <time>2022-04-03T16:39:58Z</time>
      </trkpt>
      <trkpt lat="46.10066" lon="-0.05008">
        <ele>89.4</ele>
        <time>2022-04-03T16:39:59Z</time>
      </trkpt>
      <trkpt lat="46.1007" lon="-0.05017">
        <ele>89.6</ele>
        <time>2022-04-03T16:40:00Z</time>
      </trkpt>
      <trkpt lat="46.10073" lon="-0.05025">
        <ele>89.4</ele>
        <time>2022-04-03T16:40:01Z</time>
      </trkpt>
      <trkpt lat="46.10077" lon="-0.05034">
        <ele>89.6</ele>
        <time>2022-04-03T16:40:02Z</time>
      </trkpt>
      <trkpt lat="46.10081" lon="-0.05042">
        <ele>89.6</ele>
        <time>2022-04-03T16:40:03Z</time>
      </trkpt>
      <trkpt lat="46.10085" lon="-0.0505">
        <ele>89.6</ele>
        <time>2022-04-03T16:40:04Z</time>
      </trkpt>
      <trkpt lat="46.10088" lon="-0.05059">
        <ele>89.6</ele>
        <time>2022-04-03T16:40:05Z</time>
      </trkpt>
      <trkpt lat="46.10092" lon="-0.05067">
        <ele>89.6</ele>
        <time>2022-04-03T16:40:06Z</time>
      </trkpt>
      <trkpt lat="46.10096" lon="-0.05075">
        <ele>89.8</ele>
        <time>2022-04-03T16:40:07Z</time>
      </trkpt>
      <trkpt lat="46.10099" lon="-0.05083">
        <ele>89.8</ele>
        <time>2022-04-03T16:40:08Z</time>
      </trkpt>
      <trkpt lat="46.10103" lon="-0.05091">
        <ele>89.8</ele>
        <time>2022-04-03T16:40:09Z</time>
      </trkpt>
      <trkpt lat="46.10107" lon="-0.05099">
        <ele>89.8</ele>
        <time>2022-04-03T16:40:10Z</time>
      </trkpt>
      <trkpt lat="46.1011" lon="-0.05107">
        <ele>89.8</ele>
        <time>2022-04-03T16:40:11Z</time>
      </trkpt>
      <trkpt lat="46.10113" lon="-0.05114">
        <ele>90</ele>
        <time>2022-04-03T16:40:12Z</time>
      </trkpt>
      <trkpt lat="46.10117" lon="-0.05121">
        <ele>90</ele>
        <time>2022-04-03T16:40:13Z</time>
      </trkpt>
      <trkpt lat="46.1012" lon="-0.05129">
        <ele>90</ele>
        <time>2022-04-03T16:40:14Z</time>
      </trkpt>
      <trkpt lat="46.10123" lon="-0.05135">
        <ele>90.4</ele>
        <time>2022-04-03T16:40:15Z</time>
      </trkpt>
      <trkpt lat="46.10126" lon="-0.05142">
        <ele>90.4</ele>
        <time>2022-04-03T16:40:16Z</time>
      </trkpt>
      <trkpt lat="46.10129" lon="-0.05149">
        <ele>90.6</ele>
        <time>2022-04-03T16:40:17Z</time>
      </trkpt>
      <trkpt lat="46.10132" lon="-0.05156">
        <ele>90.4</ele>
        <time>2022-04-03T16:40:18Z</time>
      </trkpt>
      <trkpt lat="46.10135" lon="-0.05162">
        <ele>90.6</ele>
        <time>2022-04-03T16:40:19Z</time>
      </trkpt>
      <trkpt lat="46.10138" lon="-0.05169">
        <ele>90.6</ele>
        <time>2022-04-03T16:40:20Z</time>
      </trkpt>
      <trkpt lat="46.10141" lon="-0.05175">
        <ele>90.6</ele>
        <time>2022-04-03T16:40:21Z</time>
      </trkpt>
      <trkpt lat="46.10144" lon="-0.05181">
        <ele>90.6</ele>
        <time>2022-04-03T16:40:22Z</time>
      </trkpt>
      <trkpt lat="46.10147" lon="-0.05187">
        <ele>90.8</ele>
        <time>2022-04-03T16:40:23Z</time>
      </trkpt>
      <trkpt lat="46.1015" lon="-0.05194">
        <ele>90.8</ele>
        <time>2022-04-03T16:40:24Z</time>
      </trkpt>
      <trkpt lat="46.10152" lon="-0.052">
        <ele>91</ele>
        <time>2022-04-03T16:40:25Z</time>
      </trkpt>
      <trkpt lat="46.10155" lon="-0.05206">
        <ele>91.6</ele>
        <time>2022-04-03T16:40:26Z</time>
      </trkpt>
      <trkpt lat="46.10158" lon="-0.05212">
        <ele>91.6</ele>
        <time>2022-04-03T16:40:27Z</time>
      </trkpt>
      <trkpt lat="46.10161" lon="-0.05218">
        <ele>91.8</ele>
        <time>2022-04-03T16:40:28Z</time>
      </trkpt>
      <trkpt lat="46.10163" lon="-0.05225">
        <ele>92</ele>
        <time>2022-04-03T16:40:29Z</time>
      </trkpt>
      <trkpt lat="46.10166" lon="-0.05231">
        <ele>92</ele>
        <time>2022-04-03T16:40:30Z</time>
      </trkpt>
      <trkpt lat="46.10169" lon="-0.05237">
        <ele>92.2</ele>
        <time>2022-04-03T16:40:31Z</time>
      </trkpt>
      <trkpt lat="46.10172" lon="-0.05243">
        <ele>92.4</ele>
        <time>2022-04-03T16:40:32Z</time>
      </trkpt>
      <trkpt lat="46.10174" lon="-0.05249">
        <ele>92.2</ele>
        <time>2022-04-03T16:40:33Z</time>
      </trkpt>
      <trkpt lat="46.10177" lon="-0.05255">
        <ele>92.4</ele>
        <time>2022-04-03T16:40:34Z</time>
      </trkpt>
      <trkpt lat="46.1018" lon="-0.05261">
        <ele>92.4</ele>
        <time>2022-04-03T16:40:35Z</time>
      </trkpt>
      <trkpt lat="46.10182" lon="-0.05267">
        <ele>92.6</ele>
        <time>2022-04-03T16:40:36Z</time>
      </trkpt>
      <trkpt lat="46.10185" lon="-0.05273">
        <ele>92.6</ele>
        <time>2022-04-03T16:40:37Z</time>
      </trkpt>
      <trkpt lat="46.10187" lon="-0.05279">
        <ele>92.6</ele>
        <time>2022-04-03T16:40:38Z</time>
      </trkpt>
      <trkpt lat="46.1019" lon="-0.05285">
        <ele>92.8</ele>
        <time>2022-04-03T16:40:39Z</time>
      </trkpt>
      <trkpt lat="46.10193" lon="-0.0529">
        <ele>92.8</ele>
        <time>2022-04-03T16:40:40Z</time>
      </trkpt>
      <trkpt lat="46.10195" lon="-0.05296">
        <ele>92.8</ele>
        <time>2022-04-03T16:40:41Z</time>
      </trkpt>
      <trkpt lat="46.10198" lon="-0.05302">
        <ele>93</ele>
        <time>2022-04-03T16:40:42Z</time>
      </trkpt>
      <trkpt lat="46.102" lon="-0.05307">
        <ele>93</ele>
        <time>2022-04-03T16:40:43Z</time>
      </trkpt>
      <trkpt lat="46.10203" lon="-0.05313">
        <ele>93</ele>
        <time>2022-04-03T16:40:44Z</time>
      </trkpt>
      <trkpt lat="46.10205" lon="-0.05318">
        <ele>93</ele>
        <time>2022-04-03T16:40:45Z</time>
      </trkpt>
      <trkpt lat="46.10208" lon="-0.05324">
        <ele>93.2</ele>
        <time>2022-04-03T16:40:46Z</time>
      </trkpt>
      <trkpt lat="46.1021" lon="-0.0533">
        <ele>93.2</ele>
        <time>2022-04-03T16:40:47Z</time>
      </trkpt>
      <trkpt lat="46.10213" lon="-0.05335">
        <ele>93.2</ele>
        <time>2022-04-03T16:40:48Z</time>
      </trkpt>
      <trkpt lat="46.10215" lon="-0.05341">
        <ele>93.4</ele>
        <time>2022-04-03T16:40:49Z</time>
      </trkpt>
      <trkpt lat="46.10218" lon="-0.05347">
        <ele>93.4</ele>
        <time>2022-04-03T16:40:50Z</time>
      </trkpt>
      <trkpt lat="46.1022" lon="-0.05352">
        <ele>93.6</ele>
        <time>2022-04-03T16:40:51Z</time>
      </trkpt>
      <trkpt lat="46.10223" lon="-0.05358">
        <ele>93.8</ele>
        <time>2022-04-03T16:40:52Z</time>
      </trkpt>
      <trkpt lat="46.10225" lon="-0.05363">
        <ele>94</ele>
        <time>2022-04-03T16:40:53Z</time>
      </trkpt>
      <trkpt lat="46.10228" lon="-0.05369">
        <ele>94</ele>
        <time>2022-04-03T16:40:54Z</time>
      </trkpt>
      <trkpt lat="46.1023" lon="-0.05375">
        <ele>94.2</ele>
        <time>2022-04-03T16:40:55Z</time>
      </trkpt>
      <trkpt lat="46.10233" lon="-0.05381">
        <ele>94.4</ele>
        <time>2022-04-03T16:40:56Z</time>
      </trkpt>
      <trkpt lat="46.10236" lon="-0.05386">
        <ele>94.4</ele>
        <time>2022-04-03T16:40:57Z</time>
      </trkpt>
      <trkpt lat="46.10238" lon="-0.05392">
        <ele>94.4</ele>
        <time>2022-04-03T16:40:58Z</time>
      </trkpt>
      <trkpt lat="46.10241" lon="-0.05398">
        <ele>94.4</ele>
        <time>2022-04-03T16:40:59Z</time>
      </trkpt>
      <trkpt lat="46.10243" lon="-0.05404">
        <ele>94.6</ele>
        <time>2022-04-03T16:41:00Z</time>
      </trkpt>
      <trkpt lat="46.10246" lon="-0.05409">
        <ele>94.6</ele>
        <time>2022-04-03T16:41:01Z</time>
      </trkpt>
      <trkpt lat="46.10249" lon="-0.05415">
        <ele>94.8</ele>
        <time>2022-04-03T16:41:02Z</time>
      </trkpt>
      <trkpt lat="46.10251" lon="-0.05421">
        <ele>95</ele>
        <time>2022-04-03T16:41:03Z</time>
      </trkpt>
      <trkpt lat="46.10254" lon="-0.05427">
        <ele>95</ele>
        <time>2022-04-03T16:41:04Z</time>
      </trkpt>
      <trkpt lat="46.10257" lon="-0.05433">
        <ele>95</ele>
        <time>2022-04-03T16:41:05Z</time>
      </trkpt>
      <trkpt lat="46.10259" lon="-0.05438">
        <ele>95</ele>
        <time>2022-04-03T16:41:06Z</time>
      </trkpt>
      <trkpt lat="46.10262" lon="-0.05444">
        <ele>95.2</ele>
        <time>2022-04-03T16:41:07Z</time>
      </trkpt>
      <trkpt lat="46.10265" lon="-0.0545">
        <ele>95.2</ele>
        <time>2022-04-03T16:41:08Z</time>
      </trkpt>
      <trkpt lat="46.10267" lon="-0.05456">
        <ele>95.2</ele>
        <time>2022-04-03T16:41:09Z</time>
      </trkpt>
      <trkpt lat="46.1027" lon="-0.05462">
        <ele>95</ele>
        <time>2022-04-03T16:41:10Z</time>
      </trkpt>
      <trkpt lat="46.10273" lon="-0.05469">
        <ele>95.2</ele>
        <time>2022-04-03T16:41:11Z</time>
      </trkpt>
      <trkpt lat="46.10275" lon="-0.05475">
        <ele>95</ele>
        <time>2022-04-03T16:41:12Z</time>
      </trkpt>
      <trkpt lat="46.10278" lon="-0.05481">
        <ele>95.2</ele>
        <time>2022-04-03T16:41:13Z</time>
      </trkpt>
      <trkpt lat="46.10281" lon="-0.05487">
        <ele>95</ele>
        <time>2022-04-03T16:41:14Z</time>
      </trkpt>
      <trkpt lat="46.10284" lon="-0.05493">
        <ele>95.2</ele>
        <time>2022-04-03T16:41:15Z</time>
      </trkpt>
      <trkpt lat="46.10287" lon="-0.055">
        <ele>95.2</ele>
        <time>2022-04-03T16:41:16Z</time>
      </trkpt>
      <trkpt lat="46.10289" lon="-0.05506">
        <ele>95</ele>
        <time>2022-04-03T16:41:17Z</time>
      </trkpt>
      <trkpt lat="46.10292" lon="-0.05513">
        <ele>95.2</ele>
        <time>2022-04-03T16:41:18Z</time>
      </trkpt>
      <trkpt lat="46.10295" lon="-0.05519">
        <ele>95.2</ele>
        <time>2022-04-03T16:41:19Z</time>
      </trkpt>
      <trkpt lat="46.10298" lon="-0.05526">
        <ele>95.2</ele>
        <time>2022-04-03T16:41:20Z</time>
      </trkpt>
      <trkpt lat="46.10301" lon="-0.05533">
        <ele>95.2</ele>
        <time>2022-04-03T16:41:21Z</time>
      </trkpt>
      <trkpt lat="46.10304" lon="-0.05539">
        <ele>95</ele>
        <time>2022-04-03T16:41:22Z</time>
      </trkpt>
      <trkpt lat="46.10307" lon="-0.05546">
        <ele>95</ele>
        <time>2022-04-03T16:41:23Z</time>
      </trkpt>
      <trkpt lat="46.1031" lon="-0.05552">
        <ele>95</ele>
        <time>2022-04-03T16:41:24Z</time>
      </trkpt>
      <trkpt lat="46.10313" lon="-0.05558">
        <ele>95</ele>
        <time>2022-04-03T16:41:25Z</time>
      </trkpt>
      <trkpt lat="46.10315" lon="-0.05564">
        <ele>95</ele>
        <time>2022-04-03T16:41:26Z</time>
      </trkpt>
      <trkpt lat="46.10318" lon="-0.05571">
        <ele>95</ele>
        <time>2022-04-03T16:41:27Z</time>
      </trkpt>
      <trkpt lat="46.1032" lon="-0.05577">
        <ele>94.8</ele>
        <time>2022-04-03T16:41:28Z</time>
      </trkpt>
      <trkpt lat="46.10323" lon="-0.05582">
        <ele>95</ele>
        <time>2022-04-03T16:41:29Z</time>
      </trkpt>
      <trkpt lat="46.10326" lon="-0.05588">
        <ele>95</ele>
        <time>2022-04-03T16:41:30Z</time>
      </trkpt>
      <trkpt lat="46.10329" lon="-0.05595">
        <ele>95</ele>
        <time>2022-04-03T16:41:31Z</time>
      </trkpt>
      <trkpt lat="46.10332" lon="-0.05601">
        <ele>95</ele>
        <time>2022-04-03T16:41:32Z</time>
      </trkpt>
      <trkpt lat="46.10335" lon="-0.05608">
        <ele>95</ele>
        <time>2022-04-03T16:41:33Z</time>
      </trkpt>
      <trkpt lat="46.10338" lon="-0.05615">
        <ele>94.8</ele>
        <time>2022-04-03T16:41:34Z</time>
      </trkpt>
      <trkpt lat="46.10341" lon="-0.05622">
        <ele>94.8</ele>
        <time>2022-04-03T16:41:35Z</time>
      </trkpt>
      <trkpt lat="46.10344" lon="-0.05629">
        <ele>95</ele>
        <time>2022-04-03T16:41:36Z</time>
      </trkpt>
      <trkpt lat="46.10347" lon="-0.05636">
        <ele>94.8</ele>
        <time>2022-04-03T16:41:37Z</time>
      </trkpt>
      <trkpt lat="46.10351" lon="-0.05643">
        <ele>94.8</ele>
        <time>2022-04-03T16:41:38Z</time>
      </trkpt>
      <trkpt lat="46.10354" lon="-0.0565">
        <ele>94.8</ele>
        <time>2022-04-03T16:41:39Z</time>
      </trkpt>
      <trkpt lat="46.10358" lon="-0.05657">
        <ele>94.6</ele>
        <time>2022-04-03T16:41:40Z</time>
      </trkpt>
      <trkpt lat="46.10361" lon="-0.05665">
        <ele>94.8</ele>
        <time>2022-04-03T16:41:41Z</time>
      </trkpt>
      <trkpt lat="46.10364" lon="-0.05672">
        <ele>94.6</ele>
        <time>2022-04-03T16:41:42Z</time>
      </trkpt>
      <trkpt lat="46.10368" lon="-0.0568">
        <ele>94.4</ele>
        <time>2022-04-03T16:41:43Z</time>
      </trkpt>
      <trkpt lat="46.10371" lon="-0.05687">
        <ele>94.4</ele>
        <time>2022-04-03T16:41:44Z</time>
      </trkpt>
      <trkpt lat="46.10374" lon="-0.05695">
        <ele>94.2</ele>
        <time>2022-04-03T16:41:45Z</time>
      </trkpt>
      <trkpt lat="46.10378" lon="-0.05702">
        <ele>94.2</ele>
        <time>2022-04-03T16:41:46Z</time>
      </trkpt>
      <trkpt lat="46.10381" lon="-0.0571">
        <ele>94.2</ele>
        <time>2022-04-03T16:41:47Z</time>
      </trkpt>
      <trkpt lat="46.10385" lon="-0.05717">
        <ele>93.8</ele>
        <time>2022-04-03T16:41:48Z</time>
      </trkpt>
      <trkpt lat="46.10388" lon="-0.05725">
        <ele>93.8</ele>
        <time>2022-04-03T16:41:49Z</time>
      </trkpt>
      <trkpt lat="46.10391" lon="-0.05733">
        <ele>93.8</ele>
        <time>2022-04-03T16:41:50Z</time>
      </trkpt>
      <trkpt lat="46.10395" lon="-0.0574">
        <ele>93.6</ele>
        <time>2022-04-03T16:41:51Z</time>
      </trkpt>
      <trkpt lat="46.10398" lon="-0.05748">
        <ele>93.4</ele>
        <time>2022-04-03T16:41:52Z</time>
      </trkpt>
      <trkpt lat="46.10401" lon="-0.05755">
        <ele>93.6</ele>
        <time>2022-04-03T16:41:53Z</time>
      </trkpt>
      <trkpt lat="46.10405" lon="-0.05763">
        <ele>93.4</ele>
        <time>2022-04-03T16:41:54Z</time>
      </trkpt>
      <trkpt lat="46.10408" lon="-0.0577">
        <ele>93.4</ele>
        <time>2022-04-03T16:41:55Z</time>
      </trkpt>
      <trkpt lat="46.10412" lon="-0.05778">
        <ele>93.2</ele>
        <time>2022-04-03T16:41:56Z</time>
      </trkpt>
      <trkpt lat="46.10415" lon="-0.05785">
        <ele>93.2</ele>
        <time>2022-04-03T16:41:57Z</time>
      </trkpt>
      <trkpt lat="46.10418" lon="-0.05793">
        <ele>93.4</ele>
        <time>2022-04-03T16:41:58Z</time>
      </trkpt>
      <trkpt lat="46.10422" lon="-0.05801">
        <ele>93.4</ele>
        <time>2022-04-03T16:41:59Z</time>
      </trkpt>
      <trkpt lat="46.10425" lon="-0.05809">
        <ele>93.4</ele>
        <time>2022-04-03T16:42:00Z</time>
      </trkpt>
      <trkpt lat="46.10429" lon="-0.05816">
        <ele>93.2</ele>
        <time>2022-04-03T16:42:01Z</time>
      </trkpt>
      <trkpt lat="46.10433" lon="-0.05824">
        <ele>93.4</ele>
        <time>2022-04-03T16:42:02Z</time>
      </trkpt>
      <trkpt lat="46.10436" lon="-0.05832">
        <ele>93.2</ele>
        <time>2022-04-03T16:42:03Z</time>
      </trkpt>
      <trkpt lat="46.1044" lon="-0.0584">
        <ele>93.2</ele>
        <time>2022-04-03T16:42:04Z</time>
      </trkpt>
      <trkpt lat="46.10443" lon="-0.05848">
        <ele>93.2</ele>
        <time>2022-04-03T16:42:05Z</time>
      </trkpt>
      <trkpt lat="46.10446" lon="-0.05856">
        <ele>93.2</ele>
        <time>2022-04-03T16:42:06Z</time>
      </trkpt>
      <trkpt lat="46.1045" lon="-0.05864">
        <ele>93.2</ele>
        <time>2022-04-03T16:42:07Z</time>
      </trkpt>
      <trkpt lat="46.10453" lon="-0.05872">
        <ele>93.2</ele>
        <time>2022-04-03T16:42:08Z</time>
      </trkpt>
      <trkpt lat="46.10456" lon="-0.0588">
        <ele>93.2</ele>
        <time>2022-04-03T16:42:09Z</time>
      </trkpt>
      <trkpt lat="46.10459" lon="-0.05888">
        <ele>93.2</ele>
        <time>2022-04-03T16:42:10Z</time>
      </trkpt>
      <trkpt lat="46.10463" lon="-0.05895">
        <ele>93.4</ele>
        <time>2022-04-03T16:42:11Z</time>
      </trkpt>
      <trkpt lat="46.10466" lon="-0.05903">
        <ele>93.2</ele>
        <time>2022-04-03T16:42:12Z</time>
      </trkpt>
      <trkpt lat="46.1047" lon="-0.0591">
        <ele>93.4</ele>
        <time>2022-04-03T16:42:13Z</time>
      </trkpt>
      <trkpt lat="46.10473" lon="-0.05918">
        <ele>93.4</ele>
        <time>2022-04-03T16:42:14Z</time>
      </trkpt>
      <trkpt lat="46.10477" lon="-0.05926">
        <ele>93.4</ele>
        <time>2022-04-03T16:42:15Z</time>
      </trkpt>
      <trkpt lat="46.10481" lon="-0.05933">
        <ele>93.4</ele>
        <time>2022-04-03T16:42:16Z</time>
      </trkpt>
      <trkpt lat="46.10484" lon="-0.05941">
        <ele>93.2</ele>
        <time>2022-04-03T16:42:17Z</time>
      </trkpt>
      <trkpt lat="46.10488" lon="-0.05949">
        <ele>93.2</ele>
        <time>2022-04-03T16:42:18Z</time>
      </trkpt>
      <trkpt lat="46.10492" lon="-0.05957">
        <ele>93.4</ele>
        <time>2022-04-03T16:42:19Z</time>
      </trkpt>
      <trkpt lat="46.10496" lon="-0.05965">
        <ele>93.4</ele>
        <time>2022-04-03T16:42:20Z</time>
      </trkpt>
      <trkpt lat="46.105" lon="-0.05972">
        <ele>93.2</ele>
        <time>2022-04-03T16:42:21Z</time>
      </trkpt>
      <trkpt lat="46.10504" lon="-0.0598">
        <ele>93.2</ele>
        <time>2022-04-03T16:42:22Z</time>
      </trkpt>
      <trkpt lat="46.10508" lon="-0.05988">
        <ele>93</ele>
        <time>2022-04-03T16:42:23Z</time>
      </trkpt>
      <trkpt lat="46.10513" lon="-0.05995">
        <ele>93.2</ele>
        <time>2022-04-03T16:42:24Z</time>
      </trkpt>
      <trkpt lat="46.10517" lon="-0.06003">
        <ele>93.2</ele>
        <time>2022-04-03T16:42:25Z</time>
      </trkpt>
      <trkpt lat="46.10521" lon="-0.06011">
        <ele>93.2</ele>
        <time>2022-04-03T16:42:26Z</time>
      </trkpt>
      <trkpt lat="46.10526" lon="-0.06018">
        <ele>93.2</ele>
        <time>2022-04-03T16:42:27Z</time>
      </trkpt>
      <trkpt lat="46.1053" lon="-0.06026">
        <ele>93.2</ele>
        <time>2022-04-03T16:42:28Z</time>
      </trkpt>
      <trkpt lat="46.10535" lon="-0.06033">
        <ele>92.8</ele>
        <time>2022-04-03T16:42:29Z</time>
      </trkpt>
      <trkpt lat="46.1054" lon="-0.0604">
        <ele>92.8</ele>
        <time>2022-04-03T16:42:30Z</time>
      </trkpt>
      <trkpt lat="46.10545" lon="-0.06047">
        <ele>92.6</ele>
        <time>2022-04-03T16:42:31Z</time>
      </trkpt>
      <trkpt lat="46.10549" lon="-0.06055">
        <ele>92.4</ele>
        <time>2022-04-03T16:42:32Z</time>
      </trkpt>
      <trkpt lat="46.10554" lon="-0.06062">
        <ele>92</ele>
        <time>2022-04-03T16:42:33Z</time>
      </trkpt>
      <trkpt lat="46.10558" lon="-0.0607">
        <ele>92</ele>
        <time>2022-04-03T16:42:34Z</time>
      </trkpt>
      <trkpt lat="46.10563" lon="-0.06078">
        <ele>92</ele>
        <time>2022-04-03T16:42:35Z</time>
      </trkpt>
      <trkpt lat="46.10567" lon="-0.06085">
        <ele>91.8</ele>
        <time>2022-04-03T16:42:36Z</time>
      </trkpt>
      <trkpt lat="46.10572" lon="-0.06093">
        <ele>91.4</ele>
        <time>2022-04-03T16:42:37Z</time>
      </trkpt>
      <trkpt lat="46.10577" lon="-0.06101">
        <ele>91.2</ele>
        <time>2022-04-03T16:42:38Z</time>
      </trkpt>
      <trkpt lat="46.10581" lon="-0.06108">
        <ele>91.2</ele>
        <time>2022-04-03T16:42:39Z</time>
      </trkpt>
      <trkpt lat="46.10586" lon="-0.06116">
        <ele>91.2</ele>
        <time>2022-04-03T16:42:40Z</time>
      </trkpt>
      <trkpt lat="46.1059" lon="-0.06124">
        <ele>91</ele>
        <time>2022-04-03T16:42:41Z</time>
      </trkpt>
      <trkpt lat="46.10595" lon="-0.06132">
        <ele>91</ele>
        <time>2022-04-03T16:42:42Z</time>
      </trkpt>
      <trkpt lat="46.10599" lon="-0.06139">
        <ele>90.8</ele>
        <time>2022-04-03T16:42:43Z</time>
      </trkpt>
      <trkpt lat="46.10604" lon="-0.06147">
        <ele>90.8</ele>
        <time>2022-04-03T16:42:44Z</time>
      </trkpt>
      <trkpt lat="46.10608" lon="-0.06155">
        <ele>90.8</ele>
        <time>2022-04-03T16:42:45Z</time>
      </trkpt>
      <trkpt lat="46.10613" lon="-0.06162">
        <ele>90.6</ele>
        <time>2022-04-03T16:42:46Z</time>
      </trkpt>
      <trkpt lat="46.10618" lon="-0.0617">
        <ele>90.4</ele>
        <time>2022-04-03T16:42:47Z</time>
      </trkpt>
      <trkpt lat="46.10622" lon="-0.06178">
        <ele>90.6</ele>
        <time>2022-04-03T16:42:48Z</time>
      </trkpt>
      <trkpt lat="46.10627" lon="-0.06186">
        <ele>90.4</ele>
        <time>2022-04-03T16:42:49Z</time>
      </trkpt>
      <trkpt lat="46.10631" lon="-0.06194">
        <ele>90.4</ele>
        <time>2022-04-03T16:42:50Z</time>
      </trkpt>
      <trkpt lat="46.10636" lon="-0.06201">
        <ele>90.2</ele>
        <time>2022-04-03T16:42:51Z</time>
      </trkpt>
      <trkpt lat="46.10641" lon="-0.06209">
        <ele>90.2</ele>
        <time>2022-04-03T16:42:52Z</time>
      </trkpt>
      <trkpt lat="46.10646" lon="-0.06216">
        <ele>90.2</ele>
        <time>2022-04-03T16:42:53Z</time>
      </trkpt>
      <trkpt lat="46.10651" lon="-0.06224">
        <ele>90.2</ele>
        <time>2022-04-03T16:42:54Z</time>
      </trkpt>
      <trkpt lat="46.10655" lon="-0.06231">
        <ele>90</ele>
        <time>2022-04-03T16:42:55Z</time>
      </trkpt>
      <trkpt lat="46.1066" lon="-0.06239">
        <ele>89.8</ele>
        <time>2022-04-03T16:42:56Z</time>
      </trkpt>
      <trkpt lat="46.10665" lon="-0.06246">
        <ele>90</ele>
        <time>2022-04-03T16:42:57Z</time>
      </trkpt>
      <trkpt lat="46.1067" lon="-0.06254">
        <ele>89.8</ele>
        <time>2022-04-03T16:42:58Z</time>
      </trkpt>
      <trkpt lat="46.10674" lon="-0.06261">
        <ele>89.8</ele>
        <time>2022-04-03T16:42:59Z</time>
      </trkpt>
      <trkpt lat="46.10678" lon="-0.06269">
        <ele>89.8</ele>
        <time>2022-04-03T16:43:00Z</time>
      </trkpt>
      <trkpt lat="46.10683" lon="-0.06277">
        <ele>89.8</ele>
        <time>2022-04-03T16:43:01Z</time>
      </trkpt>
      <trkpt lat="46.10687" lon="-0.06285">
        <ele>89.8</ele>
        <time>2022-04-03T16:43:02Z</time>
      </trkpt>
      <trkpt lat="46.10692" lon="-0.06292">
        <ele>89.6</ele>
        <time>2022-04-03T16:43:03Z</time>
      </trkpt>
      <trkpt lat="46.10697" lon="-0.063">
        <ele>89.8</ele>
        <time>2022-04-03T16:43:04Z</time>
      </trkpt>
      <trkpt lat="46.10701" lon="-0.06307">
        <ele>89.6</ele>
        <time>2022-04-03T16:43:05Z</time>
      </trkpt>
      <trkpt lat="46.10706" lon="-0.06315">
        <ele>89.8</ele>
        <time>2022-04-03T16:43:06Z</time>
      </trkpt>
      <trkpt lat="46.10711" lon="-0.06322">
        <ele>89.4</ele>
        <time>2022-04-03T16:43:07Z</time>
      </trkpt>
      <trkpt lat="46.10717" lon="-0.06329">
        <ele>89.4</ele>
        <time>2022-04-03T16:43:08Z</time>
      </trkpt>
      <trkpt lat="46.10722" lon="-0.06336">
        <ele>89.2</ele>
        <time>2022-04-03T16:43:09Z</time>
      </trkpt>
      <trkpt lat="46.10727" lon="-0.06343">
        <ele>89.2</ele>
        <time>2022-04-03T16:43:10Z</time>
      </trkpt>
      <trkpt lat="46.10732" lon="-0.0635">
        <ele>89</ele>
        <time>2022-04-03T16:43:11Z</time>
      </trkpt>
      <trkpt lat="46.10737" lon="-0.06357">
        <ele>89</ele>
        <time>2022-04-03T16:43:12Z</time>
      </trkpt>
      <trkpt lat="46.10742" lon="-0.06363">
        <ele>89</ele>
        <time>2022-04-03T16:43:13Z</time>
      </trkpt>
      <trkpt lat="46.10747" lon="-0.0637">
        <ele>88.8</ele>
        <time>2022-04-03T16:43:14Z</time>
      </trkpt>
      <trkpt lat="46.10752" lon="-0.06377">
        <ele>88.8</ele>
        <time>2022-04-03T16:43:15Z</time>
      </trkpt>
      <trkpt lat="46.10756" lon="-0.06383">
        <ele>88.8</ele>
        <time>2022-04-03T16:43:16Z</time>
      </trkpt>
      <trkpt lat="46.10761" lon="-0.0639">
        <ele>88.6</ele>
        <time>2022-04-03T16:43:17Z</time>
      </trkpt>
      <trkpt lat="46.10765" lon="-0.06396">
        <ele>88.8</ele>
        <time>2022-04-03T16:43:18Z</time>
      </trkpt>
      <trkpt lat="46.1077" lon="-0.06403">
        <ele>88.8</ele>
        <time>2022-04-03T16:43:19Z</time>
      </trkpt>
      <trkpt lat="46.10774" lon="-0.06409">
        <ele>88.6</ele>
        <time>2022-04-03T16:43:20Z</time>
      </trkpt>
      <trkpt lat="46.10779" lon="-0.06416">
        <ele>88.6</ele>
        <time>2022-04-03T16:43:21Z</time>
      </trkpt>
      <trkpt lat="46.10784" lon="-0.06422">
        <ele>88.6</ele>
        <time>2022-04-03T16:43:22Z</time>
      </trkpt>
      <trkpt lat="46.10789" lon="-0.06429">
        <ele>88.6</ele>
        <time>2022-04-03T16:43:23Z</time>
      </trkpt>
      <trkpt lat="46.10794" lon="-0.06436">
        <ele>88.4</ele>
        <time>2022-04-03T16:43:24Z</time>
      </trkpt>
      <trkpt lat="46.10799" lon="-0.06443">
        <ele>88.2</ele>
        <time>2022-04-03T16:43:25Z</time>
      </trkpt>
      <trkpt lat="46.10804" lon="-0.06449">
        <ele>88</ele>
        <time>2022-04-03T16:43:26Z</time>
      </trkpt>
      <trkpt lat="46.1081" lon="-0.06456">
        <ele>88</ele>
        <time>2022-04-03T16:43:27Z</time>
      </trkpt>
      <trkpt lat="46.10815" lon="-0.06463">
        <ele>87.6</ele>
        <time>2022-04-03T16:43:28Z</time>
      </trkpt>
      <trkpt lat="46.1082" lon="-0.06469">
        <ele>87.6</ele>
        <time>2022-04-03T16:43:29Z</time>
      </trkpt>
      <trkpt lat="46.10826" lon="-0.06474">
        <ele>87.4</ele>
        <time>2022-04-03T16:43:30Z</time>
      </trkpt>
      <trkpt lat="46.10832" lon="-0.06479">
        <ele>87</ele>
        <time>2022-04-03T16:43:31Z</time>
      </trkpt>
      <trkpt lat="46.10838" lon="-0.06483">
        <ele>87</ele>
        <time>2022-04-03T16:43:32Z</time>
      </trkpt>
      <trkpt lat="46.10843" lon="-0.06488">
        <ele>86.6</ele>
        <time>2022-04-03T16:43:33Z</time>
      </trkpt>
      <trkpt lat="46.10849" lon="-0.06492">
        <ele>86</ele>
        <time>2022-04-03T16:43:34Z</time>
      </trkpt>
      <trkpt lat="46.10854" lon="-0.06496">
        <ele>85.4</ele>
        <time>2022-04-03T16:43:35Z</time>
      </trkpt>
      <trkpt lat="46.10859" lon="-0.065">
        <ele>85.2</ele>
        <time>2022-04-03T16:43:36Z</time>
      </trkpt>
      <trkpt lat="46.10864" lon="-0.06504">
        <ele>85.2</ele>
        <time>2022-04-03T16:43:37Z</time>
      </trkpt>
      <trkpt lat="46.1087" lon="-0.06507">
        <ele>85.2</ele>
        <time>2022-04-03T16:43:38Z</time>
      </trkpt>
      <trkpt lat="46.10874" lon="-0.06511">
        <ele>85</ele>
        <time>2022-04-03T16:43:39Z</time>
      </trkpt>
      <trkpt lat="46.10879" lon="-0.06515">
        <ele>84.8</ele>
        <time>2022-04-03T16:43:40Z</time>
      </trkpt>
      <trkpt lat="46.10883" lon="-0.06519">
        <ele>85</ele>
        <time>2022-04-03T16:43:41Z</time>
      </trkpt>
      <trkpt lat="46.10887" lon="-0.06523">
        <ele>85</ele>
        <time>2022-04-03T16:43:42Z</time>
      </trkpt>
      <trkpt lat="46.10891" lon="-0.06527">
        <ele>85</ele>
        <time>2022-04-03T16:43:43Z</time>
      </trkpt>
      <trkpt lat="46.10895" lon="-0.06531">
        <ele>84.8</ele>
        <time>2022-04-03T16:43:44Z</time>
      </trkpt>
      <trkpt lat="46.109" lon="-0.06536">
        <ele>85</ele>
        <time>2022-04-03T16:43:45Z</time>
      </trkpt>
      <trkpt lat="46.10904" lon="-0.06541">
        <ele>85</ele>
        <time>2022-04-03T16:43:46Z</time>
      </trkpt>
      <trkpt lat="46.10908" lon="-0.06546">
        <ele>85.2</ele>
        <time>2022-04-03T16:43:47Z</time>
      </trkpt>
      <trkpt lat="46.10912" lon="-0.06551">
        <ele>85</ele>
        <time>2022-04-03T16:43:48Z</time>
      </trkpt>
      <trkpt lat="46.10917" lon="-0.06556">
        <ele>85.2</ele>
        <time>2022-04-03T16:43:49Z</time>
      </trkpt>
      <trkpt lat="46.10921" lon="-0.06562">
        <ele>85.2</ele>
        <time>2022-04-03T16:43:50Z</time>
      </trkpt>
      <trkpt lat="46.10925" lon="-0.06567">
        <ele>85.2</ele>
        <time>2022-04-03T16:43:51Z</time>
      </trkpt>
      <trkpt lat="46.10929" lon="-0.06572">
        <ele>85.2</ele>
        <time>2022-04-03T16:43:52Z</time>
      </trkpt>
      <trkpt lat="46.10933" lon="-0.06577">
        <ele>85</ele>
        <time>2022-04-03T16:43:53Z</time>
      </trkpt>
      <trkpt lat="46.10937" lon="-0.06581">
        <ele>85</ele>
        <time>2022-04-03T16:43:54Z</time>
      </trkpt>
      <trkpt lat="46.1094" lon="-0.06585">
        <ele>85.2</ele>
        <time>2022-04-03T16:43:55Z</time>
      </trkpt>
      <trkpt lat="46.10943" lon="-0.06589">
        <ele>85.2</ele>
        <time>2022-04-03T16:43:56Z</time>
      </trkpt>
      <trkpt lat="46.10946" lon="-0.06594">
        <ele>85</ele>
        <time>2022-04-03T16:43:57Z</time>
      </trkpt>
      <trkpt lat="46.10949" lon="-0.066">
        <ele>85.2</ele>
        <time>2022-04-03T16:43:58Z</time>
      </trkpt>
      <trkpt lat="46.10949" lon="-0.06606">
        <ele>85.2</ele>
        <time>2022-04-03T16:43:59Z</time>
      </trkpt>
      <trkpt lat="46.10948" lon="-0.06612">
        <ele>85.2</ele>
        <time>2022-04-03T16:44:00Z</time>
      </trkpt>
      <trkpt lat="46.10945" lon="-0.06619">
        <ele>85.2</ele>
        <time>2022-04-03T16:44:01Z</time>
      </trkpt>
      <trkpt lat="46.10942" lon="-0.06625">
        <ele>85.2</ele>
        <time>2022-04-03T16:44:02Z</time>
      </trkpt>
      <trkpt lat="46.10939" lon="-0.06632">
        <ele>85</ele>
        <time>2022-04-03T16:44:03Z</time>
      </trkpt>
      <trkpt lat="46.10936" lon="-0.0664">
        <ele>85.2</ele>
        <time>2022-04-03T16:44:04Z</time>
      </trkpt>
      <trkpt lat="46.10933" lon="-0.06648">
        <ele>85</ele>
        <time>2022-04-03T16:44:05Z</time>
      </trkpt>
      <trkpt lat="46.1093" lon="-0.06656">
        <ele>84.8</ele>
        <time>2022-04-03T16:44:06Z</time>
      </trkpt>
      <trkpt lat="46.10928" lon="-0.06665">
        <ele>84.8</ele>
        <time>2022-04-03T16:44:07Z</time>
      </trkpt>
      <trkpt lat="46.10927" lon="-0.06673">
        <ele>84.6</ele>
        <time>2022-04-03T16:44:08Z</time>
      </trkpt>
      <trkpt lat="46.10926" lon="-0.06682">
        <ele>84.6</ele>
        <time>2022-04-03T16:44:09Z</time>
      </trkpt>
      <trkpt lat="46.10924" lon="-0.0669">
        <ele>84.6</ele>
        <time>2022-04-03T16:44:10Z</time>
      </trkpt>
      <trkpt lat="46.10923" lon="-0.06699">
        <ele>84.6</ele>
        <time>2022-04-03T16:44:11Z</time>
      </trkpt>
      <trkpt lat="46.10922" lon="-0.06707">
        <ele>84.6</ele>
        <time>2022-04-03T16:44:12Z</time>
      </trkpt>
      <trkpt lat="46.10921" lon="-0.06715">
        <ele>84.6</ele>
        <time>2022-04-03T16:44:13Z</time>
      </trkpt>
      <trkpt lat="46.1092" lon="-0.06723">
        <ele>84.6</ele>
        <time>2022-04-03T16:44:14Z</time>
      </trkpt>
      <trkpt lat="46.10919" lon="-0.06732">
        <ele>84.6</ele>
        <time>2022-04-03T16:44:15Z</time>
      </trkpt>
      <trkpt lat="46.10918" lon="-0.0674">
        <ele>84.6</ele>
        <time>2022-04-03T16:44:16Z</time>
      </trkpt>
      <trkpt lat="46.10918" lon="-0.06748">
        <ele>84.6</ele>
        <time>2022-04-03T16:44:17Z</time>
      </trkpt>
      <trkpt lat="46.10917" lon="-0.06756">
        <ele>84.4</ele>
        <time>2022-04-03T16:44:18Z</time>
      </trkpt>
      <trkpt lat="46.10918" lon="-0.06763">
        <ele>84.4</ele>
        <time>2022-04-03T16:44:19Z</time>
      </trkpt>
      <trkpt lat="46.10919" lon="-0.0677">
        <ele>84.2</ele>
        <time>2022-04-03T16:44:20Z</time>
      </trkpt>
      <trkpt lat="46.10921" lon="-0.06777">
        <ele>84.2</ele>
        <time>2022-04-03T16:44:21Z</time>
      </trkpt>
      <trkpt lat="46.10924" lon="-0.06784">
        <ele>84.4</ele>
        <time>2022-04-03T16:44:22Z</time>
      </trkpt>
      <trkpt lat="46.10927" lon="-0.0679">
        <ele>84.2</ele>
        <time>2022-04-03T16:44:23Z</time>
      </trkpt>
      <trkpt lat="46.1093" lon="-0.06796">
        <ele>84.2</ele>
        <time>2022-04-03T16:44:24Z</time>
      </trkpt>
      <trkpt lat="46.10934" lon="-0.06801">
        <ele>84.4</ele>
        <time>2022-04-03T16:44:25Z</time>
      </trkpt>
      <trkpt lat="46.10938" lon="-0.06805">
        <ele>84.2</ele>
        <time>2022-04-03T16:44:26Z</time>
      </trkpt>
      <trkpt lat="46.10942" lon="-0.0681">
        <ele>84.4</ele>
        <time>2022-04-03T16:44:27Z</time>
      </trkpt>
      <trkpt lat="46.10946" lon="-0.06815">
        <ele>84.6</ele>
        <time>2022-04-03T16:44:28Z</time>
      </trkpt>
      <trkpt lat="46.1095" lon="-0.0682">
        <ele>84.6</ele>
        <time>2022-04-03T16:44:29Z</time>
      </trkpt>
      <trkpt lat="46.10954" lon="-0.06825">
        <ele>84.8</ele>
        <time>2022-04-03T16:44:30Z</time>
      </trkpt>
      <trkpt lat="46.10959" lon="-0.06829">
        <ele>84.8</ele>
        <time>2022-04-03T16:44:31Z</time>
      </trkpt>
      <trkpt lat="46.10963" lon="-0.06835">
        <ele>85</ele>
        <time>2022-04-03T16:44:32Z</time>
      </trkpt>
      <trkpt lat="46.10966" lon="-0.0684">
        <ele>85.4</ele>
        <time>2022-04-03T16:44:33Z</time>
      </trkpt>
      <trkpt lat="46.10969" lon="-0.06846">
        <ele>85.4</ele>
        <time>2022-04-03T16:44:34Z</time>
      </trkpt>
      <trkpt lat="46.10971" lon="-0.06852">
        <ele>85.4</ele>
        <time>2022-04-03T16:44:35Z</time>
      </trkpt>
      <trkpt lat="46.10974" lon="-0.06858">
        <ele>85.4</ele>
        <time>2022-04-03T16:44:36Z</time>
      </trkpt>
      <trkpt lat="46.10977" lon="-0.06865">
        <ele>85.6</ele>
        <time>2022-04-03T16:44:37Z</time>
      </trkpt>
      <trkpt lat="46.1098" lon="-0.06871">
        <ele>85.4</ele>
        <time>2022-04-03T16:44:38Z</time>
      </trkpt>
      <trkpt lat="46.10982" lon="-0.06877">
        <ele>85.6</ele>
        <time>2022-04-03T16:44:39Z</time>
      </trkpt>
      <trkpt lat="46.10984" lon="-0.06884">
        <ele>85.8</ele>
        <time>2022-04-03T16:44:40Z</time>
      </trkpt>
      <trkpt lat="46.10986" lon="-0.0689">
        <ele>85.8</ele>
        <time>2022-04-03T16:44:41Z</time>
      </trkpt>
      <trkpt lat="46.10988" lon="-0.06896">
        <ele>86</ele>
        <time>2022-04-03T16:44:42Z</time>
      </trkpt>
      <trkpt lat="46.1099" lon="-0.06902">
        <ele>86.2</ele>
        <time>2022-04-03T16:44:43Z</time>
      </trkpt>
      <trkpt lat="46.10992" lon="-0.06907">
        <ele>86.2</ele>
        <time>2022-04-03T16:44:44Z</time>
      </trkpt>
      <trkpt lat="46.10993" lon="-0.06913">
        <ele>86.4</ele>
        <time>2022-04-03T16:44:45Z</time>
      </trkpt>
      <trkpt lat="46.10995" lon="-0.06919">
        <ele>86.4</ele>
        <time>2022-04-03T16:44:46Z</time>
      </trkpt>
      <trkpt lat="46.10996" lon="-0.06925">
        <ele>86.4</ele>
        <time>2022-04-03T16:44:47Z</time>
      </trkpt>
      <trkpt lat="46.10998" lon="-0.06932">
        <ele>86.4</ele>
        <time>2022-04-03T16:44:48Z</time>
      </trkpt>
      <trkpt lat="46.10999" lon="-0.06939">
        <ele>86.4</ele>
        <time>2022-04-03T16:44:49Z</time>
      </trkpt>
      <trkpt lat="46.11001" lon="-0.06945">
        <ele>86.4</ele>
        <time>2022-04-03T16:44:50Z</time>
      </trkpt>
      <trkpt lat="46.11003" lon="-0.06952">
        <ele>86.6</ele>
        <time>2022-04-03T16:44:51Z</time>
      </trkpt>
      <trkpt lat="46.11004" lon="-0.06958">
        <ele>86.6</ele>
        <time>2022-04-03T16:44:52Z</time>
      </trkpt>
      <trkpt lat="46.11005" lon="-0.06965">
        <ele>86.6</ele>
        <time>2022-04-03T16:44:53Z</time>
      </trkpt>
      <trkpt lat="46.11007" lon="-0.06972">
        <ele>86.6</ele>
        <time>2022-04-03T16:44:54Z</time>
      </trkpt>
      <trkpt lat="46.11009" lon="-0.06979">
        <ele>86.6</ele>
        <time>2022-04-03T16:44:55Z</time>
      </trkpt>
      <trkpt lat="46.1101" lon="-0.06985">
        <ele>86.4</ele>
        <time>2022-04-03T16:44:56Z</time>
      </trkpt>
      <trkpt lat="46.11011" lon="-0.06993">
        <ele>86.6</ele>
        <time>2022-04-03T16:44:57Z</time>
      </trkpt>
      <trkpt lat="46.11012" lon="-0.07">
        <ele>86.4</ele>
        <time>2022-04-03T16:44:58Z</time>
      </trkpt>
      <trkpt lat="46.11014" lon="-0.07008">
        <ele>86.4</ele>
        <time>2022-04-03T16:44:59Z</time>
      </trkpt>
      <trkpt lat="46.11015" lon="-0.07014">
        <ele>86.4</ele>
        <time>2022-04-03T16:45:00Z</time>
      </trkpt>
      <trkpt lat="46.11016" lon="-0.07021">
        <ele>86.2</ele>
        <time>2022-04-03T16:45:01Z</time>
      </trkpt>
      <trkpt lat="46.11017" lon="-0.07029">
        <ele>86.2</ele>
        <time>2022-04-03T16:45:02Z</time>
      </trkpt>
      <trkpt lat="46.11018" lon="-0.07036">
        <ele>86</ele>
        <time>2022-04-03T16:45:03Z</time>
      </trkpt>
      <trkpt lat="46.11018" lon="-0.07043">
        <ele>86.2</ele>
        <time>2022-04-03T16:45:04Z</time>
      </trkpt>
      <trkpt lat="46.11019" lon="-0.0705">
        <ele>86.2</ele>
        <time>2022-04-03T16:45:05Z</time>
      </trkpt>
      <trkpt lat="46.11019" lon="-0.07058">
        <ele>86.2</ele>
        <time>2022-04-03T16:45:06Z</time>
      </trkpt>
      <trkpt lat="46.11019" lon="-0.07065">
        <ele>86.2</ele>
        <time>2022-04-03T16:45:07Z</time>
      </trkpt>
      <trkpt lat="46.1102" lon="-0.07072">
        <ele>86.2</ele>
        <time>2022-04-03T16:45:08Z</time>
      </trkpt>
      <trkpt lat="46.1102" lon="-0.0708">
        <ele>86.2</ele>
        <time>2022-04-03T16:45:09Z</time>
      </trkpt>
      <trkpt lat="46.11021" lon="-0.07087">
        <ele>86.2</ele>
        <time>2022-04-03T16:45:10Z</time>
      </trkpt>
      <trkpt lat="46.11021" lon="-0.07095">
        <ele>86.2</ele>
        <time>2022-04-03T16:45:11Z</time>
      </trkpt>
      <trkpt lat="46.11022" lon="-0.07103">
        <ele>86.2</ele>
        <time>2022-04-03T16:45:12Z</time>
      </trkpt>
      <trkpt lat="46.11022" lon="-0.07111">
        <ele>86.2</ele>
        <time>2022-04-03T16:45:13Z</time>
      </trkpt>
      <trkpt lat="46.11022" lon="-0.07119">
        <ele>86.2</ele>
        <time>2022-04-03T16:45:14Z</time>
      </trkpt>
      <trkpt lat="46.11022" lon="-0.07127">
        <ele>86.2</ele>
        <time>2022-04-03T16:45:15Z</time>
      </trkpt>
      <trkpt lat="46.11023" lon="-0.07135">
        <ele>86.4</ele>
        <time>2022-04-03T16:45:16Z</time>
      </trkpt>
      <trkpt lat="46.11023" lon="-0.07143">
        <ele>86.2</ele>
        <time>2022-04-03T16:45:17Z</time>
      </trkpt>
      <trkpt lat="46.11023" lon="-0.0715">
        <ele>86.2</ele>
        <time>2022-04-03T16:45:18Z</time>
      </trkpt>
      <trkpt lat="46.11024" lon="-0.07158">
        <ele>86.4</ele>
        <time>2022-04-03T16:45:19Z</time>
      </trkpt>
      <trkpt lat="46.11024" lon="-0.07165">
        <ele>86.4</ele>
        <time>2022-04-03T16:45:20Z</time>
      </trkpt>
      <trkpt lat="46.11026" lon="-0.07172">
        <ele>86.4</ele>
        <time>2022-04-03T16:45:21Z</time>
      </trkpt>
      <trkpt lat="46.11026" lon="-0.07179">
        <ele>86.4</ele>
        <time>2022-04-03T16:45:22Z</time>
      </trkpt>
      <trkpt lat="46.11026" lon="-0.07187">
        <ele>86.4</ele>
        <time>2022-04-03T16:45:23Z</time>
      </trkpt>
      <trkpt lat="46.11025" lon="-0.07195">
        <ele>86.4</ele>
        <time>2022-04-03T16:45:24Z</time>
      </trkpt>
      <trkpt lat="46.11024" lon="-0.07203">
        <ele>86.4</ele>
        <time>2022-04-03T16:45:25Z</time>
      </trkpt>
      <trkpt lat="46.11023" lon="-0.07211">
        <ele>86.4</ele>
        <time>2022-04-03T16:45:26Z</time>
      </trkpt>
      <trkpt lat="46.11022" lon="-0.07219">
        <ele>86.4</ele>
        <time>2022-04-03T16:45:27Z</time>
      </trkpt>
      <trkpt lat="46.1102" lon="-0.07228">
        <ele>86.4</ele>
        <time>2022-04-03T16:45:28Z</time>
      </trkpt>
      <trkpt lat="46.11018" lon="-0.07236">
        <ele>86.4</ele>
        <time>2022-04-03T16:45:29Z</time>
      </trkpt>
      <trkpt lat="46.11017" lon="-0.07244">
        <ele>86.4</ele>
        <time>2022-04-03T16:45:30Z</time>
      </trkpt>
      <trkpt lat="46.11016" lon="-0.07251">
        <ele>86.2</ele>
        <time>2022-04-03T16:45:31Z</time>
      </trkpt>
      <trkpt lat="46.11015" lon="-0.07259">
        <ele>86.2</ele>
        <time>2022-04-03T16:45:32Z</time>
      </trkpt>
      <trkpt lat="46.11015" lon="-0.07267">
        <ele>86</ele>
        <time>2022-04-03T16:45:33Z</time>
      </trkpt>
      <trkpt lat="46.11013" lon="-0.07274">
        <ele>86</ele>
        <time>2022-04-03T16:45:34Z</time>
      </trkpt>
      <trkpt lat="46.11011" lon="-0.07282">
        <ele>86</ele>
        <time>2022-04-03T16:45:35Z</time>
      </trkpt>
      <trkpt lat="46.1101" lon="-0.07289">
        <ele>86</ele>
        <time>2022-04-03T16:45:36Z</time>
      </trkpt>
      <trkpt lat="46.11008" lon="-0.07297">
        <ele>85.8</ele>
        <time>2022-04-03T16:45:37Z</time>
      </trkpt>
      <trkpt lat="46.11007" lon="-0.07304">
        <ele>86</ele>
        <time>2022-04-03T16:45:38Z</time>
      </trkpt>
      <trkpt lat="46.11005" lon="-0.07311">
        <ele>85.8</ele>
        <time>2022-04-03T16:45:39Z</time>
      </trkpt>
      <trkpt lat="46.11004" lon="-0.07318">
        <ele>85.8</ele>
        <time>2022-04-03T16:45:40Z</time>
      </trkpt>
      <trkpt lat="46.11002" lon="-0.07325">
        <ele>85.6</ele>
        <time>2022-04-03T16:45:41Z</time>
      </trkpt>
      <trkpt lat="46.11" lon="-0.07332">
        <ele>85.6</ele>
        <time>2022-04-03T16:45:42Z</time>
      </trkpt>
      <trkpt lat="46.10999" lon="-0.07339">
        <ele>85.6</ele>
        <time>2022-04-03T16:45:43Z</time>
      </trkpt>
      <trkpt lat="46.10997" lon="-0.07347">
        <ele>85.4</ele>
        <time>2022-04-03T16:45:44Z</time>
      </trkpt>
      <trkpt lat="46.10995" lon="-0.07355">
        <ele>85.4</ele>
        <time>2022-04-03T16:45:45Z</time>
      </trkpt>
      <trkpt lat="46.10993" lon="-0.07363">
        <ele>85.4</ele>
        <time>2022-04-03T16:45:46Z</time>
      </trkpt>
      <trkpt lat="46.10992" lon="-0.0737">
        <ele>85.2</ele>
        <time>2022-04-03T16:45:47Z</time>
      </trkpt>
      <trkpt lat="46.1099" lon="-0.07378">
        <ele>85</ele>
        <time>2022-04-03T16:45:48Z</time>
      </trkpt>
      <trkpt lat="46.10988" lon="-0.07386">
        <ele>85</ele>
        <time>2022-04-03T16:45:49Z</time>
      </trkpt>
      <trkpt lat="46.10986" lon="-0.07394">
        <ele>85</ele>
        <time>2022-04-03T16:45:50Z</time>
      </trkpt>
      <trkpt lat="46.10984" lon="-0.07402">
        <ele>84.8</ele>
        <time>2022-04-03T16:45:51Z</time>
      </trkpt>
      <trkpt lat="46.10982" lon="-0.0741">
        <ele>85</ele>
        <time>2022-04-03T16:45:52Z</time>
      </trkpt>
      <trkpt lat="46.1098" lon="-0.07419">
        <ele>84.6</ele>
        <time>2022-04-03T16:45:53Z</time>
      </trkpt>
      <trkpt lat="46.10979" lon="-0.07427">
        <ele>84.4</ele>
        <time>2022-04-03T16:45:54Z</time>
      </trkpt>
      <trkpt lat="46.10978" lon="-0.07436">
        <ele>84.2</ele>
        <time>2022-04-03T16:45:55Z</time>
      </trkpt>
      <trkpt lat="46.10976" lon="-0.07445">
        <ele>84</ele>
        <time>2022-04-03T16:45:56Z</time>
      </trkpt>
      <trkpt lat="46.10974" lon="-0.07454">
        <ele>84</ele>
        <time>2022-04-03T16:45:57Z</time>
      </trkpt>
      <trkpt lat="46.10972" lon="-0.07463">
        <ele>83.8</ele>
        <time>2022-04-03T16:45:58Z</time>
      </trkpt>
      <trkpt lat="46.1097" lon="-0.07473">
        <ele>84</ele>
        <time>2022-04-03T16:45:59Z</time>
      </trkpt>
      <trkpt lat="46.10967" lon="-0.07482">
        <ele>83.6</ele>
        <time>2022-04-03T16:46:00Z</time>
      </trkpt>
      <trkpt lat="46.10965" lon="-0.07492">
        <ele>83.4</ele>
        <time>2022-04-03T16:46:01Z</time>
      </trkpt>
      <trkpt lat="46.10963" lon="-0.07501">
        <ele>83</ele>
        <time>2022-04-03T16:46:02Z</time>
      </trkpt>
      <trkpt lat="46.10962" lon="-0.07511">
        <ele>83</ele>
        <time>2022-04-03T16:46:03Z</time>
      </trkpt>
      <trkpt lat="46.10959" lon="-0.07521">
        <ele>82.8</ele>
        <time>2022-04-03T16:46:04Z</time>
      </trkpt>
      <trkpt lat="46.10957" lon="-0.0753">
        <ele>82.8</ele>
        <time>2022-04-03T16:46:05Z</time>
      </trkpt>
      <trkpt lat="46.10955" lon="-0.0754">
        <ele>82.6</ele>
        <time>2022-04-03T16:46:06Z</time>
      </trkpt>
      <trkpt lat="46.10953" lon="-0.07549">
        <ele>82.2</ele>
        <time>2022-04-03T16:46:07Z</time>
      </trkpt>
      <trkpt lat="46.10951" lon="-0.07558">
        <ele>82</ele>
        <time>2022-04-03T16:46:08Z</time>
      </trkpt>
      <trkpt lat="46.10949" lon="-0.07567">
        <ele>81.8</ele>
        <time>2022-04-03T16:46:09Z</time>
      </trkpt>
      <trkpt lat="46.10947" lon="-0.07576">
        <ele>81.4</ele>
        <time>2022-04-03T16:46:10Z</time>
      </trkpt>
      <trkpt lat="46.10945" lon="-0.07585">
        <ele>81.4</ele>
        <time>2022-04-03T16:46:11Z</time>
      </trkpt>
      <trkpt lat="46.10943" lon="-0.07594">
        <ele>81</ele>
        <time>2022-04-03T16:46:12Z</time>
      </trkpt>
      <trkpt lat="46.10941" lon="-0.07603">
        <ele>80.8</ele>
        <time>2022-04-03T16:46:13Z</time>
      </trkpt>
      <trkpt lat="46.1094" lon="-0.07612">
        <ele>80.8</ele>
        <time>2022-04-03T16:46:14Z</time>
      </trkpt>
      <trkpt lat="46.10938" lon="-0.07621">
        <ele>80.6</ele>
        <time>2022-04-03T16:46:15Z</time>
      </trkpt>
      <trkpt lat="46.10937" lon="-0.0763">
        <ele>80.4</ele>
        <time>2022-04-03T16:46:16Z</time>
      </trkpt>
      <trkpt lat="46.10935" lon="-0.07638">
        <ele>80.6</ele>
        <time>2022-04-03T16:46:17Z</time>
      </trkpt>
      <trkpt lat="46.10933" lon="-0.07647">
        <ele>80.2</ele>
        <time>2022-04-03T16:46:18Z</time>
      </trkpt>
      <trkpt lat="46.10932" lon="-0.07655">
        <ele>80.4</ele>
        <time>2022-04-03T16:46:19Z</time>
      </trkpt>
      <trkpt lat="46.1093" lon="-0.07664">
        <ele>80.4</ele>
        <time>2022-04-03T16:46:20Z</time>
      </trkpt>
      <trkpt lat="46.10929" lon="-0.07672">
        <ele>80.2</ele>
        <time>2022-04-03T16:46:21Z</time>
      </trkpt>
      <trkpt lat="46.10927" lon="-0.0768">
        <ele>80.2</ele>
        <time>2022-04-03T16:46:22Z</time>
      </trkpt>
      <trkpt lat="46.10926" lon="-0.07688">
        <ele>80.2</ele>
        <time>2022-04-03T16:46:23Z</time>
      </trkpt>
      <trkpt lat="46.10924" lon="-0.07697">
        <ele>80.2</ele>
        <time>2022-04-03T16:46:24Z</time>
      </trkpt>
      <trkpt lat="46.10922" lon="-0.07705">
        <ele>80.2</ele>
        <time>2022-04-03T16:46:25Z</time>
      </trkpt>
      <trkpt lat="46.10921" lon="-0.07713">
        <ele>80.2</ele>
        <time>2022-04-03T16:46:26Z</time>
      </trkpt>
      <trkpt lat="46.10919" lon="-0.07721">
        <ele>80</ele>
        <time>2022-04-03T16:46:27Z</time>
      </trkpt>
      <trkpt lat="46.10917" lon="-0.0773">
        <ele>80</ele>
        <time>2022-04-03T16:46:28Z</time>
      </trkpt>
      <trkpt lat="46.10916" lon="-0.07738">
        <ele>80</ele>
        <time>2022-04-03T16:46:29Z</time>
      </trkpt>
      <trkpt lat="46.10914" lon="-0.07746">
        <ele>80</ele>
        <time>2022-04-03T16:46:30Z</time>
      </trkpt>
      <trkpt lat="46.10912" lon="-0.07754">
        <ele>80</ele>
        <time>2022-04-03T16:46:31Z</time>
      </trkpt>
      <trkpt lat="46.1091" lon="-0.07763">
        <ele>80</ele>
        <time>2022-04-03T16:46:32Z</time>
      </trkpt>
      <trkpt lat="46.10909" lon="-0.07771">
        <ele>79.8</ele>
        <time>2022-04-03T16:46:33Z</time>
      </trkpt>
      <trkpt lat="46.10907" lon="-0.07779">
        <ele>79.8</ele>
        <time>2022-04-03T16:46:34Z</time>
      </trkpt>
      <trkpt lat="46.10905" lon="-0.07788">
        <ele>79.8</ele>
        <time>2022-04-03T16:46:35Z</time>
      </trkpt>
      <trkpt lat="46.10904" lon="-0.07796">
        <ele>79.6</ele>
        <time>2022-04-03T16:46:36Z</time>
      </trkpt>
      <trkpt lat="46.10902" lon="-0.07805">
        <ele>79.6</ele>
        <time>2022-04-03T16:46:37Z</time>
      </trkpt>
      <trkpt lat="46.10901" lon="-0.07813">
        <ele>79.4</ele>
        <time>2022-04-03T16:46:38Z</time>
      </trkpt>
      <trkpt lat="46.10899" lon="-0.07821">
        <ele>79.2</ele>
        <time>2022-04-03T16:46:39Z</time>
      </trkpt>
      <trkpt lat="46.10898" lon="-0.0783">
        <ele>79.2</ele>
        <time>2022-04-03T16:46:40Z</time>
      </trkpt>
      <trkpt lat="46.10896" lon="-0.07838">
        <ele>79</ele>
        <time>2022-04-03T16:46:41Z</time>
      </trkpt>
      <trkpt lat="46.10894" lon="-0.07847">
        <ele>78.6</ele>
        <time>2022-04-03T16:46:42Z</time>
      </trkpt>
      <trkpt lat="46.10892" lon="-0.07855">
        <ele>78.6</ele>
        <time>2022-04-03T16:46:43Z</time>
      </trkpt>
      <trkpt lat="46.1089" lon="-0.07863">
        <ele>78.2</ele>
        <time>2022-04-03T16:46:44Z</time>
      </trkpt>
      <trkpt lat="46.10889" lon="-0.07871">
        <ele>78.2</ele>
        <time>2022-04-03T16:46:45Z</time>
      </trkpt>
      <trkpt lat="46.10887" lon="-0.0788">
        <ele>77.8</ele>
        <time>2022-04-03T16:46:46Z</time>
      </trkpt>
      <trkpt lat="46.10885" lon="-0.07888">
        <ele>77.6</ele>
        <time>2022-04-03T16:46:47Z</time>
      </trkpt>
      <trkpt lat="46.10883" lon="-0.07896">
        <ele>77.4</ele>
        <time>2022-04-03T16:46:48Z</time>
      </trkpt>
      <trkpt lat="46.10881" lon="-0.07904">
        <ele>77.2</ele>
        <time>2022-04-03T16:46:49Z</time>
      </trkpt>
      <trkpt lat="46.10879" lon="-0.07912">
        <ele>77</ele>
        <time>2022-04-03T16:46:50Z</time>
      </trkpt>
      <trkpt lat="46.10877" lon="-0.0792">
        <ele>77</ele>
        <time>2022-04-03T16:46:51Z</time>
      </trkpt>
      <trkpt lat="46.10875" lon="-0.07928">
        <ele>76.8</ele>
        <time>2022-04-03T16:46:52Z</time>
      </trkpt>
      <trkpt lat="46.10874" lon="-0.07937">
        <ele>76.8</ele>
        <time>2022-04-03T16:46:53Z</time>
      </trkpt>
      <trkpt lat="46.10872" lon="-0.07945">
        <ele>76.8</ele>
        <time>2022-04-03T16:46:54Z</time>
      </trkpt>
      <trkpt lat="46.1087" lon="-0.07953">
        <ele>76.6</ele>
        <time>2022-04-03T16:46:55Z</time>
      </trkpt>
      <trkpt lat="46.10868" lon="-0.07961">
        <ele>76.4</ele>
        <time>2022-04-03T16:46:56Z</time>
      </trkpt>
      <trkpt lat="46.10866" lon="-0.0797">
        <ele>76.4</ele>
        <time>2022-04-03T16:46:57Z</time>
      </trkpt>
      <trkpt lat="46.10863" lon="-0.07978">
        <ele>76.2</ele>
        <time>2022-04-03T16:46:58Z</time>
      </trkpt>
      <trkpt lat="46.1086" lon="-0.07986">
        <ele>75.8</ele>
        <time>2022-04-03T16:46:59Z</time>
      </trkpt>
      <trkpt lat="46.10858" lon="-0.07995">
        <ele>75.6</ele>
        <time>2022-04-03T16:47:00Z</time>
      </trkpt>
      <trkpt lat="46.10856" lon="-0.08003">
        <ele>75.6</ele>
        <time>2022-04-03T16:47:01Z</time>
      </trkpt>
      <trkpt lat="46.10854" lon="-0.08011">
        <ele>75.2</ele>
        <time>2022-04-03T16:47:02Z</time>
      </trkpt>
      <trkpt lat="46.10851" lon="-0.08019">
        <ele>75.2</ele>
        <time>2022-04-03T16:47:03Z</time>
      </trkpt>
      <trkpt lat="46.10849" lon="-0.08027">
        <ele>75</ele>
        <time>2022-04-03T16:47:04Z</time>
      </trkpt>
      <trkpt lat="46.10846" lon="-0.08035">
        <ele>75</ele>
        <time>2022-04-03T16:47:05Z</time>
      </trkpt>
      <trkpt lat="46.10843" lon="-0.08044">
        <ele>74.8</ele>
        <time>2022-04-03T16:47:06Z</time>
      </trkpt>
      <trkpt lat="46.10841" lon="-0.08052">
        <ele>75</ele>
        <time>2022-04-03T16:47:07Z</time>
      </trkpt>
      <trkpt lat="46.10839" lon="-0.0806">
        <ele>74.8</ele>
        <time>2022-04-03T16:47:08Z</time>
      </trkpt>
      <trkpt lat="46.10837" lon="-0.08068">
        <ele>74.6</ele>
        <time>2022-04-03T16:47:09Z</time>
      </trkpt>
      <trkpt lat="46.10835" lon="-0.08076">
        <ele>74.4</ele>
        <time>2022-04-03T16:47:10Z</time>
      </trkpt>
      <trkpt lat="46.10833" lon="-0.08084">
        <ele>74.4</ele>
        <time>2022-04-03T16:47:11Z</time>
      </trkpt>
      <trkpt lat="46.10832" lon="-0.08092">
        <ele>74.2</ele>
        <time>2022-04-03T16:47:12Z</time>
      </trkpt>
      <trkpt lat="46.1083" lon="-0.08099">
        <ele>74.2</ele>
        <time>2022-04-03T16:47:13Z</time>
      </trkpt>
      <trkpt lat="46.10828" lon="-0.08107">
        <ele>73.8</ele>
        <time>2022-04-03T16:47:14Z</time>
      </trkpt>
      <trkpt lat="46.10826" lon="-0.08115">
        <ele>73.8</ele>
        <time>2022-04-03T16:47:15Z</time>
      </trkpt>
      <trkpt lat="46.10824" lon="-0.08123">
        <ele>73.8</ele>
        <time>2022-04-03T16:47:16Z</time>
      </trkpt>
      <trkpt lat="46.10823" lon="-0.08131">
        <ele>73.8</ele>
        <time>2022-04-03T16:47:17Z</time>
      </trkpt>
      <trkpt lat="46.10823" lon="-0.08139">
        <ele>73.8</ele>
        <time>2022-04-03T16:47:18Z</time>
      </trkpt>
      <trkpt lat="46.10823" lon="-0.08148">
        <ele>73.8</ele>
        <time>2022-04-03T16:47:19Z</time>
      </trkpt>
      <trkpt lat="46.10823" lon="-0.08156">
        <ele>73.8</ele>
        <time>2022-04-03T16:47:20Z</time>
      </trkpt>
      <trkpt lat="46.10823" lon="-0.08165">
        <ele>73.6</ele>
        <time>2022-04-03T16:47:21Z</time>
      </trkpt>
      <trkpt lat="46.10825" lon="-0.08174">
        <ele>73.6</ele>
        <time>2022-04-03T16:47:22Z</time>
      </trkpt>
      <trkpt lat="46.10826" lon="-0.08183">
        <ele>73.6</ele>
        <time>2022-04-03T16:47:23Z</time>
      </trkpt>
      <trkpt lat="46.10828" lon="-0.08192">
        <ele>73.4</ele>
        <time>2022-04-03T16:47:24Z</time>
      </trkpt>
      <trkpt lat="46.10829" lon="-0.08201">
        <ele>73.4</ele>
        <time>2022-04-03T16:47:25Z</time>
      </trkpt>
      <trkpt lat="46.1083" lon="-0.0821">
        <ele>73.4</ele>
        <time>2022-04-03T16:47:26Z</time>
      </trkpt>
      <trkpt lat="46.10831" lon="-0.08218">
        <ele>73.4</ele>
        <time>2022-04-03T16:47:27Z</time>
      </trkpt>
      <trkpt lat="46.10834" lon="-0.08226">
        <ele>73</ele>
        <time>2022-04-03T16:47:28Z</time>
      </trkpt>
      <trkpt lat="46.10837" lon="-0.08234">
        <ele>72.6</ele>
        <time>2022-04-03T16:47:29Z</time>
      </trkpt>
      <trkpt lat="46.10839" lon="-0.08242">
        <ele>72</ele>
        <time>2022-04-03T16:47:30Z</time>
      </trkpt>
      <trkpt lat="46.10843" lon="-0.0825">
        <ele>71.8</ele>
        <time>2022-04-03T16:47:31Z</time>
      </trkpt>
      <trkpt lat="46.10846" lon="-0.08258">
        <ele>71.4</ele>
        <time>2022-04-03T16:47:32Z</time>
      </trkpt>
      <trkpt lat="46.10849" lon="-0.08265">
        <ele>70.8</ele>
        <time>2022-04-03T16:47:33Z</time>
      </trkpt>
      <trkpt lat="46.10852" lon="-0.08273">
        <ele>70.6</ele>
        <time>2022-04-03T16:47:34Z</time>
      </trkpt>
      <trkpt lat="46.10856" lon="-0.0828">
        <ele>70.4</ele>
        <time>2022-04-03T16:47:35Z</time>
      </trkpt>
      <trkpt lat="46.10859" lon="-0.08287">
        <ele>70.2</ele>
        <time>2022-04-03T16:47:36Z</time>
      </trkpt>
      <trkpt lat="46.10862" lon="-0.08294">
        <ele>70</ele>
        <time>2022-04-03T16:47:37Z</time>
      </trkpt>
      <trkpt lat="46.10865" lon="-0.08301">
        <ele>69.8</ele>
        <time>2022-04-03T16:47:38Z</time>
      </trkpt>
      <trkpt lat="46.10869" lon="-0.08309">
        <ele>69.8</ele>
        <time>2022-04-03T16:47:39Z</time>
      </trkpt>
      <trkpt lat="46.10871" lon="-0.08316">
        <ele>69.6</ele>
        <time>2022-04-03T16:47:40Z</time>
      </trkpt>
      <trkpt lat="46.10874" lon="-0.08323">
        <ele>69.2</ele>
        <time>2022-04-03T16:47:41Z</time>
      </trkpt>
      <trkpt lat="46.10877" lon="-0.08331">
        <ele>69.2</ele>
        <time>2022-04-03T16:47:42Z</time>
      </trkpt>
      <trkpt lat="46.1088" lon="-0.08338">
        <ele>69.2</ele>
        <time>2022-04-03T16:47:43Z</time>
      </trkpt>
      <trkpt lat="46.10883" lon="-0.08345">
        <ele>69</ele>
        <time>2022-04-03T16:47:44Z</time>
      </trkpt>
      <trkpt lat="46.10885" lon="-0.08352">
        <ele>69</ele>
        <time>2022-04-03T16:47:45Z</time>
      </trkpt>
      <trkpt lat="46.10887" lon="-0.08359">
        <ele>68.8</ele>
        <time>2022-04-03T16:47:46Z</time>
      </trkpt>
      <trkpt lat="46.10889" lon="-0.08366">
        <ele>68.8</ele>
        <time>2022-04-03T16:47:47Z</time>
      </trkpt>
      <trkpt lat="46.1089" lon="-0.08372">
        <ele>68.8</ele>
        <time>2022-04-03T16:47:48Z</time>
      </trkpt>
      <trkpt lat="46.10892" lon="-0.08378">
        <ele>68.6</ele>
        <time>2022-04-03T16:47:49Z</time>
      </trkpt>
      <trkpt lat="46.10894" lon="-0.08384">
        <ele>68.8</ele>
        <time>2022-04-03T16:47:50Z</time>
      </trkpt>
      <trkpt lat="46.10896" lon="-0.0839">
        <ele>68.8</ele>
        <time>2022-04-03T16:47:51Z</time>
      </trkpt>
      <trkpt lat="46.10897" lon="-0.08395">
        <ele>68.6</ele>
        <time>2022-04-03T16:47:52Z</time>
      </trkpt>
      <trkpt lat="46.10899" lon="-0.08401">
        <ele>68.6</ele>
        <time>2022-04-03T16:47:53Z</time>
      </trkpt>
      <trkpt lat="46.109" lon="-0.08407">
        <ele>68.8</ele>
        <time>2022-04-03T16:47:54Z</time>
      </trkpt>
      <trkpt lat="46.10902" lon="-0.08413">
        <ele>68.6</ele>
        <time>2022-04-03T16:47:55Z</time>
      </trkpt>
      <trkpt lat="46.10904" lon="-0.08419">
        <ele>68.6</ele>
        <time>2022-04-03T16:47:56Z</time>
      </trkpt>
      <trkpt lat="46.10906" lon="-0.08425">
        <ele>68.8</ele>
        <time>2022-04-03T16:47:57Z</time>
      </trkpt>
      <trkpt lat="46.10908" lon="-0.08431">
        <ele>68.8</ele>
        <time>2022-04-03T16:47:58Z</time>
      </trkpt>
      <trkpt lat="46.1091" lon="-0.08436">
        <ele>68.8</ele>
        <time>2022-04-03T16:47:59Z</time>
      </trkpt>
      <trkpt lat="46.10912" lon="-0.08442">
        <ele>68.8</ele>
        <time>2022-04-03T16:48:00Z</time>
      </trkpt>
      <trkpt lat="46.10914" lon="-0.08448">
        <ele>68.8</ele>
        <time>2022-04-03T16:48:01Z</time>
      </trkpt>
      <trkpt lat="46.10916" lon="-0.08453">
        <ele>68.8</ele>
        <time>2022-04-03T16:48:02Z</time>
      </trkpt>
      <trkpt lat="46.10918" lon="-0.08459">
        <ele>68.8</ele>
        <time>2022-04-03T16:48:03Z</time>
      </trkpt>
      <trkpt lat="46.1092" lon="-0.08464">
        <ele>68.8</ele>
        <time>2022-04-03T16:48:04Z</time>
      </trkpt>
      <trkpt lat="46.10922" lon="-0.0847">
        <ele>68.8</ele>
        <time>2022-04-03T16:48:05Z</time>
      </trkpt>
      <trkpt lat="46.10923" lon="-0.08476">
        <ele>69</ele>
        <time>2022-04-03T16:48:06Z</time>
      </trkpt>
      <trkpt lat="46.10925" lon="-0.08481">
        <ele>69</ele>
        <time>2022-04-03T16:48:07Z</time>
      </trkpt>
      <trkpt lat="46.10927" lon="-0.08487">
        <ele>69</ele>
        <time>2022-04-03T16:48:08Z</time>
      </trkpt>
      <trkpt lat="46.10928" lon="-0.08492">
        <ele>69</ele>
        <time>2022-04-03T16:48:09Z</time>
      </trkpt>
      <trkpt lat="46.1093" lon="-0.08498">
        <ele>69</ele>
        <time>2022-04-03T16:48:10Z</time>
      </trkpt>
      <trkpt lat="46.10932" lon="-0.08503">
        <ele>69.2</ele>
        <time>2022-04-03T16:48:11Z</time>
      </trkpt>
      <trkpt lat="46.10934" lon="-0.08509">
        <ele>69.4</ele>
        <time>2022-04-03T16:48:12Z</time>
      </trkpt>
      <trkpt lat="46.10936" lon="-0.08515">
        <ele>69.4</ele>
        <time>2022-04-03T16:48:13Z</time>
      </trkpt>
      <trkpt lat="46.10938" lon="-0.08521">
        <ele>69.4</ele>
        <time>2022-04-03T16:48:14Z</time>
      </trkpt>
      <trkpt lat="46.1094" lon="-0.08526">
        <ele>69.6</ele>
        <time>2022-04-03T16:48:15Z</time>
      </trkpt>
      <trkpt lat="46.10941" lon="-0.08532">
        <ele>69.8</ele>
        <time>2022-04-03T16:48:16Z</time>
      </trkpt>
      <trkpt lat="46.10943" lon="-0.08538">
        <ele>69.8</ele>
        <time>2022-04-03T16:48:17Z</time>
      </trkpt>
      <trkpt lat="46.10945" lon="-0.08543">
        <ele>69.8</ele>
        <time>2022-04-03T16:48:18Z</time>
      </trkpt>
      <trkpt lat="46.10947" lon="-0.08549">
        <ele>70</ele>
        <time>2022-04-03T16:48:19Z</time>
      </trkpt>
      <trkpt lat="46.10949" lon="-0.08555">
        <ele>70</ele>
        <time>2022-04-03T16:48:20Z</time>
      </trkpt>
      <trkpt lat="46.10951" lon="-0.0856">
        <ele>70</ele>
        <time>2022-04-03T16:48:21Z</time>
      </trkpt>
      <trkpt lat="46.10952" lon="-0.08566">
        <ele>70</ele>
        <time>2022-04-03T16:48:22Z</time>
      </trkpt>
      <trkpt lat="46.10954" lon="-0.08572">
        <ele>70</ele>
        <time>2022-04-03T16:48:23Z</time>
      </trkpt>
      <trkpt lat="46.10956" lon="-0.08577">
        <ele>70.2</ele>
        <time>2022-04-03T16:48:24Z</time>
      </trkpt>
      <trkpt lat="46.10957" lon="-0.08583">
        <ele>70</ele>
        <time>2022-04-03T16:48:25Z</time>
      </trkpt>
      <trkpt lat="46.10959" lon="-0.08589">
        <ele>70</ele>
        <time>2022-04-03T16:48:26Z</time>
      </trkpt>
      <trkpt lat="46.10961" lon="-0.08595">
        <ele>70.4</ele>
        <time>2022-04-03T16:48:27Z</time>
      </trkpt>
      <trkpt lat="46.10963" lon="-0.08601">
        <ele>70.4</ele>
        <time>2022-04-03T16:48:28Z</time>
      </trkpt>
      <trkpt lat="46.10964" lon="-0.08607">
        <ele>70.2</ele>
        <time>2022-04-03T16:48:29Z</time>
      </trkpt>
      <trkpt lat="46.10966" lon="-0.08614">
        <ele>70.4</ele>
        <time>2022-04-03T16:48:30Z</time>
      </trkpt>
      <trkpt lat="46.10967" lon="-0.0862">
        <ele>70.2</ele>
        <time>2022-04-03T16:48:31Z</time>
      </trkpt>
      <trkpt lat="46.10969" lon="-0.08626">
        <ele>70.2</ele>
        <time>2022-04-03T16:48:32Z</time>
      </trkpt>
      <trkpt lat="46.10971" lon="-0.08633">
        <ele>70.4</ele>
        <time>2022-04-03T16:48:33Z</time>
      </trkpt>
      <trkpt lat="46.10972" lon="-0.0864">
        <ele>70.2</ele>
        <time>2022-04-03T16:48:34Z</time>
      </trkpt>
      <trkpt lat="46.10974" lon="-0.08647">
        <ele>70.2</ele>
        <time>2022-04-03T16:48:35Z</time>
      </trkpt>
      <trkpt lat="46.10976" lon="-0.08654">
        <ele>70.2</ele>
        <time>2022-04-03T16:48:36Z</time>
      </trkpt>
      <trkpt lat="46.10977" lon="-0.08662">
        <ele>70.2</ele>
        <time>2022-04-03T16:48:37Z</time>
      </trkpt>
      <trkpt lat="46.10978" lon="-0.08669">
        <ele>70.2</ele>
        <time>2022-04-03T16:48:38Z</time>
      </trkpt>
      <trkpt lat="46.10979" lon="-0.08677">
        <ele>70.2</ele>
        <time>2022-04-03T16:48:39Z</time>
      </trkpt>
      <trkpt lat="46.1098" lon="-0.08684">
        <ele>70</ele>
        <time>2022-04-03T16:48:40Z</time>
      </trkpt>
      <trkpt lat="46.10981" lon="-0.08691">
        <ele>70.2</ele>
        <time>2022-04-03T16:48:41Z</time>
      </trkpt>
      <trkpt lat="46.10982" lon="-0.08698">
        <ele>70.2</ele>
        <time>2022-04-03T16:48:42Z</time>
      </trkpt>
      <trkpt lat="46.10982" lon="-0.08706">
        <ele>70</ele>
        <time>2022-04-03T16:48:43Z</time>
      </trkpt>
      <trkpt lat="46.10983" lon="-0.08713">
        <ele>70</ele>
        <time>2022-04-03T16:48:44Z</time>
      </trkpt>
      <trkpt lat="46.10983" lon="-0.08721">
        <ele>69.8</ele>
        <time>2022-04-03T16:48:45Z</time>
      </trkpt>
      <trkpt lat="46.10984" lon="-0.08728">
        <ele>69.8</ele>
        <time>2022-04-03T16:48:46Z</time>
      </trkpt>
      <trkpt lat="46.10985" lon="-0.08743">
        <ele>69.6</ele>
        <time>2022-04-03T16:48:48Z</time>
      </trkpt>
      <trkpt lat="46.10985" lon="-0.0875">
        <ele>69.6</ele>
        <time>2022-04-03T16:48:49Z</time>
      </trkpt>
      <trkpt lat="46.10986" lon="-0.08758">
        <ele>69.6</ele>
        <time>2022-04-03T16:48:50Z</time>
      </trkpt>
      <trkpt lat="46.10986" lon="-0.08766">
        <ele>69.6</ele>
        <time>2022-04-03T16:48:51Z</time>
      </trkpt>
      <trkpt lat="46.10987" lon="-0.08774">
        <ele>69.6</ele>
        <time>2022-04-03T16:48:52Z</time>
      </trkpt>
      <trkpt lat="46.10988" lon="-0.0879">
        <ele>69.4</ele>
        <time>2022-04-03T16:48:54Z</time>
      </trkpt>
      <trkpt lat="46.10988" lon="-0.08798">
        <ele>69.4</ele>
        <time>2022-04-03T16:48:55Z</time>
      </trkpt>
      <trkpt lat="46.10989" lon="-0.08814">
        <ele>69.4</ele>
        <time>2022-04-03T16:48:57Z</time>
      </trkpt>
      <trkpt lat="46.10989" lon="-0.08822">
        <ele>69.2</ele>
        <time>2022-04-03T16:48:58Z</time>
      </trkpt>
      <trkpt lat="46.10989" lon="-0.08831">
        <ele>69.4</ele>
        <time>2022-04-03T16:48:59Z</time>
      </trkpt>
      <trkpt lat="46.10989" lon="-0.08839">
        <ele>69.2</ele>
        <time>2022-04-03T16:49:00Z</time>
      </trkpt>
      <trkpt lat="46.10989" lon="-0.08848">
        <ele>69.2</ele>
        <time>2022-04-03T16:49:01Z</time>
      </trkpt>
      <trkpt lat="46.10989" lon="-0.08856">
        <ele>69.2</ele>
        <time>2022-04-03T16:49:02Z</time>
      </trkpt>
      <trkpt lat="46.10989" lon="-0.08864">
        <ele>69</ele>
        <time>2022-04-03T16:49:03Z</time>
      </trkpt>
      <trkpt lat="46.10989" lon="-0.08873">
        <ele>69</ele>
        <time>2022-04-03T16:49:04Z</time>
      </trkpt>
      <trkpt lat="46.10989" lon="-0.08881">
        <ele>69</ele>
        <time>2022-04-03T16:49:05Z</time>
      </trkpt>
      <trkpt lat="46.10989" lon="-0.0889">
        <ele>69</ele>
        <time>2022-04-03T16:49:06Z</time>
      </trkpt>
      <trkpt lat="46.10989" lon="-0.08899">
        <ele>68.6</ele>
        <time>2022-04-03T16:49:07Z</time>
      </trkpt>
      <trkpt lat="46.10988" lon="-0.08907">
        <ele>68.6</ele>
        <time>2022-04-03T16:49:08Z</time>
      </trkpt>
      <trkpt lat="46.10988" lon="-0.08916">
        <ele>68.6</ele>
        <time>2022-04-03T16:49:09Z</time>
      </trkpt>
      <trkpt lat="46.10988" lon="-0.08925">
        <ele>68.6</ele>
        <time>2022-04-03T16:49:10Z</time>
      </trkpt>
      <trkpt lat="46.10988" lon="-0.08934">
        <ele>68.4</ele>
        <time>2022-04-03T16:49:11Z</time>
      </trkpt>
      <trkpt lat="46.10988" lon="-0.08943">
        <ele>68.4</ele>
        <time>2022-04-03T16:49:12Z</time>
      </trkpt>
      <trkpt lat="46.10987" lon="-0.08952">
        <ele>68.2</ele>
        <time>2022-04-03T16:49:13Z</time>
      </trkpt>
      <trkpt lat="46.10987" lon="-0.08961">
        <ele>68.2</ele>
        <time>2022-04-03T16:49:14Z</time>
      </trkpt>
      <trkpt lat="46.10986" lon="-0.0897">
        <ele>68.2</ele>
        <time>2022-04-03T16:49:15Z</time>
      </trkpt>
      <trkpt lat="46.10986" lon="-0.08978">
        <ele>68.2</ele>
        <time>2022-04-03T16:49:16Z</time>
      </trkpt>
      <trkpt lat="46.10985" lon="-0.08987">
        <ele>68.2</ele>
        <time>2022-04-03T16:49:17Z</time>
      </trkpt>
      <trkpt lat="46.10985" lon="-0.08995">
        <ele>68.2</ele>
        <time>2022-04-03T16:49:18Z</time>
      </trkpt>
      <trkpt lat="46.10984" lon="-0.09003">
        <ele>68</ele>
        <time>2022-04-03T16:49:19Z</time>
      </trkpt>
      <trkpt lat="46.10983" lon="-0.09011">
        <ele>68</ele>
        <time>2022-04-03T16:49:20Z</time>
      </trkpt>
      <trkpt lat="46.10983" lon="-0.09019">
        <ele>68</ele>
        <time>2022-04-03T16:49:21Z</time>
      </trkpt>
      <trkpt lat="46.10982" lon="-0.09027">
        <ele>68</ele>
        <time>2022-04-03T16:49:22Z</time>
      </trkpt>
      <trkpt lat="46.10981" lon="-0.09035">
        <ele>68.2</ele>
        <time>2022-04-03T16:49:23Z</time>
      </trkpt>
      <trkpt lat="46.10981" lon="-0.09043">
        <ele>68</ele>
        <time>2022-04-03T16:49:24Z</time>
      </trkpt>
      <trkpt lat="46.1098" lon="-0.0905">
        <ele>68</ele>
        <time>2022-04-03T16:49:25Z</time>
      </trkpt>
      <trkpt lat="46.10979" lon="-0.09058">
        <ele>68.2</ele>
        <time>2022-04-03T16:49:26Z</time>
      </trkpt>
      <trkpt lat="46.10979" lon="-0.09066">
        <ele>68</ele>
        <time>2022-04-03T16:49:27Z</time>
      </trkpt>
      <trkpt lat="46.10978" lon="-0.09074">
        <ele>68</ele>
        <time>2022-04-03T16:49:28Z</time>
      </trkpt>
      <trkpt lat="46.10977" lon="-0.09081">
        <ele>68.2</ele>
        <time>2022-04-03T16:49:29Z</time>
      </trkpt>
      <trkpt lat="46.10976" lon="-0.09089">
        <ele>68.4</ele>
        <time>2022-04-03T16:49:30Z</time>
      </trkpt>
      <trkpt lat="46.10975" lon="-0.09097">
        <ele>68.4</ele>
        <time>2022-04-03T16:49:31Z</time>
      </trkpt>
      <trkpt lat="46.10974" lon="-0.09104">
        <ele>68.4</ele>
        <time>2022-04-03T16:49:32Z</time>
      </trkpt>
      <trkpt lat="46.10972" lon="-0.09112">
        <ele>68.4</ele>
        <time>2022-04-03T16:49:33Z</time>
      </trkpt>
      <trkpt lat="46.10971" lon="-0.09119">
        <ele>68.8</ele>
        <time>2022-04-03T16:49:34Z</time>
      </trkpt>
      <trkpt lat="46.10969" lon="-0.09127">
        <ele>69</ele>
        <time>2022-04-03T16:49:35Z</time>
      </trkpt>
      <trkpt lat="46.10968" lon="-0.09134">
        <ele>69</ele>
        <time>2022-04-03T16:49:36Z</time>
      </trkpt>
      <trkpt lat="46.10966" lon="-0.09142">
        <ele>69.2</ele>
        <time>2022-04-03T16:49:37Z</time>
      </trkpt>
      <trkpt lat="46.10965" lon="-0.0915">
        <ele>69.2</ele>
        <time>2022-04-03T16:49:38Z</time>
      </trkpt>
      <trkpt lat="46.10963" lon="-0.09159">
        <ele>69.2</ele>
        <time>2022-04-03T16:49:39Z</time>
      </trkpt>
      <trkpt lat="46.10962" lon="-0.09167">
        <ele>69.2</ele>
        <time>2022-04-03T16:49:40Z</time>
      </trkpt>
      <trkpt lat="46.1096" lon="-0.09176">
        <ele>69.2</ele>
        <time>2022-04-03T16:49:41Z</time>
      </trkpt>
      <trkpt lat="46.10958" lon="-0.09184">
        <ele>69.2</ele>
        <time>2022-04-03T16:49:42Z</time>
      </trkpt>
      <trkpt lat="46.10956" lon="-0.09192">
        <ele>69.2</ele>
        <time>2022-04-03T16:49:43Z</time>
      </trkpt>
      <trkpt lat="46.10955" lon="-0.09201">
        <ele>69.2</ele>
        <time>2022-04-03T16:49:44Z</time>
      </trkpt>
      <trkpt lat="46.10953" lon="-0.0921">
        <ele>69.2</ele>
        <time>2022-04-03T16:49:45Z</time>
      </trkpt>
      <trkpt lat="46.10951" lon="-0.09219">
        <ele>69</ele>
        <time>2022-04-03T16:49:46Z</time>
      </trkpt>
      <trkpt lat="46.10949" lon="-0.09227">
        <ele>69.2</ele>
        <time>2022-04-03T16:49:47Z</time>
      </trkpt>
      <trkpt lat="46.10948" lon="-0.09237">
        <ele>69.2</ele>
        <time>2022-04-03T16:49:48Z</time>
      </trkpt>
      <trkpt lat="46.10946" lon="-0.09246">
        <ele>68.8</ele>
        <time>2022-04-03T16:49:49Z</time>
      </trkpt>
      <trkpt lat="46.10944" lon="-0.09255">
        <ele>68.6</ele>
        <time>2022-04-03T16:49:50Z</time>
      </trkpt>
      <trkpt lat="46.10942" lon="-0.09265">
        <ele>68.4</ele>
        <time>2022-04-03T16:49:51Z</time>
      </trkpt>
      <trkpt lat="46.1094" lon="-0.09274">
        <ele>68.4</ele>
        <time>2022-04-03T16:49:52Z</time>
      </trkpt>
      <trkpt lat="46.10938" lon="-0.09284">
        <ele>68.2</ele>
        <time>2022-04-03T16:49:53Z</time>
      </trkpt>
      <trkpt lat="46.10936" lon="-0.09293">
        <ele>68</ele>
        <time>2022-04-03T16:49:54Z</time>
      </trkpt>
      <trkpt lat="46.10935" lon="-0.09303">
        <ele>68</ele>
        <time>2022-04-03T16:49:55Z</time>
      </trkpt>
      <trkpt lat="46.10933" lon="-0.09312">
        <ele>67.6</ele>
        <time>2022-04-03T16:49:56Z</time>
      </trkpt>
      <trkpt lat="46.10932" lon="-0.09322">
        <ele>67.6</ele>
        <time>2022-04-03T16:49:57Z</time>
      </trkpt>
      <trkpt lat="46.1093" lon="-0.09331">
        <ele>67.4</ele>
        <time>2022-04-03T16:49:58Z</time>
      </trkpt>
      <trkpt lat="46.10929" lon="-0.0934">
        <ele>67.2</ele>
        <time>2022-04-03T16:49:59Z</time>
      </trkpt>
      <trkpt lat="46.10929" lon="-0.09349">
        <ele>67.2</ele>
        <time>2022-04-03T16:50:00Z</time>
      </trkpt>
      <trkpt lat="46.10928" lon="-0.09358">
        <ele>67</ele>
        <time>2022-04-03T16:50:01Z</time>
      </trkpt>
      <trkpt lat="46.10928" lon="-0.09366">
        <ele>67</ele>
        <time>2022-04-03T16:50:02Z</time>
      </trkpt>
      <trkpt lat="46.10927" lon="-0.09375">
        <ele>67</ele>
        <time>2022-04-03T16:50:03Z</time>
      </trkpt>
      <trkpt lat="46.10927" lon="-0.09383">
        <ele>67</ele>
        <time>2022-04-03T16:50:04Z</time>
      </trkpt>
      <trkpt lat="46.10927" lon="-0.09392">
        <ele>66.8</ele>
        <time>2022-04-03T16:50:05Z</time>
      </trkpt>
      <trkpt lat="46.10927" lon="-0.09401">
        <ele>66.8</ele>
        <time>2022-04-03T16:50:06Z</time>
      </trkpt>
      <trkpt lat="46.10927" lon="-0.09409">
        <ele>67</ele>
        <time>2022-04-03T16:50:07Z</time>
      </trkpt>
      <trkpt lat="46.10927" lon="-0.09418">
        <ele>66.8</ele>
        <time>2022-04-03T16:50:08Z</time>
      </trkpt>
      <trkpt lat="46.10927" lon="-0.09427">
        <ele>66.8</ele>
        <time>2022-04-03T16:50:09Z</time>
      </trkpt>
      <trkpt lat="46.10927" lon="-0.09435">
        <ele>66.8</ele>
        <time>2022-04-03T16:50:10Z</time>
      </trkpt>
      <trkpt lat="46.10928" lon="-0.09444">
        <ele>66.8</ele>
        <time>2022-04-03T16:50:11Z</time>
      </trkpt>
      <trkpt lat="46.10928" lon="-0.09452">
        <ele>67</ele>
        <time>2022-04-03T16:50:12Z</time>
      </trkpt>
      <trkpt lat="46.10929" lon="-0.09461">
        <ele>67</ele>
        <time>2022-04-03T16:50:13Z</time>
      </trkpt>
      <trkpt lat="46.10929" lon="-0.0947">
        <ele>67</ele>
        <time>2022-04-03T16:50:14Z</time>
      </trkpt>
      <trkpt lat="46.10929" lon="-0.09479">
        <ele>67</ele>
        <time>2022-04-03T16:50:15Z</time>
      </trkpt>
      <trkpt lat="46.10929" lon="-0.09487">
        <ele>66.8</ele>
        <time>2022-04-03T16:50:16Z</time>
      </trkpt>
      <trkpt lat="46.1093" lon="-0.09496">
        <ele>67</ele>
        <time>2022-04-03T16:50:17Z</time>
      </trkpt>
      <trkpt lat="46.1093" lon="-0.09505">
        <ele>67</ele>
        <time>2022-04-03T16:50:18Z</time>
      </trkpt>
      <trkpt lat="46.10931" lon="-0.09514">
        <ele>67</ele>
        <time>2022-04-03T16:50:19Z</time>
      </trkpt>
      <trkpt lat="46.10931" lon="-0.09523">
        <ele>67</ele>
        <time>2022-04-03T16:50:20Z</time>
      </trkpt>
      <trkpt lat="46.10932" lon="-0.09532">
        <ele>66.8</ele>
        <time>2022-04-03T16:50:21Z</time>
      </trkpt>
      <trkpt lat="46.10932" lon="-0.09541">
        <ele>67</ele>
        <time>2022-04-03T16:50:22Z</time>
      </trkpt>
      <trkpt lat="46.10932" lon="-0.09549">
        <ele>66.8</ele>
        <time>2022-04-03T16:50:23Z</time>
      </trkpt>
      <trkpt lat="46.10933" lon="-0.09558">
        <ele>67</ele>
        <time>2022-04-03T16:50:24Z</time>
      </trkpt>
      <trkpt lat="46.10933" lon="-0.09567">
        <ele>67</ele>
        <time>2022-04-03T16:50:25Z</time>
      </trkpt>
      <trkpt lat="46.10933" lon="-0.09577">
        <ele>67</ele>
        <time>2022-04-03T16:50:26Z</time>
      </trkpt>
      <trkpt lat="46.10934" lon="-0.09586">
        <ele>66.8</ele>
        <time>2022-04-03T16:50:27Z</time>
      </trkpt>
      <trkpt lat="46.10934" lon="-0.09595">
        <ele>66.8</ele>
        <time>2022-04-03T16:50:28Z</time>
      </trkpt>
      <trkpt lat="46.10935" lon="-0.09604">
        <ele>67</ele>
        <time>2022-04-03T16:50:29Z</time>
      </trkpt>
      <trkpt lat="46.10935" lon="-0.09613">
        <ele>67</ele>
        <time>2022-04-03T16:50:30Z</time>
      </trkpt>
      <trkpt lat="46.10936" lon="-0.09622">
        <ele>66.8</ele>
        <time>2022-04-03T16:50:31Z</time>
      </trkpt>
      <trkpt lat="46.10936" lon="-0.09631">
        <ele>66.8</ele>
        <time>2022-04-03T16:50:32Z</time>
      </trkpt>
      <trkpt lat="46.10937" lon="-0.0964">
        <ele>66.8</ele>
        <time>2022-04-03T16:50:33Z</time>
      </trkpt>
      <trkpt lat="46.10937" lon="-0.09648">
        <ele>66.8</ele>
        <time>2022-04-03T16:50:34Z</time>
      </trkpt>
      <trkpt lat="46.10937" lon="-0.09657">
        <ele>66.8</ele>
        <time>2022-04-03T16:50:35Z</time>
      </trkpt>
      <trkpt lat="46.10937" lon="-0.09666">
        <ele>66.8</ele>
        <time>2022-04-03T16:50:36Z</time>
      </trkpt>
      <trkpt lat="46.10937" lon="-0.09674">
        <ele>66.8</ele>
        <time>2022-04-03T16:50:37Z</time>
      </trkpt>
      <trkpt lat="46.10938" lon="-0.09683">
        <ele>66.8</ele>
        <time>2022-04-03T16:50:38Z</time>
      </trkpt>
      <trkpt lat="46.10938" lon="-0.09692">
        <ele>66.8</ele>
        <time>2022-04-03T16:50:39Z</time>
      </trkpt>
      <trkpt lat="46.10938" lon="-0.09701">
        <ele>66.8</ele>
        <time>2022-04-03T16:50:40Z</time>
      </trkpt>
      <trkpt lat="46.10938" lon="-0.09709">
        <ele>66.8</ele>
        <time>2022-04-03T16:50:41Z</time>
      </trkpt>
      <trkpt lat="46.10939" lon="-0.09718">
        <ele>66.8</ele>
        <time>2022-04-03T16:50:42Z</time>
      </trkpt>
      <trkpt lat="46.10939" lon="-0.09727">
        <ele>66.8</ele>
        <time>2022-04-03T16:50:43Z</time>
      </trkpt>
      <trkpt lat="46.10939" lon="-0.09736">
        <ele>66.8</ele>
        <time>2022-04-03T16:50:44Z</time>
      </trkpt>
      <trkpt lat="46.10938" lon="-0.09744">
        <ele>66.8</ele>
        <time>2022-04-03T16:50:45Z</time>
      </trkpt>
      <trkpt lat="46.10938" lon="-0.09753">
        <ele>67</ele>
        <time>2022-04-03T16:50:46Z</time>
      </trkpt>
      <trkpt lat="46.10938" lon="-0.09761">
        <ele>67</ele>
        <time>2022-04-03T16:50:47Z</time>
      </trkpt>
      <trkpt lat="46.10938" lon="-0.0977">
        <ele>67</ele>
        <time>2022-04-03T16:50:48Z</time>
      </trkpt>
      <trkpt lat="46.10937" lon="-0.09778">
        <ele>67</ele>
        <time>2022-04-03T16:50:49Z</time>
      </trkpt>
      <trkpt lat="46.10937" lon="-0.09786">
        <ele>67</ele>
        <time>2022-04-03T16:50:50Z</time>
      </trkpt>
      <trkpt lat="46.10936" lon="-0.09794">
        <ele>67</ele>
        <time>2022-04-03T16:50:51Z</time>
      </trkpt>
      <trkpt lat="46.10935" lon="-0.09803">
        <ele>67.2</ele>
        <time>2022-04-03T16:50:52Z</time>
      </trkpt>
      <trkpt lat="46.10934" lon="-0.09811">
        <ele>67</ele>
        <time>2022-04-03T16:50:53Z</time>
      </trkpt>
      <trkpt lat="46.10933" lon="-0.09819">
        <ele>67.2</ele>
        <time>2022-04-03T16:50:54Z</time>
      </trkpt>
      <trkpt lat="46.10932" lon="-0.09827">
        <ele>67.2</ele>
        <time>2022-04-03T16:50:55Z</time>
      </trkpt>
      <trkpt lat="46.10932" lon="-0.09835">
        <ele>67.2</ele>
        <time>2022-04-03T16:50:56Z</time>
      </trkpt>
      <trkpt lat="46.10931" lon="-0.09843">
        <ele>67.4</ele>
        <time>2022-04-03T16:50:57Z</time>
      </trkpt>
      <trkpt lat="46.1093" lon="-0.09851">
        <ele>67.2</ele>
        <time>2022-04-03T16:50:58Z</time>
      </trkpt>
      <trkpt lat="46.10929" lon="-0.09859">
        <ele>67.4</ele>
        <time>2022-04-03T16:50:59Z</time>
      </trkpt>
      <trkpt lat="46.10928" lon="-0.09867">
        <ele>67.8</ele>
        <time>2022-04-03T16:51:00Z</time>
      </trkpt>
      <trkpt lat="46.10927" lon="-0.09875">
        <ele>67.8</ele>
        <time>2022-04-03T16:51:01Z</time>
      </trkpt>
      <trkpt lat="46.10926" lon="-0.09882">
        <ele>67.8</ele>
        <time>2022-04-03T16:51:02Z</time>
      </trkpt>
      <trkpt lat="46.10925" lon="-0.0989">
        <ele>68</ele>
        <time>2022-04-03T16:51:03Z</time>
      </trkpt>
      <trkpt lat="46.10923" lon="-0.09898">
        <ele>68.2</ele>
        <time>2022-04-03T16:51:04Z</time>
      </trkpt>
      <trkpt lat="46.10922" lon="-0.09906">
        <ele>68.4</ele>
        <time>2022-04-03T16:51:05Z</time>
      </trkpt>
      <trkpt lat="46.10921" lon="-0.09913">
        <ele>68.4</ele>
        <time>2022-04-03T16:51:06Z</time>
      </trkpt>
      <trkpt lat="46.1092" lon="-0.09921">
        <ele>68.6</ele>
        <time>2022-04-03T16:51:07Z</time>
      </trkpt>
      <trkpt lat="46.10919" lon="-0.09929">
        <ele>68.6</ele>
        <time>2022-04-03T16:51:08Z</time>
      </trkpt>
      <trkpt lat="46.10918" lon="-0.09937">
        <ele>68.6</ele>
        <time>2022-04-03T16:51:09Z</time>
      </trkpt>
      <trkpt lat="46.10917" lon="-0.09944">
        <ele>68.6</ele>
        <time>2022-04-03T16:51:10Z</time>
      </trkpt>
      <trkpt lat="46.10916" lon="-0.09952">
        <ele>68.8</ele>
        <time>2022-04-03T16:51:11Z</time>
      </trkpt>
      <trkpt lat="46.10915" lon="-0.0996">
        <ele>68.8</ele>
        <time>2022-04-03T16:51:12Z</time>
      </trkpt>
      <trkpt lat="46.10914" lon="-0.09968">
        <ele>69</ele>
        <time>2022-04-03T16:51:13Z</time>
      </trkpt>
      <trkpt lat="46.10913" lon="-0.09976">
        <ele>69</ele>
        <time>2022-04-03T16:51:14Z</time>
      </trkpt>
      <trkpt lat="46.10912" lon="-0.09984">
        <ele>69.2</ele>
        <time>2022-04-03T16:51:15Z</time>
      </trkpt>
      <trkpt lat="46.10912" lon="-0.09992">
        <ele>69</ele>
        <time>2022-04-03T16:51:16Z</time>
      </trkpt>
      <trkpt lat="46.10911" lon="-0.1">
        <ele>69.4</ele>
        <time>2022-04-03T16:51:17Z</time>
      </trkpt>
      <trkpt lat="46.1091" lon="-0.10008">
        <ele>69.2</ele>
        <time>2022-04-03T16:51:18Z</time>
      </trkpt>
      <trkpt lat="46.1091" lon="-0.10016">
        <ele>69.4</ele>
        <time>2022-04-03T16:51:19Z</time>
      </trkpt>
      <trkpt lat="46.10909" lon="-0.10025">
        <ele>69.4</ele>
        <time>2022-04-03T16:51:20Z</time>
      </trkpt>
      <trkpt lat="46.10909" lon="-0.10033">
        <ele>69.4</ele>
        <time>2022-04-03T16:51:21Z</time>
      </trkpt>
      <trkpt lat="46.10908" lon="-0.10041">
        <ele>69.4</ele>
        <time>2022-04-03T16:51:22Z</time>
      </trkpt>
      <trkpt lat="46.10908" lon="-0.1005">
        <ele>69.6</ele>
        <time>2022-04-03T16:51:23Z</time>
      </trkpt>
      <trkpt lat="46.10908" lon="-0.10058">
        <ele>69.6</ele>
        <time>2022-04-03T16:51:24Z</time>
      </trkpt>
      <trkpt lat="46.10908" lon="-0.10066">
        <ele>69.6</ele>
        <time>2022-04-03T16:51:25Z</time>
      </trkpt>
      <trkpt lat="46.10908" lon="-0.10074">
        <ele>69.8</ele>
        <time>2022-04-03T16:51:26Z</time>
      </trkpt>
      <trkpt lat="46.10908" lon="-0.10082">
        <ele>70</ele>
        <time>2022-04-03T16:51:27Z</time>
      </trkpt>
      <trkpt lat="46.10909" lon="-0.10091">
        <ele>70</ele>
        <time>2022-04-03T16:51:28Z</time>
      </trkpt>
      <trkpt lat="46.1091" lon="-0.10098">
        <ele>70</ele>
        <time>2022-04-03T16:51:29Z</time>
      </trkpt>
      <trkpt lat="46.1091" lon="-0.10106">
        <ele>70</ele>
        <time>2022-04-03T16:51:30Z</time>
      </trkpt>
      <trkpt lat="46.10911" lon="-0.10114">
        <ele>70</ele>
        <time>2022-04-03T16:51:31Z</time>
      </trkpt>
      <trkpt lat="46.10912" lon="-0.10122">
        <ele>70</ele>
        <time>2022-04-03T16:51:32Z</time>
      </trkpt>
      <trkpt lat="46.10913" lon="-0.1013">
        <ele>70</ele>
        <time>2022-04-03T16:51:33Z</time>
      </trkpt>
      <trkpt lat="46.10914" lon="-0.10138">
        <ele>70</ele>
        <time>2022-04-03T16:51:34Z</time>
      </trkpt>
      <trkpt lat="46.10916" lon="-0.10146">
        <ele>70</ele>
        <time>2022-04-03T16:51:35Z</time>
      </trkpt>
      <trkpt lat="46.10918" lon="-0.10154">
        <ele>70</ele>
        <time>2022-04-03T16:51:36Z</time>
      </trkpt>
      <trkpt lat="46.10919" lon="-0.10162">
        <ele>70</ele>
        <time>2022-04-03T16:51:37Z</time>
      </trkpt>
      <trkpt lat="46.10921" lon="-0.1017">
        <ele>70.2</ele>
        <time>2022-04-03T16:51:38Z</time>
      </trkpt>
      <trkpt lat="46.10922" lon="-0.10178">
        <ele>70.2</ele>
        <time>2022-04-03T16:51:39Z</time>
      </trkpt>
      <trkpt lat="46.10924" lon="-0.10186">
        <ele>70.2</ele>
        <time>2022-04-03T16:51:40Z</time>
      </trkpt>
      <trkpt lat="46.10926" lon="-0.10194">
        <ele>70.2</ele>
        <time>2022-04-03T16:51:41Z</time>
      </trkpt>
      <trkpt lat="46.10928" lon="-0.10202">
        <ele>70.2</ele>
        <time>2022-04-03T16:51:42Z</time>
      </trkpt>
      <trkpt lat="46.10929" lon="-0.1021">
        <ele>70.2</ele>
        <time>2022-04-03T16:51:43Z</time>
      </trkpt>
      <trkpt lat="46.10931" lon="-0.10219">
        <ele>70.2</ele>
        <time>2022-04-03T16:51:44Z</time>
      </trkpt>
      <trkpt lat="46.10933" lon="-0.10227">
        <ele>70.2</ele>
        <time>2022-04-03T16:51:45Z</time>
      </trkpt>
      <trkpt lat="46.10935" lon="-0.10235">
        <ele>70.2</ele>
        <time>2022-04-03T16:51:46Z</time>
      </trkpt>
      <trkpt lat="46.10936" lon="-0.10244">
        <ele>70.2</ele>
        <time>2022-04-03T16:51:47Z</time>
      </trkpt>
      <trkpt lat="46.10938" lon="-0.10252">
        <ele>70.2</ele>
        <time>2022-04-03T16:51:48Z</time>
      </trkpt>
      <trkpt lat="46.1094" lon="-0.10261">
        <ele>70</ele>
        <time>2022-04-03T16:51:49Z</time>
      </trkpt>
      <trkpt lat="46.10942" lon="-0.10269">
        <ele>70</ele>
        <time>2022-04-03T16:51:50Z</time>
      </trkpt>
      <trkpt lat="46.10943" lon="-0.10277">
        <ele>70</ele>
        <time>2022-04-03T16:51:51Z</time>
      </trkpt>
      <trkpt lat="46.10945" lon="-0.10286">
        <ele>70</ele>
        <time>2022-04-03T16:51:52Z</time>
      </trkpt>
      <trkpt lat="46.10947" lon="-0.10294">
        <ele>70</ele>
        <time>2022-04-03T16:51:53Z</time>
      </trkpt>
      <trkpt lat="46.10949" lon="-0.10302">
        <ele>69.8</ele>
        <time>2022-04-03T16:51:54Z</time>
      </trkpt>
      <trkpt lat="46.10951" lon="-0.1031">
        <ele>69.8</ele>
        <time>2022-04-03T16:51:55Z</time>
      </trkpt>
      <trkpt lat="46.10953" lon="-0.10318">
        <ele>69.8</ele>
        <time>2022-04-03T16:51:56Z</time>
      </trkpt>
      <trkpt lat="46.10955" lon="-0.10326">
        <ele>69.8</ele>
        <time>2022-04-03T16:51:57Z</time>
      </trkpt>
      <trkpt lat="46.10957" lon="-0.10334">
        <ele>69.8</ele>
        <time>2022-04-03T16:51:58Z</time>
      </trkpt>
      <trkpt lat="46.10959" lon="-0.10342">
        <ele>69.6</ele>
        <time>2022-04-03T16:51:59Z</time>
      </trkpt>
      <trkpt lat="46.10961" lon="-0.1035">
        <ele>69.8</ele>
        <time>2022-04-03T16:52:00Z</time>
      </trkpt>
      <trkpt lat="46.10964" lon="-0.10358">
        <ele>69.8</ele>
        <time>2022-04-03T16:52:01Z</time>
      </trkpt>
      <trkpt lat="46.10966" lon="-0.10367">
        <ele>69.6</ele>
        <time>2022-04-03T16:52:02Z</time>
      </trkpt>
      <trkpt lat="46.10968" lon="-0.10375">
        <ele>69.4</ele>
        <time>2022-04-03T16:52:03Z</time>
      </trkpt>
      <trkpt lat="46.1097" lon="-0.10383">
        <ele>69.4</ele>
        <time>2022-04-03T16:52:04Z</time>
      </trkpt>
      <trkpt lat="46.10972" lon="-0.10391">
        <ele>69.2</ele>
        <time>2022-04-03T16:52:05Z</time>
      </trkpt>
      <trkpt lat="46.10974" lon="-0.104">
        <ele>69.2</ele>
        <time>2022-04-03T16:52:06Z</time>
      </trkpt>
      <trkpt lat="46.10976" lon="-0.10408">
        <ele>69.2</ele>
        <time>2022-04-03T16:52:07Z</time>
      </trkpt>
      <trkpt lat="46.10978" lon="-0.10416">
        <ele>69.2</ele>
        <time>2022-04-03T16:52:08Z</time>
      </trkpt>
      <trkpt lat="46.10981" lon="-0.10424">
        <ele>69</ele>
        <time>2022-04-03T16:52:09Z</time>
      </trkpt>
      <trkpt lat="46.10983" lon="-0.10432">
        <ele>69</ele>
        <time>2022-04-03T16:52:10Z</time>
      </trkpt>
      <trkpt lat="46.10985" lon="-0.10441">
        <ele>69</ele>
        <time>2022-04-03T16:52:11Z</time>
      </trkpt>
      <trkpt lat="46.10987" lon="-0.10449">
        <ele>69</ele>
        <time>2022-04-03T16:52:12Z</time>
      </trkpt>
      <trkpt lat="46.10989" lon="-0.10457">
        <ele>69</ele>
        <time>2022-04-03T16:52:13Z</time>
      </trkpt>
      <trkpt lat="46.10991" lon="-0.10465">
        <ele>68.8</ele>
        <time>2022-04-03T16:52:14Z</time>
      </trkpt>
      <trkpt lat="46.10993" lon="-0.10474">
        <ele>68.8</ele>
        <time>2022-04-03T16:52:15Z</time>
      </trkpt>
      <trkpt lat="46.10995" lon="-0.10482">
        <ele>68.8</ele>
        <time>2022-04-03T16:52:16Z</time>
      </trkpt>
      <trkpt lat="46.10997" lon="-0.1049">
        <ele>68.8</ele>
        <time>2022-04-03T16:52:17Z</time>
      </trkpt>
      <trkpt lat="46.10999" lon="-0.10498">
        <ele>68.8</ele>
        <time>2022-04-03T16:52:18Z</time>
      </trkpt>
      <trkpt lat="46.11001" lon="-0.10507">
        <ele>68.8</ele>
        <time>2022-04-03T16:52:19Z</time>
      </trkpt>
      <trkpt lat="46.11003" lon="-0.10515">
        <ele>68.6</ele>
        <time>2022-04-03T16:52:20Z</time>
      </trkpt>
      <trkpt lat="46.11006" lon="-0.10523">
        <ele>68.8</ele>
        <time>2022-04-03T16:52:21Z</time>
      </trkpt>
      <trkpt lat="46.11008" lon="-0.10531">
        <ele>68.8</ele>
        <time>2022-04-03T16:52:22Z</time>
      </trkpt>
      <trkpt lat="46.1101" lon="-0.10539">
        <ele>68.8</ele>
        <time>2022-04-03T16:52:23Z</time>
      </trkpt>
      <trkpt lat="46.11012" lon="-0.10548">
        <ele>68.6</ele>
        <time>2022-04-03T16:52:24Z</time>
      </trkpt>
      <trkpt lat="46.11014" lon="-0.10556">
        <ele>68.8</ele>
        <time>2022-04-03T16:52:25Z</time>
      </trkpt>
      <trkpt lat="46.11016" lon="-0.10564">
        <ele>68.8</ele>
        <time>2022-04-03T16:52:26Z</time>
      </trkpt>
      <trkpt lat="46.11018" lon="-0.10573">
        <ele>68.8</ele>
        <time>2022-04-03T16:52:27Z</time>
      </trkpt>
      <trkpt lat="46.1102" lon="-0.10581">
        <ele>68.6</ele>
        <time>2022-04-03T16:52:28Z</time>
      </trkpt>
      <trkpt lat="46.11022" lon="-0.1059">
        <ele>68.6</ele>
        <time>2022-04-03T16:52:29Z</time>
      </trkpt>
      <trkpt lat="46.11024" lon="-0.10599">
        <ele>68.6</ele>
        <time>2022-04-03T16:52:30Z</time>
      </trkpt>
      <trkpt lat="46.11026" lon="-0.10608">
        <ele>68.6</ele>
        <time>2022-04-03T16:52:31Z</time>
      </trkpt>
      <trkpt lat="46.11028" lon="-0.10616">
        <ele>68.4</ele>
        <time>2022-04-03T16:52:32Z</time>
      </trkpt>
      <trkpt lat="46.1103" lon="-0.10625">
        <ele>68.4</ele>
        <time>2022-04-03T16:52:33Z</time>
      </trkpt>
      <trkpt lat="46.11032" lon="-0.10635">
        <ele>68.6</ele>
        <time>2022-04-03T16:52:34Z</time>
      </trkpt>
      <trkpt lat="46.11034" lon="-0.10644">
        <ele>68.6</ele>
        <time>2022-04-03T16:52:35Z</time>
      </trkpt>
      <trkpt lat="46.11036" lon="-0.10653">
        <ele>68.4</ele>
        <time>2022-04-03T16:52:36Z</time>
      </trkpt>
      <trkpt lat="46.11038" lon="-0.10662">
        <ele>68.4</ele>
        <time>2022-04-03T16:52:37Z</time>
      </trkpt>
      <trkpt lat="46.1104" lon="-0.10672">
        <ele>68.4</ele>
        <time>2022-04-03T16:52:38Z</time>
      </trkpt>
      <trkpt lat="46.11042" lon="-0.10681">
        <ele>68.2</ele>
        <time>2022-04-03T16:52:39Z</time>
      </trkpt>
      <trkpt lat="46.11044" lon="-0.10691">
        <ele>68.2</ele>
        <time>2022-04-03T16:52:40Z</time>
      </trkpt>
      <trkpt lat="46.11046" lon="-0.107">
        <ele>68</ele>
        <time>2022-04-03T16:52:41Z</time>
      </trkpt>
      <trkpt lat="46.11048" lon="-0.1071">
        <ele>68</ele>
        <time>2022-04-03T16:52:42Z</time>
      </trkpt>
      <trkpt lat="46.1105" lon="-0.1072">
        <ele>67.8</ele>
        <time>2022-04-03T16:52:43Z</time>
      </trkpt>
      <trkpt lat="46.11052" lon="-0.10729">
        <ele>68</ele>
        <time>2022-04-03T16:52:44Z</time>
      </trkpt>
      <trkpt lat="46.11054" lon="-0.10738">
        <ele>68</ele>
        <time>2022-04-03T16:52:45Z</time>
      </trkpt>
      <trkpt lat="46.11056" lon="-0.10748">
        <ele>67.8</ele>
        <time>2022-04-03T16:52:46Z</time>
      </trkpt>
      <trkpt lat="46.11057" lon="-0.10757">
        <ele>67.8</ele>
        <time>2022-04-03T16:52:47Z</time>
      </trkpt>
      <trkpt lat="46.11059" lon="-0.10767">
        <ele>67.8</ele>
        <time>2022-04-03T16:52:48Z</time>
      </trkpt>
      <trkpt lat="46.11061" lon="-0.10776">
        <ele>67.8</ele>
        <time>2022-04-03T16:52:49Z</time>
      </trkpt>
      <trkpt lat="46.11063" lon="-0.10786">
        <ele>67.6</ele>
        <time>2022-04-03T16:52:50Z</time>
      </trkpt>
      <trkpt lat="46.11064" lon="-0.10796">
        <ele>67.8</ele>
        <time>2022-04-03T16:52:51Z</time>
      </trkpt>
      <trkpt lat="46.11066" lon="-0.10806">
        <ele>67.8</ele>
        <time>2022-04-03T16:52:52Z</time>
      </trkpt>
      <trkpt lat="46.11067" lon="-0.10816">
        <ele>67.4</ele>
        <time>2022-04-03T16:52:53Z</time>
      </trkpt>
      <trkpt lat="46.11069" lon="-0.10826">
        <ele>67.6</ele>
        <time>2022-04-03T16:52:54Z</time>
      </trkpt>
      <trkpt lat="46.1107" lon="-0.10836">
        <ele>67.6</ele>
        <time>2022-04-03T16:52:55Z</time>
      </trkpt>
      <trkpt lat="46.11072" lon="-0.10846">
        <ele>67.4</ele>
        <time>2022-04-03T16:52:56Z</time>
      </trkpt>
      <trkpt lat="46.11074" lon="-0.10856">
        <ele>67.2</ele>
        <time>2022-04-03T16:52:57Z</time>
      </trkpt>
      <trkpt lat="46.11075" lon="-0.10866">
        <ele>66.8</ele>
        <time>2022-04-03T16:52:58Z</time>
      </trkpt>
      <trkpt lat="46.11077" lon="-0.10877">
        <ele>66.8</ele>
        <time>2022-04-03T16:52:59Z</time>
      </trkpt>
      <trkpt lat="46.11079" lon="-0.10887">
        <ele>66.6</ele>
        <time>2022-04-03T16:53:00Z</time>
      </trkpt>
      <trkpt lat="46.11081" lon="-0.10898">
        <ele>66.8</ele>
        <time>2022-04-03T16:53:01Z</time>
      </trkpt>
      <trkpt lat="46.11082" lon="-0.10908">
        <ele>66.6</ele>
        <time>2022-04-03T16:53:02Z</time>
      </trkpt>
      <trkpt lat="46.11084" lon="-0.10918">
        <ele>66.6</ele>
        <time>2022-04-03T16:53:03Z</time>
      </trkpt>
      <trkpt lat="46.11085" lon="-0.10929">
        <ele>66.6</ele>
        <time>2022-04-03T16:53:04Z</time>
      </trkpt>
      <trkpt lat="46.11087" lon="-0.10939">
        <ele>66.6</ele>
        <time>2022-04-03T16:53:05Z</time>
      </trkpt>
      <trkpt lat="46.11089" lon="-0.1095">
        <ele>66.4</ele>
        <time>2022-04-03T16:53:06Z</time>
      </trkpt>
      <trkpt lat="46.11091" lon="-0.1096">
        <ele>66.4</ele>
        <time>2022-04-03T16:53:07Z</time>
      </trkpt>
      <trkpt lat="46.11092" lon="-0.1097">
        <ele>66.2</ele>
        <time>2022-04-03T16:53:08Z</time>
      </trkpt>
      <trkpt lat="46.11094" lon="-0.10981">
        <ele>66</ele>
        <time>2022-04-03T16:53:09Z</time>
      </trkpt>
      <trkpt lat="46.11095" lon="-0.10991">
        <ele>66</ele>
        <time>2022-04-03T16:53:10Z</time>
      </trkpt>
      <trkpt lat="46.11097" lon="-0.11">
        <ele>65.8</ele>
        <time>2022-04-03T16:53:11Z</time>
      </trkpt>
      <trkpt lat="46.11099" lon="-0.1101">
        <ele>65.8</ele>
        <time>2022-04-03T16:53:12Z</time>
      </trkpt>
      <trkpt lat="46.11101" lon="-0.1102">
        <ele>65.6</ele>
        <time>2022-04-03T16:53:13Z</time>
      </trkpt>
      <trkpt lat="46.11103" lon="-0.1103">
        <ele>65.4</ele>
        <time>2022-04-03T16:53:14Z</time>
      </trkpt>
      <trkpt lat="46.11104" lon="-0.1104">
        <ele>65.4</ele>
        <time>2022-04-03T16:53:15Z</time>
      </trkpt>
      <trkpt lat="46.11106" lon="-0.11049">
        <ele>65.4</ele>
        <time>2022-04-03T16:53:16Z</time>
      </trkpt>
      <trkpt lat="46.11107" lon="-0.11059">
        <ele>65.2</ele>
        <time>2022-04-03T16:53:17Z</time>
      </trkpt>
      <trkpt lat="46.11109" lon="-0.11068">
        <ele>65.2</ele>
        <time>2022-04-03T16:53:18Z</time>
      </trkpt>
      <trkpt lat="46.11111" lon="-0.11078">
        <ele>65.4</ele>
        <time>2022-04-03T16:53:19Z</time>
      </trkpt>
      <trkpt lat="46.11112" lon="-0.11087">
        <ele>65.4</ele>
        <time>2022-04-03T16:53:20Z</time>
      </trkpt>
      <trkpt lat="46.11114" lon="-0.11097">
        <ele>65.2</ele>
        <time>2022-04-03T16:53:21Z</time>
      </trkpt>
      <trkpt lat="46.11116" lon="-0.11107">
        <ele>65.2</ele>
        <time>2022-04-03T16:53:22Z</time>
      </trkpt>
      <trkpt lat="46.11117" lon="-0.11116">
        <ele>65.2</ele>
        <time>2022-04-03T16:53:23Z</time>
      </trkpt>
      <trkpt lat="46.11119" lon="-0.11126">
        <ele>65.4</ele>
        <time>2022-04-03T16:53:24Z</time>
      </trkpt>
      <trkpt lat="46.11121" lon="-0.11136">
        <ele>65.4</ele>
        <time>2022-04-03T16:53:25Z</time>
      </trkpt>
      <trkpt lat="46.11123" lon="-0.11145">
        <ele>65.2</ele>
        <time>2022-04-03T16:53:26Z</time>
      </trkpt>
      <trkpt lat="46.11125" lon="-0.11155">
        <ele>65.4</ele>
        <time>2022-04-03T16:53:27Z</time>
      </trkpt>
      <trkpt lat="46.11127" lon="-0.11164">
        <ele>65.4</ele>
        <time>2022-04-03T16:53:28Z</time>
      </trkpt>
      <trkpt lat="46.11129" lon="-0.11174">
        <ele>65.4</ele>
        <time>2022-04-03T16:53:29Z</time>
      </trkpt>
      <trkpt lat="46.11132" lon="-0.11183">
        <ele>65.2</ele>
        <time>2022-04-03T16:53:30Z</time>
      </trkpt>
      <trkpt lat="46.11135" lon="-0.11192">
        <ele>65.2</ele>
        <time>2022-04-03T16:53:31Z</time>
      </trkpt>
      <trkpt lat="46.11138" lon="-0.11201">
        <ele>65.4</ele>
        <time>2022-04-03T16:53:32Z</time>
      </trkpt>
      <trkpt lat="46.1114" lon="-0.1121">
        <ele>65.2</ele>
        <time>2022-04-03T16:53:33Z</time>
      </trkpt>
      <trkpt lat="46.11143" lon="-0.11219">
        <ele>65.4</ele>
        <time>2022-04-03T16:53:34Z</time>
      </trkpt>
      <trkpt lat="46.11147" lon="-0.11228">
        <ele>65.2</ele>
        <time>2022-04-03T16:53:35Z</time>
      </trkpt>
      <trkpt lat="46.1115" lon="-0.11236">
        <ele>65.4</ele>
        <time>2022-04-03T16:53:36Z</time>
      </trkpt>
      <trkpt lat="46.11154" lon="-0.11245">
        <ele>65.4</ele>
        <time>2022-04-03T16:53:37Z</time>
      </trkpt>
      <trkpt lat="46.11158" lon="-0.11253">
        <ele>65.2</ele>
        <time>2022-04-03T16:53:38Z</time>
      </trkpt>
      <trkpt lat="46.11162" lon="-0.11261">
        <ele>65.2</ele>
        <time>2022-04-03T16:53:39Z</time>
      </trkpt>
      <trkpt lat="46.11166" lon="-0.11269">
        <ele>65.2</ele>
        <time>2022-04-03T16:53:40Z</time>
      </trkpt>
      <trkpt lat="46.1117" lon="-0.11277">
        <ele>65.2</ele>
        <time>2022-04-03T16:53:41Z</time>
      </trkpt>
      <trkpt lat="46.11174" lon="-0.11285">
        <ele>65.2</ele>
        <time>2022-04-03T16:53:42Z</time>
      </trkpt>
      <trkpt lat="46.11178" lon="-0.11293">
        <ele>65.2</ele>
        <time>2022-04-03T16:53:43Z</time>
      </trkpt>
      <trkpt lat="46.11182" lon="-0.11301">
        <ele>65</ele>
        <time>2022-04-03T16:53:44Z</time>
      </trkpt>
      <trkpt lat="46.11186" lon="-0.11309">
        <ele>65</ele>
        <time>2022-04-03T16:53:45Z</time>
      </trkpt>
      <trkpt lat="46.1119" lon="-0.11317">
        <ele>65</ele>
        <time>2022-04-03T16:53:46Z</time>
      </trkpt>
      <trkpt lat="46.11194" lon="-0.11325">
        <ele>65</ele>
        <time>2022-04-03T16:53:47Z</time>
      </trkpt>
      <trkpt lat="46.11198" lon="-0.11333">
        <ele>64.8</ele>
        <time>2022-04-03T16:53:48Z</time>
      </trkpt>
      <trkpt lat="46.11201" lon="-0.11341">
        <ele>64.8</ele>
        <time>2022-04-03T16:53:49Z</time>
      </trkpt>
      <trkpt lat="46.11205" lon="-0.11349">
        <ele>64.8</ele>
        <time>2022-04-03T16:53:50Z</time>
      </trkpt>
      <trkpt lat="46.11209" lon="-0.11357">
        <ele>64.8</ele>
        <time>2022-04-03T16:53:51Z</time>
      </trkpt>
      <trkpt lat="46.11213" lon="-0.11365">
        <ele>64.6</ele>
        <time>2022-04-03T16:53:52Z</time>
      </trkpt>
      <trkpt lat="46.11217" lon="-0.11373">
        <ele>64.6</ele>
        <time>2022-04-03T16:53:53Z</time>
      </trkpt>
      <trkpt lat="46.11221" lon="-0.11381">
        <ele>64.8</ele>
        <time>2022-04-03T16:53:54Z</time>
      </trkpt>
      <trkpt lat="46.11225" lon="-0.11389">
        <ele>64.6</ele>
        <time>2022-04-03T16:53:55Z</time>
      </trkpt>
      <trkpt lat="46.11229" lon="-0.11396">
        <ele>64.6</ele>
        <time>2022-04-03T16:53:56Z</time>
      </trkpt>
      <trkpt lat="46.11233" lon="-0.11404">
        <ele>64.4</ele>
        <time>2022-04-03T16:53:57Z</time>
      </trkpt>
      <trkpt lat="46.11237" lon="-0.11412">
        <ele>64.6</ele>
        <time>2022-04-03T16:53:58Z</time>
      </trkpt>
      <trkpt lat="46.11241" lon="-0.1142">
        <ele>64.4</ele>
        <time>2022-04-03T16:53:59Z</time>
      </trkpt>
      <trkpt lat="46.11245" lon="-0.11428">
        <ele>64.4</ele>
        <time>2022-04-03T16:54:00Z</time>
      </trkpt>
      <trkpt lat="46.11249" lon="-0.11435">
        <ele>64.4</ele>
        <time>2022-04-03T16:54:01Z</time>
      </trkpt>
      <trkpt lat="46.11253" lon="-0.11443">
        <ele>64.4</ele>
        <time>2022-04-03T16:54:02Z</time>
      </trkpt>
      <trkpt lat="46.11256" lon="-0.11451">
        <ele>64.6</ele>
        <time>2022-04-03T16:54:03Z</time>
      </trkpt>
      <trkpt lat="46.1126" lon="-0.11459">
        <ele>64.4</ele>
        <time>2022-04-03T16:54:04Z</time>
      </trkpt>
      <trkpt lat="46.11264" lon="-0.11467">
        <ele>64.6</ele>
        <time>2022-04-03T16:54:05Z</time>
      </trkpt>
      <trkpt lat="46.11268" lon="-0.11474">
        <ele>64.6</ele>
        <time>2022-04-03T16:54:06Z</time>
      </trkpt>
      <trkpt lat="46.11272" lon="-0.11482">
        <ele>64.4</ele>
        <time>2022-04-03T16:54:07Z</time>
      </trkpt>
      <trkpt lat="46.11276" lon="-0.1149">
        <ele>64.4</ele>
        <time>2022-04-03T16:54:08Z</time>
      </trkpt>
      <trkpt lat="46.1128" lon="-0.11497">
        <ele>64.4</ele>
        <time>2022-04-03T16:54:09Z</time>
      </trkpt>
      <trkpt lat="46.11284" lon="-0.11505">
        <ele>64.4</ele>
        <time>2022-04-03T16:54:10Z</time>
      </trkpt>
      <trkpt lat="46.11288" lon="-0.11513">
        <ele>64.4</ele>
        <time>2022-04-03T16:54:11Z</time>
      </trkpt>
      <trkpt lat="46.11292" lon="-0.11521">
        <ele>64.6</ele>
        <time>2022-04-03T16:54:12Z</time>
      </trkpt>
      <trkpt lat="46.11296" lon="-0.11528">
        <ele>64.4</ele>
        <time>2022-04-03T16:54:13Z</time>
      </trkpt>
      <trkpt lat="46.113" lon="-0.11536">
        <ele>64.2</ele>
        <time>2022-04-03T16:54:14Z</time>
      </trkpt>
      <trkpt lat="46.11304" lon="-0.11544">
        <ele>64.2</ele>
        <time>2022-04-03T16:54:15Z</time>
      </trkpt>
      <trkpt lat="46.11308" lon="-0.11552">
        <ele>64</ele>
        <time>2022-04-03T16:54:16Z</time>
      </trkpt>
      <trkpt lat="46.11312" lon="-0.1156">
        <ele>63.8</ele>
        <time>2022-04-03T16:54:17Z</time>
      </trkpt>
      <trkpt lat="46.11316" lon="-0.11568">
        <ele>63.8</ele>
        <time>2022-04-03T16:54:18Z</time>
      </trkpt>
      <trkpt lat="46.1132" lon="-0.11576">
        <ele>63.8</ele>
        <time>2022-04-03T16:54:19Z</time>
      </trkpt>
      <trkpt lat="46.11324" lon="-0.11584">
        <ele>63.6</ele>
        <time>2022-04-03T16:54:20Z</time>
      </trkpt>
      <trkpt lat="46.11328" lon="-0.11592">
        <ele>63.8</ele>
        <time>2022-04-03T16:54:21Z</time>
      </trkpt>
      <trkpt lat="46.11332" lon="-0.116">
        <ele>63.6</ele>
        <time>2022-04-03T16:54:22Z</time>
      </trkpt>
      <trkpt lat="46.11336" lon="-0.11609">
        <ele>63.8</ele>
        <time>2022-04-03T16:54:23Z</time>
      </trkpt>
      <trkpt lat="46.1134" lon="-0.11617">
        <ele>63.6</ele>
        <time>2022-04-03T16:54:24Z</time>
      </trkpt>
      <trkpt lat="46.11345" lon="-0.11625">
        <ele>63.4</ele>
        <time>2022-04-03T16:54:25Z</time>
      </trkpt>
      <trkpt lat="46.11349" lon="-0.11633">
        <ele>63.6</ele>
        <time>2022-04-03T16:54:26Z</time>
      </trkpt>
      <trkpt lat="46.11353" lon="-0.11642">
        <ele>63.6</ele>
        <time>2022-04-03T16:54:27Z</time>
      </trkpt>
      <trkpt lat="46.11357" lon="-0.1165">
        <ele>63.4</ele>
        <time>2022-04-03T16:54:28Z</time>
      </trkpt>
      <trkpt lat="46.11361" lon="-0.11658">
        <ele>63.4</ele>
        <time>2022-04-03T16:54:29Z</time>
      </trkpt>
      <trkpt lat="46.11365" lon="-0.11666">
        <ele>63.2</ele>
        <time>2022-04-03T16:54:30Z</time>
      </trkpt>
      <trkpt lat="46.11369" lon="-0.11674">
        <ele>63.2</ele>
        <time>2022-04-03T16:54:31Z</time>
      </trkpt>
      <trkpt lat="46.11373" lon="-0.11682">
        <ele>63.2</ele>
        <time>2022-04-03T16:54:32Z</time>
      </trkpt>
      <trkpt lat="46.11377" lon="-0.1169">
        <ele>63.2</ele>
        <time>2022-04-03T16:54:33Z</time>
      </trkpt>
      <trkpt lat="46.11381" lon="-0.11698">
        <ele>63.2</ele>
        <time>2022-04-03T16:54:34Z</time>
      </trkpt>
      <trkpt lat="46.11385" lon="-0.11706">
        <ele>63</ele>
        <time>2022-04-03T16:54:35Z</time>
      </trkpt>
      <trkpt lat="46.11389" lon="-0.11714">
        <ele>63.2</ele>
        <time>2022-04-03T16:54:36Z</time>
      </trkpt>
      <trkpt lat="46.11393" lon="-0.11722">
        <ele>63</ele>
        <time>2022-04-03T16:54:37Z</time>
      </trkpt>
      <trkpt lat="46.11397" lon="-0.1173">
        <ele>63</ele>
        <time>2022-04-03T16:54:38Z</time>
      </trkpt>
      <trkpt lat="46.11401" lon="-0.11738">
        <ele>63</ele>
        <time>2022-04-03T16:54:39Z</time>
      </trkpt>
      <trkpt lat="46.11405" lon="-0.11746">
        <ele>63</ele>
        <time>2022-04-03T16:54:40Z</time>
      </trkpt>
      <trkpt lat="46.11409" lon="-0.11754">
        <ele>63</ele>
        <time>2022-04-03T16:54:41Z</time>
      </trkpt>
      <trkpt lat="46.11413" lon="-0.11762">
        <ele>62.8</ele>
        <time>2022-04-03T16:54:42Z</time>
      </trkpt>
      <trkpt lat="46.11417" lon="-0.1177">
        <ele>63</ele>
        <time>2022-04-03T16:54:43Z</time>
      </trkpt>
      <trkpt lat="46.11421" lon="-0.11778">
        <ele>62.8</ele>
        <time>2022-04-03T16:54:44Z</time>
      </trkpt>
      <trkpt lat="46.11425" lon="-0.11785">
        <ele>62.8</ele>
        <time>2022-04-03T16:54:45Z</time>
      </trkpt>
      <trkpt lat="46.11428" lon="-0.11793">
        <ele>62.6</ele>
        <time>2022-04-03T16:54:46Z</time>
      </trkpt>
      <trkpt lat="46.11432" lon="-0.11801">
        <ele>62.6</ele>
        <time>2022-04-03T16:54:47Z</time>
      </trkpt>
      <trkpt lat="46.11436" lon="-0.11809">
        <ele>62.8</ele>
        <time>2022-04-03T16:54:48Z</time>
      </trkpt>
      <trkpt lat="46.1144" lon="-0.11817">
        <ele>62.8</ele>
        <time>2022-04-03T16:54:49Z</time>
      </trkpt>
      <trkpt lat="46.11443" lon="-0.11825">
        <ele>62.6</ele>
        <time>2022-04-03T16:54:50Z</time>
      </trkpt>
      <trkpt lat="46.11447" lon="-0.11833">
        <ele>62.6</ele>
        <time>2022-04-03T16:54:51Z</time>
      </trkpt>
      <trkpt lat="46.11451" lon="-0.1184">
        <ele>62.6</ele>
        <time>2022-04-03T16:54:52Z</time>
      </trkpt>
      <trkpt lat="46.11455" lon="-0.11848">
        <ele>62.4</ele>
        <time>2022-04-03T16:54:53Z</time>
      </trkpt>
      <trkpt lat="46.11459" lon="-0.11856">
        <ele>62.4</ele>
        <time>2022-04-03T16:54:54Z</time>
      </trkpt>
      <trkpt lat="46.11463" lon="-0.11864">
        <ele>62.6</ele>
        <time>2022-04-03T16:54:55Z</time>
      </trkpt>
      <trkpt lat="46.11466" lon="-0.11872">
        <ele>62.4</ele>
        <time>2022-04-03T16:54:56Z</time>
      </trkpt>
      <trkpt lat="46.1147" lon="-0.11879">
        <ele>62.4</ele>
        <time>2022-04-03T16:54:57Z</time>
      </trkpt>
      <trkpt lat="46.11474" lon="-0.11887">
        <ele>62.4</ele>
        <time>2022-04-03T16:54:58Z</time>
      </trkpt>
      <trkpt lat="46.11478" lon="-0.11895">
        <ele>62.4</ele>
        <time>2022-04-03T16:54:59Z</time>
      </trkpt>
      <trkpt lat="46.11482" lon="-0.11903">
        <ele>62.4</ele>
        <time>2022-04-03T16:55:00Z</time>
      </trkpt>
      <trkpt lat="46.11486" lon="-0.11911">
        <ele>62.4</ele>
        <time>2022-04-03T16:55:01Z</time>
      </trkpt>
      <trkpt lat="46.1149" lon="-0.11918">
        <ele>62.4</ele>
        <time>2022-04-03T16:55:02Z</time>
      </trkpt>
      <trkpt lat="46.11494" lon="-0.11926">
        <ele>62.2</ele>
        <time>2022-04-03T16:55:03Z</time>
      </trkpt>
      <trkpt lat="46.11498" lon="-0.11934">
        <ele>62.4</ele>
        <time>2022-04-03T16:55:04Z</time>
      </trkpt>
      <trkpt lat="46.11502" lon="-0.11942">
        <ele>62.4</ele>
        <time>2022-04-03T16:55:05Z</time>
      </trkpt>
      <trkpt lat="46.11506" lon="-0.1195">
        <ele>62.4</ele>
        <time>2022-04-03T16:55:06Z</time>
      </trkpt>
      <trkpt lat="46.1151" lon="-0.11957">
        <ele>62.4</ele>
        <time>2022-04-03T16:55:07Z</time>
      </trkpt>
      <trkpt lat="46.11514" lon="-0.11965">
        <ele>62.4</ele>
        <time>2022-04-03T16:55:08Z</time>
      </trkpt>
      <trkpt lat="46.11518" lon="-0.11972">
        <ele>62.4</ele>
        <time>2022-04-03T16:55:09Z</time>
      </trkpt>
      <trkpt lat="46.11522" lon="-0.1198">
        <ele>62.4</ele>
        <time>2022-04-03T16:55:10Z</time>
      </trkpt>
      <trkpt lat="46.11526" lon="-0.11987">
        <ele>62.4</ele>
        <time>2022-04-03T16:55:11Z</time>
      </trkpt>
      <trkpt lat="46.11531" lon="-0.11994">
        <ele>62.4</ele>
        <time>2022-04-03T16:55:12Z</time>
      </trkpt>
      <trkpt lat="46.11535" lon="-0.12">
        <ele>62.4</ele>
        <time>2022-04-03T16:55:13Z</time>
      </trkpt>
      <trkpt lat="46.11539" lon="-0.12007">
        <ele>62.4</ele>
        <time>2022-04-03T16:55:14Z</time>
      </trkpt>
      <trkpt lat="46.11543" lon="-0.12013">
        <ele>62.4</ele>
        <time>2022-04-03T16:55:15Z</time>
      </trkpt>
      <trkpt lat="46.11547" lon="-0.1202">
        <ele>62.4</ele>
        <time>2022-04-03T16:55:16Z</time>
      </trkpt>
      <trkpt lat="46.11551" lon="-0.12026">
        <ele>62.4</ele>
        <time>2022-04-03T16:55:17Z</time>
      </trkpt>
      <trkpt lat="46.11555" lon="-0.12032">
        <ele>62.4</ele>
        <time>2022-04-03T16:55:18Z</time>
      </trkpt>
      <trkpt lat="46.11559" lon="-0.12039">
        <ele>62.4</ele>
        <time>2022-04-03T16:55:19Z</time>
      </trkpt>
      <trkpt lat="46.11563" lon="-0.12045">
        <ele>62.6</ele>
        <time>2022-04-03T16:55:20Z</time>
      </trkpt>
      <trkpt lat="46.11567" lon="-0.12051">
        <ele>62.6</ele>
        <time>2022-04-03T16:55:21Z</time>
      </trkpt>
      <trkpt lat="46.1157" lon="-0.12057">
        <ele>62.4</ele>
        <time>2022-04-03T16:55:22Z</time>
      </trkpt>
      <trkpt lat="46.11574" lon="-0.12062">
        <ele>62.6</ele>
        <time>2022-04-03T16:55:23Z</time>
      </trkpt>
      <trkpt lat="46.11578" lon="-0.12068">
        <ele>62.6</ele>
        <time>2022-04-03T16:55:24Z</time>
      </trkpt>
      <trkpt lat="46.11582" lon="-0.12074">
        <ele>62.8</ele>
        <time>2022-04-03T16:55:25Z</time>
      </trkpt>
      <trkpt lat="46.11586" lon="-0.1208">
        <ele>63</ele>
        <time>2022-04-03T16:55:26Z</time>
      </trkpt>
      <trkpt lat="46.11589" lon="-0.12085">
        <ele>63</ele>
        <time>2022-04-03T16:55:27Z</time>
      </trkpt>
      <trkpt lat="46.11593" lon="-0.12091">
        <ele>63.2</ele>
        <time>2022-04-03T16:55:28Z</time>
      </trkpt>
      <trkpt lat="46.11596" lon="-0.12096">
        <ele>63.2</ele>
        <time>2022-04-03T16:55:29Z</time>
      </trkpt>
      <trkpt lat="46.116" lon="-0.12102">
        <ele>63.4</ele>
        <time>2022-04-03T16:55:30Z</time>
      </trkpt>
      <trkpt lat="46.11604" lon="-0.12107">
        <ele>63.4</ele>
        <time>2022-04-03T16:55:31Z</time>
      </trkpt>
      <trkpt lat="46.11607" lon="-0.12113">
        <ele>63.6</ele>
        <time>2022-04-03T16:55:32Z</time>
      </trkpt>
      <trkpt lat="46.11611" lon="-0.12118">
        <ele>63.6</ele>
        <time>2022-04-03T16:55:33Z</time>
      </trkpt>
      <trkpt lat="46.11614" lon="-0.12124">
        <ele>63.6</ele>
        <time>2022-04-03T16:55:34Z</time>
      </trkpt>
      <trkpt lat="46.11618" lon="-0.12129">
        <ele>63.6</ele>
        <time>2022-04-03T16:55:35Z</time>
      </trkpt>
      <trkpt lat="46.11621" lon="-0.12134">
        <ele>63.8</ele>
        <time>2022-04-03T16:55:36Z</time>
      </trkpt>
      <trkpt lat="46.11625" lon="-0.12139">
        <ele>63.8</ele>
        <time>2022-04-03T16:55:37Z</time>
      </trkpt>
      <trkpt lat="46.11629" lon="-0.12143">
        <ele>63.8</ele>
        <time>2022-04-03T16:55:38Z</time>
      </trkpt>
      <trkpt lat="46.11633" lon="-0.12148">
        <ele>63.8</ele>
        <time>2022-04-03T16:55:39Z</time>
      </trkpt>
      <trkpt lat="46.11636" lon="-0.12153">
        <ele>64.2</ele>
        <time>2022-04-03T16:55:40Z</time>
      </trkpt>
      <trkpt lat="46.1164" lon="-0.12158">
        <ele>64.2</ele>
        <time>2022-04-03T16:55:41Z</time>
      </trkpt>
      <trkpt lat="46.11643" lon="-0.12163">
        <ele>64.4</ele>
        <time>2022-04-03T16:55:42Z</time>
      </trkpt>
      <trkpt lat="46.11647" lon="-0.12168">
        <ele>64.4</ele>
        <time>2022-04-03T16:55:43Z</time>
      </trkpt>
      <trkpt lat="46.1165" lon="-0.12174">
        <ele>64.4</ele>
        <time>2022-04-03T16:55:44Z</time>
      </trkpt>
      <trkpt lat="46.11653" lon="-0.12179">
        <ele>64.4</ele>
        <time>2022-04-03T16:55:45Z</time>
      </trkpt>
      <trkpt lat="46.11657" lon="-0.12184">
        <ele>64.6</ele>
        <time>2022-04-03T16:55:46Z</time>
      </trkpt>
      <trkpt lat="46.1166" lon="-0.12189">
        <ele>64.6</ele>
        <time>2022-04-03T16:55:47Z</time>
      </trkpt>
      <trkpt lat="46.11664" lon="-0.12194">
        <ele>64.8</ele>
        <time>2022-04-03T16:55:48Z</time>
      </trkpt>
      <trkpt lat="46.11667" lon="-0.122">
        <ele>65</ele>
        <time>2022-04-03T16:55:49Z</time>
      </trkpt>
      <trkpt lat="46.1167" lon="-0.12205">
        <ele>65</ele>
        <time>2022-04-03T16:55:50Z</time>
      </trkpt>
      <trkpt lat="46.11674" lon="-0.1221">
        <ele>65</ele>
        <time>2022-04-03T16:55:51Z</time>
      </trkpt>
      <trkpt lat="46.11677" lon="-0.12215">
        <ele>65.2</ele>
        <time>2022-04-03T16:55:52Z</time>
      </trkpt>
      <trkpt lat="46.1168" lon="-0.1222">
        <ele>65.2</ele>
        <time>2022-04-03T16:55:53Z</time>
      </trkpt>
      <trkpt lat="46.11683" lon="-0.12225">
        <ele>65.2</ele>
        <time>2022-04-03T16:55:54Z</time>
      </trkpt>
      <trkpt lat="46.11686" lon="-0.1223">
        <ele>65.4</ele>
        <time>2022-04-03T16:55:55Z</time>
      </trkpt>
      <trkpt lat="46.1169" lon="-0.12235">
        <ele>65.4</ele>
        <time>2022-04-03T16:55:56Z</time>
      </trkpt>
      <trkpt lat="46.11693" lon="-0.1224">
        <ele>65.4</ele>
        <time>2022-04-03T16:55:57Z</time>
      </trkpt>
      <trkpt lat="46.11696" lon="-0.12244">
        <ele>65.4</ele>
        <time>2022-04-03T16:55:58Z</time>
      </trkpt>
      <trkpt lat="46.117" lon="-0.12249">
        <ele>65.4</ele>
        <time>2022-04-03T16:55:59Z</time>
      </trkpt>
      <trkpt lat="46.11703" lon="-0.12253">
        <ele>65.6</ele>
        <time>2022-04-03T16:56:00Z</time>
      </trkpt>
      <trkpt lat="46.11707" lon="-0.12258">
        <ele>65.6</ele>
        <time>2022-04-03T16:56:01Z</time>
      </trkpt>
      <trkpt lat="46.1171" lon="-0.12262">
        <ele>65.6</ele>
        <time>2022-04-03T16:56:02Z</time>
      </trkpt>
      <trkpt lat="46.11714" lon="-0.12267">
        <ele>65.8</ele>
        <time>2022-04-03T16:56:03Z</time>
      </trkpt>
      <trkpt lat="46.11718" lon="-0.12271">
        <ele>65.8</ele>
        <time>2022-04-03T16:56:04Z</time>
      </trkpt>
      <trkpt lat="46.11721" lon="-0.12275">
        <ele>65.8</ele>
        <time>2022-04-03T16:56:05Z</time>
      </trkpt>
      <trkpt lat="46.11725" lon="-0.1228">
        <ele>66</ele>
        <time>2022-04-03T16:56:06Z</time>
      </trkpt>
      <trkpt lat="46.11729" lon="-0.12284">
        <ele>66</ele>
        <time>2022-04-03T16:56:07Z</time>
      </trkpt>
      <trkpt lat="46.11734" lon="-0.12289">
        <ele>66</ele>
        <time>2022-04-03T16:56:08Z</time>
      </trkpt>
      <trkpt lat="46.11737" lon="-0.12293">
        <ele>66</ele>
        <time>2022-04-03T16:56:09Z</time>
      </trkpt>
      <trkpt lat="46.11741" lon="-0.12297">
        <ele>66</ele>
        <time>2022-04-03T16:56:10Z</time>
      </trkpt>
      <trkpt lat="46.11745" lon="-0.12302">
        <ele>66</ele>
        <time>2022-04-03T16:56:11Z</time>
      </trkpt>
      <trkpt lat="46.11749" lon="-0.12307">
        <ele>66</ele>
        <time>2022-04-03T16:56:12Z</time>
      </trkpt>
      <trkpt lat="46.11753" lon="-0.12311">
        <ele>66</ele>
        <time>2022-04-03T16:56:13Z</time>
      </trkpt>
      <trkpt lat="46.11757" lon="-0.12315">
        <ele>66</ele>
        <time>2022-04-03T16:56:14Z</time>
      </trkpt>
      <trkpt lat="46.11761" lon="-0.12319">
        <ele>65.8</ele>
        <time>2022-04-03T16:56:15Z</time>
      </trkpt>
      <trkpt lat="46.11765" lon="-0.12324">
        <ele>65.6</ele>
        <time>2022-04-03T16:56:16Z</time>
      </trkpt>
      <trkpt lat="46.11769" lon="-0.12329">
        <ele>65.8</ele>
        <time>2022-04-03T16:56:17Z</time>
      </trkpt>
      <trkpt lat="46.11773" lon="-0.12334">
        <ele>65.6</ele>
        <time>2022-04-03T16:56:18Z</time>
      </trkpt>
      <trkpt lat="46.11778" lon="-0.12339">
        <ele>65.6</ele>
        <time>2022-04-03T16:56:19Z</time>
      </trkpt>
      <trkpt lat="46.11782" lon="-0.12344">
        <ele>65.6</ele>
        <time>2022-04-03T16:56:20Z</time>
      </trkpt>
      <trkpt lat="46.11787" lon="-0.1235">
        <ele>65.4</ele>
        <time>2022-04-03T16:56:21Z</time>
      </trkpt>
      <trkpt lat="46.11792" lon="-0.12355">
        <ele>65.2</ele>
        <time>2022-04-03T16:56:22Z</time>
      </trkpt>
      <trkpt lat="46.11797" lon="-0.12361">
        <ele>65</ele>
        <time>2022-04-03T16:56:23Z</time>
      </trkpt>
      <trkpt lat="46.11802" lon="-0.12366">
        <ele>65.2</ele>
        <time>2022-04-03T16:56:24Z</time>
      </trkpt>
      <trkpt lat="46.11807" lon="-0.12372">
        <ele>65</ele>
        <time>2022-04-03T16:56:25Z</time>
      </trkpt>
      <trkpt lat="46.11813" lon="-0.12377">
        <ele>65</ele>
        <time>2022-04-03T16:56:26Z</time>
      </trkpt>
      <trkpt lat="46.11818" lon="-0.12383">
        <ele>65</ele>
        <time>2022-04-03T16:56:27Z</time>
      </trkpt>
      <trkpt lat="46.11823" lon="-0.12388">
        <ele>65</ele>
        <time>2022-04-03T16:56:28Z</time>
      </trkpt>
      <trkpt lat="46.11829" lon="-0.12394">
        <ele>65</ele>
        <time>2022-04-03T16:56:29Z</time>
      </trkpt>
      <trkpt lat="46.11834" lon="-0.12399">
        <ele>65</ele>
        <time>2022-04-03T16:56:30Z</time>
      </trkpt>
      <trkpt lat="46.11839" lon="-0.12405">
        <ele>64.6</ele>
        <time>2022-04-03T16:56:31Z</time>
      </trkpt>
      <trkpt lat="46.11844" lon="-0.12411">
        <ele>64.4</ele>
        <time>2022-04-03T16:56:32Z</time>
      </trkpt>
      <trkpt lat="46.11849" lon="-0.12416">
        <ele>64.4</ele>
        <time>2022-04-03T16:56:33Z</time>
      </trkpt>
      <trkpt lat="46.11854" lon="-0.12421">
        <ele>64.4</ele>
        <time>2022-04-03T16:56:34Z</time>
      </trkpt>
      <trkpt lat="46.11859" lon="-0.12427">
        <ele>64</ele>
        <time>2022-04-03T16:56:35Z</time>
      </trkpt>
      <trkpt lat="46.11864" lon="-0.12434">
        <ele>64</ele>
        <time>2022-04-03T16:56:36Z</time>
      </trkpt>
      <trkpt lat="46.11869" lon="-0.1244">
        <ele>63.6</ele>
        <time>2022-04-03T16:56:37Z</time>
      </trkpt>
      <trkpt lat="46.11874" lon="-0.12446">
        <ele>63.6</ele>
        <time>2022-04-03T16:56:38Z</time>
      </trkpt>
      <trkpt lat="46.11879" lon="-0.12452">
        <ele>63.4</ele>
        <time>2022-04-03T16:56:39Z</time>
      </trkpt>
      <trkpt lat="46.11884" lon="-0.12458">
        <ele>63.4</ele>
        <time>2022-04-03T16:56:40Z</time>
      </trkpt>
      <trkpt lat="46.11889" lon="-0.12464">
        <ele>63.2</ele>
        <time>2022-04-03T16:56:41Z</time>
      </trkpt>
      <trkpt lat="46.11894" lon="-0.1247">
        <ele>63.2</ele>
        <time>2022-04-03T16:56:42Z</time>
      </trkpt>
      <trkpt lat="46.119" lon="-0.12475">
        <ele>63.2</ele>
        <time>2022-04-03T16:56:43Z</time>
      </trkpt>
      <trkpt lat="46.11905" lon="-0.12481">
        <ele>63.2</ele>
        <time>2022-04-03T16:56:44Z</time>
      </trkpt>
      <trkpt lat="46.1191" lon="-0.12488">
        <ele>63</ele>
        <time>2022-04-03T16:56:45Z</time>
      </trkpt>
      <trkpt lat="46.11916" lon="-0.12494">
        <ele>63</ele>
        <time>2022-04-03T16:56:46Z</time>
      </trkpt>
      <trkpt lat="46.11921" lon="-0.125">
        <ele>63</ele>
        <time>2022-04-03T16:56:47Z</time>
      </trkpt>
      <trkpt lat="46.11926" lon="-0.12506">
        <ele>62.8</ele>
        <time>2022-04-03T16:56:48Z</time>
      </trkpt>
      <trkpt lat="46.11931" lon="-0.12512">
        <ele>62.8</ele>
        <time>2022-04-03T16:56:49Z</time>
      </trkpt>
      <trkpt lat="46.11936" lon="-0.12518">
        <ele>62.8</ele>
        <time>2022-04-03T16:56:50Z</time>
      </trkpt>
      <trkpt lat="46.11941" lon="-0.12523">
        <ele>62.6</ele>
        <time>2022-04-03T16:56:51Z</time>
      </trkpt>
      <trkpt lat="46.11947" lon="-0.12529">
        <ele>62.6</ele>
        <time>2022-04-03T16:56:52Z</time>
      </trkpt>
      <trkpt lat="46.11952" lon="-0.12535">
        <ele>62.6</ele>
        <time>2022-04-03T16:56:53Z</time>
      </trkpt>
      <trkpt lat="46.11956" lon="-0.1254">
        <ele>62.6</ele>
        <time>2022-04-03T16:56:54Z</time>
      </trkpt>
      <trkpt lat="46.11961" lon="-0.12546">
        <ele>62.6</ele>
        <time>2022-04-03T16:56:55Z</time>
      </trkpt>
      <trkpt lat="46.11966" lon="-0.12552">
        <ele>62.6</ele>
        <time>2022-04-03T16:56:56Z</time>
      </trkpt>
      <trkpt lat="46.1197" lon="-0.12558">
        <ele>62.4</ele>
        <time>2022-04-03T16:56:57Z</time>
      </trkpt>
      <trkpt lat="46.11975" lon="-0.12563">
        <ele>62.4</ele>
        <time>2022-04-03T16:56:58Z</time>
      </trkpt>
      <trkpt lat="46.1198" lon="-0.12568">
        <ele>62.4</ele>
        <time>2022-04-03T16:56:59Z</time>
      </trkpt>
      <trkpt lat="46.11985" lon="-0.12572">
        <ele>62.4</ele>
        <time>2022-04-03T16:57:00Z</time>
      </trkpt>
      <trkpt lat="46.11989" lon="-0.12577">
        <ele>62.6</ele>
        <time>2022-04-03T16:57:01Z</time>
      </trkpt>
      <trkpt lat="46.11994" lon="-0.12582">
        <ele>62.4</ele>
        <time>2022-04-03T16:57:02Z</time>
      </trkpt>
      <trkpt lat="46.11998" lon="-0.12587">
        <ele>62.4</ele>
        <time>2022-04-03T16:57:03Z</time>
      </trkpt>
      <trkpt lat="46.12002" lon="-0.12592">
        <ele>62.4</ele>
        <time>2022-04-03T16:57:04Z</time>
      </trkpt>
      <trkpt lat="46.12007" lon="-0.12597">
        <ele>62.4</ele>
        <time>2022-04-03T16:57:05Z</time>
      </trkpt>
      <trkpt lat="46.12011" lon="-0.12601">
        <ele>62.2</ele>
        <time>2022-04-03T16:57:06Z</time>
      </trkpt>
      <trkpt lat="46.12015" lon="-0.12606">
        <ele>62.2</ele>
        <time>2022-04-03T16:57:07Z</time>
      </trkpt>
      <trkpt lat="46.12019" lon="-0.1261">
        <ele>62</ele>
        <time>2022-04-03T16:57:08Z</time>
      </trkpt>
      <trkpt lat="46.12023" lon="-0.12615">
        <ele>62</ele>
        <time>2022-04-03T16:57:09Z</time>
      </trkpt>
      <trkpt lat="46.12027" lon="-0.1262">
        <ele>61.8</ele>
        <time>2022-04-03T16:57:10Z</time>
      </trkpt>
      <trkpt lat="46.12032" lon="-0.12625">
        <ele>61.8</ele>
        <time>2022-04-03T16:57:11Z</time>
      </trkpt>
      <trkpt lat="46.12036" lon="-0.12629">
        <ele>61.8</ele>
        <time>2022-04-03T16:57:12Z</time>
      </trkpt>
      <trkpt lat="46.12041" lon="-0.12635">
        <ele>61.8</ele>
        <time>2022-04-03T16:57:13Z</time>
      </trkpt>
      <trkpt lat="46.12045" lon="-0.1264">
        <ele>61.6</ele>
        <time>2022-04-03T16:57:14Z</time>
      </trkpt>
      <trkpt lat="46.1205" lon="-0.12645">
        <ele>61.4</ele>
        <time>2022-04-03T16:57:15Z</time>
      </trkpt>
      <trkpt lat="46.12055" lon="-0.1265">
        <ele>61.6</ele>
        <time>2022-04-03T16:57:16Z</time>
      </trkpt>
      <trkpt lat="46.12059" lon="-0.12656">
        <ele>61.4</ele>
        <time>2022-04-03T16:57:17Z</time>
      </trkpt>
      <trkpt lat="46.12064" lon="-0.12661">
        <ele>61.4</ele>
        <time>2022-04-03T16:57:18Z</time>
      </trkpt>
      <trkpt lat="46.12069" lon="-0.12667">
        <ele>61.2</ele>
        <time>2022-04-03T16:57:19Z</time>
      </trkpt>
      <trkpt lat="46.12073" lon="-0.12672">
        <ele>61.2</ele>
        <time>2022-04-03T16:57:20Z</time>
      </trkpt>
      <trkpt lat="46.12078" lon="-0.12678">
        <ele>61.2</ele>
        <time>2022-04-03T16:57:21Z</time>
      </trkpt>
      <trkpt lat="46.12083" lon="-0.12683">
        <ele>61.2</ele>
        <time>2022-04-03T16:57:22Z</time>
      </trkpt>
      <trkpt lat="46.12088" lon="-0.12689">
        <ele>61</ele>
        <time>2022-04-03T16:57:23Z</time>
      </trkpt>
      <trkpt lat="46.12092" lon="-0.12694">
        <ele>61.2</ele>
        <time>2022-04-03T16:57:24Z</time>
      </trkpt>
      <trkpt lat="46.12097" lon="-0.12699">
        <ele>61</ele>
        <time>2022-04-03T16:57:25Z</time>
      </trkpt>
      <trkpt lat="46.12101" lon="-0.12704">
        <ele>61</ele>
        <time>2022-04-03T16:57:26Z</time>
      </trkpt>
      <trkpt lat="46.12105" lon="-0.12709">
        <ele>60.8</ele>
        <time>2022-04-03T16:57:27Z</time>
      </trkpt>
      <trkpt lat="46.1211" lon="-0.12713">
        <ele>60.8</ele>
        <time>2022-04-03T16:57:28Z</time>
      </trkpt>
      <trkpt lat="46.12114" lon="-0.12718">
        <ele>61</ele>
        <time>2022-04-03T16:57:29Z</time>
      </trkpt>
      <trkpt lat="46.12118" lon="-0.12723">
        <ele>61</ele>
        <time>2022-04-03T16:57:30Z</time>
      </trkpt>
      <trkpt lat="46.12123" lon="-0.12728">
        <ele>60.6</ele>
        <time>2022-04-03T16:57:31Z</time>
      </trkpt>
      <trkpt lat="46.12127" lon="-0.12734">
        <ele>60.6</ele>
        <time>2022-04-03T16:57:32Z</time>
      </trkpt>
      <trkpt lat="46.1213" lon="-0.12741">
        <ele>60.6</ele>
        <time>2022-04-03T16:57:33Z</time>
      </trkpt>
      <trkpt lat="46.12134" lon="-0.12748">
        <ele>60.4</ele>
        <time>2022-04-03T16:57:34Z</time>
      </trkpt>
      <trkpt lat="46.12138" lon="-0.12755">
        <ele>60.4</ele>
        <time>2022-04-03T16:57:35Z</time>
      </trkpt>
      <trkpt lat="46.12141" lon="-0.12763">
        <ele>60.6</ele>
        <time>2022-04-03T16:57:36Z</time>
      </trkpt>
      <trkpt lat="46.12144" lon="-0.12771">
        <ele>60.4</ele>
        <time>2022-04-03T16:57:37Z</time>
      </trkpt>
      <trkpt lat="46.12148" lon="-0.12778">
        <ele>60.4</ele>
        <time>2022-04-03T16:57:38Z</time>
      </trkpt>
      <trkpt lat="46.12151" lon="-0.12786">
        <ele>60.2</ele>
        <time>2022-04-03T16:57:39Z</time>
      </trkpt>
      <trkpt lat="46.12154" lon="-0.12794">
        <ele>60</ele>
        <time>2022-04-03T16:57:40Z</time>
      </trkpt>
      <trkpt lat="46.12157" lon="-0.12801">
        <ele>59.8</ele>
        <time>2022-04-03T16:57:41Z</time>
      </trkpt>
      <trkpt lat="46.1216" lon="-0.12809">
        <ele>59.6</ele>
        <time>2022-04-03T16:57:42Z</time>
      </trkpt>
      <trkpt lat="46.12163" lon="-0.12816">
        <ele>59.4</ele>
        <time>2022-04-03T16:57:43Z</time>
      </trkpt>
      <trkpt lat="46.12166" lon="-0.12823">
        <ele>59.2</ele>
        <time>2022-04-03T16:57:44Z</time>
      </trkpt>
      <trkpt lat="46.12169" lon="-0.12829">
        <ele>59.2</ele>
        <time>2022-04-03T16:57:45Z</time>
      </trkpt>
      <trkpt lat="46.12172" lon="-0.12836">
        <ele>59</ele>
        <time>2022-04-03T16:57:46Z</time>
      </trkpt>
      <trkpt lat="46.12174" lon="-0.12842">
        <ele>59.2</ele>
        <time>2022-04-03T16:57:47Z</time>
      </trkpt>
      <trkpt lat="46.12176" lon="-0.12848">
        <ele>59</ele>
        <time>2022-04-03T16:57:48Z</time>
      </trkpt>
      <trkpt lat="46.12179" lon="-0.12854">
        <ele>59</ele>
        <time>2022-04-03T16:57:49Z</time>
      </trkpt>
      <trkpt lat="46.12181" lon="-0.1286">
        <ele>59.2</ele>
        <time>2022-04-03T16:57:50Z</time>
      </trkpt>
      <trkpt lat="46.12184" lon="-0.12866">
        <ele>59.2</ele>
        <time>2022-04-03T16:57:51Z</time>
      </trkpt>
      <trkpt lat="46.12186" lon="-0.12872">
        <ele>59.2</ele>
        <time>2022-04-03T16:57:52Z</time>
      </trkpt>
      <trkpt lat="46.12188" lon="-0.12878">
        <ele>59.2</ele>
        <time>2022-04-03T16:57:53Z</time>
      </trkpt>
      <trkpt lat="46.1219" lon="-0.12884">
        <ele>59.2</ele>
        <time>2022-04-03T16:57:54Z</time>
      </trkpt>
      <trkpt lat="46.12193" lon="-0.12891">
        <ele>59.2</ele>
        <time>2022-04-03T16:57:55Z</time>
      </trkpt>
      <trkpt lat="46.12195" lon="-0.12897">
        <ele>59.2</ele>
        <time>2022-04-03T16:57:56Z</time>
      </trkpt>
      <trkpt lat="46.12198" lon="-0.12903">
        <ele>59.6</ele>
        <time>2022-04-03T16:57:57Z</time>
      </trkpt>
      <trkpt lat="46.12201" lon="-0.12909">
        <ele>59.6</ele>
        <time>2022-04-03T16:57:58Z</time>
      </trkpt>
      <trkpt lat="46.12204" lon="-0.12915">
        <ele>59.8</ele>
        <time>2022-04-03T16:57:59Z</time>
      </trkpt>
      <trkpt lat="46.12207" lon="-0.12921">
        <ele>59.8</ele>
        <time>2022-04-03T16:58:00Z</time>
      </trkpt>
      <trkpt lat="46.12211" lon="-0.12927">
        <ele>59.8</ele>
        <time>2022-04-03T16:58:01Z</time>
      </trkpt>
      <trkpt lat="46.12214" lon="-0.12933">
        <ele>59.8</ele>
        <time>2022-04-03T16:58:02Z</time>
      </trkpt>
      <trkpt lat="46.12218" lon="-0.1294">
        <ele>59.8</ele>
        <time>2022-04-03T16:58:03Z</time>
      </trkpt>
      <trkpt lat="46.12221" lon="-0.12946">
        <ele>60</ele>
        <time>2022-04-03T16:58:04Z</time>
      </trkpt>
      <trkpt lat="46.12224" lon="-0.12953">
        <ele>59.8</ele>
        <time>2022-04-03T16:58:05Z</time>
      </trkpt>
      <trkpt lat="46.12227" lon="-0.1296">
        <ele>59.8</ele>
        <time>2022-04-03T16:58:06Z</time>
      </trkpt>
      <trkpt lat="46.12231" lon="-0.12966">
        <ele>59.8</ele>
        <time>2022-04-03T16:58:07Z</time>
      </trkpt>
      <trkpt lat="46.12234" lon="-0.12973">
        <ele>59.8</ele>
        <time>2022-04-03T16:58:08Z</time>
      </trkpt>
      <trkpt lat="46.12237" lon="-0.12979">
        <ele>59.8</ele>
        <time>2022-04-03T16:58:09Z</time>
      </trkpt>
      <trkpt lat="46.1224" lon="-0.12986">
        <ele>60</ele>
        <time>2022-04-03T16:58:10Z</time>
      </trkpt>
      <trkpt lat="46.12243" lon="-0.12993">
        <ele>60</ele>
        <time>2022-04-03T16:58:11Z</time>
      </trkpt>
      <trkpt lat="46.12246" lon="-0.13">
        <ele>60</ele>
        <time>2022-04-03T16:58:12Z</time>
      </trkpt>
      <trkpt lat="46.12249" lon="-0.13006">
        <ele>60</ele>
        <time>2022-04-03T16:58:13Z</time>
      </trkpt>
      <trkpt lat="46.12252" lon="-0.13013">
        <ele>60</ele>
        <time>2022-04-03T16:58:14Z</time>
      </trkpt>
      <trkpt lat="46.12255" lon="-0.1302">
        <ele>60</ele>
        <time>2022-04-03T16:58:15Z</time>
      </trkpt>
      <trkpt lat="46.12258" lon="-0.13027">
        <ele>60.2</ele>
        <time>2022-04-03T16:58:16Z</time>
      </trkpt>
      <trkpt lat="46.12261" lon="-0.13034">
        <ele>60</ele>
        <time>2022-04-03T16:58:17Z</time>
      </trkpt>
      <trkpt lat="46.12264" lon="-0.13042">
        <ele>60.2</ele>
        <time>2022-04-03T16:58:18Z</time>
      </trkpt>
      <trkpt lat="46.12266" lon="-0.13049">
        <ele>60.2</ele>
        <time>2022-04-03T16:58:19Z</time>
      </trkpt>
      <trkpt lat="46.12269" lon="-0.13057">
        <ele>60</ele>
        <time>2022-04-03T16:58:20Z</time>
      </trkpt>
      <trkpt lat="46.12271" lon="-0.13064">
        <ele>60</ele>
        <time>2022-04-03T16:58:21Z</time>
      </trkpt>
      <trkpt lat="46.12274" lon="-0.13072">
        <ele>60</ele>
        <time>2022-04-03T16:58:22Z</time>
      </trkpt>
      <trkpt lat="46.12276" lon="-0.1308">
        <ele>60</ele>
        <time>2022-04-03T16:58:23Z</time>
      </trkpt>
      <trkpt lat="46.12278" lon="-0.13088">
        <ele>60.2</ele>
        <time>2022-04-03T16:58:24Z</time>
      </trkpt>
      <trkpt lat="46.1228" lon="-0.13096">
        <ele>59.8</ele>
        <time>2022-04-03T16:58:25Z</time>
      </trkpt>
      <trkpt lat="46.12283" lon="-0.13104">
        <ele>59.8</ele>
        <time>2022-04-03T16:58:26Z</time>
      </trkpt>
      <trkpt lat="46.12285" lon="-0.13112">
        <ele>60</ele>
        <time>2022-04-03T16:58:27Z</time>
      </trkpt>
      <trkpt lat="46.12287" lon="-0.13119">
        <ele>59.8</ele>
        <time>2022-04-03T16:58:28Z</time>
      </trkpt>
      <trkpt lat="46.1229" lon="-0.13127">
        <ele>59.8</ele>
        <time>2022-04-03T16:58:29Z</time>
      </trkpt>
      <trkpt lat="46.12292" lon="-0.13135">
        <ele>59.8</ele>
        <time>2022-04-03T16:58:30Z</time>
      </trkpt>
      <trkpt lat="46.12294" lon="-0.13143">
        <ele>59.8</ele>
        <time>2022-04-03T16:58:31Z</time>
      </trkpt>
      <trkpt lat="46.12297" lon="-0.13151">
        <ele>59.8</ele>
        <time>2022-04-03T16:58:32Z</time>
      </trkpt>
      <trkpt lat="46.12299" lon="-0.13159">
        <ele>59.8</ele>
        <time>2022-04-03T16:58:33Z</time>
      </trkpt>
      <trkpt lat="46.12302" lon="-0.13166">
        <ele>59.6</ele>
        <time>2022-04-03T16:58:34Z</time>
      </trkpt>
      <trkpt lat="46.12304" lon="-0.13174">
        <ele>59.4</ele>
        <time>2022-04-03T16:58:35Z</time>
      </trkpt>
      <trkpt lat="46.12307" lon="-0.13181">
        <ele>59.4</ele>
        <time>2022-04-03T16:58:36Z</time>
      </trkpt>
      <trkpt lat="46.12311" lon="-0.13189">
        <ele>59.2</ele>
        <time>2022-04-03T16:58:37Z</time>
      </trkpt>
      <trkpt lat="46.12314" lon="-0.13196">
        <ele>59.2</ele>
        <time>2022-04-03T16:58:38Z</time>
      </trkpt>
      <trkpt lat="46.12318" lon="-0.13203">
        <ele>59.2</ele>
        <time>2022-04-03T16:58:39Z</time>
      </trkpt>
      <trkpt lat="46.12321" lon="-0.1321">
        <ele>59.2</ele>
        <time>2022-04-03T16:58:40Z</time>
      </trkpt>
      <trkpt lat="46.12325" lon="-0.13217">
        <ele>59.2</ele>
        <time>2022-04-03T16:58:41Z</time>
      </trkpt>
      <trkpt lat="46.12328" lon="-0.13225">
        <ele>59.4</ele>
        <time>2022-04-03T16:58:42Z</time>
      </trkpt>
      <trkpt lat="46.12332" lon="-0.13232">
        <ele>59.2</ele>
        <time>2022-04-03T16:58:43Z</time>
      </trkpt>
      <trkpt lat="46.12335" lon="-0.13239">
        <ele>59.2</ele>
        <time>2022-04-03T16:58:44Z</time>
      </trkpt>
      <trkpt lat="46.12339" lon="-0.13246">
        <ele>59.2</ele>
        <time>2022-04-03T16:58:45Z</time>
      </trkpt>
      <trkpt lat="46.12342" lon="-0.13254">
        <ele>59.2</ele>
        <time>2022-04-03T16:58:46Z</time>
      </trkpt>
      <trkpt lat="46.12345" lon="-0.13262">
        <ele>59.2</ele>
        <time>2022-04-03T16:58:47Z</time>
      </trkpt>
      <trkpt lat="46.12348" lon="-0.1327">
        <ele>59.2</ele>
        <time>2022-04-03T16:58:48Z</time>
      </trkpt>
      <trkpt lat="46.12351" lon="-0.13278">
        <ele>59.2</ele>
        <time>2022-04-03T16:58:49Z</time>
      </trkpt>
      <trkpt lat="46.12354" lon="-0.13286">
        <ele>59.4</ele>
        <time>2022-04-03T16:58:50Z</time>
      </trkpt>
      <trkpt lat="46.12357" lon="-0.13295">
        <ele>59.4</ele>
        <time>2022-04-03T16:58:51Z</time>
      </trkpt>
      <trkpt lat="46.12359" lon="-0.13304">
        <ele>59</ele>
        <time>2022-04-03T16:58:52Z</time>
      </trkpt>
      <trkpt lat="46.12362" lon="-0.13312">
        <ele>59</ele>
        <time>2022-04-03T16:58:53Z</time>
      </trkpt>
      <trkpt lat="46.12365" lon="-0.13321">
        <ele>59</ele>
        <time>2022-04-03T16:58:54Z</time>
      </trkpt>
      <trkpt lat="46.12368" lon="-0.1333">
        <ele>59</ele>
        <time>2022-04-03T16:58:55Z</time>
      </trkpt>
      <trkpt lat="46.12371" lon="-0.13338">
        <ele>58.8</ele>
        <time>2022-04-03T16:58:56Z</time>
      </trkpt>
      <trkpt lat="46.12373" lon="-0.13347">
        <ele>59</ele>
        <time>2022-04-03T16:58:57Z</time>
      </trkpt>
      <trkpt lat="46.12376" lon="-0.13356">
        <ele>58.8</ele>
        <time>2022-04-03T16:58:58Z</time>
      </trkpt>
      <trkpt lat="46.12378" lon="-0.13365">
        <ele>59</ele>
        <time>2022-04-03T16:58:59Z</time>
      </trkpt>
      <trkpt lat="46.1238" lon="-0.13374">
        <ele>58.8</ele>
        <time>2022-04-03T16:59:00Z</time>
      </trkpt>
      <trkpt lat="46.12382" lon="-0.13383">
        <ele>58.8</ele>
        <time>2022-04-03T16:59:01Z</time>
      </trkpt>
      <trkpt lat="46.12384" lon="-0.13393">
        <ele>58.6</ele>
        <time>2022-04-03T16:59:02Z</time>
      </trkpt>
      <trkpt lat="46.12386" lon="-0.13402">
        <ele>58.8</ele>
        <time>2022-04-03T16:59:03Z</time>
      </trkpt>
      <trkpt lat="46.12387" lon="-0.13412">
        <ele>58.6</ele>
        <time>2022-04-03T16:59:04Z</time>
      </trkpt>
      <trkpt lat="46.12389" lon="-0.13422">
        <ele>58.6</ele>
        <time>2022-04-03T16:59:05Z</time>
      </trkpt>
      <trkpt lat="46.1239" lon="-0.13431">
        <ele>58.6</ele>
        <time>2022-04-03T16:59:06Z</time>
      </trkpt>
      <trkpt lat="46.12391" lon="-0.13441">
        <ele>58.4</ele>
        <time>2022-04-03T16:59:07Z</time>
      </trkpt>
      <trkpt lat="46.12393" lon="-0.13451">
        <ele>58.4</ele>
        <time>2022-04-03T16:59:08Z</time>
      </trkpt>
      <trkpt lat="46.12395" lon="-0.1346">
        <ele>58.4</ele>
        <time>2022-04-03T16:59:09Z</time>
      </trkpt>
      <trkpt lat="46.12397" lon="-0.13469">
        <ele>58.4</ele>
        <time>2022-04-03T16:59:10Z</time>
      </trkpt>
      <trkpt lat="46.12399" lon="-0.13479">
        <ele>58.2</ele>
        <time>2022-04-03T16:59:11Z</time>
      </trkpt>
      <trkpt lat="46.12401" lon="-0.13488">
        <ele>58.2</ele>
        <time>2022-04-03T16:59:12Z</time>
      </trkpt>
      <trkpt lat="46.12403" lon="-0.13497">
        <ele>58.2</ele>
        <time>2022-04-03T16:59:13Z</time>
      </trkpt>
      <trkpt lat="46.12406" lon="-0.13506">
        <ele>58</ele>
        <time>2022-04-03T16:59:14Z</time>
      </trkpt>
      <trkpt lat="46.12409" lon="-0.13514">
        <ele>57.8</ele>
        <time>2022-04-03T16:59:15Z</time>
      </trkpt>
      <trkpt lat="46.12412" lon="-0.13523">
        <ele>57.6</ele>
        <time>2022-04-03T16:59:16Z</time>
      </trkpt>
      <trkpt lat="46.12416" lon="-0.13531">
        <ele>57.8</ele>
        <time>2022-04-03T16:59:17Z</time>
      </trkpt>
      <trkpt lat="46.12419" lon="-0.13539">
        <ele>57.8</ele>
        <time>2022-04-03T16:59:18Z</time>
      </trkpt>
      <trkpt lat="46.12422" lon="-0.13546">
        <ele>57.8</ele>
        <time>2022-04-03T16:59:19Z</time>
      </trkpt>
      <trkpt lat="46.12426" lon="-0.13554">
        <ele>57.6</ele>
        <time>2022-04-03T16:59:20Z</time>
      </trkpt>
      <trkpt lat="46.12429" lon="-0.13562">
        <ele>57.6</ele>
        <time>2022-04-03T16:59:21Z</time>
      </trkpt>
      <trkpt lat="46.12432" lon="-0.13571">
        <ele>57.6</ele>
        <time>2022-04-03T16:59:22Z</time>
      </trkpt>
      <trkpt lat="46.12435" lon="-0.13579">
        <ele>57.6</ele>
        <time>2022-04-03T16:59:23Z</time>
      </trkpt>
      <trkpt lat="46.12439" lon="-0.13587">
        <ele>57.2</ele>
        <time>2022-04-03T16:59:24Z</time>
      </trkpt>
      <trkpt lat="46.12442" lon="-0.13596">
        <ele>57.2</ele>
        <time>2022-04-03T16:59:25Z</time>
      </trkpt>
      <trkpt lat="46.12445" lon="-0.13604">
        <ele>57.2</ele>
        <time>2022-04-03T16:59:26Z</time>
      </trkpt>
      <trkpt lat="46.12448" lon="-0.13613">
        <ele>57.2</ele>
        <time>2022-04-03T16:59:27Z</time>
      </trkpt>
      <trkpt lat="46.1245" lon="-0.13622">
        <ele>57.2</ele>
        <time>2022-04-03T16:59:28Z</time>
      </trkpt>
      <trkpt lat="46.12453" lon="-0.13631">
        <ele>57</ele>
        <time>2022-04-03T16:59:29Z</time>
      </trkpt>
      <trkpt lat="46.12456" lon="-0.1364">
        <ele>57.2</ele>
        <time>2022-04-03T16:59:30Z</time>
      </trkpt>
      <trkpt lat="46.12458" lon="-0.13649">
        <ele>57.4</ele>
        <time>2022-04-03T16:59:31Z</time>
      </trkpt>
      <trkpt lat="46.12461" lon="-0.13658">
        <ele>57.4</ele>
        <time>2022-04-03T16:59:32Z</time>
      </trkpt>
      <trkpt lat="46.12463" lon="-0.13668">
        <ele>57.6</ele>
        <time>2022-04-03T16:59:33Z</time>
      </trkpt>
      <trkpt lat="46.12465" lon="-0.13677">
        <ele>57.4</ele>
        <time>2022-04-03T16:59:34Z</time>
      </trkpt>
      <trkpt lat="46.12467" lon="-0.13686">
        <ele>57.6</ele>
        <time>2022-04-03T16:59:35Z</time>
      </trkpt>
      <trkpt lat="46.12469" lon="-0.13696">
        <ele>57.4</ele>
        <time>2022-04-03T16:59:36Z</time>
      </trkpt>
      <trkpt lat="46.12471" lon="-0.13705">
        <ele>57.6</ele>
        <time>2022-04-03T16:59:37Z</time>
      </trkpt>
      <trkpt lat="46.12473" lon="-0.13714">
        <ele>57.6</ele>
        <time>2022-04-03T16:59:38Z</time>
      </trkpt>
      <trkpt lat="46.12476" lon="-0.13723">
        <ele>57.6</ele>
        <time>2022-04-03T16:59:39Z</time>
      </trkpt>
      <trkpt lat="46.12478" lon="-0.13732">
        <ele>57.6</ele>
        <time>2022-04-03T16:59:40Z</time>
      </trkpt>
      <trkpt lat="46.1248" lon="-0.13741">
        <ele>57.6</ele>
        <time>2022-04-03T16:59:41Z</time>
      </trkpt>
      <trkpt lat="46.12483" lon="-0.13751">
        <ele>57.6</ele>
        <time>2022-04-03T16:59:42Z</time>
      </trkpt>
      <trkpt lat="46.12485" lon="-0.1376">
        <ele>57.6</ele>
        <time>2022-04-03T16:59:43Z</time>
      </trkpt>
      <trkpt lat="46.12488" lon="-0.13769">
        <ele>57.6</ele>
        <time>2022-04-03T16:59:44Z</time>
      </trkpt>
      <trkpt lat="46.1249" lon="-0.13778">
        <ele>57.6</ele>
        <time>2022-04-03T16:59:45Z</time>
      </trkpt>
      <trkpt lat="46.12493" lon="-0.13787">
        <ele>57.6</ele>
        <time>2022-04-03T16:59:46Z</time>
      </trkpt>
      <trkpt lat="46.12495" lon="-0.13796">
        <ele>57.6</ele>
        <time>2022-04-03T16:59:47Z</time>
      </trkpt>
      <trkpt lat="46.12498" lon="-0.13805">
        <ele>57.6</ele>
        <time>2022-04-03T16:59:48Z</time>
      </trkpt>
      <trkpt lat="46.125" lon="-0.13814">
        <ele>57.6</ele>
        <time>2022-04-03T16:59:49Z</time>
      </trkpt>
      <trkpt lat="46.12503" lon="-0.13823">
        <ele>57.6</ele>
        <time>2022-04-03T16:59:50Z</time>
      </trkpt>
      <trkpt lat="46.12505" lon="-0.13831">
        <ele>57.6</ele>
        <time>2022-04-03T16:59:51Z</time>
      </trkpt>
      <trkpt lat="46.12507" lon="-0.1384">
        <ele>57.6</ele>
        <time>2022-04-03T16:59:52Z</time>
      </trkpt>
      <trkpt lat="46.12509" lon="-0.13849">
        <ele>57.6</ele>
        <time>2022-04-03T16:59:53Z</time>
      </trkpt>
      <trkpt lat="46.12511" lon="-0.13858">
        <ele>57.6</ele>
        <time>2022-04-03T16:59:54Z</time>
      </trkpt>
      <trkpt lat="46.12514" lon="-0.13867">
        <ele>57.6</ele>
        <time>2022-04-03T16:59:55Z</time>
      </trkpt>
      <trkpt lat="46.12516" lon="-0.13876">
        <ele>57.6</ele>
        <time>2022-04-03T16:59:56Z</time>
      </trkpt>
      <trkpt lat="46.12518" lon="-0.13885">
        <ele>57.6</ele>
        <time>2022-04-03T16:59:57Z</time>
      </trkpt>
      <trkpt lat="46.1252" lon="-0.13894">
        <ele>57.6</ele>
        <time>2022-04-03T16:59:58Z</time>
      </trkpt>
      <trkpt lat="46.12523" lon="-0.13903">
        <ele>57.6</ele>
        <time>2022-04-03T16:59:59Z</time>
      </trkpt>
      <trkpt lat="46.12525" lon="-0.13912">
        <ele>57.6</ele>
        <time>2022-04-03T17:00:00Z</time>
      </trkpt>
      <trkpt lat="46.12527" lon="-0.1392">
        <ele>57.6</ele>
        <time>2022-04-03T17:00:01Z</time>
      </trkpt>
      <trkpt lat="46.12529" lon="-0.13929">
        <ele>57.6</ele>
        <time>2022-04-03T17:00:02Z</time>
      </trkpt>
      <trkpt lat="46.1253" lon="-0.13938">
        <ele>57.8</ele>
        <time>2022-04-03T17:00:03Z</time>
      </trkpt>
      <trkpt lat="46.12532" lon="-0.13947">
        <ele>57.6</ele>
        <time>2022-04-03T17:00:04Z</time>
      </trkpt>
      <trkpt lat="46.12534" lon="-0.13956">
        <ele>57.6</ele>
        <time>2022-04-03T17:00:05Z</time>
      </trkpt>
      <trkpt lat="46.12535" lon="-0.13965">
        <ele>57.6</ele>
        <time>2022-04-03T17:00:06Z</time>
      </trkpt>
      <trkpt lat="46.12537" lon="-0.13974">
        <ele>57.6</ele>
        <time>2022-04-03T17:00:07Z</time>
      </trkpt>
      <trkpt lat="46.12538" lon="-0.13983">
        <ele>57.6</ele>
        <time>2022-04-03T17:00:08Z</time>
      </trkpt>
      <trkpt lat="46.1254" lon="-0.13992">
        <ele>57.6</ele>
        <time>2022-04-03T17:00:09Z</time>
      </trkpt>
      <trkpt lat="46.12542" lon="-0.14001">
        <ele>57.6</ele>
        <time>2022-04-03T17:00:10Z</time>
      </trkpt>
      <trkpt lat="46.12543" lon="-0.1401">
        <ele>57.6</ele>
        <time>2022-04-03T17:00:11Z</time>
      </trkpt>
      <trkpt lat="46.12546" lon="-0.14019">
        <ele>57.6</ele>
        <time>2022-04-03T17:00:12Z</time>
      </trkpt>
      <trkpt lat="46.12548" lon="-0.14028">
        <ele>57.6</ele>
        <time>2022-04-03T17:00:13Z</time>
      </trkpt>
      <trkpt lat="46.12551" lon="-0.14036">
        <ele>57.8</ele>
        <time>2022-04-03T17:00:14Z</time>
      </trkpt>
      <trkpt lat="46.12554" lon="-0.14044">
        <ele>57.8</ele>
        <time>2022-04-03T17:00:15Z</time>
      </trkpt>
      <trkpt lat="46.12558" lon="-0.14053">
        <ele>57.8</ele>
        <time>2022-04-03T17:00:16Z</time>
      </trkpt>
      <trkpt lat="46.12561" lon="-0.14061">
        <ele>57.6</ele>
        <time>2022-04-03T17:00:17Z</time>
      </trkpt>
      <trkpt lat="46.12564" lon="-0.14069">
        <ele>57.6</ele>
        <time>2022-04-03T17:00:18Z</time>
      </trkpt>
      <trkpt lat="46.12567" lon="-0.14078">
        <ele>57.6</ele>
        <time>2022-04-03T17:00:19Z</time>
      </trkpt>
      <trkpt lat="46.12571" lon="-0.14086">
        <ele>57.6</ele>
        <time>2022-04-03T17:00:20Z</time>
      </trkpt>
      <trkpt lat="46.12574" lon="-0.14094">
        <ele>57.6</ele>
        <time>2022-04-03T17:00:21Z</time>
      </trkpt>
      <trkpt lat="46.12578" lon="-0.14102">
        <ele>57.6</ele>
        <time>2022-04-03T17:00:22Z</time>
      </trkpt>
      <trkpt lat="46.12581" lon="-0.1411">
        <ele>57.6</ele>
        <time>2022-04-03T17:00:23Z</time>
      </trkpt>
      <trkpt lat="46.12584" lon="-0.14118">
        <ele>57.6</ele>
        <time>2022-04-03T17:00:24Z</time>
      </trkpt>
      <trkpt lat="46.12588" lon="-0.14126">
        <ele>57.6</ele>
        <time>2022-04-03T17:00:25Z</time>
      </trkpt>
      <trkpt lat="46.12591" lon="-0.14134">
        <ele>57.6</ele>
        <time>2022-04-03T17:00:26Z</time>
      </trkpt>
      <trkpt lat="46.12595" lon="-0.14142">
        <ele>57.6</ele>
        <time>2022-04-03T17:00:27Z</time>
      </trkpt>
      <trkpt lat="46.12598" lon="-0.1415">
        <ele>57.6</ele>
        <time>2022-04-03T17:00:28Z</time>
      </trkpt>
      <trkpt lat="46.12602" lon="-0.14158">
        <ele>57.6</ele>
        <time>2022-04-03T17:00:29Z</time>
      </trkpt>
      <trkpt lat="46.12605" lon="-0.14166">
        <ele>57.6</ele>
        <time>2022-04-03T17:00:30Z</time>
      </trkpt>
      <trkpt lat="46.12609" lon="-0.14174">
        <ele>57.6</ele>
        <time>2022-04-03T17:00:31Z</time>
      </trkpt>
      <trkpt lat="46.12612" lon="-0.14181">
        <ele>57.4</ele>
        <time>2022-04-03T17:00:32Z</time>
      </trkpt>
      <trkpt lat="46.12616" lon="-0.14189">
        <ele>57.6</ele>
        <time>2022-04-03T17:00:33Z</time>
      </trkpt>
      <trkpt lat="46.12619" lon="-0.14197">
        <ele>57.6</ele>
        <time>2022-04-03T17:00:34Z</time>
      </trkpt>
      <trkpt lat="46.12623" lon="-0.14204">
        <ele>57.6</ele>
        <time>2022-04-03T17:00:35Z</time>
      </trkpt>
      <trkpt lat="46.12626" lon="-0.14212">
        <ele>57.6</ele>
        <time>2022-04-03T17:00:36Z</time>
      </trkpt>
      <trkpt lat="46.1263" lon="-0.14219">
        <ele>57.8</ele>
        <time>2022-04-03T17:00:37Z</time>
      </trkpt>
      <trkpt lat="46.12633" lon="-0.14227">
        <ele>57.8</ele>
        <time>2022-04-03T17:00:38Z</time>
      </trkpt>
      <trkpt lat="46.12637" lon="-0.14234">
        <ele>57.8</ele>
        <time>2022-04-03T17:00:39Z</time>
      </trkpt>
      <trkpt lat="46.12641" lon="-0.14242">
        <ele>57.8</ele>
        <time>2022-04-03T17:00:40Z</time>
      </trkpt>
      <trkpt lat="46.12644" lon="-0.14249">
        <ele>57.8</ele>
        <time>2022-04-03T17:00:41Z</time>
      </trkpt>
      <trkpt lat="46.12648" lon="-0.14257">
        <ele>57.8</ele>
        <time>2022-04-03T17:00:42Z</time>
      </trkpt>
      <trkpt lat="46.12651" lon="-0.14265">
        <ele>57.8</ele>
        <time>2022-04-03T17:00:43Z</time>
      </trkpt>
      <trkpt lat="46.12655" lon="-0.14273">
        <ele>57.8</ele>
        <time>2022-04-03T17:00:44Z</time>
      </trkpt>
      <trkpt lat="46.12658" lon="-0.14281">
        <ele>58</ele>
        <time>2022-04-03T17:00:45Z</time>
      </trkpt>
      <trkpt lat="46.12661" lon="-0.14288">
        <ele>57.8</ele>
        <time>2022-04-03T17:00:46Z</time>
      </trkpt>
      <trkpt lat="46.12665" lon="-0.14296">
        <ele>57.8</ele>
        <time>2022-04-03T17:00:47Z</time>
      </trkpt>
      <trkpt lat="46.12668" lon="-0.14304">
        <ele>58</ele>
        <time>2022-04-03T17:00:48Z</time>
      </trkpt>
      <trkpt lat="46.12671" lon="-0.14312">
        <ele>58</ele>
        <time>2022-04-03T17:00:49Z</time>
      </trkpt>
      <trkpt lat="46.12674" lon="-0.14321">
        <ele>58</ele>
        <time>2022-04-03T17:00:50Z</time>
      </trkpt>
      <trkpt lat="46.12677" lon="-0.14329">
        <ele>58</ele>
        <time>2022-04-03T17:00:51Z</time>
      </trkpt>
      <trkpt lat="46.1268" lon="-0.14338">
        <ele>58</ele>
        <time>2022-04-03T17:00:52Z</time>
      </trkpt>
      <trkpt lat="46.12683" lon="-0.14346">
        <ele>58</ele>
        <time>2022-04-03T17:00:53Z</time>
      </trkpt>
      <trkpt lat="46.12686" lon="-0.14354">
        <ele>58</ele>
        <time>2022-04-03T17:00:54Z</time>
      </trkpt>
      <trkpt lat="46.12689" lon="-0.14363">
        <ele>58</ele>
        <time>2022-04-03T17:00:55Z</time>
      </trkpt>
      <trkpt lat="46.12693" lon="-0.14371">
        <ele>58</ele>
        <time>2022-04-03T17:00:56Z</time>
      </trkpt>
      <trkpt lat="46.12696" lon="-0.14379">
        <ele>58.2</ele>
        <time>2022-04-03T17:00:57Z</time>
      </trkpt>
      <trkpt lat="46.12699" lon="-0.14388">
        <ele>58.2</ele>
        <time>2022-04-03T17:00:58Z</time>
      </trkpt>
      <trkpt lat="46.12702" lon="-0.14396">
        <ele>58.2</ele>
        <time>2022-04-03T17:00:59Z</time>
      </trkpt>
      <trkpt lat="46.12705" lon="-0.14404">
        <ele>58.2</ele>
        <time>2022-04-03T17:01:00Z</time>
      </trkpt>
      <trkpt lat="46.12708" lon="-0.14413">
        <ele>58</ele>
        <time>2022-04-03T17:01:01Z</time>
      </trkpt>
      <trkpt lat="46.12712" lon="-0.14421">
        <ele>58</ele>
        <time>2022-04-03T17:01:02Z</time>
      </trkpt>
      <trkpt lat="46.12715" lon="-0.1443">
        <ele>58</ele>
        <time>2022-04-03T17:01:03Z</time>
      </trkpt>
      <trkpt lat="46.12718" lon="-0.14438">
        <ele>58.2</ele>
        <time>2022-04-03T17:01:04Z</time>
      </trkpt>
      <trkpt lat="46.12721" lon="-0.14446">
        <ele>58.2</ele>
        <time>2022-04-03T17:01:05Z</time>
      </trkpt>
      <trkpt lat="46.12724" lon="-0.14455">
        <ele>58.2</ele>
        <time>2022-04-03T17:01:06Z</time>
      </trkpt>
      <trkpt lat="46.12727" lon="-0.14463">
        <ele>58</ele>
        <time>2022-04-03T17:01:07Z</time>
      </trkpt>
      <trkpt lat="46.1273" lon="-0.14471">
        <ele>58</ele>
        <time>2022-04-03T17:01:08Z</time>
      </trkpt>
      <trkpt lat="46.12733" lon="-0.14479">
        <ele>58</ele>
        <time>2022-04-03T17:01:09Z</time>
      </trkpt>
      <trkpt lat="46.12736" lon="-0.14487">
        <ele>58</ele>
        <time>2022-04-03T17:01:10Z</time>
      </trkpt>
      <trkpt lat="46.12739" lon="-0.14495">
        <ele>58</ele>
        <time>2022-04-03T17:01:11Z</time>
      </trkpt>
      <trkpt lat="46.12742" lon="-0.14503">
        <ele>57.8</ele>
        <time>2022-04-03T17:01:12Z</time>
      </trkpt>
      <trkpt lat="46.12745" lon="-0.14511">
        <ele>58</ele>
        <time>2022-04-03T17:01:13Z</time>
      </trkpt>
      <trkpt lat="46.12748" lon="-0.14518">
        <ele>58</ele>
        <time>2022-04-03T17:01:14Z</time>
      </trkpt>
      <trkpt lat="46.12751" lon="-0.14526">
        <ele>58</ele>
        <time>2022-04-03T17:01:15Z</time>
      </trkpt>
      <trkpt lat="46.12754" lon="-0.14533">
        <ele>58</ele>
        <time>2022-04-03T17:01:16Z</time>
      </trkpt>
      <trkpt lat="46.12757" lon="-0.1454">
        <ele>58</ele>
        <time>2022-04-03T17:01:17Z</time>
      </trkpt>
      <trkpt lat="46.12761" lon="-0.14547">
        <ele>58</ele>
        <time>2022-04-03T17:01:18Z</time>
      </trkpt>
      <trkpt lat="46.12764" lon="-0.14554">
        <ele>58</ele>
        <time>2022-04-03T17:01:19Z</time>
      </trkpt>
      <trkpt lat="46.12767" lon="-0.1456">
        <ele>57.8</ele>
        <time>2022-04-03T17:01:20Z</time>
      </trkpt>
      <trkpt lat="46.1277" lon="-0.14567">
        <ele>58</ele>
        <time>2022-04-03T17:01:21Z</time>
      </trkpt>
      <trkpt lat="46.12774" lon="-0.14573">
        <ele>58.2</ele>
        <time>2022-04-03T17:01:22Z</time>
      </trkpt>
      <trkpt lat="46.12777" lon="-0.14578">
        <ele>58.2</ele>
        <time>2022-04-03T17:01:23Z</time>
      </trkpt>
      <trkpt lat="46.12781" lon="-0.14583">
        <ele>58.6</ele>
        <time>2022-04-03T17:01:24Z</time>
      </trkpt>
      <trkpt lat="46.12785" lon="-0.14588">
        <ele>58.6</ele>
        <time>2022-04-03T17:01:25Z</time>
      </trkpt>
      <trkpt lat="46.12788" lon="-0.14593">
        <ele>58.8</ele>
        <time>2022-04-03T17:01:26Z</time>
      </trkpt>
      <trkpt lat="46.12792" lon="-0.14598">
        <ele>59</ele>
        <time>2022-04-03T17:01:27Z</time>
      </trkpt>
      <trkpt lat="46.12795" lon="-0.14603">
        <ele>59</ele>
        <time>2022-04-03T17:01:28Z</time>
      </trkpt>
      <trkpt lat="46.12799" lon="-0.14608">
        <ele>59.2</ele>
        <time>2022-04-03T17:01:29Z</time>
      </trkpt>
      <trkpt lat="46.12802" lon="-0.14612">
        <ele>59.4</ele>
        <time>2022-04-03T17:01:30Z</time>
      </trkpt>
      <trkpt lat="46.12806" lon="-0.14617">
        <ele>59.4</ele>
        <time>2022-04-03T17:01:31Z</time>
      </trkpt>
      <trkpt lat="46.12809" lon="-0.14621">
        <ele>59.4</ele>
        <time>2022-04-03T17:01:32Z</time>
      </trkpt>
      <trkpt lat="46.12813" lon="-0.14625">
        <ele>59.8</ele>
        <time>2022-04-03T17:01:33Z</time>
      </trkpt>
      <trkpt lat="46.12816" lon="-0.1463">
        <ele>59.8</ele>
        <time>2022-04-03T17:01:34Z</time>
      </trkpt>
      <trkpt lat="46.12819" lon="-0.14634">
        <ele>59.8</ele>
        <time>2022-04-03T17:01:35Z</time>
      </trkpt>
      <trkpt lat="46.12823" lon="-0.14638">
        <ele>60</ele>
        <time>2022-04-03T17:01:36Z</time>
      </trkpt>
      <trkpt lat="46.12826" lon="-0.14643">
        <ele>60</ele>
        <time>2022-04-03T17:01:37Z</time>
      </trkpt>
      <trkpt lat="46.12829" lon="-0.14647">
        <ele>60</ele>
        <time>2022-04-03T17:01:38Z</time>
      </trkpt>
      <trkpt lat="46.12832" lon="-0.14651">
        <ele>60</ele>
        <time>2022-04-03T17:01:39Z</time>
      </trkpt>
      <trkpt lat="46.12836" lon="-0.14655">
        <ele>60</ele>
        <time>2022-04-03T17:01:40Z</time>
      </trkpt>
      <trkpt lat="46.12839" lon="-0.14659">
        <ele>60</ele>
        <time>2022-04-03T17:01:41Z</time>
      </trkpt>
      <trkpt lat="46.12842" lon="-0.14663">
        <ele>60</ele>
        <time>2022-04-03T17:01:42Z</time>
      </trkpt>
      <trkpt lat="46.12845" lon="-0.14667">
        <ele>60</ele>
        <time>2022-04-03T17:01:43Z</time>
      </trkpt>
      <trkpt lat="46.12848" lon="-0.1467">
        <ele>60</ele>
        <time>2022-04-03T17:01:44Z</time>
      </trkpt>
      <trkpt lat="46.12851" lon="-0.14674">
        <ele>60</ele>
        <time>2022-04-03T17:01:45Z</time>
      </trkpt>
      <trkpt lat="46.12854" lon="-0.14678">
        <ele>60</ele>
        <time>2022-04-03T17:01:46Z</time>
      </trkpt>
      <trkpt lat="46.12857" lon="-0.14682">
        <ele>60</ele>
        <time>2022-04-03T17:01:47Z</time>
      </trkpt>
      <trkpt lat="46.12859" lon="-0.14685">
        <ele>60</ele>
        <time>2022-04-03T17:01:48Z</time>
      </trkpt>
      <trkpt lat="46.12862" lon="-0.14689">
        <ele>60</ele>
        <time>2022-04-03T17:01:49Z</time>
      </trkpt>
      <trkpt lat="46.12865" lon="-0.14692">
        <ele>60</ele>
        <time>2022-04-03T17:01:50Z</time>
      </trkpt>
      <trkpt lat="46.12867" lon="-0.14696">
        <ele>60</ele>
        <time>2022-04-03T17:01:51Z</time>
      </trkpt>
      <trkpt lat="46.1287" lon="-0.14699">
        <ele>60.2</ele>
        <time>2022-04-03T17:01:52Z</time>
      </trkpt>
      <trkpt lat="46.12873" lon="-0.14702">
        <ele>60</ele>
        <time>2022-04-03T17:01:53Z</time>
      </trkpt>
      <trkpt lat="46.12875" lon="-0.14706">
        <ele>60</ele>
        <time>2022-04-03T17:01:54Z</time>
      </trkpt>
      <trkpt lat="46.12878" lon="-0.14709">
        <ele>60</ele>
        <time>2022-04-03T17:01:55Z</time>
      </trkpt>
      <trkpt lat="46.12881" lon="-0.14713">
        <ele>60</ele>
        <time>2022-04-03T17:01:56Z</time>
      </trkpt>
      <trkpt lat="46.12884" lon="-0.14717">
        <ele>60</ele>
        <time>2022-04-03T17:01:57Z</time>
      </trkpt>
      <trkpt lat="46.12887" lon="-0.1472">
        <ele>60</ele>
        <time>2022-04-03T17:01:58Z</time>
      </trkpt>
      <trkpt lat="46.1289" lon="-0.14724">
        <ele>60</ele>
        <time>2022-04-03T17:01:59Z</time>
      </trkpt>
      <trkpt lat="46.12892" lon="-0.14728">
        <ele>60</ele>
        <time>2022-04-03T17:02:00Z</time>
      </trkpt>
      <trkpt lat="46.12895" lon="-0.14731">
        <ele>60</ele>
        <time>2022-04-03T17:02:01Z</time>
      </trkpt>
      <trkpt lat="46.12898" lon="-0.14735">
        <ele>60.2</ele>
        <time>2022-04-03T17:02:02Z</time>
      </trkpt>
      <trkpt lat="46.12901" lon="-0.14738">
        <ele>60.2</ele>
        <time>2022-04-03T17:02:03Z</time>
      </trkpt>
      <trkpt lat="46.12904" lon="-0.14742">
        <ele>60.2</ele>
        <time>2022-04-03T17:02:04Z</time>
      </trkpt>
      <trkpt lat="46.12906" lon="-0.14745">
        <ele>60.4</ele>
        <time>2022-04-03T17:02:05Z</time>
      </trkpt>
      <trkpt lat="46.12909" lon="-0.14748">
        <ele>60.2</ele>
        <time>2022-04-03T17:02:06Z</time>
      </trkpt>
      <trkpt lat="46.12912" lon="-0.14751">
        <ele>60.4</ele>
        <time>2022-04-03T17:02:07Z</time>
      </trkpt>
      <trkpt lat="46.12915" lon="-0.14755">
        <ele>60.4</ele>
        <time>2022-04-03T17:02:08Z</time>
      </trkpt>
      <trkpt lat="46.12918" lon="-0.14758">
        <ele>60.4</ele>
        <time>2022-04-03T17:02:09Z</time>
      </trkpt>
      <trkpt lat="46.12921" lon="-0.14761">
        <ele>60.8</ele>
        <time>2022-04-03T17:02:10Z</time>
      </trkpt>
      <trkpt lat="46.12923" lon="-0.14764">
        <ele>60.8</ele>
        <time>2022-04-03T17:02:11Z</time>
      </trkpt>
      <trkpt lat="46.12926" lon="-0.14767">
        <ele>61</ele>
        <time>2022-04-03T17:02:12Z</time>
      </trkpt>
      <trkpt lat="46.12928" lon="-0.14769">
        <ele>60.8</ele>
        <time>2022-04-03T17:02:13Z</time>
      </trkpt>
      <trkpt lat="46.12931" lon="-0.14772">
        <ele>61.2</ele>
        <time>2022-04-03T17:02:14Z</time>
      </trkpt>
      <trkpt lat="46.12933" lon="-0.14774">
        <ele>61.2</ele>
        <time>2022-04-03T17:02:15Z</time>
      </trkpt>
      <trkpt lat="46.12935" lon="-0.14776">
        <ele>61.2</ele>
        <time>2022-04-03T17:02:16Z</time>
      </trkpt>
      <trkpt lat="46.12937" lon="-0.14779">
        <ele>61.2</ele>
        <time>2022-04-03T17:02:17Z</time>
      </trkpt>
      <trkpt lat="46.1294" lon="-0.14781">
        <ele>61.4</ele>
        <time>2022-04-03T17:02:18Z</time>
      </trkpt>
      <trkpt lat="46.12942" lon="-0.14783">
        <ele>61.4</ele>
        <time>2022-04-03T17:02:19Z</time>
      </trkpt>
      <trkpt lat="46.12944" lon="-0.14786">
        <ele>61.4</ele>
        <time>2022-04-03T17:02:20Z</time>
      </trkpt>
      <trkpt lat="46.12946" lon="-0.14788">
        <ele>61.6</ele>
        <time>2022-04-03T17:02:21Z</time>
      </trkpt>
      <trkpt lat="46.12948" lon="-0.1479">
        <ele>62</ele>
        <time>2022-04-03T17:02:22Z</time>
      </trkpt>
      <trkpt lat="46.1295" lon="-0.14793">
        <ele>62.2</ele>
        <time>2022-04-03T17:02:23Z</time>
      </trkpt>
      <trkpt lat="46.12952" lon="-0.14795">
        <ele>62.4</ele>
        <time>2022-04-03T17:02:24Z</time>
      </trkpt>
      <trkpt lat="46.12954" lon="-0.14798">
        <ele>62.6</ele>
        <time>2022-04-03T17:02:25Z</time>
      </trkpt>
      <trkpt lat="46.12957" lon="-0.14801">
        <ele>62.8</ele>
        <time>2022-04-03T17:02:26Z</time>
      </trkpt>
      <trkpt lat="46.12959" lon="-0.14803">
        <ele>63</ele>
        <time>2022-04-03T17:02:27Z</time>
      </trkpt>
      <trkpt lat="46.12962" lon="-0.14806">
        <ele>63</ele>
        <time>2022-04-03T17:02:28Z</time>
      </trkpt>
      <trkpt lat="46.12964" lon="-0.14809">
        <ele>63.2</ele>
        <time>2022-04-03T17:02:29Z</time>
      </trkpt>
      <trkpt lat="46.12966" lon="-0.14812">
        <ele>63.4</ele>
        <time>2022-04-03T17:02:30Z</time>
      </trkpt>
      <trkpt lat="46.12969" lon="-0.14815">
        <ele>63.4</ele>
        <time>2022-04-03T17:02:31Z</time>
      </trkpt>
      <trkpt lat="46.12971" lon="-0.14818">
        <ele>63.4</ele>
        <time>2022-04-03T17:02:32Z</time>
      </trkpt>
      <trkpt lat="46.12974" lon="-0.14821">
        <ele>63.8</ele>
        <time>2022-04-03T17:02:33Z</time>
      </trkpt>
      <trkpt lat="46.12976" lon="-0.14824">
        <ele>63.8</ele>
        <time>2022-04-03T17:02:34Z</time>
      </trkpt>
      <trkpt lat="46.12978" lon="-0.14827">
        <ele>64</ele>
        <time>2022-04-03T17:02:35Z</time>
      </trkpt>
      <trkpt lat="46.1298" lon="-0.1483">
        <ele>64</ele>
        <time>2022-04-03T17:02:36Z</time>
      </trkpt>
      <trkpt lat="46.12982" lon="-0.14833">
        <ele>64.2</ele>
        <time>2022-04-03T17:02:37Z</time>
      </trkpt>
      <trkpt lat="46.12985" lon="-0.14836">
        <ele>64.2</ele>
        <time>2022-04-03T17:02:38Z</time>
      </trkpt>
      <trkpt lat="46.12987" lon="-0.14839">
        <ele>64.2</ele>
        <time>2022-04-03T17:02:39Z</time>
      </trkpt>
      <trkpt lat="46.12989" lon="-0.14843">
        <ele>64.2</ele>
        <time>2022-04-03T17:02:40Z</time>
      </trkpt>
      <trkpt lat="46.1299" lon="-0.14846">
        <ele>64.4</ele>
        <time>2022-04-03T17:02:41Z</time>
      </trkpt>
      <trkpt lat="46.12993" lon="-0.14849">
        <ele>64.4</ele>
        <time>2022-04-03T17:02:42Z</time>
      </trkpt>
      <trkpt lat="46.12995" lon="-0.14853">
        <ele>64.4</ele>
        <time>2022-04-03T17:02:43Z</time>
      </trkpt>
      <trkpt lat="46.12997" lon="-0.14856">
        <ele>64.6</ele>
        <time>2022-04-03T17:02:44Z</time>
      </trkpt>
      <trkpt lat="46.12999" lon="-0.14859">
        <ele>64.8</ele>
        <time>2022-04-03T17:02:45Z</time>
      </trkpt>
      <trkpt lat="46.13" lon="-0.14862">
        <ele>64.8</ele>
        <time>2022-04-03T17:02:46Z</time>
      </trkpt>
      <trkpt lat="46.13003" lon="-0.14866">
        <ele>64.8</ele>
        <time>2022-04-03T17:02:47Z</time>
      </trkpt>
      <trkpt lat="46.13005" lon="-0.14869">
        <ele>65</ele>
        <time>2022-04-03T17:02:48Z</time>
      </trkpt>
      <trkpt lat="46.13007" lon="-0.14872">
        <ele>65</ele>
        <time>2022-04-03T17:02:49Z</time>
      </trkpt>
      <trkpt lat="46.13008" lon="-0.14875">
        <ele>65</ele>
        <time>2022-04-03T17:02:50Z</time>
      </trkpt>
      <trkpt lat="46.1301" lon="-0.14879">
        <ele>65.2</ele>
        <time>2022-04-03T17:02:51Z</time>
      </trkpt>
      <trkpt lat="46.13012" lon="-0.14882">
        <ele>65.4</ele>
        <time>2022-04-03T17:02:52Z</time>
      </trkpt>
      <trkpt lat="46.13014" lon="-0.14886">
        <ele>65.4</ele>
        <time>2022-04-03T17:02:53Z</time>
      </trkpt>
      <trkpt lat="46.13016" lon="-0.14889">
        <ele>65.6</ele>
        <time>2022-04-03T17:02:54Z</time>
      </trkpt>
      <trkpt lat="46.13018" lon="-0.14893">
        <ele>65.8</ele>
        <time>2022-04-03T17:02:55Z</time>
      </trkpt>
      <trkpt lat="46.13019" lon="-0.14897">
        <ele>65.8</ele>
        <time>2022-04-03T17:02:56Z</time>
      </trkpt>
      <trkpt lat="46.13021" lon="-0.149">
        <ele>65.8</ele>
        <time>2022-04-03T17:02:57Z</time>
      </trkpt>
      <trkpt lat="46.13023" lon="-0.14904">
        <ele>65.8</ele>
        <time>2022-04-03T17:02:58Z</time>
      </trkpt>
      <trkpt lat="46.13025" lon="-0.14908">
        <ele>66</ele>
        <time>2022-04-03T17:02:59Z</time>
      </trkpt>
      <trkpt lat="46.13027" lon="-0.14912">
        <ele>66.2</ele>
        <time>2022-04-03T17:03:00Z</time>
      </trkpt>
      <trkpt lat="46.13028" lon="-0.14917">
        <ele>66.2</ele>
        <time>2022-04-03T17:03:01Z</time>
      </trkpt>
      <trkpt lat="46.1303" lon="-0.14921">
        <ele>66.2</ele>
        <time>2022-04-03T17:03:02Z</time>
      </trkpt>
      <trkpt lat="46.13032" lon="-0.14925">
        <ele>66.6</ele>
        <time>2022-04-03T17:03:03Z</time>
      </trkpt>
      <trkpt lat="46.13034" lon="-0.1493">
        <ele>66.6</ele>
        <time>2022-04-03T17:03:04Z</time>
      </trkpt>
      <trkpt lat="46.13036" lon="-0.14935">
        <ele>66.8</ele>
        <time>2022-04-03T17:03:05Z</time>
      </trkpt>
      <trkpt lat="46.13038" lon="-0.14939">
        <ele>66.6</ele>
        <time>2022-04-03T17:03:06Z</time>
      </trkpt>
      <trkpt lat="46.1304" lon="-0.14944">
        <ele>66.8</ele>
        <time>2022-04-03T17:03:07Z</time>
      </trkpt>
      <trkpt lat="46.13042" lon="-0.14949">
        <ele>66.8</ele>
        <time>2022-04-03T17:03:08Z</time>
      </trkpt>
      <trkpt lat="46.13044" lon="-0.14954">
        <ele>66.8</ele>
        <time>2022-04-03T17:03:09Z</time>
      </trkpt>
      <trkpt lat="46.13045" lon="-0.1496">
        <ele>67</ele>
        <time>2022-04-03T17:03:10Z</time>
      </trkpt>
      <trkpt lat="46.13046" lon="-0.14966">
        <ele>67</ele>
        <time>2022-04-03T17:03:11Z</time>
      </trkpt>
      <trkpt lat="46.13047" lon="-0.14972">
        <ele>67</ele>
        <time>2022-04-03T17:03:12Z</time>
      </trkpt>
      <trkpt lat="46.13049" lon="-0.14978">
        <ele>67.2</ele>
        <time>2022-04-03T17:03:13Z</time>
      </trkpt>
      <trkpt lat="46.1305" lon="-0.14984">
        <ele>67.2</ele>
        <time>2022-04-03T17:03:14Z</time>
      </trkpt>
      <trkpt lat="46.13052" lon="-0.14991">
        <ele>67.2</ele>
        <time>2022-04-03T17:03:15Z</time>
      </trkpt>
      <trkpt lat="46.13053" lon="-0.14997">
        <ele>67.2</ele>
        <time>2022-04-03T17:03:16Z</time>
      </trkpt>
      <trkpt lat="46.13055" lon="-0.15003">
        <ele>67.2</ele>
        <time>2022-04-03T17:03:17Z</time>
      </trkpt>
      <trkpt lat="46.13056" lon="-0.15009">
        <ele>67.2</ele>
        <time>2022-04-03T17:03:18Z</time>
      </trkpt>
      <trkpt lat="46.13057" lon="-0.15016">
        <ele>67.4</ele>
        <time>2022-04-03T17:03:19Z</time>
      </trkpt>
      <trkpt lat="46.13058" lon="-0.15022">
        <ele>67</ele>
        <time>2022-04-03T17:03:20Z</time>
      </trkpt>
      <trkpt lat="46.13059" lon="-0.15028">
        <ele>67.2</ele>
        <time>2022-04-03T17:03:21Z</time>
      </trkpt>
      <trkpt lat="46.1306" lon="-0.15035">
        <ele>67.2</ele>
        <time>2022-04-03T17:03:22Z</time>
      </trkpt>
      <trkpt lat="46.13061" lon="-0.15041">
        <ele>67</ele>
        <time>2022-04-03T17:03:23Z</time>
      </trkpt>
      <trkpt lat="46.13061" lon="-0.15047">
        <ele>66.8</ele>
        <time>2022-04-03T17:03:24Z</time>
      </trkpt>
      <trkpt lat="46.13062" lon="-0.15053">
        <ele>67</ele>
        <time>2022-04-03T17:03:25Z</time>
      </trkpt>
      <trkpt lat="46.13062" lon="-0.15059">
        <ele>66.8</ele>
        <time>2022-04-03T17:03:26Z</time>
      </trkpt>
      <trkpt lat="46.13063" lon="-0.15064">
        <ele>67</ele>
        <time>2022-04-03T17:03:27Z</time>
      </trkpt>
      <trkpt lat="46.13064" lon="-0.15069">
        <ele>66.8</ele>
        <time>2022-04-03T17:03:28Z</time>
      </trkpt>
      <trkpt lat="46.13064" lon="-0.15075">
        <ele>67</ele>
        <time>2022-04-03T17:03:29Z</time>
      </trkpt>
      <trkpt lat="46.13065" lon="-0.1508">
        <ele>66.8</ele>
        <time>2022-04-03T17:03:30Z</time>
      </trkpt>
      <trkpt lat="46.13066" lon="-0.15084">
        <ele>66.8</ele>
        <time>2022-04-03T17:03:31Z</time>
      </trkpt>
      <trkpt lat="46.13066" lon="-0.15089">
        <ele>66.8</ele>
        <time>2022-04-03T17:03:32Z</time>
      </trkpt>
      <trkpt lat="46.13067" lon="-0.15093">
        <ele>67</ele>
        <time>2022-04-03T17:03:33Z</time>
      </trkpt>
      <trkpt lat="46.13068" lon="-0.15098">
        <ele>67</ele>
        <time>2022-04-03T17:03:34Z</time>
      </trkpt>
      <trkpt lat="46.13068" lon="-0.15104">
        <ele>66.8</ele>
        <time>2022-04-03T17:03:35Z</time>
      </trkpt>
      <trkpt lat="46.13069" lon="-0.15109">
        <ele>67</ele>
        <time>2022-04-03T17:03:36Z</time>
      </trkpt>
      <trkpt lat="46.13069" lon="-0.15115">
        <ele>67</ele>
        <time>2022-04-03T17:03:37Z</time>
      </trkpt>
      <trkpt lat="46.1307" lon="-0.15122">
        <ele>67</ele>
        <time>2022-04-03T17:03:38Z</time>
      </trkpt>
      <trkpt lat="46.13071" lon="-0.15128">
        <ele>66.8</ele>
        <time>2022-04-03T17:03:39Z</time>
      </trkpt>
      <trkpt lat="46.13072" lon="-0.15135">
        <ele>67</ele>
        <time>2022-04-03T17:03:40Z</time>
      </trkpt>
      <trkpt lat="46.13072" lon="-0.15142">
        <ele>66.8</ele>
        <time>2022-04-03T17:03:41Z</time>
      </trkpt>
      <trkpt lat="46.13073" lon="-0.1515">
        <ele>66.8</ele>
        <time>2022-04-03T17:03:42Z</time>
      </trkpt>
      <trkpt lat="46.13074" lon="-0.15158">
        <ele>66.8</ele>
        <time>2022-04-03T17:03:43Z</time>
      </trkpt>
      <trkpt lat="46.13075" lon="-0.15165">
        <ele>66.8</ele>
        <time>2022-04-03T17:03:44Z</time>
      </trkpt>
      <trkpt lat="46.13076" lon="-0.15173">
        <ele>66.8</ele>
        <time>2022-04-03T17:03:45Z</time>
      </trkpt>
      <trkpt lat="46.13077" lon="-0.15181">
        <ele>66.6</ele>
        <time>2022-04-03T17:03:46Z</time>
      </trkpt>
      <trkpt lat="46.13077" lon="-0.15189">
        <ele>66.4</ele>
        <time>2022-04-03T17:03:47Z</time>
      </trkpt>
      <trkpt lat="46.13078" lon="-0.15196">
        <ele>66.2</ele>
        <time>2022-04-03T17:03:48Z</time>
      </trkpt>
      <trkpt lat="46.13079" lon="-0.15204">
        <ele>66.2</ele>
        <time>2022-04-03T17:03:49Z</time>
      </trkpt>
      <trkpt lat="46.13081" lon="-0.15212">
        <ele>66</ele>
        <time>2022-04-03T17:03:50Z</time>
      </trkpt>
      <trkpt lat="46.13082" lon="-0.1522">
        <ele>66</ele>
        <time>2022-04-03T17:03:51Z</time>
      </trkpt>
      <trkpt lat="46.13083" lon="-0.15228">
        <ele>66</ele>
        <time>2022-04-03T17:03:52Z</time>
      </trkpt>
      <trkpt lat="46.13084" lon="-0.15235">
        <ele>65.8</ele>
        <time>2022-04-03T17:03:53Z</time>
      </trkpt>
      <trkpt lat="46.13086" lon="-0.15243">
        <ele>65.6</ele>
        <time>2022-04-03T17:03:54Z</time>
      </trkpt>
      <trkpt lat="46.13088" lon="-0.15251">
        <ele>65.4</ele>
        <time>2022-04-03T17:03:55Z</time>
      </trkpt>
      <trkpt lat="46.13089" lon="-0.15259">
        <ele>65.4</ele>
        <time>2022-04-03T17:03:56Z</time>
      </trkpt>
      <trkpt lat="46.13091" lon="-0.15267">
        <ele>65.2</ele>
        <time>2022-04-03T17:03:57Z</time>
      </trkpt>
      <trkpt lat="46.13093" lon="-0.15274">
        <ele>65.2</ele>
        <time>2022-04-03T17:03:58Z</time>
      </trkpt>
      <trkpt lat="46.13095" lon="-0.15282">
        <ele>65</ele>
        <time>2022-04-03T17:03:59Z</time>
      </trkpt>
      <trkpt lat="46.13098" lon="-0.1529">
        <ele>65</ele>
        <time>2022-04-03T17:04:00Z</time>
      </trkpt>
      <trkpt lat="46.131" lon="-0.15298">
        <ele>64.8</ele>
        <time>2022-04-03T17:04:01Z</time>
      </trkpt>
      <trkpt lat="46.13103" lon="-0.15305">
        <ele>64.6</ele>
        <time>2022-04-03T17:04:02Z</time>
      </trkpt>
      <trkpt lat="46.13105" lon="-0.15312">
        <ele>64.4</ele>
        <time>2022-04-03T17:04:03Z</time>
      </trkpt>
      <trkpt lat="46.13108" lon="-0.1532">
        <ele>64.4</ele>
        <time>2022-04-03T17:04:04Z</time>
      </trkpt>
      <trkpt lat="46.13111" lon="-0.15327">
        <ele>64.4</ele>
        <time>2022-04-03T17:04:05Z</time>
      </trkpt>
      <trkpt lat="46.13114" lon="-0.15334">
        <ele>64.2</ele>
        <time>2022-04-03T17:04:06Z</time>
      </trkpt>
      <trkpt lat="46.13117" lon="-0.15341">
        <ele>64.4</ele>
        <time>2022-04-03T17:04:07Z</time>
      </trkpt>
      <trkpt lat="46.1312" lon="-0.15349">
        <ele>64.4</ele>
        <time>2022-04-03T17:04:08Z</time>
      </trkpt>
      <trkpt lat="46.13123" lon="-0.15355">
        <ele>64.2</ele>
        <time>2022-04-03T17:04:09Z</time>
      </trkpt>
      <trkpt lat="46.13126" lon="-0.15362">
        <ele>64.4</ele>
        <time>2022-04-03T17:04:10Z</time>
      </trkpt>
      <trkpt lat="46.13129" lon="-0.15369">
        <ele>64.4</ele>
        <time>2022-04-03T17:04:11Z</time>
      </trkpt>
      <trkpt lat="46.13132" lon="-0.15376">
        <ele>64.4</ele>
        <time>2022-04-03T17:04:12Z</time>
      </trkpt>
      <trkpt lat="46.13135" lon="-0.15382">
        <ele>64.2</ele>
        <time>2022-04-03T17:04:13Z</time>
      </trkpt>
      <trkpt lat="46.13139" lon="-0.15388">
        <ele>64.4</ele>
        <time>2022-04-03T17:04:14Z</time>
      </trkpt>
      <trkpt lat="46.13142" lon="-0.15394">
        <ele>64.4</ele>
        <time>2022-04-03T17:04:15Z</time>
      </trkpt>
      <trkpt lat="46.13145" lon="-0.154">
        <ele>64.6</ele>
        <time>2022-04-03T17:04:16Z</time>
      </trkpt>
      <trkpt lat="46.13149" lon="-0.15406">
        <ele>64.6</ele>
        <time>2022-04-03T17:04:17Z</time>
      </trkpt>
      <trkpt lat="46.13152" lon="-0.15412">
        <ele>64.8</ele>
        <time>2022-04-03T17:04:18Z</time>
      </trkpt>
      <trkpt lat="46.13156" lon="-0.15418">
        <ele>64.6</ele>
        <time>2022-04-03T17:04:19Z</time>
      </trkpt>
      <trkpt lat="46.13159" lon="-0.15424">
        <ele>64.6</ele>
        <time>2022-04-03T17:04:20Z</time>
      </trkpt>
      <trkpt lat="46.13163" lon="-0.1543">
        <ele>64.6</ele>
        <time>2022-04-03T17:04:21Z</time>
      </trkpt>
      <trkpt lat="46.13166" lon="-0.15436">
        <ele>64.8</ele>
        <time>2022-04-03T17:04:22Z</time>
      </trkpt>
      <trkpt lat="46.1317" lon="-0.15441">
        <ele>64.6</ele>
        <time>2022-04-03T17:04:23Z</time>
      </trkpt>
      <trkpt lat="46.13173" lon="-0.15447">
        <ele>64.6</ele>
        <time>2022-04-03T17:04:24Z</time>
      </trkpt>
      <trkpt lat="46.13177" lon="-0.15453">
        <ele>64.6</ele>
        <time>2022-04-03T17:04:25Z</time>
      </trkpt>
      <trkpt lat="46.13181" lon="-0.15459">
        <ele>64.6</ele>
        <time>2022-04-03T17:04:26Z</time>
      </trkpt>
      <trkpt lat="46.13184" lon="-0.15465">
        <ele>64.6</ele>
        <time>2022-04-03T17:04:27Z</time>
      </trkpt>
      <trkpt lat="46.13188" lon="-0.15471">
        <ele>64.6</ele>
        <time>2022-04-03T17:04:28Z</time>
      </trkpt>
      <trkpt lat="46.13192" lon="-0.15477">
        <ele>64.6</ele>
        <time>2022-04-03T17:04:29Z</time>
      </trkpt>
      <trkpt lat="46.13195" lon="-0.15483">
        <ele>64.6</ele>
        <time>2022-04-03T17:04:30Z</time>
      </trkpt>
      <trkpt lat="46.13199" lon="-0.15489">
        <ele>64.4</ele>
        <time>2022-04-03T17:04:31Z</time>
      </trkpt>
      <trkpt lat="46.13203" lon="-0.15496">
        <ele>64.6</ele>
        <time>2022-04-03T17:04:32Z</time>
      </trkpt>
      <trkpt lat="46.13206" lon="-0.15502">
        <ele>64.4</ele>
        <time>2022-04-03T17:04:33Z</time>
      </trkpt>
      <trkpt lat="46.1321" lon="-0.15508">
        <ele>64.4</ele>
        <time>2022-04-03T17:04:34Z</time>
      </trkpt>
      <trkpt lat="46.13214" lon="-0.15514">
        <ele>64.4</ele>
        <time>2022-04-03T17:04:35Z</time>
      </trkpt>
      <trkpt lat="46.13217" lon="-0.1552">
        <ele>64.4</ele>
        <time>2022-04-03T17:04:36Z</time>
      </trkpt>
      <trkpt lat="46.13221" lon="-0.15526">
        <ele>64.2</ele>
        <time>2022-04-03T17:04:37Z</time>
      </trkpt>
      <trkpt lat="46.13225" lon="-0.15532">
        <ele>64.2</ele>
        <time>2022-04-03T17:04:38Z</time>
      </trkpt>
      <trkpt lat="46.13228" lon="-0.15538">
        <ele>64.2</ele>
        <time>2022-04-03T17:04:39Z</time>
      </trkpt>
      <trkpt lat="46.13232" lon="-0.15545">
        <ele>64.2</ele>
        <time>2022-04-03T17:04:40Z</time>
      </trkpt>
      <trkpt lat="46.13236" lon="-0.15551">
        <ele>64.4</ele>
        <time>2022-04-03T17:04:41Z</time>
      </trkpt>
      <trkpt lat="46.1324" lon="-0.15557">
        <ele>64.2</ele>
        <time>2022-04-03T17:04:42Z</time>
      </trkpt>
      <trkpt lat="46.13243" lon="-0.15563">
        <ele>64.4</ele>
        <time>2022-04-03T17:04:43Z</time>
      </trkpt>
      <trkpt lat="46.13247" lon="-0.15569">
        <ele>64.4</ele>
        <time>2022-04-03T17:04:44Z</time>
      </trkpt>
      <trkpt lat="46.13251" lon="-0.15575">
        <ele>64.2</ele>
        <time>2022-04-03T17:04:45Z</time>
      </trkpt>
      <trkpt lat="46.13255" lon="-0.15581">
        <ele>64.2</ele>
        <time>2022-04-03T17:04:46Z</time>
      </trkpt>
      <trkpt lat="46.13258" lon="-0.15587">
        <ele>64.2</ele>
        <time>2022-04-03T17:04:47Z</time>
      </trkpt>
      <trkpt lat="46.13262" lon="-0.15593">
        <ele>64.2</ele>
        <time>2022-04-03T17:04:48Z</time>
      </trkpt>
      <trkpt lat="46.13266" lon="-0.15599">
        <ele>64.2</ele>
        <time>2022-04-03T17:04:49Z</time>
      </trkpt>
      <trkpt lat="46.13269" lon="-0.15605">
        <ele>64.4</ele>
        <time>2022-04-03T17:04:50Z</time>
      </trkpt>
      <trkpt lat="46.13273" lon="-0.15611">
        <ele>64.2</ele>
        <time>2022-04-03T17:04:51Z</time>
      </trkpt>
      <trkpt lat="46.13277" lon="-0.15617">
        <ele>64.2</ele>
        <time>2022-04-03T17:04:52Z</time>
      </trkpt>
      <trkpt lat="46.1328" lon="-0.15623">
        <ele>64.2</ele>
        <time>2022-04-03T17:04:53Z</time>
      </trkpt>
      <trkpt lat="46.13284" lon="-0.15629">
        <ele>64.2</ele>
        <time>2022-04-03T17:04:54Z</time>
      </trkpt>
      <trkpt lat="46.13288" lon="-0.15635">
        <ele>64.2</ele>
        <time>2022-04-03T17:04:55Z</time>
      </trkpt>
      <trkpt lat="46.13291" lon="-0.15641">
        <ele>64.4</ele>
        <time>2022-04-03T17:04:56Z</time>
      </trkpt>
      <trkpt lat="46.13295" lon="-0.15647">
        <ele>64.4</ele>
        <time>2022-04-03T17:04:57Z</time>
      </trkpt>
      <trkpt lat="46.13299" lon="-0.15654">
        <ele>64.4</ele>
        <time>2022-04-03T17:04:58Z</time>
      </trkpt>
      <trkpt lat="46.13302" lon="-0.1566">
        <ele>64.4</ele>
        <time>2022-04-03T17:04:59Z</time>
      </trkpt>
      <trkpt lat="46.13306" lon="-0.15666">
        <ele>64.4</ele>
        <time>2022-04-03T17:05:00Z</time>
      </trkpt>
      <trkpt lat="46.13309" lon="-0.15672">
        <ele>64.2</ele>
        <time>2022-04-03T17:05:01Z</time>
      </trkpt>
      <trkpt lat="46.13313" lon="-0.15678">
        <ele>64.4</ele>
        <time>2022-04-03T17:05:02Z</time>
      </trkpt>
      <trkpt lat="46.13317" lon="-0.15684">
        <ele>64.4</ele>
        <time>2022-04-03T17:05:03Z</time>
      </trkpt>
      <trkpt lat="46.1332" lon="-0.1569">
        <ele>64.6</ele>
        <time>2022-04-03T17:05:04Z</time>
      </trkpt>
      <trkpt lat="46.13324" lon="-0.15696">
        <ele>64.6</ele>
        <time>2022-04-03T17:05:05Z</time>
      </trkpt>
      <trkpt lat="46.13328" lon="-0.15702">
        <ele>64.8</ele>
        <time>2022-04-03T17:05:06Z</time>
      </trkpt>
      <trkpt lat="46.13331" lon="-0.15708">
        <ele>65</ele>
        <time>2022-04-03T17:05:07Z</time>
      </trkpt>
      <trkpt lat="46.13335" lon="-0.15714">
        <ele>65.2</ele>
        <time>2022-04-03T17:05:08Z</time>
      </trkpt>
      <trkpt lat="46.13338" lon="-0.1572">
        <ele>65</ele>
        <time>2022-04-03T17:05:09Z</time>
      </trkpt>
      <trkpt lat="46.13341" lon="-0.15727">
        <ele>65.2</ele>
        <time>2022-04-03T17:05:10Z</time>
      </trkpt>
      <trkpt lat="46.13345" lon="-0.15733">
        <ele>65.2</ele>
        <time>2022-04-03T17:05:11Z</time>
      </trkpt>
      <trkpt lat="46.13348" lon="-0.1574">
        <ele>65.2</ele>
        <time>2022-04-03T17:05:12Z</time>
      </trkpt>
      <trkpt lat="46.13351" lon="-0.15747">
        <ele>65.2</ele>
        <time>2022-04-03T17:05:13Z</time>
      </trkpt>
      <trkpt lat="46.13354" lon="-0.15754">
        <ele>65.2</ele>
        <time>2022-04-03T17:05:14Z</time>
      </trkpt>
      <trkpt lat="46.13356" lon="-0.15761">
        <ele>65.2</ele>
        <time>2022-04-03T17:05:15Z</time>
      </trkpt>
      <trkpt lat="46.13359" lon="-0.15768">
        <ele>65.2</ele>
        <time>2022-04-03T17:05:16Z</time>
      </trkpt>
      <trkpt lat="46.13362" lon="-0.15776">
        <ele>65.2</ele>
        <time>2022-04-03T17:05:17Z</time>
      </trkpt>
      <trkpt lat="46.13364" lon="-0.15784">
        <ele>65.4</ele>
        <time>2022-04-03T17:05:18Z</time>
      </trkpt>
      <trkpt lat="46.13366" lon="-0.15792">
        <ele>65.4</ele>
        <time>2022-04-03T17:05:19Z</time>
      </trkpt>
      <trkpt lat="46.13368" lon="-0.158">
        <ele>65.4</ele>
        <time>2022-04-03T17:05:20Z</time>
      </trkpt>
      <trkpt lat="46.1337" lon="-0.15808">
        <ele>65.2</ele>
        <time>2022-04-03T17:05:21Z</time>
      </trkpt>
      <trkpt lat="46.13372" lon="-0.15816">
        <ele>65.2</ele>
        <time>2022-04-03T17:05:22Z</time>
      </trkpt>
      <trkpt lat="46.13373" lon="-0.15824">
        <ele>65.4</ele>
        <time>2022-04-03T17:05:23Z</time>
      </trkpt>
      <trkpt lat="46.13375" lon="-0.15833">
        <ele>65.4</ele>
        <time>2022-04-03T17:05:24Z</time>
      </trkpt>
      <trkpt lat="46.13376" lon="-0.15841">
        <ele>65.2</ele>
        <time>2022-04-03T17:05:25Z</time>
      </trkpt>
      <trkpt lat="46.13377" lon="-0.1585">
        <ele>65.2</ele>
        <time>2022-04-03T17:05:26Z</time>
      </trkpt>
      <trkpt lat="46.13378" lon="-0.15858">
        <ele>65.2</ele>
        <time>2022-04-03T17:05:27Z</time>
      </trkpt>
      <trkpt lat="46.13378" lon="-0.15867">
        <ele>65</ele>
        <time>2022-04-03T17:05:28Z</time>
      </trkpt>
      <trkpt lat="46.13379" lon="-0.15876">
        <ele>65.2</ele>
        <time>2022-04-03T17:05:29Z</time>
      </trkpt>
      <trkpt lat="46.13379" lon="-0.15885">
        <ele>65.2</ele>
        <time>2022-04-03T17:05:30Z</time>
      </trkpt>
      <trkpt lat="46.1338" lon="-0.15894">
        <ele>65</ele>
        <time>2022-04-03T17:05:31Z</time>
      </trkpt>
      <trkpt lat="46.1338" lon="-0.15903">
        <ele>65</ele>
        <time>2022-04-03T17:05:32Z</time>
      </trkpt>
      <trkpt lat="46.1338" lon="-0.15912">
        <ele>65</ele>
        <time>2022-04-03T17:05:33Z</time>
      </trkpt>
      <trkpt lat="46.13381" lon="-0.15922">
        <ele>65.2</ele>
        <time>2022-04-03T17:05:34Z</time>
      </trkpt>
      <trkpt lat="46.13381" lon="-0.15931">
        <ele>65</ele>
        <time>2022-04-03T17:05:35Z</time>
      </trkpt>
      <trkpt lat="46.13381" lon="-0.1594">
        <ele>65</ele>
        <time>2022-04-03T17:05:36Z</time>
      </trkpt>
      <trkpt lat="46.13382" lon="-0.1595">
        <ele>65</ele>
        <time>2022-04-03T17:05:37Z</time>
      </trkpt>
      <trkpt lat="46.13382" lon="-0.15959">
        <ele>65</ele>
        <time>2022-04-03T17:05:38Z</time>
      </trkpt>
      <trkpt lat="46.13382" lon="-0.15969">
        <ele>65</ele>
        <time>2022-04-03T17:05:39Z</time>
      </trkpt>
      <trkpt lat="46.13382" lon="-0.15978">
        <ele>64.8</ele>
        <time>2022-04-03T17:05:40Z</time>
      </trkpt>
      <trkpt lat="46.13383" lon="-0.15988">
        <ele>64.8</ele>
        <time>2022-04-03T17:05:41Z</time>
      </trkpt>
      <trkpt lat="46.13383" lon="-0.15998">
        <ele>64.8</ele>
        <time>2022-04-03T17:05:42Z</time>
      </trkpt>
      <trkpt lat="46.13383" lon="-0.16008">
        <ele>64.8</ele>
        <time>2022-04-03T17:05:43Z</time>
      </trkpt>
      <trkpt lat="46.13384" lon="-0.16018">
        <ele>64.8</ele>
        <time>2022-04-03T17:05:44Z</time>
      </trkpt>
      <trkpt lat="46.13384" lon="-0.16028">
        <ele>64.6</ele>
        <time>2022-04-03T17:05:45Z</time>
      </trkpt>
      <trkpt lat="46.13384" lon="-0.16038">
        <ele>64.6</ele>
        <time>2022-04-03T17:05:46Z</time>
      </trkpt>
      <trkpt lat="46.13385" lon="-0.16048">
        <ele>64.4</ele>
        <time>2022-04-03T17:05:47Z</time>
      </trkpt>
      <trkpt lat="46.13385" lon="-0.16058">
        <ele>64.4</ele>
        <time>2022-04-03T17:05:48Z</time>
      </trkpt>
      <trkpt lat="46.13386" lon="-0.16067">
        <ele>64.2</ele>
        <time>2022-04-03T17:05:49Z</time>
      </trkpt>
      <trkpt lat="46.13387" lon="-0.16077">
        <ele>64</ele>
        <time>2022-04-03T17:05:50Z</time>
      </trkpt>
      <trkpt lat="46.13388" lon="-0.16087">
        <ele>64</ele>
        <time>2022-04-03T17:05:51Z</time>
      </trkpt>
      <trkpt lat="46.13389" lon="-0.16097">
        <ele>64.2</ele>
        <time>2022-04-03T17:05:52Z</time>
      </trkpt>
      <trkpt lat="46.1339" lon="-0.16108">
        <ele>64</ele>
        <time>2022-04-03T17:05:53Z</time>
      </trkpt>
      <trkpt lat="46.13391" lon="-0.16118">
        <ele>64</ele>
        <time>2022-04-03T17:05:54Z</time>
      </trkpt>
      <trkpt lat="46.13392" lon="-0.16128">
        <ele>63.8</ele>
        <time>2022-04-03T17:05:55Z</time>
      </trkpt>
      <trkpt lat="46.13394" lon="-0.16138">
        <ele>63.8</ele>
        <time>2022-04-03T17:05:56Z</time>
      </trkpt>
      <trkpt lat="46.13395" lon="-0.16148">
        <ele>63.6</ele>
        <time>2022-04-03T17:05:57Z</time>
      </trkpt>
      <trkpt lat="46.13397" lon="-0.16158">
        <ele>63.6</ele>
        <time>2022-04-03T17:05:58Z</time>
      </trkpt>
      <trkpt lat="46.13398" lon="-0.16168">
        <ele>63.4</ele>
        <time>2022-04-03T17:05:59Z</time>
      </trkpt>
      <trkpt lat="46.134" lon="-0.16178">
        <ele>63.4</ele>
        <time>2022-04-03T17:06:00Z</time>
      </trkpt>
      <trkpt lat="46.13402" lon="-0.16188">
        <ele>63.2</ele>
        <time>2022-04-03T17:06:01Z</time>
      </trkpt>
      <trkpt lat="46.13403" lon="-0.16198">
        <ele>63.2</ele>
        <time>2022-04-03T17:06:02Z</time>
      </trkpt>
      <trkpt lat="46.13405" lon="-0.16208">
        <ele>63.2</ele>
        <time>2022-04-03T17:06:03Z</time>
      </trkpt>
      <trkpt lat="46.13406" lon="-0.16218">
        <ele>63</ele>
        <time>2022-04-03T17:06:04Z</time>
      </trkpt>
      <trkpt lat="46.13408" lon="-0.16228">
        <ele>62.8</ele>
        <time>2022-04-03T17:06:05Z</time>
      </trkpt>
      <trkpt lat="46.13409" lon="-0.16238">
        <ele>62.8</ele>
        <time>2022-04-03T17:06:06Z</time>
      </trkpt>
      <trkpt lat="46.13411" lon="-0.16248">
        <ele>62.8</ele>
        <time>2022-04-03T17:06:07Z</time>
      </trkpt>
      <trkpt lat="46.13413" lon="-0.16258">
        <ele>62.6</ele>
        <time>2022-04-03T17:06:08Z</time>
      </trkpt>
      <trkpt lat="46.13414" lon="-0.16268">
        <ele>62.6</ele>
        <time>2022-04-03T17:06:09Z</time>
      </trkpt>
      <trkpt lat="46.13416" lon="-0.16278">
        <ele>62.6</ele>
        <time>2022-04-03T17:06:10Z</time>
      </trkpt>
      <trkpt lat="46.13417" lon="-0.16287">
        <ele>62.4</ele>
        <time>2022-04-03T17:06:11Z</time>
      </trkpt>
      <trkpt lat="46.13419" lon="-0.16297">
        <ele>62.4</ele>
        <time>2022-04-03T17:06:12Z</time>
      </trkpt>
      <trkpt lat="46.1342" lon="-0.16306">
        <ele>62.4</ele>
        <time>2022-04-03T17:06:13Z</time>
      </trkpt>
      <trkpt lat="46.13422" lon="-0.16315">
        <ele>62.4</ele>
        <time>2022-04-03T17:06:14Z</time>
      </trkpt>
      <trkpt lat="46.13423" lon="-0.16324">
        <ele>62.4</ele>
        <time>2022-04-03T17:06:15Z</time>
      </trkpt>
      <trkpt lat="46.13425" lon="-0.16332">
        <ele>62.4</ele>
        <time>2022-04-03T17:06:16Z</time>
      </trkpt>
      <trkpt lat="46.13426" lon="-0.16341">
        <ele>62.2</ele>
        <time>2022-04-03T17:06:17Z</time>
      </trkpt>
      <trkpt lat="46.13427" lon="-0.16349">
        <ele>62.4</ele>
        <time>2022-04-03T17:06:18Z</time>
      </trkpt>
      <trkpt lat="46.13429" lon="-0.16357">
        <ele>62.4</ele>
        <time>2022-04-03T17:06:19Z</time>
      </trkpt>
      <trkpt lat="46.1343" lon="-0.16365">
        <ele>62.4</ele>
        <time>2022-04-03T17:06:20Z</time>
      </trkpt>
      <trkpt lat="46.13431" lon="-0.16373">
        <ele>62.4</ele>
        <time>2022-04-03T17:06:21Z</time>
      </trkpt>
      <trkpt lat="46.13433" lon="-0.16381">
        <ele>62.4</ele>
        <time>2022-04-03T17:06:22Z</time>
      </trkpt>
      <trkpt lat="46.13434" lon="-0.16389">
        <ele>62.8</ele>
        <time>2022-04-03T17:06:23Z</time>
      </trkpt>
      <trkpt lat="46.13435" lon="-0.16396">
        <ele>62.8</ele>
        <time>2022-04-03T17:06:24Z</time>
      </trkpt>
      <trkpt lat="46.13436" lon="-0.16404">
        <ele>63</ele>
        <time>2022-04-03T17:06:25Z</time>
      </trkpt>
      <trkpt lat="46.13438" lon="-0.16411">
        <ele>63.2</ele>
        <time>2022-04-03T17:06:26Z</time>
      </trkpt>
      <trkpt lat="46.13439" lon="-0.16418">
        <ele>63.4</ele>
        <time>2022-04-03T17:06:27Z</time>
      </trkpt>
      <trkpt lat="46.1344" lon="-0.16426">
        <ele>63.6</ele>
        <time>2022-04-03T17:06:28Z</time>
      </trkpt>
      <trkpt lat="46.13441" lon="-0.16433">
        <ele>63.6</ele>
        <time>2022-04-03T17:06:29Z</time>
      </trkpt>
      <trkpt lat="46.13442" lon="-0.1644">
        <ele>63.8</ele>
        <time>2022-04-03T17:06:30Z</time>
      </trkpt>
      <trkpt lat="46.13444" lon="-0.16447">
        <ele>64.2</ele>
        <time>2022-04-03T17:06:31Z</time>
      </trkpt>
      <trkpt lat="46.13445" lon="-0.16454">
        <ele>64.4</ele>
        <time>2022-04-03T17:06:32Z</time>
      </trkpt>
      <trkpt lat="46.13446" lon="-0.16461">
        <ele>64.6</ele>
        <time>2022-04-03T17:06:33Z</time>
      </trkpt>
      <trkpt lat="46.13447" lon="-0.16468">
        <ele>64.8</ele>
        <time>2022-04-03T17:06:34Z</time>
      </trkpt>
      <trkpt lat="46.13448" lon="-0.16475">
        <ele>65</ele>
        <time>2022-04-03T17:06:35Z</time>
      </trkpt>
      <trkpt lat="46.13449" lon="-0.16482">
        <ele>65</ele>
        <time>2022-04-03T17:06:36Z</time>
      </trkpt>
      <trkpt lat="46.1345" lon="-0.16489">
        <ele>65.2</ele>
        <time>2022-04-03T17:06:37Z</time>
      </trkpt>
      <trkpt lat="46.13451" lon="-0.16496">
        <ele>65.2</ele>
        <time>2022-04-03T17:06:38Z</time>
      </trkpt>
      <trkpt lat="46.13452" lon="-0.16504">
        <ele>65.2</ele>
        <time>2022-04-03T17:06:39Z</time>
      </trkpt>
      <trkpt lat="46.13453" lon="-0.16511">
        <ele>65.4</ele>
        <time>2022-04-03T17:06:40Z</time>
      </trkpt>
      <trkpt lat="46.13455" lon="-0.16518">
        <ele>65.4</ele>
        <time>2022-04-03T17:06:41Z</time>
      </trkpt>
      <trkpt lat="46.13456" lon="-0.16525">
        <ele>65.6</ele>
        <time>2022-04-03T17:06:42Z</time>
      </trkpt>
      <trkpt lat="46.13457" lon="-0.16533">
        <ele>65.8</ele>
        <time>2022-04-03T17:06:43Z</time>
      </trkpt>
      <trkpt lat="46.13459" lon="-0.1654">
        <ele>65.8</ele>
        <time>2022-04-03T17:06:44Z</time>
      </trkpt>
      <trkpt lat="46.1346" lon="-0.16548">
        <ele>66</ele>
        <time>2022-04-03T17:06:45Z</time>
      </trkpt>
      <trkpt lat="46.13462" lon="-0.16555">
        <ele>66</ele>
        <time>2022-04-03T17:06:46Z</time>
      </trkpt>
      <trkpt lat="46.13463" lon="-0.16563">
        <ele>66</ele>
        <time>2022-04-03T17:06:47Z</time>
      </trkpt>
      <trkpt lat="46.13465" lon="-0.1657">
        <ele>66</ele>
        <time>2022-04-03T17:06:48Z</time>
      </trkpt>
      <trkpt lat="46.13467" lon="-0.16578">
        <ele>66</ele>
        <time>2022-04-03T17:06:49Z</time>
      </trkpt>
      <trkpt lat="46.13468" lon="-0.16586">
        <ele>66</ele>
        <time>2022-04-03T17:06:50Z</time>
      </trkpt>
      <trkpt lat="46.1347" lon="-0.16593">
        <ele>66</ele>
        <time>2022-04-03T17:06:51Z</time>
      </trkpt>
      <trkpt lat="46.13472" lon="-0.166">
        <ele>66</ele>
        <time>2022-04-03T17:06:52Z</time>
      </trkpt>
      <trkpt lat="46.13475" lon="-0.16608">
        <ele>65.8</ele>
        <time>2022-04-03T17:06:53Z</time>
      </trkpt>
      <trkpt lat="46.13477" lon="-0.16615">
        <ele>65.8</ele>
        <time>2022-04-03T17:06:54Z</time>
      </trkpt>
      <trkpt lat="46.13479" lon="-0.16623">
        <ele>66</ele>
        <time>2022-04-03T17:06:55Z</time>
      </trkpt>
      <trkpt lat="46.1348" lon="-0.1663">
        <ele>66</ele>
        <time>2022-04-03T17:06:56Z</time>
      </trkpt>
      <trkpt lat="46.13482" lon="-0.16637">
        <ele>66</ele>
        <time>2022-04-03T17:06:57Z</time>
      </trkpt>
      <trkpt lat="46.13484" lon="-0.16645">
        <ele>66</ele>
        <time>2022-04-03T17:06:58Z</time>
      </trkpt>
      <trkpt lat="46.13487" lon="-0.16652">
        <ele>66</ele>
        <time>2022-04-03T17:06:59Z</time>
      </trkpt>
      <trkpt lat="46.13488" lon="-0.16659">
        <ele>66</ele>
        <time>2022-04-03T17:07:00Z</time>
      </trkpt>
      <trkpt lat="46.1349" lon="-0.16667">
        <ele>66</ele>
        <time>2022-04-03T17:07:01Z</time>
      </trkpt>
      <trkpt lat="46.13492" lon="-0.16674">
        <ele>65.8</ele>
        <time>2022-04-03T17:07:02Z</time>
      </trkpt>
      <trkpt lat="46.13494" lon="-0.16682">
        <ele>65.8</ele>
        <time>2022-04-03T17:07:03Z</time>
      </trkpt>
      <trkpt lat="46.13496" lon="-0.16689">
        <ele>65.8</ele>
        <time>2022-04-03T17:07:04Z</time>
      </trkpt>
      <trkpt lat="46.13498" lon="-0.16696">
        <ele>65.8</ele>
        <time>2022-04-03T17:07:05Z</time>
      </trkpt>
      <trkpt lat="46.135" lon="-0.16704">
        <ele>66</ele>
        <time>2022-04-03T17:07:06Z</time>
      </trkpt>
      <trkpt lat="46.13502" lon="-0.16711">
        <ele>66</ele>
        <time>2022-04-03T17:07:07Z</time>
      </trkpt>
      <trkpt lat="46.13504" lon="-0.16719">
        <ele>65.8</ele>
        <time>2022-04-03T17:07:08Z</time>
      </trkpt>
      <trkpt lat="46.13506" lon="-0.16726">
        <ele>65.8</ele>
        <time>2022-04-03T17:07:09Z</time>
      </trkpt>
      <trkpt lat="46.13507" lon="-0.16734">
        <ele>66</ele>
        <time>2022-04-03T17:07:10Z</time>
      </trkpt>
      <trkpt lat="46.13509" lon="-0.16741">
        <ele>65.8</ele>
        <time>2022-04-03T17:07:11Z</time>
      </trkpt>
      <trkpt lat="46.13511" lon="-0.16749">
        <ele>65.8</ele>
        <time>2022-04-03T17:07:12Z</time>
      </trkpt>
      <trkpt lat="46.13514" lon="-0.16756">
        <ele>65.8</ele>
        <time>2022-04-03T17:07:13Z</time>
      </trkpt>
      <trkpt lat="46.13516" lon="-0.16764">
        <ele>65.8</ele>
        <time>2022-04-03T17:07:14Z</time>
      </trkpt>
      <trkpt lat="46.13518" lon="-0.16771">
        <ele>66</ele>
        <time>2022-04-03T17:07:15Z</time>
      </trkpt>
      <trkpt lat="46.1352" lon="-0.16779">
        <ele>66</ele>
        <time>2022-04-03T17:07:16Z</time>
      </trkpt>
      <trkpt lat="46.13522" lon="-0.16786">
        <ele>65.8</ele>
        <time>2022-04-03T17:07:17Z</time>
      </trkpt>
      <trkpt lat="46.13524" lon="-0.16794">
        <ele>65.8</ele>
        <time>2022-04-03T17:07:18Z</time>
      </trkpt>
      <trkpt lat="46.13526" lon="-0.16801">
        <ele>66</ele>
        <time>2022-04-03T17:07:19Z</time>
      </trkpt>
      <trkpt lat="46.13528" lon="-0.16809">
        <ele>65.8</ele>
        <time>2022-04-03T17:07:20Z</time>
      </trkpt>
      <trkpt lat="46.1353" lon="-0.16817">
        <ele>66</ele>
        <time>2022-04-03T17:07:21Z</time>
      </trkpt>
      <trkpt lat="46.13532" lon="-0.16824">
        <ele>65.8</ele>
        <time>2022-04-03T17:07:22Z</time>
      </trkpt>
      <trkpt lat="46.13534" lon="-0.16832">
        <ele>65.8</ele>
        <time>2022-04-03T17:07:23Z</time>
      </trkpt>
      <trkpt lat="46.13536" lon="-0.16839">
        <ele>66</ele>
        <time>2022-04-03T17:07:24Z</time>
      </trkpt>
      <trkpt lat="46.13538" lon="-0.16847">
        <ele>65.8</ele>
        <time>2022-04-03T17:07:25Z</time>
      </trkpt>
      <trkpt lat="46.1354" lon="-0.16855">
        <ele>66</ele>
        <time>2022-04-03T17:07:26Z</time>
      </trkpt>
      <trkpt lat="46.13542" lon="-0.16862">
        <ele>66</ele>
        <time>2022-04-03T17:07:27Z</time>
      </trkpt>
      <trkpt lat="46.13544" lon="-0.1687">
        <ele>66</ele>
        <time>2022-04-03T17:07:28Z</time>
      </trkpt>
      <trkpt lat="46.13546" lon="-0.16877">
        <ele>65.8</ele>
        <time>2022-04-03T17:07:29Z</time>
      </trkpt>
      <trkpt lat="46.13549" lon="-0.16886">
        <ele>66</ele>
        <time>2022-04-03T17:07:30Z</time>
      </trkpt>
      <trkpt lat="46.13551" lon="-0.16894">
        <ele>66</ele>
        <time>2022-04-03T17:07:31Z</time>
      </trkpt>
      <trkpt lat="46.13553" lon="-0.16902">
        <ele>66</ele>
        <time>2022-04-03T17:07:32Z</time>
      </trkpt>
      <trkpt lat="46.13555" lon="-0.1691">
        <ele>65.8</ele>
        <time>2022-04-03T17:07:33Z</time>
      </trkpt>
      <trkpt lat="46.13557" lon="-0.16919">
        <ele>65.8</ele>
        <time>2022-04-03T17:07:34Z</time>
      </trkpt>
      <trkpt lat="46.1356" lon="-0.16927">
        <ele>66</ele>
        <time>2022-04-03T17:07:35Z</time>
      </trkpt>
      <trkpt lat="46.13562" lon="-0.16936">
        <ele>66</ele>
        <time>2022-04-03T17:07:36Z</time>
      </trkpt>
      <trkpt lat="46.13565" lon="-0.16945">
        <ele>66</ele>
        <time>2022-04-03T17:07:37Z</time>
      </trkpt>
      <trkpt lat="46.13567" lon="-0.16954">
        <ele>66</ele>
        <time>2022-04-03T17:07:38Z</time>
      </trkpt>
      <trkpt lat="46.1357" lon="-0.16963">
        <ele>65.8</ele>
        <time>2022-04-03T17:07:39Z</time>
      </trkpt>
      <trkpt lat="46.13573" lon="-0.16971">
        <ele>65.6</ele>
        <time>2022-04-03T17:07:40Z</time>
      </trkpt>
      <trkpt lat="46.13576" lon="-0.16981">
        <ele>65.4</ele>
        <time>2022-04-03T17:07:41Z</time>
      </trkpt>
      <trkpt lat="46.13579" lon="-0.1699">
        <ele>65.2</ele>
        <time>2022-04-03T17:07:42Z</time>
      </trkpt>
      <trkpt lat="46.13583" lon="-0.16999">
        <ele>64.8</ele>
        <time>2022-04-03T17:07:43Z</time>
      </trkpt>
      <trkpt lat="46.13586" lon="-0.17008">
        <ele>64.4</ele>
        <time>2022-04-03T17:07:44Z</time>
      </trkpt>
      <trkpt lat="46.1359" lon="-0.17017">
        <ele>64.2</ele>
        <time>2022-04-03T17:07:45Z</time>
      </trkpt>
      <trkpt lat="46.13595" lon="-0.17025">
        <ele>64</ele>
        <time>2022-04-03T17:07:46Z</time>
      </trkpt>
      <trkpt lat="46.13599" lon="-0.17034">
        <ele>64</ele>
        <time>2022-04-03T17:07:47Z</time>
      </trkpt>
      <trkpt lat="46.13603" lon="-0.17043">
        <ele>63.6</ele>
        <time>2022-04-03T17:07:48Z</time>
      </trkpt>
      <trkpt lat="46.13607" lon="-0.17052">
        <ele>63.4</ele>
        <time>2022-04-03T17:07:49Z</time>
      </trkpt>
      <trkpt lat="46.13611" lon="-0.17061">
        <ele>63.2</ele>
        <time>2022-04-03T17:07:50Z</time>
      </trkpt>
      <trkpt lat="46.13615" lon="-0.1707">
        <ele>62.6</ele>
        <time>2022-04-03T17:07:51Z</time>
      </trkpt>
      <trkpt lat="46.1362" lon="-0.1708">
        <ele>62.4</ele>
        <time>2022-04-03T17:07:52Z</time>
      </trkpt>
      <trkpt lat="46.13624" lon="-0.17089">
        <ele>62.2</ele>
        <time>2022-04-03T17:07:53Z</time>
      </trkpt>
      <trkpt lat="46.13628" lon="-0.17099">
        <ele>61.8</ele>
        <time>2022-04-03T17:07:54Z</time>
      </trkpt>
      <trkpt lat="46.13632" lon="-0.17108">
        <ele>61.4</ele>
        <time>2022-04-03T17:07:55Z</time>
      </trkpt>
      <trkpt lat="46.13636" lon="-0.17118">
        <ele>61.4</ele>
        <time>2022-04-03T17:07:56Z</time>
      </trkpt>
      <trkpt lat="46.13641" lon="-0.17128">
        <ele>60.8</ele>
        <time>2022-04-03T17:07:57Z</time>
      </trkpt>
      <trkpt lat="46.13646" lon="-0.17137">
        <ele>60.6</ele>
        <time>2022-04-03T17:07:58Z</time>
      </trkpt>
      <trkpt lat="46.1365" lon="-0.17147">
        <ele>59.6</ele>
        <time>2022-04-03T17:07:59Z</time>
      </trkpt>
      <trkpt lat="46.13655" lon="-0.17158">
        <ele>59.4</ele>
        <time>2022-04-03T17:08:00Z</time>
      </trkpt>
      <trkpt lat="46.13659" lon="-0.17168">
        <ele>59</ele>
        <time>2022-04-03T17:08:01Z</time>
      </trkpt>
      <trkpt lat="46.13664" lon="-0.17179">
        <ele>58.4</ele>
        <time>2022-04-03T17:08:02Z</time>
      </trkpt>
      <trkpt lat="46.13669" lon="-0.1719">
        <ele>58</ele>
        <time>2022-04-03T17:08:03Z</time>
      </trkpt>
      <trkpt lat="46.13674" lon="-0.172">
        <ele>57.6</ele>
        <time>2022-04-03T17:08:04Z</time>
      </trkpt>
      <trkpt lat="46.13679" lon="-0.17211">
        <ele>57</ele>
        <time>2022-04-03T17:08:05Z</time>
      </trkpt>
      <trkpt lat="46.13684" lon="-0.17222">
        <ele>56</ele>
        <time>2022-04-03T17:08:06Z</time>
      </trkpt>
      <trkpt lat="46.13689" lon="-0.17233">
        <ele>55.8</ele>
        <time>2022-04-03T17:08:07Z</time>
      </trkpt>
      <trkpt lat="46.13694" lon="-0.17244">
        <ele>55.6</ele>
        <time>2022-04-03T17:08:08Z</time>
      </trkpt>
      <trkpt lat="46.13698" lon="-0.17254">
        <ele>55</ele>
        <time>2022-04-03T17:08:09Z</time>
      </trkpt>
      <trkpt lat="46.13703" lon="-0.17264">
        <ele>54</ele>
        <time>2022-04-03T17:08:10Z</time>
      </trkpt>
      <trkpt lat="46.13707" lon="-0.17274">
        <ele>53.2</ele>
        <time>2022-04-03T17:08:11Z</time>
      </trkpt>
      <trkpt lat="46.13711" lon="-0.17283">
        <ele>52.4</ele>
        <time>2022-04-03T17:08:12Z</time>
      </trkpt>
      <trkpt lat="46.13715" lon="-0.17291">
        <ele>52.2</ele>
        <time>2022-04-03T17:08:13Z</time>
      </trkpt>
      <trkpt lat="46.13718" lon="-0.17299">
        <ele>51.8</ele>
        <time>2022-04-03T17:08:14Z</time>
      </trkpt>
      <trkpt lat="46.13722" lon="-0.17306">
        <ele>51.8</ele>
        <time>2022-04-03T17:08:15Z</time>
      </trkpt>
      <trkpt lat="46.13725" lon="-0.17312">
        <ele>52</ele>
        <time>2022-04-03T17:08:16Z</time>
      </trkpt>
      <trkpt lat="46.13728" lon="-0.17318">
        <ele>51.8</ele>
        <time>2022-04-03T17:08:17Z</time>
      </trkpt>
      <trkpt lat="46.1373" lon="-0.17323">
        <ele>51.6</ele>
        <time>2022-04-03T17:08:18Z</time>
      </trkpt>
      <trkpt lat="46.13732" lon="-0.17328">
        <ele>51.8</ele>
        <time>2022-04-03T17:08:19Z</time>
      </trkpt>
      <trkpt lat="46.13734" lon="-0.17333">
        <ele>51.8</ele>
        <time>2022-04-03T17:08:20Z</time>
      </trkpt>
      <trkpt lat="46.13735" lon="-0.17337">
        <ele>51.6</ele>
        <time>2022-04-03T17:08:21Z</time>
      </trkpt>
      <trkpt lat="46.13737" lon="-0.17341">
        <ele>51.8</ele>
        <time>2022-04-03T17:08:22Z</time>
      </trkpt>
      <trkpt lat="46.13739" lon="-0.17345">
        <ele>52</ele>
        <time>2022-04-03T17:08:23Z</time>
      </trkpt>
      <trkpt lat="46.1374" lon="-0.17349">
        <ele>52.2</ele>
        <time>2022-04-03T17:08:24Z</time>
      </trkpt>
      <trkpt lat="46.13742" lon="-0.17353">
        <ele>52.8</ele>
        <time>2022-04-03T17:08:25Z</time>
      </trkpt>
      <trkpt lat="46.13743" lon="-0.17356">
        <ele>53.6</ele>
        <time>2022-04-03T17:08:26Z</time>
      </trkpt>
      <trkpt lat="46.13745" lon="-0.1736">
        <ele>54.2</ele>
        <time>2022-04-03T17:08:27Z</time>
      </trkpt>
      <trkpt lat="46.13746" lon="-0.17363">
        <ele>54.8</ele>
        <time>2022-04-03T17:08:28Z</time>
      </trkpt>
      <trkpt lat="46.13748" lon="-0.17367">
        <ele>55</ele>
        <time>2022-04-03T17:08:29Z</time>
      </trkpt>
      <trkpt lat="46.13749" lon="-0.1737">
        <ele>55.2</ele>
        <time>2022-04-03T17:08:30Z</time>
      </trkpt>
      <trkpt lat="46.1375" lon="-0.17374">
        <ele>55.4</ele>
        <time>2022-04-03T17:08:31Z</time>
      </trkpt>
      <trkpt lat="46.13752" lon="-0.17377">
        <ele>55.8</ele>
        <time>2022-04-03T17:08:32Z</time>
      </trkpt>
      <trkpt lat="46.13753" lon="-0.17381">
        <ele>56.2</ele>
        <time>2022-04-03T17:08:33Z</time>
      </trkpt>
      <trkpt lat="46.13755" lon="-0.17384">
        <ele>56.2</ele>
        <time>2022-04-03T17:08:34Z</time>
      </trkpt>
      <trkpt lat="46.13756" lon="-0.17388">
        <ele>56.6</ele>
        <time>2022-04-03T17:08:35Z</time>
      </trkpt>
      <trkpt lat="46.13757" lon="-0.17391">
        <ele>56.8</ele>
        <time>2022-04-03T17:08:36Z</time>
      </trkpt>
      <trkpt lat="46.13759" lon="-0.17395">
        <ele>57</ele>
        <time>2022-04-03T17:08:37Z</time>
      </trkpt>
      <trkpt lat="46.1376" lon="-0.17398">
        <ele>57.4</ele>
        <time>2022-04-03T17:08:38Z</time>
      </trkpt>
      <trkpt lat="46.13762" lon="-0.17401">
        <ele>57.6</ele>
        <time>2022-04-03T17:08:39Z</time>
      </trkpt>
      <trkpt lat="46.13763" lon="-0.17405">
        <ele>57.8</ele>
        <time>2022-04-03T17:08:40Z</time>
      </trkpt>
      <trkpt lat="46.13764" lon="-0.17408">
        <ele>58</ele>
        <time>2022-04-03T17:08:41Z</time>
      </trkpt>
      <trkpt lat="46.13766" lon="-0.17412">
        <ele>58.2</ele>
        <time>2022-04-03T17:08:42Z</time>
      </trkpt>
      <trkpt lat="46.13767" lon="-0.17415">
        <ele>58.4</ele>
        <time>2022-04-03T17:08:43Z</time>
      </trkpt>
      <trkpt lat="46.13769" lon="-0.17418">
        <ele>58.6</ele>
        <time>2022-04-03T17:08:44Z</time>
      </trkpt>
      <trkpt lat="46.1377" lon="-0.17422">
        <ele>58.8</ele>
        <time>2022-04-03T17:08:45Z</time>
      </trkpt>
      <trkpt lat="46.13771" lon="-0.17425">
        <ele>59.2</ele>
        <time>2022-04-03T17:08:46Z</time>
      </trkpt>
      <trkpt lat="46.13773" lon="-0.17429">
        <ele>59.4</ele>
        <time>2022-04-03T17:08:47Z</time>
      </trkpt>
      <trkpt lat="46.13774" lon="-0.17432">
        <ele>59.6</ele>
        <time>2022-04-03T17:08:48Z</time>
      </trkpt>
      <trkpt lat="46.13775" lon="-0.17435">
        <ele>59.8</ele>
        <time>2022-04-03T17:08:49Z</time>
      </trkpt>
      <trkpt lat="46.13777" lon="-0.17439">
        <ele>60</ele>
        <time>2022-04-03T17:08:50Z</time>
      </trkpt>
      <trkpt lat="46.13778" lon="-0.17442">
        <ele>60</ele>
        <time>2022-04-03T17:08:51Z</time>
      </trkpt>
      <trkpt lat="46.13779" lon="-0.17446">
        <ele>60.2</ele>
        <time>2022-04-03T17:08:52Z</time>
      </trkpt>
      <trkpt lat="46.13781" lon="-0.17449">
        <ele>60.2</ele>
        <time>2022-04-03T17:08:53Z</time>
      </trkpt>
      <trkpt lat="46.13782" lon="-0.17452">
        <ele>60.4</ele>
        <time>2022-04-03T17:08:54Z</time>
      </trkpt>
      <trkpt lat="46.13784" lon="-0.17456">
        <ele>60.6</ele>
        <time>2022-04-03T17:08:55Z</time>
      </trkpt>
      <trkpt lat="46.13785" lon="-0.17459">
        <ele>60.8</ele>
        <time>2022-04-03T17:08:56Z</time>
      </trkpt>
      <trkpt lat="46.13786" lon="-0.17463">
        <ele>60.8</ele>
        <time>2022-04-03T17:08:57Z</time>
      </trkpt>
      <trkpt lat="46.13788" lon="-0.17467">
        <ele>61</ele>
        <time>2022-04-03T17:08:58Z</time>
      </trkpt>
      <trkpt lat="46.13789" lon="-0.1747">
        <ele>61.2</ele>
        <time>2022-04-03T17:08:59Z</time>
      </trkpt>
      <trkpt lat="46.13791" lon="-0.17474">
        <ele>61.6</ele>
        <time>2022-04-03T17:09:00Z</time>
      </trkpt>
      <trkpt lat="46.13792" lon="-0.17478">
        <ele>61.8</ele>
        <time>2022-04-03T17:09:01Z</time>
      </trkpt>
      <trkpt lat="46.13794" lon="-0.17481">
        <ele>61.8</ele>
        <time>2022-04-03T17:09:02Z</time>
      </trkpt>
      <trkpt lat="46.13795" lon="-0.17485">
        <ele>62</ele>
        <time>2022-04-03T17:09:03Z</time>
      </trkpt>
      <trkpt lat="46.13796" lon="-0.17489">
        <ele>62</ele>
        <time>2022-04-03T17:09:04Z</time>
      </trkpt>
      <trkpt lat="46.13798" lon="-0.17492">
        <ele>62.2</ele>
        <time>2022-04-03T17:09:05Z</time>
      </trkpt>
      <trkpt lat="46.13799" lon="-0.17496">
        <ele>62.4</ele>
        <time>2022-04-03T17:09:06Z</time>
      </trkpt>
      <trkpt lat="46.13801" lon="-0.175">
        <ele>62.6</ele>
        <time>2022-04-03T17:09:07Z</time>
      </trkpt>
      <trkpt lat="46.13802" lon="-0.17504">
        <ele>62.6</ele>
        <time>2022-04-03T17:09:08Z</time>
      </trkpt>
      <trkpt lat="46.13804" lon="-0.17508">
        <ele>62.8</ele>
        <time>2022-04-03T17:09:09Z</time>
      </trkpt>
      <trkpt lat="46.13805" lon="-0.17512">
        <ele>62.8</ele>
        <time>2022-04-03T17:09:10Z</time>
      </trkpt>
      <trkpt lat="46.13807" lon="-0.17516">
        <ele>63</ele>
        <time>2022-04-03T17:09:11Z</time>
      </trkpt>
      <trkpt lat="46.13809" lon="-0.1752">
        <ele>63</ele>
        <time>2022-04-03T17:09:12Z</time>
      </trkpt>
      <trkpt lat="46.1381" lon="-0.17524">
        <ele>63</ele>
        <time>2022-04-03T17:09:13Z</time>
      </trkpt>
      <trkpt lat="46.13811" lon="-0.17528">
        <ele>63</ele>
        <time>2022-04-03T17:09:14Z</time>
      </trkpt>
      <trkpt lat="46.13813" lon="-0.17532">
        <ele>63.2</ele>
        <time>2022-04-03T17:09:15Z</time>
      </trkpt>
      <trkpt lat="46.13815" lon="-0.17536">
        <ele>63.4</ele>
        <time>2022-04-03T17:09:16Z</time>
      </trkpt>
      <trkpt lat="46.13816" lon="-0.1754">
        <ele>63.2</ele>
        <time>2022-04-03T17:09:17Z</time>
      </trkpt>
      <trkpt lat="46.13818" lon="-0.17544">
        <ele>63.6</ele>
        <time>2022-04-03T17:09:18Z</time>
      </trkpt>
      <trkpt lat="46.1382" lon="-0.17548">
        <ele>63.6</ele>
        <time>2022-04-03T17:09:19Z</time>
      </trkpt>
      <trkpt lat="46.13821" lon="-0.17552">
        <ele>63.8</ele>
        <time>2022-04-03T17:09:20Z</time>
      </trkpt>
      <trkpt lat="46.13823" lon="-0.17556">
        <ele>64</ele>
        <time>2022-04-03T17:09:21Z</time>
      </trkpt>
      <trkpt lat="46.13825" lon="-0.1756">
        <ele>64</ele>
        <time>2022-04-03T17:09:22Z</time>
      </trkpt>
      <trkpt lat="46.13827" lon="-0.17564">
        <ele>64</ele>
        <time>2022-04-03T17:09:23Z</time>
      </trkpt>
      <trkpt lat="46.13829" lon="-0.17568">
        <ele>64.2</ele>
        <time>2022-04-03T17:09:24Z</time>
      </trkpt>
      <trkpt lat="46.13831" lon="-0.17572">
        <ele>64.2</ele>
        <time>2022-04-03T17:09:25Z</time>
      </trkpt>
      <trkpt lat="46.13833" lon="-0.17576">
        <ele>64.4</ele>
        <time>2022-04-03T17:09:26Z</time>
      </trkpt>
      <trkpt lat="46.13835" lon="-0.17579">
        <ele>64.4</ele>
        <time>2022-04-03T17:09:27Z</time>
      </trkpt>
      <trkpt lat="46.13837" lon="-0.17583">
        <ele>64.4</ele>
        <time>2022-04-03T17:09:28Z</time>
      </trkpt>
      <trkpt lat="46.13839" lon="-0.17587">
        <ele>64.6</ele>
        <time>2022-04-03T17:09:29Z</time>
      </trkpt>
      <trkpt lat="46.13841" lon="-0.1759">
        <ele>64.6</ele>
        <time>2022-04-03T17:09:30Z</time>
      </trkpt>
      <trkpt lat="46.13843" lon="-0.17594">
        <ele>64.6</ele>
        <time>2022-04-03T17:09:31Z</time>
      </trkpt>
      <trkpt lat="46.13845" lon="-0.17597">
        <ele>64.8</ele>
        <time>2022-04-03T17:09:32Z</time>
      </trkpt>
      <trkpt lat="46.13848" lon="-0.17601">
        <ele>64.6</ele>
        <time>2022-04-03T17:09:33Z</time>
      </trkpt>
      <trkpt lat="46.1385" lon="-0.17604">
        <ele>64.8</ele>
        <time>2022-04-03T17:09:34Z</time>
      </trkpt>
      <trkpt lat="46.13852" lon="-0.17607">
        <ele>64.8</ele>
        <time>2022-04-03T17:09:35Z</time>
      </trkpt>
      <trkpt lat="46.13854" lon="-0.17611">
        <ele>65</ele>
        <time>2022-04-03T17:09:36Z</time>
      </trkpt>
      <trkpt lat="46.13857" lon="-0.17614">
        <ele>65</ele>
        <time>2022-04-03T17:09:37Z</time>
      </trkpt>
      <trkpt lat="46.13859" lon="-0.17618">
        <ele>65</ele>
        <time>2022-04-03T17:09:38Z</time>
      </trkpt>
      <trkpt lat="46.13861" lon="-0.17621">
        <ele>65.2</ele>
        <time>2022-04-03T17:09:39Z</time>
      </trkpt>
      <trkpt lat="46.13863" lon="-0.17625">
        <ele>65.4</ele>
        <time>2022-04-03T17:09:40Z</time>
      </trkpt>
      <trkpt lat="46.13865" lon="-0.17628">
        <ele>65.4</ele>
        <time>2022-04-03T17:09:41Z</time>
      </trkpt>
      <trkpt lat="46.13867" lon="-0.17631">
        <ele>65.4</ele>
        <time>2022-04-03T17:09:42Z</time>
      </trkpt>
      <trkpt lat="46.13869" lon="-0.17634">
        <ele>65.4</ele>
        <time>2022-04-03T17:09:43Z</time>
      </trkpt>
      <trkpt lat="46.13871" lon="-0.17637">
        <ele>65.6</ele>
        <time>2022-04-03T17:09:44Z</time>
      </trkpt>
      <trkpt lat="46.13873" lon="-0.1764">
        <ele>65.6</ele>
        <time>2022-04-03T17:09:45Z</time>
      </trkpt>
      <trkpt lat="46.13875" lon="-0.17643">
        <ele>65.8</ele>
        <time>2022-04-03T17:09:46Z</time>
      </trkpt>
      <trkpt lat="46.13877" lon="-0.17646">
        <ele>65.8</ele>
        <time>2022-04-03T17:09:47Z</time>
      </trkpt>
      <trkpt lat="46.13879" lon="-0.1765">
        <ele>66</ele>
        <time>2022-04-03T17:09:48Z</time>
      </trkpt>
      <trkpt lat="46.13881" lon="-0.17653">
        <ele>66</ele>
        <time>2022-04-03T17:09:49Z</time>
      </trkpt>
      <trkpt lat="46.13884" lon="-0.17656">
        <ele>66</ele>
        <time>2022-04-03T17:09:50Z</time>
      </trkpt>
      <trkpt lat="46.13886" lon="-0.1766">
        <ele>66.4</ele>
        <time>2022-04-03T17:09:51Z</time>
      </trkpt>
      <trkpt lat="46.13888" lon="-0.17663">
        <ele>66.2</ele>
        <time>2022-04-03T17:09:52Z</time>
      </trkpt>
      <trkpt lat="46.1389" lon="-0.17666">
        <ele>66.4</ele>
        <time>2022-04-03T17:09:53Z</time>
      </trkpt>
      <trkpt lat="46.13892" lon="-0.1767">
        <ele>66.4</ele>
        <time>2022-04-03T17:09:54Z</time>
      </trkpt>
      <trkpt lat="46.13895" lon="-0.17673">
        <ele>66.4</ele>
        <time>2022-04-03T17:09:55Z</time>
      </trkpt>
      <trkpt lat="46.13897" lon="-0.17677">
        <ele>66.6</ele>
        <time>2022-04-03T17:09:56Z</time>
      </trkpt>
      <trkpt lat="46.13899" lon="-0.1768">
        <ele>66.6</ele>
        <time>2022-04-03T17:09:57Z</time>
      </trkpt>
      <trkpt lat="46.13901" lon="-0.17683">
        <ele>66.6</ele>
        <time>2022-04-03T17:09:58Z</time>
      </trkpt>
      <trkpt lat="46.13904" lon="-0.17687">
        <ele>66.6</ele>
        <time>2022-04-03T17:09:59Z</time>
      </trkpt>
      <trkpt lat="46.13906" lon="-0.1769">
        <ele>66.8</ele>
        <time>2022-04-03T17:10:00Z</time>
      </trkpt>
      <trkpt lat="46.13908" lon="-0.17693">
        <ele>66.8</ele>
        <time>2022-04-03T17:10:01Z</time>
      </trkpt>
      <trkpt lat="46.13911" lon="-0.17697">
        <ele>67</ele>
        <time>2022-04-03T17:10:02Z</time>
      </trkpt>
      <trkpt lat="46.13913" lon="-0.177">
        <ele>67.2</ele>
        <time>2022-04-03T17:10:03Z</time>
      </trkpt>
      <trkpt lat="46.13916" lon="-0.17703">
        <ele>67.4</ele>
        <time>2022-04-03T17:10:04Z</time>
      </trkpt>
      <trkpt lat="46.13918" lon="-0.17707">
        <ele>67.6</ele>
        <time>2022-04-03T17:10:05Z</time>
      </trkpt>
      <trkpt lat="46.13921" lon="-0.1771">
        <ele>67.6</ele>
        <time>2022-04-03T17:10:06Z</time>
      </trkpt>
      <trkpt lat="46.13923" lon="-0.17713">
        <ele>67.6</ele>
        <time>2022-04-03T17:10:07Z</time>
      </trkpt>
      <trkpt lat="46.13926" lon="-0.17716">
        <ele>67.8</ele>
        <time>2022-04-03T17:10:08Z</time>
      </trkpt>
      <trkpt lat="46.13928" lon="-0.17719">
        <ele>67.8</ele>
        <time>2022-04-03T17:10:09Z</time>
      </trkpt>
      <trkpt lat="46.13931" lon="-0.17722">
        <ele>68</ele>
        <time>2022-04-03T17:10:10Z</time>
      </trkpt>
      <trkpt lat="46.13933" lon="-0.17724">
        <ele>68</ele>
        <time>2022-04-03T17:10:11Z</time>
      </trkpt>
      <trkpt lat="46.13936" lon="-0.17727">
        <ele>68.2</ele>
        <time>2022-04-03T17:10:12Z</time>
      </trkpt>
      <trkpt lat="46.13939" lon="-0.17729">
        <ele>68</ele>
        <time>2022-04-03T17:10:13Z</time>
      </trkpt>
      <trkpt lat="46.13942" lon="-0.17732">
        <ele>68.2</ele>
        <time>2022-04-03T17:10:14Z</time>
      </trkpt>
      <trkpt lat="46.13944" lon="-0.17734">
        <ele>68.4</ele>
        <time>2022-04-03T17:10:15Z</time>
      </trkpt>
      <trkpt lat="46.13947" lon="-0.17737">
        <ele>68.2</ele>
        <time>2022-04-03T17:10:16Z</time>
      </trkpt>
      <trkpt lat="46.13949" lon="-0.17739">
        <ele>68.4</ele>
        <time>2022-04-03T17:10:17Z</time>
      </trkpt>
      <trkpt lat="46.13952" lon="-0.17741">
        <ele>68.4</ele>
        <time>2022-04-03T17:10:18Z</time>
      </trkpt>
      <trkpt lat="46.13955" lon="-0.17743">
        <ele>68.6</ele>
        <time>2022-04-03T17:10:19Z</time>
      </trkpt>
      <trkpt lat="46.13957" lon="-0.17745">
        <ele>68.8</ele>
        <time>2022-04-03T17:10:20Z</time>
      </trkpt>
      <trkpt lat="46.1396" lon="-0.17748">
        <ele>69</ele>
        <time>2022-04-03T17:10:21Z</time>
      </trkpt>
      <trkpt lat="46.13963" lon="-0.1775">
        <ele>69.2</ele>
        <time>2022-04-03T17:10:22Z</time>
      </trkpt>
      <trkpt lat="46.13966" lon="-0.17752">
        <ele>69.2</ele>
        <time>2022-04-03T17:10:23Z</time>
      </trkpt>
      <trkpt lat="46.13969" lon="-0.17755">
        <ele>69.2</ele>
        <time>2022-04-03T17:10:24Z</time>
      </trkpt>
      <trkpt lat="46.13971" lon="-0.17758">
        <ele>69.6</ele>
        <time>2022-04-03T17:10:25Z</time>
      </trkpt>
      <trkpt lat="46.13974" lon="-0.1776">
        <ele>69.6</ele>
        <time>2022-04-03T17:10:26Z</time>
      </trkpt>
      <trkpt lat="46.13977" lon="-0.17763">
        <ele>69.6</ele>
        <time>2022-04-03T17:10:27Z</time>
      </trkpt>
      <trkpt lat="46.1398" lon="-0.17766">
        <ele>69.6</ele>
        <time>2022-04-03T17:10:28Z</time>
      </trkpt>
      <trkpt lat="46.13982" lon="-0.17769">
        <ele>70</ele>
        <time>2022-04-03T17:10:29Z</time>
      </trkpt>
      <trkpt lat="46.13985" lon="-0.17772">
        <ele>69.8</ele>
        <time>2022-04-03T17:10:30Z</time>
      </trkpt>
      <trkpt lat="46.13988" lon="-0.17775">
        <ele>70.2</ele>
        <time>2022-04-03T17:10:31Z</time>
      </trkpt>
      <trkpt lat="46.1399" lon="-0.17779">
        <ele>70.2</ele>
        <time>2022-04-03T17:10:32Z</time>
      </trkpt>
      <trkpt lat="46.13993" lon="-0.17783">
        <ele>70.2</ele>
        <time>2022-04-03T17:10:33Z</time>
      </trkpt>
      <trkpt lat="46.13995" lon="-0.17786">
        <ele>70.6</ele>
        <time>2022-04-03T17:10:34Z</time>
      </trkpt>
      <trkpt lat="46.13997" lon="-0.1779">
        <ele>70.6</ele>
        <time>2022-04-03T17:10:35Z</time>
      </trkpt>
      <trkpt lat="46.14" lon="-0.17794">
        <ele>70.8</ele>
        <time>2022-04-03T17:10:36Z</time>
      </trkpt>
      <trkpt lat="46.14002" lon="-0.17798">
        <ele>70.8</ele>
        <time>2022-04-03T17:10:37Z</time>
      </trkpt>
      <trkpt lat="46.14005" lon="-0.17802">
        <ele>71</ele>
        <time>2022-04-03T17:10:38Z</time>
      </trkpt>
      <trkpt lat="46.14007" lon="-0.17806">
        <ele>71</ele>
        <time>2022-04-03T17:10:39Z</time>
      </trkpt>
      <trkpt lat="46.14009" lon="-0.1781">
        <ele>71.2</ele>
        <time>2022-04-03T17:10:40Z</time>
      </trkpt>
      <trkpt lat="46.14012" lon="-0.17814">
        <ele>71.2</ele>
        <time>2022-04-03T17:10:41Z</time>
      </trkpt>
      <trkpt lat="46.14014" lon="-0.17818">
        <ele>71.2</ele>
        <time>2022-04-03T17:10:42Z</time>
      </trkpt>
      <trkpt lat="46.14016" lon="-0.17822">
        <ele>71.2</ele>
        <time>2022-04-03T17:10:43Z</time>
      </trkpt>
      <trkpt lat="46.14018" lon="-0.17826">
        <ele>71.2</ele>
        <time>2022-04-03T17:10:44Z</time>
      </trkpt>
      <trkpt lat="46.14021" lon="-0.1783">
        <ele>71.4</ele>
        <time>2022-04-03T17:10:45Z</time>
      </trkpt>
      <trkpt lat="46.14023" lon="-0.17834">
        <ele>71.2</ele>
        <time>2022-04-03T17:10:46Z</time>
      </trkpt>
      <trkpt lat="46.14026" lon="-0.17838">
        <ele>71.2</ele>
        <time>2022-04-03T17:10:47Z</time>
      </trkpt>
      <trkpt lat="46.14028" lon="-0.17843">
        <ele>71.4</ele>
        <time>2022-04-03T17:10:48Z</time>
      </trkpt>
      <trkpt lat="46.1403" lon="-0.17847">
        <ele>71.4</ele>
        <time>2022-04-03T17:10:49Z</time>
      </trkpt>
      <trkpt lat="46.14032" lon="-0.17852">
        <ele>71.2</ele>
        <time>2022-04-03T17:10:50Z</time>
      </trkpt>
      <trkpt lat="46.14034" lon="-0.17857">
        <ele>71.4</ele>
        <time>2022-04-03T17:10:51Z</time>
      </trkpt>
      <trkpt lat="46.14036" lon="-0.17862">
        <ele>71.2</ele>
        <time>2022-04-03T17:10:52Z</time>
      </trkpt>
      <trkpt lat="46.14038" lon="-0.17867">
        <ele>71.4</ele>
        <time>2022-04-03T17:10:53Z</time>
      </trkpt>
      <trkpt lat="46.1404" lon="-0.17872">
        <ele>71.4</ele>
        <time>2022-04-03T17:10:54Z</time>
      </trkpt>
      <trkpt lat="46.14041" lon="-0.17877">
        <ele>71.4</ele>
        <time>2022-04-03T17:10:55Z</time>
      </trkpt>
      <trkpt lat="46.14043" lon="-0.17882">
        <ele>71.4</ele>
        <time>2022-04-03T17:10:56Z</time>
      </trkpt>
      <trkpt lat="46.14045" lon="-0.17887">
        <ele>71.6</ele>
        <time>2022-04-03T17:10:57Z</time>
      </trkpt>
      <trkpt lat="46.14046" lon="-0.17893">
        <ele>71.4</ele>
        <time>2022-04-03T17:10:58Z</time>
      </trkpt>
      <trkpt lat="46.14048" lon="-0.17899">
        <ele>71.4</ele>
        <time>2022-04-03T17:10:59Z</time>
      </trkpt>
      <trkpt lat="46.14049" lon="-0.17905">
        <ele>71.6</ele>
        <time>2022-04-03T17:11:00Z</time>
      </trkpt>
      <trkpt lat="46.1405" lon="-0.17911">
        <ele>71.6</ele>
        <time>2022-04-03T17:11:01Z</time>
      </trkpt>
      <trkpt lat="46.14051" lon="-0.17917">
        <ele>71.6</ele>
        <time>2022-04-03T17:11:02Z</time>
      </trkpt>
      <trkpt lat="46.14052" lon="-0.17923">
        <ele>71.6</ele>
        <time>2022-04-03T17:11:03Z</time>
      </trkpt>
      <trkpt lat="46.14054" lon="-0.17929">
        <ele>71.6</ele>
        <time>2022-04-03T17:11:04Z</time>
      </trkpt>
      <trkpt lat="46.14056" lon="-0.17935">
        <ele>71.6</ele>
        <time>2022-04-03T17:11:05Z</time>
      </trkpt>
      <trkpt lat="46.14057" lon="-0.17941">
        <ele>71.6</ele>
        <time>2022-04-03T17:11:06Z</time>
      </trkpt>
      <trkpt lat="46.14059" lon="-0.17947">
        <ele>71.6</ele>
        <time>2022-04-03T17:11:07Z</time>
      </trkpt>
      <trkpt lat="46.1406" lon="-0.17953">
        <ele>71.6</ele>
        <time>2022-04-03T17:11:08Z</time>
      </trkpt>
      <trkpt lat="46.14062" lon="-0.17959">
        <ele>71.6</ele>
        <time>2022-04-03T17:11:09Z</time>
      </trkpt>
      <trkpt lat="46.14064" lon="-0.17966">
        <ele>71.6</ele>
        <time>2022-04-03T17:11:10Z</time>
      </trkpt>
      <trkpt lat="46.14065" lon="-0.17972">
        <ele>71.4</ele>
        <time>2022-04-03T17:11:11Z</time>
      </trkpt>
      <trkpt lat="46.14067" lon="-0.17978">
        <ele>71.6</ele>
        <time>2022-04-03T17:11:12Z</time>
      </trkpt>
      <trkpt lat="46.14068" lon="-0.17985">
        <ele>71.6</ele>
        <time>2022-04-03T17:11:13Z</time>
      </trkpt>
      <trkpt lat="46.1407" lon="-0.17992">
        <ele>71.4</ele>
        <time>2022-04-03T17:11:14Z</time>
      </trkpt>
      <trkpt lat="46.14071" lon="-0.17999">
        <ele>71.6</ele>
        <time>2022-04-03T17:11:15Z</time>
      </trkpt>
      <trkpt lat="46.14073" lon="-0.18006">
        <ele>71.6</ele>
        <time>2022-04-03T17:11:16Z</time>
      </trkpt>
      <trkpt lat="46.14075" lon="-0.18012">
        <ele>71.4</ele>
        <time>2022-04-03T17:11:17Z</time>
      </trkpt>
      <trkpt lat="46.14076" lon="-0.18019">
        <ele>71.6</ele>
        <time>2022-04-03T17:11:18Z</time>
      </trkpt>
      <trkpt lat="46.14078" lon="-0.18027">
        <ele>71.6</ele>
        <time>2022-04-03T17:11:19Z</time>
      </trkpt>
      <trkpt lat="46.1408" lon="-0.18034">
        <ele>71.6</ele>
        <time>2022-04-03T17:11:20Z</time>
      </trkpt>
      <trkpt lat="46.14082" lon="-0.18041">
        <ele>71.4</ele>
        <time>2022-04-03T17:11:21Z</time>
      </trkpt>
      <trkpt lat="46.14084" lon="-0.18049">
        <ele>71.6</ele>
        <time>2022-04-03T17:11:22Z</time>
      </trkpt>
      <trkpt lat="46.14086" lon="-0.18057">
        <ele>71.6</ele>
        <time>2022-04-03T17:11:23Z</time>
      </trkpt>
      <trkpt lat="46.14087" lon="-0.18064">
        <ele>71.4</ele>
        <time>2022-04-03T17:11:24Z</time>
      </trkpt>
      <trkpt lat="46.14089" lon="-0.18072">
        <ele>71.2</ele>
        <time>2022-04-03T17:11:25Z</time>
      </trkpt>
      <trkpt lat="46.14091" lon="-0.18079">
        <ele>71.2</ele>
        <time>2022-04-03T17:11:26Z</time>
      </trkpt>
      <trkpt lat="46.14093" lon="-0.18087">
        <ele>71.2</ele>
        <time>2022-04-03T17:11:27Z</time>
      </trkpt>
      <trkpt lat="46.14095" lon="-0.18094">
        <ele>71</ele>
        <time>2022-04-03T17:11:28Z</time>
      </trkpt>
      <trkpt lat="46.14097" lon="-0.18101">
        <ele>70.8</ele>
        <time>2022-04-03T17:11:29Z</time>
      </trkpt>
      <trkpt lat="46.14099" lon="-0.18109">
        <ele>70.8</ele>
        <time>2022-04-03T17:11:30Z</time>
      </trkpt>
      <trkpt lat="46.14101" lon="-0.18116">
        <ele>70.6</ele>
        <time>2022-04-03T17:11:31Z</time>
      </trkpt>
      <trkpt lat="46.14103" lon="-0.18123">
        <ele>70.6</ele>
        <time>2022-04-03T17:11:32Z</time>
      </trkpt>
      <trkpt lat="46.14105" lon="-0.1813">
        <ele>70.6</ele>
        <time>2022-04-03T17:11:33Z</time>
      </trkpt>
      <trkpt lat="46.14107" lon="-0.18137">
        <ele>70.4</ele>
        <time>2022-04-03T17:11:34Z</time>
      </trkpt>
      <trkpt lat="46.14109" lon="-0.18144">
        <ele>70.6</ele>
        <time>2022-04-03T17:11:35Z</time>
      </trkpt>
      <trkpt lat="46.14111" lon="-0.18151">
        <ele>70.4</ele>
        <time>2022-04-03T17:11:36Z</time>
      </trkpt>
      <trkpt lat="46.14114" lon="-0.18157">
        <ele>70.4</ele>
        <time>2022-04-03T17:11:37Z</time>
      </trkpt>
      <trkpt lat="46.14116" lon="-0.18164">
        <ele>70.4</ele>
        <time>2022-04-03T17:11:38Z</time>
      </trkpt>
      <trkpt lat="46.14118" lon="-0.18171">
        <ele>70.4</ele>
        <time>2022-04-03T17:11:39Z</time>
      </trkpt>
      <trkpt lat="46.1412" lon="-0.18177">
        <ele>70.4</ele>
        <time>2022-04-03T17:11:40Z</time>
      </trkpt>
      <trkpt lat="46.14122" lon="-0.18184">
        <ele>70.2</ele>
        <time>2022-04-03T17:11:41Z</time>
      </trkpt>
      <trkpt lat="46.14124" lon="-0.1819">
        <ele>70.2</ele>
        <time>2022-04-03T17:11:42Z</time>
      </trkpt>
      <trkpt lat="46.14126" lon="-0.18196">
        <ele>70.4</ele>
        <time>2022-04-03T17:11:43Z</time>
      </trkpt>
      <trkpt lat="46.14127" lon="-0.18202">
        <ele>70.4</ele>
        <time>2022-04-03T17:11:44Z</time>
      </trkpt>
      <trkpt lat="46.14129" lon="-0.18208">
        <ele>70.4</ele>
        <time>2022-04-03T17:11:45Z</time>
      </trkpt>
      <trkpt lat="46.14131" lon="-0.18214">
        <ele>70.6</ele>
        <time>2022-04-03T17:11:46Z</time>
      </trkpt>
      <trkpt lat="46.14133" lon="-0.1822">
        <ele>70.8</ele>
        <time>2022-04-03T17:11:47Z</time>
      </trkpt>
      <trkpt lat="46.14135" lon="-0.18226">
        <ele>70.8</ele>
        <time>2022-04-03T17:11:48Z</time>
      </trkpt>
      <trkpt lat="46.14137" lon="-0.18232">
        <ele>70.8</ele>
        <time>2022-04-03T17:11:49Z</time>
      </trkpt>
      <trkpt lat="46.14139" lon="-0.18238">
        <ele>71.2</ele>
        <time>2022-04-03T17:11:50Z</time>
      </trkpt>
      <trkpt lat="46.14141" lon="-0.18243">
        <ele>71.2</ele>
        <time>2022-04-03T17:11:51Z</time>
      </trkpt>
      <trkpt lat="46.14143" lon="-0.18249">
        <ele>71.6</ele>
        <time>2022-04-03T17:11:52Z</time>
      </trkpt>
      <trkpt lat="46.14145" lon="-0.18255">
        <ele>71.8</ele>
        <time>2022-04-03T17:11:53Z</time>
      </trkpt>
      <trkpt lat="46.14147" lon="-0.18261">
        <ele>71.8</ele>
        <time>2022-04-03T17:11:54Z</time>
      </trkpt>
      <trkpt lat="46.14149" lon="-0.18266">
        <ele>72</ele>
        <time>2022-04-03T17:11:55Z</time>
      </trkpt>
      <trkpt lat="46.14151" lon="-0.18272">
        <ele>72</ele>
        <time>2022-04-03T17:11:56Z</time>
      </trkpt>
      <trkpt lat="46.14153" lon="-0.18278">
        <ele>72.2</ele>
        <time>2022-04-03T17:11:57Z</time>
      </trkpt>
      <trkpt lat="46.14156" lon="-0.18283">
        <ele>72.2</ele>
        <time>2022-04-03T17:11:58Z</time>
      </trkpt>
      <trkpt lat="46.14158" lon="-0.18289">
        <ele>72.4</ele>
        <time>2022-04-03T17:11:59Z</time>
      </trkpt>
      <trkpt lat="46.1416" lon="-0.18295">
        <ele>72.6</ele>
        <time>2022-04-03T17:12:00Z</time>
      </trkpt>
      <trkpt lat="46.14162" lon="-0.183">
        <ele>72.6</ele>
        <time>2022-04-03T17:12:01Z</time>
      </trkpt>
      <trkpt lat="46.14164" lon="-0.18306">
        <ele>72.8</ele>
        <time>2022-04-03T17:12:02Z</time>
      </trkpt>
      <trkpt lat="46.14166" lon="-0.18311">
        <ele>72.8</ele>
        <time>2022-04-03T17:12:03Z</time>
      </trkpt>
      <trkpt lat="46.14169" lon="-0.18317">
        <ele>72.8</ele>
        <time>2022-04-03T17:12:04Z</time>
      </trkpt>
      <trkpt lat="46.14171" lon="-0.18323">
        <ele>72.8</ele>
        <time>2022-04-03T17:12:05Z</time>
      </trkpt>
      <trkpt lat="46.14173" lon="-0.18329">
        <ele>73</ele>
        <time>2022-04-03T17:12:06Z</time>
      </trkpt>
      <trkpt lat="46.14176" lon="-0.18335">
        <ele>73</ele>
        <time>2022-04-03T17:12:07Z</time>
      </trkpt>
      <trkpt lat="46.14178" lon="-0.18341">
        <ele>73.2</ele>
        <time>2022-04-03T17:12:08Z</time>
      </trkpt>
      <trkpt lat="46.1418" lon="-0.18347">
        <ele>73.2</ele>
        <time>2022-04-03T17:12:09Z</time>
      </trkpt>
      <trkpt lat="46.14183" lon="-0.18353">
        <ele>73.2</ele>
        <time>2022-04-03T17:12:10Z</time>
      </trkpt>
      <trkpt lat="46.14185" lon="-0.1836">
        <ele>73.2</ele>
        <time>2022-04-03T17:12:11Z</time>
      </trkpt>
      <trkpt lat="46.14188" lon="-0.18366">
        <ele>73.2</ele>
        <time>2022-04-03T17:12:12Z</time>
      </trkpt>
      <trkpt lat="46.1419" lon="-0.18373">
        <ele>73.2</ele>
        <time>2022-04-03T17:12:13Z</time>
      </trkpt>
      <trkpt lat="46.14193" lon="-0.18379">
        <ele>73.2</ele>
        <time>2022-04-03T17:12:14Z</time>
      </trkpt>
      <trkpt lat="46.14195" lon="-0.18386">
        <ele>73.2</ele>
        <time>2022-04-03T17:12:15Z</time>
      </trkpt>
      <trkpt lat="46.14198" lon="-0.18393">
        <ele>73.2</ele>
        <time>2022-04-03T17:12:16Z</time>
      </trkpt>
      <trkpt lat="46.142" lon="-0.184">
        <ele>73.2</ele>
        <time>2022-04-03T17:12:17Z</time>
      </trkpt>
      <trkpt lat="46.14203" lon="-0.18407">
        <ele>73.2</ele>
        <time>2022-04-03T17:12:18Z</time>
      </trkpt>
      <trkpt lat="46.14205" lon="-0.18414">
        <ele>73.2</ele>
        <time>2022-04-03T17:12:19Z</time>
      </trkpt>
      <trkpt lat="46.14208" lon="-0.18421">
        <ele>73</ele>
        <time>2022-04-03T17:12:20Z</time>
      </trkpt>
      <trkpt lat="46.1421" lon="-0.18429">
        <ele>73</ele>
        <time>2022-04-03T17:12:21Z</time>
      </trkpt>
      <trkpt lat="46.14213" lon="-0.18436">
        <ele>73</ele>
        <time>2022-04-03T17:12:22Z</time>
      </trkpt>
      <trkpt lat="46.14215" lon="-0.18443">
        <ele>73</ele>
        <time>2022-04-03T17:12:23Z</time>
      </trkpt>
      <trkpt lat="46.14218" lon="-0.1845">
        <ele>72.8</ele>
        <time>2022-04-03T17:12:24Z</time>
      </trkpt>
      <trkpt lat="46.1422" lon="-0.18458">
        <ele>72.8</ele>
        <time>2022-04-03T17:12:25Z</time>
      </trkpt>
      <trkpt lat="46.14223" lon="-0.18465">
        <ele>72.8</ele>
        <time>2022-04-03T17:12:26Z</time>
      </trkpt>
      <trkpt lat="46.14225" lon="-0.18473">
        <ele>72.6</ele>
        <time>2022-04-03T17:12:27Z</time>
      </trkpt>
      <trkpt lat="46.14228" lon="-0.1848">
        <ele>72.6</ele>
        <time>2022-04-03T17:12:28Z</time>
      </trkpt>
      <trkpt lat="46.1423" lon="-0.18487">
        <ele>72.4</ele>
        <time>2022-04-03T17:12:29Z</time>
      </trkpt>
      <trkpt lat="46.14233" lon="-0.18495">
        <ele>72.4</ele>
        <time>2022-04-03T17:12:30Z</time>
      </trkpt>
      <trkpt lat="46.14235" lon="-0.18502">
        <ele>72.2</ele>
        <time>2022-04-03T17:12:31Z</time>
      </trkpt>
      <trkpt lat="46.14237" lon="-0.18509">
        <ele>72.2</ele>
        <time>2022-04-03T17:12:32Z</time>
      </trkpt>
      <trkpt lat="46.1424" lon="-0.18517">
        <ele>72.2</ele>
        <time>2022-04-03T17:12:33Z</time>
      </trkpt>
      <trkpt lat="46.14242" lon="-0.18524">
        <ele>72.2</ele>
        <time>2022-04-03T17:12:34Z</time>
      </trkpt>
      <trkpt lat="46.14245" lon="-0.18531">
        <ele>72.2</ele>
        <time>2022-04-03T17:12:35Z</time>
      </trkpt>
      <trkpt lat="46.14247" lon="-0.18538">
        <ele>72.2</ele>
        <time>2022-04-03T17:12:36Z</time>
      </trkpt>
      <trkpt lat="46.14249" lon="-0.18545">
        <ele>72.2</ele>
        <time>2022-04-03T17:12:37Z</time>
      </trkpt>
      <trkpt lat="46.14251" lon="-0.18552">
        <ele>72.2</ele>
        <time>2022-04-03T17:12:38Z</time>
      </trkpt>
      <trkpt lat="46.14254" lon="-0.18559">
        <ele>72.2</ele>
        <time>2022-04-03T17:12:39Z</time>
      </trkpt>
      <trkpt lat="46.14256" lon="-0.18566">
        <ele>72</ele>
        <time>2022-04-03T17:12:40Z</time>
      </trkpt>
      <trkpt lat="46.14258" lon="-0.18572">
        <ele>72</ele>
        <time>2022-04-03T17:12:41Z</time>
      </trkpt>
      <trkpt lat="46.1426" lon="-0.18579">
        <ele>72</ele>
        <time>2022-04-03T17:12:42Z</time>
      </trkpt>
      <trkpt lat="46.14263" lon="-0.18586">
        <ele>72.2</ele>
        <time>2022-04-03T17:12:43Z</time>
      </trkpt>
      <trkpt lat="46.14265" lon="-0.18593">
        <ele>72.2</ele>
        <time>2022-04-03T17:12:44Z</time>
      </trkpt>
      <trkpt lat="46.14267" lon="-0.186">
        <ele>72.4</ele>
        <time>2022-04-03T17:12:45Z</time>
      </trkpt>
      <trkpt lat="46.14269" lon="-0.18607">
        <ele>72.6</ele>
        <time>2022-04-03T17:12:46Z</time>
      </trkpt>
      <trkpt lat="46.14271" lon="-0.18614">
        <ele>72.8</ele>
        <time>2022-04-03T17:12:47Z</time>
      </trkpt>
      <trkpt lat="46.14273" lon="-0.18621">
        <ele>72.8</ele>
        <time>2022-04-03T17:12:48Z</time>
      </trkpt>
      <trkpt lat="46.14275" lon="-0.18628">
        <ele>72.8</ele>
        <time>2022-04-03T17:12:49Z</time>
      </trkpt>
      <trkpt lat="46.14277" lon="-0.18636">
        <ele>73</ele>
        <time>2022-04-03T17:12:50Z</time>
      </trkpt>
      <trkpt lat="46.14279" lon="-0.18644">
        <ele>72.8</ele>
        <time>2022-04-03T17:12:51Z</time>
      </trkpt>
      <trkpt lat="46.1428" lon="-0.18652">
        <ele>72.8</ele>
        <time>2022-04-03T17:12:52Z</time>
      </trkpt>
      <trkpt lat="46.14282" lon="-0.1866">
        <ele>72.8</ele>
        <time>2022-04-03T17:12:53Z</time>
      </trkpt>
      <trkpt lat="46.14284" lon="-0.18668">
        <ele>73</ele>
        <time>2022-04-03T17:12:54Z</time>
      </trkpt>
      <trkpt lat="46.14286" lon="-0.18676">
        <ele>73</ele>
        <time>2022-04-03T17:12:55Z</time>
      </trkpt>
      <trkpt lat="46.14288" lon="-0.18685">
        <ele>72.8</ele>
        <time>2022-04-03T17:12:56Z</time>
      </trkpt>
      <trkpt lat="46.1429" lon="-0.18693">
        <ele>73</ele>
        <time>2022-04-03T17:12:57Z</time>
      </trkpt>
      <trkpt lat="46.14292" lon="-0.18702">
        <ele>73</ele>
        <time>2022-04-03T17:12:58Z</time>
      </trkpt>
      <trkpt lat="46.14293" lon="-0.18711">
        <ele>72.8</ele>
        <time>2022-04-03T17:12:59Z</time>
      </trkpt>
      <trkpt lat="46.14295" lon="-0.1872">
        <ele>72.8</ele>
        <time>2022-04-03T17:13:00Z</time>
      </trkpt>
      <trkpt lat="46.14297" lon="-0.18729">
        <ele>72.8</ele>
        <time>2022-04-03T17:13:01Z</time>
      </trkpt>
      <trkpt lat="46.14299" lon="-0.18738">
        <ele>72.6</ele>
        <time>2022-04-03T17:13:02Z</time>
      </trkpt>
      <trkpt lat="46.14301" lon="-0.18747">
        <ele>72.6</ele>
        <time>2022-04-03T17:13:03Z</time>
      </trkpt>
      <trkpt lat="46.14303" lon="-0.18756">
        <ele>72.4</ele>
        <time>2022-04-03T17:13:04Z</time>
      </trkpt>
      <trkpt lat="46.14305" lon="-0.18765">
        <ele>72.4</ele>
        <time>2022-04-03T17:13:05Z</time>
      </trkpt>
      <trkpt lat="46.14308" lon="-0.18774">
        <ele>72.2</ele>
        <time>2022-04-03T17:13:06Z</time>
      </trkpt>
      <trkpt lat="46.1431" lon="-0.18783">
        <ele>72</ele>
        <time>2022-04-03T17:13:07Z</time>
      </trkpt>
      <trkpt lat="46.14313" lon="-0.18792">
        <ele>72</ele>
        <time>2022-04-03T17:13:08Z</time>
      </trkpt>
      <trkpt lat="46.14315" lon="-0.18801">
        <ele>71.8</ele>
        <time>2022-04-03T17:13:09Z</time>
      </trkpt>
      <trkpt lat="46.14318" lon="-0.1881">
        <ele>71.8</ele>
        <time>2022-04-03T17:13:10Z</time>
      </trkpt>
      <trkpt lat="46.1432" lon="-0.18819">
        <ele>71.4</ele>
        <time>2022-04-03T17:13:11Z</time>
      </trkpt>
      <trkpt lat="46.14323" lon="-0.18828">
        <ele>71.4</ele>
        <time>2022-04-03T17:13:12Z</time>
      </trkpt>
      <trkpt lat="46.14326" lon="-0.18837">
        <ele>71.2</ele>
        <time>2022-04-03T17:13:13Z</time>
      </trkpt>
      <trkpt lat="46.14329" lon="-0.18846">
        <ele>70.8</ele>
        <time>2022-04-03T17:13:14Z</time>
      </trkpt>
      <trkpt lat="46.14332" lon="-0.18855">
        <ele>70.4</ele>
        <time>2022-04-03T17:13:15Z</time>
      </trkpt>
      <trkpt lat="46.14335" lon="-0.18864">
        <ele>70.2</ele>
        <time>2022-04-03T17:13:16Z</time>
      </trkpt>
      <trkpt lat="46.14338" lon="-0.18873">
        <ele>70</ele>
        <time>2022-04-03T17:13:17Z</time>
      </trkpt>
      <trkpt lat="46.14341" lon="-0.18882">
        <ele>69.8</ele>
        <time>2022-04-03T17:13:18Z</time>
      </trkpt>
      <trkpt lat="46.14344" lon="-0.18891">
        <ele>69.4</ele>
        <time>2022-04-03T17:13:19Z</time>
      </trkpt>
      <trkpt lat="46.14347" lon="-0.189">
        <ele>69.4</ele>
        <time>2022-04-03T17:13:20Z</time>
      </trkpt>
      <trkpt lat="46.1435" lon="-0.18909">
        <ele>69.2</ele>
        <time>2022-04-03T17:13:21Z</time>
      </trkpt>
      <trkpt lat="46.14353" lon="-0.18918">
        <ele>69</ele>
        <time>2022-04-03T17:13:22Z</time>
      </trkpt>
      <trkpt lat="46.14357" lon="-0.18926">
        <ele>69</ele>
        <time>2022-04-03T17:13:23Z</time>
      </trkpt>
      <trkpt lat="46.1436" lon="-0.18935">
        <ele>68.8</ele>
        <time>2022-04-03T17:13:24Z</time>
      </trkpt>
      <trkpt lat="46.14363" lon="-0.18943">
        <ele>68.6</ele>
        <time>2022-04-03T17:13:25Z</time>
      </trkpt>
      <trkpt lat="46.14366" lon="-0.18951">
        <ele>68.2</ele>
        <time>2022-04-03T17:13:26Z</time>
      </trkpt>
      <trkpt lat="46.1437" lon="-0.18958">
        <ele>68</ele>
        <time>2022-04-03T17:13:27Z</time>
      </trkpt>
      <trkpt lat="46.14373" lon="-0.18966">
        <ele>67.8</ele>
        <time>2022-04-03T17:13:28Z</time>
      </trkpt>
      <trkpt lat="46.14376" lon="-0.18974">
        <ele>67.8</ele>
        <time>2022-04-03T17:13:29Z</time>
      </trkpt>
      <trkpt lat="46.14379" lon="-0.18981">
        <ele>67.4</ele>
        <time>2022-04-03T17:13:30Z</time>
      </trkpt>
      <trkpt lat="46.14382" lon="-0.18988">
        <ele>67.4</ele>
        <time>2022-04-03T17:13:31Z</time>
      </trkpt>
      <trkpt lat="46.14385" lon="-0.18996">
        <ele>67.2</ele>
        <time>2022-04-03T17:13:32Z</time>
      </trkpt>
      <trkpt lat="46.14388" lon="-0.19003">
        <ele>67.4</ele>
        <time>2022-04-03T17:13:33Z</time>
      </trkpt>
      <trkpt lat="46.14391" lon="-0.1901">
        <ele>67.2</ele>
        <time>2022-04-03T17:13:34Z</time>
      </trkpt>
      <trkpt lat="46.14393" lon="-0.19017">
        <ele>67.2</ele>
        <time>2022-04-03T17:13:35Z</time>
      </trkpt>
      <trkpt lat="46.14396" lon="-0.19024">
        <ele>67.2</ele>
        <time>2022-04-03T17:13:36Z</time>
      </trkpt>
      <trkpt lat="46.14399" lon="-0.1903">
        <ele>67.2</ele>
        <time>2022-04-03T17:13:37Z</time>
      </trkpt>
      <trkpt lat="46.14401" lon="-0.19037">
        <ele>67</ele>
        <time>2022-04-03T17:13:38Z</time>
      </trkpt>
      <trkpt lat="46.14404" lon="-0.19044">
        <ele>67</ele>
        <time>2022-04-03T17:13:39Z</time>
      </trkpt>
      <trkpt lat="46.14406" lon="-0.19051">
        <ele>67.2</ele>
        <time>2022-04-03T17:13:40Z</time>
      </trkpt>
      <trkpt lat="46.14409" lon="-0.19057">
        <ele>67</ele>
        <time>2022-04-03T17:13:41Z</time>
      </trkpt>
      <trkpt lat="46.14412" lon="-0.19064">
        <ele>67</ele>
        <time>2022-04-03T17:13:42Z</time>
      </trkpt>
      <trkpt lat="46.14414" lon="-0.19071">
        <ele>67</ele>
        <time>2022-04-03T17:13:43Z</time>
      </trkpt>
      <trkpt lat="46.14417" lon="-0.19078">
        <ele>67</ele>
        <time>2022-04-03T17:13:44Z</time>
      </trkpt>
      <trkpt lat="46.1442" lon="-0.19085">
        <ele>67.2</ele>
        <time>2022-04-03T17:13:45Z</time>
      </trkpt>
      <trkpt lat="46.14423" lon="-0.19092">
        <ele>67</ele>
        <time>2022-04-03T17:13:46Z</time>
      </trkpt>
      <trkpt lat="46.14426" lon="-0.19098">
        <ele>67</ele>
        <time>2022-04-03T17:13:47Z</time>
      </trkpt>
      <trkpt lat="46.14429" lon="-0.19105">
        <ele>67</ele>
        <time>2022-04-03T17:13:48Z</time>
      </trkpt>
      <trkpt lat="46.14432" lon="-0.19112">
        <ele>67</ele>
        <time>2022-04-03T17:13:49Z</time>
      </trkpt>
      <trkpt lat="46.14436" lon="-0.19119">
        <ele>67</ele>
        <time>2022-04-03T17:13:50Z</time>
      </trkpt>
      <trkpt lat="46.14439" lon="-0.19125">
        <ele>67</ele>
        <time>2022-04-03T17:13:51Z</time>
      </trkpt>
      <trkpt lat="46.14443" lon="-0.19132">
        <ele>67</ele>
        <time>2022-04-03T17:13:52Z</time>
      </trkpt>
      <trkpt lat="46.14447" lon="-0.19138">
        <ele>67</ele>
        <time>2022-04-03T17:13:53Z</time>
      </trkpt>
      <trkpt lat="46.1445" lon="-0.19144">
        <ele>66.8</ele>
        <time>2022-04-03T17:13:54Z</time>
      </trkpt>
      <trkpt lat="46.14454" lon="-0.19151">
        <ele>66.8</ele>
        <time>2022-04-03T17:13:55Z</time>
      </trkpt>
      <trkpt lat="46.14458" lon="-0.19158">
        <ele>66.8</ele>
        <time>2022-04-03T17:13:56Z</time>
      </trkpt>
      <trkpt lat="46.14462" lon="-0.19164">
        <ele>66.6</ele>
        <time>2022-04-03T17:13:57Z</time>
      </trkpt>
      <trkpt lat="46.14466" lon="-0.19171">
        <ele>66.6</ele>
        <time>2022-04-03T17:13:58Z</time>
      </trkpt>
      <trkpt lat="46.1447" lon="-0.19178">
        <ele>66.6</ele>
        <time>2022-04-03T17:13:59Z</time>
      </trkpt>
      <trkpt lat="46.14474" lon="-0.19185">
        <ele>66.6</ele>
        <time>2022-04-03T17:14:00Z</time>
      </trkpt>
      <trkpt lat="46.14478" lon="-0.19192">
        <ele>66.6</ele>
        <time>2022-04-03T17:14:01Z</time>
      </trkpt>
      <trkpt lat="46.14482" lon="-0.19199">
        <ele>66.6</ele>
        <time>2022-04-03T17:14:02Z</time>
      </trkpt>
      <trkpt lat="46.14486" lon="-0.19205">
        <ele>66.6</ele>
        <time>2022-04-03T17:14:03Z</time>
      </trkpt>
      <trkpt lat="46.14491" lon="-0.19212">
        <ele>66.6</ele>
        <time>2022-04-03T17:14:04Z</time>
      </trkpt>
      <trkpt lat="46.14495" lon="-0.19219">
        <ele>66.4</ele>
        <time>2022-04-03T17:14:05Z</time>
      </trkpt>
      <trkpt lat="46.14499" lon="-0.19226">
        <ele>66.2</ele>
        <time>2022-04-03T17:14:06Z</time>
      </trkpt>
      <trkpt lat="46.14503" lon="-0.19234">
        <ele>66</ele>
        <time>2022-04-03T17:14:07Z</time>
      </trkpt>
      <trkpt lat="46.14508" lon="-0.19241">
        <ele>65.8</ele>
        <time>2022-04-03T17:14:08Z</time>
      </trkpt>
      <trkpt lat="46.14512" lon="-0.19249">
        <ele>65.6</ele>
        <time>2022-04-03T17:14:09Z</time>
      </trkpt>
      <trkpt lat="46.14516" lon="-0.19256">
        <ele>65.4</ele>
        <time>2022-04-03T17:14:10Z</time>
      </trkpt>
      <trkpt lat="46.1452" lon="-0.19264">
        <ele>65.2</ele>
        <time>2022-04-03T17:14:11Z</time>
      </trkpt>
      <trkpt lat="46.14523" lon="-0.19272">
        <ele>65</ele>
        <time>2022-04-03T17:14:12Z</time>
      </trkpt>
      <trkpt lat="46.14527" lon="-0.19279">
        <ele>64.8</ele>
        <time>2022-04-03T17:14:13Z</time>
      </trkpt>
      <trkpt lat="46.1453" lon="-0.19287">
        <ele>64.4</ele>
        <time>2022-04-03T17:14:14Z</time>
      </trkpt>
      <trkpt lat="46.14533" lon="-0.19294">
        <ele>64</ele>
        <time>2022-04-03T17:14:15Z</time>
      </trkpt>
      <trkpt lat="46.14536" lon="-0.19301">
        <ele>63.8</ele>
        <time>2022-04-03T17:14:16Z</time>
      </trkpt>
      <trkpt lat="46.14539" lon="-0.19308">
        <ele>63.8</ele>
        <time>2022-04-03T17:14:17Z</time>
      </trkpt>
      <trkpt lat="46.14542" lon="-0.19316">
        <ele>63.8</ele>
        <time>2022-04-03T17:14:18Z</time>
      </trkpt>
      <trkpt lat="46.14545" lon="-0.19323">
        <ele>63.6</ele>
        <time>2022-04-03T17:14:19Z</time>
      </trkpt>
      <trkpt lat="46.14548" lon="-0.1933">
        <ele>63.6</ele>
        <time>2022-04-03T17:14:20Z</time>
      </trkpt>
      <trkpt lat="46.1455" lon="-0.19337">
        <ele>63.6</ele>
        <time>2022-04-03T17:14:21Z</time>
      </trkpt>
      <trkpt lat="46.14553" lon="-0.19344">
        <ele>63.4</ele>
        <time>2022-04-03T17:14:22Z</time>
      </trkpt>
      <trkpt lat="46.14556" lon="-0.1935">
        <ele>63.4</ele>
        <time>2022-04-03T17:14:23Z</time>
      </trkpt>
      <trkpt lat="46.14559" lon="-0.19357">
        <ele>63.4</ele>
        <time>2022-04-03T17:14:24Z</time>
      </trkpt>
      <trkpt lat="46.14562" lon="-0.19364">
        <ele>63.4</ele>
        <time>2022-04-03T17:14:25Z</time>
      </trkpt>
      <trkpt lat="46.14565" lon="-0.1937">
        <ele>63.4</ele>
        <time>2022-04-03T17:14:26Z</time>
      </trkpt>
      <trkpt lat="46.14568" lon="-0.19377">
        <ele>63.4</ele>
        <time>2022-04-03T17:14:27Z</time>
      </trkpt>
      <trkpt lat="46.14571" lon="-0.19383">
        <ele>63.2</ele>
        <time>2022-04-03T17:14:28Z</time>
      </trkpt>
      <trkpt lat="46.14573" lon="-0.1939">
        <ele>63.6</ele>
        <time>2022-04-03T17:14:29Z</time>
      </trkpt>
      <trkpt lat="46.14576" lon="-0.19397">
        <ele>63.6</ele>
        <time>2022-04-03T17:14:30Z</time>
      </trkpt>
      <trkpt lat="46.14579" lon="-0.19403">
        <ele>63.8</ele>
        <time>2022-04-03T17:14:31Z</time>
      </trkpt>
      <trkpt lat="46.14582" lon="-0.1941">
        <ele>63.8</ele>
        <time>2022-04-03T17:14:32Z</time>
      </trkpt>
      <trkpt lat="46.14586" lon="-0.19417">
        <ele>64</ele>
        <time>2022-04-03T17:14:33Z</time>
      </trkpt>
      <trkpt lat="46.14589" lon="-0.19423">
        <ele>64</ele>
        <time>2022-04-03T17:14:34Z</time>
      </trkpt>
      <trkpt lat="46.14592" lon="-0.1943">
        <ele>64</ele>
        <time>2022-04-03T17:14:35Z</time>
      </trkpt>
      <trkpt lat="46.14596" lon="-0.19437">
        <ele>64</ele>
        <time>2022-04-03T17:14:36Z</time>
      </trkpt>
      <trkpt lat="46.14599" lon="-0.19443">
        <ele>64</ele>
        <time>2022-04-03T17:14:37Z</time>
      </trkpt>
      <trkpt lat="46.14603" lon="-0.19449">
        <ele>64</ele>
        <time>2022-04-03T17:14:38Z</time>
      </trkpt>
      <trkpt lat="46.14607" lon="-0.19456">
        <ele>64</ele>
        <time>2022-04-03T17:14:39Z</time>
      </trkpt>
      <trkpt lat="46.14611" lon="-0.19462">
        <ele>64</ele>
        <time>2022-04-03T17:14:40Z</time>
      </trkpt>
      <trkpt lat="46.14615" lon="-0.19469">
        <ele>64</ele>
        <time>2022-04-03T17:14:41Z</time>
      </trkpt>
      <trkpt lat="46.14618" lon="-0.19475">
        <ele>64.2</ele>
        <time>2022-04-03T17:14:42Z</time>
      </trkpt>
      <trkpt lat="46.14622" lon="-0.19482">
        <ele>64</ele>
        <time>2022-04-03T17:14:43Z</time>
      </trkpt>
      <trkpt lat="46.14626" lon="-0.19489">
        <ele>64</ele>
        <time>2022-04-03T17:14:44Z</time>
      </trkpt>
      <trkpt lat="46.1463" lon="-0.19496">
        <ele>64.2</ele>
        <time>2022-04-03T17:14:45Z</time>
      </trkpt>
      <trkpt lat="46.14633" lon="-0.19502">
        <ele>64.2</ele>
        <time>2022-04-03T17:14:46Z</time>
      </trkpt>
      <trkpt lat="46.14637" lon="-0.19509">
        <ele>64</ele>
        <time>2022-04-03T17:14:47Z</time>
      </trkpt>
      <trkpt lat="46.1464" lon="-0.19516">
        <ele>64</ele>
        <time>2022-04-03T17:14:48Z</time>
      </trkpt>
      <trkpt lat="46.14643" lon="-0.19522">
        <ele>64</ele>
        <time>2022-04-03T17:14:49Z</time>
      </trkpt>
      <trkpt lat="46.14646" lon="-0.19529">
        <ele>64</ele>
        <time>2022-04-03T17:14:50Z</time>
      </trkpt>
      <trkpt lat="46.1465" lon="-0.19535">
        <ele>64</ele>
        <time>2022-04-03T17:14:51Z</time>
      </trkpt>
      <trkpt lat="46.14654" lon="-0.19541">
        <ele>63.8</ele>
        <time>2022-04-03T17:14:52Z</time>
      </trkpt>
      <trkpt lat="46.14657" lon="-0.19548">
        <ele>64</ele>
        <time>2022-04-03T17:14:53Z</time>
      </trkpt>
      <trkpt lat="46.14661" lon="-0.19555">
        <ele>63.8</ele>
        <time>2022-04-03T17:14:54Z</time>
      </trkpt>
      <trkpt lat="46.14664" lon="-0.19562">
        <ele>63.8</ele>
        <time>2022-04-03T17:14:55Z</time>
      </trkpt>
      <trkpt lat="46.14668" lon="-0.19569">
        <ele>64</ele>
        <time>2022-04-03T17:14:56Z</time>
      </trkpt>
      <trkpt lat="46.14672" lon="-0.19576">
        <ele>63.8</ele>
        <time>2022-04-03T17:14:57Z</time>
      </trkpt>
      <trkpt lat="46.14675" lon="-0.19583">
        <ele>63.8</ele>
        <time>2022-04-03T17:14:58Z</time>
      </trkpt>
      <trkpt lat="46.14679" lon="-0.1959">
        <ele>63.8</ele>
        <time>2022-04-03T17:14:59Z</time>
      </trkpt>
      <trkpt lat="46.14683" lon="-0.19598">
        <ele>63.8</ele>
        <time>2022-04-03T17:15:00Z</time>
      </trkpt>
      <trkpt lat="46.14687" lon="-0.19605">
        <ele>63.6</ele>
        <time>2022-04-03T17:15:01Z</time>
      </trkpt>
      <trkpt lat="46.14691" lon="-0.19611">
        <ele>63.6</ele>
        <time>2022-04-03T17:15:02Z</time>
      </trkpt>
      <trkpt lat="46.14695" lon="-0.19618">
        <ele>63.6</ele>
        <time>2022-04-03T17:15:03Z</time>
      </trkpt>
      <trkpt lat="46.14699" lon="-0.19625">
        <ele>63.4</ele>
        <time>2022-04-03T17:15:04Z</time>
      </trkpt>
      <trkpt lat="46.14703" lon="-0.19632">
        <ele>63.2</ele>
        <time>2022-04-03T17:15:05Z</time>
      </trkpt>
      <trkpt lat="46.14706" lon="-0.19639">
        <ele>63.4</ele>
        <time>2022-04-03T17:15:06Z</time>
      </trkpt>
      <trkpt lat="46.1471" lon="-0.19646">
        <ele>63.2</ele>
        <time>2022-04-03T17:15:07Z</time>
      </trkpt>
      <trkpt lat="46.14714" lon="-0.19653">
        <ele>63.2</ele>
        <time>2022-04-03T17:15:08Z</time>
      </trkpt>
      <trkpt lat="46.14717" lon="-0.19661">
        <ele>63.2</ele>
        <time>2022-04-03T17:15:09Z</time>
      </trkpt>
      <trkpt lat="46.14721" lon="-0.19668">
        <ele>63.2</ele>
        <time>2022-04-03T17:15:10Z</time>
      </trkpt>
      <trkpt lat="46.14724" lon="-0.19675">
        <ele>63</ele>
        <time>2022-04-03T17:15:11Z</time>
      </trkpt>
      <trkpt lat="46.14727" lon="-0.19683">
        <ele>62.8</ele>
        <time>2022-04-03T17:15:12Z</time>
      </trkpt>
      <trkpt lat="46.1473" lon="-0.1969">
        <ele>62.8</ele>
        <time>2022-04-03T17:15:13Z</time>
      </trkpt>
      <trkpt lat="46.14733" lon="-0.19698">
        <ele>62.8</ele>
        <time>2022-04-03T17:15:14Z</time>
      </trkpt>
      <trkpt lat="46.14736" lon="-0.19705">
        <ele>62.6</ele>
        <time>2022-04-03T17:15:15Z</time>
      </trkpt>
      <trkpt lat="46.14739" lon="-0.19713">
        <ele>62.8</ele>
        <time>2022-04-03T17:15:16Z</time>
      </trkpt>
      <trkpt lat="46.14742" lon="-0.19721">
        <ele>62.4</ele>
        <time>2022-04-03T17:15:17Z</time>
      </trkpt>
      <trkpt lat="46.14745" lon="-0.19728">
        <ele>62.6</ele>
        <time>2022-04-03T17:15:18Z</time>
      </trkpt>
      <trkpt lat="46.14748" lon="-0.19736">
        <ele>62.6</ele>
        <time>2022-04-03T17:15:19Z</time>
      </trkpt>
      <trkpt lat="46.14751" lon="-0.19744">
        <ele>62.6</ele>
        <time>2022-04-03T17:15:20Z</time>
      </trkpt>
      <trkpt lat="46.14754" lon="-0.19752">
        <ele>62.6</ele>
        <time>2022-04-03T17:15:21Z</time>
      </trkpt>
      <trkpt lat="46.14758" lon="-0.1976">
        <ele>62.4</ele>
        <time>2022-04-03T17:15:22Z</time>
      </trkpt>
      <trkpt lat="46.14761" lon="-0.19768">
        <ele>62.4</ele>
        <time>2022-04-03T17:15:23Z</time>
      </trkpt>
      <trkpt lat="46.14764" lon="-0.19775">
        <ele>62.6</ele>
        <time>2022-04-03T17:15:24Z</time>
      </trkpt>
      <trkpt lat="46.14767" lon="-0.19783">
        <ele>62.4</ele>
        <time>2022-04-03T17:15:25Z</time>
      </trkpt>
      <trkpt lat="46.1477" lon="-0.19791">
        <ele>62.4</ele>
        <time>2022-04-03T17:15:26Z</time>
      </trkpt>
      <trkpt lat="46.14774" lon="-0.19799">
        <ele>62.2</ele>
        <time>2022-04-03T17:15:27Z</time>
      </trkpt>
      <trkpt lat="46.14777" lon="-0.19806">
        <ele>62.2</ele>
        <time>2022-04-03T17:15:28Z</time>
      </trkpt>
      <trkpt lat="46.1478" lon="-0.19814">
        <ele>62.2</ele>
        <time>2022-04-03T17:15:29Z</time>
      </trkpt>
      <trkpt lat="46.14783" lon="-0.19821">
        <ele>62.2</ele>
        <time>2022-04-03T17:15:30Z</time>
      </trkpt>
      <trkpt lat="46.14786" lon="-0.19829">
        <ele>62.4</ele>
        <time>2022-04-03T17:15:31Z</time>
      </trkpt>
      <trkpt lat="46.14789" lon="-0.19836">
        <ele>62.4</ele>
        <time>2022-04-03T17:15:32Z</time>
      </trkpt>
      <trkpt lat="46.14793" lon="-0.19843">
        <ele>62.4</ele>
        <time>2022-04-03T17:15:33Z</time>
      </trkpt>
      <trkpt lat="46.14796" lon="-0.19851">
        <ele>62.4</ele>
        <time>2022-04-03T17:15:34Z</time>
      </trkpt>
      <trkpt lat="46.14799" lon="-0.19857">
        <ele>62.2</ele>
        <time>2022-04-03T17:15:35Z</time>
      </trkpt>
      <trkpt lat="46.14803" lon="-0.19864">
        <ele>62.2</ele>
        <time>2022-04-03T17:15:36Z</time>
      </trkpt>
      <trkpt lat="46.14806" lon="-0.19871">
        <ele>62.4</ele>
        <time>2022-04-03T17:15:37Z</time>
      </trkpt>
      <trkpt lat="46.1481" lon="-0.19877">
        <ele>62.4</ele>
        <time>2022-04-03T17:15:38Z</time>
      </trkpt>
      <trkpt lat="46.14813" lon="-0.19884">
        <ele>62.4</ele>
        <time>2022-04-03T17:15:39Z</time>
      </trkpt>
      <trkpt lat="46.14817" lon="-0.1989">
        <ele>62.4</ele>
        <time>2022-04-03T17:15:40Z</time>
      </trkpt>
      <trkpt lat="46.1482" lon="-0.19896">
        <ele>62.4</ele>
        <time>2022-04-03T17:15:41Z</time>
      </trkpt>
      <trkpt lat="46.14824" lon="-0.19901">
        <ele>62.4</ele>
        <time>2022-04-03T17:15:42Z</time>
      </trkpt>
      <trkpt lat="46.14828" lon="-0.19907">
        <ele>62.6</ele>
        <time>2022-04-03T17:15:43Z</time>
      </trkpt>
      <trkpt lat="46.14831" lon="-0.19913">
        <ele>62.8</ele>
        <time>2022-04-03T17:15:44Z</time>
      </trkpt>
      <trkpt lat="46.14835" lon="-0.19919">
        <ele>63</ele>
        <time>2022-04-03T17:15:45Z</time>
      </trkpt>
      <trkpt lat="46.14839" lon="-0.19925">
        <ele>63.2</ele>
        <time>2022-04-03T17:15:46Z</time>
      </trkpt>
      <trkpt lat="46.14842" lon="-0.19931">
        <ele>63.2</ele>
        <time>2022-04-03T17:15:47Z</time>
      </trkpt>
      <trkpt lat="46.14846" lon="-0.19938">
        <ele>63.2</ele>
        <time>2022-04-03T17:15:48Z</time>
      </trkpt>
      <trkpt lat="46.14849" lon="-0.19944">
        <ele>63.2</ele>
        <time>2022-04-03T17:15:49Z</time>
      </trkpt>
      <trkpt lat="46.14852" lon="-0.19951">
        <ele>63.2</ele>
        <time>2022-04-03T17:15:50Z</time>
      </trkpt>
      <trkpt lat="46.14856" lon="-0.19957">
        <ele>63.2</ele>
        <time>2022-04-03T17:15:51Z</time>
      </trkpt>
      <trkpt lat="46.14859" lon="-0.19964">
        <ele>63.2</ele>
        <time>2022-04-03T17:15:52Z</time>
      </trkpt>
      <trkpt lat="46.14862" lon="-0.19971">
        <ele>63.4</ele>
        <time>2022-04-03T17:15:53Z</time>
      </trkpt>
      <trkpt lat="46.14865" lon="-0.19978">
        <ele>63.2</ele>
        <time>2022-04-03T17:15:54Z</time>
      </trkpt>
      <trkpt lat="46.14868" lon="-0.19985">
        <ele>63.2</ele>
        <time>2022-04-03T17:15:55Z</time>
      </trkpt>
      <trkpt lat="46.14871" lon="-0.19993">
        <ele>63.2</ele>
        <time>2022-04-03T17:15:56Z</time>
      </trkpt>
      <trkpt lat="46.14875" lon="-0.2">
        <ele>63.2</ele>
        <time>2022-04-03T17:15:57Z</time>
      </trkpt>
      <trkpt lat="46.14878" lon="-0.20008">
        <ele>63.2</ele>
        <time>2022-04-03T17:15:58Z</time>
      </trkpt>
      <trkpt lat="46.14881" lon="-0.20016">
        <ele>63.4</ele>
        <time>2022-04-03T17:15:59Z</time>
      </trkpt>
      <trkpt lat="46.14884" lon="-0.20024">
        <ele>63.2</ele>
        <time>2022-04-03T17:16:00Z</time>
      </trkpt>
      <trkpt lat="46.14887" lon="-0.20033">
        <ele>63.2</ele>
        <time>2022-04-03T17:16:01Z</time>
      </trkpt>
      <trkpt lat="46.1489" lon="-0.20041">
        <ele>63.2</ele>
        <time>2022-04-03T17:16:02Z</time>
      </trkpt>
      <trkpt lat="46.14893" lon="-0.2005">
        <ele>63.2</ele>
        <time>2022-04-03T17:16:03Z</time>
      </trkpt>
      <trkpt lat="46.14897" lon="-0.20058">
        <ele>63</ele>
        <time>2022-04-03T17:16:04Z</time>
      </trkpt>
      <trkpt lat="46.14901" lon="-0.20066">
        <ele>62.8</ele>
        <time>2022-04-03T17:16:05Z</time>
      </trkpt>
      <trkpt lat="46.14904" lon="-0.20074">
        <ele>62.8</ele>
        <time>2022-04-03T17:16:06Z</time>
      </trkpt>
      <trkpt lat="46.14908" lon="-0.20082">
        <ele>62.6</ele>
        <time>2022-04-03T17:16:07Z</time>
      </trkpt>
      <trkpt lat="46.14911" lon="-0.2009">
        <ele>62.6</ele>
        <time>2022-04-03T17:16:08Z</time>
      </trkpt>
      <trkpt lat="46.14915" lon="-0.20098">
        <ele>62.4</ele>
        <time>2022-04-03T17:16:09Z</time>
      </trkpt>
      <trkpt lat="46.14919" lon="-0.20106">
        <ele>62.2</ele>
        <time>2022-04-03T17:16:10Z</time>
      </trkpt>
      <trkpt lat="46.14922" lon="-0.20113">
        <ele>62.2</ele>
        <time>2022-04-03T17:16:11Z</time>
      </trkpt>
      <trkpt lat="46.14926" lon="-0.20121">
        <ele>61.8</ele>
        <time>2022-04-03T17:16:12Z</time>
      </trkpt>
      <trkpt lat="46.14929" lon="-0.20128">
        <ele>61.8</ele>
        <time>2022-04-03T17:16:13Z</time>
      </trkpt>
      <trkpt lat="46.14933" lon="-0.20136">
        <ele>61.6</ele>
        <time>2022-04-03T17:16:14Z</time>
      </trkpt>
      <trkpt lat="46.14937" lon="-0.20143">
        <ele>61.6</ele>
        <time>2022-04-03T17:16:15Z</time>
      </trkpt>
      <trkpt lat="46.14941" lon="-0.2015">
        <ele>61.6</ele>
        <time>2022-04-03T17:16:16Z</time>
      </trkpt>
      <trkpt lat="46.14944" lon="-0.20157">
        <ele>61.4</ele>
        <time>2022-04-03T17:16:17Z</time>
      </trkpt>
      <trkpt lat="46.14947" lon="-0.20165">
        <ele>61.6</ele>
        <time>2022-04-03T17:16:18Z</time>
      </trkpt>
      <trkpt lat="46.14951" lon="-0.20172">
        <ele>61.6</ele>
        <time>2022-04-03T17:16:19Z</time>
      </trkpt>
      <trkpt lat="46.14954" lon="-0.20179">
        <ele>61.4</ele>
        <time>2022-04-03T17:16:20Z</time>
      </trkpt>
      <trkpt lat="46.14957" lon="-0.20186">
        <ele>61.2</ele>
        <time>2022-04-03T17:16:21Z</time>
      </trkpt>
      <trkpt lat="46.1496" lon="-0.20193">
        <ele>61.2</ele>
        <time>2022-04-03T17:16:22Z</time>
      </trkpt>
      <trkpt lat="46.14963" lon="-0.202">
        <ele>61.4</ele>
        <time>2022-04-03T17:16:23Z</time>
      </trkpt>
      <trkpt lat="46.14966" lon="-0.20208">
        <ele>61.4</ele>
        <time>2022-04-03T17:16:24Z</time>
      </trkpt>
      <trkpt lat="46.14969" lon="-0.20215">
        <ele>61.4</ele>
        <time>2022-04-03T17:16:25Z</time>
      </trkpt>
      <trkpt lat="46.14971" lon="-0.20223">
        <ele>61.4</ele>
        <time>2022-04-03T17:16:26Z</time>
      </trkpt>
      <trkpt lat="46.14974" lon="-0.2023">
        <ele>61.4</ele>
        <time>2022-04-03T17:16:27Z</time>
      </trkpt>
      <trkpt lat="46.14977" lon="-0.20238">
        <ele>61.4</ele>
        <time>2022-04-03T17:16:28Z</time>
      </trkpt>
      <trkpt lat="46.1498" lon="-0.20246">
        <ele>61.2</ele>
        <time>2022-04-03T17:16:29Z</time>
      </trkpt>
      <trkpt lat="46.14983" lon="-0.20254">
        <ele>61.2</ele>
        <time>2022-04-03T17:16:30Z</time>
      </trkpt>
      <trkpt lat="46.14986" lon="-0.20262">
        <ele>61.4</ele>
        <time>2022-04-03T17:16:31Z</time>
      </trkpt>
      <trkpt lat="46.14988" lon="-0.2027">
        <ele>61.2</ele>
        <time>2022-04-03T17:16:32Z</time>
      </trkpt>
      <trkpt lat="46.14991" lon="-0.20278">
        <ele>61.2</ele>
        <time>2022-04-03T17:16:33Z</time>
      </trkpt>
      <trkpt lat="46.14994" lon="-0.20287">
        <ele>61.2</ele>
        <time>2022-04-03T17:16:34Z</time>
      </trkpt>
      <trkpt lat="46.14996" lon="-0.20295">
        <ele>61.2</ele>
        <time>2022-04-03T17:16:35Z</time>
      </trkpt>
      <trkpt lat="46.14999" lon="-0.20304">
        <ele>61.2</ele>
        <time>2022-04-03T17:16:36Z</time>
      </trkpt>
      <trkpt lat="46.15002" lon="-0.20312">
        <ele>61.2</ele>
        <time>2022-04-03T17:16:37Z</time>
      </trkpt>
      <trkpt lat="46.15005" lon="-0.20321">
        <ele>61.2</ele>
        <time>2022-04-03T17:16:38Z</time>
      </trkpt>
      <trkpt lat="46.15007" lon="-0.2033">
        <ele>61</ele>
        <time>2022-04-03T17:16:39Z</time>
      </trkpt>
      <trkpt lat="46.1501" lon="-0.2034">
        <ele>60.8</ele>
        <time>2022-04-03T17:16:40Z</time>
      </trkpt>
      <trkpt lat="46.15012" lon="-0.20349">
        <ele>60.6</ele>
        <time>2022-04-03T17:16:41Z</time>
      </trkpt>
      <trkpt lat="46.15015" lon="-0.20359">
        <ele>60.6</ele>
        <time>2022-04-03T17:16:42Z</time>
      </trkpt>
      <trkpt lat="46.15017" lon="-0.20369">
        <ele>60.4</ele>
        <time>2022-04-03T17:16:43Z</time>
      </trkpt>
      <trkpt lat="46.15019" lon="-0.20379">
        <ele>60.2</ele>
        <time>2022-04-03T17:16:44Z</time>
      </trkpt>
      <trkpt lat="46.15022" lon="-0.20389">
        <ele>60</ele>
        <time>2022-04-03T17:16:45Z</time>
      </trkpt>
      <trkpt lat="46.15024" lon="-0.204">
        <ele>59.8</ele>
        <time>2022-04-03T17:16:46Z</time>
      </trkpt>
      <trkpt lat="46.15027" lon="-0.2041">
        <ele>59.8</ele>
        <time>2022-04-03T17:16:47Z</time>
      </trkpt>
      <trkpt lat="46.15029" lon="-0.2042">
        <ele>59.4</ele>
        <time>2022-04-03T17:16:48Z</time>
      </trkpt>
      <trkpt lat="46.15032" lon="-0.2043">
        <ele>59.4</ele>
        <time>2022-04-03T17:16:49Z</time>
      </trkpt>
      <trkpt lat="46.15034" lon="-0.2044">
        <ele>59.2</ele>
        <time>2022-04-03T17:16:50Z</time>
      </trkpt>
      <trkpt lat="46.15036" lon="-0.20451">
        <ele>58.8</ele>
        <time>2022-04-03T17:16:51Z</time>
      </trkpt>
      <trkpt lat="46.15038" lon="-0.20461">
        <ele>58.6</ele>
        <time>2022-04-03T17:16:52Z</time>
      </trkpt>
      <trkpt lat="46.15041" lon="-0.20471">
        <ele>58.2</ele>
        <time>2022-04-03T17:16:53Z</time>
      </trkpt>
      <trkpt lat="46.15043" lon="-0.2048">
        <ele>57.6</ele>
        <time>2022-04-03T17:16:54Z</time>
      </trkpt>
      <trkpt lat="46.15045" lon="-0.2049">
        <ele>57.2</ele>
        <time>2022-04-03T17:16:55Z</time>
      </trkpt>
      <trkpt lat="46.15048" lon="-0.20499">
        <ele>57</ele>
        <time>2022-04-03T17:16:56Z</time>
      </trkpt>
      <trkpt lat="46.1505" lon="-0.20508">
        <ele>56.8</ele>
        <time>2022-04-03T17:16:57Z</time>
      </trkpt>
      <trkpt lat="46.15052" lon="-0.20517">
        <ele>56.8</ele>
        <time>2022-04-03T17:16:58Z</time>
      </trkpt>
      <trkpt lat="46.15055" lon="-0.20526">
        <ele>56.8</ele>
        <time>2022-04-03T17:16:59Z</time>
      </trkpt>
      <trkpt lat="46.15057" lon="-0.20534">
        <ele>56.8</ele>
        <time>2022-04-03T17:17:00Z</time>
      </trkpt>
      <trkpt lat="46.1506" lon="-0.20542">
        <ele>56.8</ele>
        <time>2022-04-03T17:17:01Z</time>
      </trkpt>
      <trkpt lat="46.15063" lon="-0.2055">
        <ele>56.8</ele>
        <time>2022-04-03T17:17:02Z</time>
      </trkpt>
      <trkpt lat="46.15066" lon="-0.20557">
        <ele>56.8</ele>
        <time>2022-04-03T17:17:03Z</time>
      </trkpt>
      <trkpt lat="46.15069" lon="-0.20565">
        <ele>56.8</ele>
        <time>2022-04-03T17:17:04Z</time>
      </trkpt>
      <trkpt lat="46.15072" lon="-0.20573">
        <ele>56.8</ele>
        <time>2022-04-03T17:17:05Z</time>
      </trkpt>
      <trkpt lat="46.15076" lon="-0.2058">
        <ele>57</ele>
        <time>2022-04-03T17:17:06Z</time>
      </trkpt>
      <trkpt lat="46.15079" lon="-0.20586">
        <ele>57</ele>
        <time>2022-04-03T17:17:07Z</time>
      </trkpt>
      <trkpt lat="46.15083" lon="-0.20593">
        <ele>57</ele>
        <time>2022-04-03T17:17:08Z</time>
      </trkpt>
      <trkpt lat="46.15087" lon="-0.20599">
        <ele>57.2</ele>
        <time>2022-04-03T17:17:09Z</time>
      </trkpt>
      <trkpt lat="46.15091" lon="-0.20605">
        <ele>57.4</ele>
        <time>2022-04-03T17:17:10Z</time>
      </trkpt>
      <trkpt lat="46.15095" lon="-0.20611">
        <ele>57.6</ele>
        <time>2022-04-03T17:17:11Z</time>
      </trkpt>
      <trkpt lat="46.15099" lon="-0.20616">
        <ele>57.6</ele>
        <time>2022-04-03T17:17:12Z</time>
      </trkpt>
      <trkpt lat="46.15103" lon="-0.20621">
        <ele>57.6</ele>
        <time>2022-04-03T17:17:13Z</time>
      </trkpt>
      <trkpt lat="46.15107" lon="-0.20626">
        <ele>57.8</ele>
        <time>2022-04-03T17:17:14Z</time>
      </trkpt>
      <trkpt lat="46.15111" lon="-0.20631">
        <ele>57.8</ele>
        <time>2022-04-03T17:17:15Z</time>
      </trkpt>
      <trkpt lat="46.15115" lon="-0.20635">
        <ele>58.2</ele>
        <time>2022-04-03T17:17:16Z</time>
      </trkpt>
      <trkpt lat="46.15119" lon="-0.2064">
        <ele>58.2</ele>
        <time>2022-04-03T17:17:17Z</time>
      </trkpt>
      <trkpt lat="46.15123" lon="-0.20645">
        <ele>58.4</ele>
        <time>2022-04-03T17:17:18Z</time>
      </trkpt>
      <trkpt lat="46.15127" lon="-0.2065">
        <ele>58.6</ele>
        <time>2022-04-03T17:17:19Z</time>
      </trkpt>
      <trkpt lat="46.15131" lon="-0.20655">
        <ele>58.4</ele>
        <time>2022-04-03T17:17:20Z</time>
      </trkpt>
      <trkpt lat="46.15135" lon="-0.2066">
        <ele>58.8</ele>
        <time>2022-04-03T17:17:21Z</time>
      </trkpt>
      <trkpt lat="46.15138" lon="-0.20665">
        <ele>58.8</ele>
        <time>2022-04-03T17:17:22Z</time>
      </trkpt>
      <trkpt lat="46.15142" lon="-0.20669">
        <ele>59</ele>
        <time>2022-04-03T17:17:23Z</time>
      </trkpt>
      <trkpt lat="46.15146" lon="-0.20673">
        <ele>59.2</ele>
        <time>2022-04-03T17:17:24Z</time>
      </trkpt>
      <trkpt lat="46.1515" lon="-0.20678">
        <ele>59.4</ele>
        <time>2022-04-03T17:17:25Z</time>
      </trkpt>
      <trkpt lat="46.15154" lon="-0.20683">
        <ele>59.4</ele>
        <time>2022-04-03T17:17:26Z</time>
      </trkpt>
      <trkpt lat="46.15157" lon="-0.20688">
        <ele>59.4</ele>
        <time>2022-04-03T17:17:27Z</time>
      </trkpt>
      <trkpt lat="46.15161" lon="-0.20693">
        <ele>59.6</ele>
        <time>2022-04-03T17:17:28Z</time>
      </trkpt>
      <trkpt lat="46.15164" lon="-0.20698">
        <ele>59.6</ele>
        <time>2022-04-03T17:17:29Z</time>
      </trkpt>
      <trkpt lat="46.15168" lon="-0.20704">
        <ele>59.8</ele>
        <time>2022-04-03T17:17:30Z</time>
      </trkpt>
      <trkpt lat="46.15171" lon="-0.20709">
        <ele>59.8</ele>
        <time>2022-04-03T17:17:31Z</time>
      </trkpt>
      <trkpt lat="46.15174" lon="-0.20715">
        <ele>59.8</ele>
        <time>2022-04-03T17:17:32Z</time>
      </trkpt>
      <trkpt lat="46.15178" lon="-0.20721">
        <ele>59.8</ele>
        <time>2022-04-03T17:17:33Z</time>
      </trkpt>
      <trkpt lat="46.15181" lon="-0.20727">
        <ele>59.8</ele>
        <time>2022-04-03T17:17:34Z</time>
      </trkpt>
      <trkpt lat="46.15184" lon="-0.20733">
        <ele>59.8</ele>
        <time>2022-04-03T17:17:35Z</time>
      </trkpt>
      <trkpt lat="46.15188" lon="-0.2074">
        <ele>59.6</ele>
        <time>2022-04-03T17:17:36Z</time>
      </trkpt>
      <trkpt lat="46.15191" lon="-0.20747">
        <ele>59.6</ele>
        <time>2022-04-03T17:17:37Z</time>
      </trkpt>
      <trkpt lat="46.15194" lon="-0.20754">
        <ele>59.8</ele>
        <time>2022-04-03T17:17:38Z</time>
      </trkpt>
      <trkpt lat="46.15197" lon="-0.20761">
        <ele>59.6</ele>
        <time>2022-04-03T17:17:39Z</time>
      </trkpt>
      <trkpt lat="46.152" lon="-0.20768">
        <ele>59.8</ele>
        <time>2022-04-03T17:17:40Z</time>
      </trkpt>
      <trkpt lat="46.15203" lon="-0.20775">
        <ele>59.6</ele>
        <time>2022-04-03T17:17:41Z</time>
      </trkpt>
      <trkpt lat="46.15206" lon="-0.20783">
        <ele>59.6</ele>
        <time>2022-04-03T17:17:42Z</time>
      </trkpt>
      <trkpt lat="46.15209" lon="-0.2079">
        <ele>59.8</ele>
        <time>2022-04-03T17:17:43Z</time>
      </trkpt>
      <trkpt lat="46.15212" lon="-0.20798">
        <ele>59.6</ele>
        <time>2022-04-03T17:17:44Z</time>
      </trkpt>
      <trkpt lat="46.15214" lon="-0.20805">
        <ele>59.2</ele>
        <time>2022-04-03T17:17:45Z</time>
      </trkpt>
      <trkpt lat="46.15217" lon="-0.20813">
        <ele>59.2</ele>
        <time>2022-04-03T17:17:46Z</time>
      </trkpt>
      <trkpt lat="46.15219" lon="-0.20821">
        <ele>59.2</ele>
        <time>2022-04-03T17:17:47Z</time>
      </trkpt>
      <trkpt lat="46.15221" lon="-0.20828">
        <ele>59.2</ele>
        <time>2022-04-03T17:17:48Z</time>
      </trkpt>
      <trkpt lat="46.15224" lon="-0.20836">
        <ele>59</ele>
        <time>2022-04-03T17:17:49Z</time>
      </trkpt>
      <trkpt lat="46.15226" lon="-0.20844">
        <ele>59</ele>
        <time>2022-04-03T17:17:50Z</time>
      </trkpt>
      <trkpt lat="46.15228" lon="-0.20851">
        <ele>58.6</ele>
        <time>2022-04-03T17:17:51Z</time>
      </trkpt>
      <trkpt lat="46.1523" lon="-0.20859">
        <ele>58.4</ele>
        <time>2022-04-03T17:17:52Z</time>
      </trkpt>
      <trkpt lat="46.15233" lon="-0.20867">
        <ele>58.2</ele>
        <time>2022-04-03T17:17:53Z</time>
      </trkpt>
      <trkpt lat="46.15235" lon="-0.20874">
        <ele>58.2</ele>
        <time>2022-04-03T17:17:54Z</time>
      </trkpt>
      <trkpt lat="46.15237" lon="-0.20882">
        <ele>58</ele>
        <time>2022-04-03T17:17:55Z</time>
      </trkpt>
      <trkpt lat="46.1524" lon="-0.20889">
        <ele>58</ele>
        <time>2022-04-03T17:17:56Z</time>
      </trkpt>
      <trkpt lat="46.15242" lon="-0.20897">
        <ele>57.8</ele>
        <time>2022-04-03T17:17:57Z</time>
      </trkpt>
      <trkpt lat="46.15244" lon="-0.20904">
        <ele>57.8</ele>
        <time>2022-04-03T17:17:58Z</time>
      </trkpt>
      <trkpt lat="46.15246" lon="-0.20912">
        <ele>57.8</ele>
        <time>2022-04-03T17:17:59Z</time>
      </trkpt>
      <trkpt lat="46.15248" lon="-0.20919">
        <ele>57.6</ele>
        <time>2022-04-03T17:18:00Z</time>
      </trkpt>
      <trkpt lat="46.1525" lon="-0.20926">
        <ele>57.8</ele>
        <time>2022-04-03T17:18:01Z</time>
      </trkpt>
      <trkpt lat="46.15253" lon="-0.20933">
        <ele>57.6</ele>
        <time>2022-04-03T17:18:02Z</time>
      </trkpt>
      <trkpt lat="46.15255" lon="-0.2094">
        <ele>57.6</ele>
        <time>2022-04-03T17:18:03Z</time>
      </trkpt>
      <trkpt lat="46.15257" lon="-0.20947">
        <ele>57.6</ele>
        <time>2022-04-03T17:18:04Z</time>
      </trkpt>
      <trkpt lat="46.15259" lon="-0.20954">
        <ele>57.6</ele>
        <time>2022-04-03T17:18:05Z</time>
      </trkpt>
      <trkpt lat="46.15261" lon="-0.20961">
        <ele>57.4</ele>
        <time>2022-04-03T17:18:06Z</time>
      </trkpt>
      <trkpt lat="46.15263" lon="-0.20968">
        <ele>57.4</ele>
        <time>2022-04-03T17:18:07Z</time>
      </trkpt>
      <trkpt lat="46.15264" lon="-0.20975">
        <ele>57.4</ele>
        <time>2022-04-03T17:18:08Z</time>
      </trkpt>
      <trkpt lat="46.15264" lon="-0.20983">
        <ele>57.2</ele>
        <time>2022-04-03T17:18:09Z</time>
      </trkpt>
      <trkpt lat="46.15264" lon="-0.20991">
        <ele>57.2</ele>
        <time>2022-04-03T17:18:10Z</time>
      </trkpt>
      <trkpt lat="46.15264" lon="-0.21">
        <ele>57.2</ele>
        <time>2022-04-03T17:18:11Z</time>
      </trkpt>
      <trkpt lat="46.15265" lon="-0.21008">
        <ele>57</ele>
        <time>2022-04-03T17:18:12Z</time>
      </trkpt>
      <trkpt lat="46.15265" lon="-0.21017">
        <ele>57.2</ele>
        <time>2022-04-03T17:18:13Z</time>
      </trkpt>
      <trkpt lat="46.15266" lon="-0.21026">
        <ele>57</ele>
        <time>2022-04-03T17:18:14Z</time>
      </trkpt>
      <trkpt lat="46.15267" lon="-0.21035">
        <ele>57</ele>
        <time>2022-04-03T17:18:15Z</time>
      </trkpt>
      <trkpt lat="46.15268" lon="-0.21043">
        <ele>57</ele>
        <time>2022-04-03T17:18:16Z</time>
      </trkpt>
      <trkpt lat="46.1527" lon="-0.21051">
        <ele>56.8</ele>
        <time>2022-04-03T17:18:17Z</time>
      </trkpt>
      <trkpt lat="46.15272" lon="-0.21058">
        <ele>56.4</ele>
        <time>2022-04-03T17:18:18Z</time>
      </trkpt>
      <trkpt lat="46.15274" lon="-0.21064">
        <ele>56.4</ele>
        <time>2022-04-03T17:18:19Z</time>
      </trkpt>
      <trkpt lat="46.15276" lon="-0.2107">
        <ele>56</ele>
        <time>2022-04-03T17:18:20Z</time>
      </trkpt>
      <trkpt lat="46.15277" lon="-0.21073">
        <ele>55.4</ele>
        <time>2022-04-03T17:18:21Z</time>
      </trkpt>
      <trkpt lat="46.15278" lon="-0.21075">
        <ele>55</ele>
        <time>2022-04-03T17:18:22Z</time>
      </trkpt>
      <trkpt lat="46.1528" lon="-0.21078">
        <ele>55</ele>
        <time>2022-04-03T17:18:23Z</time>
      </trkpt>
      <trkpt lat="46.15281" lon="-0.2108">
        <ele>55</ele>
        <time>2022-04-03T17:18:24Z</time>
      </trkpt>
      <trkpt lat="46.15282" lon="-0.21084">
        <ele>54.6</ele>
        <time>2022-04-03T17:18:25Z</time>
      </trkpt>
      <trkpt lat="46.15283" lon="-0.21087">
        <ele>54.6</ele>
        <time>2022-04-03T17:18:26Z</time>
      </trkpt>
      <trkpt lat="46.15285" lon="-0.21091">
        <ele>54.6</ele>
        <time>2022-04-03T17:18:27Z</time>
      </trkpt>
      <trkpt lat="46.15286" lon="-0.21095">
        <ele>54.4</ele>
        <time>2022-04-03T17:18:28Z</time>
      </trkpt>
      <trkpt lat="46.15287" lon="-0.21099">
        <ele>54.4</ele>
        <time>2022-04-03T17:18:29Z</time>
      </trkpt>
      <trkpt lat="46.15288" lon="-0.21104">
        <ele>54.4</ele>
        <time>2022-04-03T17:18:30Z</time>
      </trkpt>
      <trkpt lat="46.15289" lon="-0.21108">
        <ele>54.4</ele>
        <time>2022-04-03T17:18:31Z</time>
      </trkpt>
      <trkpt lat="46.1529" lon="-0.21114">
        <ele>54.4</ele>
        <time>2022-04-03T17:18:32Z</time>
      </trkpt>
      <trkpt lat="46.15292" lon="-0.21118">
        <ele>54.2</ele>
        <time>2022-04-03T17:18:33Z</time>
      </trkpt>
      <trkpt lat="46.15295" lon="-0.21123">
        <ele>54.4</ele>
        <time>2022-04-03T17:18:34Z</time>
      </trkpt>
      <trkpt lat="46.15297" lon="-0.21127">
        <ele>54.2</ele>
        <time>2022-04-03T17:18:35Z</time>
      </trkpt>
      <trkpt lat="46.153" lon="-0.21132">
        <ele>54.2</ele>
        <time>2022-04-03T17:18:36Z</time>
      </trkpt>
      <trkpt lat="46.15303" lon="-0.21137">
        <ele>54.2</ele>
        <time>2022-04-03T17:18:37Z</time>
      </trkpt>
      <trkpt lat="46.15305" lon="-0.21142">
        <ele>54</ele>
        <time>2022-04-03T17:18:38Z</time>
      </trkpt>
      <trkpt lat="46.15308" lon="-0.21147">
        <ele>54.2</ele>
        <time>2022-04-03T17:18:39Z</time>
      </trkpt>
      <trkpt lat="46.15311" lon="-0.21151">
        <ele>54</ele>
        <time>2022-04-03T17:18:40Z</time>
      </trkpt>
      <trkpt lat="46.15314" lon="-0.21156">
        <ele>54</ele>
        <time>2022-04-03T17:18:41Z</time>
      </trkpt>
      <trkpt lat="46.15317" lon="-0.21161">
        <ele>53.8</ele>
        <time>2022-04-03T17:18:42Z</time>
      </trkpt>
      <trkpt lat="46.15319" lon="-0.21166">
        <ele>53.8</ele>
        <time>2022-04-03T17:18:43Z</time>
      </trkpt>
      <trkpt lat="46.15322" lon="-0.21172">
        <ele>53.4</ele>
        <time>2022-04-03T17:18:44Z</time>
      </trkpt>
      <trkpt lat="46.15325" lon="-0.21176">
        <ele>53.4</ele>
        <time>2022-04-03T17:18:45Z</time>
      </trkpt>
      <trkpt lat="46.15328" lon="-0.21181">
        <ele>53.2</ele>
        <time>2022-04-03T17:18:46Z</time>
      </trkpt>
      <trkpt lat="46.15331" lon="-0.21185">
        <ele>53</ele>
        <time>2022-04-03T17:18:47Z</time>
      </trkpt>
      <trkpt lat="46.15334" lon="-0.21189">
        <ele>53</ele>
        <time>2022-04-03T17:18:48Z</time>
      </trkpt>
      <trkpt lat="46.15337" lon="-0.21193">
        <ele>52.8</ele>
        <time>2022-04-03T17:18:49Z</time>
      </trkpt>
      <trkpt lat="46.15339" lon="-0.21197">
        <ele>52.6</ele>
        <time>2022-04-03T17:18:50Z</time>
      </trkpt>
      <trkpt lat="46.15342" lon="-0.212">
        <ele>52.4</ele>
        <time>2022-04-03T17:18:51Z</time>
      </trkpt>
      <trkpt lat="46.15344" lon="-0.21204">
        <ele>52.4</ele>
        <time>2022-04-03T17:18:52Z</time>
      </trkpt>
      <trkpt lat="46.15346" lon="-0.21207">
        <ele>52.4</ele>
        <time>2022-04-03T17:18:53Z</time>
      </trkpt>
      <trkpt lat="46.15348" lon="-0.2121">
        <ele>52.4</ele>
        <time>2022-04-03T17:18:54Z</time>
      </trkpt>
      <trkpt lat="46.1535" lon="-0.21212">
        <ele>52.4</ele>
        <time>2022-04-03T17:18:55Z</time>
      </trkpt>
      <trkpt lat="46.15351" lon="-0.21215">
        <ele>52.4</ele>
        <time>2022-04-03T17:18:56Z</time>
      </trkpt>
      <trkpt lat="46.15353" lon="-0.21217">
        <ele>52.4</ele>
        <time>2022-04-03T17:18:57Z</time>
      </trkpt>
      <trkpt lat="46.15355" lon="-0.2122">
        <ele>52.4</ele>
        <time>2022-04-03T17:18:58Z</time>
      </trkpt>
      <trkpt lat="46.15356" lon="-0.21222">
        <ele>52.4</ele>
        <time>2022-04-03T17:18:59Z</time>
      </trkpt>
      <trkpt lat="46.15358" lon="-0.21225">
        <ele>52.4</ele>
        <time>2022-04-03T17:19:00Z</time>
      </trkpt>
      <trkpt lat="46.1536" lon="-0.21227">
        <ele>52.6</ele>
        <time>2022-04-03T17:19:01Z</time>
      </trkpt>
      <trkpt lat="46.15362" lon="-0.2123">
        <ele>52.6</ele>
        <time>2022-04-03T17:19:02Z</time>
      </trkpt>
      <trkpt lat="46.15363" lon="-0.21232">
        <ele>52.6</ele>
        <time>2022-04-03T17:19:03Z</time>
      </trkpt>
      <trkpt lat="46.15365" lon="-0.21235">
        <ele>52.8</ele>
        <time>2022-04-03T17:19:04Z</time>
      </trkpt>
      <trkpt lat="46.15366" lon="-0.21238">
        <ele>53</ele>
        <time>2022-04-03T17:19:05Z</time>
      </trkpt>
      <trkpt lat="46.15368" lon="-0.21241">
        <ele>53.2</ele>
        <time>2022-04-03T17:19:06Z</time>
      </trkpt>
      <trkpt lat="46.1537" lon="-0.21244">
        <ele>53.4</ele>
        <time>2022-04-03T17:19:07Z</time>
      </trkpt>
      <trkpt lat="46.15371" lon="-0.21246">
        <ele>53.2</ele>
        <time>2022-04-03T17:19:08Z</time>
      </trkpt>
      <trkpt lat="46.15373" lon="-0.21249">
        <ele>53.2</ele>
        <time>2022-04-03T17:19:09Z</time>
      </trkpt>
      <trkpt lat="46.15375" lon="-0.21251">
        <ele>53.4</ele>
        <time>2022-04-03T17:19:10Z</time>
      </trkpt>
      <trkpt lat="46.15377" lon="-0.21254">
        <ele>53.6</ele>
        <time>2022-04-03T17:19:11Z</time>
      </trkpt>
      <trkpt lat="46.15378" lon="-0.21257">
        <ele>53.8</ele>
        <time>2022-04-03T17:19:12Z</time>
      </trkpt>
      <trkpt lat="46.1538" lon="-0.2126">
        <ele>53.8</ele>
        <time>2022-04-03T17:19:13Z</time>
      </trkpt>
      <trkpt lat="46.15381" lon="-0.21262">
        <ele>54</ele>
        <time>2022-04-03T17:19:14Z</time>
      </trkpt>
      <trkpt lat="46.15383" lon="-0.21265">
        <ele>54</ele>
        <time>2022-04-03T17:19:15Z</time>
      </trkpt>
      <trkpt lat="46.15385" lon="-0.21267">
        <ele>54</ele>
        <time>2022-04-03T17:19:16Z</time>
      </trkpt>
      <trkpt lat="46.15386" lon="-0.2127">
        <ele>54</ele>
        <time>2022-04-03T17:19:17Z</time>
      </trkpt>
      <trkpt lat="46.15388" lon="-0.21273">
        <ele>54.4</ele>
        <time>2022-04-03T17:19:18Z</time>
      </trkpt>
      <trkpt lat="46.1539" lon="-0.21275">
        <ele>54.8</ele>
        <time>2022-04-03T17:19:19Z</time>
      </trkpt>
      <trkpt lat="46.15392" lon="-0.21278">
        <ele>55</ele>
        <time>2022-04-03T17:19:20Z</time>
      </trkpt>
      <trkpt lat="46.15393" lon="-0.21281">
        <ele>55.2</ele>
        <time>2022-04-03T17:19:21Z</time>
      </trkpt>
      <trkpt lat="46.15395" lon="-0.21284">
        <ele>55.2</ele>
        <time>2022-04-03T17:19:22Z</time>
      </trkpt>
      <trkpt lat="46.15397" lon="-0.21286">
        <ele>55.4</ele>
        <time>2022-04-03T17:19:23Z</time>
      </trkpt>
      <trkpt lat="46.15398" lon="-0.21289">
        <ele>55.4</ele>
        <time>2022-04-03T17:19:24Z</time>
      </trkpt>
      <trkpt lat="46.154" lon="-0.21292">
        <ele>55.4</ele>
        <time>2022-04-03T17:19:25Z</time>
      </trkpt>
      <trkpt lat="46.15402" lon="-0.21294">
        <ele>55.6</ele>
        <time>2022-04-03T17:19:26Z</time>
      </trkpt>
      <trkpt lat="46.15404" lon="-0.21297">
        <ele>55.8</ele>
        <time>2022-04-03T17:19:27Z</time>
      </trkpt>
      <trkpt lat="46.15405" lon="-0.213">
        <ele>55.8</ele>
        <time>2022-04-03T17:19:28Z</time>
      </trkpt>
      <trkpt lat="46.15407" lon="-0.21303">
        <ele>56</ele>
        <time>2022-04-03T17:19:29Z</time>
      </trkpt>
      <trkpt lat="46.15409" lon="-0.21306">
        <ele>56</ele>
        <time>2022-04-03T17:19:30Z</time>
      </trkpt>
      <trkpt lat="46.1541" lon="-0.21309">
        <ele>56</ele>
        <time>2022-04-03T17:19:31Z</time>
      </trkpt>
      <trkpt lat="46.15412" lon="-0.21311">
        <ele>56.2</ele>
        <time>2022-04-03T17:19:32Z</time>
      </trkpt>
      <trkpt lat="46.15414" lon="-0.21314">
        <ele>56.4</ele>
        <time>2022-04-03T17:19:33Z</time>
      </trkpt>
      <trkpt lat="46.15416" lon="-0.21317">
        <ele>56.6</ele>
        <time>2022-04-03T17:19:34Z</time>
      </trkpt>
      <trkpt lat="46.15418" lon="-0.2132">
        <ele>56.6</ele>
        <time>2022-04-03T17:19:35Z</time>
      </trkpt>
      <trkpt lat="46.1542" lon="-0.21323">
        <ele>56.6</ele>
        <time>2022-04-03T17:19:36Z</time>
      </trkpt>
      <trkpt lat="46.15421" lon="-0.21326">
        <ele>56.8</ele>
        <time>2022-04-03T17:19:37Z</time>
      </trkpt>
      <trkpt lat="46.15423" lon="-0.21329">
        <ele>57</ele>
        <time>2022-04-03T17:19:38Z</time>
      </trkpt>
      <trkpt lat="46.15425" lon="-0.21332">
        <ele>57</ele>
        <time>2022-04-03T17:19:39Z</time>
      </trkpt>
      <trkpt lat="46.15427" lon="-0.21335">
        <ele>57</ele>
        <time>2022-04-03T17:19:40Z</time>
      </trkpt>
      <trkpt lat="46.15429" lon="-0.21339">
        <ele>57</ele>
        <time>2022-04-03T17:19:41Z</time>
      </trkpt>
      <trkpt lat="46.15431" lon="-0.21342">
        <ele>57</ele>
        <time>2022-04-03T17:19:42Z</time>
      </trkpt>
      <trkpt lat="46.15433" lon="-0.21345">
        <ele>57.2</ele>
        <time>2022-04-03T17:19:43Z</time>
      </trkpt>
      <trkpt lat="46.15435" lon="-0.21349">
        <ele>57.2</ele>
        <time>2022-04-03T17:19:44Z</time>
      </trkpt>
      <trkpt lat="46.15437" lon="-0.21352">
        <ele>57.4</ele>
        <time>2022-04-03T17:19:45Z</time>
      </trkpt>
      <trkpt lat="46.1544" lon="-0.21356">
        <ele>57.6</ele>
        <time>2022-04-03T17:19:46Z</time>
      </trkpt>
      <trkpt lat="46.15442" lon="-0.21359">
        <ele>57.6</ele>
        <time>2022-04-03T17:19:47Z</time>
      </trkpt>
      <trkpt lat="46.15444" lon="-0.21363">
        <ele>57.6</ele>
        <time>2022-04-03T17:19:48Z</time>
      </trkpt>
      <trkpt lat="46.15446" lon="-0.21366">
        <ele>57.6</ele>
        <time>2022-04-03T17:19:49Z</time>
      </trkpt>
      <trkpt lat="46.15448" lon="-0.2137">
        <ele>57.8</ele>
        <time>2022-04-03T17:19:50Z</time>
      </trkpt>
      <trkpt lat="46.15451" lon="-0.21374">
        <ele>57.6</ele>
        <time>2022-04-03T17:19:51Z</time>
      </trkpt>
      <trkpt lat="46.15453" lon="-0.21378">
        <ele>57.6</ele>
        <time>2022-04-03T17:19:52Z</time>
      </trkpt>
      <trkpt lat="46.15455" lon="-0.21381">
        <ele>57.8</ele>
        <time>2022-04-03T17:19:53Z</time>
      </trkpt>
      <trkpt lat="46.15457" lon="-0.21385">
        <ele>57.8</ele>
        <time>2022-04-03T17:19:54Z</time>
      </trkpt>
      <trkpt lat="46.15459" lon="-0.21389">
        <ele>57.8</ele>
        <time>2022-04-03T17:19:55Z</time>
      </trkpt>
      <trkpt lat="46.15462" lon="-0.21392">
        <ele>57.8</ele>
        <time>2022-04-03T17:19:56Z</time>
      </trkpt>
      <trkpt lat="46.15464" lon="-0.21396">
        <ele>57.8</ele>
        <time>2022-04-03T17:19:57Z</time>
      </trkpt>
      <trkpt lat="46.15467" lon="-0.214">
        <ele>58</ele>
        <time>2022-04-03T17:19:58Z</time>
      </trkpt>
      <trkpt lat="46.15469" lon="-0.21403">
        <ele>57.8</ele>
        <time>2022-04-03T17:19:59Z</time>
      </trkpt>
      <trkpt lat="46.15471" lon="-0.21407">
        <ele>57.8</ele>
        <time>2022-04-03T17:20:00Z</time>
      </trkpt>
      <trkpt lat="46.15473" lon="-0.21411">
        <ele>57.8</ele>
        <time>2022-04-03T17:20:01Z</time>
      </trkpt>
      <trkpt lat="46.15475" lon="-0.21415">
        <ele>58</ele>
        <time>2022-04-03T17:20:02Z</time>
      </trkpt>
      <trkpt lat="46.15477" lon="-0.21419">
        <ele>58</ele>
        <time>2022-04-03T17:20:03Z</time>
      </trkpt>
      <trkpt lat="46.15479" lon="-0.21422">
        <ele>58</ele>
        <time>2022-04-03T17:20:04Z</time>
      </trkpt>
      <trkpt lat="46.15482" lon="-0.21426">
        <ele>58</ele>
        <time>2022-04-03T17:20:05Z</time>
      </trkpt>
      <trkpt lat="46.15484" lon="-0.2143">
        <ele>58.2</ele>
        <time>2022-04-03T17:20:06Z</time>
      </trkpt>
      <trkpt lat="46.15486" lon="-0.21433">
        <ele>58.2</ele>
        <time>2022-04-03T17:20:07Z</time>
      </trkpt>
      <trkpt lat="46.15489" lon="-0.21436">
        <ele>58.2</ele>
        <time>2022-04-03T17:20:08Z</time>
      </trkpt>
      <trkpt lat="46.15491" lon="-0.2144">
        <ele>58.2</ele>
        <time>2022-04-03T17:20:09Z</time>
      </trkpt>
      <trkpt lat="46.15493" lon="-0.21444">
        <ele>58.4</ele>
        <time>2022-04-03T17:20:10Z</time>
      </trkpt>
      <trkpt lat="46.15496" lon="-0.21448">
        <ele>58.2</ele>
        <time>2022-04-03T17:20:11Z</time>
      </trkpt>
      <trkpt lat="46.15498" lon="-0.21453">
        <ele>58.6</ele>
        <time>2022-04-03T17:20:12Z</time>
      </trkpt>
      <trkpt lat="46.155" lon="-0.21457">
        <ele>58.4</ele>
        <time>2022-04-03T17:20:13Z</time>
      </trkpt>
      <trkpt lat="46.15503" lon="-0.21461">
        <ele>58.6</ele>
        <time>2022-04-03T17:20:14Z</time>
      </trkpt>
      <trkpt lat="46.15505" lon="-0.21466">
        <ele>58.6</ele>
        <time>2022-04-03T17:20:15Z</time>
      </trkpt>
      <trkpt lat="46.15507" lon="-0.21471">
        <ele>58.8</ele>
        <time>2022-04-03T17:20:16Z</time>
      </trkpt>
      <trkpt lat="46.1551" lon="-0.21475">
        <ele>58.8</ele>
        <time>2022-04-03T17:20:17Z</time>
      </trkpt>
      <trkpt lat="46.15513" lon="-0.21479">
        <ele>58.8</ele>
        <time>2022-04-03T17:20:18Z</time>
      </trkpt>
      <trkpt lat="46.15516" lon="-0.21484">
        <ele>58.8</ele>
        <time>2022-04-03T17:20:19Z</time>
      </trkpt>
      <trkpt lat="46.15519" lon="-0.21489">
        <ele>58.8</ele>
        <time>2022-04-03T17:20:20Z</time>
      </trkpt>
      <trkpt lat="46.15521" lon="-0.21494">
        <ele>58.8</ele>
        <time>2022-04-03T17:20:21Z</time>
      </trkpt>
      <trkpt lat="46.15524" lon="-0.21499">
        <ele>59</ele>
        <time>2022-04-03T17:20:22Z</time>
      </trkpt>
      <trkpt lat="46.15527" lon="-0.21505">
        <ele>59</ele>
        <time>2022-04-03T17:20:23Z</time>
      </trkpt>
      <trkpt lat="46.1553" lon="-0.2151">
        <ele>58.8</ele>
        <time>2022-04-03T17:20:24Z</time>
      </trkpt>
      <trkpt lat="46.15533" lon="-0.21516">
        <ele>58.8</ele>
        <time>2022-04-03T17:20:25Z</time>
      </trkpt>
      <trkpt lat="46.15536" lon="-0.21521">
        <ele>58.8</ele>
        <time>2022-04-03T17:20:26Z</time>
      </trkpt>
      <trkpt lat="46.15539" lon="-0.21527">
        <ele>58.8</ele>
        <time>2022-04-03T17:20:27Z</time>
      </trkpt>
      <trkpt lat="46.15542" lon="-0.21532">
        <ele>58.8</ele>
        <time>2022-04-03T17:20:28Z</time>
      </trkpt>
      <trkpt lat="46.15545" lon="-0.21537">
        <ele>58.8</ele>
        <time>2022-04-03T17:20:29Z</time>
      </trkpt>
      <trkpt lat="46.15548" lon="-0.21543">
        <ele>58.8</ele>
        <time>2022-04-03T17:20:30Z</time>
      </trkpt>
      <trkpt lat="46.15551" lon="-0.21549">
        <ele>58.8</ele>
        <time>2022-04-03T17:20:31Z</time>
      </trkpt>
      <trkpt lat="46.15554" lon="-0.21554">
        <ele>58.8</ele>
        <time>2022-04-03T17:20:32Z</time>
      </trkpt>
      <trkpt lat="46.15557" lon="-0.2156">
        <ele>58.6</ele>
        <time>2022-04-03T17:20:33Z</time>
      </trkpt>
      <trkpt lat="46.1556" lon="-0.21566">
        <ele>58.6</ele>
        <time>2022-04-03T17:20:34Z</time>
      </trkpt>
      <trkpt lat="46.15564" lon="-0.21572">
        <ele>58.6</ele>
        <time>2022-04-03T17:20:35Z</time>
      </trkpt>
      <trkpt lat="46.15567" lon="-0.21578">
        <ele>58.8</ele>
        <time>2022-04-03T17:20:36Z</time>
      </trkpt>
      <trkpt lat="46.1557" lon="-0.21584">
        <ele>58.6</ele>
        <time>2022-04-03T17:20:37Z</time>
      </trkpt>
      <trkpt lat="46.15573" lon="-0.21591">
        <ele>58.6</ele>
        <time>2022-04-03T17:20:38Z</time>
      </trkpt>
      <trkpt lat="46.15576" lon="-0.21597">
        <ele>58.6</ele>
        <time>2022-04-03T17:20:39Z</time>
      </trkpt>
      <trkpt lat="46.15579" lon="-0.21603">
        <ele>58.4</ele>
        <time>2022-04-03T17:20:40Z</time>
      </trkpt>
      <trkpt lat="46.15582" lon="-0.21609">
        <ele>58.6</ele>
        <time>2022-04-03T17:20:41Z</time>
      </trkpt>
      <trkpt lat="46.15585" lon="-0.21615">
        <ele>58.6</ele>
        <time>2022-04-03T17:20:42Z</time>
      </trkpt>
      <trkpt lat="46.15588" lon="-0.21621">
        <ele>58.6</ele>
        <time>2022-04-03T17:20:43Z</time>
      </trkpt>
      <trkpt lat="46.15592" lon="-0.21628">
        <ele>58.4</ele>
        <time>2022-04-03T17:20:44Z</time>
      </trkpt>
      <trkpt lat="46.15595" lon="-0.21634">
        <ele>58.6</ele>
        <time>2022-04-03T17:20:45Z</time>
      </trkpt>
      <trkpt lat="46.15598" lon="-0.2164">
        <ele>58.4</ele>
        <time>2022-04-03T17:20:46Z</time>
      </trkpt>
      <trkpt lat="46.15601" lon="-0.21646">
        <ele>58.4</ele>
        <time>2022-04-03T17:20:47Z</time>
      </trkpt>
      <trkpt lat="46.15604" lon="-0.21652">
        <ele>58.4</ele>
        <time>2022-04-03T17:20:48Z</time>
      </trkpt>
      <trkpt lat="46.15608" lon="-0.21658">
        <ele>58.6</ele>
        <time>2022-04-03T17:20:49Z</time>
      </trkpt>
      <trkpt lat="46.15611" lon="-0.21664">
        <ele>58.4</ele>
        <time>2022-04-03T17:20:50Z</time>
      </trkpt>
      <trkpt lat="46.15614" lon="-0.2167">
        <ele>58.2</ele>
        <time>2022-04-03T17:20:51Z</time>
      </trkpt>
      <trkpt lat="46.15617" lon="-0.21677">
        <ele>58.6</ele>
        <time>2022-04-03T17:20:52Z</time>
      </trkpt>
      <trkpt lat="46.1562" lon="-0.21683">
        <ele>58.4</ele>
        <time>2022-04-03T17:20:53Z</time>
      </trkpt>
      <trkpt lat="46.15624" lon="-0.21689">
        <ele>58.4</ele>
        <time>2022-04-03T17:20:54Z</time>
      </trkpt>
      <trkpt lat="46.15627" lon="-0.21695">
        <ele>58.4</ele>
        <time>2022-04-03T17:20:55Z</time>
      </trkpt>
      <trkpt lat="46.1563" lon="-0.21702">
        <ele>58.4</ele>
        <time>2022-04-03T17:20:56Z</time>
      </trkpt>
      <trkpt lat="46.15633" lon="-0.21708">
        <ele>58.4</ele>
        <time>2022-04-03T17:20:57Z</time>
      </trkpt>
      <trkpt lat="46.15637" lon="-0.21714">
        <ele>58.4</ele>
        <time>2022-04-03T17:20:58Z</time>
      </trkpt>
      <trkpt lat="46.1564" lon="-0.2172">
        <ele>58.4</ele>
        <time>2022-04-03T17:20:59Z</time>
      </trkpt>
      <trkpt lat="46.15643" lon="-0.21727">
        <ele>58.4</ele>
        <time>2022-04-03T17:21:00Z</time>
      </trkpt>
      <trkpt lat="46.15647" lon="-0.21733">
        <ele>58.4</ele>
        <time>2022-04-03T17:21:01Z</time>
      </trkpt>
      <trkpt lat="46.1565" lon="-0.2174">
        <ele>58.4</ele>
        <time>2022-04-03T17:21:02Z</time>
      </trkpt>
      <trkpt lat="46.15653" lon="-0.21746">
        <ele>58.2</ele>
        <time>2022-04-03T17:21:03Z</time>
      </trkpt>
      <trkpt lat="46.15656" lon="-0.21753">
        <ele>58.2</ele>
        <time>2022-04-03T17:21:04Z</time>
      </trkpt>
      <trkpt lat="46.1566" lon="-0.21759">
        <ele>58.2</ele>
        <time>2022-04-03T17:21:05Z</time>
      </trkpt>
      <trkpt lat="46.15663" lon="-0.21766">
        <ele>58.2</ele>
        <time>2022-04-03T17:21:06Z</time>
      </trkpt>
      <trkpt lat="46.15666" lon="-0.21772">
        <ele>58.2</ele>
        <time>2022-04-03T17:21:07Z</time>
      </trkpt>
      <trkpt lat="46.1567" lon="-0.21779">
        <ele>58.2</ele>
        <time>2022-04-03T17:21:08Z</time>
      </trkpt>
      <trkpt lat="46.15673" lon="-0.21785">
        <ele>58</ele>
        <time>2022-04-03T17:21:09Z</time>
      </trkpt>
      <trkpt lat="46.15676" lon="-0.21792">
        <ele>58</ele>
        <time>2022-04-03T17:21:10Z</time>
      </trkpt>
      <trkpt lat="46.1568" lon="-0.21798">
        <ele>58</ele>
        <time>2022-04-03T17:21:11Z</time>
      </trkpt>
      <trkpt lat="46.15683" lon="-0.21805">
        <ele>58</ele>
        <time>2022-04-03T17:21:12Z</time>
      </trkpt>
      <trkpt lat="46.15686" lon="-0.21812">
        <ele>57.8</ele>
        <time>2022-04-03T17:21:13Z</time>
      </trkpt>
      <trkpt lat="46.1569" lon="-0.21818">
        <ele>58</ele>
        <time>2022-04-03T17:21:14Z</time>
      </trkpt>
      <trkpt lat="46.15693" lon="-0.21825">
        <ele>58</ele>
        <time>2022-04-03T17:21:15Z</time>
      </trkpt>
      <trkpt lat="46.15696" lon="-0.21832">
        <ele>58</ele>
        <time>2022-04-03T17:21:16Z</time>
      </trkpt>
      <trkpt lat="46.15699" lon="-0.21839">
        <ele>58</ele>
        <time>2022-04-03T17:21:17Z</time>
      </trkpt>
      <trkpt lat="46.15703" lon="-0.21845">
        <ele>58</ele>
        <time>2022-04-03T17:21:18Z</time>
      </trkpt>
      <trkpt lat="46.15706" lon="-0.21852">
        <ele>58</ele>
        <time>2022-04-03T17:21:19Z</time>
      </trkpt>
      <trkpt lat="46.15709" lon="-0.21858">
        <ele>58</ele>
        <time>2022-04-03T17:21:20Z</time>
      </trkpt>
      <trkpt lat="46.15713" lon="-0.21865">
        <ele>57.8</ele>
        <time>2022-04-03T17:21:21Z</time>
      </trkpt>
      <trkpt lat="46.15716" lon="-0.21872">
        <ele>57.8</ele>
        <time>2022-04-03T17:21:22Z</time>
      </trkpt>
      <trkpt lat="46.15719" lon="-0.21878">
        <ele>57.8</ele>
        <time>2022-04-03T17:21:23Z</time>
      </trkpt>
      <trkpt lat="46.15722" lon="-0.21885">
        <ele>57.8</ele>
        <time>2022-04-03T17:21:24Z</time>
      </trkpt>
      <trkpt lat="46.15725" lon="-0.21892">
        <ele>58</ele>
        <time>2022-04-03T17:21:25Z</time>
      </trkpt>
      <trkpt lat="46.15729" lon="-0.21898">
        <ele>57.8</ele>
        <time>2022-04-03T17:21:26Z</time>
      </trkpt>
      <trkpt lat="46.15732" lon="-0.21905">
        <ele>58</ele>
        <time>2022-04-03T17:21:27Z</time>
      </trkpt>
      <trkpt lat="46.15735" lon="-0.21912">
        <ele>58</ele>
        <time>2022-04-03T17:21:28Z</time>
      </trkpt>
      <trkpt lat="46.15738" lon="-0.21918">
        <ele>58</ele>
        <time>2022-04-03T17:21:29Z</time>
      </trkpt>
      <trkpt lat="46.15741" lon="-0.21925">
        <ele>58.2</ele>
        <time>2022-04-03T17:21:30Z</time>
      </trkpt>
      <trkpt lat="46.15745" lon="-0.21932">
        <ele>58.2</ele>
        <time>2022-04-03T17:21:31Z</time>
      </trkpt>
      <trkpt lat="46.15748" lon="-0.21939">
        <ele>58</ele>
        <time>2022-04-03T17:21:32Z</time>
      </trkpt>
      <trkpt lat="46.15751" lon="-0.21945">
        <ele>58</ele>
        <time>2022-04-03T17:21:33Z</time>
      </trkpt>
      <trkpt lat="46.15754" lon="-0.21952">
        <ele>58</ele>
        <time>2022-04-03T17:21:34Z</time>
      </trkpt>
      <trkpt lat="46.15757" lon="-0.21959">
        <ele>58</ele>
        <time>2022-04-03T17:21:35Z</time>
      </trkpt>
      <trkpt lat="46.15761" lon="-0.21966">
        <ele>58</ele>
        <time>2022-04-03T17:21:36Z</time>
      </trkpt>
      <trkpt lat="46.15764" lon="-0.21973">
        <ele>58</ele>
        <time>2022-04-03T17:21:37Z</time>
      </trkpt>
      <trkpt lat="46.15768" lon="-0.2198">
        <ele>58</ele>
        <time>2022-04-03T17:21:38Z</time>
      </trkpt>
      <trkpt lat="46.15771" lon="-0.21987">
        <ele>58</ele>
        <time>2022-04-03T17:21:39Z</time>
      </trkpt>
      <trkpt lat="46.15774" lon="-0.21994">
        <ele>58</ele>
        <time>2022-04-03T17:21:40Z</time>
      </trkpt>
      <trkpt lat="46.15778" lon="-0.22001">
        <ele>58</ele>
        <time>2022-04-03T17:21:41Z</time>
      </trkpt>
      <trkpt lat="46.15781" lon="-0.22008">
        <ele>58</ele>
        <time>2022-04-03T17:21:42Z</time>
      </trkpt>
      <trkpt lat="46.15784" lon="-0.22016">
        <ele>58.2</ele>
        <time>2022-04-03T17:21:43Z</time>
      </trkpt>
      <trkpt lat="46.15788" lon="-0.22023">
        <ele>58.2</ele>
        <time>2022-04-03T17:21:44Z</time>
      </trkpt>
      <trkpt lat="46.15791" lon="-0.2203">
        <ele>58</ele>
        <time>2022-04-03T17:21:45Z</time>
      </trkpt>
      <trkpt lat="46.15795" lon="-0.22037">
        <ele>58</ele>
        <time>2022-04-03T17:21:46Z</time>
      </trkpt>
      <trkpt lat="46.15798" lon="-0.22045">
        <ele>58</ele>
        <time>2022-04-03T17:21:47Z</time>
      </trkpt>
      <trkpt lat="46.15802" lon="-0.22052">
        <ele>58</ele>
        <time>2022-04-03T17:21:48Z</time>
      </trkpt>
      <trkpt lat="46.15805" lon="-0.22059">
        <ele>57.8</ele>
        <time>2022-04-03T17:21:49Z</time>
      </trkpt>
      <trkpt lat="46.15808" lon="-0.22067">
        <ele>57.8</ele>
        <time>2022-04-03T17:21:50Z</time>
      </trkpt>
      <trkpt lat="46.15812" lon="-0.22074">
        <ele>57.8</ele>
        <time>2022-04-03T17:21:51Z</time>
      </trkpt>
      <trkpt lat="46.15815" lon="-0.22081">
        <ele>57.8</ele>
        <time>2022-04-03T17:21:52Z</time>
      </trkpt>
      <trkpt lat="46.15819" lon="-0.22089">
        <ele>57.8</ele>
        <time>2022-04-03T17:21:53Z</time>
      </trkpt>
      <trkpt lat="46.15822" lon="-0.22096">
        <ele>57.8</ele>
        <time>2022-04-03T17:21:54Z</time>
      </trkpt>
      <trkpt lat="46.15826" lon="-0.22104">
        <ele>57.6</ele>
        <time>2022-04-03T17:21:55Z</time>
      </trkpt>
      <trkpt lat="46.15829" lon="-0.22111">
        <ele>57.4</ele>
        <time>2022-04-03T17:21:56Z</time>
      </trkpt>
      <trkpt lat="46.15833" lon="-0.22119">
        <ele>57.4</ele>
        <time>2022-04-03T17:21:57Z</time>
      </trkpt>
      <trkpt lat="46.15836" lon="-0.22127">
        <ele>57.2</ele>
        <time>2022-04-03T17:21:58Z</time>
      </trkpt>
      <trkpt lat="46.1584" lon="-0.22134">
        <ele>57.2</ele>
        <time>2022-04-03T17:21:59Z</time>
      </trkpt>
      <trkpt lat="46.15843" lon="-0.22142">
        <ele>57.2</ele>
        <time>2022-04-03T17:22:00Z</time>
      </trkpt>
      <trkpt lat="46.15847" lon="-0.22149">
        <ele>57</ele>
        <time>2022-04-03T17:22:01Z</time>
      </trkpt>
      <trkpt lat="46.15851" lon="-0.22157">
        <ele>57</ele>
        <time>2022-04-03T17:22:02Z</time>
      </trkpt>
      <trkpt lat="46.15854" lon="-0.22165">
        <ele>56.8</ele>
        <time>2022-04-03T17:22:03Z</time>
      </trkpt>
      <trkpt lat="46.15858" lon="-0.22172">
        <ele>56.8</ele>
        <time>2022-04-03T17:22:04Z</time>
      </trkpt>
      <trkpt lat="46.15862" lon="-0.2218">
        <ele>56.8</ele>
        <time>2022-04-03T17:22:05Z</time>
      </trkpt>
      <trkpt lat="46.15865" lon="-0.22188">
        <ele>56.8</ele>
        <time>2022-04-03T17:22:06Z</time>
      </trkpt>
      <trkpt lat="46.15869" lon="-0.22196">
        <ele>56.6</ele>
        <time>2022-04-03T17:22:07Z</time>
      </trkpt>
      <trkpt lat="46.15873" lon="-0.22204">
        <ele>56.6</ele>
        <time>2022-04-03T17:22:08Z</time>
      </trkpt>
      <trkpt lat="46.15876" lon="-0.22212">
        <ele>56.4</ele>
        <time>2022-04-03T17:22:09Z</time>
      </trkpt>
      <trkpt lat="46.1588" lon="-0.2222">
        <ele>56.2</ele>
        <time>2022-04-03T17:22:10Z</time>
      </trkpt>
      <trkpt lat="46.15884" lon="-0.22228">
        <ele>56.2</ele>
        <time>2022-04-03T17:22:11Z</time>
      </trkpt>
      <trkpt lat="46.15888" lon="-0.22236">
        <ele>56.2</ele>
        <time>2022-04-03T17:22:12Z</time>
      </trkpt>
      <trkpt lat="46.15892" lon="-0.22244">
        <ele>56.2</ele>
        <time>2022-04-03T17:22:13Z</time>
      </trkpt>
      <trkpt lat="46.15895" lon="-0.22252">
        <ele>56.2</ele>
        <time>2022-04-03T17:22:14Z</time>
      </trkpt>
      <trkpt lat="46.15899" lon="-0.2226">
        <ele>56</ele>
        <time>2022-04-03T17:22:15Z</time>
      </trkpt>
      <trkpt lat="46.15903" lon="-0.22268">
        <ele>56</ele>
        <time>2022-04-03T17:22:16Z</time>
      </trkpt>
      <trkpt lat="46.15907" lon="-0.22276">
        <ele>56</ele>
        <time>2022-04-03T17:22:17Z</time>
      </trkpt>
      <trkpt lat="46.15911" lon="-0.22285">
        <ele>55.8</ele>
        <time>2022-04-03T17:22:18Z</time>
      </trkpt>
      <trkpt lat="46.15916" lon="-0.22293">
        <ele>55.8</ele>
        <time>2022-04-03T17:22:19Z</time>
      </trkpt>
      <trkpt lat="46.1592" lon="-0.22301">
        <ele>55.6</ele>
        <time>2022-04-03T17:22:20Z</time>
      </trkpt>
      <trkpt lat="46.15924" lon="-0.22309">
        <ele>55.2</ele>
        <time>2022-04-03T17:22:21Z</time>
      </trkpt>
      <trkpt lat="46.15929" lon="-0.22317">
        <ele>55.2</ele>
        <time>2022-04-03T17:22:22Z</time>
      </trkpt>
      <trkpt lat="46.15934" lon="-0.22324">
        <ele>54.8</ele>
        <time>2022-04-03T17:22:23Z</time>
      </trkpt>
      <trkpt lat="46.15939" lon="-0.22332">
        <ele>54.8</ele>
        <time>2022-04-03T17:22:24Z</time>
      </trkpt>
      <trkpt lat="46.15944" lon="-0.22339">
        <ele>54.6</ele>
        <time>2022-04-03T17:22:25Z</time>
      </trkpt>
      <trkpt lat="46.15949" lon="-0.22347">
        <ele>54.4</ele>
        <time>2022-04-03T17:22:26Z</time>
      </trkpt>
      <trkpt lat="46.15954" lon="-0.22355">
        <ele>54.2</ele>
        <time>2022-04-03T17:22:27Z</time>
      </trkpt>
      <trkpt lat="46.15959" lon="-0.22362">
        <ele>54</ele>
        <time>2022-04-03T17:22:28Z</time>
      </trkpt>
      <trkpt lat="46.15964" lon="-0.22369">
        <ele>53.8</ele>
        <time>2022-04-03T17:22:29Z</time>
      </trkpt>
      <trkpt lat="46.1597" lon="-0.22376">
        <ele>53.8</ele>
        <time>2022-04-03T17:22:30Z</time>
      </trkpt>
      <trkpt lat="46.15975" lon="-0.22383">
        <ele>53.4</ele>
        <time>2022-04-03T17:22:31Z</time>
      </trkpt>
      <trkpt lat="46.1598" lon="-0.2239">
        <ele>53.4</ele>
        <time>2022-04-03T17:22:32Z</time>
      </trkpt>
      <trkpt lat="46.15986" lon="-0.22397">
        <ele>53</ele>
        <time>2022-04-03T17:22:33Z</time>
      </trkpt>
      <trkpt lat="46.15991" lon="-0.22403">
        <ele>52.8</ele>
        <time>2022-04-03T17:22:34Z</time>
      </trkpt>
      <trkpt lat="46.15996" lon="-0.22409">
        <ele>52.6</ele>
        <time>2022-04-03T17:22:35Z</time>
      </trkpt>
      <trkpt lat="46.16002" lon="-0.22416">
        <ele>52.6</ele>
        <time>2022-04-03T17:22:36Z</time>
      </trkpt>
      <trkpt lat="46.16007" lon="-0.22422">
        <ele>52.4</ele>
        <time>2022-04-03T17:22:37Z</time>
      </trkpt>
      <trkpt lat="46.16012" lon="-0.22427">
        <ele>52</ele>
        <time>2022-04-03T17:22:38Z</time>
      </trkpt>
      <trkpt lat="46.16018" lon="-0.22433">
        <ele>51.8</ele>
        <time>2022-04-03T17:22:39Z</time>
      </trkpt>
      <trkpt lat="46.16023" lon="-0.22439">
        <ele>51.8</ele>
        <time>2022-04-03T17:22:40Z</time>
      </trkpt>
      <trkpt lat="46.16029" lon="-0.22444">
        <ele>51.8</ele>
        <time>2022-04-03T17:22:41Z</time>
      </trkpt>
      <trkpt lat="46.16034" lon="-0.22449">
        <ele>51.8</ele>
        <time>2022-04-03T17:22:42Z</time>
      </trkpt>
      <trkpt lat="46.16039" lon="-0.22454">
        <ele>51.6</ele>
        <time>2022-04-03T17:22:43Z</time>
      </trkpt>
      <trkpt lat="46.16045" lon="-0.2246">
        <ele>51.8</ele>
        <time>2022-04-03T17:22:44Z</time>
      </trkpt>
      <trkpt lat="46.1605" lon="-0.22465">
        <ele>51.8</ele>
        <time>2022-04-03T17:22:45Z</time>
      </trkpt>
      <trkpt lat="46.16055" lon="-0.2247">
        <ele>51.8</ele>
        <time>2022-04-03T17:22:46Z</time>
      </trkpt>
      <trkpt lat="46.1606" lon="-0.22475">
        <ele>51.8</ele>
        <time>2022-04-03T17:22:47Z</time>
      </trkpt>
      <trkpt lat="46.16066" lon="-0.2248">
        <ele>51.8</ele>
        <time>2022-04-03T17:22:48Z</time>
      </trkpt>
      <trkpt lat="46.16071" lon="-0.22485">
        <ele>51.8</ele>
        <time>2022-04-03T17:22:49Z</time>
      </trkpt>
      <trkpt lat="46.16076" lon="-0.2249">
        <ele>52</ele>
        <time>2022-04-03T17:22:50Z</time>
      </trkpt>
      <trkpt lat="46.16081" lon="-0.22495">
        <ele>52.2</ele>
        <time>2022-04-03T17:22:51Z</time>
      </trkpt>
      <trkpt lat="46.16085" lon="-0.225">
        <ele>52.2</ele>
        <time>2022-04-03T17:22:52Z</time>
      </trkpt>
      <trkpt lat="46.1609" lon="-0.22505">
        <ele>52.2</ele>
        <time>2022-04-03T17:22:53Z</time>
      </trkpt>
      <trkpt lat="46.16095" lon="-0.22509">
        <ele>52.2</ele>
        <time>2022-04-03T17:22:54Z</time>
      </trkpt>
      <trkpt lat="46.161" lon="-0.22514">
        <ele>52.4</ele>
        <time>2022-04-03T17:22:55Z</time>
      </trkpt>
      <trkpt lat="46.16105" lon="-0.22519">
        <ele>52.6</ele>
        <time>2022-04-03T17:22:56Z</time>
      </trkpt>
      <trkpt lat="46.16109" lon="-0.22523">
        <ele>52.6</ele>
        <time>2022-04-03T17:22:57Z</time>
      </trkpt>
      <trkpt lat="46.16114" lon="-0.22528">
        <ele>52.8</ele>
        <time>2022-04-03T17:22:58Z</time>
      </trkpt>
      <trkpt lat="46.16118" lon="-0.22532">
        <ele>52.8</ele>
        <time>2022-04-03T17:22:59Z</time>
      </trkpt>
      <trkpt lat="46.16123" lon="-0.22537">
        <ele>53</ele>
        <time>2022-04-03T17:23:00Z</time>
      </trkpt>
      <trkpt lat="46.16127" lon="-0.22541">
        <ele>53.2</ele>
        <time>2022-04-03T17:23:01Z</time>
      </trkpt>
      <trkpt lat="46.16131" lon="-0.22545">
        <ele>53.4</ele>
        <time>2022-04-03T17:23:02Z</time>
      </trkpt>
      <trkpt lat="46.16136" lon="-0.22549">
        <ele>53.6</ele>
        <time>2022-04-03T17:23:03Z</time>
      </trkpt>
      <trkpt lat="46.1614" lon="-0.22553">
        <ele>53.8</ele>
        <time>2022-04-03T17:23:04Z</time>
      </trkpt>
      <trkpt lat="46.16144" lon="-0.22558">
        <ele>54</ele>
        <time>2022-04-03T17:23:05Z</time>
      </trkpt>
      <trkpt lat="46.16148" lon="-0.22562">
        <ele>54</ele>
        <time>2022-04-03T17:23:06Z</time>
      </trkpt>
      <trkpt lat="46.16152" lon="-0.22566">
        <ele>54.2</ele>
        <time>2022-04-03T17:23:07Z</time>
      </trkpt>
      <trkpt lat="46.16156" lon="-0.2257">
        <ele>54.4</ele>
        <time>2022-04-03T17:23:08Z</time>
      </trkpt>
      <trkpt lat="46.1616" lon="-0.22574">
        <ele>54.4</ele>
        <time>2022-04-03T17:23:09Z</time>
      </trkpt>
      <trkpt lat="46.16165" lon="-0.22578">
        <ele>54.4</ele>
        <time>2022-04-03T17:23:10Z</time>
      </trkpt>
      <trkpt lat="46.16169" lon="-0.22582">
        <ele>54.4</ele>
        <time>2022-04-03T17:23:11Z</time>
      </trkpt>
      <trkpt lat="46.16172" lon="-0.22586">
        <ele>54.6</ele>
        <time>2022-04-03T17:23:12Z</time>
      </trkpt>
      <trkpt lat="46.16176" lon="-0.2259">
        <ele>54.6</ele>
        <time>2022-04-03T17:23:13Z</time>
      </trkpt>
      <trkpt lat="46.1618" lon="-0.22595">
        <ele>55</ele>
        <time>2022-04-03T17:23:14Z</time>
      </trkpt>
      <trkpt lat="46.16184" lon="-0.22599">
        <ele>55</ele>
        <time>2022-04-03T17:23:15Z</time>
      </trkpt>
      <trkpt lat="46.16188" lon="-0.22603">
        <ele>55.2</ele>
        <time>2022-04-03T17:23:16Z</time>
      </trkpt>
      <trkpt lat="46.16192" lon="-0.22607">
        <ele>55.4</ele>
        <time>2022-04-03T17:23:17Z</time>
      </trkpt>
      <trkpt lat="46.16196" lon="-0.22611">
        <ele>55.4</ele>
        <time>2022-04-03T17:23:18Z</time>
      </trkpt>
      <trkpt lat="46.162" lon="-0.22615">
        <ele>55.4</ele>
        <time>2022-04-03T17:23:19Z</time>
      </trkpt>
      <trkpt lat="46.16204" lon="-0.22619">
        <ele>55.6</ele>
        <time>2022-04-03T17:23:20Z</time>
      </trkpt>
      <trkpt lat="46.16208" lon="-0.22623">
        <ele>55.6</ele>
        <time>2022-04-03T17:23:21Z</time>
      </trkpt>
      <trkpt lat="46.16212" lon="-0.22628">
        <ele>55.6</ele>
        <time>2022-04-03T17:23:22Z</time>
      </trkpt>
      <trkpt lat="46.16216" lon="-0.22631">
        <ele>55.6</ele>
        <time>2022-04-03T17:23:23Z</time>
      </trkpt>
      <trkpt lat="46.1622" lon="-0.22635">
        <ele>55.8</ele>
        <time>2022-04-03T17:23:24Z</time>
      </trkpt>
      <trkpt lat="46.16224" lon="-0.2264">
        <ele>55.8</ele>
        <time>2022-04-03T17:23:25Z</time>
      </trkpt>
      <trkpt lat="46.16228" lon="-0.22644">
        <ele>55.8</ele>
        <time>2022-04-03T17:23:26Z</time>
      </trkpt>
      <trkpt lat="46.16232" lon="-0.22649">
        <ele>56</ele>
        <time>2022-04-03T17:23:27Z</time>
      </trkpt>
      <trkpt lat="46.16236" lon="-0.22653">
        <ele>56.2</ele>
        <time>2022-04-03T17:23:28Z</time>
      </trkpt>
      <trkpt lat="46.1624" lon="-0.22658">
        <ele>56.4</ele>
        <time>2022-04-03T17:23:29Z</time>
      </trkpt>
      <trkpt lat="46.16245" lon="-0.22662">
        <ele>56.4</ele>
        <time>2022-04-03T17:23:30Z</time>
      </trkpt>
      <trkpt lat="46.16249" lon="-0.22667">
        <ele>56.6</ele>
        <time>2022-04-03T17:23:31Z</time>
      </trkpt>
      <trkpt lat="46.16253" lon="-0.22672">
        <ele>56.8</ele>
        <time>2022-04-03T17:23:32Z</time>
      </trkpt>
      <trkpt lat="46.16257" lon="-0.22676">
        <ele>57</ele>
        <time>2022-04-03T17:23:33Z</time>
      </trkpt>
      <trkpt lat="46.16261" lon="-0.22681">
        <ele>57</ele>
        <time>2022-04-03T17:23:34Z</time>
      </trkpt>
      <trkpt lat="46.16265" lon="-0.22686">
        <ele>57.2</ele>
        <time>2022-04-03T17:23:35Z</time>
      </trkpt>
      <trkpt lat="46.16269" lon="-0.2269">
        <ele>57</ele>
        <time>2022-04-03T17:23:36Z</time>
      </trkpt>
      <trkpt lat="46.16272" lon="-0.22695">
        <ele>57</ele>
        <time>2022-04-03T17:23:37Z</time>
      </trkpt>
      <trkpt lat="46.16276" lon="-0.22699">
        <ele>57</ele>
        <time>2022-04-03T17:23:38Z</time>
      </trkpt>
      <trkpt lat="46.1628" lon="-0.22704">
        <ele>57</ele>
        <time>2022-04-03T17:23:39Z</time>
      </trkpt>
      <trkpt lat="46.16284" lon="-0.22708">
        <ele>57</ele>
        <time>2022-04-03T17:23:40Z</time>
      </trkpt>
      <trkpt lat="46.16288" lon="-0.22713">
        <ele>57.2</ele>
        <time>2022-04-03T17:23:41Z</time>
      </trkpt>
      <trkpt lat="46.16291" lon="-0.22718">
        <ele>57.2</ele>
        <time>2022-04-03T17:23:42Z</time>
      </trkpt>
      <trkpt lat="46.16295" lon="-0.22723">
        <ele>57.2</ele>
        <time>2022-04-03T17:23:43Z</time>
      </trkpt>
      <trkpt lat="46.16299" lon="-0.22728">
        <ele>56.8</ele>
        <time>2022-04-03T17:23:44Z</time>
      </trkpt>
      <trkpt lat="46.16303" lon="-0.22733">
        <ele>56.8</ele>
        <time>2022-04-03T17:23:45Z</time>
      </trkpt>
      <trkpt lat="46.16307" lon="-0.22738">
        <ele>56.8</ele>
        <time>2022-04-03T17:23:46Z</time>
      </trkpt>
      <trkpt lat="46.16311" lon="-0.22743">
        <ele>56.8</ele>
        <time>2022-04-03T17:23:47Z</time>
      </trkpt>
      <trkpt lat="46.16314" lon="-0.22748">
        <ele>56.8</ele>
        <time>2022-04-03T17:23:48Z</time>
      </trkpt>
      <trkpt lat="46.16318" lon="-0.22753">
        <ele>56.8</ele>
        <time>2022-04-03T17:23:49Z</time>
      </trkpt>
      <trkpt lat="46.16322" lon="-0.22758">
        <ele>56.8</ele>
        <time>2022-04-03T17:23:50Z</time>
      </trkpt>
      <trkpt lat="46.16326" lon="-0.22763">
        <ele>56.8</ele>
        <time>2022-04-03T17:23:51Z</time>
      </trkpt>
      <trkpt lat="46.1633" lon="-0.22769">
        <ele>56.8</ele>
        <time>2022-04-03T17:23:52Z</time>
      </trkpt>
      <trkpt lat="46.16334" lon="-0.22774">
        <ele>57</ele>
        <time>2022-04-03T17:23:53Z</time>
      </trkpt>
      <trkpt lat="46.16337" lon="-0.22779">
        <ele>56.8</ele>
        <time>2022-04-03T17:23:54Z</time>
      </trkpt>
      <trkpt lat="46.16341" lon="-0.22785">
        <ele>57</ele>
        <time>2022-04-03T17:23:55Z</time>
      </trkpt>
      <trkpt lat="46.16345" lon="-0.2279">
        <ele>56.8</ele>
        <time>2022-04-03T17:23:56Z</time>
      </trkpt>
      <trkpt lat="46.16349" lon="-0.22795">
        <ele>57</ele>
        <time>2022-04-03T17:23:57Z</time>
      </trkpt>
      <trkpt lat="46.16353" lon="-0.228">
        <ele>57</ele>
        <time>2022-04-03T17:23:58Z</time>
      </trkpt>
      <trkpt lat="46.16357" lon="-0.22806">
        <ele>57</ele>
        <time>2022-04-03T17:23:59Z</time>
      </trkpt>
      <trkpt lat="46.16361" lon="-0.22811">
        <ele>57</ele>
        <time>2022-04-03T17:24:00Z</time>
      </trkpt>
      <trkpt lat="46.16365" lon="-0.22817">
        <ele>57</ele>
        <time>2022-04-03T17:24:01Z</time>
      </trkpt>
      <trkpt lat="46.16369" lon="-0.22822">
        <ele>57</ele>
        <time>2022-04-03T17:24:02Z</time>
      </trkpt>
      <trkpt lat="46.16373" lon="-0.22828">
        <ele>57</ele>
        <time>2022-04-03T17:24:03Z</time>
      </trkpt>
      <trkpt lat="46.16377" lon="-0.22833">
        <ele>57</ele>
        <time>2022-04-03T17:24:04Z</time>
      </trkpt>
      <trkpt lat="46.16381" lon="-0.22838">
        <ele>57.2</ele>
        <time>2022-04-03T17:24:05Z</time>
      </trkpt>
      <trkpt lat="46.16385" lon="-0.22844">
        <ele>57.2</ele>
        <time>2022-04-03T17:24:06Z</time>
      </trkpt>
      <trkpt lat="46.16389" lon="-0.22849">
        <ele>57.2</ele>
        <time>2022-04-03T17:24:07Z</time>
      </trkpt>
      <trkpt lat="46.16393" lon="-0.22855">
        <ele>57.2</ele>
        <time>2022-04-03T17:24:08Z</time>
      </trkpt>
      <trkpt lat="46.16397" lon="-0.2286">
        <ele>57.2</ele>
        <time>2022-04-03T17:24:09Z</time>
      </trkpt>
      <trkpt lat="46.16401" lon="-0.22866">
        <ele>57.2</ele>
        <time>2022-04-03T17:24:10Z</time>
      </trkpt>
      <trkpt lat="46.16405" lon="-0.22871">
        <ele>57.2</ele>
        <time>2022-04-03T17:24:11Z</time>
      </trkpt>
      <trkpt lat="46.16409" lon="-0.22876">
        <ele>57</ele>
        <time>2022-04-03T17:24:12Z</time>
      </trkpt>
      <trkpt lat="46.16412" lon="-0.22882">
        <ele>57</ele>
        <time>2022-04-03T17:24:13Z</time>
      </trkpt>
      <trkpt lat="46.16417" lon="-0.22887">
        <ele>57</ele>
        <time>2022-04-03T17:24:14Z</time>
      </trkpt>
      <trkpt lat="46.16421" lon="-0.22893">
        <ele>57.2</ele>
        <time>2022-04-03T17:24:15Z</time>
      </trkpt>
      <trkpt lat="46.16425" lon="-0.22898">
        <ele>57</ele>
        <time>2022-04-03T17:24:16Z</time>
      </trkpt>
      <trkpt lat="46.16429" lon="-0.22904">
        <ele>57.2</ele>
        <time>2022-04-03T17:24:17Z</time>
      </trkpt>
      <trkpt lat="46.16433" lon="-0.2291">
        <ele>57.2</ele>
        <time>2022-04-03T17:24:18Z</time>
      </trkpt>
      <trkpt lat="46.16437" lon="-0.22915">
        <ele>57.2</ele>
        <time>2022-04-03T17:24:19Z</time>
      </trkpt>
      <trkpt lat="46.16441" lon="-0.22921">
        <ele>57.2</ele>
        <time>2022-04-03T17:24:20Z</time>
      </trkpt>
      <trkpt lat="46.16445" lon="-0.22927">
        <ele>57</ele>
        <time>2022-04-03T17:24:21Z</time>
      </trkpt>
      <trkpt lat="46.16449" lon="-0.22933">
        <ele>57.2</ele>
        <time>2022-04-03T17:24:22Z</time>
      </trkpt>
      <trkpt lat="46.16453" lon="-0.22938">
        <ele>57.4</ele>
        <time>2022-04-03T17:24:23Z</time>
      </trkpt>
      <trkpt lat="46.16457" lon="-0.22944">
        <ele>57.2</ele>
        <time>2022-04-03T17:24:24Z</time>
      </trkpt>
      <trkpt lat="46.16461" lon="-0.22949">
        <ele>57.2</ele>
        <time>2022-04-03T17:24:25Z</time>
      </trkpt>
      <trkpt lat="46.16466" lon="-0.22955">
        <ele>57.2</ele>
        <time>2022-04-03T17:24:26Z</time>
      </trkpt>
      <trkpt lat="46.1647" lon="-0.22961">
        <ele>57.2</ele>
        <time>2022-04-03T17:24:27Z</time>
      </trkpt>
      <trkpt lat="46.16474" lon="-0.22966">
        <ele>57.4</ele>
        <time>2022-04-03T17:24:28Z</time>
      </trkpt>
      <trkpt lat="46.16478" lon="-0.22972">
        <ele>57.2</ele>
        <time>2022-04-03T17:24:29Z</time>
      </trkpt>
      <trkpt lat="46.16482" lon="-0.22977">
        <ele>57.2</ele>
        <time>2022-04-03T17:24:30Z</time>
      </trkpt>
      <trkpt lat="46.16486" lon="-0.22983">
        <ele>57.2</ele>
        <time>2022-04-03T17:24:31Z</time>
      </trkpt>
      <trkpt lat="46.1649" lon="-0.22989">
        <ele>57.2</ele>
        <time>2022-04-03T17:24:32Z</time>
      </trkpt>
      <trkpt lat="46.16494" lon="-0.22995">
        <ele>57.2</ele>
        <time>2022-04-03T17:24:33Z</time>
      </trkpt>
      <trkpt lat="46.16498" lon="-0.23001">
        <ele>57.2</ele>
        <time>2022-04-03T17:24:34Z</time>
      </trkpt>
      <trkpt lat="46.16502" lon="-0.23007">
        <ele>57.2</ele>
        <time>2022-04-03T17:24:35Z</time>
      </trkpt>
      <trkpt lat="46.16507" lon="-0.23013">
        <ele>57.2</ele>
        <time>2022-04-03T17:24:36Z</time>
      </trkpt>
      <trkpt lat="46.16511" lon="-0.23019">
        <ele>57</ele>
        <time>2022-04-03T17:24:37Z</time>
      </trkpt>
      <trkpt lat="46.16515" lon="-0.23024">
        <ele>57.2</ele>
        <time>2022-04-03T17:24:38Z</time>
      </trkpt>
      <trkpt lat="46.1652" lon="-0.2303">
        <ele>57</ele>
        <time>2022-04-03T17:24:39Z</time>
      </trkpt>
      <trkpt lat="46.16524" lon="-0.23037">
        <ele>57.2</ele>
        <time>2022-04-03T17:24:40Z</time>
      </trkpt>
      <trkpt lat="46.16528" lon="-0.23043">
        <ele>57</ele>
        <time>2022-04-03T17:24:41Z</time>
      </trkpt>
      <trkpt lat="46.16532" lon="-0.2305">
        <ele>56.8</ele>
        <time>2022-04-03T17:24:42Z</time>
      </trkpt>
      <trkpt lat="46.16537" lon="-0.23056">
        <ele>57</ele>
        <time>2022-04-03T17:24:43Z</time>
      </trkpt>
      <trkpt lat="46.16541" lon="-0.23063">
        <ele>56.8</ele>
        <time>2022-04-03T17:24:44Z</time>
      </trkpt>
      <trkpt lat="46.16545" lon="-0.23069">
        <ele>56.8</ele>
        <time>2022-04-03T17:24:45Z</time>
      </trkpt>
      <trkpt lat="46.16549" lon="-0.23077">
        <ele>56.8</ele>
        <time>2022-04-03T17:24:46Z</time>
      </trkpt>
      <trkpt lat="46.16553" lon="-0.23084">
        <ele>56.6</ele>
        <time>2022-04-03T17:24:47Z</time>
      </trkpt>
      <trkpt lat="46.16558" lon="-0.23092">
        <ele>56.6</ele>
        <time>2022-04-03T17:24:48Z</time>
      </trkpt>
      <trkpt lat="46.16562" lon="-0.23099">
        <ele>56.4</ele>
        <time>2022-04-03T17:24:49Z</time>
      </trkpt>
      <trkpt lat="46.16566" lon="-0.23107">
        <ele>56.4</ele>
        <time>2022-04-03T17:24:50Z</time>
      </trkpt>
      <trkpt lat="46.1657" lon="-0.23115">
        <ele>56.2</ele>
        <time>2022-04-03T17:24:51Z</time>
      </trkpt>
      <trkpt lat="46.16574" lon="-0.23123">
        <ele>55.8</ele>
        <time>2022-04-03T17:24:52Z</time>
      </trkpt>
      <trkpt lat="46.16578" lon="-0.23131">
        <ele>55.8</ele>
        <time>2022-04-03T17:24:53Z</time>
      </trkpt>
      <trkpt lat="46.16583" lon="-0.23139">
        <ele>55.6</ele>
        <time>2022-04-03T17:24:54Z</time>
      </trkpt>
      <trkpt lat="46.16587" lon="-0.23148">
        <ele>55.4</ele>
        <time>2022-04-03T17:24:55Z</time>
      </trkpt>
      <trkpt lat="46.16591" lon="-0.23157">
        <ele>55.4</ele>
        <time>2022-04-03T17:24:56Z</time>
      </trkpt>
      <trkpt lat="46.16595" lon="-0.23165">
        <ele>55.2</ele>
        <time>2022-04-03T17:24:57Z</time>
      </trkpt>
      <trkpt lat="46.166" lon="-0.23174">
        <ele>55</ele>
        <time>2022-04-03T17:24:58Z</time>
      </trkpt>
      <trkpt lat="46.16604" lon="-0.23183">
        <ele>54.8</ele>
        <time>2022-04-03T17:24:59Z</time>
      </trkpt>
      <trkpt lat="46.16609" lon="-0.23192">
        <ele>54.6</ele>
        <time>2022-04-03T17:25:00Z</time>
      </trkpt>
      <trkpt lat="46.16614" lon="-0.23201">
        <ele>54.2</ele>
        <time>2022-04-03T17:25:01Z</time>
      </trkpt>
      <trkpt lat="46.16619" lon="-0.2321">
        <ele>54</ele>
        <time>2022-04-03T17:25:02Z</time>
      </trkpt>
      <trkpt lat="46.16624" lon="-0.2322">
        <ele>53.6</ele>
        <time>2022-04-03T17:25:03Z</time>
      </trkpt>
      <trkpt lat="46.16629" lon="-0.23228">
        <ele>53.6</ele>
        <time>2022-04-03T17:25:04Z</time>
      </trkpt>
      <trkpt lat="46.16634" lon="-0.23237">
        <ele>53.6</ele>
        <time>2022-04-03T17:25:05Z</time>
      </trkpt>
      <trkpt lat="46.1664" lon="-0.23245">
        <ele>53</ele>
        <time>2022-04-03T17:25:06Z</time>
      </trkpt>
      <trkpt lat="46.16645" lon="-0.23253">
        <ele>52.6</ele>
        <time>2022-04-03T17:25:07Z</time>
      </trkpt>
      <trkpt lat="46.16651" lon="-0.23261">
        <ele>52</ele>
        <time>2022-04-03T17:25:08Z</time>
      </trkpt>
      <trkpt lat="46.16656" lon="-0.23268">
        <ele>51.4</ele>
        <time>2022-04-03T17:25:09Z</time>
      </trkpt>
      <trkpt lat="46.16662" lon="-0.23275">
        <ele>50.6</ele>
        <time>2022-04-03T17:25:10Z</time>
      </trkpt>
      <trkpt lat="46.16667" lon="-0.23281">
        <ele>49.6</ele>
        <time>2022-04-03T17:25:11Z</time>
      </trkpt>
      <trkpt lat="46.16672" lon="-0.23288">
        <ele>49.2</ele>
        <time>2022-04-03T17:25:12Z</time>
      </trkpt>
      <trkpt lat="46.16677" lon="-0.23294">
        <ele>48.8</ele>
        <time>2022-04-03T17:25:13Z</time>
      </trkpt>
      <trkpt lat="46.16681" lon="-0.233">
        <ele>48.8</ele>
        <time>2022-04-03T17:25:14Z</time>
      </trkpt>
      <trkpt lat="46.16686" lon="-0.23306">
        <ele>48.6</ele>
        <time>2022-04-03T17:25:15Z</time>
      </trkpt>
      <trkpt lat="46.16691" lon="-0.23311">
        <ele>48.6</ele>
        <time>2022-04-03T17:25:16Z</time>
      </trkpt>
      <trkpt lat="46.16695" lon="-0.23315">
        <ele>48.6</ele>
        <time>2022-04-03T17:25:17Z</time>
      </trkpt>
      <trkpt lat="46.167" lon="-0.2332">
        <ele>48.6</ele>
        <time>2022-04-03T17:25:18Z</time>
      </trkpt>
      <trkpt lat="46.16704" lon="-0.23325">
        <ele>48.6</ele>
        <time>2022-04-03T17:25:19Z</time>
      </trkpt>
      <trkpt lat="46.16709" lon="-0.23329">
        <ele>48.6</ele>
        <time>2022-04-03T17:25:20Z</time>
      </trkpt>
      <trkpt lat="46.16713" lon="-0.23334">
        <ele>48.6</ele>
        <time>2022-04-03T17:25:21Z</time>
      </trkpt>
      <trkpt lat="46.16718" lon="-0.23339">
        <ele>48.8</ele>
        <time>2022-04-03T17:25:22Z</time>
      </trkpt>
      <trkpt lat="46.16723" lon="-0.23344">
        <ele>48.8</ele>
        <time>2022-04-03T17:25:23Z</time>
      </trkpt>
      <trkpt lat="46.16727" lon="-0.23349">
        <ele>48.8</ele>
        <time>2022-04-03T17:25:24Z</time>
      </trkpt>
      <trkpt lat="46.16732" lon="-0.23354">
        <ele>49</ele>
        <time>2022-04-03T17:25:25Z</time>
      </trkpt>
      <trkpt lat="46.16736" lon="-0.23359">
        <ele>49</ele>
        <time>2022-04-03T17:25:26Z</time>
      </trkpt>
      <trkpt lat="46.16741" lon="-0.23364">
        <ele>49.2</ele>
        <time>2022-04-03T17:25:27Z</time>
      </trkpt>
      <trkpt lat="46.16746" lon="-0.23369">
        <ele>49.4</ele>
        <time>2022-04-03T17:25:28Z</time>
      </trkpt>
      <trkpt lat="46.16751" lon="-0.23374">
        <ele>49.6</ele>
        <time>2022-04-03T17:25:29Z</time>
      </trkpt>
      <trkpt lat="46.16755" lon="-0.23379">
        <ele>49.6</ele>
        <time>2022-04-03T17:25:30Z</time>
      </trkpt>
      <trkpt lat="46.1676" lon="-0.23384">
        <ele>49.6</ele>
        <time>2022-04-03T17:25:31Z</time>
      </trkpt>
      <trkpt lat="46.16765" lon="-0.23389">
        <ele>49.8</ele>
        <time>2022-04-03T17:25:32Z</time>
      </trkpt>
      <trkpt lat="46.1677" lon="-0.23395">
        <ele>49.6</ele>
        <time>2022-04-03T17:25:33Z</time>
      </trkpt>
      <trkpt lat="46.16775" lon="-0.234">
        <ele>49.6</ele>
        <time>2022-04-03T17:25:34Z</time>
      </trkpt>
      <trkpt lat="46.1678" lon="-0.23405">
        <ele>49.6</ele>
        <time>2022-04-03T17:25:35Z</time>
      </trkpt>
      <trkpt lat="46.16785" lon="-0.2341">
        <ele>49.6</ele>
        <time>2022-04-03T17:25:36Z</time>
      </trkpt>
      <trkpt lat="46.1679" lon="-0.23416">
        <ele>49.8</ele>
        <time>2022-04-03T17:25:37Z</time>
      </trkpt>
      <trkpt lat="46.16795" lon="-0.23421">
        <ele>49.4</ele>
        <time>2022-04-03T17:25:38Z</time>
      </trkpt>
      <trkpt lat="46.16799" lon="-0.23426">
        <ele>49.4</ele>
        <time>2022-04-03T17:25:39Z</time>
      </trkpt>
      <trkpt lat="46.16804" lon="-0.23431">
        <ele>49.4</ele>
        <time>2022-04-03T17:25:40Z</time>
      </trkpt>
      <trkpt lat="46.16809" lon="-0.23437">
        <ele>49.2</ele>
        <time>2022-04-03T17:25:41Z</time>
      </trkpt>
      <trkpt lat="46.16814" lon="-0.23442">
        <ele>49.2</ele>
        <time>2022-04-03T17:25:42Z</time>
      </trkpt>
      <trkpt lat="46.16819" lon="-0.23448">
        <ele>49.2</ele>
        <time>2022-04-03T17:25:43Z</time>
      </trkpt>
      <trkpt lat="46.16824" lon="-0.23453">
        <ele>49</ele>
        <time>2022-04-03T17:25:44Z</time>
      </trkpt>
      <trkpt lat="46.16829" lon="-0.23458">
        <ele>49</ele>
        <time>2022-04-03T17:25:45Z</time>
      </trkpt>
      <trkpt lat="46.16835" lon="-0.23464">
        <ele>49</ele>
        <time>2022-04-03T17:25:46Z</time>
      </trkpt>
      <trkpt lat="46.1684" lon="-0.23469">
        <ele>49</ele>
        <time>2022-04-03T17:25:47Z</time>
      </trkpt>
      <trkpt lat="46.16845" lon="-0.23475">
        <ele>48.8</ele>
        <time>2022-04-03T17:25:48Z</time>
      </trkpt>
      <trkpt lat="46.1685" lon="-0.2348">
        <ele>48.6</ele>
        <time>2022-04-03T17:25:49Z</time>
      </trkpt>
      <trkpt lat="46.16855" lon="-0.23485">
        <ele>48.6</ele>
        <time>2022-04-03T17:25:50Z</time>
      </trkpt>
      <trkpt lat="46.1686" lon="-0.2349">
        <ele>48.4</ele>
        <time>2022-04-03T17:25:51Z</time>
      </trkpt>
      <trkpt lat="46.16865" lon="-0.23496">
        <ele>48.4</ele>
        <time>2022-04-03T17:25:52Z</time>
      </trkpt>
      <trkpt lat="46.1687" lon="-0.23501">
        <ele>48.2</ele>
        <time>2022-04-03T17:25:53Z</time>
      </trkpt>
      <trkpt lat="46.16874" lon="-0.23506">
        <ele>48.2</ele>
        <time>2022-04-03T17:25:54Z</time>
      </trkpt>
      <trkpt lat="46.16879" lon="-0.23511">
        <ele>48.2</ele>
        <time>2022-04-03T17:25:55Z</time>
      </trkpt>
      <trkpt lat="46.16884" lon="-0.23516">
        <ele>48.2</ele>
        <time>2022-04-03T17:25:56Z</time>
      </trkpt>
      <trkpt lat="46.16889" lon="-0.23521">
        <ele>48.2</ele>
        <time>2022-04-03T17:25:57Z</time>
      </trkpt>
      <trkpt lat="46.16894" lon="-0.23526">
        <ele>48</ele>
        <time>2022-04-03T17:25:58Z</time>
      </trkpt>
      <trkpt lat="46.16898" lon="-0.23531">
        <ele>47.8</ele>
        <time>2022-04-03T17:25:59Z</time>
      </trkpt>
      <trkpt lat="46.16903" lon="-0.23535">
        <ele>47.8</ele>
        <time>2022-04-03T17:26:00Z</time>
      </trkpt>
      <trkpt lat="46.16908" lon="-0.2354">
        <ele>48</ele>
        <time>2022-04-03T17:26:01Z</time>
      </trkpt>
      <trkpt lat="46.16913" lon="-0.23544">
        <ele>48</ele>
        <time>2022-04-03T17:26:02Z</time>
      </trkpt>
      <trkpt lat="46.16918" lon="-0.23549">
        <ele>48</ele>
        <time>2022-04-03T17:26:03Z</time>
      </trkpt>
      <trkpt lat="46.16923" lon="-0.23554">
        <ele>48</ele>
        <time>2022-04-03T17:26:04Z</time>
      </trkpt>
      <trkpt lat="46.16927" lon="-0.23559">
        <ele>47.8</ele>
        <time>2022-04-03T17:26:05Z</time>
      </trkpt>
      <trkpt lat="46.16932" lon="-0.23563">
        <ele>47.8</ele>
        <time>2022-04-03T17:26:06Z</time>
      </trkpt>
      <trkpt lat="46.16937" lon="-0.23568">
        <ele>48</ele>
        <time>2022-04-03T17:26:07Z</time>
      </trkpt>
      <trkpt lat="46.16942" lon="-0.23573">
        <ele>48.2</ele>
        <time>2022-04-03T17:26:08Z</time>
      </trkpt>
      <trkpt lat="46.16947" lon="-0.23578">
        <ele>48</ele>
        <time>2022-04-03T17:26:09Z</time>
      </trkpt>
      <trkpt lat="46.16952" lon="-0.23583">
        <ele>48</ele>
        <time>2022-04-03T17:26:10Z</time>
      </trkpt>
      <trkpt lat="46.16958" lon="-0.23587">
        <ele>48</ele>
        <time>2022-04-03T17:26:11Z</time>
      </trkpt>
      <trkpt lat="46.16963" lon="-0.23592">
        <ele>48</ele>
        <time>2022-04-03T17:26:12Z</time>
      </trkpt>
      <trkpt lat="46.16968" lon="-0.23597">
        <ele>48.2</ele>
        <time>2022-04-03T17:26:13Z</time>
      </trkpt>
      <trkpt lat="46.16974" lon="-0.23602">
        <ele>48.2</ele>
        <time>2022-04-03T17:26:14Z</time>
      </trkpt>
      <trkpt lat="46.16979" lon="-0.23607">
        <ele>48</ele>
        <time>2022-04-03T17:26:15Z</time>
      </trkpt>
      <trkpt lat="46.16984" lon="-0.23612">
        <ele>48</ele>
        <time>2022-04-03T17:26:16Z</time>
      </trkpt>
      <trkpt lat="46.1699" lon="-0.23617">
        <ele>48</ele>
        <time>2022-04-03T17:26:17Z</time>
      </trkpt>
      <trkpt lat="46.16995" lon="-0.23621">
        <ele>48</ele>
        <time>2022-04-03T17:26:18Z</time>
      </trkpt>
      <trkpt lat="46.17" lon="-0.23626">
        <ele>48</ele>
        <time>2022-04-03T17:26:19Z</time>
      </trkpt>
      <trkpt lat="46.17006" lon="-0.23631">
        <ele>47.8</ele>
        <time>2022-04-03T17:26:20Z</time>
      </trkpt>
      <trkpt lat="46.17011" lon="-0.23636">
        <ele>47.8</ele>
        <time>2022-04-03T17:26:21Z</time>
      </trkpt>
      <trkpt lat="46.17016" lon="-0.23641">
        <ele>47.8</ele>
        <time>2022-04-03T17:26:22Z</time>
      </trkpt>
      <trkpt lat="46.17021" lon="-0.23645">
        <ele>47.8</ele>
        <time>2022-04-03T17:26:23Z</time>
      </trkpt>
      <trkpt lat="46.17027" lon="-0.2365">
        <ele>47.6</ele>
        <time>2022-04-03T17:26:24Z</time>
      </trkpt>
      <trkpt lat="46.17032" lon="-0.23654">
        <ele>47.6</ele>
        <time>2022-04-03T17:26:25Z</time>
      </trkpt>
      <trkpt lat="46.17037" lon="-0.23659">
        <ele>47.8</ele>
        <time>2022-04-03T17:26:26Z</time>
      </trkpt>
      <trkpt lat="46.17042" lon="-0.23663">
        <ele>47.6</ele>
        <time>2022-04-03T17:26:27Z</time>
      </trkpt>
      <trkpt lat="46.17047" lon="-0.23668">
        <ele>47.6</ele>
        <time>2022-04-03T17:26:28Z</time>
      </trkpt>
      <trkpt lat="46.17051" lon="-0.23672">
        <ele>47.8</ele>
        <time>2022-04-03T17:26:29Z</time>
      </trkpt>
      <trkpt lat="46.17056" lon="-0.23676">
        <ele>47.6</ele>
        <time>2022-04-03T17:26:30Z</time>
      </trkpt>
      <trkpt lat="46.17061" lon="-0.23681">
        <ele>47.8</ele>
        <time>2022-04-03T17:26:31Z</time>
      </trkpt>
      <trkpt lat="46.17066" lon="-0.23685">
        <ele>47.8</ele>
        <time>2022-04-03T17:26:32Z</time>
      </trkpt>
      <trkpt lat="46.1707" lon="-0.23689">
        <ele>47.8</ele>
        <time>2022-04-03T17:26:33Z</time>
      </trkpt>
      <trkpt lat="46.17075" lon="-0.23693">
        <ele>47.6</ele>
        <time>2022-04-03T17:26:34Z</time>
      </trkpt>
      <trkpt lat="46.17079" lon="-0.23696">
        <ele>47.8</ele>
        <time>2022-04-03T17:26:35Z</time>
      </trkpt>
      <trkpt lat="46.17084" lon="-0.237">
        <ele>48</ele>
        <time>2022-04-03T17:26:36Z</time>
      </trkpt>
      <trkpt lat="46.17088" lon="-0.23704">
        <ele>48</ele>
        <time>2022-04-03T17:26:37Z</time>
      </trkpt>
      <trkpt lat="46.17092" lon="-0.23707">
        <ele>48.2</ele>
        <time>2022-04-03T17:26:38Z</time>
      </trkpt>
      <trkpt lat="46.17096" lon="-0.23711">
        <ele>48.2</ele>
        <time>2022-04-03T17:26:39Z</time>
      </trkpt>
      <trkpt lat="46.17099" lon="-0.23714">
        <ele>48.2</ele>
        <time>2022-04-03T17:26:40Z</time>
      </trkpt>
      <trkpt lat="46.17103" lon="-0.23717">
        <ele>48.2</ele>
        <time>2022-04-03T17:26:41Z</time>
      </trkpt>
      <trkpt lat="46.17107" lon="-0.2372">
        <ele>48.4</ele>
        <time>2022-04-03T17:26:42Z</time>
      </trkpt>
      <trkpt lat="46.17111" lon="-0.23723">
        <ele>48.4</ele>
        <time>2022-04-03T17:26:43Z</time>
      </trkpt>
      <trkpt lat="46.17115" lon="-0.23726">
        <ele>48.6</ele>
        <time>2022-04-03T17:26:44Z</time>
      </trkpt>
      <trkpt lat="46.17119" lon="-0.23729">
        <ele>49.2</ele>
        <time>2022-04-03T17:26:45Z</time>
      </trkpt>
      <trkpt lat="46.17123" lon="-0.23732">
        <ele>49.4</ele>
        <time>2022-04-03T17:26:46Z</time>
      </trkpt>
      <trkpt lat="46.17126" lon="-0.23735">
        <ele>49.4</ele>
        <time>2022-04-03T17:26:47Z</time>
      </trkpt>
      <trkpt lat="46.1713" lon="-0.23738">
        <ele>49.6</ele>
        <time>2022-04-03T17:26:48Z</time>
      </trkpt>
      <trkpt lat="46.17134" lon="-0.23741">
        <ele>49.8</ele>
        <time>2022-04-03T17:26:49Z</time>
      </trkpt>
      <trkpt lat="46.17138" lon="-0.23744">
        <ele>49.8</ele>
        <time>2022-04-03T17:26:50Z</time>
      </trkpt>
      <trkpt lat="46.17142" lon="-0.23746">
        <ele>50</ele>
        <time>2022-04-03T17:26:51Z</time>
      </trkpt>
      <trkpt lat="46.17145" lon="-0.23749">
        <ele>50.2</ele>
        <time>2022-04-03T17:26:52Z</time>
      </trkpt>
      <trkpt lat="46.17149" lon="-0.23751">
        <ele>50.2</ele>
        <time>2022-04-03T17:26:53Z</time>
      </trkpt>
      <trkpt lat="46.17153" lon="-0.23754">
        <ele>50.4</ele>
        <time>2022-04-03T17:26:54Z</time>
      </trkpt>
      <trkpt lat="46.17156" lon="-0.23756">
        <ele>50.2</ele>
        <time>2022-04-03T17:26:55Z</time>
      </trkpt>
      <trkpt lat="46.1716" lon="-0.23758">
        <ele>50.4</ele>
        <time>2022-04-03T17:26:56Z</time>
      </trkpt>
      <trkpt lat="46.17164" lon="-0.2376">
        <ele>50.4</ele>
        <time>2022-04-03T17:26:57Z</time>
      </trkpt>
      <trkpt lat="46.17167" lon="-0.23762">
        <ele>50.6</ele>
        <time>2022-04-03T17:26:58Z</time>
      </trkpt>
      <trkpt lat="46.17171" lon="-0.23764">
        <ele>50.6</ele>
        <time>2022-04-03T17:26:59Z</time>
      </trkpt>
      <trkpt lat="46.17175" lon="-0.23766">
        <ele>50.4</ele>
        <time>2022-04-03T17:27:00Z</time>
      </trkpt>
      <trkpt lat="46.17179" lon="-0.23767">
        <ele>50.6</ele>
        <time>2022-04-03T17:27:01Z</time>
      </trkpt>
      <trkpt lat="46.17183" lon="-0.23769">
        <ele>50.8</ele>
        <time>2022-04-03T17:27:02Z</time>
      </trkpt>
      <trkpt lat="46.17187" lon="-0.23771">
        <ele>51</ele>
        <time>2022-04-03T17:27:03Z</time>
      </trkpt>
      <trkpt lat="46.1719" lon="-0.23772">
        <ele>51.2</ele>
        <time>2022-04-03T17:27:04Z</time>
      </trkpt>
      <trkpt lat="46.17194" lon="-0.23774">
        <ele>51.4</ele>
        <time>2022-04-03T17:27:05Z</time>
      </trkpt>
      <trkpt lat="46.17198" lon="-0.23775">
        <ele>51.4</ele>
        <time>2022-04-03T17:27:06Z</time>
      </trkpt>
      <trkpt lat="46.17202" lon="-0.23777">
        <ele>51.6</ele>
        <time>2022-04-03T17:27:07Z</time>
      </trkpt>
      <trkpt lat="46.17206" lon="-0.23778">
        <ele>51.6</ele>
        <time>2022-04-03T17:27:08Z</time>
      </trkpt>
      <trkpt lat="46.17209" lon="-0.23779">
        <ele>51.6</ele>
        <time>2022-04-03T17:27:09Z</time>
      </trkpt>
      <trkpt lat="46.17213" lon="-0.2378">
        <ele>51.6</ele>
        <time>2022-04-03T17:27:10Z</time>
      </trkpt>
      <trkpt lat="46.17217" lon="-0.23781">
        <ele>51.8</ele>
        <time>2022-04-03T17:27:11Z</time>
      </trkpt>
      <trkpt lat="46.17221" lon="-0.23782">
        <ele>51.8</ele>
        <time>2022-04-03T17:27:12Z</time>
      </trkpt>
      <trkpt lat="46.17225" lon="-0.23784">
        <ele>52</ele>
        <time>2022-04-03T17:27:13Z</time>
      </trkpt>
      <trkpt lat="46.17229" lon="-0.23785">
        <ele>52.2</ele>
        <time>2022-04-03T17:27:14Z</time>
      </trkpt>
      <trkpt lat="46.17233" lon="-0.23786">
        <ele>52.4</ele>
        <time>2022-04-03T17:27:15Z</time>
      </trkpt>
      <trkpt lat="46.17237" lon="-0.23787">
        <ele>52.4</ele>
        <time>2022-04-03T17:27:16Z</time>
      </trkpt>
      <trkpt lat="46.17241" lon="-0.23788">
        <ele>52.8</ele>
        <time>2022-04-03T17:27:17Z</time>
      </trkpt>
      <trkpt lat="46.17245" lon="-0.23789">
        <ele>52.8</ele>
        <time>2022-04-03T17:27:18Z</time>
      </trkpt>
      <trkpt lat="46.17249" lon="-0.2379">
        <ele>52.8</ele>
        <time>2022-04-03T17:27:19Z</time>
      </trkpt>
      <trkpt lat="46.17253" lon="-0.23791">
        <ele>52.8</ele>
        <time>2022-04-03T17:27:20Z</time>
      </trkpt>
      <trkpt lat="46.17257" lon="-0.23792">
        <ele>53</ele>
        <time>2022-04-03T17:27:21Z</time>
      </trkpt>
      <trkpt lat="46.17261" lon="-0.23792">
        <ele>53.2</ele>
        <time>2022-04-03T17:27:22Z</time>
      </trkpt>
      <trkpt lat="46.17265" lon="-0.23793">
        <ele>53.2</ele>
        <time>2022-04-03T17:27:23Z</time>
      </trkpt>
      <trkpt lat="46.1727" lon="-0.23794">
        <ele>53.4</ele>
        <time>2022-04-03T17:27:24Z</time>
      </trkpt>
      <trkpt lat="46.17274" lon="-0.23794">
        <ele>53.4</ele>
        <time>2022-04-03T17:27:25Z</time>
      </trkpt>
      <trkpt lat="46.17278" lon="-0.23795">
        <ele>53.6</ele>
        <time>2022-04-03T17:27:26Z</time>
      </trkpt>
      <trkpt lat="46.17282" lon="-0.23796">
        <ele>53.6</ele>
        <time>2022-04-03T17:27:27Z</time>
      </trkpt>
      <trkpt lat="46.17287" lon="-0.23796">
        <ele>53.6</ele>
        <time>2022-04-03T17:27:28Z</time>
      </trkpt>
      <trkpt lat="46.17291" lon="-0.23797">
        <ele>53.8</ele>
        <time>2022-04-03T17:27:29Z</time>
      </trkpt>
      <trkpt lat="46.17296" lon="-0.23798">
        <ele>53.8</ele>
        <time>2022-04-03T17:27:30Z</time>
      </trkpt>
      <trkpt lat="46.17301" lon="-0.23799">
        <ele>53.8</ele>
        <time>2022-04-03T17:27:31Z</time>
      </trkpt>
      <trkpt lat="46.17305" lon="-0.238">
        <ele>53.8</ele>
        <time>2022-04-03T17:27:32Z</time>
      </trkpt>
      <trkpt lat="46.1731" lon="-0.23801">
        <ele>53.8</ele>
        <time>2022-04-03T17:27:33Z</time>
      </trkpt>
      <trkpt lat="46.17314" lon="-0.23802">
        <ele>53.8</ele>
        <time>2022-04-03T17:27:34Z</time>
      </trkpt>
      <trkpt lat="46.17319" lon="-0.23803">
        <ele>53.8</ele>
        <time>2022-04-03T17:27:35Z</time>
      </trkpt>
      <trkpt lat="46.17324" lon="-0.23804">
        <ele>53.8</ele>
        <time>2022-04-03T17:27:36Z</time>
      </trkpt>
      <trkpt lat="46.17329" lon="-0.23805">
        <ele>53.8</ele>
        <time>2022-04-03T17:27:37Z</time>
      </trkpt>
      <trkpt lat="46.17333" lon="-0.23806">
        <ele>54</ele>
        <time>2022-04-03T17:27:38Z</time>
      </trkpt>
      <trkpt lat="46.17338" lon="-0.23807">
        <ele>54</ele>
        <time>2022-04-03T17:27:39Z</time>
      </trkpt>
      <trkpt lat="46.17343" lon="-0.23808">
        <ele>54</ele>
        <time>2022-04-03T17:27:40Z</time>
      </trkpt>
      <trkpt lat="46.17348" lon="-0.23809">
        <ele>54</ele>
        <time>2022-04-03T17:27:41Z</time>
      </trkpt>
      <trkpt lat="46.17353" lon="-0.23811">
        <ele>53.8</ele>
        <time>2022-04-03T17:27:42Z</time>
      </trkpt>
      <trkpt lat="46.17358" lon="-0.23813">
        <ele>54</ele>
        <time>2022-04-03T17:27:43Z</time>
      </trkpt>
      <trkpt lat="46.17363" lon="-0.23814">
        <ele>54</ele>
        <time>2022-04-03T17:27:44Z</time>
      </trkpt>
      <trkpt lat="46.17369" lon="-0.23816">
        <ele>53.8</ele>
        <time>2022-04-03T17:27:45Z</time>
      </trkpt>
      <trkpt lat="46.17374" lon="-0.23819">
        <ele>53.8</ele>
        <time>2022-04-03T17:27:46Z</time>
      </trkpt>
      <trkpt lat="46.17379" lon="-0.23821">
        <ele>53.8</ele>
        <time>2022-04-03T17:27:47Z</time>
      </trkpt>
      <trkpt lat="46.17385" lon="-0.23823">
        <ele>53.6</ele>
        <time>2022-04-03T17:27:48Z</time>
      </trkpt>
      <trkpt lat="46.1739" lon="-0.23826">
        <ele>53.4</ele>
        <time>2022-04-03T17:27:49Z</time>
      </trkpt>
      <trkpt lat="46.17396" lon="-0.23829">
        <ele>53.2</ele>
        <time>2022-04-03T17:27:50Z</time>
      </trkpt>
      <trkpt lat="46.17402" lon="-0.23832">
        <ele>53</ele>
        <time>2022-04-03T17:27:51Z</time>
      </trkpt>
      <trkpt lat="46.17407" lon="-0.23835">
        <ele>52.8</ele>
        <time>2022-04-03T17:27:52Z</time>
      </trkpt>
      <trkpt lat="46.17413" lon="-0.23838">
        <ele>52.8</ele>
        <time>2022-04-03T17:27:53Z</time>
      </trkpt>
      <trkpt lat="46.17419" lon="-0.23841">
        <ele>52.8</ele>
        <time>2022-04-03T17:27:54Z</time>
      </trkpt>
      <trkpt lat="46.17425" lon="-0.23845">
        <ele>52.6</ele>
        <time>2022-04-03T17:27:55Z</time>
      </trkpt>
      <trkpt lat="46.17432" lon="-0.23848">
        <ele>52.6</ele>
        <time>2022-04-03T17:27:56Z</time>
      </trkpt>
      <trkpt lat="46.17438" lon="-0.23851">
        <ele>52.4</ele>
        <time>2022-04-03T17:27:57Z</time>
      </trkpt>
      <trkpt lat="46.17444" lon="-0.23855">
        <ele>52.2</ele>
        <time>2022-04-03T17:27:58Z</time>
      </trkpt>
      <trkpt lat="46.17451" lon="-0.23859">
        <ele>52</ele>
        <time>2022-04-03T17:27:59Z</time>
      </trkpt>
      <trkpt lat="46.17457" lon="-0.23862">
        <ele>51.8</ele>
        <time>2022-04-03T17:28:00Z</time>
      </trkpt>
      <trkpt lat="46.17464" lon="-0.23866">
        <ele>51.4</ele>
        <time>2022-04-03T17:28:01Z</time>
      </trkpt>
      <trkpt lat="46.1747" lon="-0.2387">
        <ele>51</ele>
        <time>2022-04-03T17:28:02Z</time>
      </trkpt>
      <trkpt lat="46.17477" lon="-0.23874">
        <ele>50.6</ele>
        <time>2022-04-03T17:28:03Z</time>
      </trkpt>
      <trkpt lat="46.17483" lon="-0.23877">
        <ele>50.6</ele>
        <time>2022-04-03T17:28:04Z</time>
      </trkpt>
      <trkpt lat="46.1749" lon="-0.23881">
        <ele>50.4</ele>
        <time>2022-04-03T17:28:05Z</time>
      </trkpt>
      <trkpt lat="46.17497" lon="-0.23885">
        <ele>49.6</ele>
        <time>2022-04-03T17:28:06Z</time>
      </trkpt>
      <trkpt lat="46.17504" lon="-0.23889">
        <ele>49.4</ele>
        <time>2022-04-03T17:28:07Z</time>
      </trkpt>
      <trkpt lat="46.1751" lon="-0.23893">
        <ele>49</ele>
        <time>2022-04-03T17:28:08Z</time>
      </trkpt>
      <trkpt lat="46.17517" lon="-0.23897">
        <ele>48.8</ele>
        <time>2022-04-03T17:28:09Z</time>
      </trkpt>
      <trkpt lat="46.17524" lon="-0.239">
        <ele>48.4</ele>
        <time>2022-04-03T17:28:10Z</time>
      </trkpt>
      <trkpt lat="46.17531" lon="-0.23904">
        <ele>48.4</ele>
        <time>2022-04-03T17:28:11Z</time>
      </trkpt>
      <trkpt lat="46.17539" lon="-0.23908">
        <ele>47.8</ele>
        <time>2022-04-03T17:28:12Z</time>
      </trkpt>
      <trkpt lat="46.17546" lon="-0.23912">
        <ele>47.6</ele>
        <time>2022-04-03T17:28:13Z</time>
      </trkpt>
      <trkpt lat="46.17553" lon="-0.23916">
        <ele>47.4</ele>
        <time>2022-04-03T17:28:14Z</time>
      </trkpt>
      <trkpt lat="46.1756" lon="-0.2392">
        <ele>47.4</ele>
        <time>2022-04-03T17:28:15Z</time>
      </trkpt>
      <trkpt lat="46.17567" lon="-0.23924">
        <ele>47.4</ele>
        <time>2022-04-03T17:28:16Z</time>
      </trkpt>
      <trkpt lat="46.17575" lon="-0.23928">
        <ele>47</ele>
        <time>2022-04-03T17:28:17Z</time>
      </trkpt>
      <trkpt lat="46.17582" lon="-0.23932">
        <ele>46.6</ele>
        <time>2022-04-03T17:28:18Z</time>
      </trkpt>
      <trkpt lat="46.17589" lon="-0.23936">
        <ele>46</ele>
        <time>2022-04-03T17:28:19Z</time>
      </trkpt>
      <trkpt lat="46.17597" lon="-0.23941">
        <ele>45.8</ele>
        <time>2022-04-03T17:28:20Z</time>
      </trkpt>
      <trkpt lat="46.17604" lon="-0.23945">
        <ele>45.6</ele>
        <time>2022-04-03T17:28:21Z</time>
      </trkpt>
      <trkpt lat="46.17611" lon="-0.23949">
        <ele>45</ele>
        <time>2022-04-03T17:28:22Z</time>
      </trkpt>
      <trkpt lat="46.17619" lon="-0.23953">
        <ele>44.6</ele>
        <time>2022-04-03T17:28:23Z</time>
      </trkpt>
      <trkpt lat="46.17626" lon="-0.23957">
        <ele>44.4</ele>
        <time>2022-04-03T17:28:24Z</time>
      </trkpt>
      <trkpt lat="46.17633" lon="-0.23961">
        <ele>44</ele>
        <time>2022-04-03T17:28:25Z</time>
      </trkpt>
      <trkpt lat="46.17641" lon="-0.23965">
        <ele>44</ele>
        <time>2022-04-03T17:28:26Z</time>
      </trkpt>
      <trkpt lat="46.17648" lon="-0.23969">
        <ele>43.4</ele>
        <time>2022-04-03T17:28:27Z</time>
      </trkpt>
      <trkpt lat="46.17655" lon="-0.23973">
        <ele>43.4</ele>
        <time>2022-04-03T17:28:28Z</time>
      </trkpt>
      <trkpt lat="46.17662" lon="-0.23977">
        <ele>43</ele>
        <time>2022-04-03T17:28:29Z</time>
      </trkpt>
      <trkpt lat="46.1767" lon="-0.23981">
        <ele>42.6</ele>
        <time>2022-04-03T17:28:30Z</time>
      </trkpt>
      <trkpt lat="46.17677" lon="-0.23985">
        <ele>42.4</ele>
        <time>2022-04-03T17:28:31Z</time>
      </trkpt>
      <trkpt lat="46.17684" lon="-0.23989">
        <ele>42.2</ele>
        <time>2022-04-03T17:28:32Z</time>
      </trkpt>
      <trkpt lat="46.1769" lon="-0.23992">
        <ele>41.8</ele>
        <time>2022-04-03T17:28:33Z</time>
      </trkpt>
      <trkpt lat="46.17697" lon="-0.23996">
        <ele>41.8</ele>
        <time>2022-04-03T17:28:34Z</time>
      </trkpt>
      <trkpt lat="46.17704" lon="-0.24">
        <ele>41.4</ele>
        <time>2022-04-03T17:28:35Z</time>
      </trkpt>
      <trkpt lat="46.1771" lon="-0.24003">
        <ele>41.2</ele>
        <time>2022-04-03T17:28:36Z</time>
      </trkpt>
      <trkpt lat="46.17716" lon="-0.24006">
        <ele>41.2</ele>
        <time>2022-04-03T17:28:37Z</time>
      </trkpt>
      <trkpt lat="46.17723" lon="-0.2401">
        <ele>41</ele>
        <time>2022-04-03T17:28:38Z</time>
      </trkpt>
      <trkpt lat="46.17729" lon="-0.24013">
        <ele>41</ele>
        <time>2022-04-03T17:28:39Z</time>
      </trkpt>
      <trkpt lat="46.17734" lon="-0.24016">
        <ele>40.8</ele>
        <time>2022-04-03T17:28:40Z</time>
      </trkpt>
      <trkpt lat="46.1774" lon="-0.24019">
        <ele>41</ele>
        <time>2022-04-03T17:28:41Z</time>
      </trkpt>
      <trkpt lat="46.17745" lon="-0.24022">
        <ele>41</ele>
        <time>2022-04-03T17:28:42Z</time>
      </trkpt>
      <trkpt lat="46.1775" lon="-0.24024">
        <ele>40.8</ele>
        <time>2022-04-03T17:28:43Z</time>
      </trkpt>
      <trkpt lat="46.17754" lon="-0.24027">
        <ele>41</ele>
        <time>2022-04-03T17:28:44Z</time>
      </trkpt>
      <trkpt lat="46.17758" lon="-0.24029">
        <ele>41</ele>
        <time>2022-04-03T17:28:45Z</time>
      </trkpt>
      <trkpt lat="46.17762" lon="-0.24031">
        <ele>41</ele>
        <time>2022-04-03T17:28:46Z</time>
      </trkpt>
      <trkpt lat="46.17765" lon="-0.24033">
        <ele>41</ele>
        <time>2022-04-03T17:28:47Z</time>
      </trkpt>
      <trkpt lat="46.17768" lon="-0.24034">
        <ele>41</ele>
        <time>2022-04-03T17:28:48Z</time>
      </trkpt>
      <trkpt lat="46.17771" lon="-0.24036">
        <ele>41</ele>
        <time>2022-04-03T17:28:49Z</time>
      </trkpt>
      <trkpt lat="46.17774" lon="-0.24037">
        <ele>41</ele>
        <time>2022-04-03T17:28:50Z</time>
      </trkpt>
      <trkpt lat="46.17776" lon="-0.24038">
        <ele>41.2</ele>
        <time>2022-04-03T17:28:51Z</time>
      </trkpt>
      <trkpt lat="46.17779" lon="-0.24039">
        <ele>41.2</ele>
        <time>2022-04-03T17:28:52Z</time>
      </trkpt>
      <trkpt lat="46.17781" lon="-0.24041">
        <ele>41.4</ele>
        <time>2022-04-03T17:28:53Z</time>
      </trkpt>
      <trkpt lat="46.17784" lon="-0.24042">
        <ele>41.6</ele>
        <time>2022-04-03T17:28:54Z</time>
      </trkpt>
      <trkpt lat="46.17786" lon="-0.24044">
        <ele>41.8</ele>
        <time>2022-04-03T17:28:55Z</time>
      </trkpt>
      <trkpt lat="46.17789" lon="-0.24045">
        <ele>42.2</ele>
        <time>2022-04-03T17:28:56Z</time>
      </trkpt>
      <trkpt lat="46.17791" lon="-0.24046">
        <ele>42.4</ele>
        <time>2022-04-03T17:28:57Z</time>
      </trkpt>
      <trkpt lat="46.17793" lon="-0.24048">
        <ele>42.4</ele>
        <time>2022-04-03T17:28:58Z</time>
      </trkpt>
      <trkpt lat="46.17796" lon="-0.24049">
        <ele>42.6</ele>
        <time>2022-04-03T17:28:59Z</time>
      </trkpt>
      <trkpt lat="46.17798" lon="-0.2405">
        <ele>43</ele>
        <time>2022-04-03T17:29:00Z</time>
      </trkpt>
      <trkpt lat="46.178" lon="-0.24052">
        <ele>43.2</ele>
        <time>2022-04-03T17:29:01Z</time>
      </trkpt>
      <trkpt lat="46.17803" lon="-0.24054">
        <ele>43.6</ele>
        <time>2022-04-03T17:29:02Z</time>
      </trkpt>
      <trkpt lat="46.17805" lon="-0.24055">
        <ele>43.6</ele>
        <time>2022-04-03T17:29:03Z</time>
      </trkpt>
      <trkpt lat="46.17808" lon="-0.24056">
        <ele>43.6</ele>
        <time>2022-04-03T17:29:04Z</time>
      </trkpt>
      <trkpt lat="46.1781" lon="-0.24058">
        <ele>43.6</ele>
        <time>2022-04-03T17:29:05Z</time>
      </trkpt>
      <trkpt lat="46.17813" lon="-0.24059">
        <ele>43.8</ele>
        <time>2022-04-03T17:29:06Z</time>
      </trkpt>
      <trkpt lat="46.17815" lon="-0.2406">
        <ele>43.8</ele>
        <time>2022-04-03T17:29:07Z</time>
      </trkpt>
      <trkpt lat="46.17818" lon="-0.24062">
        <ele>43.8</ele>
        <time>2022-04-03T17:29:08Z</time>
      </trkpt>
      <trkpt lat="46.1782" lon="-0.24063">
        <ele>44</ele>
        <time>2022-04-03T17:29:09Z</time>
      </trkpt>
      <trkpt lat="46.17822" lon="-0.24065">
        <ele>44</ele>
        <time>2022-04-03T17:29:10Z</time>
      </trkpt>
      <trkpt lat="46.17825" lon="-0.24066">
        <ele>44</ele>
        <time>2022-04-03T17:29:11Z</time>
      </trkpt>
      <trkpt lat="46.17827" lon="-0.24068">
        <ele>44</ele>
        <time>2022-04-03T17:29:12Z</time>
      </trkpt>
      <trkpt lat="46.1783" lon="-0.24069">
        <ele>44.4</ele>
        <time>2022-04-03T17:29:13Z</time>
      </trkpt>
      <trkpt lat="46.17832" lon="-0.2407">
        <ele>44.6</ele>
        <time>2022-04-03T17:29:14Z</time>
      </trkpt>
      <trkpt lat="46.17835" lon="-0.24072">
        <ele>44.6</ele>
        <time>2022-04-03T17:29:15Z</time>
      </trkpt>
      <trkpt lat="46.17837" lon="-0.24073">
        <ele>44.8</ele>
        <time>2022-04-03T17:29:16Z</time>
      </trkpt>
      <trkpt lat="46.1784" lon="-0.24074">
        <ele>44.6</ele>
        <time>2022-04-03T17:29:17Z</time>
      </trkpt>
      <trkpt lat="46.17842" lon="-0.24076">
        <ele>45</ele>
        <time>2022-04-03T17:29:18Z</time>
      </trkpt>
      <trkpt lat="46.17844" lon="-0.24077">
        <ele>45.2</ele>
        <time>2022-04-03T17:29:19Z</time>
      </trkpt>
      <trkpt lat="46.17847" lon="-0.24078">
        <ele>45.2</ele>
        <time>2022-04-03T17:29:20Z</time>
      </trkpt>
      <trkpt lat="46.17849" lon="-0.24079">
        <ele>45.4</ele>
        <time>2022-04-03T17:29:21Z</time>
      </trkpt>
      <trkpt lat="46.17852" lon="-0.24081">
        <ele>45.4</ele>
        <time>2022-04-03T17:29:22Z</time>
      </trkpt>
      <trkpt lat="46.17854" lon="-0.24082">
        <ele>45.6</ele>
        <time>2022-04-03T17:29:23Z</time>
      </trkpt>
      <trkpt lat="46.17857" lon="-0.24083">
        <ele>45.6</ele>
        <time>2022-04-03T17:29:24Z</time>
      </trkpt>
      <trkpt lat="46.17859" lon="-0.24085">
        <ele>45.8</ele>
        <time>2022-04-03T17:29:25Z</time>
      </trkpt>
      <trkpt lat="46.17861" lon="-0.24086">
        <ele>45.8</ele>
        <time>2022-04-03T17:29:26Z</time>
      </trkpt>
      <trkpt lat="46.17864" lon="-0.24087">
        <ele>45.8</ele>
        <time>2022-04-03T17:29:27Z</time>
      </trkpt>
      <trkpt lat="46.17866" lon="-0.24088">
        <ele>46</ele>
        <time>2022-04-03T17:29:28Z</time>
      </trkpt>
      <trkpt lat="46.17869" lon="-0.2409">
        <ele>46</ele>
        <time>2022-04-03T17:29:29Z</time>
      </trkpt>
      <trkpt lat="46.17871" lon="-0.24091">
        <ele>46</ele>
        <time>2022-04-03T17:29:30Z</time>
      </trkpt>
      <trkpt lat="46.17874" lon="-0.24093">
        <ele>46</ele>
        <time>2022-04-03T17:29:31Z</time>
      </trkpt>
      <trkpt lat="46.17876" lon="-0.24094">
        <ele>46</ele>
        <time>2022-04-03T17:29:32Z</time>
      </trkpt>
      <trkpt lat="46.17878" lon="-0.24096">
        <ele>46.2</ele>
        <time>2022-04-03T17:29:33Z</time>
      </trkpt>
      <trkpt lat="46.1788" lon="-0.24097">
        <ele>46.4</ele>
        <time>2022-04-03T17:29:34Z</time>
      </trkpt>
      <trkpt lat="46.17883" lon="-0.24098">
        <ele>46.4</ele>
        <time>2022-04-03T17:29:35Z</time>
      </trkpt>
      <trkpt lat="46.17885" lon="-0.24099">
        <ele>46.4</ele>
        <time>2022-04-03T17:29:36Z</time>
      </trkpt>
      <trkpt lat="46.17887" lon="-0.241">
        <ele>46.4</ele>
        <time>2022-04-03T17:29:37Z</time>
      </trkpt>
      <trkpt lat="46.1789" lon="-0.24101">
        <ele>46.8</ele>
        <time>2022-04-03T17:29:38Z</time>
      </trkpt>
      <trkpt lat="46.17892" lon="-0.24103">
        <ele>47</ele>
        <time>2022-04-03T17:29:39Z</time>
      </trkpt>
      <trkpt lat="46.17894" lon="-0.24104">
        <ele>47</ele>
        <time>2022-04-03T17:29:40Z</time>
      </trkpt>
      <trkpt lat="46.17897" lon="-0.24105">
        <ele>47</ele>
        <time>2022-04-03T17:29:41Z</time>
      </trkpt>
      <trkpt lat="46.17899" lon="-0.24106">
        <ele>47.2</ele>
        <time>2022-04-03T17:29:42Z</time>
      </trkpt>
      <trkpt lat="46.17901" lon="-0.24108">
        <ele>47.4</ele>
        <time>2022-04-03T17:29:43Z</time>
      </trkpt>
      <trkpt lat="46.17904" lon="-0.24109">
        <ele>47.6</ele>
        <time>2022-04-03T17:29:44Z</time>
      </trkpt>
      <trkpt lat="46.17906" lon="-0.24111">
        <ele>47.8</ele>
        <time>2022-04-03T17:29:45Z</time>
      </trkpt>
      <trkpt lat="46.17909" lon="-0.24112">
        <ele>47.8</ele>
        <time>2022-04-03T17:29:46Z</time>
      </trkpt>
      <trkpt lat="46.17911" lon="-0.24113">
        <ele>47.8</ele>
        <time>2022-04-03T17:29:47Z</time>
      </trkpt>
      <trkpt lat="46.17914" lon="-0.24115">
        <ele>48</ele>
        <time>2022-04-03T17:29:48Z</time>
      </trkpt>
      <trkpt lat="46.17917" lon="-0.24116">
        <ele>48</ele>
        <time>2022-04-03T17:29:49Z</time>
      </trkpt>
      <trkpt lat="46.17919" lon="-0.24117">
        <ele>48</ele>
        <time>2022-04-03T17:29:50Z</time>
      </trkpt>
      <trkpt lat="46.17922" lon="-0.24119">
        <ele>48</ele>
        <time>2022-04-03T17:29:51Z</time>
      </trkpt>
      <trkpt lat="46.17924" lon="-0.2412">
        <ele>48.4</ele>
        <time>2022-04-03T17:29:52Z</time>
      </trkpt>
      <trkpt lat="46.17927" lon="-0.24122">
        <ele>48.8</ele>
        <time>2022-04-03T17:29:53Z</time>
      </trkpt>
      <trkpt lat="46.17929" lon="-0.24123">
        <ele>49</ele>
        <time>2022-04-03T17:29:54Z</time>
      </trkpt>
      <trkpt lat="46.17932" lon="-0.24124">
        <ele>49</ele>
        <time>2022-04-03T17:29:55Z</time>
      </trkpt>
      <trkpt lat="46.17934" lon="-0.24126">
        <ele>49.2</ele>
        <time>2022-04-03T17:29:56Z</time>
      </trkpt>
      <trkpt lat="46.17937" lon="-0.24127">
        <ele>49.2</ele>
        <time>2022-04-03T17:29:57Z</time>
      </trkpt>
      <trkpt lat="46.17939" lon="-0.24129">
        <ele>49.4</ele>
        <time>2022-04-03T17:29:58Z</time>
      </trkpt>
      <trkpt lat="46.17942" lon="-0.2413">
        <ele>49.4</ele>
        <time>2022-04-03T17:29:59Z</time>
      </trkpt>
      <trkpt lat="46.17944" lon="-0.24131">
        <ele>49.4</ele>
        <time>2022-04-03T17:30:00Z</time>
      </trkpt>
      <trkpt lat="46.17947" lon="-0.24133">
        <ele>49.6</ele>
        <time>2022-04-03T17:30:01Z</time>
      </trkpt>
      <trkpt lat="46.17949" lon="-0.24134">
        <ele>49.8</ele>
        <time>2022-04-03T17:30:02Z</time>
      </trkpt>
      <trkpt lat="46.17952" lon="-0.24135">
        <ele>49.8</ele>
        <time>2022-04-03T17:30:03Z</time>
      </trkpt>
      <trkpt lat="46.17954" lon="-0.24137">
        <ele>50</ele>
        <time>2022-04-03T17:30:04Z</time>
      </trkpt>
      <trkpt lat="46.17957" lon="-0.24138">
        <ele>50</ele>
        <time>2022-04-03T17:30:05Z</time>
      </trkpt>
      <trkpt lat="46.17959" lon="-0.24139">
        <ele>50.2</ele>
        <time>2022-04-03T17:30:06Z</time>
      </trkpt>
      <trkpt lat="46.17962" lon="-0.24141">
        <ele>50.2</ele>
        <time>2022-04-03T17:30:07Z</time>
      </trkpt>
      <trkpt lat="46.17964" lon="-0.24142">
        <ele>50.2</ele>
        <time>2022-04-03T17:30:08Z</time>
      </trkpt>
      <trkpt lat="46.17967" lon="-0.24143">
        <ele>50.2</ele>
        <time>2022-04-03T17:30:09Z</time>
      </trkpt>
      <trkpt lat="46.17969" lon="-0.24145">
        <ele>50.2</ele>
        <time>2022-04-03T17:30:10Z</time>
      </trkpt>
      <trkpt lat="46.17972" lon="-0.24146">
        <ele>50.4</ele>
        <time>2022-04-03T17:30:11Z</time>
      </trkpt>
      <trkpt lat="46.17974" lon="-0.24147">
        <ele>50.4</ele>
        <time>2022-04-03T17:30:12Z</time>
      </trkpt>
      <trkpt lat="46.17977" lon="-0.24149">
        <ele>50.4</ele>
        <time>2022-04-03T17:30:13Z</time>
      </trkpt>
      <trkpt lat="46.17979" lon="-0.2415">
        <ele>50.4</ele>
        <time>2022-04-03T17:30:14Z</time>
      </trkpt>
      <trkpt lat="46.17982" lon="-0.24152">
        <ele>50.8</ele>
        <time>2022-04-03T17:30:15Z</time>
      </trkpt>
      <trkpt lat="46.17984" lon="-0.24153">
        <ele>51</ele>
        <time>2022-04-03T17:30:16Z</time>
      </trkpt>
      <trkpt lat="46.17987" lon="-0.24155">
        <ele>51</ele>
        <time>2022-04-03T17:30:17Z</time>
      </trkpt>
      <trkpt lat="46.17989" lon="-0.24156">
        <ele>51.2</ele>
        <time>2022-04-03T17:30:18Z</time>
      </trkpt>
      <trkpt lat="46.17992" lon="-0.24158">
        <ele>51.4</ele>
        <time>2022-04-03T17:30:19Z</time>
      </trkpt>
      <trkpt lat="46.17994" lon="-0.2416">
        <ele>51.6</ele>
        <time>2022-04-03T17:30:20Z</time>
      </trkpt>
      <trkpt lat="46.17997" lon="-0.24161">
        <ele>51.8</ele>
        <time>2022-04-03T17:30:21Z</time>
      </trkpt>
      <trkpt lat="46.17999" lon="-0.24163">
        <ele>52</ele>
        <time>2022-04-03T17:30:22Z</time>
      </trkpt>
      <trkpt lat="46.18002" lon="-0.24165">
        <ele>52.2</ele>
        <time>2022-04-03T17:30:23Z</time>
      </trkpt>
      <trkpt lat="46.18004" lon="-0.24167">
        <ele>52.4</ele>
        <time>2022-04-03T17:30:24Z</time>
      </trkpt>
      <trkpt lat="46.18007" lon="-0.24169">
        <ele>52.4</ele>
        <time>2022-04-03T17:30:25Z</time>
      </trkpt>
      <trkpt lat="46.18009" lon="-0.24171">
        <ele>52.6</ele>
        <time>2022-04-03T17:30:26Z</time>
      </trkpt>
      <trkpt lat="46.18011" lon="-0.24173">
        <ele>52.6</ele>
        <time>2022-04-03T17:30:27Z</time>
      </trkpt>
      <trkpt lat="46.18014" lon="-0.24175">
        <ele>52.6</ele>
        <time>2022-04-03T17:30:28Z</time>
      </trkpt>
      <trkpt lat="46.18016" lon="-0.24177">
        <ele>52.8</ele>
        <time>2022-04-03T17:30:29Z</time>
      </trkpt>
      <trkpt lat="46.18018" lon="-0.2418">
        <ele>52.8</ele>
        <time>2022-04-03T17:30:30Z</time>
      </trkpt>
      <trkpt lat="46.1802" lon="-0.24182">
        <ele>52.8</ele>
        <time>2022-04-03T17:30:31Z</time>
      </trkpt>
      <trkpt lat="46.18023" lon="-0.24185">
        <ele>53</ele>
        <time>2022-04-03T17:30:32Z</time>
      </trkpt>
      <trkpt lat="46.18025" lon="-0.24188">
        <ele>52.8</ele>
        <time>2022-04-03T17:30:33Z</time>
      </trkpt>
      <trkpt lat="46.18027" lon="-0.24191">
        <ele>52.8</ele>
        <time>2022-04-03T17:30:34Z</time>
      </trkpt>
      <trkpt lat="46.18029" lon="-0.24194">
        <ele>53</ele>
        <time>2022-04-03T17:30:35Z</time>
      </trkpt>
      <trkpt lat="46.18031" lon="-0.24197">
        <ele>53.2</ele>
        <time>2022-04-03T17:30:36Z</time>
      </trkpt>
      <trkpt lat="46.18033" lon="-0.24201">
        <ele>53.2</ele>
        <time>2022-04-03T17:30:37Z</time>
      </trkpt>
      <trkpt lat="46.18035" lon="-0.24204">
        <ele>53.4</ele>
        <time>2022-04-03T17:30:38Z</time>
      </trkpt>
      <trkpt lat="46.18037" lon="-0.24208">
        <ele>53.4</ele>
        <time>2022-04-03T17:30:39Z</time>
      </trkpt>
      <trkpt lat="46.18039" lon="-0.24211">
        <ele>53.6</ele>
        <time>2022-04-03T17:30:40Z</time>
      </trkpt>
      <trkpt lat="46.18041" lon="-0.24215">
        <ele>54.2</ele>
        <time>2022-04-03T17:30:41Z</time>
      </trkpt>
      <trkpt lat="46.18043" lon="-0.24219">
        <ele>54.4</ele>
        <time>2022-04-03T17:30:42Z</time>
      </trkpt>
      <trkpt lat="46.18044" lon="-0.24223">
        <ele>54.4</ele>
        <time>2022-04-03T17:30:43Z</time>
      </trkpt>
      <trkpt lat="46.18046" lon="-0.24227">
        <ele>54.6</ele>
        <time>2022-04-03T17:30:44Z</time>
      </trkpt>
      <trkpt lat="46.18048" lon="-0.24231">
        <ele>54.6</ele>
        <time>2022-04-03T17:30:45Z</time>
      </trkpt>
      <trkpt lat="46.18049" lon="-0.24235">
        <ele>54.6</ele>
        <time>2022-04-03T17:30:46Z</time>
      </trkpt>
      <trkpt lat="46.18051" lon="-0.2424">
        <ele>54.6</ele>
        <time>2022-04-03T17:30:47Z</time>
      </trkpt>
      <trkpt lat="46.18052" lon="-0.24244">
        <ele>54.8</ele>
        <time>2022-04-03T17:30:48Z</time>
      </trkpt>
      <trkpt lat="46.18053" lon="-0.24249">
        <ele>54.8</ele>
        <time>2022-04-03T17:30:49Z</time>
      </trkpt>
      <trkpt lat="46.18055" lon="-0.24253">
        <ele>54.8</ele>
        <time>2022-04-03T17:30:50Z</time>
      </trkpt>
      <trkpt lat="46.18056" lon="-0.24258">
        <ele>55</ele>
        <time>2022-04-03T17:30:51Z</time>
      </trkpt>
      <trkpt lat="46.18058" lon="-0.24262">
        <ele>55.2</ele>
        <time>2022-04-03T17:30:52Z</time>
      </trkpt>
      <trkpt lat="46.18059" lon="-0.24267">
        <ele>55.2</ele>
        <time>2022-04-03T17:30:53Z</time>
      </trkpt>
      <trkpt lat="46.1806" lon="-0.24272">
        <ele>55</ele>
        <time>2022-04-03T17:30:54Z</time>
      </trkpt>
      <trkpt lat="46.18061" lon="-0.24277">
        <ele>55.2</ele>
        <time>2022-04-03T17:30:55Z</time>
      </trkpt>
      <trkpt lat="46.18062" lon="-0.24282">
        <ele>55.2</ele>
        <time>2022-04-03T17:30:56Z</time>
      </trkpt>
      <trkpt lat="46.18063" lon="-0.24287">
        <ele>55.4</ele>
        <time>2022-04-03T17:30:57Z</time>
      </trkpt>
      <trkpt lat="46.18064" lon="-0.24293">
        <ele>55.4</ele>
        <time>2022-04-03T17:30:58Z</time>
      </trkpt>
      <trkpt lat="46.18065" lon="-0.24298">
        <ele>55.4</ele>
        <time>2022-04-03T17:30:59Z</time>
      </trkpt>
      <trkpt lat="46.18067" lon="-0.24304">
        <ele>55.4</ele>
        <time>2022-04-03T17:31:00Z</time>
      </trkpt>
      <trkpt lat="46.18068" lon="-0.2431">
        <ele>55.4</ele>
        <time>2022-04-03T17:31:01Z</time>
      </trkpt>
      <trkpt lat="46.18069" lon="-0.24316">
        <ele>55.4</ele>
        <time>2022-04-03T17:31:02Z</time>
      </trkpt>
      <trkpt lat="46.1807" lon="-0.24322">
        <ele>55.4</ele>
        <time>2022-04-03T17:31:03Z</time>
      </trkpt>
      <trkpt lat="46.18071" lon="-0.24328">
        <ele>55.4</ele>
        <time>2022-04-03T17:31:04Z</time>
      </trkpt>
      <trkpt lat="46.18072" lon="-0.24334">
        <ele>55.4</ele>
        <time>2022-04-03T17:31:05Z</time>
      </trkpt>
      <trkpt lat="46.18073" lon="-0.2434">
        <ele>55.4</ele>
        <time>2022-04-03T17:31:06Z</time>
      </trkpt>
      <trkpt lat="46.18074" lon="-0.24346">
        <ele>55.4</ele>
        <time>2022-04-03T17:31:07Z</time>
      </trkpt>
      <trkpt lat="46.18075" lon="-0.24353">
        <ele>55.4</ele>
        <time>2022-04-03T17:31:08Z</time>
      </trkpt>
      <trkpt lat="46.18076" lon="-0.24359">
        <ele>55.4</ele>
        <time>2022-04-03T17:31:09Z</time>
      </trkpt>
      <trkpt lat="46.18077" lon="-0.24365">
        <ele>55.4</ele>
        <time>2022-04-03T17:31:10Z</time>
      </trkpt>
      <trkpt lat="46.18079" lon="-0.24371">
        <ele>55.4</ele>
        <time>2022-04-03T17:31:11Z</time>
      </trkpt>
      <trkpt lat="46.1808" lon="-0.24377">
        <ele>55.6</ele>
        <time>2022-04-03T17:31:12Z</time>
      </trkpt>
      <trkpt lat="46.18081" lon="-0.24384">
        <ele>55.4</ele>
        <time>2022-04-03T17:31:13Z</time>
      </trkpt>
      <trkpt lat="46.18083" lon="-0.2439">
        <ele>55.4</ele>
        <time>2022-04-03T17:31:14Z</time>
      </trkpt>
      <trkpt lat="46.18084" lon="-0.24397">
        <ele>55.6</ele>
        <time>2022-04-03T17:31:15Z</time>
      </trkpt>
      <trkpt lat="46.18085" lon="-0.24403">
        <ele>55.4</ele>
        <time>2022-04-03T17:31:16Z</time>
      </trkpt>
      <trkpt lat="46.18087" lon="-0.2441">
        <ele>55.4</ele>
        <time>2022-04-03T17:31:17Z</time>
      </trkpt>
      <trkpt lat="46.18088" lon="-0.24417">
        <ele>55.6</ele>
        <time>2022-04-03T17:31:18Z</time>
      </trkpt>
      <trkpt lat="46.1809" lon="-0.24423">
        <ele>55.4</ele>
        <time>2022-04-03T17:31:19Z</time>
      </trkpt>
      <trkpt lat="46.18091" lon="-0.2443">
        <ele>55.4</ele>
        <time>2022-04-03T17:31:20Z</time>
      </trkpt>
      <trkpt lat="46.18093" lon="-0.24437">
        <ele>55.4</ele>
        <time>2022-04-03T17:31:21Z</time>
      </trkpt>
      <trkpt lat="46.18094" lon="-0.24443">
        <ele>55.6</ele>
        <time>2022-04-03T17:31:22Z</time>
      </trkpt>
      <trkpt lat="46.18096" lon="-0.2445">
        <ele>55.4</ele>
        <time>2022-04-03T17:31:23Z</time>
      </trkpt>
      <trkpt lat="46.18097" lon="-0.24457">
        <ele>55.6</ele>
        <time>2022-04-03T17:31:24Z</time>
      </trkpt>
      <trkpt lat="46.18099" lon="-0.24464">
        <ele>55.6</ele>
        <time>2022-04-03T17:31:25Z</time>
      </trkpt>
      <trkpt lat="46.18101" lon="-0.2447">
        <ele>55.4</ele>
        <time>2022-04-03T17:31:26Z</time>
      </trkpt>
      <trkpt lat="46.18102" lon="-0.24477">
        <ele>55.6</ele>
        <time>2022-04-03T17:31:27Z</time>
      </trkpt>
      <trkpt lat="46.18104" lon="-0.24484">
        <ele>55.6</ele>
        <time>2022-04-03T17:31:28Z</time>
      </trkpt>
      <trkpt lat="46.18106" lon="-0.24491">
        <ele>55.4</ele>
        <time>2022-04-03T17:31:29Z</time>
      </trkpt>
      <trkpt lat="46.18108" lon="-0.24498">
        <ele>55.4</ele>
        <time>2022-04-03T17:31:30Z</time>
      </trkpt>
      <trkpt lat="46.1811" lon="-0.24504">
        <ele>55.6</ele>
        <time>2022-04-03T17:31:31Z</time>
      </trkpt>
      <trkpt lat="46.18112" lon="-0.24511">
        <ele>55.6</ele>
        <time>2022-04-03T17:31:32Z</time>
      </trkpt>
      <trkpt lat="46.18114" lon="-0.24518">
        <ele>55.6</ele>
        <time>2022-04-03T17:31:33Z</time>
      </trkpt>
      <trkpt lat="46.18115" lon="-0.24525">
        <ele>55.6</ele>
        <time>2022-04-03T17:31:34Z</time>
      </trkpt>
      <trkpt lat="46.18117" lon="-0.24532">
        <ele>55.6</ele>
        <time>2022-04-03T17:31:35Z</time>
      </trkpt>
      <trkpt lat="46.18119" lon="-0.24539">
        <ele>55.6</ele>
        <time>2022-04-03T17:31:36Z</time>
      </trkpt>
      <trkpt lat="46.18121" lon="-0.24545">
        <ele>55.6</ele>
        <time>2022-04-03T17:31:37Z</time>
      </trkpt>
      <trkpt lat="46.18123" lon="-0.24552">
        <ele>55.8</ele>
        <time>2022-04-03T17:31:38Z</time>
      </trkpt>
      <trkpt lat="46.18125" lon="-0.24559">
        <ele>55.8</ele>
        <time>2022-04-03T17:31:39Z</time>
      </trkpt>
      <trkpt lat="46.18127" lon="-0.24566">
        <ele>55.8</ele>
        <time>2022-04-03T17:31:40Z</time>
      </trkpt>
      <trkpt lat="46.1813" lon="-0.24572">
        <ele>55.8</ele>
        <time>2022-04-03T17:31:41Z</time>
      </trkpt>
      <trkpt lat="46.18132" lon="-0.24579">
        <ele>55.8</ele>
        <time>2022-04-03T17:31:42Z</time>
      </trkpt>
      <trkpt lat="46.18134" lon="-0.24586">
        <ele>56</ele>
        <time>2022-04-03T17:31:43Z</time>
      </trkpt>
      <trkpt lat="46.18137" lon="-0.24593">
        <ele>56</ele>
        <time>2022-04-03T17:31:44Z</time>
      </trkpt>
      <trkpt lat="46.18139" lon="-0.246">
        <ele>55.8</ele>
        <time>2022-04-03T17:31:45Z</time>
      </trkpt>
      <trkpt lat="46.18141" lon="-0.24607">
        <ele>56</ele>
        <time>2022-04-03T17:31:46Z</time>
      </trkpt>
      <trkpt lat="46.18143" lon="-0.24613">
        <ele>55.8</ele>
        <time>2022-04-03T17:31:47Z</time>
      </trkpt>
      <trkpt lat="46.18145" lon="-0.2462">
        <ele>55.8</ele>
        <time>2022-04-03T17:31:48Z</time>
      </trkpt>
      <trkpt lat="46.18148" lon="-0.24627">
        <ele>56</ele>
        <time>2022-04-03T17:31:49Z</time>
      </trkpt>
      <trkpt lat="46.1815" lon="-0.24634">
        <ele>55.8</ele>
        <time>2022-04-03T17:31:50Z</time>
      </trkpt>
      <trkpt lat="46.18153" lon="-0.2464">
        <ele>56</ele>
        <time>2022-04-03T17:31:51Z</time>
      </trkpt>
      <trkpt lat="46.18156" lon="-0.24647">
        <ele>56</ele>
        <time>2022-04-03T17:31:52Z</time>
      </trkpt>
      <trkpt lat="46.18158" lon="-0.24653">
        <ele>56</ele>
        <time>2022-04-03T17:31:53Z</time>
      </trkpt>
      <trkpt lat="46.18161" lon="-0.2466">
        <ele>56</ele>
        <time>2022-04-03T17:31:54Z</time>
      </trkpt>
      <trkpt lat="46.18163" lon="-0.24666">
        <ele>56</ele>
        <time>2022-04-03T17:31:55Z</time>
      </trkpt>
      <trkpt lat="46.18166" lon="-0.24673">
        <ele>56</ele>
        <time>2022-04-03T17:31:56Z</time>
      </trkpt>
      <trkpt lat="46.18168" lon="-0.2468">
        <ele>56.2</ele>
        <time>2022-04-03T17:31:57Z</time>
      </trkpt>
      <trkpt lat="46.18171" lon="-0.24686">
        <ele>56</ele>
        <time>2022-04-03T17:31:58Z</time>
      </trkpt>
      <trkpt lat="46.18173" lon="-0.24693">
        <ele>56</ele>
        <time>2022-04-03T17:31:59Z</time>
      </trkpt>
      <trkpt lat="46.18176" lon="-0.24699">
        <ele>56.2</ele>
        <time>2022-04-03T17:32:00Z</time>
      </trkpt>
      <trkpt lat="46.18178" lon="-0.24706">
        <ele>56.4</ele>
        <time>2022-04-03T17:32:01Z</time>
      </trkpt>
      <trkpt lat="46.18181" lon="-0.24712">
        <ele>56.6</ele>
        <time>2022-04-03T17:32:02Z</time>
      </trkpt>
      <trkpt lat="46.18183" lon="-0.24719">
        <ele>56.6</ele>
        <time>2022-04-03T17:32:03Z</time>
      </trkpt>
      <trkpt lat="46.18186" lon="-0.24726">
        <ele>56.6</ele>
        <time>2022-04-03T17:32:04Z</time>
      </trkpt>
      <trkpt lat="46.18188" lon="-0.24732">
        <ele>56.6</ele>
        <time>2022-04-03T17:32:05Z</time>
      </trkpt>
      <trkpt lat="46.18191" lon="-0.24739">
        <ele>56.6</ele>
        <time>2022-04-03T17:32:06Z</time>
      </trkpt>
      <trkpt lat="46.18194" lon="-0.24746">
        <ele>56.6</ele>
        <time>2022-04-03T17:32:07Z</time>
      </trkpt>
      <trkpt lat="46.18196" lon="-0.24752">
        <ele>56.8</ele>
        <time>2022-04-03T17:32:08Z</time>
      </trkpt>
      <trkpt lat="46.18199" lon="-0.24759">
        <ele>56.8</ele>
        <time>2022-04-03T17:32:09Z</time>
      </trkpt>
      <trkpt lat="46.18202" lon="-0.24766">
        <ele>57</ele>
        <time>2022-04-03T17:32:10Z</time>
      </trkpt>
      <trkpt lat="46.18205" lon="-0.24773">
        <ele>56.8</ele>
        <time>2022-04-03T17:32:11Z</time>
      </trkpt>
      <trkpt lat="46.18207" lon="-0.2478">
        <ele>56.8</ele>
        <time>2022-04-03T17:32:12Z</time>
      </trkpt>
      <trkpt lat="46.1821" lon="-0.24787">
        <ele>56.8</ele>
        <time>2022-04-03T17:32:13Z</time>
      </trkpt>
      <trkpt lat="46.18213" lon="-0.24794">
        <ele>56.8</ele>
        <time>2022-04-03T17:32:14Z</time>
      </trkpt>
      <trkpt lat="46.18216" lon="-0.24801">
        <ele>56.8</ele>
        <time>2022-04-03T17:32:15Z</time>
      </trkpt>
      <trkpt lat="46.18219" lon="-0.24808">
        <ele>56.8</ele>
        <time>2022-04-03T17:32:16Z</time>
      </trkpt>
      <trkpt lat="46.18222" lon="-0.24815">
        <ele>56.8</ele>
        <time>2022-04-03T17:32:17Z</time>
      </trkpt>
      <trkpt lat="46.18225" lon="-0.24822">
        <ele>56.8</ele>
        <time>2022-04-03T17:32:18Z</time>
      </trkpt>
      <trkpt lat="46.18227" lon="-0.2483">
        <ele>56.8</ele>
        <time>2022-04-03T17:32:19Z</time>
      </trkpt>
      <trkpt lat="46.1823" lon="-0.24837">
        <ele>56.6</ele>
        <time>2022-04-03T17:32:20Z</time>
      </trkpt>
      <trkpt lat="46.18234" lon="-0.24843">
        <ele>56.6</ele>
        <time>2022-04-03T17:32:21Z</time>
      </trkpt>
      <trkpt lat="46.18237" lon="-0.2485">
        <ele>56.6</ele>
        <time>2022-04-03T17:32:22Z</time>
      </trkpt>
      <trkpt lat="46.1824" lon="-0.24857">
        <ele>56.8</ele>
        <time>2022-04-03T17:32:23Z</time>
      </trkpt>
      <trkpt lat="46.18243" lon="-0.24863">
        <ele>56.6</ele>
        <time>2022-04-03T17:32:24Z</time>
      </trkpt>
      <trkpt lat="46.18247" lon="-0.2487">
        <ele>56.6</ele>
        <time>2022-04-03T17:32:25Z</time>
      </trkpt>
      <trkpt lat="46.1825" lon="-0.24877">
        <ele>56.6</ele>
        <time>2022-04-03T17:32:26Z</time>
      </trkpt>
      <trkpt lat="46.18254" lon="-0.24883">
        <ele>56.6</ele>
        <time>2022-04-03T17:32:27Z</time>
      </trkpt>
      <trkpt lat="46.18257" lon="-0.2489">
        <ele>56.4</ele>
        <time>2022-04-03T17:32:28Z</time>
      </trkpt>
      <trkpt lat="46.18261" lon="-0.24896">
        <ele>56.4</ele>
        <time>2022-04-03T17:32:29Z</time>
      </trkpt>
      <trkpt lat="46.18264" lon="-0.24902">
        <ele>56.2</ele>
        <time>2022-04-03T17:32:30Z</time>
      </trkpt>
      <trkpt lat="46.18268" lon="-0.24909">
        <ele>56.2</ele>
        <time>2022-04-03T17:32:31Z</time>
      </trkpt>
      <trkpt lat="46.18272" lon="-0.24915">
        <ele>56.2</ele>
        <time>2022-04-03T17:32:32Z</time>
      </trkpt>
      <trkpt lat="46.18275" lon="-0.24921">
        <ele>56.4</ele>
        <time>2022-04-03T17:32:33Z</time>
      </trkpt>
      <trkpt lat="46.18279" lon="-0.24928">
        <ele>56.2</ele>
        <time>2022-04-03T17:32:34Z</time>
      </trkpt>
      <trkpt lat="46.18282" lon="-0.24934">
        <ele>56.2</ele>
        <time>2022-04-03T17:32:35Z</time>
      </trkpt>
      <trkpt lat="46.18286" lon="-0.24941">
        <ele>56.2</ele>
        <time>2022-04-03T17:32:36Z</time>
      </trkpt>
      <trkpt lat="46.1829" lon="-0.24947">
        <ele>56.2</ele>
        <time>2022-04-03T17:32:37Z</time>
      </trkpt>
      <trkpt lat="46.18294" lon="-0.24953">
        <ele>56</ele>
        <time>2022-04-03T17:32:38Z</time>
      </trkpt>
      <trkpt lat="46.18298" lon="-0.24959">
        <ele>56.2</ele>
        <time>2022-04-03T17:32:39Z</time>
      </trkpt>
      <trkpt lat="46.18301" lon="-0.24965">
        <ele>56.4</ele>
        <time>2022-04-03T17:32:40Z</time>
      </trkpt>
      <trkpt lat="46.18305" lon="-0.24972">
        <ele>56.4</ele>
        <time>2022-04-03T17:32:41Z</time>
      </trkpt>
      <trkpt lat="46.18309" lon="-0.24978">
        <ele>56.4</ele>
        <time>2022-04-03T17:32:42Z</time>
      </trkpt>
      <trkpt lat="46.18313" lon="-0.24985">
        <ele>56.4</ele>
        <time>2022-04-03T17:32:43Z</time>
      </trkpt>
      <trkpt lat="46.18317" lon="-0.24991">
        <ele>56.4</ele>
        <time>2022-04-03T17:32:44Z</time>
      </trkpt>
      <trkpt lat="46.18321" lon="-0.24997">
        <ele>56.4</ele>
        <time>2022-04-03T17:32:45Z</time>
      </trkpt>
      <trkpt lat="46.18325" lon="-0.25003">
        <ele>56.4</ele>
        <time>2022-04-03T17:32:46Z</time>
      </trkpt>
      <trkpt lat="46.18328" lon="-0.25009">
        <ele>56.4</ele>
        <time>2022-04-03T17:32:47Z</time>
      </trkpt>
      <trkpt lat="46.18332" lon="-0.25016">
        <ele>56.2</ele>
        <time>2022-04-03T17:32:48Z</time>
      </trkpt>
      <trkpt lat="46.18336" lon="-0.25022">
        <ele>56.2</ele>
        <time>2022-04-03T17:32:49Z</time>
      </trkpt>
      <trkpt lat="46.1834" lon="-0.25029">
        <ele>56.2</ele>
        <time>2022-04-03T17:32:50Z</time>
      </trkpt>
      <trkpt lat="46.18344" lon="-0.25035">
        <ele>56.4</ele>
        <time>2022-04-03T17:32:51Z</time>
      </trkpt>
      <trkpt lat="46.18348" lon="-0.25042">
        <ele>56.2</ele>
        <time>2022-04-03T17:32:52Z</time>
      </trkpt>
      <trkpt lat="46.18352" lon="-0.25049">
        <ele>56.4</ele>
        <time>2022-04-03T17:32:53Z</time>
      </trkpt>
      <trkpt lat="46.18356" lon="-0.25055">
        <ele>56.2</ele>
        <time>2022-04-03T17:32:54Z</time>
      </trkpt>
      <trkpt lat="46.18361" lon="-0.25062">
        <ele>56</ele>
        <time>2022-04-03T17:32:55Z</time>
      </trkpt>
      <trkpt lat="46.18365" lon="-0.25069">
        <ele>56</ele>
        <time>2022-04-03T17:32:56Z</time>
      </trkpt>
      <trkpt lat="46.1837" lon="-0.25076">
        <ele>56</ele>
        <time>2022-04-03T17:32:57Z</time>
      </trkpt>
      <trkpt lat="46.18374" lon="-0.25083">
        <ele>56</ele>
        <time>2022-04-03T17:32:58Z</time>
      </trkpt>
      <trkpt lat="46.18379" lon="-0.2509">
        <ele>56</ele>
        <time>2022-04-03T17:32:59Z</time>
      </trkpt>
      <trkpt lat="46.18383" lon="-0.25097">
        <ele>55.8</ele>
        <time>2022-04-03T17:33:00Z</time>
      </trkpt>
      <trkpt lat="46.18388" lon="-0.25105">
        <ele>55.8</ele>
        <time>2022-04-03T17:33:01Z</time>
      </trkpt>
      <trkpt lat="46.18392" lon="-0.25112">
        <ele>56</ele>
        <time>2022-04-03T17:33:02Z</time>
      </trkpt>
      <trkpt lat="46.18397" lon="-0.25119">
        <ele>55.8</ele>
        <time>2022-04-03T17:33:03Z</time>
      </trkpt>
      <trkpt lat="46.18401" lon="-0.25127">
        <ele>55.6</ele>
        <time>2022-04-03T17:33:04Z</time>
      </trkpt>
      <trkpt lat="46.18405" lon="-0.25134">
        <ele>55.6</ele>
        <time>2022-04-03T17:33:05Z</time>
      </trkpt>
      <trkpt lat="46.18409" lon="-0.25141">
        <ele>55</ele>
        <time>2022-04-03T17:33:06Z</time>
      </trkpt>
      <trkpt lat="46.18413" lon="-0.25148">
        <ele>54.8</ele>
        <time>2022-04-03T17:33:07Z</time>
      </trkpt>
      <trkpt lat="46.18417" lon="-0.25154">
        <ele>54.8</ele>
        <time>2022-04-03T17:33:08Z</time>
      </trkpt>
      <trkpt lat="46.18421" lon="-0.25161">
        <ele>54.6</ele>
        <time>2022-04-03T17:33:09Z</time>
      </trkpt>
      <trkpt lat="46.18425" lon="-0.25167">
        <ele>54.4</ele>
        <time>2022-04-03T17:33:10Z</time>
      </trkpt>
      <trkpt lat="46.18429" lon="-0.25174">
        <ele>54.2</ele>
        <time>2022-04-03T17:33:11Z</time>
      </trkpt>
      <trkpt lat="46.18433" lon="-0.2518">
        <ele>53.8</ele>
        <time>2022-04-03T17:33:12Z</time>
      </trkpt>
      <trkpt lat="46.18437" lon="-0.25186">
        <ele>53.8</ele>
        <time>2022-04-03T17:33:13Z</time>
      </trkpt>
      <trkpt lat="46.18441" lon="-0.25191">
        <ele>53.8</ele>
        <time>2022-04-03T17:33:14Z</time>
      </trkpt>
      <trkpt lat="46.18445" lon="-0.25197">
        <ele>53.6</ele>
        <time>2022-04-03T17:33:15Z</time>
      </trkpt>
      <trkpt lat="46.18449" lon="-0.25203">
        <ele>53.4</ele>
        <time>2022-04-03T17:33:16Z</time>
      </trkpt>
      <trkpt lat="46.18453" lon="-0.25209">
        <ele>53.2</ele>
        <time>2022-04-03T17:33:17Z</time>
      </trkpt>
      <trkpt lat="46.18457" lon="-0.25215">
        <ele>53.2</ele>
        <time>2022-04-03T17:33:18Z</time>
      </trkpt>
      <trkpt lat="46.18461" lon="-0.2522">
        <ele>53.2</ele>
        <time>2022-04-03T17:33:19Z</time>
      </trkpt>
      <trkpt lat="46.18465" lon="-0.25225">
        <ele>53.2</ele>
        <time>2022-04-03T17:33:20Z</time>
      </trkpt>
      <trkpt lat="46.18469" lon="-0.25231">
        <ele>53.2</ele>
        <time>2022-04-03T17:33:21Z</time>
      </trkpt>
      <trkpt lat="46.18473" lon="-0.25236">
        <ele>53</ele>
        <time>2022-04-03T17:33:22Z</time>
      </trkpt>
      <trkpt lat="46.18476" lon="-0.25241">
        <ele>53</ele>
        <time>2022-04-03T17:33:23Z</time>
      </trkpt>
      <trkpt lat="46.1848" lon="-0.25246">
        <ele>53</ele>
        <time>2022-04-03T17:33:24Z</time>
      </trkpt>
      <trkpt lat="46.18484" lon="-0.25251">
        <ele>52.8</ele>
        <time>2022-04-03T17:33:25Z</time>
      </trkpt>
      <trkpt lat="46.18488" lon="-0.25256">
        <ele>53</ele>
        <time>2022-04-03T17:33:26Z</time>
      </trkpt>
      <trkpt lat="46.18492" lon="-0.2526">
        <ele>52.8</ele>
        <time>2022-04-03T17:33:27Z</time>
      </trkpt>
      <trkpt lat="46.18496" lon="-0.25264">
        <ele>52.8</ele>
        <time>2022-04-03T17:33:28Z</time>
      </trkpt>
      <trkpt lat="46.185" lon="-0.25268">
        <ele>52.4</ele>
        <time>2022-04-03T17:33:29Z</time>
      </trkpt>
      <trkpt lat="46.18504" lon="-0.25272">
        <ele>52.2</ele>
        <time>2022-04-03T17:33:30Z</time>
      </trkpt>
      <trkpt lat="46.18507" lon="-0.25277">
        <ele>52.2</ele>
        <time>2022-04-03T17:33:31Z</time>
      </trkpt>
      <trkpt lat="46.18511" lon="-0.25281">
        <ele>52.2</ele>
        <time>2022-04-03T17:33:32Z</time>
      </trkpt>
      <trkpt lat="46.18515" lon="-0.25286">
        <ele>52</ele>
        <time>2022-04-03T17:33:33Z</time>
      </trkpt>
      <trkpt lat="46.18519" lon="-0.2529">
        <ele>52</ele>
        <time>2022-04-03T17:33:34Z</time>
      </trkpt>
      <trkpt lat="46.18523" lon="-0.25294">
        <ele>52</ele>
        <time>2022-04-03T17:33:35Z</time>
      </trkpt>
      <trkpt lat="46.18528" lon="-0.25298">
        <ele>52</ele>
        <time>2022-04-03T17:33:36Z</time>
      </trkpt>
      <trkpt lat="46.18532" lon="-0.25302">
        <ele>52</ele>
        <time>2022-04-03T17:33:37Z</time>
      </trkpt>
      <trkpt lat="46.18537" lon="-0.25306">
        <ele>51.8</ele>
        <time>2022-04-03T17:33:38Z</time>
      </trkpt>
      <trkpt lat="46.18542" lon="-0.25309">
        <ele>51.8</ele>
        <time>2022-04-03T17:33:39Z</time>
      </trkpt>
      <trkpt lat="46.18548" lon="-0.25313">
        <ele>51.8</ele>
        <time>2022-04-03T17:33:40Z</time>
      </trkpt>
      <trkpt lat="46.18553" lon="-0.25317">
        <ele>51.6</ele>
        <time>2022-04-03T17:33:41Z</time>
      </trkpt>
      <trkpt lat="46.18558" lon="-0.2532">
        <ele>51.4</ele>
        <time>2022-04-03T17:33:42Z</time>
      </trkpt>
      <trkpt lat="46.18564" lon="-0.25325">
        <ele>51.4</ele>
        <time>2022-04-03T17:33:43Z</time>
      </trkpt>
      <trkpt lat="46.18569" lon="-0.25329">
        <ele>51.2</ele>
        <time>2022-04-03T17:33:44Z</time>
      </trkpt>
      <trkpt lat="46.18574" lon="-0.25333">
        <ele>51.2</ele>
        <time>2022-04-03T17:33:45Z</time>
      </trkpt>
      <trkpt lat="46.1858" lon="-0.25338">
        <ele>51.2</ele>
        <time>2022-04-03T17:33:46Z</time>
      </trkpt>
      <trkpt lat="46.18585" lon="-0.25343">
        <ele>51</ele>
        <time>2022-04-03T17:33:47Z</time>
      </trkpt>
      <trkpt lat="46.1859" lon="-0.25348">
        <ele>50.8</ele>
        <time>2022-04-03T17:33:48Z</time>
      </trkpt>
      <trkpt lat="46.18594" lon="-0.25354">
        <ele>50.6</ele>
        <time>2022-04-03T17:33:49Z</time>
      </trkpt>
      <trkpt lat="46.18599" lon="-0.2536">
        <ele>50.4</ele>
        <time>2022-04-03T17:33:50Z</time>
      </trkpt>
      <trkpt lat="46.18603" lon="-0.25367">
        <ele>50.4</ele>
        <time>2022-04-03T17:33:51Z</time>
      </trkpt>
      <trkpt lat="46.18608" lon="-0.25373">
        <ele>50.4</ele>
        <time>2022-04-03T17:33:52Z</time>
      </trkpt>
      <trkpt lat="46.18613" lon="-0.2538">
        <ele>50.4</ele>
        <time>2022-04-03T17:33:53Z</time>
      </trkpt>
      <trkpt lat="46.18617" lon="-0.25387">
        <ele>50.2</ele>
        <time>2022-04-03T17:33:54Z</time>
      </trkpt>
      <trkpt lat="46.18623" lon="-0.25393">
        <ele>50.2</ele>
        <time>2022-04-03T17:33:55Z</time>
      </trkpt>
      <trkpt lat="46.18628" lon="-0.25399">
        <ele>50.2</ele>
        <time>2022-04-03T17:33:56Z</time>
      </trkpt>
      <trkpt lat="46.18634" lon="-0.25404">
        <ele>50</ele>
        <time>2022-04-03T17:33:57Z</time>
      </trkpt>
      <trkpt lat="46.18639" lon="-0.2541">
        <ele>50.2</ele>
        <time>2022-04-03T17:33:58Z</time>
      </trkpt>
      <trkpt lat="46.18645" lon="-0.25415">
        <ele>50</ele>
        <time>2022-04-03T17:33:59Z</time>
      </trkpt>
      <trkpt lat="46.1865" lon="-0.25421">
        <ele>50</ele>
        <time>2022-04-03T17:34:00Z</time>
      </trkpt>
      <trkpt lat="46.18655" lon="-0.25426">
        <ele>49.8</ele>
        <time>2022-04-03T17:34:01Z</time>
      </trkpt>
      <trkpt lat="46.1866" lon="-0.2543">
        <ele>49.8</ele>
        <time>2022-04-03T17:34:02Z</time>
      </trkpt>
      <trkpt lat="46.18665" lon="-0.25434">
        <ele>49.6</ele>
        <time>2022-04-03T17:34:03Z</time>
      </trkpt>
      <trkpt lat="46.1867" lon="-0.25437">
        <ele>49</ele>
        <time>2022-04-03T17:34:04Z</time>
      </trkpt>
      <trkpt lat="46.18675" lon="-0.25441">
        <ele>49</ele>
        <time>2022-04-03T17:34:05Z</time>
      </trkpt>
      <trkpt lat="46.1868" lon="-0.25444">
        <ele>48.8</ele>
        <time>2022-04-03T17:34:06Z</time>
      </trkpt>
      <trkpt lat="46.18685" lon="-0.25447">
        <ele>48.6</ele>
        <time>2022-04-03T17:34:07Z</time>
      </trkpt>
      <trkpt lat="46.1869" lon="-0.2545">
        <ele>48.6</ele>
        <time>2022-04-03T17:34:08Z</time>
      </trkpt>
      <trkpt lat="46.18695" lon="-0.25454">
        <ele>48.6</ele>
        <time>2022-04-03T17:34:09Z</time>
      </trkpt>
      <trkpt lat="46.18699" lon="-0.25458">
        <ele>48.4</ele>
        <time>2022-04-03T17:34:10Z</time>
      </trkpt>
      <trkpt lat="46.18703" lon="-0.25462">
        <ele>48.6</ele>
        <time>2022-04-03T17:34:11Z</time>
      </trkpt>
      <trkpt lat="46.18708" lon="-0.25467">
        <ele>48.4</ele>
        <time>2022-04-03T17:34:12Z</time>
      </trkpt>
      <trkpt lat="46.18712" lon="-0.25472">
        <ele>48.4</ele>
        <time>2022-04-03T17:34:13Z</time>
      </trkpt>
      <trkpt lat="46.18717" lon="-0.25477">
        <ele>48.4</ele>
        <time>2022-04-03T17:34:14Z</time>
      </trkpt>
      <trkpt lat="46.18721" lon="-0.25484">
        <ele>48.4</ele>
        <time>2022-04-03T17:34:15Z</time>
      </trkpt>
      <trkpt lat="46.18726" lon="-0.25492">
        <ele>48.2</ele>
        <time>2022-04-03T17:34:16Z</time>
      </trkpt>
      <trkpt lat="46.18731" lon="-0.255">
        <ele>48.2</ele>
        <time>2022-04-03T17:34:17Z</time>
      </trkpt>
      <trkpt lat="46.18735" lon="-0.25509">
        <ele>48.2</ele>
        <time>2022-04-03T17:34:18Z</time>
      </trkpt>
      <trkpt lat="46.1874" lon="-0.25518">
        <ele>48</ele>
        <time>2022-04-03T17:34:19Z</time>
      </trkpt>
      <trkpt lat="46.18745" lon="-0.25527">
        <ele>47.8</ele>
        <time>2022-04-03T17:34:20Z</time>
      </trkpt>
      <trkpt lat="46.1875" lon="-0.25537">
        <ele>47.6</ele>
        <time>2022-04-03T17:34:21Z</time>
      </trkpt>
      <trkpt lat="46.18755" lon="-0.25545">
        <ele>47.4</ele>
        <time>2022-04-03T17:34:22Z</time>
      </trkpt>
      <trkpt lat="46.18762" lon="-0.25553">
        <ele>47.2</ele>
        <time>2022-04-03T17:34:23Z</time>
      </trkpt>
      <trkpt lat="46.18769" lon="-0.25561">
        <ele>46.2</ele>
        <time>2022-04-03T17:34:24Z</time>
      </trkpt>
      <trkpt lat="46.18776" lon="-0.25567">
        <ele>45.2</ele>
        <time>2022-04-03T17:34:25Z</time>
      </trkpt>
      <trkpt lat="46.18784" lon="-0.25573">
        <ele>44.6</ele>
        <time>2022-04-03T17:34:26Z</time>
      </trkpt>
      <trkpt lat="46.18792" lon="-0.25579">
        <ele>43.4</ele>
        <time>2022-04-03T17:34:27Z</time>
      </trkpt>
      <trkpt lat="46.18799" lon="-0.25585">
        <ele>42.8</ele>
        <time>2022-04-03T17:34:28Z</time>
      </trkpt>
      <trkpt lat="46.18807" lon="-0.25592">
        <ele>42.4</ele>
        <time>2022-04-03T17:34:29Z</time>
      </trkpt>
      <trkpt lat="46.18815" lon="-0.25597">
        <ele>41.6</ele>
        <time>2022-04-03T17:34:30Z</time>
      </trkpt>
      <trkpt lat="46.18822" lon="-0.25603">
        <ele>40.8</ele>
        <time>2022-04-03T17:34:31Z</time>
      </trkpt>
      <trkpt lat="46.1883" lon="-0.25609">
        <ele>40.2</ele>
        <time>2022-04-03T17:34:32Z</time>
      </trkpt>
      <trkpt lat="46.18837" lon="-0.25614">
        <ele>39.8</ele>
        <time>2022-04-03T17:34:33Z</time>
      </trkpt>
      <trkpt lat="46.18844" lon="-0.25619">
        <ele>39.8</ele>
        <time>2022-04-03T17:34:34Z</time>
      </trkpt>
      <trkpt lat="46.1885" lon="-0.25624">
        <ele>39.4</ele>
        <time>2022-04-03T17:34:35Z</time>
      </trkpt>
      <trkpt lat="46.18857" lon="-0.25628">
        <ele>38.6</ele>
        <time>2022-04-03T17:34:36Z</time>
      </trkpt>
      <trkpt lat="46.18862" lon="-0.25633">
        <ele>38.2</ele>
        <time>2022-04-03T17:34:37Z</time>
      </trkpt>
      <trkpt lat="46.18868" lon="-0.25637">
        <ele>38</ele>
        <time>2022-04-03T17:34:38Z</time>
      </trkpt>
      <trkpt lat="46.18874" lon="-0.25642">
        <ele>38</ele>
        <time>2022-04-03T17:34:39Z</time>
      </trkpt>
      <trkpt lat="46.1888" lon="-0.25646">
        <ele>37.8</ele>
        <time>2022-04-03T17:34:40Z</time>
      </trkpt>
      <trkpt lat="46.18884" lon="-0.2565">
        <ele>37.8</ele>
        <time>2022-04-03T17:34:41Z</time>
      </trkpt>
      <trkpt lat="46.1889" lon="-0.25653">
        <ele>37.8</ele>
        <time>2022-04-03T17:34:42Z</time>
      </trkpt>
      <trkpt lat="46.18895" lon="-0.25657">
        <ele>37.8</ele>
        <time>2022-04-03T17:34:43Z</time>
      </trkpt>
      <trkpt lat="46.18899" lon="-0.2566">
        <ele>37.8</ele>
        <time>2022-04-03T17:34:44Z</time>
      </trkpt>
      <trkpt lat="46.18904" lon="-0.25663">
        <ele>37.8</ele>
        <time>2022-04-03T17:34:45Z</time>
      </trkpt>
      <trkpt lat="46.18913" lon="-0.25669">
        <ele>37.8</ele>
        <time>2022-04-03T17:34:47Z</time>
      </trkpt>
      <trkpt lat="46.18918" lon="-0.25672">
        <ele>37.8</ele>
        <time>2022-04-03T17:34:48Z</time>
      </trkpt>
      <trkpt lat="46.18923" lon="-0.25675">
        <ele>38</ele>
        <time>2022-04-03T17:34:49Z</time>
      </trkpt>
      <trkpt lat="46.18927" lon="-0.25677">
        <ele>38.2</ele>
        <time>2022-04-03T17:34:50Z</time>
      </trkpt>
      <trkpt lat="46.18932" lon="-0.2568">
        <ele>38.4</ele>
        <time>2022-04-03T17:34:51Z</time>
      </trkpt>
      <trkpt lat="46.18941" lon="-0.25686">
        <ele>38.4</ele>
        <time>2022-04-03T17:34:53Z</time>
      </trkpt>
      <trkpt lat="46.18946" lon="-0.2569">
        <ele>38.4</ele>
        <time>2022-04-03T17:34:54Z</time>
      </trkpt>
      <trkpt lat="46.1895" lon="-0.25693">
        <ele>38.4</ele>
        <time>2022-04-03T17:34:55Z</time>
      </trkpt>
      <trkpt lat="46.18955" lon="-0.25696">
        <ele>38.4</ele>
        <time>2022-04-03T17:34:56Z</time>
      </trkpt>
      <trkpt lat="46.1896" lon="-0.25699">
        <ele>38.4</ele>
        <time>2022-04-03T17:34:57Z</time>
      </trkpt>
      <trkpt lat="46.18965" lon="-0.25703">
        <ele>38.4</ele>
        <time>2022-04-03T17:34:58Z</time>
      </trkpt>
      <trkpt lat="46.1897" lon="-0.25706">
        <ele>38.4</ele>
        <time>2022-04-03T17:34:59Z</time>
      </trkpt>
      <trkpt lat="46.18975" lon="-0.2571">
        <ele>38.4</ele>
        <time>2022-04-03T17:35:00Z</time>
      </trkpt>
      <trkpt lat="46.1898" lon="-0.25713">
        <ele>38.2</ele>
        <time>2022-04-03T17:35:01Z</time>
      </trkpt>
      <trkpt lat="46.18985" lon="-0.25717">
        <ele>38.4</ele>
        <time>2022-04-03T17:35:02Z</time>
      </trkpt>
      <trkpt lat="46.1899" lon="-0.2572">
        <ele>38.2</ele>
        <time>2022-04-03T17:35:03Z</time>
      </trkpt>
      <trkpt lat="46.18995" lon="-0.25723">
        <ele>38.4</ele>
        <time>2022-04-03T17:35:04Z</time>
      </trkpt>
      <trkpt lat="46.19" lon="-0.25726">
        <ele>38.2</ele>
        <time>2022-04-03T17:35:05Z</time>
      </trkpt>
      <trkpt lat="46.19005" lon="-0.2573">
        <ele>38.2</ele>
        <time>2022-04-03T17:35:06Z</time>
      </trkpt>
      <trkpt lat="46.19011" lon="-0.25733">
        <ele>38.4</ele>
        <time>2022-04-03T17:35:07Z</time>
      </trkpt>
      <trkpt lat="46.19016" lon="-0.25737">
        <ele>38.2</ele>
        <time>2022-04-03T17:35:08Z</time>
      </trkpt>
      <trkpt lat="46.19021" lon="-0.2574">
        <ele>38.4</ele>
        <time>2022-04-03T17:35:09Z</time>
      </trkpt>
      <trkpt lat="46.19026" lon="-0.25744">
        <ele>38.4</ele>
        <time>2022-04-03T17:35:10Z</time>
      </trkpt>
      <trkpt lat="46.19031" lon="-0.25747">
        <ele>38.4</ele>
        <time>2022-04-03T17:35:11Z</time>
      </trkpt>
      <trkpt lat="46.19036" lon="-0.25751">
        <ele>38.4</ele>
        <time>2022-04-03T17:35:12Z</time>
      </trkpt>
      <trkpt lat="46.19041" lon="-0.25754">
        <ele>38.2</ele>
        <time>2022-04-03T17:35:13Z</time>
      </trkpt>
      <trkpt lat="46.19046" lon="-0.25758">
        <ele>38.4</ele>
        <time>2022-04-03T17:35:14Z</time>
      </trkpt>
      <trkpt lat="46.19052" lon="-0.25761">
        <ele>38.2</ele>
        <time>2022-04-03T17:35:15Z</time>
      </trkpt>
      <trkpt lat="46.19057" lon="-0.25765">
        <ele>38.4</ele>
        <time>2022-04-03T17:35:16Z</time>
      </trkpt>
      <trkpt lat="46.19062" lon="-0.25768">
        <ele>38.4</ele>
        <time>2022-04-03T17:35:17Z</time>
      </trkpt>
      <trkpt lat="46.19067" lon="-0.25772">
        <ele>38.2</ele>
        <time>2022-04-03T17:35:18Z</time>
      </trkpt>
      <trkpt lat="46.19072" lon="-0.25776">
        <ele>38.4</ele>
        <time>2022-04-03T17:35:19Z</time>
      </trkpt>
      <trkpt lat="46.19077" lon="-0.25779">
        <ele>38.4</ele>
        <time>2022-04-03T17:35:20Z</time>
      </trkpt>
      <trkpt lat="46.19082" lon="-0.25782">
        <ele>38.4</ele>
        <time>2022-04-03T17:35:21Z</time>
      </trkpt>
      <trkpt lat="46.19087" lon="-0.25786">
        <ele>38.4</ele>
        <time>2022-04-03T17:35:22Z</time>
      </trkpt>
      <trkpt lat="46.19092" lon="-0.25789">
        <ele>38.6</ele>
        <time>2022-04-03T17:35:23Z</time>
      </trkpt>
      <trkpt lat="46.19097" lon="-0.25792">
        <ele>38.4</ele>
        <time>2022-04-03T17:35:24Z</time>
      </trkpt>
      <trkpt lat="46.19102" lon="-0.25795">
        <ele>38.4</ele>
        <time>2022-04-03T17:35:25Z</time>
      </trkpt>
      <trkpt lat="46.19107" lon="-0.25799">
        <ele>38.4</ele>
        <time>2022-04-03T17:35:26Z</time>
      </trkpt>
      <trkpt lat="46.19111" lon="-0.25802">
        <ele>38.6</ele>
        <time>2022-04-03T17:35:27Z</time>
      </trkpt>
      <trkpt lat="46.19116" lon="-0.25806">
        <ele>38.6</ele>
        <time>2022-04-03T17:35:28Z</time>
      </trkpt>
      <trkpt lat="46.1912" lon="-0.25809">
        <ele>38.4</ele>
        <time>2022-04-03T17:35:29Z</time>
      </trkpt>
      <trkpt lat="46.19124" lon="-0.25812">
        <ele>38.4</ele>
        <time>2022-04-03T17:35:30Z</time>
      </trkpt>
      <trkpt lat="46.19129" lon="-0.25815">
        <ele>38.4</ele>
        <time>2022-04-03T17:35:31Z</time>
      </trkpt>
      <trkpt lat="46.19132" lon="-0.25817">
        <ele>38.6</ele>
        <time>2022-04-03T17:35:32Z</time>
      </trkpt>
      <trkpt lat="46.19136" lon="-0.2582">
        <ele>38.6</ele>
        <time>2022-04-03T17:35:33Z</time>
      </trkpt>
      <trkpt lat="46.1914" lon="-0.25822">
        <ele>38.8</ele>
        <time>2022-04-03T17:35:34Z</time>
      </trkpt>
      <trkpt lat="46.19143" lon="-0.25824">
        <ele>38.8</ele>
        <time>2022-04-03T17:35:35Z</time>
      </trkpt>
      <trkpt lat="46.19146" lon="-0.25827">
        <ele>38.8</ele>
        <time>2022-04-03T17:35:36Z</time>
      </trkpt>
      <trkpt lat="46.19149" lon="-0.25829">
        <ele>39.2</ele>
        <time>2022-04-03T17:35:37Z</time>
      </trkpt>
      <trkpt lat="46.19152" lon="-0.25831">
        <ele>39.6</ele>
        <time>2022-04-03T17:35:38Z</time>
      </trkpt>
      <trkpt lat="46.19155" lon="-0.25833">
        <ele>39.6</ele>
        <time>2022-04-03T17:35:39Z</time>
      </trkpt>
      <trkpt lat="46.19158" lon="-0.25835">
        <ele>39.8</ele>
        <time>2022-04-03T17:35:40Z</time>
      </trkpt>
      <trkpt lat="46.19161" lon="-0.25837">
        <ele>39.8</ele>
        <time>2022-04-03T17:35:41Z</time>
      </trkpt>
      <trkpt lat="46.19164" lon="-0.25839">
        <ele>40</ele>
        <time>2022-04-03T17:35:42Z</time>
      </trkpt>
      <trkpt lat="46.19167" lon="-0.25841">
        <ele>40</ele>
        <time>2022-04-03T17:35:43Z</time>
      </trkpt>
      <trkpt lat="46.1917" lon="-0.25843">
        <ele>40</ele>
        <time>2022-04-03T17:35:44Z</time>
      </trkpt>
      <trkpt lat="46.19173" lon="-0.25845">
        <ele>40.2</ele>
        <time>2022-04-03T17:35:45Z</time>
      </trkpt>
      <trkpt lat="46.19176" lon="-0.25847">
        <ele>40.4</ele>
        <time>2022-04-03T17:35:46Z</time>
      </trkpt>
      <trkpt lat="46.19179" lon="-0.25849">
        <ele>40.8</ele>
        <time>2022-04-03T17:35:47Z</time>
      </trkpt>
      <trkpt lat="46.19182" lon="-0.25851">
        <ele>41</ele>
        <time>2022-04-03T17:35:48Z</time>
      </trkpt>
      <trkpt lat="46.19185" lon="-0.25853">
        <ele>41</ele>
        <time>2022-04-03T17:35:49Z</time>
      </trkpt>
      <trkpt lat="46.19188" lon="-0.25855">
        <ele>41.2</ele>
        <time>2022-04-03T17:35:50Z</time>
      </trkpt>
      <trkpt lat="46.1919" lon="-0.25857">
        <ele>41.6</ele>
        <time>2022-04-03T17:35:51Z</time>
      </trkpt>
      <trkpt lat="46.19193" lon="-0.25859">
        <ele>41.6</ele>
        <time>2022-04-03T17:35:52Z</time>
      </trkpt>
      <trkpt lat="46.19196" lon="-0.25861">
        <ele>41.8</ele>
        <time>2022-04-03T17:35:53Z</time>
      </trkpt>
      <trkpt lat="46.19199" lon="-0.25863">
        <ele>41.8</ele>
        <time>2022-04-03T17:35:54Z</time>
      </trkpt>
      <trkpt lat="46.19202" lon="-0.25865">
        <ele>42.2</ele>
        <time>2022-04-03T17:35:55Z</time>
      </trkpt>
      <trkpt lat="46.19204" lon="-0.25867">
        <ele>42.4</ele>
        <time>2022-04-03T17:35:56Z</time>
      </trkpt>
      <trkpt lat="46.19207" lon="-0.25868">
        <ele>42.4</ele>
        <time>2022-04-03T17:35:57Z</time>
      </trkpt>
      <trkpt lat="46.1921" lon="-0.2587">
        <ele>42.6</ele>
        <time>2022-04-03T17:35:58Z</time>
      </trkpt>
      <trkpt lat="46.19213" lon="-0.25872">
        <ele>42.6</ele>
        <time>2022-04-03T17:35:59Z</time>
      </trkpt>
      <trkpt lat="46.19215" lon="-0.25874">
        <ele>42.6</ele>
        <time>2022-04-03T17:36:00Z</time>
      </trkpt>
      <trkpt lat="46.19218" lon="-0.25876">
        <ele>43</ele>
        <time>2022-04-03T17:36:01Z</time>
      </trkpt>
      <trkpt lat="46.19221" lon="-0.25878">
        <ele>43</ele>
        <time>2022-04-03T17:36:02Z</time>
      </trkpt>
      <trkpt lat="46.19224" lon="-0.2588">
        <ele>43.2</ele>
        <time>2022-04-03T17:36:03Z</time>
      </trkpt>
      <trkpt lat="46.19226" lon="-0.25881">
        <ele>43.2</ele>
        <time>2022-04-03T17:36:04Z</time>
      </trkpt>
      <trkpt lat="46.19229" lon="-0.25883">
        <ele>43.6</ele>
        <time>2022-04-03T17:36:05Z</time>
      </trkpt>
      <trkpt lat="46.19232" lon="-0.25884">
        <ele>43.8</ele>
        <time>2022-04-03T17:36:06Z</time>
      </trkpt>
      <trkpt lat="46.19235" lon="-0.25886">
        <ele>44</ele>
        <time>2022-04-03T17:36:07Z</time>
      </trkpt>
      <trkpt lat="46.19237" lon="-0.25888">
        <ele>44.2</ele>
        <time>2022-04-03T17:36:08Z</time>
      </trkpt>
      <trkpt lat="46.1924" lon="-0.2589">
        <ele>44.2</ele>
        <time>2022-04-03T17:36:09Z</time>
      </trkpt>
      <trkpt lat="46.19242" lon="-0.25892">
        <ele>44.4</ele>
        <time>2022-04-03T17:36:10Z</time>
      </trkpt>
      <trkpt lat="46.19245" lon="-0.25893">
        <ele>44.6</ele>
        <time>2022-04-03T17:36:11Z</time>
      </trkpt>
      <trkpt lat="46.19247" lon="-0.25895">
        <ele>44.8</ele>
        <time>2022-04-03T17:36:12Z</time>
      </trkpt>
      <trkpt lat="46.1925" lon="-0.25897">
        <ele>44.8</ele>
        <time>2022-04-03T17:36:13Z</time>
      </trkpt>
      <trkpt lat="46.19253" lon="-0.25898">
        <ele>45</ele>
        <time>2022-04-03T17:36:14Z</time>
      </trkpt>
      <trkpt lat="46.19255" lon="-0.259">
        <ele>45.2</ele>
        <time>2022-04-03T17:36:15Z</time>
      </trkpt>
      <trkpt lat="46.19258" lon="-0.25902">
        <ele>45.4</ele>
        <time>2022-04-03T17:36:16Z</time>
      </trkpt>
      <trkpt lat="46.1926" lon="-0.25904">
        <ele>45.6</ele>
        <time>2022-04-03T17:36:17Z</time>
      </trkpt>
      <trkpt lat="46.19263" lon="-0.25906">
        <ele>45.6</ele>
        <time>2022-04-03T17:36:18Z</time>
      </trkpt>
      <trkpt lat="46.19265" lon="-0.25907">
        <ele>45.6</ele>
        <time>2022-04-03T17:36:19Z</time>
      </trkpt>
      <trkpt lat="46.19268" lon="-0.25909">
        <ele>45.8</ele>
        <time>2022-04-03T17:36:20Z</time>
      </trkpt>
      <trkpt lat="46.19271" lon="-0.25911">
        <ele>46</ele>
        <time>2022-04-03T17:36:21Z</time>
      </trkpt>
      <trkpt lat="46.19273" lon="-0.25913">
        <ele>46</ele>
        <time>2022-04-03T17:36:22Z</time>
      </trkpt>
      <trkpt lat="46.19276" lon="-0.25914">
        <ele>46.2</ele>
        <time>2022-04-03T17:36:23Z</time>
      </trkpt>
      <trkpt lat="46.19278" lon="-0.25916">
        <ele>46.4</ele>
        <time>2022-04-03T17:36:24Z</time>
      </trkpt>
      <trkpt lat="46.19281" lon="-0.25918">
        <ele>46.4</ele>
        <time>2022-04-03T17:36:25Z</time>
      </trkpt>
      <trkpt lat="46.19283" lon="-0.2592">
        <ele>46.6</ele>
        <time>2022-04-03T17:36:26Z</time>
      </trkpt>
      <trkpt lat="46.19286" lon="-0.25922">
        <ele>46.8</ele>
        <time>2022-04-03T17:36:27Z</time>
      </trkpt>
      <trkpt lat="46.19289" lon="-0.25924">
        <ele>46.8</ele>
        <time>2022-04-03T17:36:28Z</time>
      </trkpt>
      <trkpt lat="46.19291" lon="-0.25926">
        <ele>46.8</ele>
        <time>2022-04-03T17:36:29Z</time>
      </trkpt>
      <trkpt lat="46.19294" lon="-0.25927">
        <ele>47</ele>
        <time>2022-04-03T17:36:30Z</time>
      </trkpt>
      <trkpt lat="46.19297" lon="-0.25929">
        <ele>47.2</ele>
        <time>2022-04-03T17:36:31Z</time>
      </trkpt>
      <trkpt lat="46.19299" lon="-0.25931">
        <ele>47</ele>
        <time>2022-04-03T17:36:32Z</time>
      </trkpt>
      <trkpt lat="46.19302" lon="-0.25933">
        <ele>47.2</ele>
        <time>2022-04-03T17:36:33Z</time>
      </trkpt>
      <trkpt lat="46.19305" lon="-0.25935">
        <ele>47.4</ele>
        <time>2022-04-03T17:36:34Z</time>
      </trkpt>
      <trkpt lat="46.19307" lon="-0.25937">
        <ele>47.4</ele>
        <time>2022-04-03T17:36:35Z</time>
      </trkpt>
      <trkpt lat="46.1931" lon="-0.25939">
        <ele>47.6</ele>
        <time>2022-04-03T17:36:36Z</time>
      </trkpt>
      <trkpt lat="46.19313" lon="-0.25941">
        <ele>47.8</ele>
        <time>2022-04-03T17:36:37Z</time>
      </trkpt>
      <trkpt lat="46.19315" lon="-0.25942">
        <ele>48</ele>
        <time>2022-04-03T17:36:38Z</time>
      </trkpt>
      <trkpt lat="46.19318" lon="-0.25944">
        <ele>48.2</ele>
        <time>2022-04-03T17:36:39Z</time>
      </trkpt>
      <trkpt lat="46.19321" lon="-0.25946">
        <ele>48.4</ele>
        <time>2022-04-03T17:36:40Z</time>
      </trkpt>
      <trkpt lat="46.19323" lon="-0.25948">
        <ele>48.6</ele>
        <time>2022-04-03T17:36:41Z</time>
      </trkpt>
      <trkpt lat="46.19326" lon="-0.2595">
        <ele>48.6</ele>
        <time>2022-04-03T17:36:42Z</time>
      </trkpt>
      <trkpt lat="46.19329" lon="-0.25953">
        <ele>48.6</ele>
        <time>2022-04-03T17:36:43Z</time>
      </trkpt>
      <trkpt lat="46.19332" lon="-0.25955">
        <ele>48.8</ele>
        <time>2022-04-03T17:36:44Z</time>
      </trkpt>
      <trkpt lat="46.19334" lon="-0.25957">
        <ele>48.8</ele>
        <time>2022-04-03T17:36:45Z</time>
      </trkpt>
      <trkpt lat="46.19337" lon="-0.25959">
        <ele>49</ele>
        <time>2022-04-03T17:36:46Z</time>
      </trkpt>
      <trkpt lat="46.1934" lon="-0.25961">
        <ele>49</ele>
        <time>2022-04-03T17:36:47Z</time>
      </trkpt>
      <trkpt lat="46.19343" lon="-0.25962">
        <ele>49</ele>
        <time>2022-04-03T17:36:48Z</time>
      </trkpt>
      <trkpt lat="46.19346" lon="-0.25964">
        <ele>49.2</ele>
        <time>2022-04-03T17:36:49Z</time>
      </trkpt>
      <trkpt lat="46.19348" lon="-0.25966">
        <ele>49.6</ele>
        <time>2022-04-03T17:36:50Z</time>
      </trkpt>
      <trkpt lat="46.19351" lon="-0.25968">
        <ele>49.6</ele>
        <time>2022-04-03T17:36:51Z</time>
      </trkpt>
      <trkpt lat="46.19354" lon="-0.2597">
        <ele>49.6</ele>
        <time>2022-04-03T17:36:52Z</time>
      </trkpt>
      <trkpt lat="46.19357" lon="-0.25972">
        <ele>49.6</ele>
        <time>2022-04-03T17:36:53Z</time>
      </trkpt>
      <trkpt lat="46.19359" lon="-0.25974">
        <ele>50</ele>
        <time>2022-04-03T17:36:54Z</time>
      </trkpt>
      <trkpt lat="46.19362" lon="-0.25976">
        <ele>50</ele>
        <time>2022-04-03T17:36:55Z</time>
      </trkpt>
      <trkpt lat="46.19365" lon="-0.25978">
        <ele>50.2</ele>
        <time>2022-04-03T17:36:56Z</time>
      </trkpt>
      <trkpt lat="46.19368" lon="-0.2598">
        <ele>50.2</ele>
        <time>2022-04-03T17:36:57Z</time>
      </trkpt>
      <trkpt lat="46.1937" lon="-0.25982">
        <ele>50.4</ele>
        <time>2022-04-03T17:36:58Z</time>
      </trkpt>
      <trkpt lat="46.19373" lon="-0.25983">
        <ele>50.6</ele>
        <time>2022-04-03T17:36:59Z</time>
      </trkpt>
      <trkpt lat="46.19376" lon="-0.25985">
        <ele>50.6</ele>
        <time>2022-04-03T17:37:00Z</time>
      </trkpt>
      <trkpt lat="46.19379" lon="-0.25987">
        <ele>51</ele>
        <time>2022-04-03T17:37:01Z</time>
      </trkpt>
      <trkpt lat="46.19382" lon="-0.25989">
        <ele>50.8</ele>
        <time>2022-04-03T17:37:02Z</time>
      </trkpt>
      <trkpt lat="46.19385" lon="-0.25991">
        <ele>50.8</ele>
        <time>2022-04-03T17:37:03Z</time>
      </trkpt>
      <trkpt lat="46.19387" lon="-0.25994">
        <ele>50.8</ele>
        <time>2022-04-03T17:37:04Z</time>
      </trkpt>
      <trkpt lat="46.1939" lon="-0.25996">
        <ele>51</ele>
        <time>2022-04-03T17:37:05Z</time>
      </trkpt>
      <trkpt lat="46.19393" lon="-0.25997">
        <ele>51</ele>
        <time>2022-04-03T17:37:06Z</time>
      </trkpt>
      <trkpt lat="46.19396" lon="-0.25999">
        <ele>51.2</ele>
        <time>2022-04-03T17:37:07Z</time>
      </trkpt>
      <trkpt lat="46.19399" lon="-0.26001">
        <ele>51.2</ele>
        <time>2022-04-03T17:37:08Z</time>
      </trkpt>
      <trkpt lat="46.19402" lon="-0.26003">
        <ele>51.4</ele>
        <time>2022-04-03T17:37:09Z</time>
      </trkpt>
      <trkpt lat="46.19405" lon="-0.26005">
        <ele>51.4</ele>
        <time>2022-04-03T17:37:10Z</time>
      </trkpt>
      <trkpt lat="46.19408" lon="-0.26007">
        <ele>51.6</ele>
        <time>2022-04-03T17:37:11Z</time>
      </trkpt>
      <trkpt lat="46.19411" lon="-0.26009">
        <ele>51.6</ele>
        <time>2022-04-03T17:37:12Z</time>
      </trkpt>
      <trkpt lat="46.19414" lon="-0.26011">
        <ele>51.8</ele>
        <time>2022-04-03T17:37:13Z</time>
      </trkpt>
      <trkpt lat="46.19418" lon="-0.26013">
        <ele>52</ele>
        <time>2022-04-03T17:37:14Z</time>
      </trkpt>
      <trkpt lat="46.19421" lon="-0.26015">
        <ele>52</ele>
        <time>2022-04-03T17:37:15Z</time>
      </trkpt>
      <trkpt lat="46.19424" lon="-0.26017">
        <ele>52.2</ele>
        <time>2022-04-03T17:37:16Z</time>
      </trkpt>
      <trkpt lat="46.19428" lon="-0.26019">
        <ele>52.2</ele>
        <time>2022-04-03T17:37:17Z</time>
      </trkpt>
      <trkpt lat="46.19431" lon="-0.26021">
        <ele>52.4</ele>
        <time>2022-04-03T17:37:18Z</time>
      </trkpt>
      <trkpt lat="46.19435" lon="-0.26023">
        <ele>52.4</ele>
        <time>2022-04-03T17:37:19Z</time>
      </trkpt>
      <trkpt lat="46.19438" lon="-0.26025">
        <ele>52.6</ele>
        <time>2022-04-03T17:37:20Z</time>
      </trkpt>
      <trkpt lat="46.19442" lon="-0.26027">
        <ele>52.8</ele>
        <time>2022-04-03T17:37:21Z</time>
      </trkpt>
      <trkpt lat="46.19445" lon="-0.26028">
        <ele>52.6</ele>
        <time>2022-04-03T17:37:22Z</time>
      </trkpt>
      <trkpt lat="46.19449" lon="-0.2603">
        <ele>52.6</ele>
        <time>2022-04-03T17:37:23Z</time>
      </trkpt>
      <trkpt lat="46.19452" lon="-0.26032">
        <ele>52.8</ele>
        <time>2022-04-03T17:37:24Z</time>
      </trkpt>
      <trkpt lat="46.19456" lon="-0.26034">
        <ele>52.8</ele>
        <time>2022-04-03T17:37:25Z</time>
      </trkpt>
      <trkpt lat="46.1946" lon="-0.26036">
        <ele>52.8</ele>
        <time>2022-04-03T17:37:26Z</time>
      </trkpt>
      <trkpt lat="46.19463" lon="-0.26039">
        <ele>52.8</ele>
        <time>2022-04-03T17:37:27Z</time>
      </trkpt>
      <trkpt lat="46.19467" lon="-0.26041">
        <ele>52.8</ele>
        <time>2022-04-03T17:37:28Z</time>
      </trkpt>
      <trkpt lat="46.19471" lon="-0.26043">
        <ele>52.8</ele>
        <time>2022-04-03T17:37:29Z</time>
      </trkpt>
      <trkpt lat="46.19475" lon="-0.26044">
        <ele>52.8</ele>
        <time>2022-04-03T17:37:30Z</time>
      </trkpt>
      <trkpt lat="46.19478" lon="-0.26046">
        <ele>52.8</ele>
        <time>2022-04-03T17:37:31Z</time>
      </trkpt>
      <trkpt lat="46.19482" lon="-0.26048">
        <ele>52.8</ele>
        <time>2022-04-03T17:37:32Z</time>
      </trkpt>
      <trkpt lat="46.19486" lon="-0.2605">
        <ele>52.8</ele>
        <time>2022-04-03T17:37:33Z</time>
      </trkpt>
      <trkpt lat="46.1949" lon="-0.26052">
        <ele>52.8</ele>
        <time>2022-04-03T17:37:34Z</time>
      </trkpt>
      <trkpt lat="46.19493" lon="-0.26054">
        <ele>52.8</ele>
        <time>2022-04-03T17:37:35Z</time>
      </trkpt>
      <trkpt lat="46.19497" lon="-0.26056">
        <ele>52.6</ele>
        <time>2022-04-03T17:37:36Z</time>
      </trkpt>
      <trkpt lat="46.19501" lon="-0.26057">
        <ele>52.8</ele>
        <time>2022-04-03T17:37:37Z</time>
      </trkpt>
      <trkpt lat="46.19504" lon="-0.26059">
        <ele>52.8</ele>
        <time>2022-04-03T17:37:38Z</time>
      </trkpt>
      <trkpt lat="46.19508" lon="-0.26061">
        <ele>52.8</ele>
        <time>2022-04-03T17:37:39Z</time>
      </trkpt>
      <trkpt lat="46.19512" lon="-0.26063">
        <ele>52.8</ele>
        <time>2022-04-03T17:37:40Z</time>
      </trkpt>
      <trkpt lat="46.19515" lon="-0.26065">
        <ele>52.6</ele>
        <time>2022-04-03T17:37:41Z</time>
      </trkpt>
      <trkpt lat="46.19519" lon="-0.26068">
        <ele>52.8</ele>
        <time>2022-04-03T17:37:42Z</time>
      </trkpt>
      <trkpt lat="46.19523" lon="-0.2607">
        <ele>52.8</ele>
        <time>2022-04-03T17:37:43Z</time>
      </trkpt>
      <trkpt lat="46.19527" lon="-0.26071">
        <ele>52.6</ele>
        <time>2022-04-03T17:37:44Z</time>
      </trkpt>
      <trkpt lat="46.1953" lon="-0.26073">
        <ele>52.6</ele>
        <time>2022-04-03T17:37:45Z</time>
      </trkpt>
      <trkpt lat="46.19534" lon="-0.26075">
        <ele>52.6</ele>
        <time>2022-04-03T17:37:46Z</time>
      </trkpt>
      <trkpt lat="46.19538" lon="-0.26077">
        <ele>52.6</ele>
        <time>2022-04-03T17:37:47Z</time>
      </trkpt>
      <trkpt lat="46.19542" lon="-0.2608">
        <ele>52.6</ele>
        <time>2022-04-03T17:37:48Z</time>
      </trkpt>
      <trkpt lat="46.19545" lon="-0.26082">
        <ele>52.8</ele>
        <time>2022-04-03T17:37:49Z</time>
      </trkpt>
      <trkpt lat="46.19549" lon="-0.26084">
        <ele>52.8</ele>
        <time>2022-04-03T17:37:50Z</time>
      </trkpt>
      <trkpt lat="46.19553" lon="-0.26086">
        <ele>52.8</ele>
        <time>2022-04-03T17:37:51Z</time>
      </trkpt>
      <trkpt lat="46.19557" lon="-0.26087">
        <ele>52.8</ele>
        <time>2022-04-03T17:37:52Z</time>
      </trkpt>
      <trkpt lat="46.1956" lon="-0.26089">
        <ele>52.8</ele>
        <time>2022-04-03T17:37:53Z</time>
      </trkpt>
      <trkpt lat="46.19564" lon="-0.26091">
        <ele>53</ele>
        <time>2022-04-03T17:37:54Z</time>
      </trkpt>
      <trkpt lat="46.19567" lon="-0.26093">
        <ele>53.2</ele>
        <time>2022-04-03T17:37:55Z</time>
      </trkpt>
      <trkpt lat="46.1957" lon="-0.26095">
        <ele>53.2</ele>
        <time>2022-04-03T17:37:56Z</time>
      </trkpt>
      <trkpt lat="46.19573" lon="-0.26096">
        <ele>53.4</ele>
        <time>2022-04-03T17:37:57Z</time>
      </trkpt>
      <trkpt lat="46.19576" lon="-0.26097">
        <ele>53.4</ele>
        <time>2022-04-03T17:37:58Z</time>
      </trkpt>
      <trkpt lat="46.1958" lon="-0.26099">
        <ele>53.4</ele>
        <time>2022-04-03T17:37:59Z</time>
      </trkpt>
      <trkpt lat="46.19583" lon="-0.261">
        <ele>53.2</ele>
        <time>2022-04-03T17:38:00Z</time>
      </trkpt>
      <trkpt lat="46.19586" lon="-0.26102">
        <ele>53.4</ele>
        <time>2022-04-03T17:38:01Z</time>
      </trkpt>
      <trkpt lat="46.19589" lon="-0.26104">
        <ele>53.4</ele>
        <time>2022-04-03T17:38:02Z</time>
      </trkpt>
      <trkpt lat="46.19592" lon="-0.26106">
        <ele>53.4</ele>
        <time>2022-04-03T17:38:03Z</time>
      </trkpt>
      <trkpt lat="46.19596" lon="-0.26108">
        <ele>53.4</ele>
        <time>2022-04-03T17:38:04Z</time>
      </trkpt>
      <trkpt lat="46.19599" lon="-0.26109">
        <ele>53.4</ele>
        <time>2022-04-03T17:38:05Z</time>
      </trkpt>
      <trkpt lat="46.19603" lon="-0.26111">
        <ele>53.6</ele>
        <time>2022-04-03T17:38:06Z</time>
      </trkpt>
      <trkpt lat="46.19606" lon="-0.26113">
        <ele>53.6</ele>
        <time>2022-04-03T17:38:07Z</time>
      </trkpt>
      <trkpt lat="46.1961" lon="-0.26115">
        <ele>53.8</ele>
        <time>2022-04-03T17:38:08Z</time>
      </trkpt>
      <trkpt lat="46.19613" lon="-0.26116">
        <ele>53.8</ele>
        <time>2022-04-03T17:38:09Z</time>
      </trkpt>
      <trkpt lat="46.19617" lon="-0.26118">
        <ele>53.8</ele>
        <time>2022-04-03T17:38:10Z</time>
      </trkpt>
      <trkpt lat="46.1962" lon="-0.2612">
        <ele>53.8</ele>
        <time>2022-04-03T17:38:11Z</time>
      </trkpt>
      <trkpt lat="46.19624" lon="-0.26122">
        <ele>53.8</ele>
        <time>2022-04-03T17:38:12Z</time>
      </trkpt>
      <trkpt lat="46.19627" lon="-0.26124">
        <ele>53.8</ele>
        <time>2022-04-03T17:38:13Z</time>
      </trkpt>
      <trkpt lat="46.1963" lon="-0.26125">
        <ele>53.8</ele>
        <time>2022-04-03T17:38:14Z</time>
      </trkpt>
      <trkpt lat="46.19634" lon="-0.26127">
        <ele>53.6</ele>
        <time>2022-04-03T17:38:15Z</time>
      </trkpt>
      <trkpt lat="46.19637" lon="-0.26129">
        <ele>53.8</ele>
        <time>2022-04-03T17:38:16Z</time>
      </trkpt>
      <trkpt lat="46.1964" lon="-0.26131">
        <ele>53.8</ele>
        <time>2022-04-03T17:38:17Z</time>
      </trkpt>
      <trkpt lat="46.19644" lon="-0.26133">
        <ele>53.8</ele>
        <time>2022-04-03T17:38:18Z</time>
      </trkpt>
      <trkpt lat="46.19647" lon="-0.26135">
        <ele>54</ele>
        <time>2022-04-03T17:38:19Z</time>
      </trkpt>
      <trkpt lat="46.19651" lon="-0.26137">
        <ele>54</ele>
        <time>2022-04-03T17:38:20Z</time>
      </trkpt>
      <trkpt lat="46.19654" lon="-0.26138">
        <ele>54</ele>
        <time>2022-04-03T17:38:21Z</time>
      </trkpt>
      <trkpt lat="46.19658" lon="-0.2614">
        <ele>53.8</ele>
        <time>2022-04-03T17:38:22Z</time>
      </trkpt>
      <trkpt lat="46.19661" lon="-0.26142">
        <ele>54</ele>
        <time>2022-04-03T17:38:23Z</time>
      </trkpt>
      <trkpt lat="46.19665" lon="-0.26144">
        <ele>54.2</ele>
        <time>2022-04-03T17:38:24Z</time>
      </trkpt>
      <trkpt lat="46.19668" lon="-0.26146">
        <ele>54.2</ele>
        <time>2022-04-03T17:38:25Z</time>
      </trkpt>
      <trkpt lat="46.19672" lon="-0.26148">
        <ele>54.4</ele>
        <time>2022-04-03T17:38:26Z</time>
      </trkpt>
      <trkpt lat="46.19675" lon="-0.2615">
        <ele>54.4</ele>
        <time>2022-04-03T17:38:27Z</time>
      </trkpt>
      <trkpt lat="46.19679" lon="-0.26151">
        <ele>54.4</ele>
        <time>2022-04-03T17:38:28Z</time>
      </trkpt>
      <trkpt lat="46.19683" lon="-0.26153">
        <ele>54.4</ele>
        <time>2022-04-03T17:38:29Z</time>
      </trkpt>
      <trkpt lat="46.19686" lon="-0.26155">
        <ele>54.4</ele>
        <time>2022-04-03T17:38:30Z</time>
      </trkpt>
      <trkpt lat="46.1969" lon="-0.26157">
        <ele>54.4</ele>
        <time>2022-04-03T17:38:31Z</time>
      </trkpt>
      <trkpt lat="46.19693" lon="-0.2616">
        <ele>54.4</ele>
        <time>2022-04-03T17:38:32Z</time>
      </trkpt>
      <trkpt lat="46.19697" lon="-0.26162">
        <ele>54.4</ele>
        <time>2022-04-03T17:38:33Z</time>
      </trkpt>
      <trkpt lat="46.19701" lon="-0.26164">
        <ele>54.6</ele>
        <time>2022-04-03T17:38:34Z</time>
      </trkpt>
      <trkpt lat="46.19704" lon="-0.26166">
        <ele>54.6</ele>
        <time>2022-04-03T17:38:35Z</time>
      </trkpt>
      <trkpt lat="46.19708" lon="-0.26168">
        <ele>54.6</ele>
        <time>2022-04-03T17:38:36Z</time>
      </trkpt>
      <trkpt lat="46.19712" lon="-0.2617">
        <ele>54.4</ele>
        <time>2022-04-03T17:38:37Z</time>
      </trkpt>
      <trkpt lat="46.19716" lon="-0.26172">
        <ele>54.6</ele>
        <time>2022-04-03T17:38:38Z</time>
      </trkpt>
      <trkpt lat="46.1972" lon="-0.26174">
        <ele>54.6</ele>
        <time>2022-04-03T17:38:39Z</time>
      </trkpt>
      <trkpt lat="46.19724" lon="-0.26175">
        <ele>54.6</ele>
        <time>2022-04-03T17:38:40Z</time>
      </trkpt>
      <trkpt lat="46.19728" lon="-0.26177">
        <ele>54.6</ele>
        <time>2022-04-03T17:38:41Z</time>
      </trkpt>
      <trkpt lat="46.19732" lon="-0.26179">
        <ele>54.6</ele>
        <time>2022-04-03T17:38:42Z</time>
      </trkpt>
      <trkpt lat="46.19736" lon="-0.26181">
        <ele>54.6</ele>
        <time>2022-04-03T17:38:43Z</time>
      </trkpt>
      <trkpt lat="46.1974" lon="-0.26183">
        <ele>54.6</ele>
        <time>2022-04-03T17:38:44Z</time>
      </trkpt>
      <trkpt lat="46.19744" lon="-0.26185">
        <ele>54.6</ele>
        <time>2022-04-03T17:38:45Z</time>
      </trkpt>
      <trkpt lat="46.19748" lon="-0.26187">
        <ele>54.6</ele>
        <time>2022-04-03T17:38:46Z</time>
      </trkpt>
      <trkpt lat="46.19752" lon="-0.26189">
        <ele>54.6</ele>
        <time>2022-04-03T17:38:47Z</time>
      </trkpt>
      <trkpt lat="46.19755" lon="-0.2619">
        <ele>54.8</ele>
        <time>2022-04-03T17:38:48Z</time>
      </trkpt>
      <trkpt lat="46.19759" lon="-0.26193">
        <ele>54.8</ele>
        <time>2022-04-03T17:38:49Z</time>
      </trkpt>
      <trkpt lat="46.19763" lon="-0.26195">
        <ele>54.8</ele>
        <time>2022-04-03T17:38:50Z</time>
      </trkpt>
      <trkpt lat="46.19767" lon="-0.26197">
        <ele>55</ele>
        <time>2022-04-03T17:38:51Z</time>
      </trkpt>
      <trkpt lat="46.1977" lon="-0.26199">
        <ele>54.8</ele>
        <time>2022-04-03T17:38:52Z</time>
      </trkpt>
      <trkpt lat="46.19774" lon="-0.26202">
        <ele>55</ele>
        <time>2022-04-03T17:38:53Z</time>
      </trkpt>
      <trkpt lat="46.19778" lon="-0.26204">
        <ele>55</ele>
        <time>2022-04-03T17:38:54Z</time>
      </trkpt>
      <trkpt lat="46.19782" lon="-0.26206">
        <ele>54.8</ele>
        <time>2022-04-03T17:38:55Z</time>
      </trkpt>
      <trkpt lat="46.19786" lon="-0.26208">
        <ele>55</ele>
        <time>2022-04-03T17:38:56Z</time>
      </trkpt>
      <trkpt lat="46.1979" lon="-0.2621">
        <ele>55.2</ele>
        <time>2022-04-03T17:38:57Z</time>
      </trkpt>
      <trkpt lat="46.19794" lon="-0.26212">
        <ele>55</ele>
        <time>2022-04-03T17:38:58Z</time>
      </trkpt>
      <trkpt lat="46.19798" lon="-0.26214">
        <ele>55</ele>
        <time>2022-04-03T17:38:59Z</time>
      </trkpt>
      <trkpt lat="46.19802" lon="-0.26216">
        <ele>55</ele>
        <time>2022-04-03T17:39:00Z</time>
      </trkpt>
      <trkpt lat="46.19806" lon="-0.26218">
        <ele>55</ele>
        <time>2022-04-03T17:39:01Z</time>
      </trkpt>
      <trkpt lat="46.1981" lon="-0.2622">
        <ele>55.2</ele>
        <time>2022-04-03T17:39:02Z</time>
      </trkpt>
      <trkpt lat="46.19814" lon="-0.26223">
        <ele>55.2</ele>
        <time>2022-04-03T17:39:03Z</time>
      </trkpt>
      <trkpt lat="46.19818" lon="-0.26225">
        <ele>55.2</ele>
        <time>2022-04-03T17:39:04Z</time>
      </trkpt>
      <trkpt lat="46.19822" lon="-0.26226">
        <ele>55.4</ele>
        <time>2022-04-03T17:39:05Z</time>
      </trkpt>
      <trkpt lat="46.19826" lon="-0.26228">
        <ele>55.2</ele>
        <time>2022-04-03T17:39:06Z</time>
      </trkpt>
      <trkpt lat="46.1983" lon="-0.2623">
        <ele>55.4</ele>
        <time>2022-04-03T17:39:07Z</time>
      </trkpt>
      <trkpt lat="46.19833" lon="-0.26232">
        <ele>55.6</ele>
        <time>2022-04-03T17:39:08Z</time>
      </trkpt>
      <trkpt lat="46.19836" lon="-0.26234">
        <ele>55.4</ele>
        <time>2022-04-03T17:39:09Z</time>
      </trkpt>
      <trkpt lat="46.1984" lon="-0.26236">
        <ele>55.6</ele>
        <time>2022-04-03T17:39:10Z</time>
      </trkpt>
      <trkpt lat="46.19843" lon="-0.26238">
        <ele>55.6</ele>
        <time>2022-04-03T17:39:11Z</time>
      </trkpt>
      <trkpt lat="46.19846" lon="-0.26239">
        <ele>55.6</ele>
        <time>2022-04-03T17:39:12Z</time>
      </trkpt>
      <trkpt lat="46.1985" lon="-0.26241">
        <ele>55.6</ele>
        <time>2022-04-03T17:39:13Z</time>
      </trkpt>
      <trkpt lat="46.19854" lon="-0.26243">
        <ele>55.8</ele>
        <time>2022-04-03T17:39:14Z</time>
      </trkpt>
      <trkpt lat="46.19857" lon="-0.26246">
        <ele>55.8</ele>
        <time>2022-04-03T17:39:15Z</time>
      </trkpt>
      <trkpt lat="46.19861" lon="-0.26248">
        <ele>55.8</ele>
        <time>2022-04-03T17:39:16Z</time>
      </trkpt>
      <trkpt lat="46.19865" lon="-0.2625">
        <ele>55.8</ele>
        <time>2022-04-03T17:39:17Z</time>
      </trkpt>
      <trkpt lat="46.19869" lon="-0.26251">
        <ele>55.8</ele>
        <time>2022-04-03T17:39:18Z</time>
      </trkpt>
      <trkpt lat="46.19873" lon="-0.26253">
        <ele>55.8</ele>
        <time>2022-04-03T17:39:19Z</time>
      </trkpt>
      <trkpt lat="46.19876" lon="-0.26255">
        <ele>56</ele>
        <time>2022-04-03T17:39:20Z</time>
      </trkpt>
      <trkpt lat="46.1988" lon="-0.26257">
        <ele>56</ele>
        <time>2022-04-03T17:39:21Z</time>
      </trkpt>
      <trkpt lat="46.19884" lon="-0.26259">
        <ele>56</ele>
        <time>2022-04-03T17:39:22Z</time>
      </trkpt>
      <trkpt lat="46.19888" lon="-0.26261">
        <ele>56</ele>
        <time>2022-04-03T17:39:23Z</time>
      </trkpt>
      <trkpt lat="46.19892" lon="-0.26263">
        <ele>56</ele>
        <time>2022-04-03T17:39:24Z</time>
      </trkpt>
      <trkpt lat="46.19896" lon="-0.26265">
        <ele>56.2</ele>
        <time>2022-04-03T17:39:25Z</time>
      </trkpt>
      <trkpt lat="46.199" lon="-0.26268">
        <ele>56.2</ele>
        <time>2022-04-03T17:39:26Z</time>
      </trkpt>
      <trkpt lat="46.19904" lon="-0.2627">
        <ele>56.2</ele>
        <time>2022-04-03T17:39:27Z</time>
      </trkpt>
      <trkpt lat="46.19908" lon="-0.26272">
        <ele>56</ele>
        <time>2022-04-03T17:39:28Z</time>
      </trkpt>
      <trkpt lat="46.19912" lon="-0.26274">
        <ele>56.2</ele>
        <time>2022-04-03T17:39:29Z</time>
      </trkpt>
      <trkpt lat="46.19915" lon="-0.26276">
        <ele>56.2</ele>
        <time>2022-04-03T17:39:30Z</time>
      </trkpt>
      <trkpt lat="46.19919" lon="-0.26279">
        <ele>56</ele>
        <time>2022-04-03T17:39:31Z</time>
      </trkpt>
      <trkpt lat="46.19923" lon="-0.26281">
        <ele>56.2</ele>
        <time>2022-04-03T17:39:32Z</time>
      </trkpt>
      <trkpt lat="46.19927" lon="-0.26283">
        <ele>56</ele>
        <time>2022-04-03T17:39:33Z</time>
      </trkpt>
      <trkpt lat="46.19931" lon="-0.26285">
        <ele>56.2</ele>
        <time>2022-04-03T17:39:34Z</time>
      </trkpt>
      <trkpt lat="46.19935" lon="-0.26287">
        <ele>56.2</ele>
        <time>2022-04-03T17:39:35Z</time>
      </trkpt>
      <trkpt lat="46.19939" lon="-0.26289">
        <ele>56</ele>
        <time>2022-04-03T17:39:36Z</time>
      </trkpt>
      <trkpt lat="46.19943" lon="-0.26291">
        <ele>56</ele>
        <time>2022-04-03T17:39:37Z</time>
      </trkpt>
      <trkpt lat="46.19947" lon="-0.26293">
        <ele>56.2</ele>
        <time>2022-04-03T17:39:38Z</time>
      </trkpt>
      <trkpt lat="46.19951" lon="-0.26295">
        <ele>56.2</ele>
        <time>2022-04-03T17:39:39Z</time>
      </trkpt>
      <trkpt lat="46.19955" lon="-0.26296">
        <ele>56.2</ele>
        <time>2022-04-03T17:39:40Z</time>
      </trkpt>
      <trkpt lat="46.19958" lon="-0.26298">
        <ele>56.2</ele>
        <time>2022-04-03T17:39:41Z</time>
      </trkpt>
      <trkpt lat="46.19962" lon="-0.263">
        <ele>56.4</ele>
        <time>2022-04-03T17:39:42Z</time>
      </trkpt>
      <trkpt lat="46.19966" lon="-0.26303">
        <ele>56.2</ele>
        <time>2022-04-03T17:39:43Z</time>
      </trkpt>
      <trkpt lat="46.19969" lon="-0.26305">
        <ele>56.4</ele>
        <time>2022-04-03T17:39:44Z</time>
      </trkpt>
      <trkpt lat="46.19972" lon="-0.26306">
        <ele>56.4</ele>
        <time>2022-04-03T17:39:45Z</time>
      </trkpt>
      <trkpt lat="46.19976" lon="-0.26308">
        <ele>56.4</ele>
        <time>2022-04-03T17:39:46Z</time>
      </trkpt>
      <trkpt lat="46.19979" lon="-0.2631">
        <ele>56.8</ele>
        <time>2022-04-03T17:39:47Z</time>
      </trkpt>
      <trkpt lat="46.19983" lon="-0.26311">
        <ele>56.8</ele>
        <time>2022-04-03T17:39:48Z</time>
      </trkpt>
      <trkpt lat="46.19986" lon="-0.26313">
        <ele>56.8</ele>
        <time>2022-04-03T17:39:49Z</time>
      </trkpt>
      <trkpt lat="46.1999" lon="-0.26315">
        <ele>57</ele>
        <time>2022-04-03T17:39:50Z</time>
      </trkpt>
      <trkpt lat="46.19994" lon="-0.26317">
        <ele>56.8</ele>
        <time>2022-04-03T17:39:51Z</time>
      </trkpt>
      <trkpt lat="46.19997" lon="-0.26319">
        <ele>56.8</ele>
        <time>2022-04-03T17:39:52Z</time>
      </trkpt>
      <trkpt lat="46.20001" lon="-0.26321">
        <ele>56.8</ele>
        <time>2022-04-03T17:39:53Z</time>
      </trkpt>
      <trkpt lat="46.20005" lon="-0.26323">
        <ele>56.8</ele>
        <time>2022-04-03T17:39:54Z</time>
      </trkpt>
      <trkpt lat="46.20009" lon="-0.26325">
        <ele>56.8</ele>
        <time>2022-04-03T17:39:55Z</time>
      </trkpt>
      <trkpt lat="46.20013" lon="-0.26327">
        <ele>56.8</ele>
        <time>2022-04-03T17:39:56Z</time>
      </trkpt>
      <trkpt lat="46.20017" lon="-0.26329">
        <ele>57</ele>
        <time>2022-04-03T17:39:57Z</time>
      </trkpt>
      <trkpt lat="46.2002" lon="-0.26331">
        <ele>57</ele>
        <time>2022-04-03T17:39:58Z</time>
      </trkpt>
      <trkpt lat="46.20024" lon="-0.26333">
        <ele>57.2</ele>
        <time>2022-04-03T17:39:59Z</time>
      </trkpt>
      <trkpt lat="46.20027" lon="-0.26335">
        <ele>57</ele>
        <time>2022-04-03T17:40:00Z</time>
      </trkpt>
      <trkpt lat="46.2003" lon="-0.26336">
        <ele>57.2</ele>
        <time>2022-04-03T17:40:01Z</time>
      </trkpt>
      <trkpt lat="46.20034" lon="-0.26338">
        <ele>57</ele>
        <time>2022-04-03T17:40:02Z</time>
      </trkpt>
      <trkpt lat="46.20037" lon="-0.2634">
        <ele>57</ele>
        <time>2022-04-03T17:40:03Z</time>
      </trkpt>
      <trkpt lat="46.20041" lon="-0.26342">
        <ele>57.2</ele>
        <time>2022-04-03T17:40:04Z</time>
      </trkpt>
      <trkpt lat="46.20044" lon="-0.26344">
        <ele>57</ele>
        <time>2022-04-03T17:40:05Z</time>
      </trkpt>
      <trkpt lat="46.20048" lon="-0.26346">
        <ele>57</ele>
        <time>2022-04-03T17:40:06Z</time>
      </trkpt>
      <trkpt lat="46.20051" lon="-0.26348">
        <ele>57.2</ele>
        <time>2022-04-03T17:40:07Z</time>
      </trkpt>
      <trkpt lat="46.20055" lon="-0.26349">
        <ele>57.2</ele>
        <time>2022-04-03T17:40:08Z</time>
      </trkpt>
      <trkpt lat="46.20059" lon="-0.26351">
        <ele>57.2</ele>
        <time>2022-04-03T17:40:09Z</time>
      </trkpt>
      <trkpt lat="46.20062" lon="-0.26353">
        <ele>57.4</ele>
        <time>2022-04-03T17:40:10Z</time>
      </trkpt>
      <trkpt lat="46.20066" lon="-0.26355">
        <ele>57.4</ele>
        <time>2022-04-03T17:40:11Z</time>
      </trkpt>
      <trkpt lat="46.2007" lon="-0.26357">
        <ele>57.8</ele>
        <time>2022-04-03T17:40:12Z</time>
      </trkpt>
      <trkpt lat="46.20074" lon="-0.26359">
        <ele>57.6</ele>
        <time>2022-04-03T17:40:13Z</time>
      </trkpt>
      <trkpt lat="46.20077" lon="-0.26361">
        <ele>57.6</ele>
        <time>2022-04-03T17:40:14Z</time>
      </trkpt>
      <trkpt lat="46.2008" lon="-0.26362">
        <ele>57.8</ele>
        <time>2022-04-03T17:40:15Z</time>
      </trkpt>
      <trkpt lat="46.20083" lon="-0.26364">
        <ele>57.8</ele>
        <time>2022-04-03T17:40:16Z</time>
      </trkpt>
      <trkpt lat="46.20086" lon="-0.26366">
        <ele>58</ele>
        <time>2022-04-03T17:40:17Z</time>
      </trkpt>
      <trkpt lat="46.20089" lon="-0.26367">
        <ele>58</ele>
        <time>2022-04-03T17:40:18Z</time>
      </trkpt>
      <trkpt lat="46.20092" lon="-0.26369">
        <ele>58.2</ele>
        <time>2022-04-03T17:40:19Z</time>
      </trkpt>
      <trkpt lat="46.20095" lon="-0.2637">
        <ele>58</ele>
        <time>2022-04-03T17:40:20Z</time>
      </trkpt>
      <trkpt lat="46.20098" lon="-0.26372">
        <ele>58.2</ele>
        <time>2022-04-03T17:40:21Z</time>
      </trkpt>
      <trkpt lat="46.20101" lon="-0.26374">
        <ele>58.2</ele>
        <time>2022-04-03T17:40:22Z</time>
      </trkpt>
      <trkpt lat="46.20104" lon="-0.26375">
        <ele>58.4</ele>
        <time>2022-04-03T17:40:23Z</time>
      </trkpt>
      <trkpt lat="46.20107" lon="-0.26376">
        <ele>58.4</ele>
        <time>2022-04-03T17:40:24Z</time>
      </trkpt>
      <trkpt lat="46.20109" lon="-0.26378">
        <ele>58.6</ele>
        <time>2022-04-03T17:40:25Z</time>
      </trkpt>
      <trkpt lat="46.20112" lon="-0.26379">
        <ele>58.6</ele>
        <time>2022-04-03T17:40:26Z</time>
      </trkpt>
      <trkpt lat="46.20115" lon="-0.26381">
        <ele>58.6</ele>
        <time>2022-04-03T17:40:27Z</time>
      </trkpt>
      <trkpt lat="46.20117" lon="-0.26382">
        <ele>58.6</ele>
        <time>2022-04-03T17:40:28Z</time>
      </trkpt>
      <trkpt lat="46.2012" lon="-0.26383">
        <ele>58.6</ele>
        <time>2022-04-03T17:40:29Z</time>
      </trkpt>
      <trkpt lat="46.20122" lon="-0.26385">
        <ele>58.6</ele>
        <time>2022-04-03T17:40:30Z</time>
      </trkpt>
      <trkpt lat="46.20126" lon="-0.26387">
        <ele>58.6</ele>
        <time>2022-04-03T17:40:31Z</time>
      </trkpt>
      <trkpt lat="46.20129" lon="-0.26388">
        <ele>58.6</ele>
        <time>2022-04-03T17:40:32Z</time>
      </trkpt>
      <trkpt lat="46.20133" lon="-0.2639">
        <ele>58.6</ele>
        <time>2022-04-03T17:40:33Z</time>
      </trkpt>
      <trkpt lat="46.20136" lon="-0.26392">
        <ele>58.6</ele>
        <time>2022-04-03T17:40:34Z</time>
      </trkpt>
      <trkpt lat="46.2014" lon="-0.26394">
        <ele>58.6</ele>
        <time>2022-04-03T17:40:35Z</time>
      </trkpt>
      <trkpt lat="46.20143" lon="-0.26395">
        <ele>58.6</ele>
        <time>2022-04-03T17:40:36Z</time>
      </trkpt>
      <trkpt lat="46.20147" lon="-0.26397">
        <ele>58.4</ele>
        <time>2022-04-03T17:40:37Z</time>
      </trkpt>
      <trkpt lat="46.2015" lon="-0.26399">
        <ele>58.6</ele>
        <time>2022-04-03T17:40:38Z</time>
      </trkpt>
      <trkpt lat="46.20153" lon="-0.26401">
        <ele>58.6</ele>
        <time>2022-04-03T17:40:39Z</time>
      </trkpt>
      <trkpt lat="46.20157" lon="-0.26402">
        <ele>58.4</ele>
        <time>2022-04-03T17:40:40Z</time>
      </trkpt>
      <trkpt lat="46.2016" lon="-0.26404">
        <ele>58.4</ele>
        <time>2022-04-03T17:40:41Z</time>
      </trkpt>
      <trkpt lat="46.20163" lon="-0.26406">
        <ele>58.2</ele>
        <time>2022-04-03T17:40:42Z</time>
      </trkpt>
      <trkpt lat="46.20166" lon="-0.26408">
        <ele>58.2</ele>
        <time>2022-04-03T17:40:43Z</time>
      </trkpt>
      <trkpt lat="46.2017" lon="-0.2641">
        <ele>58.2</ele>
        <time>2022-04-03T17:40:44Z</time>
      </trkpt>
      <trkpt lat="46.20173" lon="-0.26412">
        <ele>57.8</ele>
        <time>2022-04-03T17:40:45Z</time>
      </trkpt>
      <trkpt lat="46.20176" lon="-0.26414">
        <ele>58</ele>
        <time>2022-04-03T17:40:46Z</time>
      </trkpt>
      <trkpt lat="46.2018" lon="-0.26416">
        <ele>57.8</ele>
        <time>2022-04-03T17:40:47Z</time>
      </trkpt>
      <trkpt lat="46.20184" lon="-0.26418">
        <ele>57.6</ele>
        <time>2022-04-03T17:40:48Z</time>
      </trkpt>
      <trkpt lat="46.20188" lon="-0.2642">
        <ele>57.6</ele>
        <time>2022-04-03T17:40:49Z</time>
      </trkpt>
      <trkpt lat="46.20192" lon="-0.26422">
        <ele>57.6</ele>
        <time>2022-04-03T17:40:50Z</time>
      </trkpt>
      <trkpt lat="46.20196" lon="-0.26425">
        <ele>57.6</ele>
        <time>2022-04-03T17:40:51Z</time>
      </trkpt>
      <trkpt lat="46.202" lon="-0.26426">
        <ele>57.6</ele>
        <time>2022-04-03T17:40:52Z</time>
      </trkpt>
      <trkpt lat="46.20204" lon="-0.26428">
        <ele>57.6</ele>
        <time>2022-04-03T17:40:53Z</time>
      </trkpt>
      <trkpt lat="46.20207" lon="-0.26429">
        <ele>57.6</ele>
        <time>2022-04-03T17:40:54Z</time>
      </trkpt>
      <trkpt lat="46.20211" lon="-0.26431">
        <ele>57.6</ele>
        <time>2022-04-03T17:40:55Z</time>
      </trkpt>
      <trkpt lat="46.20215" lon="-0.26433">
        <ele>57.4</ele>
        <time>2022-04-03T17:40:56Z</time>
      </trkpt>
      <trkpt lat="46.20218" lon="-0.26435">
        <ele>57.4</ele>
        <time>2022-04-03T17:40:57Z</time>
      </trkpt>
      <trkpt lat="46.20222" lon="-0.26437">
        <ele>57.4</ele>
        <time>2022-04-03T17:40:58Z</time>
      </trkpt>
      <trkpt lat="46.20226" lon="-0.26439">
        <ele>57.6</ele>
        <time>2022-04-03T17:40:59Z</time>
      </trkpt>
      <trkpt lat="46.20229" lon="-0.26441">
        <ele>57.4</ele>
        <time>2022-04-03T17:41:00Z</time>
      </trkpt>
      <trkpt lat="46.20233" lon="-0.26443">
        <ele>57.4</ele>
        <time>2022-04-03T17:41:01Z</time>
      </trkpt>
      <trkpt lat="46.20236" lon="-0.26445">
        <ele>57.4</ele>
        <time>2022-04-03T17:41:02Z</time>
      </trkpt>
      <trkpt lat="46.2024" lon="-0.26447">
        <ele>57.4</ele>
        <time>2022-04-03T17:41:03Z</time>
      </trkpt>
      <trkpt lat="46.20243" lon="-0.26448">
        <ele>57.4</ele>
        <time>2022-04-03T17:41:04Z</time>
      </trkpt>
      <trkpt lat="46.20246" lon="-0.2645">
        <ele>57.6</ele>
        <time>2022-04-03T17:41:05Z</time>
      </trkpt>
      <trkpt lat="46.20249" lon="-0.26452">
        <ele>57.6</ele>
        <time>2022-04-03T17:41:06Z</time>
      </trkpt>
      <trkpt lat="46.20252" lon="-0.26454">
        <ele>57.6</ele>
        <time>2022-04-03T17:41:07Z</time>
      </trkpt>
      <trkpt lat="46.20255" lon="-0.26456">
        <ele>57.6</ele>
        <time>2022-04-03T17:41:08Z</time>
      </trkpt>
      <trkpt lat="46.20259" lon="-0.26458">
        <ele>57.6</ele>
        <time>2022-04-03T17:41:09Z</time>
      </trkpt>
      <trkpt lat="46.20262" lon="-0.26461">
        <ele>57.6</ele>
        <time>2022-04-03T17:41:10Z</time>
      </trkpt>
      <trkpt lat="46.20266" lon="-0.26463">
        <ele>57.6</ele>
        <time>2022-04-03T17:41:11Z</time>
      </trkpt>
      <trkpt lat="46.20269" lon="-0.26465">
        <ele>57.8</ele>
        <time>2022-04-03T17:41:12Z</time>
      </trkpt>
      <trkpt lat="46.20272" lon="-0.26468">
        <ele>57.8</ele>
        <time>2022-04-03T17:41:13Z</time>
      </trkpt>
      <trkpt lat="46.20275" lon="-0.2647">
        <ele>57.6</ele>
        <time>2022-04-03T17:41:14Z</time>
      </trkpt>
      <trkpt lat="46.20279" lon="-0.26473">
        <ele>57.6</ele>
        <time>2022-04-03T17:41:15Z</time>
      </trkpt>
      <trkpt lat="46.20282" lon="-0.26475">
        <ele>57.6</ele>
        <time>2022-04-03T17:41:16Z</time>
      </trkpt>
      <trkpt lat="46.20286" lon="-0.26478">
        <ele>57.8</ele>
        <time>2022-04-03T17:41:17Z</time>
      </trkpt>
      <trkpt lat="46.20289" lon="-0.26481">
        <ele>57.8</ele>
        <time>2022-04-03T17:41:18Z</time>
      </trkpt>
      <trkpt lat="46.20292" lon="-0.26484">
        <ele>57.6</ele>
        <time>2022-04-03T17:41:19Z</time>
      </trkpt>
      <trkpt lat="46.20295" lon="-0.26488">
        <ele>57.6</ele>
        <time>2022-04-03T17:41:20Z</time>
      </trkpt>
      <trkpt lat="46.20298" lon="-0.26491">
        <ele>57.8</ele>
        <time>2022-04-03T17:41:21Z</time>
      </trkpt>
      <trkpt lat="46.20302" lon="-0.26495">
        <ele>57.8</ele>
        <time>2022-04-03T17:41:22Z</time>
      </trkpt>
      <trkpt lat="46.20305" lon="-0.26498">
        <ele>57.6</ele>
        <time>2022-04-03T17:41:23Z</time>
      </trkpt>
      <trkpt lat="46.20308" lon="-0.26502">
        <ele>57.6</ele>
        <time>2022-04-03T17:41:24Z</time>
      </trkpt>
      <trkpt lat="46.20312" lon="-0.26505">
        <ele>57.6</ele>
        <time>2022-04-03T17:41:25Z</time>
      </trkpt>
      <trkpt lat="46.20315" lon="-0.26508">
        <ele>57.6</ele>
        <time>2022-04-03T17:41:26Z</time>
      </trkpt>
      <trkpt lat="46.20319" lon="-0.26512">
        <ele>57.4</ele>
        <time>2022-04-03T17:41:27Z</time>
      </trkpt>
      <trkpt lat="46.20323" lon="-0.26515">
        <ele>57.4</ele>
        <time>2022-04-03T17:41:28Z</time>
      </trkpt>
      <trkpt lat="46.20326" lon="-0.26518">
        <ele>57.2</ele>
        <time>2022-04-03T17:41:29Z</time>
      </trkpt>
      <trkpt lat="46.2033" lon="-0.26522">
        <ele>57.2</ele>
        <time>2022-04-03T17:41:30Z</time>
      </trkpt>
      <trkpt lat="46.20333" lon="-0.26526">
        <ele>57.2</ele>
        <time>2022-04-03T17:41:31Z</time>
      </trkpt>
      <trkpt lat="46.20337" lon="-0.2653">
        <ele>57</ele>
        <time>2022-04-03T17:41:32Z</time>
      </trkpt>
      <trkpt lat="46.2034" lon="-0.26534">
        <ele>57</ele>
        <time>2022-04-03T17:41:33Z</time>
      </trkpt>
      <trkpt lat="46.20344" lon="-0.26538">
        <ele>56.8</ele>
        <time>2022-04-03T17:41:34Z</time>
      </trkpt>
      <trkpt lat="46.20347" lon="-0.26542">
        <ele>56.6</ele>
        <time>2022-04-03T17:41:35Z</time>
      </trkpt>
      <trkpt lat="46.20351" lon="-0.26546">
        <ele>56.6</ele>
        <time>2022-04-03T17:41:36Z</time>
      </trkpt>
      <trkpt lat="46.20355" lon="-0.2655">
        <ele>56.4</ele>
        <time>2022-04-03T17:41:37Z</time>
      </trkpt>
      <trkpt lat="46.20358" lon="-0.26554">
        <ele>56.4</ele>
        <time>2022-04-03T17:41:38Z</time>
      </trkpt>
      <trkpt lat="46.20362" lon="-0.26557">
        <ele>56</ele>
        <time>2022-04-03T17:41:39Z</time>
      </trkpt>
      <trkpt lat="46.20366" lon="-0.26561">
        <ele>55.8</ele>
        <time>2022-04-03T17:41:40Z</time>
      </trkpt>
      <trkpt lat="46.2037" lon="-0.26564">
        <ele>55.8</ele>
        <time>2022-04-03T17:41:41Z</time>
      </trkpt>
      <trkpt lat="46.20374" lon="-0.26568">
        <ele>55.6</ele>
        <time>2022-04-03T17:41:42Z</time>
      </trkpt>
      <trkpt lat="46.20378" lon="-0.26572">
        <ele>55.6</ele>
        <time>2022-04-03T17:41:43Z</time>
      </trkpt>
      <trkpt lat="46.20382" lon="-0.26576">
        <ele>55.6</ele>
        <time>2022-04-03T17:41:44Z</time>
      </trkpt>
      <trkpt lat="46.20386" lon="-0.2658">
        <ele>55.4</ele>
        <time>2022-04-03T17:41:45Z</time>
      </trkpt>
      <trkpt lat="46.2039" lon="-0.26585">
        <ele>55.6</ele>
        <time>2022-04-03T17:41:46Z</time>
      </trkpt>
      <trkpt lat="46.20394" lon="-0.26589">
        <ele>55.4</ele>
        <time>2022-04-03T17:41:47Z</time>
      </trkpt>
      <trkpt lat="46.20398" lon="-0.26593">
        <ele>55.2</ele>
        <time>2022-04-03T17:41:48Z</time>
      </trkpt>
      <trkpt lat="46.20402" lon="-0.26597">
        <ele>55.2</ele>
        <time>2022-04-03T17:41:49Z</time>
      </trkpt>
      <trkpt lat="46.20406" lon="-0.266">
        <ele>55.2</ele>
        <time>2022-04-03T17:41:50Z</time>
      </trkpt>
      <trkpt lat="46.2041" lon="-0.26604">
        <ele>55</ele>
        <time>2022-04-03T17:41:51Z</time>
      </trkpt>
      <trkpt lat="46.20415" lon="-0.26608">
        <ele>54.8</ele>
        <time>2022-04-03T17:41:52Z</time>
      </trkpt>
      <trkpt lat="46.20419" lon="-0.26612">
        <ele>54.6</ele>
        <time>2022-04-03T17:41:53Z</time>
      </trkpt>
      <trkpt lat="46.20423" lon="-0.26616">
        <ele>54.6</ele>
        <time>2022-04-03T17:41:54Z</time>
      </trkpt>
      <trkpt lat="46.20427" lon="-0.26619">
        <ele>54.6</ele>
        <time>2022-04-03T17:41:55Z</time>
      </trkpt>
      <trkpt lat="46.20431" lon="-0.26622">
        <ele>54.4</ele>
        <time>2022-04-03T17:41:56Z</time>
      </trkpt>
      <trkpt lat="46.20436" lon="-0.26625">
        <ele>54.2</ele>
        <time>2022-04-03T17:41:57Z</time>
      </trkpt>
      <trkpt lat="46.2044" lon="-0.26629">
        <ele>53.8</ele>
        <time>2022-04-03T17:41:58Z</time>
      </trkpt>
      <trkpt lat="46.20444" lon="-0.26632">
        <ele>53.6</ele>
        <time>2022-04-03T17:41:59Z</time>
      </trkpt>
      <trkpt lat="46.20449" lon="-0.26635">
        <ele>53.4</ele>
        <time>2022-04-03T17:42:00Z</time>
      </trkpt>
      <trkpt lat="46.20453" lon="-0.26638">
        <ele>53.4</ele>
        <time>2022-04-03T17:42:01Z</time>
      </trkpt>
      <trkpt lat="46.20457" lon="-0.26641">
        <ele>53.2</ele>
        <time>2022-04-03T17:42:02Z</time>
      </trkpt>
      <trkpt lat="46.20461" lon="-0.26644">
        <ele>53</ele>
        <time>2022-04-03T17:42:03Z</time>
      </trkpt>
      <trkpt lat="46.20465" lon="-0.26647">
        <ele>52.8</ele>
        <time>2022-04-03T17:42:04Z</time>
      </trkpt>
      <trkpt lat="46.20469" lon="-0.2665">
        <ele>52.8</ele>
        <time>2022-04-03T17:42:05Z</time>
      </trkpt>
      <trkpt lat="46.20473" lon="-0.26653">
        <ele>52.6</ele>
        <time>2022-04-03T17:42:06Z</time>
      </trkpt>
      <trkpt lat="46.20477" lon="-0.26655">
        <ele>52.8</ele>
        <time>2022-04-03T17:42:07Z</time>
      </trkpt>
      <trkpt lat="46.20481" lon="-0.26658">
        <ele>52.8</ele>
        <time>2022-04-03T17:42:08Z</time>
      </trkpt>
      <trkpt lat="46.20485" lon="-0.26661">
        <ele>52.6</ele>
        <time>2022-04-03T17:42:09Z</time>
      </trkpt>
      <trkpt lat="46.20489" lon="-0.26664">
        <ele>52.6</ele>
        <time>2022-04-03T17:42:10Z</time>
      </trkpt>
      <trkpt lat="46.20492" lon="-0.26667">
        <ele>52.6</ele>
        <time>2022-04-03T17:42:11Z</time>
      </trkpt>
      <trkpt lat="46.20496" lon="-0.26669">
        <ele>52.6</ele>
        <time>2022-04-03T17:42:12Z</time>
      </trkpt>
      <trkpt lat="46.205" lon="-0.26671">
        <ele>52.6</ele>
        <time>2022-04-03T17:42:13Z</time>
      </trkpt>
      <trkpt lat="46.20504" lon="-0.26673">
        <ele>52.6</ele>
        <time>2022-04-03T17:42:14Z</time>
      </trkpt>
      <trkpt lat="46.20508" lon="-0.26676">
        <ele>52.6</ele>
        <time>2022-04-03T17:42:15Z</time>
      </trkpt>
      <trkpt lat="46.20512" lon="-0.26679">
        <ele>52.6</ele>
        <time>2022-04-03T17:42:16Z</time>
      </trkpt>
      <trkpt lat="46.20516" lon="-0.26682">
        <ele>52.4</ele>
        <time>2022-04-03T17:42:17Z</time>
      </trkpt>
      <trkpt lat="46.20521" lon="-0.26685">
        <ele>52.4</ele>
        <time>2022-04-03T17:42:18Z</time>
      </trkpt>
      <trkpt lat="46.20525" lon="-0.26688">
        <ele>52.4</ele>
        <time>2022-04-03T17:42:19Z</time>
      </trkpt>
      <trkpt lat="46.20529" lon="-0.26691">
        <ele>52.4</ele>
        <time>2022-04-03T17:42:20Z</time>
      </trkpt>
      <trkpt lat="46.20534" lon="-0.26694">
        <ele>52.4</ele>
        <time>2022-04-03T17:42:21Z</time>
      </trkpt>
      <trkpt lat="46.20539" lon="-0.26697">
        <ele>52.4</ele>
        <time>2022-04-03T17:42:22Z</time>
      </trkpt>
      <trkpt lat="46.20543" lon="-0.26699">
        <ele>52.2</ele>
        <time>2022-04-03T17:42:23Z</time>
      </trkpt>
      <trkpt lat="46.20548" lon="-0.26702">
        <ele>52.2</ele>
        <time>2022-04-03T17:42:24Z</time>
      </trkpt>
      <trkpt lat="46.20552" lon="-0.26705">
        <ele>52.2</ele>
        <time>2022-04-03T17:42:25Z</time>
      </trkpt>
      <trkpt lat="46.20557" lon="-0.26708">
        <ele>51.8</ele>
        <time>2022-04-03T17:42:26Z</time>
      </trkpt>
      <trkpt lat="46.20561" lon="-0.26711">
        <ele>51.8</ele>
        <time>2022-04-03T17:42:27Z</time>
      </trkpt>
      <trkpt lat="46.20566" lon="-0.26714">
        <ele>52</ele>
        <time>2022-04-03T17:42:28Z</time>
      </trkpt>
      <trkpt lat="46.20581" lon="-0.26724">
        <ele>51.4</ele>
        <time>2022-04-03T17:42:31Z</time>
      </trkpt>
      <trkpt lat="46.20587" lon="-0.26728">
        <ele>51.4</ele>
        <time>2022-04-03T17:42:32Z</time>
      </trkpt>
      <trkpt lat="46.20592" lon="-0.26732">
        <ele>51.4</ele>
        <time>2022-04-03T17:42:33Z</time>
      </trkpt>
      <trkpt lat="46.20598" lon="-0.26736">
        <ele>51.4</ele>
        <time>2022-04-03T17:42:34Z</time>
      </trkpt>
      <trkpt lat="46.20603" lon="-0.26739">
        <ele>51.2</ele>
        <time>2022-04-03T17:42:35Z</time>
      </trkpt>
      <trkpt lat="46.20609" lon="-0.26743">
        <ele>51.2</ele>
        <time>2022-04-03T17:42:36Z</time>
      </trkpt>
      <trkpt lat="46.20614" lon="-0.26747">
        <ele>51.2</ele>
        <time>2022-04-03T17:42:37Z</time>
      </trkpt>
      <trkpt lat="46.2062" lon="-0.26751">
        <ele>51</ele>
        <time>2022-04-03T17:42:38Z</time>
      </trkpt>
      <trkpt lat="46.20626" lon="-0.26755">
        <ele>51</ele>
        <time>2022-04-03T17:42:39Z</time>
      </trkpt>
      <trkpt lat="46.20632" lon="-0.26759">
        <ele>50.8</ele>
        <time>2022-04-03T17:42:40Z</time>
      </trkpt>
      <trkpt lat="46.20637" lon="-0.26763">
        <ele>50.8</ele>
        <time>2022-04-03T17:42:41Z</time>
      </trkpt>
      <trkpt lat="46.20643" lon="-0.26767">
        <ele>50.8</ele>
        <time>2022-04-03T17:42:42Z</time>
      </trkpt>
      <trkpt lat="46.20649" lon="-0.26771">
        <ele>50.8</ele>
        <time>2022-04-03T17:42:43Z</time>
      </trkpt>
      <trkpt lat="46.20654" lon="-0.26775">
        <ele>50.8</ele>
        <time>2022-04-03T17:42:44Z</time>
      </trkpt>
      <trkpt lat="46.2066" lon="-0.26779">
        <ele>50.6</ele>
        <time>2022-04-03T17:42:45Z</time>
      </trkpt>
      <trkpt lat="46.20665" lon="-0.26783">
        <ele>50.6</ele>
        <time>2022-04-03T17:42:46Z</time>
      </trkpt>
      <trkpt lat="46.20671" lon="-0.26787">
        <ele>50.4</ele>
        <time>2022-04-03T17:42:47Z</time>
      </trkpt>
      <trkpt lat="46.20677" lon="-0.2679">
        <ele>50.2</ele>
        <time>2022-04-03T17:42:48Z</time>
      </trkpt>
      <trkpt lat="46.20682" lon="-0.26794">
        <ele>49.8</ele>
        <time>2022-04-03T17:42:49Z</time>
      </trkpt>
      <trkpt lat="46.20688" lon="-0.26797">
        <ele>49.8</ele>
        <time>2022-04-03T17:42:50Z</time>
      </trkpt>
      <trkpt lat="46.20693" lon="-0.26801">
        <ele>49.6</ele>
        <time>2022-04-03T17:42:51Z</time>
      </trkpt>
      <trkpt lat="46.20699" lon="-0.26804">
        <ele>49.6</ele>
        <time>2022-04-03T17:42:52Z</time>
      </trkpt>
      <trkpt lat="46.20704" lon="-0.26806">
        <ele>49.4</ele>
        <time>2022-04-03T17:42:53Z</time>
      </trkpt>
      <trkpt lat="46.20709" lon="-0.26809">
        <ele>49.4</ele>
        <time>2022-04-03T17:42:54Z</time>
      </trkpt>
      <trkpt lat="46.20714" lon="-0.26812">
        <ele>49.4</ele>
        <time>2022-04-03T17:42:55Z</time>
      </trkpt>
      <trkpt lat="46.2072" lon="-0.26814">
        <ele>49.4</ele>
        <time>2022-04-03T17:42:56Z</time>
      </trkpt>
      <trkpt lat="46.20725" lon="-0.26817">
        <ele>49.4</ele>
        <time>2022-04-03T17:42:57Z</time>
      </trkpt>
      <trkpt lat="46.2073" lon="-0.26819">
        <ele>49.4</ele>
        <time>2022-04-03T17:42:58Z</time>
      </trkpt>
      <trkpt lat="46.20735" lon="-0.26821">
        <ele>49.4</ele>
        <time>2022-04-03T17:42:59Z</time>
      </trkpt>
      <trkpt lat="46.2074" lon="-0.26822">
        <ele>49.4</ele>
        <time>2022-04-03T17:43:00Z</time>
      </trkpt>
      <trkpt lat="46.20746" lon="-0.26824">
        <ele>49.2</ele>
        <time>2022-04-03T17:43:01Z</time>
      </trkpt>
      <trkpt lat="46.20751" lon="-0.26826">
        <ele>49.4</ele>
        <time>2022-04-03T17:43:02Z</time>
      </trkpt>
      <trkpt lat="46.20756" lon="-0.26827">
        <ele>49.4</ele>
        <time>2022-04-03T17:43:03Z</time>
      </trkpt>
      <trkpt lat="46.20761" lon="-0.26829">
        <ele>49.4</ele>
        <time>2022-04-03T17:43:04Z</time>
      </trkpt>
      <trkpt lat="46.20767" lon="-0.2683">
        <ele>49.4</ele>
        <time>2022-04-03T17:43:05Z</time>
      </trkpt>
      <trkpt lat="46.20772" lon="-0.26831">
        <ele>49.4</ele>
        <time>2022-04-03T17:43:06Z</time>
      </trkpt>
      <trkpt lat="46.20777" lon="-0.26831">
        <ele>49.6</ele>
        <time>2022-04-03T17:43:07Z</time>
      </trkpt>
      <trkpt lat="46.20782" lon="-0.26832">
        <ele>49.6</ele>
        <time>2022-04-03T17:43:08Z</time>
      </trkpt>
      <trkpt lat="46.20787" lon="-0.26833">
        <ele>49.6</ele>
        <time>2022-04-03T17:43:09Z</time>
      </trkpt>
      <trkpt lat="46.20793" lon="-0.26834">
        <ele>49.8</ele>
        <time>2022-04-03T17:43:10Z</time>
      </trkpt>
      <trkpt lat="46.20798" lon="-0.26834">
        <ele>49.8</ele>
        <time>2022-04-03T17:43:11Z</time>
      </trkpt>
      <trkpt lat="46.20803" lon="-0.26835">
        <ele>49.8</ele>
        <time>2022-04-03T17:43:12Z</time>
      </trkpt>
      <trkpt lat="46.20807" lon="-0.26835">
        <ele>50</ele>
        <time>2022-04-03T17:43:13Z</time>
      </trkpt>
      <trkpt lat="46.20812" lon="-0.26836">
        <ele>50.2</ele>
        <time>2022-04-03T17:43:14Z</time>
      </trkpt>
      <trkpt lat="46.20817" lon="-0.26837">
        <ele>50.2</ele>
        <time>2022-04-03T17:43:15Z</time>
      </trkpt>
      <trkpt lat="46.20822" lon="-0.26837">
        <ele>50.2</ele>
        <time>2022-04-03T17:43:16Z</time>
      </trkpt>
      <trkpt lat="46.20826" lon="-0.26837">
        <ele>50.4</ele>
        <time>2022-04-03T17:43:17Z</time>
      </trkpt>
      <trkpt lat="46.20831" lon="-0.26837">
        <ele>50.4</ele>
        <time>2022-04-03T17:43:18Z</time>
      </trkpt>
      <trkpt lat="46.20836" lon="-0.26838">
        <ele>50.6</ele>
        <time>2022-04-03T17:43:19Z</time>
      </trkpt>
      <trkpt lat="46.20841" lon="-0.26838">
        <ele>50.8</ele>
        <time>2022-04-03T17:43:20Z</time>
      </trkpt>
      <trkpt lat="46.20846" lon="-0.26839">
        <ele>50.8</ele>
        <time>2022-04-03T17:43:21Z</time>
      </trkpt>
      <trkpt lat="46.2085" lon="-0.26839">
        <ele>51</ele>
        <time>2022-04-03T17:43:22Z</time>
      </trkpt>
      <trkpt lat="46.20855" lon="-0.26839">
        <ele>51</ele>
        <time>2022-04-03T17:43:23Z</time>
      </trkpt>
      <trkpt lat="46.2086" lon="-0.26839">
        <ele>51.2</ele>
        <time>2022-04-03T17:43:24Z</time>
      </trkpt>
      <trkpt lat="46.20864" lon="-0.2684">
        <ele>51.2</ele>
        <time>2022-04-03T17:43:25Z</time>
      </trkpt>
      <trkpt lat="46.20869" lon="-0.2684">
        <ele>51.4</ele>
        <time>2022-04-03T17:43:26Z</time>
      </trkpt>
      <trkpt lat="46.20873" lon="-0.26841">
        <ele>51.4</ele>
        <time>2022-04-03T17:43:27Z</time>
      </trkpt>
      <trkpt lat="46.20876" lon="-0.26842">
        <ele>51.8</ele>
        <time>2022-04-03T17:43:28Z</time>
      </trkpt>
      <trkpt lat="46.2088" lon="-0.26843">
        <ele>51.8</ele>
        <time>2022-04-03T17:43:29Z</time>
      </trkpt>
      <trkpt lat="46.20883" lon="-0.26843">
        <ele>51.8</ele>
        <time>2022-04-03T17:43:30Z</time>
      </trkpt>
      <trkpt lat="46.20886" lon="-0.26843">
        <ele>52</ele>
        <time>2022-04-03T17:43:31Z</time>
      </trkpt>
      <trkpt lat="46.2089" lon="-0.26843">
        <ele>52</ele>
        <time>2022-04-03T17:43:32Z</time>
      </trkpt>
      <trkpt lat="46.20893" lon="-0.26843">
        <ele>52.2</ele>
        <time>2022-04-03T17:43:33Z</time>
      </trkpt>
      <trkpt lat="46.20896" lon="-0.26843">
        <ele>52.2</ele>
        <time>2022-04-03T17:43:34Z</time>
      </trkpt>
      <trkpt lat="46.20899" lon="-0.26843">
        <ele>52.6</ele>
        <time>2022-04-03T17:43:35Z</time>
      </trkpt>
      <trkpt lat="46.20902" lon="-0.26843">
        <ele>52.6</ele>
        <time>2022-04-03T17:43:36Z</time>
      </trkpt>
      <trkpt lat="46.20906" lon="-0.26843">
        <ele>52.4</ele>
        <time>2022-04-03T17:43:37Z</time>
      </trkpt>
      <trkpt lat="46.20909" lon="-0.26843">
        <ele>52.4</ele>
        <time>2022-04-03T17:43:38Z</time>
      </trkpt>
      <trkpt lat="46.20913" lon="-0.26843">
        <ele>52.6</ele>
        <time>2022-04-03T17:43:39Z</time>
      </trkpt>
      <trkpt lat="46.20917" lon="-0.26843">
        <ele>52.6</ele>
        <time>2022-04-03T17:43:40Z</time>
      </trkpt>
      <trkpt lat="46.20921" lon="-0.26844">
        <ele>52.6</ele>
        <time>2022-04-03T17:43:41Z</time>
      </trkpt>
      <trkpt lat="46.20925" lon="-0.26844">
        <ele>52.6</ele>
        <time>2022-04-03T17:43:42Z</time>
      </trkpt>
      <trkpt lat="46.20929" lon="-0.26845">
        <ele>52.6</ele>
        <time>2022-04-03T17:43:43Z</time>
      </trkpt>
      <trkpt lat="46.20933" lon="-0.26846">
        <ele>52.6</ele>
        <time>2022-04-03T17:43:44Z</time>
      </trkpt>
      <trkpt lat="46.20938" lon="-0.26846">
        <ele>52.6</ele>
        <time>2022-04-03T17:43:45Z</time>
      </trkpt>
      <trkpt lat="46.20942" lon="-0.26847">
        <ele>52.6</ele>
        <time>2022-04-03T17:43:46Z</time>
      </trkpt>
      <trkpt lat="46.20946" lon="-0.26847">
        <ele>52.6</ele>
        <time>2022-04-03T17:43:47Z</time>
      </trkpt>
      <trkpt lat="46.20951" lon="-0.26847">
        <ele>52.6</ele>
        <time>2022-04-03T17:43:48Z</time>
      </trkpt>
      <trkpt lat="46.20955" lon="-0.26847">
        <ele>52.6</ele>
        <time>2022-04-03T17:43:49Z</time>
      </trkpt>
      <trkpt lat="46.20959" lon="-0.26848">
        <ele>52.6</ele>
        <time>2022-04-03T17:43:50Z</time>
      </trkpt>
      <trkpt lat="46.20964" lon="-0.26848">
        <ele>52.4</ele>
        <time>2022-04-03T17:43:51Z</time>
      </trkpt>
      <trkpt lat="46.20968" lon="-0.26848">
        <ele>52.6</ele>
        <time>2022-04-03T17:43:52Z</time>
      </trkpt>
      <trkpt lat="46.20972" lon="-0.26847">
        <ele>52.6</ele>
        <time>2022-04-03T17:43:53Z</time>
      </trkpt>
      <trkpt lat="46.20976" lon="-0.26848">
        <ele>52.8</ele>
        <time>2022-04-03T17:43:54Z</time>
      </trkpt>
      <trkpt lat="46.2098" lon="-0.26848">
        <ele>52.8</ele>
        <time>2022-04-03T17:43:55Z</time>
      </trkpt>
      <trkpt lat="46.20984" lon="-0.26848">
        <ele>53</ele>
        <time>2022-04-03T17:43:56Z</time>
      </trkpt>
      <trkpt lat="46.20988" lon="-0.26849">
        <ele>53</ele>
        <time>2022-04-03T17:43:57Z</time>
      </trkpt>
      <trkpt lat="46.20992" lon="-0.26849">
        <ele>53</ele>
        <time>2022-04-03T17:43:58Z</time>
      </trkpt>
      <trkpt lat="46.20996" lon="-0.2685">
        <ele>53.2</ele>
        <time>2022-04-03T17:43:59Z</time>
      </trkpt>
      <trkpt lat="46.21" lon="-0.26851">
        <ele>53.2</ele>
        <time>2022-04-03T17:44:00Z</time>
      </trkpt>
      <trkpt lat="46.21004" lon="-0.26852">
        <ele>53.2</ele>
        <time>2022-04-03T17:44:01Z</time>
      </trkpt>
      <trkpt lat="46.21008" lon="-0.26853">
        <ele>53.2</ele>
        <time>2022-04-03T17:44:02Z</time>
      </trkpt>
      <trkpt lat="46.21012" lon="-0.26854">
        <ele>53.4</ele>
        <time>2022-04-03T17:44:03Z</time>
      </trkpt>
      <trkpt lat="46.21016" lon="-0.26856">
        <ele>53.4</ele>
        <time>2022-04-03T17:44:04Z</time>
      </trkpt>
      <trkpt lat="46.2102" lon="-0.26857">
        <ele>53.6</ele>
        <time>2022-04-03T17:44:05Z</time>
      </trkpt>
      <trkpt lat="46.21024" lon="-0.26859">
        <ele>53.6</ele>
        <time>2022-04-03T17:44:06Z</time>
      </trkpt>
      <trkpt lat="46.21028" lon="-0.2686">
        <ele>53.6</ele>
        <time>2022-04-03T17:44:07Z</time>
      </trkpt>
      <trkpt lat="46.21032" lon="-0.26861">
        <ele>53.6</ele>
        <time>2022-04-03T17:44:08Z</time>
      </trkpt>
      <trkpt lat="46.21036" lon="-0.26862">
        <ele>53.6</ele>
        <time>2022-04-03T17:44:09Z</time>
      </trkpt>
      <trkpt lat="46.2104" lon="-0.26864">
        <ele>53.6</ele>
        <time>2022-04-03T17:44:10Z</time>
      </trkpt>
      <trkpt lat="46.21044" lon="-0.26866">
        <ele>53.8</ele>
        <time>2022-04-03T17:44:11Z</time>
      </trkpt>
      <trkpt lat="46.21048" lon="-0.26868">
        <ele>53.8</ele>
        <time>2022-04-03T17:44:12Z</time>
      </trkpt>
      <trkpt lat="46.21053" lon="-0.2687">
        <ele>53.8</ele>
        <time>2022-04-03T17:44:13Z</time>
      </trkpt>
      <trkpt lat="46.21057" lon="-0.26872">
        <ele>53.8</ele>
        <time>2022-04-03T17:44:14Z</time>
      </trkpt>
      <trkpt lat="46.21061" lon="-0.26874">
        <ele>54</ele>
        <time>2022-04-03T17:44:15Z</time>
      </trkpt>
      <trkpt lat="46.21065" lon="-0.26876">
        <ele>54</ele>
        <time>2022-04-03T17:44:16Z</time>
      </trkpt>
      <trkpt lat="46.2107" lon="-0.26878">
        <ele>54</ele>
        <time>2022-04-03T17:44:17Z</time>
      </trkpt>
      <trkpt lat="46.21074" lon="-0.2688">
        <ele>54</ele>
        <time>2022-04-03T17:44:18Z</time>
      </trkpt>
      <trkpt lat="46.21079" lon="-0.26882">
        <ele>54.2</ele>
        <time>2022-04-03T17:44:19Z</time>
      </trkpt>
      <trkpt lat="46.21083" lon="-0.26884">
        <ele>54.2</ele>
        <time>2022-04-03T17:44:20Z</time>
      </trkpt>
      <trkpt lat="46.21087" lon="-0.26886">
        <ele>54.2</ele>
        <time>2022-04-03T17:44:21Z</time>
      </trkpt>
      <trkpt lat="46.21091" lon="-0.26889">
        <ele>54.2</ele>
        <time>2022-04-03T17:44:22Z</time>
      </trkpt>
      <trkpt lat="46.21095" lon="-0.26891">
        <ele>54.4</ele>
        <time>2022-04-03T17:44:23Z</time>
      </trkpt>
      <trkpt lat="46.21099" lon="-0.26894">
        <ele>54.2</ele>
        <time>2022-04-03T17:44:24Z</time>
      </trkpt>
      <trkpt lat="46.21103" lon="-0.26897">
        <ele>54.2</ele>
        <time>2022-04-03T17:44:25Z</time>
      </trkpt>
      <trkpt lat="46.21107" lon="-0.269">
        <ele>54.4</ele>
        <time>2022-04-03T17:44:26Z</time>
      </trkpt>
      <trkpt lat="46.21112" lon="-0.26903">
        <ele>54.4</ele>
        <time>2022-04-03T17:44:27Z</time>
      </trkpt>
      <trkpt lat="46.21117" lon="-0.26906">
        <ele>54.4</ele>
        <time>2022-04-03T17:44:28Z</time>
      </trkpt>
      <trkpt lat="46.21121" lon="-0.2691">
        <ele>54.2</ele>
        <time>2022-04-03T17:44:29Z</time>
      </trkpt>
      <trkpt lat="46.21126" lon="-0.26914">
        <ele>54.2</ele>
        <time>2022-04-03T17:44:30Z</time>
      </trkpt>
      <trkpt lat="46.21131" lon="-0.26919">
        <ele>54</ele>
        <time>2022-04-03T17:44:31Z</time>
      </trkpt>
      <trkpt lat="46.21136" lon="-0.26924">
        <ele>53.8</ele>
        <time>2022-04-03T17:44:32Z</time>
      </trkpt>
      <trkpt lat="46.21141" lon="-0.26929">
        <ele>53.6</ele>
        <time>2022-04-03T17:44:33Z</time>
      </trkpt>
      <trkpt lat="46.21146" lon="-0.26933">
        <ele>53.4</ele>
        <time>2022-04-03T17:44:34Z</time>
      </trkpt>
      <trkpt lat="46.2115" lon="-0.26938">
        <ele>53.2</ele>
        <time>2022-04-03T17:44:35Z</time>
      </trkpt>
      <trkpt lat="46.21155" lon="-0.26942">
        <ele>53.2</ele>
        <time>2022-04-03T17:44:36Z</time>
      </trkpt>
      <trkpt lat="46.2116" lon="-0.26947">
        <ele>53</ele>
        <time>2022-04-03T17:44:37Z</time>
      </trkpt>
      <trkpt lat="46.21165" lon="-0.26952">
        <ele>52.6</ele>
        <time>2022-04-03T17:44:38Z</time>
      </trkpt>
      <trkpt lat="46.21169" lon="-0.26957">
        <ele>52.6</ele>
        <time>2022-04-03T17:44:39Z</time>
      </trkpt>
      <trkpt lat="46.21174" lon="-0.26963">
        <ele>52.4</ele>
        <time>2022-04-03T17:44:40Z</time>
      </trkpt>
      <trkpt lat="46.21178" lon="-0.26969">
        <ele>52</ele>
        <time>2022-04-03T17:44:41Z</time>
      </trkpt>
      <trkpt lat="46.21183" lon="-0.26976">
        <ele>51.8</ele>
        <time>2022-04-03T17:44:42Z</time>
      </trkpt>
      <trkpt lat="46.21187" lon="-0.26982">
        <ele>51.4</ele>
        <time>2022-04-03T17:44:43Z</time>
      </trkpt>
      <trkpt lat="46.21191" lon="-0.26989">
        <ele>51</ele>
        <time>2022-04-03T17:44:44Z</time>
      </trkpt>
      <trkpt lat="46.21195" lon="-0.26997">
        <ele>50.8</ele>
        <time>2022-04-03T17:44:45Z</time>
      </trkpt>
      <trkpt lat="46.21199" lon="-0.27004">
        <ele>50.6</ele>
        <time>2022-04-03T17:44:46Z</time>
      </trkpt>
      <trkpt lat="46.21204" lon="-0.27011">
        <ele>50.6</ele>
        <time>2022-04-03T17:44:47Z</time>
      </trkpt>
      <trkpt lat="46.21208" lon="-0.27018">
        <ele>50.6</ele>
        <time>2022-04-03T17:44:48Z</time>
      </trkpt>
      <trkpt lat="46.21212" lon="-0.27026">
        <ele>50.2</ele>
        <time>2022-04-03T17:44:49Z</time>
      </trkpt>
      <trkpt lat="46.21215" lon="-0.27034">
        <ele>50</ele>
        <time>2022-04-03T17:44:50Z</time>
      </trkpt>
      <trkpt lat="46.21219" lon="-0.27042">
        <ele>50</ele>
        <time>2022-04-03T17:44:51Z</time>
      </trkpt>
      <trkpt lat="46.21222" lon="-0.2705">
        <ele>49.8</ele>
        <time>2022-04-03T17:44:52Z</time>
      </trkpt>
      <trkpt lat="46.21226" lon="-0.27058">
        <ele>49.6</ele>
        <time>2022-04-03T17:44:53Z</time>
      </trkpt>
      <trkpt lat="46.2123" lon="-0.27066">
        <ele>48.8</ele>
        <time>2022-04-03T17:44:54Z</time>
      </trkpt>
      <trkpt lat="46.21233" lon="-0.27075">
        <ele>48.4</ele>
        <time>2022-04-03T17:44:55Z</time>
      </trkpt>
      <trkpt lat="46.21236" lon="-0.27083">
        <ele>48.4</ele>
        <time>2022-04-03T17:44:56Z</time>
      </trkpt>
      <trkpt lat="46.21239" lon="-0.27092">
        <ele>48.4</ele>
        <time>2022-04-03T17:44:57Z</time>
      </trkpt>
      <trkpt lat="46.21242" lon="-0.271">
        <ele>48</ele>
        <time>2022-04-03T17:44:58Z</time>
      </trkpt>
      <trkpt lat="46.21246" lon="-0.27108">
        <ele>48</ele>
        <time>2022-04-03T17:44:59Z</time>
      </trkpt>
      <trkpt lat="46.2125" lon="-0.27116">
        <ele>47.2</ele>
        <time>2022-04-03T17:45:00Z</time>
      </trkpt>
      <trkpt lat="46.21253" lon="-0.27124">
        <ele>46.8</ele>
        <time>2022-04-03T17:45:01Z</time>
      </trkpt>
      <trkpt lat="46.21257" lon="-0.27132">
        <ele>46</ele>
        <time>2022-04-03T17:45:02Z</time>
      </trkpt>
      <trkpt lat="46.2126" lon="-0.2714">
        <ele>45.4</ele>
        <time>2022-04-03T17:45:03Z</time>
      </trkpt>
      <trkpt lat="46.21264" lon="-0.27148">
        <ele>45.4</ele>
        <time>2022-04-03T17:45:04Z</time>
      </trkpt>
      <trkpt lat="46.21267" lon="-0.27156">
        <ele>45.2</ele>
        <time>2022-04-03T17:45:05Z</time>
      </trkpt>
      <trkpt lat="46.2127" lon="-0.27165">
        <ele>45.2</ele>
        <time>2022-04-03T17:45:06Z</time>
      </trkpt>
      <trkpt lat="46.21273" lon="-0.27173">
        <ele>45</ele>
        <time>2022-04-03T17:45:07Z</time>
      </trkpt>
      <trkpt lat="46.21277" lon="-0.27182">
        <ele>44.8</ele>
        <time>2022-04-03T17:45:08Z</time>
      </trkpt>
      <trkpt lat="46.2128" lon="-0.27191">
        <ele>44.6</ele>
        <time>2022-04-03T17:45:09Z</time>
      </trkpt>
      <trkpt lat="46.21284" lon="-0.272">
        <ele>44.6</ele>
        <time>2022-04-03T17:45:10Z</time>
      </trkpt>
      <trkpt lat="46.21287" lon="-0.27208">
        <ele>44.4</ele>
        <time>2022-04-03T17:45:11Z</time>
      </trkpt>
      <trkpt lat="46.21291" lon="-0.27217">
        <ele>44</ele>
        <time>2022-04-03T17:45:12Z</time>
      </trkpt>
      <trkpt lat="46.21294" lon="-0.27226">
        <ele>44.2</ele>
        <time>2022-04-03T17:45:13Z</time>
      </trkpt>
      <trkpt lat="46.21298" lon="-0.27234">
        <ele>44</ele>
        <time>2022-04-03T17:45:14Z</time>
      </trkpt>
      <trkpt lat="46.21302" lon="-0.27243">
        <ele>44</ele>
        <time>2022-04-03T17:45:15Z</time>
      </trkpt>
      <trkpt lat="46.21305" lon="-0.27251">
        <ele>44</ele>
        <time>2022-04-03T17:45:16Z</time>
      </trkpt>
      <trkpt lat="46.21309" lon="-0.2726">
        <ele>43.6</ele>
        <time>2022-04-03T17:45:17Z</time>
      </trkpt>
      <trkpt lat="46.21312" lon="-0.27268">
        <ele>43.6</ele>
        <time>2022-04-03T17:45:18Z</time>
      </trkpt>
      <trkpt lat="46.21316" lon="-0.27277">
        <ele>43.4</ele>
        <time>2022-04-03T17:45:19Z</time>
      </trkpt>
      <trkpt lat="46.21319" lon="-0.27285">
        <ele>43.2</ele>
        <time>2022-04-03T17:45:20Z</time>
      </trkpt>
      <trkpt lat="46.21323" lon="-0.27293">
        <ele>43.2</ele>
        <time>2022-04-03T17:45:21Z</time>
      </trkpt>
      <trkpt lat="46.21326" lon="-0.27301">
        <ele>43.4</ele>
        <time>2022-04-03T17:45:22Z</time>
      </trkpt>
      <trkpt lat="46.2133" lon="-0.27309">
        <ele>43</ele>
        <time>2022-04-03T17:45:23Z</time>
      </trkpt>
      <trkpt lat="46.21333" lon="-0.27317">
        <ele>43</ele>
        <time>2022-04-03T17:45:24Z</time>
      </trkpt>
      <trkpt lat="46.21336" lon="-0.27324">
        <ele>42.8</ele>
        <time>2022-04-03T17:45:25Z</time>
      </trkpt>
      <trkpt lat="46.2134" lon="-0.27332">
        <ele>42.8</ele>
        <time>2022-04-03T17:45:26Z</time>
      </trkpt>
      <trkpt lat="46.21343" lon="-0.27339">
        <ele>42.6</ele>
        <time>2022-04-03T17:45:27Z</time>
      </trkpt>
      <trkpt lat="46.21346" lon="-0.27347">
        <ele>42.6</ele>
        <time>2022-04-03T17:45:28Z</time>
      </trkpt>
      <trkpt lat="46.21349" lon="-0.27354">
        <ele>42.6</ele>
        <time>2022-04-03T17:45:29Z</time>
      </trkpt>
      <trkpt lat="46.21352" lon="-0.27362">
        <ele>42.8</ele>
        <time>2022-04-03T17:45:30Z</time>
      </trkpt>
      <trkpt lat="46.21355" lon="-0.27369">
        <ele>42.8</ele>
        <time>2022-04-03T17:45:31Z</time>
      </trkpt>
      <trkpt lat="46.21358" lon="-0.27376">
        <ele>42.8</ele>
        <time>2022-04-03T17:45:32Z</time>
      </trkpt>
      <trkpt lat="46.21361" lon="-0.27383">
        <ele>42.6</ele>
        <time>2022-04-03T17:45:33Z</time>
      </trkpt>
      <trkpt lat="46.21364" lon="-0.2739">
        <ele>42.6</ele>
        <time>2022-04-03T17:45:34Z</time>
      </trkpt>
      <trkpt lat="46.21366" lon="-0.27398">
        <ele>42.6</ele>
        <time>2022-04-03T17:45:35Z</time>
      </trkpt>
      <trkpt lat="46.21369" lon="-0.27405">
        <ele>42.8</ele>
        <time>2022-04-03T17:45:36Z</time>
      </trkpt>
      <trkpt lat="46.21372" lon="-0.27412">
        <ele>43</ele>
        <time>2022-04-03T17:45:37Z</time>
      </trkpt>
      <trkpt lat="46.21375" lon="-0.27419">
        <ele>43</ele>
        <time>2022-04-03T17:45:38Z</time>
      </trkpt>
      <trkpt lat="46.21378" lon="-0.27426">
        <ele>43.2</ele>
        <time>2022-04-03T17:45:39Z</time>
      </trkpt>
      <trkpt lat="46.2138" lon="-0.27433">
        <ele>43.2</ele>
        <time>2022-04-03T17:45:40Z</time>
      </trkpt>
      <trkpt lat="46.21383" lon="-0.2744">
        <ele>43</ele>
        <time>2022-04-03T17:45:41Z</time>
      </trkpt>
      <trkpt lat="46.21387" lon="-0.27447">
        <ele>43.2</ele>
        <time>2022-04-03T17:45:42Z</time>
      </trkpt>
      <trkpt lat="46.2139" lon="-0.27455">
        <ele>43.4</ele>
        <time>2022-04-03T17:45:43Z</time>
      </trkpt>
      <trkpt lat="46.21392" lon="-0.27462">
        <ele>43.4</ele>
        <time>2022-04-03T17:45:44Z</time>
      </trkpt>
      <trkpt lat="46.21395" lon="-0.2747">
        <ele>43.4</ele>
        <time>2022-04-03T17:45:45Z</time>
      </trkpt>
      <trkpt lat="46.21398" lon="-0.27478">
        <ele>43.4</ele>
        <time>2022-04-03T17:45:46Z</time>
      </trkpt>
      <trkpt lat="46.21401" lon="-0.27485">
        <ele>43.6</ele>
        <time>2022-04-03T17:45:47Z</time>
      </trkpt>
      <trkpt lat="46.21404" lon="-0.27493">
        <ele>43.6</ele>
        <time>2022-04-03T17:45:48Z</time>
      </trkpt>
      <trkpt lat="46.21407" lon="-0.275">
        <ele>43.6</ele>
        <time>2022-04-03T17:45:49Z</time>
      </trkpt>
      <trkpt lat="46.2141" lon="-0.27508">
        <ele>43.6</ele>
        <time>2022-04-03T17:45:50Z</time>
      </trkpt>
      <trkpt lat="46.21413" lon="-0.27516">
        <ele>43.6</ele>
        <time>2022-04-03T17:45:51Z</time>
      </trkpt>
      <trkpt lat="46.21416" lon="-0.27524">
        <ele>43.4</ele>
        <time>2022-04-03T17:45:52Z</time>
      </trkpt>
      <trkpt lat="46.21418" lon="-0.27531">
        <ele>43.6</ele>
        <time>2022-04-03T17:45:53Z</time>
      </trkpt>
      <trkpt lat="46.21421" lon="-0.27539">
        <ele>43.6</ele>
        <time>2022-04-03T17:45:54Z</time>
      </trkpt>
      <trkpt lat="46.21423" lon="-0.27547">
        <ele>43.4</ele>
        <time>2022-04-03T17:45:55Z</time>
      </trkpt>
      <trkpt lat="46.21425" lon="-0.27555">
        <ele>43.6</ele>
        <time>2022-04-03T17:45:56Z</time>
      </trkpt>
      <trkpt lat="46.21428" lon="-0.27563">
        <ele>43.4</ele>
        <time>2022-04-03T17:45:57Z</time>
      </trkpt>
      <trkpt lat="46.2143" lon="-0.27571">
        <ele>43.4</ele>
        <time>2022-04-03T17:45:58Z</time>
      </trkpt>
      <trkpt lat="46.21431" lon="-0.2758">
        <ele>43.4</ele>
        <time>2022-04-03T17:45:59Z</time>
      </trkpt>
      <trkpt lat="46.21433" lon="-0.27588">
        <ele>43.2</ele>
        <time>2022-04-03T17:46:00Z</time>
      </trkpt>
      <trkpt lat="46.21435" lon="-0.27596">
        <ele>43.2</ele>
        <time>2022-04-03T17:46:01Z</time>
      </trkpt>
      <trkpt lat="46.21436" lon="-0.27605">
        <ele>43.2</ele>
        <time>2022-04-03T17:46:02Z</time>
      </trkpt>
      <trkpt lat="46.21437" lon="-0.27613">
        <ele>43.2</ele>
        <time>2022-04-03T17:46:03Z</time>
      </trkpt>
      <trkpt lat="46.21439" lon="-0.27621">
        <ele>43.2</ele>
        <time>2022-04-03T17:46:04Z</time>
      </trkpt>
      <trkpt lat="46.2144" lon="-0.2763">
        <ele>43</ele>
        <time>2022-04-03T17:46:05Z</time>
      </trkpt>
      <trkpt lat="46.21441" lon="-0.27638">
        <ele>43</ele>
        <time>2022-04-03T17:46:06Z</time>
      </trkpt>
      <trkpt lat="46.21443" lon="-0.27646">
        <ele>42.8</ele>
        <time>2022-04-03T17:46:07Z</time>
      </trkpt>
      <trkpt lat="46.21444" lon="-0.27654">
        <ele>43</ele>
        <time>2022-04-03T17:46:08Z</time>
      </trkpt>
      <trkpt lat="46.21445" lon="-0.27662">
        <ele>42.8</ele>
        <time>2022-04-03T17:46:09Z</time>
      </trkpt>
      <trkpt lat="46.21446" lon="-0.27671">
        <ele>42.8</ele>
        <time>2022-04-03T17:46:10Z</time>
      </trkpt>
      <trkpt lat="46.21446" lon="-0.27679">
        <ele>43</ele>
        <time>2022-04-03T17:46:11Z</time>
      </trkpt>
      <trkpt lat="46.21447" lon="-0.27688">
        <ele>42.8</ele>
        <time>2022-04-03T17:46:12Z</time>
      </trkpt>
      <trkpt lat="46.21447" lon="-0.27697">
        <ele>42.8</ele>
        <time>2022-04-03T17:46:13Z</time>
      </trkpt>
      <trkpt lat="46.21448" lon="-0.27705">
        <ele>42.8</ele>
        <time>2022-04-03T17:46:14Z</time>
      </trkpt>
      <trkpt lat="46.21448" lon="-0.27714">
        <ele>42.8</ele>
        <time>2022-04-03T17:46:15Z</time>
      </trkpt>
      <trkpt lat="46.21449" lon="-0.27722">
        <ele>43</ele>
        <time>2022-04-03T17:46:16Z</time>
      </trkpt>
      <trkpt lat="46.21449" lon="-0.27731">
        <ele>42.8</ele>
        <time>2022-04-03T17:46:17Z</time>
      </trkpt>
      <trkpt lat="46.2145" lon="-0.2774">
        <ele>42.8</ele>
        <time>2022-04-03T17:46:18Z</time>
      </trkpt>
      <trkpt lat="46.2145" lon="-0.27748">
        <ele>42.8</ele>
        <time>2022-04-03T17:46:19Z</time>
      </trkpt>
      <trkpt lat="46.21451" lon="-0.27757">
        <ele>42.8</ele>
        <time>2022-04-03T17:46:20Z</time>
      </trkpt>
      <trkpt lat="46.21451" lon="-0.27765">
        <ele>42.8</ele>
        <time>2022-04-03T17:46:21Z</time>
      </trkpt>
      <trkpt lat="46.21452" lon="-0.27774">
        <ele>42.8</ele>
        <time>2022-04-03T17:46:22Z</time>
      </trkpt>
      <trkpt lat="46.21453" lon="-0.27782">
        <ele>43</ele>
        <time>2022-04-03T17:46:23Z</time>
      </trkpt>
      <trkpt lat="46.21453" lon="-0.27791">
        <ele>42.8</ele>
        <time>2022-04-03T17:46:24Z</time>
      </trkpt>
      <trkpt lat="46.21454" lon="-0.27799">
        <ele>43</ele>
        <time>2022-04-03T17:46:25Z</time>
      </trkpt>
      <trkpt lat="46.21455" lon="-0.27808">
        <ele>43</ele>
        <time>2022-04-03T17:46:26Z</time>
      </trkpt>
      <trkpt lat="46.21455" lon="-0.27816">
        <ele>43</ele>
        <time>2022-04-03T17:46:27Z</time>
      </trkpt>
      <trkpt lat="46.21455" lon="-0.27824">
        <ele>43</ele>
        <time>2022-04-03T17:46:28Z</time>
      </trkpt>
      <trkpt lat="46.21455" lon="-0.27832">
        <ele>43</ele>
        <time>2022-04-03T17:46:29Z</time>
      </trkpt>
      <trkpt lat="46.21456" lon="-0.2784">
        <ele>43</ele>
        <time>2022-04-03T17:46:30Z</time>
      </trkpt>
      <trkpt lat="46.21457" lon="-0.27848">
        <ele>43.2</ele>
        <time>2022-04-03T17:46:31Z</time>
      </trkpt>
      <trkpt lat="46.21457" lon="-0.27856">
        <ele>43.2</ele>
        <time>2022-04-03T17:46:32Z</time>
      </trkpt>
      <trkpt lat="46.21458" lon="-0.27864">
        <ele>43.2</ele>
        <time>2022-04-03T17:46:33Z</time>
      </trkpt>
      <trkpt lat="46.21459" lon="-0.27872">
        <ele>43.4</ele>
        <time>2022-04-03T17:46:34Z</time>
      </trkpt>
      <trkpt lat="46.21459" lon="-0.27881">
        <ele>43.4</ele>
        <time>2022-04-03T17:46:35Z</time>
      </trkpt>
      <trkpt lat="46.2146" lon="-0.27889">
        <ele>43.6</ele>
        <time>2022-04-03T17:46:36Z</time>
      </trkpt>
      <trkpt lat="46.2146" lon="-0.27898">
        <ele>43.6</ele>
        <time>2022-04-03T17:46:37Z</time>
      </trkpt>
      <trkpt lat="46.21461" lon="-0.27906">
        <ele>43.8</ele>
        <time>2022-04-03T17:46:38Z</time>
      </trkpt>
      <trkpt lat="46.21462" lon="-0.27914">
        <ele>43.8</ele>
        <time>2022-04-03T17:46:39Z</time>
      </trkpt>
      <trkpt lat="46.21463" lon="-0.27923">
        <ele>43.8</ele>
        <time>2022-04-03T17:46:40Z</time>
      </trkpt>
      <trkpt lat="46.21464" lon="-0.27931">
        <ele>44</ele>
        <time>2022-04-03T17:46:41Z</time>
      </trkpt>
      <trkpt lat="46.21465" lon="-0.2794">
        <ele>43.8</ele>
        <time>2022-04-03T17:46:42Z</time>
      </trkpt>
      <trkpt lat="46.21466" lon="-0.27949">
        <ele>44</ele>
        <time>2022-04-03T17:46:43Z</time>
      </trkpt>
      <trkpt lat="46.21468" lon="-0.27958">
        <ele>44</ele>
        <time>2022-04-03T17:46:44Z</time>
      </trkpt>
      <trkpt lat="46.2147" lon="-0.27966">
        <ele>43.8</ele>
        <time>2022-04-03T17:46:45Z</time>
      </trkpt>
      <trkpt lat="46.21472" lon="-0.27975">
        <ele>43.8</ele>
        <time>2022-04-03T17:46:46Z</time>
      </trkpt>
      <trkpt lat="46.21474" lon="-0.27983">
        <ele>44</ele>
        <time>2022-04-03T17:46:47Z</time>
      </trkpt>
      <trkpt lat="46.21477" lon="-0.27992">
        <ele>44</ele>
        <time>2022-04-03T17:46:48Z</time>
      </trkpt>
      <trkpt lat="46.21479" lon="-0.28">
        <ele>44</ele>
        <time>2022-04-03T17:46:49Z</time>
      </trkpt>
      <trkpt lat="46.21481" lon="-0.28009">
        <ele>44</ele>
        <time>2022-04-03T17:46:50Z</time>
      </trkpt>
      <trkpt lat="46.21484" lon="-0.28017">
        <ele>44</ele>
        <time>2022-04-03T17:46:51Z</time>
      </trkpt>
      <trkpt lat="46.21487" lon="-0.28025">
        <ele>43.8</ele>
        <time>2022-04-03T17:46:52Z</time>
      </trkpt>
      <trkpt lat="46.2149" lon="-0.28034">
        <ele>44</ele>
        <time>2022-04-03T17:46:53Z</time>
      </trkpt>
      <trkpt lat="46.21493" lon="-0.28042">
        <ele>44</ele>
        <time>2022-04-03T17:46:54Z</time>
      </trkpt>
      <trkpt lat="46.21496" lon="-0.2805">
        <ele>44</ele>
        <time>2022-04-03T17:46:55Z</time>
      </trkpt>
      <trkpt lat="46.215" lon="-0.28058">
        <ele>43.8</ele>
        <time>2022-04-03T17:46:56Z</time>
      </trkpt>
      <trkpt lat="46.21504" lon="-0.28066">
        <ele>43.6</ele>
        <time>2022-04-03T17:46:57Z</time>
      </trkpt>
      <trkpt lat="46.21507" lon="-0.28074">
        <ele>43.6</ele>
        <time>2022-04-03T17:46:58Z</time>
      </trkpt>
      <trkpt lat="46.21512" lon="-0.28081">
        <ele>43.6</ele>
        <time>2022-04-03T17:46:59Z</time>
      </trkpt>
      <trkpt lat="46.21516" lon="-0.28089">
        <ele>43.4</ele>
        <time>2022-04-03T17:47:00Z</time>
      </trkpt>
      <trkpt lat="46.21521" lon="-0.28096">
        <ele>43.2</ele>
        <time>2022-04-03T17:47:01Z</time>
      </trkpt>
      <trkpt lat="46.21525" lon="-0.28103">
        <ele>43</ele>
        <time>2022-04-03T17:47:02Z</time>
      </trkpt>
      <trkpt lat="46.21529" lon="-0.2811">
        <ele>43</ele>
        <time>2022-04-03T17:47:03Z</time>
      </trkpt>
      <trkpt lat="46.21534" lon="-0.28117">
        <ele>43</ele>
        <time>2022-04-03T17:47:04Z</time>
      </trkpt>
      <trkpt lat="46.21538" lon="-0.28124">
        <ele>42.6</ele>
        <time>2022-04-03T17:47:05Z</time>
      </trkpt>
      <trkpt lat="46.21543" lon="-0.28131">
        <ele>42.4</ele>
        <time>2022-04-03T17:47:06Z</time>
      </trkpt>
      <trkpt lat="46.21547" lon="-0.28137">
        <ele>42.4</ele>
        <time>2022-04-03T17:47:07Z</time>
      </trkpt>
      <trkpt lat="46.21551" lon="-0.28144">
        <ele>42.2</ele>
        <time>2022-04-03T17:47:08Z</time>
      </trkpt>
      <trkpt lat="46.21555" lon="-0.28151">
        <ele>42.2</ele>
        <time>2022-04-03T17:47:09Z</time>
      </trkpt>
      <trkpt lat="46.2156" lon="-0.28157">
        <ele>42.2</ele>
        <time>2022-04-03T17:47:10Z</time>
      </trkpt>
      <trkpt lat="46.21564" lon="-0.28164">
        <ele>42.2</ele>
        <time>2022-04-03T17:47:11Z</time>
      </trkpt>
      <trkpt lat="46.21568" lon="-0.2817">
        <ele>41.8</ele>
        <time>2022-04-03T17:47:12Z</time>
      </trkpt>
      <trkpt lat="46.21573" lon="-0.28176">
        <ele>41.8</ele>
        <time>2022-04-03T17:47:13Z</time>
      </trkpt>
      <trkpt lat="46.21577" lon="-0.28182">
        <ele>41.8</ele>
        <time>2022-04-03T17:47:14Z</time>
      </trkpt>
      <trkpt lat="46.21581" lon="-0.28189">
        <ele>41.8</ele>
        <time>2022-04-03T17:47:15Z</time>
      </trkpt>
      <trkpt lat="46.21586" lon="-0.28195">
        <ele>42</ele>
        <time>2022-04-03T17:47:16Z</time>
      </trkpt>
      <trkpt lat="46.2159" lon="-0.28201">
        <ele>42</ele>
        <time>2022-04-03T17:47:17Z</time>
      </trkpt>
      <trkpt lat="46.21594" lon="-0.28207">
        <ele>41.8</ele>
        <time>2022-04-03T17:47:18Z</time>
      </trkpt>
      <trkpt lat="46.21599" lon="-0.28213">
        <ele>41.8</ele>
        <time>2022-04-03T17:47:19Z</time>
      </trkpt>
      <trkpt lat="46.21603" lon="-0.2822">
        <ele>41.8</ele>
        <time>2022-04-03T17:47:20Z</time>
      </trkpt>
      <trkpt lat="46.21607" lon="-0.28226">
        <ele>42</ele>
        <time>2022-04-03T17:47:21Z</time>
      </trkpt>
      <trkpt lat="46.21611" lon="-0.28233">
        <ele>42</ele>
        <time>2022-04-03T17:47:22Z</time>
      </trkpt>
      <trkpt lat="46.21615" lon="-0.28239">
        <ele>42</ele>
        <time>2022-04-03T17:47:23Z</time>
      </trkpt>
      <trkpt lat="46.21619" lon="-0.28246">
        <ele>42</ele>
        <time>2022-04-03T17:47:24Z</time>
      </trkpt>
      <trkpt lat="46.21623" lon="-0.28252">
        <ele>42</ele>
        <time>2022-04-03T17:47:25Z</time>
      </trkpt>
      <trkpt lat="46.21627" lon="-0.28258">
        <ele>42</ele>
        <time>2022-04-03T17:47:26Z</time>
      </trkpt>
      <trkpt lat="46.21631" lon="-0.28264">
        <ele>42.2</ele>
        <time>2022-04-03T17:47:27Z</time>
      </trkpt>
      <trkpt lat="46.21635" lon="-0.28271">
        <ele>42.2</ele>
        <time>2022-04-03T17:47:28Z</time>
      </trkpt>
      <trkpt lat="46.21639" lon="-0.28277">
        <ele>42.2</ele>
        <time>2022-04-03T17:47:29Z</time>
      </trkpt>
      <trkpt lat="46.21643" lon="-0.28284">
        <ele>42.2</ele>
        <time>2022-04-03T17:47:30Z</time>
      </trkpt>
      <trkpt lat="46.21647" lon="-0.2829">
        <ele>42.2</ele>
        <time>2022-04-03T17:47:31Z</time>
      </trkpt>
      <trkpt lat="46.2165" lon="-0.28297">
        <ele>42.2</ele>
        <time>2022-04-03T17:47:32Z</time>
      </trkpt>
      <trkpt lat="46.21654" lon="-0.28304">
        <ele>42.4</ele>
        <time>2022-04-03T17:47:33Z</time>
      </trkpt>
      <trkpt lat="46.21658" lon="-0.2831">
        <ele>42.6</ele>
        <time>2022-04-03T17:47:34Z</time>
      </trkpt>
      <trkpt lat="46.21662" lon="-0.28316">
        <ele>42.6</ele>
        <time>2022-04-03T17:47:35Z</time>
      </trkpt>
      <trkpt lat="46.21665" lon="-0.28323">
        <ele>42.6</ele>
        <time>2022-04-03T17:47:36Z</time>
      </trkpt>
      <trkpt lat="46.21669" lon="-0.28329">
        <ele>42.6</ele>
        <time>2022-04-03T17:47:37Z</time>
      </trkpt>
      <trkpt lat="46.21673" lon="-0.28335">
        <ele>42.6</ele>
        <time>2022-04-03T17:47:38Z</time>
      </trkpt>
      <trkpt lat="46.21677" lon="-0.28342">
        <ele>42.8</ele>
        <time>2022-04-03T17:47:39Z</time>
      </trkpt>
      <trkpt lat="46.21681" lon="-0.28348">
        <ele>42.8</ele>
        <time>2022-04-03T17:47:40Z</time>
      </trkpt>
      <trkpt lat="46.21685" lon="-0.28354">
        <ele>42.8</ele>
        <time>2022-04-03T17:47:41Z</time>
      </trkpt>
      <trkpt lat="46.21689" lon="-0.28361">
        <ele>43</ele>
        <time>2022-04-03T17:47:42Z</time>
      </trkpt>
      <trkpt lat="46.21692" lon="-0.28367">
        <ele>42.8</ele>
        <time>2022-04-03T17:47:43Z</time>
      </trkpt>
      <trkpt lat="46.21696" lon="-0.28373">
        <ele>42.8</ele>
        <time>2022-04-03T17:47:44Z</time>
      </trkpt>
      <trkpt lat="46.217" lon="-0.28379">
        <ele>42.8</ele>
        <time>2022-04-03T17:47:45Z</time>
      </trkpt>
      <trkpt lat="46.21704" lon="-0.28386">
        <ele>42.8</ele>
        <time>2022-04-03T17:47:46Z</time>
      </trkpt>
      <trkpt lat="46.21707" lon="-0.28392">
        <ele>42.8</ele>
        <time>2022-04-03T17:47:47Z</time>
      </trkpt>
      <trkpt lat="46.21711" lon="-0.28398">
        <ele>42.8</ele>
        <time>2022-04-03T17:47:48Z</time>
      </trkpt>
      <trkpt lat="46.21715" lon="-0.28404">
        <ele>43</ele>
        <time>2022-04-03T17:47:49Z</time>
      </trkpt>
      <trkpt lat="46.21718" lon="-0.2841">
        <ele>43</ele>
        <time>2022-04-03T17:47:50Z</time>
      </trkpt>
      <trkpt lat="46.21722" lon="-0.28417">
        <ele>43</ele>
        <time>2022-04-03T17:47:51Z</time>
      </trkpt>
      <trkpt lat="46.21726" lon="-0.28423">
        <ele>42.8</ele>
        <time>2022-04-03T17:47:52Z</time>
      </trkpt>
      <trkpt lat="46.2173" lon="-0.28429">
        <ele>42.8</ele>
        <time>2022-04-03T17:47:53Z</time>
      </trkpt>
      <trkpt lat="46.21733" lon="-0.28435">
        <ele>42.6</ele>
        <time>2022-04-03T17:47:54Z</time>
      </trkpt>
      <trkpt lat="46.21737" lon="-0.28442">
        <ele>42.6</ele>
        <time>2022-04-03T17:47:55Z</time>
      </trkpt>
      <trkpt lat="46.21741" lon="-0.28448">
        <ele>42.4</ele>
        <time>2022-04-03T17:47:56Z</time>
      </trkpt>
      <trkpt lat="46.21745" lon="-0.28454">
        <ele>42.4</ele>
        <time>2022-04-03T17:47:57Z</time>
      </trkpt>
      <trkpt lat="46.21749" lon="-0.2846">
        <ele>42.4</ele>
        <time>2022-04-03T17:47:58Z</time>
      </trkpt>
      <trkpt lat="46.21752" lon="-0.28467">
        <ele>42.2</ele>
        <time>2022-04-03T17:47:59Z</time>
      </trkpt>
      <trkpt lat="46.21756" lon="-0.28473">
        <ele>42.2</ele>
        <time>2022-04-03T17:48:00Z</time>
      </trkpt>
      <trkpt lat="46.2176" lon="-0.2848">
        <ele>42</ele>
        <time>2022-04-03T17:48:01Z</time>
      </trkpt>
      <trkpt lat="46.21764" lon="-0.28486">
        <ele>42.2</ele>
        <time>2022-04-03T17:48:02Z</time>
      </trkpt>
      <trkpt lat="46.21768" lon="-0.28492">
        <ele>42.2</ele>
        <time>2022-04-03T17:48:03Z</time>
      </trkpt>
      <trkpt lat="46.21772" lon="-0.28499">
        <ele>42.2</ele>
        <time>2022-04-03T17:48:04Z</time>
      </trkpt>
      <trkpt lat="46.21775" lon="-0.28505">
        <ele>42.4</ele>
        <time>2022-04-03T17:48:05Z</time>
      </trkpt>
      <trkpt lat="46.21779" lon="-0.28511">
        <ele>42.4</ele>
        <time>2022-04-03T17:48:06Z</time>
      </trkpt>
      <trkpt lat="46.21783" lon="-0.28517">
        <ele>42.4</ele>
        <time>2022-04-03T17:48:07Z</time>
      </trkpt>
      <trkpt lat="46.21787" lon="-0.28523">
        <ele>42.2</ele>
        <time>2022-04-03T17:48:08Z</time>
      </trkpt>
      <trkpt lat="46.21791" lon="-0.28529">
        <ele>42.4</ele>
        <time>2022-04-03T17:48:09Z</time>
      </trkpt>
      <trkpt lat="46.21795" lon="-0.28536">
        <ele>42.4</ele>
        <time>2022-04-03T17:48:10Z</time>
      </trkpt>
      <trkpt lat="46.21799" lon="-0.28542">
        <ele>42.4</ele>
        <time>2022-04-03T17:48:11Z</time>
      </trkpt>
      <trkpt lat="46.21803" lon="-0.28548">
        <ele>42.4</ele>
        <time>2022-04-03T17:48:12Z</time>
      </trkpt>
      <trkpt lat="46.21807" lon="-0.28554">
        <ele>42.2</ele>
        <time>2022-04-03T17:48:13Z</time>
      </trkpt>
      <trkpt lat="46.21811" lon="-0.2856">
        <ele>42.4</ele>
        <time>2022-04-03T17:48:14Z</time>
      </trkpt>
      <trkpt lat="46.21815" lon="-0.28566">
        <ele>42.2</ele>
        <time>2022-04-03T17:48:15Z</time>
      </trkpt>
      <trkpt lat="46.21819" lon="-0.28572">
        <ele>42.4</ele>
        <time>2022-04-03T17:48:16Z</time>
      </trkpt>
      <trkpt lat="46.21823" lon="-0.28578">
        <ele>42.6</ele>
        <time>2022-04-03T17:48:17Z</time>
      </trkpt>
      <trkpt lat="46.21826" lon="-0.28584">
        <ele>42.4</ele>
        <time>2022-04-03T17:48:18Z</time>
      </trkpt>
      <trkpt lat="46.21831" lon="-0.2859">
        <ele>42.4</ele>
        <time>2022-04-03T17:48:19Z</time>
      </trkpt>
      <trkpt lat="46.21835" lon="-0.28597">
        <ele>42.4</ele>
        <time>2022-04-03T17:48:20Z</time>
      </trkpt>
      <trkpt lat="46.21839" lon="-0.28603">
        <ele>42.4</ele>
        <time>2022-04-03T17:48:21Z</time>
      </trkpt>
      <trkpt lat="46.21843" lon="-0.28609">
        <ele>42.6</ele>
        <time>2022-04-03T17:48:22Z</time>
      </trkpt>
      <trkpt lat="46.21847" lon="-0.28616">
        <ele>42.6</ele>
        <time>2022-04-03T17:48:23Z</time>
      </trkpt>
      <trkpt lat="46.21851" lon="-0.28622">
        <ele>42.6</ele>
        <time>2022-04-03T17:48:24Z</time>
      </trkpt>
      <trkpt lat="46.21855" lon="-0.28628">
        <ele>42.6</ele>
        <time>2022-04-03T17:48:25Z</time>
      </trkpt>
      <trkpt lat="46.21859" lon="-0.28635">
        <ele>42.6</ele>
        <time>2022-04-03T17:48:26Z</time>
      </trkpt>
      <trkpt lat="46.21864" lon="-0.28641">
        <ele>42.6</ele>
        <time>2022-04-03T17:48:27Z</time>
      </trkpt>
      <trkpt lat="46.21868" lon="-0.28647">
        <ele>42.4</ele>
        <time>2022-04-03T17:48:28Z</time>
      </trkpt>
      <trkpt lat="46.21872" lon="-0.28653">
        <ele>42.2</ele>
        <time>2022-04-03T17:48:29Z</time>
      </trkpt>
      <trkpt lat="46.21876" lon="-0.2866">
        <ele>42.4</ele>
        <time>2022-04-03T17:48:30Z</time>
      </trkpt>
      <trkpt lat="46.2188" lon="-0.28666">
        <ele>42.2</ele>
        <time>2022-04-03T17:48:31Z</time>
      </trkpt>
      <trkpt lat="46.21885" lon="-0.28672">
        <ele>42.4</ele>
        <time>2022-04-03T17:48:32Z</time>
      </trkpt>
      <trkpt lat="46.21889" lon="-0.28679">
        <ele>42.4</ele>
        <time>2022-04-03T17:48:33Z</time>
      </trkpt>
      <trkpt lat="46.21893" lon="-0.28685">
        <ele>42.4</ele>
        <time>2022-04-03T17:48:34Z</time>
      </trkpt>
      <trkpt lat="46.21897" lon="-0.28692">
        <ele>42.2</ele>
        <time>2022-04-03T17:48:35Z</time>
      </trkpt>
      <trkpt lat="46.21902" lon="-0.28698">
        <ele>42.2</ele>
        <time>2022-04-03T17:48:36Z</time>
      </trkpt>
      <trkpt lat="46.21906" lon="-0.28705">
        <ele>42.2</ele>
        <time>2022-04-03T17:48:37Z</time>
      </trkpt>
      <trkpt lat="46.2191" lon="-0.28711">
        <ele>42.2</ele>
        <time>2022-04-03T17:48:38Z</time>
      </trkpt>
      <trkpt lat="46.21914" lon="-0.28718">
        <ele>42.2</ele>
        <time>2022-04-03T17:48:39Z</time>
      </trkpt>
      <trkpt lat="46.21919" lon="-0.28724">
        <ele>42.4</ele>
        <time>2022-04-03T17:48:40Z</time>
      </trkpt>
      <trkpt lat="46.21923" lon="-0.28731">
        <ele>42.2</ele>
        <time>2022-04-03T17:48:41Z</time>
      </trkpt>
      <trkpt lat="46.21927" lon="-0.28738">
        <ele>42.2</ele>
        <time>2022-04-03T17:48:42Z</time>
      </trkpt>
      <trkpt lat="46.21932" lon="-0.28744">
        <ele>42.2</ele>
        <time>2022-04-03T17:48:43Z</time>
      </trkpt>
      <trkpt lat="46.21936" lon="-0.2875">
        <ele>42.2</ele>
        <time>2022-04-03T17:48:44Z</time>
      </trkpt>
      <trkpt lat="46.2194" lon="-0.28757">
        <ele>42.2</ele>
        <time>2022-04-03T17:48:45Z</time>
      </trkpt>
      <trkpt lat="46.21945" lon="-0.28763">
        <ele>42.2</ele>
        <time>2022-04-03T17:48:46Z</time>
      </trkpt>
      <trkpt lat="46.21949" lon="-0.2877">
        <ele>42</ele>
        <time>2022-04-03T17:48:47Z</time>
      </trkpt>
      <trkpt lat="46.21953" lon="-0.28776">
        <ele>42.2</ele>
        <time>2022-04-03T17:48:48Z</time>
      </trkpt>
      <trkpt lat="46.21957" lon="-0.28783">
        <ele>42.2</ele>
        <time>2022-04-03T17:48:49Z</time>
      </trkpt>
      <trkpt lat="46.21961" lon="-0.28789">
        <ele>42.2</ele>
        <time>2022-04-03T17:48:50Z</time>
      </trkpt>
      <trkpt lat="46.21966" lon="-0.28796">
        <ele>42.2</ele>
        <time>2022-04-03T17:48:51Z</time>
      </trkpt>
      <trkpt lat="46.2197" lon="-0.28802">
        <ele>42.2</ele>
        <time>2022-04-03T17:48:52Z</time>
      </trkpt>
      <trkpt lat="46.21974" lon="-0.28809">
        <ele>42</ele>
        <time>2022-04-03T17:48:53Z</time>
      </trkpt>
      <trkpt lat="46.21978" lon="-0.28815">
        <ele>42</ele>
        <time>2022-04-03T17:48:54Z</time>
      </trkpt>
      <trkpt lat="46.21983" lon="-0.28821">
        <ele>41.8</ele>
        <time>2022-04-03T17:48:55Z</time>
      </trkpt>
      <trkpt lat="46.21987" lon="-0.28828">
        <ele>41.8</ele>
        <time>2022-04-03T17:48:56Z</time>
      </trkpt>
      <trkpt lat="46.21992" lon="-0.28834">
        <ele>41.6</ele>
        <time>2022-04-03T17:48:57Z</time>
      </trkpt>
      <trkpt lat="46.21996" lon="-0.28841">
        <ele>41.6</ele>
        <time>2022-04-03T17:48:58Z</time>
      </trkpt>
      <trkpt lat="46.22" lon="-0.28847">
        <ele>41.8</ele>
        <time>2022-04-03T17:48:59Z</time>
      </trkpt>
      <trkpt lat="46.22005" lon="-0.28854">
        <ele>41.8</ele>
        <time>2022-04-03T17:49:00Z</time>
      </trkpt>
      <trkpt lat="46.22009" lon="-0.2886">
        <ele>41.8</ele>
        <time>2022-04-03T17:49:01Z</time>
      </trkpt>
      <trkpt lat="46.22013" lon="-0.28867">
        <ele>41.8</ele>
        <time>2022-04-03T17:49:02Z</time>
      </trkpt>
      <trkpt lat="46.22017" lon="-0.28873">
        <ele>41.6</ele>
        <time>2022-04-03T17:49:03Z</time>
      </trkpt>
      <trkpt lat="46.22022" lon="-0.2888">
        <ele>41.6</ele>
        <time>2022-04-03T17:49:04Z</time>
      </trkpt>
      <trkpt lat="46.22026" lon="-0.28886">
        <ele>41.8</ele>
        <time>2022-04-03T17:49:05Z</time>
      </trkpt>
      <trkpt lat="46.2203" lon="-0.28892">
        <ele>41.6</ele>
        <time>2022-04-03T17:49:06Z</time>
      </trkpt>
      <trkpt lat="46.22034" lon="-0.28899">
        <ele>41.6</ele>
        <time>2022-04-03T17:49:07Z</time>
      </trkpt>
      <trkpt lat="46.22038" lon="-0.28905">
        <ele>41.6</ele>
        <time>2022-04-03T17:49:08Z</time>
      </trkpt>
      <trkpt lat="46.22043" lon="-0.28912">
        <ele>41.6</ele>
        <time>2022-04-03T17:49:09Z</time>
      </trkpt>
      <trkpt lat="46.22047" lon="-0.28918">
        <ele>41.8</ele>
        <time>2022-04-03T17:49:10Z</time>
      </trkpt>
      <trkpt lat="46.22051" lon="-0.28924">
        <ele>41.8</ele>
        <time>2022-04-03T17:49:11Z</time>
      </trkpt>
      <trkpt lat="46.22055" lon="-0.28931">
        <ele>41.6</ele>
        <time>2022-04-03T17:49:12Z</time>
      </trkpt>
      <trkpt lat="46.22059" lon="-0.28937">
        <ele>41.6</ele>
        <time>2022-04-03T17:49:13Z</time>
      </trkpt>
      <trkpt lat="46.22064" lon="-0.28943">
        <ele>41.6</ele>
        <time>2022-04-03T17:49:14Z</time>
      </trkpt>
      <trkpt lat="46.22068" lon="-0.2895">
        <ele>41.6</ele>
        <time>2022-04-03T17:49:15Z</time>
      </trkpt>
      <trkpt lat="46.22072" lon="-0.28956">
        <ele>41.6</ele>
        <time>2022-04-03T17:49:16Z</time>
      </trkpt>
      <trkpt lat="46.22077" lon="-0.28963">
        <ele>41.6</ele>
        <time>2022-04-03T17:49:17Z</time>
      </trkpt>
      <trkpt lat="46.22081" lon="-0.28969">
        <ele>41.6</ele>
        <time>2022-04-03T17:49:18Z</time>
      </trkpt>
      <trkpt lat="46.22085" lon="-0.28976">
        <ele>41.6</ele>
        <time>2022-04-03T17:49:19Z</time>
      </trkpt>
      <trkpt lat="46.22089" lon="-0.28983">
        <ele>41.6</ele>
        <time>2022-04-03T17:49:20Z</time>
      </trkpt>
      <trkpt lat="46.22093" lon="-0.28989">
        <ele>41.6</ele>
        <time>2022-04-03T17:49:21Z</time>
      </trkpt>
      <trkpt lat="46.22098" lon="-0.28996">
        <ele>41.6</ele>
        <time>2022-04-03T17:49:22Z</time>
      </trkpt>
      <trkpt lat="46.22102" lon="-0.29002">
        <ele>41.6</ele>
        <time>2022-04-03T17:49:23Z</time>
      </trkpt>
      <trkpt lat="46.22106" lon="-0.29008">
        <ele>41.6</ele>
        <time>2022-04-03T17:49:24Z</time>
      </trkpt>
      <trkpt lat="46.2211" lon="-0.29015">
        <ele>41.6</ele>
        <time>2022-04-03T17:49:25Z</time>
      </trkpt>
      <trkpt lat="46.22114" lon="-0.29021">
        <ele>41.6</ele>
        <time>2022-04-03T17:49:26Z</time>
      </trkpt>
      <trkpt lat="46.22118" lon="-0.29028">
        <ele>41.6</ele>
        <time>2022-04-03T17:49:27Z</time>
      </trkpt>
      <trkpt lat="46.22122" lon="-0.29034">
        <ele>41.6</ele>
        <time>2022-04-03T17:49:28Z</time>
      </trkpt>
      <trkpt lat="46.22126" lon="-0.29041">
        <ele>41.6</ele>
        <time>2022-04-03T17:49:29Z</time>
      </trkpt>
      <trkpt lat="46.2213" lon="-0.29047">
        <ele>41.6</ele>
        <time>2022-04-03T17:49:30Z</time>
      </trkpt>
      <trkpt lat="46.22134" lon="-0.29054">
        <ele>41.4</ele>
        <time>2022-04-03T17:49:31Z</time>
      </trkpt>
      <trkpt lat="46.22139" lon="-0.2906">
        <ele>41.6</ele>
        <time>2022-04-03T17:49:32Z</time>
      </trkpt>
      <trkpt lat="46.22143" lon="-0.29066">
        <ele>41.6</ele>
        <time>2022-04-03T17:49:33Z</time>
      </trkpt>
      <trkpt lat="46.22147" lon="-0.29072">
        <ele>41.4</ele>
        <time>2022-04-03T17:49:34Z</time>
      </trkpt>
      <trkpt lat="46.22151" lon="-0.29078">
        <ele>41.4</ele>
        <time>2022-04-03T17:49:35Z</time>
      </trkpt>
      <trkpt lat="46.22155" lon="-0.29085">
        <ele>41.4</ele>
        <time>2022-04-03T17:49:36Z</time>
      </trkpt>
      <trkpt lat="46.22159" lon="-0.29091">
        <ele>41.4</ele>
        <time>2022-04-03T17:49:37Z</time>
      </trkpt>
      <trkpt lat="46.22163" lon="-0.29097">
        <ele>41.4</ele>
        <time>2022-04-03T17:49:38Z</time>
      </trkpt>
      <trkpt lat="46.22167" lon="-0.29103">
        <ele>41.4</ele>
        <time>2022-04-03T17:49:39Z</time>
      </trkpt>
      <trkpt lat="46.22171" lon="-0.29109">
        <ele>41.4</ele>
        <time>2022-04-03T17:49:40Z</time>
      </trkpt>
      <trkpt lat="46.22175" lon="-0.29115">
        <ele>41.4</ele>
        <time>2022-04-03T17:49:41Z</time>
      </trkpt>
      <trkpt lat="46.22178" lon="-0.29121">
        <ele>41.4</ele>
        <time>2022-04-03T17:49:42Z</time>
      </trkpt>
      <trkpt lat="46.22182" lon="-0.29127">
        <ele>41.2</ele>
        <time>2022-04-03T17:49:43Z</time>
      </trkpt>
      <trkpt lat="46.22186" lon="-0.29133">
        <ele>41.4</ele>
        <time>2022-04-03T17:49:44Z</time>
      </trkpt>
      <trkpt lat="46.2219" lon="-0.29139">
        <ele>41.4</ele>
        <time>2022-04-03T17:49:45Z</time>
      </trkpt>
      <trkpt lat="46.22194" lon="-0.29145">
        <ele>41.4</ele>
        <time>2022-04-03T17:49:46Z</time>
      </trkpt>
      <trkpt lat="46.22197" lon="-0.29151">
        <ele>41.4</ele>
        <time>2022-04-03T17:49:47Z</time>
      </trkpt>
      <trkpt lat="46.22201" lon="-0.29157">
        <ele>41.4</ele>
        <time>2022-04-03T17:49:48Z</time>
      </trkpt>
      <trkpt lat="46.22205" lon="-0.29163">
        <ele>41.4</ele>
        <time>2022-04-03T17:49:49Z</time>
      </trkpt>
      <trkpt lat="46.22209" lon="-0.29169">
        <ele>41.4</ele>
        <time>2022-04-03T17:49:50Z</time>
      </trkpt>
      <trkpt lat="46.22213" lon="-0.29175">
        <ele>41.4</ele>
        <time>2022-04-03T17:49:51Z</time>
      </trkpt>
      <trkpt lat="46.22216" lon="-0.29181">
        <ele>41.4</ele>
        <time>2022-04-03T17:49:52Z</time>
      </trkpt>
      <trkpt lat="46.2222" lon="-0.29187">
        <ele>41.4</ele>
        <time>2022-04-03T17:49:53Z</time>
      </trkpt>
      <trkpt lat="46.22224" lon="-0.29192">
        <ele>41.6</ele>
        <time>2022-04-03T17:49:54Z</time>
      </trkpt>
      <trkpt lat="46.22228" lon="-0.29198">
        <ele>41.6</ele>
        <time>2022-04-03T17:49:55Z</time>
      </trkpt>
      <trkpt lat="46.22231" lon="-0.29204">
        <ele>41.6</ele>
        <time>2022-04-03T17:49:56Z</time>
      </trkpt>
      <trkpt lat="46.22235" lon="-0.2921">
        <ele>41.4</ele>
        <time>2022-04-03T17:49:57Z</time>
      </trkpt>
      <trkpt lat="46.22239" lon="-0.29216">
        <ele>41.4</ele>
        <time>2022-04-03T17:49:58Z</time>
      </trkpt>
      <trkpt lat="46.22242" lon="-0.29221">
        <ele>41.4</ele>
        <time>2022-04-03T17:49:59Z</time>
      </trkpt>
      <trkpt lat="46.22246" lon="-0.29227">
        <ele>41.6</ele>
        <time>2022-04-03T17:50:00Z</time>
      </trkpt>
      <trkpt lat="46.2225" lon="-0.29233">
        <ele>41.4</ele>
        <time>2022-04-03T17:50:01Z</time>
      </trkpt>
      <trkpt lat="46.22253" lon="-0.29239">
        <ele>41.4</ele>
        <time>2022-04-03T17:50:02Z</time>
      </trkpt>
      <trkpt lat="46.22257" lon="-0.29244">
        <ele>41.6</ele>
        <time>2022-04-03T17:50:03Z</time>
      </trkpt>
      <trkpt lat="46.22261" lon="-0.2925">
        <ele>41.4</ele>
        <time>2022-04-03T17:50:04Z</time>
      </trkpt>
      <trkpt lat="46.22264" lon="-0.29255">
        <ele>41.4</ele>
        <time>2022-04-03T17:50:05Z</time>
      </trkpt>
      <trkpt lat="46.22268" lon="-0.29261">
        <ele>41.4</ele>
        <time>2022-04-03T17:50:06Z</time>
      </trkpt>
      <trkpt lat="46.22272" lon="-0.29267">
        <ele>41.4</ele>
        <time>2022-04-03T17:50:07Z</time>
      </trkpt>
      <trkpt lat="46.22275" lon="-0.29273">
        <ele>41.4</ele>
        <time>2022-04-03T17:50:08Z</time>
      </trkpt>
      <trkpt lat="46.22279" lon="-0.29278">
        <ele>41.6</ele>
        <time>2022-04-03T17:50:09Z</time>
      </trkpt>
      <trkpt lat="46.22282" lon="-0.29284">
        <ele>41.6</ele>
        <time>2022-04-03T17:50:10Z</time>
      </trkpt>
      <trkpt lat="46.22286" lon="-0.2929">
        <ele>41.6</ele>
        <time>2022-04-03T17:50:11Z</time>
      </trkpt>
      <trkpt lat="46.22289" lon="-0.29295">
        <ele>41.8</ele>
        <time>2022-04-03T17:50:12Z</time>
      </trkpt>
      <trkpt lat="46.22293" lon="-0.29301">
        <ele>41.6</ele>
        <time>2022-04-03T17:50:13Z</time>
      </trkpt>
      <trkpt lat="46.22296" lon="-0.29306">
        <ele>41.8</ele>
        <time>2022-04-03T17:50:14Z</time>
      </trkpt>
      <trkpt lat="46.223" lon="-0.29312">
        <ele>41.6</ele>
        <time>2022-04-03T17:50:15Z</time>
      </trkpt>
      <trkpt lat="46.22303" lon="-0.29317">
        <ele>41.8</ele>
        <time>2022-04-03T17:50:16Z</time>
      </trkpt>
      <trkpt lat="46.22307" lon="-0.29323">
        <ele>41.6</ele>
        <time>2022-04-03T17:50:17Z</time>
      </trkpt>
      <trkpt lat="46.2231" lon="-0.29329">
        <ele>41.6</ele>
        <time>2022-04-03T17:50:18Z</time>
      </trkpt>
      <trkpt lat="46.22314" lon="-0.29334">
        <ele>41.8</ele>
        <time>2022-04-03T17:50:19Z</time>
      </trkpt>
      <trkpt lat="46.22317" lon="-0.2934">
        <ele>41.8</ele>
        <time>2022-04-03T17:50:20Z</time>
      </trkpt>
      <trkpt lat="46.22321" lon="-0.29345">
        <ele>41.8</ele>
        <time>2022-04-03T17:50:21Z</time>
      </trkpt>
      <trkpt lat="46.22324" lon="-0.29351">
        <ele>41.8</ele>
        <time>2022-04-03T17:50:22Z</time>
      </trkpt>
      <trkpt lat="46.22328" lon="-0.29357">
        <ele>41.6</ele>
        <time>2022-04-03T17:50:23Z</time>
      </trkpt>
      <trkpt lat="46.22331" lon="-0.29362">
        <ele>41.6</ele>
        <time>2022-04-03T17:50:24Z</time>
      </trkpt>
      <trkpt lat="46.22335" lon="-0.29368">
        <ele>41.8</ele>
        <time>2022-04-03T17:50:25Z</time>
      </trkpt>
      <trkpt lat="46.22339" lon="-0.29374">
        <ele>41.6</ele>
        <time>2022-04-03T17:50:26Z</time>
      </trkpt>
      <trkpt lat="46.22342" lon="-0.29379">
        <ele>41.6</ele>
        <time>2022-04-03T17:50:27Z</time>
      </trkpt>
      <trkpt lat="46.22345" lon="-0.29385">
        <ele>41.8</ele>
        <time>2022-04-03T17:50:28Z</time>
      </trkpt>
      <trkpt lat="46.22349" lon="-0.29391">
        <ele>41.8</ele>
        <time>2022-04-03T17:50:29Z</time>
      </trkpt>
      <trkpt lat="46.22352" lon="-0.29397">
        <ele>42</ele>
        <time>2022-04-03T17:50:30Z</time>
      </trkpt>
      <trkpt lat="46.22356" lon="-0.29403">
        <ele>42</ele>
        <time>2022-04-03T17:50:31Z</time>
      </trkpt>
      <trkpt lat="46.22359" lon="-0.29409">
        <ele>42</ele>
        <time>2022-04-03T17:50:32Z</time>
      </trkpt>
      <trkpt lat="46.22362" lon="-0.29415">
        <ele>42</ele>
        <time>2022-04-03T17:50:33Z</time>
      </trkpt>
      <trkpt lat="46.22365" lon="-0.29421">
        <ele>42.2</ele>
        <time>2022-04-03T17:50:34Z</time>
      </trkpt>
      <trkpt lat="46.22369" lon="-0.29428">
        <ele>42.2</ele>
        <time>2022-04-03T17:50:35Z</time>
      </trkpt>
      <trkpt lat="46.22372" lon="-0.29434">
        <ele>42.2</ele>
        <time>2022-04-03T17:50:36Z</time>
      </trkpt>
      <trkpt lat="46.22375" lon="-0.29441">
        <ele>42.2</ele>
        <time>2022-04-03T17:50:37Z</time>
      </trkpt>
      <trkpt lat="46.22379" lon="-0.29448">
        <ele>42.2</ele>
        <time>2022-04-03T17:50:38Z</time>
      </trkpt>
      <trkpt lat="46.22382" lon="-0.29454">
        <ele>42.2</ele>
        <time>2022-04-03T17:50:39Z</time>
      </trkpt>
      <trkpt lat="46.22385" lon="-0.29461">
        <ele>42.2</ele>
        <time>2022-04-03T17:50:40Z</time>
      </trkpt>
      <trkpt lat="46.22388" lon="-0.29468">
        <ele>42.4</ele>
        <time>2022-04-03T17:50:41Z</time>
      </trkpt>
      <trkpt lat="46.22391" lon="-0.29475">
        <ele>42.2</ele>
        <time>2022-04-03T17:50:42Z</time>
      </trkpt>
      <trkpt lat="46.22395" lon="-0.29482">
        <ele>42.2</ele>
        <time>2022-04-03T17:50:43Z</time>
      </trkpt>
      <trkpt lat="46.22398" lon="-0.29488">
        <ele>42.4</ele>
        <time>2022-04-03T17:50:44Z</time>
      </trkpt>
      <trkpt lat="46.22401" lon="-0.29495">
        <ele>42.4</ele>
        <time>2022-04-03T17:50:45Z</time>
      </trkpt>
      <trkpt lat="46.22404" lon="-0.29502">
        <ele>42.2</ele>
        <time>2022-04-03T17:50:46Z</time>
      </trkpt>
      <trkpt lat="46.22407" lon="-0.29509">
        <ele>42.4</ele>
        <time>2022-04-03T17:50:47Z</time>
      </trkpt>
      <trkpt lat="46.22411" lon="-0.29516">
        <ele>42.4</ele>
        <time>2022-04-03T17:50:48Z</time>
      </trkpt>
      <trkpt lat="46.22414" lon="-0.29523">
        <ele>42.2</ele>
        <time>2022-04-03T17:50:49Z</time>
      </trkpt>
      <trkpt lat="46.22417" lon="-0.29529">
        <ele>42.4</ele>
        <time>2022-04-03T17:50:50Z</time>
      </trkpt>
      <trkpt lat="46.2242" lon="-0.29536">
        <ele>42.4</ele>
        <time>2022-04-03T17:50:51Z</time>
      </trkpt>
      <trkpt lat="46.22423" lon="-0.29543">
        <ele>42.2</ele>
        <time>2022-04-03T17:50:52Z</time>
      </trkpt>
      <trkpt lat="46.22426" lon="-0.2955">
        <ele>42</ele>
        <time>2022-04-03T17:50:53Z</time>
      </trkpt>
      <trkpt lat="46.2243" lon="-0.29557">
        <ele>42</ele>
        <time>2022-04-03T17:50:54Z</time>
      </trkpt>
      <trkpt lat="46.22433" lon="-0.29563">
        <ele>42</ele>
        <time>2022-04-03T17:50:55Z</time>
      </trkpt>
      <trkpt lat="46.22436" lon="-0.2957">
        <ele>42.2</ele>
        <time>2022-04-03T17:50:56Z</time>
      </trkpt>
      <trkpt lat="46.22439" lon="-0.29577">
        <ele>42</ele>
        <time>2022-04-03T17:50:57Z</time>
      </trkpt>
      <trkpt lat="46.22442" lon="-0.29583">
        <ele>42.2</ele>
        <time>2022-04-03T17:50:58Z</time>
      </trkpt>
      <trkpt lat="46.22446" lon="-0.2959">
        <ele>42</ele>
        <time>2022-04-03T17:50:59Z</time>
      </trkpt>
      <trkpt lat="46.22449" lon="-0.29596">
        <ele>42</ele>
        <time>2022-04-03T17:51:00Z</time>
      </trkpt>
      <trkpt lat="46.22452" lon="-0.29603">
        <ele>42</ele>
        <time>2022-04-03T17:51:01Z</time>
      </trkpt>
      <trkpt lat="46.22455" lon="-0.29609">
        <ele>42</ele>
        <time>2022-04-03T17:51:02Z</time>
      </trkpt>
      <trkpt lat="46.22459" lon="-0.29616">
        <ele>41.8</ele>
        <time>2022-04-03T17:51:03Z</time>
      </trkpt>
      <trkpt lat="46.22462" lon="-0.29622">
        <ele>41.8</ele>
        <time>2022-04-03T17:51:04Z</time>
      </trkpt>
      <trkpt lat="46.22466" lon="-0.29629">
        <ele>41.8</ele>
        <time>2022-04-03T17:51:05Z</time>
      </trkpt>
      <trkpt lat="46.2247" lon="-0.29635">
        <ele>41.8</ele>
        <time>2022-04-03T17:51:06Z</time>
      </trkpt>
      <trkpt lat="46.22474" lon="-0.29641">
        <ele>41.8</ele>
        <time>2022-04-03T17:51:07Z</time>
      </trkpt>
      <trkpt lat="46.22478" lon="-0.29648">
        <ele>41.8</ele>
        <time>2022-04-03T17:51:08Z</time>
      </trkpt>
      <trkpt lat="46.22482" lon="-0.29654">
        <ele>41.8</ele>
        <time>2022-04-03T17:51:09Z</time>
      </trkpt>
      <trkpt lat="46.22486" lon="-0.29659">
        <ele>41.8</ele>
        <time>2022-04-03T17:51:10Z</time>
      </trkpt>
      <trkpt lat="46.2249" lon="-0.29665">
        <ele>41.6</ele>
        <time>2022-04-03T17:51:11Z</time>
      </trkpt>
      <trkpt lat="46.22494" lon="-0.29671">
        <ele>41.6</ele>
        <time>2022-04-03T17:51:12Z</time>
      </trkpt>
      <trkpt lat="46.22499" lon="-0.29676">
        <ele>41.6</ele>
        <time>2022-04-03T17:51:13Z</time>
      </trkpt>
      <trkpt lat="46.22503" lon="-0.29682">
        <ele>41.6</ele>
        <time>2022-04-03T17:51:14Z</time>
      </trkpt>
      <trkpt lat="46.22508" lon="-0.29687">
        <ele>41.6</ele>
        <time>2022-04-03T17:51:15Z</time>
      </trkpt>
      <trkpt lat="46.22512" lon="-0.29693">
        <ele>41.6</ele>
        <time>2022-04-03T17:51:16Z</time>
      </trkpt>
      <trkpt lat="46.22516" lon="-0.29698">
        <ele>41.6</ele>
        <time>2022-04-03T17:51:17Z</time>
      </trkpt>
      <trkpt lat="46.22521" lon="-0.29703">
        <ele>41.4</ele>
        <time>2022-04-03T17:51:18Z</time>
      </trkpt>
      <trkpt lat="46.22525" lon="-0.29708">
        <ele>41.4</ele>
        <time>2022-04-03T17:51:19Z</time>
      </trkpt>
      <trkpt lat="46.2253" lon="-0.29712">
        <ele>41.4</ele>
        <time>2022-04-03T17:51:20Z</time>
      </trkpt>
      <trkpt lat="46.22534" lon="-0.29717">
        <ele>41.2</ele>
        <time>2022-04-03T17:51:21Z</time>
      </trkpt>
      <trkpt lat="46.22539" lon="-0.29722">
        <ele>41</ele>
        <time>2022-04-03T17:51:22Z</time>
      </trkpt>
      <trkpt lat="46.22543" lon="-0.29727">
        <ele>41.2</ele>
        <time>2022-04-03T17:51:23Z</time>
      </trkpt>
      <trkpt lat="46.22548" lon="-0.29732">
        <ele>41</ele>
        <time>2022-04-03T17:51:24Z</time>
      </trkpt>
      <trkpt lat="46.22552" lon="-0.29737">
        <ele>41</ele>
        <time>2022-04-03T17:51:25Z</time>
      </trkpt>
      <trkpt lat="46.22557" lon="-0.29742">
        <ele>41</ele>
        <time>2022-04-03T17:51:26Z</time>
      </trkpt>
      <trkpt lat="46.22561" lon="-0.29747">
        <ele>41</ele>
        <time>2022-04-03T17:51:27Z</time>
      </trkpt>
      <trkpt lat="46.22566" lon="-0.29751">
        <ele>40.8</ele>
        <time>2022-04-03T17:51:28Z</time>
      </trkpt>
      <trkpt lat="46.22571" lon="-0.29756">
        <ele>40.8</ele>
        <time>2022-04-03T17:51:29Z</time>
      </trkpt>
      <trkpt lat="46.22575" lon="-0.29761">
        <ele>40.8</ele>
        <time>2022-04-03T17:51:30Z</time>
      </trkpt>
      <trkpt lat="46.2258" lon="-0.29766">
        <ele>40.8</ele>
        <time>2022-04-03T17:51:31Z</time>
      </trkpt>
      <trkpt lat="46.22584" lon="-0.29771">
        <ele>40.8</ele>
        <time>2022-04-03T17:51:32Z</time>
      </trkpt>
      <trkpt lat="46.22589" lon="-0.29776">
        <ele>40.8</ele>
        <time>2022-04-03T17:51:33Z</time>
      </trkpt>
      <trkpt lat="46.22594" lon="-0.29781">
        <ele>40.8</ele>
        <time>2022-04-03T17:51:34Z</time>
      </trkpt>
      <trkpt lat="46.22598" lon="-0.29786">
        <ele>40.8</ele>
        <time>2022-04-03T17:51:35Z</time>
      </trkpt>
      <trkpt lat="46.22603" lon="-0.29791">
        <ele>40.8</ele>
        <time>2022-04-03T17:51:36Z</time>
      </trkpt>
      <trkpt lat="46.22608" lon="-0.29796">
        <ele>40.8</ele>
        <time>2022-04-03T17:51:37Z</time>
      </trkpt>
      <trkpt lat="46.22612" lon="-0.29801">
        <ele>40.8</ele>
        <time>2022-04-03T17:51:38Z</time>
      </trkpt>
      <trkpt lat="46.22617" lon="-0.29806">
        <ele>40.8</ele>
        <time>2022-04-03T17:51:39Z</time>
      </trkpt>
      <trkpt lat="46.22621" lon="-0.2981">
        <ele>40.8</ele>
        <time>2022-04-03T17:51:40Z</time>
      </trkpt>
      <trkpt lat="46.22626" lon="-0.29815">
        <ele>40.8</ele>
        <time>2022-04-03T17:51:41Z</time>
      </trkpt>
      <trkpt lat="46.22631" lon="-0.2982">
        <ele>40.8</ele>
        <time>2022-04-03T17:51:42Z</time>
      </trkpt>
      <trkpt lat="46.22635" lon="-0.29826">
        <ele>40.8</ele>
        <time>2022-04-03T17:51:43Z</time>
      </trkpt>
      <trkpt lat="46.2264" lon="-0.29831">
        <ele>40.6</ele>
        <time>2022-04-03T17:51:44Z</time>
      </trkpt>
      <trkpt lat="46.22644" lon="-0.29836">
        <ele>40.8</ele>
        <time>2022-04-03T17:51:45Z</time>
      </trkpt>
      <trkpt lat="46.22649" lon="-0.29841">
        <ele>40.6</ele>
        <time>2022-04-03T17:51:46Z</time>
      </trkpt>
      <trkpt lat="46.22654" lon="-0.29846">
        <ele>40.8</ele>
        <time>2022-04-03T17:51:47Z</time>
      </trkpt>
      <trkpt lat="46.22658" lon="-0.2985">
        <ele>40.8</ele>
        <time>2022-04-03T17:51:48Z</time>
      </trkpt>
      <trkpt lat="46.22663" lon="-0.29855">
        <ele>40.8</ele>
        <time>2022-04-03T17:51:49Z</time>
      </trkpt>
      <trkpt lat="46.22668" lon="-0.2986">
        <ele>40.8</ele>
        <time>2022-04-03T17:51:50Z</time>
      </trkpt>
      <trkpt lat="46.22672" lon="-0.29866">
        <ele>40.8</ele>
        <time>2022-04-03T17:51:51Z</time>
      </trkpt>
      <trkpt lat="46.22677" lon="-0.29871">
        <ele>40.8</ele>
        <time>2022-04-03T17:51:52Z</time>
      </trkpt>
      <trkpt lat="46.22681" lon="-0.29875">
        <ele>40.8</ele>
        <time>2022-04-03T17:51:53Z</time>
      </trkpt>
      <trkpt lat="46.22686" lon="-0.29881">
        <ele>40.6</ele>
        <time>2022-04-03T17:51:54Z</time>
      </trkpt>
      <trkpt lat="46.22691" lon="-0.29886">
        <ele>40.4</ele>
        <time>2022-04-03T17:51:55Z</time>
      </trkpt>
      <trkpt lat="46.22696" lon="-0.2989">
        <ele>40.4</ele>
        <time>2022-04-03T17:51:56Z</time>
      </trkpt>
      <trkpt lat="46.227" lon="-0.29895">
        <ele>40.2</ele>
        <time>2022-04-03T17:51:57Z</time>
      </trkpt>
      <trkpt lat="46.22705" lon="-0.29901">
        <ele>40.4</ele>
        <time>2022-04-03T17:51:58Z</time>
      </trkpt>
      <trkpt lat="46.2271" lon="-0.29906">
        <ele>40.2</ele>
        <time>2022-04-03T17:51:59Z</time>
      </trkpt>
      <trkpt lat="46.22714" lon="-0.29911">
        <ele>40.2</ele>
        <time>2022-04-03T17:52:00Z</time>
      </trkpt>
      <trkpt lat="46.22719" lon="-0.29916">
        <ele>40.2</ele>
        <time>2022-04-03T17:52:01Z</time>
      </trkpt>
      <trkpt lat="46.22723" lon="-0.29921">
        <ele>40.2</ele>
        <time>2022-04-03T17:52:02Z</time>
      </trkpt>
      <trkpt lat="46.22728" lon="-0.29926">
        <ele>40</ele>
        <time>2022-04-03T17:52:03Z</time>
      </trkpt>
      <trkpt lat="46.22733" lon="-0.29931">
        <ele>39.8</ele>
        <time>2022-04-03T17:52:04Z</time>
      </trkpt>
      <trkpt lat="46.22737" lon="-0.29936">
        <ele>39.8</ele>
        <time>2022-04-03T17:52:05Z</time>
      </trkpt>
      <trkpt lat="46.22742" lon="-0.29941">
        <ele>39.6</ele>
        <time>2022-04-03T17:52:06Z</time>
      </trkpt>
      <trkpt lat="46.22747" lon="-0.29946">
        <ele>39.6</ele>
        <time>2022-04-03T17:52:07Z</time>
      </trkpt>
      <trkpt lat="46.22751" lon="-0.29951">
        <ele>39.4</ele>
        <time>2022-04-03T17:52:08Z</time>
      </trkpt>
      <trkpt lat="46.22756" lon="-0.29956">
        <ele>39.4</ele>
        <time>2022-04-03T17:52:09Z</time>
      </trkpt>
      <trkpt lat="46.2276" lon="-0.29961">
        <ele>39.4</ele>
        <time>2022-04-03T17:52:10Z</time>
      </trkpt>
      <trkpt lat="46.22765" lon="-0.29966">
        <ele>39.4</ele>
        <time>2022-04-03T17:52:11Z</time>
      </trkpt>
      <trkpt lat="46.22769" lon="-0.2997">
        <ele>39.4</ele>
        <time>2022-04-03T17:52:12Z</time>
      </trkpt>
      <trkpt lat="46.22774" lon="-0.29975">
        <ele>39.4</ele>
        <time>2022-04-03T17:52:13Z</time>
      </trkpt>
      <trkpt lat="46.22779" lon="-0.2998">
        <ele>39.4</ele>
        <time>2022-04-03T17:52:14Z</time>
      </trkpt>
      <trkpt lat="46.22783" lon="-0.29985">
        <ele>39.4</ele>
        <time>2022-04-03T17:52:15Z</time>
      </trkpt>
      <trkpt lat="46.22787" lon="-0.2999">
        <ele>39.6</ele>
        <time>2022-04-03T17:52:16Z</time>
      </trkpt>
      <trkpt lat="46.22792" lon="-0.29995">
        <ele>39.4</ele>
        <time>2022-04-03T17:52:17Z</time>
      </trkpt>
      <trkpt lat="46.22796" lon="-0.3">
        <ele>39.4</ele>
        <time>2022-04-03T17:52:18Z</time>
      </trkpt>
      <trkpt lat="46.22801" lon="-0.30006">
        <ele>39.4</ele>
        <time>2022-04-03T17:52:19Z</time>
      </trkpt>
      <trkpt lat="46.22805" lon="-0.30011">
        <ele>39.6</ele>
        <time>2022-04-03T17:52:20Z</time>
      </trkpt>
      <trkpt lat="46.2281" lon="-0.30016">
        <ele>39.6</ele>
        <time>2022-04-03T17:52:21Z</time>
      </trkpt>
      <trkpt lat="46.22814" lon="-0.30021">
        <ele>39.6</ele>
        <time>2022-04-03T17:52:22Z</time>
      </trkpt>
      <trkpt lat="46.22819" lon="-0.30027">
        <ele>39.8</ele>
        <time>2022-04-03T17:52:23Z</time>
      </trkpt>
      <trkpt lat="46.22823" lon="-0.30032">
        <ele>39.8</ele>
        <time>2022-04-03T17:52:24Z</time>
      </trkpt>
      <trkpt lat="46.22827" lon="-0.30037">
        <ele>39.8</ele>
        <time>2022-04-03T17:52:25Z</time>
      </trkpt>
      <trkpt lat="46.22831" lon="-0.30043">
        <ele>39.8</ele>
        <time>2022-04-03T17:52:26Z</time>
      </trkpt>
      <trkpt lat="46.22835" lon="-0.30049">
        <ele>39.6</ele>
        <time>2022-04-03T17:52:27Z</time>
      </trkpt>
      <trkpt lat="46.2284" lon="-0.30054">
        <ele>39.8</ele>
        <time>2022-04-03T17:52:28Z</time>
      </trkpt>
      <trkpt lat="46.22844" lon="-0.3006">
        <ele>39.8</ele>
        <time>2022-04-03T17:52:29Z</time>
      </trkpt>
      <trkpt lat="46.22848" lon="-0.30065">
        <ele>39.8</ele>
        <time>2022-04-03T17:52:30Z</time>
      </trkpt>
      <trkpt lat="46.22852" lon="-0.30071">
        <ele>39.8</ele>
        <time>2022-04-03T17:52:31Z</time>
      </trkpt>
      <trkpt lat="46.22856" lon="-0.30077">
        <ele>39.8</ele>
        <time>2022-04-03T17:52:32Z</time>
      </trkpt>
      <trkpt lat="46.2286" lon="-0.30082">
        <ele>39.8</ele>
        <time>2022-04-03T17:52:33Z</time>
      </trkpt>
      <trkpt lat="46.22863" lon="-0.30088">
        <ele>39.8</ele>
        <time>2022-04-03T17:52:34Z</time>
      </trkpt>
      <trkpt lat="46.22867" lon="-0.30094">
        <ele>39.8</ele>
        <time>2022-04-03T17:52:35Z</time>
      </trkpt>
      <trkpt lat="46.22871" lon="-0.30099">
        <ele>39.6</ele>
        <time>2022-04-03T17:52:36Z</time>
      </trkpt>
      <trkpt lat="46.22875" lon="-0.30105">
        <ele>39.6</ele>
        <time>2022-04-03T17:52:37Z</time>
      </trkpt>
      <trkpt lat="46.22879" lon="-0.3011">
        <ele>39.8</ele>
        <time>2022-04-03T17:52:38Z</time>
      </trkpt>
      <trkpt lat="46.22883" lon="-0.30116">
        <ele>39.8</ele>
        <time>2022-04-03T17:52:39Z</time>
      </trkpt>
      <trkpt lat="46.22887" lon="-0.30122">
        <ele>39.8</ele>
        <time>2022-04-03T17:52:40Z</time>
      </trkpt>
      <trkpt lat="46.22891" lon="-0.30128">
        <ele>39.6</ele>
        <time>2022-04-03T17:52:41Z</time>
      </trkpt>
      <trkpt lat="46.22895" lon="-0.30133">
        <ele>39.6</ele>
        <time>2022-04-03T17:52:42Z</time>
      </trkpt>
      <trkpt lat="46.22899" lon="-0.30139">
        <ele>39.6</ele>
        <time>2022-04-03T17:52:43Z</time>
      </trkpt>
      <trkpt lat="46.22902" lon="-0.30144">
        <ele>39.8</ele>
        <time>2022-04-03T17:52:44Z</time>
      </trkpt>
      <trkpt lat="46.22906" lon="-0.3015">
        <ele>39.6</ele>
        <time>2022-04-03T17:52:45Z</time>
      </trkpt>
      <trkpt lat="46.2291" lon="-0.30156">
        <ele>39.6</ele>
        <time>2022-04-03T17:52:46Z</time>
      </trkpt>
      <trkpt lat="46.22914" lon="-0.30162">
        <ele>39.8</ele>
        <time>2022-04-03T17:52:47Z</time>
      </trkpt>
      <trkpt lat="46.22918" lon="-0.30167">
        <ele>39.6</ele>
        <time>2022-04-03T17:52:48Z</time>
      </trkpt>
      <trkpt lat="46.22922" lon="-0.30173">
        <ele>39.6</ele>
        <time>2022-04-03T17:52:49Z</time>
      </trkpt>
      <trkpt lat="46.22926" lon="-0.30179">
        <ele>39.8</ele>
        <time>2022-04-03T17:52:50Z</time>
      </trkpt>
      <trkpt lat="46.2293" lon="-0.30184">
        <ele>39.6</ele>
        <time>2022-04-03T17:52:51Z</time>
      </trkpt>
      <trkpt lat="46.22934" lon="-0.3019">
        <ele>39.6</ele>
        <time>2022-04-03T17:52:52Z</time>
      </trkpt>
      <trkpt lat="46.22938" lon="-0.30196">
        <ele>39.6</ele>
        <time>2022-04-03T17:52:53Z</time>
      </trkpt>
      <trkpt lat="46.22942" lon="-0.30202">
        <ele>39.8</ele>
        <time>2022-04-03T17:52:54Z</time>
      </trkpt>
      <trkpt lat="46.22946" lon="-0.30208">
        <ele>39.6</ele>
        <time>2022-04-03T17:52:55Z</time>
      </trkpt>
      <trkpt lat="46.2295" lon="-0.30213">
        <ele>39.6</ele>
        <time>2022-04-03T17:52:56Z</time>
      </trkpt>
      <trkpt lat="46.22954" lon="-0.30219">
        <ele>39.6</ele>
        <time>2022-04-03T17:52:57Z</time>
      </trkpt>
      <trkpt lat="46.22958" lon="-0.30225">
        <ele>39.6</ele>
        <time>2022-04-03T17:52:58Z</time>
      </trkpt>
      <trkpt lat="46.22962" lon="-0.30231">
        <ele>39.4</ele>
        <time>2022-04-03T17:52:59Z</time>
      </trkpt>
      <trkpt lat="46.22966" lon="-0.30237">
        <ele>39.4</ele>
        <time>2022-04-03T17:53:00Z</time>
      </trkpt>
      <trkpt lat="46.2297" lon="-0.30243">
        <ele>39.4</ele>
        <time>2022-04-03T17:53:01Z</time>
      </trkpt>
      <trkpt lat="46.22974" lon="-0.30249">
        <ele>39.4</ele>
        <time>2022-04-03T17:53:02Z</time>
      </trkpt>
      <trkpt lat="46.22978" lon="-0.30254">
        <ele>39.4</ele>
        <time>2022-04-03T17:53:03Z</time>
      </trkpt>
      <trkpt lat="46.22982" lon="-0.3026">
        <ele>39.6</ele>
        <time>2022-04-03T17:53:04Z</time>
      </trkpt>
      <trkpt lat="46.22986" lon="-0.30266">
        <ele>39.6</ele>
        <time>2022-04-03T17:53:05Z</time>
      </trkpt>
      <trkpt lat="46.2299" lon="-0.30272">
        <ele>39.6</ele>
        <time>2022-04-03T17:53:06Z</time>
      </trkpt>
      <trkpt lat="46.22994" lon="-0.30278">
        <ele>39.6</ele>
        <time>2022-04-03T17:53:07Z</time>
      </trkpt>
      <trkpt lat="46.22998" lon="-0.30284">
        <ele>39.6</ele>
        <time>2022-04-03T17:53:08Z</time>
      </trkpt>
      <trkpt lat="46.23002" lon="-0.3029">
        <ele>39.4</ele>
        <time>2022-04-03T17:53:09Z</time>
      </trkpt>
      <trkpt lat="46.23007" lon="-0.30296">
        <ele>39.6</ele>
        <time>2022-04-03T17:53:10Z</time>
      </trkpt>
      <trkpt lat="46.23011" lon="-0.30301">
        <ele>39.8</ele>
        <time>2022-04-03T17:53:11Z</time>
      </trkpt>
      <trkpt lat="46.23015" lon="-0.30307">
        <ele>39.8</ele>
        <time>2022-04-03T17:53:12Z</time>
      </trkpt>
      <trkpt lat="46.23019" lon="-0.30313">
        <ele>39.6</ele>
        <time>2022-04-03T17:53:13Z</time>
      </trkpt>
      <trkpt lat="46.23023" lon="-0.30319">
        <ele>39.6</ele>
        <time>2022-04-03T17:53:14Z</time>
      </trkpt>
      <trkpt lat="46.23027" lon="-0.30325">
        <ele>39.6</ele>
        <time>2022-04-03T17:53:15Z</time>
      </trkpt>
      <trkpt lat="46.23031" lon="-0.30331">
        <ele>39.6</ele>
        <time>2022-04-03T17:53:16Z</time>
      </trkpt>
      <trkpt lat="46.23035" lon="-0.30337">
        <ele>39.6</ele>
        <time>2022-04-03T17:53:17Z</time>
      </trkpt>
      <trkpt lat="46.23039" lon="-0.30343">
        <ele>39.6</ele>
        <time>2022-04-03T17:53:18Z</time>
      </trkpt>
      <trkpt lat="46.23043" lon="-0.30349">
        <ele>39.8</ele>
        <time>2022-04-03T17:53:19Z</time>
      </trkpt>
      <trkpt lat="46.23047" lon="-0.30355">
        <ele>39.8</ele>
        <time>2022-04-03T17:53:20Z</time>
      </trkpt>
      <trkpt lat="46.23052" lon="-0.30361">
        <ele>40</ele>
        <time>2022-04-03T17:53:21Z</time>
      </trkpt>
      <trkpt lat="46.23056" lon="-0.30367">
        <ele>40</ele>
        <time>2022-04-03T17:53:22Z</time>
      </trkpt>
      <trkpt lat="46.2306" lon="-0.30373">
        <ele>40</ele>
        <time>2022-04-03T17:53:23Z</time>
      </trkpt>
      <trkpt lat="46.23064" lon="-0.30379">
        <ele>40</ele>
        <time>2022-04-03T17:53:24Z</time>
      </trkpt>
      <trkpt lat="46.23068" lon="-0.30385">
        <ele>40</ele>
        <time>2022-04-03T17:53:25Z</time>
      </trkpt>
      <trkpt lat="46.23072" lon="-0.30391">
        <ele>40</ele>
        <time>2022-04-03T17:53:26Z</time>
      </trkpt>
      <trkpt lat="46.23076" lon="-0.30397">
        <ele>40</ele>
        <time>2022-04-03T17:53:27Z</time>
      </trkpt>
      <trkpt lat="46.2308" lon="-0.30403">
        <ele>40</ele>
        <time>2022-04-03T17:53:28Z</time>
      </trkpt>
      <trkpt lat="46.23084" lon="-0.30409">
        <ele>40</ele>
        <time>2022-04-03T17:53:29Z</time>
      </trkpt>
      <trkpt lat="46.23089" lon="-0.30415">
        <ele>40</ele>
        <time>2022-04-03T17:53:30Z</time>
      </trkpt>
      <trkpt lat="46.23093" lon="-0.30421">
        <ele>40.2</ele>
        <time>2022-04-03T17:53:31Z</time>
      </trkpt>
      <trkpt lat="46.23097" lon="-0.30427">
        <ele>40</ele>
        <time>2022-04-03T17:53:32Z</time>
      </trkpt>
      <trkpt lat="46.23101" lon="-0.30434">
        <ele>40</ele>
        <time>2022-04-03T17:53:33Z</time>
      </trkpt>
      <trkpt lat="46.23106" lon="-0.3044">
        <ele>40.2</ele>
        <time>2022-04-03T17:53:34Z</time>
      </trkpt>
      <trkpt lat="46.2311" lon="-0.30446">
        <ele>40.2</ele>
        <time>2022-04-03T17:53:35Z</time>
      </trkpt>
      <trkpt lat="46.23115" lon="-0.30452">
        <ele>40.2</ele>
        <time>2022-04-03T17:53:36Z</time>
      </trkpt>
      <trkpt lat="46.23119" lon="-0.30459">
        <ele>40.2</ele>
        <time>2022-04-03T17:53:37Z</time>
      </trkpt>
      <trkpt lat="46.23123" lon="-0.30465">
        <ele>40.2</ele>
        <time>2022-04-03T17:53:38Z</time>
      </trkpt>
      <trkpt lat="46.23127" lon="-0.30472">
        <ele>40.2</ele>
        <time>2022-04-03T17:53:39Z</time>
      </trkpt>
      <trkpt lat="46.23132" lon="-0.30478">
        <ele>40</ele>
        <time>2022-04-03T17:53:40Z</time>
      </trkpt>
      <trkpt lat="46.23136" lon="-0.30484">
        <ele>40.2</ele>
        <time>2022-04-03T17:53:41Z</time>
      </trkpt>
      <trkpt lat="46.2314" lon="-0.30491">
        <ele>40</ele>
        <time>2022-04-03T17:53:42Z</time>
      </trkpt>
      <trkpt lat="46.23145" lon="-0.30497">
        <ele>40.2</ele>
        <time>2022-04-03T17:53:43Z</time>
      </trkpt>
      <trkpt lat="46.23149" lon="-0.30503">
        <ele>40.4</ele>
        <time>2022-04-03T17:53:44Z</time>
      </trkpt>
      <trkpt lat="46.23153" lon="-0.30509">
        <ele>40.2</ele>
        <time>2022-04-03T17:53:45Z</time>
      </trkpt>
      <trkpt lat="46.23158" lon="-0.30516">
        <ele>40.2</ele>
        <time>2022-04-03T17:53:46Z</time>
      </trkpt>
      <trkpt lat="46.23162" lon="-0.30522">
        <ele>40.2</ele>
        <time>2022-04-03T17:53:47Z</time>
      </trkpt>
      <trkpt lat="46.23166" lon="-0.30528">
        <ele>40</ele>
        <time>2022-04-03T17:53:48Z</time>
      </trkpt>
      <trkpt lat="46.2317" lon="-0.30534">
        <ele>40.2</ele>
        <time>2022-04-03T17:53:49Z</time>
      </trkpt>
      <trkpt lat="46.23175" lon="-0.3054">
        <ele>40.2</ele>
        <time>2022-04-03T17:53:50Z</time>
      </trkpt>
      <trkpt lat="46.23179" lon="-0.30547">
        <ele>40.2</ele>
        <time>2022-04-03T17:53:51Z</time>
      </trkpt>
      <trkpt lat="46.23183" lon="-0.30553">
        <ele>40.2</ele>
        <time>2022-04-03T17:53:52Z</time>
      </trkpt>
      <trkpt lat="46.23188" lon="-0.30559">
        <ele>40.2</ele>
        <time>2022-04-03T17:53:53Z</time>
      </trkpt>
      <trkpt lat="46.23192" lon="-0.30565">
        <ele>40.2</ele>
        <time>2022-04-03T17:53:54Z</time>
      </trkpt>
      <trkpt lat="46.23196" lon="-0.30571">
        <ele>40</ele>
        <time>2022-04-03T17:53:55Z</time>
      </trkpt>
      <trkpt lat="46.232" lon="-0.30578">
        <ele>40</ele>
        <time>2022-04-03T17:53:56Z</time>
      </trkpt>
      <trkpt lat="46.23205" lon="-0.30584">
        <ele>40.2</ele>
        <time>2022-04-03T17:53:57Z</time>
      </trkpt>
      <trkpt lat="46.23209" lon="-0.3059">
        <ele>40.2</ele>
        <time>2022-04-03T17:53:58Z</time>
      </trkpt>
      <trkpt lat="46.23213" lon="-0.30597">
        <ele>40.2</ele>
        <time>2022-04-03T17:53:59Z</time>
      </trkpt>
      <trkpt lat="46.23218" lon="-0.30603">
        <ele>40.2</ele>
        <time>2022-04-03T17:54:00Z</time>
      </trkpt>
      <trkpt lat="46.23222" lon="-0.30609">
        <ele>40.2</ele>
        <time>2022-04-03T17:54:01Z</time>
      </trkpt>
      <trkpt lat="46.23226" lon="-0.30616">
        <ele>40.2</ele>
        <time>2022-04-03T17:54:02Z</time>
      </trkpt>
      <trkpt lat="46.23231" lon="-0.30622">
        <ele>40.4</ele>
        <time>2022-04-03T17:54:03Z</time>
      </trkpt>
      <trkpt lat="46.23235" lon="-0.30628">
        <ele>40.2</ele>
        <time>2022-04-03T17:54:04Z</time>
      </trkpt>
      <trkpt lat="46.23239" lon="-0.30634">
        <ele>40.2</ele>
        <time>2022-04-03T17:54:05Z</time>
      </trkpt>
      <trkpt lat="46.23244" lon="-0.3064">
        <ele>40.2</ele>
        <time>2022-04-03T17:54:06Z</time>
      </trkpt>
      <trkpt lat="46.23248" lon="-0.30646">
        <ele>40.2</ele>
        <time>2022-04-03T17:54:07Z</time>
      </trkpt>
      <trkpt lat="46.23252" lon="-0.30652">
        <ele>40.4</ele>
        <time>2022-04-03T17:54:08Z</time>
      </trkpt>
      <trkpt lat="46.23256" lon="-0.30659">
        <ele>40.4</ele>
        <time>2022-04-03T17:54:09Z</time>
      </trkpt>
      <trkpt lat="46.23261" lon="-0.30665">
        <ele>40.4</ele>
        <time>2022-04-03T17:54:10Z</time>
      </trkpt>
      <trkpt lat="46.23265" lon="-0.30671">
        <ele>40.4</ele>
        <time>2022-04-03T17:54:11Z</time>
      </trkpt>
      <trkpt lat="46.23269" lon="-0.30677">
        <ele>40.4</ele>
        <time>2022-04-03T17:54:12Z</time>
      </trkpt>
      <trkpt lat="46.23273" lon="-0.30683">
        <ele>40.4</ele>
        <time>2022-04-03T17:54:13Z</time>
      </trkpt>
      <trkpt lat="46.23278" lon="-0.30689">
        <ele>40.6</ele>
        <time>2022-04-03T17:54:14Z</time>
      </trkpt>
      <trkpt lat="46.23282" lon="-0.30695">
        <ele>40.4</ele>
        <time>2022-04-03T17:54:15Z</time>
      </trkpt>
      <trkpt lat="46.23286" lon="-0.30701">
        <ele>40.4</ele>
        <time>2022-04-03T17:54:16Z</time>
      </trkpt>
      <trkpt lat="46.2329" lon="-0.30707">
        <ele>40.6</ele>
        <time>2022-04-03T17:54:17Z</time>
      </trkpt>
      <trkpt lat="46.23294" lon="-0.30713">
        <ele>40.4</ele>
        <time>2022-04-03T17:54:18Z</time>
      </trkpt>
      <trkpt lat="46.23298" lon="-0.30719">
        <ele>40.4</ele>
        <time>2022-04-03T17:54:19Z</time>
      </trkpt>
      <trkpt lat="46.23302" lon="-0.30725">
        <ele>40.4</ele>
        <time>2022-04-03T17:54:20Z</time>
      </trkpt>
      <trkpt lat="46.23307" lon="-0.30731">
        <ele>40.4</ele>
        <time>2022-04-03T17:54:21Z</time>
      </trkpt>
      <trkpt lat="46.23311" lon="-0.30737">
        <ele>40.4</ele>
        <time>2022-04-03T17:54:22Z</time>
      </trkpt>
      <trkpt lat="46.23315" lon="-0.30743">
        <ele>40.6</ele>
        <time>2022-04-03T17:54:23Z</time>
      </trkpt>
      <trkpt lat="46.23319" lon="-0.30749">
        <ele>40.6</ele>
        <time>2022-04-03T17:54:24Z</time>
      </trkpt>
      <trkpt lat="46.23324" lon="-0.30756">
        <ele>40.6</ele>
        <time>2022-04-03T17:54:25Z</time>
      </trkpt>
      <trkpt lat="46.23328" lon="-0.30762">
        <ele>40.4</ele>
        <time>2022-04-03T17:54:26Z</time>
      </trkpt>
      <trkpt lat="46.23332" lon="-0.30767">
        <ele>40.4</ele>
        <time>2022-04-03T17:54:27Z</time>
      </trkpt>
      <trkpt lat="46.23337" lon="-0.30773">
        <ele>40.4</ele>
        <time>2022-04-03T17:54:28Z</time>
      </trkpt>
      <trkpt lat="46.23342" lon="-0.30778">
        <ele>40.2</ele>
        <time>2022-04-03T17:54:29Z</time>
      </trkpt>
      <trkpt lat="46.23346" lon="-0.30784">
        <ele>40.2</ele>
        <time>2022-04-03T17:54:30Z</time>
      </trkpt>
      <trkpt lat="46.23351" lon="-0.30789">
        <ele>40.4</ele>
        <time>2022-04-03T17:54:31Z</time>
      </trkpt>
      <trkpt lat="46.23355" lon="-0.30794">
        <ele>40.2</ele>
        <time>2022-04-03T17:54:32Z</time>
      </trkpt>
      <trkpt lat="46.2336" lon="-0.308">
        <ele>40.2</ele>
        <time>2022-04-03T17:54:33Z</time>
      </trkpt>
      <trkpt lat="46.23364" lon="-0.30805">
        <ele>40.4</ele>
        <time>2022-04-03T17:54:34Z</time>
      </trkpt>
      <trkpt lat="46.23369" lon="-0.3081">
        <ele>40.6</ele>
        <time>2022-04-03T17:54:35Z</time>
      </trkpt>
      <trkpt lat="46.23373" lon="-0.30815">
        <ele>40.4</ele>
        <time>2022-04-03T17:54:36Z</time>
      </trkpt>
      <trkpt lat="46.23378" lon="-0.3082">
        <ele>40.6</ele>
        <time>2022-04-03T17:54:37Z</time>
      </trkpt>
      <trkpt lat="46.23383" lon="-0.30824">
        <ele>40.6</ele>
        <time>2022-04-03T17:54:38Z</time>
      </trkpt>
      <trkpt lat="46.23388" lon="-0.30828">
        <ele>40.6</ele>
        <time>2022-04-03T17:54:39Z</time>
      </trkpt>
      <trkpt lat="46.23393" lon="-0.30832">
        <ele>40.8</ele>
        <time>2022-04-03T17:54:40Z</time>
      </trkpt>
      <trkpt lat="46.23398" lon="-0.30836">
        <ele>40.8</ele>
        <time>2022-04-03T17:54:41Z</time>
      </trkpt>
      <trkpt lat="46.23404" lon="-0.3084">
        <ele>40.6</ele>
        <time>2022-04-03T17:54:42Z</time>
      </trkpt>
      <trkpt lat="46.23409" lon="-0.30844">
        <ele>40.6</ele>
        <time>2022-04-03T17:54:43Z</time>
      </trkpt>
      <trkpt lat="46.23414" lon="-0.30848">
        <ele>40.6</ele>
        <time>2022-04-03T17:54:44Z</time>
      </trkpt>
      <trkpt lat="46.23419" lon="-0.30851">
        <ele>40.8</ele>
        <time>2022-04-03T17:54:45Z</time>
      </trkpt>
      <trkpt lat="46.23425" lon="-0.30854">
        <ele>40.6</ele>
        <time>2022-04-03T17:54:46Z</time>
      </trkpt>
      <trkpt lat="46.2343" lon="-0.30858">
        <ele>40.4</ele>
        <time>2022-04-03T17:54:47Z</time>
      </trkpt>
      <trkpt lat="46.23436" lon="-0.30861">
        <ele>40.4</ele>
        <time>2022-04-03T17:54:48Z</time>
      </trkpt>
      <trkpt lat="46.23441" lon="-0.30865">
        <ele>40.4</ele>
        <time>2022-04-03T17:54:49Z</time>
      </trkpt>
      <trkpt lat="46.23447" lon="-0.30869">
        <ele>40.4</ele>
        <time>2022-04-03T17:54:50Z</time>
      </trkpt>
      <trkpt lat="46.23452" lon="-0.30872">
        <ele>40.4</ele>
        <time>2022-04-03T17:54:51Z</time>
      </trkpt>
      <trkpt lat="46.23458" lon="-0.30876">
        <ele>40.4</ele>
        <time>2022-04-03T17:54:52Z</time>
      </trkpt>
      <trkpt lat="46.23464" lon="-0.30879">
        <ele>40.4</ele>
        <time>2022-04-03T17:54:53Z</time>
      </trkpt>
      <trkpt lat="46.23469" lon="-0.30883">
        <ele>40.2</ele>
        <time>2022-04-03T17:54:54Z</time>
      </trkpt>
      <trkpt lat="46.23475" lon="-0.30886">
        <ele>40.2</ele>
        <time>2022-04-03T17:54:55Z</time>
      </trkpt>
      <trkpt lat="46.2348" lon="-0.30889">
        <ele>40.2</ele>
        <time>2022-04-03T17:54:56Z</time>
      </trkpt>
      <trkpt lat="46.23485" lon="-0.30893">
        <ele>40</ele>
        <time>2022-04-03T17:54:57Z</time>
      </trkpt>
      <trkpt lat="46.2349" lon="-0.30896">
        <ele>40</ele>
        <time>2022-04-03T17:54:58Z</time>
      </trkpt>
      <trkpt lat="46.23496" lon="-0.30899">
        <ele>40</ele>
        <time>2022-04-03T17:54:59Z</time>
      </trkpt>
      <trkpt lat="46.23501" lon="-0.30902">
        <ele>40</ele>
        <time>2022-04-03T17:55:00Z</time>
      </trkpt>
      <trkpt lat="46.23506" lon="-0.30905">
        <ele>40</ele>
        <time>2022-04-03T17:55:01Z</time>
      </trkpt>
      <trkpt lat="46.2351" lon="-0.30908">
        <ele>39.8</ele>
        <time>2022-04-03T17:55:02Z</time>
      </trkpt>
      <trkpt lat="46.23515" lon="-0.30911">
        <ele>39.8</ele>
        <time>2022-04-03T17:55:03Z</time>
      </trkpt>
      <trkpt lat="46.2352" lon="-0.30914">
        <ele>39.8</ele>
        <time>2022-04-03T17:55:04Z</time>
      </trkpt>
      <trkpt lat="46.23525" lon="-0.30917">
        <ele>40</ele>
        <time>2022-04-03T17:55:05Z</time>
      </trkpt>
      <trkpt lat="46.23531" lon="-0.3092">
        <ele>39.8</ele>
        <time>2022-04-03T17:55:06Z</time>
      </trkpt>
      <trkpt lat="46.23536" lon="-0.30923">
        <ele>39.8</ele>
        <time>2022-04-03T17:55:07Z</time>
      </trkpt>
      <trkpt lat="46.23541" lon="-0.30926">
        <ele>39.6</ele>
        <time>2022-04-03T17:55:08Z</time>
      </trkpt>
      <trkpt lat="46.23547" lon="-0.3093">
        <ele>39.8</ele>
        <time>2022-04-03T17:55:09Z</time>
      </trkpt>
      <trkpt lat="46.23552" lon="-0.30934">
        <ele>39.6</ele>
        <time>2022-04-03T17:55:10Z</time>
      </trkpt>
      <trkpt lat="46.23558" lon="-0.30937">
        <ele>39.6</ele>
        <time>2022-04-03T17:55:11Z</time>
      </trkpt>
      <trkpt lat="46.23563" lon="-0.3094">
        <ele>39.4</ele>
        <time>2022-04-03T17:55:12Z</time>
      </trkpt>
      <trkpt lat="46.23569" lon="-0.30944">
        <ele>39.4</ele>
        <time>2022-04-03T17:55:13Z</time>
      </trkpt>
      <trkpt lat="46.23575" lon="-0.30947">
        <ele>39.6</ele>
        <time>2022-04-03T17:55:14Z</time>
      </trkpt>
      <trkpt lat="46.2358" lon="-0.30951">
        <ele>39.2</ele>
        <time>2022-04-03T17:55:15Z</time>
      </trkpt>
      <trkpt lat="46.23586" lon="-0.30955">
        <ele>39.2</ele>
        <time>2022-04-03T17:55:16Z</time>
      </trkpt>
      <trkpt lat="46.23591" lon="-0.30958">
        <ele>39</ele>
        <time>2022-04-03T17:55:17Z</time>
      </trkpt>
      <trkpt lat="46.23597" lon="-0.30961">
        <ele>39</ele>
        <time>2022-04-03T17:55:18Z</time>
      </trkpt>
      <trkpt lat="46.23602" lon="-0.30964">
        <ele>39</ele>
        <time>2022-04-03T17:55:19Z</time>
      </trkpt>
      <trkpt lat="46.23607" lon="-0.30968">
        <ele>39</ele>
        <time>2022-04-03T17:55:20Z</time>
      </trkpt>
      <trkpt lat="46.23612" lon="-0.30971">
        <ele>39</ele>
        <time>2022-04-03T17:55:21Z</time>
      </trkpt>
      <trkpt lat="46.23618" lon="-0.30974">
        <ele>38.8</ele>
        <time>2022-04-03T17:55:22Z</time>
      </trkpt>
      <trkpt lat="46.23623" lon="-0.30977">
        <ele>38.6</ele>
        <time>2022-04-03T17:55:23Z</time>
      </trkpt>
      <trkpt lat="46.23628" lon="-0.3098">
        <ele>38.6</ele>
        <time>2022-04-03T17:55:24Z</time>
      </trkpt>
      <trkpt lat="46.23634" lon="-0.30983">
        <ele>38.4</ele>
        <time>2022-04-03T17:55:25Z</time>
      </trkpt>
      <trkpt lat="46.23639" lon="-0.30986">
        <ele>38.2</ele>
        <time>2022-04-03T17:55:26Z</time>
      </trkpt>
      <trkpt lat="46.23645" lon="-0.3099">
        <ele>38.2</ele>
        <time>2022-04-03T17:55:27Z</time>
      </trkpt>
      <trkpt lat="46.2365" lon="-0.30993">
        <ele>37.8</ele>
        <time>2022-04-03T17:55:28Z</time>
      </trkpt>
      <trkpt lat="46.23656" lon="-0.30996">
        <ele>37.6</ele>
        <time>2022-04-03T17:55:29Z</time>
      </trkpt>
      <trkpt lat="46.23661" lon="-0.30999">
        <ele>37.6</ele>
        <time>2022-04-03T17:55:30Z</time>
      </trkpt>
      <trkpt lat="46.23667" lon="-0.31003">
        <ele>37.6</ele>
        <time>2022-04-03T17:55:31Z</time>
      </trkpt>
      <trkpt lat="46.23672" lon="-0.31006">
        <ele>37.2</ele>
        <time>2022-04-03T17:55:32Z</time>
      </trkpt>
      <trkpt lat="46.23678" lon="-0.3101">
        <ele>37</ele>
        <time>2022-04-03T17:55:33Z</time>
      </trkpt>
      <trkpt lat="46.23684" lon="-0.31013">
        <ele>37</ele>
        <time>2022-04-03T17:55:34Z</time>
      </trkpt>
      <trkpt lat="46.23689" lon="-0.31016">
        <ele>36.8</ele>
        <time>2022-04-03T17:55:35Z</time>
      </trkpt>
      <trkpt lat="46.23695" lon="-0.3102">
        <ele>36.8</ele>
        <time>2022-04-03T17:55:36Z</time>
      </trkpt>
      <trkpt lat="46.237" lon="-0.31023">
        <ele>36.6</ele>
        <time>2022-04-03T17:55:37Z</time>
      </trkpt>
      <trkpt lat="46.23706" lon="-0.31027">
        <ele>36.6</ele>
        <time>2022-04-03T17:55:38Z</time>
      </trkpt>
      <trkpt lat="46.23712" lon="-0.3103">
        <ele>36.6</ele>
        <time>2022-04-03T17:55:39Z</time>
      </trkpt>
      <trkpt lat="46.23717" lon="-0.31034">
        <ele>36.4</ele>
        <time>2022-04-03T17:55:40Z</time>
      </trkpt>
      <trkpt lat="46.23723" lon="-0.31038">
        <ele>36.6</ele>
        <time>2022-04-03T17:55:41Z</time>
      </trkpt>
      <trkpt lat="46.23729" lon="-0.31041">
        <ele>36.4</ele>
        <time>2022-04-03T17:55:42Z</time>
      </trkpt>
      <trkpt lat="46.23735" lon="-0.31044">
        <ele>36.4</ele>
        <time>2022-04-03T17:55:43Z</time>
      </trkpt>
      <trkpt lat="46.2374" lon="-0.31048">
        <ele>36.4</ele>
        <time>2022-04-03T17:55:44Z</time>
      </trkpt>
      <trkpt lat="46.23746" lon="-0.31051">
        <ele>36.4</ele>
        <time>2022-04-03T17:55:45Z</time>
      </trkpt>
      <trkpt lat="46.23752" lon="-0.31055">
        <ele>36.2</ele>
        <time>2022-04-03T17:55:46Z</time>
      </trkpt>
      <trkpt lat="46.23758" lon="-0.31058">
        <ele>36.2</ele>
        <time>2022-04-03T17:55:47Z</time>
      </trkpt>
      <trkpt lat="46.23763" lon="-0.31062">
        <ele>36.2</ele>
        <time>2022-04-03T17:55:48Z</time>
      </trkpt>
      <trkpt lat="46.23769" lon="-0.31065">
        <ele>36</ele>
        <time>2022-04-03T17:55:49Z</time>
      </trkpt>
      <trkpt lat="46.23775" lon="-0.31069">
        <ele>36.2</ele>
        <time>2022-04-03T17:55:50Z</time>
      </trkpt>
      <trkpt lat="46.2378" lon="-0.31072">
        <ele>36</ele>
        <time>2022-04-03T17:55:51Z</time>
      </trkpt>
      <trkpt lat="46.23786" lon="-0.31076">
        <ele>35.8</ele>
        <time>2022-04-03T17:55:52Z</time>
      </trkpt>
      <trkpt lat="46.23792" lon="-0.31079">
        <ele>35.8</ele>
        <time>2022-04-03T17:55:53Z</time>
      </trkpt>
      <trkpt lat="46.23797" lon="-0.31083">
        <ele>35.8</ele>
        <time>2022-04-03T17:55:54Z</time>
      </trkpt>
      <trkpt lat="46.23803" lon="-0.31086">
        <ele>35.8</ele>
        <time>2022-04-03T17:55:55Z</time>
      </trkpt>
      <trkpt lat="46.23809" lon="-0.3109">
        <ele>35.8</ele>
        <time>2022-04-03T17:55:56Z</time>
      </trkpt>
      <trkpt lat="46.23814" lon="-0.31093">
        <ele>35.6</ele>
        <time>2022-04-03T17:55:57Z</time>
      </trkpt>
      <trkpt lat="46.2382" lon="-0.31097">
        <ele>35.6</ele>
        <time>2022-04-03T17:55:58Z</time>
      </trkpt>
      <trkpt lat="46.23826" lon="-0.311">
        <ele>35.8</ele>
        <time>2022-04-03T17:55:59Z</time>
      </trkpt>
      <trkpt lat="46.23832" lon="-0.31104">
        <ele>35.6</ele>
        <time>2022-04-03T17:56:00Z</time>
      </trkpt>
      <trkpt lat="46.23838" lon="-0.31108">
        <ele>35.4</ele>
        <time>2022-04-03T17:56:01Z</time>
      </trkpt>
      <trkpt lat="46.23843" lon="-0.31111">
        <ele>35.4</ele>
        <time>2022-04-03T17:56:02Z</time>
      </trkpt>
      <trkpt lat="46.23849" lon="-0.31114">
        <ele>35.4</ele>
        <time>2022-04-03T17:56:03Z</time>
      </trkpt>
      <trkpt lat="46.23855" lon="-0.31118">
        <ele>35.4</ele>
        <time>2022-04-03T17:56:04Z</time>
      </trkpt>
      <trkpt lat="46.2386" lon="-0.31121">
        <ele>35.2</ele>
        <time>2022-04-03T17:56:05Z</time>
      </trkpt>
      <trkpt lat="46.23866" lon="-0.31125">
        <ele>35.4</ele>
        <time>2022-04-03T17:56:06Z</time>
      </trkpt>
      <trkpt lat="46.23871" lon="-0.31128">
        <ele>35.4</ele>
        <time>2022-04-03T17:56:07Z</time>
      </trkpt>
      <trkpt lat="46.23876" lon="-0.31131">
        <ele>35.4</ele>
        <time>2022-04-03T17:56:08Z</time>
      </trkpt>
      <trkpt lat="46.23882" lon="-0.31134">
        <ele>35.4</ele>
        <time>2022-04-03T17:56:09Z</time>
      </trkpt>
      <trkpt lat="46.23887" lon="-0.31138">
        <ele>35.6</ele>
        <time>2022-04-03T17:56:10Z</time>
      </trkpt>
      <trkpt lat="46.23893" lon="-0.31141">
        <ele>35.4</ele>
        <time>2022-04-03T17:56:11Z</time>
      </trkpt>
      <trkpt lat="46.23899" lon="-0.31145">
        <ele>35.2</ele>
        <time>2022-04-03T17:56:12Z</time>
      </trkpt>
      <trkpt lat="46.23904" lon="-0.31149">
        <ele>35.2</ele>
        <time>2022-04-03T17:56:13Z</time>
      </trkpt>
      <trkpt lat="46.23909" lon="-0.31152">
        <ele>35.2</ele>
        <time>2022-04-03T17:56:14Z</time>
      </trkpt>
      <trkpt lat="46.23915" lon="-0.31156">
        <ele>35.2</ele>
        <time>2022-04-03T17:56:15Z</time>
      </trkpt>
      <trkpt lat="46.23921" lon="-0.31159">
        <ele>35.2</ele>
        <time>2022-04-03T17:56:16Z</time>
      </trkpt>
      <trkpt lat="46.23927" lon="-0.31163">
        <ele>35.2</ele>
        <time>2022-04-03T17:56:17Z</time>
      </trkpt>
      <trkpt lat="46.23933" lon="-0.31166">
        <ele>35.2</ele>
        <time>2022-04-03T17:56:18Z</time>
      </trkpt>
      <trkpt lat="46.23939" lon="-0.3117">
        <ele>35.2</ele>
        <time>2022-04-03T17:56:19Z</time>
      </trkpt>
      <trkpt lat="46.23944" lon="-0.31173">
        <ele>35</ele>
        <time>2022-04-03T17:56:20Z</time>
      </trkpt>
      <trkpt lat="46.2395" lon="-0.31177">
        <ele>35</ele>
        <time>2022-04-03T17:56:21Z</time>
      </trkpt>
      <trkpt lat="46.23956" lon="-0.3118">
        <ele>35</ele>
        <time>2022-04-03T17:56:22Z</time>
      </trkpt>
      <trkpt lat="46.23962" lon="-0.31184">
        <ele>35</ele>
        <time>2022-04-03T17:56:23Z</time>
      </trkpt>
      <trkpt lat="46.23967" lon="-0.31187">
        <ele>34.8</ele>
        <time>2022-04-03T17:56:24Z</time>
      </trkpt>
      <trkpt lat="46.23973" lon="-0.31191">
        <ele>34.6</ele>
        <time>2022-04-03T17:56:25Z</time>
      </trkpt>
      <trkpt lat="46.23979" lon="-0.31194">
        <ele>34.2</ele>
        <time>2022-04-03T17:56:26Z</time>
      </trkpt>
      <trkpt lat="46.23985" lon="-0.31198">
        <ele>34.2</ele>
        <time>2022-04-03T17:56:27Z</time>
      </trkpt>
      <trkpt lat="46.2399" lon="-0.31201">
        <ele>34.2</ele>
        <time>2022-04-03T17:56:28Z</time>
      </trkpt>
      <trkpt lat="46.23996" lon="-0.31205">
        <ele>34</ele>
        <time>2022-04-03T17:56:29Z</time>
      </trkpt>
      <trkpt lat="46.24002" lon="-0.31208">
        <ele>34</ele>
        <time>2022-04-03T17:56:30Z</time>
      </trkpt>
      <trkpt lat="46.24007" lon="-0.31212">
        <ele>34</ele>
        <time>2022-04-03T17:56:31Z</time>
      </trkpt>
      <trkpt lat="46.24013" lon="-0.31216">
        <ele>34</ele>
        <time>2022-04-03T17:56:32Z</time>
      </trkpt>
      <trkpt lat="46.24018" lon="-0.3122">
        <ele>33.8</ele>
        <time>2022-04-03T17:56:33Z</time>
      </trkpt>
      <trkpt lat="46.24023" lon="-0.31225">
        <ele>33.8</ele>
        <time>2022-04-03T17:56:34Z</time>
      </trkpt>
      <trkpt lat="46.24028" lon="-0.3123">
        <ele>33.8</ele>
        <time>2022-04-03T17:56:35Z</time>
      </trkpt>
      <trkpt lat="46.24034" lon="-0.31235">
        <ele>33.8</ele>
        <time>2022-04-03T17:56:36Z</time>
      </trkpt>
      <trkpt lat="46.24039" lon="-0.31241">
        <ele>33.8</ele>
        <time>2022-04-03T17:56:37Z</time>
      </trkpt>
      <trkpt lat="46.24044" lon="-0.31246">
        <ele>33.8</ele>
        <time>2022-04-03T17:56:38Z</time>
      </trkpt>
      <trkpt lat="46.24049" lon="-0.31252">
        <ele>33.8</ele>
        <time>2022-04-03T17:56:39Z</time>
      </trkpt>
      <trkpt lat="46.24054" lon="-0.31257">
        <ele>33.6</ele>
        <time>2022-04-03T17:56:40Z</time>
      </trkpt>
      <trkpt lat="46.24059" lon="-0.31262">
        <ele>33.6</ele>
        <time>2022-04-03T17:56:41Z</time>
      </trkpt>
      <trkpt lat="46.24063" lon="-0.31268">
        <ele>33.8</ele>
        <time>2022-04-03T17:56:42Z</time>
      </trkpt>
      <trkpt lat="46.24068" lon="-0.31273">
        <ele>33.8</ele>
        <time>2022-04-03T17:56:43Z</time>
      </trkpt>
      <trkpt lat="46.24072" lon="-0.31279">
        <ele>33.8</ele>
        <time>2022-04-03T17:56:44Z</time>
      </trkpt>
      <trkpt lat="46.24077" lon="-0.31284">
        <ele>33.8</ele>
        <time>2022-04-03T17:56:45Z</time>
      </trkpt>
      <trkpt lat="46.24082" lon="-0.31289">
        <ele>33.6</ele>
        <time>2022-04-03T17:56:46Z</time>
      </trkpt>
      <trkpt lat="46.24087" lon="-0.31295">
        <ele>33.6</ele>
        <time>2022-04-03T17:56:47Z</time>
      </trkpt>
      <trkpt lat="46.24092" lon="-0.313">
        <ele>33.6</ele>
        <time>2022-04-03T17:56:48Z</time>
      </trkpt>
      <trkpt lat="46.24097" lon="-0.31305">
        <ele>33.4</ele>
        <time>2022-04-03T17:56:49Z</time>
      </trkpt>
      <trkpt lat="46.24102" lon="-0.3131">
        <ele>33.6</ele>
        <time>2022-04-03T17:56:50Z</time>
      </trkpt>
      <trkpt lat="46.24107" lon="-0.31316">
        <ele>33.6</ele>
        <time>2022-04-03T17:56:51Z</time>
      </trkpt>
      <trkpt lat="46.24113" lon="-0.31321">
        <ele>33.4</ele>
        <time>2022-04-03T17:56:52Z</time>
      </trkpt>
      <trkpt lat="46.24118" lon="-0.31326">
        <ele>33.4</ele>
        <time>2022-04-03T17:56:53Z</time>
      </trkpt>
      <trkpt lat="46.24123" lon="-0.31331">
        <ele>33.2</ele>
        <time>2022-04-03T17:56:54Z</time>
      </trkpt>
      <trkpt lat="46.24128" lon="-0.31336">
        <ele>33.2</ele>
        <time>2022-04-03T17:56:55Z</time>
      </trkpt>
      <trkpt lat="46.24134" lon="-0.31341">
        <ele>33</ele>
        <time>2022-04-03T17:56:56Z</time>
      </trkpt>
      <trkpt lat="46.24139" lon="-0.31346">
        <ele>32.8</ele>
        <time>2022-04-03T17:56:57Z</time>
      </trkpt>
      <trkpt lat="46.24144" lon="-0.31351">
        <ele>32.8</ele>
        <time>2022-04-03T17:56:58Z</time>
      </trkpt>
      <trkpt lat="46.2415" lon="-0.31356">
        <ele>32.6</ele>
        <time>2022-04-03T17:56:59Z</time>
      </trkpt>
      <trkpt lat="46.24155" lon="-0.31361">
        <ele>32.6</ele>
        <time>2022-04-03T17:57:00Z</time>
      </trkpt>
      <trkpt lat="46.2416" lon="-0.31366">
        <ele>32.4</ele>
        <time>2022-04-03T17:57:01Z</time>
      </trkpt>
      <trkpt lat="46.24166" lon="-0.31371">
        <ele>32.4</ele>
        <time>2022-04-03T17:57:02Z</time>
      </trkpt>
      <trkpt lat="46.24171" lon="-0.31376">
        <ele>32.2</ele>
        <time>2022-04-03T17:57:03Z</time>
      </trkpt>
      <trkpt lat="46.24177" lon="-0.31381">
        <ele>31.6</ele>
        <time>2022-04-03T17:57:04Z</time>
      </trkpt>
      <trkpt lat="46.24182" lon="-0.31386">
        <ele>31.6</ele>
        <time>2022-04-03T17:57:05Z</time>
      </trkpt>
      <trkpt lat="46.24187" lon="-0.31392">
        <ele>31.6</ele>
        <time>2022-04-03T17:57:06Z</time>
      </trkpt>
      <trkpt lat="46.24192" lon="-0.31397">
        <ele>31.4</ele>
        <time>2022-04-03T17:57:07Z</time>
      </trkpt>
      <trkpt lat="46.24197" lon="-0.31403">
        <ele>31.4</ele>
        <time>2022-04-03T17:57:08Z</time>
      </trkpt>
      <trkpt lat="46.24203" lon="-0.31408">
        <ele>31.2</ele>
        <time>2022-04-03T17:57:09Z</time>
      </trkpt>
      <trkpt lat="46.24208" lon="-0.31414">
        <ele>31.2</ele>
        <time>2022-04-03T17:57:10Z</time>
      </trkpt>
      <trkpt lat="46.24212" lon="-0.3142">
        <ele>31.2</ele>
        <time>2022-04-03T17:57:11Z</time>
      </trkpt>
      <trkpt lat="46.24217" lon="-0.31427">
        <ele>31</ele>
        <time>2022-04-03T17:57:12Z</time>
      </trkpt>
      <trkpt lat="46.24221" lon="-0.31434">
        <ele>31</ele>
        <time>2022-04-03T17:57:13Z</time>
      </trkpt>
      <trkpt lat="46.24226" lon="-0.3144">
        <ele>31</ele>
        <time>2022-04-03T17:57:14Z</time>
      </trkpt>
      <trkpt lat="46.2423" lon="-0.31447">
        <ele>30.8</ele>
        <time>2022-04-03T17:57:15Z</time>
      </trkpt>
      <trkpt lat="46.24235" lon="-0.31454">
        <ele>31</ele>
        <time>2022-04-03T17:57:16Z</time>
      </trkpt>
      <trkpt lat="46.24239" lon="-0.31462">
        <ele>30.8</ele>
        <time>2022-04-03T17:57:17Z</time>
      </trkpt>
      <trkpt lat="46.24243" lon="-0.31469">
        <ele>30.6</ele>
        <time>2022-04-03T17:57:18Z</time>
      </trkpt>
      <trkpt lat="46.24247" lon="-0.31477">
        <ele>30.6</ele>
        <time>2022-04-03T17:57:19Z</time>
      </trkpt>
      <trkpt lat="46.2425" lon="-0.31485">
        <ele>30.6</ele>
        <time>2022-04-03T17:57:20Z</time>
      </trkpt>
      <trkpt lat="46.24254" lon="-0.31493">
        <ele>30.4</ele>
        <time>2022-04-03T17:57:21Z</time>
      </trkpt>
      <trkpt lat="46.24258" lon="-0.31501">
        <ele>30.2</ele>
        <time>2022-04-03T17:57:22Z</time>
      </trkpt>
      <trkpt lat="46.24262" lon="-0.31509">
        <ele>30</ele>
        <time>2022-04-03T17:57:23Z</time>
      </trkpt>
      <trkpt lat="46.24265" lon="-0.31517">
        <ele>30.2</ele>
        <time>2022-04-03T17:57:24Z</time>
      </trkpt>
      <trkpt lat="46.24269" lon="-0.31524">
        <ele>30.2</ele>
        <time>2022-04-03T17:57:25Z</time>
      </trkpt>
      <trkpt lat="46.24273" lon="-0.31532">
        <ele>30</ele>
        <time>2022-04-03T17:57:26Z</time>
      </trkpt>
      <trkpt lat="46.24278" lon="-0.31539">
        <ele>30</ele>
        <time>2022-04-03T17:57:27Z</time>
      </trkpt>
      <trkpt lat="46.24282" lon="-0.31546">
        <ele>30</ele>
        <time>2022-04-03T17:57:28Z</time>
      </trkpt>
      <trkpt lat="46.24286" lon="-0.31553">
        <ele>29.8</ele>
        <time>2022-04-03T17:57:29Z</time>
      </trkpt>
      <trkpt lat="46.24291" lon="-0.3156">
        <ele>29.8</ele>
        <time>2022-04-03T17:57:30Z</time>
      </trkpt>
      <trkpt lat="46.24295" lon="-0.31567">
        <ele>29.8</ele>
        <time>2022-04-03T17:57:31Z</time>
      </trkpt>
      <trkpt lat="46.243" lon="-0.31574">
        <ele>29.8</ele>
        <time>2022-04-03T17:57:32Z</time>
      </trkpt>
      <trkpt lat="46.24305" lon="-0.3158">
        <ele>29.8</ele>
        <time>2022-04-03T17:57:33Z</time>
      </trkpt>
      <trkpt lat="46.2431" lon="-0.31586">
        <ele>29.8</ele>
        <time>2022-04-03T17:57:34Z</time>
      </trkpt>
      <trkpt lat="46.24315" lon="-0.31592">
        <ele>29.6</ele>
        <time>2022-04-03T17:57:35Z</time>
      </trkpt>
      <trkpt lat="46.2432" lon="-0.31598">
        <ele>29.6</ele>
        <time>2022-04-03T17:57:36Z</time>
      </trkpt>
      <trkpt lat="46.24325" lon="-0.31604">
        <ele>29.6</ele>
        <time>2022-04-03T17:57:37Z</time>
      </trkpt>
      <trkpt lat="46.24331" lon="-0.3161">
        <ele>29.6</ele>
        <time>2022-04-03T17:57:38Z</time>
      </trkpt>
      <trkpt lat="46.24336" lon="-0.31615">
        <ele>29.6</ele>
        <time>2022-04-03T17:57:39Z</time>
      </trkpt>
      <trkpt lat="46.24342" lon="-0.31621">
        <ele>29.4</ele>
        <time>2022-04-03T17:57:40Z</time>
      </trkpt>
      <trkpt lat="46.24347" lon="-0.31627">
        <ele>29.4</ele>
        <time>2022-04-03T17:57:41Z</time>
      </trkpt>
      <trkpt lat="46.24353" lon="-0.31632">
        <ele>29.4</ele>
        <time>2022-04-03T17:57:42Z</time>
      </trkpt>
      <trkpt lat="46.24358" lon="-0.31638">
        <ele>29.4</ele>
        <time>2022-04-03T17:57:43Z</time>
      </trkpt>
      <trkpt lat="46.24364" lon="-0.31644">
        <ele>29.2</ele>
        <time>2022-04-03T17:57:44Z</time>
      </trkpt>
      <trkpt lat="46.24369" lon="-0.3165">
        <ele>29.2</ele>
        <time>2022-04-03T17:57:45Z</time>
      </trkpt>
      <trkpt lat="46.24375" lon="-0.31656">
        <ele>29.2</ele>
        <time>2022-04-03T17:57:46Z</time>
      </trkpt>
      <trkpt lat="46.2438" lon="-0.31662">
        <ele>29.2</ele>
        <time>2022-04-03T17:57:47Z</time>
      </trkpt>
      <trkpt lat="46.24386" lon="-0.31668">
        <ele>29.2</ele>
        <time>2022-04-03T17:57:48Z</time>
      </trkpt>
      <trkpt lat="46.24391" lon="-0.31674">
        <ele>29.2</ele>
        <time>2022-04-03T17:57:49Z</time>
      </trkpt>
      <trkpt lat="46.24396" lon="-0.3168">
        <ele>29</ele>
        <time>2022-04-03T17:57:50Z</time>
      </trkpt>
      <trkpt lat="46.24402" lon="-0.31686">
        <ele>29</ele>
        <time>2022-04-03T17:57:51Z</time>
      </trkpt>
      <trkpt lat="46.24407" lon="-0.31693">
        <ele>29</ele>
        <time>2022-04-03T17:57:52Z</time>
      </trkpt>
      <trkpt lat="46.24411" lon="-0.31699">
        <ele>29</ele>
        <time>2022-04-03T17:57:53Z</time>
      </trkpt>
      <trkpt lat="46.24416" lon="-0.31706">
        <ele>29</ele>
        <time>2022-04-03T17:57:54Z</time>
      </trkpt>
      <trkpt lat="46.24421" lon="-0.31713">
        <ele>29</ele>
        <time>2022-04-03T17:57:55Z</time>
      </trkpt>
      <trkpt lat="46.24425" lon="-0.3172">
        <ele>28.8</ele>
        <time>2022-04-03T17:57:56Z</time>
      </trkpt>
      <trkpt lat="46.2443" lon="-0.31728">
        <ele>28.8</ele>
        <time>2022-04-03T17:57:57Z</time>
      </trkpt>
      <trkpt lat="46.24434" lon="-0.31735">
        <ele>28.6</ele>
        <time>2022-04-03T17:57:58Z</time>
      </trkpt>
      <trkpt lat="46.24438" lon="-0.31742">
        <ele>28.6</ele>
        <time>2022-04-03T17:57:59Z</time>
      </trkpt>
      <trkpt lat="46.24442" lon="-0.3175">
        <ele>28.6</ele>
        <time>2022-04-03T17:58:00Z</time>
      </trkpt>
      <trkpt lat="46.24447" lon="-0.31757">
        <ele>28.4</ele>
        <time>2022-04-03T17:58:01Z</time>
      </trkpt>
      <trkpt lat="46.24451" lon="-0.31765">
        <ele>28.6</ele>
        <time>2022-04-03T17:58:02Z</time>
      </trkpt>
      <trkpt lat="46.24455" lon="-0.31773">
        <ele>28.2</ele>
        <time>2022-04-03T17:58:03Z</time>
      </trkpt>
      <trkpt lat="46.24459" lon="-0.3178">
        <ele>28.4</ele>
        <time>2022-04-03T17:58:04Z</time>
      </trkpt>
      <trkpt lat="46.24463" lon="-0.31788">
        <ele>28.2</ele>
        <time>2022-04-03T17:58:05Z</time>
      </trkpt>
      <trkpt lat="46.24468" lon="-0.31795">
        <ele>28.2</ele>
        <time>2022-04-03T17:58:06Z</time>
      </trkpt>
      <trkpt lat="46.24472" lon="-0.31803">
        <ele>28.4</ele>
        <time>2022-04-03T17:58:07Z</time>
      </trkpt>
      <trkpt lat="46.24477" lon="-0.3181">
        <ele>28.2</ele>
        <time>2022-04-03T17:58:08Z</time>
      </trkpt>
      <trkpt lat="46.24481" lon="-0.31818">
        <ele>28.2</ele>
        <time>2022-04-03T17:58:09Z</time>
      </trkpt>
      <trkpt lat="46.24486" lon="-0.31825">
        <ele>28.2</ele>
        <time>2022-04-03T17:58:10Z</time>
      </trkpt>
      <trkpt lat="46.2449" lon="-0.31832">
        <ele>28</ele>
        <time>2022-04-03T17:58:11Z</time>
      </trkpt>
      <trkpt lat="46.24495" lon="-0.31839">
        <ele>28</ele>
        <time>2022-04-03T17:58:12Z</time>
      </trkpt>
      <trkpt lat="46.245" lon="-0.31846">
        <ele>28</ele>
        <time>2022-04-03T17:58:13Z</time>
      </trkpt>
      <trkpt lat="46.24505" lon="-0.31853">
        <ele>28</ele>
        <time>2022-04-03T17:58:14Z</time>
      </trkpt>
      <trkpt lat="46.2451" lon="-0.31859">
        <ele>28</ele>
        <time>2022-04-03T17:58:15Z</time>
      </trkpt>
      <trkpt lat="46.24515" lon="-0.31866">
        <ele>28</ele>
        <time>2022-04-03T17:58:16Z</time>
      </trkpt>
      <trkpt lat="46.2452" lon="-0.31872">
        <ele>27.8</ele>
        <time>2022-04-03T17:58:17Z</time>
      </trkpt>
      <trkpt lat="46.24526" lon="-0.31878">
        <ele>27.6</ele>
        <time>2022-04-03T17:58:18Z</time>
      </trkpt>
      <trkpt lat="46.24531" lon="-0.31884">
        <ele>27.4</ele>
        <time>2022-04-03T17:58:19Z</time>
      </trkpt>
      <trkpt lat="46.24536" lon="-0.3189">
        <ele>27.6</ele>
        <time>2022-04-03T17:58:20Z</time>
      </trkpt>
      <trkpt lat="46.24542" lon="-0.31895">
        <ele>27.2</ele>
        <time>2022-04-03T17:58:21Z</time>
      </trkpt>
      <trkpt lat="46.24547" lon="-0.31901">
        <ele>27</ele>
        <time>2022-04-03T17:58:22Z</time>
      </trkpt>
      <trkpt lat="46.24553" lon="-0.31906">
        <ele>26.8</ele>
        <time>2022-04-03T17:58:23Z</time>
      </trkpt>
      <trkpt lat="46.24558" lon="-0.31911">
        <ele>26.8</ele>
        <time>2022-04-03T17:58:24Z</time>
      </trkpt>
      <trkpt lat="46.24564" lon="-0.31917">
        <ele>26.8</ele>
        <time>2022-04-03T17:58:25Z</time>
      </trkpt>
      <trkpt lat="46.24569" lon="-0.31923">
        <ele>26.8</ele>
        <time>2022-04-03T17:58:26Z</time>
      </trkpt>
      <trkpt lat="46.24574" lon="-0.31928">
        <ele>26.8</ele>
        <time>2022-04-03T17:58:27Z</time>
      </trkpt>
      <trkpt lat="46.24579" lon="-0.31934">
        <ele>26.8</ele>
        <time>2022-04-03T17:58:28Z</time>
      </trkpt>
      <trkpt lat="46.24584" lon="-0.3194">
        <ele>26.8</ele>
        <time>2022-04-03T17:58:29Z</time>
      </trkpt>
      <trkpt lat="46.24589" lon="-0.31946">
        <ele>26.8</ele>
        <time>2022-04-03T17:58:30Z</time>
      </trkpt>
      <trkpt lat="46.24594" lon="-0.31953">
        <ele>26.6</ele>
        <time>2022-04-03T17:58:31Z</time>
      </trkpt>
      <trkpt lat="46.24599" lon="-0.3196">
        <ele>26.6</ele>
        <time>2022-04-03T17:58:32Z</time>
      </trkpt>
      <trkpt lat="46.24604" lon="-0.31966">
        <ele>26.4</ele>
        <time>2022-04-03T17:58:33Z</time>
      </trkpt>
      <trkpt lat="46.24609" lon="-0.31973">
        <ele>26.4</ele>
        <time>2022-04-03T17:58:34Z</time>
      </trkpt>
      <trkpt lat="46.24613" lon="-0.31979">
        <ele>26.6</ele>
        <time>2022-04-03T17:58:35Z</time>
      </trkpt>
      <trkpt lat="46.24618" lon="-0.31986">
        <ele>26.6</ele>
        <time>2022-04-03T17:58:36Z</time>
      </trkpt>
      <trkpt lat="46.24623" lon="-0.31992">
        <ele>26.6</ele>
        <time>2022-04-03T17:58:37Z</time>
      </trkpt>
      <trkpt lat="46.24627" lon="-0.31998">
        <ele>26.6</ele>
        <time>2022-04-03T17:58:38Z</time>
      </trkpt>
      <trkpt lat="46.24632" lon="-0.32005">
        <ele>26.6</ele>
        <time>2022-04-03T17:58:39Z</time>
      </trkpt>
      <trkpt lat="46.24637" lon="-0.32011">
        <ele>26.6</ele>
        <time>2022-04-03T17:58:40Z</time>
      </trkpt>
      <trkpt lat="46.24642" lon="-0.32018">
        <ele>26.6</ele>
        <time>2022-04-03T17:58:41Z</time>
      </trkpt>
      <trkpt lat="46.24646" lon="-0.32024">
        <ele>26.6</ele>
        <time>2022-04-03T17:58:42Z</time>
      </trkpt>
      <trkpt lat="46.24651" lon="-0.32031">
        <ele>26.6</ele>
        <time>2022-04-03T17:58:43Z</time>
      </trkpt>
      <trkpt lat="46.24656" lon="-0.32038">
        <ele>26.6</ele>
        <time>2022-04-03T17:58:44Z</time>
      </trkpt>
      <trkpt lat="46.24661" lon="-0.32044">
        <ele>26.6</ele>
        <time>2022-04-03T17:58:45Z</time>
      </trkpt>
      <trkpt lat="46.24666" lon="-0.32051">
        <ele>26.6</ele>
        <time>2022-04-03T17:58:46Z</time>
      </trkpt>
      <trkpt lat="46.2467" lon="-0.32057">
        <ele>26.6</ele>
        <time>2022-04-03T17:58:47Z</time>
      </trkpt>
      <trkpt lat="46.24675" lon="-0.32063">
        <ele>26.6</ele>
        <time>2022-04-03T17:58:48Z</time>
      </trkpt>
      <trkpt lat="46.2468" lon="-0.3207">
        <ele>26.6</ele>
        <time>2022-04-03T17:58:49Z</time>
      </trkpt>
      <trkpt lat="46.24685" lon="-0.32076">
        <ele>26.6</ele>
        <time>2022-04-03T17:58:50Z</time>
      </trkpt>
      <trkpt lat="46.24689" lon="-0.32082">
        <ele>26.6</ele>
        <time>2022-04-03T17:58:51Z</time>
      </trkpt>
      <trkpt lat="46.24694" lon="-0.32089">
        <ele>26.6</ele>
        <time>2022-04-03T17:58:52Z</time>
      </trkpt>
      <trkpt lat="46.24698" lon="-0.32095">
        <ele>26.6</ele>
        <time>2022-04-03T17:58:53Z</time>
      </trkpt>
      <trkpt lat="46.24703" lon="-0.32102">
        <ele>26.6</ele>
        <time>2022-04-03T17:58:54Z</time>
      </trkpt>
      <trkpt lat="46.24708" lon="-0.32108">
        <ele>26.6</ele>
        <time>2022-04-03T17:58:55Z</time>
      </trkpt>
      <trkpt lat="46.24713" lon="-0.32114">
        <ele>26.6</ele>
        <time>2022-04-03T17:58:56Z</time>
      </trkpt>
      <trkpt lat="46.24717" lon="-0.32121">
        <ele>26.6</ele>
        <time>2022-04-03T17:58:57Z</time>
      </trkpt>
      <trkpt lat="46.24722" lon="-0.32127">
        <ele>26.6</ele>
        <time>2022-04-03T17:58:58Z</time>
      </trkpt>
      <trkpt lat="46.24727" lon="-0.32134">
        <ele>26.6</ele>
        <time>2022-04-03T17:58:59Z</time>
      </trkpt>
      <trkpt lat="46.24731" lon="-0.3214">
        <ele>26.8</ele>
        <time>2022-04-03T17:59:00Z</time>
      </trkpt>
      <trkpt lat="46.24736" lon="-0.32146">
        <ele>26.8</ele>
        <time>2022-04-03T17:59:01Z</time>
      </trkpt>
      <trkpt lat="46.24741" lon="-0.32153">
        <ele>26.8</ele>
        <time>2022-04-03T17:59:02Z</time>
      </trkpt>
      <trkpt lat="46.24745" lon="-0.3216">
        <ele>26.8</ele>
        <time>2022-04-03T17:59:03Z</time>
      </trkpt>
      <trkpt lat="46.24749" lon="-0.32167">
        <ele>26.8</ele>
        <time>2022-04-03T17:59:04Z</time>
      </trkpt>
      <trkpt lat="46.24754" lon="-0.32173">
        <ele>26.6</ele>
        <time>2022-04-03T17:59:05Z</time>
      </trkpt>
      <trkpt lat="46.24758" lon="-0.3218">
        <ele>26.8</ele>
        <time>2022-04-03T17:59:06Z</time>
      </trkpt>
      <trkpt lat="46.24763" lon="-0.32187">
        <ele>26.8</ele>
        <time>2022-04-03T17:59:07Z</time>
      </trkpt>
      <trkpt lat="46.24767" lon="-0.32194">
        <ele>26.8</ele>
        <time>2022-04-03T17:59:08Z</time>
      </trkpt>
      <trkpt lat="46.24772" lon="-0.32201">
        <ele>26.6</ele>
        <time>2022-04-03T17:59:09Z</time>
      </trkpt>
      <trkpt lat="46.24776" lon="-0.32208">
        <ele>26.8</ele>
        <time>2022-04-03T17:59:10Z</time>
      </trkpt>
      <trkpt lat="46.24781" lon="-0.32215">
        <ele>26.8</ele>
        <time>2022-04-03T17:59:11Z</time>
      </trkpt>
      <trkpt lat="46.24785" lon="-0.32222">
        <ele>26.8</ele>
        <time>2022-04-03T17:59:12Z</time>
      </trkpt>
      <trkpt lat="46.2479" lon="-0.3223">
        <ele>26.8</ele>
        <time>2022-04-03T17:59:13Z</time>
      </trkpt>
      <trkpt lat="46.24794" lon="-0.32237">
        <ele>26.8</ele>
        <time>2022-04-03T17:59:14Z</time>
      </trkpt>
      <trkpt lat="46.24798" lon="-0.32245">
        <ele>26.8</ele>
        <time>2022-04-03T17:59:15Z</time>
      </trkpt>
      <trkpt lat="46.24802" lon="-0.32252">
        <ele>26.8</ele>
        <time>2022-04-03T17:59:16Z</time>
      </trkpt>
      <trkpt lat="46.24807" lon="-0.32259">
        <ele>26.8</ele>
        <time>2022-04-03T17:59:17Z</time>
      </trkpt>
      <trkpt lat="46.24811" lon="-0.32267">
        <ele>26.8</ele>
        <time>2022-04-03T17:59:18Z</time>
      </trkpt>
      <trkpt lat="46.24815" lon="-0.32274">
        <ele>26.6</ele>
        <time>2022-04-03T17:59:19Z</time>
      </trkpt>
      <trkpt lat="46.2482" lon="-0.32281">
        <ele>26.6</ele>
        <time>2022-04-03T17:59:20Z</time>
      </trkpt>
      <trkpt lat="46.24824" lon="-0.32289">
        <ele>26.6</ele>
        <time>2022-04-03T17:59:21Z</time>
      </trkpt>
      <trkpt lat="46.24828" lon="-0.32296">
        <ele>26.6</ele>
        <time>2022-04-03T17:59:22Z</time>
      </trkpt>
      <trkpt lat="46.24832" lon="-0.32303">
        <ele>26.4</ele>
        <time>2022-04-03T17:59:23Z</time>
      </trkpt>
      <trkpt lat="46.24836" lon="-0.3231">
        <ele>26.4</ele>
        <time>2022-04-03T17:59:24Z</time>
      </trkpt>
      <trkpt lat="46.24841" lon="-0.32317">
        <ele>26.4</ele>
        <time>2022-04-03T17:59:25Z</time>
      </trkpt>
      <trkpt lat="46.24845" lon="-0.32324">
        <ele>26.4</ele>
        <time>2022-04-03T17:59:26Z</time>
      </trkpt>
      <trkpt lat="46.24849" lon="-0.32332">
        <ele>26.4</ele>
        <time>2022-04-03T17:59:27Z</time>
      </trkpt>
      <trkpt lat="46.24853" lon="-0.32339">
        <ele>26.4</ele>
        <time>2022-04-03T17:59:28Z</time>
      </trkpt>
      <trkpt lat="46.24858" lon="-0.32346">
        <ele>26.4</ele>
        <time>2022-04-03T17:59:29Z</time>
      </trkpt>
      <trkpt lat="46.24862" lon="-0.32353">
        <ele>26.2</ele>
        <time>2022-04-03T17:59:30Z</time>
      </trkpt>
      <trkpt lat="46.24866" lon="-0.3236">
        <ele>26.4</ele>
        <time>2022-04-03T17:59:31Z</time>
      </trkpt>
      <trkpt lat="46.2487" lon="-0.32368">
        <ele>26.2</ele>
        <time>2022-04-03T17:59:32Z</time>
      </trkpt>
      <trkpt lat="46.24874" lon="-0.32375">
        <ele>26.4</ele>
        <time>2022-04-03T17:59:33Z</time>
      </trkpt>
      <trkpt lat="46.24878" lon="-0.32382">
        <ele>26.2</ele>
        <time>2022-04-03T17:59:34Z</time>
      </trkpt>
      <trkpt lat="46.24883" lon="-0.3239">
        <ele>26</ele>
        <time>2022-04-03T17:59:35Z</time>
      </trkpt>
      <trkpt lat="46.24887" lon="-0.32397">
        <ele>26</ele>
        <time>2022-04-03T17:59:36Z</time>
      </trkpt>
      <trkpt lat="46.24891" lon="-0.32405">
        <ele>26</ele>
        <time>2022-04-03T17:59:37Z</time>
      </trkpt>
      <trkpt lat="46.24895" lon="-0.32412">
        <ele>26</ele>
        <time>2022-04-03T17:59:38Z</time>
      </trkpt>
      <trkpt lat="46.24898" lon="-0.3242">
        <ele>25.8</ele>
        <time>2022-04-03T17:59:39Z</time>
      </trkpt>
      <trkpt lat="46.24902" lon="-0.32428">
        <ele>25.6</ele>
        <time>2022-04-03T17:59:40Z</time>
      </trkpt>
      <trkpt lat="46.24906" lon="-0.32436">
        <ele>25.6</ele>
        <time>2022-04-03T17:59:41Z</time>
      </trkpt>
      <trkpt lat="46.24909" lon="-0.32445">
        <ele>25.8</ele>
        <time>2022-04-03T17:59:42Z</time>
      </trkpt>
      <trkpt lat="46.24913" lon="-0.32453">
        <ele>25.6</ele>
        <time>2022-04-03T17:59:43Z</time>
      </trkpt>
      <trkpt lat="46.24917" lon="-0.32461">
        <ele>25.6</ele>
        <time>2022-04-03T17:59:44Z</time>
      </trkpt>
      <trkpt lat="46.2492" lon="-0.3247">
        <ele>25.6</ele>
        <time>2022-04-03T17:59:45Z</time>
      </trkpt>
      <trkpt lat="46.24924" lon="-0.32479">
        <ele>25.6</ele>
        <time>2022-04-03T17:59:46Z</time>
      </trkpt>
      <trkpt lat="46.24927" lon="-0.32487">
        <ele>25.4</ele>
        <time>2022-04-03T17:59:47Z</time>
      </trkpt>
      <trkpt lat="46.24931" lon="-0.32496">
        <ele>25.4</ele>
        <time>2022-04-03T17:59:48Z</time>
      </trkpt>
      <trkpt lat="46.24935" lon="-0.32505">
        <ele>25.4</ele>
        <time>2022-04-03T17:59:49Z</time>
      </trkpt>
      <trkpt lat="46.24938" lon="-0.32513">
        <ele>25.4</ele>
        <time>2022-04-03T17:59:50Z</time>
      </trkpt>
      <trkpt lat="46.24942" lon="-0.32522">
        <ele>25.4</ele>
        <time>2022-04-03T17:59:51Z</time>
      </trkpt>
      <trkpt lat="46.24946" lon="-0.3253">
        <ele>25.2</ele>
        <time>2022-04-03T17:59:52Z</time>
      </trkpt>
      <trkpt lat="46.24949" lon="-0.32539">
        <ele>25.2</ele>
        <time>2022-04-03T17:59:53Z</time>
      </trkpt>
      <trkpt lat="46.24953" lon="-0.32547">
        <ele>25</ele>
        <time>2022-04-03T17:59:54Z</time>
      </trkpt>
      <trkpt lat="46.24957" lon="-0.32555">
        <ele>25.2</ele>
        <time>2022-04-03T17:59:55Z</time>
      </trkpt>
      <trkpt lat="46.24961" lon="-0.32563">
        <ele>25</ele>
        <time>2022-04-03T17:59:56Z</time>
      </trkpt>
      <trkpt lat="46.24965" lon="-0.32571">
        <ele>25</ele>
        <time>2022-04-03T17:59:57Z</time>
      </trkpt>
      <trkpt lat="46.24969" lon="-0.32579">
        <ele>25</ele>
        <time>2022-04-03T17:59:58Z</time>
      </trkpt>
      <trkpt lat="46.24973" lon="-0.32587">
        <ele>25.2</ele>
        <time>2022-04-03T17:59:59Z</time>
      </trkpt>
      <trkpt lat="46.24978" lon="-0.32594">
        <ele>25</ele>
        <time>2022-04-03T18:00:00Z</time>
      </trkpt>
      <trkpt lat="46.24982" lon="-0.32601">
        <ele>25</ele>
        <time>2022-04-03T18:00:01Z</time>
      </trkpt>
      <trkpt lat="46.24987" lon="-0.32609">
        <ele>25</ele>
        <time>2022-04-03T18:00:02Z</time>
      </trkpt>
      <trkpt lat="46.24992" lon="-0.32616">
        <ele>24.8</ele>
        <time>2022-04-03T18:00:03Z</time>
      </trkpt>
      <trkpt lat="46.24996" lon="-0.32623">
        <ele>24.8</ele>
        <time>2022-04-03T18:00:04Z</time>
      </trkpt>
      <trkpt lat="46.25001" lon="-0.3263">
        <ele>24.8</ele>
        <time>2022-04-03T18:00:05Z</time>
      </trkpt>
      <trkpt lat="46.25006" lon="-0.32638">
        <ele>24.6</ele>
        <time>2022-04-03T18:00:06Z</time>
      </trkpt>
      <trkpt lat="46.25011" lon="-0.32645">
        <ele>24.6</ele>
        <time>2022-04-03T18:00:07Z</time>
      </trkpt>
      <trkpt lat="46.25016" lon="-0.32652">
        <ele>24.6</ele>
        <time>2022-04-03T18:00:08Z</time>
      </trkpt>
      <trkpt lat="46.25021" lon="-0.32659">
        <ele>24.6</ele>
        <time>2022-04-03T18:00:09Z</time>
      </trkpt>
      <trkpt lat="46.25025" lon="-0.32666">
        <ele>24.8</ele>
        <time>2022-04-03T18:00:10Z</time>
      </trkpt>
      <trkpt lat="46.2503" lon="-0.32673">
        <ele>24.6</ele>
        <time>2022-04-03T18:00:11Z</time>
      </trkpt>
      <trkpt lat="46.25035" lon="-0.3268">
        <ele>24.6</ele>
        <time>2022-04-03T18:00:12Z</time>
      </trkpt>
      <trkpt lat="46.2504" lon="-0.32687">
        <ele>24.6</ele>
        <time>2022-04-03T18:00:13Z</time>
      </trkpt>
      <trkpt lat="46.25045" lon="-0.32695">
        <ele>24.4</ele>
        <time>2022-04-03T18:00:14Z</time>
      </trkpt>
      <trkpt lat="46.2505" lon="-0.32702">
        <ele>24.6</ele>
        <time>2022-04-03T18:00:15Z</time>
      </trkpt>
      <trkpt lat="46.25055" lon="-0.32709">
        <ele>24.4</ele>
        <time>2022-04-03T18:00:16Z</time>
      </trkpt>
      <trkpt lat="46.25059" lon="-0.32717">
        <ele>24.4</ele>
        <time>2022-04-03T18:00:17Z</time>
      </trkpt>
      <trkpt lat="46.25064" lon="-0.32724">
        <ele>24.4</ele>
        <time>2022-04-03T18:00:18Z</time>
      </trkpt>
      <trkpt lat="46.25069" lon="-0.32732">
        <ele>24.4</ele>
        <time>2022-04-03T18:00:19Z</time>
      </trkpt>
      <trkpt lat="46.25073" lon="-0.32739">
        <ele>24.2</ele>
        <time>2022-04-03T18:00:20Z</time>
      </trkpt>
      <trkpt lat="46.25078" lon="-0.32747">
        <ele>24.2</ele>
        <time>2022-04-03T18:00:21Z</time>
      </trkpt>
      <trkpt lat="46.25083" lon="-0.32754">
        <ele>24.2</ele>
        <time>2022-04-03T18:00:22Z</time>
      </trkpt>
      <trkpt lat="46.25087" lon="-0.32762">
        <ele>24</ele>
        <time>2022-04-03T18:00:23Z</time>
      </trkpt>
      <trkpt lat="46.25092" lon="-0.3277">
        <ele>24</ele>
        <time>2022-04-03T18:00:24Z</time>
      </trkpt>
      <trkpt lat="46.25096" lon="-0.32778">
        <ele>24</ele>
        <time>2022-04-03T18:00:25Z</time>
      </trkpt>
      <trkpt lat="46.251" lon="-0.32786">
        <ele>24</ele>
        <time>2022-04-03T18:00:26Z</time>
      </trkpt>
      <trkpt lat="46.25105" lon="-0.32794">
        <ele>23.8</ele>
        <time>2022-04-03T18:00:27Z</time>
      </trkpt>
      <trkpt lat="46.25109" lon="-0.32801">
        <ele>23.8</ele>
        <time>2022-04-03T18:00:28Z</time>
      </trkpt>
      <trkpt lat="46.25114" lon="-0.32809">
        <ele>23.8</ele>
        <time>2022-04-03T18:00:29Z</time>
      </trkpt>
      <trkpt lat="46.25118" lon="-0.32817">
        <ele>23.8</ele>
        <time>2022-04-03T18:00:30Z</time>
      </trkpt>
      <trkpt lat="46.25122" lon="-0.32825">
        <ele>23.6</ele>
        <time>2022-04-03T18:00:31Z</time>
      </trkpt>
      <trkpt lat="46.25127" lon="-0.32833">
        <ele>23.6</ele>
        <time>2022-04-03T18:00:32Z</time>
      </trkpt>
      <trkpt lat="46.25131" lon="-0.32841">
        <ele>23.8</ele>
        <time>2022-04-03T18:00:33Z</time>
      </trkpt>
      <trkpt lat="46.25136" lon="-0.32848">
        <ele>23.6</ele>
        <time>2022-04-03T18:00:34Z</time>
      </trkpt>
      <trkpt lat="46.2514" lon="-0.32856">
        <ele>23.6</ele>
        <time>2022-04-03T18:00:35Z</time>
      </trkpt>
      <trkpt lat="46.25144" lon="-0.32864">
        <ele>23.4</ele>
        <time>2022-04-03T18:00:36Z</time>
      </trkpt>
      <trkpt lat="46.25148" lon="-0.32872">
        <ele>23.4</ele>
        <time>2022-04-03T18:00:37Z</time>
      </trkpt>
      <trkpt lat="46.25153" lon="-0.3288">
        <ele>23.6</ele>
        <time>2022-04-03T18:00:38Z</time>
      </trkpt>
      <trkpt lat="46.25157" lon="-0.32888">
        <ele>23.4</ele>
        <time>2022-04-03T18:00:39Z</time>
      </trkpt>
      <trkpt lat="46.25161" lon="-0.32896">
        <ele>23.4</ele>
        <time>2022-04-03T18:00:40Z</time>
      </trkpt>
      <trkpt lat="46.25165" lon="-0.32903">
        <ele>23.2</ele>
        <time>2022-04-03T18:00:41Z</time>
      </trkpt>
      <trkpt lat="46.25169" lon="-0.32911">
        <ele>23.4</ele>
        <time>2022-04-03T18:00:42Z</time>
      </trkpt>
      <trkpt lat="46.25173" lon="-0.32918">
        <ele>23.4</ele>
        <time>2022-04-03T18:00:43Z</time>
      </trkpt>
      <trkpt lat="46.25177" lon="-0.32926">
        <ele>23.4</ele>
        <time>2022-04-03T18:00:44Z</time>
      </trkpt>
      <trkpt lat="46.25181" lon="-0.32933">
        <ele>23.4</ele>
        <time>2022-04-03T18:00:45Z</time>
      </trkpt>
      <trkpt lat="46.25185" lon="-0.3294">
        <ele>23.4</ele>
        <time>2022-04-03T18:00:46Z</time>
      </trkpt>
      <trkpt lat="46.25189" lon="-0.32948">
        <ele>23.4</ele>
        <time>2022-04-03T18:00:47Z</time>
      </trkpt>
      <trkpt lat="46.25194" lon="-0.32955">
        <ele>23.2</ele>
        <time>2022-04-03T18:00:48Z</time>
      </trkpt>
      <trkpt lat="46.25198" lon="-0.32962">
        <ele>23.4</ele>
        <time>2022-04-03T18:00:49Z</time>
      </trkpt>
      <trkpt lat="46.25202" lon="-0.32969">
        <ele>23.4</ele>
        <time>2022-04-03T18:00:50Z</time>
      </trkpt>
      <trkpt lat="46.25206" lon="-0.32976">
        <ele>23.4</ele>
        <time>2022-04-03T18:00:51Z</time>
      </trkpt>
      <trkpt lat="46.2521" lon="-0.32983">
        <ele>23.4</ele>
        <time>2022-04-03T18:00:52Z</time>
      </trkpt>
      <trkpt lat="46.25214" lon="-0.3299">
        <ele>23.6</ele>
        <time>2022-04-03T18:00:53Z</time>
      </trkpt>
      <trkpt lat="46.25218" lon="-0.32997">
        <ele>23.6</ele>
        <time>2022-04-03T18:00:54Z</time>
      </trkpt>
      <trkpt lat="46.25222" lon="-0.33005">
        <ele>23.6</ele>
        <time>2022-04-03T18:00:55Z</time>
      </trkpt>
      <trkpt lat="46.25226" lon="-0.33012">
        <ele>23.8</ele>
        <time>2022-04-03T18:00:56Z</time>
      </trkpt>
      <trkpt lat="46.2523" lon="-0.33019">
        <ele>23.6</ele>
        <time>2022-04-03T18:00:57Z</time>
      </trkpt>
      <trkpt lat="46.25234" lon="-0.33026">
        <ele>23.8</ele>
        <time>2022-04-03T18:00:58Z</time>
      </trkpt>
      <trkpt lat="46.25238" lon="-0.33033">
        <ele>23.8</ele>
        <time>2022-04-03T18:00:59Z</time>
      </trkpt>
      <trkpt lat="46.25241" lon="-0.3304">
        <ele>23.6</ele>
        <time>2022-04-03T18:01:00Z</time>
      </trkpt>
      <trkpt lat="46.25245" lon="-0.33047">
        <ele>23.8</ele>
        <time>2022-04-03T18:01:01Z</time>
      </trkpt>
      <trkpt lat="46.25249" lon="-0.33054">
        <ele>23.8</ele>
        <time>2022-04-03T18:01:02Z</time>
      </trkpt>
      <trkpt lat="46.25253" lon="-0.3306">
        <ele>23.8</ele>
        <time>2022-04-03T18:01:03Z</time>
      </trkpt>
      <trkpt lat="46.25257" lon="-0.33067">
        <ele>23.8</ele>
        <time>2022-04-03T18:01:04Z</time>
      </trkpt>
      <trkpt lat="46.25261" lon="-0.33074">
        <ele>23.8</ele>
        <time>2022-04-03T18:01:05Z</time>
      </trkpt>
      <trkpt lat="46.25265" lon="-0.33081">
        <ele>23.8</ele>
        <time>2022-04-03T18:01:06Z</time>
      </trkpt>
      <trkpt lat="46.25269" lon="-0.33088">
        <ele>23.6</ele>
        <time>2022-04-03T18:01:07Z</time>
      </trkpt>
      <trkpt lat="46.25272" lon="-0.33095">
        <ele>23.6</ele>
        <time>2022-04-03T18:01:08Z</time>
      </trkpt>
      <trkpt lat="46.25276" lon="-0.33102">
        <ele>23.6</ele>
        <time>2022-04-03T18:01:09Z</time>
      </trkpt>
      <trkpt lat="46.2528" lon="-0.33109">
        <ele>23.6</ele>
        <time>2022-04-03T18:01:10Z</time>
      </trkpt>
      <trkpt lat="46.25284" lon="-0.33116">
        <ele>23.6</ele>
        <time>2022-04-03T18:01:11Z</time>
      </trkpt>
      <trkpt lat="46.25287" lon="-0.33123">
        <ele>23.6</ele>
        <time>2022-04-03T18:01:12Z</time>
      </trkpt>
      <trkpt lat="46.25291" lon="-0.3313">
        <ele>23.4</ele>
        <time>2022-04-03T18:01:13Z</time>
      </trkpt>
      <trkpt lat="46.25295" lon="-0.33137">
        <ele>23.4</ele>
        <time>2022-04-03T18:01:14Z</time>
      </trkpt>
      <trkpt lat="46.25299" lon="-0.33144">
        <ele>23.2</ele>
        <time>2022-04-03T18:01:15Z</time>
      </trkpt>
      <trkpt lat="46.25303" lon="-0.33151">
        <ele>23.2</ele>
        <time>2022-04-03T18:01:16Z</time>
      </trkpt>
      <trkpt lat="46.25306" lon="-0.33158">
        <ele>23.4</ele>
        <time>2022-04-03T18:01:17Z</time>
      </trkpt>
      <trkpt lat="46.2531" lon="-0.33165">
        <ele>23.2</ele>
        <time>2022-04-03T18:01:18Z</time>
      </trkpt>
      <trkpt lat="46.25314" lon="-0.33172">
        <ele>23.2</ele>
        <time>2022-04-03T18:01:19Z</time>
      </trkpt>
      <trkpt lat="46.25318" lon="-0.33179">
        <ele>23.2</ele>
        <time>2022-04-03T18:01:20Z</time>
      </trkpt>
      <trkpt lat="46.25322" lon="-0.33186">
        <ele>23.2</ele>
        <time>2022-04-03T18:01:21Z</time>
      </trkpt>
      <trkpt lat="46.25325" lon="-0.33194">
        <ele>23.2</ele>
        <time>2022-04-03T18:01:22Z</time>
      </trkpt>
      <trkpt lat="46.25329" lon="-0.33201">
        <ele>23.2</ele>
        <time>2022-04-03T18:01:23Z</time>
      </trkpt>
      <trkpt lat="46.25333" lon="-0.33208">
        <ele>23.2</ele>
        <time>2022-04-03T18:01:24Z</time>
      </trkpt>
      <trkpt lat="46.25337" lon="-0.33216">
        <ele>23.2</ele>
        <time>2022-04-03T18:01:25Z</time>
      </trkpt>
      <trkpt lat="46.25341" lon="-0.33223">
        <ele>23.2</ele>
        <time>2022-04-03T18:01:26Z</time>
      </trkpt>
      <trkpt lat="46.25345" lon="-0.33231">
        <ele>23.2</ele>
        <time>2022-04-03T18:01:27Z</time>
      </trkpt>
      <trkpt lat="46.2535" lon="-0.33239">
        <ele>23</ele>
        <time>2022-04-03T18:01:28Z</time>
      </trkpt>
      <trkpt lat="46.25354" lon="-0.33246">
        <ele>23</ele>
        <time>2022-04-03T18:01:29Z</time>
      </trkpt>
      <trkpt lat="46.25358" lon="-0.33253">
        <ele>23</ele>
        <time>2022-04-03T18:01:30Z</time>
      </trkpt>
      <trkpt lat="46.25362" lon="-0.33261">
        <ele>23.2</ele>
        <time>2022-04-03T18:01:31Z</time>
      </trkpt>
      <trkpt lat="46.25366" lon="-0.33269">
        <ele>23</ele>
        <time>2022-04-03T18:01:32Z</time>
      </trkpt>
      <trkpt lat="46.2537" lon="-0.33276">
        <ele>23.2</ele>
        <time>2022-04-03T18:01:33Z</time>
      </trkpt>
      <trkpt lat="46.25374" lon="-0.33283">
        <ele>23</ele>
        <time>2022-04-03T18:01:34Z</time>
      </trkpt>
      <trkpt lat="46.25379" lon="-0.33291">
        <ele>23</ele>
        <time>2022-04-03T18:01:35Z</time>
      </trkpt>
      <trkpt lat="46.25383" lon="-0.33299">
        <ele>23</ele>
        <time>2022-04-03T18:01:36Z</time>
      </trkpt>
      <trkpt lat="46.25387" lon="-0.33306">
        <ele>23</ele>
        <time>2022-04-03T18:01:37Z</time>
      </trkpt>
      <trkpt lat="46.25391" lon="-0.33313">
        <ele>23</ele>
        <time>2022-04-03T18:01:38Z</time>
      </trkpt>
      <trkpt lat="46.25395" lon="-0.33321">
        <ele>23</ele>
        <time>2022-04-03T18:01:39Z</time>
      </trkpt>
      <trkpt lat="46.25399" lon="-0.33328">
        <ele>23</ele>
        <time>2022-04-03T18:01:40Z</time>
      </trkpt>
      <trkpt lat="46.25403" lon="-0.33336">
        <ele>23</ele>
        <time>2022-04-03T18:01:41Z</time>
      </trkpt>
      <trkpt lat="46.25407" lon="-0.33343">
        <ele>23</ele>
        <time>2022-04-03T18:01:42Z</time>
      </trkpt>
      <trkpt lat="46.25411" lon="-0.3335">
        <ele>23</ele>
        <time>2022-04-03T18:01:43Z</time>
      </trkpt>
      <trkpt lat="46.25415" lon="-0.33358">
        <ele>22.8</ele>
        <time>2022-04-03T18:01:44Z</time>
      </trkpt>
      <trkpt lat="46.25419" lon="-0.33365">
        <ele>22.8</ele>
        <time>2022-04-03T18:01:45Z</time>
      </trkpt>
      <trkpt lat="46.25423" lon="-0.33373">
        <ele>22.8</ele>
        <time>2022-04-03T18:01:46Z</time>
      </trkpt>
      <trkpt lat="46.25427" lon="-0.3338">
        <ele>22.8</ele>
        <time>2022-04-03T18:01:47Z</time>
      </trkpt>
      <trkpt lat="46.25431" lon="-0.33387">
        <ele>22.8</ele>
        <time>2022-04-03T18:01:48Z</time>
      </trkpt>
      <trkpt lat="46.25436" lon="-0.33395">
        <ele>22.8</ele>
        <time>2022-04-03T18:01:49Z</time>
      </trkpt>
      <trkpt lat="46.2544" lon="-0.33402">
        <ele>22.8</ele>
        <time>2022-04-03T18:01:50Z</time>
      </trkpt>
      <trkpt lat="46.25444" lon="-0.3341">
        <ele>22.8</ele>
        <time>2022-04-03T18:01:51Z</time>
      </trkpt>
      <trkpt lat="46.25448" lon="-0.33417">
        <ele>22.6</ele>
        <time>2022-04-03T18:01:52Z</time>
      </trkpt>
      <trkpt lat="46.25453" lon="-0.33424">
        <ele>22.6</ele>
        <time>2022-04-03T18:01:53Z</time>
      </trkpt>
      <trkpt lat="46.25457" lon="-0.33432">
        <ele>22.6</ele>
        <time>2022-04-03T18:01:54Z</time>
      </trkpt>
      <trkpt lat="46.25461" lon="-0.33439">
        <ele>22.4</ele>
        <time>2022-04-03T18:01:55Z</time>
      </trkpt>
      <trkpt lat="46.25465" lon="-0.33447">
        <ele>22.4</ele>
        <time>2022-04-03T18:01:56Z</time>
      </trkpt>
      <trkpt lat="46.25469" lon="-0.33454">
        <ele>22.4</ele>
        <time>2022-04-03T18:01:57Z</time>
      </trkpt>
      <trkpt lat="46.25472" lon="-0.33462">
        <ele>22.2</ele>
        <time>2022-04-03T18:01:58Z</time>
      </trkpt>
      <trkpt lat="46.25476" lon="-0.33469">
        <ele>22.4</ele>
        <time>2022-04-03T18:01:59Z</time>
      </trkpt>
      <trkpt lat="46.2548" lon="-0.33476">
        <ele>22.4</ele>
        <time>2022-04-03T18:02:00Z</time>
      </trkpt>
      <trkpt lat="46.25484" lon="-0.33484">
        <ele>22.2</ele>
        <time>2022-04-03T18:02:01Z</time>
      </trkpt>
      <trkpt lat="46.25488" lon="-0.33491">
        <ele>22.2</ele>
        <time>2022-04-03T18:02:02Z</time>
      </trkpt>
      <trkpt lat="46.25492" lon="-0.33498">
        <ele>22.2</ele>
        <time>2022-04-03T18:02:03Z</time>
      </trkpt>
      <trkpt lat="46.25496" lon="-0.33505">
        <ele>22</ele>
        <time>2022-04-03T18:02:04Z</time>
      </trkpt>
      <trkpt lat="46.255" lon="-0.33513">
        <ele>22</ele>
        <time>2022-04-03T18:02:05Z</time>
      </trkpt>
      <trkpt lat="46.25504" lon="-0.3352">
        <ele>22.2</ele>
        <time>2022-04-03T18:02:06Z</time>
      </trkpt>
      <trkpt lat="46.25508" lon="-0.33528">
        <ele>22.2</ele>
        <time>2022-04-03T18:02:07Z</time>
      </trkpt>
      <trkpt lat="46.25512" lon="-0.33535">
        <ele>22.2</ele>
        <time>2022-04-03T18:02:08Z</time>
      </trkpt>
      <trkpt lat="46.25516" lon="-0.33542">
        <ele>22</ele>
        <time>2022-04-03T18:02:09Z</time>
      </trkpt>
      <trkpt lat="46.2552" lon="-0.33549">
        <ele>22</ele>
        <time>2022-04-03T18:02:10Z</time>
      </trkpt>
      <trkpt lat="46.25524" lon="-0.33557">
        <ele>22</ele>
        <time>2022-04-03T18:02:11Z</time>
      </trkpt>
      <trkpt lat="46.25527" lon="-0.33564">
        <ele>22.2</ele>
        <time>2022-04-03T18:02:12Z</time>
      </trkpt>
      <trkpt lat="46.25531" lon="-0.33571">
        <ele>22</ele>
        <time>2022-04-03T18:02:13Z</time>
      </trkpt>
      <trkpt lat="46.25535" lon="-0.33579">
        <ele>22</ele>
        <time>2022-04-03T18:02:14Z</time>
      </trkpt>
      <trkpt lat="46.25539" lon="-0.33586">
        <ele>22.2</ele>
        <time>2022-04-03T18:02:15Z</time>
      </trkpt>
      <trkpt lat="46.25543" lon="-0.33593">
        <ele>22.2</ele>
        <time>2022-04-03T18:02:16Z</time>
      </trkpt>
      <trkpt lat="46.25547" lon="-0.336">
        <ele>22</ele>
        <time>2022-04-03T18:02:17Z</time>
      </trkpt>
      <trkpt lat="46.25551" lon="-0.33607">
        <ele>22.2</ele>
        <time>2022-04-03T18:02:18Z</time>
      </trkpt>
      <trkpt lat="46.25555" lon="-0.33614">
        <ele>22.2</ele>
        <time>2022-04-03T18:02:19Z</time>
      </trkpt>
      <trkpt lat="46.25559" lon="-0.33621">
        <ele>22.2</ele>
        <time>2022-04-03T18:02:20Z</time>
      </trkpt>
      <trkpt lat="46.25563" lon="-0.33629">
        <ele>22.2</ele>
        <time>2022-04-03T18:02:21Z</time>
      </trkpt>
      <trkpt lat="46.25567" lon="-0.33637">
        <ele>22.2</ele>
        <time>2022-04-03T18:02:22Z</time>
      </trkpt>
      <trkpt lat="46.25571" lon="-0.33644">
        <ele>22.2</ele>
        <time>2022-04-03T18:02:23Z</time>
      </trkpt>
      <trkpt lat="46.25574" lon="-0.33652">
        <ele>22.2</ele>
        <time>2022-04-03T18:02:24Z</time>
      </trkpt>
      <trkpt lat="46.25578" lon="-0.3366">
        <ele>22.2</ele>
        <time>2022-04-03T18:02:25Z</time>
      </trkpt>
      <trkpt lat="46.25582" lon="-0.33668">
        <ele>22</ele>
        <time>2022-04-03T18:02:26Z</time>
      </trkpt>
      <trkpt lat="46.25586" lon="-0.33676">
        <ele>22</ele>
        <time>2022-04-03T18:02:27Z</time>
      </trkpt>
      <trkpt lat="46.2559" lon="-0.33684">
        <ele>22.2</ele>
        <time>2022-04-03T18:02:28Z</time>
      </trkpt>
      <trkpt lat="46.25593" lon="-0.33693">
        <ele>22</ele>
        <time>2022-04-03T18:02:29Z</time>
      </trkpt>
      <trkpt lat="46.25597" lon="-0.33701">
        <ele>22</ele>
        <time>2022-04-03T18:02:30Z</time>
      </trkpt>
      <trkpt lat="46.256" lon="-0.33709">
        <ele>22.2</ele>
        <time>2022-04-03T18:02:31Z</time>
      </trkpt>
      <trkpt lat="46.25603" lon="-0.33717">
        <ele>22.2</ele>
        <time>2022-04-03T18:02:32Z</time>
      </trkpt>
      <trkpt lat="46.25606" lon="-0.33726">
        <ele>22</ele>
        <time>2022-04-03T18:02:33Z</time>
      </trkpt>
      <trkpt lat="46.25609" lon="-0.33734">
        <ele>22</ele>
        <time>2022-04-03T18:02:34Z</time>
      </trkpt>
      <trkpt lat="46.25613" lon="-0.33742">
        <ele>21.8</ele>
        <time>2022-04-03T18:02:35Z</time>
      </trkpt>
      <trkpt lat="46.25616" lon="-0.3375">
        <ele>21.8</ele>
        <time>2022-04-03T18:02:36Z</time>
      </trkpt>
      <trkpt lat="46.25619" lon="-0.33758">
        <ele>21.8</ele>
        <time>2022-04-03T18:02:37Z</time>
      </trkpt>
      <trkpt lat="46.25623" lon="-0.33766">
        <ele>21.8</ele>
        <time>2022-04-03T18:02:38Z</time>
      </trkpt>
      <trkpt lat="46.25626" lon="-0.33774">
        <ele>21.8</ele>
        <time>2022-04-03T18:02:39Z</time>
      </trkpt>
      <trkpt lat="46.2563" lon="-0.33781">
        <ele>21.8</ele>
        <time>2022-04-03T18:02:40Z</time>
      </trkpt>
      <trkpt lat="46.25634" lon="-0.33789">
        <ele>21.8</ele>
        <time>2022-04-03T18:02:41Z</time>
      </trkpt>
      <trkpt lat="46.25637" lon="-0.33797">
        <ele>21.8</ele>
        <time>2022-04-03T18:02:42Z</time>
      </trkpt>
      <trkpt lat="46.25641" lon="-0.33805">
        <ele>21.6</ele>
        <time>2022-04-03T18:02:43Z</time>
      </trkpt>
      <trkpt lat="46.25644" lon="-0.33813">
        <ele>21.8</ele>
        <time>2022-04-03T18:02:44Z</time>
      </trkpt>
      <trkpt lat="46.25647" lon="-0.3382">
        <ele>21.6</ele>
        <time>2022-04-03T18:02:45Z</time>
      </trkpt>
      <trkpt lat="46.2565" lon="-0.33828">
        <ele>21.6</ele>
        <time>2022-04-03T18:02:46Z</time>
      </trkpt>
      <trkpt lat="46.25653" lon="-0.33835">
        <ele>21.6</ele>
        <time>2022-04-03T18:02:47Z</time>
      </trkpt>
      <trkpt lat="46.25656" lon="-0.33841">
        <ele>21.6</ele>
        <time>2022-04-03T18:02:48Z</time>
      </trkpt>
      <trkpt lat="46.25658" lon="-0.33848">
        <ele>21.8</ele>
        <time>2022-04-03T18:02:49Z</time>
      </trkpt>
      <trkpt lat="46.25661" lon="-0.33855">
        <ele>21.6</ele>
        <time>2022-04-03T18:02:50Z</time>
      </trkpt>
      <trkpt lat="46.25663" lon="-0.33861">
        <ele>21.8</ele>
        <time>2022-04-03T18:02:51Z</time>
      </trkpt>
      <trkpt lat="46.25666" lon="-0.33868">
        <ele>21.8</ele>
        <time>2022-04-03T18:02:52Z</time>
      </trkpt>
      <trkpt lat="46.25668" lon="-0.33874">
        <ele>21.8</ele>
        <time>2022-04-03T18:02:53Z</time>
      </trkpt>
      <trkpt lat="46.2567" lon="-0.33881">
        <ele>21.8</ele>
        <time>2022-04-03T18:02:54Z</time>
      </trkpt>
      <trkpt lat="46.25673" lon="-0.33887">
        <ele>21.8</ele>
        <time>2022-04-03T18:02:55Z</time>
      </trkpt>
      <trkpt lat="46.25675" lon="-0.33894">
        <ele>21.8</ele>
        <time>2022-04-03T18:02:56Z</time>
      </trkpt>
      <trkpt lat="46.25677" lon="-0.33901">
        <ele>21.8</ele>
        <time>2022-04-03T18:02:57Z</time>
      </trkpt>
      <trkpt lat="46.25679" lon="-0.33908">
        <ele>21.6</ele>
        <time>2022-04-03T18:02:58Z</time>
      </trkpt>
      <trkpt lat="46.25681" lon="-0.33915">
        <ele>21.8</ele>
        <time>2022-04-03T18:02:59Z</time>
      </trkpt>
      <trkpt lat="46.25683" lon="-0.33922">
        <ele>21.8</ele>
        <time>2022-04-03T18:03:00Z</time>
      </trkpt>
      <trkpt lat="46.25685" lon="-0.3393">
        <ele>21.8</ele>
        <time>2022-04-03T18:03:01Z</time>
      </trkpt>
      <trkpt lat="46.25686" lon="-0.33937">
        <ele>22</ele>
        <time>2022-04-03T18:03:02Z</time>
      </trkpt>
      <trkpt lat="46.25688" lon="-0.33945">
        <ele>22</ele>
        <time>2022-04-03T18:03:03Z</time>
      </trkpt>
      <trkpt lat="46.2569" lon="-0.33952">
        <ele>22</ele>
        <time>2022-04-03T18:03:04Z</time>
      </trkpt>
      <trkpt lat="46.25691" lon="-0.33959">
        <ele>21.8</ele>
        <time>2022-04-03T18:03:05Z</time>
      </trkpt>
      <trkpt lat="46.25693" lon="-0.33967">
        <ele>22</ele>
        <time>2022-04-03T18:03:06Z</time>
      </trkpt>
      <trkpt lat="46.25695" lon="-0.33974">
        <ele>22</ele>
        <time>2022-04-03T18:03:07Z</time>
      </trkpt>
      <trkpt lat="46.25696" lon="-0.33981">
        <ele>22</ele>
        <time>2022-04-03T18:03:08Z</time>
      </trkpt>
      <trkpt lat="46.25697" lon="-0.33989">
        <ele>21.8</ele>
        <time>2022-04-03T18:03:09Z</time>
      </trkpt>
      <trkpt lat="46.25699" lon="-0.33996">
        <ele>22</ele>
        <time>2022-04-03T18:03:10Z</time>
      </trkpt>
      <trkpt lat="46.257" lon="-0.34003">
        <ele>22.2</ele>
        <time>2022-04-03T18:03:11Z</time>
      </trkpt>
      <trkpt lat="46.25702" lon="-0.3401">
        <ele>22</ele>
        <time>2022-04-03T18:03:12Z</time>
      </trkpt>
      <trkpt lat="46.25704" lon="-0.34017">
        <ele>22</ele>
        <time>2022-04-03T18:03:13Z</time>
      </trkpt>
      <trkpt lat="46.25705" lon="-0.34023">
        <ele>22.4</ele>
        <time>2022-04-03T18:03:14Z</time>
      </trkpt>
      <trkpt lat="46.25707" lon="-0.3403">
        <ele>22.6</ele>
        <time>2022-04-03T18:03:15Z</time>
      </trkpt>
      <trkpt lat="46.25709" lon="-0.34036">
        <ele>22.6</ele>
        <time>2022-04-03T18:03:16Z</time>
      </trkpt>
      <trkpt lat="46.25711" lon="-0.34043">
        <ele>22.4</ele>
        <time>2022-04-03T18:03:17Z</time>
      </trkpt>
      <trkpt lat="46.25713" lon="-0.34049">
        <ele>22.6</ele>
        <time>2022-04-03T18:03:18Z</time>
      </trkpt>
      <trkpt lat="46.25715" lon="-0.34054">
        <ele>22.6</ele>
        <time>2022-04-03T18:03:19Z</time>
      </trkpt>
      <trkpt lat="46.25718" lon="-0.3406">
        <ele>23</ele>
        <time>2022-04-03T18:03:20Z</time>
      </trkpt>
      <trkpt lat="46.2572" lon="-0.34065">
        <ele>23</ele>
        <time>2022-04-03T18:03:21Z</time>
      </trkpt>
      <trkpt lat="46.25722" lon="-0.3407">
        <ele>23</ele>
        <time>2022-04-03T18:03:22Z</time>
      </trkpt>
      <trkpt lat="46.25725" lon="-0.34076">
        <ele>23.2</ele>
        <time>2022-04-03T18:03:23Z</time>
      </trkpt>
      <trkpt lat="46.25728" lon="-0.34081">
        <ele>23.4</ele>
        <time>2022-04-03T18:03:24Z</time>
      </trkpt>
      <trkpt lat="46.25731" lon="-0.34086">
        <ele>23.4</ele>
        <time>2022-04-03T18:03:25Z</time>
      </trkpt>
      <trkpt lat="46.25734" lon="-0.34091">
        <ele>23.4</ele>
        <time>2022-04-03T18:03:26Z</time>
      </trkpt>
      <trkpt lat="46.25737" lon="-0.34096">
        <ele>23.6</ele>
        <time>2022-04-03T18:03:27Z</time>
      </trkpt>
      <trkpt lat="46.25739" lon="-0.34101">
        <ele>23.6</ele>
        <time>2022-04-03T18:03:28Z</time>
      </trkpt>
      <trkpt lat="46.25742" lon="-0.34105">
        <ele>23.8</ele>
        <time>2022-04-03T18:03:29Z</time>
      </trkpt>
      <trkpt lat="46.25745" lon="-0.3411">
        <ele>24.2</ele>
        <time>2022-04-03T18:03:30Z</time>
      </trkpt>
      <trkpt lat="46.25748" lon="-0.34114">
        <ele>24</ele>
        <time>2022-04-03T18:03:31Z</time>
      </trkpt>
      <trkpt lat="46.25751" lon="-0.34118">
        <ele>24.2</ele>
        <time>2022-04-03T18:03:32Z</time>
      </trkpt>
      <trkpt lat="46.25753" lon="-0.34123">
        <ele>24.2</ele>
        <time>2022-04-03T18:03:33Z</time>
      </trkpt>
      <trkpt lat="46.25755" lon="-0.34128">
        <ele>24.4</ele>
        <time>2022-04-03T18:03:34Z</time>
      </trkpt>
      <trkpt lat="46.25758" lon="-0.34132">
        <ele>24.4</ele>
        <time>2022-04-03T18:03:35Z</time>
      </trkpt>
      <trkpt lat="46.25761" lon="-0.34137">
        <ele>24.4</ele>
        <time>2022-04-03T18:03:36Z</time>
      </trkpt>
      <trkpt lat="46.25763" lon="-0.34141">
        <ele>24.6</ele>
        <time>2022-04-03T18:03:37Z</time>
      </trkpt>
      <trkpt lat="46.25767" lon="-0.34145">
        <ele>24.6</ele>
        <time>2022-04-03T18:03:38Z</time>
      </trkpt>
      <trkpt lat="46.25769" lon="-0.34149">
        <ele>24.6</ele>
        <time>2022-04-03T18:03:39Z</time>
      </trkpt>
      <trkpt lat="46.25772" lon="-0.34153">
        <ele>24.8</ele>
        <time>2022-04-03T18:03:40Z</time>
      </trkpt>
      <trkpt lat="46.25775" lon="-0.34158">
        <ele>24.8</ele>
        <time>2022-04-03T18:03:41Z</time>
      </trkpt>
      <trkpt lat="46.25777" lon="-0.34162">
        <ele>25.2</ele>
        <time>2022-04-03T18:03:42Z</time>
      </trkpt>
      <trkpt lat="46.25779" lon="-0.34166">
        <ele>25</ele>
        <time>2022-04-03T18:03:43Z</time>
      </trkpt>
      <trkpt lat="46.25782" lon="-0.34171">
        <ele>25.2</ele>
        <time>2022-04-03T18:03:44Z</time>
      </trkpt>
      <trkpt lat="46.25784" lon="-0.34175">
        <ele>25.2</ele>
        <time>2022-04-03T18:03:45Z</time>
      </trkpt>
      <trkpt lat="46.25787" lon="-0.3418">
        <ele>25.2</ele>
        <time>2022-04-03T18:03:46Z</time>
      </trkpt>
      <trkpt lat="46.2579" lon="-0.34185">
        <ele>25.4</ele>
        <time>2022-04-03T18:03:47Z</time>
      </trkpt>
      <trkpt lat="46.25793" lon="-0.3419">
        <ele>25.6</ele>
        <time>2022-04-03T18:03:48Z</time>
      </trkpt>
      <trkpt lat="46.25795" lon="-0.34195">
        <ele>25.8</ele>
        <time>2022-04-03T18:03:49Z</time>
      </trkpt>
      <trkpt lat="46.25797" lon="-0.342">
        <ele>25.6</ele>
        <time>2022-04-03T18:03:50Z</time>
      </trkpt>
      <trkpt lat="46.25799" lon="-0.34206">
        <ele>25.8</ele>
        <time>2022-04-03T18:03:51Z</time>
      </trkpt>
      <trkpt lat="46.25801" lon="-0.34213">
        <ele>25.8</ele>
        <time>2022-04-03T18:03:52Z</time>
      </trkpt>
      <trkpt lat="46.25803" lon="-0.34219">
        <ele>25.8</ele>
        <time>2022-04-03T18:03:53Z</time>
      </trkpt>
      <trkpt lat="46.25805" lon="-0.34225">
        <ele>25.8</ele>
        <time>2022-04-03T18:03:54Z</time>
      </trkpt>
      <trkpt lat="46.25807" lon="-0.34231">
        <ele>26</ele>
        <time>2022-04-03T18:03:55Z</time>
      </trkpt>
      <trkpt lat="46.25809" lon="-0.34237">
        <ele>26</ele>
        <time>2022-04-03T18:03:56Z</time>
      </trkpt>
      <trkpt lat="46.25812" lon="-0.34243">
        <ele>26.2</ele>
        <time>2022-04-03T18:03:57Z</time>
      </trkpt>
      <trkpt lat="46.25814" lon="-0.34248">
        <ele>26</ele>
        <time>2022-04-03T18:03:58Z</time>
      </trkpt>
      <trkpt lat="46.25816" lon="-0.34254">
        <ele>26.2</ele>
        <time>2022-04-03T18:03:59Z</time>
      </trkpt>
      <trkpt lat="46.25818" lon="-0.3426">
        <ele>26</ele>
        <time>2022-04-03T18:04:00Z</time>
      </trkpt>
      <trkpt lat="46.2582" lon="-0.34265">
        <ele>26</ele>
        <time>2022-04-03T18:04:01Z</time>
      </trkpt>
      <trkpt lat="46.25822" lon="-0.34271">
        <ele>26</ele>
        <time>2022-04-03T18:04:02Z</time>
      </trkpt>
      <trkpt lat="46.25823" lon="-0.34276">
        <ele>25.8</ele>
        <time>2022-04-03T18:04:03Z</time>
      </trkpt>
      <trkpt lat="46.25825" lon="-0.34281">
        <ele>26</ele>
        <time>2022-04-03T18:04:04Z</time>
      </trkpt>
      <trkpt lat="46.25826" lon="-0.34286">
        <ele>26</ele>
        <time>2022-04-03T18:04:05Z</time>
      </trkpt>
      <trkpt lat="46.25827" lon="-0.34291">
        <ele>26.2</ele>
        <time>2022-04-03T18:04:06Z</time>
      </trkpt>
      <trkpt lat="46.25829" lon="-0.34296">
        <ele>26</ele>
        <time>2022-04-03T18:04:07Z</time>
      </trkpt>
      <trkpt lat="46.2583" lon="-0.343">
        <ele>26.2</ele>
        <time>2022-04-03T18:04:08Z</time>
      </trkpt>
      <trkpt lat="46.25831" lon="-0.34305">
        <ele>26.2</ele>
        <time>2022-04-03T18:04:09Z</time>
      </trkpt>
      <trkpt lat="46.25833" lon="-0.34309">
        <ele>26.2</ele>
        <time>2022-04-03T18:04:10Z</time>
      </trkpt>
      <trkpt lat="46.25834" lon="-0.34313">
        <ele>26.2</ele>
        <time>2022-04-03T18:04:11Z</time>
      </trkpt>
      <trkpt lat="46.25835" lon="-0.34317">
        <ele>26.2</ele>
        <time>2022-04-03T18:04:12Z</time>
      </trkpt>
      <trkpt lat="46.25836" lon="-0.34322">
        <ele>26.2</ele>
        <time>2022-04-03T18:04:13Z</time>
      </trkpt>
      <trkpt lat="46.25838" lon="-0.34326">
        <ele>26</ele>
        <time>2022-04-03T18:04:14Z</time>
      </trkpt>
      <trkpt lat="46.25841" lon="-0.34331">
        <ele>26</ele>
        <time>2022-04-03T18:04:15Z</time>
      </trkpt>
      <trkpt lat="46.25843" lon="-0.34336">
        <ele>25.8</ele>
        <time>2022-04-03T18:04:16Z</time>
      </trkpt>
      <trkpt lat="46.25845" lon="-0.3434">
        <ele>25.8</ele>
        <time>2022-04-03T18:04:17Z</time>
      </trkpt>
      <trkpt lat="46.25848" lon="-0.34343">
        <ele>25.8</ele>
        <time>2022-04-03T18:04:18Z</time>
      </trkpt>
      <trkpt lat="46.2585" lon="-0.34347">
        <ele>25.8</ele>
        <time>2022-04-03T18:04:19Z</time>
      </trkpt>
      <trkpt lat="46.25852" lon="-0.34351">
        <ele>25.8</ele>
        <time>2022-04-03T18:04:20Z</time>
      </trkpt>
      <trkpt lat="46.25854" lon="-0.34356">
        <ele>25.8</ele>
        <time>2022-04-03T18:04:21Z</time>
      </trkpt>
      <trkpt lat="46.25856" lon="-0.34361">
        <ele>25.8</ele>
        <time>2022-04-03T18:04:22Z</time>
      </trkpt>
      <trkpt lat="46.25858" lon="-0.34366">
        <ele>26</ele>
        <time>2022-04-03T18:04:23Z</time>
      </trkpt>
      <trkpt lat="46.2586" lon="-0.34371">
        <ele>26</ele>
        <time>2022-04-03T18:04:24Z</time>
      </trkpt>
      <trkpt lat="46.25861" lon="-0.34375">
        <ele>26.2</ele>
        <time>2022-04-03T18:04:25Z</time>
      </trkpt>
      <trkpt lat="46.25863" lon="-0.34379">
        <ele>26.2</ele>
        <time>2022-04-03T18:04:26Z</time>
      </trkpt>
      <trkpt lat="46.25866" lon="-0.34382">
        <ele>26.2</ele>
        <time>2022-04-03T18:04:27Z</time>
      </trkpt>
      <trkpt lat="46.25868" lon="-0.34383">
        <ele>26</ele>
        <time>2022-04-03T18:04:28Z</time>
      </trkpt>
      <trkpt lat="46.25871" lon="-0.34382">
        <ele>26</ele>
        <time>2022-04-03T18:04:29Z</time>
      </trkpt>
      <trkpt lat="46.25874" lon="-0.3438">
        <ele>25.8</ele>
        <time>2022-04-03T18:04:30Z</time>
      </trkpt>
      <trkpt lat="46.25877" lon="-0.34379">
        <ele>25.8</ele>
        <time>2022-04-03T18:04:31Z</time>
      </trkpt>
      <trkpt lat="46.2588" lon="-0.34377">
        <ele>25.8</ele>
        <time>2022-04-03T18:04:32Z</time>
      </trkpt>
      <trkpt lat="46.25883" lon="-0.34376">
        <ele>26</ele>
        <time>2022-04-03T18:04:33Z</time>
      </trkpt>
      <trkpt lat="46.25888" lon="-0.34374">
        <ele>25.8</ele>
        <time>2022-04-03T18:04:34Z</time>
      </trkpt>
      <trkpt lat="46.25892" lon="-0.34372">
        <ele>25.8</ele>
        <time>2022-04-03T18:04:35Z</time>
      </trkpt>
      <trkpt lat="46.25897" lon="-0.3437">
        <ele>25.8</ele>
        <time>2022-04-03T18:04:36Z</time>
      </trkpt>
      <trkpt lat="46.25901" lon="-0.34367">
        <ele>25.8</ele>
        <time>2022-04-03T18:04:37Z</time>
      </trkpt>
      <trkpt lat="46.25905" lon="-0.34365">
        <ele>25.8</ele>
        <time>2022-04-03T18:04:38Z</time>
      </trkpt>
      <trkpt lat="46.25909" lon="-0.34363">
        <ele>25.8</ele>
        <time>2022-04-03T18:04:39Z</time>
      </trkpt>
      <trkpt lat="46.25913" lon="-0.34361">
        <ele>25.6</ele>
        <time>2022-04-03T18:04:40Z</time>
      </trkpt>
      <trkpt lat="46.25917" lon="-0.34359">
        <ele>25.8</ele>
        <time>2022-04-03T18:04:41Z</time>
      </trkpt>
      <trkpt lat="46.25921" lon="-0.34356">
        <ele>25.6</ele>
        <time>2022-04-03T18:04:42Z</time>
      </trkpt>
      <trkpt lat="46.25926" lon="-0.34353">
        <ele>25.6</ele>
        <time>2022-04-03T18:04:43Z</time>
      </trkpt>
      <trkpt lat="46.2593" lon="-0.34349">
        <ele>25.6</ele>
        <time>2022-04-03T18:04:44Z</time>
      </trkpt>
      <trkpt lat="46.25935" lon="-0.34346">
        <ele>25.4</ele>
        <time>2022-04-03T18:04:45Z</time>
      </trkpt>
      <trkpt lat="46.25941" lon="-0.34342">
        <ele>25.4</ele>
        <time>2022-04-03T18:04:46Z</time>
      </trkpt>
      <trkpt lat="46.25945" lon="-0.34338">
        <ele>25.4</ele>
        <time>2022-04-03T18:04:47Z</time>
      </trkpt>
      <trkpt lat="46.2595" lon="-0.34334">
        <ele>25.4</ele>
        <time>2022-04-03T18:04:48Z</time>
      </trkpt>
      <trkpt lat="46.25955" lon="-0.3433">
        <ele>25.4</ele>
        <time>2022-04-03T18:04:49Z</time>
      </trkpt>
      <trkpt lat="46.25959" lon="-0.34325">
        <ele>25.4</ele>
        <time>2022-04-03T18:04:50Z</time>
      </trkpt>
      <trkpt lat="46.25964" lon="-0.3432">
        <ele>25.4</ele>
        <time>2022-04-03T18:04:51Z</time>
      </trkpt>
      <trkpt lat="46.25968" lon="-0.34314">
        <ele>25.2</ele>
        <time>2022-04-03T18:04:52Z</time>
      </trkpt>
      <trkpt lat="46.25972" lon="-0.34309">
        <ele>25.2</ele>
        <time>2022-04-03T18:04:53Z</time>
      </trkpt>
      <trkpt lat="46.25976" lon="-0.34304">
        <ele>25.2</ele>
        <time>2022-04-03T18:04:54Z</time>
      </trkpt>
      <trkpt lat="46.2598" lon="-0.34298">
        <ele>25.2</ele>
        <time>2022-04-03T18:04:55Z</time>
      </trkpt>
      <trkpt lat="46.25985" lon="-0.34293">
        <ele>25.2</ele>
        <time>2022-04-03T18:04:56Z</time>
      </trkpt>
      <trkpt lat="46.25989" lon="-0.34288">
        <ele>25</ele>
        <time>2022-04-03T18:04:57Z</time>
      </trkpt>
      <trkpt lat="46.25993" lon="-0.34282">
        <ele>25</ele>
        <time>2022-04-03T18:04:58Z</time>
      </trkpt>
      <trkpt lat="46.25997" lon="-0.34276">
        <ele>24.8</ele>
        <time>2022-04-03T18:04:59Z</time>
      </trkpt>
      <trkpt lat="46.26001" lon="-0.3427">
        <ele>25</ele>
        <time>2022-04-03T18:05:00Z</time>
      </trkpt>
      <trkpt lat="46.26005" lon="-0.34264">
        <ele>24.8</ele>
        <time>2022-04-03T18:05:01Z</time>
      </trkpt>
      <trkpt lat="46.26009" lon="-0.34258">
        <ele>24.8</ele>
        <time>2022-04-03T18:05:02Z</time>
      </trkpt>
      <trkpt lat="46.26012" lon="-0.34251">
        <ele>24.8</ele>
        <time>2022-04-03T18:05:03Z</time>
      </trkpt>
      <trkpt lat="46.26016" lon="-0.34245">
        <ele>24.6</ele>
        <time>2022-04-03T18:05:04Z</time>
      </trkpt>
      <trkpt lat="46.26019" lon="-0.34239">
        <ele>24.6</ele>
        <time>2022-04-03T18:05:05Z</time>
      </trkpt>
      <trkpt lat="46.26023" lon="-0.34233">
        <ele>24.6</ele>
        <time>2022-04-03T18:05:06Z</time>
      </trkpt>
      <trkpt lat="46.26026" lon="-0.34226">
        <ele>24.6</ele>
        <time>2022-04-03T18:05:07Z</time>
      </trkpt>
      <trkpt lat="46.26029" lon="-0.3422">
        <ele>24.6</ele>
        <time>2022-04-03T18:05:08Z</time>
      </trkpt>
      <trkpt lat="46.26032" lon="-0.34214">
        <ele>24.6</ele>
        <time>2022-04-03T18:05:09Z</time>
      </trkpt>
      <trkpt lat="46.26035" lon="-0.34208">
        <ele>24.6</ele>
        <time>2022-04-03T18:05:10Z</time>
      </trkpt>
      <trkpt lat="46.26038" lon="-0.34201">
        <ele>24.6</ele>
        <time>2022-04-03T18:05:11Z</time>
      </trkpt>
      <trkpt lat="46.26041" lon="-0.34195">
        <ele>24.4</ele>
        <time>2022-04-03T18:05:12Z</time>
      </trkpt>
      <trkpt lat="46.26045" lon="-0.34189">
        <ele>24.4</ele>
        <time>2022-04-03T18:05:13Z</time>
      </trkpt>
      <trkpt lat="46.26048" lon="-0.34184">
        <ele>24.4</ele>
        <time>2022-04-03T18:05:14Z</time>
      </trkpt>
      <trkpt lat="46.26051" lon="-0.34178">
        <ele>24.4</ele>
        <time>2022-04-03T18:05:15Z</time>
      </trkpt>
      <trkpt lat="46.26055" lon="-0.34173">
        <ele>24.4</ele>
        <time>2022-04-03T18:05:16Z</time>
      </trkpt>
      <trkpt lat="46.26059" lon="-0.34168">
        <ele>24.4</ele>
        <time>2022-04-03T18:05:17Z</time>
      </trkpt>
      <trkpt lat="46.26063" lon="-0.34164">
        <ele>24.4</ele>
        <time>2022-04-03T18:05:18Z</time>
      </trkpt>
      <trkpt lat="46.26068" lon="-0.34159">
        <ele>24.4</ele>
        <time>2022-04-03T18:05:19Z</time>
      </trkpt>
      <trkpt lat="46.26072" lon="-0.34154">
        <ele>24.4</ele>
        <time>2022-04-03T18:05:20Z</time>
      </trkpt>
      <trkpt lat="46.26076" lon="-0.3415">
        <ele>24.2</ele>
        <time>2022-04-03T18:05:21Z</time>
      </trkpt>
      <trkpt lat="46.26081" lon="-0.34146">
        <ele>24.4</ele>
        <time>2022-04-03T18:05:22Z</time>
      </trkpt>
      <trkpt lat="46.26086" lon="-0.34142">
        <ele>24.4</ele>
        <time>2022-04-03T18:05:23Z</time>
      </trkpt>
      <trkpt lat="46.26091" lon="-0.34138">
        <ele>24.6</ele>
        <time>2022-04-03T18:05:24Z</time>
      </trkpt>
      <trkpt lat="46.26095" lon="-0.34135">
        <ele>24.4</ele>
        <time>2022-04-03T18:05:25Z</time>
      </trkpt>
      <trkpt lat="46.261" lon="-0.34131">
        <ele>24.6</ele>
        <time>2022-04-03T18:05:26Z</time>
      </trkpt>
      <trkpt lat="46.26105" lon="-0.34128">
        <ele>24.6</ele>
        <time>2022-04-03T18:05:27Z</time>
      </trkpt>
      <trkpt lat="46.26109" lon="-0.34124">
        <ele>24.6</ele>
        <time>2022-04-03T18:05:28Z</time>
      </trkpt>
      <trkpt lat="46.26114" lon="-0.34121">
        <ele>24.6</ele>
        <time>2022-04-03T18:05:29Z</time>
      </trkpt>
      <trkpt lat="46.26119" lon="-0.34118">
        <ele>24.6</ele>
        <time>2022-04-03T18:05:30Z</time>
      </trkpt>
      <trkpt lat="46.26123" lon="-0.34115">
        <ele>24.6</ele>
        <time>2022-04-03T18:05:31Z</time>
      </trkpt>
      <trkpt lat="46.26128" lon="-0.34112">
        <ele>24.8</ele>
        <time>2022-04-03T18:05:32Z</time>
      </trkpt>
      <trkpt lat="46.26133" lon="-0.34108">
        <ele>24.8</ele>
        <time>2022-04-03T18:05:33Z</time>
      </trkpt>
      <trkpt lat="46.26137" lon="-0.34105">
        <ele>24.8</ele>
        <time>2022-04-03T18:05:34Z</time>
      </trkpt>
      <trkpt lat="46.26142" lon="-0.34102">
        <ele>25</ele>
        <time>2022-04-03T18:05:35Z</time>
      </trkpt>
      <trkpt lat="46.26147" lon="-0.34099">
        <ele>25</ele>
        <time>2022-04-03T18:05:36Z</time>
      </trkpt>
      <trkpt lat="46.26151" lon="-0.34096">
        <ele>25</ele>
        <time>2022-04-03T18:05:37Z</time>
      </trkpt>
      <trkpt lat="46.26156" lon="-0.34093">
        <ele>25</ele>
        <time>2022-04-03T18:05:38Z</time>
      </trkpt>
      <trkpt lat="46.26161" lon="-0.34089">
        <ele>25.2</ele>
        <time>2022-04-03T18:05:39Z</time>
      </trkpt>
      <trkpt lat="46.26165" lon="-0.34085">
        <ele>25.2</ele>
        <time>2022-04-03T18:05:40Z</time>
      </trkpt>
      <trkpt lat="46.2617" lon="-0.34082">
        <ele>25.2</ele>
        <time>2022-04-03T18:05:41Z</time>
      </trkpt>
      <trkpt lat="46.26174" lon="-0.34079">
        <ele>25.2</ele>
        <time>2022-04-03T18:05:42Z</time>
      </trkpt>
      <trkpt lat="46.26179" lon="-0.34076">
        <ele>25.2</ele>
        <time>2022-04-03T18:05:43Z</time>
      </trkpt>
      <trkpt lat="46.26183" lon="-0.34073">
        <ele>25.2</ele>
        <time>2022-04-03T18:05:44Z</time>
      </trkpt>
      <trkpt lat="46.26188" lon="-0.3407">
        <ele>25.4</ele>
        <time>2022-04-03T18:05:45Z</time>
      </trkpt>
      <trkpt lat="46.26192" lon="-0.34068">
        <ele>25.4</ele>
        <time>2022-04-03T18:05:46Z</time>
      </trkpt>
      <trkpt lat="46.26197" lon="-0.34065">
        <ele>25.6</ele>
        <time>2022-04-03T18:05:47Z</time>
      </trkpt>
      <trkpt lat="46.26201" lon="-0.34062">
        <ele>25.6</ele>
        <time>2022-04-03T18:05:48Z</time>
      </trkpt>
      <trkpt lat="46.26206" lon="-0.34059">
        <ele>25.6</ele>
        <time>2022-04-03T18:05:49Z</time>
      </trkpt>
      <trkpt lat="46.2621" lon="-0.34056">
        <ele>25.6</ele>
        <time>2022-04-03T18:05:50Z</time>
      </trkpt>
      <trkpt lat="46.26215" lon="-0.34053">
        <ele>25.8</ele>
        <time>2022-04-03T18:05:51Z</time>
      </trkpt>
      <trkpt lat="46.2622" lon="-0.34049">
        <ele>25.6</ele>
        <time>2022-04-03T18:05:52Z</time>
      </trkpt>
      <trkpt lat="46.26225" lon="-0.34046">
        <ele>25.8</ele>
        <time>2022-04-03T18:05:53Z</time>
      </trkpt>
      <trkpt lat="46.2623" lon="-0.34043">
        <ele>25.8</ele>
        <time>2022-04-03T18:05:54Z</time>
      </trkpt>
      <trkpt lat="46.26234" lon="-0.34039">
        <ele>25.8</ele>
        <time>2022-04-03T18:05:55Z</time>
      </trkpt>
      <trkpt lat="46.26239" lon="-0.34036">
        <ele>26</ele>
        <time>2022-04-03T18:05:56Z</time>
      </trkpt>
      <trkpt lat="46.26244" lon="-0.34033">
        <ele>26</ele>
        <time>2022-04-03T18:05:57Z</time>
      </trkpt>
      <trkpt lat="46.26249" lon="-0.34029">
        <ele>26</ele>
        <time>2022-04-03T18:05:58Z</time>
      </trkpt>
      <trkpt lat="46.26254" lon="-0.34026">
        <ele>26</ele>
        <time>2022-04-03T18:05:59Z</time>
      </trkpt>
      <trkpt lat="46.26259" lon="-0.34023">
        <ele>26</ele>
        <time>2022-04-03T18:06:00Z</time>
      </trkpt>
      <trkpt lat="46.26263" lon="-0.34019">
        <ele>26</ele>
        <time>2022-04-03T18:06:01Z</time>
      </trkpt>
      <trkpt lat="46.26268" lon="-0.34016">
        <ele>26.2</ele>
        <time>2022-04-03T18:06:02Z</time>
      </trkpt>
      <trkpt lat="46.26273" lon="-0.34013">
        <ele>26</ele>
        <time>2022-04-03T18:06:03Z</time>
      </trkpt>
      <trkpt lat="46.26278" lon="-0.3401">
        <ele>26</ele>
        <time>2022-04-03T18:06:04Z</time>
      </trkpt>
      <trkpt lat="46.26282" lon="-0.34007">
        <ele>26.2</ele>
        <time>2022-04-03T18:06:05Z</time>
      </trkpt>
      <trkpt lat="46.26287" lon="-0.34004">
        <ele>26.2</ele>
        <time>2022-04-03T18:06:06Z</time>
      </trkpt>
      <trkpt lat="46.26292" lon="-0.34002">
        <ele>26.2</ele>
        <time>2022-04-03T18:06:07Z</time>
      </trkpt>
      <trkpt lat="46.26296" lon="-0.33999">
        <ele>26.2</ele>
        <time>2022-04-03T18:06:08Z</time>
      </trkpt>
      <trkpt lat="46.26301" lon="-0.33996">
        <ele>26.2</ele>
        <time>2022-04-03T18:06:09Z</time>
      </trkpt>
      <trkpt lat="46.26305" lon="-0.33994">
        <ele>26.2</ele>
        <time>2022-04-03T18:06:10Z</time>
      </trkpt>
      <trkpt lat="46.26309" lon="-0.33991">
        <ele>26.2</ele>
        <time>2022-04-03T18:06:11Z</time>
      </trkpt>
      <trkpt lat="46.26314" lon="-0.33987">
        <ele>26.4</ele>
        <time>2022-04-03T18:06:12Z</time>
      </trkpt>
      <trkpt lat="46.26318" lon="-0.33984">
        <ele>26.2</ele>
        <time>2022-04-03T18:06:13Z</time>
      </trkpt>
      <trkpt lat="46.26322" lon="-0.3398">
        <ele>26.2</ele>
        <time>2022-04-03T18:06:14Z</time>
      </trkpt>
      <trkpt lat="46.26326" lon="-0.33976">
        <ele>26.4</ele>
        <time>2022-04-03T18:06:15Z</time>
      </trkpt>
      <trkpt lat="46.26331" lon="-0.33973">
        <ele>26.4</ele>
        <time>2022-04-03T18:06:16Z</time>
      </trkpt>
      <trkpt lat="46.26335" lon="-0.33969">
        <ele>26.4</ele>
        <time>2022-04-03T18:06:17Z</time>
      </trkpt>
      <trkpt lat="46.26339" lon="-0.33965">
        <ele>26.4</ele>
        <time>2022-04-03T18:06:18Z</time>
      </trkpt>
      <trkpt lat="46.26343" lon="-0.33961">
        <ele>26.6</ele>
        <time>2022-04-03T18:06:19Z</time>
      </trkpt>
      <trkpt lat="46.26347" lon="-0.33957">
        <ele>26.8</ele>
        <time>2022-04-03T18:06:20Z</time>
      </trkpt>
      <trkpt lat="46.26351" lon="-0.33953">
        <ele>26.8</ele>
        <time>2022-04-03T18:06:21Z</time>
      </trkpt>
      <trkpt lat="46.26355" lon="-0.33949">
        <ele>26.8</ele>
        <time>2022-04-03T18:06:22Z</time>
      </trkpt>
      <trkpt lat="46.26359" lon="-0.33945">
        <ele>27</ele>
        <time>2022-04-03T18:06:23Z</time>
      </trkpt>
      <trkpt lat="46.26364" lon="-0.33941">
        <ele>26.8</ele>
        <time>2022-04-03T18:06:24Z</time>
      </trkpt>
      <trkpt lat="46.26369" lon="-0.33937">
        <ele>27</ele>
        <time>2022-04-03T18:06:25Z</time>
      </trkpt>
      <trkpt lat="46.26373" lon="-0.33932">
        <ele>26.8</ele>
        <time>2022-04-03T18:06:26Z</time>
      </trkpt>
      <trkpt lat="46.26378" lon="-0.33927">
        <ele>26.8</ele>
        <time>2022-04-03T18:06:27Z</time>
      </trkpt>
      <trkpt lat="46.26383" lon="-0.33922">
        <ele>26.8</ele>
        <time>2022-04-03T18:06:28Z</time>
      </trkpt>
      <trkpt lat="46.26389" lon="-0.33918">
        <ele>26.8</ele>
        <time>2022-04-03T18:06:29Z</time>
      </trkpt>
      <trkpt lat="46.26394" lon="-0.33913">
        <ele>26.8</ele>
        <time>2022-04-03T18:06:30Z</time>
      </trkpt>
      <trkpt lat="46.26399" lon="-0.33908">
        <ele>27</ele>
        <time>2022-04-03T18:06:31Z</time>
      </trkpt>
      <trkpt lat="46.26405" lon="-0.33902">
        <ele>27</ele>
        <time>2022-04-03T18:06:32Z</time>
      </trkpt>
      <trkpt lat="46.2641" lon="-0.33897">
        <ele>26.8</ele>
        <time>2022-04-03T18:06:33Z</time>
      </trkpt>
      <trkpt lat="46.26415" lon="-0.33893">
        <ele>26.6</ele>
        <time>2022-04-03T18:06:34Z</time>
      </trkpt>
      <trkpt lat="46.26421" lon="-0.33888">
        <ele>26.2</ele>
        <time>2022-04-03T18:06:35Z</time>
      </trkpt>
      <trkpt lat="46.26426" lon="-0.33883">
        <ele>25.8</ele>
        <time>2022-04-03T18:06:36Z</time>
      </trkpt>
      <trkpt lat="46.26431" lon="-0.33878">
        <ele>25.4</ele>
        <time>2022-04-03T18:06:37Z</time>
      </trkpt>
      <trkpt lat="46.26436" lon="-0.33873">
        <ele>25</ele>
        <time>2022-04-03T18:06:38Z</time>
      </trkpt>
      <trkpt lat="46.26442" lon="-0.33869">
        <ele>24.6</ele>
        <time>2022-04-03T18:06:39Z</time>
      </trkpt>
      <trkpt lat="46.26447" lon="-0.33865">
        <ele>24.4</ele>
        <time>2022-04-03T18:06:40Z</time>
      </trkpt>
      <trkpt lat="46.26452" lon="-0.3386">
        <ele>24.2</ele>
        <time>2022-04-03T18:06:41Z</time>
      </trkpt>
      <trkpt lat="46.26457" lon="-0.33855">
        <ele>24.2</ele>
        <time>2022-04-03T18:06:42Z</time>
      </trkpt>
      <trkpt lat="46.26463" lon="-0.3385">
        <ele>23.8</ele>
        <time>2022-04-03T18:06:43Z</time>
      </trkpt>
      <trkpt lat="46.26468" lon="-0.33845">
        <ele>23.4</ele>
        <time>2022-04-03T18:06:44Z</time>
      </trkpt>
      <trkpt lat="46.26473" lon="-0.3384">
        <ele>23.4</ele>
        <time>2022-04-03T18:06:45Z</time>
      </trkpt>
      <trkpt lat="46.26478" lon="-0.33835">
        <ele>23.4</ele>
        <time>2022-04-03T18:06:46Z</time>
      </trkpt>
      <trkpt lat="46.26483" lon="-0.33829">
        <ele>23.4</ele>
        <time>2022-04-03T18:06:47Z</time>
      </trkpt>
      <trkpt lat="46.26488" lon="-0.33822">
        <ele>23.4</ele>
        <time>2022-04-03T18:06:48Z</time>
      </trkpt>
      <trkpt lat="46.26492" lon="-0.33815">
        <ele>23.2</ele>
        <time>2022-04-03T18:06:49Z</time>
      </trkpt>
      <trkpt lat="46.26496" lon="-0.33808">
        <ele>23</ele>
        <time>2022-04-03T18:06:50Z</time>
      </trkpt>
      <trkpt lat="46.265" lon="-0.338">
        <ele>22.8</ele>
        <time>2022-04-03T18:06:51Z</time>
      </trkpt>
      <trkpt lat="46.26503" lon="-0.33792">
        <ele>22.8</ele>
        <time>2022-04-03T18:06:52Z</time>
      </trkpt>
      <trkpt lat="46.26505" lon="-0.33783">
        <ele>22.8</ele>
        <time>2022-04-03T18:06:53Z</time>
      </trkpt>
      <trkpt lat="46.26508" lon="-0.33775">
        <ele>22.6</ele>
        <time>2022-04-03T18:06:54Z</time>
      </trkpt>
      <trkpt lat="46.2651" lon="-0.33767">
        <ele>22.6</ele>
        <time>2022-04-03T18:06:55Z</time>
      </trkpt>
      <trkpt lat="46.26512" lon="-0.33759">
        <ele>22.8</ele>
        <time>2022-04-03T18:06:56Z</time>
      </trkpt>
      <trkpt lat="46.26513" lon="-0.33751">
        <ele>22.8</ele>
        <time>2022-04-03T18:06:57Z</time>
      </trkpt>
      <trkpt lat="46.26514" lon="-0.33742">
        <ele>22.6</ele>
        <time>2022-04-03T18:06:58Z</time>
      </trkpt>
      <trkpt lat="46.26516" lon="-0.33734">
        <ele>22.8</ele>
        <time>2022-04-03T18:06:59Z</time>
      </trkpt>
      <trkpt lat="46.26517" lon="-0.33726">
        <ele>22.8</ele>
        <time>2022-04-03T18:07:00Z</time>
      </trkpt>
      <trkpt lat="46.26518" lon="-0.33718">
        <ele>22.8</ele>
        <time>2022-04-03T18:07:01Z</time>
      </trkpt>
      <trkpt lat="46.26519" lon="-0.3371">
        <ele>22.8</ele>
        <time>2022-04-03T18:07:02Z</time>
      </trkpt>
      <trkpt lat="46.2652" lon="-0.33703">
        <ele>23</ele>
        <time>2022-04-03T18:07:03Z</time>
      </trkpt>
      <trkpt lat="46.26522" lon="-0.33695">
        <ele>23</ele>
        <time>2022-04-03T18:07:04Z</time>
      </trkpt>
      <trkpt lat="46.26523" lon="-0.33687">
        <ele>23</ele>
        <time>2022-04-03T18:07:05Z</time>
      </trkpt>
      <trkpt lat="46.26525" lon="-0.33679">
        <ele>23</ele>
        <time>2022-04-03T18:07:06Z</time>
      </trkpt>
      <trkpt lat="46.26526" lon="-0.33671">
        <ele>23</ele>
        <time>2022-04-03T18:07:07Z</time>
      </trkpt>
      <trkpt lat="46.26528" lon="-0.33663">
        <ele>23.2</ele>
        <time>2022-04-03T18:07:08Z</time>
      </trkpt>
      <trkpt lat="46.2653" lon="-0.33655">
        <ele>23.4</ele>
        <time>2022-04-03T18:07:09Z</time>
      </trkpt>
      <trkpt lat="46.26532" lon="-0.33648">
        <ele>23.4</ele>
        <time>2022-04-03T18:07:10Z</time>
      </trkpt>
      <trkpt lat="46.26535" lon="-0.33641">
        <ele>23.4</ele>
        <time>2022-04-03T18:07:11Z</time>
      </trkpt>
      <trkpt lat="46.26538" lon="-0.33633">
        <ele>23.6</ele>
        <time>2022-04-03T18:07:12Z</time>
      </trkpt>
      <trkpt lat="46.2654" lon="-0.33627">
        <ele>23.4</ele>
        <time>2022-04-03T18:07:13Z</time>
      </trkpt>
      <trkpt lat="46.26543" lon="-0.3362">
        <ele>23.4</ele>
        <time>2022-04-03T18:07:14Z</time>
      </trkpt>
      <trkpt lat="46.26546" lon="-0.33613">
        <ele>23.6</ele>
        <time>2022-04-03T18:07:15Z</time>
      </trkpt>
      <trkpt lat="46.26549" lon="-0.33607">
        <ele>23.6</ele>
        <time>2022-04-03T18:07:16Z</time>
      </trkpt>
      <trkpt lat="46.26552" lon="-0.33601">
        <ele>23.4</ele>
        <time>2022-04-03T18:07:17Z</time>
      </trkpt>
      <trkpt lat="46.26555" lon="-0.33595">
        <ele>23.6</ele>
        <time>2022-04-03T18:07:18Z</time>
      </trkpt>
      <trkpt lat="46.26558" lon="-0.33588">
        <ele>23.4</ele>
        <time>2022-04-03T18:07:19Z</time>
      </trkpt>
      <trkpt lat="46.26561" lon="-0.33582">
        <ele>23.4</ele>
        <time>2022-04-03T18:07:20Z</time>
      </trkpt>
      <trkpt lat="46.26565" lon="-0.33576">
        <ele>23.6</ele>
        <time>2022-04-03T18:07:21Z</time>
      </trkpt>
      <trkpt lat="46.26568" lon="-0.3357">
        <ele>23.2</ele>
        <time>2022-04-03T18:07:22Z</time>
      </trkpt>
      <trkpt lat="46.26572" lon="-0.33564">
        <ele>23.2</ele>
        <time>2022-04-03T18:07:23Z</time>
      </trkpt>
      <trkpt lat="46.26575" lon="-0.33559">
        <ele>23.2</ele>
        <time>2022-04-03T18:07:24Z</time>
      </trkpt>
      <trkpt lat="46.26579" lon="-0.33553">
        <ele>23.2</ele>
        <time>2022-04-03T18:07:25Z</time>
      </trkpt>
      <trkpt lat="46.26582" lon="-0.33548">
        <ele>23.2</ele>
        <time>2022-04-03T18:07:26Z</time>
      </trkpt>
      <trkpt lat="46.26585" lon="-0.33542">
        <ele>23.2</ele>
        <time>2022-04-03T18:07:27Z</time>
      </trkpt>
      <trkpt lat="46.26589" lon="-0.33537">
        <ele>23.2</ele>
        <time>2022-04-03T18:07:28Z</time>
      </trkpt>
      <trkpt lat="46.26592" lon="-0.33532">
        <ele>23.4</ele>
        <time>2022-04-03T18:07:29Z</time>
      </trkpt>
      <trkpt lat="46.26596" lon="-0.33527">
        <ele>23.2</ele>
        <time>2022-04-03T18:07:30Z</time>
      </trkpt>
      <trkpt lat="46.26599" lon="-0.33522">
        <ele>23.2</ele>
        <time>2022-04-03T18:07:31Z</time>
      </trkpt>
      <trkpt lat="46.26602" lon="-0.33517">
        <ele>23.2</ele>
        <time>2022-04-03T18:07:32Z</time>
      </trkpt>
      <trkpt lat="46.26605" lon="-0.33512">
        <ele>23.4</ele>
        <time>2022-04-03T18:07:33Z</time>
      </trkpt>
      <trkpt lat="46.26609" lon="-0.33506">
        <ele>23.6</ele>
        <time>2022-04-03T18:07:34Z</time>
      </trkpt>
      <trkpt lat="46.26612" lon="-0.33501">
        <ele>23.6</ele>
        <time>2022-04-03T18:07:35Z</time>
      </trkpt>
      <trkpt lat="46.26615" lon="-0.33497">
        <ele>23.6</ele>
        <time>2022-04-03T18:07:36Z</time>
      </trkpt>
      <trkpt lat="46.26618" lon="-0.33492">
        <ele>23.8</ele>
        <time>2022-04-03T18:07:37Z</time>
      </trkpt>
      <trkpt lat="46.26621" lon="-0.33486">
        <ele>23.6</ele>
        <time>2022-04-03T18:07:38Z</time>
      </trkpt>
      <trkpt lat="46.26624" lon="-0.33481">
        <ele>23.8</ele>
        <time>2022-04-03T18:07:39Z</time>
      </trkpt>
      <trkpt lat="46.26628" lon="-0.33476">
        <ele>23.8</ele>
        <time>2022-04-03T18:07:40Z</time>
      </trkpt>
      <trkpt lat="46.26631" lon="-0.33471">
        <ele>24</ele>
        <time>2022-04-03T18:07:41Z</time>
      </trkpt>
      <trkpt lat="46.26635" lon="-0.33466">
        <ele>24</ele>
        <time>2022-04-03T18:07:42Z</time>
      </trkpt>
      <trkpt lat="46.26638" lon="-0.33461">
        <ele>24</ele>
        <time>2022-04-03T18:07:43Z</time>
      </trkpt>
      <trkpt lat="46.26641" lon="-0.33456">
        <ele>24.2</ele>
        <time>2022-04-03T18:07:44Z</time>
      </trkpt>
      <trkpt lat="46.26644" lon="-0.33452">
        <ele>24.4</ele>
        <time>2022-04-03T18:07:45Z</time>
      </trkpt>
      <trkpt lat="46.26648" lon="-0.33447">
        <ele>24.6</ele>
        <time>2022-04-03T18:07:46Z</time>
      </trkpt>
      <trkpt lat="46.26651" lon="-0.33443">
        <ele>24.6</ele>
        <time>2022-04-03T18:07:47Z</time>
      </trkpt>
      <trkpt lat="46.26655" lon="-0.33438">
        <ele>24.8</ele>
        <time>2022-04-03T18:07:48Z</time>
      </trkpt>
      <trkpt lat="46.26658" lon="-0.33434">
        <ele>24.8</ele>
        <time>2022-04-03T18:07:49Z</time>
      </trkpt>
      <trkpt lat="46.26662" lon="-0.33431">
        <ele>24.8</ele>
        <time>2022-04-03T18:07:50Z</time>
      </trkpt>
      <trkpt lat="46.26666" lon="-0.33427">
        <ele>24.8</ele>
        <time>2022-04-03T18:07:51Z</time>
      </trkpt>
      <trkpt lat="46.2667" lon="-0.33423">
        <ele>24.8</ele>
        <time>2022-04-03T18:07:52Z</time>
      </trkpt>
      <trkpt lat="46.26674" lon="-0.3342">
        <ele>24.8</ele>
        <time>2022-04-03T18:07:53Z</time>
      </trkpt>
      <trkpt lat="46.26678" lon="-0.33416">
        <ele>24.8</ele>
        <time>2022-04-03T18:07:54Z</time>
      </trkpt>
      <trkpt lat="46.26682" lon="-0.33413">
        <ele>25</ele>
        <time>2022-04-03T18:07:55Z</time>
      </trkpt>
      <trkpt lat="46.26686" lon="-0.33409">
        <ele>25.2</ele>
        <time>2022-04-03T18:07:56Z</time>
      </trkpt>
      <trkpt lat="46.2669" lon="-0.33406">
        <ele>25.2</ele>
        <time>2022-04-03T18:07:57Z</time>
      </trkpt>
      <trkpt lat="46.26694" lon="-0.33402">
        <ele>25.2</ele>
        <time>2022-04-03T18:07:58Z</time>
      </trkpt>
      <trkpt lat="46.26698" lon="-0.33399">
        <ele>25.2</ele>
        <time>2022-04-03T18:07:59Z</time>
      </trkpt>
      <trkpt lat="46.26702" lon="-0.33396">
        <ele>25.4</ele>
        <time>2022-04-03T18:08:00Z</time>
      </trkpt>
      <trkpt lat="46.26706" lon="-0.33392">
        <ele>25.2</ele>
        <time>2022-04-03T18:08:01Z</time>
      </trkpt>
      <trkpt lat="46.2671" lon="-0.33389">
        <ele>25.2</ele>
        <time>2022-04-03T18:08:02Z</time>
      </trkpt>
      <trkpt lat="46.26713" lon="-0.33386">
        <ele>25.4</ele>
        <time>2022-04-03T18:08:03Z</time>
      </trkpt>
      <trkpt lat="46.26717" lon="-0.33383">
        <ele>25.4</ele>
        <time>2022-04-03T18:08:04Z</time>
      </trkpt>
      <trkpt lat="46.26721" lon="-0.33379">
        <ele>25.4</ele>
        <time>2022-04-03T18:08:05Z</time>
      </trkpt>
      <trkpt lat="46.26725" lon="-0.33376">
        <ele>25.4</ele>
        <time>2022-04-03T18:08:06Z</time>
      </trkpt>
      <trkpt lat="46.26728" lon="-0.33373">
        <ele>25.4</ele>
        <time>2022-04-03T18:08:07Z</time>
      </trkpt>
      <trkpt lat="46.26732" lon="-0.3337">
        <ele>25.4</ele>
        <time>2022-04-03T18:08:08Z</time>
      </trkpt>
      <trkpt lat="46.26736" lon="-0.33367">
        <ele>25.4</ele>
        <time>2022-04-03T18:08:09Z</time>
      </trkpt>
      <trkpt lat="46.26739" lon="-0.33363">
        <ele>25.6</ele>
        <time>2022-04-03T18:08:10Z</time>
      </trkpt>
      <trkpt lat="46.26743" lon="-0.3336">
        <ele>25.4</ele>
        <time>2022-04-03T18:08:11Z</time>
      </trkpt>
      <trkpt lat="46.26746" lon="-0.33357">
        <ele>25.6</ele>
        <time>2022-04-03T18:08:12Z</time>
      </trkpt>
      <trkpt lat="46.2675" lon="-0.33354">
        <ele>25.6</ele>
        <time>2022-04-03T18:08:13Z</time>
      </trkpt>
      <trkpt lat="46.26753" lon="-0.33351">
        <ele>25.8</ele>
        <time>2022-04-03T18:08:14Z</time>
      </trkpt>
      <trkpt lat="46.26757" lon="-0.33348">
        <ele>25.8</ele>
        <time>2022-04-03T18:08:15Z</time>
      </trkpt>
      <trkpt lat="46.2676" lon="-0.33344">
        <ele>26</ele>
        <time>2022-04-03T18:08:16Z</time>
      </trkpt>
      <trkpt lat="46.26763" lon="-0.33341">
        <ele>25.8</ele>
        <time>2022-04-03T18:08:17Z</time>
      </trkpt>
      <trkpt lat="46.26767" lon="-0.33338">
        <ele>26.2</ele>
        <time>2022-04-03T18:08:18Z</time>
      </trkpt>
      <trkpt lat="46.2677" lon="-0.33335">
        <ele>26.2</ele>
        <time>2022-04-03T18:08:19Z</time>
      </trkpt>
      <trkpt lat="46.26773" lon="-0.33332">
        <ele>26.6</ele>
        <time>2022-04-03T18:08:20Z</time>
      </trkpt>
      <trkpt lat="46.26777" lon="-0.33329">
        <ele>26.6</ele>
        <time>2022-04-03T18:08:21Z</time>
      </trkpt>
      <trkpt lat="46.2678" lon="-0.33326">
        <ele>26.6</ele>
        <time>2022-04-03T18:08:22Z</time>
      </trkpt>
      <trkpt lat="46.26783" lon="-0.33322">
        <ele>26.6</ele>
        <time>2022-04-03T18:08:23Z</time>
      </trkpt>
      <trkpt lat="46.26786" lon="-0.33319">
        <ele>26.8</ele>
        <time>2022-04-03T18:08:24Z</time>
      </trkpt>
      <trkpt lat="46.2679" lon="-0.33316">
        <ele>26.8</ele>
        <time>2022-04-03T18:08:25Z</time>
      </trkpt>
      <trkpt lat="46.26793" lon="-0.33314">
        <ele>27</ele>
        <time>2022-04-03T18:08:26Z</time>
      </trkpt>
      <trkpt lat="46.26796" lon="-0.3331">
        <ele>27.4</ele>
        <time>2022-04-03T18:08:27Z</time>
      </trkpt>
      <trkpt lat="46.26799" lon="-0.33307">
        <ele>27.6</ele>
        <time>2022-04-03T18:08:28Z</time>
      </trkpt>
      <trkpt lat="46.26803" lon="-0.33304">
        <ele>28</ele>
        <time>2022-04-03T18:08:29Z</time>
      </trkpt>
      <trkpt lat="46.26806" lon="-0.33301">
        <ele>28</ele>
        <time>2022-04-03T18:08:30Z</time>
      </trkpt>
      <trkpt lat="46.26809" lon="-0.33298">
        <ele>28.2</ele>
        <time>2022-04-03T18:08:31Z</time>
      </trkpt>
      <trkpt lat="46.26812" lon="-0.33295">
        <ele>28.4</ele>
        <time>2022-04-03T18:08:32Z</time>
      </trkpt>
      <trkpt lat="46.26816" lon="-0.33292">
        <ele>28.4</ele>
        <time>2022-04-03T18:08:33Z</time>
      </trkpt>
      <trkpt lat="46.26819" lon="-0.33289">
        <ele>28.8</ele>
        <time>2022-04-03T18:08:34Z</time>
      </trkpt>
      <trkpt lat="46.26822" lon="-0.33285">
        <ele>28.8</ele>
        <time>2022-04-03T18:08:35Z</time>
      </trkpt>
      <trkpt lat="46.26825" lon="-0.33282">
        <ele>29</ele>
        <time>2022-04-03T18:08:36Z</time>
      </trkpt>
      <trkpt lat="46.26829" lon="-0.33279">
        <ele>29</ele>
        <time>2022-04-03T18:08:37Z</time>
      </trkpt>
      <trkpt lat="46.26832" lon="-0.33276">
        <ele>29.4</ele>
        <time>2022-04-03T18:08:38Z</time>
      </trkpt>
      <trkpt lat="46.26835" lon="-0.33273">
        <ele>29.4</ele>
        <time>2022-04-03T18:08:39Z</time>
      </trkpt>
      <trkpt lat="46.26839" lon="-0.3327">
        <ele>29.4</ele>
        <time>2022-04-03T18:08:40Z</time>
      </trkpt>
      <trkpt lat="46.26842" lon="-0.33267">
        <ele>29.6</ele>
        <time>2022-04-03T18:08:41Z</time>
      </trkpt>
      <trkpt lat="46.26845" lon="-0.33263">
        <ele>29.8</ele>
        <time>2022-04-03T18:08:42Z</time>
      </trkpt>
      <trkpt lat="46.26849" lon="-0.3326">
        <ele>29.8</ele>
        <time>2022-04-03T18:08:43Z</time>
      </trkpt>
      <trkpt lat="46.26852" lon="-0.33257">
        <ele>29.6</ele>
        <time>2022-04-03T18:08:44Z</time>
      </trkpt>
      <trkpt lat="46.26855" lon="-0.33253">
        <ele>29.8</ele>
        <time>2022-04-03T18:08:45Z</time>
      </trkpt>
      <trkpt lat="46.26858" lon="-0.3325">
        <ele>29.8</ele>
        <time>2022-04-03T18:08:46Z</time>
      </trkpt>
      <trkpt lat="46.26861" lon="-0.33246">
        <ele>29.8</ele>
        <time>2022-04-03T18:08:47Z</time>
      </trkpt>
      <trkpt lat="46.26864" lon="-0.33242">
        <ele>29.8</ele>
        <time>2022-04-03T18:08:48Z</time>
      </trkpt>
      <trkpt lat="46.26867" lon="-0.33237">
        <ele>30</ele>
        <time>2022-04-03T18:08:49Z</time>
      </trkpt>
      <trkpt lat="46.2687" lon="-0.33233">
        <ele>30</ele>
        <time>2022-04-03T18:08:50Z</time>
      </trkpt>
      <trkpt lat="46.26873" lon="-0.33228">
        <ele>30.2</ele>
        <time>2022-04-03T18:08:51Z</time>
      </trkpt>
      <trkpt lat="46.26876" lon="-0.33223">
        <ele>30.2</ele>
        <time>2022-04-03T18:08:52Z</time>
      </trkpt>
      <trkpt lat="46.26878" lon="-0.33218">
        <ele>30.2</ele>
        <time>2022-04-03T18:08:53Z</time>
      </trkpt>
      <trkpt lat="46.2688" lon="-0.33213">
        <ele>30.2</ele>
        <time>2022-04-03T18:08:54Z</time>
      </trkpt>
      <trkpt lat="46.26883" lon="-0.33208">
        <ele>30.2</ele>
        <time>2022-04-03T18:08:55Z</time>
      </trkpt>
      <trkpt lat="46.26885" lon="-0.33203">
        <ele>30.4</ele>
        <time>2022-04-03T18:08:56Z</time>
      </trkpt>
      <trkpt lat="46.26886" lon="-0.33198">
        <ele>30.4</ele>
        <time>2022-04-03T18:08:57Z</time>
      </trkpt>
      <trkpt lat="46.26888" lon="-0.33193">
        <ele>30.4</ele>
        <time>2022-04-03T18:08:58Z</time>
      </trkpt>
      <trkpt lat="46.2689" lon="-0.33187">
        <ele>30.6</ele>
        <time>2022-04-03T18:08:59Z</time>
      </trkpt>
      <trkpt lat="46.26891" lon="-0.33182">
        <ele>30.6</ele>
        <time>2022-04-03T18:09:00Z</time>
      </trkpt>
      <trkpt lat="46.26893" lon="-0.33177">
        <ele>30.6</ele>
        <time>2022-04-03T18:09:01Z</time>
      </trkpt>
      <trkpt lat="46.26895" lon="-0.33171">
        <ele>30.8</ele>
        <time>2022-04-03T18:09:02Z</time>
      </trkpt>
      <trkpt lat="46.26896" lon="-0.33166">
        <ele>31</ele>
        <time>2022-04-03T18:09:03Z</time>
      </trkpt>
      <trkpt lat="46.26898" lon="-0.3316">
        <ele>30.8</ele>
        <time>2022-04-03T18:09:04Z</time>
      </trkpt>
      <trkpt lat="46.269" lon="-0.33155">
        <ele>31.2</ele>
        <time>2022-04-03T18:09:05Z</time>
      </trkpt>
      <trkpt lat="46.26901" lon="-0.33149">
        <ele>31.4</ele>
        <time>2022-04-03T18:09:06Z</time>
      </trkpt>
      <trkpt lat="46.26903" lon="-0.33144">
        <ele>31.6</ele>
        <time>2022-04-03T18:09:07Z</time>
      </trkpt>
      <trkpt lat="46.26904" lon="-0.3314">
        <ele>31.6</ele>
        <time>2022-04-03T18:09:08Z</time>
      </trkpt>
      <trkpt lat="46.26906" lon="-0.33135">
        <ele>31.8</ele>
        <time>2022-04-03T18:09:09Z</time>
      </trkpt>
      <trkpt lat="46.26907" lon="-0.33132">
        <ele>31.8</ele>
        <time>2022-04-03T18:09:10Z</time>
      </trkpt>
      <trkpt lat="46.26909" lon="-0.33128">
        <ele>31.8</ele>
        <time>2022-04-03T18:09:11Z</time>
      </trkpt>
      <trkpt lat="46.2691" lon="-0.33124">
        <ele>32</ele>
        <time>2022-04-03T18:09:12Z</time>
      </trkpt>
      <trkpt lat="46.26911" lon="-0.33121">
        <ele>32</ele>
        <time>2022-04-03T18:09:13Z</time>
      </trkpt>
      <trkpt lat="46.26913" lon="-0.33117">
        <ele>31.8</ele>
        <time>2022-04-03T18:09:14Z</time>
      </trkpt>
      <trkpt lat="46.26914" lon="-0.33113">
        <ele>32</ele>
        <time>2022-04-03T18:09:15Z</time>
      </trkpt>
      <trkpt lat="46.26916" lon="-0.33109">
        <ele>32</ele>
        <time>2022-04-03T18:09:16Z</time>
      </trkpt>
      <trkpt lat="46.26918" lon="-0.33105">
        <ele>32</ele>
        <time>2022-04-03T18:09:17Z</time>
      </trkpt>
      <trkpt lat="46.2692" lon="-0.331">
        <ele>32.2</ele>
        <time>2022-04-03T18:09:18Z</time>
      </trkpt>
      <trkpt lat="46.26922" lon="-0.33095">
        <ele>32.2</ele>
        <time>2022-04-03T18:09:19Z</time>
      </trkpt>
      <trkpt lat="46.26924" lon="-0.33091">
        <ele>32.2</ele>
        <time>2022-04-03T18:09:20Z</time>
      </trkpt>
      <trkpt lat="46.26927" lon="-0.33086">
        <ele>32.4</ele>
        <time>2022-04-03T18:09:21Z</time>
      </trkpt>
      <trkpt lat="46.26929" lon="-0.33082">
        <ele>32.6</ele>
        <time>2022-04-03T18:09:22Z</time>
      </trkpt>
      <trkpt lat="46.26931" lon="-0.33077">
        <ele>32.6</ele>
        <time>2022-04-03T18:09:23Z</time>
      </trkpt>
      <trkpt lat="46.26934" lon="-0.33072">
        <ele>32.6</ele>
        <time>2022-04-03T18:09:24Z</time>
      </trkpt>
      <trkpt lat="46.26936" lon="-0.33068">
        <ele>32.8</ele>
        <time>2022-04-03T18:09:25Z</time>
      </trkpt>
      <trkpt lat="46.26939" lon="-0.33063">
        <ele>32.8</ele>
        <time>2022-04-03T18:09:26Z</time>
      </trkpt>
      <trkpt lat="46.26942" lon="-0.33059">
        <ele>32.8</ele>
        <time>2022-04-03T18:09:27Z</time>
      </trkpt>
      <trkpt lat="46.26945" lon="-0.33054">
        <ele>33</ele>
        <time>2022-04-03T18:09:28Z</time>
      </trkpt>
      <trkpt lat="46.26947" lon="-0.3305">
        <ele>33</ele>
        <time>2022-04-03T18:09:29Z</time>
      </trkpt>
      <trkpt lat="46.2695" lon="-0.33045">
        <ele>33</ele>
        <time>2022-04-03T18:09:30Z</time>
      </trkpt>
      <trkpt lat="46.26952" lon="-0.33041">
        <ele>33</ele>
        <time>2022-04-03T18:09:31Z</time>
      </trkpt>
      <trkpt lat="46.26955" lon="-0.33037">
        <ele>33</ele>
        <time>2022-04-03T18:09:32Z</time>
      </trkpt>
      <trkpt lat="46.26957" lon="-0.33032">
        <ele>33</ele>
        <time>2022-04-03T18:09:33Z</time>
      </trkpt>
      <trkpt lat="46.2696" lon="-0.33027">
        <ele>33</ele>
        <time>2022-04-03T18:09:34Z</time>
      </trkpt>
      <trkpt lat="46.26962" lon="-0.33023">
        <ele>33</ele>
        <time>2022-04-03T18:09:35Z</time>
      </trkpt>
      <trkpt lat="46.26964" lon="-0.33018">
        <ele>33</ele>
        <time>2022-04-03T18:09:36Z</time>
      </trkpt>
      <trkpt lat="46.26967" lon="-0.33013">
        <ele>33</ele>
        <time>2022-04-03T18:09:37Z</time>
      </trkpt>
      <trkpt lat="46.26969" lon="-0.33008">
        <ele>33</ele>
        <time>2022-04-03T18:09:38Z</time>
      </trkpt>
      <trkpt lat="46.26971" lon="-0.33003">
        <ele>33.2</ele>
        <time>2022-04-03T18:09:39Z</time>
      </trkpt>
      <trkpt lat="46.26974" lon="-0.32997">
        <ele>33.2</ele>
        <time>2022-04-03T18:09:40Z</time>
      </trkpt>
      <trkpt lat="46.26976" lon="-0.32992">
        <ele>33.2</ele>
        <time>2022-04-03T18:09:41Z</time>
      </trkpt>
      <trkpt lat="46.26978" lon="-0.32987">
        <ele>33.2</ele>
        <time>2022-04-03T18:09:42Z</time>
      </trkpt>
      <trkpt lat="46.2698" lon="-0.32981">
        <ele>33.2</ele>
        <time>2022-04-03T18:09:43Z</time>
      </trkpt>
      <trkpt lat="46.26983" lon="-0.32975">
        <ele>33.4</ele>
        <time>2022-04-03T18:09:44Z</time>
      </trkpt>
      <trkpt lat="46.26985" lon="-0.3297">
        <ele>33.4</ele>
        <time>2022-04-03T18:09:45Z</time>
      </trkpt>
      <trkpt lat="46.26987" lon="-0.32964">
        <ele>33.4</ele>
        <time>2022-04-03T18:09:46Z</time>
      </trkpt>
      <trkpt lat="46.26989" lon="-0.32958">
        <ele>33.4</ele>
        <time>2022-04-03T18:09:47Z</time>
      </trkpt>
      <trkpt lat="46.2699" lon="-0.32952">
        <ele>33.6</ele>
        <time>2022-04-03T18:09:48Z</time>
      </trkpt>
      <trkpt lat="46.26992" lon="-0.32945">
        <ele>33.6</ele>
        <time>2022-04-03T18:09:49Z</time>
      </trkpt>
      <trkpt lat="46.26993" lon="-0.32939">
        <ele>33.6</ele>
        <time>2022-04-03T18:09:50Z</time>
      </trkpt>
      <trkpt lat="46.26995" lon="-0.32933">
        <ele>33.6</ele>
        <time>2022-04-03T18:09:51Z</time>
      </trkpt>
      <trkpt lat="46.26996" lon="-0.32926">
        <ele>33.6</ele>
        <time>2022-04-03T18:09:52Z</time>
      </trkpt>
      <trkpt lat="46.26997" lon="-0.32919">
        <ele>33.6</ele>
        <time>2022-04-03T18:09:53Z</time>
      </trkpt>
      <trkpt lat="46.26997" lon="-0.32912">
        <ele>33.8</ele>
        <time>2022-04-03T18:09:54Z</time>
      </trkpt>
      <trkpt lat="46.26998" lon="-0.32906">
        <ele>33.8</ele>
        <time>2022-04-03T18:09:55Z</time>
      </trkpt>
      <trkpt lat="46.26999" lon="-0.32899">
        <ele>33.8</ele>
        <time>2022-04-03T18:09:56Z</time>
      </trkpt>
      <trkpt lat="46.26999" lon="-0.32892">
        <ele>33.8</ele>
        <time>2022-04-03T18:09:57Z</time>
      </trkpt>
      <trkpt lat="46.26999" lon="-0.32886">
        <ele>33.8</ele>
        <time>2022-04-03T18:09:58Z</time>
      </trkpt>
      <trkpt lat="46.26999" lon="-0.32879">
        <ele>34</ele>
        <time>2022-04-03T18:09:59Z</time>
      </trkpt>
      <trkpt lat="46.27" lon="-0.32873">
        <ele>34</ele>
        <time>2022-04-03T18:10:00Z</time>
      </trkpt>
      <trkpt lat="46.27" lon="-0.32867">
        <ele>34.2</ele>
        <time>2022-04-03T18:10:01Z</time>
      </trkpt>
      <trkpt lat="46.27" lon="-0.3286">
        <ele>34.2</ele>
        <time>2022-04-03T18:10:02Z</time>
      </trkpt>
      <trkpt lat="46.27001" lon="-0.32854">
        <ele>34.2</ele>
        <time>2022-04-03T18:10:03Z</time>
      </trkpt>
      <trkpt lat="46.27001" lon="-0.32847">
        <ele>34.2</ele>
        <time>2022-04-03T18:10:04Z</time>
      </trkpt>
      <trkpt lat="46.27001" lon="-0.32841">
        <ele>34.2</ele>
        <time>2022-04-03T18:10:05Z</time>
      </trkpt>
      <trkpt lat="46.27002" lon="-0.32834">
        <ele>34.2</ele>
        <time>2022-04-03T18:10:06Z</time>
      </trkpt>
      <trkpt lat="46.27002" lon="-0.32828">
        <ele>34.4</ele>
        <time>2022-04-03T18:10:07Z</time>
      </trkpt>
      <trkpt lat="46.27003" lon="-0.32821">
        <ele>34.2</ele>
        <time>2022-04-03T18:10:08Z</time>
      </trkpt>
      <trkpt lat="46.27004" lon="-0.32815">
        <ele>34.4</ele>
        <time>2022-04-03T18:10:09Z</time>
      </trkpt>
      <trkpt lat="46.27005" lon="-0.32808">
        <ele>34.4</ele>
        <time>2022-04-03T18:10:10Z</time>
      </trkpt>
      <trkpt lat="46.27006" lon="-0.32802">
        <ele>34.4</ele>
        <time>2022-04-03T18:10:11Z</time>
      </trkpt>
      <trkpt lat="46.27007" lon="-0.32795">
        <ele>34.6</ele>
        <time>2022-04-03T18:10:12Z</time>
      </trkpt>
      <trkpt lat="46.27009" lon="-0.32789">
        <ele>34.6</ele>
        <time>2022-04-03T18:10:13Z</time>
      </trkpt>
      <trkpt lat="46.2701" lon="-0.32783">
        <ele>34.6</ele>
        <time>2022-04-03T18:10:14Z</time>
      </trkpt>
      <trkpt lat="46.27011" lon="-0.32777">
        <ele>34.6</ele>
        <time>2022-04-03T18:10:15Z</time>
      </trkpt>
      <trkpt lat="46.27013" lon="-0.32771">
        <ele>34.6</ele>
        <time>2022-04-03T18:10:16Z</time>
      </trkpt>
      <trkpt lat="46.27014" lon="-0.32765">
        <ele>34.8</ele>
        <time>2022-04-03T18:10:17Z</time>
      </trkpt>
      <trkpt lat="46.27016" lon="-0.32759">
        <ele>34.8</ele>
        <time>2022-04-03T18:10:18Z</time>
      </trkpt>
      <trkpt lat="46.27018" lon="-0.32753">
        <ele>34.8</ele>
        <time>2022-04-03T18:10:19Z</time>
      </trkpt>
      <trkpt lat="46.2702" lon="-0.32747">
        <ele>35</ele>
        <time>2022-04-03T18:10:20Z</time>
      </trkpt>
      <trkpt lat="46.27022" lon="-0.32741">
        <ele>35</ele>
        <time>2022-04-03T18:10:21Z</time>
      </trkpt>
      <trkpt lat="46.27024" lon="-0.32735">
        <ele>35.2</ele>
        <time>2022-04-03T18:10:22Z</time>
      </trkpt>
      <trkpt lat="46.27026" lon="-0.3273">
        <ele>35.2</ele>
        <time>2022-04-03T18:10:23Z</time>
      </trkpt>
      <trkpt lat="46.27028" lon="-0.32725">
        <ele>35.2</ele>
        <time>2022-04-03T18:10:24Z</time>
      </trkpt>
      <trkpt lat="46.2703" lon="-0.32719">
        <ele>35.4</ele>
        <time>2022-04-03T18:10:25Z</time>
      </trkpt>
      <trkpt lat="46.27032" lon="-0.32714">
        <ele>35.4</ele>
        <time>2022-04-03T18:10:26Z</time>
      </trkpt>
      <trkpt lat="46.27035" lon="-0.32709">
        <ele>35.4</ele>
        <time>2022-04-03T18:10:27Z</time>
      </trkpt>
      <trkpt lat="46.27037" lon="-0.32703">
        <ele>35.4</ele>
        <time>2022-04-03T18:10:28Z</time>
      </trkpt>
      <trkpt lat="46.27039" lon="-0.32698">
        <ele>35.4</ele>
        <time>2022-04-03T18:10:29Z</time>
      </trkpt>
      <trkpt lat="46.27042" lon="-0.32693">
        <ele>35.4</ele>
        <time>2022-04-03T18:10:30Z</time>
      </trkpt>
      <trkpt lat="46.27044" lon="-0.32687">
        <ele>35.4</ele>
        <time>2022-04-03T18:10:31Z</time>
      </trkpt>
      <trkpt lat="46.27046" lon="-0.32682">
        <ele>35.4</ele>
        <time>2022-04-03T18:10:32Z</time>
      </trkpt>
      <trkpt lat="46.27048" lon="-0.32677">
        <ele>35.6</ele>
        <time>2022-04-03T18:10:33Z</time>
      </trkpt>
      <trkpt lat="46.27051" lon="-0.32672">
        <ele>35.6</ele>
        <time>2022-04-03T18:10:34Z</time>
      </trkpt>
      <trkpt lat="46.27053" lon="-0.32667">
        <ele>35.6</ele>
        <time>2022-04-03T18:10:35Z</time>
      </trkpt>
      <trkpt lat="46.27056" lon="-0.32661">
        <ele>35.6</ele>
        <time>2022-04-03T18:10:36Z</time>
      </trkpt>
      <trkpt lat="46.27058" lon="-0.32656">
        <ele>35.8</ele>
        <time>2022-04-03T18:10:37Z</time>
      </trkpt>
      <trkpt lat="46.2706" lon="-0.32651">
        <ele>35.8</ele>
        <time>2022-04-03T18:10:38Z</time>
      </trkpt>
      <trkpt lat="46.27063" lon="-0.32646">
        <ele>35.6</ele>
        <time>2022-04-03T18:10:39Z</time>
      </trkpt>
      <trkpt lat="46.27065" lon="-0.32641">
        <ele>36</ele>
        <time>2022-04-03T18:10:40Z</time>
      </trkpt>
      <trkpt lat="46.27068" lon="-0.32637">
        <ele>36</ele>
        <time>2022-04-03T18:10:41Z</time>
      </trkpt>
      <trkpt lat="46.2707" lon="-0.32632">
        <ele>35.8</ele>
        <time>2022-04-03T18:10:42Z</time>
      </trkpt>
      <trkpt lat="46.27072" lon="-0.32627">
        <ele>36</ele>
        <time>2022-04-03T18:10:43Z</time>
      </trkpt>
      <trkpt lat="46.27075" lon="-0.32622">
        <ele>36</ele>
        <time>2022-04-03T18:10:44Z</time>
      </trkpt>
      <trkpt lat="46.27077" lon="-0.32617">
        <ele>36.2</ele>
        <time>2022-04-03T18:10:45Z</time>
      </trkpt>
      <trkpt lat="46.2708" lon="-0.32613">
        <ele>36.2</ele>
        <time>2022-04-03T18:10:46Z</time>
      </trkpt>
      <trkpt lat="46.27082" lon="-0.32608">
        <ele>36.2</ele>
        <time>2022-04-03T18:10:47Z</time>
      </trkpt>
      <trkpt lat="46.27084" lon="-0.32603">
        <ele>36.2</ele>
        <time>2022-04-03T18:10:48Z</time>
      </trkpt>
      <trkpt lat="46.27087" lon="-0.32598">
        <ele>36.4</ele>
        <time>2022-04-03T18:10:49Z</time>
      </trkpt>
      <trkpt lat="46.27089" lon="-0.32593">
        <ele>36.4</ele>
        <time>2022-04-03T18:10:50Z</time>
      </trkpt>
      <trkpt lat="46.27092" lon="-0.32589">
        <ele>36.4</ele>
        <time>2022-04-03T18:10:51Z</time>
      </trkpt>
      <trkpt lat="46.27094" lon="-0.32584">
        <ele>36.4</ele>
        <time>2022-04-03T18:10:52Z</time>
      </trkpt>
      <trkpt lat="46.27097" lon="-0.3258">
        <ele>36.4</ele>
        <time>2022-04-03T18:10:53Z</time>
      </trkpt>
      <trkpt lat="46.271" lon="-0.32575">
        <ele>36.4</ele>
        <time>2022-04-03T18:10:54Z</time>
      </trkpt>
      <trkpt lat="46.27102" lon="-0.3257">
        <ele>36.4</ele>
        <time>2022-04-03T18:10:55Z</time>
      </trkpt>
      <trkpt lat="46.27104" lon="-0.32565">
        <ele>36.6</ele>
        <time>2022-04-03T18:10:56Z</time>
      </trkpt>
      <trkpt lat="46.27107" lon="-0.3256">
        <ele>36.6</ele>
        <time>2022-04-03T18:10:57Z</time>
      </trkpt>
      <trkpt lat="46.27109" lon="-0.32556">
        <ele>36.8</ele>
        <time>2022-04-03T18:10:58Z</time>
      </trkpt>
      <trkpt lat="46.27112" lon="-0.32551">
        <ele>37</ele>
        <time>2022-04-03T18:10:59Z</time>
      </trkpt>
      <trkpt lat="46.27114" lon="-0.32546">
        <ele>36.8</ele>
        <time>2022-04-03T18:11:00Z</time>
      </trkpt>
      <trkpt lat="46.27117" lon="-0.32541">
        <ele>37</ele>
        <time>2022-04-03T18:11:01Z</time>
      </trkpt>
      <trkpt lat="46.2712" lon="-0.32537">
        <ele>37</ele>
        <time>2022-04-03T18:11:02Z</time>
      </trkpt>
      <trkpt lat="46.27123" lon="-0.32532">
        <ele>37.2</ele>
        <time>2022-04-03T18:11:03Z</time>
      </trkpt>
      <trkpt lat="46.27125" lon="-0.32527">
        <ele>37.2</ele>
        <time>2022-04-03T18:11:04Z</time>
      </trkpt>
      <trkpt lat="46.27128" lon="-0.32522">
        <ele>37.4</ele>
        <time>2022-04-03T18:11:05Z</time>
      </trkpt>
      <trkpt lat="46.27131" lon="-0.32517">
        <ele>37.4</ele>
        <time>2022-04-03T18:11:06Z</time>
      </trkpt>
      <trkpt lat="46.27133" lon="-0.32513">
        <ele>37.4</ele>
        <time>2022-04-03T18:11:07Z</time>
      </trkpt>
      <trkpt lat="46.27136" lon="-0.32508">
        <ele>37.6</ele>
        <time>2022-04-03T18:11:08Z</time>
      </trkpt>
      <trkpt lat="46.27139" lon="-0.32504">
        <ele>37.6</ele>
        <time>2022-04-03T18:11:09Z</time>
      </trkpt>
      <trkpt lat="46.27142" lon="-0.32499">
        <ele>37.6</ele>
        <time>2022-04-03T18:11:10Z</time>
      </trkpt>
      <trkpt lat="46.27144" lon="-0.32494">
        <ele>37.8</ele>
        <time>2022-04-03T18:11:11Z</time>
      </trkpt>
      <trkpt lat="46.27146" lon="-0.32489">
        <ele>37.8</ele>
        <time>2022-04-03T18:11:12Z</time>
      </trkpt>
      <trkpt lat="46.27149" lon="-0.32484">
        <ele>38</ele>
        <time>2022-04-03T18:11:13Z</time>
      </trkpt>
      <trkpt lat="46.27152" lon="-0.3248">
        <ele>37.8</ele>
        <time>2022-04-03T18:11:14Z</time>
      </trkpt>
      <trkpt lat="46.27154" lon="-0.32475">
        <ele>38</ele>
        <time>2022-04-03T18:11:15Z</time>
      </trkpt>
      <trkpt lat="46.27157" lon="-0.32471">
        <ele>38</ele>
        <time>2022-04-03T18:11:16Z</time>
      </trkpt>
      <trkpt lat="46.27159" lon="-0.32466">
        <ele>37.8</ele>
        <time>2022-04-03T18:11:17Z</time>
      </trkpt>
      <trkpt lat="46.27162" lon="-0.32461">
        <ele>38</ele>
        <time>2022-04-03T18:11:18Z</time>
      </trkpt>
      <trkpt lat="46.27165" lon="-0.32456">
        <ele>38.2</ele>
        <time>2022-04-03T18:11:19Z</time>
      </trkpt>
      <trkpt lat="46.27167" lon="-0.32452">
        <ele>38</ele>
        <time>2022-04-03T18:11:20Z</time>
      </trkpt>
      <trkpt lat="46.2717" lon="-0.32447">
        <ele>38</ele>
        <time>2022-04-03T18:11:21Z</time>
      </trkpt>
      <trkpt lat="46.27172" lon="-0.32442">
        <ele>38.2</ele>
        <time>2022-04-03T18:11:22Z</time>
      </trkpt>
      <trkpt lat="46.27175" lon="-0.32437">
        <ele>38.2</ele>
        <time>2022-04-03T18:11:23Z</time>
      </trkpt>
      <trkpt lat="46.27178" lon="-0.32433">
        <ele>38.4</ele>
        <time>2022-04-03T18:11:24Z</time>
      </trkpt>
      <trkpt lat="46.27181" lon="-0.32428">
        <ele>38.2</ele>
        <time>2022-04-03T18:11:25Z</time>
      </trkpt>
      <trkpt lat="46.27183" lon="-0.32423">
        <ele>38.4</ele>
        <time>2022-04-03T18:11:26Z</time>
      </trkpt>
      <trkpt lat="46.27186" lon="-0.32418">
        <ele>38.4</ele>
        <time>2022-04-03T18:11:27Z</time>
      </trkpt>
      <trkpt lat="46.27189" lon="-0.32413">
        <ele>38.4</ele>
        <time>2022-04-03T18:11:28Z</time>
      </trkpt>
      <trkpt lat="46.27192" lon="-0.32409">
        <ele>38.6</ele>
        <time>2022-04-03T18:11:29Z</time>
      </trkpt>
      <trkpt lat="46.27195" lon="-0.32404">
        <ele>38.6</ele>
        <time>2022-04-03T18:11:30Z</time>
      </trkpt>
      <trkpt lat="46.27197" lon="-0.32399">
        <ele>38.6</ele>
        <time>2022-04-03T18:11:31Z</time>
      </trkpt>
      <trkpt lat="46.272" lon="-0.32395">
        <ele>38.6</ele>
        <time>2022-04-03T18:11:32Z</time>
      </trkpt>
      <trkpt lat="46.27203" lon="-0.3239">
        <ele>38.6</ele>
        <time>2022-04-03T18:11:33Z</time>
      </trkpt>
      <trkpt lat="46.27206" lon="-0.32385">
        <ele>38.6</ele>
        <time>2022-04-03T18:11:34Z</time>
      </trkpt>
      <trkpt lat="46.27209" lon="-0.32381">
        <ele>38.8</ele>
        <time>2022-04-03T18:11:35Z</time>
      </trkpt>
      <trkpt lat="46.27212" lon="-0.32376">
        <ele>38.8</ele>
        <time>2022-04-03T18:11:36Z</time>
      </trkpt>
      <trkpt lat="46.27215" lon="-0.32372">
        <ele>39</ele>
        <time>2022-04-03T18:11:37Z</time>
      </trkpt>
      <trkpt lat="46.27218" lon="-0.32367">
        <ele>38.8</ele>
        <time>2022-04-03T18:11:38Z</time>
      </trkpt>
      <trkpt lat="46.2722" lon="-0.32363">
        <ele>39</ele>
        <time>2022-04-03T18:11:39Z</time>
      </trkpt>
      <trkpt lat="46.27223" lon="-0.32358">
        <ele>38.8</ele>
        <time>2022-04-03T18:11:40Z</time>
      </trkpt>
      <trkpt lat="46.27226" lon="-0.32354">
        <ele>39</ele>
        <time>2022-04-03T18:11:41Z</time>
      </trkpt>
      <trkpt lat="46.27229" lon="-0.3235">
        <ele>39</ele>
        <time>2022-04-03T18:11:42Z</time>
      </trkpt>
      <trkpt lat="46.27232" lon="-0.32346">
        <ele>39</ele>
        <time>2022-04-03T18:11:43Z</time>
      </trkpt>
      <trkpt lat="46.27234" lon="-0.32343">
        <ele>39</ele>
        <time>2022-04-03T18:11:44Z</time>
      </trkpt>
      <trkpt lat="46.27237" lon="-0.3234">
        <ele>39.2</ele>
        <time>2022-04-03T18:11:45Z</time>
      </trkpt>
      <trkpt lat="46.27239" lon="-0.32337">
        <ele>39.4</ele>
        <time>2022-04-03T18:11:46Z</time>
      </trkpt>
      <trkpt lat="46.27241" lon="-0.32334">
        <ele>39.4</ele>
        <time>2022-04-03T18:11:47Z</time>
      </trkpt>
      <trkpt lat="46.27243" lon="-0.32332">
        <ele>39.6</ele>
        <time>2022-04-03T18:11:48Z</time>
      </trkpt>
      <trkpt lat="46.27245" lon="-0.3233">
        <ele>39.6</ele>
        <time>2022-04-03T18:11:49Z</time>
      </trkpt>
      <trkpt lat="46.27247" lon="-0.32328">
        <ele>39.6</ele>
        <time>2022-04-03T18:11:50Z</time>
      </trkpt>
      <trkpt lat="46.27249" lon="-0.32325">
        <ele>39.6</ele>
        <time>2022-04-03T18:11:51Z</time>
      </trkpt>
      <trkpt lat="46.27251" lon="-0.32323">
        <ele>40</ele>
        <time>2022-04-03T18:11:52Z</time>
      </trkpt>
      <trkpt lat="46.27252" lon="-0.3232">
        <ele>40</ele>
        <time>2022-04-03T18:11:53Z</time>
      </trkpt>
      <trkpt lat="46.27255" lon="-0.32317">
        <ele>40.2</ele>
        <time>2022-04-03T18:11:54Z</time>
      </trkpt>
      <trkpt lat="46.27257" lon="-0.32314">
        <ele>40.2</ele>
        <time>2022-04-03T18:11:55Z</time>
      </trkpt>
      <trkpt lat="46.27259" lon="-0.32311">
        <ele>40.2</ele>
        <time>2022-04-03T18:11:56Z</time>
      </trkpt>
      <trkpt lat="46.27262" lon="-0.32308">
        <ele>40.4</ele>
        <time>2022-04-03T18:11:57Z</time>
      </trkpt>
      <trkpt lat="46.27265" lon="-0.32305">
        <ele>40.2</ele>
        <time>2022-04-03T18:11:58Z</time>
      </trkpt>
      <trkpt lat="46.27268" lon="-0.32302">
        <ele>40.2</ele>
        <time>2022-04-03T18:11:59Z</time>
      </trkpt>
      <trkpt lat="46.2727" lon="-0.32299">
        <ele>40.2</ele>
        <time>2022-04-03T18:12:00Z</time>
      </trkpt>
      <trkpt lat="46.27273" lon="-0.32295">
        <ele>40.4</ele>
        <time>2022-04-03T18:12:01Z</time>
      </trkpt>
      <trkpt lat="46.27276" lon="-0.32291">
        <ele>40.4</ele>
        <time>2022-04-03T18:12:02Z</time>
      </trkpt>
      <trkpt lat="46.2728" lon="-0.32288">
        <ele>40.2</ele>
        <time>2022-04-03T18:12:03Z</time>
      </trkpt>
      <trkpt lat="46.27283" lon="-0.32285">
        <ele>40.2</ele>
        <time>2022-04-03T18:12:04Z</time>
      </trkpt>
      <trkpt lat="46.27286" lon="-0.32281">
        <ele>40.4</ele>
        <time>2022-04-03T18:12:05Z</time>
      </trkpt>
      <trkpt lat="46.27289" lon="-0.32277">
        <ele>40.2</ele>
        <time>2022-04-03T18:12:06Z</time>
      </trkpt>
      <trkpt lat="46.27293" lon="-0.32274">
        <ele>40.2</ele>
        <time>2022-04-03T18:12:07Z</time>
      </trkpt>
      <trkpt lat="46.27296" lon="-0.3227">
        <ele>40.2</ele>
        <time>2022-04-03T18:12:08Z</time>
      </trkpt>
      <trkpt lat="46.27299" lon="-0.32267">
        <ele>40.2</ele>
        <time>2022-04-03T18:12:09Z</time>
      </trkpt>
      <trkpt lat="46.27302" lon="-0.32263">
        <ele>40.2</ele>
        <time>2022-04-03T18:12:10Z</time>
      </trkpt>
      <trkpt lat="46.27306" lon="-0.32259">
        <ele>40.2</ele>
        <time>2022-04-03T18:12:11Z</time>
      </trkpt>
      <trkpt lat="46.27309" lon="-0.32255">
        <ele>40.2</ele>
        <time>2022-04-03T18:12:12Z</time>
      </trkpt>
      <trkpt lat="46.27312" lon="-0.32251">
        <ele>40</ele>
        <time>2022-04-03T18:12:13Z</time>
      </trkpt>
      <trkpt lat="46.27316" lon="-0.32248">
        <ele>40.2</ele>
        <time>2022-04-03T18:12:14Z</time>
      </trkpt>
      <trkpt lat="46.27319" lon="-0.32244">
        <ele>40.2</ele>
        <time>2022-04-03T18:12:15Z</time>
      </trkpt>
      <trkpt lat="46.27322" lon="-0.3224">
        <ele>40.2</ele>
        <time>2022-04-03T18:12:16Z</time>
      </trkpt>
      <trkpt lat="46.27326" lon="-0.32236">
        <ele>40.2</ele>
        <time>2022-04-03T18:12:17Z</time>
      </trkpt>
      <trkpt lat="46.27329" lon="-0.32232">
        <ele>40.2</ele>
        <time>2022-04-03T18:12:18Z</time>
      </trkpt>
      <trkpt lat="46.27332" lon="-0.32229">
        <ele>40</ele>
        <time>2022-04-03T18:12:19Z</time>
      </trkpt>
      <trkpt lat="46.27336" lon="-0.32225">
        <ele>40.2</ele>
        <time>2022-04-03T18:12:20Z</time>
      </trkpt>
      <trkpt lat="46.27339" lon="-0.32222">
        <ele>40.2</ele>
        <time>2022-04-03T18:12:21Z</time>
      </trkpt>
      <trkpt lat="46.27342" lon="-0.32218">
        <ele>40</ele>
        <time>2022-04-03T18:12:22Z</time>
      </trkpt>
      <trkpt lat="46.27345" lon="-0.32214">
        <ele>40</ele>
        <time>2022-04-03T18:12:23Z</time>
      </trkpt>
      <trkpt lat="46.27349" lon="-0.3221">
        <ele>40.2</ele>
        <time>2022-04-03T18:12:24Z</time>
      </trkpt>
      <trkpt lat="46.27352" lon="-0.32206">
        <ele>40.4</ele>
        <time>2022-04-03T18:12:25Z</time>
      </trkpt>
      <trkpt lat="46.27355" lon="-0.32203">
        <ele>40.4</ele>
        <time>2022-04-03T18:12:26Z</time>
      </trkpt>
      <trkpt lat="46.27359" lon="-0.32199">
        <ele>40.4</ele>
        <time>2022-04-03T18:12:27Z</time>
      </trkpt>
      <trkpt lat="46.27362" lon="-0.32196">
        <ele>40.4</ele>
        <time>2022-04-03T18:12:28Z</time>
      </trkpt>
      <trkpt lat="46.27366" lon="-0.32192">
        <ele>40.6</ele>
        <time>2022-04-03T18:12:29Z</time>
      </trkpt>
      <trkpt lat="46.27369" lon="-0.32189">
        <ele>40.6</ele>
        <time>2022-04-03T18:12:30Z</time>
      </trkpt>
      <trkpt lat="46.27373" lon="-0.32185">
        <ele>40.8</ele>
        <time>2022-04-03T18:12:31Z</time>
      </trkpt>
      <trkpt lat="46.27376" lon="-0.32182">
        <ele>40.8</ele>
        <time>2022-04-03T18:12:32Z</time>
      </trkpt>
      <trkpt lat="46.2738" lon="-0.32178">
        <ele>40.8</ele>
        <time>2022-04-03T18:12:33Z</time>
      </trkpt>
      <trkpt lat="46.27383" lon="-0.32174">
        <ele>41</ele>
        <time>2022-04-03T18:12:34Z</time>
      </trkpt>
      <trkpt lat="46.27387" lon="-0.3217">
        <ele>40.8</ele>
        <time>2022-04-03T18:12:35Z</time>
      </trkpt>
      <trkpt lat="46.2739" lon="-0.32167">
        <ele>41</ele>
        <time>2022-04-03T18:12:36Z</time>
      </trkpt>
      <trkpt lat="46.27394" lon="-0.32163">
        <ele>40.8</ele>
        <time>2022-04-03T18:12:37Z</time>
      </trkpt>
      <trkpt lat="46.27398" lon="-0.3216">
        <ele>41</ele>
        <time>2022-04-03T18:12:38Z</time>
      </trkpt>
      <trkpt lat="46.27401" lon="-0.32156">
        <ele>41</ele>
        <time>2022-04-03T18:12:39Z</time>
      </trkpt>
      <trkpt lat="46.27405" lon="-0.32152">
        <ele>41</ele>
        <time>2022-04-03T18:12:40Z</time>
      </trkpt>
      <trkpt lat="46.27408" lon="-0.32148">
        <ele>41.2</ele>
        <time>2022-04-03T18:12:41Z</time>
      </trkpt>
      <trkpt lat="46.27412" lon="-0.32145">
        <ele>41.2</ele>
        <time>2022-04-03T18:12:42Z</time>
      </trkpt>
      <trkpt lat="46.27415" lon="-0.32141">
        <ele>41.2</ele>
        <time>2022-04-03T18:12:43Z</time>
      </trkpt>
      <trkpt lat="46.27419" lon="-0.32137">
        <ele>41.2</ele>
        <time>2022-04-03T18:12:44Z</time>
      </trkpt>
      <trkpt lat="46.27422" lon="-0.32133">
        <ele>41.2</ele>
        <time>2022-04-03T18:12:45Z</time>
      </trkpt>
      <trkpt lat="46.27425" lon="-0.32128">
        <ele>41.2</ele>
        <time>2022-04-03T18:12:46Z</time>
      </trkpt>
      <trkpt lat="46.27428" lon="-0.32124">
        <ele>41.2</ele>
        <time>2022-04-03T18:12:47Z</time>
      </trkpt>
      <trkpt lat="46.27431" lon="-0.32119">
        <ele>41.4</ele>
        <time>2022-04-03T18:12:48Z</time>
      </trkpt>
      <trkpt lat="46.27434" lon="-0.32114">
        <ele>41.2</ele>
        <time>2022-04-03T18:12:49Z</time>
      </trkpt>
      <trkpt lat="46.27437" lon="-0.3211">
        <ele>41.2</ele>
        <time>2022-04-03T18:12:50Z</time>
      </trkpt>
      <trkpt lat="46.27441" lon="-0.32105">
        <ele>41.4</ele>
        <time>2022-04-03T18:12:51Z</time>
      </trkpt>
      <trkpt lat="46.27444" lon="-0.321">
        <ele>41.4</ele>
        <time>2022-04-03T18:12:52Z</time>
      </trkpt>
      <trkpt lat="46.27447" lon="-0.32095">
        <ele>41.4</ele>
        <time>2022-04-03T18:12:53Z</time>
      </trkpt>
      <trkpt lat="46.2745" lon="-0.3209">
        <ele>41.4</ele>
        <time>2022-04-03T18:12:54Z</time>
      </trkpt>
      <trkpt lat="46.27453" lon="-0.32085">
        <ele>41.2</ele>
        <time>2022-04-03T18:12:55Z</time>
      </trkpt>
      <trkpt lat="46.27456" lon="-0.3208">
        <ele>41.4</ele>
        <time>2022-04-03T18:12:56Z</time>
      </trkpt>
      <trkpt lat="46.27459" lon="-0.32075">
        <ele>41.4</ele>
        <time>2022-04-03T18:12:57Z</time>
      </trkpt>
      <trkpt lat="46.27461" lon="-0.3207">
        <ele>41.4</ele>
        <time>2022-04-03T18:12:58Z</time>
      </trkpt>
      <trkpt lat="46.27464" lon="-0.32064">
        <ele>41.4</ele>
        <time>2022-04-03T18:12:59Z</time>
      </trkpt>
      <trkpt lat="46.27467" lon="-0.32059">
        <ele>41.4</ele>
        <time>2022-04-03T18:13:00Z</time>
      </trkpt>
      <trkpt lat="46.2747" lon="-0.32054">
        <ele>41.4</ele>
        <time>2022-04-03T18:13:01Z</time>
      </trkpt>
      <trkpt lat="46.27473" lon="-0.32049">
        <ele>41.4</ele>
        <time>2022-04-03T18:13:02Z</time>
      </trkpt>
      <trkpt lat="46.27475" lon="-0.32044">
        <ele>41.6</ele>
        <time>2022-04-03T18:13:03Z</time>
      </trkpt>
      <trkpt lat="46.27478" lon="-0.32039">
        <ele>41.4</ele>
        <time>2022-04-03T18:13:04Z</time>
      </trkpt>
      <trkpt lat="46.27481" lon="-0.32034">
        <ele>41.6</ele>
        <time>2022-04-03T18:13:05Z</time>
      </trkpt>
      <trkpt lat="46.27484" lon="-0.32028">
        <ele>41.6</ele>
        <time>2022-04-03T18:13:06Z</time>
      </trkpt>
      <trkpt lat="46.27486" lon="-0.32023">
        <ele>41.6</ele>
        <time>2022-04-03T18:13:07Z</time>
      </trkpt>
      <trkpt lat="46.27489" lon="-0.32018">
        <ele>41.6</ele>
        <time>2022-04-03T18:13:08Z</time>
      </trkpt>
      <trkpt lat="46.27492" lon="-0.32013">
        <ele>41.6</ele>
        <time>2022-04-03T18:13:09Z</time>
      </trkpt>
      <trkpt lat="46.27495" lon="-0.32008">
        <ele>41.8</ele>
        <time>2022-04-03T18:13:10Z</time>
      </trkpt>
      <trkpt lat="46.27497" lon="-0.32002">
        <ele>41.8</ele>
        <time>2022-04-03T18:13:11Z</time>
      </trkpt>
      <trkpt lat="46.275" lon="-0.31997">
        <ele>41.6</ele>
        <time>2022-04-03T18:13:12Z</time>
      </trkpt>
      <trkpt lat="46.27503" lon="-0.31992">
        <ele>41.8</ele>
        <time>2022-04-03T18:13:13Z</time>
      </trkpt>
      <trkpt lat="46.27506" lon="-0.31987">
        <ele>41.8</ele>
        <time>2022-04-03T18:13:14Z</time>
      </trkpt>
      <trkpt lat="46.27509" lon="-0.31981">
        <ele>42</ele>
        <time>2022-04-03T18:13:15Z</time>
      </trkpt>
      <trkpt lat="46.27512" lon="-0.31976">
        <ele>42</ele>
        <time>2022-04-03T18:13:16Z</time>
      </trkpt>
      <trkpt lat="46.27515" lon="-0.31971">
        <ele>42</ele>
        <time>2022-04-03T18:13:17Z</time>
      </trkpt>
      <trkpt lat="46.27517" lon="-0.31965">
        <ele>42</ele>
        <time>2022-04-03T18:13:18Z</time>
      </trkpt>
      <trkpt lat="46.2752" lon="-0.3196">
        <ele>42</ele>
        <time>2022-04-03T18:13:19Z</time>
      </trkpt>
      <trkpt lat="46.27523" lon="-0.31955">
        <ele>42</ele>
        <time>2022-04-03T18:13:20Z</time>
      </trkpt>
      <trkpt lat="46.27526" lon="-0.31949">
        <ele>42</ele>
        <time>2022-04-03T18:13:21Z</time>
      </trkpt>
      <trkpt lat="46.27529" lon="-0.31944">
        <ele>42</ele>
        <time>2022-04-03T18:13:22Z</time>
      </trkpt>
      <trkpt lat="46.27532" lon="-0.31938">
        <ele>42</ele>
        <time>2022-04-03T18:13:23Z</time>
      </trkpt>
      <trkpt lat="46.27535" lon="-0.31933">
        <ele>42.2</ele>
        <time>2022-04-03T18:13:24Z</time>
      </trkpt>
      <trkpt lat="46.27537" lon="-0.31928">
        <ele>42.2</ele>
        <time>2022-04-03T18:13:25Z</time>
      </trkpt>
      <trkpt lat="46.2754" lon="-0.31922">
        <ele>42.2</ele>
        <time>2022-04-03T18:13:26Z</time>
      </trkpt>
      <trkpt lat="46.27543" lon="-0.31917">
        <ele>42.2</ele>
        <time>2022-04-03T18:13:27Z</time>
      </trkpt>
      <trkpt lat="46.27546" lon="-0.31912">
        <ele>42.2</ele>
        <time>2022-04-03T18:13:28Z</time>
      </trkpt>
      <trkpt lat="46.27549" lon="-0.31907">
        <ele>42.2</ele>
        <time>2022-04-03T18:13:29Z</time>
      </trkpt>
      <trkpt lat="46.27552" lon="-0.31901">
        <ele>42</ele>
        <time>2022-04-03T18:13:30Z</time>
      </trkpt>
      <trkpt lat="46.27554" lon="-0.31896">
        <ele>42.2</ele>
        <time>2022-04-03T18:13:31Z</time>
      </trkpt>
      <trkpt lat="46.27557" lon="-0.31891">
        <ele>42.2</ele>
        <time>2022-04-03T18:13:32Z</time>
      </trkpt>
      <trkpt lat="46.2756" lon="-0.31886">
        <ele>42.2</ele>
        <time>2022-04-03T18:13:33Z</time>
      </trkpt>
      <trkpt lat="46.27563" lon="-0.31881">
        <ele>42.2</ele>
        <time>2022-04-03T18:13:34Z</time>
      </trkpt>
      <trkpt lat="46.27566" lon="-0.31876">
        <ele>42.4</ele>
        <time>2022-04-03T18:13:35Z</time>
      </trkpt>
      <trkpt lat="46.27569" lon="-0.31871">
        <ele>42.4</ele>
        <time>2022-04-03T18:13:36Z</time>
      </trkpt>
      <trkpt lat="46.27572" lon="-0.31866">
        <ele>42.4</ele>
        <time>2022-04-03T18:13:37Z</time>
      </trkpt>
      <trkpt lat="46.27576" lon="-0.31862">
        <ele>42.6</ele>
        <time>2022-04-03T18:13:38Z</time>
      </trkpt>
      <trkpt lat="46.27579" lon="-0.31857">
        <ele>42.6</ele>
        <time>2022-04-03T18:13:39Z</time>
      </trkpt>
      <trkpt lat="46.27582" lon="-0.31852">
        <ele>42.6</ele>
        <time>2022-04-03T18:13:40Z</time>
      </trkpt>
      <trkpt lat="46.27585" lon="-0.31847">
        <ele>42.6</ele>
        <time>2022-04-03T18:13:41Z</time>
      </trkpt>
      <trkpt lat="46.27589" lon="-0.31842">
        <ele>42.8</ele>
        <time>2022-04-03T18:13:42Z</time>
      </trkpt>
      <trkpt lat="46.27592" lon="-0.31837">
        <ele>42.8</ele>
        <time>2022-04-03T18:13:43Z</time>
      </trkpt>
      <trkpt lat="46.27595" lon="-0.31833">
        <ele>42.8</ele>
        <time>2022-04-03T18:13:44Z</time>
      </trkpt>
      <trkpt lat="46.27598" lon="-0.31828">
        <ele>42.8</ele>
        <time>2022-04-03T18:13:45Z</time>
      </trkpt>
      <trkpt lat="46.27602" lon="-0.31823">
        <ele>42.8</ele>
        <time>2022-04-03T18:13:46Z</time>
      </trkpt>
      <trkpt lat="46.27605" lon="-0.31818">
        <ele>43</ele>
        <time>2022-04-03T18:13:47Z</time>
      </trkpt>
      <trkpt lat="46.27608" lon="-0.31814">
        <ele>43</ele>
        <time>2022-04-03T18:13:48Z</time>
      </trkpt>
      <trkpt lat="46.27611" lon="-0.31809">
        <ele>42.8</ele>
        <time>2022-04-03T18:13:49Z</time>
      </trkpt>
      <trkpt lat="46.27615" lon="-0.31804">
        <ele>43</ele>
        <time>2022-04-03T18:13:50Z</time>
      </trkpt>
      <trkpt lat="46.27618" lon="-0.31799">
        <ele>43</ele>
        <time>2022-04-03T18:13:51Z</time>
      </trkpt>
      <trkpt lat="46.27621" lon="-0.31794">
        <ele>43</ele>
        <time>2022-04-03T18:13:52Z</time>
      </trkpt>
      <trkpt lat="46.27625" lon="-0.31789">
        <ele>43</ele>
        <time>2022-04-03T18:13:53Z</time>
      </trkpt>
      <trkpt lat="46.27628" lon="-0.31784">
        <ele>43</ele>
        <time>2022-04-03T18:13:54Z</time>
      </trkpt>
      <trkpt lat="46.27631" lon="-0.31779">
        <ele>43</ele>
        <time>2022-04-03T18:13:55Z</time>
      </trkpt>
      <trkpt lat="46.27634" lon="-0.31774">
        <ele>43.2</ele>
        <time>2022-04-03T18:13:56Z</time>
      </trkpt>
      <trkpt lat="46.27638" lon="-0.31769">
        <ele>43.4</ele>
        <time>2022-04-03T18:13:57Z</time>
      </trkpt>
      <trkpt lat="46.2764" lon="-0.31764">
        <ele>43.4</ele>
        <time>2022-04-03T18:13:58Z</time>
      </trkpt>
      <trkpt lat="46.27643" lon="-0.31759">
        <ele>43.4</ele>
        <time>2022-04-03T18:13:59Z</time>
      </trkpt>
      <trkpt lat="46.27646" lon="-0.31755">
        <ele>43.4</ele>
        <time>2022-04-03T18:14:00Z</time>
      </trkpt>
      <trkpt lat="46.27649" lon="-0.3175">
        <ele>43.6</ele>
        <time>2022-04-03T18:14:01Z</time>
      </trkpt>
      <trkpt lat="46.27651" lon="-0.31746">
        <ele>43.8</ele>
        <time>2022-04-03T18:14:02Z</time>
      </trkpt>
      <trkpt lat="46.27654" lon="-0.31742">
        <ele>43.6</ele>
        <time>2022-04-03T18:14:03Z</time>
      </trkpt>
      <trkpt lat="46.27656" lon="-0.31738">
        <ele>43.6</ele>
        <time>2022-04-03T18:14:04Z</time>
      </trkpt>
      <trkpt lat="46.27658" lon="-0.31734">
        <ele>43.8</ele>
        <time>2022-04-03T18:14:05Z</time>
      </trkpt>
      <trkpt lat="46.27661" lon="-0.3173">
        <ele>43.8</ele>
        <time>2022-04-03T18:14:06Z</time>
      </trkpt>
      <trkpt lat="46.27664" lon="-0.31725">
        <ele>44</ele>
        <time>2022-04-03T18:14:07Z</time>
      </trkpt>
      <trkpt lat="46.27666" lon="-0.31721">
        <ele>44</ele>
        <time>2022-04-03T18:14:08Z</time>
      </trkpt>
      <trkpt lat="46.27669" lon="-0.31716">
        <ele>44.2</ele>
        <time>2022-04-03T18:14:09Z</time>
      </trkpt>
      <trkpt lat="46.27672" lon="-0.31711">
        <ele>44.2</ele>
        <time>2022-04-03T18:14:10Z</time>
      </trkpt>
      <trkpt lat="46.27675" lon="-0.31707">
        <ele>44.4</ele>
        <time>2022-04-03T18:14:11Z</time>
      </trkpt>
      <trkpt lat="46.27678" lon="-0.31702">
        <ele>44.2</ele>
        <time>2022-04-03T18:14:12Z</time>
      </trkpt>
      <trkpt lat="46.27681" lon="-0.31698">
        <ele>44.2</ele>
        <time>2022-04-03T18:14:13Z</time>
      </trkpt>
      <trkpt lat="46.27685" lon="-0.31693">
        <ele>44.2</ele>
        <time>2022-04-03T18:14:14Z</time>
      </trkpt>
      <trkpt lat="46.27688" lon="-0.31688">
        <ele>44.4</ele>
        <time>2022-04-03T18:14:15Z</time>
      </trkpt>
      <trkpt lat="46.27691" lon="-0.31684">
        <ele>44.2</ele>
        <time>2022-04-03T18:14:16Z</time>
      </trkpt>
      <trkpt lat="46.27694" lon="-0.31679">
        <ele>44.2</ele>
        <time>2022-04-03T18:14:17Z</time>
      </trkpt>
      <trkpt lat="46.27697" lon="-0.31675">
        <ele>44.4</ele>
        <time>2022-04-03T18:14:18Z</time>
      </trkpt>
      <trkpt lat="46.27701" lon="-0.3167">
        <ele>44.4</ele>
        <time>2022-04-03T18:14:19Z</time>
      </trkpt>
      <trkpt lat="46.27704" lon="-0.31666">
        <ele>44.4</ele>
        <time>2022-04-03T18:14:20Z</time>
      </trkpt>
      <trkpt lat="46.27707" lon="-0.31661">
        <ele>44.4</ele>
        <time>2022-04-03T18:14:21Z</time>
      </trkpt>
      <trkpt lat="46.27711" lon="-0.31657">
        <ele>44.4</ele>
        <time>2022-04-03T18:14:22Z</time>
      </trkpt>
      <trkpt lat="46.27714" lon="-0.31652">
        <ele>44.4</ele>
        <time>2022-04-03T18:14:23Z</time>
      </trkpt>
      <trkpt lat="46.27718" lon="-0.31648">
        <ele>44.4</ele>
        <time>2022-04-03T18:14:24Z</time>
      </trkpt>
      <trkpt lat="46.27721" lon="-0.31643">
        <ele>44.4</ele>
        <time>2022-04-03T18:14:25Z</time>
      </trkpt>
      <trkpt lat="46.27725" lon="-0.31638">
        <ele>44.4</ele>
        <time>2022-04-03T18:14:26Z</time>
      </trkpt>
      <trkpt lat="46.27728" lon="-0.31633">
        <ele>44.2</ele>
        <time>2022-04-03T18:14:27Z</time>
      </trkpt>
      <trkpt lat="46.27732" lon="-0.31628">
        <ele>44.4</ele>
        <time>2022-04-03T18:14:28Z</time>
      </trkpt>
      <trkpt lat="46.27735" lon="-0.31623">
        <ele>44.2</ele>
        <time>2022-04-03T18:14:29Z</time>
      </trkpt>
      <trkpt lat="46.27739" lon="-0.31618">
        <ele>44.2</ele>
        <time>2022-04-03T18:14:30Z</time>
      </trkpt>
      <trkpt lat="46.27742" lon="-0.31613">
        <ele>44.2</ele>
        <time>2022-04-03T18:14:31Z</time>
      </trkpt>
      <trkpt lat="46.27745" lon="-0.31608">
        <ele>44.4</ele>
        <time>2022-04-03T18:14:32Z</time>
      </trkpt>
      <trkpt lat="46.27749" lon="-0.31603">
        <ele>44.4</ele>
        <time>2022-04-03T18:14:33Z</time>
      </trkpt>
      <trkpt lat="46.27752" lon="-0.31598">
        <ele>44.2</ele>
        <time>2022-04-03T18:14:34Z</time>
      </trkpt>
      <trkpt lat="46.27755" lon="-0.31593">
        <ele>44.4</ele>
        <time>2022-04-03T18:14:35Z</time>
      </trkpt>
      <trkpt lat="46.27758" lon="-0.31589">
        <ele>44.4</ele>
        <time>2022-04-03T18:14:36Z</time>
      </trkpt>
      <trkpt lat="46.27761" lon="-0.31584">
        <ele>44.4</ele>
        <time>2022-04-03T18:14:37Z</time>
      </trkpt>
      <trkpt lat="46.27765" lon="-0.31579">
        <ele>44.4</ele>
        <time>2022-04-03T18:14:38Z</time>
      </trkpt>
      <trkpt lat="46.27768" lon="-0.31574">
        <ele>44.2</ele>
        <time>2022-04-03T18:14:39Z</time>
      </trkpt>
      <trkpt lat="46.2777" lon="-0.31569">
        <ele>44.2</ele>
        <time>2022-04-03T18:14:40Z</time>
      </trkpt>
      <trkpt lat="46.27773" lon="-0.31564">
        <ele>44.4</ele>
        <time>2022-04-03T18:14:41Z</time>
      </trkpt>
      <trkpt lat="46.27776" lon="-0.3156">
        <ele>44.4</ele>
        <time>2022-04-03T18:14:42Z</time>
      </trkpt>
      <trkpt lat="46.27779" lon="-0.31555">
        <ele>44.4</ele>
        <time>2022-04-03T18:14:43Z</time>
      </trkpt>
      <trkpt lat="46.27782" lon="-0.3155">
        <ele>44.6</ele>
        <time>2022-04-03T18:14:44Z</time>
      </trkpt>
      <trkpt lat="46.27785" lon="-0.31546">
        <ele>44.6</ele>
        <time>2022-04-03T18:14:45Z</time>
      </trkpt>
      <trkpt lat="46.27788" lon="-0.31541">
        <ele>45</ele>
        <time>2022-04-03T18:14:46Z</time>
      </trkpt>
      <trkpt lat="46.27791" lon="-0.31537">
        <ele>45</ele>
        <time>2022-04-03T18:14:47Z</time>
      </trkpt>
      <trkpt lat="46.27794" lon="-0.31533">
        <ele>45</ele>
        <time>2022-04-03T18:14:48Z</time>
      </trkpt>
      <trkpt lat="46.27797" lon="-0.31529">
        <ele>45.2</ele>
        <time>2022-04-03T18:14:49Z</time>
      </trkpt>
      <trkpt lat="46.278" lon="-0.31525">
        <ele>45.4</ele>
        <time>2022-04-03T18:14:50Z</time>
      </trkpt>
      <trkpt lat="46.27803" lon="-0.31521">
        <ele>45.4</ele>
        <time>2022-04-03T18:14:51Z</time>
      </trkpt>
      <trkpt lat="46.27806" lon="-0.31516">
        <ele>45.4</ele>
        <time>2022-04-03T18:14:52Z</time>
      </trkpt>
      <trkpt lat="46.27809" lon="-0.31512">
        <ele>45.6</ele>
        <time>2022-04-03T18:14:53Z</time>
      </trkpt>
      <trkpt lat="46.27812" lon="-0.31507">
        <ele>45.6</ele>
        <time>2022-04-03T18:14:54Z</time>
      </trkpt>
      <trkpt lat="46.27815" lon="-0.31503">
        <ele>45.6</ele>
        <time>2022-04-03T18:14:55Z</time>
      </trkpt>
      <trkpt lat="46.27818" lon="-0.31499">
        <ele>45.8</ele>
        <time>2022-04-03T18:14:56Z</time>
      </trkpt>
      <trkpt lat="46.27821" lon="-0.31495">
        <ele>46</ele>
        <time>2022-04-03T18:14:57Z</time>
      </trkpt>
      <trkpt lat="46.27824" lon="-0.31491">
        <ele>46.2</ele>
        <time>2022-04-03T18:14:58Z</time>
      </trkpt>
      <trkpt lat="46.27827" lon="-0.31486">
        <ele>46.4</ele>
        <time>2022-04-03T18:14:59Z</time>
      </trkpt>
      <trkpt lat="46.2783" lon="-0.31482">
        <ele>46.6</ele>
        <time>2022-04-03T18:15:00Z</time>
      </trkpt>
      <trkpt lat="46.27833" lon="-0.31477">
        <ele>46.6</ele>
        <time>2022-04-03T18:15:01Z</time>
      </trkpt>
      <trkpt lat="46.27836" lon="-0.31473">
        <ele>46.6</ele>
        <time>2022-04-03T18:15:02Z</time>
      </trkpt>
      <trkpt lat="46.27839" lon="-0.31468">
        <ele>46.6</ele>
        <time>2022-04-03T18:15:03Z</time>
      </trkpt>
      <trkpt lat="46.27842" lon="-0.31464">
        <ele>46.6</ele>
        <time>2022-04-03T18:15:04Z</time>
      </trkpt>
      <trkpt lat="46.27845" lon="-0.3146">
        <ele>46.8</ele>
        <time>2022-04-03T18:15:05Z</time>
      </trkpt>
      <trkpt lat="46.27848" lon="-0.31455">
        <ele>47</ele>
        <time>2022-04-03T18:15:06Z</time>
      </trkpt>
      <trkpt lat="46.27851" lon="-0.31451">
        <ele>47.2</ele>
        <time>2022-04-03T18:15:07Z</time>
      </trkpt>
      <trkpt lat="46.27854" lon="-0.31447">
        <ele>47</ele>
        <time>2022-04-03T18:15:08Z</time>
      </trkpt>
      <trkpt lat="46.27857" lon="-0.31442">
        <ele>47.2</ele>
        <time>2022-04-03T18:15:09Z</time>
      </trkpt>
      <trkpt lat="46.2786" lon="-0.31438">
        <ele>47.2</ele>
        <time>2022-04-03T18:15:10Z</time>
      </trkpt>
      <trkpt lat="46.27863" lon="-0.31434">
        <ele>47.4</ele>
        <time>2022-04-03T18:15:11Z</time>
      </trkpt>
      <trkpt lat="46.27866" lon="-0.3143">
        <ele>47.4</ele>
        <time>2022-04-03T18:15:12Z</time>
      </trkpt>
      <trkpt lat="46.27869" lon="-0.31426">
        <ele>47.4</ele>
        <time>2022-04-03T18:15:13Z</time>
      </trkpt>
      <trkpt lat="46.27872" lon="-0.31421">
        <ele>47.6</ele>
        <time>2022-04-03T18:15:14Z</time>
      </trkpt>
      <trkpt lat="46.27876" lon="-0.31417">
        <ele>47.4</ele>
        <time>2022-04-03T18:15:15Z</time>
      </trkpt>
      <trkpt lat="46.27879" lon="-0.31413">
        <ele>47.6</ele>
        <time>2022-04-03T18:15:16Z</time>
      </trkpt>
      <trkpt lat="46.27882" lon="-0.31409">
        <ele>47.8</ele>
        <time>2022-04-03T18:15:17Z</time>
      </trkpt>
      <trkpt lat="46.27886" lon="-0.31404">
        <ele>47.8</ele>
        <time>2022-04-03T18:15:18Z</time>
      </trkpt>
      <trkpt lat="46.27889" lon="-0.314">
        <ele>47.8</ele>
        <time>2022-04-03T18:15:19Z</time>
      </trkpt>
      <trkpt lat="46.27892" lon="-0.31396">
        <ele>48</ele>
        <time>2022-04-03T18:15:20Z</time>
      </trkpt>
      <trkpt lat="46.27895" lon="-0.31392">
        <ele>48</ele>
        <time>2022-04-03T18:15:21Z</time>
      </trkpt>
      <trkpt lat="46.27899" lon="-0.31388">
        <ele>48</ele>
        <time>2022-04-03T18:15:22Z</time>
      </trkpt>
      <trkpt lat="46.27902" lon="-0.31384">
        <ele>48.2</ele>
        <time>2022-04-03T18:15:23Z</time>
      </trkpt>
      <trkpt lat="46.27905" lon="-0.3138">
        <ele>48.2</ele>
        <time>2022-04-03T18:15:24Z</time>
      </trkpt>
      <trkpt lat="46.27908" lon="-0.31376">
        <ele>48.4</ele>
        <time>2022-04-03T18:15:25Z</time>
      </trkpt>
      <trkpt lat="46.27912" lon="-0.31372">
        <ele>48.4</ele>
        <time>2022-04-03T18:15:26Z</time>
      </trkpt>
      <trkpt lat="46.27915" lon="-0.31368">
        <ele>48.6</ele>
        <time>2022-04-03T18:15:27Z</time>
      </trkpt>
      <trkpt lat="46.27918" lon="-0.31363">
        <ele>48.8</ele>
        <time>2022-04-03T18:15:28Z</time>
      </trkpt>
      <trkpt lat="46.27922" lon="-0.31359">
        <ele>48.8</ele>
        <time>2022-04-03T18:15:29Z</time>
      </trkpt>
      <trkpt lat="46.27925" lon="-0.31355">
        <ele>49</ele>
        <time>2022-04-03T18:15:30Z</time>
      </trkpt>
      <trkpt lat="46.27929" lon="-0.31352">
        <ele>49</ele>
        <time>2022-04-03T18:15:31Z</time>
      </trkpt>
      <trkpt lat="46.27932" lon="-0.31348">
        <ele>49</ele>
        <time>2022-04-03T18:15:32Z</time>
      </trkpt>
      <trkpt lat="46.27936" lon="-0.31344">
        <ele>49.2</ele>
        <time>2022-04-03T18:15:33Z</time>
      </trkpt>
      <trkpt lat="46.27939" lon="-0.3134">
        <ele>49.2</ele>
        <time>2022-04-03T18:15:34Z</time>
      </trkpt>
      <trkpt lat="46.27942" lon="-0.31336">
        <ele>49.2</ele>
        <time>2022-04-03T18:15:35Z</time>
      </trkpt>
      <trkpt lat="46.27946" lon="-0.31332">
        <ele>49.4</ele>
        <time>2022-04-03T18:15:36Z</time>
      </trkpt>
      <trkpt lat="46.27949" lon="-0.31328">
        <ele>49.6</ele>
        <time>2022-04-03T18:15:37Z</time>
      </trkpt>
      <trkpt lat="46.27952" lon="-0.31324">
        <ele>49.6</ele>
        <time>2022-04-03T18:15:38Z</time>
      </trkpt>
      <trkpt lat="46.27955" lon="-0.3132">
        <ele>49.8</ele>
        <time>2022-04-03T18:15:39Z</time>
      </trkpt>
      <trkpt lat="46.27958" lon="-0.31315">
        <ele>50</ele>
        <time>2022-04-03T18:15:40Z</time>
      </trkpt>
      <trkpt lat="46.27961" lon="-0.31311">
        <ele>50</ele>
        <time>2022-04-03T18:15:41Z</time>
      </trkpt>
      <trkpt lat="46.27964" lon="-0.31306">
        <ele>50</ele>
        <time>2022-04-03T18:15:42Z</time>
      </trkpt>
      <trkpt lat="46.27967" lon="-0.31301">
        <ele>50.2</ele>
        <time>2022-04-03T18:15:43Z</time>
      </trkpt>
      <trkpt lat="46.2797" lon="-0.31297">
        <ele>50.4</ele>
        <time>2022-04-03T18:15:44Z</time>
      </trkpt>
      <trkpt lat="46.27973" lon="-0.31292">
        <ele>50.4</ele>
        <time>2022-04-03T18:15:45Z</time>
      </trkpt>
      <trkpt lat="46.27976" lon="-0.31287">
        <ele>50.6</ele>
        <time>2022-04-03T18:15:46Z</time>
      </trkpt>
      <trkpt lat="46.27979" lon="-0.31282">
        <ele>50.6</ele>
        <time>2022-04-03T18:15:47Z</time>
      </trkpt>
      <trkpt lat="46.27982" lon="-0.31277">
        <ele>50.8</ele>
        <time>2022-04-03T18:15:48Z</time>
      </trkpt>
      <trkpt lat="46.27985" lon="-0.31272">
        <ele>51</ele>
        <time>2022-04-03T18:15:49Z</time>
      </trkpt>
      <trkpt lat="46.27988" lon="-0.31267">
        <ele>51.2</ele>
        <time>2022-04-03T18:15:50Z</time>
      </trkpt>
      <trkpt lat="46.2799" lon="-0.31262">
        <ele>51.4</ele>
        <time>2022-04-03T18:15:51Z</time>
      </trkpt>
      <trkpt lat="46.27992" lon="-0.31257">
        <ele>51.4</ele>
        <time>2022-04-03T18:15:52Z</time>
      </trkpt>
      <trkpt lat="46.27995" lon="-0.31253">
        <ele>51.6</ele>
        <time>2022-04-03T18:15:53Z</time>
      </trkpt>
      <trkpt lat="46.27998" lon="-0.31248">
        <ele>51.6</ele>
        <time>2022-04-03T18:15:54Z</time>
      </trkpt>
      <trkpt lat="46.28" lon="-0.31243">
        <ele>51.6</ele>
        <time>2022-04-03T18:15:55Z</time>
      </trkpt>
      <trkpt lat="46.28003" lon="-0.31238">
        <ele>51.8</ele>
        <time>2022-04-03T18:15:56Z</time>
      </trkpt>
      <trkpt lat="46.28005" lon="-0.31233">
        <ele>52</ele>
        <time>2022-04-03T18:15:57Z</time>
      </trkpt>
      <trkpt lat="46.28007" lon="-0.31227">
        <ele>52.2</ele>
        <time>2022-04-03T18:15:58Z</time>
      </trkpt>
      <trkpt lat="46.28008" lon="-0.31222">
        <ele>52.2</ele>
        <time>2022-04-03T18:15:59Z</time>
      </trkpt>
      <trkpt lat="46.2801" lon="-0.31216">
        <ele>52.2</ele>
        <time>2022-04-03T18:16:00Z</time>
      </trkpt>
      <trkpt lat="46.28012" lon="-0.31211">
        <ele>52.2</ele>
        <time>2022-04-03T18:16:01Z</time>
      </trkpt>
      <trkpt lat="46.28014" lon="-0.31205">
        <ele>52.2</ele>
        <time>2022-04-03T18:16:02Z</time>
      </trkpt>
      <trkpt lat="46.28016" lon="-0.31199">
        <ele>52.4</ele>
        <time>2022-04-03T18:16:03Z</time>
      </trkpt>
      <trkpt lat="46.28017" lon="-0.31194">
        <ele>52.4</ele>
        <time>2022-04-03T18:16:04Z</time>
      </trkpt>
      <trkpt lat="46.28019" lon="-0.31188">
        <ele>52.4</ele>
        <time>2022-04-03T18:16:05Z</time>
      </trkpt>
      <trkpt lat="46.28021" lon="-0.31182">
        <ele>52.4</ele>
        <time>2022-04-03T18:16:06Z</time>
      </trkpt>
      <trkpt lat="46.28022" lon="-0.31176">
        <ele>52.6</ele>
        <time>2022-04-03T18:16:07Z</time>
      </trkpt>
      <trkpt lat="46.28023" lon="-0.31169">
        <ele>52.6</ele>
        <time>2022-04-03T18:16:08Z</time>
      </trkpt>
      <trkpt lat="46.28025" lon="-0.31163">
        <ele>52.6</ele>
        <time>2022-04-03T18:16:09Z</time>
      </trkpt>
      <trkpt lat="46.28026" lon="-0.31157">
        <ele>52.6</ele>
        <time>2022-04-03T18:16:10Z</time>
      </trkpt>
      <trkpt lat="46.28027" lon="-0.31151">
        <ele>52.6</ele>
        <time>2022-04-03T18:16:11Z</time>
      </trkpt>
      <trkpt lat="46.28029" lon="-0.31145">
        <ele>52.6</ele>
        <time>2022-04-03T18:16:12Z</time>
      </trkpt>
      <trkpt lat="46.2803" lon="-0.31138">
        <ele>52.6</ele>
        <time>2022-04-03T18:16:13Z</time>
      </trkpt>
      <trkpt lat="46.28031" lon="-0.31132">
        <ele>52.8</ele>
        <time>2022-04-03T18:16:14Z</time>
      </trkpt>
      <trkpt lat="46.28032" lon="-0.31125">
        <ele>52.8</ele>
        <time>2022-04-03T18:16:15Z</time>
      </trkpt>
      <trkpt lat="46.28033" lon="-0.31119">
        <ele>52.8</ele>
        <time>2022-04-03T18:16:16Z</time>
      </trkpt>
      <trkpt lat="46.28034" lon="-0.31112">
        <ele>52.6</ele>
        <time>2022-04-03T18:16:17Z</time>
      </trkpt>
      <trkpt lat="46.28035" lon="-0.31105">
        <ele>52.6</ele>
        <time>2022-04-03T18:16:18Z</time>
      </trkpt>
      <trkpt lat="46.28036" lon="-0.31098">
        <ele>52.6</ele>
        <time>2022-04-03T18:16:19Z</time>
      </trkpt>
      <trkpt lat="46.28037" lon="-0.31092">
        <ele>52.6</ele>
        <time>2022-04-03T18:16:20Z</time>
      </trkpt>
      <trkpt lat="46.28038" lon="-0.31085">
        <ele>52.6</ele>
        <time>2022-04-03T18:16:21Z</time>
      </trkpt>
      <trkpt lat="46.28039" lon="-0.31078">
        <ele>52.6</ele>
        <time>2022-04-03T18:16:22Z</time>
      </trkpt>
      <trkpt lat="46.2804" lon="-0.31072">
        <ele>52.6</ele>
        <time>2022-04-03T18:16:23Z</time>
      </trkpt>
      <trkpt lat="46.28041" lon="-0.31064">
        <ele>52.6</ele>
        <time>2022-04-03T18:16:24Z</time>
      </trkpt>
      <trkpt lat="46.28042" lon="-0.31057">
        <ele>52.6</ele>
        <time>2022-04-03T18:16:25Z</time>
      </trkpt>
      <trkpt lat="46.28042" lon="-0.3105">
        <ele>52.4</ele>
        <time>2022-04-03T18:16:26Z</time>
      </trkpt>
      <trkpt lat="46.28043" lon="-0.31042">
        <ele>52.4</ele>
        <time>2022-04-03T18:16:27Z</time>
      </trkpt>
      <trkpt lat="46.28044" lon="-0.31034">
        <ele>52</ele>
        <time>2022-04-03T18:16:28Z</time>
      </trkpt>
      <trkpt lat="46.28045" lon="-0.31026">
        <ele>52</ele>
        <time>2022-04-03T18:16:29Z</time>
      </trkpt>
      <trkpt lat="46.28046" lon="-0.31018">
        <ele>52</ele>
        <time>2022-04-03T18:16:30Z</time>
      </trkpt>
      <trkpt lat="46.28047" lon="-0.31009">
        <ele>51.8</ele>
        <time>2022-04-03T18:16:31Z</time>
      </trkpt>
      <trkpt lat="46.28048" lon="-0.31001">
        <ele>51.8</ele>
        <time>2022-04-03T18:16:32Z</time>
      </trkpt>
      <trkpt lat="46.28049" lon="-0.30992">
        <ele>51.8</ele>
        <time>2022-04-03T18:16:33Z</time>
      </trkpt>
      <trkpt lat="46.2805" lon="-0.30983">
        <ele>51.6</ele>
        <time>2022-04-03T18:16:34Z</time>
      </trkpt>
      <trkpt lat="46.28051" lon="-0.30974">
        <ele>51.6</ele>
        <time>2022-04-03T18:16:35Z</time>
      </trkpt>
      <trkpt lat="46.28052" lon="-0.30964">
        <ele>51.4</ele>
        <time>2022-04-03T18:16:36Z</time>
      </trkpt>
      <trkpt lat="46.28052" lon="-0.30955">
        <ele>51.2</ele>
        <time>2022-04-03T18:16:37Z</time>
      </trkpt>
      <trkpt lat="46.28053" lon="-0.30946">
        <ele>51.2</ele>
        <time>2022-04-03T18:16:38Z</time>
      </trkpt>
      <trkpt lat="46.28054" lon="-0.30936">
        <ele>50.8</ele>
        <time>2022-04-03T18:16:39Z</time>
      </trkpt>
      <trkpt lat="46.28054" lon="-0.30927">
        <ele>50.4</ele>
        <time>2022-04-03T18:16:40Z</time>
      </trkpt>
      <trkpt lat="46.28055" lon="-0.30917">
        <ele>50.2</ele>
        <time>2022-04-03T18:16:41Z</time>
      </trkpt>
      <trkpt lat="46.28055" lon="-0.30908">
        <ele>50</ele>
        <time>2022-04-03T18:16:42Z</time>
      </trkpt>
      <trkpt lat="46.28055" lon="-0.30898">
        <ele>49.6</ele>
        <time>2022-04-03T18:16:43Z</time>
      </trkpt>
      <trkpt lat="46.28055" lon="-0.30888">
        <ele>49.2</ele>
        <time>2022-04-03T18:16:44Z</time>
      </trkpt>
      <trkpt lat="46.28055" lon="-0.30878">
        <ele>49</ele>
        <time>2022-04-03T18:16:45Z</time>
      </trkpt>
      <trkpt lat="46.28054" lon="-0.30868">
        <ele>48.8</ele>
        <time>2022-04-03T18:16:46Z</time>
      </trkpt>
      <trkpt lat="46.28054" lon="-0.30858">
        <ele>48.2</ele>
        <time>2022-04-03T18:16:47Z</time>
      </trkpt>
      <trkpt lat="46.28053" lon="-0.30848">
        <ele>48</ele>
        <time>2022-04-03T18:16:48Z</time>
      </trkpt>
      <trkpt lat="46.28052" lon="-0.30839">
        <ele>47.8</ele>
        <time>2022-04-03T18:16:49Z</time>
      </trkpt>
      <trkpt lat="46.28051" lon="-0.30829">
        <ele>47.6</ele>
        <time>2022-04-03T18:16:50Z</time>
      </trkpt>
      <trkpt lat="46.2805" lon="-0.30819">
        <ele>47.2</ele>
        <time>2022-04-03T18:16:51Z</time>
      </trkpt>
      <trkpt lat="46.28049" lon="-0.30809">
        <ele>47</ele>
        <time>2022-04-03T18:16:52Z</time>
      </trkpt>
      <trkpt lat="46.28048" lon="-0.308">
        <ele>46.8</ele>
        <time>2022-04-03T18:16:53Z</time>
      </trkpt>
      <trkpt lat="46.28047" lon="-0.30791">
        <ele>46.6</ele>
        <time>2022-04-03T18:16:54Z</time>
      </trkpt>
      <trkpt lat="46.28046" lon="-0.30782">
        <ele>46.2</ele>
        <time>2022-04-03T18:16:55Z</time>
      </trkpt>
      <trkpt lat="46.28046" lon="-0.30773">
        <ele>46</ele>
        <time>2022-04-03T18:16:56Z</time>
      </trkpt>
      <trkpt lat="46.28046" lon="-0.30765">
        <ele>46</ele>
        <time>2022-04-03T18:16:57Z</time>
      </trkpt>
      <trkpt lat="46.28046" lon="-0.30757">
        <ele>45.6</ele>
        <time>2022-04-03T18:16:58Z</time>
      </trkpt>
      <trkpt lat="46.28045" lon="-0.30749">
        <ele>45.8</ele>
        <time>2022-04-03T18:16:59Z</time>
      </trkpt>
      <trkpt lat="46.28045" lon="-0.30742">
        <ele>45.6</ele>
        <time>2022-04-03T18:17:00Z</time>
      </trkpt>
      <trkpt lat="46.28046" lon="-0.30735">
        <ele>45.6</ele>
        <time>2022-04-03T18:17:01Z</time>
      </trkpt>
      <trkpt lat="46.28046" lon="-0.30728">
        <ele>45.6</ele>
        <time>2022-04-03T18:17:02Z</time>
      </trkpt>
      <trkpt lat="46.28047" lon="-0.30721">
        <ele>45.6</ele>
        <time>2022-04-03T18:17:03Z</time>
      </trkpt>
      <trkpt lat="46.28048" lon="-0.30715">
        <ele>45.6</ele>
        <time>2022-04-03T18:17:04Z</time>
      </trkpt>
      <trkpt lat="46.28048" lon="-0.30708">
        <ele>45.6</ele>
        <time>2022-04-03T18:17:05Z</time>
      </trkpt>
      <trkpt lat="46.2805" lon="-0.30702">
        <ele>45.6</ele>
        <time>2022-04-03T18:17:06Z</time>
      </trkpt>
      <trkpt lat="46.28051" lon="-0.30696">
        <ele>45.6</ele>
        <time>2022-04-03T18:17:07Z</time>
      </trkpt>
      <trkpt lat="46.28053" lon="-0.30689">
        <ele>45.8</ele>
        <time>2022-04-03T18:17:08Z</time>
      </trkpt>
      <trkpt lat="46.28055" lon="-0.30684">
        <ele>46</ele>
        <time>2022-04-03T18:17:09Z</time>
      </trkpt>
      <trkpt lat="46.28058" lon="-0.30679">
        <ele>46</ele>
        <time>2022-04-03T18:17:10Z</time>
      </trkpt>
      <trkpt lat="46.28061" lon="-0.30674">
        <ele>46.2</ele>
        <time>2022-04-03T18:17:11Z</time>
      </trkpt>
      <trkpt lat="46.28063" lon="-0.3067">
        <ele>46.2</ele>
        <time>2022-04-03T18:17:12Z</time>
      </trkpt>
      <trkpt lat="46.28066" lon="-0.30665">
        <ele>46.4</ele>
        <time>2022-04-03T18:17:13Z</time>
      </trkpt>
      <trkpt lat="46.28068" lon="-0.30661">
        <ele>46.4</ele>
        <time>2022-04-03T18:17:14Z</time>
      </trkpt>
      <trkpt lat="46.2807" lon="-0.30657">
        <ele>46.8</ele>
        <time>2022-04-03T18:17:15Z</time>
      </trkpt>
      <trkpt lat="46.28073" lon="-0.30653">
        <ele>46.8</ele>
        <time>2022-04-03T18:17:16Z</time>
      </trkpt>
      <trkpt lat="46.28075" lon="-0.30649">
        <ele>46.8</ele>
        <time>2022-04-03T18:17:17Z</time>
      </trkpt>
      <trkpt lat="46.28077" lon="-0.30645">
        <ele>47</ele>
        <time>2022-04-03T18:17:18Z</time>
      </trkpt>
      <trkpt lat="46.28079" lon="-0.30642">
        <ele>47.2</ele>
        <time>2022-04-03T18:17:19Z</time>
      </trkpt>
      <trkpt lat="46.28081" lon="-0.30638">
        <ele>47.4</ele>
        <time>2022-04-03T18:17:20Z</time>
      </trkpt>
      <trkpt lat="46.28084" lon="-0.30634">
        <ele>47.6</ele>
        <time>2022-04-03T18:17:21Z</time>
      </trkpt>
      <trkpt lat="46.28086" lon="-0.30631">
        <ele>48</ele>
        <time>2022-04-03T18:17:22Z</time>
      </trkpt>
      <trkpt lat="46.28088" lon="-0.30627">
        <ele>48</ele>
        <time>2022-04-03T18:17:23Z</time>
      </trkpt>
      <trkpt lat="46.2809" lon="-0.30625">
        <ele>48.2</ele>
        <time>2022-04-03T18:17:24Z</time>
      </trkpt>
      <trkpt lat="46.28093" lon="-0.30622">
        <ele>48.6</ele>
        <time>2022-04-03T18:17:25Z</time>
      </trkpt>
      <trkpt lat="46.28094" lon="-0.30618">
        <ele>48.6</ele>
        <time>2022-04-03T18:17:26Z</time>
      </trkpt>
      <trkpt lat="46.28096" lon="-0.30614">
        <ele>49</ele>
        <time>2022-04-03T18:17:27Z</time>
      </trkpt>
      <trkpt lat="46.28097" lon="-0.3061">
        <ele>49</ele>
        <time>2022-04-03T18:17:28Z</time>
      </trkpt>
      <trkpt lat="46.28098" lon="-0.30606">
        <ele>49.2</ele>
        <time>2022-04-03T18:17:29Z</time>
      </trkpt>
      <trkpt lat="46.281" lon="-0.30602">
        <ele>49.4</ele>
        <time>2022-04-03T18:17:30Z</time>
      </trkpt>
      <trkpt lat="46.28102" lon="-0.30598">
        <ele>49.4</ele>
        <time>2022-04-03T18:17:31Z</time>
      </trkpt>
      <trkpt lat="46.28103" lon="-0.30594">
        <ele>49.6</ele>
        <time>2022-04-03T18:17:32Z</time>
      </trkpt>
      <trkpt lat="46.28105" lon="-0.3059">
        <ele>49.8</ele>
        <time>2022-04-03T18:17:33Z</time>
      </trkpt>
      <trkpt lat="46.28106" lon="-0.30586">
        <ele>50</ele>
        <time>2022-04-03T18:17:34Z</time>
      </trkpt>
      <trkpt lat="46.28108" lon="-0.30582">
        <ele>50</ele>
        <time>2022-04-03T18:17:35Z</time>
      </trkpt>
      <trkpt lat="46.28109" lon="-0.30578">
        <ele>50</ele>
        <time>2022-04-03T18:17:36Z</time>
      </trkpt>
      <trkpt lat="46.28111" lon="-0.30573">
        <ele>50</ele>
        <time>2022-04-03T18:17:37Z</time>
      </trkpt>
      <trkpt lat="46.28112" lon="-0.30569">
        <ele>50.2</ele>
        <time>2022-04-03T18:17:38Z</time>
      </trkpt>
      <trkpt lat="46.28113" lon="-0.30565">
        <ele>50.2</ele>
        <time>2022-04-03T18:17:39Z</time>
      </trkpt>
      <trkpt lat="46.28115" lon="-0.3056">
        <ele>50.4</ele>
        <time>2022-04-03T18:17:40Z</time>
      </trkpt>
      <trkpt lat="46.28116" lon="-0.30556">
        <ele>50.4</ele>
        <time>2022-04-03T18:17:41Z</time>
      </trkpt>
      <trkpt lat="46.28117" lon="-0.30551">
        <ele>50.8</ele>
        <time>2022-04-03T18:17:42Z</time>
      </trkpt>
      <trkpt lat="46.28118" lon="-0.30547">
        <ele>51</ele>
        <time>2022-04-03T18:17:43Z</time>
      </trkpt>
      <trkpt lat="46.2812" lon="-0.30542">
        <ele>51</ele>
        <time>2022-04-03T18:17:44Z</time>
      </trkpt>
      <trkpt lat="46.28121" lon="-0.30537">
        <ele>51.2</ele>
        <time>2022-04-03T18:17:45Z</time>
      </trkpt>
      <trkpt lat="46.28123" lon="-0.30533">
        <ele>51.6</ele>
        <time>2022-04-03T18:17:46Z</time>
      </trkpt>
      <trkpt lat="46.28124" lon="-0.30528">
        <ele>51.6</ele>
        <time>2022-04-03T18:17:47Z</time>
      </trkpt>
      <trkpt lat="46.28126" lon="-0.30523">
        <ele>51.6</ele>
        <time>2022-04-03T18:17:48Z</time>
      </trkpt>
      <trkpt lat="46.28127" lon="-0.30518">
        <ele>51.6</ele>
        <time>2022-04-03T18:17:49Z</time>
      </trkpt>
      <trkpt lat="46.28128" lon="-0.30513">
        <ele>51.6</ele>
        <time>2022-04-03T18:17:50Z</time>
      </trkpt>
      <trkpt lat="46.28129" lon="-0.30508">
        <ele>51.6</ele>
        <time>2022-04-03T18:17:51Z</time>
      </trkpt>
      <trkpt lat="46.28131" lon="-0.30503">
        <ele>51.6</ele>
        <time>2022-04-03T18:17:52Z</time>
      </trkpt>
      <trkpt lat="46.28132" lon="-0.30498">
        <ele>51.8</ele>
        <time>2022-04-03T18:17:53Z</time>
      </trkpt>
      <trkpt lat="46.28133" lon="-0.30493">
        <ele>51.8</ele>
        <time>2022-04-03T18:17:54Z</time>
      </trkpt>
      <trkpt lat="46.28135" lon="-0.30489">
        <ele>51.8</ele>
        <time>2022-04-03T18:17:55Z</time>
      </trkpt>
      <trkpt lat="46.28136" lon="-0.30484">
        <ele>52</ele>
        <time>2022-04-03T18:17:56Z</time>
      </trkpt>
      <trkpt lat="46.28137" lon="-0.30479">
        <ele>52.2</ele>
        <time>2022-04-03T18:17:57Z</time>
      </trkpt>
      <trkpt lat="46.28139" lon="-0.30474">
        <ele>52.4</ele>
        <time>2022-04-03T18:17:58Z</time>
      </trkpt>
      <trkpt lat="46.28141" lon="-0.3047">
        <ele>52.6</ele>
        <time>2022-04-03T18:17:59Z</time>
      </trkpt>
      <trkpt lat="46.28142" lon="-0.30465">
        <ele>52.8</ele>
        <time>2022-04-03T18:18:00Z</time>
      </trkpt>
      <trkpt lat="46.28144" lon="-0.30461">
        <ele>52.8</ele>
        <time>2022-04-03T18:18:01Z</time>
      </trkpt>
      <trkpt lat="46.28147" lon="-0.30456">
        <ele>52.8</ele>
        <time>2022-04-03T18:18:02Z</time>
      </trkpt>
      <trkpt lat="46.28149" lon="-0.30452">
        <ele>53</ele>
        <time>2022-04-03T18:18:03Z</time>
      </trkpt>
      <trkpt lat="46.28151" lon="-0.30448">
        <ele>53</ele>
        <time>2022-04-03T18:18:04Z</time>
      </trkpt>
      <trkpt lat="46.28153" lon="-0.30443">
        <ele>53.2</ele>
        <time>2022-04-03T18:18:05Z</time>
      </trkpt>
      <trkpt lat="46.28156" lon="-0.30439">
        <ele>53</ele>
        <time>2022-04-03T18:18:06Z</time>
      </trkpt>
      <trkpt lat="46.28158" lon="-0.30435">
        <ele>53.2</ele>
        <time>2022-04-03T18:18:07Z</time>
      </trkpt>
      <trkpt lat="46.2816" lon="-0.3043">
        <ele>53.4</ele>
        <time>2022-04-03T18:18:08Z</time>
      </trkpt>
      <trkpt lat="46.28162" lon="-0.30426">
        <ele>53.6</ele>
        <time>2022-04-03T18:18:09Z</time>
      </trkpt>
      <trkpt lat="46.28165" lon="-0.30421">
        <ele>53.6</ele>
        <time>2022-04-03T18:18:10Z</time>
      </trkpt>
      <trkpt lat="46.28167" lon="-0.30417">
        <ele>53.6</ele>
        <time>2022-04-03T18:18:11Z</time>
      </trkpt>
      <trkpt lat="46.2817" lon="-0.30413">
        <ele>53.6</ele>
        <time>2022-04-03T18:18:12Z</time>
      </trkpt>
      <trkpt lat="46.28172" lon="-0.30408">
        <ele>53.6</ele>
        <time>2022-04-03T18:18:13Z</time>
      </trkpt>
      <trkpt lat="46.28174" lon="-0.30404">
        <ele>53.6</ele>
        <time>2022-04-03T18:18:14Z</time>
      </trkpt>
      <trkpt lat="46.28177" lon="-0.304">
        <ele>53.8</ele>
        <time>2022-04-03T18:18:15Z</time>
      </trkpt>
      <trkpt lat="46.28179" lon="-0.30396">
        <ele>54</ele>
        <time>2022-04-03T18:18:16Z</time>
      </trkpt>
      <trkpt lat="46.28182" lon="-0.30391">
        <ele>54</ele>
        <time>2022-04-03T18:18:17Z</time>
      </trkpt>
      <trkpt lat="46.28184" lon="-0.30387">
        <ele>54.2</ele>
        <time>2022-04-03T18:18:18Z</time>
      </trkpt>
      <trkpt lat="46.28186" lon="-0.30383">
        <ele>54.2</ele>
        <time>2022-04-03T18:18:19Z</time>
      </trkpt>
      <trkpt lat="46.28189" lon="-0.30379">
        <ele>54.4</ele>
        <time>2022-04-03T18:18:20Z</time>
      </trkpt>
      <trkpt lat="46.28192" lon="-0.30375">
        <ele>54.4</ele>
        <time>2022-04-03T18:18:21Z</time>
      </trkpt>
      <trkpt lat="46.28194" lon="-0.30371">
        <ele>54.4</ele>
        <time>2022-04-03T18:18:22Z</time>
      </trkpt>
      <trkpt lat="46.28197" lon="-0.30367">
        <ele>54.4</ele>
        <time>2022-04-03T18:18:23Z</time>
      </trkpt>
      <trkpt lat="46.28199" lon="-0.30362">
        <ele>54.6</ele>
        <time>2022-04-03T18:18:24Z</time>
      </trkpt>
      <trkpt lat="46.28201" lon="-0.30358">
        <ele>54.6</ele>
        <time>2022-04-03T18:18:25Z</time>
      </trkpt>
      <trkpt lat="46.28203" lon="-0.30354">
        <ele>54.6</ele>
        <time>2022-04-03T18:18:26Z</time>
      </trkpt>
      <trkpt lat="46.28206" lon="-0.30349">
        <ele>54.8</ele>
        <time>2022-04-03T18:18:27Z</time>
      </trkpt>
      <trkpt lat="46.28208" lon="-0.30345">
        <ele>55</ele>
        <time>2022-04-03T18:18:28Z</time>
      </trkpt>
      <trkpt lat="46.2821" lon="-0.30341">
        <ele>55</ele>
        <time>2022-04-03T18:18:29Z</time>
      </trkpt>
      <trkpt lat="46.28213" lon="-0.30337">
        <ele>55</ele>
        <time>2022-04-03T18:18:30Z</time>
      </trkpt>
      <trkpt lat="46.28215" lon="-0.30333">
        <ele>55.2</ele>
        <time>2022-04-03T18:18:31Z</time>
      </trkpt>
      <trkpt lat="46.28218" lon="-0.30329">
        <ele>55.2</ele>
        <time>2022-04-03T18:18:32Z</time>
      </trkpt>
      <trkpt lat="46.2822" lon="-0.30325">
        <ele>55.2</ele>
        <time>2022-04-03T18:18:33Z</time>
      </trkpt>
      <trkpt lat="46.28223" lon="-0.30321">
        <ele>55.4</ele>
        <time>2022-04-03T18:18:34Z</time>
      </trkpt>
      <trkpt lat="46.28225" lon="-0.30317">
        <ele>55.4</ele>
        <time>2022-04-03T18:18:35Z</time>
      </trkpt>
      <trkpt lat="46.28228" lon="-0.30313">
        <ele>55.4</ele>
        <time>2022-04-03T18:18:36Z</time>
      </trkpt>
      <trkpt lat="46.28231" lon="-0.30309">
        <ele>55.6</ele>
        <time>2022-04-03T18:18:37Z</time>
      </trkpt>
      <trkpt lat="46.28234" lon="-0.30305">
        <ele>55.6</ele>
        <time>2022-04-03T18:18:38Z</time>
      </trkpt>
      <trkpt lat="46.28236" lon="-0.30301">
        <ele>55.8</ele>
        <time>2022-04-03T18:18:39Z</time>
      </trkpt>
      <trkpt lat="46.28239" lon="-0.30297">
        <ele>55.8</ele>
        <time>2022-04-03T18:18:40Z</time>
      </trkpt>
      <trkpt lat="46.28241" lon="-0.30292">
        <ele>56</ele>
        <time>2022-04-03T18:18:41Z</time>
      </trkpt>
      <trkpt lat="46.28244" lon="-0.30288">
        <ele>56</ele>
        <time>2022-04-03T18:18:42Z</time>
      </trkpt>
      <trkpt lat="46.28246" lon="-0.30284">
        <ele>56.2</ele>
        <time>2022-04-03T18:18:43Z</time>
      </trkpt>
      <trkpt lat="46.28249" lon="-0.3028">
        <ele>56.2</ele>
        <time>2022-04-03T18:18:44Z</time>
      </trkpt>
      <trkpt lat="46.28251" lon="-0.30275">
        <ele>56.4</ele>
        <time>2022-04-03T18:18:45Z</time>
      </trkpt>
      <trkpt lat="46.28253" lon="-0.30271">
        <ele>56.2</ele>
        <time>2022-04-03T18:18:46Z</time>
      </trkpt>
      <trkpt lat="46.28256" lon="-0.30267">
        <ele>56.4</ele>
        <time>2022-04-03T18:18:47Z</time>
      </trkpt>
      <trkpt lat="46.28258" lon="-0.30262">
        <ele>56.6</ele>
        <time>2022-04-03T18:18:48Z</time>
      </trkpt>
      <trkpt lat="46.28261" lon="-0.30258">
        <ele>56.6</ele>
        <time>2022-04-03T18:18:49Z</time>
      </trkpt>
      <trkpt lat="46.28263" lon="-0.30254">
        <ele>56.6</ele>
        <time>2022-04-03T18:18:50Z</time>
      </trkpt>
      <trkpt lat="46.28266" lon="-0.3025">
        <ele>56.6</ele>
        <time>2022-04-03T18:18:51Z</time>
      </trkpt>
      <trkpt lat="46.28269" lon="-0.30246">
        <ele>56.6</ele>
        <time>2022-04-03T18:18:52Z</time>
      </trkpt>
      <trkpt lat="46.28272" lon="-0.30241">
        <ele>56.8</ele>
        <time>2022-04-03T18:18:53Z</time>
      </trkpt>
      <trkpt lat="46.28274" lon="-0.30237">
        <ele>56.8</ele>
        <time>2022-04-03T18:18:54Z</time>
      </trkpt>
      <trkpt lat="46.28277" lon="-0.30232">
        <ele>57</ele>
        <time>2022-04-03T18:18:55Z</time>
      </trkpt>
      <trkpt lat="46.28279" lon="-0.30228">
        <ele>57</ele>
        <time>2022-04-03T18:18:56Z</time>
      </trkpt>
      <trkpt lat="46.28282" lon="-0.30224">
        <ele>57.2</ele>
        <time>2022-04-03T18:18:57Z</time>
      </trkpt>
      <trkpt lat="46.28285" lon="-0.30219">
        <ele>57</ele>
        <time>2022-04-03T18:18:58Z</time>
      </trkpt>
      <trkpt lat="46.28288" lon="-0.30215">
        <ele>57.4</ele>
        <time>2022-04-03T18:18:59Z</time>
      </trkpt>
      <trkpt lat="46.2829" lon="-0.30211">
        <ele>57.4</ele>
        <time>2022-04-03T18:19:00Z</time>
      </trkpt>
      <trkpt lat="46.28293" lon="-0.30206">
        <ele>57.4</ele>
        <time>2022-04-03T18:19:01Z</time>
      </trkpt>
      <trkpt lat="46.28295" lon="-0.30202">
        <ele>57.4</ele>
        <time>2022-04-03T18:19:02Z</time>
      </trkpt>
      <trkpt lat="46.28298" lon="-0.30197">
        <ele>57.6</ele>
        <time>2022-04-03T18:19:03Z</time>
      </trkpt>
      <trkpt lat="46.28301" lon="-0.30193">
        <ele>57.4</ele>
        <time>2022-04-03T18:19:04Z</time>
      </trkpt>
      <trkpt lat="46.28303" lon="-0.30189">
        <ele>57.6</ele>
        <time>2022-04-03T18:19:05Z</time>
      </trkpt>
      <trkpt lat="46.28306" lon="-0.30185">
        <ele>57.6</ele>
        <time>2022-04-03T18:19:06Z</time>
      </trkpt>
      <trkpt lat="46.28308" lon="-0.3018">
        <ele>57.6</ele>
        <time>2022-04-03T18:19:07Z</time>
      </trkpt>
      <trkpt lat="46.28311" lon="-0.30176">
        <ele>57.8</ele>
        <time>2022-04-03T18:19:08Z</time>
      </trkpt>
      <trkpt lat="46.28314" lon="-0.30172">
        <ele>57.8</ele>
        <time>2022-04-03T18:19:09Z</time>
      </trkpt>
      <trkpt lat="46.28316" lon="-0.30167">
        <ele>57.8</ele>
        <time>2022-04-03T18:19:10Z</time>
      </trkpt>
      <trkpt lat="46.28319" lon="-0.30163">
        <ele>57.8</ele>
        <time>2022-04-03T18:19:11Z</time>
      </trkpt>
      <trkpt lat="46.28321" lon="-0.30158">
        <ele>57.8</ele>
        <time>2022-04-03T18:19:12Z</time>
      </trkpt>
      <trkpt lat="46.28324" lon="-0.30154">
        <ele>57.8</ele>
        <time>2022-04-03T18:19:13Z</time>
      </trkpt>
      <trkpt lat="46.28327" lon="-0.3015">
        <ele>57.8</ele>
        <time>2022-04-03T18:19:14Z</time>
      </trkpt>
      <trkpt lat="46.2833" lon="-0.30145">
        <ele>58</ele>
        <time>2022-04-03T18:19:15Z</time>
      </trkpt>
      <trkpt lat="46.28332" lon="-0.30141">
        <ele>58</ele>
        <time>2022-04-03T18:19:16Z</time>
      </trkpt>
      <trkpt lat="46.28335" lon="-0.30136">
        <ele>58</ele>
        <time>2022-04-03T18:19:17Z</time>
      </trkpt>
      <trkpt lat="46.28338" lon="-0.30132">
        <ele>58.2</ele>
        <time>2022-04-03T18:19:18Z</time>
      </trkpt>
      <trkpt lat="46.2834" lon="-0.30127">
        <ele>58.4</ele>
        <time>2022-04-03T18:19:19Z</time>
      </trkpt>
      <trkpt lat="46.28343" lon="-0.30122">
        <ele>58.4</ele>
        <time>2022-04-03T18:19:20Z</time>
      </trkpt>
      <trkpt lat="46.28345" lon="-0.30117">
        <ele>58.4</ele>
        <time>2022-04-03T18:19:21Z</time>
      </trkpt>
      <trkpt lat="46.28348" lon="-0.30112">
        <ele>58.4</ele>
        <time>2022-04-03T18:19:22Z</time>
      </trkpt>
      <trkpt lat="46.28351" lon="-0.30108">
        <ele>58.6</ele>
        <time>2022-04-03T18:19:23Z</time>
      </trkpt>
      <trkpt lat="46.28354" lon="-0.30103">
        <ele>58.4</ele>
        <time>2022-04-03T18:19:24Z</time>
      </trkpt>
      <trkpt lat="46.28357" lon="-0.30098">
        <ele>58.6</ele>
        <time>2022-04-03T18:19:25Z</time>
      </trkpt>
      <trkpt lat="46.28359" lon="-0.30094">
        <ele>58.6</ele>
        <time>2022-04-03T18:19:26Z</time>
      </trkpt>
      <trkpt lat="46.28362" lon="-0.30089">
        <ele>58.6</ele>
        <time>2022-04-03T18:19:27Z</time>
      </trkpt>
      <trkpt lat="46.28365" lon="-0.30084">
        <ele>58.6</ele>
        <time>2022-04-03T18:19:28Z</time>
      </trkpt>
      <trkpt lat="46.28368" lon="-0.3008">
        <ele>58.8</ele>
        <time>2022-04-03T18:19:29Z</time>
      </trkpt>
      <trkpt lat="46.2837" lon="-0.30075">
        <ele>58.8</ele>
        <time>2022-04-03T18:19:30Z</time>
      </trkpt>
      <trkpt lat="46.28373" lon="-0.3007">
        <ele>58.8</ele>
        <time>2022-04-03T18:19:31Z</time>
      </trkpt>
      <trkpt lat="46.28376" lon="-0.30065">
        <ele>58.8</ele>
        <time>2022-04-03T18:19:32Z</time>
      </trkpt>
      <trkpt lat="46.28378" lon="-0.3006">
        <ele>59</ele>
        <time>2022-04-03T18:19:33Z</time>
      </trkpt>
      <trkpt lat="46.28381" lon="-0.30056">
        <ele>59</ele>
        <time>2022-04-03T18:19:34Z</time>
      </trkpt>
      <trkpt lat="46.28384" lon="-0.30051">
        <ele>59</ele>
        <time>2022-04-03T18:19:35Z</time>
      </trkpt>
      <trkpt lat="46.28387" lon="-0.30046">
        <ele>59</ele>
        <time>2022-04-03T18:19:36Z</time>
      </trkpt>
      <trkpt lat="46.28389" lon="-0.30042">
        <ele>59</ele>
        <time>2022-04-03T18:19:37Z</time>
      </trkpt>
      <trkpt lat="46.28392" lon="-0.30037">
        <ele>59.2</ele>
        <time>2022-04-03T18:19:38Z</time>
      </trkpt>
      <trkpt lat="46.28395" lon="-0.30032">
        <ele>59.2</ele>
        <time>2022-04-03T18:19:39Z</time>
      </trkpt>
      <trkpt lat="46.28397" lon="-0.30027">
        <ele>59.2</ele>
        <time>2022-04-03T18:19:40Z</time>
      </trkpt>
      <trkpt lat="46.284" lon="-0.30023">
        <ele>59.2</ele>
        <time>2022-04-03T18:19:41Z</time>
      </trkpt>
      <trkpt lat="46.28403" lon="-0.30018">
        <ele>59.2</ele>
        <time>2022-04-03T18:19:42Z</time>
      </trkpt>
      <trkpt lat="46.28405" lon="-0.30013">
        <ele>59.2</ele>
        <time>2022-04-03T18:19:43Z</time>
      </trkpt>
      <trkpt lat="46.28408" lon="-0.30008">
        <ele>59.2</ele>
        <time>2022-04-03T18:19:44Z</time>
      </trkpt>
      <trkpt lat="46.28411" lon="-0.30004">
        <ele>59.4</ele>
        <time>2022-04-03T18:19:45Z</time>
      </trkpt>
      <trkpt lat="46.28413" lon="-0.29999">
        <ele>59.6</ele>
        <time>2022-04-03T18:19:46Z</time>
      </trkpt>
      <trkpt lat="46.28416" lon="-0.29994">
        <ele>59.6</ele>
        <time>2022-04-03T18:19:47Z</time>
      </trkpt>
      <trkpt lat="46.28419" lon="-0.29989">
        <ele>59.6</ele>
        <time>2022-04-03T18:19:48Z</time>
      </trkpt>
      <trkpt lat="46.28421" lon="-0.29985">
        <ele>59.6</ele>
        <time>2022-04-03T18:19:49Z</time>
      </trkpt>
      <trkpt lat="46.28424" lon="-0.2998">
        <ele>59.6</ele>
        <time>2022-04-03T18:19:50Z</time>
      </trkpt>
      <trkpt lat="46.28426" lon="-0.29975">
        <ele>59.6</ele>
        <time>2022-04-03T18:19:51Z</time>
      </trkpt>
      <trkpt lat="46.28429" lon="-0.29971">
        <ele>59.6</ele>
        <time>2022-04-03T18:19:52Z</time>
      </trkpt>
      <trkpt lat="46.28432" lon="-0.29966">
        <ele>59.8</ele>
        <time>2022-04-03T18:19:53Z</time>
      </trkpt>
      <trkpt lat="46.28434" lon="-0.29961">
        <ele>59.8</ele>
        <time>2022-04-03T18:19:54Z</time>
      </trkpt>
      <trkpt lat="46.28437" lon="-0.29956">
        <ele>59.8</ele>
        <time>2022-04-03T18:19:55Z</time>
      </trkpt>
      <trkpt lat="46.28439" lon="-0.29952">
        <ele>60</ele>
        <time>2022-04-03T18:19:56Z</time>
      </trkpt>
      <trkpt lat="46.28442" lon="-0.29947">
        <ele>60</ele>
        <time>2022-04-03T18:19:57Z</time>
      </trkpt>
      <trkpt lat="46.28445" lon="-0.29942">
        <ele>60</ele>
        <time>2022-04-03T18:19:58Z</time>
      </trkpt>
      <trkpt lat="46.28447" lon="-0.29937">
        <ele>60</ele>
        <time>2022-04-03T18:19:59Z</time>
      </trkpt>
      <trkpt lat="46.28449" lon="-0.29932">
        <ele>60</ele>
        <time>2022-04-03T18:20:00Z</time>
      </trkpt>
      <trkpt lat="46.28452" lon="-0.29927">
        <ele>60</ele>
        <time>2022-04-03T18:20:01Z</time>
      </trkpt>
      <trkpt lat="46.28454" lon="-0.29923">
        <ele>60.2</ele>
        <time>2022-04-03T18:20:02Z</time>
      </trkpt>
      <trkpt lat="46.28457" lon="-0.29918">
        <ele>60.2</ele>
        <time>2022-04-03T18:20:03Z</time>
      </trkpt>
      <trkpt lat="46.28459" lon="-0.29913">
        <ele>60.2</ele>
        <time>2022-04-03T18:20:04Z</time>
      </trkpt>
      <trkpt lat="46.28461" lon="-0.29908">
        <ele>60.4</ele>
        <time>2022-04-03T18:20:05Z</time>
      </trkpt>
      <trkpt lat="46.28464" lon="-0.29903">
        <ele>60.6</ele>
        <time>2022-04-03T18:20:06Z</time>
      </trkpt>
      <trkpt lat="46.28466" lon="-0.29898">
        <ele>60.6</ele>
        <time>2022-04-03T18:20:07Z</time>
      </trkpt>
      <trkpt lat="46.28468" lon="-0.29893">
        <ele>60.8</ele>
        <time>2022-04-03T18:20:08Z</time>
      </trkpt>
      <trkpt lat="46.28471" lon="-0.29888">
        <ele>60.8</ele>
        <time>2022-04-03T18:20:09Z</time>
      </trkpt>
      <trkpt lat="46.28473" lon="-0.29883">
        <ele>60.8</ele>
        <time>2022-04-03T18:20:10Z</time>
      </trkpt>
      <trkpt lat="46.28475" lon="-0.29878">
        <ele>61</ele>
        <time>2022-04-03T18:20:11Z</time>
      </trkpt>
      <trkpt lat="46.28478" lon="-0.29873">
        <ele>61</ele>
        <time>2022-04-03T18:20:12Z</time>
      </trkpt>
      <trkpt lat="46.2848" lon="-0.29868">
        <ele>61</ele>
        <time>2022-04-03T18:20:13Z</time>
      </trkpt>
      <trkpt lat="46.28482" lon="-0.29863">
        <ele>61</ele>
        <time>2022-04-03T18:20:14Z</time>
      </trkpt>
      <trkpt lat="46.28484" lon="-0.29858">
        <ele>61</ele>
        <time>2022-04-03T18:20:15Z</time>
      </trkpt>
      <trkpt lat="46.28487" lon="-0.29853">
        <ele>61.2</ele>
        <time>2022-04-03T18:20:16Z</time>
      </trkpt>
      <trkpt lat="46.28489" lon="-0.29848">
        <ele>61.2</ele>
        <time>2022-04-03T18:20:17Z</time>
      </trkpt>
      <trkpt lat="46.28491" lon="-0.29843">
        <ele>61.2</ele>
        <time>2022-04-03T18:20:18Z</time>
      </trkpt>
      <trkpt lat="46.28493" lon="-0.29838">
        <ele>61.2</ele>
        <time>2022-04-03T18:20:19Z</time>
      </trkpt>
      <trkpt lat="46.28495" lon="-0.29833">
        <ele>61.4</ele>
        <time>2022-04-03T18:20:20Z</time>
      </trkpt>
      <trkpt lat="46.28497" lon="-0.29828">
        <ele>61.4</ele>
        <time>2022-04-03T18:20:21Z</time>
      </trkpt>
      <trkpt lat="46.28499" lon="-0.29823">
        <ele>61.2</ele>
        <time>2022-04-03T18:20:22Z</time>
      </trkpt>
      <trkpt lat="46.28501" lon="-0.29818">
        <ele>61.4</ele>
        <time>2022-04-03T18:20:23Z</time>
      </trkpt>
      <trkpt lat="46.28503" lon="-0.29813">
        <ele>61.4</ele>
        <time>2022-04-03T18:20:24Z</time>
      </trkpt>
      <trkpt lat="46.28505" lon="-0.29808">
        <ele>61.6</ele>
        <time>2022-04-03T18:20:25Z</time>
      </trkpt>
      <trkpt lat="46.28507" lon="-0.29803">
        <ele>61.6</ele>
        <time>2022-04-03T18:20:26Z</time>
      </trkpt>
      <trkpt lat="46.2851" lon="-0.29798">
        <ele>61.6</ele>
        <time>2022-04-03T18:20:27Z</time>
      </trkpt>
      <trkpt lat="46.28512" lon="-0.29793">
        <ele>61.6</ele>
        <time>2022-04-03T18:20:28Z</time>
      </trkpt>
      <trkpt lat="46.28514" lon="-0.29788">
        <ele>61.8</ele>
        <time>2022-04-03T18:20:29Z</time>
      </trkpt>
      <trkpt lat="46.28515" lon="-0.29783">
        <ele>61.8</ele>
        <time>2022-04-03T18:20:30Z</time>
      </trkpt>
      <trkpt lat="46.28517" lon="-0.29779">
        <ele>61.8</ele>
        <time>2022-04-03T18:20:31Z</time>
      </trkpt>
      <trkpt lat="46.28519" lon="-0.29774">
        <ele>62</ele>
        <time>2022-04-03T18:20:32Z</time>
      </trkpt>
      <trkpt lat="46.28521" lon="-0.29769">
        <ele>62.2</ele>
        <time>2022-04-03T18:20:33Z</time>
      </trkpt>
      <trkpt lat="46.28523" lon="-0.29765">
        <ele>62.2</ele>
        <time>2022-04-03T18:20:34Z</time>
      </trkpt>
      <trkpt lat="46.28525" lon="-0.29761">
        <ele>62.4</ele>
        <time>2022-04-03T18:20:35Z</time>
      </trkpt>
      <trkpt lat="46.28527" lon="-0.29756">
        <ele>62.4</ele>
        <time>2022-04-03T18:20:36Z</time>
      </trkpt>
      <trkpt lat="46.28529" lon="-0.29752">
        <ele>62.6</ele>
        <time>2022-04-03T18:20:37Z</time>
      </trkpt>
      <trkpt lat="46.28531" lon="-0.29748">
        <ele>62.8</ele>
        <time>2022-04-03T18:20:38Z</time>
      </trkpt>
      <trkpt lat="46.28533" lon="-0.29744">
        <ele>63</ele>
        <time>2022-04-03T18:20:39Z</time>
      </trkpt>
      <trkpt lat="46.28535" lon="-0.2974">
        <ele>63</ele>
        <time>2022-04-03T18:20:40Z</time>
      </trkpt>
      <trkpt lat="46.28537" lon="-0.29736">
        <ele>63.2</ele>
        <time>2022-04-03T18:20:41Z</time>
      </trkpt>
      <trkpt lat="46.28539" lon="-0.29732">
        <ele>63.2</ele>
        <time>2022-04-03T18:20:42Z</time>
      </trkpt>
      <trkpt lat="46.28541" lon="-0.29728">
        <ele>63.4</ele>
        <time>2022-04-03T18:20:43Z</time>
      </trkpt>
      <trkpt lat="46.28543" lon="-0.29724">
        <ele>63.4</ele>
        <time>2022-04-03T18:20:44Z</time>
      </trkpt>
      <trkpt lat="46.28545" lon="-0.2972">
        <ele>63.2</ele>
        <time>2022-04-03T18:20:45Z</time>
      </trkpt>
      <trkpt lat="46.28547" lon="-0.29716">
        <ele>63.4</ele>
        <time>2022-04-03T18:20:46Z</time>
      </trkpt>
      <trkpt lat="46.28549" lon="-0.29713">
        <ele>63.4</ele>
        <time>2022-04-03T18:20:47Z</time>
      </trkpt>
      <trkpt lat="46.28551" lon="-0.29709">
        <ele>63.6</ele>
        <time>2022-04-03T18:20:48Z</time>
      </trkpt>
      <trkpt lat="46.28553" lon="-0.29705">
        <ele>63.6</ele>
        <time>2022-04-03T18:20:49Z</time>
      </trkpt>
      <trkpt lat="46.28555" lon="-0.29702">
        <ele>63.6</ele>
        <time>2022-04-03T18:20:50Z</time>
      </trkpt>
      <trkpt lat="46.28557" lon="-0.29698">
        <ele>64</ele>
        <time>2022-04-03T18:20:51Z</time>
      </trkpt>
      <trkpt lat="46.28559" lon="-0.29695">
        <ele>64.2</ele>
        <time>2022-04-03T18:20:52Z</time>
      </trkpt>
      <trkpt lat="46.28561" lon="-0.29691">
        <ele>64.2</ele>
        <time>2022-04-03T18:20:53Z</time>
      </trkpt>
      <trkpt lat="46.28563" lon="-0.29688">
        <ele>64.2</ele>
        <time>2022-04-03T18:20:54Z</time>
      </trkpt>
      <trkpt lat="46.28565" lon="-0.29684">
        <ele>64.4</ele>
        <time>2022-04-03T18:20:55Z</time>
      </trkpt>
      <trkpt lat="46.28567" lon="-0.2968">
        <ele>64.6</ele>
        <time>2022-04-03T18:20:56Z</time>
      </trkpt>
      <trkpt lat="46.28569" lon="-0.29676">
        <ele>64.6</ele>
        <time>2022-04-03T18:20:57Z</time>
      </trkpt>
      <trkpt lat="46.28571" lon="-0.29673">
        <ele>64.8</ele>
        <time>2022-04-03T18:20:58Z</time>
      </trkpt>
      <trkpt lat="46.28573" lon="-0.2967">
        <ele>64.8</ele>
        <time>2022-04-03T18:20:59Z</time>
      </trkpt>
      <trkpt lat="46.28576" lon="-0.29667">
        <ele>64.8</ele>
        <time>2022-04-03T18:21:00Z</time>
      </trkpt>
      <trkpt lat="46.28578" lon="-0.29663">
        <ele>64.8</ele>
        <time>2022-04-03T18:21:01Z</time>
      </trkpt>
      <trkpt lat="46.2858" lon="-0.2966">
        <ele>64.8</ele>
        <time>2022-04-03T18:21:02Z</time>
      </trkpt>
      <trkpt lat="46.28582" lon="-0.29657">
        <ele>65</ele>
        <time>2022-04-03T18:21:03Z</time>
      </trkpt>
      <trkpt lat="46.28584" lon="-0.29653">
        <ele>65</ele>
        <time>2022-04-03T18:21:04Z</time>
      </trkpt>
      <trkpt lat="46.28586" lon="-0.2965">
        <ele>65.2</ele>
        <time>2022-04-03T18:21:05Z</time>
      </trkpt>
      <trkpt lat="46.28588" lon="-0.29647">
        <ele>65.4</ele>
        <time>2022-04-03T18:21:06Z</time>
      </trkpt>
      <trkpt lat="46.2859" lon="-0.29644">
        <ele>65.4</ele>
        <time>2022-04-03T18:21:07Z</time>
      </trkpt>
      <trkpt lat="46.28592" lon="-0.2964">
        <ele>65.4</ele>
        <time>2022-04-03T18:21:08Z</time>
      </trkpt>
      <trkpt lat="46.28594" lon="-0.29637">
        <ele>65.6</ele>
        <time>2022-04-03T18:21:09Z</time>
      </trkpt>
      <trkpt lat="46.28596" lon="-0.29633">
        <ele>65.8</ele>
        <time>2022-04-03T18:21:10Z</time>
      </trkpt>
      <trkpt lat="46.28598" lon="-0.2963">
        <ele>66.2</ele>
        <time>2022-04-03T18:21:11Z</time>
      </trkpt>
      <trkpt lat="46.286" lon="-0.29626">
        <ele>66.2</ele>
        <time>2022-04-03T18:21:12Z</time>
      </trkpt>
      <trkpt lat="46.28602" lon="-0.29623">
        <ele>66.4</ele>
        <time>2022-04-03T18:21:13Z</time>
      </trkpt>
      <trkpt lat="46.28604" lon="-0.29619">
        <ele>66.4</ele>
        <time>2022-04-03T18:21:14Z</time>
      </trkpt>
      <trkpt lat="46.28606" lon="-0.29616">
        <ele>66.4</ele>
        <time>2022-04-03T18:21:15Z</time>
      </trkpt>
      <trkpt lat="46.28608" lon="-0.29613">
        <ele>66.6</ele>
        <time>2022-04-03T18:21:16Z</time>
      </trkpt>
      <trkpt lat="46.2861" lon="-0.2961">
        <ele>66.6</ele>
        <time>2022-04-03T18:21:17Z</time>
      </trkpt>
      <trkpt lat="46.28613" lon="-0.29607">
        <ele>66.6</ele>
        <time>2022-04-03T18:21:18Z</time>
      </trkpt>
      <trkpt lat="46.28615" lon="-0.29604">
        <ele>66.6</ele>
        <time>2022-04-03T18:21:19Z</time>
      </trkpt>
      <trkpt lat="46.28617" lon="-0.29601">
        <ele>66.8</ele>
        <time>2022-04-03T18:21:20Z</time>
      </trkpt>
      <trkpt lat="46.28619" lon="-0.29598">
        <ele>66.8</ele>
        <time>2022-04-03T18:21:21Z</time>
      </trkpt>
      <trkpt lat="46.28621" lon="-0.29595">
        <ele>66.8</ele>
        <time>2022-04-03T18:21:22Z</time>
      </trkpt>
      <trkpt lat="46.28623" lon="-0.29591">
        <ele>67.2</ele>
        <time>2022-04-03T18:21:23Z</time>
      </trkpt>
      <trkpt lat="46.28625" lon="-0.29588">
        <ele>67.4</ele>
        <time>2022-04-03T18:21:24Z</time>
      </trkpt>
      <trkpt lat="46.28627" lon="-0.29585">
        <ele>67.4</ele>
        <time>2022-04-03T18:21:25Z</time>
      </trkpt>
      <trkpt lat="46.28629" lon="-0.29582">
        <ele>67.4</ele>
        <time>2022-04-03T18:21:26Z</time>
      </trkpt>
      <trkpt lat="46.28631" lon="-0.2958">
        <ele>67.6</ele>
        <time>2022-04-03T18:21:27Z</time>
      </trkpt>
      <trkpt lat="46.28634" lon="-0.29577">
        <ele>67.6</ele>
        <time>2022-04-03T18:21:28Z</time>
      </trkpt>
      <trkpt lat="46.28635" lon="-0.29573">
        <ele>67.6</ele>
        <time>2022-04-03T18:21:29Z</time>
      </trkpt>
      <trkpt lat="46.28637" lon="-0.2957">
        <ele>67.6</ele>
        <time>2022-04-03T18:21:30Z</time>
      </trkpt>
      <trkpt lat="46.2864" lon="-0.29567">
        <ele>68</ele>
        <time>2022-04-03T18:21:31Z</time>
      </trkpt>
      <trkpt lat="46.28642" lon="-0.29565">
        <ele>68.2</ele>
        <time>2022-04-03T18:21:32Z</time>
      </trkpt>
      <trkpt lat="46.28644" lon="-0.29562">
        <ele>68.2</ele>
        <time>2022-04-03T18:21:33Z</time>
      </trkpt>
      <trkpt lat="46.28646" lon="-0.29558">
        <ele>68.4</ele>
        <time>2022-04-03T18:21:34Z</time>
      </trkpt>
      <trkpt lat="46.28648" lon="-0.29555">
        <ele>68.4</ele>
        <time>2022-04-03T18:21:35Z</time>
      </trkpt>
      <trkpt lat="46.2865" lon="-0.29551">
        <ele>68.4</ele>
        <time>2022-04-03T18:21:36Z</time>
      </trkpt>
      <trkpt lat="46.28652" lon="-0.29548">
        <ele>68.4</ele>
        <time>2022-04-03T18:21:37Z</time>
      </trkpt>
      <trkpt lat="46.28655" lon="-0.29546">
        <ele>68.6</ele>
        <time>2022-04-03T18:21:38Z</time>
      </trkpt>
      <trkpt lat="46.28657" lon="-0.29543">
        <ele>68.8</ele>
        <time>2022-04-03T18:21:39Z</time>
      </trkpt>
      <trkpt lat="46.28659" lon="-0.2954">
        <ele>68.8</ele>
        <time>2022-04-03T18:21:40Z</time>
      </trkpt>
      <trkpt lat="46.28661" lon="-0.29537">
        <ele>68.8</ele>
        <time>2022-04-03T18:21:41Z</time>
      </trkpt>
      <trkpt lat="46.28663" lon="-0.29533">
        <ele>69</ele>
        <time>2022-04-03T18:21:42Z</time>
      </trkpt>
      <trkpt lat="46.28665" lon="-0.2953">
        <ele>69.2</ele>
        <time>2022-04-03T18:21:43Z</time>
      </trkpt>
      <trkpt lat="46.28668" lon="-0.29528">
        <ele>69.2</ele>
        <time>2022-04-03T18:21:44Z</time>
      </trkpt>
      <trkpt lat="46.2867" lon="-0.29525">
        <ele>69.2</ele>
        <time>2022-04-03T18:21:45Z</time>
      </trkpt>
      <trkpt lat="46.28672" lon="-0.29522">
        <ele>69.2</ele>
        <time>2022-04-03T18:21:46Z</time>
      </trkpt>
      <trkpt lat="46.28674" lon="-0.29519">
        <ele>69.4</ele>
        <time>2022-04-03T18:21:47Z</time>
      </trkpt>
      <trkpt lat="46.28676" lon="-0.29516">
        <ele>69.4</ele>
        <time>2022-04-03T18:21:48Z</time>
      </trkpt>
      <trkpt lat="46.28678" lon="-0.29514">
        <ele>69.6</ele>
        <time>2022-04-03T18:21:49Z</time>
      </trkpt>
      <trkpt lat="46.28681" lon="-0.29511">
        <ele>69.6</ele>
        <time>2022-04-03T18:21:50Z</time>
      </trkpt>
      <trkpt lat="46.28683" lon="-0.29508">
        <ele>69.8</ele>
        <time>2022-04-03T18:21:51Z</time>
      </trkpt>
      <trkpt lat="46.28685" lon="-0.29506">
        <ele>70.2</ele>
        <time>2022-04-03T18:21:52Z</time>
      </trkpt>
      <trkpt lat="46.28687" lon="-0.29502">
        <ele>70.2</ele>
        <time>2022-04-03T18:21:53Z</time>
      </trkpt>
      <trkpt lat="46.28689" lon="-0.29499">
        <ele>70.4</ele>
        <time>2022-04-03T18:21:54Z</time>
      </trkpt>
      <trkpt lat="46.2869" lon="-0.29496">
        <ele>70.6</ele>
        <time>2022-04-03T18:21:55Z</time>
      </trkpt>
      <trkpt lat="46.28692" lon="-0.29492">
        <ele>70.6</ele>
        <time>2022-04-03T18:21:56Z</time>
      </trkpt>
      <trkpt lat="46.28694" lon="-0.29489">
        <ele>70.8</ele>
        <time>2022-04-03T18:21:57Z</time>
      </trkpt>
      <trkpt lat="46.28696" lon="-0.29486">
        <ele>70.8</ele>
        <time>2022-04-03T18:21:58Z</time>
      </trkpt>
      <trkpt lat="46.28699" lon="-0.29483">
        <ele>70.8</ele>
        <time>2022-04-03T18:21:59Z</time>
      </trkpt>
      <trkpt lat="46.28701" lon="-0.2948">
        <ele>71</ele>
        <time>2022-04-03T18:22:00Z</time>
      </trkpt>
      <trkpt lat="46.28703" lon="-0.29477">
        <ele>71</ele>
        <time>2022-04-03T18:22:01Z</time>
      </trkpt>
      <trkpt lat="46.28705" lon="-0.29474">
        <ele>71</ele>
        <time>2022-04-03T18:22:02Z</time>
      </trkpt>
      <trkpt lat="46.28707" lon="-0.29471">
        <ele>71.2</ele>
        <time>2022-04-03T18:22:03Z</time>
      </trkpt>
      <trkpt lat="46.28709" lon="-0.29468">
        <ele>71.2</ele>
        <time>2022-04-03T18:22:04Z</time>
      </trkpt>
      <trkpt lat="46.28711" lon="-0.29464">
        <ele>71.2</ele>
        <time>2022-04-03T18:22:05Z</time>
      </trkpt>
      <trkpt lat="46.28713" lon="-0.29461">
        <ele>71.2</ele>
        <time>2022-04-03T18:22:06Z</time>
      </trkpt>
      <trkpt lat="46.28715" lon="-0.29458">
        <ele>71.4</ele>
        <time>2022-04-03T18:22:07Z</time>
      </trkpt>
      <trkpt lat="46.28717" lon="-0.29454">
        <ele>71.4</ele>
        <time>2022-04-03T18:22:08Z</time>
      </trkpt>
      <trkpt lat="46.28719" lon="-0.29451">
        <ele>71.6</ele>
        <time>2022-04-03T18:22:09Z</time>
      </trkpt>
      <trkpt lat="46.28721" lon="-0.29448">
        <ele>71.6</ele>
        <time>2022-04-03T18:22:10Z</time>
      </trkpt>
      <trkpt lat="46.28723" lon="-0.29446">
        <ele>71.8</ele>
        <time>2022-04-03T18:22:11Z</time>
      </trkpt>
      <trkpt lat="46.28726" lon="-0.29443">
        <ele>72</ele>
        <time>2022-04-03T18:22:12Z</time>
      </trkpt>
      <trkpt lat="46.28727" lon="-0.2944">
        <ele>72.2</ele>
        <time>2022-04-03T18:22:13Z</time>
      </trkpt>
      <trkpt lat="46.28729" lon="-0.29436">
        <ele>72.4</ele>
        <time>2022-04-03T18:22:14Z</time>
      </trkpt>
      <trkpt lat="46.28731" lon="-0.29433">
        <ele>72.4</ele>
        <time>2022-04-03T18:22:15Z</time>
      </trkpt>
      <trkpt lat="46.28732" lon="-0.2943">
        <ele>72.4</ele>
        <time>2022-04-03T18:22:16Z</time>
      </trkpt>
      <trkpt lat="46.28734" lon="-0.29427">
        <ele>72.6</ele>
        <time>2022-04-03T18:22:17Z</time>
      </trkpt>
      <trkpt lat="46.28736" lon="-0.29424">
        <ele>72.6</ele>
        <time>2022-04-03T18:22:18Z</time>
      </trkpt>
      <trkpt lat="46.28738" lon="-0.29422">
        <ele>72.8</ele>
        <time>2022-04-03T18:22:19Z</time>
      </trkpt>
      <trkpt lat="46.2874" lon="-0.29419">
        <ele>73</ele>
        <time>2022-04-03T18:22:20Z</time>
      </trkpt>
      <trkpt lat="46.28742" lon="-0.29417">
        <ele>73.2</ele>
        <time>2022-04-03T18:22:21Z</time>
      </trkpt>
      <trkpt lat="46.28744" lon="-0.29414">
        <ele>73.2</ele>
        <time>2022-04-03T18:22:22Z</time>
      </trkpt>
      <trkpt lat="46.28745" lon="-0.29411">
        <ele>73.4</ele>
        <time>2022-04-03T18:22:23Z</time>
      </trkpt>
      <trkpt lat="46.28747" lon="-0.29408">
        <ele>73.4</ele>
        <time>2022-04-03T18:22:24Z</time>
      </trkpt>
      <trkpt lat="46.28748" lon="-0.29405">
        <ele>73.6</ele>
        <time>2022-04-03T18:22:25Z</time>
      </trkpt>
      <trkpt lat="46.2875" lon="-0.29402">
        <ele>73.6</ele>
        <time>2022-04-03T18:22:26Z</time>
      </trkpt>
      <trkpt lat="46.28752" lon="-0.29399">
        <ele>73.6</ele>
        <time>2022-04-03T18:22:27Z</time>
      </trkpt>
      <trkpt lat="46.28753" lon="-0.29397">
        <ele>73.8</ele>
        <time>2022-04-03T18:22:28Z</time>
      </trkpt>
      <trkpt lat="46.28755" lon="-0.29394">
        <ele>74.2</ele>
        <time>2022-04-03T18:22:29Z</time>
      </trkpt>
      <trkpt lat="46.28757" lon="-0.29392">
        <ele>74.4</ele>
        <time>2022-04-03T18:22:30Z</time>
      </trkpt>
      <trkpt lat="46.28758" lon="-0.29389">
        <ele>74.6</ele>
        <time>2022-04-03T18:22:31Z</time>
      </trkpt>
      <trkpt lat="46.2876" lon="-0.29386">
        <ele>74.6</ele>
        <time>2022-04-03T18:22:32Z</time>
      </trkpt>
      <trkpt lat="46.28762" lon="-0.29383">
        <ele>74.8</ele>
        <time>2022-04-03T18:22:33Z</time>
      </trkpt>
      <trkpt lat="46.28763" lon="-0.29381">
        <ele>74.6</ele>
        <time>2022-04-03T18:22:34Z</time>
      </trkpt>
      <trkpt lat="46.28765" lon="-0.29378">
        <ele>74.8</ele>
        <time>2022-04-03T18:22:35Z</time>
      </trkpt>
      <trkpt lat="46.28767" lon="-0.29375">
        <ele>74.8</ele>
        <time>2022-04-03T18:22:36Z</time>
      </trkpt>
      <trkpt lat="46.28769" lon="-0.29372">
        <ele>75</ele>
        <time>2022-04-03T18:22:37Z</time>
      </trkpt>
      <trkpt lat="46.2877" lon="-0.2937">
        <ele>75.2</ele>
        <time>2022-04-03T18:22:38Z</time>
      </trkpt>
      <trkpt lat="46.28772" lon="-0.29367">
        <ele>75</ele>
        <time>2022-04-03T18:22:39Z</time>
      </trkpt>
      <trkpt lat="46.28774" lon="-0.29364">
        <ele>75.2</ele>
        <time>2022-04-03T18:22:40Z</time>
      </trkpt>
      <trkpt lat="46.28776" lon="-0.29361">
        <ele>75.4</ele>
        <time>2022-04-03T18:22:41Z</time>
      </trkpt>
      <trkpt lat="46.28778" lon="-0.29358">
        <ele>75.4</ele>
        <time>2022-04-03T18:22:42Z</time>
      </trkpt>
      <trkpt lat="46.2878" lon="-0.29356">
        <ele>75.4</ele>
        <time>2022-04-03T18:22:43Z</time>
      </trkpt>
      <trkpt lat="46.28782" lon="-0.29353">
        <ele>75.4</ele>
        <time>2022-04-03T18:22:44Z</time>
      </trkpt>
      <trkpt lat="46.28784" lon="-0.2935">
        <ele>75.6</ele>
        <time>2022-04-03T18:22:45Z</time>
      </trkpt>
      <trkpt lat="46.28785" lon="-0.29347">
        <ele>76.2</ele>
        <time>2022-04-03T18:22:46Z</time>
      </trkpt>
      <trkpt lat="46.28787" lon="-0.29344">
        <ele>76.2</ele>
        <time>2022-04-03T18:22:47Z</time>
      </trkpt>
      <trkpt lat="46.28789" lon="-0.29342">
        <ele>76.4</ele>
        <time>2022-04-03T18:22:48Z</time>
      </trkpt>
      <trkpt lat="46.28791" lon="-0.29339">
        <ele>76.4</ele>
        <time>2022-04-03T18:22:49Z</time>
      </trkpt>
      <trkpt lat="46.28793" lon="-0.29336">
        <ele>76.8</ele>
        <time>2022-04-03T18:22:50Z</time>
      </trkpt>
      <trkpt lat="46.28795" lon="-0.29334">
        <ele>76.8</ele>
        <time>2022-04-03T18:22:51Z</time>
      </trkpt>
      <trkpt lat="46.28797" lon="-0.29331">
        <ele>76.8</ele>
        <time>2022-04-03T18:22:52Z</time>
      </trkpt>
      <trkpt lat="46.28799" lon="-0.29328">
        <ele>77</ele>
        <time>2022-04-03T18:22:53Z</time>
      </trkpt>
      <trkpt lat="46.28801" lon="-0.29325">
        <ele>77</ele>
        <time>2022-04-03T18:22:54Z</time>
      </trkpt>
      <trkpt lat="46.28803" lon="-0.29323">
        <ele>77.4</ele>
        <time>2022-04-03T18:22:55Z</time>
      </trkpt>
      <trkpt lat="46.28805" lon="-0.2932">
        <ele>77.4</ele>
        <time>2022-04-03T18:22:56Z</time>
      </trkpt>
      <trkpt lat="46.28807" lon="-0.29318">
        <ele>77.4</ele>
        <time>2022-04-03T18:22:57Z</time>
      </trkpt>
      <trkpt lat="46.28809" lon="-0.29315">
        <ele>77.6</ele>
        <time>2022-04-03T18:22:58Z</time>
      </trkpt>
      <trkpt lat="46.28811" lon="-0.29313">
        <ele>77.6</ele>
        <time>2022-04-03T18:22:59Z</time>
      </trkpt>
      <trkpt lat="46.28813" lon="-0.2931">
        <ele>77.8</ele>
        <time>2022-04-03T18:23:00Z</time>
      </trkpt>
      <trkpt lat="46.28815" lon="-0.29308">
        <ele>78</ele>
        <time>2022-04-03T18:23:01Z</time>
      </trkpt>
      <trkpt lat="46.28817" lon="-0.29306">
        <ele>78</ele>
        <time>2022-04-03T18:23:02Z</time>
      </trkpt>
      <trkpt lat="46.28819" lon="-0.29303">
        <ele>78.2</ele>
        <time>2022-04-03T18:23:03Z</time>
      </trkpt>
      <trkpt lat="46.28821" lon="-0.29301">
        <ele>78.4</ele>
        <time>2022-04-03T18:23:04Z</time>
      </trkpt>
      <trkpt lat="46.28823" lon="-0.29298">
        <ele>78.6</ele>
        <time>2022-04-03T18:23:05Z</time>
      </trkpt>
      <trkpt lat="46.28825" lon="-0.29296">
        <ele>78.6</ele>
        <time>2022-04-03T18:23:06Z</time>
      </trkpt>
      <trkpt lat="46.28827" lon="-0.29293">
        <ele>78.6</ele>
        <time>2022-04-03T18:23:07Z</time>
      </trkpt>
      <trkpt lat="46.28829" lon="-0.29291">
        <ele>78.8</ele>
        <time>2022-04-03T18:23:08Z</time>
      </trkpt>
      <trkpt lat="46.28831" lon="-0.29289">
        <ele>79</ele>
        <time>2022-04-03T18:23:09Z</time>
      </trkpt>
      <trkpt lat="46.28833" lon="-0.29287">
        <ele>79.2</ele>
        <time>2022-04-03T18:23:10Z</time>
      </trkpt>
      <trkpt lat="46.28835" lon="-0.29284">
        <ele>79.2</ele>
        <time>2022-04-03T18:23:11Z</time>
      </trkpt>
      <trkpt lat="46.28838" lon="-0.29282">
        <ele>79.4</ele>
        <time>2022-04-03T18:23:12Z</time>
      </trkpt>
      <trkpt lat="46.2884" lon="-0.2928">
        <ele>79.8</ele>
        <time>2022-04-03T18:23:13Z</time>
      </trkpt>
      <trkpt lat="46.28842" lon="-0.29277">
        <ele>80</ele>
        <time>2022-04-03T18:23:14Z</time>
      </trkpt>
      <trkpt lat="46.28844" lon="-0.29275">
        <ele>80.2</ele>
        <time>2022-04-03T18:23:15Z</time>
      </trkpt>
      <trkpt lat="46.28846" lon="-0.29272">
        <ele>80.4</ele>
        <time>2022-04-03T18:23:16Z</time>
      </trkpt>
      <trkpt lat="46.28848" lon="-0.2927">
        <ele>80.6</ele>
        <time>2022-04-03T18:23:17Z</time>
      </trkpt>
      <trkpt lat="46.28851" lon="-0.29268">
        <ele>80.6</ele>
        <time>2022-04-03T18:23:18Z</time>
      </trkpt>
      <trkpt lat="46.28853" lon="-0.29265">
        <ele>80.8</ele>
        <time>2022-04-03T18:23:19Z</time>
      </trkpt>
      <trkpt lat="46.28855" lon="-0.29263">
        <ele>80.8</ele>
        <time>2022-04-03T18:23:20Z</time>
      </trkpt>
      <trkpt lat="46.28858" lon="-0.29261">
        <ele>81</ele>
        <time>2022-04-03T18:23:21Z</time>
      </trkpt>
      <trkpt lat="46.2886" lon="-0.29258">
        <ele>81</ele>
        <time>2022-04-03T18:23:22Z</time>
      </trkpt>
      <trkpt lat="46.28863" lon="-0.29256">
        <ele>81.2</ele>
        <time>2022-04-03T18:23:23Z</time>
      </trkpt>
      <trkpt lat="46.28865" lon="-0.29253">
        <ele>81.4</ele>
        <time>2022-04-03T18:23:24Z</time>
      </trkpt>
      <trkpt lat="46.28867" lon="-0.29251">
        <ele>81.4</ele>
        <time>2022-04-03T18:23:25Z</time>
      </trkpt>
      <trkpt lat="46.2887" lon="-0.29248">
        <ele>81.4</ele>
        <time>2022-04-03T18:23:26Z</time>
      </trkpt>
      <trkpt lat="46.28872" lon="-0.29245">
        <ele>81.6</ele>
        <time>2022-04-03T18:23:27Z</time>
      </trkpt>
      <trkpt lat="46.28875" lon="-0.29243">
        <ele>81.8</ele>
        <time>2022-04-03T18:23:28Z</time>
      </trkpt>
      <trkpt lat="46.28877" lon="-0.2924">
        <ele>82</ele>
        <time>2022-04-03T18:23:29Z</time>
      </trkpt>
      <trkpt lat="46.2888" lon="-0.29237">
        <ele>81.8</ele>
        <time>2022-04-03T18:23:30Z</time>
      </trkpt>
      <trkpt lat="46.28882" lon="-0.29235">
        <ele>82</ele>
        <time>2022-04-03T18:23:31Z</time>
      </trkpt>
      <trkpt lat="46.28885" lon="-0.29232">
        <ele>81.8</ele>
        <time>2022-04-03T18:23:32Z</time>
      </trkpt>
      <trkpt lat="46.28888" lon="-0.2923">
        <ele>82</ele>
        <time>2022-04-03T18:23:33Z</time>
      </trkpt>
      <trkpt lat="46.2889" lon="-0.29227">
        <ele>82.2</ele>
        <time>2022-04-03T18:23:34Z</time>
      </trkpt>
      <trkpt lat="46.28893" lon="-0.29225">
        <ele>82.4</ele>
        <time>2022-04-03T18:23:35Z</time>
      </trkpt>
      <trkpt lat="46.28896" lon="-0.29222">
        <ele>82.4</ele>
        <time>2022-04-03T18:23:36Z</time>
      </trkpt>
      <trkpt lat="46.28899" lon="-0.29219">
        <ele>82.4</ele>
        <time>2022-04-03T18:23:37Z</time>
      </trkpt>
      <trkpt lat="46.28902" lon="-0.29216">
        <ele>82.6</ele>
        <time>2022-04-03T18:23:38Z</time>
      </trkpt>
      <trkpt lat="46.28905" lon="-0.29212">
        <ele>82.6</ele>
        <time>2022-04-03T18:23:39Z</time>
      </trkpt>
      <trkpt lat="46.28907" lon="-0.29209">
        <ele>82.6</ele>
        <time>2022-04-03T18:23:40Z</time>
      </trkpt>
      <trkpt lat="46.2891" lon="-0.29206">
        <ele>82.6</ele>
        <time>2022-04-03T18:23:41Z</time>
      </trkpt>
      <trkpt lat="46.28913" lon="-0.29204">
        <ele>82.6</ele>
        <time>2022-04-03T18:23:42Z</time>
      </trkpt>
      <trkpt lat="46.28916" lon="-0.29202">
        <ele>82.8</ele>
        <time>2022-04-03T18:23:43Z</time>
      </trkpt>
      <trkpt lat="46.28919" lon="-0.292">
        <ele>82.6</ele>
        <time>2022-04-03T18:23:44Z</time>
      </trkpt>
      <trkpt lat="46.28922" lon="-0.29198">
        <ele>82.8</ele>
        <time>2022-04-03T18:23:45Z</time>
      </trkpt>
      <trkpt lat="46.28925" lon="-0.29195">
        <ele>82.8</ele>
        <time>2022-04-03T18:23:46Z</time>
      </trkpt>
      <trkpt lat="46.28927" lon="-0.29192">
        <ele>82.8</ele>
        <time>2022-04-03T18:23:47Z</time>
      </trkpt>
      <trkpt lat="46.2893" lon="-0.29189">
        <ele>82.8</ele>
        <time>2022-04-03T18:23:48Z</time>
      </trkpt>
      <trkpt lat="46.28933" lon="-0.29186">
        <ele>82.8</ele>
        <time>2022-04-03T18:23:49Z</time>
      </trkpt>
      <trkpt lat="46.28936" lon="-0.29183">
        <ele>82.6</ele>
        <time>2022-04-03T18:23:50Z</time>
      </trkpt>
      <trkpt lat="46.28939" lon="-0.2918">
        <ele>82.6</ele>
        <time>2022-04-03T18:23:51Z</time>
      </trkpt>
      <trkpt lat="46.28942" lon="-0.29177">
        <ele>82.6</ele>
        <time>2022-04-03T18:23:52Z</time>
      </trkpt>
      <trkpt lat="46.28945" lon="-0.29173">
        <ele>82.8</ele>
        <time>2022-04-03T18:23:53Z</time>
      </trkpt>
      <trkpt lat="46.28948" lon="-0.2917">
        <ele>82.8</ele>
        <time>2022-04-03T18:23:54Z</time>
      </trkpt>
      <trkpt lat="46.28951" lon="-0.29165">
        <ele>82.6</ele>
        <time>2022-04-03T18:23:55Z</time>
      </trkpt>
      <trkpt lat="46.28954" lon="-0.29161">
        <ele>82.4</ele>
        <time>2022-04-03T18:23:56Z</time>
      </trkpt>
      <trkpt lat="46.28957" lon="-0.29158">
        <ele>82.2</ele>
        <time>2022-04-03T18:23:57Z</time>
      </trkpt>
      <trkpt lat="46.28961" lon="-0.29155">
        <ele>82.2</ele>
        <time>2022-04-03T18:23:58Z</time>
      </trkpt>
      <trkpt lat="46.28965" lon="-0.29151">
        <ele>82</ele>
        <time>2022-04-03T18:23:59Z</time>
      </trkpt>
      <trkpt lat="46.28969" lon="-0.29148">
        <ele>82</ele>
        <time>2022-04-03T18:24:00Z</time>
      </trkpt>
      <trkpt lat="46.28973" lon="-0.29144">
        <ele>82</ele>
        <time>2022-04-03T18:24:01Z</time>
      </trkpt>
      <trkpt lat="46.28977" lon="-0.2914">
        <ele>82</ele>
        <time>2022-04-03T18:24:02Z</time>
      </trkpt>
      <trkpt lat="46.28981" lon="-0.29136">
        <ele>81.6</ele>
        <time>2022-04-03T18:24:03Z</time>
      </trkpt>
      <trkpt lat="46.28985" lon="-0.29132">
        <ele>81.4</ele>
        <time>2022-04-03T18:24:04Z</time>
      </trkpt>
      <trkpt lat="46.28989" lon="-0.29128">
        <ele>81.2</ele>
        <time>2022-04-03T18:24:05Z</time>
      </trkpt>
      <trkpt lat="46.28994" lon="-0.29124">
        <ele>81</ele>
        <time>2022-04-03T18:24:06Z</time>
      </trkpt>
      <trkpt lat="46.28998" lon="-0.2912">
        <ele>81</ele>
        <time>2022-04-03T18:24:07Z</time>
      </trkpt>
      <trkpt lat="46.29003" lon="-0.29116">
        <ele>80.6</ele>
        <time>2022-04-03T18:24:08Z</time>
      </trkpt>
      <trkpt lat="46.29007" lon="-0.29113">
        <ele>80.4</ele>
        <time>2022-04-03T18:24:09Z</time>
      </trkpt>
      <trkpt lat="46.29012" lon="-0.29109">
        <ele>80.2</ele>
        <time>2022-04-03T18:24:10Z</time>
      </trkpt>
      <trkpt lat="46.29016" lon="-0.29105">
        <ele>80</ele>
        <time>2022-04-03T18:24:11Z</time>
      </trkpt>
      <trkpt lat="46.2902" lon="-0.29102">
        <ele>80</ele>
        <time>2022-04-03T18:24:12Z</time>
      </trkpt>
      <trkpt lat="46.29025" lon="-0.29098">
        <ele>79.8</ele>
        <time>2022-04-03T18:24:13Z</time>
      </trkpt>
      <trkpt lat="46.29029" lon="-0.29094">
        <ele>79.4</ele>
        <time>2022-04-03T18:24:14Z</time>
      </trkpt>
      <trkpt lat="46.29033" lon="-0.29091">
        <ele>79.2</ele>
        <time>2022-04-03T18:24:15Z</time>
      </trkpt>
      <trkpt lat="46.29037" lon="-0.29088">
        <ele>79.2</ele>
        <time>2022-04-03T18:24:16Z</time>
      </trkpt>
      <trkpt lat="46.29041" lon="-0.29084">
        <ele>79</ele>
        <time>2022-04-03T18:24:17Z</time>
      </trkpt>
      <trkpt lat="46.29045" lon="-0.2908">
        <ele>79</ele>
        <time>2022-04-03T18:24:18Z</time>
      </trkpt>
      <trkpt lat="46.29049" lon="-0.29077">
        <ele>79</ele>
        <time>2022-04-03T18:24:19Z</time>
      </trkpt>
      <trkpt lat="46.29054" lon="-0.29073">
        <ele>79</ele>
        <time>2022-04-03T18:24:20Z</time>
      </trkpt>
      <trkpt lat="46.29058" lon="-0.29069">
        <ele>79</ele>
        <time>2022-04-03T18:24:21Z</time>
      </trkpt>
      <trkpt lat="46.29063" lon="-0.29066">
        <ele>79</ele>
        <time>2022-04-03T18:24:22Z</time>
      </trkpt>
      <trkpt lat="46.29068" lon="-0.29062">
        <ele>79</ele>
        <time>2022-04-03T18:24:23Z</time>
      </trkpt>
      <trkpt lat="46.29072" lon="-0.29058">
        <ele>78.8</ele>
        <time>2022-04-03T18:24:24Z</time>
      </trkpt>
      <trkpt lat="46.29077" lon="-0.29053">
        <ele>78.8</ele>
        <time>2022-04-03T18:24:25Z</time>
      </trkpt>
      <trkpt lat="46.29082" lon="-0.29049">
        <ele>78.8</ele>
        <time>2022-04-03T18:24:26Z</time>
      </trkpt>
      <trkpt lat="46.29086" lon="-0.29045">
        <ele>78.8</ele>
        <time>2022-04-03T18:24:27Z</time>
      </trkpt>
      <trkpt lat="46.29091" lon="-0.29041">
        <ele>78.6</ele>
        <time>2022-04-03T18:24:28Z</time>
      </trkpt>
      <trkpt lat="46.29096" lon="-0.29037">
        <ele>78.4</ele>
        <time>2022-04-03T18:24:29Z</time>
      </trkpt>
      <trkpt lat="46.29101" lon="-0.29033">
        <ele>78.2</ele>
        <time>2022-04-03T18:24:30Z</time>
      </trkpt>
      <trkpt lat="46.29106" lon="-0.29029">
        <ele>78.2</ele>
        <time>2022-04-03T18:24:31Z</time>
      </trkpt>
      <trkpt lat="46.2911" lon="-0.29025">
        <ele>78.2</ele>
        <time>2022-04-03T18:24:32Z</time>
      </trkpt>
      <trkpt lat="46.29115" lon="-0.29021">
        <ele>78</ele>
        <time>2022-04-03T18:24:33Z</time>
      </trkpt>
      <trkpt lat="46.29119" lon="-0.29017">
        <ele>77.8</ele>
        <time>2022-04-03T18:24:34Z</time>
      </trkpt>
      <trkpt lat="46.29124" lon="-0.29013">
        <ele>78</ele>
        <time>2022-04-03T18:24:35Z</time>
      </trkpt>
      <trkpt lat="46.29129" lon="-0.29009">
        <ele>77.8</ele>
        <time>2022-04-03T18:24:36Z</time>
      </trkpt>
      <trkpt lat="46.29133" lon="-0.29004">
        <ele>77.8</ele>
        <time>2022-04-03T18:24:37Z</time>
      </trkpt>
      <trkpt lat="46.29138" lon="-0.29">
        <ele>77.8</ele>
        <time>2022-04-03T18:24:38Z</time>
      </trkpt>
      <trkpt lat="46.29143" lon="-0.28996">
        <ele>77.4</ele>
        <time>2022-04-03T18:24:39Z</time>
      </trkpt>
      <trkpt lat="46.29149" lon="-0.28992">
        <ele>77.2</ele>
        <time>2022-04-03T18:24:40Z</time>
      </trkpt>
      <trkpt lat="46.29154" lon="-0.28988">
        <ele>76.8</ele>
        <time>2022-04-03T18:24:41Z</time>
      </trkpt>
      <trkpt lat="46.29159" lon="-0.28983">
        <ele>77</ele>
        <time>2022-04-03T18:24:42Z</time>
      </trkpt>
      <trkpt lat="46.29164" lon="-0.28979">
        <ele>76.8</ele>
        <time>2022-04-03T18:24:43Z</time>
      </trkpt>
      <trkpt lat="46.2917" lon="-0.28974">
        <ele>76.4</ele>
        <time>2022-04-03T18:24:44Z</time>
      </trkpt>
      <trkpt lat="46.29175" lon="-0.28969">
        <ele>76.4</ele>
        <time>2022-04-03T18:24:45Z</time>
      </trkpt>
      <trkpt lat="46.29181" lon="-0.28964">
        <ele>76.2</ele>
        <time>2022-04-03T18:24:46Z</time>
      </trkpt>
      <trkpt lat="46.29186" lon="-0.2896">
        <ele>76</ele>
        <time>2022-04-03T18:24:47Z</time>
      </trkpt>
      <trkpt lat="46.29192" lon="-0.28955">
        <ele>75.8</ele>
        <time>2022-04-03T18:24:48Z</time>
      </trkpt>
      <trkpt lat="46.29198" lon="-0.28951">
        <ele>75.8</ele>
        <time>2022-04-03T18:24:49Z</time>
      </trkpt>
      <trkpt lat="46.29204" lon="-0.28947">
        <ele>75.6</ele>
        <time>2022-04-03T18:24:50Z</time>
      </trkpt>
      <trkpt lat="46.2921" lon="-0.28942">
        <ele>75.6</ele>
        <time>2022-04-03T18:24:51Z</time>
      </trkpt>
      <trkpt lat="46.29216" lon="-0.28938">
        <ele>75.2</ele>
        <time>2022-04-03T18:24:52Z</time>
      </trkpt>
      <trkpt lat="46.29221" lon="-0.28934">
        <ele>75</ele>
        <time>2022-04-03T18:24:53Z</time>
      </trkpt>
      <trkpt lat="46.29227" lon="-0.28929">
        <ele>74.6</ele>
        <time>2022-04-03T18:24:54Z</time>
      </trkpt>
      <trkpt lat="46.29233" lon="-0.28925">
        <ele>74.6</ele>
        <time>2022-04-03T18:24:55Z</time>
      </trkpt>
      <trkpt lat="46.29238" lon="-0.28921">
        <ele>74.2</ele>
        <time>2022-04-03T18:24:56Z</time>
      </trkpt>
      <trkpt lat="46.29243" lon="-0.28916">
        <ele>74.2</ele>
        <time>2022-04-03T18:24:57Z</time>
      </trkpt>
      <trkpt lat="46.29249" lon="-0.28912">
        <ele>74</ele>
        <time>2022-04-03T18:24:58Z</time>
      </trkpt>
      <trkpt lat="46.29254" lon="-0.28908">
        <ele>73.8</ele>
        <time>2022-04-03T18:24:59Z</time>
      </trkpt>
      <trkpt lat="46.29259" lon="-0.28904">
        <ele>73.8</ele>
        <time>2022-04-03T18:25:00Z</time>
      </trkpt>
      <trkpt lat="46.29265" lon="-0.289">
        <ele>73.8</ele>
        <time>2022-04-03T18:25:01Z</time>
      </trkpt>
      <trkpt lat="46.2927" lon="-0.28895">
        <ele>73.8</ele>
        <time>2022-04-03T18:25:02Z</time>
      </trkpt>
      <trkpt lat="46.29275" lon="-0.28892">
        <ele>73.6</ele>
        <time>2022-04-03T18:25:03Z</time>
      </trkpt>
      <trkpt lat="46.2928" lon="-0.28888">
        <ele>73.8</ele>
        <time>2022-04-03T18:25:04Z</time>
      </trkpt>
      <trkpt lat="46.29286" lon="-0.28884">
        <ele>73.8</ele>
        <time>2022-04-03T18:25:05Z</time>
      </trkpt>
      <trkpt lat="46.2929" lon="-0.28879">
        <ele>73.6</ele>
        <time>2022-04-03T18:25:06Z</time>
      </trkpt>
      <trkpt lat="46.29295" lon="-0.28875">
        <ele>73.6</ele>
        <time>2022-04-03T18:25:07Z</time>
      </trkpt>
      <trkpt lat="46.293" lon="-0.28871">
        <ele>73.6</ele>
        <time>2022-04-03T18:25:08Z</time>
      </trkpt>
      <trkpt lat="46.29305" lon="-0.28867">
        <ele>73.6</ele>
        <time>2022-04-03T18:25:09Z</time>
      </trkpt>
      <trkpt lat="46.2931" lon="-0.28863">
        <ele>73.4</ele>
        <time>2022-04-03T18:25:10Z</time>
      </trkpt>
      <trkpt lat="46.29315" lon="-0.28859">
        <ele>73.6</ele>
        <time>2022-04-03T18:25:11Z</time>
      </trkpt>
      <trkpt lat="46.2932" lon="-0.28855">
        <ele>73.4</ele>
        <time>2022-04-03T18:25:12Z</time>
      </trkpt>
      <trkpt lat="46.29326" lon="-0.28851">
        <ele>73.4</ele>
        <time>2022-04-03T18:25:13Z</time>
      </trkpt>
      <trkpt lat="46.29331" lon="-0.28847">
        <ele>73.6</ele>
        <time>2022-04-03T18:25:14Z</time>
      </trkpt>
      <trkpt lat="46.29336" lon="-0.28843">
        <ele>73.6</ele>
        <time>2022-04-03T18:25:15Z</time>
      </trkpt>
      <trkpt lat="46.29341" lon="-0.28839">
        <ele>73.6</ele>
        <time>2022-04-03T18:25:16Z</time>
      </trkpt>
      <trkpt lat="46.29346" lon="-0.28835">
        <ele>73.6</ele>
        <time>2022-04-03T18:25:17Z</time>
      </trkpt>
      <trkpt lat="46.2935" lon="-0.28831">
        <ele>73.8</ele>
        <time>2022-04-03T18:25:18Z</time>
      </trkpt>
      <trkpt lat="46.29355" lon="-0.28828">
        <ele>73.8</ele>
        <time>2022-04-03T18:25:19Z</time>
      </trkpt>
      <trkpt lat="46.2936" lon="-0.28824">
        <ele>73.8</ele>
        <time>2022-04-03T18:25:20Z</time>
      </trkpt>
      <trkpt lat="46.29364" lon="-0.2882">
        <ele>73.8</ele>
        <time>2022-04-03T18:25:21Z</time>
      </trkpt>
      <trkpt lat="46.29369" lon="-0.28817">
        <ele>73.8</ele>
        <time>2022-04-03T18:25:22Z</time>
      </trkpt>
      <trkpt lat="46.29374" lon="-0.28814">
        <ele>73.8</ele>
        <time>2022-04-03T18:25:23Z</time>
      </trkpt>
      <trkpt lat="46.29379" lon="-0.2881">
        <ele>73.8</ele>
        <time>2022-04-03T18:25:24Z</time>
      </trkpt>
      <trkpt lat="46.29383" lon="-0.28807">
        <ele>73.8</ele>
        <time>2022-04-03T18:25:25Z</time>
      </trkpt>
      <trkpt lat="46.29388" lon="-0.28804">
        <ele>74</ele>
        <time>2022-04-03T18:25:26Z</time>
      </trkpt>
      <trkpt lat="46.29392" lon="-0.288">
        <ele>73.8</ele>
        <time>2022-04-03T18:25:27Z</time>
      </trkpt>
      <trkpt lat="46.29397" lon="-0.28797">
        <ele>74.2</ele>
        <time>2022-04-03T18:25:28Z</time>
      </trkpt>
      <trkpt lat="46.29401" lon="-0.28793">
        <ele>74.2</ele>
        <time>2022-04-03T18:25:29Z</time>
      </trkpt>
      <trkpt lat="46.29405" lon="-0.28789">
        <ele>74</ele>
        <time>2022-04-03T18:25:30Z</time>
      </trkpt>
      <trkpt lat="46.2941" lon="-0.28786">
        <ele>74.2</ele>
        <time>2022-04-03T18:25:31Z</time>
      </trkpt>
      <trkpt lat="46.29414" lon="-0.28783">
        <ele>74.2</ele>
        <time>2022-04-03T18:25:32Z</time>
      </trkpt>
      <trkpt lat="46.29418" lon="-0.2878">
        <ele>74.4</ele>
        <time>2022-04-03T18:25:33Z</time>
      </trkpt>
      <trkpt lat="46.29422" lon="-0.28776">
        <ele>74.6</ele>
        <time>2022-04-03T18:25:34Z</time>
      </trkpt>
      <trkpt lat="46.29426" lon="-0.28773">
        <ele>74.6</ele>
        <time>2022-04-03T18:25:35Z</time>
      </trkpt>
      <trkpt lat="46.29429" lon="-0.2877">
        <ele>74.6</ele>
        <time>2022-04-03T18:25:36Z</time>
      </trkpt>
      <trkpt lat="46.29432" lon="-0.28766">
        <ele>74.6</ele>
        <time>2022-04-03T18:25:37Z</time>
      </trkpt>
      <trkpt lat="46.29435" lon="-0.28763">
        <ele>74.6</ele>
        <time>2022-04-03T18:25:38Z</time>
      </trkpt>
      <trkpt lat="46.29439" lon="-0.28759">
        <ele>74.6</ele>
        <time>2022-04-03T18:25:39Z</time>
      </trkpt>
      <trkpt lat="46.29442" lon="-0.28755">
        <ele>74.6</ele>
        <time>2022-04-03T18:25:40Z</time>
      </trkpt>
      <trkpt lat="46.29446" lon="-0.28751">
        <ele>74.6</ele>
        <time>2022-04-03T18:25:41Z</time>
      </trkpt>
      <trkpt lat="46.2945" lon="-0.28747">
        <ele>74.6</ele>
        <time>2022-04-03T18:25:42Z</time>
      </trkpt>
      <trkpt lat="46.29455" lon="-0.28743">
        <ele>74.8</ele>
        <time>2022-04-03T18:25:43Z</time>
      </trkpt>
      <trkpt lat="46.2946" lon="-0.2874">
        <ele>74.6</ele>
        <time>2022-04-03T18:25:44Z</time>
      </trkpt>
      <trkpt lat="46.29464" lon="-0.28738">
        <ele>74.6</ele>
        <time>2022-04-03T18:25:45Z</time>
      </trkpt>
      <trkpt lat="46.29469" lon="-0.28736">
        <ele>74.6</ele>
        <time>2022-04-03T18:25:46Z</time>
      </trkpt>
      <trkpt lat="46.29474" lon="-0.28735">
        <ele>74.8</ele>
        <time>2022-04-03T18:25:47Z</time>
      </trkpt>
      <trkpt lat="46.29479" lon="-0.28734">
        <ele>74.8</ele>
        <time>2022-04-03T18:25:48Z</time>
      </trkpt>
      <trkpt lat="46.29483" lon="-0.28733">
        <ele>74.6</ele>
        <time>2022-04-03T18:25:49Z</time>
      </trkpt>
      <trkpt lat="46.29487" lon="-0.28732">
        <ele>74.6</ele>
        <time>2022-04-03T18:25:50Z</time>
      </trkpt>
      <trkpt lat="46.29491" lon="-0.28731">
        <ele>74.4</ele>
        <time>2022-04-03T18:25:51Z</time>
      </trkpt>
      <trkpt lat="46.29494" lon="-0.2873">
        <ele>74.4</ele>
        <time>2022-04-03T18:25:52Z</time>
      </trkpt>
      <trkpt lat="46.29497" lon="-0.2873">
        <ele>74.2</ele>
        <time>2022-04-03T18:25:53Z</time>
      </trkpt>
      <trkpt lat="46.295" lon="-0.2873">
        <ele>74.2</ele>
        <time>2022-04-03T18:25:54Z</time>
      </trkpt>
      <trkpt lat="46.29503" lon="-0.2873">
        <ele>74.2</ele>
        <time>2022-04-03T18:25:55Z</time>
      </trkpt>
      <trkpt lat="46.29507" lon="-0.28731">
        <ele>74.2</ele>
        <time>2022-04-03T18:25:56Z</time>
      </trkpt>
      <trkpt lat="46.29511" lon="-0.28731">
        <ele>74.4</ele>
        <time>2022-04-03T18:25:57Z</time>
      </trkpt>
      <trkpt lat="46.29514" lon="-0.28731">
        <ele>74.2</ele>
        <time>2022-04-03T18:25:58Z</time>
      </trkpt>
      <trkpt lat="46.29517" lon="-0.28731">
        <ele>74.4</ele>
        <time>2022-04-03T18:25:59Z</time>
      </trkpt>
      <trkpt lat="46.29521" lon="-0.28729">
        <ele>74.2</ele>
        <time>2022-04-03T18:26:00Z</time>
      </trkpt>
      <trkpt lat="46.29523" lon="-0.28725">
        <ele>74.2</ele>
        <time>2022-04-03T18:26:01Z</time>
      </trkpt>
      <trkpt lat="46.29524" lon="-0.28719">
        <ele>74.4</ele>
        <time>2022-04-03T18:26:02Z</time>
      </trkpt>
      <trkpt lat="46.29524" lon="-0.28713">
        <ele>74.2</ele>
        <time>2022-04-03T18:26:03Z</time>
      </trkpt>
      <trkpt lat="46.29523" lon="-0.28707">
        <ele>74.2</ele>
        <time>2022-04-03T18:26:04Z</time>
      </trkpt>
      <trkpt lat="46.29523" lon="-0.28701">
        <ele>74.2</ele>
        <time>2022-04-03T18:26:05Z</time>
      </trkpt>
      <trkpt lat="46.29523" lon="-0.28695">
        <ele>74.2</ele>
        <time>2022-04-03T18:26:06Z</time>
      </trkpt>
      <trkpt lat="46.29523" lon="-0.28688">
        <ele>74.2</ele>
        <time>2022-04-03T18:26:07Z</time>
      </trkpt>
      <trkpt lat="46.29524" lon="-0.28681">
        <ele>74.2</ele>
        <time>2022-04-03T18:26:08Z</time>
      </trkpt>
      <trkpt lat="46.29526" lon="-0.28674">
        <ele>74</ele>
        <time>2022-04-03T18:26:09Z</time>
      </trkpt>
      <trkpt lat="46.29528" lon="-0.28667">
        <ele>74</ele>
        <time>2022-04-03T18:26:10Z</time>
      </trkpt>
      <trkpt lat="46.29531" lon="-0.28659">
        <ele>73.8</ele>
        <time>2022-04-03T18:26:11Z</time>
      </trkpt>
      <trkpt lat="46.29533" lon="-0.28652">
        <ele>73.8</ele>
        <time>2022-04-03T18:26:12Z</time>
      </trkpt>
      <trkpt lat="46.29534" lon="-0.28645">
        <ele>73.4</ele>
        <time>2022-04-03T18:26:13Z</time>
      </trkpt>
      <trkpt lat="46.29534" lon="-0.28638">
        <ele>73.4</ele>
        <time>2022-04-03T18:26:14Z</time>
      </trkpt>
      <trkpt lat="46.29534" lon="-0.2863">
        <ele>73.2</ele>
        <time>2022-04-03T18:26:15Z</time>
      </trkpt>
      <trkpt lat="46.29536" lon="-0.28623">
        <ele>73</ele>
        <time>2022-04-03T18:26:16Z</time>
      </trkpt>
      <trkpt lat="46.29538" lon="-0.28617">
        <ele>72.6</ele>
        <time>2022-04-03T18:26:17Z</time>
      </trkpt>
      <trkpt lat="46.29541" lon="-0.2861">
        <ele>72</ele>
        <time>2022-04-03T18:26:18Z</time>
      </trkpt>
      <trkpt lat="46.29544" lon="-0.28603">
        <ele>71.8</ele>
        <time>2022-04-03T18:26:19Z</time>
      </trkpt>
      <trkpt lat="46.29547" lon="-0.28596">
        <ele>71.4</ele>
        <time>2022-04-03T18:26:20Z</time>
      </trkpt>
      <trkpt lat="46.29549" lon="-0.28589">
        <ele>71.2</ele>
        <time>2022-04-03T18:26:21Z</time>
      </trkpt>
      <trkpt lat="46.29551" lon="-0.28582">
        <ele>70.8</ele>
        <time>2022-04-03T18:26:22Z</time>
      </trkpt>
      <trkpt lat="46.29553" lon="-0.28574">
        <ele>70.6</ele>
        <time>2022-04-03T18:26:23Z</time>
      </trkpt>
      <trkpt lat="46.29555" lon="-0.28568">
        <ele>70.2</ele>
        <time>2022-04-03T18:26:24Z</time>
      </trkpt>
      <trkpt lat="46.29558" lon="-0.28561">
        <ele>70</ele>
        <time>2022-04-03T18:26:25Z</time>
      </trkpt>
      <trkpt lat="46.29561" lon="-0.28554">
        <ele>69.2</ele>
        <time>2022-04-03T18:26:26Z</time>
      </trkpt>
      <trkpt lat="46.29563" lon="-0.28548">
        <ele>68.8</ele>
        <time>2022-04-03T18:26:27Z</time>
      </trkpt>
      <trkpt lat="46.29566" lon="-0.28541">
        <ele>68.4</ele>
        <time>2022-04-03T18:26:28Z</time>
      </trkpt>
      <trkpt lat="46.29568" lon="-0.28535">
        <ele>68.4</ele>
        <time>2022-04-03T18:26:29Z</time>
      </trkpt>
      <trkpt lat="46.2957" lon="-0.28527">
        <ele>68.2</ele>
        <time>2022-04-03T18:26:30Z</time>
      </trkpt>
      <trkpt lat="46.29571" lon="-0.2852">
        <ele>68.2</ele>
        <time>2022-04-03T18:26:31Z</time>
      </trkpt>
      <trkpt lat="46.29571" lon="-0.28512">
        <ele>68</ele>
        <time>2022-04-03T18:26:32Z</time>
      </trkpt>
      <trkpt lat="46.29572" lon="-0.28505">
        <ele>68</ele>
        <time>2022-04-03T18:26:33Z</time>
      </trkpt>
      <trkpt lat="46.29573" lon="-0.28497">
        <ele>68.2</ele>
        <time>2022-04-03T18:26:34Z</time>
      </trkpt>
      <trkpt lat="46.29573" lon="-0.2849">
        <ele>68</ele>
        <time>2022-04-03T18:26:35Z</time>
      </trkpt>
      <trkpt lat="46.29573" lon="-0.28483">
        <ele>68</ele>
        <time>2022-04-03T18:26:36Z</time>
      </trkpt>
      <trkpt lat="46.29572" lon="-0.28476">
        <ele>68</ele>
        <time>2022-04-03T18:26:37Z</time>
      </trkpt>
      <trkpt lat="46.29571" lon="-0.2847">
        <ele>68</ele>
        <time>2022-04-03T18:26:38Z</time>
      </trkpt>
      <trkpt lat="46.2957" lon="-0.28463">
        <ele>68.2</ele>
        <time>2022-04-03T18:26:39Z</time>
      </trkpt>
      <trkpt lat="46.29569" lon="-0.28456">
        <ele>68</ele>
        <time>2022-04-03T18:26:40Z</time>
      </trkpt>
      <trkpt lat="46.29569" lon="-0.2845">
        <ele>68.2</ele>
        <time>2022-04-03T18:26:41Z</time>
      </trkpt>
      <trkpt lat="46.29568" lon="-0.28444">
        <ele>68.2</ele>
        <time>2022-04-03T18:26:42Z</time>
      </trkpt>
      <trkpt lat="46.29568" lon="-0.28437">
        <ele>68.2</ele>
        <time>2022-04-03T18:26:43Z</time>
      </trkpt>
      <trkpt lat="46.29568" lon="-0.28431">
        <ele>68.2</ele>
        <time>2022-04-03T18:26:44Z</time>
      </trkpt>
      <trkpt lat="46.29568" lon="-0.28425">
        <ele>68.2</ele>
        <time>2022-04-03T18:26:45Z</time>
      </trkpt>
      <trkpt lat="46.29569" lon="-0.28419">
        <ele>68.4</ele>
        <time>2022-04-03T18:26:46Z</time>
      </trkpt>
      <trkpt lat="46.2957" lon="-0.28413">
        <ele>68.4</ele>
        <time>2022-04-03T18:26:47Z</time>
      </trkpt>
      <trkpt lat="46.29572" lon="-0.28407">
        <ele>68.6</ele>
        <time>2022-04-03T18:26:48Z</time>
      </trkpt>
      <trkpt lat="46.29574" lon="-0.28402">
        <ele>68.8</ele>
        <time>2022-04-03T18:26:49Z</time>
      </trkpt>
      <trkpt lat="46.29576" lon="-0.28396">
        <ele>68.8</ele>
        <time>2022-04-03T18:26:50Z</time>
      </trkpt>
      <trkpt lat="46.29578" lon="-0.28391">
        <ele>68.8</ele>
        <time>2022-04-03T18:26:51Z</time>
      </trkpt>
      <trkpt lat="46.2958" lon="-0.28386">
        <ele>68.8</ele>
        <time>2022-04-03T18:26:52Z</time>
      </trkpt>
      <trkpt lat="46.29582" lon="-0.28381">
        <ele>69</ele>
        <time>2022-04-03T18:26:53Z</time>
      </trkpt>
      <trkpt lat="46.29584" lon="-0.28376">
        <ele>69</ele>
        <time>2022-04-03T18:26:54Z</time>
      </trkpt>
      <trkpt lat="46.29587" lon="-0.28371">
        <ele>69.2</ele>
        <time>2022-04-03T18:26:55Z</time>
      </trkpt>
      <trkpt lat="46.29589" lon="-0.28366">
        <ele>69.2</ele>
        <time>2022-04-03T18:26:56Z</time>
      </trkpt>
      <trkpt lat="46.29592" lon="-0.28361">
        <ele>69.6</ele>
        <time>2022-04-03T18:26:57Z</time>
      </trkpt>
      <trkpt lat="46.29594" lon="-0.28356">
        <ele>69.6</ele>
        <time>2022-04-03T18:26:58Z</time>
      </trkpt>
      <trkpt lat="46.29596" lon="-0.28351">
        <ele>69.6</ele>
        <time>2022-04-03T18:26:59Z</time>
      </trkpt>
      <trkpt lat="46.29599" lon="-0.28346">
        <ele>69.8</ele>
        <time>2022-04-03T18:27:00Z</time>
      </trkpt>
      <trkpt lat="46.29601" lon="-0.28341">
        <ele>69.8</ele>
        <time>2022-04-03T18:27:01Z</time>
      </trkpt>
      <trkpt lat="46.29604" lon="-0.28336">
        <ele>70</ele>
        <time>2022-04-03T18:27:02Z</time>
      </trkpt>
      <trkpt lat="46.29606" lon="-0.28331">
        <ele>70</ele>
        <time>2022-04-03T18:27:03Z</time>
      </trkpt>
      <trkpt lat="46.29609" lon="-0.28326">
        <ele>70</ele>
        <time>2022-04-03T18:27:04Z</time>
      </trkpt>
      <trkpt lat="46.29612" lon="-0.28321">
        <ele>70.2</ele>
        <time>2022-04-03T18:27:05Z</time>
      </trkpt>
      <trkpt lat="46.29614" lon="-0.28316">
        <ele>70.4</ele>
        <time>2022-04-03T18:27:06Z</time>
      </trkpt>
      <trkpt lat="46.29617" lon="-0.28311">
        <ele>70.6</ele>
        <time>2022-04-03T18:27:07Z</time>
      </trkpt>
      <trkpt lat="46.2962" lon="-0.28306">
        <ele>70.6</ele>
        <time>2022-04-03T18:27:08Z</time>
      </trkpt>
      <trkpt lat="46.29623" lon="-0.28302">
        <ele>70.8</ele>
        <time>2022-04-03T18:27:09Z</time>
      </trkpt>
      <trkpt lat="46.29626" lon="-0.28298">
        <ele>71</ele>
        <time>2022-04-03T18:27:10Z</time>
      </trkpt>
      <trkpt lat="46.29629" lon="-0.28294">
        <ele>71</ele>
        <time>2022-04-03T18:27:11Z</time>
      </trkpt>
      <trkpt lat="46.29633" lon="-0.2829">
        <ele>71</ele>
        <time>2022-04-03T18:27:12Z</time>
      </trkpt>
      <trkpt lat="46.29636" lon="-0.28286">
        <ele>71</ele>
        <time>2022-04-03T18:27:13Z</time>
      </trkpt>
      <trkpt lat="46.29639" lon="-0.28281">
        <ele>71.2</ele>
        <time>2022-04-03T18:27:14Z</time>
      </trkpt>
      <trkpt lat="46.29642" lon="-0.28277">
        <ele>71.2</ele>
        <time>2022-04-03T18:27:15Z</time>
      </trkpt>
      <trkpt lat="46.29646" lon="-0.28273">
        <ele>71.6</ele>
        <time>2022-04-03T18:27:16Z</time>
      </trkpt>
      <trkpt lat="46.29649" lon="-0.28269">
        <ele>71.6</ele>
        <time>2022-04-03T18:27:17Z</time>
      </trkpt>
      <trkpt lat="46.29652" lon="-0.28264">
        <ele>71.8</ele>
        <time>2022-04-03T18:27:18Z</time>
      </trkpt>
      <trkpt lat="46.29655" lon="-0.28259">
        <ele>71.8</ele>
        <time>2022-04-03T18:27:19Z</time>
      </trkpt>
      <trkpt lat="46.29657" lon="-0.28254">
        <ele>71.8</ele>
        <time>2022-04-03T18:27:20Z</time>
      </trkpt>
      <trkpt lat="46.2966" lon="-0.28249">
        <ele>72</ele>
        <time>2022-04-03T18:27:21Z</time>
      </trkpt>
      <trkpt lat="46.29662" lon="-0.28243">
        <ele>72</ele>
        <time>2022-04-03T18:27:22Z</time>
      </trkpt>
      <trkpt lat="46.29664" lon="-0.28237">
        <ele>72</ele>
        <time>2022-04-03T18:27:23Z</time>
      </trkpt>
      <trkpt lat="46.29666" lon="-0.28231">
        <ele>72</ele>
        <time>2022-04-03T18:27:24Z</time>
      </trkpt>
      <trkpt lat="46.29667" lon="-0.28225">
        <ele>72.2</ele>
        <time>2022-04-03T18:27:25Z</time>
      </trkpt>
      <trkpt lat="46.29669" lon="-0.28219">
        <ele>72</ele>
        <time>2022-04-03T18:27:26Z</time>
      </trkpt>
      <trkpt lat="46.2967" lon="-0.28213">
        <ele>72.2</ele>
        <time>2022-04-03T18:27:27Z</time>
      </trkpt>
      <trkpt lat="46.29671" lon="-0.28207">
        <ele>72.4</ele>
        <time>2022-04-03T18:27:28Z</time>
      </trkpt>
      <trkpt lat="46.29672" lon="-0.28201">
        <ele>72.2</ele>
        <time>2022-04-03T18:27:29Z</time>
      </trkpt>
      <trkpt lat="46.29673" lon="-0.28194">
        <ele>72.2</ele>
        <time>2022-04-03T18:27:30Z</time>
      </trkpt>
      <trkpt lat="46.29674" lon="-0.28188">
        <ele>72.2</ele>
        <time>2022-04-03T18:27:31Z</time>
      </trkpt>
      <trkpt lat="46.29675" lon="-0.28183">
        <ele>72.2</ele>
        <time>2022-04-03T18:27:32Z</time>
      </trkpt>
      <trkpt lat="46.29677" lon="-0.28177">
        <ele>72.4</ele>
        <time>2022-04-03T18:27:33Z</time>
      </trkpt>
      <trkpt lat="46.29679" lon="-0.28172">
        <ele>72.4</ele>
        <time>2022-04-03T18:27:34Z</time>
      </trkpt>
      <trkpt lat="46.2968" lon="-0.28166">
        <ele>72.6</ele>
        <time>2022-04-03T18:27:35Z</time>
      </trkpt>
      <trkpt lat="46.2968" lon="-0.2816">
        <ele>72.6</ele>
        <time>2022-04-03T18:27:36Z</time>
      </trkpt>
      <trkpt lat="46.29681" lon="-0.28154">
        <ele>72.6</ele>
        <time>2022-04-03T18:27:37Z</time>
      </trkpt>
      <trkpt lat="46.29682" lon="-0.28148">
        <ele>72.8</ele>
        <time>2022-04-03T18:27:38Z</time>
      </trkpt>
      <trkpt lat="46.29683" lon="-0.28142">
        <ele>72.8</ele>
        <time>2022-04-03T18:27:39Z</time>
      </trkpt>
      <trkpt lat="46.29684" lon="-0.28136">
        <ele>73</ele>
        <time>2022-04-03T18:27:40Z</time>
      </trkpt>
      <trkpt lat="46.29684" lon="-0.28131">
        <ele>73</ele>
        <time>2022-04-03T18:27:41Z</time>
      </trkpt>
      <trkpt lat="46.29685" lon="-0.28125">
        <ele>73.4</ele>
        <time>2022-04-03T18:27:42Z</time>
      </trkpt>
      <trkpt lat="46.29685" lon="-0.28119">
        <ele>73.6</ele>
        <time>2022-04-03T18:27:43Z</time>
      </trkpt>
      <trkpt lat="46.29686" lon="-0.28113">
        <ele>73.6</ele>
        <time>2022-04-03T18:27:44Z</time>
      </trkpt>
      <trkpt lat="46.29687" lon="-0.28108">
        <ele>73.6</ele>
        <time>2022-04-03T18:27:45Z</time>
      </trkpt>
      <trkpt lat="46.29688" lon="-0.28102">
        <ele>73.8</ele>
        <time>2022-04-03T18:27:46Z</time>
      </trkpt>
      <trkpt lat="46.29688" lon="-0.28096">
        <ele>73.6</ele>
        <time>2022-04-03T18:27:47Z</time>
      </trkpt>
      <trkpt lat="46.29689" lon="-0.28091">
        <ele>74</ele>
        <time>2022-04-03T18:27:48Z</time>
      </trkpt>
      <trkpt lat="46.29691" lon="-0.28085">
        <ele>74</ele>
        <time>2022-04-03T18:27:49Z</time>
      </trkpt>
      <trkpt lat="46.29692" lon="-0.2808">
        <ele>73.8</ele>
        <time>2022-04-03T18:27:50Z</time>
      </trkpt>
      <trkpt lat="46.29693" lon="-0.28075">
        <ele>74</ele>
        <time>2022-04-03T18:27:51Z</time>
      </trkpt>
      <trkpt lat="46.29695" lon="-0.2807">
        <ele>74</ele>
        <time>2022-04-03T18:27:52Z</time>
      </trkpt>
      <trkpt lat="46.29696" lon="-0.28065">
        <ele>74.2</ele>
        <time>2022-04-03T18:27:53Z</time>
      </trkpt>
      <trkpt lat="46.29697" lon="-0.28059">
        <ele>74.4</ele>
        <time>2022-04-03T18:27:54Z</time>
      </trkpt>
      <trkpt lat="46.29698" lon="-0.28054">
        <ele>74.6</ele>
        <time>2022-04-03T18:27:55Z</time>
      </trkpt>
      <trkpt lat="46.29699" lon="-0.28048">
        <ele>74.6</ele>
        <time>2022-04-03T18:27:56Z</time>
      </trkpt>
      <trkpt lat="46.29701" lon="-0.28043">
        <ele>75</ele>
        <time>2022-04-03T18:27:57Z</time>
      </trkpt>
      <trkpt lat="46.29702" lon="-0.28038">
        <ele>74.8</ele>
        <time>2022-04-03T18:27:58Z</time>
      </trkpt>
      <trkpt lat="46.29704" lon="-0.28033">
        <ele>75</ele>
        <time>2022-04-03T18:27:59Z</time>
      </trkpt>
      <trkpt lat="46.29705" lon="-0.28027">
        <ele>75.2</ele>
        <time>2022-04-03T18:28:00Z</time>
      </trkpt>
      <trkpt lat="46.29707" lon="-0.28022">
        <ele>75.2</ele>
        <time>2022-04-03T18:28:01Z</time>
      </trkpt>
      <trkpt lat="46.29709" lon="-0.28017">
        <ele>75.4</ele>
        <time>2022-04-03T18:28:02Z</time>
      </trkpt>
      <trkpt lat="46.2971" lon="-0.28012">
        <ele>75.6</ele>
        <time>2022-04-03T18:28:03Z</time>
      </trkpt>
      <trkpt lat="46.29712" lon="-0.28007">
        <ele>75.6</ele>
        <time>2022-04-03T18:28:04Z</time>
      </trkpt>
      <trkpt lat="46.29713" lon="-0.28002">
        <ele>75.8</ele>
        <time>2022-04-03T18:28:05Z</time>
      </trkpt>
      <trkpt lat="46.29715" lon="-0.27997">
        <ele>75.8</ele>
        <time>2022-04-03T18:28:06Z</time>
      </trkpt>
      <trkpt lat="46.29717" lon="-0.27992">
        <ele>76</ele>
        <time>2022-04-03T18:28:07Z</time>
      </trkpt>
      <trkpt lat="46.29719" lon="-0.27987">
        <ele>76</ele>
        <time>2022-04-03T18:28:08Z</time>
      </trkpt>
      <trkpt lat="46.29721" lon="-0.27982">
        <ele>76.2</ele>
        <time>2022-04-03T18:28:09Z</time>
      </trkpt>
      <trkpt lat="46.29723" lon="-0.27977">
        <ele>76.4</ele>
        <time>2022-04-03T18:28:10Z</time>
      </trkpt>
      <trkpt lat="46.29725" lon="-0.27972">
        <ele>76.8</ele>
        <time>2022-04-03T18:28:11Z</time>
      </trkpt>
      <trkpt lat="46.29727" lon="-0.27967">
        <ele>76.8</ele>
        <time>2022-04-03T18:28:12Z</time>
      </trkpt>
      <trkpt lat="46.29729" lon="-0.27962">
        <ele>76.8</ele>
        <time>2022-04-03T18:28:13Z</time>
      </trkpt>
      <trkpt lat="46.29731" lon="-0.27957">
        <ele>77</ele>
        <time>2022-04-03T18:28:14Z</time>
      </trkpt>
      <trkpt lat="46.29733" lon="-0.27952">
        <ele>77</ele>
        <time>2022-04-03T18:28:15Z</time>
      </trkpt>
      <trkpt lat="46.29735" lon="-0.27947">
        <ele>77.2</ele>
        <time>2022-04-03T18:28:16Z</time>
      </trkpt>
      <trkpt lat="46.29738" lon="-0.27941">
        <ele>77.2</ele>
        <time>2022-04-03T18:28:17Z</time>
      </trkpt>
      <trkpt lat="46.2974" lon="-0.27937">
        <ele>77.2</ele>
        <time>2022-04-03T18:28:18Z</time>
      </trkpt>
      <trkpt lat="46.29742" lon="-0.27932">
        <ele>77.6</ele>
        <time>2022-04-03T18:28:19Z</time>
      </trkpt>
      <trkpt lat="46.29744" lon="-0.27927">
        <ele>77.6</ele>
        <time>2022-04-03T18:28:20Z</time>
      </trkpt>
      <trkpt lat="46.29746" lon="-0.27922">
        <ele>77.8</ele>
        <time>2022-04-03T18:28:21Z</time>
      </trkpt>
      <trkpt lat="46.29748" lon="-0.27917">
        <ele>77.8</ele>
        <time>2022-04-03T18:28:22Z</time>
      </trkpt>
      <trkpt lat="46.29751" lon="-0.27912">
        <ele>78</ele>
        <time>2022-04-03T18:28:23Z</time>
      </trkpt>
      <trkpt lat="46.29753" lon="-0.27908">
        <ele>78</ele>
        <time>2022-04-03T18:28:24Z</time>
      </trkpt>
      <trkpt lat="46.29756" lon="-0.27903">
        <ele>78</ele>
        <time>2022-04-03T18:28:25Z</time>
      </trkpt>
      <trkpt lat="46.29758" lon="-0.27898">
        <ele>78.2</ele>
        <time>2022-04-03T18:28:26Z</time>
      </trkpt>
      <trkpt lat="46.29761" lon="-0.27894">
        <ele>78.2</ele>
        <time>2022-04-03T18:28:27Z</time>
      </trkpt>
      <trkpt lat="46.29763" lon="-0.27889">
        <ele>78.2</ele>
        <time>2022-04-03T18:28:28Z</time>
      </trkpt>
      <trkpt lat="46.29765" lon="-0.27885">
        <ele>78.2</ele>
        <time>2022-04-03T18:28:29Z</time>
      </trkpt>
      <trkpt lat="46.29767" lon="-0.2788">
        <ele>78.4</ele>
        <time>2022-04-03T18:28:30Z</time>
      </trkpt>
      <trkpt lat="46.29769" lon="-0.27876">
        <ele>78.6</ele>
        <time>2022-04-03T18:28:31Z</time>
      </trkpt>
      <trkpt lat="46.29771" lon="-0.27871">
        <ele>78.8</ele>
        <time>2022-04-03T18:28:32Z</time>
      </trkpt>
      <trkpt lat="46.29773" lon="-0.27867">
        <ele>78.8</ele>
        <time>2022-04-03T18:28:33Z</time>
      </trkpt>
      <trkpt lat="46.29775" lon="-0.27862">
        <ele>79</ele>
        <time>2022-04-03T18:28:34Z</time>
      </trkpt>
      <trkpt lat="46.29778" lon="-0.27857">
        <ele>79</ele>
        <time>2022-04-03T18:28:35Z</time>
      </trkpt>
      <trkpt lat="46.2978" lon="-0.27853">
        <ele>79.4</ele>
        <time>2022-04-03T18:28:36Z</time>
      </trkpt>
      <trkpt lat="46.29782" lon="-0.27848">
        <ele>79.4</ele>
        <time>2022-04-03T18:28:37Z</time>
      </trkpt>
      <trkpt lat="46.29784" lon="-0.27843">
        <ele>79.6</ele>
        <time>2022-04-03T18:28:38Z</time>
      </trkpt>
      <trkpt lat="46.29786" lon="-0.27839">
        <ele>79.6</ele>
        <time>2022-04-03T18:28:39Z</time>
      </trkpt>
      <trkpt lat="46.29787" lon="-0.27834">
        <ele>79.8</ele>
        <time>2022-04-03T18:28:40Z</time>
      </trkpt>
      <trkpt lat="46.29789" lon="-0.27829">
        <ele>80</ele>
        <time>2022-04-03T18:28:41Z</time>
      </trkpt>
      <trkpt lat="46.29791" lon="-0.27824">
        <ele>80</ele>
        <time>2022-04-03T18:28:42Z</time>
      </trkpt>
      <trkpt lat="46.29792" lon="-0.27819">
        <ele>80</ele>
        <time>2022-04-03T18:28:43Z</time>
      </trkpt>
      <trkpt lat="46.29794" lon="-0.27814">
        <ele>80</ele>
        <time>2022-04-03T18:28:44Z</time>
      </trkpt>
      <trkpt lat="46.29796" lon="-0.27809">
        <ele>80</ele>
        <time>2022-04-03T18:28:45Z</time>
      </trkpt>
      <trkpt lat="46.29797" lon="-0.27804">
        <ele>80</ele>
        <time>2022-04-03T18:28:46Z</time>
      </trkpt>
      <trkpt lat="46.29799" lon="-0.27799">
        <ele>80.2</ele>
        <time>2022-04-03T18:28:47Z</time>
      </trkpt>
      <trkpt lat="46.29801" lon="-0.27794">
        <ele>80.4</ele>
        <time>2022-04-03T18:28:48Z</time>
      </trkpt>
      <trkpt lat="46.29802" lon="-0.27789">
        <ele>80.4</ele>
        <time>2022-04-03T18:28:49Z</time>
      </trkpt>
      <trkpt lat="46.29804" lon="-0.27784">
        <ele>80.6</ele>
        <time>2022-04-03T18:28:50Z</time>
      </trkpt>
      <trkpt lat="46.29805" lon="-0.27778">
        <ele>80.6</ele>
        <time>2022-04-03T18:28:51Z</time>
      </trkpt>
      <trkpt lat="46.29806" lon="-0.27773">
        <ele>80.8</ele>
        <time>2022-04-03T18:28:52Z</time>
      </trkpt>
      <trkpt lat="46.29808" lon="-0.27768">
        <ele>81</ele>
        <time>2022-04-03T18:28:53Z</time>
      </trkpt>
      <trkpt lat="46.29809" lon="-0.27763">
        <ele>81</ele>
        <time>2022-04-03T18:28:54Z</time>
      </trkpt>
      <trkpt lat="46.29811" lon="-0.27758">
        <ele>81</ele>
        <time>2022-04-03T18:28:55Z</time>
      </trkpt>
      <trkpt lat="46.29812" lon="-0.27753">
        <ele>81</ele>
        <time>2022-04-03T18:28:56Z</time>
      </trkpt>
      <trkpt lat="46.29814" lon="-0.27748">
        <ele>81.2</ele>
        <time>2022-04-03T18:28:57Z</time>
      </trkpt>
      <trkpt lat="46.29815" lon="-0.27743">
        <ele>81.4</ele>
        <time>2022-04-03T18:28:58Z</time>
      </trkpt>
      <trkpt lat="46.29817" lon="-0.27738">
        <ele>81.4</ele>
        <time>2022-04-03T18:28:59Z</time>
      </trkpt>
      <trkpt lat="46.29818" lon="-0.27733">
        <ele>81.6</ele>
        <time>2022-04-03T18:29:00Z</time>
      </trkpt>
      <trkpt lat="46.2982" lon="-0.27728">
        <ele>81.8</ele>
        <time>2022-04-03T18:29:01Z</time>
      </trkpt>
      <trkpt lat="46.29821" lon="-0.27723">
        <ele>81.8</ele>
        <time>2022-04-03T18:29:02Z</time>
      </trkpt>
      <trkpt lat="46.29823" lon="-0.27717">
        <ele>81.8</ele>
        <time>2022-04-03T18:29:03Z</time>
      </trkpt>
      <trkpt lat="46.29824" lon="-0.27712">
        <ele>81.8</ele>
        <time>2022-04-03T18:29:04Z</time>
      </trkpt>
      <trkpt lat="46.29825" lon="-0.27707">
        <ele>81.8</ele>
        <time>2022-04-03T18:29:05Z</time>
      </trkpt>
      <trkpt lat="46.29827" lon="-0.27702">
        <ele>81.8</ele>
        <time>2022-04-03T18:29:06Z</time>
      </trkpt>
      <trkpt lat="46.29828" lon="-0.27696">
        <ele>82</ele>
        <time>2022-04-03T18:29:07Z</time>
      </trkpt>
      <trkpt lat="46.2983" lon="-0.27691">
        <ele>82</ele>
        <time>2022-04-03T18:29:08Z</time>
      </trkpt>
      <trkpt lat="46.29831" lon="-0.27686">
        <ele>82.4</ele>
        <time>2022-04-03T18:29:09Z</time>
      </trkpt>
      <trkpt lat="46.29833" lon="-0.27681">
        <ele>82.4</ele>
        <time>2022-04-03T18:29:10Z</time>
      </trkpt>
      <trkpt lat="46.29834" lon="-0.27675">
        <ele>82.8</ele>
        <time>2022-04-03T18:29:11Z</time>
      </trkpt>
      <trkpt lat="46.29836" lon="-0.2767">
        <ele>82.8</ele>
        <time>2022-04-03T18:29:12Z</time>
      </trkpt>
      <trkpt lat="46.29837" lon="-0.27665">
        <ele>83</ele>
        <time>2022-04-03T18:29:13Z</time>
      </trkpt>
      <trkpt lat="46.29839" lon="-0.2766">
        <ele>83</ele>
        <time>2022-04-03T18:29:14Z</time>
      </trkpt>
      <trkpt lat="46.2984" lon="-0.27655">
        <ele>83.2</ele>
        <time>2022-04-03T18:29:15Z</time>
      </trkpt>
      <trkpt lat="46.29841" lon="-0.2765">
        <ele>83.2</ele>
        <time>2022-04-03T18:29:16Z</time>
      </trkpt>
      <trkpt lat="46.29843" lon="-0.27645">
        <ele>83.4</ele>
        <time>2022-04-03T18:29:17Z</time>
      </trkpt>
      <trkpt lat="46.29845" lon="-0.2764">
        <ele>83.4</ele>
        <time>2022-04-03T18:29:18Z</time>
      </trkpt>
      <trkpt lat="46.29846" lon="-0.27635">
        <ele>83.6</ele>
        <time>2022-04-03T18:29:19Z</time>
      </trkpt>
      <trkpt lat="46.29848" lon="-0.2763">
        <ele>83.6</ele>
        <time>2022-04-03T18:29:20Z</time>
      </trkpt>
      <trkpt lat="46.2985" lon="-0.27625">
        <ele>83.4</ele>
        <time>2022-04-03T18:29:21Z</time>
      </trkpt>
      <trkpt lat="46.29851" lon="-0.2762">
        <ele>83.4</ele>
        <time>2022-04-03T18:29:22Z</time>
      </trkpt>
      <trkpt lat="46.29854" lon="-0.27615">
        <ele>83.4</ele>
        <time>2022-04-03T18:29:23Z</time>
      </trkpt>
      <trkpt lat="46.29855" lon="-0.2761">
        <ele>83.6</ele>
        <time>2022-04-03T18:29:24Z</time>
      </trkpt>
      <trkpt lat="46.29857" lon="-0.27605">
        <ele>83.6</ele>
        <time>2022-04-03T18:29:25Z</time>
      </trkpt>
      <trkpt lat="46.29859" lon="-0.276">
        <ele>83.6</ele>
        <time>2022-04-03T18:29:26Z</time>
      </trkpt>
      <trkpt lat="46.29861" lon="-0.27595">
        <ele>83.8</ele>
        <time>2022-04-03T18:29:27Z</time>
      </trkpt>
      <trkpt lat="46.29863" lon="-0.2759">
        <ele>84.2</ele>
        <time>2022-04-03T18:29:28Z</time>
      </trkpt>
      <trkpt lat="46.29865" lon="-0.27586">
        <ele>84.2</ele>
        <time>2022-04-03T18:29:29Z</time>
      </trkpt>
      <trkpt lat="46.29867" lon="-0.27581">
        <ele>84.4</ele>
        <time>2022-04-03T18:29:30Z</time>
      </trkpt>
      <trkpt lat="46.2987" lon="-0.27576">
        <ele>84.4</ele>
        <time>2022-04-03T18:29:31Z</time>
      </trkpt>
      <trkpt lat="46.29872" lon="-0.27572">
        <ele>84.8</ele>
        <time>2022-04-03T18:29:32Z</time>
      </trkpt>
      <trkpt lat="46.29874" lon="-0.27567">
        <ele>84.6</ele>
        <time>2022-04-03T18:29:33Z</time>
      </trkpt>
      <trkpt lat="46.29876" lon="-0.27562">
        <ele>84.8</ele>
        <time>2022-04-03T18:29:34Z</time>
      </trkpt>
      <trkpt lat="46.29878" lon="-0.27558">
        <ele>85</ele>
        <time>2022-04-03T18:29:35Z</time>
      </trkpt>
      <trkpt lat="46.2988" lon="-0.27553">
        <ele>85</ele>
        <time>2022-04-03T18:29:36Z</time>
      </trkpt>
      <trkpt lat="46.29882" lon="-0.27548">
        <ele>85.2</ele>
        <time>2022-04-03T18:29:37Z</time>
      </trkpt>
      <trkpt lat="46.29884" lon="-0.27544">
        <ele>85</ele>
        <time>2022-04-03T18:29:38Z</time>
      </trkpt>
      <trkpt lat="46.29887" lon="-0.27539">
        <ele>85.2</ele>
        <time>2022-04-03T18:29:39Z</time>
      </trkpt>
      <trkpt lat="46.29889" lon="-0.27535">
        <ele>85.4</ele>
        <time>2022-04-03T18:29:40Z</time>
      </trkpt>
      <trkpt lat="46.29891" lon="-0.2753">
        <ele>85.6</ele>
        <time>2022-04-03T18:29:41Z</time>
      </trkpt>
      <trkpt lat="46.29893" lon="-0.27525">
        <ele>85.6</ele>
        <time>2022-04-03T18:29:42Z</time>
      </trkpt>
      <trkpt lat="46.29895" lon="-0.27521">
        <ele>85.8</ele>
        <time>2022-04-03T18:29:43Z</time>
      </trkpt>
      <trkpt lat="46.29898" lon="-0.27516">
        <ele>85.8</ele>
        <time>2022-04-03T18:29:44Z</time>
      </trkpt>
      <trkpt lat="46.299" lon="-0.27511">
        <ele>86</ele>
        <time>2022-04-03T18:29:45Z</time>
      </trkpt>
      <trkpt lat="46.29902" lon="-0.27506">
        <ele>86</ele>
        <time>2022-04-03T18:29:46Z</time>
      </trkpt>
      <trkpt lat="46.29904" lon="-0.27501">
        <ele>86</ele>
        <time>2022-04-03T18:29:47Z</time>
      </trkpt>
      <trkpt lat="46.29907" lon="-0.27496">
        <ele>86.4</ele>
        <time>2022-04-03T18:29:48Z</time>
      </trkpt>
      <trkpt lat="46.29909" lon="-0.27491">
        <ele>86.4</ele>
        <time>2022-04-03T18:29:49Z</time>
      </trkpt>
      <trkpt lat="46.29911" lon="-0.27486">
        <ele>86.6</ele>
        <time>2022-04-03T18:29:50Z</time>
      </trkpt>
      <trkpt lat="46.29914" lon="-0.2748">
        <ele>86.4</ele>
        <time>2022-04-03T18:29:51Z</time>
      </trkpt>
      <trkpt lat="46.29916" lon="-0.27475">
        <ele>86.6</ele>
        <time>2022-04-03T18:29:52Z</time>
      </trkpt>
      <trkpt lat="46.29918" lon="-0.2747">
        <ele>86.4</ele>
        <time>2022-04-03T18:29:53Z</time>
      </trkpt>
      <trkpt lat="46.29921" lon="-0.27465">
        <ele>86.4</ele>
        <time>2022-04-03T18:29:54Z</time>
      </trkpt>
      <trkpt lat="46.29923" lon="-0.2746">
        <ele>86.4</ele>
        <time>2022-04-03T18:29:55Z</time>
      </trkpt>
      <trkpt lat="46.29925" lon="-0.27454">
        <ele>86.6</ele>
        <time>2022-04-03T18:29:56Z</time>
      </trkpt>
      <trkpt lat="46.29927" lon="-0.27449">
        <ele>86.6</ele>
        <time>2022-04-03T18:29:57Z</time>
      </trkpt>
      <trkpt lat="46.29929" lon="-0.27443">
        <ele>86.8</ele>
        <time>2022-04-03T18:29:58Z</time>
      </trkpt>
      <trkpt lat="46.29932" lon="-0.27438">
        <ele>86.8</ele>
        <time>2022-04-03T18:29:59Z</time>
      </trkpt>
      <trkpt lat="46.29934" lon="-0.27433">
        <ele>87</ele>
        <time>2022-04-03T18:30:00Z</time>
      </trkpt>
      <trkpt lat="46.29936" lon="-0.27428">
        <ele>87</ele>
        <time>2022-04-03T18:30:01Z</time>
      </trkpt>
      <trkpt lat="46.29938" lon="-0.27423">
        <ele>86.8</ele>
        <time>2022-04-03T18:30:02Z</time>
      </trkpt>
      <trkpt lat="46.2994" lon="-0.27417">
        <ele>87</ele>
        <time>2022-04-03T18:30:03Z</time>
      </trkpt>
      <trkpt lat="46.29943" lon="-0.27412">
        <ele>87</ele>
        <time>2022-04-03T18:30:04Z</time>
      </trkpt>
      <trkpt lat="46.29945" lon="-0.27407">
        <ele>87.2</ele>
        <time>2022-04-03T18:30:05Z</time>
      </trkpt>
      <trkpt lat="46.29947" lon="-0.27402">
        <ele>87.4</ele>
        <time>2022-04-03T18:30:06Z</time>
      </trkpt>
      <trkpt lat="46.29949" lon="-0.27397">
        <ele>87.4</ele>
        <time>2022-04-03T18:30:07Z</time>
      </trkpt>
      <trkpt lat="46.29951" lon="-0.27392">
        <ele>87.4</ele>
        <time>2022-04-03T18:30:08Z</time>
      </trkpt>
      <trkpt lat="46.29953" lon="-0.27386">
        <ele>87.4</ele>
        <time>2022-04-03T18:30:09Z</time>
      </trkpt>
      <trkpt lat="46.29955" lon="-0.27381">
        <ele>87.6</ele>
        <time>2022-04-03T18:30:10Z</time>
      </trkpt>
      <trkpt lat="46.29958" lon="-0.27376">
        <ele>87.6</ele>
        <time>2022-04-03T18:30:11Z</time>
      </trkpt>
      <trkpt lat="46.2996" lon="-0.27371">
        <ele>87.8</ele>
        <time>2022-04-03T18:30:12Z</time>
      </trkpt>
      <trkpt lat="46.29963" lon="-0.27366">
        <ele>88</ele>
        <time>2022-04-03T18:30:13Z</time>
      </trkpt>
      <trkpt lat="46.29965" lon="-0.27361">
        <ele>88</ele>
        <time>2022-04-03T18:30:14Z</time>
      </trkpt>
      <trkpt lat="46.29968" lon="-0.27355">
        <ele>88</ele>
        <time>2022-04-03T18:30:15Z</time>
      </trkpt>
      <trkpt lat="46.2997" lon="-0.2735">
        <ele>88.2</ele>
        <time>2022-04-03T18:30:16Z</time>
      </trkpt>
      <trkpt lat="46.29973" lon="-0.27345">
        <ele>88.2</ele>
        <time>2022-04-03T18:30:17Z</time>
      </trkpt>
      <trkpt lat="46.29976" lon="-0.2734">
        <ele>88.4</ele>
        <time>2022-04-03T18:30:18Z</time>
      </trkpt>
      <trkpt lat="46.29979" lon="-0.27335">
        <ele>88.4</ele>
        <time>2022-04-03T18:30:19Z</time>
      </trkpt>
      <trkpt lat="46.29982" lon="-0.2733">
        <ele>88.4</ele>
        <time>2022-04-03T18:30:20Z</time>
      </trkpt>
      <trkpt lat="46.29985" lon="-0.27326">
        <ele>88.4</ele>
        <time>2022-04-03T18:30:21Z</time>
      </trkpt>
      <trkpt lat="46.29988" lon="-0.27321">
        <ele>88.2</ele>
        <time>2022-04-03T18:30:22Z</time>
      </trkpt>
      <trkpt lat="46.29991" lon="-0.27316">
        <ele>88.2</ele>
        <time>2022-04-03T18:30:23Z</time>
      </trkpt>
      <trkpt lat="46.29995" lon="-0.27311">
        <ele>88.4</ele>
        <time>2022-04-03T18:30:24Z</time>
      </trkpt>
      <trkpt lat="46.29998" lon="-0.27307">
        <ele>88.4</ele>
        <time>2022-04-03T18:30:25Z</time>
      </trkpt>
      <trkpt lat="46.30001" lon="-0.27302">
        <ele>88.4</ele>
        <time>2022-04-03T18:30:26Z</time>
      </trkpt>
      <trkpt lat="46.30005" lon="-0.27298">
        <ele>88.4</ele>
        <time>2022-04-03T18:30:27Z</time>
      </trkpt>
      <trkpt lat="46.30008" lon="-0.27293">
        <ele>88.4</ele>
        <time>2022-04-03T18:30:28Z</time>
      </trkpt>
      <trkpt lat="46.30011" lon="-0.27289">
        <ele>88.6</ele>
        <time>2022-04-03T18:30:29Z</time>
      </trkpt>
      <trkpt lat="46.30015" lon="-0.27284">
        <ele>88.6</ele>
        <time>2022-04-03T18:30:30Z</time>
      </trkpt>
      <trkpt lat="46.30018" lon="-0.2728">
        <ele>88.6</ele>
        <time>2022-04-03T18:30:31Z</time>
      </trkpt>
      <trkpt lat="46.30022" lon="-0.27275">
        <ele>88.6</ele>
        <time>2022-04-03T18:30:32Z</time>
      </trkpt>
      <trkpt lat="46.30025" lon="-0.27271">
        <ele>88.8</ele>
        <time>2022-04-03T18:30:33Z</time>
      </trkpt>
      <trkpt lat="46.30028" lon="-0.27266">
        <ele>88.8</ele>
        <time>2022-04-03T18:30:34Z</time>
      </trkpt>
      <trkpt lat="46.30032" lon="-0.27261">
        <ele>88.6</ele>
        <time>2022-04-03T18:30:35Z</time>
      </trkpt>
      <trkpt lat="46.30035" lon="-0.27257">
        <ele>88.8</ele>
        <time>2022-04-03T18:30:36Z</time>
      </trkpt>
      <trkpt lat="46.30038" lon="-0.27252">
        <ele>88.8</ele>
        <time>2022-04-03T18:30:37Z</time>
      </trkpt>
      <trkpt lat="46.30041" lon="-0.27247">
        <ele>89</ele>
        <time>2022-04-03T18:30:38Z</time>
      </trkpt>
      <trkpt lat="46.30044" lon="-0.27242">
        <ele>89</ele>
        <time>2022-04-03T18:30:39Z</time>
      </trkpt>
      <trkpt lat="46.30048" lon="-0.27237">
        <ele>89</ele>
        <time>2022-04-03T18:30:40Z</time>
      </trkpt>
      <trkpt lat="46.30051" lon="-0.27232">
        <ele>89</ele>
        <time>2022-04-03T18:30:41Z</time>
      </trkpt>
      <trkpt lat="46.30054" lon="-0.27227">
        <ele>89</ele>
        <time>2022-04-03T18:30:42Z</time>
      </trkpt>
      <trkpt lat="46.30057" lon="-0.27222">
        <ele>89.2</ele>
        <time>2022-04-03T18:30:43Z</time>
      </trkpt>
      <trkpt lat="46.3006" lon="-0.27217">
        <ele>89.2</ele>
        <time>2022-04-03T18:30:44Z</time>
      </trkpt>
      <trkpt lat="46.30063" lon="-0.27212">
        <ele>89.2</ele>
        <time>2022-04-03T18:30:45Z</time>
      </trkpt>
      <trkpt lat="46.30066" lon="-0.27207">
        <ele>89.4</ele>
        <time>2022-04-03T18:30:46Z</time>
      </trkpt>
      <trkpt lat="46.30069" lon="-0.27201">
        <ele>89.4</ele>
        <time>2022-04-03T18:30:47Z</time>
      </trkpt>
      <trkpt lat="46.30071" lon="-0.27195">
        <ele>89.6</ele>
        <time>2022-04-03T18:30:48Z</time>
      </trkpt>
      <trkpt lat="46.30074" lon="-0.2719">
        <ele>89.4</ele>
        <time>2022-04-03T18:30:49Z</time>
      </trkpt>
      <trkpt lat="46.30077" lon="-0.27184">
        <ele>89.6</ele>
        <time>2022-04-03T18:30:50Z</time>
      </trkpt>
      <trkpt lat="46.30079" lon="-0.27179">
        <ele>89.6</ele>
        <time>2022-04-03T18:30:51Z</time>
      </trkpt>
      <trkpt lat="46.30082" lon="-0.27173">
        <ele>89.6</ele>
        <time>2022-04-03T18:30:52Z</time>
      </trkpt>
      <trkpt lat="46.30085" lon="-0.27167">
        <ele>89.8</ele>
        <time>2022-04-03T18:30:53Z</time>
      </trkpt>
      <trkpt lat="46.30088" lon="-0.27162">
        <ele>89.8</ele>
        <time>2022-04-03T18:30:54Z</time>
      </trkpt>
      <trkpt lat="46.3009" lon="-0.27156">
        <ele>89.8</ele>
        <time>2022-04-03T18:30:55Z</time>
      </trkpt>
      <trkpt lat="46.30093" lon="-0.2715">
        <ele>89.8</ele>
        <time>2022-04-03T18:30:56Z</time>
      </trkpt>
      <trkpt lat="46.30096" lon="-0.27144">
        <ele>90</ele>
        <time>2022-04-03T18:30:57Z</time>
      </trkpt>
      <trkpt lat="46.30098" lon="-0.27138">
        <ele>90</ele>
        <time>2022-04-03T18:30:58Z</time>
      </trkpt>
      <trkpt lat="46.30101" lon="-0.27132">
        <ele>90</ele>
        <time>2022-04-03T18:30:59Z</time>
      </trkpt>
      <trkpt lat="46.30104" lon="-0.27126">
        <ele>90.2</ele>
        <time>2022-04-03T18:31:00Z</time>
      </trkpt>
      <trkpt lat="46.30106" lon="-0.2712">
        <ele>90.2</ele>
        <time>2022-04-03T18:31:01Z</time>
      </trkpt>
      <trkpt lat="46.30109" lon="-0.27114">
        <ele>90</ele>
        <time>2022-04-03T18:31:02Z</time>
      </trkpt>
      <trkpt lat="46.30112" lon="-0.27108">
        <ele>90.2</ele>
        <time>2022-04-03T18:31:03Z</time>
      </trkpt>
      <trkpt lat="46.30115" lon="-0.27103">
        <ele>90.4</ele>
        <time>2022-04-03T18:31:04Z</time>
      </trkpt>
      <trkpt lat="46.30117" lon="-0.27097">
        <ele>90.2</ele>
        <time>2022-04-03T18:31:05Z</time>
      </trkpt>
      <trkpt lat="46.3012" lon="-0.27091">
        <ele>90.4</ele>
        <time>2022-04-03T18:31:06Z</time>
      </trkpt>
      <trkpt lat="46.30123" lon="-0.27085">
        <ele>90.4</ele>
        <time>2022-04-03T18:31:07Z</time>
      </trkpt>
      <trkpt lat="46.30126" lon="-0.27079">
        <ele>90.6</ele>
        <time>2022-04-03T18:31:08Z</time>
      </trkpt>
      <trkpt lat="46.30129" lon="-0.27073">
        <ele>90.6</ele>
        <time>2022-04-03T18:31:09Z</time>
      </trkpt>
      <trkpt lat="46.30131" lon="-0.27067">
        <ele>90.4</ele>
        <time>2022-04-03T18:31:10Z</time>
      </trkpt>
      <trkpt lat="46.30134" lon="-0.27061">
        <ele>90.6</ele>
        <time>2022-04-03T18:31:11Z</time>
      </trkpt>
      <trkpt lat="46.30137" lon="-0.27055">
        <ele>90.6</ele>
        <time>2022-04-03T18:31:12Z</time>
      </trkpt>
      <trkpt lat="46.30141" lon="-0.2705">
        <ele>90.6</ele>
        <time>2022-04-03T18:31:13Z</time>
      </trkpt>
      <trkpt lat="46.30144" lon="-0.27044">
        <ele>90.6</ele>
        <time>2022-04-03T18:31:14Z</time>
      </trkpt>
      <trkpt lat="46.30147" lon="-0.27038">
        <ele>90.6</ele>
        <time>2022-04-03T18:31:15Z</time>
      </trkpt>
      <trkpt lat="46.30149" lon="-0.27032">
        <ele>90.6</ele>
        <time>2022-04-03T18:31:16Z</time>
      </trkpt>
      <trkpt lat="46.30152" lon="-0.27026">
        <ele>90.6</ele>
        <time>2022-04-03T18:31:17Z</time>
      </trkpt>
      <trkpt lat="46.30155" lon="-0.2702">
        <ele>90.8</ele>
        <time>2022-04-03T18:31:18Z</time>
      </trkpt>
      <trkpt lat="46.30158" lon="-0.27014">
        <ele>90.8</ele>
        <time>2022-04-03T18:31:19Z</time>
      </trkpt>
      <trkpt lat="46.30161" lon="-0.27009">
        <ele>90.8</ele>
        <time>2022-04-03T18:31:20Z</time>
      </trkpt>
      <trkpt lat="46.30164" lon="-0.27003">
        <ele>90.6</ele>
        <time>2022-04-03T18:31:21Z</time>
      </trkpt>
      <trkpt lat="46.30167" lon="-0.26997">
        <ele>90.8</ele>
        <time>2022-04-03T18:31:22Z</time>
      </trkpt>
      <trkpt lat="46.3017" lon="-0.26991">
        <ele>90.8</ele>
        <time>2022-04-03T18:31:23Z</time>
      </trkpt>
      <trkpt lat="46.30173" lon="-0.26985">
        <ele>90.8</ele>
        <time>2022-04-03T18:31:24Z</time>
      </trkpt>
      <trkpt lat="46.30176" lon="-0.26979">
        <ele>91</ele>
        <time>2022-04-03T18:31:25Z</time>
      </trkpt>
      <trkpt lat="46.30179" lon="-0.26973">
        <ele>90.8</ele>
        <time>2022-04-03T18:31:26Z</time>
      </trkpt>
      <trkpt lat="46.30183" lon="-0.26967">
        <ele>91</ele>
        <time>2022-04-03T18:31:27Z</time>
      </trkpt>
      <trkpt lat="46.30186" lon="-0.26961">
        <ele>91</ele>
        <time>2022-04-03T18:31:28Z</time>
      </trkpt>
      <trkpt lat="46.30189" lon="-0.26955">
        <ele>91</ele>
        <time>2022-04-03T18:31:29Z</time>
      </trkpt>
      <trkpt lat="46.30192" lon="-0.26949">
        <ele>91</ele>
        <time>2022-04-03T18:31:30Z</time>
      </trkpt>
      <trkpt lat="46.30195" lon="-0.26943">
        <ele>91.2</ele>
        <time>2022-04-03T18:31:31Z</time>
      </trkpt>
      <trkpt lat="46.30198" lon="-0.26937">
        <ele>91.2</ele>
        <time>2022-04-03T18:31:32Z</time>
      </trkpt>
      <trkpt lat="46.30201" lon="-0.26931">
        <ele>91.2</ele>
        <time>2022-04-03T18:31:33Z</time>
      </trkpt>
      <trkpt lat="46.30205" lon="-0.26926">
        <ele>91.2</ele>
        <time>2022-04-03T18:31:34Z</time>
      </trkpt>
      <trkpt lat="46.30208" lon="-0.2692">
        <ele>91.4</ele>
        <time>2022-04-03T18:31:35Z</time>
      </trkpt>
      <trkpt lat="46.30212" lon="-0.26914">
        <ele>91.4</ele>
        <time>2022-04-03T18:31:36Z</time>
      </trkpt>
      <trkpt lat="46.30215" lon="-0.26909">
        <ele>91.4</ele>
        <time>2022-04-03T18:31:37Z</time>
      </trkpt>
      <trkpt lat="46.30219" lon="-0.26903">
        <ele>91.4</ele>
        <time>2022-04-03T18:31:38Z</time>
      </trkpt>
      <trkpt lat="46.30222" lon="-0.26898">
        <ele>91.4</ele>
        <time>2022-04-03T18:31:39Z</time>
      </trkpt>
      <trkpt lat="46.30226" lon="-0.26892">
        <ele>91.4</ele>
        <time>2022-04-03T18:31:40Z</time>
      </trkpt>
      <trkpt lat="46.30229" lon="-0.26887">
        <ele>91.4</ele>
        <time>2022-04-03T18:31:41Z</time>
      </trkpt>
      <trkpt lat="46.30233" lon="-0.26882">
        <ele>91.4</ele>
        <time>2022-04-03T18:31:42Z</time>
      </trkpt>
      <trkpt lat="46.30236" lon="-0.26876">
        <ele>91.4</ele>
        <time>2022-04-03T18:31:43Z</time>
      </trkpt>
      <trkpt lat="46.3024" lon="-0.26871">
        <ele>91.6</ele>
        <time>2022-04-03T18:31:44Z</time>
      </trkpt>
      <trkpt lat="46.30244" lon="-0.26866">
        <ele>91.4</ele>
        <time>2022-04-03T18:31:45Z</time>
      </trkpt>
      <trkpt lat="46.30247" lon="-0.26861">
        <ele>91.6</ele>
        <time>2022-04-03T18:31:46Z</time>
      </trkpt>
      <trkpt lat="46.30251" lon="-0.26856">
        <ele>91.4</ele>
        <time>2022-04-03T18:31:47Z</time>
      </trkpt>
      <trkpt lat="46.30254" lon="-0.26851">
        <ele>91.6</ele>
        <time>2022-04-03T18:31:48Z</time>
      </trkpt>
      <trkpt lat="46.30258" lon="-0.26846">
        <ele>91.8</ele>
        <time>2022-04-03T18:31:49Z</time>
      </trkpt>
      <trkpt lat="46.30261" lon="-0.26841">
        <ele>91.6</ele>
        <time>2022-04-03T18:31:50Z</time>
      </trkpt>
      <trkpt lat="46.30265" lon="-0.26837">
        <ele>91.8</ele>
        <time>2022-04-03T18:31:51Z</time>
      </trkpt>
      <trkpt lat="46.30269" lon="-0.26832">
        <ele>92</ele>
        <time>2022-04-03T18:31:52Z</time>
      </trkpt>
      <trkpt lat="46.30272" lon="-0.26827">
        <ele>91.8</ele>
        <time>2022-04-03T18:31:53Z</time>
      </trkpt>
      <trkpt lat="46.30275" lon="-0.26822">
        <ele>92</ele>
        <time>2022-04-03T18:31:54Z</time>
      </trkpt>
      <trkpt lat="46.30279" lon="-0.26817">
        <ele>92</ele>
        <time>2022-04-03T18:31:55Z</time>
      </trkpt>
      <trkpt lat="46.30282" lon="-0.26812">
        <ele>92</ele>
        <time>2022-04-03T18:31:56Z</time>
      </trkpt>
      <trkpt lat="46.30286" lon="-0.26807">
        <ele>92.2</ele>
        <time>2022-04-03T18:31:57Z</time>
      </trkpt>
      <trkpt lat="46.30289" lon="-0.26802">
        <ele>92</ele>
        <time>2022-04-03T18:31:58Z</time>
      </trkpt>
      <trkpt lat="46.30292" lon="-0.26797">
        <ele>92</ele>
        <time>2022-04-03T18:31:59Z</time>
      </trkpt>
      <trkpt lat="46.30295" lon="-0.26792">
        <ele>92.2</ele>
        <time>2022-04-03T18:32:00Z</time>
      </trkpt>
      <trkpt lat="46.30298" lon="-0.26787">
        <ele>92.2</ele>
        <time>2022-04-03T18:32:01Z</time>
      </trkpt>
      <trkpt lat="46.30301" lon="-0.26782">
        <ele>92.4</ele>
        <time>2022-04-03T18:32:02Z</time>
      </trkpt>
      <trkpt lat="46.30304" lon="-0.26777">
        <ele>92.6</ele>
        <time>2022-04-03T18:32:03Z</time>
      </trkpt>
      <trkpt lat="46.30307" lon="-0.26772">
        <ele>92.8</ele>
        <time>2022-04-03T18:32:04Z</time>
      </trkpt>
      <trkpt lat="46.3031" lon="-0.26767">
        <ele>93</ele>
        <time>2022-04-03T18:32:05Z</time>
      </trkpt>
      <trkpt lat="46.30312" lon="-0.26762">
        <ele>93</ele>
        <time>2022-04-03T18:32:06Z</time>
      </trkpt>
      <trkpt lat="46.30315" lon="-0.26757">
        <ele>93.2</ele>
        <time>2022-04-03T18:32:07Z</time>
      </trkpt>
      <trkpt lat="46.30317" lon="-0.26752">
        <ele>93.4</ele>
        <time>2022-04-03T18:32:08Z</time>
      </trkpt>
      <trkpt lat="46.3032" lon="-0.26747">
        <ele>93.4</ele>
        <time>2022-04-03T18:32:09Z</time>
      </trkpt>
      <trkpt lat="46.30322" lon="-0.26742">
        <ele>93.6</ele>
        <time>2022-04-03T18:32:10Z</time>
      </trkpt>
      <trkpt lat="46.30325" lon="-0.26737">
        <ele>93.8</ele>
        <time>2022-04-03T18:32:11Z</time>
      </trkpt>
      <trkpt lat="46.30327" lon="-0.26732">
        <ele>94</ele>
        <time>2022-04-03T18:32:12Z</time>
      </trkpt>
      <trkpt lat="46.3033" lon="-0.26727">
        <ele>94.4</ele>
        <time>2022-04-03T18:32:13Z</time>
      </trkpt>
      <trkpt lat="46.30332" lon="-0.26722">
        <ele>94.4</ele>
        <time>2022-04-03T18:32:14Z</time>
      </trkpt>
      <trkpt lat="46.30335" lon="-0.26718">
        <ele>94.4</ele>
        <time>2022-04-03T18:32:15Z</time>
      </trkpt>
      <trkpt lat="46.30337" lon="-0.26713">
        <ele>94.2</ele>
        <time>2022-04-03T18:32:16Z</time>
      </trkpt>
      <trkpt lat="46.30339" lon="-0.26708">
        <ele>94.4</ele>
        <time>2022-04-03T18:32:17Z</time>
      </trkpt>
      <trkpt lat="46.30342" lon="-0.26703">
        <ele>94.8</ele>
        <time>2022-04-03T18:32:18Z</time>
      </trkpt>
      <trkpt lat="46.30344" lon="-0.26698">
        <ele>95</ele>
        <time>2022-04-03T18:32:19Z</time>
      </trkpt>
      <trkpt lat="46.30347" lon="-0.26693">
        <ele>95.2</ele>
        <time>2022-04-03T18:32:20Z</time>
      </trkpt>
      <trkpt lat="46.30349" lon="-0.26688">
        <ele>95.4</ele>
        <time>2022-04-03T18:32:21Z</time>
      </trkpt>
      <trkpt lat="46.30351" lon="-0.26684">
        <ele>95.4</ele>
        <time>2022-04-03T18:32:22Z</time>
      </trkpt>
      <trkpt lat="46.30353" lon="-0.26679">
        <ele>95.4</ele>
        <time>2022-04-03T18:32:23Z</time>
      </trkpt>
      <trkpt lat="46.30356" lon="-0.26674">
        <ele>95.6</ele>
        <time>2022-04-03T18:32:24Z</time>
      </trkpt>
      <trkpt lat="46.30358" lon="-0.2667">
        <ele>95.6</ele>
        <time>2022-04-03T18:32:25Z</time>
      </trkpt>
      <trkpt lat="46.3036" lon="-0.26665">
        <ele>95.8</ele>
        <time>2022-04-03T18:32:26Z</time>
      </trkpt>
      <trkpt lat="46.30363" lon="-0.26661">
        <ele>95.8</ele>
        <time>2022-04-03T18:32:27Z</time>
      </trkpt>
      <trkpt lat="46.30365" lon="-0.26656">
        <ele>95.8</ele>
        <time>2022-04-03T18:32:28Z</time>
      </trkpt>
      <trkpt lat="46.30367" lon="-0.26652">
        <ele>96.2</ele>
        <time>2022-04-03T18:32:29Z</time>
      </trkpt>
      <trkpt lat="46.3037" lon="-0.26647">
        <ele>96.2</ele>
        <time>2022-04-03T18:32:30Z</time>
      </trkpt>
      <trkpt lat="46.30372" lon="-0.26643">
        <ele>96.2</ele>
        <time>2022-04-03T18:32:31Z</time>
      </trkpt>
      <trkpt lat="46.30375" lon="-0.26639">
        <ele>96.4</ele>
        <time>2022-04-03T18:32:32Z</time>
      </trkpt>
      <trkpt lat="46.30377" lon="-0.26634">
        <ele>96.4</ele>
        <time>2022-04-03T18:32:33Z</time>
      </trkpt>
      <trkpt lat="46.3038" lon="-0.2663">
        <ele>96.6</ele>
        <time>2022-04-03T18:32:34Z</time>
      </trkpt>
      <trkpt lat="46.30382" lon="-0.26626">
        <ele>96.6</ele>
        <time>2022-04-03T18:32:35Z</time>
      </trkpt>
      <trkpt lat="46.30385" lon="-0.26622">
        <ele>96.8</ele>
        <time>2022-04-03T18:32:36Z</time>
      </trkpt>
      <trkpt lat="46.30387" lon="-0.26617">
        <ele>97</ele>
        <time>2022-04-03T18:32:37Z</time>
      </trkpt>
      <trkpt lat="46.3039" lon="-0.26613">
        <ele>97.2</ele>
        <time>2022-04-03T18:32:38Z</time>
      </trkpt>
      <trkpt lat="46.30392" lon="-0.2661">
        <ele>97.2</ele>
        <time>2022-04-03T18:32:39Z</time>
      </trkpt>
      <trkpt lat="46.30395" lon="-0.26606">
        <ele>97.4</ele>
        <time>2022-04-03T18:32:40Z</time>
      </trkpt>
      <trkpt lat="46.30397" lon="-0.26602">
        <ele>97.4</ele>
        <time>2022-04-03T18:32:41Z</time>
      </trkpt>
      <trkpt lat="46.304" lon="-0.26598">
        <ele>97.4</ele>
        <time>2022-04-03T18:32:42Z</time>
      </trkpt>
      <trkpt lat="46.30402" lon="-0.26594">
        <ele>97.6</ele>
        <time>2022-04-03T18:32:43Z</time>
      </trkpt>
      <trkpt lat="46.30404" lon="-0.2659">
        <ele>97.6</ele>
        <time>2022-04-03T18:32:44Z</time>
      </trkpt>
      <trkpt lat="46.30407" lon="-0.26586">
        <ele>97.6</ele>
        <time>2022-04-03T18:32:45Z</time>
      </trkpt>
      <trkpt lat="46.30409" lon="-0.26582">
        <ele>97.8</ele>
        <time>2022-04-03T18:32:46Z</time>
      </trkpt>
      <trkpt lat="46.30412" lon="-0.26578">
        <ele>98</ele>
        <time>2022-04-03T18:32:47Z</time>
      </trkpt>
      <trkpt lat="46.30415" lon="-0.26575">
        <ele>98.2</ele>
        <time>2022-04-03T18:32:48Z</time>
      </trkpt>
      <trkpt lat="46.30417" lon="-0.26571">
        <ele>98.4</ele>
        <time>2022-04-03T18:32:49Z</time>
      </trkpt>
      <trkpt lat="46.3042" lon="-0.26567">
        <ele>98.4</ele>
        <time>2022-04-03T18:32:50Z</time>
      </trkpt>
      <trkpt lat="46.30422" lon="-0.26563">
        <ele>98.4</ele>
        <time>2022-04-03T18:32:51Z</time>
      </trkpt>
      <trkpt lat="46.30425" lon="-0.26559">
        <ele>98.4</ele>
        <time>2022-04-03T18:32:52Z</time>
      </trkpt>
      <trkpt lat="46.30427" lon="-0.26555">
        <ele>98.8</ele>
        <time>2022-04-03T18:32:53Z</time>
      </trkpt>
      <trkpt lat="46.3043" lon="-0.26551">
        <ele>98.6</ele>
        <time>2022-04-03T18:32:54Z</time>
      </trkpt>
      <trkpt lat="46.30432" lon="-0.26547">
        <ele>98.8</ele>
        <time>2022-04-03T18:32:55Z</time>
      </trkpt>
      <trkpt lat="46.30434" lon="-0.26544">
        <ele>99</ele>
        <time>2022-04-03T18:32:56Z</time>
      </trkpt>
      <trkpt lat="46.30436" lon="-0.2654">
        <ele>99</ele>
        <time>2022-04-03T18:32:57Z</time>
      </trkpt>
      <trkpt lat="46.30439" lon="-0.26537">
        <ele>99.2</ele>
        <time>2022-04-03T18:32:58Z</time>
      </trkpt>
      <trkpt lat="46.30441" lon="-0.26534">
        <ele>99.2</ele>
        <time>2022-04-03T18:32:59Z</time>
      </trkpt>
      <trkpt lat="46.30443" lon="-0.2653">
        <ele>99.4</ele>
        <time>2022-04-03T18:33:00Z</time>
      </trkpt>
      <trkpt lat="46.30445" lon="-0.26527">
        <ele>99.6</ele>
        <time>2022-04-03T18:33:01Z</time>
      </trkpt>
      <trkpt lat="46.30447" lon="-0.26524">
        <ele>99.8</ele>
        <time>2022-04-03T18:33:02Z</time>
      </trkpt>
      <trkpt lat="46.30449" lon="-0.26521">
        <ele>99.8</ele>
        <time>2022-04-03T18:33:03Z</time>
      </trkpt>
      <trkpt lat="46.30452" lon="-0.26517">
        <ele>100</ele>
        <time>2022-04-03T18:33:04Z</time>
      </trkpt>
      <trkpt lat="46.30454" lon="-0.26513">
        <ele>100.2</ele>
        <time>2022-04-03T18:33:05Z</time>
      </trkpt>
      <trkpt lat="46.30457" lon="-0.2651">
        <ele>100.4</ele>
        <time>2022-04-03T18:33:06Z</time>
      </trkpt>
      <trkpt lat="46.30459" lon="-0.26506">
        <ele>100.4</ele>
        <time>2022-04-03T18:33:07Z</time>
      </trkpt>
      <trkpt lat="46.30461" lon="-0.26502">
        <ele>100.4</ele>
        <time>2022-04-03T18:33:08Z</time>
      </trkpt>
      <trkpt lat="46.30464" lon="-0.26498">
        <ele>100.6</ele>
        <time>2022-04-03T18:33:09Z</time>
      </trkpt>
      <trkpt lat="46.30467" lon="-0.26494">
        <ele>100.4</ele>
        <time>2022-04-03T18:33:10Z</time>
      </trkpt>
      <trkpt lat="46.30469" lon="-0.26491">
        <ele>100.4</ele>
        <time>2022-04-03T18:33:11Z</time>
      </trkpt>
      <trkpt lat="46.30472" lon="-0.26487">
        <ele>100.8</ele>
        <time>2022-04-03T18:33:12Z</time>
      </trkpt>
      <trkpt lat="46.30475" lon="-0.26483">
        <ele>100.8</ele>
        <time>2022-04-03T18:33:13Z</time>
      </trkpt>
      <trkpt lat="46.30477" lon="-0.26479">
        <ele>100.8</ele>
        <time>2022-04-03T18:33:14Z</time>
      </trkpt>
      <trkpt lat="46.3048" lon="-0.26475">
        <ele>101</ele>
        <time>2022-04-03T18:33:15Z</time>
      </trkpt>
      <trkpt lat="46.30482" lon="-0.26471">
        <ele>101</ele>
        <time>2022-04-03T18:33:16Z</time>
      </trkpt>
      <trkpt lat="46.30484" lon="-0.26467">
        <ele>101</ele>
        <time>2022-04-03T18:33:17Z</time>
      </trkpt>
      <trkpt lat="46.30487" lon="-0.26463">
        <ele>101</ele>
        <time>2022-04-03T18:33:18Z</time>
      </trkpt>
      <trkpt lat="46.3049" lon="-0.26459">
        <ele>101</ele>
        <time>2022-04-03T18:33:19Z</time>
      </trkpt>
      <trkpt lat="46.30492" lon="-0.26455">
        <ele>101.2</ele>
        <time>2022-04-03T18:33:20Z</time>
      </trkpt>
      <trkpt lat="46.30495" lon="-0.26452">
        <ele>101.4</ele>
        <time>2022-04-03T18:33:21Z</time>
      </trkpt>
      <trkpt lat="46.30498" lon="-0.26448">
        <ele>101.4</ele>
        <time>2022-04-03T18:33:22Z</time>
      </trkpt>
      <trkpt lat="46.30501" lon="-0.26444">
        <ele>101.4</ele>
        <time>2022-04-03T18:33:23Z</time>
      </trkpt>
      <trkpt lat="46.30504" lon="-0.26441">
        <ele>101.6</ele>
        <time>2022-04-03T18:33:24Z</time>
      </trkpt>
      <trkpt lat="46.30507" lon="-0.26437">
        <ele>101.6</ele>
        <time>2022-04-03T18:33:25Z</time>
      </trkpt>
      <trkpt lat="46.3051" lon="-0.26434">
        <ele>101.8</ele>
        <time>2022-04-03T18:33:26Z</time>
      </trkpt>
      <trkpt lat="46.30514" lon="-0.2643">
        <ele>101.8</ele>
        <time>2022-04-03T18:33:27Z</time>
      </trkpt>
      <trkpt lat="46.30517" lon="-0.26427">
        <ele>101.8</ele>
        <time>2022-04-03T18:33:28Z</time>
      </trkpt>
      <trkpt lat="46.3052" lon="-0.26424">
        <ele>101.8</ele>
        <time>2022-04-03T18:33:29Z</time>
      </trkpt>
      <trkpt lat="46.30523" lon="-0.2642">
        <ele>101.8</ele>
        <time>2022-04-03T18:33:30Z</time>
      </trkpt>
      <trkpt lat="46.30526" lon="-0.26417">
        <ele>102</ele>
        <time>2022-04-03T18:33:31Z</time>
      </trkpt>
      <trkpt lat="46.3053" lon="-0.26414">
        <ele>101.8</ele>
        <time>2022-04-03T18:33:32Z</time>
      </trkpt>
      <trkpt lat="46.30533" lon="-0.2641">
        <ele>102</ele>
        <time>2022-04-03T18:33:33Z</time>
      </trkpt>
      <trkpt lat="46.30536" lon="-0.26406">
        <ele>102.2</ele>
        <time>2022-04-03T18:33:34Z</time>
      </trkpt>
      <trkpt lat="46.30539" lon="-0.26402">
        <ele>102.2</ele>
        <time>2022-04-03T18:33:35Z</time>
      </trkpt>
      <trkpt lat="46.30542" lon="-0.26399">
        <ele>102.4</ele>
        <time>2022-04-03T18:33:36Z</time>
      </trkpt>
      <trkpt lat="46.30545" lon="-0.26395">
        <ele>102.4</ele>
        <time>2022-04-03T18:33:37Z</time>
      </trkpt>
      <trkpt lat="46.30548" lon="-0.26391">
        <ele>102.4</ele>
        <time>2022-04-03T18:33:38Z</time>
      </trkpt>
      <trkpt lat="46.30551" lon="-0.26387">
        <ele>102.4</ele>
        <time>2022-04-03T18:33:39Z</time>
      </trkpt>
      <trkpt lat="46.30554" lon="-0.26383">
        <ele>102.6</ele>
        <time>2022-04-03T18:33:40Z</time>
      </trkpt>
      <trkpt lat="46.30557" lon="-0.26379">
        <ele>102.6</ele>
        <time>2022-04-03T18:33:41Z</time>
      </trkpt>
      <trkpt lat="46.3056" lon="-0.26375">
        <ele>102.6</ele>
        <time>2022-04-03T18:33:42Z</time>
      </trkpt>
      <trkpt lat="46.30563" lon="-0.26371">
        <ele>102.6</ele>
        <time>2022-04-03T18:33:43Z</time>
      </trkpt>
      <trkpt lat="46.30566" lon="-0.26366">
        <ele>102.6</ele>
        <time>2022-04-03T18:33:44Z</time>
      </trkpt>
      <trkpt lat="46.3057" lon="-0.26362">
        <ele>102.6</ele>
        <time>2022-04-03T18:33:45Z</time>
      </trkpt>
      <trkpt lat="46.30573" lon="-0.26358">
        <ele>102.6</ele>
        <time>2022-04-03T18:33:46Z</time>
      </trkpt>
      <trkpt lat="46.30576" lon="-0.26354">
        <ele>102.6</ele>
        <time>2022-04-03T18:33:47Z</time>
      </trkpt>
      <trkpt lat="46.30579" lon="-0.26349">
        <ele>102.6</ele>
        <time>2022-04-03T18:33:48Z</time>
      </trkpt>
      <trkpt lat="46.30583" lon="-0.26345">
        <ele>102.6</ele>
        <time>2022-04-03T18:33:49Z</time>
      </trkpt>
      <trkpt lat="46.30586" lon="-0.26341">
        <ele>102.6</ele>
        <time>2022-04-03T18:33:50Z</time>
      </trkpt>
      <trkpt lat="46.30589" lon="-0.26338">
        <ele>102.6</ele>
        <time>2022-04-03T18:33:51Z</time>
      </trkpt>
      <trkpt lat="46.30593" lon="-0.26334">
        <ele>102.6</ele>
        <time>2022-04-03T18:33:52Z</time>
      </trkpt>
      <trkpt lat="46.30596" lon="-0.2633">
        <ele>102.6</ele>
        <time>2022-04-03T18:33:53Z</time>
      </trkpt>
      <trkpt lat="46.306" lon="-0.26326">
        <ele>102.6</ele>
        <time>2022-04-03T18:33:54Z</time>
      </trkpt>
      <trkpt lat="46.30604" lon="-0.26321">
        <ele>102.6</ele>
        <time>2022-04-03T18:33:55Z</time>
      </trkpt>
      <trkpt lat="46.30608" lon="-0.26317">
        <ele>102.4</ele>
        <time>2022-04-03T18:33:56Z</time>
      </trkpt>
      <trkpt lat="46.30613" lon="-0.26312">
        <ele>102.6</ele>
        <time>2022-04-03T18:33:57Z</time>
      </trkpt>
      <trkpt lat="46.30618" lon="-0.26308">
        <ele>102.6</ele>
        <time>2022-04-03T18:33:58Z</time>
      </trkpt>
      <trkpt lat="46.30623" lon="-0.26304">
        <ele>102.4</ele>
        <time>2022-04-03T18:33:59Z</time>
      </trkpt>
      <trkpt lat="46.30628" lon="-0.26299">
        <ele>102.4</ele>
        <time>2022-04-03T18:34:00Z</time>
      </trkpt>
      <trkpt lat="46.30634" lon="-0.26295">
        <ele>102.4</ele>
        <time>2022-04-03T18:34:01Z</time>
      </trkpt>
      <trkpt lat="46.3064" lon="-0.2629">
        <ele>102.2</ele>
        <time>2022-04-03T18:34:02Z</time>
      </trkpt>
      <trkpt lat="46.30646" lon="-0.26285">
        <ele>102</ele>
        <time>2022-04-03T18:34:03Z</time>
      </trkpt>
      <trkpt lat="46.30651" lon="-0.26279">
        <ele>101.4</ele>
        <time>2022-04-03T18:34:04Z</time>
      </trkpt>
      <trkpt lat="46.30657" lon="-0.26273">
        <ele>101</ele>
        <time>2022-04-03T18:34:05Z</time>
      </trkpt>
      <trkpt lat="46.30663" lon="-0.26265">
        <ele>100.6</ele>
        <time>2022-04-03T18:34:06Z</time>
      </trkpt>
      <trkpt lat="46.30667" lon="-0.26255">
        <ele>100.2</ele>
        <time>2022-04-03T18:34:07Z</time>
      </trkpt>
      <trkpt lat="46.30671" lon="-0.26245">
        <ele>100.2</ele>
        <time>2022-04-03T18:34:08Z</time>
      </trkpt>
      <trkpt lat="46.30673" lon="-0.26234">
        <ele>99.8</ele>
        <time>2022-04-03T18:34:09Z</time>
      </trkpt>
      <trkpt lat="46.30673" lon="-0.26222">
        <ele>99.2</ele>
        <time>2022-04-03T18:34:10Z</time>
      </trkpt>
      <trkpt lat="46.30672" lon="-0.2621">
        <ele>98.6</ele>
        <time>2022-04-03T18:34:11Z</time>
      </trkpt>
      <trkpt lat="46.30669" lon="-0.26198">
        <ele>98.4</ele>
        <time>2022-04-03T18:34:12Z</time>
      </trkpt>
      <trkpt lat="46.30666" lon="-0.26186">
        <ele>97.6</ele>
        <time>2022-04-03T18:34:13Z</time>
      </trkpt>
      <trkpt lat="46.30661" lon="-0.26175">
        <ele>97</ele>
        <time>2022-04-03T18:34:14Z</time>
      </trkpt>
      <trkpt lat="46.30657" lon="-0.26163">
        <ele>96.2</ele>
        <time>2022-04-03T18:34:15Z</time>
      </trkpt>
      <trkpt lat="46.30651" lon="-0.26153">
        <ele>95.6</ele>
        <time>2022-04-03T18:34:16Z</time>
      </trkpt>
      <trkpt lat="46.30644" lon="-0.26144">
        <ele>95</ele>
        <time>2022-04-03T18:34:17Z</time>
      </trkpt>
      <trkpt lat="46.30635" lon="-0.26137">
        <ele>94.2</ele>
        <time>2022-04-03T18:34:18Z</time>
      </trkpt>
      <trkpt lat="46.30626" lon="-0.26133">
        <ele>93.4</ele>
        <time>2022-04-03T18:34:19Z</time>
      </trkpt>
      <trkpt lat="46.30617" lon="-0.2613">
        <ele>93</ele>
        <time>2022-04-03T18:34:20Z</time>
      </trkpt>
      <trkpt lat="46.30606" lon="-0.26128">
        <ele>92.6</ele>
        <time>2022-04-03T18:34:21Z</time>
      </trkpt>
      <trkpt lat="46.30597" lon="-0.26127">
        <ele>91.8</ele>
        <time>2022-04-03T18:34:22Z</time>
      </trkpt>
      <trkpt lat="46.30587" lon="-0.26126">
        <ele>91.4</ele>
        <time>2022-04-03T18:34:23Z</time>
      </trkpt>
      <trkpt lat="46.30577" lon="-0.26123">
        <ele>90.8</ele>
        <time>2022-04-03T18:34:24Z</time>
      </trkpt>
      <trkpt lat="46.30567" lon="-0.2612">
        <ele>89.6</ele>
        <time>2022-04-03T18:34:25Z</time>
      </trkpt>
      <trkpt lat="46.30558" lon="-0.26114">
        <ele>88.6</ele>
        <time>2022-04-03T18:34:26Z</time>
      </trkpt>
      <trkpt lat="46.30549" lon="-0.26105">
        <ele>88.6</ele>
        <time>2022-04-03T18:34:27Z</time>
      </trkpt>
      <trkpt lat="46.30542" lon="-0.26095">
        <ele>87.6</ele>
        <time>2022-04-03T18:34:28Z</time>
      </trkpt>
      <trkpt lat="46.30537" lon="-0.26083">
        <ele>87</ele>
        <time>2022-04-03T18:34:29Z</time>
      </trkpt>
      <trkpt lat="46.30533" lon="-0.26069">
        <ele>86.2</ele>
        <time>2022-04-03T18:34:30Z</time>
      </trkpt>
      <trkpt lat="46.30529" lon="-0.26055">
        <ele>85.8</ele>
        <time>2022-04-03T18:34:31Z</time>
      </trkpt>
      <trkpt lat="46.30527" lon="-0.26041">
        <ele>85.2</ele>
        <time>2022-04-03T18:34:32Z</time>
      </trkpt>
      <trkpt lat="46.30526" lon="-0.26028">
        <ele>84.4</ele>
        <time>2022-04-03T18:34:33Z</time>
      </trkpt>
      <trkpt lat="46.30525" lon="-0.26015">
        <ele>83.8</ele>
        <time>2022-04-03T18:34:34Z</time>
      </trkpt>
      <trkpt lat="46.30526" lon="-0.26001">
        <ele>82.6</ele>
        <time>2022-04-03T18:34:35Z</time>
      </trkpt>
      <trkpt lat="46.30528" lon="-0.25988">
        <ele>82</ele>
        <time>2022-04-03T18:34:36Z</time>
      </trkpt>
      <trkpt lat="46.30532" lon="-0.25976">
        <ele>81.6</ele>
        <time>2022-04-03T18:34:37Z</time>
      </trkpt>
      <trkpt lat="46.30537" lon="-0.25965">
        <ele>80.8</ele>
        <time>2022-04-03T18:34:38Z</time>
      </trkpt>
      <trkpt lat="46.30544" lon="-0.25956">
        <ele>79.8</ele>
        <time>2022-04-03T18:34:39Z</time>
      </trkpt>
      <trkpt lat="46.30552" lon="-0.25949">
        <ele>79.2</ele>
        <time>2022-04-03T18:34:40Z</time>
      </trkpt>
      <trkpt lat="46.30561" lon="-0.25945">
        <ele>78.8</ele>
        <time>2022-04-03T18:34:41Z</time>
      </trkpt>
      <trkpt lat="46.3057" lon="-0.25944">
        <ele>78.2</ele>
        <time>2022-04-03T18:34:42Z</time>
      </trkpt>
      <trkpt lat="46.30578" lon="-0.25944">
        <ele>77.4</ele>
        <time>2022-04-03T18:34:43Z</time>
      </trkpt>
      <trkpt lat="46.30586" lon="-0.25945">
        <ele>76.8</ele>
        <time>2022-04-03T18:34:44Z</time>
      </trkpt>
      <trkpt lat="46.30593" lon="-0.25946">
        <ele>76.4</ele>
        <time>2022-04-03T18:34:45Z</time>
      </trkpt>
      <trkpt lat="46.30601" lon="-0.25947">
        <ele>76.2</ele>
        <time>2022-04-03T18:34:46Z</time>
      </trkpt>
      <trkpt lat="46.30608" lon="-0.25947">
        <ele>76.2</ele>
        <time>2022-04-03T18:34:47Z</time>
      </trkpt>
      <trkpt lat="46.30615" lon="-0.25948">
        <ele>76.2</ele>
        <time>2022-04-03T18:34:48Z</time>
      </trkpt>
      <trkpt lat="46.30622" lon="-0.25948">
        <ele>76.2</ele>
        <time>2022-04-03T18:34:49Z</time>
      </trkpt>
      <trkpt lat="46.30628" lon="-0.25949">
        <ele>76</ele>
        <time>2022-04-03T18:34:50Z</time>
      </trkpt>
      <trkpt lat="46.30634" lon="-0.2595">
        <ele>76</ele>
        <time>2022-04-03T18:34:51Z</time>
      </trkpt>
      <trkpt lat="46.3064" lon="-0.2595">
        <ele>76</ele>
        <time>2022-04-03T18:34:52Z</time>
      </trkpt>
      <trkpt lat="46.30645" lon="-0.25951">
        <ele>76</ele>
        <time>2022-04-03T18:34:53Z</time>
      </trkpt>
      <trkpt lat="46.3065" lon="-0.25951">
        <ele>76</ele>
        <time>2022-04-03T18:34:54Z</time>
      </trkpt>
      <trkpt lat="46.30655" lon="-0.25951">
        <ele>76.2</ele>
        <time>2022-04-03T18:34:55Z</time>
      </trkpt>
      <trkpt lat="46.3066" lon="-0.25951">
        <ele>76.4</ele>
        <time>2022-04-03T18:34:56Z</time>
      </trkpt>
      <trkpt lat="46.30665" lon="-0.25952">
        <ele>77</ele>
        <time>2022-04-03T18:34:57Z</time>
      </trkpt>
      <trkpt lat="46.30669" lon="-0.25952">
        <ele>77.4</ele>
        <time>2022-04-03T18:34:58Z</time>
      </trkpt>
      <trkpt lat="46.30673" lon="-0.25953">
        <ele>77.6</ele>
        <time>2022-04-03T18:34:59Z</time>
      </trkpt>
      <trkpt lat="46.30677" lon="-0.25954">
        <ele>78</ele>
        <time>2022-04-03T18:35:00Z</time>
      </trkpt>
      <trkpt lat="46.3068" lon="-0.25954">
        <ele>78.4</ele>
        <time>2022-04-03T18:35:01Z</time>
      </trkpt>
      <trkpt lat="46.30684" lon="-0.25954">
        <ele>78.8</ele>
        <time>2022-04-03T18:35:02Z</time>
      </trkpt>
      <trkpt lat="46.30687" lon="-0.25954">
        <ele>79.4</ele>
        <time>2022-04-03T18:35:03Z</time>
      </trkpt>
      <trkpt lat="46.3069" lon="-0.25954">
        <ele>79.6</ele>
        <time>2022-04-03T18:35:04Z</time>
      </trkpt>
      <trkpt lat="46.30693" lon="-0.25954">
        <ele>79.6</ele>
        <time>2022-04-03T18:35:05Z</time>
      </trkpt>
      <trkpt lat="46.30696" lon="-0.25955">
        <ele>80</ele>
        <time>2022-04-03T18:35:06Z</time>
      </trkpt>
      <trkpt lat="46.30699" lon="-0.25955">
        <ele>80.4</ele>
        <time>2022-04-03T18:35:07Z</time>
      </trkpt>
      <trkpt lat="46.30701" lon="-0.25955">
        <ele>80.8</ele>
        <time>2022-04-03T18:35:08Z</time>
      </trkpt>
      <trkpt lat="46.30704" lon="-0.25955">
        <ele>81.4</ele>
        <time>2022-04-03T18:35:09Z</time>
      </trkpt>
      <trkpt lat="46.30707" lon="-0.25956">
        <ele>81.8</ele>
        <time>2022-04-03T18:35:10Z</time>
      </trkpt>
      <trkpt lat="46.30709" lon="-0.25956">
        <ele>82.2</ele>
        <time>2022-04-03T18:35:11Z</time>
      </trkpt>
      <trkpt lat="46.30712" lon="-0.25956">
        <ele>82.6</ele>
        <time>2022-04-03T18:35:12Z</time>
      </trkpt>
      <trkpt lat="46.30715" lon="-0.25957">
        <ele>83</ele>
        <time>2022-04-03T18:35:13Z</time>
      </trkpt>
      <trkpt lat="46.30717" lon="-0.25957">
        <ele>83.2</ele>
        <time>2022-04-03T18:35:14Z</time>
      </trkpt>
      <trkpt lat="46.3072" lon="-0.25958">
        <ele>83.4</ele>
        <time>2022-04-03T18:35:15Z</time>
      </trkpt>
      <trkpt lat="46.30723" lon="-0.25958">
        <ele>83.8</ele>
        <time>2022-04-03T18:35:16Z</time>
      </trkpt>
      <trkpt lat="46.30725" lon="-0.25959">
        <ele>83.8</ele>
        <time>2022-04-03T18:35:17Z</time>
      </trkpt>
      <trkpt lat="46.30728" lon="-0.25959">
        <ele>84</ele>
        <time>2022-04-03T18:35:18Z</time>
      </trkpt>
      <trkpt lat="46.30734" lon="-0.2596">
        <ele>84.2</ele>
        <time>2022-04-03T18:35:19Z</time>
      </trkpt>
    </trkseg>
  </trk>
</gpx>